<?xml version="1.0" encoding="UTF-8" standalone="no" ?>
<gpx xmlns="http://www.topografix.com/GPX/1/1" xmlns:xsi="http://www.w3.org/2001/XMLSchema-instance" xsi:schemaLocation="http://www.topografix.com/GPX/1/1 http://www.topografix.com/GPX/1/1/gpx.xsd" version="1.1" creator="VisuGPX - https://www.visugpx.com">
  <metadata>
    <name>glaris-engelberg(f)</name>
  </metadata>
  <trk>
    <name><![CDATA[glaris-engelberg(f)_1]]></name>
    <extensions>
      <line xmlns="http://www.topografix.com/GPX/gpx_style/0/2">
        <color>0000FF</color>
        <width>4</width>
      </line>
    </extensions>
    <trkseg>
      <trkpt lat="47.03918" lon="9.06161">
        <ele>494</ele>
        <time>2021-08-02T07:44:44.315Z</time>
      </trkpt>
      <trkpt lat="47.03918" lon="9.06161">
        <ele>494</ele>
        <time>2021-08-02T07:44:44.315Z</time>
      </trkpt>
      <trkpt lat="47.03918" lon="9.06161">
        <ele>494</ele>
        <time>2021-08-02T07:44:44.315Z</time>
      </trkpt>
      <trkpt lat="47.03918" lon="9.0616">
        <ele>494</ele>
        <time>2021-08-02T07:44:45.315Z</time>
      </trkpt>
      <trkpt lat="47.03918" lon="9.06159">
        <ele>494</ele>
        <time>2021-08-02T07:44:46.315Z</time>
      </trkpt>
      <trkpt lat="47.03918" lon="9.06158">
        <ele>494</ele>
        <time>2021-08-02T07:44:47.315Z</time>
      </trkpt>
      <trkpt lat="47.03919" lon="9.06157">
        <ele>494</ele>
        <time>2021-08-02T07:44:48.316Z</time>
      </trkpt>
      <trkpt lat="47.03919" lon="9.06156">
        <ele>493</ele>
        <time>2021-08-02T07:44:49.315Z</time>
      </trkpt>
      <trkpt lat="47.03919" lon="9.06155">
        <ele>493</ele>
        <time>2021-08-02T07:44:50.315Z</time>
      </trkpt>
      <trkpt lat="47.03919" lon="9.06155">
        <ele>493</ele>
        <time>2021-08-02T07:44:51.316Z</time>
      </trkpt>
      <trkpt lat="47.0392" lon="9.06154">
        <ele>492</ele>
        <time>2021-08-02T07:44:52.316Z</time>
      </trkpt>
      <trkpt lat="47.0392" lon="9.06153">
        <ele>492</ele>
        <time>2021-08-02T07:44:53.316Z</time>
      </trkpt>
      <trkpt lat="47.0392" lon="9.06154">
        <ele>492</ele>
        <time>2021-08-02T07:44:54.316Z</time>
      </trkpt>
      <trkpt lat="47.0392" lon="9.06154">
        <ele>491</ele>
        <time>2021-08-02T07:44:55.315Z</time>
      </trkpt>
      <trkpt lat="47.0392" lon="9.06154">
        <ele>491</ele>
        <time>2021-08-02T07:44:56.316Z</time>
      </trkpt>
      <trkpt lat="47.0392" lon="9.06155">
        <ele>491</ele>
        <time>2021-08-02T07:44:57.315Z</time>
      </trkpt>
      <trkpt lat="47.0392" lon="9.06156">
        <ele>491</ele>
        <time>2021-08-02T07:44:58.315Z</time>
      </trkpt>
      <trkpt lat="47.0392" lon="9.06158">
        <ele>491</ele>
        <time>2021-08-02T07:44:59.316Z</time>
      </trkpt>
      <trkpt lat="47.0392" lon="9.06159">
        <ele>491</ele>
        <time>2021-08-02T07:45:00.315Z</time>
      </trkpt>
      <trkpt lat="47.0392" lon="9.0616">
        <ele>491</ele>
        <time>2021-08-02T07:45:01.316Z</time>
      </trkpt>
      <trkpt lat="47.0392" lon="9.06161">
        <ele>492</ele>
        <time>2021-08-02T07:45:02.316Z</time>
      </trkpt>
      <trkpt lat="47.0392" lon="9.06162">
        <ele>492</ele>
        <time>2021-08-02T07:45:03.315Z</time>
      </trkpt>
      <trkpt lat="47.0392" lon="9.06164">
        <ele>492</ele>
        <time>2021-08-02T07:45:04.315Z</time>
      </trkpt>
      <trkpt lat="47.0392" lon="9.06166">
        <ele>492</ele>
        <time>2021-08-02T07:45:05.316Z</time>
      </trkpt>
      <trkpt lat="47.03921" lon="9.06167">
        <ele>492</ele>
        <time>2021-08-02T07:45:06.316Z</time>
      </trkpt>
      <trkpt lat="47.03921" lon="9.06169">
        <ele>492</ele>
        <time>2021-08-02T07:45:07.315Z</time>
      </trkpt>
      <trkpt lat="47.0392" lon="9.06171">
        <ele>492</ele>
        <time>2021-08-02T07:45:08.315Z</time>
      </trkpt>
      <trkpt lat="47.0392" lon="9.06173">
        <ele>492</ele>
        <time>2021-08-02T07:45:09.315Z</time>
      </trkpt>
      <trkpt lat="47.0392" lon="9.06175">
        <ele>492</ele>
        <time>2021-08-02T07:45:10.315Z</time>
      </trkpt>
      <trkpt lat="47.0392" lon="9.06177">
        <ele>492</ele>
        <time>2021-08-02T07:45:11.315Z</time>
      </trkpt>
      <trkpt lat="47.03921" lon="9.06178">
        <ele>492</ele>
        <time>2021-08-02T07:45:12.315Z</time>
      </trkpt>
      <trkpt lat="47.03921" lon="9.0618">
        <ele>492</ele>
        <time>2021-08-02T07:45:13.315Z</time>
      </trkpt>
      <trkpt lat="47.03921" lon="9.06182">
        <ele>492</ele>
        <time>2021-08-02T07:45:14.315Z</time>
      </trkpt>
      <trkpt lat="47.03921" lon="9.06184">
        <ele>492</ele>
        <time>2021-08-02T07:45:15.315Z</time>
      </trkpt>
      <trkpt lat="47.03922" lon="9.06186">
        <ele>492</ele>
        <time>2021-08-02T07:45:16.315Z</time>
      </trkpt>
      <trkpt lat="47.03922" lon="9.06188">
        <ele>492</ele>
        <time>2021-08-02T07:45:17.315Z</time>
      </trkpt>
      <trkpt lat="47.03922" lon="9.0619">
        <ele>492</ele>
        <time>2021-08-02T07:45:18.315Z</time>
      </trkpt>
      <trkpt lat="47.03922" lon="9.06191">
        <ele>491</ele>
        <time>2021-08-02T07:45:19.316Z</time>
      </trkpt>
      <trkpt lat="47.03922" lon="9.06193">
        <ele>491</ele>
        <time>2021-08-02T07:45:20.316Z</time>
      </trkpt>
      <trkpt lat="47.03922" lon="9.06195">
        <ele>491</ele>
        <time>2021-08-02T07:45:21.315Z</time>
      </trkpt>
      <trkpt lat="47.03922" lon="9.06197">
        <ele>491</ele>
        <time>2021-08-02T07:45:22.315Z</time>
      </trkpt>
      <trkpt lat="47.03922" lon="9.062">
        <ele>491</ele>
        <time>2021-08-02T07:45:23.316Z</time>
      </trkpt>
      <trkpt lat="47.03922" lon="9.06202">
        <ele>491</ele>
        <time>2021-08-02T07:45:24.316Z</time>
      </trkpt>
      <trkpt lat="47.03922" lon="9.06203">
        <ele>491</ele>
        <time>2021-08-02T07:45:25.316Z</time>
      </trkpt>
      <trkpt lat="47.03922" lon="9.06205">
        <ele>491</ele>
        <time>2021-08-02T07:45:26.316Z</time>
      </trkpt>
      <trkpt lat="47.03923" lon="9.06207">
        <ele>491</ele>
        <time>2021-08-02T07:45:27.315Z</time>
      </trkpt>
      <trkpt lat="47.03923" lon="9.06209">
        <ele>491</ele>
        <time>2021-08-02T07:45:28.316Z</time>
      </trkpt>
      <trkpt lat="47.03924" lon="9.0621">
        <ele>492</ele>
        <time>2021-08-02T07:45:29.316Z</time>
      </trkpt>
      <trkpt lat="47.03924" lon="9.06212">
        <ele>492</ele>
        <time>2021-08-02T07:45:30.316Z</time>
      </trkpt>
      <trkpt lat="47.03924" lon="9.06214">
        <ele>493</ele>
        <time>2021-08-02T07:45:31.316Z</time>
      </trkpt>
      <trkpt lat="47.03924" lon="9.06216">
        <ele>494</ele>
        <time>2021-08-02T07:45:32.316Z</time>
      </trkpt>
      <trkpt lat="47.03924" lon="9.06218">
        <ele>494</ele>
        <time>2021-08-02T07:45:33.316Z</time>
      </trkpt>
      <trkpt lat="47.03925" lon="9.0622">
        <ele>495</ele>
        <time>2021-08-02T07:45:34.316Z</time>
      </trkpt>
      <trkpt lat="47.03925" lon="9.06222">
        <ele>496</ele>
        <time>2021-08-02T07:45:35.316Z</time>
      </trkpt>
      <trkpt lat="47.03925" lon="9.06224">
        <ele>496</ele>
        <time>2021-08-02T07:45:36.315Z</time>
      </trkpt>
      <trkpt lat="47.03925" lon="9.06225">
        <ele>498</ele>
        <time>2021-08-02T07:45:37.316Z</time>
      </trkpt>
      <trkpt lat="47.03925" lon="9.06228">
        <ele>499</ele>
        <time>2021-08-02T07:45:38.315Z</time>
      </trkpt>
      <trkpt lat="47.03926" lon="9.0623">
        <ele>500</ele>
        <time>2021-08-02T07:45:39.316Z</time>
      </trkpt>
      <trkpt lat="47.03926" lon="9.06232">
        <ele>501</ele>
        <time>2021-08-02T07:45:40.316Z</time>
      </trkpt>
      <trkpt lat="47.03926" lon="9.06233">
        <ele>502</ele>
        <time>2021-08-02T07:45:41.316Z</time>
      </trkpt>
      <trkpt lat="47.03926" lon="9.06233">
        <ele>502</ele>
        <time>2021-08-02T07:45:42.316Z</time>
      </trkpt>
      <trkpt lat="47.03926" lon="9.06231">
        <ele>503</ele>
        <time>2021-08-02T07:45:43.315Z</time>
      </trkpt>
      <trkpt lat="47.03925" lon="9.0623">
        <ele>503</ele>
        <time>2021-08-02T07:45:44.315Z</time>
      </trkpt>
      <trkpt lat="47.03925" lon="9.06228">
        <ele>502</ele>
        <time>2021-08-02T07:45:45.316Z</time>
      </trkpt>
      <trkpt lat="47.03925" lon="9.06226">
        <ele>502</ele>
        <time>2021-08-02T07:45:46.316Z</time>
      </trkpt>
      <trkpt lat="47.03925" lon="9.06224">
        <ele>502</ele>
        <time>2021-08-02T07:45:47.316Z</time>
      </trkpt>
      <trkpt lat="47.03925" lon="9.06222">
        <ele>501</ele>
        <time>2021-08-02T07:45:48.315Z</time>
      </trkpt>
      <trkpt lat="47.03925" lon="9.0622">
        <ele>501</ele>
        <time>2021-08-02T07:45:49.316Z</time>
      </trkpt>
      <trkpt lat="47.03925" lon="9.06218">
        <ele>500</ele>
        <time>2021-08-02T07:45:50.316Z</time>
      </trkpt>
      <trkpt lat="47.03925" lon="9.06217">
        <ele>500</ele>
        <time>2021-08-02T07:45:51.315Z</time>
      </trkpt>
      <trkpt lat="47.03925" lon="9.06215">
        <ele>499</ele>
        <time>2021-08-02T07:45:52.316Z</time>
      </trkpt>
      <trkpt lat="47.03925" lon="9.06214">
        <ele>499</ele>
        <time>2021-08-02T07:45:53.316Z</time>
      </trkpt>
      <trkpt lat="47.03925" lon="9.06213">
        <ele>499</ele>
        <time>2021-08-02T07:45:54.316Z</time>
      </trkpt>
      <trkpt lat="47.03925" lon="9.06211">
        <ele>499</ele>
        <time>2021-08-02T07:45:55.315Z</time>
      </trkpt>
      <trkpt lat="47.03925" lon="9.06209">
        <ele>498</ele>
        <time>2021-08-02T07:45:56.315Z</time>
      </trkpt>
      <trkpt lat="47.03925" lon="9.06206">
        <ele>498</ele>
        <time>2021-08-02T07:45:57.316Z</time>
      </trkpt>
      <trkpt lat="47.03925" lon="9.06205">
        <ele>498</ele>
        <time>2021-08-02T07:45:58.316Z</time>
      </trkpt>
      <trkpt lat="47.03926" lon="9.06204">
        <ele>497</ele>
        <time>2021-08-02T07:45:59.316Z</time>
      </trkpt>
      <trkpt lat="47.03927" lon="9.06203">
        <ele>497</ele>
        <time>2021-08-02T07:46:00.316Z</time>
      </trkpt>
      <trkpt lat="47.03927" lon="9.06201">
        <ele>497</ele>
        <time>2021-08-02T07:46:01.316Z</time>
      </trkpt>
      <trkpt lat="47.03927" lon="9.06199">
        <ele>497</ele>
        <time>2021-08-02T07:46:02.315Z</time>
      </trkpt>
      <trkpt lat="47.03926" lon="9.06196">
        <ele>497</ele>
        <time>2021-08-02T07:46:03.315Z</time>
      </trkpt>
      <trkpt lat="47.03925" lon="9.06194">
        <ele>497</ele>
        <time>2021-08-02T07:46:04.316Z</time>
      </trkpt>
      <trkpt lat="47.03925" lon="9.06192">
        <ele>497</ele>
        <time>2021-08-02T07:46:05.316Z</time>
      </trkpt>
      <trkpt lat="47.03926" lon="9.0619">
        <ele>497</ele>
        <time>2021-08-02T07:46:06.316Z</time>
      </trkpt>
      <trkpt lat="47.03926" lon="9.06188">
        <ele>497</ele>
        <time>2021-08-02T07:46:07.316Z</time>
      </trkpt>
      <trkpt lat="47.03926" lon="9.06187">
        <ele>498</ele>
        <time>2021-08-02T07:46:08.316Z</time>
      </trkpt>
      <trkpt lat="47.03925" lon="9.06185">
        <ele>498</ele>
        <time>2021-08-02T07:46:09.316Z</time>
      </trkpt>
      <trkpt lat="47.03925" lon="9.06183">
        <ele>498</ele>
        <time>2021-08-02T07:46:10.316Z</time>
      </trkpt>
      <trkpt lat="47.03925" lon="9.0618">
        <ele>499</ele>
        <time>2021-08-02T07:46:11.316Z</time>
      </trkpt>
      <trkpt lat="47.03925" lon="9.06179">
        <ele>499</ele>
        <time>2021-08-02T07:46:12.315Z</time>
      </trkpt>
      <trkpt lat="47.03925" lon="9.06178">
        <ele>499</ele>
        <time>2021-08-02T07:46:13.316Z</time>
      </trkpt>
      <trkpt lat="47.03926" lon="9.06177">
        <ele>499</ele>
        <time>2021-08-02T07:46:14.316Z</time>
      </trkpt>
      <trkpt lat="47.03926" lon="9.06175">
        <ele>499</ele>
        <time>2021-08-02T07:46:15.316Z</time>
      </trkpt>
      <trkpt lat="47.03926" lon="9.06174">
        <ele>499</ele>
        <time>2021-08-02T07:46:16.315Z</time>
      </trkpt>
      <trkpt lat="47.03926" lon="9.06172">
        <ele>499</ele>
        <time>2021-08-02T07:46:17.316Z</time>
      </trkpt>
      <trkpt lat="47.03926" lon="9.0617">
        <ele>499</ele>
        <time>2021-08-02T07:46:18.316Z</time>
      </trkpt>
      <trkpt lat="47.03926" lon="9.06168">
        <ele>499</ele>
        <time>2021-08-02T07:46:19.316Z</time>
      </trkpt>
      <trkpt lat="47.03926" lon="9.06166">
        <ele>500</ele>
        <time>2021-08-02T07:46:20.316Z</time>
      </trkpt>
      <trkpt lat="47.03925" lon="9.06165">
        <ele>500</ele>
        <time>2021-08-02T07:46:21.316Z</time>
      </trkpt>
      <trkpt lat="47.03925" lon="9.06163">
        <ele>500</ele>
        <time>2021-08-02T07:46:22.316Z</time>
      </trkpt>
      <trkpt lat="47.03925" lon="9.06161">
        <ele>499</ele>
        <time>2021-08-02T07:46:23.316Z</time>
      </trkpt>
      <trkpt lat="47.03925" lon="9.06159">
        <ele>499</ele>
        <time>2021-08-02T07:46:24.316Z</time>
      </trkpt>
      <trkpt lat="47.03925" lon="9.06157">
        <ele>499</ele>
        <time>2021-08-02T07:46:25.316Z</time>
      </trkpt>
      <trkpt lat="47.03925" lon="9.06155">
        <ele>499</ele>
        <time>2021-08-02T07:46:26.315Z</time>
      </trkpt>
      <trkpt lat="47.03925" lon="9.06153">
        <ele>499</ele>
        <time>2021-08-02T07:46:27.316Z</time>
      </trkpt>
      <trkpt lat="47.03925" lon="9.06151">
        <ele>499</ele>
        <time>2021-08-02T07:46:28.316Z</time>
      </trkpt>
      <trkpt lat="47.03925" lon="9.06149">
        <ele>500</ele>
        <time>2021-08-02T07:46:29.316Z</time>
      </trkpt>
      <trkpt lat="47.03926" lon="9.06147">
        <ele>499</ele>
        <time>2021-08-02T07:46:30.316Z</time>
      </trkpt>
      <trkpt lat="47.03926" lon="9.06146">
        <ele>499</ele>
        <time>2021-08-02T07:46:31.316Z</time>
      </trkpt>
      <trkpt lat="47.03927" lon="9.06144">
        <ele>499</ele>
        <time>2021-08-02T07:46:32.315Z</time>
      </trkpt>
      <trkpt lat="47.03928" lon="9.06142">
        <ele>499</ele>
        <time>2021-08-02T07:46:33.315Z</time>
      </trkpt>
      <trkpt lat="47.03928" lon="9.0614">
        <ele>498</ele>
        <time>2021-08-02T07:46:34.315Z</time>
      </trkpt>
      <trkpt lat="47.03928" lon="9.06138">
        <ele>498</ele>
        <time>2021-08-02T07:46:35.315Z</time>
      </trkpt>
      <trkpt lat="47.03927" lon="9.06135">
        <ele>498</ele>
        <time>2021-08-02T07:46:36.316Z</time>
      </trkpt>
      <trkpt lat="47.03926" lon="9.06132">
        <ele>498</ele>
        <time>2021-08-02T07:46:37.316Z</time>
      </trkpt>
      <trkpt lat="47.03926" lon="9.0613">
        <ele>498</ele>
        <time>2021-08-02T07:46:38.316Z</time>
      </trkpt>
      <trkpt lat="47.03926" lon="9.06129">
        <ele>498</ele>
        <time>2021-08-02T07:46:39.316Z</time>
      </trkpt>
      <trkpt lat="47.03926" lon="9.06127">
        <ele>499</ele>
        <time>2021-08-02T07:46:40.316Z</time>
      </trkpt>
      <trkpt lat="47.03925" lon="9.06126">
        <ele>499</ele>
        <time>2021-08-02T07:46:41.315Z</time>
      </trkpt>
      <trkpt lat="47.03925" lon="9.06124">
        <ele>498</ele>
        <time>2021-08-02T07:46:42.315Z</time>
      </trkpt>
      <trkpt lat="47.03925" lon="9.06122">
        <ele>498</ele>
        <time>2021-08-02T07:46:43.315Z</time>
      </trkpt>
      <trkpt lat="47.03926" lon="9.06121">
        <ele>498</ele>
        <time>2021-08-02T07:46:44.315Z</time>
      </trkpt>
      <trkpt lat="47.03926" lon="9.06119">
        <ele>498</ele>
        <time>2021-08-02T07:46:45.315Z</time>
      </trkpt>
      <trkpt lat="47.03927" lon="9.06117">
        <ele>498</ele>
        <time>2021-08-02T07:46:46.316Z</time>
      </trkpt>
      <trkpt lat="47.03927" lon="9.06116">
        <ele>498</ele>
        <time>2021-08-02T07:46:47.316Z</time>
      </trkpt>
      <trkpt lat="47.03927" lon="9.06114">
        <ele>498</ele>
        <time>2021-08-02T07:46:48.316Z</time>
      </trkpt>
      <trkpt lat="47.03927" lon="9.06112">
        <ele>499</ele>
        <time>2021-08-02T07:46:49.315Z</time>
      </trkpt>
      <trkpt lat="47.03926" lon="9.0611">
        <ele>499</ele>
        <time>2021-08-02T07:46:50.316Z</time>
      </trkpt>
      <trkpt lat="47.03926" lon="9.06108">
        <ele>500</ele>
        <time>2021-08-02T07:46:51.316Z</time>
      </trkpt>
      <trkpt lat="47.03926" lon="9.06106">
        <ele>500</ele>
        <time>2021-08-02T07:46:52.316Z</time>
      </trkpt>
      <trkpt lat="47.03926" lon="9.06104">
        <ele>501</ele>
        <time>2021-08-02T07:46:53.315Z</time>
      </trkpt>
      <trkpt lat="47.03926" lon="9.06103">
        <ele>501</ele>
        <time>2021-08-02T07:46:54.316Z</time>
      </trkpt>
      <trkpt lat="47.03926" lon="9.06101">
        <ele>502</ele>
        <time>2021-08-02T07:46:55.316Z</time>
      </trkpt>
      <trkpt lat="47.03925" lon="9.06099">
        <ele>502</ele>
        <time>2021-08-02T07:46:56.316Z</time>
      </trkpt>
      <trkpt lat="47.03925" lon="9.06098">
        <ele>503</ele>
        <time>2021-08-02T07:46:57.315Z</time>
      </trkpt>
      <trkpt lat="47.03925" lon="9.06096">
        <ele>503</ele>
        <time>2021-08-02T07:46:58.315Z</time>
      </trkpt>
      <trkpt lat="47.03925" lon="9.06095">
        <ele>503</ele>
        <time>2021-08-02T07:46:59.316Z</time>
      </trkpt>
      <trkpt lat="47.03924" lon="9.06093">
        <ele>504</ele>
        <time>2021-08-02T07:47:00.316Z</time>
      </trkpt>
      <trkpt lat="47.03924" lon="9.06092">
        <ele>504</ele>
        <time>2021-08-02T07:47:01.315Z</time>
      </trkpt>
      <trkpt lat="47.03924" lon="9.06091">
        <ele>504</ele>
        <time>2021-08-02T07:47:02.315Z</time>
      </trkpt>
      <trkpt lat="47.03924" lon="9.0609">
        <ele>505</ele>
        <time>2021-08-02T07:47:03.315Z</time>
      </trkpt>
      <trkpt lat="47.03923" lon="9.06089">
        <ele>505</ele>
        <time>2021-08-02T07:47:04.315Z</time>
      </trkpt>
      <trkpt lat="47.03923" lon="9.06088">
        <ele>505</ele>
        <time>2021-08-02T07:47:05.316Z</time>
      </trkpt>
      <trkpt lat="47.03924" lon="9.06086">
        <ele>505</ele>
        <time>2021-08-02T07:47:06.316Z</time>
      </trkpt>
      <trkpt lat="47.03924" lon="9.06085">
        <ele>505</ele>
        <time>2021-08-02T07:47:07.316Z</time>
      </trkpt>
      <trkpt lat="47.03925" lon="9.06086">
        <ele>505</ele>
        <time>2021-08-02T07:47:08.315Z</time>
      </trkpt>
      <trkpt lat="47.03926" lon="9.06086">
        <ele>505</ele>
        <time>2021-08-02T07:47:09.316Z</time>
      </trkpt>
      <trkpt lat="47.03926" lon="9.06085">
        <ele>504</ele>
        <time>2021-08-02T07:47:10.315Z</time>
      </trkpt>
      <trkpt lat="47.03927" lon="9.06084">
        <ele>504</ele>
        <time>2021-08-02T07:47:11.316Z</time>
      </trkpt>
      <trkpt lat="47.03928" lon="9.06083">
        <ele>503</ele>
        <time>2021-08-02T07:47:12.316Z</time>
      </trkpt>
      <trkpt lat="47.03928" lon="9.06082">
        <ele>502</ele>
        <time>2021-08-02T07:47:13.315Z</time>
      </trkpt>
      <trkpt lat="47.03927" lon="9.06081">
        <ele>502</ele>
        <time>2021-08-02T07:47:14.316Z</time>
      </trkpt>
      <trkpt lat="47.03926" lon="9.0608">
        <ele>501</ele>
        <time>2021-08-02T07:47:15.316Z</time>
      </trkpt>
      <trkpt lat="47.03925" lon="9.06078">
        <ele>501</ele>
        <time>2021-08-02T07:47:16.315Z</time>
      </trkpt>
      <trkpt lat="47.03925" lon="9.06077">
        <ele>501</ele>
        <time>2021-08-02T07:47:17.316Z</time>
      </trkpt>
      <trkpt lat="47.03924" lon="9.06076">
        <ele>501</ele>
        <time>2021-08-02T07:47:18.316Z</time>
      </trkpt>
      <trkpt lat="47.03924" lon="9.06074">
        <ele>501</ele>
        <time>2021-08-02T07:47:19.316Z</time>
      </trkpt>
      <trkpt lat="47.03924" lon="9.06073">
        <ele>500</ele>
        <time>2021-08-02T07:47:20.316Z</time>
      </trkpt>
      <trkpt lat="47.03923" lon="9.06071">
        <ele>500</ele>
        <time>2021-08-02T07:47:21.315Z</time>
      </trkpt>
      <trkpt lat="47.03923" lon="9.0607">
        <ele>500</ele>
        <time>2021-08-02T07:47:22.315Z</time>
      </trkpt>
      <trkpt lat="47.03923" lon="9.06068">
        <ele>499</ele>
        <time>2021-08-02T07:47:23.316Z</time>
      </trkpt>
      <trkpt lat="47.03923" lon="9.06066">
        <ele>499</ele>
        <time>2021-08-02T07:47:24.315Z</time>
      </trkpt>
      <trkpt lat="47.03923" lon="9.06064">
        <ele>500</ele>
        <time>2021-08-02T07:47:25.315Z</time>
      </trkpt>
      <trkpt lat="47.03922" lon="9.06062">
        <ele>500</ele>
        <time>2021-08-02T07:47:26.316Z</time>
      </trkpt>
      <trkpt lat="47.03923" lon="9.06061">
        <ele>500</ele>
        <time>2021-08-02T07:47:27.316Z</time>
      </trkpt>
      <trkpt lat="47.03923" lon="9.06059">
        <ele>501</ele>
        <time>2021-08-02T07:47:28.316Z</time>
      </trkpt>
      <trkpt lat="47.03922" lon="9.06058">
        <ele>501</ele>
        <time>2021-08-02T07:47:29.316Z</time>
      </trkpt>
      <trkpt lat="47.03922" lon="9.06057">
        <ele>502</ele>
        <time>2021-08-02T07:47:30.316Z</time>
      </trkpt>
      <trkpt lat="47.03922" lon="9.06055">
        <ele>502</ele>
        <time>2021-08-02T07:47:31.316Z</time>
      </trkpt>
      <trkpt lat="47.03922" lon="9.06054">
        <ele>503</ele>
        <time>2021-08-02T07:47:32.316Z</time>
      </trkpt>
      <trkpt lat="47.03922" lon="9.06052">
        <ele>503</ele>
        <time>2021-08-02T07:47:33.316Z</time>
      </trkpt>
      <trkpt lat="47.03921" lon="9.0605">
        <ele>503</ele>
        <time>2021-08-02T07:47:34.316Z</time>
      </trkpt>
      <trkpt lat="47.03921" lon="9.06048">
        <ele>504</ele>
        <time>2021-08-02T07:47:35.316Z</time>
      </trkpt>
      <trkpt lat="47.03921" lon="9.06046">
        <ele>504</ele>
        <time>2021-08-02T07:47:36.316Z</time>
      </trkpt>
      <trkpt lat="47.03921" lon="9.06045">
        <ele>504</ele>
        <time>2021-08-02T07:47:37.315Z</time>
      </trkpt>
      <trkpt lat="47.03921" lon="9.06043">
        <ele>504</ele>
        <time>2021-08-02T07:47:38.316Z</time>
      </trkpt>
      <trkpt lat="47.0392" lon="9.06041">
        <ele>503</ele>
        <time>2021-08-02T07:47:39.315Z</time>
      </trkpt>
      <trkpt lat="47.0392" lon="9.06039">
        <ele>503</ele>
        <time>2021-08-02T07:47:40.316Z</time>
      </trkpt>
      <trkpt lat="47.03919" lon="9.06038">
        <ele>504</ele>
        <time>2021-08-02T07:47:41.316Z</time>
      </trkpt>
      <trkpt lat="47.03919" lon="9.06037">
        <ele>504</ele>
        <time>2021-08-02T07:47:42.316Z</time>
      </trkpt>
      <trkpt lat="47.03918" lon="9.06035">
        <ele>504</ele>
        <time>2021-08-02T07:47:43.315Z</time>
      </trkpt>
      <trkpt lat="47.03917" lon="9.06033">
        <ele>505</ele>
        <time>2021-08-02T07:47:44.316Z</time>
      </trkpt>
      <trkpt lat="47.03916" lon="9.06031">
        <ele>505</ele>
        <time>2021-08-02T07:47:45.316Z</time>
      </trkpt>
      <trkpt lat="47.03916" lon="9.06029">
        <ele>506</ele>
        <time>2021-08-02T07:47:46.316Z</time>
      </trkpt>
      <trkpt lat="47.03916" lon="9.06028">
        <ele>506</ele>
        <time>2021-08-02T07:47:47.316Z</time>
      </trkpt>
      <trkpt lat="47.03916" lon="9.06027">
        <ele>507</ele>
        <time>2021-08-02T07:47:48.315Z</time>
      </trkpt>
      <trkpt lat="47.03916" lon="9.06025">
        <ele>508</ele>
        <time>2021-08-02T07:47:49.316Z</time>
      </trkpt>
      <trkpt lat="47.03916" lon="9.06023">
        <ele>508</ele>
        <time>2021-08-02T07:47:50.316Z</time>
      </trkpt>
      <trkpt lat="47.03916" lon="9.06022">
        <ele>509</ele>
        <time>2021-08-02T07:47:51.316Z</time>
      </trkpt>
      <trkpt lat="47.03917" lon="9.0602">
        <ele>509</ele>
        <time>2021-08-02T07:47:52.316Z</time>
      </trkpt>
      <trkpt lat="47.03918" lon="9.06018">
        <ele>510</ele>
        <time>2021-08-02T07:47:53.316Z</time>
      </trkpt>
      <trkpt lat="47.03918" lon="9.06017">
        <ele>511</ele>
        <time>2021-08-02T07:47:54.315Z</time>
      </trkpt>
      <trkpt lat="47.03919" lon="9.06016">
        <ele>511</ele>
        <time>2021-08-02T07:47:55.315Z</time>
      </trkpt>
      <trkpt lat="47.03918" lon="9.06014">
        <ele>512</ele>
        <time>2021-08-02T07:47:56.316Z</time>
      </trkpt>
      <trkpt lat="47.03918" lon="9.06013">
        <ele>512</ele>
        <time>2021-08-02T07:47:57.315Z</time>
      </trkpt>
      <trkpt lat="47.03917" lon="9.06011">
        <ele>513</ele>
        <time>2021-08-02T07:47:58.316Z</time>
      </trkpt>
      <trkpt lat="47.03917" lon="9.06009">
        <ele>513</ele>
        <time>2021-08-02T07:47:59.316Z</time>
      </trkpt>
      <trkpt lat="47.03917" lon="9.06007">
        <ele>514</ele>
        <time>2021-08-02T07:48:00.316Z</time>
      </trkpt>
      <trkpt lat="47.03917" lon="9.06005">
        <ele>514</ele>
        <time>2021-08-02T07:48:01.316Z</time>
      </trkpt>
      <trkpt lat="47.03916" lon="9.06003">
        <ele>514</ele>
        <time>2021-08-02T07:48:02.316Z</time>
      </trkpt>
      <trkpt lat="47.03915" lon="9.06002">
        <ele>513</ele>
        <time>2021-08-02T07:48:03.315Z</time>
      </trkpt>
      <trkpt lat="47.03915" lon="9.05999">
        <ele>513</ele>
        <time>2021-08-02T07:48:04.315Z</time>
      </trkpt>
      <trkpt lat="47.03915" lon="9.05998">
        <ele>512</ele>
        <time>2021-08-02T07:48:05.316Z</time>
      </trkpt>
      <trkpt lat="47.03914" lon="9.05997">
        <ele>512</ele>
        <time>2021-08-02T07:48:06.316Z</time>
      </trkpt>
      <trkpt lat="47.03914" lon="9.05995">
        <ele>511</ele>
        <time>2021-08-02T07:48:07.316Z</time>
      </trkpt>
      <trkpt lat="47.03914" lon="9.05993">
        <ele>511</ele>
        <time>2021-08-02T07:48:08.316Z</time>
      </trkpt>
      <trkpt lat="47.03914" lon="9.05992">
        <ele>510</ele>
        <time>2021-08-02T07:48:09.315Z</time>
      </trkpt>
      <trkpt lat="47.03914" lon="9.0599">
        <ele>510</ele>
        <time>2021-08-02T07:48:10.315Z</time>
      </trkpt>
      <trkpt lat="47.03914" lon="9.05989">
        <ele>509</ele>
        <time>2021-08-02T07:48:11.316Z</time>
      </trkpt>
      <trkpt lat="47.03914" lon="9.05987">
        <ele>508</ele>
        <time>2021-08-02T07:48:12.316Z</time>
      </trkpt>
      <trkpt lat="47.03914" lon="9.05986">
        <ele>508</ele>
        <time>2021-08-02T07:48:13.316Z</time>
      </trkpt>
      <trkpt lat="47.03914" lon="9.05984">
        <ele>507</ele>
        <time>2021-08-02T07:48:14.315Z</time>
      </trkpt>
      <trkpt lat="47.03914" lon="9.05982">
        <ele>506</ele>
        <time>2021-08-02T07:48:15.316Z</time>
      </trkpt>
      <trkpt lat="47.03914" lon="9.0598">
        <ele>506</ele>
        <time>2021-08-02T07:48:16.315Z</time>
      </trkpt>
      <trkpt lat="47.03914" lon="9.05978">
        <ele>506</ele>
        <time>2021-08-02T07:48:17.315Z</time>
      </trkpt>
      <trkpt lat="47.03914" lon="9.05977">
        <ele>506</ele>
        <time>2021-08-02T07:48:18.316Z</time>
      </trkpt>
      <trkpt lat="47.03914" lon="9.05976">
        <ele>505</ele>
        <time>2021-08-02T07:48:19.316Z</time>
      </trkpt>
      <trkpt lat="47.03914" lon="9.05974">
        <ele>505</ele>
        <time>2021-08-02T07:48:20.316Z</time>
      </trkpt>
      <trkpt lat="47.03914" lon="9.05972">
        <ele>505</ele>
        <time>2021-08-02T07:48:21.316Z</time>
      </trkpt>
      <trkpt lat="47.03914" lon="9.0597">
        <ele>505</ele>
        <time>2021-08-02T07:48:22.316Z</time>
      </trkpt>
      <trkpt lat="47.03914" lon="9.05969">
        <ele>505</ele>
        <time>2021-08-02T07:48:23.316Z</time>
      </trkpt>
      <trkpt lat="47.03914" lon="9.05967">
        <ele>505</ele>
        <time>2021-08-02T07:48:24.315Z</time>
      </trkpt>
      <trkpt lat="47.03914" lon="9.05965">
        <ele>505</ele>
        <time>2021-08-02T07:48:25.316Z</time>
      </trkpt>
      <trkpt lat="47.03915" lon="9.05964">
        <ele>505</ele>
        <time>2021-08-02T07:48:26.316Z</time>
      </trkpt>
      <trkpt lat="47.03915" lon="9.05963">
        <ele>504</ele>
        <time>2021-08-02T07:48:27.316Z</time>
      </trkpt>
      <trkpt lat="47.03915" lon="9.05962">
        <ele>504</ele>
        <time>2021-08-02T07:48:28.316Z</time>
      </trkpt>
      <trkpt lat="47.03915" lon="9.0596">
        <ele>503</ele>
        <time>2021-08-02T07:48:29.316Z</time>
      </trkpt>
      <trkpt lat="47.03914" lon="9.05959">
        <ele>503</ele>
        <time>2021-08-02T07:48:30.316Z</time>
      </trkpt>
      <trkpt lat="47.03914" lon="9.05956">
        <ele>502</ele>
        <time>2021-08-02T07:48:31.315Z</time>
      </trkpt>
      <trkpt lat="47.03914" lon="9.05954">
        <ele>502</ele>
        <time>2021-08-02T07:48:32.316Z</time>
      </trkpt>
      <trkpt lat="47.03913" lon="9.05952">
        <ele>502</ele>
        <time>2021-08-02T07:48:33.316Z</time>
      </trkpt>
      <trkpt lat="47.03913" lon="9.0595">
        <ele>502</ele>
        <time>2021-08-02T07:48:34.316Z</time>
      </trkpt>
      <trkpt lat="47.03913" lon="9.05949">
        <ele>502</ele>
        <time>2021-08-02T07:48:35.316Z</time>
      </trkpt>
      <trkpt lat="47.03913" lon="9.05948">
        <ele>502</ele>
        <time>2021-08-02T07:48:36.316Z</time>
      </trkpt>
      <trkpt lat="47.03913" lon="9.05947">
        <ele>502</ele>
        <time>2021-08-02T07:48:37.316Z</time>
      </trkpt>
      <trkpt lat="47.03913" lon="9.05945">
        <ele>502</ele>
        <time>2021-08-02T07:48:38.316Z</time>
      </trkpt>
      <trkpt lat="47.03914" lon="9.05944">
        <ele>502</ele>
        <time>2021-08-02T07:48:39.315Z</time>
      </trkpt>
      <trkpt lat="47.03914" lon="9.05943">
        <ele>502</ele>
        <time>2021-08-02T07:48:40.316Z</time>
      </trkpt>
      <trkpt lat="47.03914" lon="9.05941">
        <ele>502</ele>
        <time>2021-08-02T07:48:41.316Z</time>
      </trkpt>
      <trkpt lat="47.03914" lon="9.05939">
        <ele>501</ele>
        <time>2021-08-02T07:48:42.315Z</time>
      </trkpt>
      <trkpt lat="47.03914" lon="9.05937">
        <ele>501</ele>
        <time>2021-08-02T07:48:43.316Z</time>
      </trkpt>
      <trkpt lat="47.03915" lon="9.05935">
        <ele>501</ele>
        <time>2021-08-02T07:48:44.315Z</time>
      </trkpt>
      <trkpt lat="47.03914" lon="9.05933">
        <ele>501</ele>
        <time>2021-08-02T07:48:45.316Z</time>
      </trkpt>
      <trkpt lat="47.03914" lon="9.05932">
        <ele>501</ele>
        <time>2021-08-02T07:48:46.315Z</time>
      </trkpt>
      <trkpt lat="47.03914" lon="9.05931">
        <ele>501</ele>
        <time>2021-08-02T07:48:47.316Z</time>
      </trkpt>
      <trkpt lat="47.03914" lon="9.05929">
        <ele>501</ele>
        <time>2021-08-02T07:48:48.316Z</time>
      </trkpt>
      <trkpt lat="47.03914" lon="9.05927">
        <ele>501</ele>
        <time>2021-08-02T07:48:49.316Z</time>
      </trkpt>
      <trkpt lat="47.03914" lon="9.05926">
        <ele>501</ele>
        <time>2021-08-02T07:48:50.315Z</time>
      </trkpt>
      <trkpt lat="47.03914" lon="9.05924">
        <ele>501</ele>
        <time>2021-08-02T07:48:51.316Z</time>
      </trkpt>
      <trkpt lat="47.03914" lon="9.05923">
        <ele>502</ele>
        <time>2021-08-02T07:48:52.316Z</time>
      </trkpt>
      <trkpt lat="47.03914" lon="9.05921">
        <ele>502</ele>
        <time>2021-08-02T07:48:53.316Z</time>
      </trkpt>
      <trkpt lat="47.03914" lon="9.05919">
        <ele>503</ele>
        <time>2021-08-02T07:48:54.315Z</time>
      </trkpt>
      <trkpt lat="47.03914" lon="9.05918">
        <ele>503</ele>
        <time>2021-08-02T07:48:55.316Z</time>
      </trkpt>
      <trkpt lat="47.03914" lon="9.05916">
        <ele>504</ele>
        <time>2021-08-02T07:48:56.316Z</time>
      </trkpt>
      <trkpt lat="47.03914" lon="9.05915">
        <ele>504</ele>
        <time>2021-08-02T07:48:57.315Z</time>
      </trkpt>
      <trkpt lat="47.03914" lon="9.05913">
        <ele>504</ele>
        <time>2021-08-02T07:48:58.316Z</time>
      </trkpt>
      <trkpt lat="47.03914" lon="9.05912">
        <ele>504</ele>
        <time>2021-08-02T07:48:59.315Z</time>
      </trkpt>
      <trkpt lat="47.03914" lon="9.0591">
        <ele>504</ele>
        <time>2021-08-02T07:49:00.315Z</time>
      </trkpt>
      <trkpt lat="47.03915" lon="9.05909">
        <ele>504</ele>
        <time>2021-08-02T07:49:01.316Z</time>
      </trkpt>
      <trkpt lat="47.03916" lon="9.05908">
        <ele>504</ele>
        <time>2021-08-02T07:49:02.316Z</time>
      </trkpt>
      <trkpt lat="47.03916" lon="9.05907">
        <ele>503</ele>
        <time>2021-08-02T07:49:03.315Z</time>
      </trkpt>
      <trkpt lat="47.03916" lon="9.05906">
        <ele>503</ele>
        <time>2021-08-02T07:49:04.316Z</time>
      </trkpt>
      <trkpt lat="47.03917" lon="9.05904">
        <ele>503</ele>
        <time>2021-08-02T07:49:05.316Z</time>
      </trkpt>
      <trkpt lat="47.03917" lon="9.05903">
        <ele>503</ele>
        <time>2021-08-02T07:49:06.315Z</time>
      </trkpt>
      <trkpt lat="47.03917" lon="9.05901">
        <ele>502</ele>
        <time>2021-08-02T07:49:07.316Z</time>
      </trkpt>
      <trkpt lat="47.03918" lon="9.059">
        <ele>502</ele>
        <time>2021-08-02T07:49:08.315Z</time>
      </trkpt>
      <trkpt lat="47.03918" lon="9.05899">
        <ele>502</ele>
        <time>2021-08-02T07:49:09.316Z</time>
      </trkpt>
      <trkpt lat="47.03918" lon="9.05898">
        <ele>502</ele>
        <time>2021-08-02T07:49:10.315Z</time>
      </trkpt>
      <trkpt lat="47.03919" lon="9.05898">
        <ele>503</ele>
        <time>2021-08-02T07:49:11.316Z</time>
      </trkpt>
      <trkpt lat="47.0392" lon="9.05898">
        <ele>503</ele>
        <time>2021-08-02T07:49:12.315Z</time>
      </trkpt>
      <trkpt lat="47.03921" lon="9.05897">
        <ele>503</ele>
        <time>2021-08-02T07:49:13.316Z</time>
      </trkpt>
      <trkpt lat="47.03921" lon="9.05896">
        <ele>503</ele>
        <time>2021-08-02T07:49:14.315Z</time>
      </trkpt>
      <trkpt lat="47.03922" lon="9.05894">
        <ele>503</ele>
        <time>2021-08-02T07:49:15.316Z</time>
      </trkpt>
      <trkpt lat="47.03923" lon="9.05892">
        <ele>504</ele>
        <time>2021-08-02T07:49:16.316Z</time>
      </trkpt>
      <trkpt lat="47.03923" lon="9.05891">
        <ele>504</ele>
        <time>2021-08-02T07:49:17.316Z</time>
      </trkpt>
      <trkpt lat="47.03924" lon="9.0589">
        <ele>504</ele>
        <time>2021-08-02T07:49:18.316Z</time>
      </trkpt>
      <trkpt lat="47.03925" lon="9.05888">
        <ele>504</ele>
        <time>2021-08-02T07:49:19.315Z</time>
      </trkpt>
      <trkpt lat="47.03925" lon="9.05887">
        <ele>504</ele>
        <time>2021-08-02T07:49:20.316Z</time>
      </trkpt>
      <trkpt lat="47.03925" lon="9.05886">
        <ele>504</ele>
        <time>2021-08-02T07:49:21.315Z</time>
      </trkpt>
      <trkpt lat="47.03926" lon="9.05884">
        <ele>504</ele>
        <time>2021-08-02T07:49:22.315Z</time>
      </trkpt>
      <trkpt lat="47.03926" lon="9.05882">
        <ele>504</ele>
        <time>2021-08-02T07:49:23.315Z</time>
      </trkpt>
      <trkpt lat="47.03926" lon="9.05881">
        <ele>505</ele>
        <time>2021-08-02T07:49:24.315Z</time>
      </trkpt>
      <trkpt lat="47.03927" lon="9.05879">
        <ele>505</ele>
        <time>2021-08-02T07:49:25.315Z</time>
      </trkpt>
      <trkpt lat="47.03927" lon="9.05878">
        <ele>506</ele>
        <time>2021-08-02T07:49:26.315Z</time>
      </trkpt>
      <trkpt lat="47.03926" lon="9.05876">
        <ele>506</ele>
        <time>2021-08-02T07:49:27.315Z</time>
      </trkpt>
      <trkpt lat="47.03926" lon="9.05874">
        <ele>507</ele>
        <time>2021-08-02T07:49:28.315Z</time>
      </trkpt>
      <trkpt lat="47.03925" lon="9.05872">
        <ele>507</ele>
        <time>2021-08-02T07:49:29.315Z</time>
      </trkpt>
      <trkpt lat="47.03925" lon="9.0587">
        <ele>508</ele>
        <time>2021-08-02T07:49:30.315Z</time>
      </trkpt>
      <trkpt lat="47.03925" lon="9.05868">
        <ele>508</ele>
        <time>2021-08-02T07:49:31.316Z</time>
      </trkpt>
      <trkpt lat="47.03926" lon="9.05867">
        <ele>508</ele>
        <time>2021-08-02T07:49:32.315Z</time>
      </trkpt>
      <trkpt lat="47.03926" lon="9.05866">
        <ele>509</ele>
        <time>2021-08-02T07:49:33.315Z</time>
      </trkpt>
      <trkpt lat="47.03926" lon="9.05865">
        <ele>509</ele>
        <time>2021-08-02T07:49:34.315Z</time>
      </trkpt>
      <trkpt lat="47.03926" lon="9.05864">
        <ele>509</ele>
        <time>2021-08-02T07:49:35.315Z</time>
      </trkpt>
      <trkpt lat="47.03926" lon="9.05863">
        <ele>509</ele>
        <time>2021-08-02T07:49:36.315Z</time>
      </trkpt>
      <trkpt lat="47.03926" lon="9.05861">
        <ele>509</ele>
        <time>2021-08-02T07:49:37.315Z</time>
      </trkpt>
      <trkpt lat="47.03926" lon="9.0586">
        <ele>509</ele>
        <time>2021-08-02T07:49:38.315Z</time>
      </trkpt>
      <trkpt lat="47.03927" lon="9.05858">
        <ele>509</ele>
        <time>2021-08-02T07:49:39.315Z</time>
      </trkpt>
      <trkpt lat="47.03928" lon="9.05857">
        <ele>509</ele>
        <time>2021-08-02T07:49:40.315Z</time>
      </trkpt>
      <trkpt lat="47.03927" lon="9.05856">
        <ele>509</ele>
        <time>2021-08-02T07:49:41.315Z</time>
      </trkpt>
      <trkpt lat="47.03927" lon="9.05854">
        <ele>508</ele>
        <time>2021-08-02T07:49:42.315Z</time>
      </trkpt>
      <trkpt lat="47.03928" lon="9.05853">
        <ele>508</ele>
        <time>2021-08-02T07:49:43.315Z</time>
      </trkpt>
      <trkpt lat="47.03928" lon="9.05852">
        <ele>508</ele>
        <time>2021-08-02T07:49:44.315Z</time>
      </trkpt>
      <trkpt lat="47.03929" lon="9.05851">
        <ele>508</ele>
        <time>2021-08-02T07:49:45.315Z</time>
      </trkpt>
      <trkpt lat="47.0393" lon="9.0585">
        <ele>508</ele>
        <time>2021-08-02T07:49:46.315Z</time>
      </trkpt>
      <trkpt lat="47.0393" lon="9.05849">
        <ele>508</ele>
        <time>2021-08-02T07:49:47.315Z</time>
      </trkpt>
      <trkpt lat="47.03931" lon="9.05848">
        <ele>508</ele>
        <time>2021-08-02T07:49:48.315Z</time>
      </trkpt>
      <trkpt lat="47.03931" lon="9.05847">
        <ele>508</ele>
        <time>2021-08-02T07:49:49.315Z</time>
      </trkpt>
      <trkpt lat="47.03931" lon="9.05845">
        <ele>508</ele>
        <time>2021-08-02T07:49:50.316Z</time>
      </trkpt>
      <trkpt lat="47.03932" lon="9.05844">
        <ele>509</ele>
        <time>2021-08-02T07:49:51.316Z</time>
      </trkpt>
      <trkpt lat="47.03932" lon="9.05842">
        <ele>509</ele>
        <time>2021-08-02T07:49:52.316Z</time>
      </trkpt>
      <trkpt lat="47.03932" lon="9.0584">
        <ele>510</ele>
        <time>2021-08-02T07:49:53.316Z</time>
      </trkpt>
      <trkpt lat="47.03932" lon="9.05839">
        <ele>511</ele>
        <time>2021-08-02T07:49:54.316Z</time>
      </trkpt>
      <trkpt lat="47.03932" lon="9.05837">
        <ele>511</ele>
        <time>2021-08-02T07:49:55.316Z</time>
      </trkpt>
      <trkpt lat="47.03932" lon="9.05836">
        <ele>511</ele>
        <time>2021-08-02T07:49:56.316Z</time>
      </trkpt>
      <trkpt lat="47.03932" lon="9.05835">
        <ele>511</ele>
        <time>2021-08-02T07:49:57.316Z</time>
      </trkpt>
      <trkpt lat="47.03932" lon="9.05833">
        <ele>511</ele>
        <time>2021-08-02T07:49:58.316Z</time>
      </trkpt>
      <trkpt lat="47.03933" lon="9.05831">
        <ele>511</ele>
        <time>2021-08-02T07:49:59.316Z</time>
      </trkpt>
      <trkpt lat="47.03933" lon="9.0583">
        <ele>511</ele>
        <time>2021-08-02T07:50:00.316Z</time>
      </trkpt>
      <trkpt lat="47.03934" lon="9.05829">
        <ele>511</ele>
        <time>2021-08-02T07:50:01.315Z</time>
      </trkpt>
      <trkpt lat="47.03935" lon="9.05828">
        <ele>510</ele>
        <time>2021-08-02T07:50:02.316Z</time>
      </trkpt>
      <trkpt lat="47.03936" lon="9.05827">
        <ele>510</ele>
        <time>2021-08-02T07:50:03.316Z</time>
      </trkpt>
      <trkpt lat="47.03938" lon="9.05827">
        <ele>509</ele>
        <time>2021-08-02T07:50:04.316Z</time>
      </trkpt>
      <trkpt lat="47.03939" lon="9.05825">
        <ele>509</ele>
        <time>2021-08-02T07:50:05.316Z</time>
      </trkpt>
      <trkpt lat="47.0394" lon="9.05823">
        <ele>508</ele>
        <time>2021-08-02T07:50:06.315Z</time>
      </trkpt>
      <trkpt lat="47.03941" lon="9.05822">
        <ele>508</ele>
        <time>2021-08-02T07:50:07.316Z</time>
      </trkpt>
      <trkpt lat="47.03942" lon="9.05821">
        <ele>508</ele>
        <time>2021-08-02T07:50:08.316Z</time>
      </trkpt>
      <trkpt lat="47.03942" lon="9.0582">
        <ele>507</ele>
        <time>2021-08-02T07:50:09.316Z</time>
      </trkpt>
      <trkpt lat="47.03942" lon="9.05818">
        <ele>507</ele>
        <time>2021-08-02T07:50:10.315Z</time>
      </trkpt>
      <trkpt lat="47.03943" lon="9.05817">
        <ele>507</ele>
        <time>2021-08-02T07:50:11.316Z</time>
      </trkpt>
      <trkpt lat="47.03944" lon="9.05815">
        <ele>507</ele>
        <time>2021-08-02T07:50:12.315Z</time>
      </trkpt>
      <trkpt lat="47.03945" lon="9.05814">
        <ele>508</ele>
        <time>2021-08-02T07:50:13.316Z</time>
      </trkpt>
      <trkpt lat="47.03946" lon="9.05813">
        <ele>508</ele>
        <time>2021-08-02T07:50:14.316Z</time>
      </trkpt>
      <trkpt lat="47.03946" lon="9.05811">
        <ele>507</ele>
        <time>2021-08-02T07:50:15.316Z</time>
      </trkpt>
      <trkpt lat="47.03946" lon="9.0581">
        <ele>507</ele>
        <time>2021-08-02T07:50:16.315Z</time>
      </trkpt>
      <trkpt lat="47.03946" lon="9.05808">
        <ele>507</ele>
        <time>2021-08-02T07:50:17.315Z</time>
      </trkpt>
      <trkpt lat="47.03946" lon="9.05807">
        <ele>507</ele>
        <time>2021-08-02T07:50:18.316Z</time>
      </trkpt>
      <trkpt lat="47.03946" lon="9.05805">
        <ele>507</ele>
        <time>2021-08-02T07:50:19.316Z</time>
      </trkpt>
      <trkpt lat="47.03946" lon="9.05803">
        <ele>507</ele>
        <time>2021-08-02T07:50:20.315Z</time>
      </trkpt>
      <trkpt lat="47.03946" lon="9.05801">
        <ele>508</ele>
        <time>2021-08-02T07:50:21.316Z</time>
      </trkpt>
      <trkpt lat="47.03947" lon="9.058">
        <ele>508</ele>
        <time>2021-08-02T07:50:22.316Z</time>
      </trkpt>
      <trkpt lat="47.03948" lon="9.05799">
        <ele>508</ele>
        <time>2021-08-02T07:50:23.315Z</time>
      </trkpt>
      <trkpt lat="47.03948" lon="9.05798">
        <ele>508</ele>
        <time>2021-08-02T07:50:24.315Z</time>
      </trkpt>
      <trkpt lat="47.03948" lon="9.05797">
        <ele>508</ele>
        <time>2021-08-02T07:50:25.315Z</time>
      </trkpt>
      <trkpt lat="47.03948" lon="9.05796">
        <ele>508</ele>
        <time>2021-08-02T07:50:26.315Z</time>
      </trkpt>
      <trkpt lat="47.03947" lon="9.05794">
        <ele>508</ele>
        <time>2021-08-02T07:50:27.316Z</time>
      </trkpt>
      <trkpt lat="47.03947" lon="9.05792">
        <ele>508</ele>
        <time>2021-08-02T07:50:28.316Z</time>
      </trkpt>
      <trkpt lat="47.03947" lon="9.05791">
        <ele>508</ele>
        <time>2021-08-02T07:50:29.315Z</time>
      </trkpt>
      <trkpt lat="47.03947" lon="9.05789">
        <ele>509</ele>
        <time>2021-08-02T07:50:30.316Z</time>
      </trkpt>
      <trkpt lat="47.03947" lon="9.05788">
        <ele>509</ele>
        <time>2021-08-02T07:50:31.316Z</time>
      </trkpt>
      <trkpt lat="47.03947" lon="9.05786">
        <ele>509</ele>
        <time>2021-08-02T07:50:32.316Z</time>
      </trkpt>
      <trkpt lat="47.03947" lon="9.05785">
        <ele>509</ele>
        <time>2021-08-02T07:50:33.316Z</time>
      </trkpt>
      <trkpt lat="47.03947" lon="9.05784">
        <ele>509</ele>
        <time>2021-08-02T07:50:34.316Z</time>
      </trkpt>
      <trkpt lat="47.03947" lon="9.05783">
        <ele>509</ele>
        <time>2021-08-02T07:50:35.316Z</time>
      </trkpt>
      <trkpt lat="47.03948" lon="9.05781">
        <ele>509</ele>
        <time>2021-08-02T07:50:36.315Z</time>
      </trkpt>
      <trkpt lat="47.03948" lon="9.0578">
        <ele>509</ele>
        <time>2021-08-02T07:50:37.316Z</time>
      </trkpt>
      <trkpt lat="47.03948" lon="9.05779">
        <ele>509</ele>
        <time>2021-08-02T07:50:38.316Z</time>
      </trkpt>
      <trkpt lat="47.03949" lon="9.05778">
        <ele>509</ele>
        <time>2021-08-02T07:50:39.316Z</time>
      </trkpt>
      <trkpt lat="47.0395" lon="9.05777">
        <ele>509</ele>
        <time>2021-08-02T07:50:40.316Z</time>
      </trkpt>
      <trkpt lat="47.03951" lon="9.05775">
        <ele>509</ele>
        <time>2021-08-02T07:50:41.316Z</time>
      </trkpt>
      <trkpt lat="47.03952" lon="9.05774">
        <ele>509</ele>
        <time>2021-08-02T07:50:42.315Z</time>
      </trkpt>
      <trkpt lat="47.03952" lon="9.05773">
        <ele>509</ele>
        <time>2021-08-02T07:50:43.316Z</time>
      </trkpt>
      <trkpt lat="47.03952" lon="9.05773">
        <ele>509</ele>
        <time>2021-08-02T07:50:44.316Z</time>
      </trkpt>
      <trkpt lat="47.03952" lon="9.05771">
        <ele>509</ele>
        <time>2021-08-02T07:50:45.316Z</time>
      </trkpt>
      <trkpt lat="47.03952" lon="9.05769">
        <ele>509</ele>
        <time>2021-08-02T07:50:46.315Z</time>
      </trkpt>
      <trkpt lat="47.03953" lon="9.05768">
        <ele>509</ele>
        <time>2021-08-02T07:50:47.315Z</time>
      </trkpt>
      <trkpt lat="47.03953" lon="9.05768">
        <ele>509</ele>
        <time>2021-08-02T07:50:48.316Z</time>
      </trkpt>
      <trkpt lat="47.03954" lon="9.05767">
        <ele>509</ele>
        <time>2021-08-02T07:50:49.315Z</time>
      </trkpt>
      <trkpt lat="47.03954" lon="9.05765">
        <ele>509</ele>
        <time>2021-08-02T07:50:50.316Z</time>
      </trkpt>
      <trkpt lat="47.03954" lon="9.05764">
        <ele>509</ele>
        <time>2021-08-02T07:50:51.315Z</time>
      </trkpt>
      <trkpt lat="47.03955" lon="9.05763">
        <ele>509</ele>
        <time>2021-08-02T07:50:52.315Z</time>
      </trkpt>
      <trkpt lat="47.03956" lon="9.05761">
        <ele>509</ele>
        <time>2021-08-02T07:50:53.316Z</time>
      </trkpt>
      <trkpt lat="47.03956" lon="9.05759">
        <ele>509</ele>
        <time>2021-08-02T07:50:54.316Z</time>
      </trkpt>
      <trkpt lat="47.03957" lon="9.05758">
        <ele>509</ele>
        <time>2021-08-02T07:50:55.316Z</time>
      </trkpt>
      <trkpt lat="47.03958" lon="9.05756">
        <ele>508</ele>
        <time>2021-08-02T07:50:56.315Z</time>
      </trkpt>
      <trkpt lat="47.03958" lon="9.05755">
        <ele>508</ele>
        <time>2021-08-02T07:50:57.316Z</time>
      </trkpt>
      <trkpt lat="47.03958" lon="9.05754">
        <ele>508</ele>
        <time>2021-08-02T07:50:58.315Z</time>
      </trkpt>
      <trkpt lat="47.03958" lon="9.05753">
        <ele>508</ele>
        <time>2021-08-02T07:50:59.316Z</time>
      </trkpt>
      <trkpt lat="47.03958" lon="9.05752">
        <ele>508</ele>
        <time>2021-08-02T07:51:00.315Z</time>
      </trkpt>
      <trkpt lat="47.03958" lon="9.05751">
        <ele>508</ele>
        <time>2021-08-02T07:51:01.316Z</time>
      </trkpt>
      <trkpt lat="47.03959" lon="9.05749">
        <ele>508</ele>
        <time>2021-08-02T07:51:02.315Z</time>
      </trkpt>
      <trkpt lat="47.03959" lon="9.05748">
        <ele>508</ele>
        <time>2021-08-02T07:51:03.316Z</time>
      </trkpt>
      <trkpt lat="47.0396" lon="9.05747">
        <ele>508</ele>
        <time>2021-08-02T07:51:04.315Z</time>
      </trkpt>
      <trkpt lat="47.0396" lon="9.05746">
        <ele>509</ele>
        <time>2021-08-02T07:51:05.316Z</time>
      </trkpt>
      <trkpt lat="47.03961" lon="9.05746">
        <ele>509</ele>
        <time>2021-08-02T07:51:06.315Z</time>
      </trkpt>
      <trkpt lat="47.03961" lon="9.05745">
        <ele>510</ele>
        <time>2021-08-02T07:51:07.316Z</time>
      </trkpt>
      <trkpt lat="47.03962" lon="9.05745">
        <ele>511</ele>
        <time>2021-08-02T07:51:08.316Z</time>
      </trkpt>
      <trkpt lat="47.03962" lon="9.05745">
        <ele>511</ele>
        <time>2021-08-02T07:51:09.316Z</time>
      </trkpt>
      <trkpt lat="47.03963" lon="9.05746">
        <ele>512</ele>
        <time>2021-08-02T07:51:10.316Z</time>
      </trkpt>
      <trkpt lat="47.03964" lon="9.05745">
        <ele>512</ele>
        <time>2021-08-02T07:51:11.316Z</time>
      </trkpt>
      <trkpt lat="47.03965" lon="9.05745">
        <ele>512</ele>
        <time>2021-08-02T07:51:12.316Z</time>
      </trkpt>
      <trkpt lat="47.03966" lon="9.05744">
        <ele>512</ele>
        <time>2021-08-02T07:51:13.315Z</time>
      </trkpt>
      <trkpt lat="47.03967" lon="9.05744">
        <ele>512</ele>
        <time>2021-08-02T07:51:14.315Z</time>
      </trkpt>
      <trkpt lat="47.03967" lon="9.05744">
        <ele>512</ele>
        <time>2021-08-02T07:51:15.315Z</time>
      </trkpt>
      <trkpt lat="47.03966" lon="9.05741">
        <ele>510</ele>
        <time>2021-08-02T07:51:16.316Z</time>
      </trkpt>
      <trkpt lat="47.03967" lon="9.05741">
        <ele>510</ele>
        <time>2021-08-02T07:51:17.315Z</time>
      </trkpt>
      <trkpt lat="47.03968" lon="9.05741">
        <ele>510</ele>
        <time>2021-08-02T07:51:18.315Z</time>
      </trkpt>
      <trkpt lat="47.0397" lon="9.05741">
        <ele>510</ele>
        <time>2021-08-02T07:51:19.316Z</time>
      </trkpt>
      <trkpt lat="47.03971" lon="9.05741">
        <ele>510</ele>
        <time>2021-08-02T07:51:20.316Z</time>
      </trkpt>
      <trkpt lat="47.03972" lon="9.05741">
        <ele>510</ele>
        <time>2021-08-02T07:51:21.315Z</time>
      </trkpt>
      <trkpt lat="47.03973" lon="9.05741">
        <ele>510</ele>
        <time>2021-08-02T07:51:22.315Z</time>
      </trkpt>
      <trkpt lat="47.03974" lon="9.0574">
        <ele>509</ele>
        <time>2021-08-02T07:51:23.316Z</time>
      </trkpt>
      <trkpt lat="47.03975" lon="9.05739">
        <ele>509</ele>
        <time>2021-08-02T07:51:24.316Z</time>
      </trkpt>
      <trkpt lat="47.03976" lon="9.05739">
        <ele>509</ele>
        <time>2021-08-02T07:51:25.316Z</time>
      </trkpt>
      <trkpt lat="47.03977" lon="9.05739">
        <ele>509</ele>
        <time>2021-08-02T07:51:26.316Z</time>
      </trkpt>
      <trkpt lat="47.03978" lon="9.05739">
        <ele>508</ele>
        <time>2021-08-02T07:51:27.316Z</time>
      </trkpt>
      <trkpt lat="47.03979" lon="9.05738">
        <ele>508</ele>
        <time>2021-08-02T07:51:28.316Z</time>
      </trkpt>
      <trkpt lat="47.0398" lon="9.05738">
        <ele>508</ele>
        <time>2021-08-02T07:51:29.316Z</time>
      </trkpt>
      <trkpt lat="47.03981" lon="9.05737">
        <ele>509</ele>
        <time>2021-08-02T07:51:30.316Z</time>
      </trkpt>
      <trkpt lat="47.03983" lon="9.05737">
        <ele>509</ele>
        <time>2021-08-02T07:51:31.315Z</time>
      </trkpt>
      <trkpt lat="47.03984" lon="9.05737">
        <ele>510</ele>
        <time>2021-08-02T07:51:32.315Z</time>
      </trkpt>
      <trkpt lat="47.03985" lon="9.05736">
        <ele>511</ele>
        <time>2021-08-02T07:51:33.316Z</time>
      </trkpt>
      <trkpt lat="47.03986" lon="9.05735">
        <ele>511</ele>
        <time>2021-08-02T07:51:34.315Z</time>
      </trkpt>
      <trkpt lat="47.03987" lon="9.05734">
        <ele>511</ele>
        <time>2021-08-02T07:51:35.316Z</time>
      </trkpt>
      <trkpt lat="47.03988" lon="9.05734">
        <ele>512</ele>
        <time>2021-08-02T07:51:36.316Z</time>
      </trkpt>
      <trkpt lat="47.03989" lon="9.05733">
        <ele>512</ele>
        <time>2021-08-02T07:51:37.315Z</time>
      </trkpt>
      <trkpt lat="47.03991" lon="9.05733">
        <ele>512</ele>
        <time>2021-08-02T07:51:38.316Z</time>
      </trkpt>
      <trkpt lat="47.03992" lon="9.05733">
        <ele>512</ele>
        <time>2021-08-02T07:51:39.316Z</time>
      </trkpt>
      <trkpt lat="47.03993" lon="9.05733">
        <ele>513</ele>
        <time>2021-08-02T07:51:40.316Z</time>
      </trkpt>
      <trkpt lat="47.03994" lon="9.05733">
        <ele>513</ele>
        <time>2021-08-02T07:51:41.316Z</time>
      </trkpt>
      <trkpt lat="47.03995" lon="9.05733">
        <ele>514</ele>
        <time>2021-08-02T07:51:42.316Z</time>
      </trkpt>
      <trkpt lat="47.03995" lon="9.05733">
        <ele>514</ele>
        <time>2021-08-02T07:51:43.316Z</time>
      </trkpt>
      <trkpt lat="47.03996" lon="9.05733">
        <ele>515</ele>
        <time>2021-08-02T07:51:44.316Z</time>
      </trkpt>
      <trkpt lat="47.03997" lon="9.05732">
        <ele>516</ele>
        <time>2021-08-02T07:51:45.316Z</time>
      </trkpt>
      <trkpt lat="47.03998" lon="9.05732">
        <ele>516</ele>
        <time>2021-08-02T07:51:46.315Z</time>
      </trkpt>
      <trkpt lat="47.03999" lon="9.05732">
        <ele>517</ele>
        <time>2021-08-02T07:51:47.315Z</time>
      </trkpt>
      <trkpt lat="47.04" lon="9.05732">
        <ele>518</ele>
        <time>2021-08-02T07:51:48.316Z</time>
      </trkpt>
      <trkpt lat="47.04001" lon="9.05732">
        <ele>518</ele>
        <time>2021-08-02T07:51:49.316Z</time>
      </trkpt>
      <trkpt lat="47.04002" lon="9.05732">
        <ele>518</ele>
        <time>2021-08-02T07:51:50.316Z</time>
      </trkpt>
      <trkpt lat="47.04003" lon="9.05732">
        <ele>518</ele>
        <time>2021-08-02T07:51:51.316Z</time>
      </trkpt>
      <trkpt lat="47.04004" lon="9.05732">
        <ele>517</ele>
        <time>2021-08-02T07:51:52.315Z</time>
      </trkpt>
      <trkpt lat="47.04005" lon="9.05732">
        <ele>517</ele>
        <time>2021-08-02T07:51:53.316Z</time>
      </trkpt>
      <trkpt lat="47.04006" lon="9.05732">
        <ele>517</ele>
        <time>2021-08-02T07:51:54.316Z</time>
      </trkpt>
      <trkpt lat="47.04007" lon="9.05731">
        <ele>516</ele>
        <time>2021-08-02T07:51:55.316Z</time>
      </trkpt>
      <trkpt lat="47.04008" lon="9.05731">
        <ele>516</ele>
        <time>2021-08-02T07:51:56.316Z</time>
      </trkpt>
      <trkpt lat="47.04009" lon="9.05731">
        <ele>517</ele>
        <time>2021-08-02T07:51:57.315Z</time>
      </trkpt>
      <trkpt lat="47.0401" lon="9.05731">
        <ele>517</ele>
        <time>2021-08-02T07:51:58.316Z</time>
      </trkpt>
      <trkpt lat="47.04011" lon="9.05732">
        <ele>517</ele>
        <time>2021-08-02T07:51:59.316Z</time>
      </trkpt>
      <trkpt lat="47.04012" lon="9.05732">
        <ele>517</ele>
        <time>2021-08-02T07:52:00.316Z</time>
      </trkpt>
      <trkpt lat="47.04013" lon="9.05732">
        <ele>517</ele>
        <time>2021-08-02T07:52:01.315Z</time>
      </trkpt>
      <trkpt lat="47.04014" lon="9.05732">
        <ele>518</ele>
        <time>2021-08-02T07:52:02.316Z</time>
      </trkpt>
      <trkpt lat="47.04015" lon="9.05732">
        <ele>518</ele>
        <time>2021-08-02T07:52:03.316Z</time>
      </trkpt>
      <trkpt lat="47.04016" lon="9.05731">
        <ele>519</ele>
        <time>2021-08-02T07:52:04.316Z</time>
      </trkpt>
      <trkpt lat="47.04018" lon="9.0573">
        <ele>519</ele>
        <time>2021-08-02T07:52:05.316Z</time>
      </trkpt>
      <trkpt lat="47.04019" lon="9.05729">
        <ele>519</ele>
        <time>2021-08-02T07:52:06.316Z</time>
      </trkpt>
      <trkpt lat="47.04021" lon="9.05729">
        <ele>518</ele>
        <time>2021-08-02T07:52:07.316Z</time>
      </trkpt>
      <trkpt lat="47.04022" lon="9.05729">
        <ele>518</ele>
        <time>2021-08-02T07:52:08.316Z</time>
      </trkpt>
      <trkpt lat="47.04023" lon="9.05729">
        <ele>517</ele>
        <time>2021-08-02T07:52:09.315Z</time>
      </trkpt>
      <trkpt lat="47.04025" lon="9.05729">
        <ele>517</ele>
        <time>2021-08-02T07:52:10.316Z</time>
      </trkpt>
      <trkpt lat="47.04026" lon="9.05728">
        <ele>516</ele>
        <time>2021-08-02T07:52:11.316Z</time>
      </trkpt>
      <trkpt lat="47.04027" lon="9.05728">
        <ele>516</ele>
        <time>2021-08-02T07:52:12.315Z</time>
      </trkpt>
      <trkpt lat="47.04028" lon="9.05728">
        <ele>516</ele>
        <time>2021-08-02T07:52:13.316Z</time>
      </trkpt>
      <trkpt lat="47.04029" lon="9.05727">
        <ele>516</ele>
        <time>2021-08-02T07:52:14.316Z</time>
      </trkpt>
      <trkpt lat="47.0403" lon="9.05726">
        <ele>516</ele>
        <time>2021-08-02T07:52:15.316Z</time>
      </trkpt>
      <trkpt lat="47.04031" lon="9.05725">
        <ele>516</ele>
        <time>2021-08-02T07:52:16.315Z</time>
      </trkpt>
      <trkpt lat="47.04031" lon="9.05725">
        <ele>516</ele>
        <time>2021-08-02T07:52:17.316Z</time>
      </trkpt>
      <trkpt lat="47.04031" lon="9.05724">
        <ele>516</ele>
        <time>2021-08-02T07:52:18.316Z</time>
      </trkpt>
      <trkpt lat="47.04031" lon="9.05722">
        <ele>516</ele>
        <time>2021-08-02T07:52:19.316Z</time>
      </trkpt>
      <trkpt lat="47.04031" lon="9.05721">
        <ele>517</ele>
        <time>2021-08-02T07:52:20.316Z</time>
      </trkpt>
      <trkpt lat="47.0403" lon="9.05719">
        <ele>517</ele>
        <time>2021-08-02T07:52:21.316Z</time>
      </trkpt>
      <trkpt lat="47.0403" lon="9.05718">
        <ele>517</ele>
        <time>2021-08-02T07:52:22.316Z</time>
      </trkpt>
      <trkpt lat="47.0403" lon="9.05716">
        <ele>517</ele>
        <time>2021-08-02T07:52:23.316Z</time>
      </trkpt>
      <trkpt lat="47.04029" lon="9.05714">
        <ele>516</ele>
        <time>2021-08-02T07:52:24.316Z</time>
      </trkpt>
      <trkpt lat="47.04029" lon="9.05712">
        <ele>516</ele>
        <time>2021-08-02T07:52:25.315Z</time>
      </trkpt>
      <trkpt lat="47.04029" lon="9.0571">
        <ele>516</ele>
        <time>2021-08-02T07:52:26.316Z</time>
      </trkpt>
      <trkpt lat="47.04029" lon="9.05708">
        <ele>516</ele>
        <time>2021-08-02T07:52:27.316Z</time>
      </trkpt>
      <trkpt lat="47.04028" lon="9.05706">
        <ele>516</ele>
        <time>2021-08-02T07:52:28.315Z</time>
      </trkpt>
      <trkpt lat="47.04028" lon="9.05703">
        <ele>516</ele>
        <time>2021-08-02T07:52:29.315Z</time>
      </trkpt>
      <trkpt lat="47.04029" lon="9.05701">
        <ele>517</ele>
        <time>2021-08-02T07:52:30.316Z</time>
      </trkpt>
      <trkpt lat="47.04029" lon="9.057">
        <ele>517</ele>
        <time>2021-08-02T07:52:31.316Z</time>
      </trkpt>
      <trkpt lat="47.0403" lon="9.05698">
        <ele>517</ele>
        <time>2021-08-02T07:52:32.315Z</time>
      </trkpt>
      <trkpt lat="47.04029" lon="9.05696">
        <ele>517</ele>
        <time>2021-08-02T07:52:33.316Z</time>
      </trkpt>
      <trkpt lat="47.04029" lon="9.05695">
        <ele>517</ele>
        <time>2021-08-02T07:52:34.316Z</time>
      </trkpt>
      <trkpt lat="47.04029" lon="9.05694">
        <ele>517</ele>
        <time>2021-08-02T07:52:35.316Z</time>
      </trkpt>
      <trkpt lat="47.04029" lon="9.05693">
        <ele>517</ele>
        <time>2021-08-02T07:52:36.316Z</time>
      </trkpt>
      <trkpt lat="47.04029" lon="9.05692">
        <ele>517</ele>
        <time>2021-08-02T07:52:37.316Z</time>
      </trkpt>
      <trkpt lat="47.04029" lon="9.05691">
        <ele>517</ele>
        <time>2021-08-02T07:52:38.316Z</time>
      </trkpt>
      <trkpt lat="47.04029" lon="9.0569">
        <ele>517</ele>
        <time>2021-08-02T07:52:39.316Z</time>
      </trkpt>
      <trkpt lat="47.04029" lon="9.05689">
        <ele>517</ele>
        <time>2021-08-02T07:52:40.316Z</time>
      </trkpt>
      <trkpt lat="47.0403" lon="9.05688">
        <ele>516</ele>
        <time>2021-08-02T07:52:41.316Z</time>
      </trkpt>
      <trkpt lat="47.0403" lon="9.05686">
        <ele>516</ele>
        <time>2021-08-02T07:52:42.316Z</time>
      </trkpt>
      <trkpt lat="47.0403" lon="9.05684">
        <ele>516</ele>
        <time>2021-08-02T07:52:43.316Z</time>
      </trkpt>
      <trkpt lat="47.0403" lon="9.05683">
        <ele>516</ele>
        <time>2021-08-02T07:52:44.315Z</time>
      </trkpt>
      <trkpt lat="47.04029" lon="9.05681">
        <ele>517</ele>
        <time>2021-08-02T07:52:45.316Z</time>
      </trkpt>
      <trkpt lat="47.04029" lon="9.05679">
        <ele>517</ele>
        <time>2021-08-02T07:52:46.316Z</time>
      </trkpt>
      <trkpt lat="47.04029" lon="9.05677">
        <ele>518</ele>
        <time>2021-08-02T07:52:47.316Z</time>
      </trkpt>
      <trkpt lat="47.04029" lon="9.05675">
        <ele>518</ele>
        <time>2021-08-02T07:52:48.316Z</time>
      </trkpt>
      <trkpt lat="47.0403" lon="9.05675">
        <ele>519</ele>
        <time>2021-08-02T07:52:49.315Z</time>
      </trkpt>
      <trkpt lat="47.0403" lon="9.05674">
        <ele>519</ele>
        <time>2021-08-02T07:52:50.315Z</time>
      </trkpt>
      <trkpt lat="47.04029" lon="9.05673">
        <ele>519</ele>
        <time>2021-08-02T07:52:51.316Z</time>
      </trkpt>
      <trkpt lat="47.0403" lon="9.05672">
        <ele>520</ele>
        <time>2021-08-02T07:52:52.315Z</time>
      </trkpt>
      <trkpt lat="47.0403" lon="9.0567">
        <ele>520</ele>
        <time>2021-08-02T07:52:53.316Z</time>
      </trkpt>
      <trkpt lat="47.0403" lon="9.05668">
        <ele>521</ele>
        <time>2021-08-02T07:52:54.316Z</time>
      </trkpt>
      <trkpt lat="47.04031" lon="9.05667">
        <ele>521</ele>
        <time>2021-08-02T07:52:55.316Z</time>
      </trkpt>
      <trkpt lat="47.04031" lon="9.05666">
        <ele>521</ele>
        <time>2021-08-02T07:52:56.316Z</time>
      </trkpt>
      <trkpt lat="47.04032" lon="9.05664">
        <ele>521</ele>
        <time>2021-08-02T07:52:57.315Z</time>
      </trkpt>
      <trkpt lat="47.04032" lon="9.05662">
        <ele>522</ele>
        <time>2021-08-02T07:52:58.315Z</time>
      </trkpt>
      <trkpt lat="47.04032" lon="9.05661">
        <ele>522</ele>
        <time>2021-08-02T07:52:59.315Z</time>
      </trkpt>
      <trkpt lat="47.04033" lon="9.05659">
        <ele>523</ele>
        <time>2021-08-02T07:53:00.316Z</time>
      </trkpt>
      <trkpt lat="47.04033" lon="9.05657">
        <ele>523</ele>
        <time>2021-08-02T07:53:01.316Z</time>
      </trkpt>
      <trkpt lat="47.04033" lon="9.05656">
        <ele>523</ele>
        <time>2021-08-02T07:53:02.315Z</time>
      </trkpt>
      <trkpt lat="47.04035" lon="9.05656">
        <ele>524</ele>
        <time>2021-08-02T07:53:03.316Z</time>
      </trkpt>
      <trkpt lat="47.04036" lon="9.05655">
        <ele>524</ele>
        <time>2021-08-02T07:53:04.316Z</time>
      </trkpt>
      <trkpt lat="47.04037" lon="9.05655">
        <ele>524</ele>
        <time>2021-08-02T07:53:05.316Z</time>
      </trkpt>
      <trkpt lat="47.04039" lon="9.05654">
        <ele>524</ele>
        <time>2021-08-02T07:53:06.315Z</time>
      </trkpt>
      <trkpt lat="47.0404" lon="9.05654">
        <ele>524</ele>
        <time>2021-08-02T07:53:07.316Z</time>
      </trkpt>
      <trkpt lat="47.04041" lon="9.05653">
        <ele>524</ele>
        <time>2021-08-02T07:53:08.315Z</time>
      </trkpt>
      <trkpt lat="47.04042" lon="9.05653">
        <ele>524</ele>
        <time>2021-08-02T07:53:09.316Z</time>
      </trkpt>
      <trkpt lat="47.04043" lon="9.05653">
        <ele>524</ele>
        <time>2021-08-02T07:53:10.315Z</time>
      </trkpt>
      <trkpt lat="47.04044" lon="9.05653">
        <ele>524</ele>
        <time>2021-08-02T07:53:11.315Z</time>
      </trkpt>
      <trkpt lat="47.04045" lon="9.05652">
        <ele>525</ele>
        <time>2021-08-02T07:53:12.316Z</time>
      </trkpt>
      <trkpt lat="47.04046" lon="9.05651">
        <ele>525</ele>
        <time>2021-08-02T07:53:13.316Z</time>
      </trkpt>
      <trkpt lat="47.04047" lon="9.05651">
        <ele>525</ele>
        <time>2021-08-02T07:53:14.316Z</time>
      </trkpt>
      <trkpt lat="47.04048" lon="9.0565">
        <ele>524</ele>
        <time>2021-08-02T07:53:15.315Z</time>
      </trkpt>
      <trkpt lat="47.0405" lon="9.0565">
        <ele>524</ele>
        <time>2021-08-02T07:53:16.315Z</time>
      </trkpt>
      <trkpt lat="47.04051" lon="9.05649">
        <ele>523</ele>
        <time>2021-08-02T07:53:17.315Z</time>
      </trkpt>
      <trkpt lat="47.04053" lon="9.05648">
        <ele>523</ele>
        <time>2021-08-02T07:53:18.316Z</time>
      </trkpt>
      <trkpt lat="47.04054" lon="9.05648">
        <ele>523</ele>
        <time>2021-08-02T07:53:19.316Z</time>
      </trkpt>
      <trkpt lat="47.04054" lon="9.05646">
        <ele>523</ele>
        <time>2021-08-02T07:53:20.316Z</time>
      </trkpt>
      <trkpt lat="47.04054" lon="9.05644">
        <ele>523</ele>
        <time>2021-08-02T07:53:21.315Z</time>
      </trkpt>
      <trkpt lat="47.04055" lon="9.05642">
        <ele>523</ele>
        <time>2021-08-02T07:53:22.316Z</time>
      </trkpt>
      <trkpt lat="47.04055" lon="9.0564">
        <ele>523</ele>
        <time>2021-08-02T07:53:23.316Z</time>
      </trkpt>
      <trkpt lat="47.04056" lon="9.05638">
        <ele>523</ele>
        <time>2021-08-02T07:53:24.316Z</time>
      </trkpt>
      <trkpt lat="47.04057" lon="9.05638">
        <ele>523</ele>
        <time>2021-08-02T07:53:25.316Z</time>
      </trkpt>
      <trkpt lat="47.04059" lon="9.05638">
        <ele>523</ele>
        <time>2021-08-02T07:53:26.316Z</time>
      </trkpt>
      <trkpt lat="47.0406" lon="9.05638">
        <ele>523</ele>
        <time>2021-08-02T07:53:27.315Z</time>
      </trkpt>
      <trkpt lat="47.04061" lon="9.05638">
        <ele>523</ele>
        <time>2021-08-02T07:53:28.315Z</time>
      </trkpt>
      <trkpt lat="47.04061" lon="9.05637">
        <ele>523</ele>
        <time>2021-08-02T07:53:29.316Z</time>
      </trkpt>
      <trkpt lat="47.04063" lon="9.05636">
        <ele>523</ele>
        <time>2021-08-02T07:53:30.315Z</time>
      </trkpt>
      <trkpt lat="47.04064" lon="9.05636">
        <ele>523</ele>
        <time>2021-08-02T07:53:31.316Z</time>
      </trkpt>
      <trkpt lat="47.04065" lon="9.05636">
        <ele>523</ele>
        <time>2021-08-02T07:53:32.315Z</time>
      </trkpt>
      <trkpt lat="47.04066" lon="9.05635">
        <ele>524</ele>
        <time>2021-08-02T07:53:33.316Z</time>
      </trkpt>
      <trkpt lat="47.04067" lon="9.05635">
        <ele>525</ele>
        <time>2021-08-02T07:53:34.316Z</time>
      </trkpt>
      <trkpt lat="47.04068" lon="9.05635">
        <ele>525</ele>
        <time>2021-08-02T07:53:35.316Z</time>
      </trkpt>
      <trkpt lat="47.04069" lon="9.05634">
        <ele>526</ele>
        <time>2021-08-02T07:53:36.315Z</time>
      </trkpt>
      <trkpt lat="47.0407" lon="9.05634">
        <ele>527</ele>
        <time>2021-08-02T07:53:37.316Z</time>
      </trkpt>
      <trkpt lat="47.04071" lon="9.05633">
        <ele>527</ele>
        <time>2021-08-02T07:53:38.316Z</time>
      </trkpt>
      <trkpt lat="47.04072" lon="9.05631">
        <ele>528</ele>
        <time>2021-08-02T07:53:39.316Z</time>
      </trkpt>
      <trkpt lat="47.04074" lon="9.05629">
        <ele>529</ele>
        <time>2021-08-02T07:53:40.315Z</time>
      </trkpt>
      <trkpt lat="47.04075" lon="9.05628">
        <ele>529</ele>
        <time>2021-08-02T07:53:41.316Z</time>
      </trkpt>
      <trkpt lat="47.04076" lon="9.05627">
        <ele>530</ele>
        <time>2021-08-02T07:53:42.316Z</time>
      </trkpt>
      <trkpt lat="47.04077" lon="9.05626">
        <ele>531</ele>
        <time>2021-08-02T07:53:43.315Z</time>
      </trkpt>
      <trkpt lat="47.04078" lon="9.05626">
        <ele>531</ele>
        <time>2021-08-02T07:53:44.316Z</time>
      </trkpt>
      <trkpt lat="47.04079" lon="9.05627">
        <ele>532</ele>
        <time>2021-08-02T07:53:45.315Z</time>
      </trkpt>
      <trkpt lat="47.04079" lon="9.05626">
        <ele>533</ele>
        <time>2021-08-02T07:53:46.316Z</time>
      </trkpt>
      <trkpt lat="47.0408" lon="9.05626">
        <ele>533</ele>
        <time>2021-08-02T07:53:47.316Z</time>
      </trkpt>
      <trkpt lat="47.0408" lon="9.05626">
        <ele>534</ele>
        <time>2021-08-02T07:53:48.316Z</time>
      </trkpt>
      <trkpt lat="47.04081" lon="9.05626">
        <ele>534</ele>
        <time>2021-08-02T07:53:49.315Z</time>
      </trkpt>
      <trkpt lat="47.04082" lon="9.05627">
        <ele>535</ele>
        <time>2021-08-02T07:53:50.316Z</time>
      </trkpt>
      <trkpt lat="47.04083" lon="9.05627">
        <ele>536</ele>
        <time>2021-08-02T07:53:51.315Z</time>
      </trkpt>
      <trkpt lat="47.04084" lon="9.05627">
        <ele>536</ele>
        <time>2021-08-02T07:53:52.316Z</time>
      </trkpt>
      <trkpt lat="47.04085" lon="9.05627">
        <ele>536</ele>
        <time>2021-08-02T07:53:53.316Z</time>
      </trkpt>
      <trkpt lat="47.04086" lon="9.05627">
        <ele>537</ele>
        <time>2021-08-02T07:53:54.316Z</time>
      </trkpt>
      <trkpt lat="47.04086" lon="9.05628">
        <ele>537</ele>
        <time>2021-08-02T07:53:55.316Z</time>
      </trkpt>
      <trkpt lat="47.04087" lon="9.05629">
        <ele>538</ele>
        <time>2021-08-02T07:53:56.316Z</time>
      </trkpt>
      <trkpt lat="47.04088" lon="9.05629">
        <ele>538</ele>
        <time>2021-08-02T07:53:57.315Z</time>
      </trkpt>
      <trkpt lat="47.04088" lon="9.05629">
        <ele>539</ele>
        <time>2021-08-02T07:53:58.316Z</time>
      </trkpt>
      <trkpt lat="47.04089" lon="9.05629">
        <ele>540</ele>
        <time>2021-08-02T07:53:59.316Z</time>
      </trkpt>
      <trkpt lat="47.0409" lon="9.05629">
        <ele>540</ele>
        <time>2021-08-02T07:54:00.316Z</time>
      </trkpt>
      <trkpt lat="47.04091" lon="9.05628">
        <ele>541</ele>
        <time>2021-08-02T07:54:01.316Z</time>
      </trkpt>
      <trkpt lat="47.04093" lon="9.05627">
        <ele>541</ele>
        <time>2021-08-02T07:54:02.315Z</time>
      </trkpt>
      <trkpt lat="47.04094" lon="9.05626">
        <ele>542</ele>
        <time>2021-08-02T07:54:03.316Z</time>
      </trkpt>
      <trkpt lat="47.04095" lon="9.05626">
        <ele>542</ele>
        <time>2021-08-02T07:54:04.316Z</time>
      </trkpt>
      <trkpt lat="47.04097" lon="9.05627">
        <ele>543</ele>
        <time>2021-08-02T07:54:05.316Z</time>
      </trkpt>
      <trkpt lat="47.04099" lon="9.05627">
        <ele>543</ele>
        <time>2021-08-02T07:54:06.315Z</time>
      </trkpt>
      <trkpt lat="47.041" lon="9.05627">
        <ele>544</ele>
        <time>2021-08-02T07:54:07.316Z</time>
      </trkpt>
      <trkpt lat="47.04101" lon="9.05627">
        <ele>544</ele>
        <time>2021-08-02T07:54:08.315Z</time>
      </trkpt>
      <trkpt lat="47.04102" lon="9.05626">
        <ele>544</ele>
        <time>2021-08-02T07:54:09.316Z</time>
      </trkpt>
      <trkpt lat="47.04103" lon="9.05626">
        <ele>545</ele>
        <time>2021-08-02T07:54:10.316Z</time>
      </trkpt>
      <trkpt lat="47.04105" lon="9.05626">
        <ele>545</ele>
        <time>2021-08-02T07:54:11.316Z</time>
      </trkpt>
      <trkpt lat="47.04106" lon="9.05627">
        <ele>546</ele>
        <time>2021-08-02T07:54:12.316Z</time>
      </trkpt>
      <trkpt lat="47.04107" lon="9.05627">
        <ele>546</ele>
        <time>2021-08-02T07:54:13.316Z</time>
      </trkpt>
      <trkpt lat="47.04108" lon="9.05627">
        <ele>547</ele>
        <time>2021-08-02T07:54:14.316Z</time>
      </trkpt>
      <trkpt lat="47.04109" lon="9.05628">
        <ele>547</ele>
        <time>2021-08-02T07:54:15.315Z</time>
      </trkpt>
      <trkpt lat="47.0411" lon="9.05628">
        <ele>548</ele>
        <time>2021-08-02T07:54:16.316Z</time>
      </trkpt>
      <trkpt lat="47.04111" lon="9.05628">
        <ele>548</ele>
        <time>2021-08-02T07:54:17.315Z</time>
      </trkpt>
      <trkpt lat="47.04111" lon="9.05629">
        <ele>549</ele>
        <time>2021-08-02T07:54:18.316Z</time>
      </trkpt>
      <trkpt lat="47.04112" lon="9.05631">
        <ele>550</ele>
        <time>2021-08-02T07:54:19.316Z</time>
      </trkpt>
      <trkpt lat="47.04113" lon="9.05632">
        <ele>550</ele>
        <time>2021-08-02T07:54:20.316Z</time>
      </trkpt>
      <trkpt lat="47.04114" lon="9.05632">
        <ele>551</ele>
        <time>2021-08-02T07:54:21.315Z</time>
      </trkpt>
      <trkpt lat="47.04116" lon="9.05633">
        <ele>551</ele>
        <time>2021-08-02T07:54:22.315Z</time>
      </trkpt>
      <trkpt lat="47.04117" lon="9.05634">
        <ele>552</ele>
        <time>2021-08-02T07:54:23.316Z</time>
      </trkpt>
      <trkpt lat="47.04117" lon="9.05635">
        <ele>553</ele>
        <time>2021-08-02T07:54:24.316Z</time>
      </trkpt>
      <trkpt lat="47.04117" lon="9.05635">
        <ele>554</ele>
        <time>2021-08-02T07:54:25.316Z</time>
      </trkpt>
      <trkpt lat="47.04118" lon="9.05635">
        <ele>554</ele>
        <time>2021-08-02T07:54:26.316Z</time>
      </trkpt>
      <trkpt lat="47.0412" lon="9.05636">
        <ele>555</ele>
        <time>2021-08-02T07:54:27.315Z</time>
      </trkpt>
      <trkpt lat="47.04121" lon="9.05637">
        <ele>556</ele>
        <time>2021-08-02T07:54:28.316Z</time>
      </trkpt>
      <trkpt lat="47.04122" lon="9.05637">
        <ele>556</ele>
        <time>2021-08-02T07:54:29.316Z</time>
      </trkpt>
      <trkpt lat="47.04124" lon="9.05637">
        <ele>556</ele>
        <time>2021-08-02T07:54:30.316Z</time>
      </trkpt>
      <trkpt lat="47.04125" lon="9.05636">
        <ele>556</ele>
        <time>2021-08-02T07:54:31.316Z</time>
      </trkpt>
      <trkpt lat="47.04126" lon="9.05636">
        <ele>556</ele>
        <time>2021-08-02T07:54:32.316Z</time>
      </trkpt>
      <trkpt lat="47.04128" lon="9.05636">
        <ele>556</ele>
        <time>2021-08-02T07:54:33.316Z</time>
      </trkpt>
      <trkpt lat="47.04129" lon="9.05636">
        <ele>556</ele>
        <time>2021-08-02T07:54:34.316Z</time>
      </trkpt>
      <trkpt lat="47.0413" lon="9.05636">
        <ele>556</ele>
        <time>2021-08-02T07:54:35.316Z</time>
      </trkpt>
      <trkpt lat="47.04131" lon="9.05636">
        <ele>556</ele>
        <time>2021-08-02T07:54:36.315Z</time>
      </trkpt>
      <trkpt lat="47.04132" lon="9.05637">
        <ele>557</ele>
        <time>2021-08-02T07:54:37.316Z</time>
      </trkpt>
      <trkpt lat="47.04133" lon="9.05636">
        <ele>557</ele>
        <time>2021-08-02T07:54:38.316Z</time>
      </trkpt>
      <trkpt lat="47.04134" lon="9.05637">
        <ele>557</ele>
        <time>2021-08-02T07:54:39.315Z</time>
      </trkpt>
      <trkpt lat="47.04135" lon="9.05637">
        <ele>557</ele>
        <time>2021-08-02T07:54:40.316Z</time>
      </trkpt>
      <trkpt lat="47.04136" lon="9.05637">
        <ele>556</ele>
        <time>2021-08-02T07:54:41.316Z</time>
      </trkpt>
      <trkpt lat="47.04137" lon="9.05636">
        <ele>556</ele>
        <time>2021-08-02T07:54:42.316Z</time>
      </trkpt>
      <trkpt lat="47.04139" lon="9.05635">
        <ele>556</ele>
        <time>2021-08-02T07:54:43.315Z</time>
      </trkpt>
      <trkpt lat="47.0414" lon="9.05634">
        <ele>556</ele>
        <time>2021-08-02T07:54:44.315Z</time>
      </trkpt>
      <trkpt lat="47.0414" lon="9.05634">
        <ele>555</ele>
        <time>2021-08-02T07:54:45.315Z</time>
      </trkpt>
      <trkpt lat="47.04141" lon="9.05634">
        <ele>555</ele>
        <time>2021-08-02T07:54:46.316Z</time>
      </trkpt>
      <trkpt lat="47.04142" lon="9.05634">
        <ele>555</ele>
        <time>2021-08-02T07:54:47.316Z</time>
      </trkpt>
      <trkpt lat="47.04143" lon="9.05634">
        <ele>555</ele>
        <time>2021-08-02T07:54:48.315Z</time>
      </trkpt>
      <trkpt lat="47.04144" lon="9.05635">
        <ele>555</ele>
        <time>2021-08-02T07:54:49.316Z</time>
      </trkpt>
      <trkpt lat="47.04146" lon="9.05635">
        <ele>555</ele>
        <time>2021-08-02T07:54:50.315Z</time>
      </trkpt>
      <trkpt lat="47.04147" lon="9.05635">
        <ele>555</ele>
        <time>2021-08-02T07:54:51.315Z</time>
      </trkpt>
      <trkpt lat="47.04148" lon="9.05635">
        <ele>555</ele>
        <time>2021-08-02T07:54:52.316Z</time>
      </trkpt>
      <trkpt lat="47.04149" lon="9.05635">
        <ele>555</ele>
        <time>2021-08-02T07:54:53.316Z</time>
      </trkpt>
      <trkpt lat="47.0415" lon="9.05635">
        <ele>555</ele>
        <time>2021-08-02T07:54:54.316Z</time>
      </trkpt>
      <trkpt lat="47.04151" lon="9.05635">
        <ele>554</ele>
        <time>2021-08-02T07:54:55.316Z</time>
      </trkpt>
      <trkpt lat="47.04152" lon="9.05635">
        <ele>554</ele>
        <time>2021-08-02T07:54:56.315Z</time>
      </trkpt>
      <trkpt lat="47.04153" lon="9.05634">
        <ele>554</ele>
        <time>2021-08-02T07:54:57.315Z</time>
      </trkpt>
      <trkpt lat="47.04154" lon="9.05635">
        <ele>553</ele>
        <time>2021-08-02T07:54:58.316Z</time>
      </trkpt>
      <trkpt lat="47.04155" lon="9.05634">
        <ele>553</ele>
        <time>2021-08-02T07:54:59.316Z</time>
      </trkpt>
      <trkpt lat="47.04156" lon="9.05634">
        <ele>552</ele>
        <time>2021-08-02T07:55:00.316Z</time>
      </trkpt>
      <trkpt lat="47.04157" lon="9.05635">
        <ele>552</ele>
        <time>2021-08-02T07:55:01.316Z</time>
      </trkpt>
      <trkpt lat="47.04158" lon="9.05635">
        <ele>551</ele>
        <time>2021-08-02T07:55:02.315Z</time>
      </trkpt>
      <trkpt lat="47.04159" lon="9.05634">
        <ele>550</ele>
        <time>2021-08-02T07:55:03.316Z</time>
      </trkpt>
      <trkpt lat="47.0416" lon="9.05634">
        <ele>550</ele>
        <time>2021-08-02T07:55:04.315Z</time>
      </trkpt>
      <trkpt lat="47.04162" lon="9.05634">
        <ele>549</ele>
        <time>2021-08-02T07:55:05.315Z</time>
      </trkpt>
      <trkpt lat="47.04162" lon="9.05635">
        <ele>549</ele>
        <time>2021-08-02T07:55:06.316Z</time>
      </trkpt>
      <trkpt lat="47.04163" lon="9.05635">
        <ele>548</ele>
        <time>2021-08-02T07:55:07.316Z</time>
      </trkpt>
      <trkpt lat="47.04164" lon="9.05634">
        <ele>548</ele>
        <time>2021-08-02T07:55:08.316Z</time>
      </trkpt>
      <trkpt lat="47.04164" lon="9.05633">
        <ele>547</ele>
        <time>2021-08-02T07:55:09.316Z</time>
      </trkpt>
      <trkpt lat="47.04165" lon="9.05633">
        <ele>547</ele>
        <time>2021-08-02T07:55:10.316Z</time>
      </trkpt>
      <trkpt lat="47.04166" lon="9.05633">
        <ele>547</ele>
        <time>2021-08-02T07:55:11.316Z</time>
      </trkpt>
      <trkpt lat="47.04166" lon="9.05632">
        <ele>547</ele>
        <time>2021-08-02T07:55:12.316Z</time>
      </trkpt>
      <trkpt lat="47.04167" lon="9.05632">
        <ele>547</ele>
        <time>2021-08-02T07:55:13.316Z</time>
      </trkpt>
      <trkpt lat="47.04169" lon="9.05632">
        <ele>547</ele>
        <time>2021-08-02T07:55:14.316Z</time>
      </trkpt>
      <trkpt lat="47.0417" lon="9.05632">
        <ele>547</ele>
        <time>2021-08-02T07:55:15.315Z</time>
      </trkpt>
      <trkpt lat="47.0417" lon="9.05633">
        <ele>547</ele>
        <time>2021-08-02T07:55:16.316Z</time>
      </trkpt>
      <trkpt lat="47.0417" lon="9.05633">
        <ele>547</ele>
        <time>2021-08-02T07:55:17.315Z</time>
      </trkpt>
      <trkpt lat="47.0417" lon="9.05633">
        <ele>547</ele>
        <time>2021-08-02T07:55:18.315Z</time>
      </trkpt>
      <trkpt lat="47.04171" lon="9.05634">
        <ele>547</ele>
        <time>2021-08-02T07:55:19.315Z</time>
      </trkpt>
      <trkpt lat="47.04172" lon="9.05635">
        <ele>547</ele>
        <time>2021-08-02T07:55:20.315Z</time>
      </trkpt>
      <trkpt lat="47.04173" lon="9.05635">
        <ele>546</ele>
        <time>2021-08-02T07:55:21.315Z</time>
      </trkpt>
      <trkpt lat="47.04174" lon="9.05635">
        <ele>546</ele>
        <time>2021-08-02T07:55:22.316Z</time>
      </trkpt>
      <trkpt lat="47.04175" lon="9.05635">
        <ele>546</ele>
        <time>2021-08-02T07:55:23.316Z</time>
      </trkpt>
      <trkpt lat="47.04176" lon="9.05634">
        <ele>546</ele>
        <time>2021-08-02T07:55:24.316Z</time>
      </trkpt>
      <trkpt lat="47.04177" lon="9.05634">
        <ele>546</ele>
        <time>2021-08-02T07:55:25.316Z</time>
      </trkpt>
      <trkpt lat="47.04178" lon="9.05634">
        <ele>546</ele>
        <time>2021-08-02T07:55:26.316Z</time>
      </trkpt>
      <trkpt lat="47.04178" lon="9.05634">
        <ele>546</ele>
        <time>2021-08-02T07:55:27.316Z</time>
      </trkpt>
      <trkpt lat="47.04179" lon="9.05635">
        <ele>546</ele>
        <time>2021-08-02T07:55:28.315Z</time>
      </trkpt>
      <trkpt lat="47.0418" lon="9.05634">
        <ele>546</ele>
        <time>2021-08-02T07:55:29.316Z</time>
      </trkpt>
      <trkpt lat="47.04181" lon="9.05635">
        <ele>546</ele>
        <time>2021-08-02T07:55:30.316Z</time>
      </trkpt>
      <trkpt lat="47.04182" lon="9.05635">
        <ele>545</ele>
        <time>2021-08-02T07:55:31.315Z</time>
      </trkpt>
      <trkpt lat="47.04183" lon="9.05635">
        <ele>545</ele>
        <time>2021-08-02T07:55:32.316Z</time>
      </trkpt>
      <trkpt lat="47.04184" lon="9.05636">
        <ele>544</ele>
        <time>2021-08-02T07:55:33.315Z</time>
      </trkpt>
      <trkpt lat="47.04185" lon="9.05636">
        <ele>544</ele>
        <time>2021-08-02T07:55:34.316Z</time>
      </trkpt>
      <trkpt lat="47.04186" lon="9.05635">
        <ele>543</ele>
        <time>2021-08-02T07:55:35.316Z</time>
      </trkpt>
      <trkpt lat="47.04188" lon="9.05635">
        <ele>542</ele>
        <time>2021-08-02T07:55:36.315Z</time>
      </trkpt>
      <trkpt lat="47.04189" lon="9.05635">
        <ele>541</ele>
        <time>2021-08-02T07:55:37.315Z</time>
      </trkpt>
      <trkpt lat="47.0419" lon="9.05636">
        <ele>540</ele>
        <time>2021-08-02T07:55:38.315Z</time>
      </trkpt>
      <trkpt lat="47.04191" lon="9.05636">
        <ele>540</ele>
        <time>2021-08-02T07:55:39.316Z</time>
      </trkpt>
      <trkpt lat="47.04192" lon="9.05636">
        <ele>539</ele>
        <time>2021-08-02T07:55:40.316Z</time>
      </trkpt>
      <trkpt lat="47.04193" lon="9.05636">
        <ele>539</ele>
        <time>2021-08-02T07:55:41.316Z</time>
      </trkpt>
      <trkpt lat="47.04195" lon="9.05636">
        <ele>538</ele>
        <time>2021-08-02T07:55:42.315Z</time>
      </trkpt>
      <trkpt lat="47.04196" lon="9.05636">
        <ele>537</ele>
        <time>2021-08-02T07:55:43.316Z</time>
      </trkpt>
      <trkpt lat="47.04198" lon="9.05636">
        <ele>536</ele>
        <time>2021-08-02T07:55:44.315Z</time>
      </trkpt>
      <trkpt lat="47.04199" lon="9.05636">
        <ele>536</ele>
        <time>2021-08-02T07:55:45.316Z</time>
      </trkpt>
      <trkpt lat="47.042" lon="9.05636">
        <ele>535</ele>
        <time>2021-08-02T07:55:46.316Z</time>
      </trkpt>
      <trkpt lat="47.04201" lon="9.05636">
        <ele>535</ele>
        <time>2021-08-02T07:55:47.315Z</time>
      </trkpt>
      <trkpt lat="47.04202" lon="9.05637">
        <ele>535</ele>
        <time>2021-08-02T07:55:48.315Z</time>
      </trkpt>
      <trkpt lat="47.04203" lon="9.05637">
        <ele>534</ele>
        <time>2021-08-02T07:55:49.316Z</time>
      </trkpt>
      <trkpt lat="47.04203" lon="9.05637">
        <ele>534</ele>
        <time>2021-08-02T07:55:50.316Z</time>
      </trkpt>
      <trkpt lat="47.04205" lon="9.05637">
        <ele>534</ele>
        <time>2021-08-02T07:55:51.315Z</time>
      </trkpt>
      <trkpt lat="47.04205" lon="9.05637">
        <ele>533</ele>
        <time>2021-08-02T07:55:52.316Z</time>
      </trkpt>
      <trkpt lat="47.04206" lon="9.05637">
        <ele>533</ele>
        <time>2021-08-02T07:55:53.315Z</time>
      </trkpt>
      <trkpt lat="47.04207" lon="9.05637">
        <ele>533</ele>
        <time>2021-08-02T07:55:54.316Z</time>
      </trkpt>
      <trkpt lat="47.04208" lon="9.05637">
        <ele>532</ele>
        <time>2021-08-02T07:55:55.316Z</time>
      </trkpt>
      <trkpt lat="47.04209" lon="9.05637">
        <ele>532</ele>
        <time>2021-08-02T07:55:56.315Z</time>
      </trkpt>
      <trkpt lat="47.0421" lon="9.05637">
        <ele>532</ele>
        <time>2021-08-02T07:55:57.316Z</time>
      </trkpt>
      <trkpt lat="47.04211" lon="9.05638">
        <ele>532</ele>
        <time>2021-08-02T07:55:58.316Z</time>
      </trkpt>
      <trkpt lat="47.04211" lon="9.05638">
        <ele>531</ele>
        <time>2021-08-02T07:55:59.316Z</time>
      </trkpt>
      <trkpt lat="47.04213" lon="9.05638">
        <ele>531</ele>
        <time>2021-08-02T07:56:00.315Z</time>
      </trkpt>
      <trkpt lat="47.04215" lon="9.05638">
        <ele>530</ele>
        <time>2021-08-02T07:56:01.316Z</time>
      </trkpt>
      <trkpt lat="47.04215" lon="9.05638">
        <ele>530</ele>
        <time>2021-08-02T07:56:02.315Z</time>
      </trkpt>
      <trkpt lat="47.04215" lon="9.05638">
        <ele>530</ele>
        <time>2021-08-02T07:56:03.315Z</time>
      </trkpt>
      <trkpt lat="47.04216" lon="9.05638">
        <ele>530</ele>
        <time>2021-08-02T07:56:04.316Z</time>
      </trkpt>
      <trkpt lat="47.04216" lon="9.05637">
        <ele>530</ele>
        <time>2021-08-02T07:56:05.315Z</time>
      </trkpt>
      <trkpt lat="47.04217" lon="9.05637">
        <ele>530</ele>
        <time>2021-08-02T07:56:06.316Z</time>
      </trkpt>
      <trkpt lat="47.04217" lon="9.05636">
        <ele>531</ele>
        <time>2021-08-02T07:56:07.316Z</time>
      </trkpt>
      <trkpt lat="47.04217" lon="9.05636">
        <ele>531</ele>
        <time>2021-08-02T07:56:08.316Z</time>
      </trkpt>
      <trkpt lat="47.04217" lon="9.05635">
        <ele>531</ele>
        <time>2021-08-02T07:56:09.316Z</time>
      </trkpt>
      <trkpt lat="47.04218" lon="9.05634">
        <ele>531</ele>
        <time>2021-08-02T07:56:10.316Z</time>
      </trkpt>
      <trkpt lat="47.0422" lon="9.05634">
        <ele>531</ele>
        <time>2021-08-02T07:56:11.315Z</time>
      </trkpt>
      <trkpt lat="47.0422" lon="9.05634">
        <ele>532</ele>
        <time>2021-08-02T07:56:12.316Z</time>
      </trkpt>
      <trkpt lat="47.04221" lon="9.05633">
        <ele>532</ele>
        <time>2021-08-02T07:56:13.316Z</time>
      </trkpt>
      <trkpt lat="47.04222" lon="9.05632">
        <ele>532</ele>
        <time>2021-08-02T07:56:14.315Z</time>
      </trkpt>
      <trkpt lat="47.04222" lon="9.05631">
        <ele>533</ele>
        <time>2021-08-02T07:56:15.315Z</time>
      </trkpt>
      <trkpt lat="47.04223" lon="9.05629">
        <ele>533</ele>
        <time>2021-08-02T07:56:16.316Z</time>
      </trkpt>
      <trkpt lat="47.04224" lon="9.05629">
        <ele>534</ele>
        <time>2021-08-02T07:56:17.316Z</time>
      </trkpt>
      <trkpt lat="47.04225" lon="9.05628">
        <ele>534</ele>
        <time>2021-08-02T07:56:18.316Z</time>
      </trkpt>
      <trkpt lat="47.04226" lon="9.05628">
        <ele>534</ele>
        <time>2021-08-02T07:56:19.316Z</time>
      </trkpt>
      <trkpt lat="47.04227" lon="9.05627">
        <ele>534</ele>
        <time>2021-08-02T07:56:20.315Z</time>
      </trkpt>
      <trkpt lat="47.04228" lon="9.05626">
        <ele>535</ele>
        <time>2021-08-02T07:56:21.316Z</time>
      </trkpt>
      <trkpt lat="47.04228" lon="9.05626">
        <ele>536</ele>
        <time>2021-08-02T07:56:22.315Z</time>
      </trkpt>
      <trkpt lat="47.04229" lon="9.05625">
        <ele>537</ele>
        <time>2021-08-02T07:56:23.315Z</time>
      </trkpt>
      <trkpt lat="47.04229" lon="9.05623">
        <ele>537</ele>
        <time>2021-08-02T07:56:24.316Z</time>
      </trkpt>
      <trkpt lat="47.0423" lon="9.05622">
        <ele>538</ele>
        <time>2021-08-02T07:56:25.316Z</time>
      </trkpt>
      <trkpt lat="47.0423" lon="9.05621">
        <ele>538</ele>
        <time>2021-08-02T07:56:26.316Z</time>
      </trkpt>
      <trkpt lat="47.0423" lon="9.05619">
        <ele>539</ele>
        <time>2021-08-02T07:56:27.316Z</time>
      </trkpt>
      <trkpt lat="47.04231" lon="9.05618">
        <ele>539</ele>
        <time>2021-08-02T07:56:28.316Z</time>
      </trkpt>
      <trkpt lat="47.04232" lon="9.05618">
        <ele>539</ele>
        <time>2021-08-02T07:56:29.315Z</time>
      </trkpt>
      <trkpt lat="47.04233" lon="9.05617">
        <ele>539</ele>
        <time>2021-08-02T07:56:30.316Z</time>
      </trkpt>
      <trkpt lat="47.04235" lon="9.05617">
        <ele>539</ele>
        <time>2021-08-02T07:56:31.315Z</time>
      </trkpt>
      <trkpt lat="47.04236" lon="9.05616">
        <ele>539</ele>
        <time>2021-08-02T07:56:32.315Z</time>
      </trkpt>
      <trkpt lat="47.04237" lon="9.05616">
        <ele>539</ele>
        <time>2021-08-02T07:56:33.315Z</time>
      </trkpt>
      <trkpt lat="47.04238" lon="9.05615">
        <ele>539</ele>
        <time>2021-08-02T07:56:34.315Z</time>
      </trkpt>
      <trkpt lat="47.04239" lon="9.05614">
        <ele>539</ele>
        <time>2021-08-02T07:56:35.316Z</time>
      </trkpt>
      <trkpt lat="47.0424" lon="9.05614">
        <ele>539</ele>
        <time>2021-08-02T07:56:36.315Z</time>
      </trkpt>
      <trkpt lat="47.04241" lon="9.05613">
        <ele>538</ele>
        <time>2021-08-02T07:56:37.315Z</time>
      </trkpt>
      <trkpt lat="47.04242" lon="9.05612">
        <ele>538</ele>
        <time>2021-08-02T07:56:38.316Z</time>
      </trkpt>
      <trkpt lat="47.04243" lon="9.05611">
        <ele>537</ele>
        <time>2021-08-02T07:56:39.315Z</time>
      </trkpt>
      <trkpt lat="47.04244" lon="9.0561">
        <ele>537</ele>
        <time>2021-08-02T07:56:40.316Z</time>
      </trkpt>
      <trkpt lat="47.04245" lon="9.05609">
        <ele>538</ele>
        <time>2021-08-02T07:56:41.316Z</time>
      </trkpt>
      <trkpt lat="47.04246" lon="9.05609">
        <ele>538</ele>
        <time>2021-08-02T07:56:42.316Z</time>
      </trkpt>
      <trkpt lat="47.04247" lon="9.05608">
        <ele>538</ele>
        <time>2021-08-02T07:56:43.315Z</time>
      </trkpt>
      <trkpt lat="47.04247" lon="9.05607">
        <ele>538</ele>
        <time>2021-08-02T07:56:44.316Z</time>
      </trkpt>
      <trkpt lat="47.04248" lon="9.05605">
        <ele>539</ele>
        <time>2021-08-02T07:56:45.315Z</time>
      </trkpt>
      <trkpt lat="47.04249" lon="9.05604">
        <ele>539</ele>
        <time>2021-08-02T07:56:46.316Z</time>
      </trkpt>
      <trkpt lat="47.04249" lon="9.05603">
        <ele>539</ele>
        <time>2021-08-02T07:56:47.316Z</time>
      </trkpt>
      <trkpt lat="47.04249" lon="9.05601">
        <ele>539</ele>
        <time>2021-08-02T07:56:48.315Z</time>
      </trkpt>
      <trkpt lat="47.04248" lon="9.05599">
        <ele>540</ele>
        <time>2021-08-02T07:56:49.316Z</time>
      </trkpt>
      <trkpt lat="47.04247" lon="9.05597">
        <ele>540</ele>
        <time>2021-08-02T07:56:50.315Z</time>
      </trkpt>
      <trkpt lat="47.04245" lon="9.05591">
        <ele>545</ele>
        <time>2021-08-02T07:56:51.317Z</time>
      </trkpt>
      <trkpt lat="47.04247" lon="9.05591">
        <ele>545</ele>
        <time>2021-08-02T07:56:52.316Z</time>
      </trkpt>
      <trkpt lat="47.04248" lon="9.0559">
        <ele>545</ele>
        <time>2021-08-02T07:56:53.317Z</time>
      </trkpt>
      <trkpt lat="47.04248" lon="9.0559">
        <ele>545</ele>
        <time>2021-08-02T07:56:54.317Z</time>
      </trkpt>
      <trkpt lat="47.04248" lon="9.05589">
        <ele>545</ele>
        <time>2021-08-02T07:56:55.316Z</time>
      </trkpt>
      <trkpt lat="47.04249" lon="9.05588">
        <ele>544</ele>
        <time>2021-08-02T07:56:56.317Z</time>
      </trkpt>
      <trkpt lat="47.04249" lon="9.05588">
        <ele>544</ele>
        <time>2021-08-02T07:56:57.317Z</time>
      </trkpt>
      <trkpt lat="47.0425" lon="9.05587">
        <ele>543</ele>
        <time>2021-08-02T07:56:58.317Z</time>
      </trkpt>
      <trkpt lat="47.04251" lon="9.05588">
        <ele>543</ele>
        <time>2021-08-02T07:56:59.316Z</time>
      </trkpt>
      <trkpt lat="47.04252" lon="9.05588">
        <ele>542</ele>
        <time>2021-08-02T07:57:00.316Z</time>
      </trkpt>
      <trkpt lat="47.04253" lon="9.05588">
        <ele>542</ele>
        <time>2021-08-02T07:57:01.317Z</time>
      </trkpt>
      <trkpt lat="47.04254" lon="9.05588">
        <ele>542</ele>
        <time>2021-08-02T07:57:02.317Z</time>
      </trkpt>
      <trkpt lat="47.04256" lon="9.05588">
        <ele>542</ele>
        <time>2021-08-02T07:57:03.316Z</time>
      </trkpt>
      <trkpt lat="47.04257" lon="9.05588">
        <ele>542</ele>
        <time>2021-08-02T07:57:04.316Z</time>
      </trkpt>
      <trkpt lat="47.04258" lon="9.05588">
        <ele>542</ele>
        <time>2021-08-02T07:57:05.317Z</time>
      </trkpt>
      <trkpt lat="47.0426" lon="9.05587">
        <ele>542</ele>
        <time>2021-08-02T07:57:06.317Z</time>
      </trkpt>
      <trkpt lat="47.04261" lon="9.05586">
        <ele>542</ele>
        <time>2021-08-02T07:57:07.316Z</time>
      </trkpt>
      <trkpt lat="47.04263" lon="9.05585">
        <ele>542</ele>
        <time>2021-08-02T07:57:08.317Z</time>
      </trkpt>
      <trkpt lat="47.04264" lon="9.05584">
        <ele>543</ele>
        <time>2021-08-02T07:57:09.316Z</time>
      </trkpt>
      <trkpt lat="47.04265" lon="9.05585">
        <ele>543</ele>
        <time>2021-08-02T07:57:10.316Z</time>
      </trkpt>
      <trkpt lat="47.04267" lon="9.05585">
        <ele>543</ele>
        <time>2021-08-02T07:57:11.316Z</time>
      </trkpt>
      <trkpt lat="47.0427" lon="9.05586">
        <ele>543</ele>
        <time>2021-08-02T07:57:12.317Z</time>
      </trkpt>
      <trkpt lat="47.04271" lon="9.05586">
        <ele>543</ele>
        <time>2021-08-02T07:57:13.317Z</time>
      </trkpt>
      <trkpt lat="47.04272" lon="9.05586">
        <ele>543</ele>
        <time>2021-08-02T07:57:14.317Z</time>
      </trkpt>
      <trkpt lat="47.04273" lon="9.05585">
        <ele>542</ele>
        <time>2021-08-02T07:57:15.317Z</time>
      </trkpt>
      <trkpt lat="47.04274" lon="9.05584">
        <ele>542</ele>
        <time>2021-08-02T07:57:16.317Z</time>
      </trkpt>
      <trkpt lat="47.04276" lon="9.05584">
        <ele>542</ele>
        <time>2021-08-02T07:57:17.317Z</time>
      </trkpt>
      <trkpt lat="47.04277" lon="9.05583">
        <ele>542</ele>
        <time>2021-08-02T07:57:18.316Z</time>
      </trkpt>
      <trkpt lat="47.04278" lon="9.05583">
        <ele>542</ele>
        <time>2021-08-02T07:57:19.316Z</time>
      </trkpt>
      <trkpt lat="47.04279" lon="9.05583">
        <ele>541</ele>
        <time>2021-08-02T07:57:20.316Z</time>
      </trkpt>
      <trkpt lat="47.0428" lon="9.05582">
        <ele>541</ele>
        <time>2021-08-02T07:57:21.316Z</time>
      </trkpt>
      <trkpt lat="47.04281" lon="9.05581">
        <ele>540</ele>
        <time>2021-08-02T07:57:22.316Z</time>
      </trkpt>
      <trkpt lat="47.04281" lon="9.05581">
        <ele>540</ele>
        <time>2021-08-02T07:57:23.316Z</time>
      </trkpt>
      <trkpt lat="47.04282" lon="9.0558">
        <ele>539</ele>
        <time>2021-08-02T07:57:24.316Z</time>
      </trkpt>
      <trkpt lat="47.04288" lon="9.05579">
        <ele>537</ele>
        <time>2021-08-02T07:57:25.319Z</time>
      </trkpt>
      <trkpt lat="47.04288" lon="9.05578">
        <ele>537</ele>
        <time>2021-08-02T07:57:26.319Z</time>
      </trkpt>
      <trkpt lat="47.04289" lon="9.05578">
        <ele>537</ele>
        <time>2021-08-02T07:57:27.319Z</time>
      </trkpt>
      <trkpt lat="47.04293" lon="9.05576">
        <ele>538</ele>
        <time>2021-08-02T07:57:28.319Z</time>
      </trkpt>
      <trkpt lat="47.04294" lon="9.05575">
        <ele>538</ele>
        <time>2021-08-02T07:57:29.318Z</time>
      </trkpt>
      <trkpt lat="47.04295" lon="9.05574">
        <ele>538</ele>
        <time>2021-08-02T07:57:30.318Z</time>
      </trkpt>
      <trkpt lat="47.04296" lon="9.05574">
        <ele>538</ele>
        <time>2021-08-02T07:57:31.318Z</time>
      </trkpt>
      <trkpt lat="47.04296" lon="9.05572">
        <ele>537</ele>
        <time>2021-08-02T07:57:32.318Z</time>
      </trkpt>
      <trkpt lat="47.04296" lon="9.05572">
        <ele>537</ele>
        <time>2021-08-02T07:57:33.318Z</time>
      </trkpt>
      <trkpt lat="47.04297" lon="9.05571">
        <ele>537</ele>
        <time>2021-08-02T07:57:34.318Z</time>
      </trkpt>
      <trkpt lat="47.04298" lon="9.05572">
        <ele>537</ele>
        <time>2021-08-02T07:57:35.318Z</time>
      </trkpt>
      <trkpt lat="47.043" lon="9.05571">
        <ele>537</ele>
        <time>2021-08-02T07:57:36.318Z</time>
      </trkpt>
      <trkpt lat="47.04301" lon="9.0557">
        <ele>537</ele>
        <time>2021-08-02T07:57:37.319Z</time>
      </trkpt>
      <trkpt lat="47.04302" lon="9.05569">
        <ele>537</ele>
        <time>2021-08-02T07:57:38.319Z</time>
      </trkpt>
      <trkpt lat="47.04303" lon="9.05569">
        <ele>537</ele>
        <time>2021-08-02T07:57:39.319Z</time>
      </trkpt>
      <trkpt lat="47.04304" lon="9.05569">
        <ele>537</ele>
        <time>2021-08-02T07:57:40.318Z</time>
      </trkpt>
      <trkpt lat="47.04306" lon="9.05567">
        <ele>537</ele>
        <time>2021-08-02T07:57:41.318Z</time>
      </trkpt>
      <trkpt lat="47.04307" lon="9.05567">
        <ele>537</ele>
        <time>2021-08-02T07:57:42.318Z</time>
      </trkpt>
      <trkpt lat="47.04307" lon="9.05567">
        <ele>537</ele>
        <time>2021-08-02T07:57:43.318Z</time>
      </trkpt>
      <trkpt lat="47.04308" lon="9.05567">
        <ele>537</ele>
        <time>2021-08-02T07:57:44.318Z</time>
      </trkpt>
      <trkpt lat="47.04309" lon="9.05566">
        <ele>537</ele>
        <time>2021-08-02T07:57:45.318Z</time>
      </trkpt>
      <trkpt lat="47.04309" lon="9.05566">
        <ele>537</ele>
        <time>2021-08-02T07:57:46.319Z</time>
      </trkpt>
      <trkpt lat="47.0431" lon="9.05566">
        <ele>538</ele>
        <time>2021-08-02T07:57:47.318Z</time>
      </trkpt>
      <trkpt lat="47.04311" lon="9.05565">
        <ele>538</ele>
        <time>2021-08-02T07:57:48.318Z</time>
      </trkpt>
      <trkpt lat="47.04312" lon="9.05564">
        <ele>538</ele>
        <time>2021-08-02T07:57:49.319Z</time>
      </trkpt>
      <trkpt lat="47.04312" lon="9.05563">
        <ele>538</ele>
        <time>2021-08-02T07:57:50.318Z</time>
      </trkpt>
      <trkpt lat="47.04313" lon="9.05562">
        <ele>538</ele>
        <time>2021-08-02T07:57:51.318Z</time>
      </trkpt>
      <trkpt lat="47.04315" lon="9.05561">
        <ele>538</ele>
        <time>2021-08-02T07:57:52.319Z</time>
      </trkpt>
      <trkpt lat="47.04316" lon="9.0556">
        <ele>538</ele>
        <time>2021-08-02T07:57:53.319Z</time>
      </trkpt>
      <trkpt lat="47.04317" lon="9.05559">
        <ele>538</ele>
        <time>2021-08-02T07:57:54.318Z</time>
      </trkpt>
      <trkpt lat="47.04318" lon="9.05557">
        <ele>538</ele>
        <time>2021-08-02T07:57:55.318Z</time>
      </trkpt>
      <trkpt lat="47.0432" lon="9.05557">
        <ele>538</ele>
        <time>2021-08-02T07:57:56.319Z</time>
      </trkpt>
      <trkpt lat="47.04322" lon="9.05557">
        <ele>539</ele>
        <time>2021-08-02T07:57:57.318Z</time>
      </trkpt>
      <trkpt lat="47.04323" lon="9.05556">
        <ele>539</ele>
        <time>2021-08-02T07:57:58.318Z</time>
      </trkpt>
      <trkpt lat="47.04324" lon="9.05555">
        <ele>539</ele>
        <time>2021-08-02T07:57:59.319Z</time>
      </trkpt>
      <trkpt lat="47.04324" lon="9.05554">
        <ele>540</ele>
        <time>2021-08-02T07:58:00.319Z</time>
      </trkpt>
      <trkpt lat="47.04324" lon="9.05553">
        <ele>540</ele>
        <time>2021-08-02T07:58:01.318Z</time>
      </trkpt>
      <trkpt lat="47.04324" lon="9.05552">
        <ele>540</ele>
        <time>2021-08-02T07:58:02.318Z</time>
      </trkpt>
      <trkpt lat="47.04324" lon="9.05552">
        <ele>541</ele>
        <time>2021-08-02T07:58:03.318Z</time>
      </trkpt>
      <trkpt lat="47.04324" lon="9.05551">
        <ele>541</ele>
        <time>2021-08-02T07:58:04.318Z</time>
      </trkpt>
      <trkpt lat="47.04325" lon="9.0555">
        <ele>541</ele>
        <time>2021-08-02T07:58:05.318Z</time>
      </trkpt>
      <trkpt lat="47.04326" lon="9.0555">
        <ele>542</ele>
        <time>2021-08-02T07:58:06.318Z</time>
      </trkpt>
      <trkpt lat="47.04326" lon="9.0555">
        <ele>542</ele>
        <time>2021-08-02T07:58:07.318Z</time>
      </trkpt>
      <trkpt lat="47.04327" lon="9.05549">
        <ele>542</ele>
        <time>2021-08-02T07:58:08.319Z</time>
      </trkpt>
      <trkpt lat="47.04329" lon="9.0555">
        <ele>543</ele>
        <time>2021-08-02T07:58:09.319Z</time>
      </trkpt>
      <trkpt lat="47.0433" lon="9.0555">
        <ele>543</ele>
        <time>2021-08-02T07:58:10.318Z</time>
      </trkpt>
      <trkpt lat="47.04332" lon="9.05551">
        <ele>544</ele>
        <time>2021-08-02T07:58:11.318Z</time>
      </trkpt>
      <trkpt lat="47.04333" lon="9.05552">
        <ele>544</ele>
        <time>2021-08-02T07:58:12.319Z</time>
      </trkpt>
      <trkpt lat="47.04334" lon="9.05552">
        <ele>545</ele>
        <time>2021-08-02T07:58:13.319Z</time>
      </trkpt>
      <trkpt lat="47.04335" lon="9.05553">
        <ele>545</ele>
        <time>2021-08-02T07:58:14.318Z</time>
      </trkpt>
      <trkpt lat="47.04336" lon="9.05554">
        <ele>545</ele>
        <time>2021-08-02T07:58:15.318Z</time>
      </trkpt>
      <trkpt lat="47.04336" lon="9.05554">
        <ele>545</ele>
        <time>2021-08-02T07:58:16.318Z</time>
      </trkpt>
      <trkpt lat="47.04336" lon="9.05554">
        <ele>545</ele>
        <time>2021-08-02T07:58:17.318Z</time>
      </trkpt>
      <trkpt lat="47.04339" lon="9.05553">
        <ele>545</ele>
        <time>2021-08-02T07:58:18.319Z</time>
      </trkpt>
      <trkpt lat="47.04341" lon="9.05553">
        <ele>545</ele>
        <time>2021-08-02T07:58:19.319Z</time>
      </trkpt>
      <trkpt lat="47.04342" lon="9.05555">
        <ele>545</ele>
        <time>2021-08-02T07:58:20.320Z</time>
      </trkpt>
      <trkpt lat="47.04344" lon="9.05557">
        <ele>544</ele>
        <time>2021-08-02T07:58:21.319Z</time>
      </trkpt>
      <trkpt lat="47.04345" lon="9.05559">
        <ele>544</ele>
        <time>2021-08-02T07:58:22.319Z</time>
      </trkpt>
      <trkpt lat="47.04346" lon="9.05559">
        <ele>543</ele>
        <time>2021-08-02T07:58:23.319Z</time>
      </trkpt>
      <trkpt lat="47.04347" lon="9.0556">
        <ele>542</ele>
        <time>2021-08-02T07:58:24.319Z</time>
      </trkpt>
      <trkpt lat="47.04349" lon="9.05561">
        <ele>542</ele>
        <time>2021-08-02T07:58:25.319Z</time>
      </trkpt>
      <trkpt lat="47.0435" lon="9.05561">
        <ele>542</ele>
        <time>2021-08-02T07:58:26.319Z</time>
      </trkpt>
      <trkpt lat="47.04351" lon="9.05562">
        <ele>542</ele>
        <time>2021-08-02T07:58:27.319Z</time>
      </trkpt>
      <trkpt lat="47.04352" lon="9.05562">
        <ele>541</ele>
        <time>2021-08-02T07:58:28.319Z</time>
      </trkpt>
      <trkpt lat="47.04353" lon="9.05563">
        <ele>541</ele>
        <time>2021-08-02T07:58:29.319Z</time>
      </trkpt>
      <trkpt lat="47.04354" lon="9.05564">
        <ele>540</ele>
        <time>2021-08-02T07:58:30.319Z</time>
      </trkpt>
      <trkpt lat="47.04355" lon="9.05565">
        <ele>540</ele>
        <time>2021-08-02T07:58:31.319Z</time>
      </trkpt>
      <trkpt lat="47.04357" lon="9.05566">
        <ele>539</ele>
        <time>2021-08-02T07:58:32.319Z</time>
      </trkpt>
      <trkpt lat="47.04357" lon="9.05568">
        <ele>539</ele>
        <time>2021-08-02T07:58:33.319Z</time>
      </trkpt>
      <trkpt lat="47.04358" lon="9.05569">
        <ele>538</ele>
        <time>2021-08-02T07:58:34.319Z</time>
      </trkpt>
      <trkpt lat="47.04359" lon="9.05569">
        <ele>538</ele>
        <time>2021-08-02T07:58:35.320Z</time>
      </trkpt>
      <trkpt lat="47.0436" lon="9.05569">
        <ele>537</ele>
        <time>2021-08-02T07:58:36.320Z</time>
      </trkpt>
      <trkpt lat="47.04362" lon="9.05569">
        <ele>536</ele>
        <time>2021-08-02T07:58:37.320Z</time>
      </trkpt>
      <trkpt lat="47.04362" lon="9.05568">
        <ele>535</ele>
        <time>2021-08-02T07:58:38.320Z</time>
      </trkpt>
      <trkpt lat="47.04362" lon="9.05567">
        <ele>534</ele>
        <time>2021-08-02T07:58:39.319Z</time>
      </trkpt>
      <trkpt lat="47.04363" lon="9.05567">
        <ele>533</ele>
        <time>2021-08-02T07:58:40.320Z</time>
      </trkpt>
      <trkpt lat="47.04364" lon="9.05568">
        <ele>532</ele>
        <time>2021-08-02T07:58:41.319Z</time>
      </trkpt>
      <trkpt lat="47.04364" lon="9.05567">
        <ele>531</ele>
        <time>2021-08-02T07:58:42.319Z</time>
      </trkpt>
      <trkpt lat="47.04364" lon="9.05566">
        <ele>530</ele>
        <time>2021-08-02T07:58:43.319Z</time>
      </trkpt>
      <trkpt lat="47.04365" lon="9.05566">
        <ele>529</ele>
        <time>2021-08-02T07:58:44.320Z</time>
      </trkpt>
      <trkpt lat="47.04365" lon="9.05566">
        <ele>529</ele>
        <time>2021-08-02T07:58:45.320Z</time>
      </trkpt>
      <trkpt lat="47.04366" lon="9.05566">
        <ele>528</ele>
        <time>2021-08-02T07:58:46.320Z</time>
      </trkpt>
      <trkpt lat="47.04367" lon="9.05567">
        <ele>528</ele>
        <time>2021-08-02T07:58:47.320Z</time>
      </trkpt>
      <trkpt lat="47.04368" lon="9.05568">
        <ele>527</ele>
        <time>2021-08-02T07:58:48.320Z</time>
      </trkpt>
      <trkpt lat="47.04369" lon="9.05569">
        <ele>526</ele>
        <time>2021-08-02T07:58:49.320Z</time>
      </trkpt>
      <trkpt lat="47.0437" lon="9.0557">
        <ele>526</ele>
        <time>2021-08-02T07:58:50.320Z</time>
      </trkpt>
      <trkpt lat="47.0437" lon="9.0557">
        <ele>526</ele>
        <time>2021-08-02T07:58:51.320Z</time>
      </trkpt>
      <trkpt lat="47.04372" lon="9.0557">
        <ele>525</ele>
        <time>2021-08-02T07:58:52.319Z</time>
      </trkpt>
      <trkpt lat="47.04374" lon="9.05569">
        <ele>525</ele>
        <time>2021-08-02T07:58:53.320Z</time>
      </trkpt>
      <trkpt lat="47.04376" lon="9.05569">
        <ele>524</ele>
        <time>2021-08-02T07:58:54.320Z</time>
      </trkpt>
      <trkpt lat="47.04378" lon="9.05569">
        <ele>524</ele>
        <time>2021-08-02T07:58:55.320Z</time>
      </trkpt>
      <trkpt lat="47.0438" lon="9.05568">
        <ele>524</ele>
        <time>2021-08-02T07:58:56.320Z</time>
      </trkpt>
      <trkpt lat="47.04381" lon="9.05567">
        <ele>525</ele>
        <time>2021-08-02T07:58:57.320Z</time>
      </trkpt>
      <trkpt lat="47.04382" lon="9.05566">
        <ele>525</ele>
        <time>2021-08-02T07:58:58.320Z</time>
      </trkpt>
      <trkpt lat="47.04382" lon="9.05565">
        <ele>526</ele>
        <time>2021-08-02T07:58:59.320Z</time>
      </trkpt>
      <trkpt lat="47.04383" lon="9.05564">
        <ele>527</ele>
        <time>2021-08-02T07:59:00.320Z</time>
      </trkpt>
      <trkpt lat="47.04384" lon="9.05564">
        <ele>528</ele>
        <time>2021-08-02T07:59:01.320Z</time>
      </trkpt>
      <trkpt lat="47.04385" lon="9.05563">
        <ele>528</ele>
        <time>2021-08-02T07:59:02.319Z</time>
      </trkpt>
      <trkpt lat="47.04386" lon="9.05562">
        <ele>529</ele>
        <time>2021-08-02T07:59:03.320Z</time>
      </trkpt>
      <trkpt lat="47.04387" lon="9.05561">
        <ele>530</ele>
        <time>2021-08-02T07:59:04.319Z</time>
      </trkpt>
      <trkpt lat="47.04388" lon="9.05559">
        <ele>530</ele>
        <time>2021-08-02T07:59:05.319Z</time>
      </trkpt>
      <trkpt lat="47.04389" lon="9.05558">
        <ele>531</ele>
        <time>2021-08-02T07:59:06.320Z</time>
      </trkpt>
      <trkpt lat="47.0439" lon="9.05557">
        <ele>532</ele>
        <time>2021-08-02T07:59:07.320Z</time>
      </trkpt>
      <trkpt lat="47.04391" lon="9.05556">
        <ele>532</ele>
        <time>2021-08-02T07:59:08.319Z</time>
      </trkpt>
      <trkpt lat="47.04391" lon="9.05555">
        <ele>533</ele>
        <time>2021-08-02T07:59:09.320Z</time>
      </trkpt>
      <trkpt lat="47.04392" lon="9.05554">
        <ele>533</ele>
        <time>2021-08-02T07:59:10.319Z</time>
      </trkpt>
      <trkpt lat="47.04393" lon="9.05553">
        <ele>533</ele>
        <time>2021-08-02T07:59:11.319Z</time>
      </trkpt>
      <trkpt lat="47.04395" lon="9.05552">
        <ele>533</ele>
        <time>2021-08-02T07:59:12.319Z</time>
      </trkpt>
      <trkpt lat="47.04395" lon="9.05551">
        <ele>534</ele>
        <time>2021-08-02T07:59:13.319Z</time>
      </trkpt>
      <trkpt lat="47.04396" lon="9.0555">
        <ele>534</ele>
        <time>2021-08-02T07:59:14.320Z</time>
      </trkpt>
      <trkpt lat="47.04397" lon="9.05548">
        <ele>534</ele>
        <time>2021-08-02T07:59:15.320Z</time>
      </trkpt>
      <trkpt lat="47.04399" lon="9.05547">
        <ele>534</ele>
        <time>2021-08-02T07:59:16.320Z</time>
      </trkpt>
      <trkpt lat="47.044" lon="9.05546">
        <ele>534</ele>
        <time>2021-08-02T07:59:17.319Z</time>
      </trkpt>
      <trkpt lat="47.044" lon="9.05545">
        <ele>534</ele>
        <time>2021-08-02T07:59:18.319Z</time>
      </trkpt>
      <trkpt lat="47.04401" lon="9.05544">
        <ele>535</ele>
        <time>2021-08-02T07:59:19.320Z</time>
      </trkpt>
      <trkpt lat="47.04401" lon="9.05542">
        <ele>536</ele>
        <time>2021-08-02T07:59:20.320Z</time>
      </trkpt>
      <trkpt lat="47.04402" lon="9.05541">
        <ele>536</ele>
        <time>2021-08-02T07:59:21.320Z</time>
      </trkpt>
      <trkpt lat="47.04402" lon="9.0554">
        <ele>537</ele>
        <time>2021-08-02T07:59:22.320Z</time>
      </trkpt>
      <trkpt lat="47.04402" lon="9.05538">
        <ele>537</ele>
        <time>2021-08-02T07:59:23.320Z</time>
      </trkpt>
      <trkpt lat="47.04402" lon="9.05537">
        <ele>537</ele>
        <time>2021-08-02T07:59:24.320Z</time>
      </trkpt>
      <trkpt lat="47.04402" lon="9.05536">
        <ele>537</ele>
        <time>2021-08-02T07:59:25.320Z</time>
      </trkpt>
      <trkpt lat="47.04402" lon="9.05536">
        <ele>533</ele>
        <time>2021-08-02T07:59:26.319Z</time>
      </trkpt>
      <trkpt lat="47.04403" lon="9.05537">
        <ele>533</ele>
        <time>2021-08-02T07:59:27.320Z</time>
      </trkpt>
      <trkpt lat="47.04404" lon="9.05536">
        <ele>533</ele>
        <time>2021-08-02T07:59:28.319Z</time>
      </trkpt>
      <trkpt lat="47.04405" lon="9.05535">
        <ele>533</ele>
        <time>2021-08-02T07:59:29.319Z</time>
      </trkpt>
      <trkpt lat="47.04405" lon="9.05534">
        <ele>533</ele>
        <time>2021-08-02T07:59:30.319Z</time>
      </trkpt>
      <trkpt lat="47.04406" lon="9.05534">
        <ele>533</ele>
        <time>2021-08-02T07:59:31.320Z</time>
      </trkpt>
      <trkpt lat="47.04406" lon="9.05532">
        <ele>533</ele>
        <time>2021-08-02T07:59:32.320Z</time>
      </trkpt>
      <trkpt lat="47.04407" lon="9.05531">
        <ele>533</ele>
        <time>2021-08-02T07:59:33.320Z</time>
      </trkpt>
      <trkpt lat="47.04407" lon="9.0553">
        <ele>533</ele>
        <time>2021-08-02T07:59:34.320Z</time>
      </trkpt>
      <trkpt lat="47.04407" lon="9.05529">
        <ele>533</ele>
        <time>2021-08-02T07:59:35.320Z</time>
      </trkpt>
      <trkpt lat="47.04406" lon="9.05528">
        <ele>533</ele>
        <time>2021-08-02T07:59:36.320Z</time>
      </trkpt>
      <trkpt lat="47.04406" lon="9.05527">
        <ele>534</ele>
        <time>2021-08-02T07:59:37.319Z</time>
      </trkpt>
      <trkpt lat="47.04406" lon="9.05525">
        <ele>535</ele>
        <time>2021-08-02T07:59:38.320Z</time>
      </trkpt>
      <trkpt lat="47.04405" lon="9.05524">
        <ele>535</ele>
        <time>2021-08-02T07:59:39.319Z</time>
      </trkpt>
      <trkpt lat="47.04405" lon="9.05522">
        <ele>536</ele>
        <time>2021-08-02T07:59:40.319Z</time>
      </trkpt>
      <trkpt lat="47.04405" lon="9.05521">
        <ele>536</ele>
        <time>2021-08-02T07:59:41.319Z</time>
      </trkpt>
      <trkpt lat="47.04404" lon="9.0552">
        <ele>537</ele>
        <time>2021-08-02T07:59:42.319Z</time>
      </trkpt>
      <trkpt lat="47.04404" lon="9.05519">
        <ele>537</ele>
        <time>2021-08-02T07:59:43.320Z</time>
      </trkpt>
      <trkpt lat="47.04405" lon="9.05517">
        <ele>537</ele>
        <time>2021-08-02T07:59:44.320Z</time>
      </trkpt>
      <trkpt lat="47.04405" lon="9.05516">
        <ele>537</ele>
        <time>2021-08-02T07:59:45.319Z</time>
      </trkpt>
      <trkpt lat="47.04404" lon="9.05514">
        <ele>538</ele>
        <time>2021-08-02T07:59:46.320Z</time>
      </trkpt>
      <trkpt lat="47.04404" lon="9.05512">
        <ele>538</ele>
        <time>2021-08-02T07:59:47.319Z</time>
      </trkpt>
      <trkpt lat="47.04405" lon="9.05511">
        <ele>538</ele>
        <time>2021-08-02T07:59:48.320Z</time>
      </trkpt>
      <trkpt lat="47.04405" lon="9.0551">
        <ele>538</ele>
        <time>2021-08-02T07:59:49.319Z</time>
      </trkpt>
      <trkpt lat="47.04405" lon="9.05508">
        <ele>538</ele>
        <time>2021-08-02T07:59:50.320Z</time>
      </trkpt>
      <trkpt lat="47.04405" lon="9.05507">
        <ele>538</ele>
        <time>2021-08-02T07:59:51.320Z</time>
      </trkpt>
      <trkpt lat="47.04405" lon="9.05506">
        <ele>538</ele>
        <time>2021-08-02T07:59:52.320Z</time>
      </trkpt>
      <trkpt lat="47.04405" lon="9.05505">
        <ele>538</ele>
        <time>2021-08-02T07:59:53.319Z</time>
      </trkpt>
      <trkpt lat="47.04405" lon="9.05503">
        <ele>538</ele>
        <time>2021-08-02T07:59:54.319Z</time>
      </trkpt>
      <trkpt lat="47.04404" lon="9.05501">
        <ele>538</ele>
        <time>2021-08-02T07:59:55.320Z</time>
      </trkpt>
      <trkpt lat="47.04404" lon="9.05499">
        <ele>538</ele>
        <time>2021-08-02T07:59:56.320Z</time>
      </trkpt>
      <trkpt lat="47.04403" lon="9.05498">
        <ele>538</ele>
        <time>2021-08-02T07:59:57.320Z</time>
      </trkpt>
      <trkpt lat="47.04403" lon="9.05497">
        <ele>537</ele>
        <time>2021-08-02T07:59:58.319Z</time>
      </trkpt>
      <trkpt lat="47.04403" lon="9.05495">
        <ele>537</ele>
        <time>2021-08-02T07:59:59.320Z</time>
      </trkpt>
      <trkpt lat="47.04402" lon="9.05494">
        <ele>537</ele>
        <time>2021-08-02T08:00:00.320Z</time>
      </trkpt>
      <trkpt lat="47.04402" lon="9.05492">
        <ele>536</ele>
        <time>2021-08-02T08:00:01.320Z</time>
      </trkpt>
      <trkpt lat="47.04401" lon="9.05491">
        <ele>536</ele>
        <time>2021-08-02T08:00:02.320Z</time>
      </trkpt>
      <trkpt lat="47.04401" lon="9.05489">
        <ele>536</ele>
        <time>2021-08-02T08:00:03.320Z</time>
      </trkpt>
      <trkpt lat="47.044" lon="9.05488">
        <ele>535</ele>
        <time>2021-08-02T08:00:04.319Z</time>
      </trkpt>
      <trkpt lat="47.044" lon="9.05486">
        <ele>535</ele>
        <time>2021-08-02T08:00:05.320Z</time>
      </trkpt>
      <trkpt lat="47.044" lon="9.05485">
        <ele>535</ele>
        <time>2021-08-02T08:00:06.320Z</time>
      </trkpt>
      <trkpt lat="47.044" lon="9.05484">
        <ele>535</ele>
        <time>2021-08-02T08:00:07.319Z</time>
      </trkpt>
      <trkpt lat="47.044" lon="9.05483">
        <ele>535</ele>
        <time>2021-08-02T08:00:08.319Z</time>
      </trkpt>
      <trkpt lat="47.04399" lon="9.05482">
        <ele>535</ele>
        <time>2021-08-02T08:00:09.320Z</time>
      </trkpt>
      <trkpt lat="47.04399" lon="9.0548">
        <ele>535</ele>
        <time>2021-08-02T08:00:10.319Z</time>
      </trkpt>
      <trkpt lat="47.04398" lon="9.05479">
        <ele>535</ele>
        <time>2021-08-02T08:00:11.320Z</time>
      </trkpt>
      <trkpt lat="47.04398" lon="9.05477">
        <ele>535</ele>
        <time>2021-08-02T08:00:12.320Z</time>
      </trkpt>
      <trkpt lat="47.04398" lon="9.05475">
        <ele>535</ele>
        <time>2021-08-02T08:00:13.320Z</time>
      </trkpt>
      <trkpt lat="47.04398" lon="9.05473">
        <ele>535</ele>
        <time>2021-08-02T08:00:14.320Z</time>
      </trkpt>
      <trkpt lat="47.04398" lon="9.05472">
        <ele>535</ele>
        <time>2021-08-02T08:00:15.320Z</time>
      </trkpt>
      <trkpt lat="47.04398" lon="9.05471">
        <ele>535</ele>
        <time>2021-08-02T08:00:16.320Z</time>
      </trkpt>
      <trkpt lat="47.04398" lon="9.0547">
        <ele>535</ele>
        <time>2021-08-02T08:00:17.320Z</time>
      </trkpt>
      <trkpt lat="47.04398" lon="9.05469">
        <ele>536</ele>
        <time>2021-08-02T08:00:18.319Z</time>
      </trkpt>
      <trkpt lat="47.04398" lon="9.05468">
        <ele>536</ele>
        <time>2021-08-02T08:00:19.320Z</time>
      </trkpt>
      <trkpt lat="47.04398" lon="9.05467">
        <ele>536</ele>
        <time>2021-08-02T08:00:20.320Z</time>
      </trkpt>
      <trkpt lat="47.04398" lon="9.05466">
        <ele>536</ele>
        <time>2021-08-02T08:00:21.319Z</time>
      </trkpt>
      <trkpt lat="47.04397" lon="9.05465">
        <ele>537</ele>
        <time>2021-08-02T08:00:22.320Z</time>
      </trkpt>
      <trkpt lat="47.04397" lon="9.05464">
        <ele>537</ele>
        <time>2021-08-02T08:00:23.320Z</time>
      </trkpt>
      <trkpt lat="47.04398" lon="9.05463">
        <ele>537</ele>
        <time>2021-08-02T08:00:24.319Z</time>
      </trkpt>
      <trkpt lat="47.04398" lon="9.05462">
        <ele>538</ele>
        <time>2021-08-02T08:00:25.320Z</time>
      </trkpt>
      <trkpt lat="47.04398" lon="9.05461">
        <ele>538</ele>
        <time>2021-08-02T08:00:26.320Z</time>
      </trkpt>
      <trkpt lat="47.04398" lon="9.0546">
        <ele>538</ele>
        <time>2021-08-02T08:00:27.319Z</time>
      </trkpt>
      <trkpt lat="47.04398" lon="9.05458">
        <ele>538</ele>
        <time>2021-08-02T08:00:28.320Z</time>
      </trkpt>
      <trkpt lat="47.04398" lon="9.05456">
        <ele>538</ele>
        <time>2021-08-02T08:00:29.320Z</time>
      </trkpt>
      <trkpt lat="47.04398" lon="9.05454">
        <ele>539</ele>
        <time>2021-08-02T08:00:30.320Z</time>
      </trkpt>
      <trkpt lat="47.04397" lon="9.05452">
        <ele>539</ele>
        <time>2021-08-02T08:00:31.319Z</time>
      </trkpt>
      <trkpt lat="47.04396" lon="9.05449">
        <ele>540</ele>
        <time>2021-08-02T08:00:32.320Z</time>
      </trkpt>
      <trkpt lat="47.04396" lon="9.05447">
        <ele>540</ele>
        <time>2021-08-02T08:00:33.320Z</time>
      </trkpt>
      <trkpt lat="47.04395" lon="9.05446">
        <ele>540</ele>
        <time>2021-08-02T08:00:34.319Z</time>
      </trkpt>
      <trkpt lat="47.04395" lon="9.05444">
        <ele>541</ele>
        <time>2021-08-02T08:00:35.319Z</time>
      </trkpt>
      <trkpt lat="47.04395" lon="9.05443">
        <ele>541</ele>
        <time>2021-08-02T08:00:36.320Z</time>
      </trkpt>
      <trkpt lat="47.04394" lon="9.05442">
        <ele>541</ele>
        <time>2021-08-02T08:00:37.320Z</time>
      </trkpt>
      <trkpt lat="47.04394" lon="9.0544">
        <ele>541</ele>
        <time>2021-08-02T08:00:38.320Z</time>
      </trkpt>
      <trkpt lat="47.04393" lon="9.05438">
        <ele>542</ele>
        <time>2021-08-02T08:00:39.320Z</time>
      </trkpt>
      <trkpt lat="47.04393" lon="9.05436">
        <ele>543</ele>
        <time>2021-08-02T08:00:40.320Z</time>
      </trkpt>
      <trkpt lat="47.04393" lon="9.05435">
        <ele>543</ele>
        <time>2021-08-02T08:00:41.320Z</time>
      </trkpt>
      <trkpt lat="47.04392" lon="9.05434">
        <ele>543</ele>
        <time>2021-08-02T08:00:42.320Z</time>
      </trkpt>
      <trkpt lat="47.04392" lon="9.05432">
        <ele>544</ele>
        <time>2021-08-02T08:00:43.320Z</time>
      </trkpt>
      <trkpt lat="47.04391" lon="9.0543">
        <ele>544</ele>
        <time>2021-08-02T08:00:44.320Z</time>
      </trkpt>
      <trkpt lat="47.04391" lon="9.05429">
        <ele>544</ele>
        <time>2021-08-02T08:00:45.320Z</time>
      </trkpt>
      <trkpt lat="47.04392" lon="9.05428">
        <ele>545</ele>
        <time>2021-08-02T08:00:46.320Z</time>
      </trkpt>
      <trkpt lat="47.04393" lon="9.05427">
        <ele>545</ele>
        <time>2021-08-02T08:00:47.320Z</time>
      </trkpt>
      <trkpt lat="47.04393" lon="9.05426">
        <ele>545</ele>
        <time>2021-08-02T08:00:48.320Z</time>
      </trkpt>
      <trkpt lat="47.04393" lon="9.05424">
        <ele>545</ele>
        <time>2021-08-02T08:00:49.320Z</time>
      </trkpt>
      <trkpt lat="47.04392" lon="9.05422">
        <ele>545</ele>
        <time>2021-08-02T08:00:50.320Z</time>
      </trkpt>
      <trkpt lat="47.04391" lon="9.0542">
        <ele>545</ele>
        <time>2021-08-02T08:00:51.319Z</time>
      </trkpt>
      <trkpt lat="47.0439" lon="9.05418">
        <ele>546</ele>
        <time>2021-08-02T08:00:52.319Z</time>
      </trkpt>
      <trkpt lat="47.0439" lon="9.05417">
        <ele>546</ele>
        <time>2021-08-02T08:00:53.320Z</time>
      </trkpt>
      <trkpt lat="47.04389" lon="9.05415">
        <ele>546</ele>
        <time>2021-08-02T08:00:54.320Z</time>
      </trkpt>
      <trkpt lat="47.0439" lon="9.05414">
        <ele>547</ele>
        <time>2021-08-02T08:00:55.319Z</time>
      </trkpt>
      <trkpt lat="47.0439" lon="9.05413">
        <ele>547</ele>
        <time>2021-08-02T08:00:56.320Z</time>
      </trkpt>
      <trkpt lat="47.04391" lon="9.05413">
        <ele>547</ele>
        <time>2021-08-02T08:00:57.320Z</time>
      </trkpt>
      <trkpt lat="47.04392" lon="9.05412">
        <ele>547</ele>
        <time>2021-08-02T08:00:58.319Z</time>
      </trkpt>
      <trkpt lat="47.04392" lon="9.0541">
        <ele>548</ele>
        <time>2021-08-02T08:00:59.320Z</time>
      </trkpt>
      <trkpt lat="47.04392" lon="9.05409">
        <ele>548</ele>
        <time>2021-08-02T08:01:00.320Z</time>
      </trkpt>
      <trkpt lat="47.04393" lon="9.05408">
        <ele>548</ele>
        <time>2021-08-02T08:01:01.320Z</time>
      </trkpt>
      <trkpt lat="47.04393" lon="9.05407">
        <ele>549</ele>
        <time>2021-08-02T08:01:02.320Z</time>
      </trkpt>
      <trkpt lat="47.04394" lon="9.05407">
        <ele>549</ele>
        <time>2021-08-02T08:01:03.320Z</time>
      </trkpt>
      <trkpt lat="47.04394" lon="9.05406">
        <ele>550</ele>
        <time>2021-08-02T08:01:04.319Z</time>
      </trkpt>
      <trkpt lat="47.04394" lon="9.05405">
        <ele>550</ele>
        <time>2021-08-02T08:01:05.320Z</time>
      </trkpt>
      <trkpt lat="47.04395" lon="9.05404">
        <ele>550</ele>
        <time>2021-08-02T08:01:06.319Z</time>
      </trkpt>
      <trkpt lat="47.04396" lon="9.05403">
        <ele>551</ele>
        <time>2021-08-02T08:01:07.320Z</time>
      </trkpt>
      <trkpt lat="47.04396" lon="9.05402">
        <ele>551</ele>
        <time>2021-08-02T08:01:08.320Z</time>
      </trkpt>
      <trkpt lat="47.04397" lon="9.05402">
        <ele>551</ele>
        <time>2021-08-02T08:01:09.320Z</time>
      </trkpt>
      <trkpt lat="47.04397" lon="9.05401">
        <ele>551</ele>
        <time>2021-08-02T08:01:10.319Z</time>
      </trkpt>
      <trkpt lat="47.04397" lon="9.054">
        <ele>550</ele>
        <time>2021-08-02T08:01:11.320Z</time>
      </trkpt>
      <trkpt lat="47.04398" lon="9.05399">
        <ele>550</ele>
        <time>2021-08-02T08:01:12.320Z</time>
      </trkpt>
      <trkpt lat="47.04399" lon="9.05398">
        <ele>550</ele>
        <time>2021-08-02T08:01:13.319Z</time>
      </trkpt>
      <trkpt lat="47.044" lon="9.05397">
        <ele>550</ele>
        <time>2021-08-02T08:01:14.319Z</time>
      </trkpt>
      <trkpt lat="47.04401" lon="9.05396">
        <ele>550</ele>
        <time>2021-08-02T08:01:15.319Z</time>
      </trkpt>
      <trkpt lat="47.04402" lon="9.05396">
        <ele>550</ele>
        <time>2021-08-02T08:01:16.320Z</time>
      </trkpt>
      <trkpt lat="47.04402" lon="9.05396">
        <ele>550</ele>
        <time>2021-08-02T08:01:17.319Z</time>
      </trkpt>
      <trkpt lat="47.04402" lon="9.05394">
        <ele>550</ele>
        <time>2021-08-02T08:01:18.319Z</time>
      </trkpt>
      <trkpt lat="47.04402" lon="9.05393">
        <ele>549</ele>
        <time>2021-08-02T08:01:19.320Z</time>
      </trkpt>
      <trkpt lat="47.04402" lon="9.05392">
        <ele>549</ele>
        <time>2021-08-02T08:01:20.320Z</time>
      </trkpt>
      <trkpt lat="47.04403" lon="9.05391">
        <ele>548</ele>
        <time>2021-08-02T08:01:21.320Z</time>
      </trkpt>
      <trkpt lat="47.04403" lon="9.0539">
        <ele>548</ele>
        <time>2021-08-02T08:01:22.319Z</time>
      </trkpt>
      <trkpt lat="47.04403" lon="9.0539">
        <ele>548</ele>
        <time>2021-08-02T08:01:23.319Z</time>
      </trkpt>
      <trkpt lat="47.04403" lon="9.05388">
        <ele>548</ele>
        <time>2021-08-02T08:01:24.320Z</time>
      </trkpt>
      <trkpt lat="47.04404" lon="9.05387">
        <ele>548</ele>
        <time>2021-08-02T08:01:25.319Z</time>
      </trkpt>
      <trkpt lat="47.04405" lon="9.05386">
        <ele>548</ele>
        <time>2021-08-02T08:01:26.320Z</time>
      </trkpt>
      <trkpt lat="47.04405" lon="9.05385">
        <ele>548</ele>
        <time>2021-08-02T08:01:27.319Z</time>
      </trkpt>
      <trkpt lat="47.04405" lon="9.05383">
        <ele>548</ele>
        <time>2021-08-02T08:01:28.320Z</time>
      </trkpt>
      <trkpt lat="47.04405" lon="9.05381">
        <ele>548</ele>
        <time>2021-08-02T08:01:29.320Z</time>
      </trkpt>
      <trkpt lat="47.04405" lon="9.0538">
        <ele>548</ele>
        <time>2021-08-02T08:01:30.320Z</time>
      </trkpt>
      <trkpt lat="47.04406" lon="9.05378">
        <ele>548</ele>
        <time>2021-08-02T08:01:31.320Z</time>
      </trkpt>
      <trkpt lat="47.04407" lon="9.05378">
        <ele>548</ele>
        <time>2021-08-02T08:01:32.319Z</time>
      </trkpt>
      <trkpt lat="47.04407" lon="9.05377">
        <ele>548</ele>
        <time>2021-08-02T08:01:33.319Z</time>
      </trkpt>
      <trkpt lat="47.04408" lon="9.05376">
        <ele>548</ele>
        <time>2021-08-02T08:01:34.319Z</time>
      </trkpt>
      <trkpt lat="47.04409" lon="9.05375">
        <ele>548</ele>
        <time>2021-08-02T08:01:35.320Z</time>
      </trkpt>
      <trkpt lat="47.04409" lon="9.05374">
        <ele>548</ele>
        <time>2021-08-02T08:01:36.319Z</time>
      </trkpt>
      <trkpt lat="47.04409" lon="9.05373">
        <ele>548</ele>
        <time>2021-08-02T08:01:37.320Z</time>
      </trkpt>
      <trkpt lat="47.04409" lon="9.05371">
        <ele>548</ele>
        <time>2021-08-02T08:01:38.319Z</time>
      </trkpt>
      <trkpt lat="47.0441" lon="9.05371">
        <ele>548</ele>
        <time>2021-08-02T08:01:39.319Z</time>
      </trkpt>
      <trkpt lat="47.0441" lon="9.0537">
        <ele>548</ele>
        <time>2021-08-02T08:01:40.320Z</time>
      </trkpt>
      <trkpt lat="47.0441" lon="9.05369">
        <ele>548</ele>
        <time>2021-08-02T08:01:41.320Z</time>
      </trkpt>
      <trkpt lat="47.0441" lon="9.05368">
        <ele>548</ele>
        <time>2021-08-02T08:01:42.320Z</time>
      </trkpt>
      <trkpt lat="47.04411" lon="9.05367">
        <ele>548</ele>
        <time>2021-08-02T08:01:43.319Z</time>
      </trkpt>
      <trkpt lat="47.04411" lon="9.05366">
        <ele>548</ele>
        <time>2021-08-02T08:01:44.320Z</time>
      </trkpt>
      <trkpt lat="47.04411" lon="9.05365">
        <ele>547</ele>
        <time>2021-08-02T08:01:45.319Z</time>
      </trkpt>
      <trkpt lat="47.04411" lon="9.05364">
        <ele>547</ele>
        <time>2021-08-02T08:01:46.320Z</time>
      </trkpt>
      <trkpt lat="47.04411" lon="9.05363">
        <ele>547</ele>
        <time>2021-08-02T08:01:47.320Z</time>
      </trkpt>
      <trkpt lat="47.04411" lon="9.05362">
        <ele>547</ele>
        <time>2021-08-02T08:01:48.320Z</time>
      </trkpt>
      <trkpt lat="47.04411" lon="9.05361">
        <ele>547</ele>
        <time>2021-08-02T08:01:49.320Z</time>
      </trkpt>
      <trkpt lat="47.04411" lon="9.05361">
        <ele>546</ele>
        <time>2021-08-02T08:01:50.320Z</time>
      </trkpt>
      <trkpt lat="47.04411" lon="9.0536">
        <ele>546</ele>
        <time>2021-08-02T08:01:51.320Z</time>
      </trkpt>
      <trkpt lat="47.04411" lon="9.05359">
        <ele>546</ele>
        <time>2021-08-02T08:01:52.319Z</time>
      </trkpt>
      <trkpt lat="47.04411" lon="9.05357">
        <ele>546</ele>
        <time>2021-08-02T08:01:53.320Z</time>
      </trkpt>
      <trkpt lat="47.04409" lon="9.05354">
        <ele>545</ele>
        <time>2021-08-02T08:01:54.319Z</time>
      </trkpt>
      <trkpt lat="47.04409" lon="9.05355">
        <ele>545</ele>
        <time>2021-08-02T08:01:55.320Z</time>
      </trkpt>
      <trkpt lat="47.0441" lon="9.05357">
        <ele>545</ele>
        <time>2021-08-02T08:01:56.319Z</time>
      </trkpt>
      <trkpt lat="47.04407" lon="9.05355">
        <ele>548</ele>
        <time>2021-08-02T08:01:57.320Z</time>
      </trkpt>
      <trkpt lat="47.04407" lon="9.05355">
        <ele>549</ele>
        <time>2021-08-02T08:01:58.319Z</time>
      </trkpt>
      <trkpt lat="47.04407" lon="9.05356">
        <ele>550</ele>
        <time>2021-08-02T08:01:59.320Z</time>
      </trkpt>
      <trkpt lat="47.04408" lon="9.05357">
        <ele>551</ele>
        <time>2021-08-02T08:02:00.320Z</time>
      </trkpt>
      <trkpt lat="47.04408" lon="9.05357">
        <ele>551</ele>
        <time>2021-08-02T08:02:01.320Z</time>
      </trkpt>
      <trkpt lat="47.04408" lon="9.05357">
        <ele>552</ele>
        <time>2021-08-02T08:02:02.319Z</time>
      </trkpt>
      <trkpt lat="47.04408" lon="9.05356">
        <ele>552</ele>
        <time>2021-08-02T08:02:03.319Z</time>
      </trkpt>
      <trkpt lat="47.04408" lon="9.05355">
        <ele>553</ele>
        <time>2021-08-02T08:02:04.319Z</time>
      </trkpt>
      <trkpt lat="47.04408" lon="9.05355">
        <ele>553</ele>
        <time>2021-08-02T08:02:05.319Z</time>
      </trkpt>
      <trkpt lat="47.04408" lon="9.05352">
        <ele>554</ele>
        <time>2021-08-02T08:02:06.320Z</time>
      </trkpt>
      <trkpt lat="47.04408" lon="9.05352">
        <ele>555</ele>
        <time>2021-08-02T08:02:07.319Z</time>
      </trkpt>
      <trkpt lat="47.04408" lon="9.05351">
        <ele>555</ele>
        <time>2021-08-02T08:02:08.320Z</time>
      </trkpt>
      <trkpt lat="47.04407" lon="9.0535">
        <ele>555</ele>
        <time>2021-08-02T08:02:09.319Z</time>
      </trkpt>
      <trkpt lat="47.04407" lon="9.05349">
        <ele>555</ele>
        <time>2021-08-02T08:02:10.320Z</time>
      </trkpt>
      <trkpt lat="47.04407" lon="9.05347">
        <ele>555</ele>
        <time>2021-08-02T08:02:11.319Z</time>
      </trkpt>
      <trkpt lat="47.04408" lon="9.05347">
        <ele>555</ele>
        <time>2021-08-02T08:02:12.319Z</time>
      </trkpt>
      <trkpt lat="47.04408" lon="9.05346">
        <ele>555</ele>
        <time>2021-08-02T08:02:13.319Z</time>
      </trkpt>
      <trkpt lat="47.04409" lon="9.05345">
        <ele>555</ele>
        <time>2021-08-02T08:02:14.320Z</time>
      </trkpt>
      <trkpt lat="47.0441" lon="9.05344">
        <ele>554</ele>
        <time>2021-08-02T08:02:15.319Z</time>
      </trkpt>
      <trkpt lat="47.04411" lon="9.05342">
        <ele>553</ele>
        <time>2021-08-02T08:02:16.319Z</time>
      </trkpt>
      <trkpt lat="47.04412" lon="9.05342">
        <ele>553</ele>
        <time>2021-08-02T08:02:17.319Z</time>
      </trkpt>
      <trkpt lat="47.04413" lon="9.05341">
        <ele>552</ele>
        <time>2021-08-02T08:02:18.320Z</time>
      </trkpt>
      <trkpt lat="47.04415" lon="9.05341">
        <ele>551</ele>
        <time>2021-08-02T08:02:19.320Z</time>
      </trkpt>
      <trkpt lat="47.04415" lon="9.0534">
        <ele>550</ele>
        <time>2021-08-02T08:02:20.319Z</time>
      </trkpt>
      <trkpt lat="47.04416" lon="9.05338">
        <ele>550</ele>
        <time>2021-08-02T08:02:21.320Z</time>
      </trkpt>
      <trkpt lat="47.04416" lon="9.05337">
        <ele>550</ele>
        <time>2021-08-02T08:02:22.320Z</time>
      </trkpt>
      <trkpt lat="47.04416" lon="9.05336">
        <ele>550</ele>
        <time>2021-08-02T08:02:23.320Z</time>
      </trkpt>
      <trkpt lat="47.04418" lon="9.05335">
        <ele>549</ele>
        <time>2021-08-02T08:02:24.320Z</time>
      </trkpt>
      <trkpt lat="47.04419" lon="9.05335">
        <ele>549</ele>
        <time>2021-08-02T08:02:25.319Z</time>
      </trkpt>
      <trkpt lat="47.0442" lon="9.05334">
        <ele>548</ele>
        <time>2021-08-02T08:02:26.320Z</time>
      </trkpt>
      <trkpt lat="47.04421" lon="9.05334">
        <ele>548</ele>
        <time>2021-08-02T08:02:27.320Z</time>
      </trkpt>
      <trkpt lat="47.04422" lon="9.05333">
        <ele>547</ele>
        <time>2021-08-02T08:02:28.319Z</time>
      </trkpt>
      <trkpt lat="47.04422" lon="9.05332">
        <ele>547</ele>
        <time>2021-08-02T08:02:29.320Z</time>
      </trkpt>
      <trkpt lat="47.04423" lon="9.05332">
        <ele>546</ele>
        <time>2021-08-02T08:02:30.319Z</time>
      </trkpt>
      <trkpt lat="47.04424" lon="9.05331">
        <ele>546</ele>
        <time>2021-08-02T08:02:31.320Z</time>
      </trkpt>
      <trkpt lat="47.04425" lon="9.05331">
        <ele>545</ele>
        <time>2021-08-02T08:02:32.320Z</time>
      </trkpt>
      <trkpt lat="47.04426" lon="9.05331">
        <ele>545</ele>
        <time>2021-08-02T08:02:33.320Z</time>
      </trkpt>
      <trkpt lat="47.04427" lon="9.0533">
        <ele>545</ele>
        <time>2021-08-02T08:02:34.320Z</time>
      </trkpt>
      <trkpt lat="47.04428" lon="9.05331">
        <ele>545</ele>
        <time>2021-08-02T08:02:35.319Z</time>
      </trkpt>
      <trkpt lat="47.0443" lon="9.05331">
        <ele>545</ele>
        <time>2021-08-02T08:02:36.320Z</time>
      </trkpt>
      <trkpt lat="47.04431" lon="9.05331">
        <ele>544</ele>
        <time>2021-08-02T08:02:37.319Z</time>
      </trkpt>
      <trkpt lat="47.04433" lon="9.0533">
        <ele>544</ele>
        <time>2021-08-02T08:02:38.320Z</time>
      </trkpt>
      <trkpt lat="47.04433" lon="9.0533">
        <ele>543</ele>
        <time>2021-08-02T08:02:39.320Z</time>
      </trkpt>
      <trkpt lat="47.04434" lon="9.05329">
        <ele>542</ele>
        <time>2021-08-02T08:02:40.320Z</time>
      </trkpt>
      <trkpt lat="47.04434" lon="9.05328">
        <ele>542</ele>
        <time>2021-08-02T08:02:41.320Z</time>
      </trkpt>
      <trkpt lat="47.04435" lon="9.05328">
        <ele>541</ele>
        <time>2021-08-02T08:02:42.320Z</time>
      </trkpt>
      <trkpt lat="47.04438" lon="9.05331">
        <ele>540</ele>
        <time>2021-08-02T08:02:43.320Z</time>
      </trkpt>
      <trkpt lat="47.04439" lon="9.05328">
        <ele>539</ele>
        <time>2021-08-02T08:02:44.322Z</time>
      </trkpt>
      <trkpt lat="47.04439" lon="9.05328">
        <ele>539</ele>
        <time>2021-08-02T08:02:45.322Z</time>
      </trkpt>
      <trkpt lat="47.0444" lon="9.05326">
        <ele>540</ele>
        <time>2021-08-02T08:02:46.322Z</time>
      </trkpt>
      <trkpt lat="47.0444" lon="9.05326">
        <ele>541</ele>
        <time>2021-08-02T08:02:47.322Z</time>
      </trkpt>
      <trkpt lat="47.04442" lon="9.05325">
        <ele>542</ele>
        <time>2021-08-02T08:02:48.322Z</time>
      </trkpt>
      <trkpt lat="47.04443" lon="9.05323">
        <ele>543</ele>
        <time>2021-08-02T08:02:49.321Z</time>
      </trkpt>
      <trkpt lat="47.04443" lon="9.05322">
        <ele>544</ele>
        <time>2021-08-02T08:02:50.322Z</time>
      </trkpt>
      <trkpt lat="47.04444" lon="9.05321">
        <ele>545</ele>
        <time>2021-08-02T08:02:51.322Z</time>
      </trkpt>
      <trkpt lat="47.04445" lon="9.0532">
        <ele>546</ele>
        <time>2021-08-02T08:02:52.321Z</time>
      </trkpt>
      <trkpt lat="47.04445" lon="9.05319">
        <ele>547</ele>
        <time>2021-08-02T08:02:53.321Z</time>
      </trkpt>
      <trkpt lat="47.04446" lon="9.05318">
        <ele>547</ele>
        <time>2021-08-02T08:02:54.321Z</time>
      </trkpt>
      <trkpt lat="47.04447" lon="9.05318">
        <ele>548</ele>
        <time>2021-08-02T08:02:55.322Z</time>
      </trkpt>
      <trkpt lat="47.04447" lon="9.05317">
        <ele>548</ele>
        <time>2021-08-02T08:02:56.322Z</time>
      </trkpt>
      <trkpt lat="47.04448" lon="9.05316">
        <ele>548</ele>
        <time>2021-08-02T08:02:57.322Z</time>
      </trkpt>
      <trkpt lat="47.04448" lon="9.05315">
        <ele>548</ele>
        <time>2021-08-02T08:02:58.321Z</time>
      </trkpt>
      <trkpt lat="47.04449" lon="9.05315">
        <ele>548</ele>
        <time>2021-08-02T08:02:59.322Z</time>
      </trkpt>
      <trkpt lat="47.0445" lon="9.05314">
        <ele>548</ele>
        <time>2021-08-02T08:03:00.322Z</time>
      </trkpt>
      <trkpt lat="47.04451" lon="9.05314">
        <ele>548</ele>
        <time>2021-08-02T08:03:01.322Z</time>
      </trkpt>
      <trkpt lat="47.04452" lon="9.05313">
        <ele>548</ele>
        <time>2021-08-02T08:03:02.322Z</time>
      </trkpt>
      <trkpt lat="47.04453" lon="9.05313">
        <ele>548</ele>
        <time>2021-08-02T08:03:03.321Z</time>
      </trkpt>
      <trkpt lat="47.04454" lon="9.05314">
        <ele>547</ele>
        <time>2021-08-02T08:03:04.321Z</time>
      </trkpt>
      <trkpt lat="47.04454" lon="9.05314">
        <ele>547</ele>
        <time>2021-08-02T08:03:05.322Z</time>
      </trkpt>
      <trkpt lat="47.04456" lon="9.05315">
        <ele>546</ele>
        <time>2021-08-02T08:03:06.322Z</time>
      </trkpt>
      <trkpt lat="47.04457" lon="9.05316">
        <ele>546</ele>
        <time>2021-08-02T08:03:07.322Z</time>
      </trkpt>
      <trkpt lat="47.04458" lon="9.05316">
        <ele>546</ele>
        <time>2021-08-02T08:03:08.322Z</time>
      </trkpt>
      <trkpt lat="47.04459" lon="9.05316">
        <ele>546</ele>
        <time>2021-08-02T08:03:09.321Z</time>
      </trkpt>
      <trkpt lat="47.0446" lon="9.05316">
        <ele>546</ele>
        <time>2021-08-02T08:03:10.322Z</time>
      </trkpt>
      <trkpt lat="47.04461" lon="9.05316">
        <ele>545</ele>
        <time>2021-08-02T08:03:11.322Z</time>
      </trkpt>
      <trkpt lat="47.04462" lon="9.05316">
        <ele>545</ele>
        <time>2021-08-02T08:03:12.322Z</time>
      </trkpt>
      <trkpt lat="47.04463" lon="9.05315">
        <ele>544</ele>
        <time>2021-08-02T08:03:13.321Z</time>
      </trkpt>
      <trkpt lat="47.04465" lon="9.05315">
        <ele>544</ele>
        <time>2021-08-02T08:03:14.322Z</time>
      </trkpt>
      <trkpt lat="47.04465" lon="9.05314">
        <ele>544</ele>
        <time>2021-08-02T08:03:15.322Z</time>
      </trkpt>
      <trkpt lat="47.04466" lon="9.05313">
        <ele>545</ele>
        <time>2021-08-02T08:03:16.321Z</time>
      </trkpt>
      <trkpt lat="47.04468" lon="9.05313">
        <ele>544</ele>
        <time>2021-08-02T08:03:17.322Z</time>
      </trkpt>
      <trkpt lat="47.04469" lon="9.05313">
        <ele>544</ele>
        <time>2021-08-02T08:03:18.322Z</time>
      </trkpt>
      <trkpt lat="47.04471" lon="9.05312">
        <ele>544</ele>
        <time>2021-08-02T08:03:19.322Z</time>
      </trkpt>
      <trkpt lat="47.04472" lon="9.05312">
        <ele>544</ele>
        <time>2021-08-02T08:03:20.322Z</time>
      </trkpt>
      <trkpt lat="47.04472" lon="9.05311">
        <ele>543</ele>
        <time>2021-08-02T08:03:21.322Z</time>
      </trkpt>
      <trkpt lat="47.04474" lon="9.05311">
        <ele>543</ele>
        <time>2021-08-02T08:03:22.321Z</time>
      </trkpt>
      <trkpt lat="47.04475" lon="9.0531">
        <ele>543</ele>
        <time>2021-08-02T08:03:23.321Z</time>
      </trkpt>
      <trkpt lat="47.04476" lon="9.05309">
        <ele>543</ele>
        <time>2021-08-02T08:03:24.321Z</time>
      </trkpt>
      <trkpt lat="47.04476" lon="9.05308">
        <ele>543</ele>
        <time>2021-08-02T08:03:25.322Z</time>
      </trkpt>
      <trkpt lat="47.04477" lon="9.05307">
        <ele>543</ele>
        <time>2021-08-02T08:03:26.322Z</time>
      </trkpt>
      <trkpt lat="47.04478" lon="9.05306">
        <ele>543</ele>
        <time>2021-08-02T08:03:27.322Z</time>
      </trkpt>
      <trkpt lat="47.04478" lon="9.05304">
        <ele>543</ele>
        <time>2021-08-02T08:03:28.322Z</time>
      </trkpt>
      <trkpt lat="47.04479" lon="9.05302">
        <ele>544</ele>
        <time>2021-08-02T08:03:29.322Z</time>
      </trkpt>
      <trkpt lat="47.0448" lon="9.05301">
        <ele>545</ele>
        <time>2021-08-02T08:03:30.322Z</time>
      </trkpt>
      <trkpt lat="47.0448" lon="9.053">
        <ele>545</ele>
        <time>2021-08-02T08:03:31.322Z</time>
      </trkpt>
      <trkpt lat="47.04481" lon="9.05297">
        <ele>545</ele>
        <time>2021-08-02T08:03:32.321Z</time>
      </trkpt>
      <trkpt lat="47.04482" lon="9.05296">
        <ele>546</ele>
        <time>2021-08-02T08:03:33.322Z</time>
      </trkpt>
      <trkpt lat="47.04483" lon="9.05295">
        <ele>546</ele>
        <time>2021-08-02T08:03:34.321Z</time>
      </trkpt>
      <trkpt lat="47.04483" lon="9.05294">
        <ele>547</ele>
        <time>2021-08-02T08:03:35.322Z</time>
      </trkpt>
      <trkpt lat="47.04484" lon="9.05293">
        <ele>547</ele>
        <time>2021-08-02T08:03:36.322Z</time>
      </trkpt>
      <trkpt lat="47.04485" lon="9.05292">
        <ele>548</ele>
        <time>2021-08-02T08:03:37.321Z</time>
      </trkpt>
      <trkpt lat="47.04486" lon="9.05291">
        <ele>548</ele>
        <time>2021-08-02T08:03:38.322Z</time>
      </trkpt>
      <trkpt lat="47.04486" lon="9.0529">
        <ele>549</ele>
        <time>2021-08-02T08:03:39.322Z</time>
      </trkpt>
      <trkpt lat="47.04487" lon="9.05289">
        <ele>549</ele>
        <time>2021-08-02T08:03:40.322Z</time>
      </trkpt>
      <trkpt lat="47.04487" lon="9.05288">
        <ele>549</ele>
        <time>2021-08-02T08:03:41.322Z</time>
      </trkpt>
      <trkpt lat="47.04488" lon="9.05287">
        <ele>549</ele>
        <time>2021-08-02T08:03:42.321Z</time>
      </trkpt>
      <trkpt lat="47.04488" lon="9.05286">
        <ele>549</ele>
        <time>2021-08-02T08:03:43.321Z</time>
      </trkpt>
      <trkpt lat="47.04488" lon="9.05285">
        <ele>549</ele>
        <time>2021-08-02T08:03:44.322Z</time>
      </trkpt>
      <trkpt lat="47.04489" lon="9.05285">
        <ele>550</ele>
        <time>2021-08-02T08:03:45.322Z</time>
      </trkpt>
      <trkpt lat="47.04489" lon="9.05284">
        <ele>550</ele>
        <time>2021-08-02T08:03:46.321Z</time>
      </trkpt>
      <trkpt lat="47.0449" lon="9.05283">
        <ele>550</ele>
        <time>2021-08-02T08:03:47.321Z</time>
      </trkpt>
      <trkpt lat="47.0449" lon="9.05282">
        <ele>550</ele>
        <time>2021-08-02T08:03:48.321Z</time>
      </trkpt>
      <trkpt lat="47.04491" lon="9.05281">
        <ele>550</ele>
        <time>2021-08-02T08:03:49.322Z</time>
      </trkpt>
      <trkpt lat="47.04492" lon="9.0528">
        <ele>551</ele>
        <time>2021-08-02T08:03:50.321Z</time>
      </trkpt>
      <trkpt lat="47.04492" lon="9.0528">
        <ele>551</ele>
        <time>2021-08-02T08:03:51.322Z</time>
      </trkpt>
      <trkpt lat="47.04493" lon="9.05279">
        <ele>550</ele>
        <time>2021-08-02T08:03:52.321Z</time>
      </trkpt>
      <trkpt lat="47.04493" lon="9.05278">
        <ele>550</ele>
        <time>2021-08-02T08:03:53.321Z</time>
      </trkpt>
      <trkpt lat="47.04494" lon="9.05277">
        <ele>550</ele>
        <time>2021-08-02T08:03:54.321Z</time>
      </trkpt>
      <trkpt lat="47.04495" lon="9.05277">
        <ele>550</ele>
        <time>2021-08-02T08:03:55.321Z</time>
      </trkpt>
      <trkpt lat="47.04495" lon="9.05276">
        <ele>550</ele>
        <time>2021-08-02T08:03:56.321Z</time>
      </trkpt>
      <trkpt lat="47.04496" lon="9.05275">
        <ele>550</ele>
        <time>2021-08-02T08:03:57.321Z</time>
      </trkpt>
      <trkpt lat="47.04497" lon="9.05274">
        <ele>550</ele>
        <time>2021-08-02T08:03:58.321Z</time>
      </trkpt>
      <trkpt lat="47.04497" lon="9.05273">
        <ele>551</ele>
        <time>2021-08-02T08:03:59.321Z</time>
      </trkpt>
      <trkpt lat="47.04498" lon="9.05272">
        <ele>551</ele>
        <time>2021-08-02T08:04:00.321Z</time>
      </trkpt>
      <trkpt lat="47.04498" lon="9.05271">
        <ele>551</ele>
        <time>2021-08-02T08:04:01.322Z</time>
      </trkpt>
      <trkpt lat="47.04499" lon="9.0527">
        <ele>551</ele>
        <time>2021-08-02T08:04:02.321Z</time>
      </trkpt>
      <trkpt lat="47.04499" lon="9.0527">
        <ele>551</ele>
        <time>2021-08-02T08:04:03.321Z</time>
      </trkpt>
      <trkpt lat="47.045" lon="9.05269">
        <ele>552</ele>
        <time>2021-08-02T08:04:04.321Z</time>
      </trkpt>
      <trkpt lat="47.04501" lon="9.05266">
        <ele>552</ele>
        <time>2021-08-02T08:04:05.321Z</time>
      </trkpt>
      <trkpt lat="47.04503" lon="9.05265">
        <ele>552</ele>
        <time>2021-08-02T08:04:06.321Z</time>
      </trkpt>
      <trkpt lat="47.04504" lon="9.05265">
        <ele>552</ele>
        <time>2021-08-02T08:04:07.321Z</time>
      </trkpt>
      <trkpt lat="47.04505" lon="9.05264">
        <ele>552</ele>
        <time>2021-08-02T08:04:08.321Z</time>
      </trkpt>
      <trkpt lat="47.04505" lon="9.05264">
        <ele>552</ele>
        <time>2021-08-02T08:04:09.321Z</time>
      </trkpt>
      <trkpt lat="47.04505" lon="9.05263">
        <ele>552</ele>
        <time>2021-08-02T08:04:10.321Z</time>
      </trkpt>
      <trkpt lat="47.04506" lon="9.05263">
        <ele>552</ele>
        <time>2021-08-02T08:04:11.321Z</time>
      </trkpt>
      <trkpt lat="47.04506" lon="9.05263">
        <ele>552</ele>
        <time>2021-08-02T08:04:12.321Z</time>
      </trkpt>
      <trkpt lat="47.04507" lon="9.05263">
        <ele>551</ele>
        <time>2021-08-02T08:04:13.321Z</time>
      </trkpt>
      <trkpt lat="47.04507" lon="9.05263">
        <ele>551</ele>
        <time>2021-08-02T08:04:14.321Z</time>
      </trkpt>
      <trkpt lat="47.04508" lon="9.05263">
        <ele>551</ele>
        <time>2021-08-02T08:04:15.321Z</time>
      </trkpt>
      <trkpt lat="47.04508" lon="9.05263">
        <ele>551</ele>
        <time>2021-08-02T08:04:16.322Z</time>
      </trkpt>
      <trkpt lat="47.04508" lon="9.05263">
        <ele>551</ele>
        <time>2021-08-02T08:04:17.322Z</time>
      </trkpt>
      <trkpt lat="47.04508" lon="9.05263">
        <ele>551</ele>
        <time>2021-08-02T08:04:18.322Z</time>
      </trkpt>
      <trkpt lat="47.04506" lon="9.05263">
        <ele>553</ele>
        <time>2021-08-02T08:04:19.321Z</time>
      </trkpt>
      <trkpt lat="47.04506" lon="9.05263">
        <ele>555</ele>
        <time>2021-08-02T08:04:20.322Z</time>
      </trkpt>
      <trkpt lat="47.04506" lon="9.05263">
        <ele>556</ele>
        <time>2021-08-02T08:04:21.322Z</time>
      </trkpt>
      <trkpt lat="47.04505" lon="9.05262">
        <ele>559</ele>
        <time>2021-08-02T08:04:22.321Z</time>
      </trkpt>
      <trkpt lat="47.04505" lon="9.05262">
        <ele>559</ele>
        <time>2021-08-02T08:04:23.322Z</time>
      </trkpt>
      <trkpt lat="47.04505" lon="9.05261">
        <ele>559</ele>
        <time>2021-08-02T08:04:24.321Z</time>
      </trkpt>
      <trkpt lat="47.04505" lon="9.05262">
        <ele>559</ele>
        <time>2021-08-02T08:04:25.323Z</time>
      </trkpt>
      <trkpt lat="47.04505" lon="9.05262">
        <ele>559</ele>
        <time>2021-08-02T08:04:26.322Z</time>
      </trkpt>
      <trkpt lat="47.04505" lon="9.05262">
        <ele>559</ele>
        <time>2021-08-02T08:04:27.323Z</time>
      </trkpt>
      <trkpt lat="47.04505" lon="9.05262">
        <ele>559</ele>
        <time>2021-08-02T08:04:28.323Z</time>
      </trkpt>
      <trkpt lat="47.04505" lon="9.05262">
        <ele>559</ele>
        <time>2021-08-02T08:04:29.323Z</time>
      </trkpt>
      <trkpt lat="47.04505" lon="9.05262">
        <ele>559</ele>
        <time>2021-08-02T08:04:30.323Z</time>
      </trkpt>
      <trkpt lat="47.04504" lon="9.05262">
        <ele>559</ele>
        <time>2021-08-02T08:04:31.323Z</time>
      </trkpt>
      <trkpt lat="47.04504" lon="9.05262">
        <ele>558</ele>
        <time>2021-08-02T08:04:32.323Z</time>
      </trkpt>
      <trkpt lat="47.04504" lon="9.05262">
        <ele>558</ele>
        <time>2021-08-02T08:04:33.322Z</time>
      </trkpt>
      <trkpt lat="47.04505" lon="9.05263">
        <ele>554</ele>
        <time>2021-08-02T08:04:34.324Z</time>
      </trkpt>
      <trkpt lat="47.04506" lon="9.05263">
        <ele>553</ele>
        <time>2021-08-02T08:04:35.324Z</time>
      </trkpt>
      <trkpt lat="47.04506" lon="9.05263">
        <ele>553</ele>
        <time>2021-08-02T08:04:36.323Z</time>
      </trkpt>
      <trkpt lat="47.04506" lon="9.05263">
        <ele>553</ele>
        <time>2021-08-02T08:04:37.323Z</time>
      </trkpt>
      <trkpt lat="47.04509" lon="9.05263">
        <ele>552</ele>
        <time>2021-08-02T08:04:38.324Z</time>
      </trkpt>
      <trkpt lat="47.0451" lon="9.05262">
        <ele>552</ele>
        <time>2021-08-02T08:04:39.325Z</time>
      </trkpt>
      <trkpt lat="47.04511" lon="9.05262">
        <ele>552</ele>
        <time>2021-08-02T08:04:40.324Z</time>
      </trkpt>
      <trkpt lat="47.04511" lon="9.05262">
        <ele>551</ele>
        <time>2021-08-02T08:04:41.324Z</time>
      </trkpt>
      <trkpt lat="47.04512" lon="9.05261">
        <ele>551</ele>
        <time>2021-08-02T08:04:42.324Z</time>
      </trkpt>
      <trkpt lat="47.04513" lon="9.0526">
        <ele>550</ele>
        <time>2021-08-02T08:04:43.324Z</time>
      </trkpt>
      <trkpt lat="47.04513" lon="9.05259">
        <ele>550</ele>
        <time>2021-08-02T08:04:44.324Z</time>
      </trkpt>
      <trkpt lat="47.04513" lon="9.05259">
        <ele>550</ele>
        <time>2021-08-02T08:04:45.325Z</time>
      </trkpt>
      <trkpt lat="47.04513" lon="9.05258">
        <ele>549</ele>
        <time>2021-08-02T08:04:46.324Z</time>
      </trkpt>
      <trkpt lat="47.04514" lon="9.05258">
        <ele>549</ele>
        <time>2021-08-02T08:04:47.324Z</time>
      </trkpt>
      <trkpt lat="47.04514" lon="9.05255">
        <ele>548</ele>
        <time>2021-08-02T08:04:48.325Z</time>
      </trkpt>
      <trkpt lat="47.04514" lon="9.05255">
        <ele>548</ele>
        <time>2021-08-02T08:04:49.324Z</time>
      </trkpt>
      <trkpt lat="47.04514" lon="9.05251">
        <ele>547</ele>
        <time>2021-08-02T08:04:50.326Z</time>
      </trkpt>
      <trkpt lat="47.04514" lon="9.0525">
        <ele>547</ele>
        <time>2021-08-02T08:04:51.326Z</time>
      </trkpt>
      <trkpt lat="47.04514" lon="9.0525">
        <ele>547</ele>
        <time>2021-08-02T08:04:52.325Z</time>
      </trkpt>
      <trkpt lat="47.04515" lon="9.05249">
        <ele>546</ele>
        <time>2021-08-02T08:04:53.326Z</time>
      </trkpt>
      <trkpt lat="47.04516" lon="9.05249">
        <ele>546</ele>
        <time>2021-08-02T08:04:54.326Z</time>
      </trkpt>
      <trkpt lat="47.04517" lon="9.05248">
        <ele>545</ele>
        <time>2021-08-02T08:04:55.326Z</time>
      </trkpt>
      <trkpt lat="47.04518" lon="9.05247">
        <ele>545</ele>
        <time>2021-08-02T08:04:56.325Z</time>
      </trkpt>
      <trkpt lat="47.04519" lon="9.05246">
        <ele>545</ele>
        <time>2021-08-02T08:04:57.325Z</time>
      </trkpt>
      <trkpt lat="47.04519" lon="9.05245">
        <ele>545</ele>
        <time>2021-08-02T08:04:58.325Z</time>
      </trkpt>
      <trkpt lat="47.0452" lon="9.05244">
        <ele>544</ele>
        <time>2021-08-02T08:04:59.326Z</time>
      </trkpt>
      <trkpt lat="47.04522" lon="9.05242">
        <ele>544</ele>
        <time>2021-08-02T08:05:00.326Z</time>
      </trkpt>
      <trkpt lat="47.04524" lon="9.05241">
        <ele>544</ele>
        <time>2021-08-02T08:05:01.326Z</time>
      </trkpt>
      <trkpt lat="47.04525" lon="9.05241">
        <ele>544</ele>
        <time>2021-08-02T08:05:02.326Z</time>
      </trkpt>
      <trkpt lat="47.04526" lon="9.05241">
        <ele>544</ele>
        <time>2021-08-02T08:05:03.326Z</time>
      </trkpt>
      <trkpt lat="47.04527" lon="9.0524">
        <ele>544</ele>
        <time>2021-08-02T08:05:04.325Z</time>
      </trkpt>
      <trkpt lat="47.04528" lon="9.0524">
        <ele>543</ele>
        <time>2021-08-02T08:05:05.326Z</time>
      </trkpt>
      <trkpt lat="47.04529" lon="9.0524">
        <ele>543</ele>
        <time>2021-08-02T08:05:06.325Z</time>
      </trkpt>
      <trkpt lat="47.0453" lon="9.05239">
        <ele>542</ele>
        <time>2021-08-02T08:05:07.326Z</time>
      </trkpt>
      <trkpt lat="47.04532" lon="9.05239">
        <ele>541</ele>
        <time>2021-08-02T08:05:08.326Z</time>
      </trkpt>
      <trkpt lat="47.04534" lon="9.05238">
        <ele>541</ele>
        <time>2021-08-02T08:05:09.326Z</time>
      </trkpt>
      <trkpt lat="47.04535" lon="9.05237">
        <ele>540</ele>
        <time>2021-08-02T08:05:10.325Z</time>
      </trkpt>
      <trkpt lat="47.04536" lon="9.05237">
        <ele>540</ele>
        <time>2021-08-02T08:05:11.326Z</time>
      </trkpt>
      <trkpt lat="47.04538" lon="9.05238">
        <ele>539</ele>
        <time>2021-08-02T08:05:12.326Z</time>
      </trkpt>
      <trkpt lat="47.04539" lon="9.05238">
        <ele>539</ele>
        <time>2021-08-02T08:05:13.326Z</time>
      </trkpt>
      <trkpt lat="47.0454" lon="9.05239">
        <ele>539</ele>
        <time>2021-08-02T08:05:14.325Z</time>
      </trkpt>
      <trkpt lat="47.04542" lon="9.0524">
        <ele>538</ele>
        <time>2021-08-02T08:05:15.325Z</time>
      </trkpt>
      <trkpt lat="47.04543" lon="9.05239">
        <ele>538</ele>
        <time>2021-08-02T08:05:16.325Z</time>
      </trkpt>
      <trkpt lat="47.04544" lon="9.05239">
        <ele>537</ele>
        <time>2021-08-02T08:05:17.326Z</time>
      </trkpt>
      <trkpt lat="47.04545" lon="9.05239">
        <ele>536</ele>
        <time>2021-08-02T08:05:18.326Z</time>
      </trkpt>
      <trkpt lat="47.04546" lon="9.05239">
        <ele>535</ele>
        <time>2021-08-02T08:05:19.325Z</time>
      </trkpt>
      <trkpt lat="47.04547" lon="9.05239">
        <ele>535</ele>
        <time>2021-08-02T08:05:20.326Z</time>
      </trkpt>
      <trkpt lat="47.04548" lon="9.05239">
        <ele>534</ele>
        <time>2021-08-02T08:05:21.326Z</time>
      </trkpt>
      <trkpt lat="47.04549" lon="9.0524">
        <ele>533</ele>
        <time>2021-08-02T08:05:22.326Z</time>
      </trkpt>
      <trkpt lat="47.0455" lon="9.05239">
        <ele>533</ele>
        <time>2021-08-02T08:05:23.326Z</time>
      </trkpt>
      <trkpt lat="47.04552" lon="9.05239">
        <ele>532</ele>
        <time>2021-08-02T08:05:24.326Z</time>
      </trkpt>
      <trkpt lat="47.04553" lon="9.05239">
        <ele>532</ele>
        <time>2021-08-02T08:05:25.325Z</time>
      </trkpt>
      <trkpt lat="47.04554" lon="9.0524">
        <ele>531</ele>
        <time>2021-08-02T08:05:26.326Z</time>
      </trkpt>
      <trkpt lat="47.04556" lon="9.0524">
        <ele>530</ele>
        <time>2021-08-02T08:05:27.325Z</time>
      </trkpt>
      <trkpt lat="47.04557" lon="9.05241">
        <ele>530</ele>
        <time>2021-08-02T08:05:28.326Z</time>
      </trkpt>
      <trkpt lat="47.04558" lon="9.0524">
        <ele>529</ele>
        <time>2021-08-02T08:05:29.326Z</time>
      </trkpt>
      <trkpt lat="47.04559" lon="9.0524">
        <ele>528</ele>
        <time>2021-08-02T08:05:30.326Z</time>
      </trkpt>
      <trkpt lat="47.04559" lon="9.0524">
        <ele>527</ele>
        <time>2021-08-02T08:05:31.325Z</time>
      </trkpt>
      <trkpt lat="47.0456" lon="9.05239">
        <ele>527</ele>
        <time>2021-08-02T08:05:32.326Z</time>
      </trkpt>
      <trkpt lat="47.04561" lon="9.05239">
        <ele>526</ele>
        <time>2021-08-02T08:05:33.326Z</time>
      </trkpt>
      <trkpt lat="47.04562" lon="9.05239">
        <ele>526</ele>
        <time>2021-08-02T08:05:34.326Z</time>
      </trkpt>
      <trkpt lat="47.04562" lon="9.05239">
        <ele>526</ele>
        <time>2021-08-02T08:05:35.325Z</time>
      </trkpt>
      <trkpt lat="47.04563" lon="9.0524">
        <ele>526</ele>
        <time>2021-08-02T08:05:36.326Z</time>
      </trkpt>
      <trkpt lat="47.04564" lon="9.0524">
        <ele>526</ele>
        <time>2021-08-02T08:05:37.326Z</time>
      </trkpt>
      <trkpt lat="47.04565" lon="9.0524">
        <ele>527</ele>
        <time>2021-08-02T08:05:38.326Z</time>
      </trkpt>
      <trkpt lat="47.04566" lon="9.0524">
        <ele>527</ele>
        <time>2021-08-02T08:05:39.326Z</time>
      </trkpt>
      <trkpt lat="47.04567" lon="9.0524">
        <ele>527</ele>
        <time>2021-08-02T08:05:40.326Z</time>
      </trkpt>
      <trkpt lat="47.04568" lon="9.0524">
        <ele>527</ele>
        <time>2021-08-02T08:05:41.326Z</time>
      </trkpt>
      <trkpt lat="47.04568" lon="9.05239">
        <ele>527</ele>
        <time>2021-08-02T08:05:42.326Z</time>
      </trkpt>
      <trkpt lat="47.04569" lon="9.05239">
        <ele>527</ele>
        <time>2021-08-02T08:05:43.326Z</time>
      </trkpt>
      <trkpt lat="47.0457" lon="9.05239">
        <ele>527</ele>
        <time>2021-08-02T08:05:44.325Z</time>
      </trkpt>
      <trkpt lat="47.04571" lon="9.05239">
        <ele>527</ele>
        <time>2021-08-02T08:05:45.326Z</time>
      </trkpt>
      <trkpt lat="47.04572" lon="9.05239">
        <ele>527</ele>
        <time>2021-08-02T08:05:46.326Z</time>
      </trkpt>
      <trkpt lat="47.04572" lon="9.05239">
        <ele>527</ele>
        <time>2021-08-02T08:05:47.325Z</time>
      </trkpt>
      <trkpt lat="47.04573" lon="9.05239">
        <ele>527</ele>
        <time>2021-08-02T08:05:48.325Z</time>
      </trkpt>
      <trkpt lat="47.04574" lon="9.05239">
        <ele>527</ele>
        <time>2021-08-02T08:05:49.325Z</time>
      </trkpt>
      <trkpt lat="47.04575" lon="9.05239">
        <ele>528</ele>
        <time>2021-08-02T08:05:50.326Z</time>
      </trkpt>
      <trkpt lat="47.04576" lon="9.05239">
        <ele>528</ele>
        <time>2021-08-02T08:05:51.326Z</time>
      </trkpt>
      <trkpt lat="47.04577" lon="9.05239">
        <ele>529</ele>
        <time>2021-08-02T08:05:52.325Z</time>
      </trkpt>
      <trkpt lat="47.04579" lon="9.05239">
        <ele>529</ele>
        <time>2021-08-02T08:05:53.325Z</time>
      </trkpt>
      <trkpt lat="47.0458" lon="9.05239">
        <ele>530</ele>
        <time>2021-08-02T08:05:54.326Z</time>
      </trkpt>
      <trkpt lat="47.04581" lon="9.05239">
        <ele>530</ele>
        <time>2021-08-02T08:05:55.326Z</time>
      </trkpt>
      <trkpt lat="47.04582" lon="9.05239">
        <ele>529</ele>
        <time>2021-08-02T08:05:56.326Z</time>
      </trkpt>
      <trkpt lat="47.04584" lon="9.05239">
        <ele>529</ele>
        <time>2021-08-02T08:05:57.326Z</time>
      </trkpt>
      <trkpt lat="47.04585" lon="9.05239">
        <ele>529</ele>
        <time>2021-08-02T08:05:58.326Z</time>
      </trkpt>
      <trkpt lat="47.04586" lon="9.05239">
        <ele>529</ele>
        <time>2021-08-02T08:05:59.326Z</time>
      </trkpt>
      <trkpt lat="47.04587" lon="9.05239">
        <ele>528</ele>
        <time>2021-08-02T08:06:00.326Z</time>
      </trkpt>
      <trkpt lat="47.04588" lon="9.05239">
        <ele>528</ele>
        <time>2021-08-02T08:06:01.326Z</time>
      </trkpt>
      <trkpt lat="47.04589" lon="9.05239">
        <ele>528</ele>
        <time>2021-08-02T08:06:02.326Z</time>
      </trkpt>
      <trkpt lat="47.0459" lon="9.05239">
        <ele>528</ele>
        <time>2021-08-02T08:06:03.326Z</time>
      </trkpt>
      <trkpt lat="47.04591" lon="9.05239">
        <ele>528</ele>
        <time>2021-08-02T08:06:04.325Z</time>
      </trkpt>
      <trkpt lat="47.04593" lon="9.05238">
        <ele>527</ele>
        <time>2021-08-02T08:06:05.326Z</time>
      </trkpt>
      <trkpt lat="47.04594" lon="9.05238">
        <ele>526</ele>
        <time>2021-08-02T08:06:06.325Z</time>
      </trkpt>
      <trkpt lat="47.04595" lon="9.05238">
        <ele>526</ele>
        <time>2021-08-02T08:06:07.326Z</time>
      </trkpt>
      <trkpt lat="47.04596" lon="9.05238">
        <ele>526</ele>
        <time>2021-08-02T08:06:08.326Z</time>
      </trkpt>
      <trkpt lat="47.04597" lon="9.05238">
        <ele>526</ele>
        <time>2021-08-02T08:06:09.326Z</time>
      </trkpt>
      <trkpt lat="47.04599" lon="9.05238">
        <ele>525</ele>
        <time>2021-08-02T08:06:10.326Z</time>
      </trkpt>
      <trkpt lat="47.046" lon="9.05238">
        <ele>526</ele>
        <time>2021-08-02T08:06:11.326Z</time>
      </trkpt>
      <trkpt lat="47.04601" lon="9.05238">
        <ele>527</ele>
        <time>2021-08-02T08:06:12.326Z</time>
      </trkpt>
      <trkpt lat="47.04602" lon="9.05238">
        <ele>527</ele>
        <time>2021-08-02T08:06:13.326Z</time>
      </trkpt>
      <trkpt lat="47.04603" lon="9.05239">
        <ele>528</ele>
        <time>2021-08-02T08:06:14.326Z</time>
      </trkpt>
      <trkpt lat="47.04604" lon="9.05239">
        <ele>529</ele>
        <time>2021-08-02T08:06:15.326Z</time>
      </trkpt>
      <trkpt lat="47.04605" lon="9.05239">
        <ele>529</ele>
        <time>2021-08-02T08:06:16.326Z</time>
      </trkpt>
      <trkpt lat="47.04606" lon="9.05239">
        <ele>530</ele>
        <time>2021-08-02T08:06:17.325Z</time>
      </trkpt>
      <trkpt lat="47.04607" lon="9.05239">
        <ele>531</ele>
        <time>2021-08-02T08:06:18.326Z</time>
      </trkpt>
      <trkpt lat="47.04608" lon="9.05238">
        <ele>531</ele>
        <time>2021-08-02T08:06:19.326Z</time>
      </trkpt>
      <trkpt lat="47.04609" lon="9.05238">
        <ele>531</ele>
        <time>2021-08-02T08:06:20.326Z</time>
      </trkpt>
      <trkpt lat="47.0461" lon="9.05238">
        <ele>531</ele>
        <time>2021-08-02T08:06:21.325Z</time>
      </trkpt>
      <trkpt lat="47.04611" lon="9.05239">
        <ele>532</ele>
        <time>2021-08-02T08:06:22.325Z</time>
      </trkpt>
      <trkpt lat="47.04613" lon="9.05239">
        <ele>532</ele>
        <time>2021-08-02T08:06:23.325Z</time>
      </trkpt>
      <trkpt lat="47.04614" lon="9.05239">
        <ele>532</ele>
        <time>2021-08-02T08:06:24.326Z</time>
      </trkpt>
      <trkpt lat="47.04615" lon="9.05239">
        <ele>532</ele>
        <time>2021-08-02T08:06:25.326Z</time>
      </trkpt>
      <trkpt lat="47.04616" lon="9.05239">
        <ele>532</ele>
        <time>2021-08-02T08:06:26.326Z</time>
      </trkpt>
      <trkpt lat="47.04617" lon="9.05238">
        <ele>531</ele>
        <time>2021-08-02T08:06:27.325Z</time>
      </trkpt>
      <trkpt lat="47.04619" lon="9.05238">
        <ele>531</ele>
        <time>2021-08-02T08:06:28.326Z</time>
      </trkpt>
      <trkpt lat="47.0462" lon="9.05237">
        <ele>531</ele>
        <time>2021-08-02T08:06:29.325Z</time>
      </trkpt>
      <trkpt lat="47.0462" lon="9.05236">
        <ele>531</ele>
        <time>2021-08-02T08:06:30.326Z</time>
      </trkpt>
      <trkpt lat="47.04621" lon="9.05235">
        <ele>530</ele>
        <time>2021-08-02T08:06:31.326Z</time>
      </trkpt>
      <trkpt lat="47.04621" lon="9.05233">
        <ele>530</ele>
        <time>2021-08-02T08:06:32.325Z</time>
      </trkpt>
      <trkpt lat="47.04622" lon="9.05232">
        <ele>530</ele>
        <time>2021-08-02T08:06:33.326Z</time>
      </trkpt>
      <trkpt lat="47.04622" lon="9.0523">
        <ele>529</ele>
        <time>2021-08-02T08:06:34.326Z</time>
      </trkpt>
      <trkpt lat="47.04623" lon="9.05228">
        <ele>529</ele>
        <time>2021-08-02T08:06:35.325Z</time>
      </trkpt>
      <trkpt lat="47.04623" lon="9.05227">
        <ele>530</ele>
        <time>2021-08-02T08:06:36.326Z</time>
      </trkpt>
      <trkpt lat="47.04624" lon="9.05225">
        <ele>530</ele>
        <time>2021-08-02T08:06:37.326Z</time>
      </trkpt>
      <trkpt lat="47.04625" lon="9.05223">
        <ele>530</ele>
        <time>2021-08-02T08:06:38.325Z</time>
      </trkpt>
      <trkpt lat="47.04625" lon="9.05222">
        <ele>531</ele>
        <time>2021-08-02T08:06:39.325Z</time>
      </trkpt>
      <trkpt lat="47.04626" lon="9.05221">
        <ele>531</ele>
        <time>2021-08-02T08:06:40.325Z</time>
      </trkpt>
      <trkpt lat="47.04627" lon="9.05219">
        <ele>531</ele>
        <time>2021-08-02T08:06:41.325Z</time>
      </trkpt>
      <trkpt lat="47.04627" lon="9.05218">
        <ele>531</ele>
        <time>2021-08-02T08:06:42.325Z</time>
      </trkpt>
      <trkpt lat="47.04628" lon="9.05217">
        <ele>532</ele>
        <time>2021-08-02T08:06:43.325Z</time>
      </trkpt>
      <trkpt lat="47.04628" lon="9.05215">
        <ele>532</ele>
        <time>2021-08-02T08:06:44.325Z</time>
      </trkpt>
      <trkpt lat="47.04629" lon="9.05213">
        <ele>532</ele>
        <time>2021-08-02T08:06:45.325Z</time>
      </trkpt>
      <trkpt lat="47.04632" lon="9.05212">
        <ele>532</ele>
        <time>2021-08-02T08:06:46.326Z</time>
      </trkpt>
      <trkpt lat="47.04632" lon="9.05211">
        <ele>532</ele>
        <time>2021-08-02T08:06:47.326Z</time>
      </trkpt>
      <trkpt lat="47.04633" lon="9.05209">
        <ele>532</ele>
        <time>2021-08-02T08:06:48.326Z</time>
      </trkpt>
      <trkpt lat="47.04633" lon="9.05207">
        <ele>532</ele>
        <time>2021-08-02T08:06:49.326Z</time>
      </trkpt>
      <trkpt lat="47.04634" lon="9.05206">
        <ele>532</ele>
        <time>2021-08-02T08:06:50.326Z</time>
      </trkpt>
      <trkpt lat="47.04634" lon="9.05204">
        <ele>532</ele>
        <time>2021-08-02T08:06:51.325Z</time>
      </trkpt>
      <trkpt lat="47.04635" lon="9.05203">
        <ele>533</ele>
        <time>2021-08-02T08:06:52.326Z</time>
      </trkpt>
      <trkpt lat="47.04635" lon="9.05202">
        <ele>533</ele>
        <time>2021-08-02T08:06:53.326Z</time>
      </trkpt>
      <trkpt lat="47.04636" lon="9.052">
        <ele>534</ele>
        <time>2021-08-02T08:06:54.326Z</time>
      </trkpt>
      <trkpt lat="47.04636" lon="9.05199">
        <ele>534</ele>
        <time>2021-08-02T08:06:55.326Z</time>
      </trkpt>
      <trkpt lat="47.04637" lon="9.05198">
        <ele>535</ele>
        <time>2021-08-02T08:06:56.326Z</time>
      </trkpt>
      <trkpt lat="47.04638" lon="9.05196">
        <ele>536</ele>
        <time>2021-08-02T08:06:57.325Z</time>
      </trkpt>
      <trkpt lat="47.04638" lon="9.05194">
        <ele>536</ele>
        <time>2021-08-02T08:06:58.326Z</time>
      </trkpt>
      <trkpt lat="47.04639" lon="9.05192">
        <ele>537</ele>
        <time>2021-08-02T08:06:59.325Z</time>
      </trkpt>
      <trkpt lat="47.04639" lon="9.05191">
        <ele>537</ele>
        <time>2021-08-02T08:07:00.326Z</time>
      </trkpt>
      <trkpt lat="47.04639" lon="9.0519">
        <ele>537</ele>
        <time>2021-08-02T08:07:01.326Z</time>
      </trkpt>
      <trkpt lat="47.0464" lon="9.05189">
        <ele>537</ele>
        <time>2021-08-02T08:07:02.326Z</time>
      </trkpt>
      <trkpt lat="47.0464" lon="9.05188">
        <ele>536</ele>
        <time>2021-08-02T08:07:03.325Z</time>
      </trkpt>
      <trkpt lat="47.04641" lon="9.05186">
        <ele>536</ele>
        <time>2021-08-02T08:07:04.325Z</time>
      </trkpt>
      <trkpt lat="47.04641" lon="9.05185">
        <ele>536</ele>
        <time>2021-08-02T08:07:05.326Z</time>
      </trkpt>
      <trkpt lat="47.04642" lon="9.05184">
        <ele>536</ele>
        <time>2021-08-02T08:07:06.326Z</time>
      </trkpt>
      <trkpt lat="47.04642" lon="9.05183">
        <ele>536</ele>
        <time>2021-08-02T08:07:07.326Z</time>
      </trkpt>
      <trkpt lat="47.04643" lon="9.05181">
        <ele>535</ele>
        <time>2021-08-02T08:07:08.325Z</time>
      </trkpt>
      <trkpt lat="47.04643" lon="9.0518">
        <ele>535</ele>
        <time>2021-08-02T08:07:09.326Z</time>
      </trkpt>
      <trkpt lat="47.04643" lon="9.05179">
        <ele>535</ele>
        <time>2021-08-02T08:07:10.325Z</time>
      </trkpt>
      <trkpt lat="47.04643" lon="9.05177">
        <ele>535</ele>
        <time>2021-08-02T08:07:11.325Z</time>
      </trkpt>
      <trkpt lat="47.04644" lon="9.05176">
        <ele>536</ele>
        <time>2021-08-02T08:07:12.325Z</time>
      </trkpt>
      <trkpt lat="47.04644" lon="9.05175">
        <ele>536</ele>
        <time>2021-08-02T08:07:13.326Z</time>
      </trkpt>
      <trkpt lat="47.04645" lon="9.05174">
        <ele>536</ele>
        <time>2021-08-02T08:07:14.325Z</time>
      </trkpt>
      <trkpt lat="47.04645" lon="9.05173">
        <ele>536</ele>
        <time>2021-08-02T08:07:15.325Z</time>
      </trkpt>
      <trkpt lat="47.04645" lon="9.05171">
        <ele>536</ele>
        <time>2021-08-02T08:07:16.326Z</time>
      </trkpt>
      <trkpt lat="47.04646" lon="9.0517">
        <ele>536</ele>
        <time>2021-08-02T08:07:17.325Z</time>
      </trkpt>
      <trkpt lat="47.04646" lon="9.05169">
        <ele>536</ele>
        <time>2021-08-02T08:07:18.326Z</time>
      </trkpt>
      <trkpt lat="47.04647" lon="9.05168">
        <ele>536</ele>
        <time>2021-08-02T08:07:19.325Z</time>
      </trkpt>
      <trkpt lat="47.04647" lon="9.05166">
        <ele>536</ele>
        <time>2021-08-02T08:07:20.326Z</time>
      </trkpt>
      <trkpt lat="47.04648" lon="9.05165">
        <ele>536</ele>
        <time>2021-08-02T08:07:21.326Z</time>
      </trkpt>
      <trkpt lat="47.04648" lon="9.05163">
        <ele>536</ele>
        <time>2021-08-02T08:07:22.325Z</time>
      </trkpt>
      <trkpt lat="47.04649" lon="9.05163">
        <ele>536</ele>
        <time>2021-08-02T08:07:23.326Z</time>
      </trkpt>
      <trkpt lat="47.04649" lon="9.05161">
        <ele>536</ele>
        <time>2021-08-02T08:07:24.325Z</time>
      </trkpt>
      <trkpt lat="47.0465" lon="9.0516">
        <ele>536</ele>
        <time>2021-08-02T08:07:25.326Z</time>
      </trkpt>
      <trkpt lat="47.0465" lon="9.05159">
        <ele>536</ele>
        <time>2021-08-02T08:07:26.325Z</time>
      </trkpt>
      <trkpt lat="47.0465" lon="9.05157">
        <ele>536</ele>
        <time>2021-08-02T08:07:27.326Z</time>
      </trkpt>
      <trkpt lat="47.0465" lon="9.05156">
        <ele>536</ele>
        <time>2021-08-02T08:07:28.325Z</time>
      </trkpt>
      <trkpt lat="47.04651" lon="9.05155">
        <ele>536</ele>
        <time>2021-08-02T08:07:29.326Z</time>
      </trkpt>
      <trkpt lat="47.04651" lon="9.05153">
        <ele>536</ele>
        <time>2021-08-02T08:07:30.325Z</time>
      </trkpt>
      <trkpt lat="47.04651" lon="9.05152">
        <ele>536</ele>
        <time>2021-08-02T08:07:31.325Z</time>
      </trkpt>
      <trkpt lat="47.04652" lon="9.05151">
        <ele>536</ele>
        <time>2021-08-02T08:07:32.326Z</time>
      </trkpt>
      <trkpt lat="47.04652" lon="9.05151">
        <ele>536</ele>
        <time>2021-08-02T08:07:33.326Z</time>
      </trkpt>
      <trkpt lat="47.04652" lon="9.0515">
        <ele>537</ele>
        <time>2021-08-02T08:07:34.326Z</time>
      </trkpt>
      <trkpt lat="47.04653" lon="9.05149">
        <ele>537</ele>
        <time>2021-08-02T08:07:35.325Z</time>
      </trkpt>
      <trkpt lat="47.04654" lon="9.05149">
        <ele>537</ele>
        <time>2021-08-02T08:07:36.325Z</time>
      </trkpt>
      <trkpt lat="47.04654" lon="9.05149">
        <ele>538</ele>
        <time>2021-08-02T08:07:37.326Z</time>
      </trkpt>
      <trkpt lat="47.04655" lon="9.05149">
        <ele>537</ele>
        <time>2021-08-02T08:07:38.326Z</time>
      </trkpt>
      <trkpt lat="47.04656" lon="9.05149">
        <ele>537</ele>
        <time>2021-08-02T08:07:39.325Z</time>
      </trkpt>
      <trkpt lat="47.04657" lon="9.05149">
        <ele>537</ele>
        <time>2021-08-02T08:07:40.326Z</time>
      </trkpt>
      <trkpt lat="47.04659" lon="9.05149">
        <ele>537</ele>
        <time>2021-08-02T08:07:41.325Z</time>
      </trkpt>
      <trkpt lat="47.0466" lon="9.05149">
        <ele>537</ele>
        <time>2021-08-02T08:07:42.326Z</time>
      </trkpt>
      <trkpt lat="47.04661" lon="9.05149">
        <ele>537</ele>
        <time>2021-08-02T08:07:43.325Z</time>
      </trkpt>
      <trkpt lat="47.04662" lon="9.05149">
        <ele>537</ele>
        <time>2021-08-02T08:07:44.326Z</time>
      </trkpt>
      <trkpt lat="47.04663" lon="9.0515">
        <ele>537</ele>
        <time>2021-08-02T08:07:45.325Z</time>
      </trkpt>
      <trkpt lat="47.04663" lon="9.05151">
        <ele>538</ele>
        <time>2021-08-02T08:07:46.326Z</time>
      </trkpt>
      <trkpt lat="47.04664" lon="9.05153">
        <ele>538</ele>
        <time>2021-08-02T08:07:47.326Z</time>
      </trkpt>
      <trkpt lat="47.04665" lon="9.05153">
        <ele>539</ele>
        <time>2021-08-02T08:07:48.326Z</time>
      </trkpt>
      <trkpt lat="47.04666" lon="9.05154">
        <ele>539</ele>
        <time>2021-08-02T08:07:49.326Z</time>
      </trkpt>
      <trkpt lat="47.04667" lon="9.05157">
        <ele>539</ele>
        <time>2021-08-02T08:07:50.326Z</time>
      </trkpt>
      <trkpt lat="47.04668" lon="9.05157">
        <ele>539</ele>
        <time>2021-08-02T08:07:51.325Z</time>
      </trkpt>
      <trkpt lat="47.04668" lon="9.05158">
        <ele>539</ele>
        <time>2021-08-02T08:07:52.326Z</time>
      </trkpt>
      <trkpt lat="47.04669" lon="9.05158">
        <ele>539</ele>
        <time>2021-08-02T08:07:53.325Z</time>
      </trkpt>
      <trkpt lat="47.04671" lon="9.05158">
        <ele>539</ele>
        <time>2021-08-02T08:07:54.326Z</time>
      </trkpt>
      <trkpt lat="47.04672" lon="9.05158">
        <ele>540</ele>
        <time>2021-08-02T08:07:55.326Z</time>
      </trkpt>
      <trkpt lat="47.04673" lon="9.05159">
        <ele>540</ele>
        <time>2021-08-02T08:07:56.326Z</time>
      </trkpt>
      <trkpt lat="47.04674" lon="9.0516">
        <ele>540</ele>
        <time>2021-08-02T08:07:57.326Z</time>
      </trkpt>
      <trkpt lat="47.04675" lon="9.05161">
        <ele>540</ele>
        <time>2021-08-02T08:07:58.326Z</time>
      </trkpt>
      <trkpt lat="47.04677" lon="9.05162">
        <ele>540</ele>
        <time>2021-08-02T08:07:59.325Z</time>
      </trkpt>
      <trkpt lat="47.04678" lon="9.05162">
        <ele>540</ele>
        <time>2021-08-02T08:08:00.325Z</time>
      </trkpt>
      <trkpt lat="47.04679" lon="9.05163">
        <ele>541</ele>
        <time>2021-08-02T08:08:01.325Z</time>
      </trkpt>
      <trkpt lat="47.04681" lon="9.05163">
        <ele>541</ele>
        <time>2021-08-02T08:08:02.326Z</time>
      </trkpt>
      <trkpt lat="47.04683" lon="9.05163">
        <ele>541</ele>
        <time>2021-08-02T08:08:03.325Z</time>
      </trkpt>
      <trkpt lat="47.04684" lon="9.05163">
        <ele>541</ele>
        <time>2021-08-02T08:08:04.326Z</time>
      </trkpt>
      <trkpt lat="47.04685" lon="9.05163">
        <ele>541</ele>
        <time>2021-08-02T08:08:05.325Z</time>
      </trkpt>
      <trkpt lat="47.04686" lon="9.05162">
        <ele>542</ele>
        <time>2021-08-02T08:08:06.325Z</time>
      </trkpt>
      <trkpt lat="47.04687" lon="9.05162">
        <ele>542</ele>
        <time>2021-08-02T08:08:07.325Z</time>
      </trkpt>
      <trkpt lat="47.04688" lon="9.05161">
        <ele>542</ele>
        <time>2021-08-02T08:08:08.325Z</time>
      </trkpt>
      <trkpt lat="47.04689" lon="9.05161">
        <ele>543</ele>
        <time>2021-08-02T08:08:09.325Z</time>
      </trkpt>
      <trkpt lat="47.0469" lon="9.05161">
        <ele>542</ele>
        <time>2021-08-02T08:08:10.326Z</time>
      </trkpt>
      <trkpt lat="47.04691" lon="9.05161">
        <ele>542</ele>
        <time>2021-08-02T08:08:11.325Z</time>
      </trkpt>
      <trkpt lat="47.04692" lon="9.05161">
        <ele>542</ele>
        <time>2021-08-02T08:08:12.325Z</time>
      </trkpt>
      <trkpt lat="47.04693" lon="9.05161">
        <ele>542</ele>
        <time>2021-08-02T08:08:13.326Z</time>
      </trkpt>
      <trkpt lat="47.04695" lon="9.05161">
        <ele>541</ele>
        <time>2021-08-02T08:08:14.326Z</time>
      </trkpt>
      <trkpt lat="47.04696" lon="9.05161">
        <ele>541</ele>
        <time>2021-08-02T08:08:15.326Z</time>
      </trkpt>
      <trkpt lat="47.04697" lon="9.05161">
        <ele>540</ele>
        <time>2021-08-02T08:08:16.326Z</time>
      </trkpt>
      <trkpt lat="47.04698" lon="9.05161">
        <ele>540</ele>
        <time>2021-08-02T08:08:17.326Z</time>
      </trkpt>
      <trkpt lat="47.04699" lon="9.05161">
        <ele>540</ele>
        <time>2021-08-02T08:08:18.326Z</time>
      </trkpt>
      <trkpt lat="47.047" lon="9.0516">
        <ele>540</ele>
        <time>2021-08-02T08:08:19.325Z</time>
      </trkpt>
      <trkpt lat="47.04701" lon="9.0516">
        <ele>540</ele>
        <time>2021-08-02T08:08:20.326Z</time>
      </trkpt>
      <trkpt lat="47.04702" lon="9.0516">
        <ele>540</ele>
        <time>2021-08-02T08:08:21.326Z</time>
      </trkpt>
      <trkpt lat="47.04703" lon="9.0516">
        <ele>540</ele>
        <time>2021-08-02T08:08:22.326Z</time>
      </trkpt>
      <trkpt lat="47.04704" lon="9.0516">
        <ele>539</ele>
        <time>2021-08-02T08:08:23.326Z</time>
      </trkpt>
      <trkpt lat="47.04705" lon="9.05161">
        <ele>539</ele>
        <time>2021-08-02T08:08:24.326Z</time>
      </trkpt>
      <trkpt lat="47.04706" lon="9.0516">
        <ele>538</ele>
        <time>2021-08-02T08:08:25.326Z</time>
      </trkpt>
      <trkpt lat="47.04707" lon="9.0516">
        <ele>538</ele>
        <time>2021-08-02T08:08:26.326Z</time>
      </trkpt>
      <trkpt lat="47.04709" lon="9.0516">
        <ele>538</ele>
        <time>2021-08-02T08:08:27.325Z</time>
      </trkpt>
      <trkpt lat="47.04709" lon="9.05159">
        <ele>537</ele>
        <time>2021-08-02T08:08:28.326Z</time>
      </trkpt>
      <trkpt lat="47.04711" lon="9.05159">
        <ele>537</ele>
        <time>2021-08-02T08:08:29.326Z</time>
      </trkpt>
      <trkpt lat="47.04712" lon="9.05159">
        <ele>537</ele>
        <time>2021-08-02T08:08:30.326Z</time>
      </trkpt>
      <trkpt lat="47.04713" lon="9.05159">
        <ele>537</ele>
        <time>2021-08-02T08:08:31.325Z</time>
      </trkpt>
      <trkpt lat="47.04714" lon="9.05159">
        <ele>537</ele>
        <time>2021-08-02T08:08:32.326Z</time>
      </trkpt>
      <trkpt lat="47.04715" lon="9.05158">
        <ele>537</ele>
        <time>2021-08-02T08:08:33.326Z</time>
      </trkpt>
      <trkpt lat="47.04716" lon="9.05158">
        <ele>537</ele>
        <time>2021-08-02T08:08:34.326Z</time>
      </trkpt>
      <trkpt lat="47.04717" lon="9.05158">
        <ele>537</ele>
        <time>2021-08-02T08:08:35.326Z</time>
      </trkpt>
      <trkpt lat="47.04718" lon="9.05158">
        <ele>537</ele>
        <time>2021-08-02T08:08:36.326Z</time>
      </trkpt>
      <trkpt lat="47.04719" lon="9.05159">
        <ele>537</ele>
        <time>2021-08-02T08:08:37.326Z</time>
      </trkpt>
      <trkpt lat="47.0472" lon="9.05159">
        <ele>536</ele>
        <time>2021-08-02T08:08:38.325Z</time>
      </trkpt>
      <trkpt lat="47.04721" lon="9.05159">
        <ele>536</ele>
        <time>2021-08-02T08:08:39.326Z</time>
      </trkpt>
      <trkpt lat="47.04722" lon="9.05159">
        <ele>536</ele>
        <time>2021-08-02T08:08:40.326Z</time>
      </trkpt>
      <trkpt lat="47.04723" lon="9.0516">
        <ele>535</ele>
        <time>2021-08-02T08:08:41.325Z</time>
      </trkpt>
      <trkpt lat="47.04724" lon="9.0516">
        <ele>535</ele>
        <time>2021-08-02T08:08:42.325Z</time>
      </trkpt>
      <trkpt lat="47.04726" lon="9.0516">
        <ele>535</ele>
        <time>2021-08-02T08:08:43.326Z</time>
      </trkpt>
      <trkpt lat="47.04727" lon="9.05159">
        <ele>535</ele>
        <time>2021-08-02T08:08:44.325Z</time>
      </trkpt>
      <trkpt lat="47.04727" lon="9.05159">
        <ele>535</ele>
        <time>2021-08-02T08:08:45.326Z</time>
      </trkpt>
      <trkpt lat="47.04728" lon="9.05158">
        <ele>535</ele>
        <time>2021-08-02T08:08:46.325Z</time>
      </trkpt>
      <trkpt lat="47.04729" lon="9.05158">
        <ele>535</ele>
        <time>2021-08-02T08:08:47.325Z</time>
      </trkpt>
      <trkpt lat="47.0473" lon="9.05158">
        <ele>535</ele>
        <time>2021-08-02T08:08:48.325Z</time>
      </trkpt>
      <trkpt lat="47.04731" lon="9.05158">
        <ele>535</ele>
        <time>2021-08-02T08:08:49.326Z</time>
      </trkpt>
      <trkpt lat="47.04732" lon="9.05158">
        <ele>535</ele>
        <time>2021-08-02T08:08:50.326Z</time>
      </trkpt>
      <trkpt lat="47.04733" lon="9.05158">
        <ele>534</ele>
        <time>2021-08-02T08:08:51.326Z</time>
      </trkpt>
      <trkpt lat="47.04734" lon="9.05158">
        <ele>534</ele>
        <time>2021-08-02T08:08:52.325Z</time>
      </trkpt>
      <trkpt lat="47.04736" lon="9.05158">
        <ele>533</ele>
        <time>2021-08-02T08:08:53.325Z</time>
      </trkpt>
      <trkpt lat="47.04737" lon="9.05159">
        <ele>533</ele>
        <time>2021-08-02T08:08:54.326Z</time>
      </trkpt>
      <trkpt lat="47.04738" lon="9.05159">
        <ele>533</ele>
        <time>2021-08-02T08:08:55.325Z</time>
      </trkpt>
      <trkpt lat="47.04739" lon="9.05159">
        <ele>533</ele>
        <time>2021-08-02T08:08:56.326Z</time>
      </trkpt>
      <trkpt lat="47.04739" lon="9.05159">
        <ele>534</ele>
        <time>2021-08-02T08:08:57.325Z</time>
      </trkpt>
      <trkpt lat="47.0474" lon="9.05158">
        <ele>534</ele>
        <time>2021-08-02T08:08:58.326Z</time>
      </trkpt>
      <trkpt lat="47.04741" lon="9.05157">
        <ele>534</ele>
        <time>2021-08-02T08:08:59.326Z</time>
      </trkpt>
      <trkpt lat="47.04742" lon="9.05157">
        <ele>535</ele>
        <time>2021-08-02T08:09:00.325Z</time>
      </trkpt>
      <trkpt lat="47.04742" lon="9.05156">
        <ele>535</ele>
        <time>2021-08-02T08:09:01.326Z</time>
      </trkpt>
      <trkpt lat="47.04743" lon="9.05155">
        <ele>535</ele>
        <time>2021-08-02T08:09:02.325Z</time>
      </trkpt>
      <trkpt lat="47.04743" lon="9.05154">
        <ele>535</ele>
        <time>2021-08-02T08:09:03.326Z</time>
      </trkpt>
      <trkpt lat="47.04744" lon="9.05153">
        <ele>535</ele>
        <time>2021-08-02T08:09:04.326Z</time>
      </trkpt>
      <trkpt lat="47.04745" lon="9.05153">
        <ele>535</ele>
        <time>2021-08-02T08:09:05.325Z</time>
      </trkpt>
      <trkpt lat="47.04745" lon="9.05152">
        <ele>535</ele>
        <time>2021-08-02T08:09:06.326Z</time>
      </trkpt>
      <trkpt lat="47.04746" lon="9.05152">
        <ele>535</ele>
        <time>2021-08-02T08:09:07.326Z</time>
      </trkpt>
      <trkpt lat="47.04747" lon="9.05152">
        <ele>535</ele>
        <time>2021-08-02T08:09:08.326Z</time>
      </trkpt>
      <trkpt lat="47.04749" lon="9.05151">
        <ele>535</ele>
        <time>2021-08-02T08:09:09.326Z</time>
      </trkpt>
      <trkpt lat="47.04751" lon="9.05151">
        <ele>534</ele>
        <time>2021-08-02T08:09:10.326Z</time>
      </trkpt>
      <trkpt lat="47.04752" lon="9.05151">
        <ele>534</ele>
        <time>2021-08-02T08:09:11.325Z</time>
      </trkpt>
      <trkpt lat="47.04753" lon="9.0515">
        <ele>534</ele>
        <time>2021-08-02T08:09:12.325Z</time>
      </trkpt>
      <trkpt lat="47.04753" lon="9.05149">
        <ele>534</ele>
        <time>2021-08-02T08:09:13.326Z</time>
      </trkpt>
      <trkpt lat="47.04754" lon="9.05148">
        <ele>534</ele>
        <time>2021-08-02T08:09:14.326Z</time>
      </trkpt>
      <trkpt lat="47.04755" lon="9.05147">
        <ele>534</ele>
        <time>2021-08-02T08:09:15.326Z</time>
      </trkpt>
      <trkpt lat="47.04756" lon="9.05146">
        <ele>534</ele>
        <time>2021-08-02T08:09:16.326Z</time>
      </trkpt>
      <trkpt lat="47.04757" lon="9.05146">
        <ele>534</ele>
        <time>2021-08-02T08:09:17.325Z</time>
      </trkpt>
      <trkpt lat="47.04758" lon="9.05145">
        <ele>534</ele>
        <time>2021-08-02T08:09:18.325Z</time>
      </trkpt>
      <trkpt lat="47.04759" lon="9.05145">
        <ele>534</ele>
        <time>2021-08-02T08:09:19.326Z</time>
      </trkpt>
      <trkpt lat="47.04759" lon="9.05144">
        <ele>534</ele>
        <time>2021-08-02T08:09:20.326Z</time>
      </trkpt>
      <trkpt lat="47.0476" lon="9.05144">
        <ele>534</ele>
        <time>2021-08-02T08:09:21.326Z</time>
      </trkpt>
      <trkpt lat="47.04761" lon="9.05144">
        <ele>534</ele>
        <time>2021-08-02T08:09:22.326Z</time>
      </trkpt>
      <trkpt lat="47.04762" lon="9.05143">
        <ele>534</ele>
        <time>2021-08-02T08:09:23.326Z</time>
      </trkpt>
      <trkpt lat="47.04763" lon="9.05142">
        <ele>534</ele>
        <time>2021-08-02T08:09:24.326Z</time>
      </trkpt>
      <trkpt lat="47.04763" lon="9.05141">
        <ele>534</ele>
        <time>2021-08-02T08:09:25.325Z</time>
      </trkpt>
      <trkpt lat="47.04764" lon="9.0514">
        <ele>535</ele>
        <time>2021-08-02T08:09:26.326Z</time>
      </trkpt>
      <trkpt lat="47.04764" lon="9.05139">
        <ele>535</ele>
        <time>2021-08-02T08:09:27.326Z</time>
      </trkpt>
      <trkpt lat="47.04765" lon="9.05138">
        <ele>535</ele>
        <time>2021-08-02T08:09:28.326Z</time>
      </trkpt>
      <trkpt lat="47.04766" lon="9.05137">
        <ele>535</ele>
        <time>2021-08-02T08:09:29.325Z</time>
      </trkpt>
      <trkpt lat="47.04766" lon="9.05136">
        <ele>536</ele>
        <time>2021-08-02T08:09:30.326Z</time>
      </trkpt>
      <trkpt lat="47.04766" lon="9.05135">
        <ele>536</ele>
        <time>2021-08-02T08:09:31.325Z</time>
      </trkpt>
      <trkpt lat="47.04767" lon="9.05134">
        <ele>536</ele>
        <time>2021-08-02T08:09:32.325Z</time>
      </trkpt>
      <trkpt lat="47.04768" lon="9.05133">
        <ele>537</ele>
        <time>2021-08-02T08:09:33.326Z</time>
      </trkpt>
      <trkpt lat="47.04769" lon="9.05131">
        <ele>537</ele>
        <time>2021-08-02T08:09:34.326Z</time>
      </trkpt>
      <trkpt lat="47.0477" lon="9.0513">
        <ele>538</ele>
        <time>2021-08-02T08:09:35.326Z</time>
      </trkpt>
      <trkpt lat="47.0477" lon="9.05129">
        <ele>538</ele>
        <time>2021-08-02T08:09:36.325Z</time>
      </trkpt>
      <trkpt lat="47.04771" lon="9.05127">
        <ele>538</ele>
        <time>2021-08-02T08:09:37.326Z</time>
      </trkpt>
      <trkpt lat="47.04771" lon="9.05126">
        <ele>538</ele>
        <time>2021-08-02T08:09:38.326Z</time>
      </trkpt>
      <trkpt lat="47.04772" lon="9.05125">
        <ele>539</ele>
        <time>2021-08-02T08:09:39.326Z</time>
      </trkpt>
      <trkpt lat="47.04773" lon="9.05125">
        <ele>539</ele>
        <time>2021-08-02T08:09:40.326Z</time>
      </trkpt>
      <trkpt lat="47.04774" lon="9.05124">
        <ele>540</ele>
        <time>2021-08-02T08:09:41.325Z</time>
      </trkpt>
      <trkpt lat="47.04776" lon="9.05123">
        <ele>540</ele>
        <time>2021-08-02T08:09:42.326Z</time>
      </trkpt>
      <trkpt lat="47.04778" lon="9.05123">
        <ele>541</ele>
        <time>2021-08-02T08:09:43.325Z</time>
      </trkpt>
      <trkpt lat="47.04779" lon="9.05122">
        <ele>541</ele>
        <time>2021-08-02T08:09:44.325Z</time>
      </trkpt>
      <trkpt lat="47.0478" lon="9.05122">
        <ele>541</ele>
        <time>2021-08-02T08:09:45.326Z</time>
      </trkpt>
      <trkpt lat="47.04781" lon="9.05121">
        <ele>541</ele>
        <time>2021-08-02T08:09:46.326Z</time>
      </trkpt>
      <trkpt lat="47.04782" lon="9.0512">
        <ele>542</ele>
        <time>2021-08-02T08:09:47.326Z</time>
      </trkpt>
      <trkpt lat="47.04783" lon="9.0512">
        <ele>542</ele>
        <time>2021-08-02T08:09:48.326Z</time>
      </trkpt>
      <trkpt lat="47.04784" lon="9.0512">
        <ele>542</ele>
        <time>2021-08-02T08:09:49.326Z</time>
      </trkpt>
      <trkpt lat="47.04785" lon="9.0512">
        <ele>543</ele>
        <time>2021-08-02T08:09:50.326Z</time>
      </trkpt>
      <trkpt lat="47.04786" lon="9.05119">
        <ele>542</ele>
        <time>2021-08-02T08:09:51.326Z</time>
      </trkpt>
      <trkpt lat="47.04786" lon="9.05119">
        <ele>542</ele>
        <time>2021-08-02T08:09:52.326Z</time>
      </trkpt>
      <trkpt lat="47.04787" lon="9.05119">
        <ele>542</ele>
        <time>2021-08-02T08:09:53.325Z</time>
      </trkpt>
      <trkpt lat="47.04789" lon="9.05119">
        <ele>540</ele>
        <time>2021-08-02T08:09:54.327Z</time>
      </trkpt>
      <trkpt lat="47.0479" lon="9.05119">
        <ele>539</ele>
        <time>2021-08-02T08:09:55.327Z</time>
      </trkpt>
      <trkpt lat="47.0479" lon="9.05119">
        <ele>539</ele>
        <time>2021-08-02T08:09:56.326Z</time>
      </trkpt>
      <trkpt lat="47.04789" lon="9.0512">
        <ele>538</ele>
        <time>2021-08-02T08:09:57.327Z</time>
      </trkpt>
      <trkpt lat="47.04789" lon="9.0512">
        <ele>537</ele>
        <time>2021-08-02T08:09:58.327Z</time>
      </trkpt>
      <trkpt lat="47.04789" lon="9.0512">
        <ele>536</ele>
        <time>2021-08-02T08:09:59.327Z</time>
      </trkpt>
      <trkpt lat="47.04789" lon="9.05121">
        <ele>535</ele>
        <time>2021-08-02T08:10:00.327Z</time>
      </trkpt>
      <trkpt lat="47.04789" lon="9.0512">
        <ele>533</ele>
        <time>2021-08-02T08:10:01.327Z</time>
      </trkpt>
      <trkpt lat="47.04788" lon="9.05119">
        <ele>525</ele>
        <time>2021-08-02T08:10:02.328Z</time>
      </trkpt>
      <trkpt lat="47.04787" lon="9.05119">
        <ele>525</ele>
        <time>2021-08-02T08:10:03.327Z</time>
      </trkpt>
      <trkpt lat="47.04787" lon="9.05119">
        <ele>525</ele>
        <time>2021-08-02T08:10:04.327Z</time>
      </trkpt>
      <trkpt lat="47.04787" lon="9.05118">
        <ele>526</ele>
        <time>2021-08-02T08:10:05.328Z</time>
      </trkpt>
      <trkpt lat="47.04785" lon="9.05116">
        <ele>534</ele>
        <time>2021-08-02T08:10:06.329Z</time>
      </trkpt>
      <trkpt lat="47.04786" lon="9.05114">
        <ele>540</ele>
        <time>2021-08-02T08:10:07.329Z</time>
      </trkpt>
      <trkpt lat="47.04787" lon="9.05115">
        <ele>541</ele>
        <time>2021-08-02T08:10:08.329Z</time>
      </trkpt>
      <trkpt lat="47.04789" lon="9.05114">
        <ele>541</ele>
        <time>2021-08-02T08:10:09.328Z</time>
      </trkpt>
      <trkpt lat="47.0479" lon="9.05114">
        <ele>541</ele>
        <time>2021-08-02T08:10:10.329Z</time>
      </trkpt>
      <trkpt lat="47.04792" lon="9.05114">
        <ele>541</ele>
        <time>2021-08-02T08:10:11.329Z</time>
      </trkpt>
      <trkpt lat="47.04793" lon="9.05114">
        <ele>540</ele>
        <time>2021-08-02T08:10:12.328Z</time>
      </trkpt>
      <trkpt lat="47.04795" lon="9.05113">
        <ele>540</ele>
        <time>2021-08-02T08:10:13.328Z</time>
      </trkpt>
      <trkpt lat="47.04795" lon="9.05113">
        <ele>540</ele>
        <time>2021-08-02T08:10:14.329Z</time>
      </trkpt>
      <trkpt lat="47.04796" lon="9.05112">
        <ele>540</ele>
        <time>2021-08-02T08:10:15.329Z</time>
      </trkpt>
      <trkpt lat="47.04797" lon="9.05112">
        <ele>540</ele>
        <time>2021-08-02T08:10:16.329Z</time>
      </trkpt>
      <trkpt lat="47.04799" lon="9.05111">
        <ele>540</ele>
        <time>2021-08-02T08:10:17.329Z</time>
      </trkpt>
      <trkpt lat="47.048" lon="9.05112">
        <ele>540</ele>
        <time>2021-08-02T08:10:18.329Z</time>
      </trkpt>
      <trkpt lat="47.04802" lon="9.05112">
        <ele>540</ele>
        <time>2021-08-02T08:10:19.329Z</time>
      </trkpt>
      <trkpt lat="47.04804" lon="9.05113">
        <ele>540</ele>
        <time>2021-08-02T08:10:20.329Z</time>
      </trkpt>
      <trkpt lat="47.04805" lon="9.05114">
        <ele>540</ele>
        <time>2021-08-02T08:10:21.328Z</time>
      </trkpt>
      <trkpt lat="47.04805" lon="9.05114">
        <ele>539</ele>
        <time>2021-08-02T08:10:22.329Z</time>
      </trkpt>
      <trkpt lat="47.04805" lon="9.05114">
        <ele>539</ele>
        <time>2021-08-02T08:10:23.329Z</time>
      </trkpt>
      <trkpt lat="47.04805" lon="9.05114">
        <ele>539</ele>
        <time>2021-08-02T08:10:24.329Z</time>
      </trkpt>
      <trkpt lat="47.04806" lon="9.05115">
        <ele>539</ele>
        <time>2021-08-02T08:10:25.329Z</time>
      </trkpt>
      <trkpt lat="47.04807" lon="9.05115">
        <ele>539</ele>
        <time>2021-08-02T08:10:26.329Z</time>
      </trkpt>
      <trkpt lat="47.04808" lon="9.05114">
        <ele>538</ele>
        <time>2021-08-02T08:10:27.329Z</time>
      </trkpt>
      <trkpt lat="47.0481" lon="9.05115">
        <ele>538</ele>
        <time>2021-08-02T08:10:28.329Z</time>
      </trkpt>
      <trkpt lat="47.04811" lon="9.05115">
        <ele>538</ele>
        <time>2021-08-02T08:10:29.329Z</time>
      </trkpt>
      <trkpt lat="47.04812" lon="9.05115">
        <ele>537</ele>
        <time>2021-08-02T08:10:30.329Z</time>
      </trkpt>
      <trkpt lat="47.04813" lon="9.05115">
        <ele>537</ele>
        <time>2021-08-02T08:10:31.329Z</time>
      </trkpt>
      <trkpt lat="47.04814" lon="9.05115">
        <ele>536</ele>
        <time>2021-08-02T08:10:32.328Z</time>
      </trkpt>
      <trkpt lat="47.04814" lon="9.05114">
        <ele>536</ele>
        <time>2021-08-02T08:10:33.329Z</time>
      </trkpt>
      <trkpt lat="47.04815" lon="9.05113">
        <ele>536</ele>
        <time>2021-08-02T08:10:34.329Z</time>
      </trkpt>
      <trkpt lat="47.04815" lon="9.05113">
        <ele>535</ele>
        <time>2021-08-02T08:10:35.329Z</time>
      </trkpt>
      <trkpt lat="47.04816" lon="9.05112">
        <ele>535</ele>
        <time>2021-08-02T08:10:36.329Z</time>
      </trkpt>
      <trkpt lat="47.04816" lon="9.05111">
        <ele>535</ele>
        <time>2021-08-02T08:10:37.329Z</time>
      </trkpt>
      <trkpt lat="47.04817" lon="9.0511">
        <ele>534</ele>
        <time>2021-08-02T08:10:38.328Z</time>
      </trkpt>
      <trkpt lat="47.04816" lon="9.05109">
        <ele>534</ele>
        <time>2021-08-02T08:10:39.329Z</time>
      </trkpt>
      <trkpt lat="47.04817" lon="9.05108">
        <ele>534</ele>
        <time>2021-08-02T08:10:40.329Z</time>
      </trkpt>
      <trkpt lat="47.04817" lon="9.05107">
        <ele>534</ele>
        <time>2021-08-02T08:10:41.328Z</time>
      </trkpt>
      <trkpt lat="47.04817" lon="9.05106">
        <ele>534</ele>
        <time>2021-08-02T08:10:42.329Z</time>
      </trkpt>
      <trkpt lat="47.04817" lon="9.05105">
        <ele>534</ele>
        <time>2021-08-02T08:10:43.329Z</time>
      </trkpt>
      <trkpt lat="47.04817" lon="9.05104">
        <ele>534</ele>
        <time>2021-08-02T08:10:44.329Z</time>
      </trkpt>
      <trkpt lat="47.04818" lon="9.05103">
        <ele>534</ele>
        <time>2021-08-02T08:10:45.329Z</time>
      </trkpt>
      <trkpt lat="47.04818" lon="9.05103">
        <ele>534</ele>
        <time>2021-08-02T08:10:46.329Z</time>
      </trkpt>
      <trkpt lat="47.04818" lon="9.05102">
        <ele>534</ele>
        <time>2021-08-02T08:10:47.328Z</time>
      </trkpt>
      <trkpt lat="47.04819" lon="9.05101">
        <ele>534</ele>
        <time>2021-08-02T08:10:48.329Z</time>
      </trkpt>
      <trkpt lat="47.04819" lon="9.05099">
        <ele>534</ele>
        <time>2021-08-02T08:10:49.329Z</time>
      </trkpt>
      <trkpt lat="47.0482" lon="9.05097">
        <ele>534</ele>
        <time>2021-08-02T08:10:50.329Z</time>
      </trkpt>
      <trkpt lat="47.0482" lon="9.05097">
        <ele>534</ele>
        <time>2021-08-02T08:10:51.329Z</time>
      </trkpt>
      <trkpt lat="47.0482" lon="9.05096">
        <ele>535</ele>
        <time>2021-08-02T08:10:52.329Z</time>
      </trkpt>
      <trkpt lat="47.04821" lon="9.05096">
        <ele>535</ele>
        <time>2021-08-02T08:10:53.329Z</time>
      </trkpt>
      <trkpt lat="47.0482" lon="9.05094">
        <ele>535</ele>
        <time>2021-08-02T08:10:54.329Z</time>
      </trkpt>
      <trkpt lat="47.0482" lon="9.05093">
        <ele>535</ele>
        <time>2021-08-02T08:10:55.329Z</time>
      </trkpt>
      <trkpt lat="47.0482" lon="9.05091">
        <ele>535</ele>
        <time>2021-08-02T08:10:56.328Z</time>
      </trkpt>
      <trkpt lat="47.0482" lon="9.05089">
        <ele>536</ele>
        <time>2021-08-02T08:10:57.329Z</time>
      </trkpt>
      <trkpt lat="47.0482" lon="9.05088">
        <ele>536</ele>
        <time>2021-08-02T08:10:58.328Z</time>
      </trkpt>
      <trkpt lat="47.0482" lon="9.05086">
        <ele>536</ele>
        <time>2021-08-02T08:10:59.329Z</time>
      </trkpt>
      <trkpt lat="47.0482" lon="9.05085">
        <ele>536</ele>
        <time>2021-08-02T08:11:00.329Z</time>
      </trkpt>
      <trkpt lat="47.0482" lon="9.05084">
        <ele>536</ele>
        <time>2021-08-02T08:11:01.329Z</time>
      </trkpt>
      <trkpt lat="47.0482" lon="9.05082">
        <ele>536</ele>
        <time>2021-08-02T08:11:02.329Z</time>
      </trkpt>
      <trkpt lat="47.04819" lon="9.0508">
        <ele>536</ele>
        <time>2021-08-02T08:11:03.329Z</time>
      </trkpt>
      <trkpt lat="47.04819" lon="9.05078">
        <ele>536</ele>
        <time>2021-08-02T08:11:04.329Z</time>
      </trkpt>
      <trkpt lat="47.04818" lon="9.05077">
        <ele>537</ele>
        <time>2021-08-02T08:11:05.328Z</time>
      </trkpt>
      <trkpt lat="47.04818" lon="9.05076">
        <ele>537</ele>
        <time>2021-08-02T08:11:06.329Z</time>
      </trkpt>
      <trkpt lat="47.04818" lon="9.05075">
        <ele>538</ele>
        <time>2021-08-02T08:11:07.328Z</time>
      </trkpt>
      <trkpt lat="47.04818" lon="9.05074">
        <ele>538</ele>
        <time>2021-08-02T08:11:08.329Z</time>
      </trkpt>
      <trkpt lat="47.04818" lon="9.05071">
        <ele>539</ele>
        <time>2021-08-02T08:11:09.329Z</time>
      </trkpt>
      <trkpt lat="47.04818" lon="9.05069">
        <ele>539</ele>
        <time>2021-08-02T08:11:10.329Z</time>
      </trkpt>
      <trkpt lat="47.04818" lon="9.05068">
        <ele>540</ele>
        <time>2021-08-02T08:11:11.328Z</time>
      </trkpt>
      <trkpt lat="47.04819" lon="9.05067">
        <ele>540</ele>
        <time>2021-08-02T08:11:12.329Z</time>
      </trkpt>
      <trkpt lat="47.0482" lon="9.05067">
        <ele>541</ele>
        <time>2021-08-02T08:11:13.329Z</time>
      </trkpt>
      <trkpt lat="47.04821" lon="9.05066">
        <ele>541</ele>
        <time>2021-08-02T08:11:14.329Z</time>
      </trkpt>
      <trkpt lat="47.04821" lon="9.05065">
        <ele>541</ele>
        <time>2021-08-02T08:11:15.329Z</time>
      </trkpt>
      <trkpt lat="47.04821" lon="9.05064">
        <ele>541</ele>
        <time>2021-08-02T08:11:16.328Z</time>
      </trkpt>
      <trkpt lat="47.04822" lon="9.05062">
        <ele>542</ele>
        <time>2021-08-02T08:11:17.329Z</time>
      </trkpt>
      <trkpt lat="47.04822" lon="9.0506">
        <ele>542</ele>
        <time>2021-08-02T08:11:18.329Z</time>
      </trkpt>
      <trkpt lat="47.04821" lon="9.05058">
        <ele>543</ele>
        <time>2021-08-02T08:11:19.329Z</time>
      </trkpt>
      <trkpt lat="47.04821" lon="9.05057">
        <ele>543</ele>
        <time>2021-08-02T08:11:20.329Z</time>
      </trkpt>
      <trkpt lat="47.04821" lon="9.05055">
        <ele>543</ele>
        <time>2021-08-02T08:11:21.328Z</time>
      </trkpt>
      <trkpt lat="47.04821" lon="9.05053">
        <ele>544</ele>
        <time>2021-08-02T08:11:22.329Z</time>
      </trkpt>
      <trkpt lat="47.04821" lon="9.05052">
        <ele>544</ele>
        <time>2021-08-02T08:11:23.329Z</time>
      </trkpt>
      <trkpt lat="47.04822" lon="9.0505">
        <ele>544</ele>
        <time>2021-08-02T08:11:24.329Z</time>
      </trkpt>
      <trkpt lat="47.04823" lon="9.05049">
        <ele>545</ele>
        <time>2021-08-02T08:11:25.329Z</time>
      </trkpt>
      <trkpt lat="47.04824" lon="9.05047">
        <ele>545</ele>
        <time>2021-08-02T08:11:26.328Z</time>
      </trkpt>
      <trkpt lat="47.04824" lon="9.05046">
        <ele>545</ele>
        <time>2021-08-02T08:11:27.329Z</time>
      </trkpt>
      <trkpt lat="47.04824" lon="9.05045">
        <ele>545</ele>
        <time>2021-08-02T08:11:28.328Z</time>
      </trkpt>
      <trkpt lat="47.04824" lon="9.05044">
        <ele>545</ele>
        <time>2021-08-02T08:11:29.329Z</time>
      </trkpt>
      <trkpt lat="47.04824" lon="9.05042">
        <ele>545</ele>
        <time>2021-08-02T08:11:30.329Z</time>
      </trkpt>
      <trkpt lat="47.04824" lon="9.0504">
        <ele>545</ele>
        <time>2021-08-02T08:11:31.329Z</time>
      </trkpt>
      <trkpt lat="47.04825" lon="9.05038">
        <ele>545</ele>
        <time>2021-08-02T08:11:32.329Z</time>
      </trkpt>
      <trkpt lat="47.04825" lon="9.05036">
        <ele>545</ele>
        <time>2021-08-02T08:11:33.329Z</time>
      </trkpt>
      <trkpt lat="47.04825" lon="9.05034">
        <ele>545</ele>
        <time>2021-08-02T08:11:34.329Z</time>
      </trkpt>
      <trkpt lat="47.04825" lon="9.05032">
        <ele>545</ele>
        <time>2021-08-02T08:11:35.329Z</time>
      </trkpt>
      <trkpt lat="47.04826" lon="9.0503">
        <ele>545</ele>
        <time>2021-08-02T08:11:36.328Z</time>
      </trkpt>
      <trkpt lat="47.04826" lon="9.05028">
        <ele>545</ele>
        <time>2021-08-02T08:11:37.329Z</time>
      </trkpt>
      <trkpt lat="47.04826" lon="9.05025">
        <ele>545</ele>
        <time>2021-08-02T08:11:38.329Z</time>
      </trkpt>
      <trkpt lat="47.04826" lon="9.05023">
        <ele>545</ele>
        <time>2021-08-02T08:11:39.329Z</time>
      </trkpt>
      <trkpt lat="47.04825" lon="9.05023">
        <ele>545</ele>
        <time>2021-08-02T08:11:40.329Z</time>
      </trkpt>
      <trkpt lat="47.04823" lon="9.05023">
        <ele>545</ele>
        <time>2021-08-02T08:11:41.328Z</time>
      </trkpt>
      <trkpt lat="47.0482" lon="9.05024">
        <ele>544</ele>
        <time>2021-08-02T08:11:42.329Z</time>
      </trkpt>
      <trkpt lat="47.0482" lon="9.05024">
        <ele>545</ele>
        <time>2021-08-02T08:11:43.329Z</time>
      </trkpt>
      <trkpt lat="47.0482" lon="9.05022">
        <ele>546</ele>
        <time>2021-08-02T08:11:44.329Z</time>
      </trkpt>
      <trkpt lat="47.04821" lon="9.0502">
        <ele>546</ele>
        <time>2021-08-02T08:11:45.328Z</time>
      </trkpt>
      <trkpt lat="47.04821" lon="9.05019">
        <ele>546</ele>
        <time>2021-08-02T08:11:46.329Z</time>
      </trkpt>
      <trkpt lat="47.04822" lon="9.05017">
        <ele>546</ele>
        <time>2021-08-02T08:11:47.329Z</time>
      </trkpt>
      <trkpt lat="47.04823" lon="9.05016">
        <ele>546</ele>
        <time>2021-08-02T08:11:48.328Z</time>
      </trkpt>
      <trkpt lat="47.04823" lon="9.05014">
        <ele>546</ele>
        <time>2021-08-02T08:11:49.328Z</time>
      </trkpt>
      <trkpt lat="47.04824" lon="9.05013">
        <ele>546</ele>
        <time>2021-08-02T08:11:50.328Z</time>
      </trkpt>
      <trkpt lat="47.04824" lon="9.05012">
        <ele>546</ele>
        <time>2021-08-02T08:11:51.329Z</time>
      </trkpt>
      <trkpt lat="47.04824" lon="9.05011">
        <ele>545</ele>
        <time>2021-08-02T08:11:52.329Z</time>
      </trkpt>
      <trkpt lat="47.04824" lon="9.05009">
        <ele>545</ele>
        <time>2021-08-02T08:11:53.329Z</time>
      </trkpt>
      <trkpt lat="47.04824" lon="9.05008">
        <ele>545</ele>
        <time>2021-08-02T08:11:54.329Z</time>
      </trkpt>
      <trkpt lat="47.04824" lon="9.05007">
        <ele>545</ele>
        <time>2021-08-02T08:11:55.329Z</time>
      </trkpt>
      <trkpt lat="47.04824" lon="9.05006">
        <ele>545</ele>
        <time>2021-08-02T08:11:56.329Z</time>
      </trkpt>
      <trkpt lat="47.04824" lon="9.05005">
        <ele>545</ele>
        <time>2021-08-02T08:11:57.329Z</time>
      </trkpt>
      <trkpt lat="47.04824" lon="9.05004">
        <ele>545</ele>
        <time>2021-08-02T08:11:58.329Z</time>
      </trkpt>
      <trkpt lat="47.04825" lon="9.05004">
        <ele>545</ele>
        <time>2021-08-02T08:11:59.329Z</time>
      </trkpt>
      <trkpt lat="47.04826" lon="9.05002">
        <ele>544</ele>
        <time>2021-08-02T08:12:00.329Z</time>
      </trkpt>
      <trkpt lat="47.04826" lon="9.05001">
        <ele>544</ele>
        <time>2021-08-02T08:12:01.329Z</time>
      </trkpt>
      <trkpt lat="47.04826" lon="9.04999">
        <ele>544</ele>
        <time>2021-08-02T08:12:02.328Z</time>
      </trkpt>
      <trkpt lat="47.04826" lon="9.04998">
        <ele>544</ele>
        <time>2021-08-02T08:12:03.329Z</time>
      </trkpt>
      <trkpt lat="47.04826" lon="9.04996">
        <ele>543</ele>
        <time>2021-08-02T08:12:04.329Z</time>
      </trkpt>
      <trkpt lat="47.04825" lon="9.04994">
        <ele>543</ele>
        <time>2021-08-02T08:12:05.329Z</time>
      </trkpt>
      <trkpt lat="47.04825" lon="9.04992">
        <ele>543</ele>
        <time>2021-08-02T08:12:06.328Z</time>
      </trkpt>
      <trkpt lat="47.04826" lon="9.0499">
        <ele>542</ele>
        <time>2021-08-02T08:12:07.329Z</time>
      </trkpt>
      <trkpt lat="47.04826" lon="9.04989">
        <ele>542</ele>
        <time>2021-08-02T08:12:08.328Z</time>
      </trkpt>
      <trkpt lat="47.04827" lon="9.04987">
        <ele>542</ele>
        <time>2021-08-02T08:12:09.329Z</time>
      </trkpt>
      <trkpt lat="47.04828" lon="9.04985">
        <ele>541</ele>
        <time>2021-08-02T08:12:10.329Z</time>
      </trkpt>
      <trkpt lat="47.04829" lon="9.04983">
        <ele>541</ele>
        <time>2021-08-02T08:12:11.328Z</time>
      </trkpt>
      <trkpt lat="47.04829" lon="9.04982">
        <ele>540</ele>
        <time>2021-08-02T08:12:12.329Z</time>
      </trkpt>
      <trkpt lat="47.0483" lon="9.0498">
        <ele>540</ele>
        <time>2021-08-02T08:12:13.329Z</time>
      </trkpt>
      <trkpt lat="47.0483" lon="9.04978">
        <ele>539</ele>
        <time>2021-08-02T08:12:14.329Z</time>
      </trkpt>
      <trkpt lat="47.0483" lon="9.04976">
        <ele>539</ele>
        <time>2021-08-02T08:12:15.329Z</time>
      </trkpt>
      <trkpt lat="47.0483" lon="9.04973">
        <ele>539</ele>
        <time>2021-08-02T08:12:16.329Z</time>
      </trkpt>
      <trkpt lat="47.04829" lon="9.04971">
        <ele>538</ele>
        <time>2021-08-02T08:12:17.329Z</time>
      </trkpt>
      <trkpt lat="47.04829" lon="9.04969">
        <ele>538</ele>
        <time>2021-08-02T08:12:18.329Z</time>
      </trkpt>
      <trkpt lat="47.04829" lon="9.04968">
        <ele>537</ele>
        <time>2021-08-02T08:12:19.328Z</time>
      </trkpt>
      <trkpt lat="47.0483" lon="9.04968">
        <ele>537</ele>
        <time>2021-08-02T08:12:20.328Z</time>
      </trkpt>
      <trkpt lat="47.0483" lon="9.04967">
        <ele>537</ele>
        <time>2021-08-02T08:12:21.328Z</time>
      </trkpt>
      <trkpt lat="47.0483" lon="9.04967">
        <ele>536</ele>
        <time>2021-08-02T08:12:22.329Z</time>
      </trkpt>
      <trkpt lat="47.0483" lon="9.04965">
        <ele>536</ele>
        <time>2021-08-02T08:12:23.329Z</time>
      </trkpt>
      <trkpt lat="47.0483" lon="9.04963">
        <ele>535</ele>
        <time>2021-08-02T08:12:24.328Z</time>
      </trkpt>
      <trkpt lat="47.0483" lon="9.04961">
        <ele>535</ele>
        <time>2021-08-02T08:12:25.329Z</time>
      </trkpt>
      <trkpt lat="47.0483" lon="9.04959">
        <ele>535</ele>
        <time>2021-08-02T08:12:26.328Z</time>
      </trkpt>
      <trkpt lat="47.0483" lon="9.04957">
        <ele>534</ele>
        <time>2021-08-02T08:12:27.329Z</time>
      </trkpt>
      <trkpt lat="47.0483" lon="9.04956">
        <ele>534</ele>
        <time>2021-08-02T08:12:28.329Z</time>
      </trkpt>
      <trkpt lat="47.0483" lon="9.04954">
        <ele>534</ele>
        <time>2021-08-02T08:12:29.329Z</time>
      </trkpt>
      <trkpt lat="47.0483" lon="9.04953">
        <ele>534</ele>
        <time>2021-08-02T08:12:30.328Z</time>
      </trkpt>
      <trkpt lat="47.0483" lon="9.04951">
        <ele>534</ele>
        <time>2021-08-02T08:12:31.329Z</time>
      </trkpt>
      <trkpt lat="47.0483" lon="9.04949">
        <ele>534</ele>
        <time>2021-08-02T08:12:32.328Z</time>
      </trkpt>
      <trkpt lat="47.04831" lon="9.04948">
        <ele>534</ele>
        <time>2021-08-02T08:12:33.329Z</time>
      </trkpt>
      <trkpt lat="47.04831" lon="9.04946">
        <ele>534</ele>
        <time>2021-08-02T08:12:34.328Z</time>
      </trkpt>
      <trkpt lat="47.04831" lon="9.04945">
        <ele>534</ele>
        <time>2021-08-02T08:12:35.329Z</time>
      </trkpt>
      <trkpt lat="47.04832" lon="9.04944">
        <ele>534</ele>
        <time>2021-08-02T08:12:36.329Z</time>
      </trkpt>
      <trkpt lat="47.04832" lon="9.04944">
        <ele>534</ele>
        <time>2021-08-02T08:12:37.329Z</time>
      </trkpt>
      <trkpt lat="47.04833" lon="9.04942">
        <ele>533</ele>
        <time>2021-08-02T08:12:38.329Z</time>
      </trkpt>
      <trkpt lat="47.04833" lon="9.04941">
        <ele>533</ele>
        <time>2021-08-02T08:12:39.328Z</time>
      </trkpt>
      <trkpt lat="47.04833" lon="9.0494">
        <ele>533</ele>
        <time>2021-08-02T08:12:40.328Z</time>
      </trkpt>
      <trkpt lat="47.04834" lon="9.0494">
        <ele>532</ele>
        <time>2021-08-02T08:12:41.329Z</time>
      </trkpt>
      <trkpt lat="47.04834" lon="9.0494">
        <ele>532</ele>
        <time>2021-08-02T08:12:42.328Z</time>
      </trkpt>
      <trkpt lat="47.04835" lon="9.04939">
        <ele>532</ele>
        <time>2021-08-02T08:12:43.329Z</time>
      </trkpt>
      <trkpt lat="47.04836" lon="9.04939">
        <ele>532</ele>
        <time>2021-08-02T08:12:44.329Z</time>
      </trkpt>
      <trkpt lat="47.04836" lon="9.04939">
        <ele>532</ele>
        <time>2021-08-02T08:12:45.328Z</time>
      </trkpt>
      <trkpt lat="47.04837" lon="9.04939">
        <ele>532</ele>
        <time>2021-08-02T08:12:46.328Z</time>
      </trkpt>
      <trkpt lat="47.04838" lon="9.04939">
        <ele>532</ele>
        <time>2021-08-02T08:12:47.329Z</time>
      </trkpt>
      <trkpt lat="47.04839" lon="9.04939">
        <ele>532</ele>
        <time>2021-08-02T08:12:48.329Z</time>
      </trkpt>
      <trkpt lat="47.04839" lon="9.04938">
        <ele>533</ele>
        <time>2021-08-02T08:12:49.328Z</time>
      </trkpt>
      <trkpt lat="47.0484" lon="9.04938">
        <ele>533</ele>
        <time>2021-08-02T08:12:50.329Z</time>
      </trkpt>
      <trkpt lat="47.04841" lon="9.04938">
        <ele>534</ele>
        <time>2021-08-02T08:12:51.329Z</time>
      </trkpt>
      <trkpt lat="47.04842" lon="9.04937">
        <ele>535</ele>
        <time>2021-08-02T08:12:52.329Z</time>
      </trkpt>
      <trkpt lat="47.04843" lon="9.04937">
        <ele>536</ele>
        <time>2021-08-02T08:12:53.329Z</time>
      </trkpt>
      <trkpt lat="47.04844" lon="9.04936">
        <ele>536</ele>
        <time>2021-08-02T08:12:54.328Z</time>
      </trkpt>
      <trkpt lat="47.04844" lon="9.04936">
        <ele>537</ele>
        <time>2021-08-02T08:12:55.329Z</time>
      </trkpt>
      <trkpt lat="47.04845" lon="9.04935">
        <ele>537</ele>
        <time>2021-08-02T08:12:56.328Z</time>
      </trkpt>
      <trkpt lat="47.04845" lon="9.04934">
        <ele>538</ele>
        <time>2021-08-02T08:12:57.328Z</time>
      </trkpt>
      <trkpt lat="47.04845" lon="9.04933">
        <ele>538</ele>
        <time>2021-08-02T08:12:58.329Z</time>
      </trkpt>
      <trkpt lat="47.04845" lon="9.04933">
        <ele>538</ele>
        <time>2021-08-02T08:12:59.328Z</time>
      </trkpt>
      <trkpt lat="47.04844" lon="9.04933">
        <ele>538</ele>
        <time>2021-08-02T08:13:00.329Z</time>
      </trkpt>
      <trkpt lat="47.04844" lon="9.04933">
        <ele>538</ele>
        <time>2021-08-02T08:13:01.329Z</time>
      </trkpt>
      <trkpt lat="47.04844" lon="9.04934">
        <ele>537</ele>
        <time>2021-08-02T08:13:02.328Z</time>
      </trkpt>
      <trkpt lat="47.04841" lon="9.04931">
        <ele>537</ele>
        <time>2021-08-02T08:13:03.328Z</time>
      </trkpt>
      <trkpt lat="47.0484" lon="9.04929">
        <ele>537</ele>
        <time>2021-08-02T08:13:04.328Z</time>
      </trkpt>
      <trkpt lat="47.0484" lon="9.04928">
        <ele>536</ele>
        <time>2021-08-02T08:13:05.328Z</time>
      </trkpt>
      <trkpt lat="47.0484" lon="9.04928">
        <ele>536</ele>
        <time>2021-08-02T08:13:06.328Z</time>
      </trkpt>
      <trkpt lat="47.0484" lon="9.04928">
        <ele>536</ele>
        <time>2021-08-02T08:13:07.328Z</time>
      </trkpt>
      <trkpt lat="47.04839" lon="9.04927">
        <ele>536</ele>
        <time>2021-08-02T08:13:08.329Z</time>
      </trkpt>
      <trkpt lat="47.04839" lon="9.04926">
        <ele>536</ele>
        <time>2021-08-02T08:13:09.328Z</time>
      </trkpt>
      <trkpt lat="47.04838" lon="9.04925">
        <ele>536</ele>
        <time>2021-08-02T08:13:10.328Z</time>
      </trkpt>
      <trkpt lat="47.04838" lon="9.04924">
        <ele>537</ele>
        <time>2021-08-02T08:13:11.328Z</time>
      </trkpt>
      <trkpt lat="47.04838" lon="9.04923">
        <ele>537</ele>
        <time>2021-08-02T08:13:12.328Z</time>
      </trkpt>
      <trkpt lat="47.04838" lon="9.0492">
        <ele>538</ele>
        <time>2021-08-02T08:13:13.328Z</time>
      </trkpt>
      <trkpt lat="47.04838" lon="9.04919">
        <ele>538</ele>
        <time>2021-08-02T08:13:14.328Z</time>
      </trkpt>
      <trkpt lat="47.04838" lon="9.04918">
        <ele>539</ele>
        <time>2021-08-02T08:13:15.328Z</time>
      </trkpt>
      <trkpt lat="47.04838" lon="9.04917">
        <ele>540</ele>
        <time>2021-08-02T08:13:16.328Z</time>
      </trkpt>
      <trkpt lat="47.04838" lon="9.04916">
        <ele>540</ele>
        <time>2021-08-02T08:13:17.328Z</time>
      </trkpt>
      <trkpt lat="47.04838" lon="9.04914">
        <ele>541</ele>
        <time>2021-08-02T08:13:18.329Z</time>
      </trkpt>
      <trkpt lat="47.04838" lon="9.04913">
        <ele>542</ele>
        <time>2021-08-02T08:13:19.329Z</time>
      </trkpt>
      <trkpt lat="47.04838" lon="9.04911">
        <ele>543</ele>
        <time>2021-08-02T08:13:20.329Z</time>
      </trkpt>
      <trkpt lat="47.04839" lon="9.0491">
        <ele>544</ele>
        <time>2021-08-02T08:13:21.329Z</time>
      </trkpt>
      <trkpt lat="47.04839" lon="9.04908">
        <ele>545</ele>
        <time>2021-08-02T08:13:22.328Z</time>
      </trkpt>
      <trkpt lat="47.0484" lon="9.04906">
        <ele>546</ele>
        <time>2021-08-02T08:13:23.329Z</time>
      </trkpt>
      <trkpt lat="47.0484" lon="9.04905">
        <ele>547</ele>
        <time>2021-08-02T08:13:24.329Z</time>
      </trkpt>
      <trkpt lat="47.0484" lon="9.04903">
        <ele>549</ele>
        <time>2021-08-02T08:13:25.329Z</time>
      </trkpt>
      <trkpt lat="47.04841" lon="9.04902">
        <ele>550</ele>
        <time>2021-08-02T08:13:26.328Z</time>
      </trkpt>
      <trkpt lat="47.04841" lon="9.049">
        <ele>551</ele>
        <time>2021-08-02T08:13:27.328Z</time>
      </trkpt>
      <trkpt lat="47.04842" lon="9.04899">
        <ele>552</ele>
        <time>2021-08-02T08:13:28.329Z</time>
      </trkpt>
      <trkpt lat="47.04843" lon="9.04897">
        <ele>553</ele>
        <time>2021-08-02T08:13:29.329Z</time>
      </trkpt>
      <trkpt lat="47.04844" lon="9.04895">
        <ele>554</ele>
        <time>2021-08-02T08:13:30.329Z</time>
      </trkpt>
      <trkpt lat="47.04844" lon="9.04894">
        <ele>555</ele>
        <time>2021-08-02T08:13:31.328Z</time>
      </trkpt>
      <trkpt lat="47.04844" lon="9.04892">
        <ele>556</ele>
        <time>2021-08-02T08:13:32.328Z</time>
      </trkpt>
      <trkpt lat="47.04846" lon="9.0489">
        <ele>557</ele>
        <time>2021-08-02T08:13:33.329Z</time>
      </trkpt>
      <trkpt lat="47.04846" lon="9.04889">
        <ele>558</ele>
        <time>2021-08-02T08:13:34.329Z</time>
      </trkpt>
      <trkpt lat="47.04847" lon="9.04887">
        <ele>559</ele>
        <time>2021-08-02T08:13:35.329Z</time>
      </trkpt>
      <trkpt lat="47.04847" lon="9.04885">
        <ele>560</ele>
        <time>2021-08-02T08:13:36.329Z</time>
      </trkpt>
      <trkpt lat="47.04847" lon="9.04884">
        <ele>561</ele>
        <time>2021-08-02T08:13:37.329Z</time>
      </trkpt>
      <trkpt lat="47.04847" lon="9.04882">
        <ele>562</ele>
        <time>2021-08-02T08:13:38.329Z</time>
      </trkpt>
      <trkpt lat="47.04847" lon="9.0488">
        <ele>563</ele>
        <time>2021-08-02T08:13:39.329Z</time>
      </trkpt>
      <trkpt lat="47.04846" lon="9.04879">
        <ele>563</ele>
        <time>2021-08-02T08:13:40.328Z</time>
      </trkpt>
      <trkpt lat="47.04844" lon="9.04877">
        <ele>563</ele>
        <time>2021-08-02T08:13:41.329Z</time>
      </trkpt>
      <trkpt lat="47.04843" lon="9.04875">
        <ele>562</ele>
        <time>2021-08-02T08:13:42.328Z</time>
      </trkpt>
      <trkpt lat="47.04841" lon="9.04873">
        <ele>561</ele>
        <time>2021-08-02T08:13:43.329Z</time>
      </trkpt>
      <trkpt lat="47.04841" lon="9.04872">
        <ele>560</ele>
        <time>2021-08-02T08:13:44.329Z</time>
      </trkpt>
      <trkpt lat="47.0484" lon="9.0487">
        <ele>559</ele>
        <time>2021-08-02T08:13:45.328Z</time>
      </trkpt>
      <trkpt lat="47.04839" lon="9.04868">
        <ele>558</ele>
        <time>2021-08-02T08:13:46.329Z</time>
      </trkpt>
      <trkpt lat="47.04838" lon="9.04867">
        <ele>557</ele>
        <time>2021-08-02T08:13:47.329Z</time>
      </trkpt>
      <trkpt lat="47.04837" lon="9.04865">
        <ele>556</ele>
        <time>2021-08-02T08:13:48.329Z</time>
      </trkpt>
      <trkpt lat="47.04837" lon="9.04864">
        <ele>554</ele>
        <time>2021-08-02T08:13:49.328Z</time>
      </trkpt>
      <trkpt lat="47.04837" lon="9.04862">
        <ele>553</ele>
        <time>2021-08-02T08:13:50.329Z</time>
      </trkpt>
      <trkpt lat="47.04836" lon="9.04861">
        <ele>552</ele>
        <time>2021-08-02T08:13:51.329Z</time>
      </trkpt>
      <trkpt lat="47.04835" lon="9.04859">
        <ele>551</ele>
        <time>2021-08-02T08:13:52.329Z</time>
      </trkpt>
      <trkpt lat="47.04834" lon="9.04858">
        <ele>550</ele>
        <time>2021-08-02T08:13:53.329Z</time>
      </trkpt>
      <trkpt lat="47.04833" lon="9.04857">
        <ele>549</ele>
        <time>2021-08-02T08:13:54.328Z</time>
      </trkpt>
      <trkpt lat="47.04833" lon="9.04855">
        <ele>548</ele>
        <time>2021-08-02T08:13:55.328Z</time>
      </trkpt>
      <trkpt lat="47.04833" lon="9.04854">
        <ele>547</ele>
        <time>2021-08-02T08:13:56.328Z</time>
      </trkpt>
      <trkpt lat="47.04833" lon="9.04852">
        <ele>547</ele>
        <time>2021-08-02T08:13:57.328Z</time>
      </trkpt>
      <trkpt lat="47.04832" lon="9.04851">
        <ele>546</ele>
        <time>2021-08-02T08:13:58.329Z</time>
      </trkpt>
      <trkpt lat="47.04831" lon="9.04849">
        <ele>546</ele>
        <time>2021-08-02T08:13:59.329Z</time>
      </trkpt>
      <trkpt lat="47.0483" lon="9.04847">
        <ele>546</ele>
        <time>2021-08-02T08:14:00.329Z</time>
      </trkpt>
      <trkpt lat="47.0483" lon="9.04845">
        <ele>545</ele>
        <time>2021-08-02T08:14:01.329Z</time>
      </trkpt>
      <trkpt lat="47.0483" lon="9.04843">
        <ele>545</ele>
        <time>2021-08-02T08:14:02.329Z</time>
      </trkpt>
      <trkpt lat="47.0483" lon="9.04842">
        <ele>545</ele>
        <time>2021-08-02T08:14:03.329Z</time>
      </trkpt>
      <trkpt lat="47.04829" lon="9.0484">
        <ele>544</ele>
        <time>2021-08-02T08:14:04.329Z</time>
      </trkpt>
      <trkpt lat="47.04829" lon="9.04838">
        <ele>544</ele>
        <time>2021-08-02T08:14:05.329Z</time>
      </trkpt>
      <trkpt lat="47.04828" lon="9.04837">
        <ele>543</ele>
        <time>2021-08-02T08:14:06.329Z</time>
      </trkpt>
      <trkpt lat="47.04828" lon="9.04836">
        <ele>543</ele>
        <time>2021-08-02T08:14:07.329Z</time>
      </trkpt>
      <trkpt lat="47.04827" lon="9.04834">
        <ele>542</ele>
        <time>2021-08-02T08:14:08.329Z</time>
      </trkpt>
      <trkpt lat="47.04827" lon="9.04833">
        <ele>542</ele>
        <time>2021-08-02T08:14:09.328Z</time>
      </trkpt>
      <trkpt lat="47.04827" lon="9.04831">
        <ele>542</ele>
        <time>2021-08-02T08:14:10.328Z</time>
      </trkpt>
      <trkpt lat="47.04826" lon="9.04831">
        <ele>541</ele>
        <time>2021-08-02T08:14:11.329Z</time>
      </trkpt>
      <trkpt lat="47.04826" lon="9.04831">
        <ele>541</ele>
        <time>2021-08-02T08:14:12.329Z</time>
      </trkpt>
      <trkpt lat="47.04825" lon="9.04831">
        <ele>540</ele>
        <time>2021-08-02T08:14:13.329Z</time>
      </trkpt>
      <trkpt lat="47.04825" lon="9.04831">
        <ele>536</ele>
        <time>2021-08-02T08:14:14.329Z</time>
      </trkpt>
      <trkpt lat="47.04825" lon="9.0483">
        <ele>536</ele>
        <time>2021-08-02T08:14:15.330Z</time>
      </trkpt>
      <trkpt lat="47.04826" lon="9.04829">
        <ele>536</ele>
        <time>2021-08-02T08:14:16.330Z</time>
      </trkpt>
      <trkpt lat="47.04827" lon="9.04826">
        <ele>536</ele>
        <time>2021-08-02T08:14:17.329Z</time>
      </trkpt>
      <trkpt lat="47.04828" lon="9.04825">
        <ele>536</ele>
        <time>2021-08-02T08:14:18.330Z</time>
      </trkpt>
      <trkpt lat="47.04828" lon="9.04824">
        <ele>536</ele>
        <time>2021-08-02T08:14:19.329Z</time>
      </trkpt>
      <trkpt lat="47.04828" lon="9.04823">
        <ele>536</ele>
        <time>2021-08-02T08:14:20.330Z</time>
      </trkpt>
      <trkpt lat="47.04828" lon="9.04821">
        <ele>536</ele>
        <time>2021-08-02T08:14:21.330Z</time>
      </trkpt>
      <trkpt lat="47.04828" lon="9.0482">
        <ele>535</ele>
        <time>2021-08-02T08:14:22.330Z</time>
      </trkpt>
      <trkpt lat="47.04827" lon="9.04818">
        <ele>535</ele>
        <time>2021-08-02T08:14:23.330Z</time>
      </trkpt>
      <trkpt lat="47.04826" lon="9.04817">
        <ele>534</ele>
        <time>2021-08-02T08:14:24.329Z</time>
      </trkpt>
      <trkpt lat="47.04826" lon="9.04815">
        <ele>534</ele>
        <time>2021-08-02T08:14:25.330Z</time>
      </trkpt>
      <trkpt lat="47.04826" lon="9.04814">
        <ele>533</ele>
        <time>2021-08-02T08:14:26.330Z</time>
      </trkpt>
      <trkpt lat="47.04825" lon="9.04813">
        <ele>533</ele>
        <time>2021-08-02T08:14:27.329Z</time>
      </trkpt>
      <trkpt lat="47.04825" lon="9.04812">
        <ele>533</ele>
        <time>2021-08-02T08:14:28.329Z</time>
      </trkpt>
      <trkpt lat="47.04826" lon="9.0481">
        <ele>533</ele>
        <time>2021-08-02T08:14:29.329Z</time>
      </trkpt>
      <trkpt lat="47.04826" lon="9.04808">
        <ele>533</ele>
        <time>2021-08-02T08:14:30.330Z</time>
      </trkpt>
      <trkpt lat="47.04827" lon="9.04807">
        <ele>534</ele>
        <time>2021-08-02T08:14:31.329Z</time>
      </trkpt>
      <trkpt lat="47.04827" lon="9.04805">
        <ele>534</ele>
        <time>2021-08-02T08:14:32.329Z</time>
      </trkpt>
      <trkpt lat="47.04827" lon="9.04804">
        <ele>535</ele>
        <time>2021-08-02T08:14:33.329Z</time>
      </trkpt>
      <trkpt lat="47.04827" lon="9.04803">
        <ele>535</ele>
        <time>2021-08-02T08:14:34.329Z</time>
      </trkpt>
      <trkpt lat="47.04826" lon="9.04801">
        <ele>536</ele>
        <time>2021-08-02T08:14:35.329Z</time>
      </trkpt>
      <trkpt lat="47.04825" lon="9.048">
        <ele>536</ele>
        <time>2021-08-02T08:14:36.329Z</time>
      </trkpt>
      <trkpt lat="47.04825" lon="9.04799">
        <ele>537</ele>
        <time>2021-08-02T08:14:37.329Z</time>
      </trkpt>
      <trkpt lat="47.04824" lon="9.04798">
        <ele>537</ele>
        <time>2021-08-02T08:14:38.329Z</time>
      </trkpt>
      <trkpt lat="47.04824" lon="9.04797">
        <ele>538</ele>
        <time>2021-08-02T08:14:39.329Z</time>
      </trkpt>
      <trkpt lat="47.04824" lon="9.04795">
        <ele>539</ele>
        <time>2021-08-02T08:14:40.329Z</time>
      </trkpt>
      <trkpt lat="47.04824" lon="9.04794">
        <ele>540</ele>
        <time>2021-08-02T08:14:41.330Z</time>
      </trkpt>
      <trkpt lat="47.04824" lon="9.04793">
        <ele>540</ele>
        <time>2021-08-02T08:14:42.329Z</time>
      </trkpt>
      <trkpt lat="47.04824" lon="9.04791">
        <ele>541</ele>
        <time>2021-08-02T08:14:43.330Z</time>
      </trkpt>
      <trkpt lat="47.04824" lon="9.0479">
        <ele>541</ele>
        <time>2021-08-02T08:14:44.329Z</time>
      </trkpt>
      <trkpt lat="47.04824" lon="9.04788">
        <ele>541</ele>
        <time>2021-08-02T08:14:45.329Z</time>
      </trkpt>
      <trkpt lat="47.04824" lon="9.04787">
        <ele>541</ele>
        <time>2021-08-02T08:14:46.329Z</time>
      </trkpt>
      <trkpt lat="47.04824" lon="9.04785">
        <ele>542</ele>
        <time>2021-08-02T08:14:47.329Z</time>
      </trkpt>
      <trkpt lat="47.04824" lon="9.04784">
        <ele>542</ele>
        <time>2021-08-02T08:14:48.329Z</time>
      </trkpt>
      <trkpt lat="47.04824" lon="9.04783">
        <ele>543</ele>
        <time>2021-08-02T08:14:49.329Z</time>
      </trkpt>
      <trkpt lat="47.04824" lon="9.04782">
        <ele>543</ele>
        <time>2021-08-02T08:14:50.329Z</time>
      </trkpt>
      <trkpt lat="47.04824" lon="9.04781">
        <ele>543</ele>
        <time>2021-08-02T08:14:51.329Z</time>
      </trkpt>
      <trkpt lat="47.04824" lon="9.0478">
        <ele>543</ele>
        <time>2021-08-02T08:14:52.330Z</time>
      </trkpt>
      <trkpt lat="47.04824" lon="9.04779">
        <ele>542</ele>
        <time>2021-08-02T08:14:53.330Z</time>
      </trkpt>
      <trkpt lat="47.04824" lon="9.04777">
        <ele>542</ele>
        <time>2021-08-02T08:14:54.329Z</time>
      </trkpt>
      <trkpt lat="47.04825" lon="9.04776">
        <ele>542</ele>
        <time>2021-08-02T08:14:55.330Z</time>
      </trkpt>
      <trkpt lat="47.04825" lon="9.04774">
        <ele>542</ele>
        <time>2021-08-02T08:14:56.330Z</time>
      </trkpt>
      <trkpt lat="47.04825" lon="9.04773">
        <ele>542</ele>
        <time>2021-08-02T08:14:57.330Z</time>
      </trkpt>
      <trkpt lat="47.04824" lon="9.04772">
        <ele>542</ele>
        <time>2021-08-02T08:14:58.330Z</time>
      </trkpt>
      <trkpt lat="47.04824" lon="9.04771">
        <ele>542</ele>
        <time>2021-08-02T08:14:59.329Z</time>
      </trkpt>
      <trkpt lat="47.04824" lon="9.04769">
        <ele>542</ele>
        <time>2021-08-02T08:15:00.330Z</time>
      </trkpt>
      <trkpt lat="47.04825" lon="9.04768">
        <ele>542</ele>
        <time>2021-08-02T08:15:01.330Z</time>
      </trkpt>
      <trkpt lat="47.04825" lon="9.04767">
        <ele>542</ele>
        <time>2021-08-02T08:15:02.330Z</time>
      </trkpt>
      <trkpt lat="47.04825" lon="9.04765">
        <ele>542</ele>
        <time>2021-08-02T08:15:03.330Z</time>
      </trkpt>
      <trkpt lat="47.04826" lon="9.04764">
        <ele>542</ele>
        <time>2021-08-02T08:15:04.330Z</time>
      </trkpt>
      <trkpt lat="47.04826" lon="9.04762">
        <ele>541</ele>
        <time>2021-08-02T08:15:05.329Z</time>
      </trkpt>
      <trkpt lat="47.04826" lon="9.04761">
        <ele>541</ele>
        <time>2021-08-02T08:15:06.329Z</time>
      </trkpt>
      <trkpt lat="47.04827" lon="9.0476">
        <ele>541</ele>
        <time>2021-08-02T08:15:07.329Z</time>
      </trkpt>
      <trkpt lat="47.04827" lon="9.04758">
        <ele>541</ele>
        <time>2021-08-02T08:15:08.330Z</time>
      </trkpt>
      <trkpt lat="47.04828" lon="9.04757">
        <ele>541</ele>
        <time>2021-08-02T08:15:09.330Z</time>
      </trkpt>
      <trkpt lat="47.04829" lon="9.04756">
        <ele>541</ele>
        <time>2021-08-02T08:15:10.330Z</time>
      </trkpt>
      <trkpt lat="47.04829" lon="9.04754">
        <ele>542</ele>
        <time>2021-08-02T08:15:11.330Z</time>
      </trkpt>
      <trkpt lat="47.04829" lon="9.04753">
        <ele>542</ele>
        <time>2021-08-02T08:15:12.330Z</time>
      </trkpt>
      <trkpt lat="47.04829" lon="9.04751">
        <ele>543</ele>
        <time>2021-08-02T08:15:13.329Z</time>
      </trkpt>
      <trkpt lat="47.0483" lon="9.04749">
        <ele>543</ele>
        <time>2021-08-02T08:15:14.330Z</time>
      </trkpt>
      <trkpt lat="47.0483" lon="9.04748">
        <ele>544</ele>
        <time>2021-08-02T08:15:15.330Z</time>
      </trkpt>
      <trkpt lat="47.0483" lon="9.04746">
        <ele>544</ele>
        <time>2021-08-02T08:15:16.329Z</time>
      </trkpt>
      <trkpt lat="47.0483" lon="9.04744">
        <ele>544</ele>
        <time>2021-08-02T08:15:17.330Z</time>
      </trkpt>
      <trkpt lat="47.0483" lon="9.04743">
        <ele>544</ele>
        <time>2021-08-02T08:15:18.330Z</time>
      </trkpt>
      <trkpt lat="47.0483" lon="9.04741">
        <ele>544</ele>
        <time>2021-08-02T08:15:19.330Z</time>
      </trkpt>
      <trkpt lat="47.04831" lon="9.0474">
        <ele>544</ele>
        <time>2021-08-02T08:15:20.330Z</time>
      </trkpt>
      <trkpt lat="47.04831" lon="9.04738">
        <ele>544</ele>
        <time>2021-08-02T08:15:21.330Z</time>
      </trkpt>
      <trkpt lat="47.04831" lon="9.04737">
        <ele>543</ele>
        <time>2021-08-02T08:15:22.330Z</time>
      </trkpt>
      <trkpt lat="47.0483" lon="9.04735">
        <ele>543</ele>
        <time>2021-08-02T08:15:23.330Z</time>
      </trkpt>
      <trkpt lat="47.04829" lon="9.04734">
        <ele>543</ele>
        <time>2021-08-02T08:15:24.330Z</time>
      </trkpt>
      <trkpt lat="47.04828" lon="9.04732">
        <ele>542</ele>
        <time>2021-08-02T08:15:25.329Z</time>
      </trkpt>
      <trkpt lat="47.04828" lon="9.04731">
        <ele>542</ele>
        <time>2021-08-02T08:15:26.330Z</time>
      </trkpt>
      <trkpt lat="47.04828" lon="9.04729">
        <ele>541</ele>
        <time>2021-08-02T08:15:27.329Z</time>
      </trkpt>
      <trkpt lat="47.04827" lon="9.04727">
        <ele>541</ele>
        <time>2021-08-02T08:15:28.330Z</time>
      </trkpt>
      <trkpt lat="47.04827" lon="9.04726">
        <ele>541</ele>
        <time>2021-08-02T08:15:29.329Z</time>
      </trkpt>
      <trkpt lat="47.04826" lon="9.04725">
        <ele>541</ele>
        <time>2021-08-02T08:15:30.330Z</time>
      </trkpt>
      <trkpt lat="47.04826" lon="9.04723">
        <ele>541</ele>
        <time>2021-08-02T08:15:31.330Z</time>
      </trkpt>
      <trkpt lat="47.04826" lon="9.04722">
        <ele>542</ele>
        <time>2021-08-02T08:15:32.330Z</time>
      </trkpt>
      <trkpt lat="47.04826" lon="9.04721">
        <ele>542</ele>
        <time>2021-08-02T08:15:33.330Z</time>
      </trkpt>
      <trkpt lat="47.04825" lon="9.0472">
        <ele>542</ele>
        <time>2021-08-02T08:15:34.329Z</time>
      </trkpt>
      <trkpt lat="47.04825" lon="9.04718">
        <ele>542</ele>
        <time>2021-08-02T08:15:35.330Z</time>
      </trkpt>
      <trkpt lat="47.04824" lon="9.04717">
        <ele>542</ele>
        <time>2021-08-02T08:15:36.329Z</time>
      </trkpt>
      <trkpt lat="47.04823" lon="9.04716">
        <ele>542</ele>
        <time>2021-08-02T08:15:37.330Z</time>
      </trkpt>
      <trkpt lat="47.04822" lon="9.04714">
        <ele>542</ele>
        <time>2021-08-02T08:15:38.329Z</time>
      </trkpt>
      <trkpt lat="47.04821" lon="9.04713">
        <ele>542</ele>
        <time>2021-08-02T08:15:39.329Z</time>
      </trkpt>
      <trkpt lat="47.0482" lon="9.04712">
        <ele>542</ele>
        <time>2021-08-02T08:15:40.330Z</time>
      </trkpt>
      <trkpt lat="47.0482" lon="9.0471">
        <ele>541</ele>
        <time>2021-08-02T08:15:41.330Z</time>
      </trkpt>
      <trkpt lat="47.04819" lon="9.04709">
        <ele>541</ele>
        <time>2021-08-02T08:15:42.330Z</time>
      </trkpt>
      <trkpt lat="47.04818" lon="9.04708">
        <ele>541</ele>
        <time>2021-08-02T08:15:43.329Z</time>
      </trkpt>
      <trkpt lat="47.04818" lon="9.04706">
        <ele>542</ele>
        <time>2021-08-02T08:15:44.330Z</time>
      </trkpt>
      <trkpt lat="47.04817" lon="9.04704">
        <ele>542</ele>
        <time>2021-08-02T08:15:45.330Z</time>
      </trkpt>
      <trkpt lat="47.04816" lon="9.04702">
        <ele>543</ele>
        <time>2021-08-02T08:15:46.330Z</time>
      </trkpt>
      <trkpt lat="47.04815" lon="9.04702">
        <ele>543</ele>
        <time>2021-08-02T08:15:47.330Z</time>
      </trkpt>
      <trkpt lat="47.04814" lon="9.04701">
        <ele>544</ele>
        <time>2021-08-02T08:15:48.330Z</time>
      </trkpt>
      <trkpt lat="47.04812" lon="9.04699">
        <ele>544</ele>
        <time>2021-08-02T08:15:49.329Z</time>
      </trkpt>
      <trkpt lat="47.04811" lon="9.04698">
        <ele>544</ele>
        <time>2021-08-02T08:15:50.329Z</time>
      </trkpt>
      <trkpt lat="47.0481" lon="9.04696">
        <ele>545</ele>
        <time>2021-08-02T08:15:51.330Z</time>
      </trkpt>
      <trkpt lat="47.04809" lon="9.04695">
        <ele>545</ele>
        <time>2021-08-02T08:15:52.329Z</time>
      </trkpt>
      <trkpt lat="47.04809" lon="9.04694">
        <ele>545</ele>
        <time>2021-08-02T08:15:53.330Z</time>
      </trkpt>
      <trkpt lat="47.04808" lon="9.04692">
        <ele>546</ele>
        <time>2021-08-02T08:15:54.330Z</time>
      </trkpt>
      <trkpt lat="47.04807" lon="9.04691">
        <ele>546</ele>
        <time>2021-08-02T08:15:55.330Z</time>
      </trkpt>
      <trkpt lat="47.04806" lon="9.0469">
        <ele>547</ele>
        <time>2021-08-02T08:15:56.330Z</time>
      </trkpt>
      <trkpt lat="47.04806" lon="9.04689">
        <ele>547</ele>
        <time>2021-08-02T08:15:57.330Z</time>
      </trkpt>
      <trkpt lat="47.04805" lon="9.04689">
        <ele>547</ele>
        <time>2021-08-02T08:15:58.329Z</time>
      </trkpt>
      <trkpt lat="47.04804" lon="9.04688">
        <ele>547</ele>
        <time>2021-08-02T08:15:59.330Z</time>
      </trkpt>
      <trkpt lat="47.04804" lon="9.04688">
        <ele>547</ele>
        <time>2021-08-02T08:16:00.330Z</time>
      </trkpt>
      <trkpt lat="47.04803" lon="9.04687">
        <ele>546</ele>
        <time>2021-08-02T08:16:01.330Z</time>
      </trkpt>
      <trkpt lat="47.04802" lon="9.04686">
        <ele>546</ele>
        <time>2021-08-02T08:16:02.330Z</time>
      </trkpt>
      <trkpt lat="47.04801" lon="9.04685">
        <ele>545</ele>
        <time>2021-08-02T08:16:03.330Z</time>
      </trkpt>
      <trkpt lat="47.048" lon="9.04684">
        <ele>545</ele>
        <time>2021-08-02T08:16:04.330Z</time>
      </trkpt>
      <trkpt lat="47.04799" lon="9.04683">
        <ele>544</ele>
        <time>2021-08-02T08:16:05.330Z</time>
      </trkpt>
      <trkpt lat="47.04799" lon="9.04682">
        <ele>544</ele>
        <time>2021-08-02T08:16:06.330Z</time>
      </trkpt>
      <trkpt lat="47.04798" lon="9.04681">
        <ele>544</ele>
        <time>2021-08-02T08:16:07.330Z</time>
      </trkpt>
      <trkpt lat="47.04797" lon="9.0468">
        <ele>543</ele>
        <time>2021-08-02T08:16:08.329Z</time>
      </trkpt>
      <trkpt lat="47.04796" lon="9.04679">
        <ele>543</ele>
        <time>2021-08-02T08:16:09.329Z</time>
      </trkpt>
      <trkpt lat="47.04795" lon="9.04678">
        <ele>543</ele>
        <time>2021-08-02T08:16:10.330Z</time>
      </trkpt>
      <trkpt lat="47.04795" lon="9.04677">
        <ele>542</ele>
        <time>2021-08-02T08:16:11.330Z</time>
      </trkpt>
      <trkpt lat="47.04794" lon="9.04676">
        <ele>541</ele>
        <time>2021-08-02T08:16:12.330Z</time>
      </trkpt>
      <trkpt lat="47.04794" lon="9.04676">
        <ele>541</ele>
        <time>2021-08-02T08:16:13.330Z</time>
      </trkpt>
      <trkpt lat="47.04793" lon="9.04674">
        <ele>540</ele>
        <time>2021-08-02T08:16:14.330Z</time>
      </trkpt>
      <trkpt lat="47.04792" lon="9.04673">
        <ele>540</ele>
        <time>2021-08-02T08:16:15.330Z</time>
      </trkpt>
      <trkpt lat="47.04791" lon="9.04671">
        <ele>540</ele>
        <time>2021-08-02T08:16:16.330Z</time>
      </trkpt>
      <trkpt lat="47.04791" lon="9.04669">
        <ele>540</ele>
        <time>2021-08-02T08:16:17.330Z</time>
      </trkpt>
      <trkpt lat="47.04791" lon="9.04667">
        <ele>540</ele>
        <time>2021-08-02T08:16:18.330Z</time>
      </trkpt>
      <trkpt lat="47.0479" lon="9.04666">
        <ele>541</ele>
        <time>2021-08-02T08:16:19.330Z</time>
      </trkpt>
      <trkpt lat="47.04789" lon="9.04665">
        <ele>541</ele>
        <time>2021-08-02T08:16:20.330Z</time>
      </trkpt>
      <trkpt lat="47.04789" lon="9.04664">
        <ele>542</ele>
        <time>2021-08-02T08:16:21.330Z</time>
      </trkpt>
      <trkpt lat="47.04788" lon="9.04663">
        <ele>543</ele>
        <time>2021-08-02T08:16:22.330Z</time>
      </trkpt>
      <trkpt lat="47.04787" lon="9.04661">
        <ele>543</ele>
        <time>2021-08-02T08:16:23.330Z</time>
      </trkpt>
      <trkpt lat="47.04786" lon="9.0466">
        <ele>543</ele>
        <time>2021-08-02T08:16:24.330Z</time>
      </trkpt>
      <trkpt lat="47.04786" lon="9.04659">
        <ele>544</ele>
        <time>2021-08-02T08:16:25.330Z</time>
      </trkpt>
      <trkpt lat="47.04785" lon="9.04657">
        <ele>544</ele>
        <time>2021-08-02T08:16:26.330Z</time>
      </trkpt>
      <trkpt lat="47.04783" lon="9.04656">
        <ele>544</ele>
        <time>2021-08-02T08:16:27.329Z</time>
      </trkpt>
      <trkpt lat="47.04783" lon="9.04654">
        <ele>544</ele>
        <time>2021-08-02T08:16:28.330Z</time>
      </trkpt>
      <trkpt lat="47.04782" lon="9.04653">
        <ele>544</ele>
        <time>2021-08-02T08:16:29.330Z</time>
      </trkpt>
      <trkpt lat="47.04782" lon="9.04652">
        <ele>545</ele>
        <time>2021-08-02T08:16:30.330Z</time>
      </trkpt>
      <trkpt lat="47.04781" lon="9.04651">
        <ele>544</ele>
        <time>2021-08-02T08:16:31.329Z</time>
      </trkpt>
      <trkpt lat="47.0478" lon="9.04651">
        <ele>545</ele>
        <time>2021-08-02T08:16:32.330Z</time>
      </trkpt>
      <trkpt lat="47.04779" lon="9.0465">
        <ele>545</ele>
        <time>2021-08-02T08:16:33.329Z</time>
      </trkpt>
      <trkpt lat="47.04779" lon="9.04649">
        <ele>545</ele>
        <time>2021-08-02T08:16:34.330Z</time>
      </trkpt>
      <trkpt lat="47.04779" lon="9.04648">
        <ele>545</ele>
        <time>2021-08-02T08:16:35.330Z</time>
      </trkpt>
      <trkpt lat="47.04778" lon="9.04648">
        <ele>545</ele>
        <time>2021-08-02T08:16:36.330Z</time>
      </trkpt>
      <trkpt lat="47.04778" lon="9.04647">
        <ele>545</ele>
        <time>2021-08-02T08:16:37.330Z</time>
      </trkpt>
      <trkpt lat="47.04778" lon="9.04646">
        <ele>545</ele>
        <time>2021-08-02T08:16:38.329Z</time>
      </trkpt>
      <trkpt lat="47.04777" lon="9.04644">
        <ele>545</ele>
        <time>2021-08-02T08:16:39.330Z</time>
      </trkpt>
      <trkpt lat="47.04777" lon="9.04643">
        <ele>546</ele>
        <time>2021-08-02T08:16:40.330Z</time>
      </trkpt>
      <trkpt lat="47.04776" lon="9.04641">
        <ele>546</ele>
        <time>2021-08-02T08:16:41.329Z</time>
      </trkpt>
      <trkpt lat="47.04775" lon="9.04639">
        <ele>547</ele>
        <time>2021-08-02T08:16:42.330Z</time>
      </trkpt>
      <trkpt lat="47.04774" lon="9.04638">
        <ele>547</ele>
        <time>2021-08-02T08:16:43.330Z</time>
      </trkpt>
      <trkpt lat="47.04773" lon="9.04638">
        <ele>547</ele>
        <time>2021-08-02T08:16:44.329Z</time>
      </trkpt>
      <trkpt lat="47.04773" lon="9.04637">
        <ele>548</ele>
        <time>2021-08-02T08:16:45.330Z</time>
      </trkpt>
      <trkpt lat="47.04773" lon="9.04635">
        <ele>548</ele>
        <time>2021-08-02T08:16:46.330Z</time>
      </trkpt>
      <trkpt lat="47.04773" lon="9.04633">
        <ele>548</ele>
        <time>2021-08-02T08:16:47.330Z</time>
      </trkpt>
      <trkpt lat="47.04773" lon="9.04632">
        <ele>548</ele>
        <time>2021-08-02T08:16:48.329Z</time>
      </trkpt>
      <trkpt lat="47.04773" lon="9.04631">
        <ele>548</ele>
        <time>2021-08-02T08:16:49.330Z</time>
      </trkpt>
      <trkpt lat="47.04773" lon="9.04629">
        <ele>549</ele>
        <time>2021-08-02T08:16:50.330Z</time>
      </trkpt>
      <trkpt lat="47.04773" lon="9.04627">
        <ele>549</ele>
        <time>2021-08-02T08:16:51.329Z</time>
      </trkpt>
      <trkpt lat="47.04774" lon="9.04627">
        <ele>549</ele>
        <time>2021-08-02T08:16:52.329Z</time>
      </trkpt>
      <trkpt lat="47.04774" lon="9.04625">
        <ele>549</ele>
        <time>2021-08-02T08:16:53.330Z</time>
      </trkpt>
      <trkpt lat="47.04773" lon="9.04623">
        <ele>549</ele>
        <time>2021-08-02T08:16:54.330Z</time>
      </trkpt>
      <trkpt lat="47.04773" lon="9.04621">
        <ele>550</ele>
        <time>2021-08-02T08:16:55.330Z</time>
      </trkpt>
      <trkpt lat="47.04774" lon="9.04619">
        <ele>550</ele>
        <time>2021-08-02T08:16:56.330Z</time>
      </trkpt>
      <trkpt lat="47.04773" lon="9.04618">
        <ele>551</ele>
        <time>2021-08-02T08:16:57.329Z</time>
      </trkpt>
      <trkpt lat="47.04773" lon="9.04617">
        <ele>552</ele>
        <time>2021-08-02T08:16:58.330Z</time>
      </trkpt>
      <trkpt lat="47.04773" lon="9.04615">
        <ele>553</ele>
        <time>2021-08-02T08:16:59.329Z</time>
      </trkpt>
      <trkpt lat="47.04774" lon="9.04614">
        <ele>554</ele>
        <time>2021-08-02T08:17:00.330Z</time>
      </trkpt>
      <trkpt lat="47.04774" lon="9.04613">
        <ele>556</ele>
        <time>2021-08-02T08:17:01.330Z</time>
      </trkpt>
      <trkpt lat="47.04774" lon="9.04611">
        <ele>557</ele>
        <time>2021-08-02T08:17:02.330Z</time>
      </trkpt>
      <trkpt lat="47.04774" lon="9.04609">
        <ele>558</ele>
        <time>2021-08-02T08:17:03.329Z</time>
      </trkpt>
      <trkpt lat="47.04772" lon="9.04608">
        <ele>559</ele>
        <time>2021-08-02T08:17:04.329Z</time>
      </trkpt>
      <trkpt lat="47.04771" lon="9.04606">
        <ele>559</ele>
        <time>2021-08-02T08:17:05.329Z</time>
      </trkpt>
      <trkpt lat="47.0477" lon="9.04605">
        <ele>560</ele>
        <time>2021-08-02T08:17:06.330Z</time>
      </trkpt>
      <trkpt lat="47.04769" lon="9.04603">
        <ele>560</ele>
        <time>2021-08-02T08:17:07.329Z</time>
      </trkpt>
      <trkpt lat="47.0477" lon="9.04602">
        <ele>561</ele>
        <time>2021-08-02T08:17:08.330Z</time>
      </trkpt>
      <trkpt lat="47.0477" lon="9.046">
        <ele>561</ele>
        <time>2021-08-02T08:17:09.329Z</time>
      </trkpt>
      <trkpt lat="47.0477" lon="9.04599">
        <ele>562</ele>
        <time>2021-08-02T08:17:10.330Z</time>
      </trkpt>
      <trkpt lat="47.0477" lon="9.04598">
        <ele>563</ele>
        <time>2021-08-02T08:17:11.329Z</time>
      </trkpt>
      <trkpt lat="47.0477" lon="9.04597">
        <ele>564</ele>
        <time>2021-08-02T08:17:12.330Z</time>
      </trkpt>
      <trkpt lat="47.04769" lon="9.04596">
        <ele>564</ele>
        <time>2021-08-02T08:17:13.330Z</time>
      </trkpt>
      <trkpt lat="47.04769" lon="9.04596">
        <ele>565</ele>
        <time>2021-08-02T08:17:14.330Z</time>
      </trkpt>
      <trkpt lat="47.04768" lon="9.04595">
        <ele>566</ele>
        <time>2021-08-02T08:17:15.330Z</time>
      </trkpt>
      <trkpt lat="47.04768" lon="9.04595">
        <ele>566</ele>
        <time>2021-08-02T08:17:16.329Z</time>
      </trkpt>
      <trkpt lat="47.04768" lon="9.04594">
        <ele>567</ele>
        <time>2021-08-02T08:17:17.329Z</time>
      </trkpt>
      <trkpt lat="47.04768" lon="9.04592">
        <ele>567</ele>
        <time>2021-08-02T08:17:18.329Z</time>
      </trkpt>
      <trkpt lat="47.04768" lon="9.04591">
        <ele>568</ele>
        <time>2021-08-02T08:17:19.329Z</time>
      </trkpt>
      <trkpt lat="47.04768" lon="9.0459">
        <ele>568</ele>
        <time>2021-08-02T08:17:20.330Z</time>
      </trkpt>
      <trkpt lat="47.04768" lon="9.04589">
        <ele>569</ele>
        <time>2021-08-02T08:17:21.329Z</time>
      </trkpt>
      <trkpt lat="47.04769" lon="9.04588">
        <ele>569</ele>
        <time>2021-08-02T08:17:22.330Z</time>
      </trkpt>
      <trkpt lat="47.0477" lon="9.04587">
        <ele>570</ele>
        <time>2021-08-02T08:17:23.330Z</time>
      </trkpt>
      <trkpt lat="47.0477" lon="9.04586">
        <ele>570</ele>
        <time>2021-08-02T08:17:24.329Z</time>
      </trkpt>
      <trkpt lat="47.04771" lon="9.04584">
        <ele>570</ele>
        <time>2021-08-02T08:17:25.330Z</time>
      </trkpt>
      <trkpt lat="47.04771" lon="9.04583">
        <ele>570</ele>
        <time>2021-08-02T08:17:26.330Z</time>
      </trkpt>
      <trkpt lat="47.04771" lon="9.04581">
        <ele>571</ele>
        <time>2021-08-02T08:17:27.329Z</time>
      </trkpt>
      <trkpt lat="47.04771" lon="9.0458">
        <ele>571</ele>
        <time>2021-08-02T08:17:28.330Z</time>
      </trkpt>
      <trkpt lat="47.04771" lon="9.04579">
        <ele>571</ele>
        <time>2021-08-02T08:17:29.329Z</time>
      </trkpt>
      <trkpt lat="47.04772" lon="9.04576">
        <ele>572</ele>
        <time>2021-08-02T08:17:30.329Z</time>
      </trkpt>
      <trkpt lat="47.04772" lon="9.04575">
        <ele>571</ele>
        <time>2021-08-02T08:17:31.329Z</time>
      </trkpt>
      <trkpt lat="47.04773" lon="9.04574">
        <ele>571</ele>
        <time>2021-08-02T08:17:32.330Z</time>
      </trkpt>
      <trkpt lat="47.04774" lon="9.04572">
        <ele>571</ele>
        <time>2021-08-02T08:17:33.329Z</time>
      </trkpt>
      <trkpt lat="47.04774" lon="9.0457">
        <ele>571</ele>
        <time>2021-08-02T08:17:34.329Z</time>
      </trkpt>
      <trkpt lat="47.04774" lon="9.04568">
        <ele>571</ele>
        <time>2021-08-02T08:17:35.330Z</time>
      </trkpt>
      <trkpt lat="47.04774" lon="9.04567">
        <ele>571</ele>
        <time>2021-08-02T08:17:36.330Z</time>
      </trkpt>
      <trkpt lat="47.04774" lon="9.04566">
        <ele>571</ele>
        <time>2021-08-02T08:17:37.330Z</time>
      </trkpt>
      <trkpt lat="47.04773" lon="9.04565">
        <ele>571</ele>
        <time>2021-08-02T08:17:38.329Z</time>
      </trkpt>
      <trkpt lat="47.04772" lon="9.04564">
        <ele>571</ele>
        <time>2021-08-02T08:17:39.329Z</time>
      </trkpt>
      <trkpt lat="47.04772" lon="9.04563">
        <ele>572</ele>
        <time>2021-08-02T08:17:40.329Z</time>
      </trkpt>
      <trkpt lat="47.04772" lon="9.04562">
        <ele>572</ele>
        <time>2021-08-02T08:17:41.330Z</time>
      </trkpt>
      <trkpt lat="47.04772" lon="9.04561">
        <ele>572</ele>
        <time>2021-08-02T08:17:42.330Z</time>
      </trkpt>
      <trkpt lat="47.04772" lon="9.0456">
        <ele>572</ele>
        <time>2021-08-02T08:17:43.330Z</time>
      </trkpt>
      <trkpt lat="47.04772" lon="9.04559">
        <ele>572</ele>
        <time>2021-08-02T08:17:44.330Z</time>
      </trkpt>
      <trkpt lat="47.04771" lon="9.04558">
        <ele>572</ele>
        <time>2021-08-02T08:17:45.330Z</time>
      </trkpt>
      <trkpt lat="47.0477" lon="9.04556">
        <ele>572</ele>
        <time>2021-08-02T08:17:46.330Z</time>
      </trkpt>
      <trkpt lat="47.04769" lon="9.04555">
        <ele>572</ele>
        <time>2021-08-02T08:17:47.330Z</time>
      </trkpt>
      <trkpt lat="47.04769" lon="9.04554">
        <ele>572</ele>
        <time>2021-08-02T08:17:48.330Z</time>
      </trkpt>
      <trkpt lat="47.04769" lon="9.04553">
        <ele>572</ele>
        <time>2021-08-02T08:17:49.330Z</time>
      </trkpt>
      <trkpt lat="47.04769" lon="9.04552">
        <ele>572</ele>
        <time>2021-08-02T08:17:50.330Z</time>
      </trkpt>
      <trkpt lat="47.04769" lon="9.04551">
        <ele>572</ele>
        <time>2021-08-02T08:17:51.329Z</time>
      </trkpt>
      <trkpt lat="47.04769" lon="9.04551">
        <ele>572</ele>
        <time>2021-08-02T08:17:52.330Z</time>
      </trkpt>
      <trkpt lat="47.04769" lon="9.04549">
        <ele>571</ele>
        <time>2021-08-02T08:17:53.330Z</time>
      </trkpt>
      <trkpt lat="47.04768" lon="9.04548">
        <ele>571</ele>
        <time>2021-08-02T08:17:54.330Z</time>
      </trkpt>
      <trkpt lat="47.04769" lon="9.04547">
        <ele>571</ele>
        <time>2021-08-02T08:17:55.330Z</time>
      </trkpt>
      <trkpt lat="47.04769" lon="9.04546">
        <ele>571</ele>
        <time>2021-08-02T08:17:56.330Z</time>
      </trkpt>
      <trkpt lat="47.0477" lon="9.04545">
        <ele>570</ele>
        <time>2021-08-02T08:17:57.330Z</time>
      </trkpt>
      <trkpt lat="47.0477" lon="9.04543">
        <ele>570</ele>
        <time>2021-08-02T08:17:58.330Z</time>
      </trkpt>
      <trkpt lat="47.0477" lon="9.04541">
        <ele>570</ele>
        <time>2021-08-02T08:17:59.330Z</time>
      </trkpt>
      <trkpt lat="47.04771" lon="9.04539">
        <ele>569</ele>
        <time>2021-08-02T08:18:00.330Z</time>
      </trkpt>
      <trkpt lat="47.04771" lon="9.04538">
        <ele>569</ele>
        <time>2021-08-02T08:18:01.329Z</time>
      </trkpt>
      <trkpt lat="47.04772" lon="9.04537">
        <ele>569</ele>
        <time>2021-08-02T08:18:02.330Z</time>
      </trkpt>
      <trkpt lat="47.04772" lon="9.04536">
        <ele>568</ele>
        <time>2021-08-02T08:18:03.330Z</time>
      </trkpt>
      <trkpt lat="47.04772" lon="9.04534">
        <ele>568</ele>
        <time>2021-08-02T08:18:04.330Z</time>
      </trkpt>
      <trkpt lat="47.04772" lon="9.04532">
        <ele>568</ele>
        <time>2021-08-02T08:18:05.330Z</time>
      </trkpt>
      <trkpt lat="47.04773" lon="9.0453">
        <ele>568</ele>
        <time>2021-08-02T08:18:06.330Z</time>
      </trkpt>
      <trkpt lat="47.04773" lon="9.04528">
        <ele>567</ele>
        <time>2021-08-02T08:18:07.330Z</time>
      </trkpt>
      <trkpt lat="47.04774" lon="9.04527">
        <ele>567</ele>
        <time>2021-08-02T08:18:08.330Z</time>
      </trkpt>
      <trkpt lat="47.04775" lon="9.04524">
        <ele>567</ele>
        <time>2021-08-02T08:18:09.329Z</time>
      </trkpt>
      <trkpt lat="47.04775" lon="9.04523">
        <ele>567</ele>
        <time>2021-08-02T08:18:10.329Z</time>
      </trkpt>
      <trkpt lat="47.04775" lon="9.04521">
        <ele>567</ele>
        <time>2021-08-02T08:18:11.329Z</time>
      </trkpt>
      <trkpt lat="47.04774" lon="9.0452">
        <ele>567</ele>
        <time>2021-08-02T08:18:12.330Z</time>
      </trkpt>
      <trkpt lat="47.04774" lon="9.04519">
        <ele>567</ele>
        <time>2021-08-02T08:18:13.330Z</time>
      </trkpt>
      <trkpt lat="47.04774" lon="9.04517">
        <ele>567</ele>
        <time>2021-08-02T08:18:14.330Z</time>
      </trkpt>
      <trkpt lat="47.04774" lon="9.04516">
        <ele>567</ele>
        <time>2021-08-02T08:18:15.330Z</time>
      </trkpt>
      <trkpt lat="47.04774" lon="9.04515">
        <ele>567</ele>
        <time>2021-08-02T08:18:16.329Z</time>
      </trkpt>
      <trkpt lat="47.04774" lon="9.04514">
        <ele>567</ele>
        <time>2021-08-02T08:18:17.330Z</time>
      </trkpt>
      <trkpt lat="47.04774" lon="9.04513">
        <ele>567</ele>
        <time>2021-08-02T08:18:18.330Z</time>
      </trkpt>
      <trkpt lat="47.04774" lon="9.04513">
        <ele>567</ele>
        <time>2021-08-02T08:18:19.329Z</time>
      </trkpt>
      <trkpt lat="47.04773" lon="9.04513">
        <ele>567</ele>
        <time>2021-08-02T08:18:20.330Z</time>
      </trkpt>
      <trkpt lat="47.04771" lon="9.04514">
        <ele>568</ele>
        <time>2021-08-02T08:18:21.329Z</time>
      </trkpt>
      <trkpt lat="47.0477" lon="9.04513">
        <ele>568</ele>
        <time>2021-08-02T08:18:22.329Z</time>
      </trkpt>
      <trkpt lat="47.0477" lon="9.04512">
        <ele>569</ele>
        <time>2021-08-02T08:18:23.330Z</time>
      </trkpt>
      <trkpt lat="47.0477" lon="9.04511">
        <ele>569</ele>
        <time>2021-08-02T08:18:24.330Z</time>
      </trkpt>
      <trkpt lat="47.0477" lon="9.0451">
        <ele>569</ele>
        <time>2021-08-02T08:18:25.330Z</time>
      </trkpt>
      <trkpt lat="47.04769" lon="9.04509">
        <ele>569</ele>
        <time>2021-08-02T08:18:26.330Z</time>
      </trkpt>
      <trkpt lat="47.04769" lon="9.04508">
        <ele>570</ele>
        <time>2021-08-02T08:18:27.330Z</time>
      </trkpt>
      <trkpt lat="47.04769" lon="9.04508">
        <ele>570</ele>
        <time>2021-08-02T08:18:28.330Z</time>
      </trkpt>
      <trkpt lat="47.04769" lon="9.04507">
        <ele>570</ele>
        <time>2021-08-02T08:18:29.330Z</time>
      </trkpt>
      <trkpt lat="47.04768" lon="9.04506">
        <ele>571</ele>
        <time>2021-08-02T08:18:30.329Z</time>
      </trkpt>
      <trkpt lat="47.04768" lon="9.04505">
        <ele>571</ele>
        <time>2021-08-02T08:18:31.330Z</time>
      </trkpt>
      <trkpt lat="47.04768" lon="9.04505">
        <ele>572</ele>
        <time>2021-08-02T08:18:32.330Z</time>
      </trkpt>
      <trkpt lat="47.04767" lon="9.04503">
        <ele>572</ele>
        <time>2021-08-02T08:18:33.329Z</time>
      </trkpt>
      <trkpt lat="47.04767" lon="9.04502">
        <ele>573</ele>
        <time>2021-08-02T08:18:34.330Z</time>
      </trkpt>
      <trkpt lat="47.04767" lon="9.04501">
        <ele>574</ele>
        <time>2021-08-02T08:18:35.330Z</time>
      </trkpt>
      <trkpt lat="47.04767" lon="9.045">
        <ele>574</ele>
        <time>2021-08-02T08:18:36.330Z</time>
      </trkpt>
      <trkpt lat="47.04766" lon="9.045">
        <ele>575</ele>
        <time>2021-08-02T08:18:37.330Z</time>
      </trkpt>
      <trkpt lat="47.04766" lon="9.045">
        <ele>576</ele>
        <time>2021-08-02T08:18:38.330Z</time>
      </trkpt>
      <trkpt lat="47.04766" lon="9.04499">
        <ele>576</ele>
        <time>2021-08-02T08:18:39.330Z</time>
      </trkpt>
      <trkpt lat="47.04767" lon="9.04498">
        <ele>576</ele>
        <time>2021-08-02T08:18:40.329Z</time>
      </trkpt>
      <trkpt lat="47.04767" lon="9.04499">
        <ele>576</ele>
        <time>2021-08-02T08:18:41.329Z</time>
      </trkpt>
      <trkpt lat="47.04767" lon="9.045">
        <ele>576</ele>
        <time>2021-08-02T08:18:42.330Z</time>
      </trkpt>
      <trkpt lat="47.04766" lon="9.04496">
        <ele>577</ele>
        <time>2021-08-02T08:18:43.330Z</time>
      </trkpt>
      <trkpt lat="47.04766" lon="9.04495">
        <ele>577</ele>
        <time>2021-08-02T08:18:44.330Z</time>
      </trkpt>
      <trkpt lat="47.04766" lon="9.04494">
        <ele>577</ele>
        <time>2021-08-02T08:18:45.329Z</time>
      </trkpt>
      <trkpt lat="47.04766" lon="9.04494">
        <ele>577</ele>
        <time>2021-08-02T08:18:46.329Z</time>
      </trkpt>
      <trkpt lat="47.04766" lon="9.04493">
        <ele>577</ele>
        <time>2021-08-02T08:18:47.329Z</time>
      </trkpt>
      <trkpt lat="47.04766" lon="9.04492">
        <ele>577</ele>
        <time>2021-08-02T08:18:48.329Z</time>
      </trkpt>
      <trkpt lat="47.04766" lon="9.04492">
        <ele>577</ele>
        <time>2021-08-02T08:18:49.329Z</time>
      </trkpt>
      <trkpt lat="47.04766" lon="9.04491">
        <ele>577</ele>
        <time>2021-08-02T08:18:50.330Z</time>
      </trkpt>
      <trkpt lat="47.04765" lon="9.04491">
        <ele>577</ele>
        <time>2021-08-02T08:18:51.329Z</time>
      </trkpt>
      <trkpt lat="47.04765" lon="9.0449">
        <ele>577</ele>
        <time>2021-08-02T08:18:52.329Z</time>
      </trkpt>
      <trkpt lat="47.04764" lon="9.04489">
        <ele>576</ele>
        <time>2021-08-02T08:18:53.329Z</time>
      </trkpt>
      <trkpt lat="47.04764" lon="9.04488">
        <ele>576</ele>
        <time>2021-08-02T08:18:54.329Z</time>
      </trkpt>
      <trkpt lat="47.04765" lon="9.04486">
        <ele>575</ele>
        <time>2021-08-02T08:18:55.330Z</time>
      </trkpt>
      <trkpt lat="47.04765" lon="9.04485">
        <ele>575</ele>
        <time>2021-08-02T08:18:56.329Z</time>
      </trkpt>
      <trkpt lat="47.04765" lon="9.04482">
        <ele>575</ele>
        <time>2021-08-02T08:18:57.330Z</time>
      </trkpt>
      <trkpt lat="47.04765" lon="9.0448">
        <ele>574</ele>
        <time>2021-08-02T08:18:58.330Z</time>
      </trkpt>
      <trkpt lat="47.04765" lon="9.04478">
        <ele>574</ele>
        <time>2021-08-02T08:18:59.329Z</time>
      </trkpt>
      <trkpt lat="47.04765" lon="9.04476">
        <ele>573</ele>
        <time>2021-08-02T08:19:00.330Z</time>
      </trkpt>
      <trkpt lat="47.04765" lon="9.04474">
        <ele>572</ele>
        <time>2021-08-02T08:19:01.329Z</time>
      </trkpt>
      <trkpt lat="47.04765" lon="9.04473">
        <ele>571</ele>
        <time>2021-08-02T08:19:02.330Z</time>
      </trkpt>
      <trkpt lat="47.04764" lon="9.04471">
        <ele>570</ele>
        <time>2021-08-02T08:19:03.330Z</time>
      </trkpt>
      <trkpt lat="47.04764" lon="9.04469">
        <ele>570</ele>
        <time>2021-08-02T08:19:04.329Z</time>
      </trkpt>
      <trkpt lat="47.04763" lon="9.04468">
        <ele>569</ele>
        <time>2021-08-02T08:19:05.330Z</time>
      </trkpt>
      <trkpt lat="47.04764" lon="9.04467">
        <ele>568</ele>
        <time>2021-08-02T08:19:06.330Z</time>
      </trkpt>
      <trkpt lat="47.04764" lon="9.04465">
        <ele>568</ele>
        <time>2021-08-02T08:19:07.330Z</time>
      </trkpt>
      <trkpt lat="47.04764" lon="9.04463">
        <ele>568</ele>
        <time>2021-08-02T08:19:08.329Z</time>
      </trkpt>
      <trkpt lat="47.04764" lon="9.04461">
        <ele>568</ele>
        <time>2021-08-02T08:19:09.329Z</time>
      </trkpt>
      <trkpt lat="47.04764" lon="9.04459">
        <ele>567</ele>
        <time>2021-08-02T08:19:10.330Z</time>
      </trkpt>
      <trkpt lat="47.04764" lon="9.04457">
        <ele>567</ele>
        <time>2021-08-02T08:19:11.330Z</time>
      </trkpt>
      <trkpt lat="47.04764" lon="9.04455">
        <ele>567</ele>
        <time>2021-08-02T08:19:12.329Z</time>
      </trkpt>
      <trkpt lat="47.04765" lon="9.04453">
        <ele>567</ele>
        <time>2021-08-02T08:19:13.330Z</time>
      </trkpt>
      <trkpt lat="47.04766" lon="9.04451">
        <ele>567</ele>
        <time>2021-08-02T08:19:14.330Z</time>
      </trkpt>
      <trkpt lat="47.04766" lon="9.0445">
        <ele>566</ele>
        <time>2021-08-02T08:19:15.330Z</time>
      </trkpt>
      <trkpt lat="47.04766" lon="9.04448">
        <ele>566</ele>
        <time>2021-08-02T08:19:16.330Z</time>
      </trkpt>
      <trkpt lat="47.04766" lon="9.04445">
        <ele>566</ele>
        <time>2021-08-02T08:19:17.330Z</time>
      </trkpt>
      <trkpt lat="47.04767" lon="9.04444">
        <ele>566</ele>
        <time>2021-08-02T08:19:18.330Z</time>
      </trkpt>
      <trkpt lat="47.04767" lon="9.04442">
        <ele>566</ele>
        <time>2021-08-02T08:19:19.329Z</time>
      </trkpt>
      <trkpt lat="47.04767" lon="9.04441">
        <ele>566</ele>
        <time>2021-08-02T08:19:20.330Z</time>
      </trkpt>
      <trkpt lat="47.04767" lon="9.04439">
        <ele>567</ele>
        <time>2021-08-02T08:19:21.329Z</time>
      </trkpt>
      <trkpt lat="47.04767" lon="9.04437">
        <ele>567</ele>
        <time>2021-08-02T08:19:22.330Z</time>
      </trkpt>
      <trkpt lat="47.04767" lon="9.04434">
        <ele>566</ele>
        <time>2021-08-02T08:19:23.330Z</time>
      </trkpt>
      <trkpt lat="47.04767" lon="9.04431">
        <ele>566</ele>
        <time>2021-08-02T08:19:24.329Z</time>
      </trkpt>
      <trkpt lat="47.04767" lon="9.04429">
        <ele>566</ele>
        <time>2021-08-02T08:19:25.330Z</time>
      </trkpt>
      <trkpt lat="47.04767" lon="9.04427">
        <ele>566</ele>
        <time>2021-08-02T08:19:26.330Z</time>
      </trkpt>
      <trkpt lat="47.04767" lon="9.04426">
        <ele>566</ele>
        <time>2021-08-02T08:19:27.330Z</time>
      </trkpt>
      <trkpt lat="47.04767" lon="9.04424">
        <ele>566</ele>
        <time>2021-08-02T08:19:28.330Z</time>
      </trkpt>
      <trkpt lat="47.04768" lon="9.04423">
        <ele>566</ele>
        <time>2021-08-02T08:19:29.330Z</time>
      </trkpt>
      <trkpt lat="47.04768" lon="9.04421">
        <ele>567</ele>
        <time>2021-08-02T08:19:30.329Z</time>
      </trkpt>
      <trkpt lat="47.04769" lon="9.04419">
        <ele>567</ele>
        <time>2021-08-02T08:19:31.329Z</time>
      </trkpt>
      <trkpt lat="47.0477" lon="9.04417">
        <ele>568</ele>
        <time>2021-08-02T08:19:32.329Z</time>
      </trkpt>
      <trkpt lat="47.04771" lon="9.04415">
        <ele>568</ele>
        <time>2021-08-02T08:19:33.330Z</time>
      </trkpt>
      <trkpt lat="47.04771" lon="9.04414">
        <ele>568</ele>
        <time>2021-08-02T08:19:34.330Z</time>
      </trkpt>
      <trkpt lat="47.04771" lon="9.04412">
        <ele>568</ele>
        <time>2021-08-02T08:19:35.330Z</time>
      </trkpt>
      <trkpt lat="47.04772" lon="9.04411">
        <ele>568</ele>
        <time>2021-08-02T08:19:36.330Z</time>
      </trkpt>
      <trkpt lat="47.04771" lon="9.04409">
        <ele>568</ele>
        <time>2021-08-02T08:19:37.329Z</time>
      </trkpt>
      <trkpt lat="47.04771" lon="9.04407">
        <ele>568</ele>
        <time>2021-08-02T08:19:38.330Z</time>
      </trkpt>
      <trkpt lat="47.04771" lon="9.04406">
        <ele>569</ele>
        <time>2021-08-02T08:19:39.329Z</time>
      </trkpt>
      <trkpt lat="47.04771" lon="9.04404">
        <ele>569</ele>
        <time>2021-08-02T08:19:40.330Z</time>
      </trkpt>
      <trkpt lat="47.04771" lon="9.04402">
        <ele>570</ele>
        <time>2021-08-02T08:19:41.330Z</time>
      </trkpt>
      <trkpt lat="47.04771" lon="9.044">
        <ele>570</ele>
        <time>2021-08-02T08:19:42.330Z</time>
      </trkpt>
      <trkpt lat="47.04771" lon="9.04399">
        <ele>570</ele>
        <time>2021-08-02T08:19:43.330Z</time>
      </trkpt>
      <trkpt lat="47.04772" lon="9.04396">
        <ele>569</ele>
        <time>2021-08-02T08:19:44.330Z</time>
      </trkpt>
      <trkpt lat="47.04772" lon="9.04394">
        <ele>569</ele>
        <time>2021-08-02T08:19:45.330Z</time>
      </trkpt>
      <trkpt lat="47.04772" lon="9.04392">
        <ele>569</ele>
        <time>2021-08-02T08:19:46.330Z</time>
      </trkpt>
      <trkpt lat="47.04772" lon="9.0439">
        <ele>568</ele>
        <time>2021-08-02T08:19:47.329Z</time>
      </trkpt>
      <trkpt lat="47.04772" lon="9.0439">
        <ele>568</ele>
        <time>2021-08-02T08:19:48.329Z</time>
      </trkpt>
      <trkpt lat="47.04771" lon="9.04388">
        <ele>568</ele>
        <time>2021-08-02T08:19:49.330Z</time>
      </trkpt>
      <trkpt lat="47.04772" lon="9.04386">
        <ele>568</ele>
        <time>2021-08-02T08:19:50.330Z</time>
      </trkpt>
      <trkpt lat="47.04772" lon="9.04385">
        <ele>567</ele>
        <time>2021-08-02T08:19:51.330Z</time>
      </trkpt>
      <trkpt lat="47.04771" lon="9.04383">
        <ele>567</ele>
        <time>2021-08-02T08:19:52.329Z</time>
      </trkpt>
      <trkpt lat="47.04771" lon="9.04382">
        <ele>566</ele>
        <time>2021-08-02T08:19:53.329Z</time>
      </trkpt>
      <trkpt lat="47.0477" lon="9.04381">
        <ele>566</ele>
        <time>2021-08-02T08:19:54.330Z</time>
      </trkpt>
      <trkpt lat="47.0477" lon="9.0438">
        <ele>565</ele>
        <time>2021-08-02T08:19:55.330Z</time>
      </trkpt>
      <trkpt lat="47.0477" lon="9.04379">
        <ele>565</ele>
        <time>2021-08-02T08:19:56.330Z</time>
      </trkpt>
      <trkpt lat="47.0477" lon="9.04377">
        <ele>564</ele>
        <time>2021-08-02T08:19:57.329Z</time>
      </trkpt>
      <trkpt lat="47.0477" lon="9.04374">
        <ele>564</ele>
        <time>2021-08-02T08:19:58.329Z</time>
      </trkpt>
      <trkpt lat="47.04769" lon="9.04372">
        <ele>564</ele>
        <time>2021-08-02T08:19:59.330Z</time>
      </trkpt>
      <trkpt lat="47.04769" lon="9.0437">
        <ele>564</ele>
        <time>2021-08-02T08:20:00.329Z</time>
      </trkpt>
      <trkpt lat="47.04769" lon="9.04369">
        <ele>565</ele>
        <time>2021-08-02T08:20:01.330Z</time>
      </trkpt>
      <trkpt lat="47.04769" lon="9.04368">
        <ele>564</ele>
        <time>2021-08-02T08:20:02.330Z</time>
      </trkpt>
      <trkpt lat="47.04769" lon="9.04366">
        <ele>564</ele>
        <time>2021-08-02T08:20:03.330Z</time>
      </trkpt>
      <trkpt lat="47.04769" lon="9.04365">
        <ele>564</ele>
        <time>2021-08-02T08:20:04.330Z</time>
      </trkpt>
      <trkpt lat="47.0477" lon="9.04364">
        <ele>565</ele>
        <time>2021-08-02T08:20:05.330Z</time>
      </trkpt>
      <trkpt lat="47.0477" lon="9.04362">
        <ele>565</ele>
        <time>2021-08-02T08:20:06.329Z</time>
      </trkpt>
      <trkpt lat="47.0477" lon="9.04361">
        <ele>565</ele>
        <time>2021-08-02T08:20:07.330Z</time>
      </trkpt>
      <trkpt lat="47.04771" lon="9.0436">
        <ele>565</ele>
        <time>2021-08-02T08:20:08.330Z</time>
      </trkpt>
      <trkpt lat="47.04771" lon="9.04359">
        <ele>566</ele>
        <time>2021-08-02T08:20:09.329Z</time>
      </trkpt>
      <trkpt lat="47.04771" lon="9.04358">
        <ele>566</ele>
        <time>2021-08-02T08:20:10.330Z</time>
      </trkpt>
      <trkpt lat="47.04771" lon="9.04357">
        <ele>566</ele>
        <time>2021-08-02T08:20:11.329Z</time>
      </trkpt>
      <trkpt lat="47.04771" lon="9.04356">
        <ele>567</ele>
        <time>2021-08-02T08:20:12.330Z</time>
      </trkpt>
      <trkpt lat="47.04772" lon="9.04355">
        <ele>567</ele>
        <time>2021-08-02T08:20:13.330Z</time>
      </trkpt>
      <trkpt lat="47.04772" lon="9.04353">
        <ele>567</ele>
        <time>2021-08-02T08:20:14.330Z</time>
      </trkpt>
      <trkpt lat="47.04772" lon="9.04351">
        <ele>568</ele>
        <time>2021-08-02T08:20:15.330Z</time>
      </trkpt>
      <trkpt lat="47.04772" lon="9.0435">
        <ele>568</ele>
        <time>2021-08-02T08:20:16.329Z</time>
      </trkpt>
      <trkpt lat="47.04772" lon="9.04348">
        <ele>568</ele>
        <time>2021-08-02T08:20:17.330Z</time>
      </trkpt>
      <trkpt lat="47.04773" lon="9.04347">
        <ele>568</ele>
        <time>2021-08-02T08:20:18.330Z</time>
      </trkpt>
      <trkpt lat="47.04775" lon="9.04347">
        <ele>568</ele>
        <time>2021-08-02T08:20:19.330Z</time>
      </trkpt>
      <trkpt lat="47.04775" lon="9.04346">
        <ele>568</ele>
        <time>2021-08-02T08:20:20.329Z</time>
      </trkpt>
      <trkpt lat="47.04775" lon="9.04345">
        <ele>568</ele>
        <time>2021-08-02T08:20:21.329Z</time>
      </trkpt>
      <trkpt lat="47.04775" lon="9.04343">
        <ele>568</ele>
        <time>2021-08-02T08:20:22.329Z</time>
      </trkpt>
      <trkpt lat="47.04775" lon="9.04341">
        <ele>568</ele>
        <time>2021-08-02T08:20:23.330Z</time>
      </trkpt>
      <trkpt lat="47.04775" lon="9.0434">
        <ele>568</ele>
        <time>2021-08-02T08:20:24.330Z</time>
      </trkpt>
      <trkpt lat="47.04776" lon="9.04337">
        <ele>568</ele>
        <time>2021-08-02T08:20:25.329Z</time>
      </trkpt>
      <trkpt lat="47.04776" lon="9.04335">
        <ele>569</ele>
        <time>2021-08-02T08:20:26.330Z</time>
      </trkpt>
      <trkpt lat="47.04776" lon="9.04333">
        <ele>570</ele>
        <time>2021-08-02T08:20:27.329Z</time>
      </trkpt>
      <trkpt lat="47.04777" lon="9.04331">
        <ele>570</ele>
        <time>2021-08-02T08:20:28.330Z</time>
      </trkpt>
      <trkpt lat="47.04777" lon="9.04329">
        <ele>571</ele>
        <time>2021-08-02T08:20:29.329Z</time>
      </trkpt>
      <trkpt lat="47.04777" lon="9.04328">
        <ele>571</ele>
        <time>2021-08-02T08:20:30.330Z</time>
      </trkpt>
      <trkpt lat="47.04777" lon="9.04326">
        <ele>571</ele>
        <time>2021-08-02T08:20:31.330Z</time>
      </trkpt>
      <trkpt lat="47.04777" lon="9.04325">
        <ele>572</ele>
        <time>2021-08-02T08:20:32.330Z</time>
      </trkpt>
      <trkpt lat="47.04777" lon="9.04324">
        <ele>572</ele>
        <time>2021-08-02T08:20:33.330Z</time>
      </trkpt>
      <trkpt lat="47.04777" lon="9.04323">
        <ele>572</ele>
        <time>2021-08-02T08:20:34.329Z</time>
      </trkpt>
      <trkpt lat="47.04778" lon="9.04322">
        <ele>572</ele>
        <time>2021-08-02T08:20:35.330Z</time>
      </trkpt>
      <trkpt lat="47.04778" lon="9.0432">
        <ele>573</ele>
        <time>2021-08-02T08:20:36.329Z</time>
      </trkpt>
      <trkpt lat="47.04779" lon="9.04319">
        <ele>573</ele>
        <time>2021-08-02T08:20:37.330Z</time>
      </trkpt>
      <trkpt lat="47.0478" lon="9.04317">
        <ele>573</ele>
        <time>2021-08-02T08:20:38.330Z</time>
      </trkpt>
      <trkpt lat="47.0478" lon="9.04316">
        <ele>573</ele>
        <time>2021-08-02T08:20:39.330Z</time>
      </trkpt>
      <trkpt lat="47.04779" lon="9.04315">
        <ele>573</ele>
        <time>2021-08-02T08:20:40.330Z</time>
      </trkpt>
      <trkpt lat="47.04778" lon="9.04314">
        <ele>573</ele>
        <time>2021-08-02T08:20:41.330Z</time>
      </trkpt>
      <trkpt lat="47.04778" lon="9.04312">
        <ele>572</ele>
        <time>2021-08-02T08:20:42.329Z</time>
      </trkpt>
      <trkpt lat="47.04777" lon="9.04311">
        <ele>572</ele>
        <time>2021-08-02T08:20:43.329Z</time>
      </trkpt>
      <trkpt lat="47.04776" lon="9.0431">
        <ele>571</ele>
        <time>2021-08-02T08:20:44.330Z</time>
      </trkpt>
      <trkpt lat="47.04776" lon="9.04308">
        <ele>571</ele>
        <time>2021-08-02T08:20:45.329Z</time>
      </trkpt>
      <trkpt lat="47.04776" lon="9.04307">
        <ele>570</ele>
        <time>2021-08-02T08:20:46.329Z</time>
      </trkpt>
      <trkpt lat="47.04776" lon="9.04306">
        <ele>570</ele>
        <time>2021-08-02T08:20:47.330Z</time>
      </trkpt>
      <trkpt lat="47.04776" lon="9.04305">
        <ele>569</ele>
        <time>2021-08-02T08:20:48.330Z</time>
      </trkpt>
      <trkpt lat="47.04777" lon="9.04303">
        <ele>569</ele>
        <time>2021-08-02T08:20:49.329Z</time>
      </trkpt>
      <trkpt lat="47.04777" lon="9.04302">
        <ele>568</ele>
        <time>2021-08-02T08:20:50.329Z</time>
      </trkpt>
      <trkpt lat="47.04778" lon="9.043">
        <ele>567</ele>
        <time>2021-08-02T08:20:51.330Z</time>
      </trkpt>
      <trkpt lat="47.04778" lon="9.04299">
        <ele>567</ele>
        <time>2021-08-02T08:20:52.330Z</time>
      </trkpt>
      <trkpt lat="47.04779" lon="9.04297">
        <ele>566</ele>
        <time>2021-08-02T08:20:53.330Z</time>
      </trkpt>
      <trkpt lat="47.04779" lon="9.04296">
        <ele>566</ele>
        <time>2021-08-02T08:20:54.330Z</time>
      </trkpt>
      <trkpt lat="47.04779" lon="9.04294">
        <ele>565</ele>
        <time>2021-08-02T08:20:55.329Z</time>
      </trkpt>
      <trkpt lat="47.04779" lon="9.04293">
        <ele>565</ele>
        <time>2021-08-02T08:20:56.330Z</time>
      </trkpt>
      <trkpt lat="47.04779" lon="9.04291">
        <ele>564</ele>
        <time>2021-08-02T08:20:57.329Z</time>
      </trkpt>
      <trkpt lat="47.04779" lon="9.04289">
        <ele>564</ele>
        <time>2021-08-02T08:20:58.330Z</time>
      </trkpt>
      <trkpt lat="47.04779" lon="9.04288">
        <ele>563</ele>
        <time>2021-08-02T08:20:59.330Z</time>
      </trkpt>
      <trkpt lat="47.04779" lon="9.04286">
        <ele>563</ele>
        <time>2021-08-02T08:21:00.330Z</time>
      </trkpt>
      <trkpt lat="47.04779" lon="9.04285">
        <ele>564</ele>
        <time>2021-08-02T08:21:01.329Z</time>
      </trkpt>
      <trkpt lat="47.04779" lon="9.04283">
        <ele>564</ele>
        <time>2021-08-02T08:21:02.330Z</time>
      </trkpt>
      <trkpt lat="47.04779" lon="9.04282">
        <ele>564</ele>
        <time>2021-08-02T08:21:03.330Z</time>
      </trkpt>
      <trkpt lat="47.04779" lon="9.0428">
        <ele>564</ele>
        <time>2021-08-02T08:21:04.329Z</time>
      </trkpt>
      <trkpt lat="47.04779" lon="9.04279">
        <ele>564</ele>
        <time>2021-08-02T08:21:05.330Z</time>
      </trkpt>
      <trkpt lat="47.04779" lon="9.04277">
        <ele>564</ele>
        <time>2021-08-02T08:21:06.330Z</time>
      </trkpt>
      <trkpt lat="47.04779" lon="9.04276">
        <ele>564</ele>
        <time>2021-08-02T08:21:07.330Z</time>
      </trkpt>
      <trkpt lat="47.04778" lon="9.04275">
        <ele>564</ele>
        <time>2021-08-02T08:21:08.330Z</time>
      </trkpt>
      <trkpt lat="47.04777" lon="9.04273">
        <ele>564</ele>
        <time>2021-08-02T08:21:09.329Z</time>
      </trkpt>
      <trkpt lat="47.04777" lon="9.0427">
        <ele>564</ele>
        <time>2021-08-02T08:21:10.330Z</time>
      </trkpt>
      <trkpt lat="47.04777" lon="9.04268">
        <ele>564</ele>
        <time>2021-08-02T08:21:11.330Z</time>
      </trkpt>
      <trkpt lat="47.04777" lon="9.04267">
        <ele>564</ele>
        <time>2021-08-02T08:21:12.330Z</time>
      </trkpt>
      <trkpt lat="47.04778" lon="9.04265">
        <ele>565</ele>
        <time>2021-08-02T08:21:13.329Z</time>
      </trkpt>
      <trkpt lat="47.04779" lon="9.04263">
        <ele>565</ele>
        <time>2021-08-02T08:21:14.330Z</time>
      </trkpt>
      <trkpt lat="47.04778" lon="9.04262">
        <ele>566</ele>
        <time>2021-08-02T08:21:15.330Z</time>
      </trkpt>
      <trkpt lat="47.04778" lon="9.04261">
        <ele>566</ele>
        <time>2021-08-02T08:21:16.329Z</time>
      </trkpt>
      <trkpt lat="47.04778" lon="9.04259">
        <ele>566</ele>
        <time>2021-08-02T08:21:17.330Z</time>
      </trkpt>
      <trkpt lat="47.04778" lon="9.04258">
        <ele>567</ele>
        <time>2021-08-02T08:21:18.329Z</time>
      </trkpt>
      <trkpt lat="47.04778" lon="9.04257">
        <ele>567</ele>
        <time>2021-08-02T08:21:19.329Z</time>
      </trkpt>
      <trkpt lat="47.04778" lon="9.04255">
        <ele>568</ele>
        <time>2021-08-02T08:21:20.330Z</time>
      </trkpt>
      <trkpt lat="47.04777" lon="9.04253">
        <ele>568</ele>
        <time>2021-08-02T08:21:21.330Z</time>
      </trkpt>
      <trkpt lat="47.04777" lon="9.04252">
        <ele>568</ele>
        <time>2021-08-02T08:21:22.329Z</time>
      </trkpt>
      <trkpt lat="47.04777" lon="9.0425">
        <ele>568</ele>
        <time>2021-08-02T08:21:23.329Z</time>
      </trkpt>
      <trkpt lat="47.04777" lon="9.04249">
        <ele>568</ele>
        <time>2021-08-02T08:21:24.330Z</time>
      </trkpt>
      <trkpt lat="47.04776" lon="9.04247">
        <ele>567</ele>
        <time>2021-08-02T08:21:25.330Z</time>
      </trkpt>
      <trkpt lat="47.04776" lon="9.04246">
        <ele>566</ele>
        <time>2021-08-02T08:21:26.329Z</time>
      </trkpt>
      <trkpt lat="47.04776" lon="9.04244">
        <ele>566</ele>
        <time>2021-08-02T08:21:27.329Z</time>
      </trkpt>
      <trkpt lat="47.04776" lon="9.04243">
        <ele>565</ele>
        <time>2021-08-02T08:21:28.330Z</time>
      </trkpt>
      <trkpt lat="47.04776" lon="9.04242">
        <ele>564</ele>
        <time>2021-08-02T08:21:29.330Z</time>
      </trkpt>
      <trkpt lat="47.04776" lon="9.0424">
        <ele>564</ele>
        <time>2021-08-02T08:21:30.329Z</time>
      </trkpt>
      <trkpt lat="47.04775" lon="9.04239">
        <ele>563</ele>
        <time>2021-08-02T08:21:31.330Z</time>
      </trkpt>
      <trkpt lat="47.04775" lon="9.04238">
        <ele>563</ele>
        <time>2021-08-02T08:21:32.330Z</time>
      </trkpt>
      <trkpt lat="47.04776" lon="9.04236">
        <ele>563</ele>
        <time>2021-08-02T08:21:33.330Z</time>
      </trkpt>
      <trkpt lat="47.04776" lon="9.04234">
        <ele>563</ele>
        <time>2021-08-02T08:21:34.330Z</time>
      </trkpt>
      <trkpt lat="47.04775" lon="9.04233">
        <ele>563</ele>
        <time>2021-08-02T08:21:35.330Z</time>
      </trkpt>
      <trkpt lat="47.04775" lon="9.04232">
        <ele>563</ele>
        <time>2021-08-02T08:21:36.330Z</time>
      </trkpt>
      <trkpt lat="47.04775" lon="9.0423">
        <ele>563</ele>
        <time>2021-08-02T08:21:37.330Z</time>
      </trkpt>
      <trkpt lat="47.04775" lon="9.04229">
        <ele>563</ele>
        <time>2021-08-02T08:21:38.330Z</time>
      </trkpt>
      <trkpt lat="47.04775" lon="9.04228">
        <ele>563</ele>
        <time>2021-08-02T08:21:39.330Z</time>
      </trkpt>
      <trkpt lat="47.04774" lon="9.04225">
        <ele>563</ele>
        <time>2021-08-02T08:21:40.330Z</time>
      </trkpt>
      <trkpt lat="47.04774" lon="9.04223">
        <ele>562</ele>
        <time>2021-08-02T08:21:41.330Z</time>
      </trkpt>
      <trkpt lat="47.04774" lon="9.04222">
        <ele>562</ele>
        <time>2021-08-02T08:21:42.330Z</time>
      </trkpt>
      <trkpt lat="47.04774" lon="9.0422">
        <ele>562</ele>
        <time>2021-08-02T08:21:43.330Z</time>
      </trkpt>
      <trkpt lat="47.04773" lon="9.04219">
        <ele>561</ele>
        <time>2021-08-02T08:21:44.329Z</time>
      </trkpt>
      <trkpt lat="47.04774" lon="9.04218">
        <ele>561</ele>
        <time>2021-08-02T08:21:45.330Z</time>
      </trkpt>
      <trkpt lat="47.04775" lon="9.04216">
        <ele>561</ele>
        <time>2021-08-02T08:21:46.330Z</time>
      </trkpt>
      <trkpt lat="47.04775" lon="9.04215">
        <ele>561</ele>
        <time>2021-08-02T08:21:47.330Z</time>
      </trkpt>
      <trkpt lat="47.04774" lon="9.04213">
        <ele>561</ele>
        <time>2021-08-02T08:21:48.329Z</time>
      </trkpt>
      <trkpt lat="47.04774" lon="9.04211">
        <ele>561</ele>
        <time>2021-08-02T08:21:49.330Z</time>
      </trkpt>
      <trkpt lat="47.04774" lon="9.0421">
        <ele>561</ele>
        <time>2021-08-02T08:21:50.330Z</time>
      </trkpt>
      <trkpt lat="47.04773" lon="9.04209">
        <ele>561</ele>
        <time>2021-08-02T08:21:51.330Z</time>
      </trkpt>
      <trkpt lat="47.04773" lon="9.04207">
        <ele>561</ele>
        <time>2021-08-02T08:21:52.330Z</time>
      </trkpt>
      <trkpt lat="47.04773" lon="9.04206">
        <ele>561</ele>
        <time>2021-08-02T08:21:53.330Z</time>
      </trkpt>
      <trkpt lat="47.04773" lon="9.04204">
        <ele>561</ele>
        <time>2021-08-02T08:21:54.329Z</time>
      </trkpt>
      <trkpt lat="47.04773" lon="9.04203">
        <ele>561</ele>
        <time>2021-08-02T08:21:55.329Z</time>
      </trkpt>
      <trkpt lat="47.04772" lon="9.04201">
        <ele>561</ele>
        <time>2021-08-02T08:21:56.329Z</time>
      </trkpt>
      <trkpt lat="47.04772" lon="9.042">
        <ele>561</ele>
        <time>2021-08-02T08:21:57.329Z</time>
      </trkpt>
      <trkpt lat="47.04772" lon="9.04199">
        <ele>561</ele>
        <time>2021-08-02T08:21:58.330Z</time>
      </trkpt>
      <trkpt lat="47.04771" lon="9.04197">
        <ele>561</ele>
        <time>2021-08-02T08:21:59.329Z</time>
      </trkpt>
      <trkpt lat="47.04771" lon="9.04196">
        <ele>561</ele>
        <time>2021-08-02T08:22:00.329Z</time>
      </trkpt>
      <trkpt lat="47.04771" lon="9.04194">
        <ele>561</ele>
        <time>2021-08-02T08:22:01.330Z</time>
      </trkpt>
      <trkpt lat="47.04771" lon="9.04192">
        <ele>561</ele>
        <time>2021-08-02T08:22:02.329Z</time>
      </trkpt>
      <trkpt lat="47.0477" lon="9.04191">
        <ele>561</ele>
        <time>2021-08-02T08:22:03.329Z</time>
      </trkpt>
      <trkpt lat="47.0477" lon="9.04189">
        <ele>561</ele>
        <time>2021-08-02T08:22:04.330Z</time>
      </trkpt>
      <trkpt lat="47.04771" lon="9.04188">
        <ele>562</ele>
        <time>2021-08-02T08:22:05.329Z</time>
      </trkpt>
      <trkpt lat="47.04772" lon="9.04186">
        <ele>562</ele>
        <time>2021-08-02T08:22:06.330Z</time>
      </trkpt>
      <trkpt lat="47.04772" lon="9.04184">
        <ele>562</ele>
        <time>2021-08-02T08:22:07.329Z</time>
      </trkpt>
      <trkpt lat="47.04772" lon="9.04182">
        <ele>563</ele>
        <time>2021-08-02T08:22:08.330Z</time>
      </trkpt>
      <trkpt lat="47.04771" lon="9.04181">
        <ele>564</ele>
        <time>2021-08-02T08:22:09.329Z</time>
      </trkpt>
      <trkpt lat="47.04771" lon="9.04179">
        <ele>565</ele>
        <time>2021-08-02T08:22:10.330Z</time>
      </trkpt>
      <trkpt lat="47.04771" lon="9.04178">
        <ele>566</ele>
        <time>2021-08-02T08:22:11.330Z</time>
      </trkpt>
      <trkpt lat="47.04771" lon="9.04178">
        <ele>566</ele>
        <time>2021-08-02T08:22:12.330Z</time>
      </trkpt>
      <trkpt lat="47.04772" lon="9.04177">
        <ele>567</ele>
        <time>2021-08-02T08:22:13.330Z</time>
      </trkpt>
      <trkpt lat="47.04772" lon="9.04176">
        <ele>568</ele>
        <time>2021-08-02T08:22:14.330Z</time>
      </trkpt>
      <trkpt lat="47.04772" lon="9.04173">
        <ele>568</ele>
        <time>2021-08-02T08:22:15.330Z</time>
      </trkpt>
      <trkpt lat="47.04773" lon="9.04171">
        <ele>569</ele>
        <time>2021-08-02T08:22:16.329Z</time>
      </trkpt>
      <trkpt lat="47.04773" lon="9.04169">
        <ele>569</ele>
        <time>2021-08-02T08:22:17.330Z</time>
      </trkpt>
      <trkpt lat="47.04773" lon="9.04166">
        <ele>570</ele>
        <time>2021-08-02T08:22:18.330Z</time>
      </trkpt>
      <trkpt lat="47.04772" lon="9.04165">
        <ele>570</ele>
        <time>2021-08-02T08:22:19.329Z</time>
      </trkpt>
      <trkpt lat="47.04772" lon="9.04163">
        <ele>570</ele>
        <time>2021-08-02T08:22:20.330Z</time>
      </trkpt>
      <trkpt lat="47.04771" lon="9.04161">
        <ele>571</ele>
        <time>2021-08-02T08:22:21.330Z</time>
      </trkpt>
      <trkpt lat="47.04771" lon="9.0416">
        <ele>571</ele>
        <time>2021-08-02T08:22:22.330Z</time>
      </trkpt>
      <trkpt lat="47.0477" lon="9.04158">
        <ele>571</ele>
        <time>2021-08-02T08:22:23.330Z</time>
      </trkpt>
      <trkpt lat="47.0477" lon="9.04157">
        <ele>572</ele>
        <time>2021-08-02T08:22:24.330Z</time>
      </trkpt>
      <trkpt lat="47.0477" lon="9.04156">
        <ele>572</ele>
        <time>2021-08-02T08:22:25.330Z</time>
      </trkpt>
      <trkpt lat="47.04769" lon="9.04155">
        <ele>572</ele>
        <time>2021-08-02T08:22:26.330Z</time>
      </trkpt>
      <trkpt lat="47.04769" lon="9.04154">
        <ele>572</ele>
        <time>2021-08-02T08:22:27.329Z</time>
      </trkpt>
      <trkpt lat="47.04769" lon="9.04152">
        <ele>572</ele>
        <time>2021-08-02T08:22:28.330Z</time>
      </trkpt>
      <trkpt lat="47.04769" lon="9.04151">
        <ele>573</ele>
        <time>2021-08-02T08:22:29.330Z</time>
      </trkpt>
      <trkpt lat="47.04768" lon="9.04151">
        <ele>573</ele>
        <time>2021-08-02T08:22:30.330Z</time>
      </trkpt>
      <trkpt lat="47.04768" lon="9.0415">
        <ele>574</ele>
        <time>2021-08-02T08:22:31.330Z</time>
      </trkpt>
      <trkpt lat="47.04767" lon="9.0415">
        <ele>574</ele>
        <time>2021-08-02T08:22:32.330Z</time>
      </trkpt>
      <trkpt lat="47.04767" lon="9.04148">
        <ele>575</ele>
        <time>2021-08-02T08:22:33.330Z</time>
      </trkpt>
      <trkpt lat="47.04766" lon="9.04147">
        <ele>575</ele>
        <time>2021-08-02T08:22:34.330Z</time>
      </trkpt>
      <trkpt lat="47.04766" lon="9.04146">
        <ele>576</ele>
        <time>2021-08-02T08:22:35.329Z</time>
      </trkpt>
      <trkpt lat="47.04765" lon="9.04144">
        <ele>576</ele>
        <time>2021-08-02T08:22:36.330Z</time>
      </trkpt>
      <trkpt lat="47.04765" lon="9.04143">
        <ele>576</ele>
        <time>2021-08-02T08:22:37.330Z</time>
      </trkpt>
      <trkpt lat="47.04763" lon="9.0414">
        <ele>577</ele>
        <time>2021-08-02T08:22:38.330Z</time>
      </trkpt>
      <trkpt lat="47.04763" lon="9.04138">
        <ele>577</ele>
        <time>2021-08-02T08:22:39.330Z</time>
      </trkpt>
      <trkpt lat="47.04763" lon="9.04136">
        <ele>576</ele>
        <time>2021-08-02T08:22:40.329Z</time>
      </trkpt>
      <trkpt lat="47.04763" lon="9.04135">
        <ele>576</ele>
        <time>2021-08-02T08:22:41.330Z</time>
      </trkpt>
      <trkpt lat="47.04763" lon="9.04134">
        <ele>576</ele>
        <time>2021-08-02T08:22:42.329Z</time>
      </trkpt>
      <trkpt lat="47.04763" lon="9.04132">
        <ele>576</ele>
        <time>2021-08-02T08:22:43.329Z</time>
      </trkpt>
      <trkpt lat="47.04764" lon="9.04131">
        <ele>576</ele>
        <time>2021-08-02T08:22:44.330Z</time>
      </trkpt>
      <trkpt lat="47.04764" lon="9.04129">
        <ele>576</ele>
        <time>2021-08-02T08:22:45.330Z</time>
      </trkpt>
      <trkpt lat="47.04765" lon="9.04128">
        <ele>575</ele>
        <time>2021-08-02T08:22:46.329Z</time>
      </trkpt>
      <trkpt lat="47.04765" lon="9.04127">
        <ele>575</ele>
        <time>2021-08-02T08:22:47.329Z</time>
      </trkpt>
      <trkpt lat="47.04766" lon="9.04126">
        <ele>575</ele>
        <time>2021-08-02T08:22:48.330Z</time>
      </trkpt>
      <trkpt lat="47.04766" lon="9.04125">
        <ele>575</ele>
        <time>2021-08-02T08:22:49.330Z</time>
      </trkpt>
      <trkpt lat="47.04767" lon="9.04123">
        <ele>575</ele>
        <time>2021-08-02T08:22:50.329Z</time>
      </trkpt>
      <trkpt lat="47.04768" lon="9.04122">
        <ele>575</ele>
        <time>2021-08-02T08:22:51.330Z</time>
      </trkpt>
      <trkpt lat="47.04768" lon="9.04121">
        <ele>575</ele>
        <time>2021-08-02T08:22:52.330Z</time>
      </trkpt>
      <trkpt lat="47.04768" lon="9.0412">
        <ele>574</ele>
        <time>2021-08-02T08:22:53.330Z</time>
      </trkpt>
      <trkpt lat="47.04769" lon="9.04118">
        <ele>574</ele>
        <time>2021-08-02T08:22:54.330Z</time>
      </trkpt>
      <trkpt lat="47.04769" lon="9.04117">
        <ele>573</ele>
        <time>2021-08-02T08:22:55.330Z</time>
      </trkpt>
      <trkpt lat="47.0477" lon="9.04116">
        <ele>573</ele>
        <time>2021-08-02T08:22:56.330Z</time>
      </trkpt>
      <trkpt lat="47.0477" lon="9.04115">
        <ele>573</ele>
        <time>2021-08-02T08:22:57.330Z</time>
      </trkpt>
      <trkpt lat="47.04771" lon="9.04113">
        <ele>572</ele>
        <time>2021-08-02T08:22:58.330Z</time>
      </trkpt>
      <trkpt lat="47.04771" lon="9.04112">
        <ele>572</ele>
        <time>2021-08-02T08:22:59.330Z</time>
      </trkpt>
      <trkpt lat="47.04771" lon="9.04111">
        <ele>572</ele>
        <time>2021-08-02T08:23:00.330Z</time>
      </trkpt>
      <trkpt lat="47.04772" lon="9.0411">
        <ele>572</ele>
        <time>2021-08-02T08:23:01.330Z</time>
      </trkpt>
      <trkpt lat="47.04772" lon="9.04109">
        <ele>571</ele>
        <time>2021-08-02T08:23:02.329Z</time>
      </trkpt>
      <trkpt lat="47.04772" lon="9.04108">
        <ele>571</ele>
        <time>2021-08-02T08:23:03.330Z</time>
      </trkpt>
      <trkpt lat="47.04772" lon="9.04106">
        <ele>572</ele>
        <time>2021-08-02T08:23:04.330Z</time>
      </trkpt>
      <trkpt lat="47.04772" lon="9.04105">
        <ele>572</ele>
        <time>2021-08-02T08:23:05.330Z</time>
      </trkpt>
      <trkpt lat="47.04772" lon="9.04103">
        <ele>572</ele>
        <time>2021-08-02T08:23:06.330Z</time>
      </trkpt>
      <trkpt lat="47.04772" lon="9.04101">
        <ele>573</ele>
        <time>2021-08-02T08:23:07.329Z</time>
      </trkpt>
      <trkpt lat="47.04772" lon="9.041">
        <ele>573</ele>
        <time>2021-08-02T08:23:08.329Z</time>
      </trkpt>
      <trkpt lat="47.04772" lon="9.04098">
        <ele>573</ele>
        <time>2021-08-02T08:23:09.330Z</time>
      </trkpt>
      <trkpt lat="47.04773" lon="9.04096">
        <ele>573</ele>
        <time>2021-08-02T08:23:10.329Z</time>
      </trkpt>
      <trkpt lat="47.04773" lon="9.04094">
        <ele>573</ele>
        <time>2021-08-02T08:23:11.329Z</time>
      </trkpt>
      <trkpt lat="47.04774" lon="9.04091">
        <ele>574</ele>
        <time>2021-08-02T08:23:12.329Z</time>
      </trkpt>
      <trkpt lat="47.04775" lon="9.0409">
        <ele>574</ele>
        <time>2021-08-02T08:23:13.330Z</time>
      </trkpt>
      <trkpt lat="47.04774" lon="9.04089">
        <ele>574</ele>
        <time>2021-08-02T08:23:14.330Z</time>
      </trkpt>
      <trkpt lat="47.04772" lon="9.04086">
        <ele>574</ele>
        <time>2021-08-02T08:23:15.329Z</time>
      </trkpt>
      <trkpt lat="47.0477" lon="9.04084">
        <ele>574</ele>
        <time>2021-08-02T08:23:16.329Z</time>
      </trkpt>
      <trkpt lat="47.0477" lon="9.04083">
        <ele>573</ele>
        <time>2021-08-02T08:23:17.329Z</time>
      </trkpt>
      <trkpt lat="47.0477" lon="9.04082">
        <ele>573</ele>
        <time>2021-08-02T08:23:18.329Z</time>
      </trkpt>
      <trkpt lat="47.0477" lon="9.04081">
        <ele>573</ele>
        <time>2021-08-02T08:23:19.329Z</time>
      </trkpt>
      <trkpt lat="47.0477" lon="9.0408">
        <ele>572</ele>
        <time>2021-08-02T08:23:20.329Z</time>
      </trkpt>
      <trkpt lat="47.04771" lon="9.04078">
        <ele>572</ele>
        <time>2021-08-02T08:23:21.330Z</time>
      </trkpt>
      <trkpt lat="47.0477" lon="9.04077">
        <ele>572</ele>
        <time>2021-08-02T08:23:22.329Z</time>
      </trkpt>
      <trkpt lat="47.0477" lon="9.04076">
        <ele>572</ele>
        <time>2021-08-02T08:23:23.329Z</time>
      </trkpt>
      <trkpt lat="47.0477" lon="9.04074">
        <ele>572</ele>
        <time>2021-08-02T08:23:24.329Z</time>
      </trkpt>
      <trkpt lat="47.0477" lon="9.04073">
        <ele>572</ele>
        <time>2021-08-02T08:23:25.330Z</time>
      </trkpt>
      <trkpt lat="47.0477" lon="9.04072">
        <ele>572</ele>
        <time>2021-08-02T08:23:26.329Z</time>
      </trkpt>
      <trkpt lat="47.04769" lon="9.0407">
        <ele>572</ele>
        <time>2021-08-02T08:23:27.329Z</time>
      </trkpt>
      <trkpt lat="47.04768" lon="9.0407">
        <ele>572</ele>
        <time>2021-08-02T08:23:28.330Z</time>
      </trkpt>
      <trkpt lat="47.04766" lon="9.04071">
        <ele>572</ele>
        <time>2021-08-02T08:23:29.329Z</time>
      </trkpt>
      <trkpt lat="47.04766" lon="9.04072">
        <ele>572</ele>
        <time>2021-08-02T08:23:30.329Z</time>
      </trkpt>
      <trkpt lat="47.04765" lon="9.04075">
        <ele>570</ele>
        <time>2021-08-02T08:23:31.330Z</time>
      </trkpt>
      <trkpt lat="47.04764" lon="9.04075">
        <ele>570</ele>
        <time>2021-08-02T08:23:32.330Z</time>
      </trkpt>
      <trkpt lat="47.04764" lon="9.04076">
        <ele>571</ele>
        <time>2021-08-02T08:23:33.330Z</time>
      </trkpt>
      <trkpt lat="47.04765" lon="9.04079">
        <ele>572</ele>
        <time>2021-08-02T08:23:34.330Z</time>
      </trkpt>
      <trkpt lat="47.04765" lon="9.04081">
        <ele>572</ele>
        <time>2021-08-02T08:23:35.329Z</time>
      </trkpt>
      <trkpt lat="47.04764" lon="9.04082">
        <ele>573</ele>
        <time>2021-08-02T08:23:36.330Z</time>
      </trkpt>
      <trkpt lat="47.04763" lon="9.04083">
        <ele>573</ele>
        <time>2021-08-02T08:23:37.330Z</time>
      </trkpt>
      <trkpt lat="47.04763" lon="9.04084">
        <ele>573</ele>
        <time>2021-08-02T08:23:38.329Z</time>
      </trkpt>
      <trkpt lat="47.04762" lon="9.04083">
        <ele>573</ele>
        <time>2021-08-02T08:23:39.330Z</time>
      </trkpt>
      <trkpt lat="47.04761" lon="9.04081">
        <ele>573</ele>
        <time>2021-08-02T08:23:40.330Z</time>
      </trkpt>
      <trkpt lat="47.04761" lon="9.04079">
        <ele>573</ele>
        <time>2021-08-02T08:23:41.330Z</time>
      </trkpt>
      <trkpt lat="47.04762" lon="9.04079">
        <ele>573</ele>
        <time>2021-08-02T08:23:42.330Z</time>
      </trkpt>
      <trkpt lat="47.04762" lon="9.04078">
        <ele>572</ele>
        <time>2021-08-02T08:23:43.330Z</time>
      </trkpt>
      <trkpt lat="47.04761" lon="9.04078">
        <ele>572</ele>
        <time>2021-08-02T08:23:44.329Z</time>
      </trkpt>
      <trkpt lat="47.04761" lon="9.04077">
        <ele>572</ele>
        <time>2021-08-02T08:23:45.330Z</time>
      </trkpt>
      <trkpt lat="47.0476" lon="9.04077">
        <ele>572</ele>
        <time>2021-08-02T08:23:46.330Z</time>
      </trkpt>
      <trkpt lat="47.0476" lon="9.04077">
        <ele>572</ele>
        <time>2021-08-02T08:23:47.330Z</time>
      </trkpt>
      <trkpt lat="47.0476" lon="9.04078">
        <ele>571</ele>
        <time>2021-08-02T08:23:48.330Z</time>
      </trkpt>
      <trkpt lat="47.0476" lon="9.04078">
        <ele>571</ele>
        <time>2021-08-02T08:23:49.330Z</time>
      </trkpt>
      <trkpt lat="47.04758" lon="9.04068">
        <ele>553</ele>
        <time>2021-08-02T08:23:50.330Z</time>
      </trkpt>
      <trkpt lat="47.04759" lon="9.04067">
        <ele>553</ele>
        <time>2021-08-02T08:23:51.329Z</time>
      </trkpt>
      <trkpt lat="47.04759" lon="9.04066">
        <ele>554</ele>
        <time>2021-08-02T08:23:52.329Z</time>
      </trkpt>
      <trkpt lat="47.04761" lon="9.04059">
        <ele>564</ele>
        <time>2021-08-02T08:23:53.330Z</time>
      </trkpt>
      <trkpt lat="47.04761" lon="9.04058">
        <ele>565</ele>
        <time>2021-08-02T08:23:54.329Z</time>
      </trkpt>
      <trkpt lat="47.04761" lon="9.04058">
        <ele>565</ele>
        <time>2021-08-02T08:23:55.330Z</time>
      </trkpt>
      <trkpt lat="47.04761" lon="9.04059">
        <ele>565</ele>
        <time>2021-08-02T08:23:56.329Z</time>
      </trkpt>
      <trkpt lat="47.04761" lon="9.04059">
        <ele>565</ele>
        <time>2021-08-02T08:23:57.330Z</time>
      </trkpt>
      <trkpt lat="47.04761" lon="9.04059">
        <ele>565</ele>
        <time>2021-08-02T08:23:58.329Z</time>
      </trkpt>
      <trkpt lat="47.04761" lon="9.04058">
        <ele>566</ele>
        <time>2021-08-02T08:23:59.330Z</time>
      </trkpt>
      <trkpt lat="47.0476" lon="9.04057">
        <ele>566</ele>
        <time>2021-08-02T08:24:00.330Z</time>
      </trkpt>
      <trkpt lat="47.0476" lon="9.04057">
        <ele>566</ele>
        <time>2021-08-02T08:24:01.329Z</time>
      </trkpt>
      <trkpt lat="47.0476" lon="9.04056">
        <ele>566</ele>
        <time>2021-08-02T08:24:02.330Z</time>
      </trkpt>
      <trkpt lat="47.0476" lon="9.04055">
        <ele>566</ele>
        <time>2021-08-02T08:24:03.330Z</time>
      </trkpt>
      <trkpt lat="47.04761" lon="9.04054">
        <ele>566</ele>
        <time>2021-08-02T08:24:04.329Z</time>
      </trkpt>
      <trkpt lat="47.04761" lon="9.04053">
        <ele>566</ele>
        <time>2021-08-02T08:24:05.329Z</time>
      </trkpt>
      <trkpt lat="47.04762" lon="9.04052">
        <ele>565</ele>
        <time>2021-08-02T08:24:06.330Z</time>
      </trkpt>
      <trkpt lat="47.04761" lon="9.04051">
        <ele>565</ele>
        <time>2021-08-02T08:24:07.330Z</time>
      </trkpt>
      <trkpt lat="47.0476" lon="9.0405">
        <ele>565</ele>
        <time>2021-08-02T08:24:08.329Z</time>
      </trkpt>
      <trkpt lat="47.0476" lon="9.0405">
        <ele>565</ele>
        <time>2021-08-02T08:24:09.330Z</time>
      </trkpt>
      <trkpt lat="47.04759" lon="9.04049">
        <ele>565</ele>
        <time>2021-08-02T08:24:10.330Z</time>
      </trkpt>
      <trkpt lat="47.04759" lon="9.04049">
        <ele>565</ele>
        <time>2021-08-02T08:24:11.330Z</time>
      </trkpt>
      <trkpt lat="47.04758" lon="9.04049">
        <ele>566</ele>
        <time>2021-08-02T08:24:12.330Z</time>
      </trkpt>
      <trkpt lat="47.04758" lon="9.04049">
        <ele>566</ele>
        <time>2021-08-02T08:24:13.329Z</time>
      </trkpt>
      <trkpt lat="47.04757" lon="9.04049">
        <ele>566</ele>
        <time>2021-08-02T08:24:14.330Z</time>
      </trkpt>
      <trkpt lat="47.04756" lon="9.0405">
        <ele>567</ele>
        <time>2021-08-02T08:24:15.329Z</time>
      </trkpt>
      <trkpt lat="47.04756" lon="9.0405">
        <ele>567</ele>
        <time>2021-08-02T08:24:16.330Z</time>
      </trkpt>
      <trkpt lat="47.04755" lon="9.0405">
        <ele>567</ele>
        <time>2021-08-02T08:24:17.330Z</time>
      </trkpt>
      <trkpt lat="47.04755" lon="9.0405">
        <ele>567</ele>
        <time>2021-08-02T08:24:18.329Z</time>
      </trkpt>
      <trkpt lat="47.04755" lon="9.0405">
        <ele>567</ele>
        <time>2021-08-02T08:24:19.329Z</time>
      </trkpt>
      <trkpt lat="47.04754" lon="9.04051">
        <ele>567</ele>
        <time>2021-08-02T08:24:20.330Z</time>
      </trkpt>
      <trkpt lat="47.04754" lon="9.04051">
        <ele>567</ele>
        <time>2021-08-02T08:24:21.330Z</time>
      </trkpt>
      <trkpt lat="47.04754" lon="9.04051">
        <ele>566</ele>
        <time>2021-08-02T08:24:22.329Z</time>
      </trkpt>
      <trkpt lat="47.04763" lon="9.04052">
        <ele>561</ele>
        <time>2021-08-02T08:24:23.332Z</time>
      </trkpt>
      <trkpt lat="47.04763" lon="9.04053">
        <ele>561</ele>
        <time>2021-08-02T08:24:24.332Z</time>
      </trkpt>
      <trkpt lat="47.04764" lon="9.04053">
        <ele>561</ele>
        <time>2021-08-02T08:24:25.331Z</time>
      </trkpt>
      <trkpt lat="47.04763" lon="9.04052">
        <ele>561</ele>
        <time>2021-08-02T08:24:26.332Z</time>
      </trkpt>
      <trkpt lat="47.04766" lon="9.04051">
        <ele>562</ele>
        <time>2021-08-02T08:24:27.333Z</time>
      </trkpt>
      <trkpt lat="47.04766" lon="9.04051">
        <ele>562</ele>
        <time>2021-08-02T08:24:28.333Z</time>
      </trkpt>
      <trkpt lat="47.04765" lon="9.04051">
        <ele>563</ele>
        <time>2021-08-02T08:24:29.332Z</time>
      </trkpt>
      <trkpt lat="47.04765" lon="9.0405">
        <ele>563</ele>
        <time>2021-08-02T08:24:30.333Z</time>
      </trkpt>
      <trkpt lat="47.04765" lon="9.0405">
        <ele>564</ele>
        <time>2021-08-02T08:24:31.332Z</time>
      </trkpt>
      <trkpt lat="47.04764" lon="9.04049">
        <ele>565</ele>
        <time>2021-08-02T08:24:32.333Z</time>
      </trkpt>
      <trkpt lat="47.04764" lon="9.04049">
        <ele>565</ele>
        <time>2021-08-02T08:24:33.333Z</time>
      </trkpt>
      <trkpt lat="47.04763" lon="9.04048">
        <ele>565</ele>
        <time>2021-08-02T08:24:34.333Z</time>
      </trkpt>
      <trkpt lat="47.04762" lon="9.04047">
        <ele>566</ele>
        <time>2021-08-02T08:24:35.333Z</time>
      </trkpt>
      <trkpt lat="47.04761" lon="9.04046">
        <ele>566</ele>
        <time>2021-08-02T08:24:36.333Z</time>
      </trkpt>
      <trkpt lat="47.0476" lon="9.04046">
        <ele>566</ele>
        <time>2021-08-02T08:24:37.333Z</time>
      </trkpt>
      <trkpt lat="47.0476" lon="9.04045">
        <ele>567</ele>
        <time>2021-08-02T08:24:38.333Z</time>
      </trkpt>
      <trkpt lat="47.0476" lon="9.04045">
        <ele>567</ele>
        <time>2021-08-02T08:24:39.333Z</time>
      </trkpt>
      <trkpt lat="47.0476" lon="9.04044">
        <ele>568</ele>
        <time>2021-08-02T08:24:40.333Z</time>
      </trkpt>
      <trkpt lat="47.0476" lon="9.04043">
        <ele>568</ele>
        <time>2021-08-02T08:24:41.332Z</time>
      </trkpt>
      <trkpt lat="47.0476" lon="9.04042">
        <ele>568</ele>
        <time>2021-08-02T08:24:42.333Z</time>
      </trkpt>
      <trkpt lat="47.0476" lon="9.04041">
        <ele>569</ele>
        <time>2021-08-02T08:24:43.333Z</time>
      </trkpt>
      <trkpt lat="47.0476" lon="9.0404">
        <ele>569</ele>
        <time>2021-08-02T08:24:44.333Z</time>
      </trkpt>
      <trkpt lat="47.04759" lon="9.04039">
        <ele>570</ele>
        <time>2021-08-02T08:24:45.332Z</time>
      </trkpt>
      <trkpt lat="47.04759" lon="9.04039">
        <ele>570</ele>
        <time>2021-08-02T08:24:46.333Z</time>
      </trkpt>
      <trkpt lat="47.04758" lon="9.04038">
        <ele>571</ele>
        <time>2021-08-02T08:24:47.333Z</time>
      </trkpt>
      <trkpt lat="47.04758" lon="9.04038">
        <ele>571</ele>
        <time>2021-08-02T08:24:48.333Z</time>
      </trkpt>
      <trkpt lat="47.04757" lon="9.04037">
        <ele>571</ele>
        <time>2021-08-02T08:24:49.333Z</time>
      </trkpt>
      <trkpt lat="47.04756" lon="9.04036">
        <ele>572</ele>
        <time>2021-08-02T08:24:50.332Z</time>
      </trkpt>
      <trkpt lat="47.04756" lon="9.04035">
        <ele>573</ele>
        <time>2021-08-02T08:24:51.333Z</time>
      </trkpt>
      <trkpt lat="47.04755" lon="9.04034">
        <ele>574</ele>
        <time>2021-08-02T08:24:52.333Z</time>
      </trkpt>
      <trkpt lat="47.04755" lon="9.04033">
        <ele>575</ele>
        <time>2021-08-02T08:24:53.332Z</time>
      </trkpt>
      <trkpt lat="47.04756" lon="9.04032">
        <ele>576</ele>
        <time>2021-08-02T08:24:54.332Z</time>
      </trkpt>
      <trkpt lat="47.04757" lon="9.04031">
        <ele>577</ele>
        <time>2021-08-02T08:24:55.332Z</time>
      </trkpt>
      <trkpt lat="47.04758" lon="9.04029">
        <ele>578</ele>
        <time>2021-08-02T08:24:56.332Z</time>
      </trkpt>
      <trkpt lat="47.04757" lon="9.04027">
        <ele>579</ele>
        <time>2021-08-02T08:24:57.333Z</time>
      </trkpt>
      <trkpt lat="47.04757" lon="9.04025">
        <ele>579</ele>
        <time>2021-08-02T08:24:58.332Z</time>
      </trkpt>
      <trkpt lat="47.04755" lon="9.04024">
        <ele>580</ele>
        <time>2021-08-02T08:24:59.333Z</time>
      </trkpt>
      <trkpt lat="47.04754" lon="9.04022">
        <ele>581</ele>
        <time>2021-08-02T08:25:00.333Z</time>
      </trkpt>
      <trkpt lat="47.04754" lon="9.04021">
        <ele>582</ele>
        <time>2021-08-02T08:25:01.332Z</time>
      </trkpt>
      <trkpt lat="47.04754" lon="9.04021">
        <ele>583</ele>
        <time>2021-08-02T08:25:02.333Z</time>
      </trkpt>
      <trkpt lat="47.04753" lon="9.0402">
        <ele>584</ele>
        <time>2021-08-02T08:25:03.332Z</time>
      </trkpt>
      <trkpt lat="47.04753" lon="9.04019">
        <ele>585</ele>
        <time>2021-08-02T08:25:04.332Z</time>
      </trkpt>
      <trkpt lat="47.04752" lon="9.04019">
        <ele>585</ele>
        <time>2021-08-02T08:25:05.333Z</time>
      </trkpt>
      <trkpt lat="47.04752" lon="9.04018">
        <ele>586</ele>
        <time>2021-08-02T08:25:06.333Z</time>
      </trkpt>
      <trkpt lat="47.04751" lon="9.04017">
        <ele>587</ele>
        <time>2021-08-02T08:25:07.333Z</time>
      </trkpt>
      <trkpt lat="47.0475" lon="9.04015">
        <ele>588</ele>
        <time>2021-08-02T08:25:08.333Z</time>
      </trkpt>
      <trkpt lat="47.0475" lon="9.04014">
        <ele>589</ele>
        <time>2021-08-02T08:25:09.332Z</time>
      </trkpt>
      <trkpt lat="47.04749" lon="9.04013">
        <ele>589</ele>
        <time>2021-08-02T08:25:10.333Z</time>
      </trkpt>
      <trkpt lat="47.04748" lon="9.04011">
        <ele>590</ele>
        <time>2021-08-02T08:25:11.332Z</time>
      </trkpt>
      <trkpt lat="47.04747" lon="9.0401">
        <ele>591</ele>
        <time>2021-08-02T08:25:12.333Z</time>
      </trkpt>
      <trkpt lat="47.04746" lon="9.04009">
        <ele>591</ele>
        <time>2021-08-02T08:25:13.333Z</time>
      </trkpt>
      <trkpt lat="47.04746" lon="9.04008">
        <ele>591</ele>
        <time>2021-08-02T08:25:14.332Z</time>
      </trkpt>
      <trkpt lat="47.04745" lon="9.04007">
        <ele>592</ele>
        <time>2021-08-02T08:25:15.333Z</time>
      </trkpt>
      <trkpt lat="47.04745" lon="9.04006">
        <ele>592</ele>
        <time>2021-08-02T08:25:16.333Z</time>
      </trkpt>
      <trkpt lat="47.04745" lon="9.04005">
        <ele>592</ele>
        <time>2021-08-02T08:25:17.333Z</time>
      </trkpt>
      <trkpt lat="47.04744" lon="9.04004">
        <ele>592</ele>
        <time>2021-08-02T08:25:18.333Z</time>
      </trkpt>
      <trkpt lat="47.04744" lon="9.04003">
        <ele>592</ele>
        <time>2021-08-02T08:25:19.332Z</time>
      </trkpt>
      <trkpt lat="47.04744" lon="9.04001">
        <ele>592</ele>
        <time>2021-08-02T08:25:20.333Z</time>
      </trkpt>
      <trkpt lat="47.04744" lon="9.04">
        <ele>592</ele>
        <time>2021-08-02T08:25:21.333Z</time>
      </trkpt>
      <trkpt lat="47.04743" lon="9.03998">
        <ele>592</ele>
        <time>2021-08-02T08:25:22.333Z</time>
      </trkpt>
      <trkpt lat="47.04742" lon="9.03998">
        <ele>592</ele>
        <time>2021-08-02T08:25:23.332Z</time>
      </trkpt>
      <trkpt lat="47.04741" lon="9.03997">
        <ele>592</ele>
        <time>2021-08-02T08:25:24.333Z</time>
      </trkpt>
      <trkpt lat="47.0474" lon="9.03996">
        <ele>591</ele>
        <time>2021-08-02T08:25:25.332Z</time>
      </trkpt>
      <trkpt lat="47.0474" lon="9.03995">
        <ele>591</ele>
        <time>2021-08-02T08:25:26.332Z</time>
      </trkpt>
      <trkpt lat="47.04741" lon="9.03993">
        <ele>590</ele>
        <time>2021-08-02T08:25:27.333Z</time>
      </trkpt>
      <trkpt lat="47.0474" lon="9.0399">
        <ele>590</ele>
        <time>2021-08-02T08:25:28.332Z</time>
      </trkpt>
      <trkpt lat="47.0474" lon="9.03987">
        <ele>590</ele>
        <time>2021-08-02T08:25:29.332Z</time>
      </trkpt>
      <trkpt lat="47.0474" lon="9.03985">
        <ele>590</ele>
        <time>2021-08-02T08:25:30.332Z</time>
      </trkpt>
      <trkpt lat="47.0474" lon="9.03984">
        <ele>590</ele>
        <time>2021-08-02T08:25:31.333Z</time>
      </trkpt>
      <trkpt lat="47.04739" lon="9.03982">
        <ele>590</ele>
        <time>2021-08-02T08:25:32.332Z</time>
      </trkpt>
      <trkpt lat="47.04738" lon="9.03981">
        <ele>590</ele>
        <time>2021-08-02T08:25:33.332Z</time>
      </trkpt>
      <trkpt lat="47.04738" lon="9.03979">
        <ele>591</ele>
        <time>2021-08-02T08:25:34.333Z</time>
      </trkpt>
      <trkpt lat="47.04737" lon="9.03978">
        <ele>591</ele>
        <time>2021-08-02T08:25:35.333Z</time>
      </trkpt>
      <trkpt lat="47.04737" lon="9.03976">
        <ele>591</ele>
        <time>2021-08-02T08:25:36.333Z</time>
      </trkpt>
      <trkpt lat="47.04736" lon="9.03975">
        <ele>592</ele>
        <time>2021-08-02T08:25:37.332Z</time>
      </trkpt>
      <trkpt lat="47.04736" lon="9.03972">
        <ele>592</ele>
        <time>2021-08-02T08:25:38.332Z</time>
      </trkpt>
      <trkpt lat="47.04735" lon="9.0397">
        <ele>592</ele>
        <time>2021-08-02T08:25:39.333Z</time>
      </trkpt>
      <trkpt lat="47.04734" lon="9.03968">
        <ele>593</ele>
        <time>2021-08-02T08:25:40.333Z</time>
      </trkpt>
      <trkpt lat="47.04733" lon="9.03966">
        <ele>593</ele>
        <time>2021-08-02T08:25:41.333Z</time>
      </trkpt>
      <trkpt lat="47.04733" lon="9.03962">
        <ele>594</ele>
        <time>2021-08-02T08:25:42.332Z</time>
      </trkpt>
      <trkpt lat="47.04733" lon="9.03959">
        <ele>594</ele>
        <time>2021-08-02T08:25:43.332Z</time>
      </trkpt>
      <trkpt lat="47.04733" lon="9.03957">
        <ele>595</ele>
        <time>2021-08-02T08:25:44.333Z</time>
      </trkpt>
      <trkpt lat="47.04732" lon="9.03955">
        <ele>595</ele>
        <time>2021-08-02T08:25:45.333Z</time>
      </trkpt>
      <trkpt lat="47.0473" lon="9.03953">
        <ele>596</ele>
        <time>2021-08-02T08:25:46.333Z</time>
      </trkpt>
      <trkpt lat="47.04729" lon="9.03952">
        <ele>596</ele>
        <time>2021-08-02T08:25:47.333Z</time>
      </trkpt>
      <trkpt lat="47.04728" lon="9.03951">
        <ele>596</ele>
        <time>2021-08-02T08:25:48.332Z</time>
      </trkpt>
      <trkpt lat="47.04728" lon="9.0395">
        <ele>596</ele>
        <time>2021-08-02T08:25:49.332Z</time>
      </trkpt>
      <trkpt lat="47.04728" lon="9.03948">
        <ele>597</ele>
        <time>2021-08-02T08:25:50.332Z</time>
      </trkpt>
      <trkpt lat="47.04728" lon="9.03947">
        <ele>597</ele>
        <time>2021-08-02T08:25:51.333Z</time>
      </trkpt>
      <trkpt lat="47.04728" lon="9.03946">
        <ele>598</ele>
        <time>2021-08-02T08:25:52.333Z</time>
      </trkpt>
      <trkpt lat="47.04728" lon="9.03945">
        <ele>598</ele>
        <time>2021-08-02T08:25:53.333Z</time>
      </trkpt>
      <trkpt lat="47.04729" lon="9.03944">
        <ele>599</ele>
        <time>2021-08-02T08:25:54.333Z</time>
      </trkpt>
      <trkpt lat="47.04729" lon="9.03943">
        <ele>600</ele>
        <time>2021-08-02T08:25:55.333Z</time>
      </trkpt>
      <trkpt lat="47.04728" lon="9.03941">
        <ele>600</ele>
        <time>2021-08-02T08:25:56.332Z</time>
      </trkpt>
      <trkpt lat="47.04727" lon="9.0394">
        <ele>601</ele>
        <time>2021-08-02T08:25:57.333Z</time>
      </trkpt>
      <trkpt lat="47.04726" lon="9.03939">
        <ele>601</ele>
        <time>2021-08-02T08:25:58.332Z</time>
      </trkpt>
      <trkpt lat="47.04725" lon="9.03938">
        <ele>601</ele>
        <time>2021-08-02T08:25:59.333Z</time>
      </trkpt>
      <trkpt lat="47.04725" lon="9.03937">
        <ele>602</ele>
        <time>2021-08-02T08:26:00.333Z</time>
      </trkpt>
      <trkpt lat="47.04724" lon="9.03936">
        <ele>602</ele>
        <time>2021-08-02T08:26:01.333Z</time>
      </trkpt>
      <trkpt lat="47.04724" lon="9.03935">
        <ele>602</ele>
        <time>2021-08-02T08:26:02.333Z</time>
      </trkpt>
      <trkpt lat="47.04724" lon="9.03935">
        <ele>602</ele>
        <time>2021-08-02T08:26:03.333Z</time>
      </trkpt>
      <trkpt lat="47.04723" lon="9.03934">
        <ele>602</ele>
        <time>2021-08-02T08:26:04.332Z</time>
      </trkpt>
      <trkpt lat="47.04723" lon="9.03933">
        <ele>602</ele>
        <time>2021-08-02T08:26:05.333Z</time>
      </trkpt>
      <trkpt lat="47.04723" lon="9.03931">
        <ele>602</ele>
        <time>2021-08-02T08:26:06.333Z</time>
      </trkpt>
      <trkpt lat="47.04723" lon="9.0393">
        <ele>602</ele>
        <time>2021-08-02T08:26:07.333Z</time>
      </trkpt>
      <trkpt lat="47.04722" lon="9.03929">
        <ele>602</ele>
        <time>2021-08-02T08:26:08.333Z</time>
      </trkpt>
      <trkpt lat="47.04722" lon="9.03928">
        <ele>602</ele>
        <time>2021-08-02T08:26:09.333Z</time>
      </trkpt>
      <trkpt lat="47.04721" lon="9.03927">
        <ele>603</ele>
        <time>2021-08-02T08:26:10.333Z</time>
      </trkpt>
      <trkpt lat="47.04721" lon="9.03926">
        <ele>603</ele>
        <time>2021-08-02T08:26:11.332Z</time>
      </trkpt>
      <trkpt lat="47.04721" lon="9.03925">
        <ele>603</ele>
        <time>2021-08-02T08:26:12.333Z</time>
      </trkpt>
      <trkpt lat="47.04721" lon="9.03924">
        <ele>603</ele>
        <time>2021-08-02T08:26:13.333Z</time>
      </trkpt>
      <trkpt lat="47.04721" lon="9.03922">
        <ele>604</ele>
        <time>2021-08-02T08:26:14.333Z</time>
      </trkpt>
      <trkpt lat="47.04721" lon="9.03921">
        <ele>604</ele>
        <time>2021-08-02T08:26:15.333Z</time>
      </trkpt>
      <trkpt lat="47.04722" lon="9.0392">
        <ele>604</ele>
        <time>2021-08-02T08:26:16.332Z</time>
      </trkpt>
      <trkpt lat="47.04721" lon="9.03919">
        <ele>604</ele>
        <time>2021-08-02T08:26:17.332Z</time>
      </trkpt>
      <trkpt lat="47.04721" lon="9.03916">
        <ele>604</ele>
        <time>2021-08-02T08:26:18.333Z</time>
      </trkpt>
      <trkpt lat="47.04721" lon="9.03914">
        <ele>604</ele>
        <time>2021-08-02T08:26:19.333Z</time>
      </trkpt>
      <trkpt lat="47.04721" lon="9.03913">
        <ele>604</ele>
        <time>2021-08-02T08:26:20.333Z</time>
      </trkpt>
      <trkpt lat="47.04721" lon="9.03912">
        <ele>604</ele>
        <time>2021-08-02T08:26:21.333Z</time>
      </trkpt>
      <trkpt lat="47.04721" lon="9.03911">
        <ele>605</ele>
        <time>2021-08-02T08:26:22.332Z</time>
      </trkpt>
      <trkpt lat="47.04721" lon="9.03909">
        <ele>605</ele>
        <time>2021-08-02T08:26:23.332Z</time>
      </trkpt>
      <trkpt lat="47.0472" lon="9.03908">
        <ele>605</ele>
        <time>2021-08-02T08:26:24.333Z</time>
      </trkpt>
      <trkpt lat="47.04719" lon="9.03907">
        <ele>606</ele>
        <time>2021-08-02T08:26:25.332Z</time>
      </trkpt>
      <trkpt lat="47.04719" lon="9.03906">
        <ele>606</ele>
        <time>2021-08-02T08:26:26.333Z</time>
      </trkpt>
      <trkpt lat="47.04719" lon="9.03905">
        <ele>607</ele>
        <time>2021-08-02T08:26:27.332Z</time>
      </trkpt>
      <trkpt lat="47.0472" lon="9.03904">
        <ele>608</ele>
        <time>2021-08-02T08:26:28.333Z</time>
      </trkpt>
      <trkpt lat="47.04721" lon="9.03903">
        <ele>609</ele>
        <time>2021-08-02T08:26:29.333Z</time>
      </trkpt>
      <trkpt lat="47.04721" lon="9.03902">
        <ele>609</ele>
        <time>2021-08-02T08:26:30.333Z</time>
      </trkpt>
      <trkpt lat="47.04721" lon="9.03901">
        <ele>610</ele>
        <time>2021-08-02T08:26:31.333Z</time>
      </trkpt>
      <trkpt lat="47.04719" lon="9.039">
        <ele>610</ele>
        <time>2021-08-02T08:26:32.332Z</time>
      </trkpt>
      <trkpt lat="47.04718" lon="9.039">
        <ele>610</ele>
        <time>2021-08-02T08:26:33.332Z</time>
      </trkpt>
      <trkpt lat="47.04718" lon="9.03898">
        <ele>610</ele>
        <time>2021-08-02T08:26:34.333Z</time>
      </trkpt>
      <trkpt lat="47.04717" lon="9.03897">
        <ele>611</ele>
        <time>2021-08-02T08:26:35.333Z</time>
      </trkpt>
      <trkpt lat="47.04717" lon="9.03896">
        <ele>611</ele>
        <time>2021-08-02T08:26:36.333Z</time>
      </trkpt>
      <trkpt lat="47.04717" lon="9.03895">
        <ele>611</ele>
        <time>2021-08-02T08:26:37.333Z</time>
      </trkpt>
      <trkpt lat="47.04716" lon="9.03894">
        <ele>610</ele>
        <time>2021-08-02T08:26:38.334Z</time>
      </trkpt>
      <trkpt lat="47.04716" lon="9.03893">
        <ele>610</ele>
        <time>2021-08-02T08:26:39.334Z</time>
      </trkpt>
      <trkpt lat="47.04715" lon="9.03892">
        <ele>609</ele>
        <time>2021-08-02T08:26:40.334Z</time>
      </trkpt>
      <trkpt lat="47.04715" lon="9.03891">
        <ele>609</ele>
        <time>2021-08-02T08:26:41.334Z</time>
      </trkpt>
      <trkpt lat="47.04715" lon="9.0389">
        <ele>608</ele>
        <time>2021-08-02T08:26:42.334Z</time>
      </trkpt>
      <trkpt lat="47.04714" lon="9.03889">
        <ele>609</ele>
        <time>2021-08-02T08:26:43.334Z</time>
      </trkpt>
      <trkpt lat="47.04714" lon="9.03888">
        <ele>609</ele>
        <time>2021-08-02T08:26:44.334Z</time>
      </trkpt>
      <trkpt lat="47.04713" lon="9.03886">
        <ele>609</ele>
        <time>2021-08-02T08:26:45.334Z</time>
      </trkpt>
      <trkpt lat="47.04713" lon="9.03884">
        <ele>609</ele>
        <time>2021-08-02T08:26:46.334Z</time>
      </trkpt>
      <trkpt lat="47.04713" lon="9.03883">
        <ele>609</ele>
        <time>2021-08-02T08:26:47.334Z</time>
      </trkpt>
      <trkpt lat="47.04711" lon="9.03881">
        <ele>609</ele>
        <time>2021-08-02T08:26:48.333Z</time>
      </trkpt>
      <trkpt lat="47.0471" lon="9.03879">
        <ele>608</ele>
        <time>2021-08-02T08:26:49.334Z</time>
      </trkpt>
      <trkpt lat="47.04709" lon="9.03878">
        <ele>607</ele>
        <time>2021-08-02T08:26:50.334Z</time>
      </trkpt>
      <trkpt lat="47.04708" lon="9.03877">
        <ele>607</ele>
        <time>2021-08-02T08:26:51.334Z</time>
      </trkpt>
      <trkpt lat="47.04708" lon="9.03875">
        <ele>606</ele>
        <time>2021-08-02T08:26:52.334Z</time>
      </trkpt>
      <trkpt lat="47.04707" lon="9.03874">
        <ele>605</ele>
        <time>2021-08-02T08:26:53.334Z</time>
      </trkpt>
      <trkpt lat="47.04706" lon="9.03873">
        <ele>605</ele>
        <time>2021-08-02T08:26:54.334Z</time>
      </trkpt>
      <trkpt lat="47.04705" lon="9.03871">
        <ele>604</ele>
        <time>2021-08-02T08:26:55.334Z</time>
      </trkpt>
      <trkpt lat="47.04703" lon="9.03869">
        <ele>603</ele>
        <time>2021-08-02T08:26:56.334Z</time>
      </trkpt>
      <trkpt lat="47.04701" lon="9.03868">
        <ele>603</ele>
        <time>2021-08-02T08:26:57.334Z</time>
      </trkpt>
      <trkpt lat="47.047" lon="9.03868">
        <ele>602</ele>
        <time>2021-08-02T08:26:58.334Z</time>
      </trkpt>
      <trkpt lat="47.047" lon="9.03868">
        <ele>602</ele>
        <time>2021-08-02T08:26:59.334Z</time>
      </trkpt>
      <trkpt lat="47.04696" lon="9.0387">
        <ele>599</ele>
        <time>2021-08-02T08:27:00.334Z</time>
      </trkpt>
      <trkpt lat="47.04695" lon="9.03871">
        <ele>599</ele>
        <time>2021-08-02T08:27:01.333Z</time>
      </trkpt>
      <trkpt lat="47.04694" lon="9.03872">
        <ele>598</ele>
        <time>2021-08-02T08:27:02.333Z</time>
      </trkpt>
      <trkpt lat="47.04692" lon="9.03873">
        <ele>596</ele>
        <time>2021-08-02T08:27:03.333Z</time>
      </trkpt>
      <trkpt lat="47.04691" lon="9.03873">
        <ele>595</ele>
        <time>2021-08-02T08:27:04.333Z</time>
      </trkpt>
      <trkpt lat="47.04686" lon="9.03873">
        <ele>574</ele>
        <time>2021-08-02T08:27:05.334Z</time>
      </trkpt>
      <trkpt lat="47.04687" lon="9.03871">
        <ele>573</ele>
        <time>2021-08-02T08:27:06.334Z</time>
      </trkpt>
      <trkpt lat="47.04684" lon="9.03872">
        <ele>577</ele>
        <time>2021-08-02T08:27:07.333Z</time>
      </trkpt>
      <trkpt lat="47.04685" lon="9.03871">
        <ele>577</ele>
        <time>2021-08-02T08:27:08.334Z</time>
      </trkpt>
      <trkpt lat="47.04685" lon="9.0387">
        <ele>577</ele>
        <time>2021-08-02T08:27:09.333Z</time>
      </trkpt>
      <trkpt lat="47.04685" lon="9.03868">
        <ele>577</ele>
        <time>2021-08-02T08:27:10.333Z</time>
      </trkpt>
      <trkpt lat="47.04685" lon="9.03868">
        <ele>577</ele>
        <time>2021-08-02T08:27:11.334Z</time>
      </trkpt>
      <trkpt lat="47.04686" lon="9.03867">
        <ele>577</ele>
        <time>2021-08-02T08:27:12.334Z</time>
      </trkpt>
      <trkpt lat="47.04686" lon="9.03867">
        <ele>577</ele>
        <time>2021-08-02T08:27:13.333Z</time>
      </trkpt>
      <trkpt lat="47.04686" lon="9.03867">
        <ele>577</ele>
        <time>2021-08-02T08:27:14.334Z</time>
      </trkpt>
      <trkpt lat="47.04686" lon="9.03868">
        <ele>577</ele>
        <time>2021-08-02T08:27:15.333Z</time>
      </trkpt>
      <trkpt lat="47.04686" lon="9.03868">
        <ele>577</ele>
        <time>2021-08-02T08:27:16.334Z</time>
      </trkpt>
      <trkpt lat="47.04685" lon="9.03868">
        <ele>577</ele>
        <time>2021-08-02T08:27:17.333Z</time>
      </trkpt>
      <trkpt lat="47.04685" lon="9.03867">
        <ele>577</ele>
        <time>2021-08-02T08:27:18.333Z</time>
      </trkpt>
      <trkpt lat="47.04685" lon="9.03867">
        <ele>577</ele>
        <time>2021-08-02T08:27:19.334Z</time>
      </trkpt>
      <trkpt lat="47.04683" lon="9.03869">
        <ele>577</ele>
        <time>2021-08-02T08:27:20.334Z</time>
      </trkpt>
      <trkpt lat="47.04683" lon="9.0387">
        <ele>577</ele>
        <time>2021-08-02T08:27:21.335Z</time>
      </trkpt>
      <trkpt lat="47.04682" lon="9.0387">
        <ele>577</ele>
        <time>2021-08-02T08:27:22.335Z</time>
      </trkpt>
      <trkpt lat="47.04683" lon="9.03869">
        <ele>577</ele>
        <time>2021-08-02T08:27:23.335Z</time>
      </trkpt>
      <trkpt lat="47.04682" lon="9.03868">
        <ele>576</ele>
        <time>2021-08-02T08:27:24.335Z</time>
      </trkpt>
      <trkpt lat="47.04682" lon="9.03867">
        <ele>576</ele>
        <time>2021-08-02T08:27:25.335Z</time>
      </trkpt>
      <trkpt lat="47.04682" lon="9.03864">
        <ele>576</ele>
        <time>2021-08-02T08:27:26.335Z</time>
      </trkpt>
      <trkpt lat="47.04682" lon="9.03863">
        <ele>576</ele>
        <time>2021-08-02T08:27:27.336Z</time>
      </trkpt>
      <trkpt lat="47.04682" lon="9.03862">
        <ele>576</ele>
        <time>2021-08-02T08:27:28.336Z</time>
      </trkpt>
      <trkpt lat="47.04682" lon="9.03861">
        <ele>577</ele>
        <time>2021-08-02T08:27:29.336Z</time>
      </trkpt>
      <trkpt lat="47.04681" lon="9.03859">
        <ele>577</ele>
        <time>2021-08-02T08:27:30.336Z</time>
      </trkpt>
      <trkpt lat="47.04681" lon="9.03858">
        <ele>577</ele>
        <time>2021-08-02T08:27:31.335Z</time>
      </trkpt>
      <trkpt lat="47.04681" lon="9.03857">
        <ele>577</ele>
        <time>2021-08-02T08:27:32.336Z</time>
      </trkpt>
      <trkpt lat="47.04681" lon="9.03857">
        <ele>577</ele>
        <time>2021-08-02T08:27:33.336Z</time>
      </trkpt>
      <trkpt lat="47.04681" lon="9.03857">
        <ele>576</ele>
        <time>2021-08-02T08:27:34.336Z</time>
      </trkpt>
      <trkpt lat="47.04682" lon="9.03856">
        <ele>576</ele>
        <time>2021-08-02T08:27:35.335Z</time>
      </trkpt>
      <trkpt lat="47.04683" lon="9.03856">
        <ele>576</ele>
        <time>2021-08-02T08:27:36.335Z</time>
      </trkpt>
      <trkpt lat="47.04684" lon="9.03856">
        <ele>575</ele>
        <time>2021-08-02T08:27:37.336Z</time>
      </trkpt>
      <trkpt lat="47.04684" lon="9.03854">
        <ele>575</ele>
        <time>2021-08-02T08:27:38.336Z</time>
      </trkpt>
      <trkpt lat="47.04685" lon="9.03852">
        <ele>574</ele>
        <time>2021-08-02T08:27:39.336Z</time>
      </trkpt>
      <trkpt lat="47.04685" lon="9.0385">
        <ele>574</ele>
        <time>2021-08-02T08:27:40.336Z</time>
      </trkpt>
      <trkpt lat="47.04684" lon="9.03849">
        <ele>574</ele>
        <time>2021-08-02T08:27:41.335Z</time>
      </trkpt>
      <trkpt lat="47.04684" lon="9.03848">
        <ele>574</ele>
        <time>2021-08-02T08:27:42.336Z</time>
      </trkpt>
      <trkpt lat="47.04684" lon="9.03847">
        <ele>574</ele>
        <time>2021-08-02T08:27:43.335Z</time>
      </trkpt>
      <trkpt lat="47.04684" lon="9.03846">
        <ele>574</ele>
        <time>2021-08-02T08:27:44.336Z</time>
      </trkpt>
      <trkpt lat="47.04684" lon="9.03845">
        <ele>574</ele>
        <time>2021-08-02T08:27:45.336Z</time>
      </trkpt>
      <trkpt lat="47.04684" lon="9.03845">
        <ele>574</ele>
        <time>2021-08-02T08:27:46.335Z</time>
      </trkpt>
      <trkpt lat="47.04682" lon="9.03844">
        <ele>574</ele>
        <time>2021-08-02T08:27:47.335Z</time>
      </trkpt>
      <trkpt lat="47.04681" lon="9.03843">
        <ele>574</ele>
        <time>2021-08-02T08:27:48.336Z</time>
      </trkpt>
      <trkpt lat="47.0468" lon="9.03841">
        <ele>574</ele>
        <time>2021-08-02T08:27:49.336Z</time>
      </trkpt>
      <trkpt lat="47.0468" lon="9.03841">
        <ele>574</ele>
        <time>2021-08-02T08:27:50.336Z</time>
      </trkpt>
      <trkpt lat="47.04679" lon="9.0384">
        <ele>573</ele>
        <time>2021-08-02T08:27:51.335Z</time>
      </trkpt>
      <trkpt lat="47.04679" lon="9.03839">
        <ele>573</ele>
        <time>2021-08-02T08:27:52.336Z</time>
      </trkpt>
      <trkpt lat="47.04678" lon="9.03839">
        <ele>572</ele>
        <time>2021-08-02T08:27:53.335Z</time>
      </trkpt>
      <trkpt lat="47.04678" lon="9.03838">
        <ele>572</ele>
        <time>2021-08-02T08:27:54.335Z</time>
      </trkpt>
      <trkpt lat="47.04678" lon="9.03837">
        <ele>571</ele>
        <time>2021-08-02T08:27:55.336Z</time>
      </trkpt>
      <trkpt lat="47.04677" lon="9.03836">
        <ele>571</ele>
        <time>2021-08-02T08:27:56.335Z</time>
      </trkpt>
      <trkpt lat="47.04677" lon="9.03836">
        <ele>571</ele>
        <time>2021-08-02T08:27:57.336Z</time>
      </trkpt>
      <trkpt lat="47.04676" lon="9.03835">
        <ele>570</ele>
        <time>2021-08-02T08:27:58.336Z</time>
      </trkpt>
      <trkpt lat="47.04675" lon="9.03834">
        <ele>570</ele>
        <time>2021-08-02T08:27:59.336Z</time>
      </trkpt>
      <trkpt lat="47.04674" lon="9.03834">
        <ele>570</ele>
        <time>2021-08-02T08:28:00.336Z</time>
      </trkpt>
      <trkpt lat="47.04674" lon="9.03833">
        <ele>569</ele>
        <time>2021-08-02T08:28:01.335Z</time>
      </trkpt>
      <trkpt lat="47.04673" lon="9.03832">
        <ele>569</ele>
        <time>2021-08-02T08:28:02.336Z</time>
      </trkpt>
      <trkpt lat="47.04672" lon="9.03831">
        <ele>568</ele>
        <time>2021-08-02T08:28:03.336Z</time>
      </trkpt>
      <trkpt lat="47.04671" lon="9.0383">
        <ele>568</ele>
        <time>2021-08-02T08:28:04.335Z</time>
      </trkpt>
      <trkpt lat="47.0467" lon="9.03829">
        <ele>568</ele>
        <time>2021-08-02T08:28:05.336Z</time>
      </trkpt>
      <trkpt lat="47.04669" lon="9.03829">
        <ele>568</ele>
        <time>2021-08-02T08:28:06.336Z</time>
      </trkpt>
      <trkpt lat="47.04669" lon="9.03828">
        <ele>569</ele>
        <time>2021-08-02T08:28:07.335Z</time>
      </trkpt>
      <trkpt lat="47.04669" lon="9.03827">
        <ele>569</ele>
        <time>2021-08-02T08:28:08.336Z</time>
      </trkpt>
      <trkpt lat="47.0467" lon="9.03826">
        <ele>569</ele>
        <time>2021-08-02T08:28:09.336Z</time>
      </trkpt>
      <trkpt lat="47.0467" lon="9.03825">
        <ele>569</ele>
        <time>2021-08-02T08:28:10.336Z</time>
      </trkpt>
      <trkpt lat="47.0467" lon="9.03824">
        <ele>569</ele>
        <time>2021-08-02T08:28:11.336Z</time>
      </trkpt>
      <trkpt lat="47.04669" lon="9.03823">
        <ele>569</ele>
        <time>2021-08-02T08:28:12.335Z</time>
      </trkpt>
      <trkpt lat="47.04669" lon="9.03822">
        <ele>569</ele>
        <time>2021-08-02T08:28:13.335Z</time>
      </trkpt>
      <trkpt lat="47.04668" lon="9.03821">
        <ele>570</ele>
        <time>2021-08-02T08:28:14.336Z</time>
      </trkpt>
      <trkpt lat="47.04668" lon="9.0382">
        <ele>570</ele>
        <time>2021-08-02T08:28:15.336Z</time>
      </trkpt>
      <trkpt lat="47.04667" lon="9.03818">
        <ele>570</ele>
        <time>2021-08-02T08:28:16.336Z</time>
      </trkpt>
      <trkpt lat="47.04667" lon="9.03818">
        <ele>571</ele>
        <time>2021-08-02T08:28:17.336Z</time>
      </trkpt>
      <trkpt lat="47.04667" lon="9.03817">
        <ele>572</ele>
        <time>2021-08-02T08:28:18.336Z</time>
      </trkpt>
      <trkpt lat="47.04667" lon="9.03816">
        <ele>573</ele>
        <time>2021-08-02T08:28:19.336Z</time>
      </trkpt>
      <trkpt lat="47.04668" lon="9.03814">
        <ele>574</ele>
        <time>2021-08-02T08:28:20.335Z</time>
      </trkpt>
      <trkpt lat="47.04668" lon="9.03814">
        <ele>574</ele>
        <time>2021-08-02T08:28:21.336Z</time>
      </trkpt>
      <trkpt lat="47.04667" lon="9.03814">
        <ele>575</ele>
        <time>2021-08-02T08:28:22.336Z</time>
      </trkpt>
      <trkpt lat="47.04666" lon="9.03814">
        <ele>576</ele>
        <time>2021-08-02T08:28:23.335Z</time>
      </trkpt>
      <trkpt lat="47.04664" lon="9.03814">
        <ele>576</ele>
        <time>2021-08-02T08:28:24.336Z</time>
      </trkpt>
      <trkpt lat="47.04662" lon="9.03812">
        <ele>576</ele>
        <time>2021-08-02T08:28:25.336Z</time>
      </trkpt>
      <trkpt lat="47.04661" lon="9.03811">
        <ele>576</ele>
        <time>2021-08-02T08:28:26.336Z</time>
      </trkpt>
      <trkpt lat="47.0466" lon="9.03811">
        <ele>577</ele>
        <time>2021-08-02T08:28:27.335Z</time>
      </trkpt>
      <trkpt lat="47.04659" lon="9.0381">
        <ele>577</ele>
        <time>2021-08-02T08:28:28.336Z</time>
      </trkpt>
      <trkpt lat="47.04659" lon="9.03809">
        <ele>578</ele>
        <time>2021-08-02T08:28:29.335Z</time>
      </trkpt>
      <trkpt lat="47.04659" lon="9.03807">
        <ele>579</ele>
        <time>2021-08-02T08:28:30.336Z</time>
      </trkpt>
      <trkpt lat="47.04658" lon="9.03806">
        <ele>579</ele>
        <time>2021-08-02T08:28:31.335Z</time>
      </trkpt>
      <trkpt lat="47.04658" lon="9.03805">
        <ele>580</ele>
        <time>2021-08-02T08:28:32.335Z</time>
      </trkpt>
      <trkpt lat="47.04658" lon="9.03804">
        <ele>581</ele>
        <time>2021-08-02T08:28:33.336Z</time>
      </trkpt>
      <trkpt lat="47.04657" lon="9.03802">
        <ele>582</ele>
        <time>2021-08-02T08:28:34.336Z</time>
      </trkpt>
      <trkpt lat="47.04656" lon="9.03801">
        <ele>583</ele>
        <time>2021-08-02T08:28:35.336Z</time>
      </trkpt>
      <trkpt lat="47.04656" lon="9.03799">
        <ele>584</ele>
        <time>2021-08-02T08:28:36.335Z</time>
      </trkpt>
      <trkpt lat="47.04655" lon="9.03798">
        <ele>584</ele>
        <time>2021-08-02T08:28:37.335Z</time>
      </trkpt>
      <trkpt lat="47.04655" lon="9.03796">
        <ele>585</ele>
        <time>2021-08-02T08:28:38.336Z</time>
      </trkpt>
      <trkpt lat="47.04655" lon="9.03795">
        <ele>586</ele>
        <time>2021-08-02T08:28:39.336Z</time>
      </trkpt>
      <trkpt lat="47.04654" lon="9.03795">
        <ele>587</ele>
        <time>2021-08-02T08:28:40.336Z</time>
      </trkpt>
      <trkpt lat="47.04654" lon="9.03794">
        <ele>589</ele>
        <time>2021-08-02T08:28:41.336Z</time>
      </trkpt>
      <trkpt lat="47.04654" lon="9.03793">
        <ele>590</ele>
        <time>2021-08-02T08:28:42.336Z</time>
      </trkpt>
      <trkpt lat="47.04654" lon="9.03793">
        <ele>591</ele>
        <time>2021-08-02T08:28:43.336Z</time>
      </trkpt>
      <trkpt lat="47.04652" lon="9.03792">
        <ele>593</ele>
        <time>2021-08-02T08:28:44.336Z</time>
      </trkpt>
      <trkpt lat="47.04651" lon="9.03791">
        <ele>594</ele>
        <time>2021-08-02T08:28:45.335Z</time>
      </trkpt>
      <trkpt lat="47.04651" lon="9.0379">
        <ele>594</ele>
        <time>2021-08-02T08:28:46.335Z</time>
      </trkpt>
      <trkpt lat="47.0465" lon="9.03789">
        <ele>595</ele>
        <time>2021-08-02T08:28:47.335Z</time>
      </trkpt>
      <trkpt lat="47.0465" lon="9.03788">
        <ele>595</ele>
        <time>2021-08-02T08:28:48.335Z</time>
      </trkpt>
      <trkpt lat="47.0465" lon="9.03787">
        <ele>596</ele>
        <time>2021-08-02T08:28:49.336Z</time>
      </trkpt>
      <trkpt lat="47.04649" lon="9.03786">
        <ele>596</ele>
        <time>2021-08-02T08:28:50.335Z</time>
      </trkpt>
      <trkpt lat="47.04648" lon="9.03786">
        <ele>597</ele>
        <time>2021-08-02T08:28:51.335Z</time>
      </trkpt>
      <trkpt lat="47.04648" lon="9.03785">
        <ele>598</ele>
        <time>2021-08-02T08:28:52.335Z</time>
      </trkpt>
      <trkpt lat="47.04647" lon="9.03785">
        <ele>598</ele>
        <time>2021-08-02T08:28:53.335Z</time>
      </trkpt>
      <trkpt lat="47.04646" lon="9.03784">
        <ele>599</ele>
        <time>2021-08-02T08:28:54.336Z</time>
      </trkpt>
      <trkpt lat="47.04645" lon="9.03783">
        <ele>600</ele>
        <time>2021-08-02T08:28:55.335Z</time>
      </trkpt>
      <trkpt lat="47.04645" lon="9.03782">
        <ele>600</ele>
        <time>2021-08-02T08:28:56.335Z</time>
      </trkpt>
      <trkpt lat="47.04644" lon="9.03781">
        <ele>601</ele>
        <time>2021-08-02T08:28:57.336Z</time>
      </trkpt>
      <trkpt lat="47.04643" lon="9.0378">
        <ele>601</ele>
        <time>2021-08-02T08:28:58.335Z</time>
      </trkpt>
      <trkpt lat="47.04642" lon="9.03778">
        <ele>601</ele>
        <time>2021-08-02T08:28:59.335Z</time>
      </trkpt>
      <trkpt lat="47.04641" lon="9.03777">
        <ele>601</ele>
        <time>2021-08-02T08:29:00.335Z</time>
      </trkpt>
      <trkpt lat="47.04638" lon="9.03775">
        <ele>601</ele>
        <time>2021-08-02T08:29:01.335Z</time>
      </trkpt>
      <trkpt lat="47.04637" lon="9.03774">
        <ele>601</ele>
        <time>2021-08-02T08:29:02.335Z</time>
      </trkpt>
      <trkpt lat="47.04637" lon="9.03773">
        <ele>601</ele>
        <time>2021-08-02T08:29:03.335Z</time>
      </trkpt>
      <trkpt lat="47.04637" lon="9.03772">
        <ele>601</ele>
        <time>2021-08-02T08:29:04.335Z</time>
      </trkpt>
      <trkpt lat="47.04637" lon="9.03772">
        <ele>600</ele>
        <time>2021-08-02T08:29:05.336Z</time>
      </trkpt>
      <trkpt lat="47.04637" lon="9.03771">
        <ele>600</ele>
        <time>2021-08-02T08:29:06.335Z</time>
      </trkpt>
      <trkpt lat="47.04637" lon="9.0377">
        <ele>600</ele>
        <time>2021-08-02T08:29:07.335Z</time>
      </trkpt>
      <trkpt lat="47.04637" lon="9.03769">
        <ele>600</ele>
        <time>2021-08-02T08:29:08.335Z</time>
      </trkpt>
      <trkpt lat="47.04637" lon="9.03768">
        <ele>600</ele>
        <time>2021-08-02T08:29:09.335Z</time>
      </trkpt>
      <trkpt lat="47.04637" lon="9.03767">
        <ele>600</ele>
        <time>2021-08-02T08:29:10.335Z</time>
      </trkpt>
      <trkpt lat="47.04637" lon="9.03765">
        <ele>600</ele>
        <time>2021-08-02T08:29:11.336Z</time>
      </trkpt>
      <trkpt lat="47.04637" lon="9.03764">
        <ele>600</ele>
        <time>2021-08-02T08:29:12.335Z</time>
      </trkpt>
      <trkpt lat="47.04637" lon="9.03762">
        <ele>600</ele>
        <time>2021-08-02T08:29:13.335Z</time>
      </trkpt>
      <trkpt lat="47.04636" lon="9.03761">
        <ele>600</ele>
        <time>2021-08-02T08:29:14.335Z</time>
      </trkpt>
      <trkpt lat="47.04636" lon="9.0376">
        <ele>599</ele>
        <time>2021-08-02T08:29:15.335Z</time>
      </trkpt>
      <trkpt lat="47.04636" lon="9.03758">
        <ele>599</ele>
        <time>2021-08-02T08:29:16.336Z</time>
      </trkpt>
      <trkpt lat="47.04635" lon="9.03757">
        <ele>599</ele>
        <time>2021-08-02T08:29:17.335Z</time>
      </trkpt>
      <trkpt lat="47.04635" lon="9.03755">
        <ele>599</ele>
        <time>2021-08-02T08:29:18.335Z</time>
      </trkpt>
      <trkpt lat="47.04635" lon="9.03754">
        <ele>599</ele>
        <time>2021-08-02T08:29:19.335Z</time>
      </trkpt>
      <trkpt lat="47.04634" lon="9.03752">
        <ele>598</ele>
        <time>2021-08-02T08:29:20.336Z</time>
      </trkpt>
      <trkpt lat="47.04634" lon="9.0375">
        <ele>598</ele>
        <time>2021-08-02T08:29:21.336Z</time>
      </trkpt>
      <trkpt lat="47.04634" lon="9.03749">
        <ele>598</ele>
        <time>2021-08-02T08:29:22.336Z</time>
      </trkpt>
      <trkpt lat="47.04635" lon="9.03747">
        <ele>597</ele>
        <time>2021-08-02T08:29:23.336Z</time>
      </trkpt>
      <trkpt lat="47.04635" lon="9.03745">
        <ele>597</ele>
        <time>2021-08-02T08:29:24.336Z</time>
      </trkpt>
      <trkpt lat="47.04635" lon="9.03744">
        <ele>596</ele>
        <time>2021-08-02T08:29:25.336Z</time>
      </trkpt>
      <trkpt lat="47.04635" lon="9.03743">
        <ele>596</ele>
        <time>2021-08-02T08:29:26.335Z</time>
      </trkpt>
      <trkpt lat="47.04635" lon="9.03742">
        <ele>595</ele>
        <time>2021-08-02T08:29:27.336Z</time>
      </trkpt>
      <trkpt lat="47.04635" lon="9.0374">
        <ele>595</ele>
        <time>2021-08-02T08:29:28.335Z</time>
      </trkpt>
      <trkpt lat="47.04635" lon="9.03739">
        <ele>595</ele>
        <time>2021-08-02T08:29:29.335Z</time>
      </trkpt>
      <trkpt lat="47.04635" lon="9.03737">
        <ele>595</ele>
        <time>2021-08-02T08:29:30.336Z</time>
      </trkpt>
      <trkpt lat="47.04635" lon="9.03735">
        <ele>594</ele>
        <time>2021-08-02T08:29:31.336Z</time>
      </trkpt>
      <trkpt lat="47.04636" lon="9.03733">
        <ele>594</ele>
        <time>2021-08-02T08:29:32.336Z</time>
      </trkpt>
      <trkpt lat="47.04636" lon="9.03732">
        <ele>594</ele>
        <time>2021-08-02T08:29:33.336Z</time>
      </trkpt>
      <trkpt lat="47.04636" lon="9.03731">
        <ele>594</ele>
        <time>2021-08-02T08:29:34.336Z</time>
      </trkpt>
      <trkpt lat="47.04637" lon="9.03729">
        <ele>594</ele>
        <time>2021-08-02T08:29:35.336Z</time>
      </trkpt>
      <trkpt lat="47.04637" lon="9.03728">
        <ele>593</ele>
        <time>2021-08-02T08:29:36.336Z</time>
      </trkpt>
      <trkpt lat="47.04637" lon="9.03727">
        <ele>593</ele>
        <time>2021-08-02T08:29:37.336Z</time>
      </trkpt>
      <trkpt lat="47.04636" lon="9.03726">
        <ele>592</ele>
        <time>2021-08-02T08:29:38.335Z</time>
      </trkpt>
      <trkpt lat="47.04637" lon="9.03725">
        <ele>592</ele>
        <time>2021-08-02T08:29:39.335Z</time>
      </trkpt>
      <trkpt lat="47.04638" lon="9.03723">
        <ele>592</ele>
        <time>2021-08-02T08:29:40.335Z</time>
      </trkpt>
      <trkpt lat="47.04638" lon="9.03721">
        <ele>592</ele>
        <time>2021-08-02T08:29:41.335Z</time>
      </trkpt>
      <trkpt lat="47.04639" lon="9.03719">
        <ele>591</ele>
        <time>2021-08-02T08:29:42.335Z</time>
      </trkpt>
      <trkpt lat="47.04639" lon="9.03718">
        <ele>591</ele>
        <time>2021-08-02T08:29:43.336Z</time>
      </trkpt>
      <trkpt lat="47.0464" lon="9.03717">
        <ele>591</ele>
        <time>2021-08-02T08:29:44.335Z</time>
      </trkpt>
      <trkpt lat="47.0464" lon="9.03715">
        <ele>591</ele>
        <time>2021-08-02T08:29:45.336Z</time>
      </trkpt>
      <trkpt lat="47.0464" lon="9.03714">
        <ele>591</ele>
        <time>2021-08-02T08:29:46.335Z</time>
      </trkpt>
      <trkpt lat="47.0464" lon="9.03713">
        <ele>591</ele>
        <time>2021-08-02T08:29:47.335Z</time>
      </trkpt>
      <trkpt lat="47.04641" lon="9.03711">
        <ele>592</ele>
        <time>2021-08-02T08:29:48.336Z</time>
      </trkpt>
      <trkpt lat="47.04641" lon="9.0371">
        <ele>592</ele>
        <time>2021-08-02T08:29:49.335Z</time>
      </trkpt>
      <trkpt lat="47.04641" lon="9.03709">
        <ele>592</ele>
        <time>2021-08-02T08:29:50.336Z</time>
      </trkpt>
      <trkpt lat="47.04641" lon="9.03707">
        <ele>591</ele>
        <time>2021-08-02T08:29:51.336Z</time>
      </trkpt>
      <trkpt lat="47.04641" lon="9.03706">
        <ele>592</ele>
        <time>2021-08-02T08:29:52.336Z</time>
      </trkpt>
      <trkpt lat="47.04641" lon="9.03704">
        <ele>592</ele>
        <time>2021-08-02T08:29:53.335Z</time>
      </trkpt>
      <trkpt lat="47.04641" lon="9.03702">
        <ele>592</ele>
        <time>2021-08-02T08:29:54.336Z</time>
      </trkpt>
      <trkpt lat="47.0464" lon="9.037">
        <ele>592</ele>
        <time>2021-08-02T08:29:55.336Z</time>
      </trkpt>
      <trkpt lat="47.04639" lon="9.03698">
        <ele>592</ele>
        <time>2021-08-02T08:29:56.335Z</time>
      </trkpt>
      <trkpt lat="47.04639" lon="9.03697">
        <ele>592</ele>
        <time>2021-08-02T08:29:57.336Z</time>
      </trkpt>
      <trkpt lat="47.04639" lon="9.03696">
        <ele>592</ele>
        <time>2021-08-02T08:29:58.336Z</time>
      </trkpt>
      <trkpt lat="47.04638" lon="9.03694">
        <ele>592</ele>
        <time>2021-08-02T08:29:59.336Z</time>
      </trkpt>
      <trkpt lat="47.04637" lon="9.03693">
        <ele>592</ele>
        <time>2021-08-02T08:30:00.336Z</time>
      </trkpt>
      <trkpt lat="47.04637" lon="9.03691">
        <ele>592</ele>
        <time>2021-08-02T08:30:01.335Z</time>
      </trkpt>
      <trkpt lat="47.04637" lon="9.03688">
        <ele>592</ele>
        <time>2021-08-02T08:30:02.336Z</time>
      </trkpt>
      <trkpt lat="47.04636" lon="9.03687">
        <ele>592</ele>
        <time>2021-08-02T08:30:03.336Z</time>
      </trkpt>
      <trkpt lat="47.04636" lon="9.03686">
        <ele>592</ele>
        <time>2021-08-02T08:30:04.335Z</time>
      </trkpt>
      <trkpt lat="47.04635" lon="9.03684">
        <ele>592</ele>
        <time>2021-08-02T08:30:05.336Z</time>
      </trkpt>
      <trkpt lat="47.04634" lon="9.03684">
        <ele>593</ele>
        <time>2021-08-02T08:30:06.336Z</time>
      </trkpt>
      <trkpt lat="47.04634" lon="9.03683">
        <ele>593</ele>
        <time>2021-08-02T08:30:07.336Z</time>
      </trkpt>
      <trkpt lat="47.04634" lon="9.03683">
        <ele>593</ele>
        <time>2021-08-02T08:30:08.335Z</time>
      </trkpt>
      <trkpt lat="47.04633" lon="9.03683">
        <ele>593</ele>
        <time>2021-08-02T08:30:09.336Z</time>
      </trkpt>
      <trkpt lat="47.04633" lon="9.03683">
        <ele>593</ele>
        <time>2021-08-02T08:30:10.336Z</time>
      </trkpt>
      <trkpt lat="47.04634" lon="9.03683">
        <ele>594</ele>
        <time>2021-08-02T08:30:11.336Z</time>
      </trkpt>
      <trkpt lat="47.04634" lon="9.03681">
        <ele>594</ele>
        <time>2021-08-02T08:30:12.335Z</time>
      </trkpt>
      <trkpt lat="47.04634" lon="9.03679">
        <ele>594</ele>
        <time>2021-08-02T08:30:13.335Z</time>
      </trkpt>
      <trkpt lat="47.04635" lon="9.03677">
        <ele>594</ele>
        <time>2021-08-02T08:30:14.336Z</time>
      </trkpt>
      <trkpt lat="47.04635" lon="9.03676">
        <ele>595</ele>
        <time>2021-08-02T08:30:15.335Z</time>
      </trkpt>
      <trkpt lat="47.04635" lon="9.03674">
        <ele>595</ele>
        <time>2021-08-02T08:30:16.335Z</time>
      </trkpt>
      <trkpt lat="47.04633" lon="9.03671">
        <ele>595</ele>
        <time>2021-08-02T08:30:17.336Z</time>
      </trkpt>
      <trkpt lat="47.04632" lon="9.0367">
        <ele>596</ele>
        <time>2021-08-02T08:30:18.336Z</time>
      </trkpt>
      <trkpt lat="47.04632" lon="9.03669">
        <ele>596</ele>
        <time>2021-08-02T08:30:19.336Z</time>
      </trkpt>
      <trkpt lat="47.04631" lon="9.03668">
        <ele>597</ele>
        <time>2021-08-02T08:30:20.336Z</time>
      </trkpt>
      <trkpt lat="47.0463" lon="9.03667">
        <ele>598</ele>
        <time>2021-08-02T08:30:21.335Z</time>
      </trkpt>
      <trkpt lat="47.04629" lon="9.03666">
        <ele>599</ele>
        <time>2021-08-02T08:30:22.336Z</time>
      </trkpt>
      <trkpt lat="47.04628" lon="9.03665">
        <ele>600</ele>
        <time>2021-08-02T08:30:23.336Z</time>
      </trkpt>
      <trkpt lat="47.04628" lon="9.03665">
        <ele>601</ele>
        <time>2021-08-02T08:30:24.336Z</time>
      </trkpt>
      <trkpt lat="47.04628" lon="9.03664">
        <ele>602</ele>
        <time>2021-08-02T08:30:25.336Z</time>
      </trkpt>
      <trkpt lat="47.04628" lon="9.03662">
        <ele>603</ele>
        <time>2021-08-02T08:30:26.336Z</time>
      </trkpt>
      <trkpt lat="47.04628" lon="9.03661">
        <ele>603</ele>
        <time>2021-08-02T08:30:27.336Z</time>
      </trkpt>
      <trkpt lat="47.04627" lon="9.0366">
        <ele>604</ele>
        <time>2021-08-02T08:30:28.336Z</time>
      </trkpt>
      <trkpt lat="47.04627" lon="9.03659">
        <ele>605</ele>
        <time>2021-08-02T08:30:29.336Z</time>
      </trkpt>
      <trkpt lat="47.04626" lon="9.03657">
        <ele>606</ele>
        <time>2021-08-02T08:30:30.336Z</time>
      </trkpt>
      <trkpt lat="47.04626" lon="9.03656">
        <ele>606</ele>
        <time>2021-08-02T08:30:31.336Z</time>
      </trkpt>
      <trkpt lat="47.04625" lon="9.03654">
        <ele>607</ele>
        <time>2021-08-02T08:30:32.336Z</time>
      </trkpt>
      <trkpt lat="47.04624" lon="9.03653">
        <ele>607</ele>
        <time>2021-08-02T08:30:33.336Z</time>
      </trkpt>
      <trkpt lat="47.04624" lon="9.03653">
        <ele>608</ele>
        <time>2021-08-02T08:30:34.336Z</time>
      </trkpt>
      <trkpt lat="47.04623" lon="9.03652">
        <ele>608</ele>
        <time>2021-08-02T08:30:35.335Z</time>
      </trkpt>
      <trkpt lat="47.04623" lon="9.03651">
        <ele>609</ele>
        <time>2021-08-02T08:30:36.336Z</time>
      </trkpt>
      <trkpt lat="47.04623" lon="9.0365">
        <ele>609</ele>
        <time>2021-08-02T08:30:37.336Z</time>
      </trkpt>
      <trkpt lat="47.04622" lon="9.03648">
        <ele>609</ele>
        <time>2021-08-02T08:30:38.336Z</time>
      </trkpt>
      <trkpt lat="47.04622" lon="9.03647">
        <ele>609</ele>
        <time>2021-08-02T08:30:39.335Z</time>
      </trkpt>
      <trkpt lat="47.04621" lon="9.03645">
        <ele>610</ele>
        <time>2021-08-02T08:30:40.335Z</time>
      </trkpt>
      <trkpt lat="47.0462" lon="9.03644">
        <ele>610</ele>
        <time>2021-08-02T08:30:41.336Z</time>
      </trkpt>
      <trkpt lat="47.04619" lon="9.03643">
        <ele>610</ele>
        <time>2021-08-02T08:30:42.335Z</time>
      </trkpt>
      <trkpt lat="47.04618" lon="9.03642">
        <ele>611</ele>
        <time>2021-08-02T08:30:43.336Z</time>
      </trkpt>
      <trkpt lat="47.04619" lon="9.03641">
        <ele>611</ele>
        <time>2021-08-02T08:30:44.336Z</time>
      </trkpt>
      <trkpt lat="47.04618" lon="9.03641">
        <ele>611</ele>
        <time>2021-08-02T08:30:45.336Z</time>
      </trkpt>
      <trkpt lat="47.04618" lon="9.03639">
        <ele>611</ele>
        <time>2021-08-02T08:30:46.336Z</time>
      </trkpt>
      <trkpt lat="47.04617" lon="9.03637">
        <ele>611</ele>
        <time>2021-08-02T08:30:47.336Z</time>
      </trkpt>
      <trkpt lat="47.04617" lon="9.03635">
        <ele>612</ele>
        <time>2021-08-02T08:30:48.335Z</time>
      </trkpt>
      <trkpt lat="47.04616" lon="9.03634">
        <ele>612</ele>
        <time>2021-08-02T08:30:49.336Z</time>
      </trkpt>
      <trkpt lat="47.04616" lon="9.03633">
        <ele>613</ele>
        <time>2021-08-02T08:30:50.335Z</time>
      </trkpt>
      <trkpt lat="47.04615" lon="9.03632">
        <ele>613</ele>
        <time>2021-08-02T08:30:51.335Z</time>
      </trkpt>
      <trkpt lat="47.04616" lon="9.03632">
        <ele>614</ele>
        <time>2021-08-02T08:30:52.335Z</time>
      </trkpt>
      <trkpt lat="47.04615" lon="9.03632">
        <ele>615</ele>
        <time>2021-08-02T08:30:53.336Z</time>
      </trkpt>
      <trkpt lat="47.04615" lon="9.0363">
        <ele>616</ele>
        <time>2021-08-02T08:30:54.336Z</time>
      </trkpt>
      <trkpt lat="47.04616" lon="9.0363">
        <ele>616</ele>
        <time>2021-08-02T08:30:55.336Z</time>
      </trkpt>
      <trkpt lat="47.04617" lon="9.03628">
        <ele>617</ele>
        <time>2021-08-02T08:30:56.336Z</time>
      </trkpt>
      <trkpt lat="47.04617" lon="9.03628">
        <ele>618</ele>
        <time>2021-08-02T08:30:57.336Z</time>
      </trkpt>
      <trkpt lat="47.04616" lon="9.03627">
        <ele>619</ele>
        <time>2021-08-02T08:30:58.335Z</time>
      </trkpt>
      <trkpt lat="47.04615" lon="9.03627">
        <ele>620</ele>
        <time>2021-08-02T08:30:59.335Z</time>
      </trkpt>
      <trkpt lat="47.04615" lon="9.03627">
        <ele>621</ele>
        <time>2021-08-02T08:31:00.335Z</time>
      </trkpt>
      <trkpt lat="47.04614" lon="9.03626">
        <ele>622</ele>
        <time>2021-08-02T08:31:01.335Z</time>
      </trkpt>
      <trkpt lat="47.04613" lon="9.03624">
        <ele>623</ele>
        <time>2021-08-02T08:31:02.335Z</time>
      </trkpt>
      <trkpt lat="47.04613" lon="9.03623">
        <ele>624</ele>
        <time>2021-08-02T08:31:03.336Z</time>
      </trkpt>
      <trkpt lat="47.04613" lon="9.03621">
        <ele>625</ele>
        <time>2021-08-02T08:31:04.336Z</time>
      </trkpt>
      <trkpt lat="47.04612" lon="9.0362">
        <ele>627</ele>
        <time>2021-08-02T08:31:05.335Z</time>
      </trkpt>
      <trkpt lat="47.04612" lon="9.03618">
        <ele>628</ele>
        <time>2021-08-02T08:31:06.336Z</time>
      </trkpt>
      <trkpt lat="47.04612" lon="9.03617">
        <ele>629</ele>
        <time>2021-08-02T08:31:07.336Z</time>
      </trkpt>
      <trkpt lat="47.04612" lon="9.03616">
        <ele>630</ele>
        <time>2021-08-02T08:31:08.336Z</time>
      </trkpt>
      <trkpt lat="47.04613" lon="9.03615">
        <ele>631</ele>
        <time>2021-08-02T08:31:09.336Z</time>
      </trkpt>
      <trkpt lat="47.04613" lon="9.03614">
        <ele>632</ele>
        <time>2021-08-02T08:31:10.335Z</time>
      </trkpt>
      <trkpt lat="47.04614" lon="9.03613">
        <ele>634</ele>
        <time>2021-08-02T08:31:11.335Z</time>
      </trkpt>
      <trkpt lat="47.04614" lon="9.03612">
        <ele>635</ele>
        <time>2021-08-02T08:31:12.335Z</time>
      </trkpt>
      <trkpt lat="47.04615" lon="9.03611">
        <ele>637</ele>
        <time>2021-08-02T08:31:13.336Z</time>
      </trkpt>
      <trkpt lat="47.04615" lon="9.0361">
        <ele>638</ele>
        <time>2021-08-02T08:31:14.336Z</time>
      </trkpt>
      <trkpt lat="47.04615" lon="9.03608">
        <ele>640</ele>
        <time>2021-08-02T08:31:15.336Z</time>
      </trkpt>
      <trkpt lat="47.04615" lon="9.03606">
        <ele>641</ele>
        <time>2021-08-02T08:31:16.335Z</time>
      </trkpt>
      <trkpt lat="47.04615" lon="9.03606">
        <ele>643</ele>
        <time>2021-08-02T08:31:17.336Z</time>
      </trkpt>
      <trkpt lat="47.04615" lon="9.03605">
        <ele>644</ele>
        <time>2021-08-02T08:31:18.336Z</time>
      </trkpt>
      <trkpt lat="47.04615" lon="9.03604">
        <ele>646</ele>
        <time>2021-08-02T08:31:19.336Z</time>
      </trkpt>
      <trkpt lat="47.04615" lon="9.03602">
        <ele>647</ele>
        <time>2021-08-02T08:31:20.336Z</time>
      </trkpt>
      <trkpt lat="47.04616" lon="9.03601">
        <ele>648</ele>
        <time>2021-08-02T08:31:21.336Z</time>
      </trkpt>
      <trkpt lat="47.04616" lon="9.03599">
        <ele>649</ele>
        <time>2021-08-02T08:31:22.335Z</time>
      </trkpt>
      <trkpt lat="47.04616" lon="9.03597">
        <ele>650</ele>
        <time>2021-08-02T08:31:23.336Z</time>
      </trkpt>
      <trkpt lat="47.04616" lon="9.03596">
        <ele>651</ele>
        <time>2021-08-02T08:31:24.336Z</time>
      </trkpt>
      <trkpt lat="47.04616" lon="9.03595">
        <ele>652</ele>
        <time>2021-08-02T08:31:25.335Z</time>
      </trkpt>
      <trkpt lat="47.04616" lon="9.03593">
        <ele>653</ele>
        <time>2021-08-02T08:31:26.336Z</time>
      </trkpt>
      <trkpt lat="47.04616" lon="9.03592">
        <ele>653</ele>
        <time>2021-08-02T08:31:27.336Z</time>
      </trkpt>
      <trkpt lat="47.04615" lon="9.03591">
        <ele>654</ele>
        <time>2021-08-02T08:31:28.336Z</time>
      </trkpt>
      <trkpt lat="47.04615" lon="9.03589">
        <ele>654</ele>
        <time>2021-08-02T08:31:29.336Z</time>
      </trkpt>
      <trkpt lat="47.04616" lon="9.03588">
        <ele>655</ele>
        <time>2021-08-02T08:31:30.336Z</time>
      </trkpt>
      <trkpt lat="47.04616" lon="9.03587">
        <ele>655</ele>
        <time>2021-08-02T08:31:31.335Z</time>
      </trkpt>
      <trkpt lat="47.04616" lon="9.03585">
        <ele>656</ele>
        <time>2021-08-02T08:31:32.335Z</time>
      </trkpt>
      <trkpt lat="47.04615" lon="9.03584">
        <ele>656</ele>
        <time>2021-08-02T08:31:33.336Z</time>
      </trkpt>
      <trkpt lat="47.04615" lon="9.03583">
        <ele>657</ele>
        <time>2021-08-02T08:31:34.336Z</time>
      </trkpt>
      <trkpt lat="47.04615" lon="9.03581">
        <ele>657</ele>
        <time>2021-08-02T08:31:35.335Z</time>
      </trkpt>
      <trkpt lat="47.04615" lon="9.0358">
        <ele>658</ele>
        <time>2021-08-02T08:31:36.335Z</time>
      </trkpt>
      <trkpt lat="47.04614" lon="9.03579">
        <ele>658</ele>
        <time>2021-08-02T08:31:37.336Z</time>
      </trkpt>
      <trkpt lat="47.04613" lon="9.03578">
        <ele>659</ele>
        <time>2021-08-02T08:31:38.335Z</time>
      </trkpt>
      <trkpt lat="47.04613" lon="9.03577">
        <ele>659</ele>
        <time>2021-08-02T08:31:39.336Z</time>
      </trkpt>
      <trkpt lat="47.04614" lon="9.03576">
        <ele>660</ele>
        <time>2021-08-02T08:31:40.336Z</time>
      </trkpt>
      <trkpt lat="47.04613" lon="9.03575">
        <ele>660</ele>
        <time>2021-08-02T08:31:41.335Z</time>
      </trkpt>
      <trkpt lat="47.04613" lon="9.03574">
        <ele>661</ele>
        <time>2021-08-02T08:31:42.335Z</time>
      </trkpt>
      <trkpt lat="47.04613" lon="9.03573">
        <ele>661</ele>
        <time>2021-08-02T08:31:43.335Z</time>
      </trkpt>
      <trkpt lat="47.04612" lon="9.03572">
        <ele>661</ele>
        <time>2021-08-02T08:31:44.336Z</time>
      </trkpt>
      <trkpt lat="47.04611" lon="9.03571">
        <ele>662</ele>
        <time>2021-08-02T08:31:45.336Z</time>
      </trkpt>
      <trkpt lat="47.0461" lon="9.0357">
        <ele>662</ele>
        <time>2021-08-02T08:31:46.335Z</time>
      </trkpt>
      <trkpt lat="47.0461" lon="9.03568">
        <ele>662</ele>
        <time>2021-08-02T08:31:47.335Z</time>
      </trkpt>
      <trkpt lat="47.0461" lon="9.03566">
        <ele>662</ele>
        <time>2021-08-02T08:31:48.335Z</time>
      </trkpt>
      <trkpt lat="47.0461" lon="9.03565">
        <ele>662</ele>
        <time>2021-08-02T08:31:49.335Z</time>
      </trkpt>
      <trkpt lat="47.0461" lon="9.03564">
        <ele>662</ele>
        <time>2021-08-02T08:31:50.336Z</time>
      </trkpt>
      <trkpt lat="47.0461" lon="9.03562">
        <ele>663</ele>
        <time>2021-08-02T08:31:51.335Z</time>
      </trkpt>
      <trkpt lat="47.04611" lon="9.03561">
        <ele>663</ele>
        <time>2021-08-02T08:31:52.336Z</time>
      </trkpt>
      <trkpt lat="47.0461" lon="9.03559">
        <ele>663</ele>
        <time>2021-08-02T08:31:53.336Z</time>
      </trkpt>
      <trkpt lat="47.04611" lon="9.03557">
        <ele>663</ele>
        <time>2021-08-02T08:31:54.335Z</time>
      </trkpt>
      <trkpt lat="47.04611" lon="9.03556">
        <ele>663</ele>
        <time>2021-08-02T08:31:55.335Z</time>
      </trkpt>
      <trkpt lat="47.04612" lon="9.03555">
        <ele>664</ele>
        <time>2021-08-02T08:31:56.336Z</time>
      </trkpt>
      <trkpt lat="47.04613" lon="9.03554">
        <ele>664</ele>
        <time>2021-08-02T08:31:57.336Z</time>
      </trkpt>
      <trkpt lat="47.04614" lon="9.03553">
        <ele>664</ele>
        <time>2021-08-02T08:31:58.336Z</time>
      </trkpt>
      <trkpt lat="47.04614" lon="9.03552">
        <ele>664</ele>
        <time>2021-08-02T08:31:59.336Z</time>
      </trkpt>
      <trkpt lat="47.04614" lon="9.03551">
        <ele>664</ele>
        <time>2021-08-02T08:32:00.335Z</time>
      </trkpt>
      <trkpt lat="47.04614" lon="9.0355">
        <ele>664</ele>
        <time>2021-08-02T08:32:01.336Z</time>
      </trkpt>
      <trkpt lat="47.04614" lon="9.03549">
        <ele>664</ele>
        <time>2021-08-02T08:32:02.336Z</time>
      </trkpt>
      <trkpt lat="47.04614" lon="9.03548">
        <ele>664</ele>
        <time>2021-08-02T08:32:03.336Z</time>
      </trkpt>
      <trkpt lat="47.04615" lon="9.03546">
        <ele>663</ele>
        <time>2021-08-02T08:32:04.336Z</time>
      </trkpt>
      <trkpt lat="47.04616" lon="9.03545">
        <ele>663</ele>
        <time>2021-08-02T08:32:05.336Z</time>
      </trkpt>
      <trkpt lat="47.04616" lon="9.03544">
        <ele>663</ele>
        <time>2021-08-02T08:32:06.336Z</time>
      </trkpt>
      <trkpt lat="47.04615" lon="9.03543">
        <ele>663</ele>
        <time>2021-08-02T08:32:07.336Z</time>
      </trkpt>
      <trkpt lat="47.04614" lon="9.03543">
        <ele>663</ele>
        <time>2021-08-02T08:32:08.336Z</time>
      </trkpt>
      <trkpt lat="47.04614" lon="9.03543">
        <ele>663</ele>
        <time>2021-08-02T08:32:09.336Z</time>
      </trkpt>
      <trkpt lat="47.04614" lon="9.03543">
        <ele>663</ele>
        <time>2021-08-02T08:32:10.336Z</time>
      </trkpt>
      <trkpt lat="47.04614" lon="9.03542">
        <ele>664</ele>
        <time>2021-08-02T08:32:11.335Z</time>
      </trkpt>
      <trkpt lat="47.04614" lon="9.03541">
        <ele>664</ele>
        <time>2021-08-02T08:32:12.336Z</time>
      </trkpt>
      <trkpt lat="47.04614" lon="9.0354">
        <ele>664</ele>
        <time>2021-08-02T08:32:13.336Z</time>
      </trkpt>
      <trkpt lat="47.04614" lon="9.03539">
        <ele>664</ele>
        <time>2021-08-02T08:32:14.336Z</time>
      </trkpt>
      <trkpt lat="47.04614" lon="9.03539">
        <ele>664</ele>
        <time>2021-08-02T08:32:15.335Z</time>
      </trkpt>
      <trkpt lat="47.04614" lon="9.03538">
        <ele>664</ele>
        <time>2021-08-02T08:32:16.336Z</time>
      </trkpt>
      <trkpt lat="47.04614" lon="9.03537">
        <ele>663</ele>
        <time>2021-08-02T08:32:17.336Z</time>
      </trkpt>
      <trkpt lat="47.04614" lon="9.03535">
        <ele>663</ele>
        <time>2021-08-02T08:32:18.336Z</time>
      </trkpt>
      <trkpt lat="47.04614" lon="9.03534">
        <ele>663</ele>
        <time>2021-08-02T08:32:19.335Z</time>
      </trkpt>
      <trkpt lat="47.04613" lon="9.03534">
        <ele>663</ele>
        <time>2021-08-02T08:32:20.336Z</time>
      </trkpt>
      <trkpt lat="47.04613" lon="9.03533">
        <ele>664</ele>
        <time>2021-08-02T08:32:21.336Z</time>
      </trkpt>
      <trkpt lat="47.04613" lon="9.03533">
        <ele>664</ele>
        <time>2021-08-02T08:32:22.335Z</time>
      </trkpt>
      <trkpt lat="47.04613" lon="9.03533">
        <ele>664</ele>
        <time>2021-08-02T08:32:23.336Z</time>
      </trkpt>
      <trkpt lat="47.04612" lon="9.03529">
        <ele>665</ele>
        <time>2021-08-02T08:32:24.336Z</time>
      </trkpt>
      <trkpt lat="47.04613" lon="9.03528">
        <ele>665</ele>
        <time>2021-08-02T08:32:25.336Z</time>
      </trkpt>
      <trkpt lat="47.04609" lon="9.03521">
        <ele>665</ele>
        <time>2021-08-02T08:32:26.337Z</time>
      </trkpt>
      <trkpt lat="47.04608" lon="9.0352">
        <ele>665</ele>
        <time>2021-08-02T08:32:27.337Z</time>
      </trkpt>
      <trkpt lat="47.04608" lon="9.03518">
        <ele>664</ele>
        <time>2021-08-02T08:32:28.337Z</time>
      </trkpt>
      <trkpt lat="47.0461" lon="9.03525">
        <ele>668</ele>
        <time>2021-08-02T08:32:29.337Z</time>
      </trkpt>
      <trkpt lat="47.04611" lon="9.03525">
        <ele>668</ele>
        <time>2021-08-02T08:32:30.337Z</time>
      </trkpt>
      <trkpt lat="47.04611" lon="9.03525">
        <ele>668</ele>
        <time>2021-08-02T08:32:31.336Z</time>
      </trkpt>
      <trkpt lat="47.04612" lon="9.03525">
        <ele>668</ele>
        <time>2021-08-02T08:32:32.337Z</time>
      </trkpt>
      <trkpt lat="47.04613" lon="9.03524">
        <ele>668</ele>
        <time>2021-08-02T08:32:33.336Z</time>
      </trkpt>
      <trkpt lat="47.04614" lon="9.03524">
        <ele>668</ele>
        <time>2021-08-02T08:32:34.336Z</time>
      </trkpt>
      <trkpt lat="47.04615" lon="9.03524">
        <ele>668</ele>
        <time>2021-08-02T08:32:35.337Z</time>
      </trkpt>
      <trkpt lat="47.04616" lon="9.03524">
        <ele>668</ele>
        <time>2021-08-02T08:32:36.336Z</time>
      </trkpt>
      <trkpt lat="47.04617" lon="9.03523">
        <ele>668</ele>
        <time>2021-08-02T08:32:37.337Z</time>
      </trkpt>
      <trkpt lat="47.04617" lon="9.03523">
        <ele>668</ele>
        <time>2021-08-02T08:32:38.337Z</time>
      </trkpt>
      <trkpt lat="47.04618" lon="9.03523">
        <ele>668</ele>
        <time>2021-08-02T08:32:39.336Z</time>
      </trkpt>
      <trkpt lat="47.04618" lon="9.03524">
        <ele>668</ele>
        <time>2021-08-02T08:32:40.337Z</time>
      </trkpt>
      <trkpt lat="47.0462" lon="9.03524">
        <ele>668</ele>
        <time>2021-08-02T08:32:41.337Z</time>
      </trkpt>
      <trkpt lat="47.04621" lon="9.03524">
        <ele>668</ele>
        <time>2021-08-02T08:32:42.336Z</time>
      </trkpt>
      <trkpt lat="47.04621" lon="9.03523">
        <ele>668</ele>
        <time>2021-08-02T08:32:43.336Z</time>
      </trkpt>
      <trkpt lat="47.04622" lon="9.03523">
        <ele>668</ele>
        <time>2021-08-02T08:32:44.336Z</time>
      </trkpt>
      <trkpt lat="47.04622" lon="9.03523">
        <ele>669</ele>
        <time>2021-08-02T08:32:45.337Z</time>
      </trkpt>
      <trkpt lat="47.04623" lon="9.03522">
        <ele>669</ele>
        <time>2021-08-02T08:32:46.337Z</time>
      </trkpt>
      <trkpt lat="47.04624" lon="9.03522">
        <ele>669</ele>
        <time>2021-08-02T08:32:47.337Z</time>
      </trkpt>
      <trkpt lat="47.04625" lon="9.03521">
        <ele>669</ele>
        <time>2021-08-02T08:32:48.336Z</time>
      </trkpt>
      <trkpt lat="47.04625" lon="9.03521">
        <ele>669</ele>
        <time>2021-08-02T08:32:49.337Z</time>
      </trkpt>
      <trkpt lat="47.04626" lon="9.03521">
        <ele>669</ele>
        <time>2021-08-02T08:32:50.337Z</time>
      </trkpt>
      <trkpt lat="47.04626" lon="9.03521">
        <ele>669</ele>
        <time>2021-08-02T08:32:51.337Z</time>
      </trkpt>
      <trkpt lat="47.04626" lon="9.03521">
        <ele>669</ele>
        <time>2021-08-02T08:32:52.337Z</time>
      </trkpt>
      <trkpt lat="47.04626" lon="9.0352">
        <ele>669</ele>
        <time>2021-08-02T08:32:53.336Z</time>
      </trkpt>
      <trkpt lat="47.04627" lon="9.03519">
        <ele>670</ele>
        <time>2021-08-02T08:32:54.337Z</time>
      </trkpt>
      <trkpt lat="47.04628" lon="9.03518">
        <ele>670</ele>
        <time>2021-08-02T08:32:55.337Z</time>
      </trkpt>
      <trkpt lat="47.04629" lon="9.03517">
        <ele>670</ele>
        <time>2021-08-02T08:32:56.336Z</time>
      </trkpt>
      <trkpt lat="47.04629" lon="9.03516">
        <ele>670</ele>
        <time>2021-08-02T08:32:57.337Z</time>
      </trkpt>
      <trkpt lat="47.0463" lon="9.03515">
        <ele>670</ele>
        <time>2021-08-02T08:32:58.336Z</time>
      </trkpt>
      <trkpt lat="47.0463" lon="9.03515">
        <ele>670</ele>
        <time>2021-08-02T08:32:59.336Z</time>
      </trkpt>
      <trkpt lat="47.04631" lon="9.03514">
        <ele>670</ele>
        <time>2021-08-02T08:33:00.337Z</time>
      </trkpt>
      <trkpt lat="47.04631" lon="9.03513">
        <ele>670</ele>
        <time>2021-08-02T08:33:01.337Z</time>
      </trkpt>
      <trkpt lat="47.04631" lon="9.03512">
        <ele>671</ele>
        <time>2021-08-02T08:33:02.337Z</time>
      </trkpt>
      <trkpt lat="47.04631" lon="9.03511">
        <ele>671</ele>
        <time>2021-08-02T08:33:03.337Z</time>
      </trkpt>
      <trkpt lat="47.04632" lon="9.0351">
        <ele>671</ele>
        <time>2021-08-02T08:33:04.336Z</time>
      </trkpt>
      <trkpt lat="47.04632" lon="9.03509">
        <ele>671</ele>
        <time>2021-08-02T08:33:05.337Z</time>
      </trkpt>
      <trkpt lat="47.04632" lon="9.03508">
        <ele>671</ele>
        <time>2021-08-02T08:33:06.337Z</time>
      </trkpt>
      <trkpt lat="47.04633" lon="9.03506">
        <ele>671</ele>
        <time>2021-08-02T08:33:07.337Z</time>
      </trkpt>
      <trkpt lat="47.04633" lon="9.03505">
        <ele>671</ele>
        <time>2021-08-02T08:33:08.337Z</time>
      </trkpt>
      <trkpt lat="47.04634" lon="9.03503">
        <ele>671</ele>
        <time>2021-08-02T08:33:09.336Z</time>
      </trkpt>
      <trkpt lat="47.04634" lon="9.03503">
        <ele>671</ele>
        <time>2021-08-02T08:33:10.336Z</time>
      </trkpt>
      <trkpt lat="47.04636" lon="9.03502">
        <ele>671</ele>
        <time>2021-08-02T08:33:11.337Z</time>
      </trkpt>
      <trkpt lat="47.04637" lon="9.03501">
        <ele>671</ele>
        <time>2021-08-02T08:33:12.337Z</time>
      </trkpt>
      <trkpt lat="47.04637" lon="9.035">
        <ele>671</ele>
        <time>2021-08-02T08:33:13.337Z</time>
      </trkpt>
      <trkpt lat="47.04638" lon="9.03498">
        <ele>671</ele>
        <time>2021-08-02T08:33:14.337Z</time>
      </trkpt>
      <trkpt lat="47.04638" lon="9.03497">
        <ele>672</ele>
        <time>2021-08-02T08:33:15.336Z</time>
      </trkpt>
      <trkpt lat="47.04638" lon="9.03496">
        <ele>672</ele>
        <time>2021-08-02T08:33:16.337Z</time>
      </trkpt>
      <trkpt lat="47.04638" lon="9.03495">
        <ele>673</ele>
        <time>2021-08-02T08:33:17.337Z</time>
      </trkpt>
      <trkpt lat="47.04638" lon="9.03494">
        <ele>673</ele>
        <time>2021-08-02T08:33:18.336Z</time>
      </trkpt>
      <trkpt lat="47.04639" lon="9.03493">
        <ele>674</ele>
        <time>2021-08-02T08:33:19.337Z</time>
      </trkpt>
      <trkpt lat="47.04639" lon="9.03492">
        <ele>674</ele>
        <time>2021-08-02T08:33:20.337Z</time>
      </trkpt>
      <trkpt lat="47.0464" lon="9.03491">
        <ele>674</ele>
        <time>2021-08-02T08:33:21.337Z</time>
      </trkpt>
      <trkpt lat="47.0464" lon="9.0349">
        <ele>675</ele>
        <time>2021-08-02T08:33:22.337Z</time>
      </trkpt>
      <trkpt lat="47.0464" lon="9.03489">
        <ele>675</ele>
        <time>2021-08-02T08:33:23.337Z</time>
      </trkpt>
      <trkpt lat="47.0464" lon="9.03488">
        <ele>675</ele>
        <time>2021-08-02T08:33:24.337Z</time>
      </trkpt>
      <trkpt lat="47.0464" lon="9.03487">
        <ele>675</ele>
        <time>2021-08-02T08:33:25.337Z</time>
      </trkpt>
      <trkpt lat="47.0464" lon="9.03485">
        <ele>676</ele>
        <time>2021-08-02T08:33:26.336Z</time>
      </trkpt>
      <trkpt lat="47.0464" lon="9.03484">
        <ele>676</ele>
        <time>2021-08-02T08:33:27.336Z</time>
      </trkpt>
      <trkpt lat="47.04639" lon="9.03483">
        <ele>676</ele>
        <time>2021-08-02T08:33:28.336Z</time>
      </trkpt>
      <trkpt lat="47.04639" lon="9.03482">
        <ele>677</ele>
        <time>2021-08-02T08:33:29.336Z</time>
      </trkpt>
      <trkpt lat="47.04639" lon="9.0348">
        <ele>677</ele>
        <time>2021-08-02T08:33:30.337Z</time>
      </trkpt>
      <trkpt lat="47.0464" lon="9.03479">
        <ele>677</ele>
        <time>2021-08-02T08:33:31.337Z</time>
      </trkpt>
      <trkpt lat="47.0464" lon="9.03477">
        <ele>677</ele>
        <time>2021-08-02T08:33:32.337Z</time>
      </trkpt>
      <trkpt lat="47.04641" lon="9.03476">
        <ele>677</ele>
        <time>2021-08-02T08:33:33.337Z</time>
      </trkpt>
      <trkpt lat="47.04641" lon="9.03475">
        <ele>677</ele>
        <time>2021-08-02T08:33:34.337Z</time>
      </trkpt>
      <trkpt lat="47.04641" lon="9.03474">
        <ele>678</ele>
        <time>2021-08-02T08:33:35.337Z</time>
      </trkpt>
      <trkpt lat="47.04641" lon="9.03473">
        <ele>678</ele>
        <time>2021-08-02T08:33:36.336Z</time>
      </trkpt>
      <trkpt lat="47.04642" lon="9.03471">
        <ele>679</ele>
        <time>2021-08-02T08:33:37.337Z</time>
      </trkpt>
      <trkpt lat="47.04642" lon="9.0347">
        <ele>679</ele>
        <time>2021-08-02T08:33:38.337Z</time>
      </trkpt>
      <trkpt lat="47.04642" lon="9.03469">
        <ele>680</ele>
        <time>2021-08-02T08:33:39.336Z</time>
      </trkpt>
      <trkpt lat="47.04642" lon="9.03467">
        <ele>680</ele>
        <time>2021-08-02T08:33:40.337Z</time>
      </trkpt>
      <trkpt lat="47.04642" lon="9.03466">
        <ele>680</ele>
        <time>2021-08-02T08:33:41.337Z</time>
      </trkpt>
      <trkpt lat="47.04642" lon="9.03465">
        <ele>680</ele>
        <time>2021-08-02T08:33:42.337Z</time>
      </trkpt>
      <trkpt lat="47.04642" lon="9.03464">
        <ele>680</ele>
        <time>2021-08-02T08:33:43.337Z</time>
      </trkpt>
      <trkpt lat="47.04642" lon="9.03463">
        <ele>680</ele>
        <time>2021-08-02T08:33:44.337Z</time>
      </trkpt>
      <trkpt lat="47.04643" lon="9.03462">
        <ele>680</ele>
        <time>2021-08-02T08:33:45.337Z</time>
      </trkpt>
      <trkpt lat="47.04643" lon="9.0346">
        <ele>680</ele>
        <time>2021-08-02T08:33:46.337Z</time>
      </trkpt>
      <trkpt lat="47.04644" lon="9.03459">
        <ele>680</ele>
        <time>2021-08-02T08:33:47.336Z</time>
      </trkpt>
      <trkpt lat="47.04644" lon="9.03458">
        <ele>680</ele>
        <time>2021-08-02T08:33:48.336Z</time>
      </trkpt>
      <trkpt lat="47.04644" lon="9.03457">
        <ele>679</ele>
        <time>2021-08-02T08:33:49.337Z</time>
      </trkpt>
      <trkpt lat="47.04644" lon="9.03456">
        <ele>679</ele>
        <time>2021-08-02T08:33:50.337Z</time>
      </trkpt>
      <trkpt lat="47.04644" lon="9.03455">
        <ele>679</ele>
        <time>2021-08-02T08:33:51.337Z</time>
      </trkpt>
      <trkpt lat="47.04644" lon="9.03453">
        <ele>678</ele>
        <time>2021-08-02T08:33:52.336Z</time>
      </trkpt>
      <trkpt lat="47.04644" lon="9.03452">
        <ele>678</ele>
        <time>2021-08-02T08:33:53.336Z</time>
      </trkpt>
      <trkpt lat="47.04644" lon="9.03451">
        <ele>678</ele>
        <time>2021-08-02T08:33:54.336Z</time>
      </trkpt>
      <trkpt lat="47.04644" lon="9.0345">
        <ele>678</ele>
        <time>2021-08-02T08:33:55.337Z</time>
      </trkpt>
      <trkpt lat="47.04645" lon="9.03448">
        <ele>678</ele>
        <time>2021-08-02T08:33:56.337Z</time>
      </trkpt>
      <trkpt lat="47.04645" lon="9.03447">
        <ele>678</ele>
        <time>2021-08-02T08:33:57.337Z</time>
      </trkpt>
      <trkpt lat="47.04645" lon="9.03447">
        <ele>678</ele>
        <time>2021-08-02T08:33:58.337Z</time>
      </trkpt>
      <trkpt lat="47.04645" lon="9.03446">
        <ele>678</ele>
        <time>2021-08-02T08:33:59.337Z</time>
      </trkpt>
      <trkpt lat="47.04645" lon="9.03445">
        <ele>678</ele>
        <time>2021-08-02T08:34:00.337Z</time>
      </trkpt>
      <trkpt lat="47.04645" lon="9.03444">
        <ele>678</ele>
        <time>2021-08-02T08:34:01.337Z</time>
      </trkpt>
      <trkpt lat="47.04645" lon="9.03443">
        <ele>677</ele>
        <time>2021-08-02T08:34:02.337Z</time>
      </trkpt>
      <trkpt lat="47.04645" lon="9.03441">
        <ele>677</ele>
        <time>2021-08-02T08:34:03.337Z</time>
      </trkpt>
      <trkpt lat="47.04644" lon="9.0344">
        <ele>676</ele>
        <time>2021-08-02T08:34:04.336Z</time>
      </trkpt>
      <trkpt lat="47.04644" lon="9.0344">
        <ele>675</ele>
        <time>2021-08-02T08:34:05.336Z</time>
      </trkpt>
      <trkpt lat="47.04643" lon="9.0344">
        <ele>674</ele>
        <time>2021-08-02T08:34:06.337Z</time>
      </trkpt>
      <trkpt lat="47.04643" lon="9.03439">
        <ele>673</ele>
        <time>2021-08-02T08:34:07.337Z</time>
      </trkpt>
      <trkpt lat="47.04643" lon="9.03438">
        <ele>671</ele>
        <time>2021-08-02T08:34:08.337Z</time>
      </trkpt>
      <trkpt lat="47.04643" lon="9.03438">
        <ele>670</ele>
        <time>2021-08-02T08:34:09.337Z</time>
      </trkpt>
      <trkpt lat="47.04643" lon="9.03438">
        <ele>668</ele>
        <time>2021-08-02T08:34:10.336Z</time>
      </trkpt>
      <trkpt lat="47.04642" lon="9.03438">
        <ele>665</ele>
        <time>2021-08-02T08:34:11.338Z</time>
      </trkpt>
      <trkpt lat="47.04642" lon="9.03438">
        <ele>663</ele>
        <time>2021-08-02T08:34:12.337Z</time>
      </trkpt>
      <trkpt lat="47.04642" lon="9.03437">
        <ele>661</ele>
        <time>2021-08-02T08:34:13.337Z</time>
      </trkpt>
      <trkpt lat="47.04642" lon="9.03435">
        <ele>659</ele>
        <time>2021-08-02T08:34:14.337Z</time>
      </trkpt>
      <trkpt lat="47.04641" lon="9.03433">
        <ele>657</ele>
        <time>2021-08-02T08:34:15.338Z</time>
      </trkpt>
      <trkpt lat="47.04641" lon="9.03431">
        <ele>655</ele>
        <time>2021-08-02T08:34:16.338Z</time>
      </trkpt>
      <trkpt lat="47.04642" lon="9.0343">
        <ele>654</ele>
        <time>2021-08-02T08:34:17.337Z</time>
      </trkpt>
      <trkpt lat="47.04642" lon="9.03429">
        <ele>652</ele>
        <time>2021-08-02T08:34:18.338Z</time>
      </trkpt>
      <trkpt lat="47.04642" lon="9.03429">
        <ele>651</ele>
        <time>2021-08-02T08:34:19.337Z</time>
      </trkpt>
      <trkpt lat="47.04642" lon="9.03429">
        <ele>650</ele>
        <time>2021-08-02T08:34:20.338Z</time>
      </trkpt>
      <trkpt lat="47.04642" lon="9.03428">
        <ele>647</ele>
        <time>2021-08-02T08:34:21.337Z</time>
      </trkpt>
      <trkpt lat="47.04643" lon="9.03428">
        <ele>647</ele>
        <time>2021-08-02T08:34:22.338Z</time>
      </trkpt>
      <trkpt lat="47.04643" lon="9.03427">
        <ele>646</ele>
        <time>2021-08-02T08:34:23.337Z</time>
      </trkpt>
      <trkpt lat="47.04644" lon="9.03426">
        <ele>645</ele>
        <time>2021-08-02T08:34:24.337Z</time>
      </trkpt>
      <trkpt lat="47.04644" lon="9.03426">
        <ele>644</ele>
        <time>2021-08-02T08:34:25.338Z</time>
      </trkpt>
      <trkpt lat="47.04644" lon="9.03425">
        <ele>643</ele>
        <time>2021-08-02T08:34:26.337Z</time>
      </trkpt>
      <trkpt lat="47.04643" lon="9.03424">
        <ele>643</ele>
        <time>2021-08-02T08:34:27.338Z</time>
      </trkpt>
      <trkpt lat="47.04643" lon="9.03424">
        <ele>642</ele>
        <time>2021-08-02T08:34:28.338Z</time>
      </trkpt>
      <trkpt lat="47.04644" lon="9.03423">
        <ele>641</ele>
        <time>2021-08-02T08:34:29.338Z</time>
      </trkpt>
      <trkpt lat="47.04643" lon="9.03422">
        <ele>640</ele>
        <time>2021-08-02T08:34:30.337Z</time>
      </trkpt>
      <trkpt lat="47.04644" lon="9.03422">
        <ele>639</ele>
        <time>2021-08-02T08:34:31.337Z</time>
      </trkpt>
      <trkpt lat="47.04644" lon="9.03421">
        <ele>639</ele>
        <time>2021-08-02T08:34:32.337Z</time>
      </trkpt>
      <trkpt lat="47.04644" lon="9.03421">
        <ele>638</ele>
        <time>2021-08-02T08:34:33.338Z</time>
      </trkpt>
      <trkpt lat="47.04644" lon="9.0342">
        <ele>638</ele>
        <time>2021-08-02T08:34:34.338Z</time>
      </trkpt>
      <trkpt lat="47.04644" lon="9.03419">
        <ele>638</ele>
        <time>2021-08-02T08:34:35.338Z</time>
      </trkpt>
      <trkpt lat="47.04644" lon="9.03418">
        <ele>638</ele>
        <time>2021-08-02T08:34:36.338Z</time>
      </trkpt>
      <trkpt lat="47.04645" lon="9.03418">
        <ele>639</ele>
        <time>2021-08-02T08:34:37.338Z</time>
      </trkpt>
      <trkpt lat="47.04645" lon="9.03417">
        <ele>639</ele>
        <time>2021-08-02T08:34:38.338Z</time>
      </trkpt>
      <trkpt lat="47.04646" lon="9.03416">
        <ele>639</ele>
        <time>2021-08-02T08:34:39.338Z</time>
      </trkpt>
      <trkpt lat="47.04646" lon="9.03414">
        <ele>639</ele>
        <time>2021-08-02T08:34:40.337Z</time>
      </trkpt>
      <trkpt lat="47.04647" lon="9.03414">
        <ele>640</ele>
        <time>2021-08-02T08:34:41.337Z</time>
      </trkpt>
      <trkpt lat="47.04647" lon="9.03413">
        <ele>640</ele>
        <time>2021-08-02T08:34:42.338Z</time>
      </trkpt>
      <trkpt lat="47.04648" lon="9.03411">
        <ele>639</ele>
        <time>2021-08-02T08:34:43.337Z</time>
      </trkpt>
      <trkpt lat="47.04648" lon="9.03409">
        <ele>639</ele>
        <time>2021-08-02T08:34:44.337Z</time>
      </trkpt>
      <trkpt lat="47.04649" lon="9.03407">
        <ele>639</ele>
        <time>2021-08-02T08:34:45.337Z</time>
      </trkpt>
      <trkpt lat="47.04649" lon="9.03406">
        <ele>639</ele>
        <time>2021-08-02T08:34:46.338Z</time>
      </trkpt>
      <trkpt lat="47.04649" lon="9.03405">
        <ele>638</ele>
        <time>2021-08-02T08:34:47.337Z</time>
      </trkpt>
      <trkpt lat="47.04648" lon="9.03403">
        <ele>638</ele>
        <time>2021-08-02T08:34:48.337Z</time>
      </trkpt>
      <trkpt lat="47.04648" lon="9.03401">
        <ele>638</ele>
        <time>2021-08-02T08:34:49.337Z</time>
      </trkpt>
      <trkpt lat="47.04648" lon="9.03399">
        <ele>637</ele>
        <time>2021-08-02T08:34:50.337Z</time>
      </trkpt>
      <trkpt lat="47.04649" lon="9.03398">
        <ele>637</ele>
        <time>2021-08-02T08:34:51.337Z</time>
      </trkpt>
      <trkpt lat="47.0465" lon="9.03396">
        <ele>637</ele>
        <time>2021-08-02T08:34:52.338Z</time>
      </trkpt>
      <trkpt lat="47.0465" lon="9.03395">
        <ele>637</ele>
        <time>2021-08-02T08:34:53.337Z</time>
      </trkpt>
      <trkpt lat="47.04651" lon="9.03393">
        <ele>637</ele>
        <time>2021-08-02T08:34:54.337Z</time>
      </trkpt>
      <trkpt lat="47.04651" lon="9.03392">
        <ele>637</ele>
        <time>2021-08-02T08:34:55.338Z</time>
      </trkpt>
      <trkpt lat="47.04652" lon="9.03392">
        <ele>636</ele>
        <time>2021-08-02T08:34:56.338Z</time>
      </trkpt>
      <trkpt lat="47.04653" lon="9.0339">
        <ele>635</ele>
        <time>2021-08-02T08:34:57.338Z</time>
      </trkpt>
      <trkpt lat="47.04653" lon="9.03388">
        <ele>635</ele>
        <time>2021-08-02T08:34:58.338Z</time>
      </trkpt>
      <trkpt lat="47.04654" lon="9.03386">
        <ele>635</ele>
        <time>2021-08-02T08:34:59.338Z</time>
      </trkpt>
      <trkpt lat="47.04654" lon="9.03385">
        <ele>635</ele>
        <time>2021-08-02T08:35:00.338Z</time>
      </trkpt>
      <trkpt lat="47.04654" lon="9.03385">
        <ele>635</ele>
        <time>2021-08-02T08:35:01.337Z</time>
      </trkpt>
      <trkpt lat="47.04654" lon="9.03384">
        <ele>635</ele>
        <time>2021-08-02T08:35:02.338Z</time>
      </trkpt>
      <trkpt lat="47.04654" lon="9.03383">
        <ele>635</ele>
        <time>2021-08-02T08:35:03.338Z</time>
      </trkpt>
      <trkpt lat="47.04655" lon="9.03382">
        <ele>635</ele>
        <time>2021-08-02T08:35:04.338Z</time>
      </trkpt>
      <trkpt lat="47.04655" lon="9.03381">
        <ele>636</ele>
        <time>2021-08-02T08:35:05.338Z</time>
      </trkpt>
      <trkpt lat="47.04656" lon="9.0338">
        <ele>636</ele>
        <time>2021-08-02T08:35:06.338Z</time>
      </trkpt>
      <trkpt lat="47.04657" lon="9.0338">
        <ele>636</ele>
        <time>2021-08-02T08:35:07.338Z</time>
      </trkpt>
      <trkpt lat="47.04657" lon="9.03379">
        <ele>636</ele>
        <time>2021-08-02T08:35:08.337Z</time>
      </trkpt>
      <trkpt lat="47.04656" lon="9.03379">
        <ele>637</ele>
        <time>2021-08-02T08:35:09.337Z</time>
      </trkpt>
      <trkpt lat="47.04656" lon="9.03377">
        <ele>637</ele>
        <time>2021-08-02T08:35:10.338Z</time>
      </trkpt>
      <trkpt lat="47.04656" lon="9.03375">
        <ele>636</ele>
        <time>2021-08-02T08:35:11.338Z</time>
      </trkpt>
      <trkpt lat="47.04657" lon="9.03373">
        <ele>636</ele>
        <time>2021-08-02T08:35:12.338Z</time>
      </trkpt>
      <trkpt lat="47.04657" lon="9.03371">
        <ele>636</ele>
        <time>2021-08-02T08:35:13.338Z</time>
      </trkpt>
      <trkpt lat="47.04657" lon="9.0337">
        <ele>635</ele>
        <time>2021-08-02T08:35:14.337Z</time>
      </trkpt>
      <trkpt lat="47.04658" lon="9.03369">
        <ele>635</ele>
        <time>2021-08-02T08:35:15.338Z</time>
      </trkpt>
      <trkpt lat="47.04658" lon="9.03368">
        <ele>635</ele>
        <time>2021-08-02T08:35:16.338Z</time>
      </trkpt>
      <trkpt lat="47.04658" lon="9.03367">
        <ele>636</ele>
        <time>2021-08-02T08:35:17.338Z</time>
      </trkpt>
      <trkpt lat="47.04659" lon="9.03366">
        <ele>636</ele>
        <time>2021-08-02T08:35:18.338Z</time>
      </trkpt>
      <trkpt lat="47.04659" lon="9.03364">
        <ele>636</ele>
        <time>2021-08-02T08:35:19.338Z</time>
      </trkpt>
      <trkpt lat="47.04659" lon="9.03362">
        <ele>636</ele>
        <time>2021-08-02T08:35:20.338Z</time>
      </trkpt>
      <trkpt lat="47.04659" lon="9.0336">
        <ele>636</ele>
        <time>2021-08-02T08:35:21.338Z</time>
      </trkpt>
      <trkpt lat="47.04659" lon="9.03359">
        <ele>635</ele>
        <time>2021-08-02T08:35:22.338Z</time>
      </trkpt>
      <trkpt lat="47.0466" lon="9.03357">
        <ele>635</ele>
        <time>2021-08-02T08:35:23.338Z</time>
      </trkpt>
      <trkpt lat="47.0466" lon="9.03355">
        <ele>634</ele>
        <time>2021-08-02T08:35:24.338Z</time>
      </trkpt>
      <trkpt lat="47.0466" lon="9.03353">
        <ele>634</ele>
        <time>2021-08-02T08:35:25.338Z</time>
      </trkpt>
      <trkpt lat="47.0466" lon="9.03351">
        <ele>634</ele>
        <time>2021-08-02T08:35:26.338Z</time>
      </trkpt>
      <trkpt lat="47.04661" lon="9.03348">
        <ele>634</ele>
        <time>2021-08-02T08:35:27.338Z</time>
      </trkpt>
      <trkpt lat="47.04661" lon="9.03347">
        <ele>634</ele>
        <time>2021-08-02T08:35:28.338Z</time>
      </trkpt>
      <trkpt lat="47.04662" lon="9.03345">
        <ele>633</ele>
        <time>2021-08-02T08:35:29.338Z</time>
      </trkpt>
      <trkpt lat="47.04662" lon="9.03343">
        <ele>633</ele>
        <time>2021-08-02T08:35:30.338Z</time>
      </trkpt>
      <trkpt lat="47.04662" lon="9.0334">
        <ele>633</ele>
        <time>2021-08-02T08:35:31.338Z</time>
      </trkpt>
      <trkpt lat="47.04663" lon="9.03338">
        <ele>633</ele>
        <time>2021-08-02T08:35:32.338Z</time>
      </trkpt>
      <trkpt lat="47.04663" lon="9.03336">
        <ele>633</ele>
        <time>2021-08-02T08:35:33.337Z</time>
      </trkpt>
      <trkpt lat="47.04663" lon="9.03333">
        <ele>633</ele>
        <time>2021-08-02T08:35:34.338Z</time>
      </trkpt>
      <trkpt lat="47.04663" lon="9.03329">
        <ele>633</ele>
        <time>2021-08-02T08:35:35.338Z</time>
      </trkpt>
      <trkpt lat="47.04663" lon="9.03326">
        <ele>632</ele>
        <time>2021-08-02T08:35:36.338Z</time>
      </trkpt>
      <trkpt lat="47.04663" lon="9.03324">
        <ele>632</ele>
        <time>2021-08-02T08:35:37.338Z</time>
      </trkpt>
      <trkpt lat="47.04663" lon="9.03323">
        <ele>632</ele>
        <time>2021-08-02T08:35:38.338Z</time>
      </trkpt>
      <trkpt lat="47.04663" lon="9.03321">
        <ele>631</ele>
        <time>2021-08-02T08:35:39.337Z</time>
      </trkpt>
      <trkpt lat="47.04663" lon="9.0332">
        <ele>631</ele>
        <time>2021-08-02T08:35:40.338Z</time>
      </trkpt>
      <trkpt lat="47.04664" lon="9.03319">
        <ele>631</ele>
        <time>2021-08-02T08:35:41.338Z</time>
      </trkpt>
      <trkpt lat="47.04664" lon="9.03318">
        <ele>630</ele>
        <time>2021-08-02T08:35:42.338Z</time>
      </trkpt>
      <trkpt lat="47.04665" lon="9.03317">
        <ele>630</ele>
        <time>2021-08-02T08:35:43.338Z</time>
      </trkpt>
      <trkpt lat="47.04665" lon="9.03316">
        <ele>630</ele>
        <time>2021-08-02T08:35:44.337Z</time>
      </trkpt>
      <trkpt lat="47.04666" lon="9.03314">
        <ele>631</ele>
        <time>2021-08-02T08:35:45.338Z</time>
      </trkpt>
      <trkpt lat="47.04666" lon="9.03313">
        <ele>631</ele>
        <time>2021-08-02T08:35:46.337Z</time>
      </trkpt>
      <trkpt lat="47.04666" lon="9.03313">
        <ele>632</ele>
        <time>2021-08-02T08:35:47.337Z</time>
      </trkpt>
      <trkpt lat="47.04665" lon="9.03312">
        <ele>632</ele>
        <time>2021-08-02T08:35:48.338Z</time>
      </trkpt>
      <trkpt lat="47.04664" lon="9.03311">
        <ele>632</ele>
        <time>2021-08-02T08:35:49.337Z</time>
      </trkpt>
      <trkpt lat="47.04663" lon="9.03314">
        <ele>639</ele>
        <time>2021-08-02T08:35:50.338Z</time>
      </trkpt>
      <trkpt lat="47.04663" lon="9.03314">
        <ele>642</ele>
        <time>2021-08-02T08:35:51.337Z</time>
      </trkpt>
      <trkpt lat="47.0466" lon="9.03319">
        <ele>636</ele>
        <time>2021-08-02T08:35:52.338Z</time>
      </trkpt>
      <trkpt lat="47.0466" lon="9.03319">
        <ele>635</ele>
        <time>2021-08-02T08:35:53.338Z</time>
      </trkpt>
      <trkpt lat="47.0466" lon="9.0332">
        <ele>633</ele>
        <time>2021-08-02T08:35:54.338Z</time>
      </trkpt>
      <trkpt lat="47.0466" lon="9.0332">
        <ele>632</ele>
        <time>2021-08-02T08:35:55.338Z</time>
      </trkpt>
      <trkpt lat="47.0466" lon="9.03332">
        <ele>634</ele>
        <time>2021-08-02T08:35:56.339Z</time>
      </trkpt>
      <trkpt lat="47.04659" lon="9.03333">
        <ele>634</ele>
        <time>2021-08-02T08:35:57.339Z</time>
      </trkpt>
      <trkpt lat="47.04659" lon="9.03334">
        <ele>634</ele>
        <time>2021-08-02T08:35:58.338Z</time>
      </trkpt>
      <trkpt lat="47.04659" lon="9.03334">
        <ele>635</ele>
        <time>2021-08-02T08:35:59.339Z</time>
      </trkpt>
      <trkpt lat="47.04659" lon="9.03334">
        <ele>635</ele>
        <time>2021-08-02T08:36:00.339Z</time>
      </trkpt>
      <trkpt lat="47.04658" lon="9.03334">
        <ele>635</ele>
        <time>2021-08-02T08:36:01.339Z</time>
      </trkpt>
      <trkpt lat="47.04658" lon="9.03334">
        <ele>635</ele>
        <time>2021-08-02T08:36:02.339Z</time>
      </trkpt>
      <trkpt lat="47.04658" lon="9.03334">
        <ele>635</ele>
        <time>2021-08-02T08:36:03.339Z</time>
      </trkpt>
      <trkpt lat="47.04658" lon="9.03335">
        <ele>636</ele>
        <time>2021-08-02T08:36:04.339Z</time>
      </trkpt>
      <trkpt lat="47.04658" lon="9.03335">
        <ele>637</ele>
        <time>2021-08-02T08:36:05.339Z</time>
      </trkpt>
      <trkpt lat="47.04658" lon="9.03334">
        <ele>639</ele>
        <time>2021-08-02T08:36:06.339Z</time>
      </trkpt>
      <trkpt lat="47.04659" lon="9.03332">
        <ele>640</ele>
        <time>2021-08-02T08:36:07.339Z</time>
      </trkpt>
      <trkpt lat="47.04659" lon="9.0333">
        <ele>640</ele>
        <time>2021-08-02T08:36:08.339Z</time>
      </trkpt>
      <trkpt lat="47.04658" lon="9.03328">
        <ele>641</ele>
        <time>2021-08-02T08:36:09.340Z</time>
      </trkpt>
      <trkpt lat="47.04658" lon="9.03326">
        <ele>641</ele>
        <time>2021-08-02T08:36:10.340Z</time>
      </trkpt>
      <trkpt lat="47.04658" lon="9.03325">
        <ele>642</ele>
        <time>2021-08-02T08:36:11.339Z</time>
      </trkpt>
      <trkpt lat="47.04657" lon="9.03324">
        <ele>642</ele>
        <time>2021-08-02T08:36:12.340Z</time>
      </trkpt>
      <trkpt lat="47.04655" lon="9.03319">
        <ele>639</ele>
        <time>2021-08-02T08:36:13.340Z</time>
      </trkpt>
      <trkpt lat="47.04655" lon="9.03319">
        <ele>638</ele>
        <time>2021-08-02T08:36:14.339Z</time>
      </trkpt>
      <trkpt lat="47.04656" lon="9.03317">
        <ele>637</ele>
        <time>2021-08-02T08:36:15.341Z</time>
      </trkpt>
      <trkpt lat="47.04656" lon="9.03316">
        <ele>636</ele>
        <time>2021-08-02T08:36:16.341Z</time>
      </trkpt>
      <trkpt lat="47.04656" lon="9.03315">
        <ele>636</ele>
        <time>2021-08-02T08:36:17.340Z</time>
      </trkpt>
      <trkpt lat="47.04656" lon="9.03313">
        <ele>635</ele>
        <time>2021-08-02T08:36:18.341Z</time>
      </trkpt>
      <trkpt lat="47.04656" lon="9.03312">
        <ele>635</ele>
        <time>2021-08-02T08:36:19.340Z</time>
      </trkpt>
      <trkpt lat="47.04656" lon="9.03311">
        <ele>634</ele>
        <time>2021-08-02T08:36:20.341Z</time>
      </trkpt>
      <trkpt lat="47.04657" lon="9.03309">
        <ele>634</ele>
        <time>2021-08-02T08:36:21.340Z</time>
      </trkpt>
      <trkpt lat="47.04658" lon="9.03308">
        <ele>634</ele>
        <time>2021-08-02T08:36:22.341Z</time>
      </trkpt>
      <trkpt lat="47.04659" lon="9.03307">
        <ele>634</ele>
        <time>2021-08-02T08:36:23.341Z</time>
      </trkpt>
      <trkpt lat="47.04659" lon="9.03306">
        <ele>634</ele>
        <time>2021-08-02T08:36:24.340Z</time>
      </trkpt>
      <trkpt lat="47.0466" lon="9.03305">
        <ele>634</ele>
        <time>2021-08-02T08:36:25.341Z</time>
      </trkpt>
      <trkpt lat="47.0466" lon="9.03304">
        <ele>634</ele>
        <time>2021-08-02T08:36:26.341Z</time>
      </trkpt>
      <trkpt lat="47.04661" lon="9.03303">
        <ele>634</ele>
        <time>2021-08-02T08:36:27.341Z</time>
      </trkpt>
      <trkpt lat="47.04661" lon="9.03302">
        <ele>634</ele>
        <time>2021-08-02T08:36:28.341Z</time>
      </trkpt>
      <trkpt lat="47.04661" lon="9.03302">
        <ele>634</ele>
        <time>2021-08-02T08:36:29.341Z</time>
      </trkpt>
      <trkpt lat="47.04662" lon="9.03301">
        <ele>634</ele>
        <time>2021-08-02T08:36:30.341Z</time>
      </trkpt>
      <trkpt lat="47.04663" lon="9.033">
        <ele>635</ele>
        <time>2021-08-02T08:36:31.340Z</time>
      </trkpt>
      <trkpt lat="47.04663" lon="9.03299">
        <ele>635</ele>
        <time>2021-08-02T08:36:32.341Z</time>
      </trkpt>
      <trkpt lat="47.04664" lon="9.03298">
        <ele>635</ele>
        <time>2021-08-02T08:36:33.341Z</time>
      </trkpt>
      <trkpt lat="47.04664" lon="9.03297">
        <ele>635</ele>
        <time>2021-08-02T08:36:34.341Z</time>
      </trkpt>
      <trkpt lat="47.04665" lon="9.03296">
        <ele>635</ele>
        <time>2021-08-02T08:36:35.340Z</time>
      </trkpt>
      <trkpt lat="47.04666" lon="9.03295">
        <ele>635</ele>
        <time>2021-08-02T08:36:36.340Z</time>
      </trkpt>
      <trkpt lat="47.04667" lon="9.03294">
        <ele>634</ele>
        <time>2021-08-02T08:36:37.341Z</time>
      </trkpt>
      <trkpt lat="47.04668" lon="9.03292">
        <ele>634</ele>
        <time>2021-08-02T08:36:38.341Z</time>
      </trkpt>
      <trkpt lat="47.04669" lon="9.03291">
        <ele>634</ele>
        <time>2021-08-02T08:36:39.341Z</time>
      </trkpt>
      <trkpt lat="47.04669" lon="9.03289">
        <ele>634</ele>
        <time>2021-08-02T08:36:40.341Z</time>
      </trkpt>
      <trkpt lat="47.0467" lon="9.03287">
        <ele>633</ele>
        <time>2021-08-02T08:36:41.340Z</time>
      </trkpt>
      <trkpt lat="47.04671" lon="9.03285">
        <ele>633</ele>
        <time>2021-08-02T08:36:42.341Z</time>
      </trkpt>
      <trkpt lat="47.0467" lon="9.03282">
        <ele>633</ele>
        <time>2021-08-02T08:36:43.341Z</time>
      </trkpt>
      <trkpt lat="47.04671" lon="9.03281">
        <ele>633</ele>
        <time>2021-08-02T08:36:44.340Z</time>
      </trkpt>
      <trkpt lat="47.04671" lon="9.03279">
        <ele>633</ele>
        <time>2021-08-02T08:36:45.340Z</time>
      </trkpt>
      <trkpt lat="47.04672" lon="9.03279">
        <ele>634</ele>
        <time>2021-08-02T08:36:46.340Z</time>
      </trkpt>
      <trkpt lat="47.04673" lon="9.03278">
        <ele>634</ele>
        <time>2021-08-02T08:36:47.340Z</time>
      </trkpt>
      <trkpt lat="47.04673" lon="9.03277">
        <ele>635</ele>
        <time>2021-08-02T08:36:48.341Z</time>
      </trkpt>
      <trkpt lat="47.04675" lon="9.03276">
        <ele>636</ele>
        <time>2021-08-02T08:36:49.341Z</time>
      </trkpt>
      <trkpt lat="47.04675" lon="9.03275">
        <ele>637</ele>
        <time>2021-08-02T08:36:50.341Z</time>
      </trkpt>
      <trkpt lat="47.04676" lon="9.03273">
        <ele>637</ele>
        <time>2021-08-02T08:36:51.341Z</time>
      </trkpt>
      <trkpt lat="47.04677" lon="9.03272">
        <ele>638</ele>
        <time>2021-08-02T08:36:52.340Z</time>
      </trkpt>
      <trkpt lat="47.04677" lon="9.0327">
        <ele>639</ele>
        <time>2021-08-02T08:36:53.341Z</time>
      </trkpt>
      <trkpt lat="47.04678" lon="9.03269">
        <ele>639</ele>
        <time>2021-08-02T08:36:54.341Z</time>
      </trkpt>
      <trkpt lat="47.04678" lon="9.03268">
        <ele>640</ele>
        <time>2021-08-02T08:36:55.341Z</time>
      </trkpt>
      <trkpt lat="47.04679" lon="9.03268">
        <ele>641</ele>
        <time>2021-08-02T08:36:56.340Z</time>
      </trkpt>
      <trkpt lat="47.04679" lon="9.03267">
        <ele>642</ele>
        <time>2021-08-02T08:36:57.341Z</time>
      </trkpt>
      <trkpt lat="47.0468" lon="9.03267">
        <ele>642</ele>
        <time>2021-08-02T08:36:58.340Z</time>
      </trkpt>
      <trkpt lat="47.0468" lon="9.03266">
        <ele>643</ele>
        <time>2021-08-02T08:36:59.340Z</time>
      </trkpt>
      <trkpt lat="47.04681" lon="9.03265">
        <ele>644</ele>
        <time>2021-08-02T08:37:00.340Z</time>
      </trkpt>
      <trkpt lat="47.04682" lon="9.03265">
        <ele>644</ele>
        <time>2021-08-02T08:37:01.340Z</time>
      </trkpt>
      <trkpt lat="47.04683" lon="9.03264">
        <ele>644</ele>
        <time>2021-08-02T08:37:02.341Z</time>
      </trkpt>
      <trkpt lat="47.04684" lon="9.03264">
        <ele>644</ele>
        <time>2021-08-02T08:37:03.341Z</time>
      </trkpt>
      <trkpt lat="47.04684" lon="9.03263">
        <ele>644</ele>
        <time>2021-08-02T08:37:04.341Z</time>
      </trkpt>
      <trkpt lat="47.04685" lon="9.03262">
        <ele>644</ele>
        <time>2021-08-02T08:37:05.340Z</time>
      </trkpt>
      <trkpt lat="47.04685" lon="9.03261">
        <ele>645</ele>
        <time>2021-08-02T08:37:06.341Z</time>
      </trkpt>
      <trkpt lat="47.04686" lon="9.0326">
        <ele>645</ele>
        <time>2021-08-02T08:37:07.341Z</time>
      </trkpt>
      <trkpt lat="47.04687" lon="9.03259">
        <ele>645</ele>
        <time>2021-08-02T08:37:08.340Z</time>
      </trkpt>
      <trkpt lat="47.04688" lon="9.03259">
        <ele>646</ele>
        <time>2021-08-02T08:37:09.341Z</time>
      </trkpt>
      <trkpt lat="47.04688" lon="9.03258">
        <ele>646</ele>
        <time>2021-08-02T08:37:10.341Z</time>
      </trkpt>
      <trkpt lat="47.04689" lon="9.03257">
        <ele>646</ele>
        <time>2021-08-02T08:37:11.341Z</time>
      </trkpt>
      <trkpt lat="47.04689" lon="9.03256">
        <ele>646</ele>
        <time>2021-08-02T08:37:12.340Z</time>
      </trkpt>
      <trkpt lat="47.0469" lon="9.03255">
        <ele>646</ele>
        <time>2021-08-02T08:37:13.340Z</time>
      </trkpt>
      <trkpt lat="47.0469" lon="9.03253">
        <ele>647</ele>
        <time>2021-08-02T08:37:14.340Z</time>
      </trkpt>
      <trkpt lat="47.04689" lon="9.03252">
        <ele>647</ele>
        <time>2021-08-02T08:37:15.340Z</time>
      </trkpt>
      <trkpt lat="47.04689" lon="9.03251">
        <ele>647</ele>
        <time>2021-08-02T08:37:16.341Z</time>
      </trkpt>
      <trkpt lat="47.0469" lon="9.03251">
        <ele>647</ele>
        <time>2021-08-02T08:37:17.341Z</time>
      </trkpt>
      <trkpt lat="47.04691" lon="9.0325">
        <ele>647</ele>
        <time>2021-08-02T08:37:18.341Z</time>
      </trkpt>
      <trkpt lat="47.04691" lon="9.0325">
        <ele>648</ele>
        <time>2021-08-02T08:37:19.341Z</time>
      </trkpt>
      <trkpt lat="47.04691" lon="9.0325">
        <ele>648</ele>
        <time>2021-08-02T08:37:20.341Z</time>
      </trkpt>
      <trkpt lat="47.04692" lon="9.03249">
        <ele>648</ele>
        <time>2021-08-02T08:37:21.341Z</time>
      </trkpt>
      <trkpt lat="47.04693" lon="9.03248">
        <ele>648</ele>
        <time>2021-08-02T08:37:22.341Z</time>
      </trkpt>
      <trkpt lat="47.04694" lon="9.03247">
        <ele>647</ele>
        <time>2021-08-02T08:37:23.341Z</time>
      </trkpt>
      <trkpt lat="47.04695" lon="9.03247">
        <ele>647</ele>
        <time>2021-08-02T08:37:24.341Z</time>
      </trkpt>
      <trkpt lat="47.04695" lon="9.03246">
        <ele>647</ele>
        <time>2021-08-02T08:37:25.341Z</time>
      </trkpt>
      <trkpt lat="47.04696" lon="9.03245">
        <ele>647</ele>
        <time>2021-08-02T08:37:26.340Z</time>
      </trkpt>
      <trkpt lat="47.04696" lon="9.03245">
        <ele>647</ele>
        <time>2021-08-02T08:37:27.340Z</time>
      </trkpt>
      <trkpt lat="47.04697" lon="9.03244">
        <ele>647</ele>
        <time>2021-08-02T08:37:28.340Z</time>
      </trkpt>
      <trkpt lat="47.04698" lon="9.03242">
        <ele>646</ele>
        <time>2021-08-02T08:37:29.341Z</time>
      </trkpt>
      <trkpt lat="47.04699" lon="9.03241">
        <ele>646</ele>
        <time>2021-08-02T08:37:30.340Z</time>
      </trkpt>
      <trkpt lat="47.04699" lon="9.0324">
        <ele>646</ele>
        <time>2021-08-02T08:37:31.341Z</time>
      </trkpt>
      <trkpt lat="47.047" lon="9.0324">
        <ele>646</ele>
        <time>2021-08-02T08:37:32.340Z</time>
      </trkpt>
      <trkpt lat="47.04702" lon="9.03239">
        <ele>645</ele>
        <time>2021-08-02T08:37:33.341Z</time>
      </trkpt>
      <trkpt lat="47.04703" lon="9.03239">
        <ele>645</ele>
        <time>2021-08-02T08:37:34.341Z</time>
      </trkpt>
      <trkpt lat="47.04703" lon="9.03238">
        <ele>644</ele>
        <time>2021-08-02T08:37:35.341Z</time>
      </trkpt>
      <trkpt lat="47.04704" lon="9.03237">
        <ele>644</ele>
        <time>2021-08-02T08:37:36.341Z</time>
      </trkpt>
      <trkpt lat="47.04706" lon="9.03236">
        <ele>643</ele>
        <time>2021-08-02T08:37:37.340Z</time>
      </trkpt>
      <trkpt lat="47.04706" lon="9.03235">
        <ele>643</ele>
        <time>2021-08-02T08:37:38.340Z</time>
      </trkpt>
      <trkpt lat="47.04707" lon="9.03234">
        <ele>642</ele>
        <time>2021-08-02T08:37:39.341Z</time>
      </trkpt>
      <trkpt lat="47.04707" lon="9.03234">
        <ele>642</ele>
        <time>2021-08-02T08:37:40.341Z</time>
      </trkpt>
      <trkpt lat="47.04707" lon="9.03234">
        <ele>642</ele>
        <time>2021-08-02T08:37:41.341Z</time>
      </trkpt>
      <trkpt lat="47.04708" lon="9.03234">
        <ele>641</ele>
        <time>2021-08-02T08:37:42.341Z</time>
      </trkpt>
      <trkpt lat="47.04708" lon="9.03234">
        <ele>641</ele>
        <time>2021-08-02T08:37:43.341Z</time>
      </trkpt>
      <trkpt lat="47.04709" lon="9.03234">
        <ele>641</ele>
        <time>2021-08-02T08:37:44.340Z</time>
      </trkpt>
      <trkpt lat="47.04709" lon="9.03234">
        <ele>640</ele>
        <time>2021-08-02T08:37:45.341Z</time>
      </trkpt>
      <trkpt lat="47.0471" lon="9.03233">
        <ele>640</ele>
        <time>2021-08-02T08:37:46.341Z</time>
      </trkpt>
      <trkpt lat="47.04711" lon="9.03232">
        <ele>640</ele>
        <time>2021-08-02T08:37:47.341Z</time>
      </trkpt>
      <trkpt lat="47.04712" lon="9.03231">
        <ele>639</ele>
        <time>2021-08-02T08:37:48.340Z</time>
      </trkpt>
      <trkpt lat="47.04713" lon="9.0323">
        <ele>639</ele>
        <time>2021-08-02T08:37:49.340Z</time>
      </trkpt>
      <trkpt lat="47.04714" lon="9.03229">
        <ele>639</ele>
        <time>2021-08-02T08:37:50.341Z</time>
      </trkpt>
      <trkpt lat="47.04715" lon="9.03227">
        <ele>639</ele>
        <time>2021-08-02T08:37:51.341Z</time>
      </trkpt>
      <trkpt lat="47.04716" lon="9.03226">
        <ele>639</ele>
        <time>2021-08-02T08:37:52.341Z</time>
      </trkpt>
      <trkpt lat="47.04716" lon="9.03225">
        <ele>639</ele>
        <time>2021-08-02T08:37:53.340Z</time>
      </trkpt>
      <trkpt lat="47.04717" lon="9.03224">
        <ele>639</ele>
        <time>2021-08-02T08:37:54.340Z</time>
      </trkpt>
      <trkpt lat="47.04717" lon="9.03224">
        <ele>640</ele>
        <time>2021-08-02T08:37:55.341Z</time>
      </trkpt>
      <trkpt lat="47.04718" lon="9.03224">
        <ele>640</ele>
        <time>2021-08-02T08:37:56.340Z</time>
      </trkpt>
      <trkpt lat="47.04719" lon="9.03222">
        <ele>640</ele>
        <time>2021-08-02T08:37:57.340Z</time>
      </trkpt>
      <trkpt lat="47.0472" lon="9.03221">
        <ele>640</ele>
        <time>2021-08-02T08:37:58.340Z</time>
      </trkpt>
      <trkpt lat="47.04721" lon="9.03222">
        <ele>641</ele>
        <time>2021-08-02T08:37:59.341Z</time>
      </trkpt>
      <trkpt lat="47.04722" lon="9.03221">
        <ele>641</ele>
        <time>2021-08-02T08:38:00.341Z</time>
      </trkpt>
      <trkpt lat="47.04723" lon="9.0322">
        <ele>641</ele>
        <time>2021-08-02T08:38:01.340Z</time>
      </trkpt>
      <trkpt lat="47.04724" lon="9.03218">
        <ele>640</ele>
        <time>2021-08-02T08:38:02.341Z</time>
      </trkpt>
      <trkpt lat="47.04725" lon="9.03217">
        <ele>640</ele>
        <time>2021-08-02T08:38:03.341Z</time>
      </trkpt>
      <trkpt lat="47.04726" lon="9.03217">
        <ele>640</ele>
        <time>2021-08-02T08:38:04.341Z</time>
      </trkpt>
      <trkpt lat="47.04726" lon="9.03217">
        <ele>640</ele>
        <time>2021-08-02T08:38:05.341Z</time>
      </trkpt>
      <trkpt lat="47.04728" lon="9.03216">
        <ele>640</ele>
        <time>2021-08-02T08:38:06.341Z</time>
      </trkpt>
      <trkpt lat="47.04729" lon="9.03214">
        <ele>640</ele>
        <time>2021-08-02T08:38:07.340Z</time>
      </trkpt>
      <trkpt lat="47.04729" lon="9.03213">
        <ele>640</ele>
        <time>2021-08-02T08:38:08.341Z</time>
      </trkpt>
      <trkpt lat="47.0473" lon="9.03213">
        <ele>640</ele>
        <time>2021-08-02T08:38:09.341Z</time>
      </trkpt>
      <trkpt lat="47.04731" lon="9.03212">
        <ele>640</ele>
        <time>2021-08-02T08:38:10.340Z</time>
      </trkpt>
      <trkpt lat="47.04732" lon="9.03212">
        <ele>641</ele>
        <time>2021-08-02T08:38:11.341Z</time>
      </trkpt>
      <trkpt lat="47.04732" lon="9.03211">
        <ele>641</ele>
        <time>2021-08-02T08:38:12.340Z</time>
      </trkpt>
      <trkpt lat="47.04733" lon="9.0321">
        <ele>641</ele>
        <time>2021-08-02T08:38:13.341Z</time>
      </trkpt>
      <trkpt lat="47.04734" lon="9.03209">
        <ele>642</ele>
        <time>2021-08-02T08:38:14.341Z</time>
      </trkpt>
      <trkpt lat="47.04735" lon="9.03209">
        <ele>642</ele>
        <time>2021-08-02T08:38:15.341Z</time>
      </trkpt>
      <trkpt lat="47.04735" lon="9.03208">
        <ele>642</ele>
        <time>2021-08-02T08:38:16.341Z</time>
      </trkpt>
      <trkpt lat="47.04736" lon="9.03207">
        <ele>642</ele>
        <time>2021-08-02T08:38:17.341Z</time>
      </trkpt>
      <trkpt lat="47.04737" lon="9.03207">
        <ele>642</ele>
        <time>2021-08-02T08:38:18.341Z</time>
      </trkpt>
      <trkpt lat="47.04737" lon="9.03206">
        <ele>643</ele>
        <time>2021-08-02T08:38:19.340Z</time>
      </trkpt>
      <trkpt lat="47.04738" lon="9.03205">
        <ele>643</ele>
        <time>2021-08-02T08:38:20.340Z</time>
      </trkpt>
      <trkpt lat="47.04739" lon="9.03204">
        <ele>644</ele>
        <time>2021-08-02T08:38:21.341Z</time>
      </trkpt>
      <trkpt lat="47.0474" lon="9.03203">
        <ele>644</ele>
        <time>2021-08-02T08:38:22.340Z</time>
      </trkpt>
      <trkpt lat="47.0474" lon="9.03202">
        <ele>644</ele>
        <time>2021-08-02T08:38:23.341Z</time>
      </trkpt>
      <trkpt lat="47.04741" lon="9.03201">
        <ele>644</ele>
        <time>2021-08-02T08:38:24.341Z</time>
      </trkpt>
      <trkpt lat="47.04742" lon="9.03201">
        <ele>644</ele>
        <time>2021-08-02T08:38:25.340Z</time>
      </trkpt>
      <trkpt lat="47.04743" lon="9.032">
        <ele>644</ele>
        <time>2021-08-02T08:38:26.340Z</time>
      </trkpt>
      <trkpt lat="47.04744" lon="9.032">
        <ele>644</ele>
        <time>2021-08-02T08:38:27.341Z</time>
      </trkpt>
      <trkpt lat="47.04744" lon="9.03201">
        <ele>644</ele>
        <time>2021-08-02T08:38:28.341Z</time>
      </trkpt>
      <trkpt lat="47.04745" lon="9.03202">
        <ele>644</ele>
        <time>2021-08-02T08:38:29.341Z</time>
      </trkpt>
      <trkpt lat="47.04746" lon="9.03201">
        <ele>644</ele>
        <time>2021-08-02T08:38:30.341Z</time>
      </trkpt>
      <trkpt lat="47.04747" lon="9.03199">
        <ele>644</ele>
        <time>2021-08-02T08:38:31.341Z</time>
      </trkpt>
      <trkpt lat="47.04748" lon="9.03199">
        <ele>644</ele>
        <time>2021-08-02T08:38:32.341Z</time>
      </trkpt>
      <trkpt lat="47.04749" lon="9.03199">
        <ele>644</ele>
        <time>2021-08-02T08:38:33.341Z</time>
      </trkpt>
      <trkpt lat="47.04749" lon="9.03199">
        <ele>644</ele>
        <time>2021-08-02T08:38:34.341Z</time>
      </trkpt>
      <trkpt lat="47.0475" lon="9.03198">
        <ele>644</ele>
        <time>2021-08-02T08:38:35.341Z</time>
      </trkpt>
      <trkpt lat="47.04751" lon="9.03198">
        <ele>644</ele>
        <time>2021-08-02T08:38:36.341Z</time>
      </trkpt>
      <trkpt lat="47.04752" lon="9.03197">
        <ele>644</ele>
        <time>2021-08-02T08:38:37.340Z</time>
      </trkpt>
      <trkpt lat="47.04753" lon="9.03196">
        <ele>643</ele>
        <time>2021-08-02T08:38:38.341Z</time>
      </trkpt>
      <trkpt lat="47.04753" lon="9.03195">
        <ele>643</ele>
        <time>2021-08-02T08:38:39.341Z</time>
      </trkpt>
      <trkpt lat="47.04754" lon="9.03194">
        <ele>643</ele>
        <time>2021-08-02T08:38:40.341Z</time>
      </trkpt>
      <trkpt lat="47.04754" lon="9.03195">
        <ele>642</ele>
        <time>2021-08-02T08:38:41.341Z</time>
      </trkpt>
      <trkpt lat="47.04755" lon="9.03195">
        <ele>642</ele>
        <time>2021-08-02T08:38:42.340Z</time>
      </trkpt>
      <trkpt lat="47.04756" lon="9.03195">
        <ele>642</ele>
        <time>2021-08-02T08:38:43.340Z</time>
      </trkpt>
      <trkpt lat="47.04757" lon="9.03196">
        <ele>643</ele>
        <time>2021-08-02T08:38:44.341Z</time>
      </trkpt>
      <trkpt lat="47.04759" lon="9.03196">
        <ele>643</ele>
        <time>2021-08-02T08:38:45.341Z</time>
      </trkpt>
      <trkpt lat="47.04759" lon="9.03195">
        <ele>644</ele>
        <time>2021-08-02T08:38:46.341Z</time>
      </trkpt>
      <trkpt lat="47.0476" lon="9.03194">
        <ele>644</ele>
        <time>2021-08-02T08:38:47.341Z</time>
      </trkpt>
      <trkpt lat="47.04761" lon="9.03193">
        <ele>644</ele>
        <time>2021-08-02T08:38:48.341Z</time>
      </trkpt>
      <trkpt lat="47.04762" lon="9.03193">
        <ele>645</ele>
        <time>2021-08-02T08:38:49.341Z</time>
      </trkpt>
      <trkpt lat="47.04763" lon="9.03192">
        <ele>646</ele>
        <time>2021-08-02T08:38:50.340Z</time>
      </trkpt>
      <trkpt lat="47.04764" lon="9.03192">
        <ele>646</ele>
        <time>2021-08-02T08:38:51.341Z</time>
      </trkpt>
      <trkpt lat="47.04766" lon="9.03192">
        <ele>646</ele>
        <time>2021-08-02T08:38:52.340Z</time>
      </trkpt>
      <trkpt lat="47.04767" lon="9.03192">
        <ele>646</ele>
        <time>2021-08-02T08:38:53.341Z</time>
      </trkpt>
      <trkpt lat="47.04768" lon="9.03192">
        <ele>647</ele>
        <time>2021-08-02T08:38:54.341Z</time>
      </trkpt>
      <trkpt lat="47.04769" lon="9.03191">
        <ele>647</ele>
        <time>2021-08-02T08:38:55.341Z</time>
      </trkpt>
      <trkpt lat="47.0477" lon="9.03191">
        <ele>648</ele>
        <time>2021-08-02T08:38:56.341Z</time>
      </trkpt>
      <trkpt lat="47.04771" lon="9.03191">
        <ele>649</ele>
        <time>2021-08-02T08:38:57.340Z</time>
      </trkpt>
      <trkpt lat="47.04772" lon="9.0319">
        <ele>649</ele>
        <time>2021-08-02T08:38:58.341Z</time>
      </trkpt>
      <trkpt lat="47.04773" lon="9.0319">
        <ele>650</ele>
        <time>2021-08-02T08:38:59.341Z</time>
      </trkpt>
      <trkpt lat="47.04773" lon="9.0319">
        <ele>650</ele>
        <time>2021-08-02T08:39:00.340Z</time>
      </trkpt>
      <trkpt lat="47.04775" lon="9.03189">
        <ele>650</ele>
        <time>2021-08-02T08:39:01.341Z</time>
      </trkpt>
      <trkpt lat="47.04776" lon="9.03189">
        <ele>650</ele>
        <time>2021-08-02T08:39:02.341Z</time>
      </trkpt>
      <trkpt lat="47.04776" lon="9.03188">
        <ele>651</ele>
        <time>2021-08-02T08:39:03.341Z</time>
      </trkpt>
      <trkpt lat="47.04777" lon="9.03187">
        <ele>651</ele>
        <time>2021-08-02T08:39:04.341Z</time>
      </trkpt>
      <trkpt lat="47.04778" lon="9.03186">
        <ele>651</ele>
        <time>2021-08-02T08:39:05.340Z</time>
      </trkpt>
      <trkpt lat="47.04778" lon="9.03185">
        <ele>651</ele>
        <time>2021-08-02T08:39:06.341Z</time>
      </trkpt>
      <trkpt lat="47.04779" lon="9.03184">
        <ele>651</ele>
        <time>2021-08-02T08:39:07.341Z</time>
      </trkpt>
      <trkpt lat="47.0478" lon="9.03184">
        <ele>652</ele>
        <time>2021-08-02T08:39:08.340Z</time>
      </trkpt>
      <trkpt lat="47.04781" lon="9.03183">
        <ele>652</ele>
        <time>2021-08-02T08:39:09.341Z</time>
      </trkpt>
      <trkpt lat="47.04782" lon="9.03183">
        <ele>652</ele>
        <time>2021-08-02T08:39:10.341Z</time>
      </trkpt>
      <trkpt lat="47.04782" lon="9.03183">
        <ele>652</ele>
        <time>2021-08-02T08:39:11.340Z</time>
      </trkpt>
      <trkpt lat="47.04783" lon="9.03182">
        <ele>652</ele>
        <time>2021-08-02T08:39:12.340Z</time>
      </trkpt>
      <trkpt lat="47.04784" lon="9.03182">
        <ele>652</ele>
        <time>2021-08-02T08:39:13.340Z</time>
      </trkpt>
      <trkpt lat="47.04784" lon="9.03181">
        <ele>653</ele>
        <time>2021-08-02T08:39:14.340Z</time>
      </trkpt>
      <trkpt lat="47.04786" lon="9.0318">
        <ele>653</ele>
        <time>2021-08-02T08:39:15.341Z</time>
      </trkpt>
      <trkpt lat="47.04787" lon="9.03179">
        <ele>653</ele>
        <time>2021-08-02T08:39:16.340Z</time>
      </trkpt>
      <trkpt lat="47.04788" lon="9.03179">
        <ele>653</ele>
        <time>2021-08-02T08:39:17.340Z</time>
      </trkpt>
      <trkpt lat="47.04789" lon="9.03178">
        <ele>653</ele>
        <time>2021-08-02T08:39:18.341Z</time>
      </trkpt>
      <trkpt lat="47.0479" lon="9.03178">
        <ele>653</ele>
        <time>2021-08-02T08:39:19.340Z</time>
      </trkpt>
      <trkpt lat="47.0479" lon="9.03178">
        <ele>654</ele>
        <time>2021-08-02T08:39:20.340Z</time>
      </trkpt>
      <trkpt lat="47.04791" lon="9.03178">
        <ele>654</ele>
        <time>2021-08-02T08:39:21.340Z</time>
      </trkpt>
      <trkpt lat="47.04791" lon="9.03178">
        <ele>654</ele>
        <time>2021-08-02T08:39:22.340Z</time>
      </trkpt>
      <trkpt lat="47.04792" lon="9.03178">
        <ele>655</ele>
        <time>2021-08-02T08:39:23.340Z</time>
      </trkpt>
      <trkpt lat="47.04793" lon="9.03178">
        <ele>655</ele>
        <time>2021-08-02T08:39:24.340Z</time>
      </trkpt>
      <trkpt lat="47.04794" lon="9.03177">
        <ele>655</ele>
        <time>2021-08-02T08:39:25.340Z</time>
      </trkpt>
      <trkpt lat="47.04794" lon="9.03176">
        <ele>655</ele>
        <time>2021-08-02T08:39:26.340Z</time>
      </trkpt>
      <trkpt lat="47.04795" lon="9.03176">
        <ele>656</ele>
        <time>2021-08-02T08:39:27.340Z</time>
      </trkpt>
      <trkpt lat="47.04796" lon="9.03175">
        <ele>656</ele>
        <time>2021-08-02T08:39:28.341Z</time>
      </trkpt>
      <trkpt lat="47.04796" lon="9.03174">
        <ele>656</ele>
        <time>2021-08-02T08:39:29.340Z</time>
      </trkpt>
      <trkpt lat="47.04797" lon="9.03174">
        <ele>656</ele>
        <time>2021-08-02T08:39:30.340Z</time>
      </trkpt>
      <trkpt lat="47.04798" lon="9.03173">
        <ele>656</ele>
        <time>2021-08-02T08:39:31.340Z</time>
      </trkpt>
      <trkpt lat="47.04798" lon="9.03172">
        <ele>656</ele>
        <time>2021-08-02T08:39:32.340Z</time>
      </trkpt>
      <trkpt lat="47.04799" lon="9.03172">
        <ele>656</ele>
        <time>2021-08-02T08:39:33.341Z</time>
      </trkpt>
      <trkpt lat="47.048" lon="9.03171">
        <ele>656</ele>
        <time>2021-08-02T08:39:34.341Z</time>
      </trkpt>
      <trkpt lat="47.04801" lon="9.0317">
        <ele>656</ele>
        <time>2021-08-02T08:39:35.341Z</time>
      </trkpt>
      <trkpt lat="47.04802" lon="9.03169">
        <ele>656</ele>
        <time>2021-08-02T08:39:36.341Z</time>
      </trkpt>
      <trkpt lat="47.04803" lon="9.03168">
        <ele>656</ele>
        <time>2021-08-02T08:39:37.341Z</time>
      </trkpt>
      <trkpt lat="47.04805" lon="9.03167">
        <ele>656</ele>
        <time>2021-08-02T08:39:38.340Z</time>
      </trkpt>
      <trkpt lat="47.04807" lon="9.03166">
        <ele>656</ele>
        <time>2021-08-02T08:39:39.341Z</time>
      </trkpt>
      <trkpt lat="47.0481" lon="9.03164">
        <ele>656</ele>
        <time>2021-08-02T08:39:40.341Z</time>
      </trkpt>
      <trkpt lat="47.04813" lon="9.03163">
        <ele>656</ele>
        <time>2021-08-02T08:39:41.341Z</time>
      </trkpt>
      <trkpt lat="47.04815" lon="9.03163">
        <ele>656</ele>
        <time>2021-08-02T08:39:42.340Z</time>
      </trkpt>
      <trkpt lat="47.04816" lon="9.03162">
        <ele>656</ele>
        <time>2021-08-02T08:39:43.341Z</time>
      </trkpt>
      <trkpt lat="47.04817" lon="9.03161">
        <ele>656</ele>
        <time>2021-08-02T08:39:44.340Z</time>
      </trkpt>
      <trkpt lat="47.04818" lon="9.03161">
        <ele>656</ele>
        <time>2021-08-02T08:39:45.340Z</time>
      </trkpt>
      <trkpt lat="47.04818" lon="9.0316">
        <ele>656</ele>
        <time>2021-08-02T08:39:46.341Z</time>
      </trkpt>
      <trkpt lat="47.04818" lon="9.0316">
        <ele>657</ele>
        <time>2021-08-02T08:39:47.341Z</time>
      </trkpt>
      <trkpt lat="47.04819" lon="9.0316">
        <ele>657</ele>
        <time>2021-08-02T08:39:48.341Z</time>
      </trkpt>
      <trkpt lat="47.04819" lon="9.03159">
        <ele>658</ele>
        <time>2021-08-02T08:39:49.341Z</time>
      </trkpt>
      <trkpt lat="47.0482" lon="9.03158">
        <ele>658</ele>
        <time>2021-08-02T08:39:50.341Z</time>
      </trkpt>
      <trkpt lat="47.04821" lon="9.03157">
        <ele>658</ele>
        <time>2021-08-02T08:39:51.341Z</time>
      </trkpt>
      <trkpt lat="47.04822" lon="9.03156">
        <ele>658</ele>
        <time>2021-08-02T08:39:52.340Z</time>
      </trkpt>
      <trkpt lat="47.04822" lon="9.03156">
        <ele>659</ele>
        <time>2021-08-02T08:39:53.341Z</time>
      </trkpt>
      <trkpt lat="47.04823" lon="9.03156">
        <ele>659</ele>
        <time>2021-08-02T08:39:54.340Z</time>
      </trkpt>
      <trkpt lat="47.04824" lon="9.03156">
        <ele>659</ele>
        <time>2021-08-02T08:39:55.341Z</time>
      </trkpt>
      <trkpt lat="47.04825" lon="9.03156">
        <ele>660</ele>
        <time>2021-08-02T08:39:56.341Z</time>
      </trkpt>
      <trkpt lat="47.04826" lon="9.03156">
        <ele>661</ele>
        <time>2021-08-02T08:39:57.341Z</time>
      </trkpt>
      <trkpt lat="47.04827" lon="9.03155">
        <ele>662</ele>
        <time>2021-08-02T08:39:58.341Z</time>
      </trkpt>
      <trkpt lat="47.04828" lon="9.03155">
        <ele>663</ele>
        <time>2021-08-02T08:39:59.341Z</time>
      </trkpt>
      <trkpt lat="47.04829" lon="9.03155">
        <ele>664</ele>
        <time>2021-08-02T08:40:00.340Z</time>
      </trkpt>
      <trkpt lat="47.0483" lon="9.03155">
        <ele>664</ele>
        <time>2021-08-02T08:40:01.341Z</time>
      </trkpt>
      <trkpt lat="47.04831" lon="9.03154">
        <ele>665</ele>
        <time>2021-08-02T08:40:02.341Z</time>
      </trkpt>
      <trkpt lat="47.04832" lon="9.03153">
        <ele>666</ele>
        <time>2021-08-02T08:40:03.341Z</time>
      </trkpt>
      <trkpt lat="47.04833" lon="9.03153">
        <ele>666</ele>
        <time>2021-08-02T08:40:04.341Z</time>
      </trkpt>
      <trkpt lat="47.04833" lon="9.03152">
        <ele>667</ele>
        <time>2021-08-02T08:40:05.341Z</time>
      </trkpt>
      <trkpt lat="47.04834" lon="9.03151">
        <ele>667</ele>
        <time>2021-08-02T08:40:06.341Z</time>
      </trkpt>
      <trkpt lat="47.04835" lon="9.0315">
        <ele>667</ele>
        <time>2021-08-02T08:40:07.340Z</time>
      </trkpt>
      <trkpt lat="47.04835" lon="9.03149">
        <ele>668</ele>
        <time>2021-08-02T08:40:08.341Z</time>
      </trkpt>
      <trkpt lat="47.04836" lon="9.03148">
        <ele>668</ele>
        <time>2021-08-02T08:40:09.341Z</time>
      </trkpt>
      <trkpt lat="47.04837" lon="9.03147">
        <ele>668</ele>
        <time>2021-08-02T08:40:10.340Z</time>
      </trkpt>
      <trkpt lat="47.04837" lon="9.03147">
        <ele>669</ele>
        <time>2021-08-02T08:40:11.341Z</time>
      </trkpt>
      <trkpt lat="47.04838" lon="9.03146">
        <ele>669</ele>
        <time>2021-08-02T08:40:12.341Z</time>
      </trkpt>
      <trkpt lat="47.04839" lon="9.03145">
        <ele>670</ele>
        <time>2021-08-02T08:40:13.341Z</time>
      </trkpt>
      <trkpt lat="47.0484" lon="9.03145">
        <ele>670</ele>
        <time>2021-08-02T08:40:14.340Z</time>
      </trkpt>
      <trkpt lat="47.04841" lon="9.03144">
        <ele>670</ele>
        <time>2021-08-02T08:40:15.341Z</time>
      </trkpt>
      <trkpt lat="47.04842" lon="9.03143">
        <ele>670</ele>
        <time>2021-08-02T08:40:16.340Z</time>
      </trkpt>
      <trkpt lat="47.04843" lon="9.03143">
        <ele>670</ele>
        <time>2021-08-02T08:40:17.340Z</time>
      </trkpt>
      <trkpt lat="47.04844" lon="9.03142">
        <ele>670</ele>
        <time>2021-08-02T08:40:18.340Z</time>
      </trkpt>
      <trkpt lat="47.04845" lon="9.03141">
        <ele>670</ele>
        <time>2021-08-02T08:40:19.341Z</time>
      </trkpt>
      <trkpt lat="47.04846" lon="9.0314">
        <ele>671</ele>
        <time>2021-08-02T08:40:20.341Z</time>
      </trkpt>
      <trkpt lat="47.04847" lon="9.03139">
        <ele>671</ele>
        <time>2021-08-02T08:40:21.340Z</time>
      </trkpt>
      <trkpt lat="47.04847" lon="9.03138">
        <ele>671</ele>
        <time>2021-08-02T08:40:22.340Z</time>
      </trkpt>
      <trkpt lat="47.04848" lon="9.03138">
        <ele>671</ele>
        <time>2021-08-02T08:40:23.341Z</time>
      </trkpt>
      <trkpt lat="47.04848" lon="9.03137">
        <ele>671</ele>
        <time>2021-08-02T08:40:24.341Z</time>
      </trkpt>
      <trkpt lat="47.04849" lon="9.03136">
        <ele>671</ele>
        <time>2021-08-02T08:40:25.340Z</time>
      </trkpt>
      <trkpt lat="47.04849" lon="9.03134">
        <ele>671</ele>
        <time>2021-08-02T08:40:26.340Z</time>
      </trkpt>
      <trkpt lat="47.04849" lon="9.03132">
        <ele>670</ele>
        <time>2021-08-02T08:40:27.341Z</time>
      </trkpt>
      <trkpt lat="47.04849" lon="9.0313">
        <ele>670</ele>
        <time>2021-08-02T08:40:28.341Z</time>
      </trkpt>
      <trkpt lat="47.0485" lon="9.03129">
        <ele>669</ele>
        <time>2021-08-02T08:40:29.341Z</time>
      </trkpt>
      <trkpt lat="47.04852" lon="9.03128">
        <ele>669</ele>
        <time>2021-08-02T08:40:30.341Z</time>
      </trkpt>
      <trkpt lat="47.04853" lon="9.03127">
        <ele>668</ele>
        <time>2021-08-02T08:40:31.341Z</time>
      </trkpt>
      <trkpt lat="47.04855" lon="9.03126">
        <ele>668</ele>
        <time>2021-08-02T08:40:32.340Z</time>
      </trkpt>
      <trkpt lat="47.04856" lon="9.03125">
        <ele>667</ele>
        <time>2021-08-02T08:40:33.341Z</time>
      </trkpt>
      <trkpt lat="47.04857" lon="9.03124">
        <ele>667</ele>
        <time>2021-08-02T08:40:34.340Z</time>
      </trkpt>
      <trkpt lat="47.04859" lon="9.03123">
        <ele>666</ele>
        <time>2021-08-02T08:40:35.341Z</time>
      </trkpt>
      <trkpt lat="47.0486" lon="9.03121">
        <ele>666</ele>
        <time>2021-08-02T08:40:36.340Z</time>
      </trkpt>
      <trkpt lat="47.0486" lon="9.0312">
        <ele>666</ele>
        <time>2021-08-02T08:40:37.341Z</time>
      </trkpt>
      <trkpt lat="47.04861" lon="9.0312">
        <ele>665</ele>
        <time>2021-08-02T08:40:38.341Z</time>
      </trkpt>
      <trkpt lat="47.04862" lon="9.0312">
        <ele>665</ele>
        <time>2021-08-02T08:40:39.340Z</time>
      </trkpt>
      <trkpt lat="47.04863" lon="9.03119">
        <ele>664</ele>
        <time>2021-08-02T08:40:40.340Z</time>
      </trkpt>
      <trkpt lat="47.04864" lon="9.03119">
        <ele>664</ele>
        <time>2021-08-02T08:40:41.341Z</time>
      </trkpt>
      <trkpt lat="47.04864" lon="9.03118">
        <ele>663</ele>
        <time>2021-08-02T08:40:42.340Z</time>
      </trkpt>
      <trkpt lat="47.04865" lon="9.03117">
        <ele>663</ele>
        <time>2021-08-02T08:40:43.340Z</time>
      </trkpt>
      <trkpt lat="47.04866" lon="9.03116">
        <ele>663</ele>
        <time>2021-08-02T08:40:44.341Z</time>
      </trkpt>
      <trkpt lat="47.04867" lon="9.03116">
        <ele>663</ele>
        <time>2021-08-02T08:40:45.340Z</time>
      </trkpt>
      <trkpt lat="47.04867" lon="9.03116">
        <ele>662</ele>
        <time>2021-08-02T08:40:46.340Z</time>
      </trkpt>
      <trkpt lat="47.04867" lon="9.03115">
        <ele>662</ele>
        <time>2021-08-02T08:40:47.341Z</time>
      </trkpt>
      <trkpt lat="47.04868" lon="9.03115">
        <ele>662</ele>
        <time>2021-08-02T08:40:48.341Z</time>
      </trkpt>
      <trkpt lat="47.04868" lon="9.03115">
        <ele>662</ele>
        <time>2021-08-02T08:40:49.340Z</time>
      </trkpt>
      <trkpt lat="47.04869" lon="9.03114">
        <ele>661</ele>
        <time>2021-08-02T08:40:50.340Z</time>
      </trkpt>
      <trkpt lat="47.0487" lon="9.03113">
        <ele>661</ele>
        <time>2021-08-02T08:40:51.341Z</time>
      </trkpt>
      <trkpt lat="47.04871" lon="9.03112">
        <ele>661</ele>
        <time>2021-08-02T08:40:52.341Z</time>
      </trkpt>
      <trkpt lat="47.04871" lon="9.03111">
        <ele>661</ele>
        <time>2021-08-02T08:40:53.341Z</time>
      </trkpt>
      <trkpt lat="47.04872" lon="9.0311">
        <ele>661</ele>
        <time>2021-08-02T08:40:54.340Z</time>
      </trkpt>
      <trkpt lat="47.04873" lon="9.0311">
        <ele>661</ele>
        <time>2021-08-02T08:40:55.341Z</time>
      </trkpt>
      <trkpt lat="47.04873" lon="9.0311">
        <ele>661</ele>
        <time>2021-08-02T08:40:56.341Z</time>
      </trkpt>
      <trkpt lat="47.04875" lon="9.03109">
        <ele>661</ele>
        <time>2021-08-02T08:40:57.341Z</time>
      </trkpt>
      <trkpt lat="47.04876" lon="9.03108">
        <ele>661</ele>
        <time>2021-08-02T08:40:58.341Z</time>
      </trkpt>
      <trkpt lat="47.04878" lon="9.03108">
        <ele>662</ele>
        <time>2021-08-02T08:40:59.341Z</time>
      </trkpt>
      <trkpt lat="47.04879" lon="9.03107">
        <ele>662</ele>
        <time>2021-08-02T08:41:00.341Z</time>
      </trkpt>
      <trkpt lat="47.0488" lon="9.03106">
        <ele>662</ele>
        <time>2021-08-02T08:41:01.341Z</time>
      </trkpt>
      <trkpt lat="47.04881" lon="9.03105">
        <ele>662</ele>
        <time>2021-08-02T08:41:02.341Z</time>
      </trkpt>
      <trkpt lat="47.04882" lon="9.03103">
        <ele>662</ele>
        <time>2021-08-02T08:41:03.340Z</time>
      </trkpt>
      <trkpt lat="47.04882" lon="9.03102">
        <ele>662</ele>
        <time>2021-08-02T08:41:04.341Z</time>
      </trkpt>
      <trkpt lat="47.04883" lon="9.03101">
        <ele>662</ele>
        <time>2021-08-02T08:41:05.341Z</time>
      </trkpt>
      <trkpt lat="47.04884" lon="9.031">
        <ele>662</ele>
        <time>2021-08-02T08:41:06.340Z</time>
      </trkpt>
      <trkpt lat="47.04885" lon="9.03099">
        <ele>662</ele>
        <time>2021-08-02T08:41:07.341Z</time>
      </trkpt>
      <trkpt lat="47.04886" lon="9.03098">
        <ele>662</ele>
        <time>2021-08-02T08:41:08.340Z</time>
      </trkpt>
      <trkpt lat="47.04888" lon="9.03096">
        <ele>663</ele>
        <time>2021-08-02T08:41:09.340Z</time>
      </trkpt>
      <trkpt lat="47.04889" lon="9.03094">
        <ele>663</ele>
        <time>2021-08-02T08:41:10.341Z</time>
      </trkpt>
      <trkpt lat="47.0489" lon="9.03094">
        <ele>663</ele>
        <time>2021-08-02T08:41:11.341Z</time>
      </trkpt>
      <trkpt lat="47.04891" lon="9.03093">
        <ele>664</ele>
        <time>2021-08-02T08:41:12.341Z</time>
      </trkpt>
      <trkpt lat="47.04892" lon="9.03092">
        <ele>664</ele>
        <time>2021-08-02T08:41:13.340Z</time>
      </trkpt>
      <trkpt lat="47.04893" lon="9.0309">
        <ele>665</ele>
        <time>2021-08-02T08:41:14.340Z</time>
      </trkpt>
      <trkpt lat="47.04893" lon="9.03089">
        <ele>665</ele>
        <time>2021-08-02T08:41:15.340Z</time>
      </trkpt>
      <trkpt lat="47.04894" lon="9.03087">
        <ele>665</ele>
        <time>2021-08-02T08:41:16.341Z</time>
      </trkpt>
      <trkpt lat="47.04894" lon="9.03086">
        <ele>666</ele>
        <time>2021-08-02T08:41:17.340Z</time>
      </trkpt>
      <trkpt lat="47.04895" lon="9.03084">
        <ele>666</ele>
        <time>2021-08-02T08:41:18.341Z</time>
      </trkpt>
      <trkpt lat="47.04895" lon="9.03082">
        <ele>667</ele>
        <time>2021-08-02T08:41:19.341Z</time>
      </trkpt>
      <trkpt lat="47.04895" lon="9.03081">
        <ele>667</ele>
        <time>2021-08-02T08:41:20.341Z</time>
      </trkpt>
      <trkpt lat="47.04896" lon="9.0308">
        <ele>667</ele>
        <time>2021-08-02T08:41:21.340Z</time>
      </trkpt>
      <trkpt lat="47.04897" lon="9.03078">
        <ele>668</ele>
        <time>2021-08-02T08:41:22.340Z</time>
      </trkpt>
      <trkpt lat="47.04897" lon="9.03077">
        <ele>668</ele>
        <time>2021-08-02T08:41:23.341Z</time>
      </trkpt>
      <trkpt lat="47.04897" lon="9.03075">
        <ele>668</ele>
        <time>2021-08-02T08:41:24.341Z</time>
      </trkpt>
      <trkpt lat="47.04898" lon="9.03074">
        <ele>669</ele>
        <time>2021-08-02T08:41:25.341Z</time>
      </trkpt>
      <trkpt lat="47.04899" lon="9.03073">
        <ele>669</ele>
        <time>2021-08-02T08:41:26.341Z</time>
      </trkpt>
      <trkpt lat="47.04899" lon="9.03072">
        <ele>669</ele>
        <time>2021-08-02T08:41:27.341Z</time>
      </trkpt>
      <trkpt lat="47.04899" lon="9.03072">
        <ele>670</ele>
        <time>2021-08-02T08:41:28.341Z</time>
      </trkpt>
      <trkpt lat="47.049" lon="9.03072">
        <ele>670</ele>
        <time>2021-08-02T08:41:29.341Z</time>
      </trkpt>
      <trkpt lat="47.049" lon="9.03072">
        <ele>670</ele>
        <time>2021-08-02T08:41:30.340Z</time>
      </trkpt>
      <trkpt lat="47.04899" lon="9.03074">
        <ele>671</ele>
        <time>2021-08-02T08:41:31.341Z</time>
      </trkpt>
      <trkpt lat="47.04899" lon="9.03073">
        <ele>671</ele>
        <time>2021-08-02T08:41:32.341Z</time>
      </trkpt>
      <trkpt lat="47.04899" lon="9.03072">
        <ele>671</ele>
        <time>2021-08-02T08:41:33.342Z</time>
      </trkpt>
      <trkpt lat="47.04899" lon="9.03071">
        <ele>671</ele>
        <time>2021-08-02T08:41:34.341Z</time>
      </trkpt>
      <trkpt lat="47.049" lon="9.03069">
        <ele>671</ele>
        <time>2021-08-02T08:41:35.342Z</time>
      </trkpt>
      <trkpt lat="47.04901" lon="9.03068">
        <ele>671</ele>
        <time>2021-08-02T08:41:36.342Z</time>
      </trkpt>
      <trkpt lat="47.04901" lon="9.03067">
        <ele>671</ele>
        <time>2021-08-02T08:41:37.342Z</time>
      </trkpt>
      <trkpt lat="47.04901" lon="9.03066">
        <ele>671</ele>
        <time>2021-08-02T08:41:38.342Z</time>
      </trkpt>
      <trkpt lat="47.04901" lon="9.03065">
        <ele>671</ele>
        <time>2021-08-02T08:41:39.342Z</time>
      </trkpt>
      <trkpt lat="47.04901" lon="9.03064">
        <ele>671</ele>
        <time>2021-08-02T08:41:40.342Z</time>
      </trkpt>
      <trkpt lat="47.04901" lon="9.03063">
        <ele>671</ele>
        <time>2021-08-02T08:41:41.342Z</time>
      </trkpt>
      <trkpt lat="47.04901" lon="9.03063">
        <ele>671</ele>
        <time>2021-08-02T08:41:42.342Z</time>
      </trkpt>
      <trkpt lat="47.04902" lon="9.03062">
        <ele>671</ele>
        <time>2021-08-02T08:41:43.342Z</time>
      </trkpt>
      <trkpt lat="47.04902" lon="9.03061">
        <ele>671</ele>
        <time>2021-08-02T08:41:44.342Z</time>
      </trkpt>
      <trkpt lat="47.04902" lon="9.0306">
        <ele>671</ele>
        <time>2021-08-02T08:41:45.342Z</time>
      </trkpt>
      <trkpt lat="47.04902" lon="9.0306">
        <ele>671</ele>
        <time>2021-08-02T08:41:46.341Z</time>
      </trkpt>
      <trkpt lat="47.04902" lon="9.03059">
        <ele>671</ele>
        <time>2021-08-02T08:41:47.342Z</time>
      </trkpt>
      <trkpt lat="47.04903" lon="9.03057">
        <ele>671</ele>
        <time>2021-08-02T08:41:48.342Z</time>
      </trkpt>
      <trkpt lat="47.04904" lon="9.03056">
        <ele>671</ele>
        <time>2021-08-02T08:41:49.342Z</time>
      </trkpt>
      <trkpt lat="47.04905" lon="9.03055">
        <ele>671</ele>
        <time>2021-08-02T08:41:50.342Z</time>
      </trkpt>
      <trkpt lat="47.04905" lon="9.03054">
        <ele>671</ele>
        <time>2021-08-02T08:41:51.342Z</time>
      </trkpt>
      <trkpt lat="47.04906" lon="9.03054">
        <ele>671</ele>
        <time>2021-08-02T08:41:52.341Z</time>
      </trkpt>
      <trkpt lat="47.04909" lon="9.03051">
        <ele>671</ele>
        <time>2021-08-02T08:41:53.342Z</time>
      </trkpt>
      <trkpt lat="47.0491" lon="9.0305">
        <ele>671</ele>
        <time>2021-08-02T08:41:54.341Z</time>
      </trkpt>
      <trkpt lat="47.04913" lon="9.03051">
        <ele>671</ele>
        <time>2021-08-02T08:41:55.342Z</time>
      </trkpt>
      <trkpt lat="47.04913" lon="9.03052">
        <ele>671</ele>
        <time>2021-08-02T08:41:56.342Z</time>
      </trkpt>
      <trkpt lat="47.04913" lon="9.03053">
        <ele>671</ele>
        <time>2021-08-02T08:41:57.341Z</time>
      </trkpt>
      <trkpt lat="47.04914" lon="9.03054">
        <ele>671</ele>
        <time>2021-08-02T08:41:58.342Z</time>
      </trkpt>
      <trkpt lat="47.04915" lon="9.03055">
        <ele>670</ele>
        <time>2021-08-02T08:41:59.342Z</time>
      </trkpt>
      <trkpt lat="47.04916" lon="9.03055">
        <ele>670</ele>
        <time>2021-08-02T08:42:00.341Z</time>
      </trkpt>
      <trkpt lat="47.04917" lon="9.03055">
        <ele>670</ele>
        <time>2021-08-02T08:42:01.342Z</time>
      </trkpt>
      <trkpt lat="47.04918" lon="9.03056">
        <ele>669</ele>
        <time>2021-08-02T08:42:02.342Z</time>
      </trkpt>
      <trkpt lat="47.04919" lon="9.03057">
        <ele>669</ele>
        <time>2021-08-02T08:42:03.341Z</time>
      </trkpt>
      <trkpt lat="47.0492" lon="9.03057">
        <ele>669</ele>
        <time>2021-08-02T08:42:04.342Z</time>
      </trkpt>
      <trkpt lat="47.04921" lon="9.03057">
        <ele>669</ele>
        <time>2021-08-02T08:42:05.341Z</time>
      </trkpt>
      <trkpt lat="47.04922" lon="9.03056">
        <ele>669</ele>
        <time>2021-08-02T08:42:06.342Z</time>
      </trkpt>
      <trkpt lat="47.04923" lon="9.03056">
        <ele>670</ele>
        <time>2021-08-02T08:42:07.341Z</time>
      </trkpt>
      <trkpt lat="47.04924" lon="9.03056">
        <ele>670</ele>
        <time>2021-08-02T08:42:08.341Z</time>
      </trkpt>
      <trkpt lat="47.04925" lon="9.03056">
        <ele>670</ele>
        <time>2021-08-02T08:42:09.342Z</time>
      </trkpt>
      <trkpt lat="47.04926" lon="9.03055">
        <ele>671</ele>
        <time>2021-08-02T08:42:10.341Z</time>
      </trkpt>
      <trkpt lat="47.04927" lon="9.03056">
        <ele>671</ele>
        <time>2021-08-02T08:42:11.342Z</time>
      </trkpt>
      <trkpt lat="47.04927" lon="9.03055">
        <ele>672</ele>
        <time>2021-08-02T08:42:12.342Z</time>
      </trkpt>
      <trkpt lat="47.04928" lon="9.03054">
        <ele>672</ele>
        <time>2021-08-02T08:42:13.341Z</time>
      </trkpt>
      <trkpt lat="47.0493" lon="9.03054">
        <ele>673</ele>
        <time>2021-08-02T08:42:14.342Z</time>
      </trkpt>
      <trkpt lat="47.04931" lon="9.03055">
        <ele>673</ele>
        <time>2021-08-02T08:42:15.342Z</time>
      </trkpt>
      <trkpt lat="47.04932" lon="9.03054">
        <ele>673</ele>
        <time>2021-08-02T08:42:16.342Z</time>
      </trkpt>
      <trkpt lat="47.04934" lon="9.03053">
        <ele>673</ele>
        <time>2021-08-02T08:42:17.341Z</time>
      </trkpt>
      <trkpt lat="47.04935" lon="9.03052">
        <ele>674</ele>
        <time>2021-08-02T08:42:18.342Z</time>
      </trkpt>
      <trkpt lat="47.04936" lon="9.03052">
        <ele>674</ele>
        <time>2021-08-02T08:42:19.342Z</time>
      </trkpt>
      <trkpt lat="47.04938" lon="9.03051">
        <ele>674</ele>
        <time>2021-08-02T08:42:20.342Z</time>
      </trkpt>
      <trkpt lat="47.04939" lon="9.0305">
        <ele>674</ele>
        <time>2021-08-02T08:42:21.341Z</time>
      </trkpt>
      <trkpt lat="47.0494" lon="9.03049">
        <ele>674</ele>
        <time>2021-08-02T08:42:22.341Z</time>
      </trkpt>
      <trkpt lat="47.04941" lon="9.03049">
        <ele>674</ele>
        <time>2021-08-02T08:42:23.342Z</time>
      </trkpt>
      <trkpt lat="47.04941" lon="9.03048">
        <ele>674</ele>
        <time>2021-08-02T08:42:24.342Z</time>
      </trkpt>
      <trkpt lat="47.04942" lon="9.03047">
        <ele>675</ele>
        <time>2021-08-02T08:42:25.342Z</time>
      </trkpt>
      <trkpt lat="47.04943" lon="9.03047">
        <ele>675</ele>
        <time>2021-08-02T08:42:26.342Z</time>
      </trkpt>
      <trkpt lat="47.04944" lon="9.03047">
        <ele>676</ele>
        <time>2021-08-02T08:42:27.341Z</time>
      </trkpt>
      <trkpt lat="47.04945" lon="9.03047">
        <ele>677</ele>
        <time>2021-08-02T08:42:28.342Z</time>
      </trkpt>
      <trkpt lat="47.04947" lon="9.03048">
        <ele>677</ele>
        <time>2021-08-02T08:42:29.341Z</time>
      </trkpt>
      <trkpt lat="47.04949" lon="9.03047">
        <ele>678</ele>
        <time>2021-08-02T08:42:30.341Z</time>
      </trkpt>
      <trkpt lat="47.0495" lon="9.03048">
        <ele>679</ele>
        <time>2021-08-02T08:42:31.342Z</time>
      </trkpt>
      <trkpt lat="47.04951" lon="9.03048">
        <ele>680</ele>
        <time>2021-08-02T08:42:32.342Z</time>
      </trkpt>
      <trkpt lat="47.04953" lon="9.03048">
        <ele>681</ele>
        <time>2021-08-02T08:42:33.341Z</time>
      </trkpt>
      <trkpt lat="47.04954" lon="9.03047">
        <ele>683</ele>
        <time>2021-08-02T08:42:34.341Z</time>
      </trkpt>
      <trkpt lat="47.04954" lon="9.03047">
        <ele>683</ele>
        <time>2021-08-02T08:42:35.342Z</time>
      </trkpt>
      <trkpt lat="47.04955" lon="9.03046">
        <ele>684</ele>
        <time>2021-08-02T08:42:36.342Z</time>
      </trkpt>
      <trkpt lat="47.04956" lon="9.03046">
        <ele>685</ele>
        <time>2021-08-02T08:42:37.341Z</time>
      </trkpt>
      <trkpt lat="47.04955" lon="9.03046">
        <ele>686</ele>
        <time>2021-08-02T08:42:38.341Z</time>
      </trkpt>
      <trkpt lat="47.04954" lon="9.03046">
        <ele>686</ele>
        <time>2021-08-02T08:42:39.342Z</time>
      </trkpt>
      <trkpt lat="47.04953" lon="9.03047">
        <ele>687</ele>
        <time>2021-08-02T08:42:40.342Z</time>
      </trkpt>
      <trkpt lat="47.04952" lon="9.03047">
        <ele>687</ele>
        <time>2021-08-02T08:42:41.341Z</time>
      </trkpt>
      <trkpt lat="47.04951" lon="9.03047">
        <ele>687</ele>
        <time>2021-08-02T08:42:42.341Z</time>
      </trkpt>
      <trkpt lat="47.04951" lon="9.03046">
        <ele>687</ele>
        <time>2021-08-02T08:42:43.341Z</time>
      </trkpt>
      <trkpt lat="47.04951" lon="9.03046">
        <ele>686</ele>
        <time>2021-08-02T08:42:44.342Z</time>
      </trkpt>
      <trkpt lat="47.0495" lon="9.03045">
        <ele>686</ele>
        <time>2021-08-02T08:42:45.342Z</time>
      </trkpt>
      <trkpt lat="47.0495" lon="9.03045">
        <ele>685</ele>
        <time>2021-08-02T08:42:46.342Z</time>
      </trkpt>
      <trkpt lat="47.04949" lon="9.03045">
        <ele>684</ele>
        <time>2021-08-02T08:42:47.342Z</time>
      </trkpt>
      <trkpt lat="47.04949" lon="9.03044">
        <ele>684</ele>
        <time>2021-08-02T08:42:48.341Z</time>
      </trkpt>
      <trkpt lat="47.04948" lon="9.03044">
        <ele>684</ele>
        <time>2021-08-02T08:42:49.342Z</time>
      </trkpt>
      <trkpt lat="47.04947" lon="9.03044">
        <ele>683</ele>
        <time>2021-08-02T08:42:50.341Z</time>
      </trkpt>
      <trkpt lat="47.04945" lon="9.03043">
        <ele>683</ele>
        <time>2021-08-02T08:42:51.342Z</time>
      </trkpt>
      <trkpt lat="47.04944" lon="9.03044">
        <ele>683</ele>
        <time>2021-08-02T08:42:52.341Z</time>
      </trkpt>
      <trkpt lat="47.04943" lon="9.03044">
        <ele>682</ele>
        <time>2021-08-02T08:42:53.341Z</time>
      </trkpt>
      <trkpt lat="47.04942" lon="9.03044">
        <ele>682</ele>
        <time>2021-08-02T08:42:54.342Z</time>
      </trkpt>
      <trkpt lat="47.0494" lon="9.03044">
        <ele>681</ele>
        <time>2021-08-02T08:42:55.341Z</time>
      </trkpt>
      <trkpt lat="47.04938" lon="9.03044">
        <ele>680</ele>
        <time>2021-08-02T08:42:56.341Z</time>
      </trkpt>
      <trkpt lat="47.04936" lon="9.03044">
        <ele>679</ele>
        <time>2021-08-02T08:42:57.341Z</time>
      </trkpt>
      <trkpt lat="47.04935" lon="9.03044">
        <ele>678</ele>
        <time>2021-08-02T08:42:58.341Z</time>
      </trkpt>
      <trkpt lat="47.04934" lon="9.03044">
        <ele>677</ele>
        <time>2021-08-02T08:42:59.341Z</time>
      </trkpt>
      <trkpt lat="47.04933" lon="9.03044">
        <ele>677</ele>
        <time>2021-08-02T08:43:00.341Z</time>
      </trkpt>
      <trkpt lat="47.04932" lon="9.03045">
        <ele>676</ele>
        <time>2021-08-02T08:43:01.342Z</time>
      </trkpt>
      <trkpt lat="47.04931" lon="9.03045">
        <ele>675</ele>
        <time>2021-08-02T08:43:02.341Z</time>
      </trkpt>
      <trkpt lat="47.0493" lon="9.03046">
        <ele>675</ele>
        <time>2021-08-02T08:43:03.342Z</time>
      </trkpt>
      <trkpt lat="47.04929" lon="9.03047">
        <ele>674</ele>
        <time>2021-08-02T08:43:04.342Z</time>
      </trkpt>
      <trkpt lat="47.04928" lon="9.03048">
        <ele>674</ele>
        <time>2021-08-02T08:43:05.341Z</time>
      </trkpt>
      <trkpt lat="47.04927" lon="9.03048">
        <ele>674</ele>
        <time>2021-08-02T08:43:06.341Z</time>
      </trkpt>
      <trkpt lat="47.04926" lon="9.03049">
        <ele>673</ele>
        <time>2021-08-02T08:43:07.341Z</time>
      </trkpt>
      <trkpt lat="47.04925" lon="9.03049">
        <ele>673</ele>
        <time>2021-08-02T08:43:08.341Z</time>
      </trkpt>
      <trkpt lat="47.04924" lon="9.03049">
        <ele>673</ele>
        <time>2021-08-02T08:43:09.342Z</time>
      </trkpt>
      <trkpt lat="47.04923" lon="9.03049">
        <ele>672</ele>
        <time>2021-08-02T08:43:10.341Z</time>
      </trkpt>
      <trkpt lat="47.04922" lon="9.03048">
        <ele>672</ele>
        <time>2021-08-02T08:43:11.342Z</time>
      </trkpt>
      <trkpt lat="47.0492" lon="9.03048">
        <ele>672</ele>
        <time>2021-08-02T08:43:12.342Z</time>
      </trkpt>
      <trkpt lat="47.04919" lon="9.03049">
        <ele>671</ele>
        <time>2021-08-02T08:43:13.342Z</time>
      </trkpt>
      <trkpt lat="47.04917" lon="9.03049">
        <ele>671</ele>
        <time>2021-08-02T08:43:14.342Z</time>
      </trkpt>
      <trkpt lat="47.04916" lon="9.03049">
        <ele>671</ele>
        <time>2021-08-02T08:43:15.341Z</time>
      </trkpt>
      <trkpt lat="47.04915" lon="9.03048">
        <ele>671</ele>
        <time>2021-08-02T08:43:16.342Z</time>
      </trkpt>
      <trkpt lat="47.04914" lon="9.03047">
        <ele>670</ele>
        <time>2021-08-02T08:43:17.342Z</time>
      </trkpt>
      <trkpt lat="47.04914" lon="9.03046">
        <ele>670</ele>
        <time>2021-08-02T08:43:18.342Z</time>
      </trkpt>
      <trkpt lat="47.04913" lon="9.03045">
        <ele>669</ele>
        <time>2021-08-02T08:43:19.342Z</time>
      </trkpt>
      <trkpt lat="47.04913" lon="9.03044">
        <ele>669</ele>
        <time>2021-08-02T08:43:20.342Z</time>
      </trkpt>
      <trkpt lat="47.04913" lon="9.03043">
        <ele>669</ele>
        <time>2021-08-02T08:43:21.341Z</time>
      </trkpt>
      <trkpt lat="47.04912" lon="9.03043">
        <ele>669</ele>
        <time>2021-08-02T08:43:22.342Z</time>
      </trkpt>
      <trkpt lat="47.04913" lon="9.03042">
        <ele>669</ele>
        <time>2021-08-02T08:43:23.342Z</time>
      </trkpt>
      <trkpt lat="47.04915" lon="9.03043">
        <ele>674</ele>
        <time>2021-08-02T08:43:24.342Z</time>
      </trkpt>
      <trkpt lat="47.04915" lon="9.03043">
        <ele>674</ele>
        <time>2021-08-02T08:43:25.341Z</time>
      </trkpt>
      <trkpt lat="47.04915" lon="9.03044">
        <ele>675</ele>
        <time>2021-08-02T08:43:26.342Z</time>
      </trkpt>
      <trkpt lat="47.04915" lon="9.03043">
        <ele>675</ele>
        <time>2021-08-02T08:43:27.342Z</time>
      </trkpt>
      <trkpt lat="47.04917" lon="9.03042">
        <ele>678</ele>
        <time>2021-08-02T08:43:28.342Z</time>
      </trkpt>
      <trkpt lat="47.04918" lon="9.03043">
        <ele>678</ele>
        <time>2021-08-02T08:43:29.342Z</time>
      </trkpt>
      <trkpt lat="47.04918" lon="9.03043">
        <ele>678</ele>
        <time>2021-08-02T08:43:30.341Z</time>
      </trkpt>
      <trkpt lat="47.04918" lon="9.03047">
        <ele>677</ele>
        <time>2021-08-02T08:43:31.341Z</time>
      </trkpt>
      <trkpt lat="47.04916" lon="9.03048">
        <ele>678</ele>
        <time>2021-08-02T08:43:32.341Z</time>
      </trkpt>
      <trkpt lat="47.04915" lon="9.03051">
        <ele>678</ele>
        <time>2021-08-02T08:43:33.341Z</time>
      </trkpt>
      <trkpt lat="47.04915" lon="9.03056">
        <ele>678</ele>
        <time>2021-08-02T08:43:34.341Z</time>
      </trkpt>
      <trkpt lat="47.04915" lon="9.03056">
        <ele>678</ele>
        <time>2021-08-02T08:43:35.341Z</time>
      </trkpt>
      <trkpt lat="47.04916" lon="9.03056">
        <ele>678</ele>
        <time>2021-08-02T08:43:36.342Z</time>
      </trkpt>
      <trkpt lat="47.04915" lon="9.03057">
        <ele>678</ele>
        <time>2021-08-02T08:43:37.341Z</time>
      </trkpt>
      <trkpt lat="47.04915" lon="9.03058">
        <ele>678</ele>
        <time>2021-08-02T08:43:38.341Z</time>
      </trkpt>
      <trkpt lat="47.04914" lon="9.03059">
        <ele>678</ele>
        <time>2021-08-02T08:43:39.341Z</time>
      </trkpt>
      <trkpt lat="47.04914" lon="9.0306">
        <ele>678</ele>
        <time>2021-08-02T08:43:40.341Z</time>
      </trkpt>
      <trkpt lat="47.04914" lon="9.0306">
        <ele>677</ele>
        <time>2021-08-02T08:43:41.341Z</time>
      </trkpt>
      <trkpt lat="47.04914" lon="9.03061">
        <ele>677</ele>
        <time>2021-08-02T08:43:42.341Z</time>
      </trkpt>
      <trkpt lat="47.04914" lon="9.03061">
        <ele>677</ele>
        <time>2021-08-02T08:43:43.341Z</time>
      </trkpt>
      <trkpt lat="47.04914" lon="9.03062">
        <ele>678</ele>
        <time>2021-08-02T08:43:44.341Z</time>
      </trkpt>
      <trkpt lat="47.04915" lon="9.03062">
        <ele>678</ele>
        <time>2021-08-02T08:43:45.341Z</time>
      </trkpt>
      <trkpt lat="47.04915" lon="9.03062">
        <ele>677</ele>
        <time>2021-08-02T08:43:46.341Z</time>
      </trkpt>
      <trkpt lat="47.04915" lon="9.03062">
        <ele>677</ele>
        <time>2021-08-02T08:43:47.341Z</time>
      </trkpt>
      <trkpt lat="47.04915" lon="9.03062">
        <ele>676</ele>
        <time>2021-08-02T08:43:48.342Z</time>
      </trkpt>
      <trkpt lat="47.04917" lon="9.03055">
        <ele>673</ele>
        <time>2021-08-02T08:43:49.344Z</time>
      </trkpt>
      <trkpt lat="47.04918" lon="9.03052">
        <ele>672</ele>
        <time>2021-08-02T08:43:50.344Z</time>
      </trkpt>
      <trkpt lat="47.04918" lon="9.0305">
        <ele>671</ele>
        <time>2021-08-02T08:43:51.343Z</time>
      </trkpt>
      <trkpt lat="47.04919" lon="9.03049">
        <ele>671</ele>
        <time>2021-08-02T08:43:52.344Z</time>
      </trkpt>
      <trkpt lat="47.04919" lon="9.03051">
        <ele>673</ele>
        <time>2021-08-02T08:43:53.345Z</time>
      </trkpt>
      <trkpt lat="47.04919" lon="9.0305">
        <ele>673</ele>
        <time>2021-08-02T08:43:54.344Z</time>
      </trkpt>
      <trkpt lat="47.04919" lon="9.03049">
        <ele>673</ele>
        <time>2021-08-02T08:43:55.344Z</time>
      </trkpt>
      <trkpt lat="47.04919" lon="9.03049">
        <ele>673</ele>
        <time>2021-08-02T08:43:56.344Z</time>
      </trkpt>
      <trkpt lat="47.04919" lon="9.03048">
        <ele>674</ele>
        <time>2021-08-02T08:43:57.344Z</time>
      </trkpt>
      <trkpt lat="47.04919" lon="9.03048">
        <ele>674</ele>
        <time>2021-08-02T08:43:58.344Z</time>
      </trkpt>
      <trkpt lat="47.04919" lon="9.03048">
        <ele>675</ele>
        <time>2021-08-02T08:43:59.344Z</time>
      </trkpt>
      <trkpt lat="47.0492" lon="9.03051">
        <ele>677</ele>
        <time>2021-08-02T08:44:00.345Z</time>
      </trkpt>
      <trkpt lat="47.04921" lon="9.03051">
        <ele>678</ele>
        <time>2021-08-02T08:44:01.345Z</time>
      </trkpt>
      <trkpt lat="47.04922" lon="9.0305">
        <ele>679</ele>
        <time>2021-08-02T08:44:02.345Z</time>
      </trkpt>
      <trkpt lat="47.04922" lon="9.03049">
        <ele>679</ele>
        <time>2021-08-02T08:44:03.345Z</time>
      </trkpt>
      <trkpt lat="47.04923" lon="9.03048">
        <ele>680</ele>
        <time>2021-08-02T08:44:04.345Z</time>
      </trkpt>
      <trkpt lat="47.04923" lon="9.03047">
        <ele>681</ele>
        <time>2021-08-02T08:44:05.345Z</time>
      </trkpt>
      <trkpt lat="47.04923" lon="9.03047">
        <ele>682</ele>
        <time>2021-08-02T08:44:06.345Z</time>
      </trkpt>
      <trkpt lat="47.04924" lon="9.03047">
        <ele>683</ele>
        <time>2021-08-02T08:44:07.346Z</time>
      </trkpt>
      <trkpt lat="47.04927" lon="9.03044">
        <ele>687</ele>
        <time>2021-08-02T08:44:08.347Z</time>
      </trkpt>
      <trkpt lat="47.04927" lon="9.03044">
        <ele>687</ele>
        <time>2021-08-02T08:44:09.348Z</time>
      </trkpt>
      <trkpt lat="47.04928" lon="9.03044">
        <ele>688</ele>
        <time>2021-08-02T08:44:10.347Z</time>
      </trkpt>
      <trkpt lat="47.04928" lon="9.03044">
        <ele>688</ele>
        <time>2021-08-02T08:44:11.347Z</time>
      </trkpt>
      <trkpt lat="47.04929" lon="9.03045">
        <ele>688</ele>
        <time>2021-08-02T08:44:12.347Z</time>
      </trkpt>
      <trkpt lat="47.04929" lon="9.03045">
        <ele>688</ele>
        <time>2021-08-02T08:44:13.347Z</time>
      </trkpt>
      <trkpt lat="47.0493" lon="9.03045">
        <ele>689</ele>
        <time>2021-08-02T08:44:14.347Z</time>
      </trkpt>
      <trkpt lat="47.0493" lon="9.03045">
        <ele>689</ele>
        <time>2021-08-02T08:44:15.347Z</time>
      </trkpt>
      <trkpt lat="47.0493" lon="9.03045">
        <ele>689</ele>
        <time>2021-08-02T08:44:16.347Z</time>
      </trkpt>
      <trkpt lat="47.0493" lon="9.03045">
        <ele>688</ele>
        <time>2021-08-02T08:44:17.347Z</time>
      </trkpt>
      <trkpt lat="47.0493" lon="9.03045">
        <ele>688</ele>
        <time>2021-08-02T08:44:18.347Z</time>
      </trkpt>
      <trkpt lat="47.04931" lon="9.03045">
        <ele>688</ele>
        <time>2021-08-02T08:44:19.347Z</time>
      </trkpt>
      <trkpt lat="47.04931" lon="9.03045">
        <ele>688</ele>
        <time>2021-08-02T08:44:20.347Z</time>
      </trkpt>
      <trkpt lat="47.04931" lon="9.03045">
        <ele>688</ele>
        <time>2021-08-02T08:44:21.348Z</time>
      </trkpt>
      <trkpt lat="47.04931" lon="9.03044">
        <ele>687</ele>
        <time>2021-08-02T08:44:22.348Z</time>
      </trkpt>
      <trkpt lat="47.04928" lon="9.03045">
        <ele>687</ele>
        <time>2021-08-02T08:44:23.349Z</time>
      </trkpt>
      <trkpt lat="47.04928" lon="9.03045">
        <ele>686</ele>
        <time>2021-08-02T08:44:24.349Z</time>
      </trkpt>
      <trkpt lat="47.04929" lon="9.03047">
        <ele>686</ele>
        <time>2021-08-02T08:44:25.349Z</time>
      </trkpt>
      <trkpt lat="47.0493" lon="9.03049">
        <ele>686</ele>
        <time>2021-08-02T08:44:26.349Z</time>
      </trkpt>
      <trkpt lat="47.04929" lon="9.0305">
        <ele>685</ele>
        <time>2021-08-02T08:44:27.349Z</time>
      </trkpt>
      <trkpt lat="47.0493" lon="9.03052">
        <ele>685</ele>
        <time>2021-08-02T08:44:28.349Z</time>
      </trkpt>
      <trkpt lat="47.04929" lon="9.03053">
        <ele>685</ele>
        <time>2021-08-02T08:44:29.349Z</time>
      </trkpt>
      <trkpt lat="47.04929" lon="9.03054">
        <ele>685</ele>
        <time>2021-08-02T08:44:30.349Z</time>
      </trkpt>
      <trkpt lat="47.04929" lon="9.03055">
        <ele>685</ele>
        <time>2021-08-02T08:44:31.349Z</time>
      </trkpt>
      <trkpt lat="47.04928" lon="9.03055">
        <ele>684</ele>
        <time>2021-08-02T08:44:32.349Z</time>
      </trkpt>
      <trkpt lat="47.04928" lon="9.03055">
        <ele>684</ele>
        <time>2021-08-02T08:44:33.349Z</time>
      </trkpt>
      <trkpt lat="47.04927" lon="9.03055">
        <ele>684</ele>
        <time>2021-08-02T08:44:34.349Z</time>
      </trkpt>
      <trkpt lat="47.04927" lon="9.03055">
        <ele>684</ele>
        <time>2021-08-02T08:44:35.349Z</time>
      </trkpt>
      <trkpt lat="47.04926" lon="9.03055">
        <ele>684</ele>
        <time>2021-08-02T08:44:36.349Z</time>
      </trkpt>
      <trkpt lat="47.04926" lon="9.03056">
        <ele>684</ele>
        <time>2021-08-02T08:44:37.349Z</time>
      </trkpt>
      <trkpt lat="47.04924" lon="9.03057">
        <ele>682</ele>
        <time>2021-08-02T08:44:38.350Z</time>
      </trkpt>
      <trkpt lat="47.04923" lon="9.03057">
        <ele>681</ele>
        <time>2021-08-02T08:44:39.349Z</time>
      </trkpt>
      <trkpt lat="47.04921" lon="9.03056">
        <ele>678</ele>
        <time>2021-08-02T08:44:40.349Z</time>
      </trkpt>
      <trkpt lat="47.0492" lon="9.03055">
        <ele>678</ele>
        <time>2021-08-02T08:44:41.350Z</time>
      </trkpt>
      <trkpt lat="47.0492" lon="9.03054">
        <ele>677</ele>
        <time>2021-08-02T08:44:42.349Z</time>
      </trkpt>
      <trkpt lat="47.04919" lon="9.03058">
        <ele>675</ele>
        <time>2021-08-02T08:44:43.351Z</time>
      </trkpt>
      <trkpt lat="47.04919" lon="9.03058">
        <ele>675</ele>
        <time>2021-08-02T08:44:44.351Z</time>
      </trkpt>
      <trkpt lat="47.04918" lon="9.03058">
        <ele>674</ele>
        <time>2021-08-02T08:44:45.351Z</time>
      </trkpt>
      <trkpt lat="47.04916" lon="9.03055">
        <ele>671</ele>
        <time>2021-08-02T08:44:46.352Z</time>
      </trkpt>
      <trkpt lat="47.04916" lon="9.03055">
        <ele>671</ele>
        <time>2021-08-02T08:44:47.352Z</time>
      </trkpt>
      <trkpt lat="47.04916" lon="9.03055">
        <ele>670</ele>
        <time>2021-08-02T08:44:48.352Z</time>
      </trkpt>
      <trkpt lat="47.04918" lon="9.03046">
        <ele>674</ele>
        <time>2021-08-02T08:44:49.353Z</time>
      </trkpt>
      <trkpt lat="47.04918" lon="9.03045">
        <ele>675</ele>
        <time>2021-08-02T08:44:50.353Z</time>
      </trkpt>
      <trkpt lat="47.04917" lon="9.03045">
        <ele>676</ele>
        <time>2021-08-02T08:44:51.352Z</time>
      </trkpt>
      <trkpt lat="47.04917" lon="9.03044">
        <ele>676</ele>
        <time>2021-08-02T08:44:52.353Z</time>
      </trkpt>
      <trkpt lat="47.04917" lon="9.03044">
        <ele>677</ele>
        <time>2021-08-02T08:44:53.352Z</time>
      </trkpt>
      <trkpt lat="47.04916" lon="9.03044">
        <ele>678</ele>
        <time>2021-08-02T08:44:54.353Z</time>
      </trkpt>
      <trkpt lat="47.04916" lon="9.03044">
        <ele>678</ele>
        <time>2021-08-02T08:44:55.353Z</time>
      </trkpt>
      <trkpt lat="47.04915" lon="9.03043">
        <ele>679</ele>
        <time>2021-08-02T08:44:56.353Z</time>
      </trkpt>
      <trkpt lat="47.04914" lon="9.03041">
        <ele>679</ele>
        <time>2021-08-02T08:44:57.354Z</time>
      </trkpt>
      <trkpt lat="47.04913" lon="9.03041">
        <ele>679</ele>
        <time>2021-08-02T08:44:58.353Z</time>
      </trkpt>
      <trkpt lat="47.04912" lon="9.03042">
        <ele>678</ele>
        <time>2021-08-02T08:44:59.353Z</time>
      </trkpt>
      <trkpt lat="47.04913" lon="9.03042">
        <ele>678</ele>
        <time>2021-08-02T08:45:00.354Z</time>
      </trkpt>
      <trkpt lat="47.04914" lon="9.03042">
        <ele>677</ele>
        <time>2021-08-02T08:45:01.353Z</time>
      </trkpt>
      <trkpt lat="47.04914" lon="9.03042">
        <ele>677</ele>
        <time>2021-08-02T08:45:02.353Z</time>
      </trkpt>
      <trkpt lat="47.04915" lon="9.03043">
        <ele>677</ele>
        <time>2021-08-02T08:45:03.354Z</time>
      </trkpt>
      <trkpt lat="47.04915" lon="9.03045">
        <ele>677</ele>
        <time>2021-08-02T08:45:04.354Z</time>
      </trkpt>
      <trkpt lat="47.04916" lon="9.03045">
        <ele>677</ele>
        <time>2021-08-02T08:45:05.353Z</time>
      </trkpt>
      <trkpt lat="47.04916" lon="9.03046">
        <ele>677</ele>
        <time>2021-08-02T08:45:06.354Z</time>
      </trkpt>
      <trkpt lat="47.04922" lon="9.03043">
        <ele>672</ele>
        <time>2021-08-02T08:45:07.354Z</time>
      </trkpt>
      <trkpt lat="47.04924" lon="9.03042">
        <ele>671</ele>
        <time>2021-08-02T08:45:08.353Z</time>
      </trkpt>
      <trkpt lat="47.04924" lon="9.03042">
        <ele>670</ele>
        <time>2021-08-02T08:45:09.353Z</time>
      </trkpt>
      <trkpt lat="47.04924" lon="9.03042">
        <ele>669</ele>
        <time>2021-08-02T08:45:10.353Z</time>
      </trkpt>
      <trkpt lat="47.04925" lon="9.03043">
        <ele>667</ele>
        <time>2021-08-02T08:45:11.355Z</time>
      </trkpt>
      <trkpt lat="47.04925" lon="9.03043">
        <ele>667</ele>
        <time>2021-08-02T08:45:12.355Z</time>
      </trkpt>
      <trkpt lat="47.04925" lon="9.03042">
        <ele>667</ele>
        <time>2021-08-02T08:45:13.354Z</time>
      </trkpt>
      <trkpt lat="47.04925" lon="9.03043">
        <ele>666</ele>
        <time>2021-08-02T08:45:14.354Z</time>
      </trkpt>
      <trkpt lat="47.0492" lon="9.03051">
        <ele>667</ele>
        <time>2021-08-02T08:45:15.355Z</time>
      </trkpt>
      <trkpt lat="47.04919" lon="9.03051">
        <ele>667</ele>
        <time>2021-08-02T08:45:16.355Z</time>
      </trkpt>
      <trkpt lat="47.04918" lon="9.0305">
        <ele>667</ele>
        <time>2021-08-02T08:45:17.354Z</time>
      </trkpt>
      <trkpt lat="47.04917" lon="9.0305">
        <ele>667</ele>
        <time>2021-08-02T08:45:18.355Z</time>
      </trkpt>
      <trkpt lat="47.04916" lon="9.0305">
        <ele>668</ele>
        <time>2021-08-02T08:45:19.355Z</time>
      </trkpt>
      <trkpt lat="47.04915" lon="9.03049">
        <ele>668</ele>
        <time>2021-08-02T08:45:20.354Z</time>
      </trkpt>
      <trkpt lat="47.04916" lon="9.03049">
        <ele>668</ele>
        <time>2021-08-02T08:45:21.354Z</time>
      </trkpt>
      <trkpt lat="47.04916" lon="9.03049">
        <ele>668</ele>
        <time>2021-08-02T08:45:22.354Z</time>
      </trkpt>
      <trkpt lat="47.04913" lon="9.03045">
        <ele>674</ele>
        <time>2021-08-02T08:45:23.355Z</time>
      </trkpt>
      <trkpt lat="47.04913" lon="9.03046">
        <ele>674</ele>
        <time>2021-08-02T08:45:24.355Z</time>
      </trkpt>
      <trkpt lat="47.04914" lon="9.03046">
        <ele>674</ele>
        <time>2021-08-02T08:45:25.354Z</time>
      </trkpt>
      <trkpt lat="47.04916" lon="9.03046">
        <ele>675</ele>
        <time>2021-08-02T08:45:26.356Z</time>
      </trkpt>
      <trkpt lat="47.04916" lon="9.03046">
        <ele>675</ele>
        <time>2021-08-02T08:45:27.355Z</time>
      </trkpt>
      <trkpt lat="47.04917" lon="9.03047">
        <ele>673</ele>
        <time>2021-08-02T08:45:28.357Z</time>
      </trkpt>
      <trkpt lat="47.04917" lon="9.03047">
        <ele>673</ele>
        <time>2021-08-02T08:45:29.356Z</time>
      </trkpt>
      <trkpt lat="47.04917" lon="9.03048">
        <ele>672</ele>
        <time>2021-08-02T08:45:30.356Z</time>
      </trkpt>
      <trkpt lat="47.04917" lon="9.03052">
        <ele>675</ele>
        <time>2021-08-02T08:45:31.357Z</time>
      </trkpt>
      <trkpt lat="47.04917" lon="9.03052">
        <ele>668</ele>
        <time>2021-08-02T08:45:32.357Z</time>
      </trkpt>
      <trkpt lat="47.04916" lon="9.03052">
        <ele>668</ele>
        <time>2021-08-02T08:45:33.356Z</time>
      </trkpt>
      <trkpt lat="47.04916" lon="9.03053">
        <ele>667</ele>
        <time>2021-08-02T08:45:34.356Z</time>
      </trkpt>
      <trkpt lat="47.04915" lon="9.03054">
        <ele>667</ele>
        <time>2021-08-02T08:45:35.356Z</time>
      </trkpt>
      <trkpt lat="47.04914" lon="9.03054">
        <ele>667</ele>
        <time>2021-08-02T08:45:36.357Z</time>
      </trkpt>
      <trkpt lat="47.04914" lon="9.03055">
        <ele>666</ele>
        <time>2021-08-02T08:45:37.357Z</time>
      </trkpt>
      <trkpt lat="47.04913" lon="9.03056">
        <ele>666</ele>
        <time>2021-08-02T08:45:38.356Z</time>
      </trkpt>
      <trkpt lat="47.04912" lon="9.03056">
        <ele>666</ele>
        <time>2021-08-02T08:45:39.357Z</time>
      </trkpt>
      <trkpt lat="47.04912" lon="9.03057">
        <ele>666</ele>
        <time>2021-08-02T08:45:40.357Z</time>
      </trkpt>
      <trkpt lat="47.04911" lon="9.03057">
        <ele>667</ele>
        <time>2021-08-02T08:45:41.357Z</time>
      </trkpt>
      <trkpt lat="47.0491" lon="9.03057">
        <ele>667</ele>
        <time>2021-08-02T08:45:42.357Z</time>
      </trkpt>
      <trkpt lat="47.04909" lon="9.03057">
        <ele>667</ele>
        <time>2021-08-02T08:45:43.356Z</time>
      </trkpt>
      <trkpt lat="47.04904" lon="9.03066">
        <ele>674</ele>
        <time>2021-08-02T08:45:44.359Z</time>
      </trkpt>
      <trkpt lat="47.04904" lon="9.03064">
        <ele>673</ele>
        <time>2021-08-02T08:45:45.358Z</time>
      </trkpt>
      <trkpt lat="47.04904" lon="9.03062">
        <ele>673</ele>
        <time>2021-08-02T08:45:46.358Z</time>
      </trkpt>
      <trkpt lat="47.04905" lon="9.03061">
        <ele>673</ele>
        <time>2021-08-02T08:45:47.359Z</time>
      </trkpt>
      <trkpt lat="47.04905" lon="9.03059">
        <ele>673</ele>
        <time>2021-08-02T08:45:48.359Z</time>
      </trkpt>
      <trkpt lat="47.04905" lon="9.03058">
        <ele>673</ele>
        <time>2021-08-02T08:45:49.359Z</time>
      </trkpt>
      <trkpt lat="47.04905" lon="9.03057">
        <ele>673</ele>
        <time>2021-08-02T08:45:50.359Z</time>
      </trkpt>
      <trkpt lat="47.04906" lon="9.03055">
        <ele>673</ele>
        <time>2021-08-02T08:45:51.359Z</time>
      </trkpt>
      <trkpt lat="47.04906" lon="9.03055">
        <ele>673</ele>
        <time>2021-08-02T08:45:52.359Z</time>
      </trkpt>
      <trkpt lat="47.04907" lon="9.03054">
        <ele>673</ele>
        <time>2021-08-02T08:45:53.359Z</time>
      </trkpt>
      <trkpt lat="47.04907" lon="9.03054">
        <ele>672</ele>
        <time>2021-08-02T08:45:54.359Z</time>
      </trkpt>
      <trkpt lat="47.04907" lon="9.03054">
        <ele>672</ele>
        <time>2021-08-02T08:45:55.359Z</time>
      </trkpt>
      <trkpt lat="47.04907" lon="9.03053">
        <ele>672</ele>
        <time>2021-08-02T08:45:56.358Z</time>
      </trkpt>
      <trkpt lat="47.04907" lon="9.03052">
        <ele>672</ele>
        <time>2021-08-02T08:45:57.359Z</time>
      </trkpt>
      <trkpt lat="47.04907" lon="9.03052">
        <ele>672</ele>
        <time>2021-08-02T08:45:58.359Z</time>
      </trkpt>
      <trkpt lat="47.04907" lon="9.03047">
        <ele>670</ele>
        <time>2021-08-02T08:45:59.360Z</time>
      </trkpt>
      <trkpt lat="47.04901" lon="9.03041">
        <ele>663</ele>
        <time>2021-08-02T08:46:00.359Z</time>
      </trkpt>
      <trkpt lat="47.04902" lon="9.03039">
        <ele>663</ele>
        <time>2021-08-02T08:46:01.360Z</time>
      </trkpt>
      <trkpt lat="47.04902" lon="9.0304">
        <ele>663</ele>
        <time>2021-08-02T08:46:02.359Z</time>
      </trkpt>
      <trkpt lat="47.04902" lon="9.0304">
        <ele>663</ele>
        <time>2021-08-02T08:46:03.360Z</time>
      </trkpt>
      <trkpt lat="47.04904" lon="9.03039">
        <ele>665</ele>
        <time>2021-08-02T08:46:04.359Z</time>
      </trkpt>
      <trkpt lat="47.04905" lon="9.03039">
        <ele>665</ele>
        <time>2021-08-02T08:46:05.360Z</time>
      </trkpt>
      <trkpt lat="47.04905" lon="9.03039">
        <ele>665</ele>
        <time>2021-08-02T08:46:06.359Z</time>
      </trkpt>
      <trkpt lat="47.04914" lon="9.03042">
        <ele>666</ele>
        <time>2021-08-02T08:46:07.360Z</time>
      </trkpt>
      <trkpt lat="47.04914" lon="9.03042">
        <ele>666</ele>
        <time>2021-08-02T08:46:08.360Z</time>
      </trkpt>
      <trkpt lat="47.04914" lon="9.03036">
        <ele>662</ele>
        <time>2021-08-02T08:46:09.361Z</time>
      </trkpt>
      <trkpt lat="47.04914" lon="9.03035">
        <ele>661</ele>
        <time>2021-08-02T08:46:10.361Z</time>
      </trkpt>
      <trkpt lat="47.04914" lon="9.03034">
        <ele>659</ele>
        <time>2021-08-02T08:46:11.360Z</time>
      </trkpt>
      <trkpt lat="47.04918" lon="9.03038">
        <ele>658</ele>
        <time>2021-08-02T08:46:12.360Z</time>
      </trkpt>
      <trkpt lat="47.04919" lon="9.03038">
        <ele>659</ele>
        <time>2021-08-02T08:46:13.361Z</time>
      </trkpt>
      <trkpt lat="47.04918" lon="9.03031">
        <ele>659</ele>
        <time>2021-08-02T08:46:15.361Z</time>
      </trkpt>
      <trkpt lat="47.04918" lon="9.0303">
        <ele>659</ele>
        <time>2021-08-02T08:46:16.360Z</time>
      </trkpt>
      <trkpt lat="47.04916" lon="9.0303">
        <ele>659</ele>
        <time>2021-08-02T08:46:17.363Z</time>
      </trkpt>
      <trkpt lat="47.04917" lon="9.0303">
        <ele>659</ele>
        <time>2021-08-02T08:46:18.363Z</time>
      </trkpt>
      <trkpt lat="47.04916" lon="9.03031">
        <ele>656</ele>
        <time>2021-08-02T08:46:19.363Z</time>
      </trkpt>
      <trkpt lat="47.04915" lon="9.03031">
        <ele>656</ele>
        <time>2021-08-02T08:46:20.363Z</time>
      </trkpt>
      <trkpt lat="47.04915" lon="9.03032">
        <ele>655</ele>
        <time>2021-08-02T08:46:21.362Z</time>
      </trkpt>
      <trkpt lat="47.04914" lon="9.03032">
        <ele>655</ele>
        <time>2021-08-02T08:46:22.363Z</time>
      </trkpt>
      <trkpt lat="47.04913" lon="9.03033">
        <ele>655</ele>
        <time>2021-08-02T08:46:23.363Z</time>
      </trkpt>
      <trkpt lat="47.04913" lon="9.03034">
        <ele>655</ele>
        <time>2021-08-02T08:46:24.363Z</time>
      </trkpt>
      <trkpt lat="47.04913" lon="9.03035">
        <ele>655</ele>
        <time>2021-08-02T08:46:25.363Z</time>
      </trkpt>
      <trkpt lat="47.04914" lon="9.03036">
        <ele>656</ele>
        <time>2021-08-02T08:46:26.363Z</time>
      </trkpt>
      <trkpt lat="47.04913" lon="9.03037">
        <ele>657</ele>
        <time>2021-08-02T08:46:27.363Z</time>
      </trkpt>
      <trkpt lat="47.04912" lon="9.03038">
        <ele>657</ele>
        <time>2021-08-02T08:46:28.363Z</time>
      </trkpt>
      <trkpt lat="47.04911" lon="9.03037">
        <ele>658</ele>
        <time>2021-08-02T08:46:29.364Z</time>
      </trkpt>
      <trkpt lat="47.04911" lon="9.03034">
        <ele>660</ele>
        <time>2021-08-02T08:46:30.365Z</time>
      </trkpt>
      <trkpt lat="47.04911" lon="9.03034">
        <ele>660</ele>
        <time>2021-08-02T08:46:31.365Z</time>
      </trkpt>
      <trkpt lat="47.04913" lon="9.03035">
        <ele>659</ele>
        <time>2021-08-02T08:46:32.365Z</time>
      </trkpt>
      <trkpt lat="47.04913" lon="9.03037">
        <ele>658</ele>
        <time>2021-08-02T08:46:33.364Z</time>
      </trkpt>
      <trkpt lat="47.04913" lon="9.03039">
        <ele>658</ele>
        <time>2021-08-02T08:46:34.364Z</time>
      </trkpt>
      <trkpt lat="47.04913" lon="9.03041">
        <ele>658</ele>
        <time>2021-08-02T08:46:35.366Z</time>
      </trkpt>
      <trkpt lat="47.04913" lon="9.03041">
        <ele>658</ele>
        <time>2021-08-02T08:46:36.366Z</time>
      </trkpt>
      <trkpt lat="47.04913" lon="9.03042">
        <ele>659</ele>
        <time>2021-08-02T08:46:37.366Z</time>
      </trkpt>
      <trkpt lat="47.04913" lon="9.03042">
        <ele>659</ele>
        <time>2021-08-02T08:46:38.367Z</time>
      </trkpt>
      <trkpt lat="47.04914" lon="9.03042">
        <ele>659</ele>
        <time>2021-08-02T08:46:39.366Z</time>
      </trkpt>
      <trkpt lat="47.04915" lon="9.03042">
        <ele>659</ele>
        <time>2021-08-02T08:46:40.366Z</time>
      </trkpt>
      <trkpt lat="47.04916" lon="9.03042">
        <ele>659</ele>
        <time>2021-08-02T08:46:41.366Z</time>
      </trkpt>
      <trkpt lat="47.04917" lon="9.03042">
        <ele>661</ele>
        <time>2021-08-02T08:46:42.367Z</time>
      </trkpt>
      <trkpt lat="47.04917" lon="9.03042">
        <ele>662</ele>
        <time>2021-08-02T08:46:43.368Z</time>
      </trkpt>
      <trkpt lat="47.04917" lon="9.03041">
        <ele>663</ele>
        <time>2021-08-02T08:46:44.367Z</time>
      </trkpt>
      <trkpt lat="47.04918" lon="9.03041">
        <ele>666</ele>
        <time>2021-08-02T08:46:45.369Z</time>
      </trkpt>
      <trkpt lat="47.04919" lon="9.03042">
        <ele>667</ele>
        <time>2021-08-02T08:46:46.369Z</time>
      </trkpt>
      <trkpt lat="47.0492" lon="9.03043">
        <ele>668</ele>
        <time>2021-08-02T08:46:47.368Z</time>
      </trkpt>
      <trkpt lat="47.0492" lon="9.03044">
        <ele>669</ele>
        <time>2021-08-02T08:46:48.369Z</time>
      </trkpt>
      <trkpt lat="47.0492" lon="9.03045">
        <ele>670</ele>
        <time>2021-08-02T08:46:49.369Z</time>
      </trkpt>
      <trkpt lat="47.0492" lon="9.03046">
        <ele>672</ele>
        <time>2021-08-02T08:46:50.368Z</time>
      </trkpt>
      <trkpt lat="47.04919" lon="9.03046">
        <ele>673</ele>
        <time>2021-08-02T08:46:51.368Z</time>
      </trkpt>
      <trkpt lat="47.04919" lon="9.03046">
        <ele>674</ele>
        <time>2021-08-02T08:46:52.369Z</time>
      </trkpt>
      <trkpt lat="47.04919" lon="9.03047">
        <ele>683</ele>
        <time>2021-08-02T08:46:53.369Z</time>
      </trkpt>
      <trkpt lat="47.0492" lon="9.0305">
        <ele>692</ele>
        <time>2021-08-02T08:46:54.371Z</time>
      </trkpt>
      <trkpt lat="47.04919" lon="9.03055">
        <ele>686</ele>
        <time>2021-08-02T08:46:55.371Z</time>
      </trkpt>
      <trkpt lat="47.04919" lon="9.03055">
        <ele>685</ele>
        <time>2021-08-02T08:46:56.371Z</time>
      </trkpt>
      <trkpt lat="47.04919" lon="9.03055">
        <ele>685</ele>
        <time>2021-08-02T08:46:57.371Z</time>
      </trkpt>
      <trkpt lat="47.04919" lon="9.03055">
        <ele>685</ele>
        <time>2021-08-02T08:46:58.370Z</time>
      </trkpt>
      <trkpt lat="47.04919" lon="9.03055">
        <ele>691</ele>
        <time>2021-08-02T08:46:59.373Z</time>
      </trkpt>
      <trkpt lat="47.04919" lon="9.03056">
        <ele>691</ele>
        <time>2021-08-02T08:47:00.373Z</time>
      </trkpt>
      <trkpt lat="47.04919" lon="9.03057">
        <ele>692</ele>
        <time>2021-08-02T08:47:01.372Z</time>
      </trkpt>
      <trkpt lat="47.04918" lon="9.03057">
        <ele>692</ele>
        <time>2021-08-02T08:47:02.372Z</time>
      </trkpt>
      <trkpt lat="47.04918" lon="9.03059">
        <ele>693</ele>
        <time>2021-08-02T08:47:03.373Z</time>
      </trkpt>
      <trkpt lat="47.04918" lon="9.0306">
        <ele>693</ele>
        <time>2021-08-02T08:47:04.373Z</time>
      </trkpt>
      <trkpt lat="47.04917" lon="9.0306">
        <ele>693</ele>
        <time>2021-08-02T08:47:05.372Z</time>
      </trkpt>
      <trkpt lat="47.04917" lon="9.03061">
        <ele>693</ele>
        <time>2021-08-02T08:47:06.373Z</time>
      </trkpt>
      <trkpt lat="47.04916" lon="9.03061">
        <ele>693</ele>
        <time>2021-08-02T08:47:07.373Z</time>
      </trkpt>
      <trkpt lat="47.04915" lon="9.0306">
        <ele>693</ele>
        <time>2021-08-02T08:47:08.373Z</time>
      </trkpt>
      <trkpt lat="47.04915" lon="9.03059">
        <ele>692</ele>
        <time>2021-08-02T08:47:09.373Z</time>
      </trkpt>
      <trkpt lat="47.04914" lon="9.03057">
        <ele>691</ele>
        <time>2021-08-02T08:47:10.372Z</time>
      </trkpt>
      <trkpt lat="47.04914" lon="9.03055">
        <ele>690</ele>
        <time>2021-08-02T08:47:11.373Z</time>
      </trkpt>
      <trkpt lat="47.04914" lon="9.03053">
        <ele>688</ele>
        <time>2021-08-02T08:47:12.373Z</time>
      </trkpt>
      <trkpt lat="47.04913" lon="9.0305">
        <ele>683</ele>
        <time>2021-08-02T08:47:13.374Z</time>
      </trkpt>
      <trkpt lat="47.04913" lon="9.03049">
        <ele>677</ele>
        <time>2021-08-02T08:47:14.374Z</time>
      </trkpt>
      <trkpt lat="47.04913" lon="9.03048">
        <ele>677</ele>
        <time>2021-08-02T08:47:15.375Z</time>
      </trkpt>
      <trkpt lat="47.04913" lon="9.03047">
        <ele>676</ele>
        <time>2021-08-02T08:47:16.374Z</time>
      </trkpt>
      <trkpt lat="47.04914" lon="9.03045">
        <ele>676</ele>
        <time>2021-08-02T08:47:17.374Z</time>
      </trkpt>
      <trkpt lat="47.04912" lon="9.03045">
        <ele>676</ele>
        <time>2021-08-02T08:47:18.374Z</time>
      </trkpt>
      <trkpt lat="47.04911" lon="9.03045">
        <ele>675</ele>
        <time>2021-08-02T08:47:19.374Z</time>
      </trkpt>
      <trkpt lat="47.0491" lon="9.03048">
        <ele>670</ele>
        <time>2021-08-02T08:47:20.375Z</time>
      </trkpt>
      <trkpt lat="47.04911" lon="9.03048">
        <ele>670</ele>
        <time>2021-08-02T08:47:21.375Z</time>
      </trkpt>
      <trkpt lat="47.04911" lon="9.03049">
        <ele>662</ele>
        <time>2021-08-02T08:47:22.374Z</time>
      </trkpt>
      <trkpt lat="47.04911" lon="9.03049">
        <ele>662</ele>
        <time>2021-08-02T08:47:23.375Z</time>
      </trkpt>
      <trkpt lat="47.04911" lon="9.03049">
        <ele>662</ele>
        <time>2021-08-02T08:47:24.374Z</time>
      </trkpt>
      <trkpt lat="47.04911" lon="9.03049">
        <ele>661</ele>
        <time>2021-08-02T08:47:25.374Z</time>
      </trkpt>
      <trkpt lat="47.04911" lon="9.03048">
        <ele>660</ele>
        <time>2021-08-02T08:47:26.375Z</time>
      </trkpt>
      <trkpt lat="47.04911" lon="9.03048">
        <ele>660</ele>
        <time>2021-08-02T08:47:27.375Z</time>
      </trkpt>
      <trkpt lat="47.04912" lon="9.03047">
        <ele>660</ele>
        <time>2021-08-02T08:47:28.375Z</time>
      </trkpt>
      <trkpt lat="47.04912" lon="9.03046">
        <ele>660</ele>
        <time>2021-08-02T08:47:29.375Z</time>
      </trkpt>
      <trkpt lat="47.04911" lon="9.03042">
        <ele>658</ele>
        <time>2021-08-02T08:47:30.375Z</time>
      </trkpt>
      <trkpt lat="47.04911" lon="9.03041">
        <ele>658</ele>
        <time>2021-08-02T08:47:31.374Z</time>
      </trkpt>
      <trkpt lat="47.04911" lon="9.03041">
        <ele>658</ele>
        <time>2021-08-02T08:47:32.374Z</time>
      </trkpt>
      <trkpt lat="47.04911" lon="9.0304">
        <ele>657</ele>
        <time>2021-08-02T08:47:33.375Z</time>
      </trkpt>
      <trkpt lat="47.04911" lon="9.0304">
        <ele>657</ele>
        <time>2021-08-02T08:47:34.375Z</time>
      </trkpt>
      <trkpt lat="47.04911" lon="9.0304">
        <ele>657</ele>
        <time>2021-08-02T08:47:35.374Z</time>
      </trkpt>
      <trkpt lat="47.04912" lon="9.03042">
        <ele>658</ele>
        <time>2021-08-02T08:47:36.374Z</time>
      </trkpt>
      <trkpt lat="47.04913" lon="9.03044">
        <ele>659</ele>
        <time>2021-08-02T08:47:37.374Z</time>
      </trkpt>
      <trkpt lat="47.04914" lon="9.03043">
        <ele>659</ele>
        <time>2021-08-02T08:47:38.374Z</time>
      </trkpt>
      <trkpt lat="47.04914" lon="9.03042">
        <ele>659</ele>
        <time>2021-08-02T08:47:39.374Z</time>
      </trkpt>
      <trkpt lat="47.04913" lon="9.03041">
        <ele>660</ele>
        <time>2021-08-02T08:47:40.375Z</time>
      </trkpt>
      <trkpt lat="47.04913" lon="9.0304">
        <ele>660</ele>
        <time>2021-08-02T08:47:41.375Z</time>
      </trkpt>
      <trkpt lat="47.04913" lon="9.03034">
        <ele>654</ele>
        <time>2021-08-02T08:47:42.376Z</time>
      </trkpt>
      <trkpt lat="47.04913" lon="9.03034">
        <ele>654</ele>
        <time>2021-08-02T08:47:43.375Z</time>
      </trkpt>
      <trkpt lat="47.04913" lon="9.03035">
        <ele>653</ele>
        <time>2021-08-02T08:47:44.375Z</time>
      </trkpt>
      <trkpt lat="47.04914" lon="9.03035">
        <ele>653</ele>
        <time>2021-08-02T08:47:45.376Z</time>
      </trkpt>
      <trkpt lat="47.04915" lon="9.03035">
        <ele>653</ele>
        <time>2021-08-02T08:47:46.375Z</time>
      </trkpt>
      <trkpt lat="47.04915" lon="9.03035">
        <ele>653</ele>
        <time>2021-08-02T08:47:47.375Z</time>
      </trkpt>
      <trkpt lat="47.04916" lon="9.03034">
        <ele>653</ele>
        <time>2021-08-02T08:47:48.376Z</time>
      </trkpt>
      <trkpt lat="47.04915" lon="9.03035">
        <ele>653</ele>
        <time>2021-08-02T08:47:49.375Z</time>
      </trkpt>
      <trkpt lat="47.04915" lon="9.03036">
        <ele>653</ele>
        <time>2021-08-02T08:47:50.376Z</time>
      </trkpt>
      <trkpt lat="47.04914" lon="9.03036">
        <ele>653</ele>
        <time>2021-08-02T08:47:51.375Z</time>
      </trkpt>
      <trkpt lat="47.04913" lon="9.03037">
        <ele>653</ele>
        <time>2021-08-02T08:47:52.376Z</time>
      </trkpt>
      <trkpt lat="47.04913" lon="9.03036">
        <ele>652</ele>
        <time>2021-08-02T08:47:53.375Z</time>
      </trkpt>
      <trkpt lat="47.04913" lon="9.03036">
        <ele>652</ele>
        <time>2021-08-02T08:47:54.376Z</time>
      </trkpt>
      <trkpt lat="47.04912" lon="9.03036">
        <ele>651</ele>
        <time>2021-08-02T08:47:55.375Z</time>
      </trkpt>
      <trkpt lat="47.04914" lon="9.03034">
        <ele>647</ele>
        <time>2021-08-02T08:47:56.376Z</time>
      </trkpt>
      <trkpt lat="47.04915" lon="9.03033">
        <ele>640</ele>
        <time>2021-08-02T08:47:57.375Z</time>
      </trkpt>
      <trkpt lat="47.04916" lon="9.03035">
        <ele>636</ele>
        <time>2021-08-02T08:47:58.376Z</time>
      </trkpt>
      <trkpt lat="47.04916" lon="9.03035">
        <ele>636</ele>
        <time>2021-08-02T08:47:59.376Z</time>
      </trkpt>
      <trkpt lat="47.04916" lon="9.03035">
        <ele>636</ele>
        <time>2021-08-02T08:48:00.375Z</time>
      </trkpt>
      <trkpt lat="47.04916" lon="9.03037">
        <ele>636</ele>
        <time>2021-08-02T08:48:01.377Z</time>
      </trkpt>
      <trkpt lat="47.04916" lon="9.03038">
        <ele>636</ele>
        <time>2021-08-02T08:48:02.377Z</time>
      </trkpt>
      <trkpt lat="47.04916" lon="9.03038">
        <ele>637</ele>
        <time>2021-08-02T08:48:03.376Z</time>
      </trkpt>
      <trkpt lat="47.04916" lon="9.03037">
        <ele>637</ele>
        <time>2021-08-02T08:48:04.376Z</time>
      </trkpt>
      <trkpt lat="47.04916" lon="9.03037">
        <ele>638</ele>
        <time>2021-08-02T08:48:05.377Z</time>
      </trkpt>
      <trkpt lat="47.04914" lon="9.03034">
        <ele>649</ele>
        <time>2021-08-02T08:48:06.376Z</time>
      </trkpt>
      <trkpt lat="47.04913" lon="9.03033">
        <ele>650</ele>
        <time>2021-08-02T08:48:07.377Z</time>
      </trkpt>
      <trkpt lat="47.04912" lon="9.03033">
        <ele>652</ele>
        <time>2021-08-02T08:48:08.377Z</time>
      </trkpt>
      <trkpt lat="47.04913" lon="9.03036">
        <ele>659</ele>
        <time>2021-08-02T08:48:09.377Z</time>
      </trkpt>
      <trkpt lat="47.04913" lon="9.03037">
        <ele>660</ele>
        <time>2021-08-02T08:48:10.377Z</time>
      </trkpt>
      <trkpt lat="47.04913" lon="9.03037">
        <ele>661</ele>
        <time>2021-08-02T08:48:11.376Z</time>
      </trkpt>
      <trkpt lat="47.04918" lon="9.03043">
        <ele>671</ele>
        <time>2021-08-02T08:48:12.376Z</time>
      </trkpt>
      <trkpt lat="47.04915" lon="9.03041">
        <ele>670</ele>
        <time>2021-08-02T08:48:13.378Z</time>
      </trkpt>
      <trkpt lat="47.04915" lon="9.03041">
        <ele>670</ele>
        <time>2021-08-02T08:48:14.377Z</time>
      </trkpt>
      <trkpt lat="47.04915" lon="9.0304">
        <ele>670</ele>
        <time>2021-08-02T08:48:15.378Z</time>
      </trkpt>
      <trkpt lat="47.04915" lon="9.0304">
        <ele>670</ele>
        <time>2021-08-02T08:48:16.378Z</time>
      </trkpt>
      <trkpt lat="47.04915" lon="9.03039">
        <ele>670</ele>
        <time>2021-08-02T08:48:17.377Z</time>
      </trkpt>
      <trkpt lat="47.04915" lon="9.0304">
        <ele>665</ele>
        <time>2021-08-02T08:48:18.377Z</time>
      </trkpt>
      <trkpt lat="47.04914" lon="9.03039">
        <ele>664</ele>
        <time>2021-08-02T08:48:19.377Z</time>
      </trkpt>
      <trkpt lat="47.04913" lon="9.03039">
        <ele>663</ele>
        <time>2021-08-02T08:48:20.377Z</time>
      </trkpt>
      <trkpt lat="47.04912" lon="9.03039">
        <ele>662</ele>
        <time>2021-08-02T08:48:21.378Z</time>
      </trkpt>
      <trkpt lat="47.04912" lon="9.03037">
        <ele>661</ele>
        <time>2021-08-02T08:48:22.377Z</time>
      </trkpt>
      <trkpt lat="47.04912" lon="9.03036">
        <ele>661</ele>
        <time>2021-08-02T08:48:23.378Z</time>
      </trkpt>
      <trkpt lat="47.04911" lon="9.03035">
        <ele>660</ele>
        <time>2021-08-02T08:48:24.377Z</time>
      </trkpt>
      <trkpt lat="47.04909" lon="9.03037">
        <ele>660</ele>
        <time>2021-08-02T08:48:25.377Z</time>
      </trkpt>
      <trkpt lat="47.04909" lon="9.0304">
        <ele>660</ele>
        <time>2021-08-02T08:48:26.377Z</time>
      </trkpt>
      <trkpt lat="47.04908" lon="9.03042">
        <ele>660</ele>
        <time>2021-08-02T08:48:27.377Z</time>
      </trkpt>
      <trkpt lat="47.04908" lon="9.03042">
        <ele>659</ele>
        <time>2021-08-02T08:48:28.377Z</time>
      </trkpt>
      <trkpt lat="47.04908" lon="9.03042">
        <ele>658</ele>
        <time>2021-08-02T08:48:29.377Z</time>
      </trkpt>
      <trkpt lat="47.04908" lon="9.03042">
        <ele>658</ele>
        <time>2021-08-02T08:48:30.378Z</time>
      </trkpt>
      <trkpt lat="47.04908" lon="9.03042">
        <ele>658</ele>
        <time>2021-08-02T08:48:31.377Z</time>
      </trkpt>
      <trkpt lat="47.04907" lon="9.03039">
        <ele>657</ele>
        <time>2021-08-02T08:48:32.378Z</time>
      </trkpt>
      <trkpt lat="47.04907" lon="9.03038">
        <ele>657</ele>
        <time>2021-08-02T08:48:33.377Z</time>
      </trkpt>
      <trkpt lat="47.04907" lon="9.03037">
        <ele>657</ele>
        <time>2021-08-02T08:48:34.378Z</time>
      </trkpt>
      <trkpt lat="47.04907" lon="9.03037">
        <ele>657</ele>
        <time>2021-08-02T08:48:35.377Z</time>
      </trkpt>
      <trkpt lat="47.04903" lon="9.03037">
        <ele>658</ele>
        <time>2021-08-02T08:48:36.379Z</time>
      </trkpt>
      <trkpt lat="47.04902" lon="9.03037">
        <ele>658</ele>
        <time>2021-08-02T08:48:37.378Z</time>
      </trkpt>
      <trkpt lat="47.04901" lon="9.03037">
        <ele>658</ele>
        <time>2021-08-02T08:48:38.378Z</time>
      </trkpt>
      <trkpt lat="47.04901" lon="9.03036">
        <ele>657</ele>
        <time>2021-08-02T08:48:39.379Z</time>
      </trkpt>
      <trkpt lat="47.049" lon="9.03035">
        <ele>658</ele>
        <time>2021-08-02T08:48:40.378Z</time>
      </trkpt>
      <trkpt lat="47.04899" lon="9.03034">
        <ele>658</ele>
        <time>2021-08-02T08:48:41.378Z</time>
      </trkpt>
      <trkpt lat="47.04898" lon="9.03034">
        <ele>658</ele>
        <time>2021-08-02T08:48:42.379Z</time>
      </trkpt>
      <trkpt lat="47.04898" lon="9.03033">
        <ele>658</ele>
        <time>2021-08-02T08:48:43.379Z</time>
      </trkpt>
      <trkpt lat="47.04897" lon="9.03033">
        <ele>659</ele>
        <time>2021-08-02T08:48:44.379Z</time>
      </trkpt>
      <trkpt lat="47.04895" lon="9.03033">
        <ele>659</ele>
        <time>2021-08-02T08:48:45.379Z</time>
      </trkpt>
      <trkpt lat="47.04894" lon="9.03033">
        <ele>659</ele>
        <time>2021-08-02T08:48:46.379Z</time>
      </trkpt>
      <trkpt lat="47.04893" lon="9.03034">
        <ele>660</ele>
        <time>2021-08-02T08:48:47.379Z</time>
      </trkpt>
      <trkpt lat="47.04892" lon="9.03034">
        <ele>660</ele>
        <time>2021-08-02T08:48:48.379Z</time>
      </trkpt>
      <trkpt lat="47.04891" lon="9.03034">
        <ele>661</ele>
        <time>2021-08-02T08:48:49.378Z</time>
      </trkpt>
      <trkpt lat="47.0489" lon="9.03033">
        <ele>661</ele>
        <time>2021-08-02T08:48:50.379Z</time>
      </trkpt>
      <trkpt lat="47.04889" lon="9.03032">
        <ele>661</ele>
        <time>2021-08-02T08:48:51.379Z</time>
      </trkpt>
      <trkpt lat="47.04888" lon="9.03031">
        <ele>661</ele>
        <time>2021-08-02T08:48:52.379Z</time>
      </trkpt>
      <trkpt lat="47.04887" lon="9.0303">
        <ele>662</ele>
        <time>2021-08-02T08:48:53.379Z</time>
      </trkpt>
      <trkpt lat="47.04885" lon="9.03028">
        <ele>662</ele>
        <time>2021-08-02T08:48:54.379Z</time>
      </trkpt>
      <trkpt lat="47.04884" lon="9.03026">
        <ele>662</ele>
        <time>2021-08-02T08:48:55.379Z</time>
      </trkpt>
      <trkpt lat="47.04882" lon="9.03025">
        <ele>662</ele>
        <time>2021-08-02T08:48:56.378Z</time>
      </trkpt>
      <trkpt lat="47.04881" lon="9.03023">
        <ele>663</ele>
        <time>2021-08-02T08:48:57.379Z</time>
      </trkpt>
      <trkpt lat="47.04881" lon="9.0302">
        <ele>663</ele>
        <time>2021-08-02T08:48:58.378Z</time>
      </trkpt>
      <trkpt lat="47.0488" lon="9.03019">
        <ele>663</ele>
        <time>2021-08-02T08:48:59.378Z</time>
      </trkpt>
      <trkpt lat="47.04879" lon="9.03017">
        <ele>663</ele>
        <time>2021-08-02T08:49:00.378Z</time>
      </trkpt>
      <trkpt lat="47.04877" lon="9.03017">
        <ele>664</ele>
        <time>2021-08-02T08:49:01.378Z</time>
      </trkpt>
      <trkpt lat="47.04876" lon="9.03016">
        <ele>664</ele>
        <time>2021-08-02T08:49:02.378Z</time>
      </trkpt>
      <trkpt lat="47.04876" lon="9.03016">
        <ele>664</ele>
        <time>2021-08-02T08:49:03.379Z</time>
      </trkpt>
      <trkpt lat="47.04876" lon="9.03015">
        <ele>665</ele>
        <time>2021-08-02T08:49:04.378Z</time>
      </trkpt>
      <trkpt lat="47.04875" lon="9.03016">
        <ele>665</ele>
        <time>2021-08-02T08:49:05.379Z</time>
      </trkpt>
      <trkpt lat="47.04874" lon="9.03017">
        <ele>666</ele>
        <time>2021-08-02T08:49:06.379Z</time>
      </trkpt>
      <trkpt lat="47.04874" lon="9.03018">
        <ele>666</ele>
        <time>2021-08-02T08:49:07.378Z</time>
      </trkpt>
      <trkpt lat="47.04873" lon="9.03016">
        <ele>668</ele>
        <time>2021-08-02T08:49:08.379Z</time>
      </trkpt>
      <trkpt lat="47.04872" lon="9.03015">
        <ele>669</ele>
        <time>2021-08-02T08:49:09.379Z</time>
      </trkpt>
      <trkpt lat="47.04872" lon="9.03015">
        <ele>670</ele>
        <time>2021-08-02T08:49:10.378Z</time>
      </trkpt>
      <trkpt lat="47.04872" lon="9.03014">
        <ele>670</ele>
        <time>2021-08-02T08:49:11.379Z</time>
      </trkpt>
      <trkpt lat="47.04871" lon="9.03013">
        <ele>671</ele>
        <time>2021-08-02T08:49:12.378Z</time>
      </trkpt>
      <trkpt lat="47.04871" lon="9.03013">
        <ele>672</ele>
        <time>2021-08-02T08:49:13.378Z</time>
      </trkpt>
      <trkpt lat="47.04871" lon="9.03013">
        <ele>673</ele>
        <time>2021-08-02T08:49:14.378Z</time>
      </trkpt>
      <trkpt lat="47.0487" lon="9.03012">
        <ele>673</ele>
        <time>2021-08-02T08:49:15.379Z</time>
      </trkpt>
      <trkpt lat="47.0487" lon="9.03011">
        <ele>674</ele>
        <time>2021-08-02T08:49:16.379Z</time>
      </trkpt>
      <trkpt lat="47.0487" lon="9.0301">
        <ele>675</ele>
        <time>2021-08-02T08:49:17.378Z</time>
      </trkpt>
      <trkpt lat="47.0487" lon="9.0301">
        <ele>676</ele>
        <time>2021-08-02T08:49:18.379Z</time>
      </trkpt>
      <trkpt lat="47.0487" lon="9.03009">
        <ele>676</ele>
        <time>2021-08-02T08:49:19.379Z</time>
      </trkpt>
      <trkpt lat="47.0487" lon="9.03008">
        <ele>677</ele>
        <time>2021-08-02T08:49:20.379Z</time>
      </trkpt>
      <trkpt lat="47.0487" lon="9.03007">
        <ele>677</ele>
        <time>2021-08-02T08:49:21.379Z</time>
      </trkpt>
      <trkpt lat="47.0487" lon="9.03007">
        <ele>678</ele>
        <time>2021-08-02T08:49:22.378Z</time>
      </trkpt>
      <trkpt lat="47.04869" lon="9.03005">
        <ele>678</ele>
        <time>2021-08-02T08:49:23.379Z</time>
      </trkpt>
      <trkpt lat="47.04868" lon="9.03004">
        <ele>679</ele>
        <time>2021-08-02T08:49:24.379Z</time>
      </trkpt>
      <trkpt lat="47.04867" lon="9.03004">
        <ele>680</ele>
        <time>2021-08-02T08:49:25.379Z</time>
      </trkpt>
      <trkpt lat="47.04867" lon="9.03004">
        <ele>680</ele>
        <time>2021-08-02T08:49:26.378Z</time>
      </trkpt>
      <trkpt lat="47.04866" lon="9.03004">
        <ele>681</ele>
        <time>2021-08-02T08:49:27.379Z</time>
      </trkpt>
      <trkpt lat="47.04865" lon="9.03004">
        <ele>681</ele>
        <time>2021-08-02T08:49:28.379Z</time>
      </trkpt>
      <trkpt lat="47.04865" lon="9.03003">
        <ele>682</ele>
        <time>2021-08-02T08:49:29.379Z</time>
      </trkpt>
      <trkpt lat="47.04864" lon="9.03003">
        <ele>682</ele>
        <time>2021-08-02T08:49:30.379Z</time>
      </trkpt>
      <trkpt lat="47.04864" lon="9.03001">
        <ele>683</ele>
        <time>2021-08-02T08:49:31.379Z</time>
      </trkpt>
      <trkpt lat="47.04863" lon="9.03">
        <ele>683</ele>
        <time>2021-08-02T08:49:32.378Z</time>
      </trkpt>
      <trkpt lat="47.04863" lon="9.02999">
        <ele>683</ele>
        <time>2021-08-02T08:49:33.378Z</time>
      </trkpt>
      <trkpt lat="47.04863" lon="9.02998">
        <ele>683</ele>
        <time>2021-08-02T08:49:34.379Z</time>
      </trkpt>
      <trkpt lat="47.04863" lon="9.02997">
        <ele>684</ele>
        <time>2021-08-02T08:49:35.379Z</time>
      </trkpt>
      <trkpt lat="47.04864" lon="9.02996">
        <ele>684</ele>
        <time>2021-08-02T08:49:36.379Z</time>
      </trkpt>
      <trkpt lat="47.04864" lon="9.02995">
        <ele>684</ele>
        <time>2021-08-02T08:49:37.378Z</time>
      </trkpt>
      <trkpt lat="47.04864" lon="9.02993">
        <ele>684</ele>
        <time>2021-08-02T08:49:38.378Z</time>
      </trkpt>
      <trkpt lat="47.04863" lon="9.02993">
        <ele>684</ele>
        <time>2021-08-02T08:49:39.379Z</time>
      </trkpt>
      <trkpt lat="47.04863" lon="9.02992">
        <ele>684</ele>
        <time>2021-08-02T08:49:40.378Z</time>
      </trkpt>
      <trkpt lat="47.04862" lon="9.0299">
        <ele>684</ele>
        <time>2021-08-02T08:49:41.378Z</time>
      </trkpt>
      <trkpt lat="47.04862" lon="9.02988">
        <ele>684</ele>
        <time>2021-08-02T08:49:42.379Z</time>
      </trkpt>
      <trkpt lat="47.04861" lon="9.02987">
        <ele>684</ele>
        <time>2021-08-02T08:49:43.378Z</time>
      </trkpt>
      <trkpt lat="47.04861" lon="9.02986">
        <ele>684</ele>
        <time>2021-08-02T08:49:44.378Z</time>
      </trkpt>
      <trkpt lat="47.0486" lon="9.02984">
        <ele>683</ele>
        <time>2021-08-02T08:49:45.378Z</time>
      </trkpt>
      <trkpt lat="47.0486" lon="9.02983">
        <ele>683</ele>
        <time>2021-08-02T08:49:46.378Z</time>
      </trkpt>
      <trkpt lat="47.04859" lon="9.02981">
        <ele>683</ele>
        <time>2021-08-02T08:49:47.378Z</time>
      </trkpt>
      <trkpt lat="47.04859" lon="9.0298">
        <ele>683</ele>
        <time>2021-08-02T08:49:48.378Z</time>
      </trkpt>
      <trkpt lat="47.04858" lon="9.02977">
        <ele>683</ele>
        <time>2021-08-02T08:49:49.378Z</time>
      </trkpt>
      <trkpt lat="47.04858" lon="9.02976">
        <ele>683</ele>
        <time>2021-08-02T08:49:50.378Z</time>
      </trkpt>
      <trkpt lat="47.04858" lon="9.02975">
        <ele>683</ele>
        <time>2021-08-02T08:49:51.378Z</time>
      </trkpt>
      <trkpt lat="47.04857" lon="9.02974">
        <ele>683</ele>
        <time>2021-08-02T08:49:52.378Z</time>
      </trkpt>
      <trkpt lat="47.04857" lon="9.02974">
        <ele>683</ele>
        <time>2021-08-02T08:49:53.378Z</time>
      </trkpt>
      <trkpt lat="47.04857" lon="9.02971">
        <ele>684</ele>
        <time>2021-08-02T08:49:54.379Z</time>
      </trkpt>
      <trkpt lat="47.04857" lon="9.02969">
        <ele>685</ele>
        <time>2021-08-02T08:49:55.380Z</time>
      </trkpt>
      <trkpt lat="47.04856" lon="9.02968">
        <ele>685</ele>
        <time>2021-08-02T08:49:56.379Z</time>
      </trkpt>
      <trkpt lat="47.04856" lon="9.02966">
        <ele>685</ele>
        <time>2021-08-02T08:49:57.380Z</time>
      </trkpt>
      <trkpt lat="47.04856" lon="9.02964">
        <ele>686</ele>
        <time>2021-08-02T08:49:58.380Z</time>
      </trkpt>
      <trkpt lat="47.04856" lon="9.02962">
        <ele>686</ele>
        <time>2021-08-02T08:49:59.380Z</time>
      </trkpt>
      <trkpt lat="47.04855" lon="9.02961">
        <ele>687</ele>
        <time>2021-08-02T08:50:00.379Z</time>
      </trkpt>
      <trkpt lat="47.04854" lon="9.0296">
        <ele>687</ele>
        <time>2021-08-02T08:50:01.380Z</time>
      </trkpt>
      <trkpt lat="47.04853" lon="9.02959">
        <ele>687</ele>
        <time>2021-08-02T08:50:02.380Z</time>
      </trkpt>
      <trkpt lat="47.04853" lon="9.02957">
        <ele>687</ele>
        <time>2021-08-02T08:50:03.379Z</time>
      </trkpt>
      <trkpt lat="47.04853" lon="9.02955">
        <ele>688</ele>
        <time>2021-08-02T08:50:04.380Z</time>
      </trkpt>
      <trkpt lat="47.04853" lon="9.02954">
        <ele>688</ele>
        <time>2021-08-02T08:50:05.380Z</time>
      </trkpt>
      <trkpt lat="47.04852" lon="9.02952">
        <ele>688</ele>
        <time>2021-08-02T08:50:06.380Z</time>
      </trkpt>
      <trkpt lat="47.04851" lon="9.02951">
        <ele>688</ele>
        <time>2021-08-02T08:50:07.380Z</time>
      </trkpt>
      <trkpt lat="47.04851" lon="9.0295">
        <ele>688</ele>
        <time>2021-08-02T08:50:08.380Z</time>
      </trkpt>
      <trkpt lat="47.04851" lon="9.02949">
        <ele>687</ele>
        <time>2021-08-02T08:50:09.380Z</time>
      </trkpt>
      <trkpt lat="47.04851" lon="9.02947">
        <ele>687</ele>
        <time>2021-08-02T08:50:10.380Z</time>
      </trkpt>
      <trkpt lat="47.04851" lon="9.02945">
        <ele>687</ele>
        <time>2021-08-02T08:50:11.380Z</time>
      </trkpt>
      <trkpt lat="47.04851" lon="9.02943">
        <ele>687</ele>
        <time>2021-08-02T08:50:12.379Z</time>
      </trkpt>
      <trkpt lat="47.0485" lon="9.02941">
        <ele>687</ele>
        <time>2021-08-02T08:50:13.380Z</time>
      </trkpt>
      <trkpt lat="47.0485" lon="9.0294">
        <ele>687</ele>
        <time>2021-08-02T08:50:14.379Z</time>
      </trkpt>
      <trkpt lat="47.0485" lon="9.02939">
        <ele>687</ele>
        <time>2021-08-02T08:50:15.379Z</time>
      </trkpt>
      <trkpt lat="47.04849" lon="9.02938">
        <ele>687</ele>
        <time>2021-08-02T08:50:16.380Z</time>
      </trkpt>
      <trkpt lat="47.04849" lon="9.02937">
        <ele>687</ele>
        <time>2021-08-02T08:50:17.379Z</time>
      </trkpt>
      <trkpt lat="47.04848" lon="9.02936">
        <ele>687</ele>
        <time>2021-08-02T08:50:18.380Z</time>
      </trkpt>
      <trkpt lat="47.04847" lon="9.02934">
        <ele>687</ele>
        <time>2021-08-02T08:50:19.380Z</time>
      </trkpt>
      <trkpt lat="47.04845" lon="9.02932">
        <ele>687</ele>
        <time>2021-08-02T08:50:20.380Z</time>
      </trkpt>
      <trkpt lat="47.04844" lon="9.0293">
        <ele>687</ele>
        <time>2021-08-02T08:50:21.380Z</time>
      </trkpt>
      <trkpt lat="47.04843" lon="9.02928">
        <ele>687</ele>
        <time>2021-08-02T08:50:22.379Z</time>
      </trkpt>
      <trkpt lat="47.04842" lon="9.02926">
        <ele>688</ele>
        <time>2021-08-02T08:50:23.379Z</time>
      </trkpt>
      <trkpt lat="47.04842" lon="9.02925">
        <ele>688</ele>
        <time>2021-08-02T08:50:24.380Z</time>
      </trkpt>
      <trkpt lat="47.04841" lon="9.02923">
        <ele>688</ele>
        <time>2021-08-02T08:50:25.380Z</time>
      </trkpt>
      <trkpt lat="47.04841" lon="9.02922">
        <ele>688</ele>
        <time>2021-08-02T08:50:26.380Z</time>
      </trkpt>
      <trkpt lat="47.0484" lon="9.0292">
        <ele>688</ele>
        <time>2021-08-02T08:50:27.380Z</time>
      </trkpt>
      <trkpt lat="47.0484" lon="9.02919">
        <ele>688</ele>
        <time>2021-08-02T08:50:28.380Z</time>
      </trkpt>
      <trkpt lat="47.0484" lon="9.02917">
        <ele>688</ele>
        <time>2021-08-02T08:50:29.379Z</time>
      </trkpt>
      <trkpt lat="47.0484" lon="9.02916">
        <ele>688</ele>
        <time>2021-08-02T08:50:30.379Z</time>
      </trkpt>
      <trkpt lat="47.04839" lon="9.02915">
        <ele>688</ele>
        <time>2021-08-02T08:50:31.379Z</time>
      </trkpt>
      <trkpt lat="47.04839" lon="9.02914">
        <ele>688</ele>
        <time>2021-08-02T08:50:32.380Z</time>
      </trkpt>
      <trkpt lat="47.04838" lon="9.02912">
        <ele>688</ele>
        <time>2021-08-02T08:50:33.380Z</time>
      </trkpt>
      <trkpt lat="47.04838" lon="9.0291">
        <ele>688</ele>
        <time>2021-08-02T08:50:34.379Z</time>
      </trkpt>
      <trkpt lat="47.04838" lon="9.02908">
        <ele>688</ele>
        <time>2021-08-02T08:50:35.379Z</time>
      </trkpt>
      <trkpt lat="47.04838" lon="9.02906">
        <ele>688</ele>
        <time>2021-08-02T08:50:36.379Z</time>
      </trkpt>
      <trkpt lat="47.04837" lon="9.02904">
        <ele>688</ele>
        <time>2021-08-02T08:50:37.380Z</time>
      </trkpt>
      <trkpt lat="47.04837" lon="9.02902">
        <ele>688</ele>
        <time>2021-08-02T08:50:38.380Z</time>
      </trkpt>
      <trkpt lat="47.04836" lon="9.029">
        <ele>688</ele>
        <time>2021-08-02T08:50:39.380Z</time>
      </trkpt>
      <trkpt lat="47.04835" lon="9.02899">
        <ele>688</ele>
        <time>2021-08-02T08:50:40.380Z</time>
      </trkpt>
      <trkpt lat="47.04835" lon="9.02898">
        <ele>688</ele>
        <time>2021-08-02T08:50:41.380Z</time>
      </trkpt>
      <trkpt lat="47.04834" lon="9.02896">
        <ele>689</ele>
        <time>2021-08-02T08:50:42.380Z</time>
      </trkpt>
      <trkpt lat="47.04833" lon="9.02895">
        <ele>689</ele>
        <time>2021-08-02T08:50:43.380Z</time>
      </trkpt>
      <trkpt lat="47.04832" lon="9.02894">
        <ele>689</ele>
        <time>2021-08-02T08:50:44.379Z</time>
      </trkpt>
      <trkpt lat="47.04832" lon="9.02894">
        <ele>690</ele>
        <time>2021-08-02T08:50:45.380Z</time>
      </trkpt>
      <trkpt lat="47.04831" lon="9.02893">
        <ele>690</ele>
        <time>2021-08-02T08:50:46.379Z</time>
      </trkpt>
      <trkpt lat="47.0483" lon="9.02894">
        <ele>691</ele>
        <time>2021-08-02T08:50:47.380Z</time>
      </trkpt>
      <trkpt lat="47.0483" lon="9.02894">
        <ele>692</ele>
        <time>2021-08-02T08:50:48.379Z</time>
      </trkpt>
      <trkpt lat="47.04829" lon="9.02894">
        <ele>692</ele>
        <time>2021-08-02T08:50:49.380Z</time>
      </trkpt>
      <trkpt lat="47.04828" lon="9.02893">
        <ele>693</ele>
        <time>2021-08-02T08:50:50.379Z</time>
      </trkpt>
      <trkpt lat="47.04827" lon="9.02892">
        <ele>694</ele>
        <time>2021-08-02T08:50:51.380Z</time>
      </trkpt>
      <trkpt lat="47.04827" lon="9.0289">
        <ele>694</ele>
        <time>2021-08-02T08:50:52.379Z</time>
      </trkpt>
      <trkpt lat="47.04827" lon="9.02888">
        <ele>695</ele>
        <time>2021-08-02T08:50:53.380Z</time>
      </trkpt>
      <trkpt lat="47.04827" lon="9.02887">
        <ele>695</ele>
        <time>2021-08-02T08:50:54.379Z</time>
      </trkpt>
      <trkpt lat="47.04827" lon="9.02886">
        <ele>695</ele>
        <time>2021-08-02T08:50:55.380Z</time>
      </trkpt>
      <trkpt lat="47.04827" lon="9.02886">
        <ele>696</ele>
        <time>2021-08-02T08:50:56.380Z</time>
      </trkpt>
      <trkpt lat="47.04827" lon="9.02885">
        <ele>696</ele>
        <time>2021-08-02T08:50:57.380Z</time>
      </trkpt>
      <trkpt lat="47.04827" lon="9.02883">
        <ele>696</ele>
        <time>2021-08-02T08:50:58.380Z</time>
      </trkpt>
      <trkpt lat="47.04827" lon="9.02882">
        <ele>696</ele>
        <time>2021-08-02T08:50:59.380Z</time>
      </trkpt>
      <trkpt lat="47.04827" lon="9.02881">
        <ele>697</ele>
        <time>2021-08-02T08:51:00.379Z</time>
      </trkpt>
      <trkpt lat="47.04827" lon="9.0288">
        <ele>697</ele>
        <time>2021-08-02T08:51:01.380Z</time>
      </trkpt>
      <trkpt lat="47.04827" lon="9.02879">
        <ele>698</ele>
        <time>2021-08-02T08:51:02.380Z</time>
      </trkpt>
      <trkpt lat="47.04828" lon="9.02877">
        <ele>698</ele>
        <time>2021-08-02T08:51:03.380Z</time>
      </trkpt>
      <trkpt lat="47.04828" lon="9.02876">
        <ele>698</ele>
        <time>2021-08-02T08:51:04.380Z</time>
      </trkpt>
      <trkpt lat="47.04829" lon="9.02875">
        <ele>699</ele>
        <time>2021-08-02T08:51:05.380Z</time>
      </trkpt>
      <trkpt lat="47.0483" lon="9.02873">
        <ele>699</ele>
        <time>2021-08-02T08:51:06.380Z</time>
      </trkpt>
      <trkpt lat="47.0483" lon="9.02872">
        <ele>699</ele>
        <time>2021-08-02T08:51:07.380Z</time>
      </trkpt>
      <trkpt lat="47.04831" lon="9.0287">
        <ele>698</ele>
        <time>2021-08-02T08:51:08.379Z</time>
      </trkpt>
      <trkpt lat="47.04831" lon="9.02867">
        <ele>698</ele>
        <time>2021-08-02T08:51:09.379Z</time>
      </trkpt>
      <trkpt lat="47.04831" lon="9.02865">
        <ele>697</ele>
        <time>2021-08-02T08:51:10.380Z</time>
      </trkpt>
      <trkpt lat="47.0483" lon="9.02862">
        <ele>697</ele>
        <time>2021-08-02T08:51:11.380Z</time>
      </trkpt>
      <trkpt lat="47.04829" lon="9.02861">
        <ele>697</ele>
        <time>2021-08-02T08:51:12.379Z</time>
      </trkpt>
      <trkpt lat="47.04829" lon="9.0286">
        <ele>696</ele>
        <time>2021-08-02T08:51:13.380Z</time>
      </trkpt>
      <trkpt lat="47.04828" lon="9.0286">
        <ele>695</ele>
        <time>2021-08-02T08:51:14.379Z</time>
      </trkpt>
      <trkpt lat="47.04827" lon="9.02859">
        <ele>695</ele>
        <time>2021-08-02T08:51:15.380Z</time>
      </trkpt>
      <trkpt lat="47.04827" lon="9.02858">
        <ele>694</ele>
        <time>2021-08-02T08:51:16.380Z</time>
      </trkpt>
      <trkpt lat="47.04827" lon="9.02857">
        <ele>694</ele>
        <time>2021-08-02T08:51:17.380Z</time>
      </trkpt>
      <trkpt lat="47.04826" lon="9.02856">
        <ele>693</ele>
        <time>2021-08-02T08:51:18.379Z</time>
      </trkpt>
      <trkpt lat="47.04826" lon="9.02855">
        <ele>693</ele>
        <time>2021-08-02T08:51:19.380Z</time>
      </trkpt>
      <trkpt lat="47.04826" lon="9.02853">
        <ele>692</ele>
        <time>2021-08-02T08:51:20.379Z</time>
      </trkpt>
      <trkpt lat="47.04826" lon="9.02852">
        <ele>692</ele>
        <time>2021-08-02T08:51:21.380Z</time>
      </trkpt>
      <trkpt lat="47.04826" lon="9.02851">
        <ele>691</ele>
        <time>2021-08-02T08:51:22.380Z</time>
      </trkpt>
      <trkpt lat="47.04826" lon="9.02849">
        <ele>691</ele>
        <time>2021-08-02T08:51:23.379Z</time>
      </trkpt>
      <trkpt lat="47.04825" lon="9.02848">
        <ele>690</ele>
        <time>2021-08-02T08:51:24.380Z</time>
      </trkpt>
      <trkpt lat="47.04825" lon="9.02846">
        <ele>689</ele>
        <time>2021-08-02T08:51:25.380Z</time>
      </trkpt>
      <trkpt lat="47.04824" lon="9.02845">
        <ele>689</ele>
        <time>2021-08-02T08:51:26.380Z</time>
      </trkpt>
      <trkpt lat="47.04824" lon="9.02844">
        <ele>688</ele>
        <time>2021-08-02T08:51:27.379Z</time>
      </trkpt>
      <trkpt lat="47.04824" lon="9.02843">
        <ele>688</ele>
        <time>2021-08-02T08:51:28.380Z</time>
      </trkpt>
      <trkpt lat="47.04824" lon="9.02842">
        <ele>688</ele>
        <time>2021-08-02T08:51:29.379Z</time>
      </trkpt>
      <trkpt lat="47.04823" lon="9.0284">
        <ele>687</ele>
        <time>2021-08-02T08:51:30.380Z</time>
      </trkpt>
      <trkpt lat="47.04822" lon="9.02838">
        <ele>687</ele>
        <time>2021-08-02T08:51:31.379Z</time>
      </trkpt>
      <trkpt lat="47.04822" lon="9.02837">
        <ele>687</ele>
        <time>2021-08-02T08:51:32.380Z</time>
      </trkpt>
      <trkpt lat="47.04822" lon="9.02835">
        <ele>686</ele>
        <time>2021-08-02T08:51:33.380Z</time>
      </trkpt>
      <trkpt lat="47.04821" lon="9.02834">
        <ele>686</ele>
        <time>2021-08-02T08:51:34.379Z</time>
      </trkpt>
      <trkpt lat="47.04821" lon="9.02834">
        <ele>686</ele>
        <time>2021-08-02T08:51:35.380Z</time>
      </trkpt>
      <trkpt lat="47.0482" lon="9.02833">
        <ele>686</ele>
        <time>2021-08-02T08:51:36.380Z</time>
      </trkpt>
      <trkpt lat="47.0482" lon="9.02833">
        <ele>686</ele>
        <time>2021-08-02T08:51:37.380Z</time>
      </trkpt>
      <trkpt lat="47.0482" lon="9.02833">
        <ele>686</ele>
        <time>2021-08-02T08:51:38.380Z</time>
      </trkpt>
      <trkpt lat="47.0482" lon="9.02832">
        <ele>686</ele>
        <time>2021-08-02T08:51:39.380Z</time>
      </trkpt>
      <trkpt lat="47.04819" lon="9.02831">
        <ele>686</ele>
        <time>2021-08-02T08:51:40.379Z</time>
      </trkpt>
      <trkpt lat="47.04819" lon="9.02829">
        <ele>686</ele>
        <time>2021-08-02T08:51:41.380Z</time>
      </trkpt>
      <trkpt lat="47.04819" lon="9.02828">
        <ele>686</ele>
        <time>2021-08-02T08:51:42.379Z</time>
      </trkpt>
      <trkpt lat="47.0482" lon="9.02827">
        <ele>686</ele>
        <time>2021-08-02T08:51:43.379Z</time>
      </trkpt>
      <trkpt lat="47.04819" lon="9.02827">
        <ele>686</ele>
        <time>2021-08-02T08:51:44.380Z</time>
      </trkpt>
      <trkpt lat="47.04819" lon="9.02826">
        <ele>686</ele>
        <time>2021-08-02T08:51:45.380Z</time>
      </trkpt>
      <trkpt lat="47.04819" lon="9.02825">
        <ele>686</ele>
        <time>2021-08-02T08:51:46.380Z</time>
      </trkpt>
      <trkpt lat="47.04818" lon="9.02824">
        <ele>686</ele>
        <time>2021-08-02T08:51:47.380Z</time>
      </trkpt>
      <trkpt lat="47.04818" lon="9.02822">
        <ele>686</ele>
        <time>2021-08-02T08:51:48.380Z</time>
      </trkpt>
      <trkpt lat="47.04817" lon="9.02821">
        <ele>686</ele>
        <time>2021-08-02T08:51:49.380Z</time>
      </trkpt>
      <trkpt lat="47.04815" lon="9.0282">
        <ele>687</ele>
        <time>2021-08-02T08:51:50.380Z</time>
      </trkpt>
      <trkpt lat="47.04814" lon="9.0282">
        <ele>687</ele>
        <time>2021-08-02T08:51:51.380Z</time>
      </trkpt>
      <trkpt lat="47.04813" lon="9.02821">
        <ele>687</ele>
        <time>2021-08-02T08:51:52.379Z</time>
      </trkpt>
      <trkpt lat="47.04813" lon="9.02821">
        <ele>688</ele>
        <time>2021-08-02T08:51:53.379Z</time>
      </trkpt>
      <trkpt lat="47.04811" lon="9.0282">
        <ele>688</ele>
        <time>2021-08-02T08:51:54.380Z</time>
      </trkpt>
      <trkpt lat="47.0481" lon="9.02819">
        <ele>689</ele>
        <time>2021-08-02T08:51:55.380Z</time>
      </trkpt>
      <trkpt lat="47.04809" lon="9.02818">
        <ele>689</ele>
        <time>2021-08-02T08:51:56.380Z</time>
      </trkpt>
      <trkpt lat="47.04809" lon="9.02818">
        <ele>690</ele>
        <time>2021-08-02T08:51:57.380Z</time>
      </trkpt>
      <trkpt lat="47.04808" lon="9.02817">
        <ele>691</ele>
        <time>2021-08-02T08:51:58.380Z</time>
      </trkpt>
      <trkpt lat="47.04808" lon="9.02817">
        <ele>692</ele>
        <time>2021-08-02T08:51:59.380Z</time>
      </trkpt>
      <trkpt lat="47.04807" lon="9.02816">
        <ele>692</ele>
        <time>2021-08-02T08:52:00.380Z</time>
      </trkpt>
      <trkpt lat="47.04807" lon="9.02816">
        <ele>693</ele>
        <time>2021-08-02T08:52:01.380Z</time>
      </trkpt>
      <trkpt lat="47.04807" lon="9.02815">
        <ele>693</ele>
        <time>2021-08-02T08:52:02.379Z</time>
      </trkpt>
      <trkpt lat="47.04806" lon="9.02814">
        <ele>694</ele>
        <time>2021-08-02T08:52:03.380Z</time>
      </trkpt>
      <trkpt lat="47.04805" lon="9.02813">
        <ele>694</ele>
        <time>2021-08-02T08:52:04.380Z</time>
      </trkpt>
      <trkpt lat="47.04805" lon="9.02812">
        <ele>695</ele>
        <time>2021-08-02T08:52:05.380Z</time>
      </trkpt>
      <trkpt lat="47.04804" lon="9.02811">
        <ele>696</ele>
        <time>2021-08-02T08:52:06.380Z</time>
      </trkpt>
      <trkpt lat="47.04803" lon="9.0281">
        <ele>696</ele>
        <time>2021-08-02T08:52:07.379Z</time>
      </trkpt>
      <trkpt lat="47.04801" lon="9.02809">
        <ele>696</ele>
        <time>2021-08-02T08:52:08.379Z</time>
      </trkpt>
      <trkpt lat="47.048" lon="9.02809">
        <ele>697</ele>
        <time>2021-08-02T08:52:09.380Z</time>
      </trkpt>
      <trkpt lat="47.04799" lon="9.02809">
        <ele>697</ele>
        <time>2021-08-02T08:52:10.380Z</time>
      </trkpt>
      <trkpt lat="47.04798" lon="9.02807">
        <ele>699</ele>
        <time>2021-08-02T08:52:11.380Z</time>
      </trkpt>
      <trkpt lat="47.04798" lon="9.02807">
        <ele>700</ele>
        <time>2021-08-02T08:52:12.380Z</time>
      </trkpt>
      <trkpt lat="47.04797" lon="9.02808">
        <ele>700</ele>
        <time>2021-08-02T08:52:13.379Z</time>
      </trkpt>
      <trkpt lat="47.04796" lon="9.02808">
        <ele>701</ele>
        <time>2021-08-02T08:52:14.380Z</time>
      </trkpt>
      <trkpt lat="47.04796" lon="9.02809">
        <ele>702</ele>
        <time>2021-08-02T08:52:15.380Z</time>
      </trkpt>
      <trkpt lat="47.04796" lon="9.02809">
        <ele>703</ele>
        <time>2021-08-02T08:52:16.380Z</time>
      </trkpt>
      <trkpt lat="47.04795" lon="9.0281">
        <ele>703</ele>
        <time>2021-08-02T08:52:17.380Z</time>
      </trkpt>
      <trkpt lat="47.04795" lon="9.0281">
        <ele>703</ele>
        <time>2021-08-02T08:52:18.380Z</time>
      </trkpt>
      <trkpt lat="47.04794" lon="9.02809">
        <ele>703</ele>
        <time>2021-08-02T08:52:19.379Z</time>
      </trkpt>
      <trkpt lat="47.04793" lon="9.02808">
        <ele>702</ele>
        <time>2021-08-02T08:52:20.379Z</time>
      </trkpt>
      <trkpt lat="47.04793" lon="9.02808">
        <ele>702</ele>
        <time>2021-08-02T08:52:21.379Z</time>
      </trkpt>
      <trkpt lat="47.04793" lon="9.02807">
        <ele>702</ele>
        <time>2021-08-02T08:52:22.380Z</time>
      </trkpt>
      <trkpt lat="47.04793" lon="9.02806">
        <ele>701</ele>
        <time>2021-08-02T08:52:23.380Z</time>
      </trkpt>
      <trkpt lat="47.04792" lon="9.02805">
        <ele>701</ele>
        <time>2021-08-02T08:52:24.379Z</time>
      </trkpt>
      <trkpt lat="47.04791" lon="9.02804">
        <ele>701</ele>
        <time>2021-08-02T08:52:25.379Z</time>
      </trkpt>
      <trkpt lat="47.04791" lon="9.02804">
        <ele>701</ele>
        <time>2021-08-02T08:52:26.379Z</time>
      </trkpt>
      <trkpt lat="47.04791" lon="9.02804">
        <ele>701</ele>
        <time>2021-08-02T08:52:27.380Z</time>
      </trkpt>
      <trkpt lat="47.04791" lon="9.02803">
        <ele>701</ele>
        <time>2021-08-02T08:52:28.379Z</time>
      </trkpt>
      <trkpt lat="47.0479" lon="9.02802">
        <ele>701</ele>
        <time>2021-08-02T08:52:29.380Z</time>
      </trkpt>
      <trkpt lat="47.04789" lon="9.028">
        <ele>701</ele>
        <time>2021-08-02T08:52:30.380Z</time>
      </trkpt>
      <trkpt lat="47.04788" lon="9.02799">
        <ele>701</ele>
        <time>2021-08-02T08:52:31.380Z</time>
      </trkpt>
      <trkpt lat="47.04788" lon="9.02798">
        <ele>701</ele>
        <time>2021-08-02T08:52:32.380Z</time>
      </trkpt>
      <trkpt lat="47.04788" lon="9.02797">
        <ele>702</ele>
        <time>2021-08-02T08:52:33.380Z</time>
      </trkpt>
      <trkpt lat="47.04788" lon="9.02796">
        <ele>702</ele>
        <time>2021-08-02T08:52:34.380Z</time>
      </trkpt>
      <trkpt lat="47.04788" lon="9.02795">
        <ele>702</ele>
        <time>2021-08-02T08:52:35.380Z</time>
      </trkpt>
      <trkpt lat="47.04787" lon="9.02795">
        <ele>702</ele>
        <time>2021-08-02T08:52:36.380Z</time>
      </trkpt>
      <trkpt lat="47.04787" lon="9.02794">
        <ele>702</ele>
        <time>2021-08-02T08:52:37.380Z</time>
      </trkpt>
      <trkpt lat="47.04787" lon="9.02794">
        <ele>703</ele>
        <time>2021-08-02T08:52:38.380Z</time>
      </trkpt>
      <trkpt lat="47.04785" lon="9.02793">
        <ele>703</ele>
        <time>2021-08-02T08:52:39.380Z</time>
      </trkpt>
      <trkpt lat="47.04783" lon="9.02792">
        <ele>704</ele>
        <time>2021-08-02T08:52:40.380Z</time>
      </trkpt>
      <trkpt lat="47.04783" lon="9.02791">
        <ele>704</ele>
        <time>2021-08-02T08:52:41.379Z</time>
      </trkpt>
      <trkpt lat="47.04783" lon="9.02791">
        <ele>704</ele>
        <time>2021-08-02T08:52:42.379Z</time>
      </trkpt>
      <trkpt lat="47.04783" lon="9.02789">
        <ele>704</ele>
        <time>2021-08-02T08:52:43.380Z</time>
      </trkpt>
      <trkpt lat="47.04782" lon="9.02789">
        <ele>703</ele>
        <time>2021-08-02T08:52:44.380Z</time>
      </trkpt>
      <trkpt lat="47.04782" lon="9.02788">
        <ele>703</ele>
        <time>2021-08-02T08:52:45.379Z</time>
      </trkpt>
      <trkpt lat="47.04782" lon="9.02787">
        <ele>703</ele>
        <time>2021-08-02T08:52:46.380Z</time>
      </trkpt>
      <trkpt lat="47.04781" lon="9.02786">
        <ele>702</ele>
        <time>2021-08-02T08:52:47.380Z</time>
      </trkpt>
      <trkpt lat="47.04781" lon="9.02785">
        <ele>702</ele>
        <time>2021-08-02T08:52:48.380Z</time>
      </trkpt>
      <trkpt lat="47.0478" lon="9.02784">
        <ele>701</ele>
        <time>2021-08-02T08:52:49.380Z</time>
      </trkpt>
      <trkpt lat="47.0478" lon="9.02783">
        <ele>700</ele>
        <time>2021-08-02T08:52:50.380Z</time>
      </trkpt>
      <trkpt lat="47.0478" lon="9.02781">
        <ele>700</ele>
        <time>2021-08-02T08:52:51.380Z</time>
      </trkpt>
      <trkpt lat="47.0478" lon="9.0278">
        <ele>699</ele>
        <time>2021-08-02T08:52:52.380Z</time>
      </trkpt>
      <trkpt lat="47.04779" lon="9.02779">
        <ele>699</ele>
        <time>2021-08-02T08:52:53.380Z</time>
      </trkpt>
      <trkpt lat="47.04779" lon="9.02778">
        <ele>699</ele>
        <time>2021-08-02T08:52:54.380Z</time>
      </trkpt>
      <trkpt lat="47.04779" lon="9.02777">
        <ele>699</ele>
        <time>2021-08-02T08:52:55.380Z</time>
      </trkpt>
      <trkpt lat="47.04779" lon="9.02776">
        <ele>699</ele>
        <time>2021-08-02T08:52:56.380Z</time>
      </trkpt>
      <trkpt lat="47.04779" lon="9.02775">
        <ele>699</ele>
        <time>2021-08-02T08:52:57.380Z</time>
      </trkpt>
      <trkpt lat="47.04779" lon="9.02773">
        <ele>699</ele>
        <time>2021-08-02T08:52:58.379Z</time>
      </trkpt>
      <trkpt lat="47.04778" lon="9.02772">
        <ele>699</ele>
        <time>2021-08-02T08:52:59.379Z</time>
      </trkpt>
      <trkpt lat="47.04778" lon="9.02771">
        <ele>700</ele>
        <time>2021-08-02T08:53:00.380Z</time>
      </trkpt>
      <trkpt lat="47.04776" lon="9.02769">
        <ele>700</ele>
        <time>2021-08-02T08:53:01.380Z</time>
      </trkpt>
      <trkpt lat="47.04775" lon="9.02768">
        <ele>700</ele>
        <time>2021-08-02T08:53:02.380Z</time>
      </trkpt>
      <trkpt lat="47.04774" lon="9.02768">
        <ele>700</ele>
        <time>2021-08-02T08:53:03.380Z</time>
      </trkpt>
      <trkpt lat="47.04774" lon="9.02767">
        <ele>701</ele>
        <time>2021-08-02T08:53:04.380Z</time>
      </trkpt>
      <trkpt lat="47.04774" lon="9.02766">
        <ele>701</ele>
        <time>2021-08-02T08:53:05.380Z</time>
      </trkpt>
      <trkpt lat="47.04773" lon="9.02765">
        <ele>701</ele>
        <time>2021-08-02T08:53:06.380Z</time>
      </trkpt>
      <trkpt lat="47.04772" lon="9.02764">
        <ele>701</ele>
        <time>2021-08-02T08:53:07.380Z</time>
      </trkpt>
      <trkpt lat="47.04772" lon="9.02764">
        <ele>701</ele>
        <time>2021-08-02T08:53:08.379Z</time>
      </trkpt>
      <trkpt lat="47.04771" lon="9.02763">
        <ele>700</ele>
        <time>2021-08-02T08:53:09.380Z</time>
      </trkpt>
      <trkpt lat="47.0477" lon="9.02762">
        <ele>700</ele>
        <time>2021-08-02T08:53:10.380Z</time>
      </trkpt>
      <trkpt lat="47.0477" lon="9.02761">
        <ele>700</ele>
        <time>2021-08-02T08:53:11.379Z</time>
      </trkpt>
      <trkpt lat="47.04769" lon="9.0276">
        <ele>700</ele>
        <time>2021-08-02T08:53:12.380Z</time>
      </trkpt>
      <trkpt lat="47.04769" lon="9.0276">
        <ele>699</ele>
        <time>2021-08-02T08:53:13.380Z</time>
      </trkpt>
      <trkpt lat="47.04769" lon="9.02759">
        <ele>699</ele>
        <time>2021-08-02T08:53:14.380Z</time>
      </trkpt>
      <trkpt lat="47.04769" lon="9.02759">
        <ele>698</ele>
        <time>2021-08-02T08:53:15.380Z</time>
      </trkpt>
      <trkpt lat="47.0477" lon="9.02759">
        <ele>697</ele>
        <time>2021-08-02T08:53:16.380Z</time>
      </trkpt>
      <trkpt lat="47.0477" lon="9.02758">
        <ele>697</ele>
        <time>2021-08-02T08:53:17.380Z</time>
      </trkpt>
      <trkpt lat="47.0477" lon="9.02757">
        <ele>696</ele>
        <time>2021-08-02T08:53:18.380Z</time>
      </trkpt>
      <trkpt lat="47.0477" lon="9.02756">
        <ele>696</ele>
        <time>2021-08-02T08:53:19.380Z</time>
      </trkpt>
      <trkpt lat="47.04769" lon="9.02755">
        <ele>696</ele>
        <time>2021-08-02T08:53:20.380Z</time>
      </trkpt>
      <trkpt lat="47.0477" lon="9.02754">
        <ele>695</ele>
        <time>2021-08-02T08:53:21.380Z</time>
      </trkpt>
      <trkpt lat="47.0477" lon="9.02753">
        <ele>695</ele>
        <time>2021-08-02T08:53:22.380Z</time>
      </trkpt>
      <trkpt lat="47.0477" lon="9.02752">
        <ele>694</ele>
        <time>2021-08-02T08:53:23.380Z</time>
      </trkpt>
      <trkpt lat="47.04769" lon="9.02752">
        <ele>694</ele>
        <time>2021-08-02T08:53:24.380Z</time>
      </trkpt>
      <trkpt lat="47.04768" lon="9.02751">
        <ele>693</ele>
        <time>2021-08-02T08:53:25.380Z</time>
      </trkpt>
      <trkpt lat="47.04767" lon="9.02752">
        <ele>693</ele>
        <time>2021-08-02T08:53:26.379Z</time>
      </trkpt>
      <trkpt lat="47.04767" lon="9.0275">
        <ele>693</ele>
        <time>2021-08-02T08:53:27.380Z</time>
      </trkpt>
      <trkpt lat="47.04767" lon="9.02749">
        <ele>692</ele>
        <time>2021-08-02T08:53:28.380Z</time>
      </trkpt>
      <trkpt lat="47.04767" lon="9.02747">
        <ele>692</ele>
        <time>2021-08-02T08:53:29.379Z</time>
      </trkpt>
      <trkpt lat="47.04767" lon="9.02746">
        <ele>691</ele>
        <time>2021-08-02T08:53:30.379Z</time>
      </trkpt>
      <trkpt lat="47.04767" lon="9.02745">
        <ele>691</ele>
        <time>2021-08-02T08:53:31.380Z</time>
      </trkpt>
      <trkpt lat="47.04768" lon="9.02744">
        <ele>690</ele>
        <time>2021-08-02T08:53:32.379Z</time>
      </trkpt>
      <trkpt lat="47.04768" lon="9.02743">
        <ele>690</ele>
        <time>2021-08-02T08:53:33.380Z</time>
      </trkpt>
      <trkpt lat="47.04768" lon="9.02741">
        <ele>690</ele>
        <time>2021-08-02T08:53:34.379Z</time>
      </trkpt>
      <trkpt lat="47.04767" lon="9.02741">
        <ele>690</ele>
        <time>2021-08-02T08:53:35.379Z</time>
      </trkpt>
      <trkpt lat="47.04766" lon="9.02739">
        <ele>690</ele>
        <time>2021-08-02T08:53:36.380Z</time>
      </trkpt>
      <trkpt lat="47.04765" lon="9.02738">
        <ele>689</ele>
        <time>2021-08-02T08:53:37.380Z</time>
      </trkpt>
      <trkpt lat="47.04765" lon="9.02736">
        <ele>689</ele>
        <time>2021-08-02T08:53:38.380Z</time>
      </trkpt>
      <trkpt lat="47.04764" lon="9.02735">
        <ele>689</ele>
        <time>2021-08-02T08:53:39.380Z</time>
      </trkpt>
      <trkpt lat="47.04764" lon="9.02733">
        <ele>689</ele>
        <time>2021-08-02T08:53:40.379Z</time>
      </trkpt>
      <trkpt lat="47.04764" lon="9.02733">
        <ele>689</ele>
        <time>2021-08-02T08:53:41.379Z</time>
      </trkpt>
      <trkpt lat="47.04765" lon="9.02732">
        <ele>689</ele>
        <time>2021-08-02T08:53:42.380Z</time>
      </trkpt>
      <trkpt lat="47.04764" lon="9.02731">
        <ele>689</ele>
        <time>2021-08-02T08:53:43.380Z</time>
      </trkpt>
      <trkpt lat="47.04764" lon="9.0273">
        <ele>689</ele>
        <time>2021-08-02T08:53:44.380Z</time>
      </trkpt>
      <trkpt lat="47.04764" lon="9.0273">
        <ele>689</ele>
        <time>2021-08-02T08:53:45.379Z</time>
      </trkpt>
      <trkpt lat="47.04763" lon="9.02729">
        <ele>689</ele>
        <time>2021-08-02T08:53:46.380Z</time>
      </trkpt>
      <trkpt lat="47.04763" lon="9.02728">
        <ele>689</ele>
        <time>2021-08-02T08:53:47.380Z</time>
      </trkpt>
      <trkpt lat="47.04762" lon="9.02726">
        <ele>690</ele>
        <time>2021-08-02T08:53:48.380Z</time>
      </trkpt>
      <trkpt lat="47.04762" lon="9.02725">
        <ele>690</ele>
        <time>2021-08-02T08:53:49.380Z</time>
      </trkpt>
      <trkpt lat="47.04762" lon="9.02723">
        <ele>690</ele>
        <time>2021-08-02T08:53:50.380Z</time>
      </trkpt>
      <trkpt lat="47.04761" lon="9.02722">
        <ele>690</ele>
        <time>2021-08-02T08:53:51.380Z</time>
      </trkpt>
      <trkpt lat="47.0476" lon="9.02721">
        <ele>690</ele>
        <time>2021-08-02T08:53:52.380Z</time>
      </trkpt>
      <trkpt lat="47.0476" lon="9.02719">
        <ele>690</ele>
        <time>2021-08-02T08:53:53.380Z</time>
      </trkpt>
      <trkpt lat="47.04759" lon="9.02718">
        <ele>690</ele>
        <time>2021-08-02T08:53:54.380Z</time>
      </trkpt>
      <trkpt lat="47.04758" lon="9.02716">
        <ele>690</ele>
        <time>2021-08-02T08:53:55.380Z</time>
      </trkpt>
      <trkpt lat="47.04757" lon="9.02714">
        <ele>690</ele>
        <time>2021-08-02T08:53:56.380Z</time>
      </trkpt>
      <trkpt lat="47.04756" lon="9.02712">
        <ele>690</ele>
        <time>2021-08-02T08:53:57.380Z</time>
      </trkpt>
      <trkpt lat="47.04755" lon="9.02709">
        <ele>691</ele>
        <time>2021-08-02T08:53:58.379Z</time>
      </trkpt>
      <trkpt lat="47.04754" lon="9.02707">
        <ele>691</ele>
        <time>2021-08-02T08:53:59.379Z</time>
      </trkpt>
      <trkpt lat="47.04754" lon="9.02706">
        <ele>691</ele>
        <time>2021-08-02T08:54:00.380Z</time>
      </trkpt>
      <trkpt lat="47.04753" lon="9.02705">
        <ele>691</ele>
        <time>2021-08-02T08:54:01.380Z</time>
      </trkpt>
      <trkpt lat="47.04752" lon="9.02704">
        <ele>691</ele>
        <time>2021-08-02T08:54:02.380Z</time>
      </trkpt>
      <trkpt lat="47.04751" lon="9.02702">
        <ele>691</ele>
        <time>2021-08-02T08:54:03.380Z</time>
      </trkpt>
      <trkpt lat="47.0475" lon="9.02702">
        <ele>691</ele>
        <time>2021-08-02T08:54:04.380Z</time>
      </trkpt>
      <trkpt lat="47.04749" lon="9.02702">
        <ele>691</ele>
        <time>2021-08-02T08:54:05.380Z</time>
      </trkpt>
      <trkpt lat="47.04749" lon="9.02701">
        <ele>691</ele>
        <time>2021-08-02T08:54:06.380Z</time>
      </trkpt>
      <trkpt lat="47.04748" lon="9.02699">
        <ele>691</ele>
        <time>2021-08-02T08:54:07.380Z</time>
      </trkpt>
      <trkpt lat="47.04747" lon="9.02698">
        <ele>691</ele>
        <time>2021-08-02T08:54:08.380Z</time>
      </trkpt>
      <trkpt lat="47.04747" lon="9.02697">
        <ele>692</ele>
        <time>2021-08-02T08:54:09.380Z</time>
      </trkpt>
      <trkpt lat="47.04747" lon="9.02694">
        <ele>692</ele>
        <time>2021-08-02T08:54:10.380Z</time>
      </trkpt>
      <trkpt lat="47.04747" lon="9.02691">
        <ele>692</ele>
        <time>2021-08-02T08:54:11.380Z</time>
      </trkpt>
      <trkpt lat="47.04747" lon="9.02689">
        <ele>693</ele>
        <time>2021-08-02T08:54:12.379Z</time>
      </trkpt>
      <trkpt lat="47.04747" lon="9.02686">
        <ele>693</ele>
        <time>2021-08-02T08:54:13.379Z</time>
      </trkpt>
      <trkpt lat="47.04746" lon="9.02684">
        <ele>693</ele>
        <time>2021-08-02T08:54:14.380Z</time>
      </trkpt>
      <trkpt lat="47.04746" lon="9.02682">
        <ele>694</ele>
        <time>2021-08-02T08:54:15.380Z</time>
      </trkpt>
      <trkpt lat="47.04745" lon="9.0268">
        <ele>694</ele>
        <time>2021-08-02T08:54:16.379Z</time>
      </trkpt>
      <trkpt lat="47.04744" lon="9.02679">
        <ele>695</ele>
        <time>2021-08-02T08:54:17.380Z</time>
      </trkpt>
      <trkpt lat="47.04745" lon="9.02678">
        <ele>695</ele>
        <time>2021-08-02T08:54:18.380Z</time>
      </trkpt>
      <trkpt lat="47.04745" lon="9.02677">
        <ele>695</ele>
        <time>2021-08-02T08:54:19.380Z</time>
      </trkpt>
      <trkpt lat="47.04745" lon="9.02676">
        <ele>696</ele>
        <time>2021-08-02T08:54:20.380Z</time>
      </trkpt>
      <trkpt lat="47.04745" lon="9.02674">
        <ele>697</ele>
        <time>2021-08-02T08:54:21.379Z</time>
      </trkpt>
      <trkpt lat="47.04744" lon="9.02673">
        <ele>697</ele>
        <time>2021-08-02T08:54:22.379Z</time>
      </trkpt>
      <trkpt lat="47.04744" lon="9.02673">
        <ele>698</ele>
        <time>2021-08-02T08:54:23.380Z</time>
      </trkpt>
      <trkpt lat="47.04743" lon="9.02672">
        <ele>698</ele>
        <time>2021-08-02T08:54:24.379Z</time>
      </trkpt>
      <trkpt lat="47.04742" lon="9.02671">
        <ele>699</ele>
        <time>2021-08-02T08:54:25.380Z</time>
      </trkpt>
      <trkpt lat="47.0474" lon="9.0267">
        <ele>699</ele>
        <time>2021-08-02T08:54:26.380Z</time>
      </trkpt>
      <trkpt lat="47.0474" lon="9.0267">
        <ele>700</ele>
        <time>2021-08-02T08:54:27.380Z</time>
      </trkpt>
      <trkpt lat="47.04739" lon="9.0267">
        <ele>701</ele>
        <time>2021-08-02T08:54:28.380Z</time>
      </trkpt>
      <trkpt lat="47.04739" lon="9.02669">
        <ele>702</ele>
        <time>2021-08-02T08:54:29.379Z</time>
      </trkpt>
      <trkpt lat="47.04739" lon="9.02668">
        <ele>703</ele>
        <time>2021-08-02T08:54:30.379Z</time>
      </trkpt>
      <trkpt lat="47.04738" lon="9.02666">
        <ele>704</ele>
        <time>2021-08-02T08:54:31.380Z</time>
      </trkpt>
      <trkpt lat="47.04736" lon="9.02666">
        <ele>705</ele>
        <time>2021-08-02T08:54:32.380Z</time>
      </trkpt>
      <trkpt lat="47.04735" lon="9.02665">
        <ele>706</ele>
        <time>2021-08-02T08:54:33.380Z</time>
      </trkpt>
      <trkpt lat="47.04735" lon="9.02664">
        <ele>706</ele>
        <time>2021-08-02T08:54:34.379Z</time>
      </trkpt>
      <trkpt lat="47.04734" lon="9.02663">
        <ele>707</ele>
        <time>2021-08-02T08:54:35.380Z</time>
      </trkpt>
      <trkpt lat="47.04733" lon="9.02661">
        <ele>708</ele>
        <time>2021-08-02T08:54:36.380Z</time>
      </trkpt>
      <trkpt lat="47.04732" lon="9.02659">
        <ele>709</ele>
        <time>2021-08-02T08:54:37.379Z</time>
      </trkpt>
      <trkpt lat="47.04731" lon="9.02657">
        <ele>709</ele>
        <time>2021-08-02T08:54:38.380Z</time>
      </trkpt>
      <trkpt lat="47.0473" lon="9.02655">
        <ele>710</ele>
        <time>2021-08-02T08:54:39.380Z</time>
      </trkpt>
      <trkpt lat="47.04729" lon="9.02654">
        <ele>710</ele>
        <time>2021-08-02T08:54:40.380Z</time>
      </trkpt>
      <trkpt lat="47.04728" lon="9.02655">
        <ele>711</ele>
        <time>2021-08-02T08:54:41.380Z</time>
      </trkpt>
      <trkpt lat="47.04727" lon="9.02656">
        <ele>712</ele>
        <time>2021-08-02T08:54:42.380Z</time>
      </trkpt>
      <trkpt lat="47.04727" lon="9.02654">
        <ele>713</ele>
        <time>2021-08-02T08:54:43.379Z</time>
      </trkpt>
      <trkpt lat="47.04725" lon="9.02653">
        <ele>713</ele>
        <time>2021-08-02T08:54:44.380Z</time>
      </trkpt>
      <trkpt lat="47.04724" lon="9.02651">
        <ele>714</ele>
        <time>2021-08-02T08:54:45.380Z</time>
      </trkpt>
      <trkpt lat="47.04723" lon="9.0265">
        <ele>714</ele>
        <time>2021-08-02T08:54:46.380Z</time>
      </trkpt>
      <trkpt lat="47.04723" lon="9.02648">
        <ele>715</ele>
        <time>2021-08-02T08:54:47.380Z</time>
      </trkpt>
      <trkpt lat="47.04722" lon="9.02647">
        <ele>716</ele>
        <time>2021-08-02T08:54:48.380Z</time>
      </trkpt>
      <trkpt lat="47.04722" lon="9.02645">
        <ele>716</ele>
        <time>2021-08-02T08:54:49.379Z</time>
      </trkpt>
      <trkpt lat="47.04722" lon="9.02644">
        <ele>717</ele>
        <time>2021-08-02T08:54:50.379Z</time>
      </trkpt>
      <trkpt lat="47.04721" lon="9.02643">
        <ele>717</ele>
        <time>2021-08-02T08:54:51.380Z</time>
      </trkpt>
      <trkpt lat="47.0472" lon="9.02643">
        <ele>717</ele>
        <time>2021-08-02T08:54:52.379Z</time>
      </trkpt>
      <trkpt lat="47.04719" lon="9.02642">
        <ele>718</ele>
        <time>2021-08-02T08:54:53.379Z</time>
      </trkpt>
      <trkpt lat="47.04718" lon="9.02641">
        <ele>718</ele>
        <time>2021-08-02T08:54:54.380Z</time>
      </trkpt>
      <trkpt lat="47.04717" lon="9.0264">
        <ele>718</ele>
        <time>2021-08-02T08:54:55.379Z</time>
      </trkpt>
      <trkpt lat="47.04716" lon="9.02639">
        <ele>719</ele>
        <time>2021-08-02T08:54:56.379Z</time>
      </trkpt>
      <trkpt lat="47.04716" lon="9.02639">
        <ele>719</ele>
        <time>2021-08-02T08:54:57.380Z</time>
      </trkpt>
      <trkpt lat="47.04716" lon="9.02638">
        <ele>719</ele>
        <time>2021-08-02T08:54:58.379Z</time>
      </trkpt>
      <trkpt lat="47.04716" lon="9.02637">
        <ele>720</ele>
        <time>2021-08-02T08:54:59.380Z</time>
      </trkpt>
      <trkpt lat="47.04716" lon="9.02636">
        <ele>720</ele>
        <time>2021-08-02T08:55:00.380Z</time>
      </trkpt>
      <trkpt lat="47.04715" lon="9.02635">
        <ele>720</ele>
        <time>2021-08-02T08:55:01.380Z</time>
      </trkpt>
      <trkpt lat="47.04714" lon="9.02634">
        <ele>720</ele>
        <time>2021-08-02T08:55:02.379Z</time>
      </trkpt>
      <trkpt lat="47.04714" lon="9.02633">
        <ele>720</ele>
        <time>2021-08-02T08:55:03.380Z</time>
      </trkpt>
      <trkpt lat="47.04713" lon="9.02631">
        <ele>720</ele>
        <time>2021-08-02T08:55:04.379Z</time>
      </trkpt>
      <trkpt lat="47.04713" lon="9.0263">
        <ele>720</ele>
        <time>2021-08-02T08:55:05.380Z</time>
      </trkpt>
      <trkpt lat="47.04713" lon="9.02631">
        <ele>720</ele>
        <time>2021-08-02T08:55:06.379Z</time>
      </trkpt>
      <trkpt lat="47.04712" lon="9.02631">
        <ele>721</ele>
        <time>2021-08-02T08:55:07.380Z</time>
      </trkpt>
      <trkpt lat="47.04712" lon="9.02629">
        <ele>720</ele>
        <time>2021-08-02T08:55:08.379Z</time>
      </trkpt>
      <trkpt lat="47.04711" lon="9.02628">
        <ele>720</ele>
        <time>2021-08-02T08:55:09.380Z</time>
      </trkpt>
      <trkpt lat="47.04711" lon="9.02628">
        <ele>720</ele>
        <time>2021-08-02T08:55:10.380Z</time>
      </trkpt>
      <trkpt lat="47.0471" lon="9.02626">
        <ele>720</ele>
        <time>2021-08-02T08:55:11.379Z</time>
      </trkpt>
      <trkpt lat="47.0471" lon="9.02625">
        <ele>719</ele>
        <time>2021-08-02T08:55:12.380Z</time>
      </trkpt>
      <trkpt lat="47.0471" lon="9.02624">
        <ele>718</ele>
        <time>2021-08-02T08:55:13.380Z</time>
      </trkpt>
      <trkpt lat="47.04711" lon="9.02622">
        <ele>718</ele>
        <time>2021-08-02T08:55:14.380Z</time>
      </trkpt>
      <trkpt lat="47.04711" lon="9.02621">
        <ele>717</ele>
        <time>2021-08-02T08:55:15.380Z</time>
      </trkpt>
      <trkpt lat="47.04711" lon="9.02619">
        <ele>716</ele>
        <time>2021-08-02T08:55:16.380Z</time>
      </trkpt>
      <trkpt lat="47.04711" lon="9.02617">
        <ele>715</ele>
        <time>2021-08-02T08:55:17.379Z</time>
      </trkpt>
      <trkpt lat="47.0471" lon="9.02616">
        <ele>714</ele>
        <time>2021-08-02T08:55:18.379Z</time>
      </trkpt>
      <trkpt lat="47.0471" lon="9.02614">
        <ele>713</ele>
        <time>2021-08-02T08:55:19.380Z</time>
      </trkpt>
      <trkpt lat="47.0471" lon="9.02612">
        <ele>713</ele>
        <time>2021-08-02T08:55:20.380Z</time>
      </trkpt>
      <trkpt lat="47.04709" lon="9.02611">
        <ele>712</ele>
        <time>2021-08-02T08:55:21.380Z</time>
      </trkpt>
      <trkpt lat="47.04709" lon="9.0261">
        <ele>711</ele>
        <time>2021-08-02T08:55:22.380Z</time>
      </trkpt>
      <trkpt lat="47.04708" lon="9.02609">
        <ele>710</ele>
        <time>2021-08-02T08:55:23.380Z</time>
      </trkpt>
      <trkpt lat="47.04707" lon="9.02607">
        <ele>708</ele>
        <time>2021-08-02T08:55:24.380Z</time>
      </trkpt>
      <trkpt lat="47.04707" lon="9.02606">
        <ele>706</ele>
        <time>2021-08-02T08:55:25.379Z</time>
      </trkpt>
      <trkpt lat="47.04707" lon="9.02605">
        <ele>705</ele>
        <time>2021-08-02T08:55:26.380Z</time>
      </trkpt>
      <trkpt lat="47.04706" lon="9.02603">
        <ele>703</ele>
        <time>2021-08-02T08:55:27.380Z</time>
      </trkpt>
      <trkpt lat="47.04706" lon="9.02602">
        <ele>701</ele>
        <time>2021-08-02T08:55:28.380Z</time>
      </trkpt>
      <trkpt lat="47.04705" lon="9.026">
        <ele>700</ele>
        <time>2021-08-02T08:55:29.380Z</time>
      </trkpt>
      <trkpt lat="47.04704" lon="9.02599">
        <ele>699</ele>
        <time>2021-08-02T08:55:30.379Z</time>
      </trkpt>
      <trkpt lat="47.04703" lon="9.02599">
        <ele>698</ele>
        <time>2021-08-02T08:55:31.380Z</time>
      </trkpt>
      <trkpt lat="47.04702" lon="9.02598">
        <ele>697</ele>
        <time>2021-08-02T08:55:32.380Z</time>
      </trkpt>
      <trkpt lat="47.04702" lon="9.02596">
        <ele>696</ele>
        <time>2021-08-02T08:55:33.379Z</time>
      </trkpt>
      <trkpt lat="47.04701" lon="9.02595">
        <ele>696</ele>
        <time>2021-08-02T08:55:34.380Z</time>
      </trkpt>
      <trkpt lat="47.047" lon="9.02593">
        <ele>695</ele>
        <time>2021-08-02T08:55:35.379Z</time>
      </trkpt>
      <trkpt lat="47.04698" lon="9.02591">
        <ele>695</ele>
        <time>2021-08-02T08:55:36.380Z</time>
      </trkpt>
      <trkpt lat="47.04697" lon="9.0259">
        <ele>694</ele>
        <time>2021-08-02T08:55:37.379Z</time>
      </trkpt>
      <trkpt lat="47.04696" lon="9.02588">
        <ele>694</ele>
        <time>2021-08-02T08:55:38.379Z</time>
      </trkpt>
      <trkpt lat="47.04695" lon="9.02587">
        <ele>694</ele>
        <time>2021-08-02T08:55:39.380Z</time>
      </trkpt>
      <trkpt lat="47.04695" lon="9.02586">
        <ele>694</ele>
        <time>2021-08-02T08:55:40.380Z</time>
      </trkpt>
      <trkpt lat="47.04695" lon="9.02584">
        <ele>694</ele>
        <time>2021-08-02T08:55:41.380Z</time>
      </trkpt>
      <trkpt lat="47.04695" lon="9.02583">
        <ele>693</ele>
        <time>2021-08-02T08:55:42.380Z</time>
      </trkpt>
      <trkpt lat="47.04694" lon="9.02581">
        <ele>693</ele>
        <time>2021-08-02T08:55:43.379Z</time>
      </trkpt>
      <trkpt lat="47.04694" lon="9.0258">
        <ele>692</ele>
        <time>2021-08-02T08:55:44.379Z</time>
      </trkpt>
      <trkpt lat="47.04694" lon="9.02578">
        <ele>691</ele>
        <time>2021-08-02T08:55:45.379Z</time>
      </trkpt>
      <trkpt lat="47.04693" lon="9.02577">
        <ele>690</ele>
        <time>2021-08-02T08:55:46.380Z</time>
      </trkpt>
      <trkpt lat="47.04693" lon="9.02576">
        <ele>689</ele>
        <time>2021-08-02T08:55:47.379Z</time>
      </trkpt>
      <trkpt lat="47.04693" lon="9.02575">
        <ele>688</ele>
        <time>2021-08-02T08:55:48.380Z</time>
      </trkpt>
      <trkpt lat="47.04692" lon="9.02573">
        <ele>687</ele>
        <time>2021-08-02T08:55:49.380Z</time>
      </trkpt>
      <trkpt lat="47.04692" lon="9.02572">
        <ele>686</ele>
        <time>2021-08-02T08:55:50.379Z</time>
      </trkpt>
      <trkpt lat="47.04691" lon="9.0257">
        <ele>686</ele>
        <time>2021-08-02T08:55:51.380Z</time>
      </trkpt>
      <trkpt lat="47.0469" lon="9.02568">
        <ele>686</ele>
        <time>2021-08-02T08:55:52.380Z</time>
      </trkpt>
      <trkpt lat="47.04689" lon="9.02565">
        <ele>686</ele>
        <time>2021-08-02T08:55:53.379Z</time>
      </trkpt>
      <trkpt lat="47.04689" lon="9.02563">
        <ele>686</ele>
        <time>2021-08-02T08:55:54.380Z</time>
      </trkpt>
      <trkpt lat="47.04689" lon="9.02562">
        <ele>686</ele>
        <time>2021-08-02T08:55:55.380Z</time>
      </trkpt>
      <trkpt lat="47.04689" lon="9.0256">
        <ele>686</ele>
        <time>2021-08-02T08:55:56.380Z</time>
      </trkpt>
      <trkpt lat="47.04689" lon="9.02558">
        <ele>687</ele>
        <time>2021-08-02T08:55:57.380Z</time>
      </trkpt>
      <trkpt lat="47.04688" lon="9.02556">
        <ele>687</ele>
        <time>2021-08-02T08:55:58.379Z</time>
      </trkpt>
      <trkpt lat="47.04688" lon="9.02555">
        <ele>687</ele>
        <time>2021-08-02T08:55:59.380Z</time>
      </trkpt>
      <trkpt lat="47.04688" lon="9.02553">
        <ele>687</ele>
        <time>2021-08-02T08:56:00.380Z</time>
      </trkpt>
      <trkpt lat="47.04688" lon="9.02551">
        <ele>688</ele>
        <time>2021-08-02T08:56:01.380Z</time>
      </trkpt>
      <trkpt lat="47.04688" lon="9.0255">
        <ele>688</ele>
        <time>2021-08-02T08:56:02.380Z</time>
      </trkpt>
      <trkpt lat="47.04688" lon="9.02549">
        <ele>689</ele>
        <time>2021-08-02T08:56:03.380Z</time>
      </trkpt>
      <trkpt lat="47.04687" lon="9.02547">
        <ele>689</ele>
        <time>2021-08-02T08:56:04.379Z</time>
      </trkpt>
      <trkpt lat="47.04687" lon="9.02546">
        <ele>690</ele>
        <time>2021-08-02T08:56:05.380Z</time>
      </trkpt>
      <trkpt lat="47.04687" lon="9.02544">
        <ele>690</ele>
        <time>2021-08-02T08:56:06.380Z</time>
      </trkpt>
      <trkpt lat="47.04687" lon="9.02542">
        <ele>690</ele>
        <time>2021-08-02T08:56:07.380Z</time>
      </trkpt>
      <trkpt lat="47.04686" lon="9.0254">
        <ele>690</ele>
        <time>2021-08-02T08:56:08.380Z</time>
      </trkpt>
      <trkpt lat="47.04686" lon="9.02539">
        <ele>691</ele>
        <time>2021-08-02T08:56:09.380Z</time>
      </trkpt>
      <trkpt lat="47.04686" lon="9.02537">
        <ele>691</ele>
        <time>2021-08-02T08:56:10.380Z</time>
      </trkpt>
      <trkpt lat="47.04686" lon="9.02536">
        <ele>691</ele>
        <time>2021-08-02T08:56:11.380Z</time>
      </trkpt>
      <trkpt lat="47.04686" lon="9.02535">
        <ele>692</ele>
        <time>2021-08-02T08:56:12.380Z</time>
      </trkpt>
      <trkpt lat="47.04686" lon="9.02534">
        <ele>692</ele>
        <time>2021-08-02T08:56:13.379Z</time>
      </trkpt>
      <trkpt lat="47.04685" lon="9.02532">
        <ele>692</ele>
        <time>2021-08-02T08:56:14.379Z</time>
      </trkpt>
      <trkpt lat="47.04684" lon="9.02531">
        <ele>693</ele>
        <time>2021-08-02T08:56:15.379Z</time>
      </trkpt>
      <trkpt lat="47.04683" lon="9.02529">
        <ele>693</ele>
        <time>2021-08-02T08:56:16.379Z</time>
      </trkpt>
      <trkpt lat="47.04682" lon="9.02527">
        <ele>693</ele>
        <time>2021-08-02T08:56:17.379Z</time>
      </trkpt>
      <trkpt lat="47.04681" lon="9.02525">
        <ele>693</ele>
        <time>2021-08-02T08:56:18.380Z</time>
      </trkpt>
      <trkpt lat="47.0468" lon="9.02523">
        <ele>693</ele>
        <time>2021-08-02T08:56:19.380Z</time>
      </trkpt>
      <trkpt lat="47.04679" lon="9.02521">
        <ele>693</ele>
        <time>2021-08-02T08:56:20.380Z</time>
      </trkpt>
      <trkpt lat="47.04678" lon="9.02519">
        <ele>693</ele>
        <time>2021-08-02T08:56:21.380Z</time>
      </trkpt>
      <trkpt lat="47.04677" lon="9.02518">
        <ele>693</ele>
        <time>2021-08-02T08:56:22.380Z</time>
      </trkpt>
      <trkpt lat="47.04676" lon="9.02517">
        <ele>692</ele>
        <time>2021-08-02T08:56:23.380Z</time>
      </trkpt>
      <trkpt lat="47.04675" lon="9.02516">
        <ele>691</ele>
        <time>2021-08-02T08:56:24.379Z</time>
      </trkpt>
      <trkpt lat="47.04673" lon="9.02516">
        <ele>691</ele>
        <time>2021-08-02T08:56:25.379Z</time>
      </trkpt>
      <trkpt lat="47.04672" lon="9.02516">
        <ele>691</ele>
        <time>2021-08-02T08:56:26.380Z</time>
      </trkpt>
      <trkpt lat="47.04671" lon="9.02516">
        <ele>690</ele>
        <time>2021-08-02T08:56:27.379Z</time>
      </trkpt>
      <trkpt lat="47.0467" lon="9.02516">
        <ele>690</ele>
        <time>2021-08-02T08:56:28.379Z</time>
      </trkpt>
      <trkpt lat="47.04669" lon="9.02515">
        <ele>690</ele>
        <time>2021-08-02T08:56:29.379Z</time>
      </trkpt>
      <trkpt lat="47.04667" lon="9.02513">
        <ele>689</ele>
        <time>2021-08-02T08:56:30.379Z</time>
      </trkpt>
      <trkpt lat="47.04666" lon="9.02513">
        <ele>689</ele>
        <time>2021-08-02T08:56:31.379Z</time>
      </trkpt>
      <trkpt lat="47.04665" lon="9.02512">
        <ele>689</ele>
        <time>2021-08-02T08:56:32.379Z</time>
      </trkpt>
      <trkpt lat="47.04664" lon="9.02511">
        <ele>689</ele>
        <time>2021-08-02T08:56:33.380Z</time>
      </trkpt>
      <trkpt lat="47.04663" lon="9.02511">
        <ele>689</ele>
        <time>2021-08-02T08:56:34.380Z</time>
      </trkpt>
      <trkpt lat="47.04662" lon="9.0251">
        <ele>689</ele>
        <time>2021-08-02T08:56:35.380Z</time>
      </trkpt>
      <trkpt lat="47.0466" lon="9.0251">
        <ele>689</ele>
        <time>2021-08-02T08:56:36.379Z</time>
      </trkpt>
      <trkpt lat="47.04659" lon="9.0251">
        <ele>690</ele>
        <time>2021-08-02T08:56:37.380Z</time>
      </trkpt>
      <trkpt lat="47.04658" lon="9.0251">
        <ele>690</ele>
        <time>2021-08-02T08:56:38.379Z</time>
      </trkpt>
      <trkpt lat="47.04657" lon="9.02509">
        <ele>690</ele>
        <time>2021-08-02T08:56:39.380Z</time>
      </trkpt>
      <trkpt lat="47.04655" lon="9.02508">
        <ele>691</ele>
        <time>2021-08-02T08:56:40.380Z</time>
      </trkpt>
      <trkpt lat="47.04654" lon="9.02507">
        <ele>692</ele>
        <time>2021-08-02T08:56:41.379Z</time>
      </trkpt>
      <trkpt lat="47.04652" lon="9.02507">
        <ele>692</ele>
        <time>2021-08-02T08:56:42.379Z</time>
      </trkpt>
      <trkpt lat="47.04651" lon="9.02505">
        <ele>693</ele>
        <time>2021-08-02T08:56:43.379Z</time>
      </trkpt>
      <trkpt lat="47.0465" lon="9.02504">
        <ele>694</ele>
        <time>2021-08-02T08:56:44.379Z</time>
      </trkpt>
      <trkpt lat="47.04649" lon="9.02503">
        <ele>694</ele>
        <time>2021-08-02T08:56:45.379Z</time>
      </trkpt>
      <trkpt lat="47.04648" lon="9.02501">
        <ele>695</ele>
        <time>2021-08-02T08:56:46.379Z</time>
      </trkpt>
      <trkpt lat="47.04646" lon="9.02499">
        <ele>695</ele>
        <time>2021-08-02T08:56:47.380Z</time>
      </trkpt>
      <trkpt lat="47.04645" lon="9.02498">
        <ele>695</ele>
        <time>2021-08-02T08:56:48.379Z</time>
      </trkpt>
      <trkpt lat="47.04644" lon="9.02498">
        <ele>696</ele>
        <time>2021-08-02T08:56:49.379Z</time>
      </trkpt>
      <trkpt lat="47.04643" lon="9.02499">
        <ele>696</ele>
        <time>2021-08-02T08:56:50.379Z</time>
      </trkpt>
      <trkpt lat="47.04642" lon="9.025">
        <ele>696</ele>
        <time>2021-08-02T08:56:51.379Z</time>
      </trkpt>
      <trkpt lat="47.04642" lon="9.025">
        <ele>696</ele>
        <time>2021-08-02T08:56:52.379Z</time>
      </trkpt>
      <trkpt lat="47.04641" lon="9.025">
        <ele>696</ele>
        <time>2021-08-02T08:56:53.379Z</time>
      </trkpt>
      <trkpt lat="47.0464" lon="9.025">
        <ele>696</ele>
        <time>2021-08-02T08:56:54.379Z</time>
      </trkpt>
      <trkpt lat="47.04639" lon="9.025">
        <ele>696</ele>
        <time>2021-08-02T08:56:55.380Z</time>
      </trkpt>
      <trkpt lat="47.04638" lon="9.025">
        <ele>696</ele>
        <time>2021-08-02T08:56:56.379Z</time>
      </trkpt>
      <trkpt lat="47.04637" lon="9.02501">
        <ele>696</ele>
        <time>2021-08-02T08:56:57.379Z</time>
      </trkpt>
      <trkpt lat="47.04636" lon="9.02501">
        <ele>696</ele>
        <time>2021-08-02T08:56:58.379Z</time>
      </trkpt>
      <trkpt lat="47.04636" lon="9.025">
        <ele>697</ele>
        <time>2021-08-02T08:56:59.380Z</time>
      </trkpt>
      <trkpt lat="47.04635" lon="9.025">
        <ele>697</ele>
        <time>2021-08-02T08:57:00.380Z</time>
      </trkpt>
      <trkpt lat="47.04635" lon="9.025">
        <ele>697</ele>
        <time>2021-08-02T08:57:01.380Z</time>
      </trkpt>
      <trkpt lat="47.04634" lon="9.025">
        <ele>698</ele>
        <time>2021-08-02T08:57:02.379Z</time>
      </trkpt>
      <trkpt lat="47.04633" lon="9.025">
        <ele>698</ele>
        <time>2021-08-02T08:57:03.379Z</time>
      </trkpt>
      <trkpt lat="47.04632" lon="9.02499">
        <ele>699</ele>
        <time>2021-08-02T08:57:04.379Z</time>
      </trkpt>
      <trkpt lat="47.04631" lon="9.02499">
        <ele>700</ele>
        <time>2021-08-02T08:57:05.380Z</time>
      </trkpt>
      <trkpt lat="47.04631" lon="9.02498">
        <ele>700</ele>
        <time>2021-08-02T08:57:06.380Z</time>
      </trkpt>
      <trkpt lat="47.0463" lon="9.02497">
        <ele>701</ele>
        <time>2021-08-02T08:57:07.380Z</time>
      </trkpt>
      <trkpt lat="47.0463" lon="9.02496">
        <ele>701</ele>
        <time>2021-08-02T08:57:08.379Z</time>
      </trkpt>
      <trkpt lat="47.04629" lon="9.02495">
        <ele>701</ele>
        <time>2021-08-02T08:57:09.379Z</time>
      </trkpt>
      <trkpt lat="47.04629" lon="9.02494">
        <ele>702</ele>
        <time>2021-08-02T08:57:10.380Z</time>
      </trkpt>
      <trkpt lat="47.04628" lon="9.02494">
        <ele>702</ele>
        <time>2021-08-02T08:57:11.380Z</time>
      </trkpt>
      <trkpt lat="47.04627" lon="9.02493">
        <ele>702</ele>
        <time>2021-08-02T08:57:12.380Z</time>
      </trkpt>
      <trkpt lat="47.04626" lon="9.02492">
        <ele>702</ele>
        <time>2021-08-02T08:57:13.380Z</time>
      </trkpt>
      <trkpt lat="47.04626" lon="9.02491">
        <ele>702</ele>
        <time>2021-08-02T08:57:14.379Z</time>
      </trkpt>
      <trkpt lat="47.04625" lon="9.0249">
        <ele>702</ele>
        <time>2021-08-02T08:57:15.379Z</time>
      </trkpt>
      <trkpt lat="47.04625" lon="9.02489">
        <ele>702</ele>
        <time>2021-08-02T08:57:16.379Z</time>
      </trkpt>
      <trkpt lat="47.04624" lon="9.02488">
        <ele>702</ele>
        <time>2021-08-02T08:57:17.380Z</time>
      </trkpt>
      <trkpt lat="47.04624" lon="9.02487">
        <ele>702</ele>
        <time>2021-08-02T08:57:18.380Z</time>
      </trkpt>
      <trkpt lat="47.04623" lon="9.02487">
        <ele>702</ele>
        <time>2021-08-02T08:57:19.379Z</time>
      </trkpt>
      <trkpt lat="47.04622" lon="9.02486">
        <ele>702</ele>
        <time>2021-08-02T08:57:20.379Z</time>
      </trkpt>
      <trkpt lat="47.04622" lon="9.02486">
        <ele>702</ele>
        <time>2021-08-02T08:57:21.380Z</time>
      </trkpt>
      <trkpt lat="47.04621" lon="9.02485">
        <ele>702</ele>
        <time>2021-08-02T08:57:22.380Z</time>
      </trkpt>
      <trkpt lat="47.0462" lon="9.02484">
        <ele>702</ele>
        <time>2021-08-02T08:57:23.380Z</time>
      </trkpt>
      <trkpt lat="47.04618" lon="9.02484">
        <ele>703</ele>
        <time>2021-08-02T08:57:24.379Z</time>
      </trkpt>
      <trkpt lat="47.04617" lon="9.02483">
        <ele>703</ele>
        <time>2021-08-02T08:57:25.380Z</time>
      </trkpt>
      <trkpt lat="47.04616" lon="9.02482">
        <ele>704</ele>
        <time>2021-08-02T08:57:26.379Z</time>
      </trkpt>
      <trkpt lat="47.04615" lon="9.02482">
        <ele>704</ele>
        <time>2021-08-02T08:57:27.379Z</time>
      </trkpt>
      <trkpt lat="47.04614" lon="9.02482">
        <ele>705</ele>
        <time>2021-08-02T08:57:28.379Z</time>
      </trkpt>
      <trkpt lat="47.04613" lon="9.02482">
        <ele>706</ele>
        <time>2021-08-02T08:57:29.380Z</time>
      </trkpt>
      <trkpt lat="47.04613" lon="9.02481">
        <ele>706</ele>
        <time>2021-08-02T08:57:30.380Z</time>
      </trkpt>
      <trkpt lat="47.04612" lon="9.02481">
        <ele>707</ele>
        <time>2021-08-02T08:57:31.380Z</time>
      </trkpt>
      <trkpt lat="47.04611" lon="9.02481">
        <ele>708</ele>
        <time>2021-08-02T08:57:32.380Z</time>
      </trkpt>
      <trkpt lat="47.04611" lon="9.02481">
        <ele>709</ele>
        <time>2021-08-02T08:57:33.380Z</time>
      </trkpt>
      <trkpt lat="47.0461" lon="9.0248">
        <ele>709</ele>
        <time>2021-08-02T08:57:34.380Z</time>
      </trkpt>
      <trkpt lat="47.04608" lon="9.02478">
        <ele>710</ele>
        <time>2021-08-02T08:57:35.379Z</time>
      </trkpt>
      <trkpt lat="47.04608" lon="9.02477">
        <ele>711</ele>
        <time>2021-08-02T08:57:36.380Z</time>
      </trkpt>
      <trkpt lat="47.04607" lon="9.02476">
        <ele>712</ele>
        <time>2021-08-02T08:57:37.380Z</time>
      </trkpt>
      <trkpt lat="47.04607" lon="9.02476">
        <ele>713</ele>
        <time>2021-08-02T08:57:38.380Z</time>
      </trkpt>
      <trkpt lat="47.04607" lon="9.02476">
        <ele>714</ele>
        <time>2021-08-02T08:57:39.380Z</time>
      </trkpt>
      <trkpt lat="47.04606" lon="9.02476">
        <ele>715</ele>
        <time>2021-08-02T08:57:40.379Z</time>
      </trkpt>
      <trkpt lat="47.04605" lon="9.02475">
        <ele>715</ele>
        <time>2021-08-02T08:57:41.380Z</time>
      </trkpt>
      <trkpt lat="47.04604" lon="9.02475">
        <ele>716</ele>
        <time>2021-08-02T08:57:42.380Z</time>
      </trkpt>
      <trkpt lat="47.04603" lon="9.02474">
        <ele>717</ele>
        <time>2021-08-02T08:57:43.380Z</time>
      </trkpt>
      <trkpt lat="47.04602" lon="9.02473">
        <ele>717</ele>
        <time>2021-08-02T08:57:44.379Z</time>
      </trkpt>
      <trkpt lat="47.04602" lon="9.02472">
        <ele>718</ele>
        <time>2021-08-02T08:57:45.380Z</time>
      </trkpt>
      <trkpt lat="47.04601" lon="9.02472">
        <ele>718</ele>
        <time>2021-08-02T08:57:46.380Z</time>
      </trkpt>
      <trkpt lat="47.046" lon="9.02472">
        <ele>719</ele>
        <time>2021-08-02T08:57:47.380Z</time>
      </trkpt>
      <trkpt lat="47.046" lon="9.02471">
        <ele>719</ele>
        <time>2021-08-02T08:57:48.379Z</time>
      </trkpt>
      <trkpt lat="47.04599" lon="9.02471">
        <ele>719</ele>
        <time>2021-08-02T08:57:49.380Z</time>
      </trkpt>
      <trkpt lat="47.04599" lon="9.02469">
        <ele>718</ele>
        <time>2021-08-02T08:57:50.379Z</time>
      </trkpt>
      <trkpt lat="47.04598" lon="9.02468">
        <ele>718</ele>
        <time>2021-08-02T08:57:51.379Z</time>
      </trkpt>
      <trkpt lat="47.04597" lon="9.02467">
        <ele>718</ele>
        <time>2021-08-02T08:57:52.379Z</time>
      </trkpt>
      <trkpt lat="47.04595" lon="9.02466">
        <ele>718</ele>
        <time>2021-08-02T08:57:53.380Z</time>
      </trkpt>
      <trkpt lat="47.04594" lon="9.02463">
        <ele>719</ele>
        <time>2021-08-02T08:57:54.379Z</time>
      </trkpt>
      <trkpt lat="47.04592" lon="9.02462">
        <ele>718</ele>
        <time>2021-08-02T08:57:55.379Z</time>
      </trkpt>
      <trkpt lat="47.04592" lon="9.02462">
        <ele>718</ele>
        <time>2021-08-02T08:57:56.379Z</time>
      </trkpt>
      <trkpt lat="47.04591" lon="9.02462">
        <ele>718</ele>
        <time>2021-08-02T08:57:57.380Z</time>
      </trkpt>
      <trkpt lat="47.04591" lon="9.02461">
        <ele>717</ele>
        <time>2021-08-02T08:57:58.380Z</time>
      </trkpt>
      <trkpt lat="47.0459" lon="9.02461">
        <ele>716</ele>
        <time>2021-08-02T08:57:59.380Z</time>
      </trkpt>
      <trkpt lat="47.04589" lon="9.0246">
        <ele>715</ele>
        <time>2021-08-02T08:58:00.380Z</time>
      </trkpt>
      <trkpt lat="47.04588" lon="9.02459">
        <ele>714</ele>
        <time>2021-08-02T08:58:01.380Z</time>
      </trkpt>
      <trkpt lat="47.04588" lon="9.02458">
        <ele>714</ele>
        <time>2021-08-02T08:58:02.380Z</time>
      </trkpt>
      <trkpt lat="47.04587" lon="9.02458">
        <ele>713</ele>
        <time>2021-08-02T08:58:03.380Z</time>
      </trkpt>
      <trkpt lat="47.04586" lon="9.02457">
        <ele>712</ele>
        <time>2021-08-02T08:58:04.380Z</time>
      </trkpt>
      <trkpt lat="47.04586" lon="9.02456">
        <ele>711</ele>
        <time>2021-08-02T08:58:05.380Z</time>
      </trkpt>
      <trkpt lat="47.04585" lon="9.02455">
        <ele>711</ele>
        <time>2021-08-02T08:58:06.380Z</time>
      </trkpt>
      <trkpt lat="47.04584" lon="9.02455">
        <ele>711</ele>
        <time>2021-08-02T08:58:07.379Z</time>
      </trkpt>
      <trkpt lat="47.04584" lon="9.02454">
        <ele>711</ele>
        <time>2021-08-02T08:58:08.380Z</time>
      </trkpt>
      <trkpt lat="47.04584" lon="9.02454">
        <ele>711</ele>
        <time>2021-08-02T08:58:09.380Z</time>
      </trkpt>
      <trkpt lat="47.04584" lon="9.02453">
        <ele>710</ele>
        <time>2021-08-02T08:58:10.380Z</time>
      </trkpt>
      <trkpt lat="47.04585" lon="9.02453">
        <ele>710</ele>
        <time>2021-08-02T08:58:11.380Z</time>
      </trkpt>
      <trkpt lat="47.04586" lon="9.02453">
        <ele>709</ele>
        <time>2021-08-02T08:58:12.380Z</time>
      </trkpt>
      <trkpt lat="47.04588" lon="9.02451">
        <ele>707</ele>
        <time>2021-08-02T08:58:13.381Z</time>
      </trkpt>
      <trkpt lat="47.04591" lon="9.02448">
        <ele>705</ele>
        <time>2021-08-02T08:58:14.380Z</time>
      </trkpt>
      <trkpt lat="47.04592" lon="9.02449">
        <ele>706</ele>
        <time>2021-08-02T08:58:15.380Z</time>
      </trkpt>
      <trkpt lat="47.04592" lon="9.02449">
        <ele>706</ele>
        <time>2021-08-02T08:58:16.380Z</time>
      </trkpt>
      <trkpt lat="47.04589" lon="9.02452">
        <ele>709</ele>
        <time>2021-08-02T08:58:17.381Z</time>
      </trkpt>
      <trkpt lat="47.04587" lon="9.02451">
        <ele>710</ele>
        <time>2021-08-02T08:58:18.381Z</time>
      </trkpt>
      <trkpt lat="47.04586" lon="9.02449">
        <ele>710</ele>
        <time>2021-08-02T08:58:19.380Z</time>
      </trkpt>
      <trkpt lat="47.04585" lon="9.02448">
        <ele>711</ele>
        <time>2021-08-02T08:58:20.380Z</time>
      </trkpt>
      <trkpt lat="47.04585" lon="9.02447">
        <ele>711</ele>
        <time>2021-08-02T08:58:21.381Z</time>
      </trkpt>
      <trkpt lat="47.04584" lon="9.02445">
        <ele>712</ele>
        <time>2021-08-02T08:58:22.381Z</time>
      </trkpt>
      <trkpt lat="47.04584" lon="9.02444">
        <ele>713</ele>
        <time>2021-08-02T08:58:23.381Z</time>
      </trkpt>
      <trkpt lat="47.04584" lon="9.02443">
        <ele>713</ele>
        <time>2021-08-02T08:58:24.381Z</time>
      </trkpt>
      <trkpt lat="47.04583" lon="9.02442">
        <ele>714</ele>
        <time>2021-08-02T08:58:25.381Z</time>
      </trkpt>
      <trkpt lat="47.04583" lon="9.02442">
        <ele>714</ele>
        <time>2021-08-02T08:58:26.381Z</time>
      </trkpt>
      <trkpt lat="47.04582" lon="9.02441">
        <ele>715</ele>
        <time>2021-08-02T08:58:27.381Z</time>
      </trkpt>
      <trkpt lat="47.04581" lon="9.02441">
        <ele>715</ele>
        <time>2021-08-02T08:58:28.381Z</time>
      </trkpt>
      <trkpt lat="47.0458" lon="9.0244">
        <ele>715</ele>
        <time>2021-08-02T08:58:29.381Z</time>
      </trkpt>
      <trkpt lat="47.04579" lon="9.02439">
        <ele>715</ele>
        <time>2021-08-02T08:58:30.381Z</time>
      </trkpt>
      <trkpt lat="47.04578" lon="9.02438">
        <ele>715</ele>
        <time>2021-08-02T08:58:31.381Z</time>
      </trkpt>
      <trkpt lat="47.04577" lon="9.02437">
        <ele>715</ele>
        <time>2021-08-02T08:58:32.380Z</time>
      </trkpt>
      <trkpt lat="47.04576" lon="9.02436">
        <ele>715</ele>
        <time>2021-08-02T08:58:33.381Z</time>
      </trkpt>
      <trkpt lat="47.04575" lon="9.02435">
        <ele>715</ele>
        <time>2021-08-02T08:58:34.381Z</time>
      </trkpt>
      <trkpt lat="47.04574" lon="9.02435">
        <ele>716</ele>
        <time>2021-08-02T08:58:35.381Z</time>
      </trkpt>
      <trkpt lat="47.04574" lon="9.02434">
        <ele>715</ele>
        <time>2021-08-02T08:58:36.381Z</time>
      </trkpt>
      <trkpt lat="47.04573" lon="9.02435">
        <ele>715</ele>
        <time>2021-08-02T08:58:37.381Z</time>
      </trkpt>
      <trkpt lat="47.04572" lon="9.02434">
        <ele>715</ele>
        <time>2021-08-02T08:58:38.381Z</time>
      </trkpt>
      <trkpt lat="47.0457" lon="9.02432">
        <ele>715</ele>
        <time>2021-08-02T08:58:39.380Z</time>
      </trkpt>
      <trkpt lat="47.04569" lon="9.02432">
        <ele>715</ele>
        <time>2021-08-02T08:58:40.381Z</time>
      </trkpt>
      <trkpt lat="47.04569" lon="9.02431">
        <ele>715</ele>
        <time>2021-08-02T08:58:41.381Z</time>
      </trkpt>
      <trkpt lat="47.04568" lon="9.02429">
        <ele>715</ele>
        <time>2021-08-02T08:58:42.380Z</time>
      </trkpt>
      <trkpt lat="47.04567" lon="9.02429">
        <ele>715</ele>
        <time>2021-08-02T08:58:43.380Z</time>
      </trkpt>
      <trkpt lat="47.04567" lon="9.02428">
        <ele>716</ele>
        <time>2021-08-02T08:58:44.381Z</time>
      </trkpt>
      <trkpt lat="47.04567" lon="9.02427">
        <ele>716</ele>
        <time>2021-08-02T08:58:45.381Z</time>
      </trkpt>
      <trkpt lat="47.04567" lon="9.02426">
        <ele>716</ele>
        <time>2021-08-02T08:58:46.381Z</time>
      </trkpt>
      <trkpt lat="47.04565" lon="9.02424">
        <ele>715</ele>
        <time>2021-08-02T08:58:47.381Z</time>
      </trkpt>
      <trkpt lat="47.04565" lon="9.02423">
        <ele>714</ele>
        <time>2021-08-02T08:58:48.381Z</time>
      </trkpt>
      <trkpt lat="47.04563" lon="9.02421">
        <ele>714</ele>
        <time>2021-08-02T08:58:49.381Z</time>
      </trkpt>
      <trkpt lat="47.04562" lon="9.0242">
        <ele>714</ele>
        <time>2021-08-02T08:58:50.381Z</time>
      </trkpt>
      <trkpt lat="47.04561" lon="9.02419">
        <ele>713</ele>
        <time>2021-08-02T08:58:51.381Z</time>
      </trkpt>
      <trkpt lat="47.0456" lon="9.02419">
        <ele>713</ele>
        <time>2021-08-02T08:58:52.381Z</time>
      </trkpt>
      <trkpt lat="47.04559" lon="9.02418">
        <ele>713</ele>
        <time>2021-08-02T08:58:53.381Z</time>
      </trkpt>
      <trkpt lat="47.04558" lon="9.02418">
        <ele>713</ele>
        <time>2021-08-02T08:58:54.381Z</time>
      </trkpt>
      <trkpt lat="47.04558" lon="9.02417">
        <ele>713</ele>
        <time>2021-08-02T08:58:55.381Z</time>
      </trkpt>
      <trkpt lat="47.04557" lon="9.02416">
        <ele>713</ele>
        <time>2021-08-02T08:58:56.380Z</time>
      </trkpt>
      <trkpt lat="47.04556" lon="9.02416">
        <ele>713</ele>
        <time>2021-08-02T08:58:57.380Z</time>
      </trkpt>
      <trkpt lat="47.04555" lon="9.02416">
        <ele>713</ele>
        <time>2021-08-02T08:58:58.380Z</time>
      </trkpt>
      <trkpt lat="47.04554" lon="9.02415">
        <ele>713</ele>
        <time>2021-08-02T08:58:59.381Z</time>
      </trkpt>
      <trkpt lat="47.04553" lon="9.02414">
        <ele>713</ele>
        <time>2021-08-02T08:59:00.381Z</time>
      </trkpt>
      <trkpt lat="47.04553" lon="9.02414">
        <ele>714</ele>
        <time>2021-08-02T08:59:01.380Z</time>
      </trkpt>
      <trkpt lat="47.04552" lon="9.02413">
        <ele>714</ele>
        <time>2021-08-02T08:59:02.381Z</time>
      </trkpt>
      <trkpt lat="47.04551" lon="9.02412">
        <ele>714</ele>
        <time>2021-08-02T08:59:03.381Z</time>
      </trkpt>
      <trkpt lat="47.04551" lon="9.02412">
        <ele>714</ele>
        <time>2021-08-02T08:59:04.380Z</time>
      </trkpt>
      <trkpt lat="47.0455" lon="9.02411">
        <ele>714</ele>
        <time>2021-08-02T08:59:05.380Z</time>
      </trkpt>
      <trkpt lat="47.04548" lon="9.0241">
        <ele>713</ele>
        <time>2021-08-02T08:59:06.380Z</time>
      </trkpt>
      <trkpt lat="47.04547" lon="9.02409">
        <ele>713</ele>
        <time>2021-08-02T08:59:07.381Z</time>
      </trkpt>
      <trkpt lat="47.04547" lon="9.02408">
        <ele>712</ele>
        <time>2021-08-02T08:59:08.381Z</time>
      </trkpt>
      <trkpt lat="47.04546" lon="9.02408">
        <ele>711</ele>
        <time>2021-08-02T08:59:09.380Z</time>
      </trkpt>
      <trkpt lat="47.04546" lon="9.02407">
        <ele>710</ele>
        <time>2021-08-02T08:59:10.381Z</time>
      </trkpt>
      <trkpt lat="47.04545" lon="9.02405">
        <ele>709</ele>
        <time>2021-08-02T08:59:11.380Z</time>
      </trkpt>
      <trkpt lat="47.04544" lon="9.02405">
        <ele>708</ele>
        <time>2021-08-02T08:59:12.381Z</time>
      </trkpt>
      <trkpt lat="47.04543" lon="9.02404">
        <ele>707</ele>
        <time>2021-08-02T08:59:13.381Z</time>
      </trkpt>
      <trkpt lat="47.04542" lon="9.02403">
        <ele>706</ele>
        <time>2021-08-02T08:59:14.380Z</time>
      </trkpt>
      <trkpt lat="47.04541" lon="9.02403">
        <ele>706</ele>
        <time>2021-08-02T08:59:15.380Z</time>
      </trkpt>
      <trkpt lat="47.0454" lon="9.02401">
        <ele>705</ele>
        <time>2021-08-02T08:59:16.381Z</time>
      </trkpt>
      <trkpt lat="47.04539" lon="9.024">
        <ele>705</ele>
        <time>2021-08-02T08:59:17.381Z</time>
      </trkpt>
      <trkpt lat="47.04538" lon="9.024">
        <ele>705</ele>
        <time>2021-08-02T08:59:18.381Z</time>
      </trkpt>
      <trkpt lat="47.04537" lon="9.024">
        <ele>704</ele>
        <time>2021-08-02T08:59:19.380Z</time>
      </trkpt>
      <trkpt lat="47.04537" lon="9.02402">
        <ele>704</ele>
        <time>2021-08-02T08:59:20.380Z</time>
      </trkpt>
      <trkpt lat="47.04537" lon="9.02404">
        <ele>704</ele>
        <time>2021-08-02T08:59:21.381Z</time>
      </trkpt>
      <trkpt lat="47.04537" lon="9.02406">
        <ele>705</ele>
        <time>2021-08-02T08:59:22.381Z</time>
      </trkpt>
      <trkpt lat="47.04536" lon="9.02406">
        <ele>705</ele>
        <time>2021-08-02T08:59:23.381Z</time>
      </trkpt>
      <trkpt lat="47.04536" lon="9.02407">
        <ele>705</ele>
        <time>2021-08-02T08:59:24.380Z</time>
      </trkpt>
      <trkpt lat="47.04536" lon="9.02407">
        <ele>705</ele>
        <time>2021-08-02T08:59:25.381Z</time>
      </trkpt>
      <trkpt lat="47.04535" lon="9.02406">
        <ele>706</ele>
        <time>2021-08-02T08:59:26.380Z</time>
      </trkpt>
      <trkpt lat="47.04535" lon="9.02405">
        <ele>706</ele>
        <time>2021-08-02T08:59:27.381Z</time>
      </trkpt>
      <trkpt lat="47.04534" lon="9.02404">
        <ele>706</ele>
        <time>2021-08-02T08:59:28.381Z</time>
      </trkpt>
      <trkpt lat="47.04534" lon="9.02403">
        <ele>706</ele>
        <time>2021-08-02T08:59:29.380Z</time>
      </trkpt>
      <trkpt lat="47.04533" lon="9.02402">
        <ele>706</ele>
        <time>2021-08-02T08:59:30.381Z</time>
      </trkpt>
      <trkpt lat="47.04533" lon="9.02401">
        <ele>707</ele>
        <time>2021-08-02T08:59:31.381Z</time>
      </trkpt>
      <trkpt lat="47.04532" lon="9.024">
        <ele>707</ele>
        <time>2021-08-02T08:59:32.381Z</time>
      </trkpt>
      <trkpt lat="47.04531" lon="9.024">
        <ele>707</ele>
        <time>2021-08-02T08:59:33.381Z</time>
      </trkpt>
      <trkpt lat="47.0453" lon="9.024">
        <ele>707</ele>
        <time>2021-08-02T08:59:34.380Z</time>
      </trkpt>
      <trkpt lat="47.04529" lon="9.024">
        <ele>707</ele>
        <time>2021-08-02T08:59:35.380Z</time>
      </trkpt>
      <trkpt lat="47.04528" lon="9.02399">
        <ele>707</ele>
        <time>2021-08-02T08:59:36.381Z</time>
      </trkpt>
      <trkpt lat="47.04528" lon="9.02397">
        <ele>707</ele>
        <time>2021-08-02T08:59:37.380Z</time>
      </trkpt>
      <trkpt lat="47.04527" lon="9.02395">
        <ele>707</ele>
        <time>2021-08-02T08:59:38.380Z</time>
      </trkpt>
      <trkpt lat="47.04526" lon="9.02395">
        <ele>707</ele>
        <time>2021-08-02T08:59:39.380Z</time>
      </trkpt>
      <trkpt lat="47.04525" lon="9.02394">
        <ele>706</ele>
        <time>2021-08-02T08:59:40.381Z</time>
      </trkpt>
      <trkpt lat="47.04524" lon="9.02394">
        <ele>705</ele>
        <time>2021-08-02T08:59:41.381Z</time>
      </trkpt>
      <trkpt lat="47.04523" lon="9.02393">
        <ele>705</ele>
        <time>2021-08-02T08:59:42.381Z</time>
      </trkpt>
      <trkpt lat="47.04523" lon="9.02392">
        <ele>704</ele>
        <time>2021-08-02T08:59:43.381Z</time>
      </trkpt>
      <trkpt lat="47.04522" lon="9.0239">
        <ele>703</ele>
        <time>2021-08-02T08:59:44.380Z</time>
      </trkpt>
      <trkpt lat="47.04522" lon="9.02388">
        <ele>703</ele>
        <time>2021-08-02T08:59:45.381Z</time>
      </trkpt>
      <trkpt lat="47.04522" lon="9.02387">
        <ele>703</ele>
        <time>2021-08-02T08:59:46.381Z</time>
      </trkpt>
      <trkpt lat="47.04522" lon="9.02386">
        <ele>703</ele>
        <time>2021-08-02T08:59:47.381Z</time>
      </trkpt>
      <trkpt lat="47.04522" lon="9.02384">
        <ele>703</ele>
        <time>2021-08-02T08:59:48.380Z</time>
      </trkpt>
      <trkpt lat="47.0452" lon="9.02383">
        <ele>703</ele>
        <time>2021-08-02T08:59:49.381Z</time>
      </trkpt>
      <trkpt lat="47.04519" lon="9.02381">
        <ele>702</ele>
        <time>2021-08-02T08:59:50.381Z</time>
      </trkpt>
      <trkpt lat="47.04518" lon="9.02379">
        <ele>701</ele>
        <time>2021-08-02T08:59:51.381Z</time>
      </trkpt>
      <trkpt lat="47.04517" lon="9.02378">
        <ele>701</ele>
        <time>2021-08-02T08:59:52.381Z</time>
      </trkpt>
      <trkpt lat="47.04517" lon="9.02378">
        <ele>701</ele>
        <time>2021-08-02T08:59:53.380Z</time>
      </trkpt>
      <trkpt lat="47.04516" lon="9.02378">
        <ele>700</ele>
        <time>2021-08-02T08:59:54.381Z</time>
      </trkpt>
      <trkpt lat="47.04515" lon="9.02377">
        <ele>700</ele>
        <time>2021-08-02T08:59:55.381Z</time>
      </trkpt>
      <trkpt lat="47.04514" lon="9.02376">
        <ele>699</ele>
        <time>2021-08-02T08:59:56.381Z</time>
      </trkpt>
      <trkpt lat="47.04514" lon="9.02375">
        <ele>698</ele>
        <time>2021-08-02T08:59:57.381Z</time>
      </trkpt>
      <trkpt lat="47.04513" lon="9.02373">
        <ele>697</ele>
        <time>2021-08-02T08:59:58.381Z</time>
      </trkpt>
      <trkpt lat="47.04513" lon="9.02371">
        <ele>696</ele>
        <time>2021-08-02T08:59:59.380Z</time>
      </trkpt>
      <trkpt lat="47.04513" lon="9.0237">
        <ele>695</ele>
        <time>2021-08-02T09:00:00.381Z</time>
      </trkpt>
      <trkpt lat="47.04513" lon="9.02369">
        <ele>694</ele>
        <time>2021-08-02T09:00:01.381Z</time>
      </trkpt>
      <trkpt lat="47.04513" lon="9.02367">
        <ele>693</ele>
        <time>2021-08-02T09:00:02.381Z</time>
      </trkpt>
      <trkpt lat="47.04513" lon="9.02366">
        <ele>692</ele>
        <time>2021-08-02T09:00:03.381Z</time>
      </trkpt>
      <trkpt lat="47.04514" lon="9.02366">
        <ele>692</ele>
        <time>2021-08-02T09:00:04.381Z</time>
      </trkpt>
      <trkpt lat="47.04514" lon="9.02366">
        <ele>692</ele>
        <time>2021-08-02T09:00:05.380Z</time>
      </trkpt>
      <trkpt lat="47.04514" lon="9.02365">
        <ele>692</ele>
        <time>2021-08-02T09:00:06.381Z</time>
      </trkpt>
      <trkpt lat="47.04513" lon="9.02364">
        <ele>692</ele>
        <time>2021-08-02T09:00:07.381Z</time>
      </trkpt>
      <trkpt lat="47.04512" lon="9.02363">
        <ele>692</ele>
        <time>2021-08-02T09:00:08.381Z</time>
      </trkpt>
      <trkpt lat="47.04512" lon="9.02362">
        <ele>692</ele>
        <time>2021-08-02T09:00:09.381Z</time>
      </trkpt>
      <trkpt lat="47.04511" lon="9.02361">
        <ele>691</ele>
        <time>2021-08-02T09:00:10.381Z</time>
      </trkpt>
      <trkpt lat="47.0451" lon="9.0236">
        <ele>691</ele>
        <time>2021-08-02T09:00:11.380Z</time>
      </trkpt>
      <trkpt lat="47.0451" lon="9.02358">
        <ele>691</ele>
        <time>2021-08-02T09:00:12.381Z</time>
      </trkpt>
      <trkpt lat="47.04509" lon="9.02357">
        <ele>691</ele>
        <time>2021-08-02T09:00:13.381Z</time>
      </trkpt>
      <trkpt lat="47.04508" lon="9.02356">
        <ele>691</ele>
        <time>2021-08-02T09:00:14.381Z</time>
      </trkpt>
      <trkpt lat="47.04507" lon="9.02354">
        <ele>691</ele>
        <time>2021-08-02T09:00:15.380Z</time>
      </trkpt>
      <trkpt lat="47.04506" lon="9.02352">
        <ele>691</ele>
        <time>2021-08-02T09:00:16.380Z</time>
      </trkpt>
      <trkpt lat="47.04506" lon="9.0235">
        <ele>691</ele>
        <time>2021-08-02T09:00:17.381Z</time>
      </trkpt>
      <trkpt lat="47.04504" lon="9.02348">
        <ele>691</ele>
        <time>2021-08-02T09:00:18.381Z</time>
      </trkpt>
      <trkpt lat="47.04503" lon="9.02346">
        <ele>692</ele>
        <time>2021-08-02T09:00:19.381Z</time>
      </trkpt>
      <trkpt lat="47.04502" lon="9.02344">
        <ele>692</ele>
        <time>2021-08-02T09:00:20.380Z</time>
      </trkpt>
      <trkpt lat="47.04501" lon="9.02343">
        <ele>692</ele>
        <time>2021-08-02T09:00:21.380Z</time>
      </trkpt>
      <trkpt lat="47.04502" lon="9.02342">
        <ele>692</ele>
        <time>2021-08-02T09:00:22.380Z</time>
      </trkpt>
      <trkpt lat="47.04502" lon="9.02341">
        <ele>691</ele>
        <time>2021-08-02T09:00:23.381Z</time>
      </trkpt>
      <trkpt lat="47.04501" lon="9.02341">
        <ele>691</ele>
        <time>2021-08-02T09:00:24.381Z</time>
      </trkpt>
      <trkpt lat="47.045" lon="9.02341">
        <ele>691</ele>
        <time>2021-08-02T09:00:25.381Z</time>
      </trkpt>
      <trkpt lat="47.04499" lon="9.0234">
        <ele>691</ele>
        <time>2021-08-02T09:00:26.380Z</time>
      </trkpt>
      <trkpt lat="47.04498" lon="9.0234">
        <ele>690</ele>
        <time>2021-08-02T09:00:27.381Z</time>
      </trkpt>
      <trkpt lat="47.04497" lon="9.0234">
        <ele>690</ele>
        <time>2021-08-02T09:00:28.381Z</time>
      </trkpt>
      <trkpt lat="47.04496" lon="9.02339">
        <ele>689</ele>
        <time>2021-08-02T09:00:29.381Z</time>
      </trkpt>
      <trkpt lat="47.04495" lon="9.02339">
        <ele>689</ele>
        <time>2021-08-02T09:00:30.381Z</time>
      </trkpt>
      <trkpt lat="47.04494" lon="9.02339">
        <ele>689</ele>
        <time>2021-08-02T09:00:31.380Z</time>
      </trkpt>
      <trkpt lat="47.04493" lon="9.02338">
        <ele>688</ele>
        <time>2021-08-02T09:00:32.381Z</time>
      </trkpt>
      <trkpt lat="47.04492" lon="9.02338">
        <ele>688</ele>
        <time>2021-08-02T09:00:33.381Z</time>
      </trkpt>
      <trkpt lat="47.04491" lon="9.02337">
        <ele>687</ele>
        <time>2021-08-02T09:00:34.381Z</time>
      </trkpt>
      <trkpt lat="47.0449" lon="9.02336">
        <ele>687</ele>
        <time>2021-08-02T09:00:35.381Z</time>
      </trkpt>
      <trkpt lat="47.04489" lon="9.02336">
        <ele>687</ele>
        <time>2021-08-02T09:00:36.380Z</time>
      </trkpt>
      <trkpt lat="47.04488" lon="9.02335">
        <ele>687</ele>
        <time>2021-08-02T09:00:37.380Z</time>
      </trkpt>
      <trkpt lat="47.04486" lon="9.02335">
        <ele>687</ele>
        <time>2021-08-02T09:00:38.381Z</time>
      </trkpt>
      <trkpt lat="47.04485" lon="9.02335">
        <ele>687</ele>
        <time>2021-08-02T09:00:39.380Z</time>
      </trkpt>
      <trkpt lat="47.04484" lon="9.02334">
        <ele>687</ele>
        <time>2021-08-02T09:00:40.380Z</time>
      </trkpt>
      <trkpt lat="47.04483" lon="9.02333">
        <ele>688</ele>
        <time>2021-08-02T09:00:41.380Z</time>
      </trkpt>
      <trkpt lat="47.04483" lon="9.02332">
        <ele>688</ele>
        <time>2021-08-02T09:00:42.380Z</time>
      </trkpt>
      <trkpt lat="47.04482" lon="9.02332">
        <ele>688</ele>
        <time>2021-08-02T09:00:43.380Z</time>
      </trkpt>
      <trkpt lat="47.04481" lon="9.02331">
        <ele>689</ele>
        <time>2021-08-02T09:00:44.380Z</time>
      </trkpt>
      <trkpt lat="47.04481" lon="9.02332">
        <ele>689</ele>
        <time>2021-08-02T09:00:45.380Z</time>
      </trkpt>
      <trkpt lat="47.0448" lon="9.02332">
        <ele>690</ele>
        <time>2021-08-02T09:00:46.380Z</time>
      </trkpt>
      <trkpt lat="47.04479" lon="9.02332">
        <ele>690</ele>
        <time>2021-08-02T09:00:47.380Z</time>
      </trkpt>
      <trkpt lat="47.04478" lon="9.02333">
        <ele>691</ele>
        <time>2021-08-02T09:00:48.380Z</time>
      </trkpt>
      <trkpt lat="47.04477" lon="9.02333">
        <ele>692</ele>
        <time>2021-08-02T09:00:49.380Z</time>
      </trkpt>
      <trkpt lat="47.04477" lon="9.02332">
        <ele>692</ele>
        <time>2021-08-02T09:00:50.380Z</time>
      </trkpt>
      <trkpt lat="47.04476" lon="9.02332">
        <ele>692</ele>
        <time>2021-08-02T09:00:51.381Z</time>
      </trkpt>
      <trkpt lat="47.04476" lon="9.02331">
        <ele>692</ele>
        <time>2021-08-02T09:00:52.380Z</time>
      </trkpt>
      <trkpt lat="47.04476" lon="9.0233">
        <ele>692</ele>
        <time>2021-08-02T09:00:53.380Z</time>
      </trkpt>
      <trkpt lat="47.04475" lon="9.02329">
        <ele>692</ele>
        <time>2021-08-02T09:00:54.381Z</time>
      </trkpt>
      <trkpt lat="47.04474" lon="9.02328">
        <ele>693</ele>
        <time>2021-08-02T09:00:55.381Z</time>
      </trkpt>
      <trkpt lat="47.04472" lon="9.02328">
        <ele>693</ele>
        <time>2021-08-02T09:00:56.380Z</time>
      </trkpt>
      <trkpt lat="47.04471" lon="9.02328">
        <ele>693</ele>
        <time>2021-08-02T09:00:57.380Z</time>
      </trkpt>
      <trkpt lat="47.0447" lon="9.02327">
        <ele>693</ele>
        <time>2021-08-02T09:00:58.380Z</time>
      </trkpt>
      <trkpt lat="47.04468" lon="9.02326">
        <ele>693</ele>
        <time>2021-08-02T09:00:59.380Z</time>
      </trkpt>
      <trkpt lat="47.04467" lon="9.02326">
        <ele>693</ele>
        <time>2021-08-02T09:01:00.381Z</time>
      </trkpt>
      <trkpt lat="47.04466" lon="9.02326">
        <ele>693</ele>
        <time>2021-08-02T09:01:01.381Z</time>
      </trkpt>
      <trkpt lat="47.04465" lon="9.02326">
        <ele>693</ele>
        <time>2021-08-02T09:01:02.380Z</time>
      </trkpt>
      <trkpt lat="47.04464" lon="9.02327">
        <ele>693</ele>
        <time>2021-08-02T09:01:03.380Z</time>
      </trkpt>
      <trkpt lat="47.04463" lon="9.02327">
        <ele>693</ele>
        <time>2021-08-02T09:01:04.381Z</time>
      </trkpt>
      <trkpt lat="47.04461" lon="9.02329">
        <ele>694</ele>
        <time>2021-08-02T09:01:05.381Z</time>
      </trkpt>
      <trkpt lat="47.0446" lon="9.02329">
        <ele>694</ele>
        <time>2021-08-02T09:01:06.381Z</time>
      </trkpt>
      <trkpt lat="47.04459" lon="9.0233">
        <ele>695</ele>
        <time>2021-08-02T09:01:07.381Z</time>
      </trkpt>
      <trkpt lat="47.04458" lon="9.02331">
        <ele>696</ele>
        <time>2021-08-02T09:01:08.380Z</time>
      </trkpt>
      <trkpt lat="47.04457" lon="9.02331">
        <ele>696</ele>
        <time>2021-08-02T09:01:09.380Z</time>
      </trkpt>
      <trkpt lat="47.04455" lon="9.02332">
        <ele>697</ele>
        <time>2021-08-02T09:01:10.381Z</time>
      </trkpt>
      <trkpt lat="47.04454" lon="9.02332">
        <ele>698</ele>
        <time>2021-08-02T09:01:11.381Z</time>
      </trkpt>
      <trkpt lat="47.04453" lon="9.02334">
        <ele>698</ele>
        <time>2021-08-02T09:01:12.380Z</time>
      </trkpt>
      <trkpt lat="47.04452" lon="9.02333">
        <ele>699</ele>
        <time>2021-08-02T09:01:13.381Z</time>
      </trkpt>
      <trkpt lat="47.04451" lon="9.02334">
        <ele>700</ele>
        <time>2021-08-02T09:01:14.380Z</time>
      </trkpt>
      <trkpt lat="47.04449" lon="9.02336">
        <ele>700</ele>
        <time>2021-08-02T09:01:15.381Z</time>
      </trkpt>
      <trkpt lat="47.04448" lon="9.02334">
        <ele>701</ele>
        <time>2021-08-02T09:01:16.381Z</time>
      </trkpt>
      <trkpt lat="47.04446" lon="9.02334">
        <ele>702</ele>
        <time>2021-08-02T09:01:17.380Z</time>
      </trkpt>
      <trkpt lat="47.04446" lon="9.02332">
        <ele>702</ele>
        <time>2021-08-02T09:01:18.381Z</time>
      </trkpt>
      <trkpt lat="47.04445" lon="9.02331">
        <ele>703</ele>
        <time>2021-08-02T09:01:19.381Z</time>
      </trkpt>
      <trkpt lat="47.04445" lon="9.02331">
        <ele>703</ele>
        <time>2021-08-02T09:01:20.380Z</time>
      </trkpt>
      <trkpt lat="47.04445" lon="9.0233">
        <ele>703</ele>
        <time>2021-08-02T09:01:21.381Z</time>
      </trkpt>
      <trkpt lat="47.04445" lon="9.0233">
        <ele>704</ele>
        <time>2021-08-02T09:01:22.381Z</time>
      </trkpt>
      <trkpt lat="47.04444" lon="9.02329">
        <ele>704</ele>
        <time>2021-08-02T09:01:23.381Z</time>
      </trkpt>
      <trkpt lat="47.04444" lon="9.02329">
        <ele>705</ele>
        <time>2021-08-02T09:01:24.380Z</time>
      </trkpt>
      <trkpt lat="47.04444" lon="9.02328">
        <ele>705</ele>
        <time>2021-08-02T09:01:25.380Z</time>
      </trkpt>
      <trkpt lat="47.04444" lon="9.02327">
        <ele>706</ele>
        <time>2021-08-02T09:01:26.381Z</time>
      </trkpt>
      <trkpt lat="47.04444" lon="9.02327">
        <ele>706</ele>
        <time>2021-08-02T09:01:27.381Z</time>
      </trkpt>
      <trkpt lat="47.04444" lon="9.02323">
        <ele>708</ele>
        <time>2021-08-02T09:01:28.382Z</time>
      </trkpt>
      <trkpt lat="47.04444" lon="9.02323">
        <ele>708</ele>
        <time>2021-08-02T09:01:29.382Z</time>
      </trkpt>
      <trkpt lat="47.04444" lon="9.02322">
        <ele>708</ele>
        <time>2021-08-02T09:01:30.381Z</time>
      </trkpt>
      <trkpt lat="47.04443" lon="9.02322">
        <ele>709</ele>
        <time>2021-08-02T09:01:31.382Z</time>
      </trkpt>
      <trkpt lat="47.04441" lon="9.02321">
        <ele>715</ele>
        <time>2021-08-02T09:01:32.382Z</time>
      </trkpt>
      <trkpt lat="47.04441" lon="9.02322">
        <ele>715</ele>
        <time>2021-08-02T09:01:33.382Z</time>
      </trkpt>
      <trkpt lat="47.0444" lon="9.02323">
        <ele>715</ele>
        <time>2021-08-02T09:01:34.382Z</time>
      </trkpt>
      <trkpt lat="47.04439" lon="9.02323">
        <ele>715</ele>
        <time>2021-08-02T09:01:35.383Z</time>
      </trkpt>
      <trkpt lat="47.04439" lon="9.02324">
        <ele>715</ele>
        <time>2021-08-02T09:01:36.383Z</time>
      </trkpt>
      <trkpt lat="47.04439" lon="9.02325">
        <ele>715</ele>
        <time>2021-08-02T09:01:37.382Z</time>
      </trkpt>
      <trkpt lat="47.04439" lon="9.02326">
        <ele>715</ele>
        <time>2021-08-02T09:01:38.383Z</time>
      </trkpt>
      <trkpt lat="47.04439" lon="9.02326">
        <ele>716</ele>
        <time>2021-08-02T09:01:39.382Z</time>
      </trkpt>
      <trkpt lat="47.04438" lon="9.02326">
        <ele>716</ele>
        <time>2021-08-02T09:01:40.383Z</time>
      </trkpt>
      <trkpt lat="47.04437" lon="9.02326">
        <ele>716</ele>
        <time>2021-08-02T09:01:41.383Z</time>
      </trkpt>
      <trkpt lat="47.04436" lon="9.02327">
        <ele>716</ele>
        <time>2021-08-02T09:01:42.383Z</time>
      </trkpt>
      <trkpt lat="47.04435" lon="9.02327">
        <ele>716</ele>
        <time>2021-08-02T09:01:43.383Z</time>
      </trkpt>
      <trkpt lat="47.04435" lon="9.02327">
        <ele>717</ele>
        <time>2021-08-02T09:01:44.383Z</time>
      </trkpt>
      <trkpt lat="47.04435" lon="9.02327">
        <ele>717</ele>
        <time>2021-08-02T09:01:45.382Z</time>
      </trkpt>
      <trkpt lat="47.04435" lon="9.02326">
        <ele>717</ele>
        <time>2021-08-02T09:01:46.383Z</time>
      </trkpt>
      <trkpt lat="47.04434" lon="9.02326">
        <ele>717</ele>
        <time>2021-08-02T09:01:47.383Z</time>
      </trkpt>
      <trkpt lat="47.04434" lon="9.02326">
        <ele>717</ele>
        <time>2021-08-02T09:01:48.383Z</time>
      </trkpt>
      <trkpt lat="47.04434" lon="9.02325">
        <ele>717</ele>
        <time>2021-08-02T09:01:49.383Z</time>
      </trkpt>
      <trkpt lat="47.04433" lon="9.02325">
        <ele>717</ele>
        <time>2021-08-02T09:01:50.383Z</time>
      </trkpt>
      <trkpt lat="47.04433" lon="9.02324">
        <ele>716</ele>
        <time>2021-08-02T09:01:51.383Z</time>
      </trkpt>
      <trkpt lat="47.04432" lon="9.02324">
        <ele>716</ele>
        <time>2021-08-02T09:01:52.383Z</time>
      </trkpt>
      <trkpt lat="47.04432" lon="9.02323">
        <ele>716</ele>
        <time>2021-08-02T09:01:53.383Z</time>
      </trkpt>
      <trkpt lat="47.04432" lon="9.02322">
        <ele>716</ele>
        <time>2021-08-02T09:01:54.383Z</time>
      </trkpt>
      <trkpt lat="47.04431" lon="9.02322">
        <ele>717</ele>
        <time>2021-08-02T09:01:55.383Z</time>
      </trkpt>
      <trkpt lat="47.04431" lon="9.02321">
        <ele>718</ele>
        <time>2021-08-02T09:01:56.383Z</time>
      </trkpt>
      <trkpt lat="47.0443" lon="9.02321">
        <ele>718</ele>
        <time>2021-08-02T09:01:57.383Z</time>
      </trkpt>
      <trkpt lat="47.0443" lon="9.0232">
        <ele>719</ele>
        <time>2021-08-02T09:01:58.383Z</time>
      </trkpt>
      <trkpt lat="47.0443" lon="9.02321">
        <ele>719</ele>
        <time>2021-08-02T09:01:59.383Z</time>
      </trkpt>
      <trkpt lat="47.0443" lon="9.0232">
        <ele>720</ele>
        <time>2021-08-02T09:02:00.384Z</time>
      </trkpt>
      <trkpt lat="47.04428" lon="9.02317">
        <ele>722</ele>
        <time>2021-08-02T09:02:01.384Z</time>
      </trkpt>
      <trkpt lat="47.04427" lon="9.02318">
        <ele>723</ele>
        <time>2021-08-02T09:02:02.385Z</time>
      </trkpt>
      <trkpt lat="47.04425" lon="9.02319">
        <ele>723</ele>
        <time>2021-08-02T09:02:03.384Z</time>
      </trkpt>
      <trkpt lat="47.04421" lon="9.02319">
        <ele>725</ele>
        <time>2021-08-02T09:02:04.385Z</time>
      </trkpt>
      <trkpt lat="47.0442" lon="9.0232">
        <ele>731</ele>
        <time>2021-08-02T09:02:05.386Z</time>
      </trkpt>
      <trkpt lat="47.0442" lon="9.0232">
        <ele>732</ele>
        <time>2021-08-02T09:02:06.387Z</time>
      </trkpt>
      <trkpt lat="47.04418" lon="9.02322">
        <ele>731</ele>
        <time>2021-08-02T09:02:07.386Z</time>
      </trkpt>
      <trkpt lat="47.04418" lon="9.02321">
        <ele>730</ele>
        <time>2021-08-02T09:02:08.387Z</time>
      </trkpt>
      <trkpt lat="47.04418" lon="9.02321">
        <ele>730</ele>
        <time>2021-08-02T09:02:09.386Z</time>
      </trkpt>
      <trkpt lat="47.04418" lon="9.02321">
        <ele>729</ele>
        <time>2021-08-02T09:02:10.387Z</time>
      </trkpt>
      <trkpt lat="47.04418" lon="9.02322">
        <ele>729</ele>
        <time>2021-08-02T09:02:11.387Z</time>
      </trkpt>
      <trkpt lat="47.04419" lon="9.02322">
        <ele>729</ele>
        <time>2021-08-02T09:02:12.387Z</time>
      </trkpt>
      <trkpt lat="47.04418" lon="9.02321">
        <ele>729</ele>
        <time>2021-08-02T09:02:13.388Z</time>
      </trkpt>
      <trkpt lat="47.04418" lon="9.02321">
        <ele>729</ele>
        <time>2021-08-02T09:02:14.388Z</time>
      </trkpt>
      <trkpt lat="47.04418" lon="9.02321">
        <ele>729</ele>
        <time>2021-08-02T09:02:15.387Z</time>
      </trkpt>
      <trkpt lat="47.04418" lon="9.0232">
        <ele>729</ele>
        <time>2021-08-02T09:02:16.387Z</time>
      </trkpt>
      <trkpt lat="47.04419" lon="9.02318">
        <ele>730</ele>
        <time>2021-08-02T09:02:17.388Z</time>
      </trkpt>
      <trkpt lat="47.04419" lon="9.02316">
        <ele>730</ele>
        <time>2021-08-02T09:02:18.387Z</time>
      </trkpt>
      <trkpt lat="47.04419" lon="9.02315">
        <ele>730</ele>
        <time>2021-08-02T09:02:19.387Z</time>
      </trkpt>
      <trkpt lat="47.04417" lon="9.02314">
        <ele>730</ele>
        <time>2021-08-02T09:02:20.388Z</time>
      </trkpt>
      <trkpt lat="47.04416" lon="9.02313">
        <ele>730</ele>
        <time>2021-08-02T09:02:21.388Z</time>
      </trkpt>
      <trkpt lat="47.04416" lon="9.02312">
        <ele>731</ele>
        <time>2021-08-02T09:02:22.388Z</time>
      </trkpt>
      <trkpt lat="47.04416" lon="9.02311">
        <ele>731</ele>
        <time>2021-08-02T09:02:23.387Z</time>
      </trkpt>
      <trkpt lat="47.04416" lon="9.0231">
        <ele>731</ele>
        <time>2021-08-02T09:02:24.388Z</time>
      </trkpt>
      <trkpt lat="47.04417" lon="9.02309">
        <ele>732</ele>
        <time>2021-08-02T09:02:25.388Z</time>
      </trkpt>
      <trkpt lat="47.04417" lon="9.02308">
        <ele>732</ele>
        <time>2021-08-02T09:02:26.388Z</time>
      </trkpt>
      <trkpt lat="47.04416" lon="9.02307">
        <ele>732</ele>
        <time>2021-08-02T09:02:27.388Z</time>
      </trkpt>
      <trkpt lat="47.04416" lon="9.02306">
        <ele>732</ele>
        <time>2021-08-02T09:02:28.387Z</time>
      </trkpt>
      <trkpt lat="47.04415" lon="9.02306">
        <ele>732</ele>
        <time>2021-08-02T09:02:29.387Z</time>
      </trkpt>
      <trkpt lat="47.04414" lon="9.02306">
        <ele>732</ele>
        <time>2021-08-02T09:02:30.388Z</time>
      </trkpt>
      <trkpt lat="47.04413" lon="9.02306">
        <ele>731</ele>
        <time>2021-08-02T09:02:31.388Z</time>
      </trkpt>
      <trkpt lat="47.04413" lon="9.02306">
        <ele>731</ele>
        <time>2021-08-02T09:02:32.388Z</time>
      </trkpt>
      <trkpt lat="47.04412" lon="9.02306">
        <ele>731</ele>
        <time>2021-08-02T09:02:33.388Z</time>
      </trkpt>
      <trkpt lat="47.04411" lon="9.02306">
        <ele>730</ele>
        <time>2021-08-02T09:02:34.388Z</time>
      </trkpt>
      <trkpt lat="47.0441" lon="9.02306">
        <ele>730</ele>
        <time>2021-08-02T09:02:35.387Z</time>
      </trkpt>
      <trkpt lat="47.0441" lon="9.02306">
        <ele>729</ele>
        <time>2021-08-02T09:02:36.388Z</time>
      </trkpt>
      <trkpt lat="47.04409" lon="9.02305">
        <ele>729</ele>
        <time>2021-08-02T09:02:37.388Z</time>
      </trkpt>
      <trkpt lat="47.04409" lon="9.02305">
        <ele>729</ele>
        <time>2021-08-02T09:02:38.388Z</time>
      </trkpt>
      <trkpt lat="47.04409" lon="9.02305">
        <ele>729</ele>
        <time>2021-08-02T09:02:39.388Z</time>
      </trkpt>
      <trkpt lat="47.04408" lon="9.02304">
        <ele>729</ele>
        <time>2021-08-02T09:02:40.389Z</time>
      </trkpt>
      <trkpt lat="47.04408" lon="9.02303">
        <ele>729</ele>
        <time>2021-08-02T09:02:41.388Z</time>
      </trkpt>
      <trkpt lat="47.04407" lon="9.02302">
        <ele>729</ele>
        <time>2021-08-02T09:02:42.388Z</time>
      </trkpt>
      <trkpt lat="47.04406" lon="9.023">
        <ele>729</ele>
        <time>2021-08-02T09:02:43.389Z</time>
      </trkpt>
      <trkpt lat="47.04405" lon="9.02299">
        <ele>729</ele>
        <time>2021-08-02T09:02:44.389Z</time>
      </trkpt>
      <trkpt lat="47.04405" lon="9.02299">
        <ele>729</ele>
        <time>2021-08-02T09:02:45.389Z</time>
      </trkpt>
      <trkpt lat="47.04405" lon="9.02299">
        <ele>729</ele>
        <time>2021-08-02T09:02:46.388Z</time>
      </trkpt>
      <trkpt lat="47.04403" lon="9.02299">
        <ele>729</ele>
        <time>2021-08-02T09:02:47.389Z</time>
      </trkpt>
      <trkpt lat="47.04403" lon="9.02298">
        <ele>729</ele>
        <time>2021-08-02T09:02:48.388Z</time>
      </trkpt>
      <trkpt lat="47.04403" lon="9.02298">
        <ele>729</ele>
        <time>2021-08-02T09:02:49.389Z</time>
      </trkpt>
      <trkpt lat="47.04404" lon="9.02297">
        <ele>728</ele>
        <time>2021-08-02T09:02:50.388Z</time>
      </trkpt>
      <trkpt lat="47.04403" lon="9.02296">
        <ele>728</ele>
        <time>2021-08-02T09:02:51.389Z</time>
      </trkpt>
      <trkpt lat="47.04401" lon="9.02296">
        <ele>727</ele>
        <time>2021-08-02T09:02:52.389Z</time>
      </trkpt>
      <trkpt lat="47.04399" lon="9.02297">
        <ele>727</ele>
        <time>2021-08-02T09:02:53.388Z</time>
      </trkpt>
      <trkpt lat="47.04397" lon="9.02295">
        <ele>726</ele>
        <time>2021-08-02T09:02:54.389Z</time>
      </trkpt>
      <trkpt lat="47.04396" lon="9.02294">
        <ele>726</ele>
        <time>2021-08-02T09:02:55.389Z</time>
      </trkpt>
      <trkpt lat="47.04396" lon="9.02293">
        <ele>725</ele>
        <time>2021-08-02T09:02:56.389Z</time>
      </trkpt>
      <trkpt lat="47.04395" lon="9.02292">
        <ele>725</ele>
        <time>2021-08-02T09:02:57.389Z</time>
      </trkpt>
      <trkpt lat="47.04394" lon="9.0229">
        <ele>725</ele>
        <time>2021-08-02T09:02:58.389Z</time>
      </trkpt>
      <trkpt lat="47.04393" lon="9.0229">
        <ele>725</ele>
        <time>2021-08-02T09:02:59.388Z</time>
      </trkpt>
      <trkpt lat="47.04392" lon="9.02289">
        <ele>724</ele>
        <time>2021-08-02T09:03:00.389Z</time>
      </trkpt>
      <trkpt lat="47.04391" lon="9.02288">
        <ele>724</ele>
        <time>2021-08-02T09:03:01.389Z</time>
      </trkpt>
      <trkpt lat="47.0439" lon="9.02287">
        <ele>724</ele>
        <time>2021-08-02T09:03:02.388Z</time>
      </trkpt>
      <trkpt lat="47.0439" lon="9.02286">
        <ele>723</ele>
        <time>2021-08-02T09:03:03.388Z</time>
      </trkpt>
      <trkpt lat="47.04389" lon="9.02286">
        <ele>722</ele>
        <time>2021-08-02T09:03:04.389Z</time>
      </trkpt>
      <trkpt lat="47.04389" lon="9.02285">
        <ele>722</ele>
        <time>2021-08-02T09:03:05.389Z</time>
      </trkpt>
      <trkpt lat="47.04389" lon="9.02283">
        <ele>721</ele>
        <time>2021-08-02T09:03:06.389Z</time>
      </trkpt>
      <trkpt lat="47.04389" lon="9.02282">
        <ele>721</ele>
        <time>2021-08-02T09:03:07.389Z</time>
      </trkpt>
      <trkpt lat="47.04389" lon="9.02282">
        <ele>721</ele>
        <time>2021-08-02T09:03:08.388Z</time>
      </trkpt>
      <trkpt lat="47.04389" lon="9.02281">
        <ele>720</ele>
        <time>2021-08-02T09:03:09.389Z</time>
      </trkpt>
      <trkpt lat="47.04388" lon="9.02281">
        <ele>720</ele>
        <time>2021-08-02T09:03:10.389Z</time>
      </trkpt>
      <trkpt lat="47.04388" lon="9.02281">
        <ele>719</ele>
        <time>2021-08-02T09:03:11.388Z</time>
      </trkpt>
      <trkpt lat="47.04388" lon="9.0228">
        <ele>718</ele>
        <time>2021-08-02T09:03:12.389Z</time>
      </trkpt>
      <trkpt lat="47.04388" lon="9.0228">
        <ele>718</ele>
        <time>2021-08-02T09:03:13.388Z</time>
      </trkpt>
      <trkpt lat="47.04388" lon="9.0228">
        <ele>718</ele>
        <time>2021-08-02T09:03:14.389Z</time>
      </trkpt>
      <trkpt lat="47.04389" lon="9.02279">
        <ele>716</ele>
        <time>2021-08-02T09:03:15.389Z</time>
      </trkpt>
      <trkpt lat="47.0439" lon="9.02278">
        <ele>716</ele>
        <time>2021-08-02T09:03:16.389Z</time>
      </trkpt>
      <trkpt lat="47.04391" lon="9.02277">
        <ele>716</ele>
        <time>2021-08-02T09:03:17.389Z</time>
      </trkpt>
      <trkpt lat="47.04392" lon="9.02275">
        <ele>716</ele>
        <time>2021-08-02T09:03:18.388Z</time>
      </trkpt>
      <trkpt lat="47.04393" lon="9.02273">
        <ele>717</ele>
        <time>2021-08-02T09:03:19.389Z</time>
      </trkpt>
      <trkpt lat="47.04393" lon="9.02272">
        <ele>717</ele>
        <time>2021-08-02T09:03:20.389Z</time>
      </trkpt>
      <trkpt lat="47.04392" lon="9.02271">
        <ele>718</ele>
        <time>2021-08-02T09:03:21.388Z</time>
      </trkpt>
      <trkpt lat="47.04391" lon="9.02271">
        <ele>718</ele>
        <time>2021-08-02T09:03:22.389Z</time>
      </trkpt>
      <trkpt lat="47.0439" lon="9.0227">
        <ele>719</ele>
        <time>2021-08-02T09:03:23.389Z</time>
      </trkpt>
      <trkpt lat="47.0439" lon="9.0227">
        <ele>719</ele>
        <time>2021-08-02T09:03:24.389Z</time>
      </trkpt>
      <trkpt lat="47.04389" lon="9.02268">
        <ele>719</ele>
        <time>2021-08-02T09:03:25.388Z</time>
      </trkpt>
      <trkpt lat="47.04389" lon="9.02268">
        <ele>719</ele>
        <time>2021-08-02T09:03:26.388Z</time>
      </trkpt>
      <trkpt lat="47.04389" lon="9.02268">
        <ele>719</ele>
        <time>2021-08-02T09:03:27.389Z</time>
      </trkpt>
      <trkpt lat="47.04389" lon="9.02267">
        <ele>719</ele>
        <time>2021-08-02T09:03:28.388Z</time>
      </trkpt>
      <trkpt lat="47.04388" lon="9.02267">
        <ele>719</ele>
        <time>2021-08-02T09:03:29.389Z</time>
      </trkpt>
      <trkpt lat="47.04387" lon="9.02266">
        <ele>719</ele>
        <time>2021-08-02T09:03:30.388Z</time>
      </trkpt>
      <trkpt lat="47.04386" lon="9.02265">
        <ele>719</ele>
        <time>2021-08-02T09:03:31.388Z</time>
      </trkpt>
      <trkpt lat="47.04385" lon="9.02264">
        <ele>719</ele>
        <time>2021-08-02T09:03:32.389Z</time>
      </trkpt>
      <trkpt lat="47.04385" lon="9.02265">
        <ele>720</ele>
        <time>2021-08-02T09:03:33.389Z</time>
      </trkpt>
      <trkpt lat="47.04385" lon="9.02265">
        <ele>721</ele>
        <time>2021-08-02T09:03:34.388Z</time>
      </trkpt>
      <trkpt lat="47.04384" lon="9.02265">
        <ele>722</ele>
        <time>2021-08-02T09:03:35.388Z</time>
      </trkpt>
      <trkpt lat="47.04384" lon="9.02264">
        <ele>722</ele>
        <time>2021-08-02T09:03:36.388Z</time>
      </trkpt>
      <trkpt lat="47.04384" lon="9.02264">
        <ele>723</ele>
        <time>2021-08-02T09:03:37.388Z</time>
      </trkpt>
      <trkpt lat="47.04384" lon="9.02263">
        <ele>724</ele>
        <time>2021-08-02T09:03:38.389Z</time>
      </trkpt>
      <trkpt lat="47.04384" lon="9.02262">
        <ele>724</ele>
        <time>2021-08-02T09:03:39.388Z</time>
      </trkpt>
      <trkpt lat="47.04384" lon="9.02262">
        <ele>725</ele>
        <time>2021-08-02T09:03:40.389Z</time>
      </trkpt>
      <trkpt lat="47.04384" lon="9.02261">
        <ele>725</ele>
        <time>2021-08-02T09:03:41.388Z</time>
      </trkpt>
      <trkpt lat="47.04384" lon="9.0226">
        <ele>725</ele>
        <time>2021-08-02T09:03:42.389Z</time>
      </trkpt>
      <trkpt lat="47.04383" lon="9.02259">
        <ele>726</ele>
        <time>2021-08-02T09:03:43.388Z</time>
      </trkpt>
      <trkpt lat="47.04383" lon="9.02258">
        <ele>726</ele>
        <time>2021-08-02T09:03:44.389Z</time>
      </trkpt>
      <trkpt lat="47.04382" lon="9.02258">
        <ele>726</ele>
        <time>2021-08-02T09:03:45.389Z</time>
      </trkpt>
      <trkpt lat="47.04382" lon="9.02257">
        <ele>727</ele>
        <time>2021-08-02T09:03:46.389Z</time>
      </trkpt>
      <trkpt lat="47.04381" lon="9.02256">
        <ele>727</ele>
        <time>2021-08-02T09:03:47.389Z</time>
      </trkpt>
      <trkpt lat="47.0438" lon="9.02256">
        <ele>727</ele>
        <time>2021-08-02T09:03:48.389Z</time>
      </trkpt>
      <trkpt lat="47.0438" lon="9.02256">
        <ele>727</ele>
        <time>2021-08-02T09:03:49.389Z</time>
      </trkpt>
      <trkpt lat="47.0438" lon="9.02255">
        <ele>727</ele>
        <time>2021-08-02T09:03:50.388Z</time>
      </trkpt>
      <trkpt lat="47.0438" lon="9.02255">
        <ele>728</ele>
        <time>2021-08-02T09:03:51.389Z</time>
      </trkpt>
      <trkpt lat="47.0438" lon="9.02253">
        <ele>727</ele>
        <time>2021-08-02T09:03:52.389Z</time>
      </trkpt>
      <trkpt lat="47.0438" lon="9.02252">
        <ele>727</ele>
        <time>2021-08-02T09:03:53.388Z</time>
      </trkpt>
      <trkpt lat="47.04379" lon="9.02251">
        <ele>727</ele>
        <time>2021-08-02T09:03:54.388Z</time>
      </trkpt>
      <trkpt lat="47.04379" lon="9.02249">
        <ele>727</ele>
        <time>2021-08-02T09:03:55.389Z</time>
      </trkpt>
      <trkpt lat="47.04379" lon="9.02248">
        <ele>726</ele>
        <time>2021-08-02T09:03:56.389Z</time>
      </trkpt>
      <trkpt lat="47.04379" lon="9.02247">
        <ele>727</ele>
        <time>2021-08-02T09:03:57.389Z</time>
      </trkpt>
      <trkpt lat="47.04379" lon="9.02246">
        <ele>727</ele>
        <time>2021-08-02T09:03:58.388Z</time>
      </trkpt>
      <trkpt lat="47.04378" lon="9.02244">
        <ele>727</ele>
        <time>2021-08-02T09:03:59.389Z</time>
      </trkpt>
      <trkpt lat="47.04378" lon="9.02243">
        <ele>728</ele>
        <time>2021-08-02T09:04:00.389Z</time>
      </trkpt>
      <trkpt lat="47.04378" lon="9.02241">
        <ele>728</ele>
        <time>2021-08-02T09:04:01.389Z</time>
      </trkpt>
      <trkpt lat="47.04378" lon="9.0224">
        <ele>729</ele>
        <time>2021-08-02T09:04:02.388Z</time>
      </trkpt>
      <trkpt lat="47.04377" lon="9.02239">
        <ele>729</ele>
        <time>2021-08-02T09:04:03.389Z</time>
      </trkpt>
      <trkpt lat="47.04377" lon="9.02238">
        <ele>729</ele>
        <time>2021-08-02T09:04:04.389Z</time>
      </trkpt>
      <trkpt lat="47.04376" lon="9.02238">
        <ele>729</ele>
        <time>2021-08-02T09:04:05.388Z</time>
      </trkpt>
      <trkpt lat="47.04376" lon="9.02238">
        <ele>729</ele>
        <time>2021-08-02T09:04:06.389Z</time>
      </trkpt>
      <trkpt lat="47.04376" lon="9.02238">
        <ele>729</ele>
        <time>2021-08-02T09:04:07.389Z</time>
      </trkpt>
      <trkpt lat="47.04375" lon="9.02237">
        <ele>729</ele>
        <time>2021-08-02T09:04:08.389Z</time>
      </trkpt>
      <trkpt lat="47.04374" lon="9.02236">
        <ele>729</ele>
        <time>2021-08-02T09:04:09.388Z</time>
      </trkpt>
      <trkpt lat="47.04373" lon="9.02234">
        <ele>730</ele>
        <time>2021-08-02T09:04:10.389Z</time>
      </trkpt>
      <trkpt lat="47.04372" lon="9.02234">
        <ele>730</ele>
        <time>2021-08-02T09:04:11.389Z</time>
      </trkpt>
      <trkpt lat="47.04371" lon="9.02234">
        <ele>730</ele>
        <time>2021-08-02T09:04:12.388Z</time>
      </trkpt>
      <trkpt lat="47.0437" lon="9.02233">
        <ele>730</ele>
        <time>2021-08-02T09:04:13.389Z</time>
      </trkpt>
      <trkpt lat="47.04368" lon="9.02232">
        <ele>731</ele>
        <time>2021-08-02T09:04:14.389Z</time>
      </trkpt>
      <trkpt lat="47.04367" lon="9.02232">
        <ele>731</ele>
        <time>2021-08-02T09:04:15.389Z</time>
      </trkpt>
      <trkpt lat="47.04366" lon="9.02231">
        <ele>731</ele>
        <time>2021-08-02T09:04:16.389Z</time>
      </trkpt>
      <trkpt lat="47.04365" lon="9.0223">
        <ele>732</ele>
        <time>2021-08-02T09:04:17.389Z</time>
      </trkpt>
      <trkpt lat="47.04365" lon="9.02228">
        <ele>732</ele>
        <time>2021-08-02T09:04:18.388Z</time>
      </trkpt>
      <trkpt lat="47.04365" lon="9.02227">
        <ele>732</ele>
        <time>2021-08-02T09:04:19.389Z</time>
      </trkpt>
      <trkpt lat="47.04365" lon="9.02226">
        <ele>732</ele>
        <time>2021-08-02T09:04:20.388Z</time>
      </trkpt>
      <trkpt lat="47.04365" lon="9.02225">
        <ele>732</ele>
        <time>2021-08-02T09:04:21.389Z</time>
      </trkpt>
      <trkpt lat="47.04365" lon="9.02224">
        <ele>733</ele>
        <time>2021-08-02T09:04:22.388Z</time>
      </trkpt>
      <trkpt lat="47.04365" lon="9.02223">
        <ele>733</ele>
        <time>2021-08-02T09:04:23.389Z</time>
      </trkpt>
      <trkpt lat="47.04364" lon="9.02222">
        <ele>733</ele>
        <time>2021-08-02T09:04:24.389Z</time>
      </trkpt>
      <trkpt lat="47.04363" lon="9.02222">
        <ele>733</ele>
        <time>2021-08-02T09:04:25.389Z</time>
      </trkpt>
      <trkpt lat="47.04362" lon="9.02222">
        <ele>733</ele>
        <time>2021-08-02T09:04:26.389Z</time>
      </trkpt>
      <trkpt lat="47.04361" lon="9.02222">
        <ele>734</ele>
        <time>2021-08-02T09:04:27.389Z</time>
      </trkpt>
      <trkpt lat="47.04361" lon="9.02222">
        <ele>734</ele>
        <time>2021-08-02T09:04:28.388Z</time>
      </trkpt>
      <trkpt lat="47.04361" lon="9.0222">
        <ele>734</ele>
        <time>2021-08-02T09:04:29.389Z</time>
      </trkpt>
      <trkpt lat="47.0436" lon="9.02218">
        <ele>734</ele>
        <time>2021-08-02T09:04:30.388Z</time>
      </trkpt>
      <trkpt lat="47.0436" lon="9.02215">
        <ele>734</ele>
        <time>2021-08-02T09:04:31.389Z</time>
      </trkpt>
      <trkpt lat="47.0436" lon="9.02213">
        <ele>734</ele>
        <time>2021-08-02T09:04:32.389Z</time>
      </trkpt>
      <trkpt lat="47.04359" lon="9.02212">
        <ele>735</ele>
        <time>2021-08-02T09:04:33.388Z</time>
      </trkpt>
      <trkpt lat="47.04359" lon="9.02211">
        <ele>735</ele>
        <time>2021-08-02T09:04:34.389Z</time>
      </trkpt>
      <trkpt lat="47.04359" lon="9.0221">
        <ele>735</ele>
        <time>2021-08-02T09:04:35.389Z</time>
      </trkpt>
      <trkpt lat="47.04358" lon="9.02208">
        <ele>735</ele>
        <time>2021-08-02T09:04:36.388Z</time>
      </trkpt>
      <trkpt lat="47.04357" lon="9.02207">
        <ele>735</ele>
        <time>2021-08-02T09:04:37.389Z</time>
      </trkpt>
      <trkpt lat="47.04357" lon="9.02206">
        <ele>736</ele>
        <time>2021-08-02T09:04:38.389Z</time>
      </trkpt>
      <trkpt lat="47.04357" lon="9.02204">
        <ele>736</ele>
        <time>2021-08-02T09:04:39.388Z</time>
      </trkpt>
      <trkpt lat="47.04357" lon="9.02202">
        <ele>736</ele>
        <time>2021-08-02T09:04:40.389Z</time>
      </trkpt>
      <trkpt lat="47.04356" lon="9.02201">
        <ele>736</ele>
        <time>2021-08-02T09:04:41.389Z</time>
      </trkpt>
      <trkpt lat="47.04356" lon="9.022">
        <ele>736</ele>
        <time>2021-08-02T09:04:42.388Z</time>
      </trkpt>
      <trkpt lat="47.04356" lon="9.02199">
        <ele>736</ele>
        <time>2021-08-02T09:04:43.389Z</time>
      </trkpt>
      <trkpt lat="47.04356" lon="9.02199">
        <ele>736</ele>
        <time>2021-08-02T09:04:44.389Z</time>
      </trkpt>
      <trkpt lat="47.04355" lon="9.02198">
        <ele>736</ele>
        <time>2021-08-02T09:04:45.388Z</time>
      </trkpt>
      <trkpt lat="47.04355" lon="9.02197">
        <ele>735</ele>
        <time>2021-08-02T09:04:46.388Z</time>
      </trkpt>
      <trkpt lat="47.04355" lon="9.02197">
        <ele>735</ele>
        <time>2021-08-02T09:04:47.388Z</time>
      </trkpt>
      <trkpt lat="47.04354" lon="9.02196">
        <ele>735</ele>
        <time>2021-08-02T09:04:48.388Z</time>
      </trkpt>
      <trkpt lat="47.04353" lon="9.02195">
        <ele>735</ele>
        <time>2021-08-02T09:04:49.389Z</time>
      </trkpt>
      <trkpt lat="47.04353" lon="9.02194">
        <ele>734</ele>
        <time>2021-08-02T09:04:50.389Z</time>
      </trkpt>
      <trkpt lat="47.04352" lon="9.02193">
        <ele>734</ele>
        <time>2021-08-02T09:04:51.388Z</time>
      </trkpt>
      <trkpt lat="47.04352" lon="9.02192">
        <ele>734</ele>
        <time>2021-08-02T09:04:52.389Z</time>
      </trkpt>
      <trkpt lat="47.04351" lon="9.0219">
        <ele>734</ele>
        <time>2021-08-02T09:04:53.388Z</time>
      </trkpt>
      <trkpt lat="47.04351" lon="9.02188">
        <ele>733</ele>
        <time>2021-08-02T09:04:54.389Z</time>
      </trkpt>
      <trkpt lat="47.0435" lon="9.02187">
        <ele>733</ele>
        <time>2021-08-02T09:04:55.388Z</time>
      </trkpt>
      <trkpt lat="47.04351" lon="9.02186">
        <ele>732</ele>
        <time>2021-08-02T09:04:56.388Z</time>
      </trkpt>
      <trkpt lat="47.04351" lon="9.02185">
        <ele>732</ele>
        <time>2021-08-02T09:04:57.389Z</time>
      </trkpt>
      <trkpt lat="47.04352" lon="9.02183">
        <ele>732</ele>
        <time>2021-08-02T09:04:58.389Z</time>
      </trkpt>
      <trkpt lat="47.04351" lon="9.02182">
        <ele>731</ele>
        <time>2021-08-02T09:04:59.388Z</time>
      </trkpt>
      <trkpt lat="47.04351" lon="9.02179">
        <ele>731</ele>
        <time>2021-08-02T09:05:00.388Z</time>
      </trkpt>
      <trkpt lat="47.0435" lon="9.02177">
        <ele>731</ele>
        <time>2021-08-02T09:05:01.389Z</time>
      </trkpt>
      <trkpt lat="47.04351" lon="9.02175">
        <ele>731</ele>
        <time>2021-08-02T09:05:02.389Z</time>
      </trkpt>
      <trkpt lat="47.04351" lon="9.02173">
        <ele>731</ele>
        <time>2021-08-02T09:05:03.388Z</time>
      </trkpt>
      <trkpt lat="47.0435" lon="9.02172">
        <ele>732</ele>
        <time>2021-08-02T09:05:04.388Z</time>
      </trkpt>
      <trkpt lat="47.04349" lon="9.0217">
        <ele>732</ele>
        <time>2021-08-02T09:05:05.388Z</time>
      </trkpt>
      <trkpt lat="47.04349" lon="9.0217">
        <ele>732</ele>
        <time>2021-08-02T09:05:06.388Z</time>
      </trkpt>
      <trkpt lat="47.04349" lon="9.02169">
        <ele>732</ele>
        <time>2021-08-02T09:05:07.389Z</time>
      </trkpt>
      <trkpt lat="47.04348" lon="9.02168">
        <ele>732</ele>
        <time>2021-08-02T09:05:08.389Z</time>
      </trkpt>
      <trkpt lat="47.04348" lon="9.02168">
        <ele>732</ele>
        <time>2021-08-02T09:05:09.388Z</time>
      </trkpt>
      <trkpt lat="47.04348" lon="9.02167">
        <ele>732</ele>
        <time>2021-08-02T09:05:10.389Z</time>
      </trkpt>
      <trkpt lat="47.04348" lon="9.02166">
        <ele>732</ele>
        <time>2021-08-02T09:05:11.389Z</time>
      </trkpt>
      <trkpt lat="47.04348" lon="9.02165">
        <ele>732</ele>
        <time>2021-08-02T09:05:12.388Z</time>
      </trkpt>
      <trkpt lat="47.04347" lon="9.02164">
        <ele>732</ele>
        <time>2021-08-02T09:05:13.388Z</time>
      </trkpt>
      <trkpt lat="47.04347" lon="9.02163">
        <ele>732</ele>
        <time>2021-08-02T09:05:14.388Z</time>
      </trkpt>
      <trkpt lat="47.04346" lon="9.02161">
        <ele>733</ele>
        <time>2021-08-02T09:05:15.389Z</time>
      </trkpt>
      <trkpt lat="47.04345" lon="9.02159">
        <ele>733</ele>
        <time>2021-08-02T09:05:16.389Z</time>
      </trkpt>
      <trkpt lat="47.04344" lon="9.02158">
        <ele>734</ele>
        <time>2021-08-02T09:05:17.389Z</time>
      </trkpt>
      <trkpt lat="47.04343" lon="9.02157">
        <ele>734</ele>
        <time>2021-08-02T09:05:18.388Z</time>
      </trkpt>
      <trkpt lat="47.04342" lon="9.02157">
        <ele>735</ele>
        <time>2021-08-02T09:05:19.388Z</time>
      </trkpt>
      <trkpt lat="47.04341" lon="9.02156">
        <ele>736</ele>
        <time>2021-08-02T09:05:20.389Z</time>
      </trkpt>
      <trkpt lat="47.04341" lon="9.02155">
        <ele>736</ele>
        <time>2021-08-02T09:05:21.388Z</time>
      </trkpt>
      <trkpt lat="47.0434" lon="9.02155">
        <ele>737</ele>
        <time>2021-08-02T09:05:22.389Z</time>
      </trkpt>
      <trkpt lat="47.0434" lon="9.02155">
        <ele>737</ele>
        <time>2021-08-02T09:05:23.389Z</time>
      </trkpt>
      <trkpt lat="47.0434" lon="9.02155">
        <ele>739</ele>
        <time>2021-08-02T09:05:24.389Z</time>
      </trkpt>
      <trkpt lat="47.04339" lon="9.02157">
        <ele>739</ele>
        <time>2021-08-02T09:05:25.389Z</time>
      </trkpt>
      <trkpt lat="47.04339" lon="9.02157">
        <ele>739</ele>
        <time>2021-08-02T09:05:26.389Z</time>
      </trkpt>
      <trkpt lat="47.04339" lon="9.02157">
        <ele>739</ele>
        <time>2021-08-02T09:05:27.390Z</time>
      </trkpt>
      <trkpt lat="47.04339" lon="9.02157">
        <ele>736</ele>
        <time>2021-08-02T09:05:28.391Z</time>
      </trkpt>
      <trkpt lat="47.04338" lon="9.02157">
        <ele>735</ele>
        <time>2021-08-02T09:05:29.390Z</time>
      </trkpt>
      <trkpt lat="47.04337" lon="9.02158">
        <ele>735</ele>
        <time>2021-08-02T09:05:30.390Z</time>
      </trkpt>
      <trkpt lat="47.04336" lon="9.0216">
        <ele>735</ele>
        <time>2021-08-02T09:05:31.391Z</time>
      </trkpt>
      <trkpt lat="47.04335" lon="9.02161">
        <ele>735</ele>
        <time>2021-08-02T09:05:32.391Z</time>
      </trkpt>
      <trkpt lat="47.04334" lon="9.02162">
        <ele>735</ele>
        <time>2021-08-02T09:05:33.391Z</time>
      </trkpt>
      <trkpt lat="47.04334" lon="9.02161">
        <ele>735</ele>
        <time>2021-08-02T09:05:34.391Z</time>
      </trkpt>
      <trkpt lat="47.04334" lon="9.02161">
        <ele>734</ele>
        <time>2021-08-02T09:05:35.390Z</time>
      </trkpt>
      <trkpt lat="47.04341" lon="9.02153">
        <ele>745</ele>
        <time>2021-08-02T09:05:36.391Z</time>
      </trkpt>
      <trkpt lat="47.04341" lon="9.02153">
        <ele>745</ele>
        <time>2021-08-02T09:05:37.391Z</time>
      </trkpt>
      <trkpt lat="47.0434" lon="9.02152">
        <ele>746</ele>
        <time>2021-08-02T09:05:38.390Z</time>
      </trkpt>
      <trkpt lat="47.04337" lon="9.02159">
        <ele>750</ele>
        <time>2021-08-02T09:05:39.392Z</time>
      </trkpt>
      <trkpt lat="47.04337" lon="9.02159">
        <ele>750</ele>
        <time>2021-08-02T09:05:40.391Z</time>
      </trkpt>
      <trkpt lat="47.04337" lon="9.02159">
        <ele>751</ele>
        <time>2021-08-02T09:05:41.392Z</time>
      </trkpt>
      <trkpt lat="47.04337" lon="9.02159">
        <ele>751</ele>
        <time>2021-08-02T09:05:42.392Z</time>
      </trkpt>
      <trkpt lat="47.04337" lon="9.0216">
        <ele>751</ele>
        <time>2021-08-02T09:05:43.391Z</time>
      </trkpt>
      <trkpt lat="47.04337" lon="9.0216">
        <ele>751</ele>
        <time>2021-08-02T09:05:44.391Z</time>
      </trkpt>
      <trkpt lat="47.04337" lon="9.02159">
        <ele>751</ele>
        <time>2021-08-02T09:05:45.392Z</time>
      </trkpt>
      <trkpt lat="47.04337" lon="9.02159">
        <ele>751</ele>
        <time>2021-08-02T09:05:46.392Z</time>
      </trkpt>
      <trkpt lat="47.04336" lon="9.02158">
        <ele>752</ele>
        <time>2021-08-02T09:05:47.393Z</time>
      </trkpt>
      <trkpt lat="47.04335" lon="9.02158">
        <ele>752</ele>
        <time>2021-08-02T09:05:48.393Z</time>
      </trkpt>
      <trkpt lat="47.04334" lon="9.02157">
        <ele>751</ele>
        <time>2021-08-02T09:05:49.392Z</time>
      </trkpt>
      <trkpt lat="47.04334" lon="9.02157">
        <ele>751</ele>
        <time>2021-08-02T09:05:50.393Z</time>
      </trkpt>
      <trkpt lat="47.04333" lon="9.02156">
        <ele>750</ele>
        <time>2021-08-02T09:05:51.393Z</time>
      </trkpt>
      <trkpt lat="47.04332" lon="9.02155">
        <ele>749</ele>
        <time>2021-08-02T09:05:52.393Z</time>
      </trkpt>
      <trkpt lat="47.04332" lon="9.02153">
        <ele>748</ele>
        <time>2021-08-02T09:05:53.392Z</time>
      </trkpt>
      <trkpt lat="47.04332" lon="9.02152">
        <ele>747</ele>
        <time>2021-08-02T09:05:54.392Z</time>
      </trkpt>
      <trkpt lat="47.04332" lon="9.02151">
        <ele>746</ele>
        <time>2021-08-02T09:05:55.393Z</time>
      </trkpt>
      <trkpt lat="47.04331" lon="9.0215">
        <ele>745</ele>
        <time>2021-08-02T09:05:56.393Z</time>
      </trkpt>
      <trkpt lat="47.04331" lon="9.0215">
        <ele>745</ele>
        <time>2021-08-02T09:05:57.393Z</time>
      </trkpt>
      <trkpt lat="47.04331" lon="9.02148">
        <ele>744</ele>
        <time>2021-08-02T09:05:58.393Z</time>
      </trkpt>
      <trkpt lat="47.0433" lon="9.02147">
        <ele>743</ele>
        <time>2021-08-02T09:05:59.392Z</time>
      </trkpt>
      <trkpt lat="47.04329" lon="9.02146">
        <ele>742</ele>
        <time>2021-08-02T09:06:00.392Z</time>
      </trkpt>
      <trkpt lat="47.04329" lon="9.02145">
        <ele>742</ele>
        <time>2021-08-02T09:06:01.393Z</time>
      </trkpt>
      <trkpt lat="47.04328" lon="9.02144">
        <ele>741</ele>
        <time>2021-08-02T09:06:02.393Z</time>
      </trkpt>
      <trkpt lat="47.04328" lon="9.02144">
        <ele>740</ele>
        <time>2021-08-02T09:06:03.392Z</time>
      </trkpt>
      <trkpt lat="47.04327" lon="9.02143">
        <ele>740</ele>
        <time>2021-08-02T09:06:04.392Z</time>
      </trkpt>
      <trkpt lat="47.04326" lon="9.02142">
        <ele>739</ele>
        <time>2021-08-02T09:06:05.393Z</time>
      </trkpt>
      <trkpt lat="47.04324" lon="9.02141">
        <ele>738</ele>
        <time>2021-08-02T09:06:06.392Z</time>
      </trkpt>
      <trkpt lat="47.04323" lon="9.02141">
        <ele>737</ele>
        <time>2021-08-02T09:06:07.393Z</time>
      </trkpt>
      <trkpt lat="47.04322" lon="9.0214">
        <ele>737</ele>
        <time>2021-08-02T09:06:08.393Z</time>
      </trkpt>
      <trkpt lat="47.04321" lon="9.02139">
        <ele>736</ele>
        <time>2021-08-02T09:06:09.393Z</time>
      </trkpt>
      <trkpt lat="47.04321" lon="9.02139">
        <ele>736</ele>
        <time>2021-08-02T09:06:10.392Z</time>
      </trkpt>
      <trkpt lat="47.0432" lon="9.02138">
        <ele>735</ele>
        <time>2021-08-02T09:06:11.393Z</time>
      </trkpt>
      <trkpt lat="47.04319" lon="9.02137">
        <ele>735</ele>
        <time>2021-08-02T09:06:12.393Z</time>
      </trkpt>
      <trkpt lat="47.04319" lon="9.02136">
        <ele>735</ele>
        <time>2021-08-02T09:06:13.393Z</time>
      </trkpt>
      <trkpt lat="47.04319" lon="9.02134">
        <ele>734</ele>
        <time>2021-08-02T09:06:14.393Z</time>
      </trkpt>
      <trkpt lat="47.04318" lon="9.02133">
        <ele>734</ele>
        <time>2021-08-02T09:06:15.393Z</time>
      </trkpt>
      <trkpt lat="47.04317" lon="9.02132">
        <ele>733</ele>
        <time>2021-08-02T09:06:16.393Z</time>
      </trkpt>
      <trkpt lat="47.04317" lon="9.02131">
        <ele>732</ele>
        <time>2021-08-02T09:06:17.393Z</time>
      </trkpt>
      <trkpt lat="47.04316" lon="9.0213">
        <ele>732</ele>
        <time>2021-08-02T09:06:18.393Z</time>
      </trkpt>
      <trkpt lat="47.04316" lon="9.02129">
        <ele>731</ele>
        <time>2021-08-02T09:06:19.392Z</time>
      </trkpt>
      <trkpt lat="47.04315" lon="9.02128">
        <ele>730</ele>
        <time>2021-08-02T09:06:20.392Z</time>
      </trkpt>
      <trkpt lat="47.04315" lon="9.02126">
        <ele>729</ele>
        <time>2021-08-02T09:06:21.392Z</time>
      </trkpt>
      <trkpt lat="47.04315" lon="9.02126">
        <ele>729</ele>
        <time>2021-08-02T09:06:22.393Z</time>
      </trkpt>
      <trkpt lat="47.04315" lon="9.02124">
        <ele>728</ele>
        <time>2021-08-02T09:06:23.392Z</time>
      </trkpt>
      <trkpt lat="47.04314" lon="9.02123">
        <ele>728</ele>
        <time>2021-08-02T09:06:24.393Z</time>
      </trkpt>
      <trkpt lat="47.04313" lon="9.02122">
        <ele>727</ele>
        <time>2021-08-02T09:06:25.393Z</time>
      </trkpt>
      <trkpt lat="47.04312" lon="9.0212">
        <ele>727</ele>
        <time>2021-08-02T09:06:26.393Z</time>
      </trkpt>
      <trkpt lat="47.04312" lon="9.02119">
        <ele>727</ele>
        <time>2021-08-02T09:06:27.393Z</time>
      </trkpt>
      <trkpt lat="47.04311" lon="9.02118">
        <ele>726</ele>
        <time>2021-08-02T09:06:28.393Z</time>
      </trkpt>
      <trkpt lat="47.04311" lon="9.02116">
        <ele>726</ele>
        <time>2021-08-02T09:06:29.393Z</time>
      </trkpt>
      <trkpt lat="47.04311" lon="9.02115">
        <ele>725</ele>
        <time>2021-08-02T09:06:30.393Z</time>
      </trkpt>
      <trkpt lat="47.0431" lon="9.02114">
        <ele>724</ele>
        <time>2021-08-02T09:06:31.393Z</time>
      </trkpt>
      <trkpt lat="47.04309" lon="9.02113">
        <ele>724</ele>
        <time>2021-08-02T09:06:32.393Z</time>
      </trkpt>
      <trkpt lat="47.04309" lon="9.02114">
        <ele>723</ele>
        <time>2021-08-02T09:06:33.393Z</time>
      </trkpt>
      <trkpt lat="47.04308" lon="9.02113">
        <ele>723</ele>
        <time>2021-08-02T09:06:34.393Z</time>
      </trkpt>
      <trkpt lat="47.04308" lon="9.02113">
        <ele>723</ele>
        <time>2021-08-02T09:06:35.393Z</time>
      </trkpt>
      <trkpt lat="47.04308" lon="9.02112">
        <ele>723</ele>
        <time>2021-08-02T09:06:36.392Z</time>
      </trkpt>
      <trkpt lat="47.04308" lon="9.02111">
        <ele>723</ele>
        <time>2021-08-02T09:06:37.393Z</time>
      </trkpt>
      <trkpt lat="47.04307" lon="9.0211">
        <ele>724</ele>
        <time>2021-08-02T09:06:38.392Z</time>
      </trkpt>
      <trkpt lat="47.04307" lon="9.02109">
        <ele>724</ele>
        <time>2021-08-02T09:06:39.393Z</time>
      </trkpt>
      <trkpt lat="47.04306" lon="9.02109">
        <ele>724</ele>
        <time>2021-08-02T09:06:40.393Z</time>
      </trkpt>
      <trkpt lat="47.04305" lon="9.02109">
        <ele>725</ele>
        <time>2021-08-02T09:06:41.392Z</time>
      </trkpt>
      <trkpt lat="47.04304" lon="9.02108">
        <ele>725</ele>
        <time>2021-08-02T09:06:42.392Z</time>
      </trkpt>
      <trkpt lat="47.04304" lon="9.02108">
        <ele>725</ele>
        <time>2021-08-02T09:06:43.393Z</time>
      </trkpt>
      <trkpt lat="47.04303" lon="9.02107">
        <ele>726</ele>
        <time>2021-08-02T09:06:44.393Z</time>
      </trkpt>
      <trkpt lat="47.04302" lon="9.02106">
        <ele>726</ele>
        <time>2021-08-02T09:06:45.392Z</time>
      </trkpt>
      <trkpt lat="47.04301" lon="9.02104">
        <ele>727</ele>
        <time>2021-08-02T09:06:46.392Z</time>
      </trkpt>
      <trkpt lat="47.043" lon="9.02103">
        <ele>727</ele>
        <time>2021-08-02T09:06:47.393Z</time>
      </trkpt>
      <trkpt lat="47.04299" lon="9.02102">
        <ele>727</ele>
        <time>2021-08-02T09:06:48.392Z</time>
      </trkpt>
      <trkpt lat="47.04299" lon="9.021">
        <ele>728</ele>
        <time>2021-08-02T09:06:49.392Z</time>
      </trkpt>
      <trkpt lat="47.04298" lon="9.02099">
        <ele>728</ele>
        <time>2021-08-02T09:06:50.393Z</time>
      </trkpt>
      <trkpt lat="47.04297" lon="9.02098">
        <ele>728</ele>
        <time>2021-08-02T09:06:51.393Z</time>
      </trkpt>
      <trkpt lat="47.04297" lon="9.02098">
        <ele>729</ele>
        <time>2021-08-02T09:06:52.393Z</time>
      </trkpt>
      <trkpt lat="47.04296" lon="9.02097">
        <ele>729</ele>
        <time>2021-08-02T09:06:53.393Z</time>
      </trkpt>
      <trkpt lat="47.04295" lon="9.02096">
        <ele>729</ele>
        <time>2021-08-02T09:06:54.393Z</time>
      </trkpt>
      <trkpt lat="47.04294" lon="9.02096">
        <ele>730</ele>
        <time>2021-08-02T09:06:55.393Z</time>
      </trkpt>
      <trkpt lat="47.04294" lon="9.02094">
        <ele>730</ele>
        <time>2021-08-02T09:06:56.392Z</time>
      </trkpt>
      <trkpt lat="47.04293" lon="9.02092">
        <ele>730</ele>
        <time>2021-08-02T09:06:57.392Z</time>
      </trkpt>
      <trkpt lat="47.04292" lon="9.02091">
        <ele>730</ele>
        <time>2021-08-02T09:06:58.393Z</time>
      </trkpt>
      <trkpt lat="47.04292" lon="9.0209">
        <ele>730</ele>
        <time>2021-08-02T09:06:59.393Z</time>
      </trkpt>
      <trkpt lat="47.04293" lon="9.02089">
        <ele>730</ele>
        <time>2021-08-02T09:07:00.393Z</time>
      </trkpt>
      <trkpt lat="47.04292" lon="9.02087">
        <ele>730</ele>
        <time>2021-08-02T09:07:01.393Z</time>
      </trkpt>
      <trkpt lat="47.04292" lon="9.02086">
        <ele>729</ele>
        <time>2021-08-02T09:07:02.393Z</time>
      </trkpt>
      <trkpt lat="47.04291" lon="9.02085">
        <ele>728</ele>
        <time>2021-08-02T09:07:03.393Z</time>
      </trkpt>
      <trkpt lat="47.0429" lon="9.02085">
        <ele>728</ele>
        <time>2021-08-02T09:07:04.392Z</time>
      </trkpt>
      <trkpt lat="47.0429" lon="9.02084">
        <ele>728</ele>
        <time>2021-08-02T09:07:05.393Z</time>
      </trkpt>
      <trkpt lat="47.04289" lon="9.02084">
        <ele>727</ele>
        <time>2021-08-02T09:07:06.392Z</time>
      </trkpt>
      <trkpt lat="47.04289" lon="9.02083">
        <ele>727</ele>
        <time>2021-08-02T09:07:07.392Z</time>
      </trkpt>
      <trkpt lat="47.04289" lon="9.02082">
        <ele>727</ele>
        <time>2021-08-02T09:07:08.393Z</time>
      </trkpt>
      <trkpt lat="47.04288" lon="9.02081">
        <ele>728</ele>
        <time>2021-08-02T09:07:09.393Z</time>
      </trkpt>
      <trkpt lat="47.04288" lon="9.02079">
        <ele>728</ele>
        <time>2021-08-02T09:07:10.393Z</time>
      </trkpt>
      <trkpt lat="47.04289" lon="9.02077">
        <ele>728</ele>
        <time>2021-08-02T09:07:11.393Z</time>
      </trkpt>
      <trkpt lat="47.04289" lon="9.02075">
        <ele>729</ele>
        <time>2021-08-02T09:07:12.393Z</time>
      </trkpt>
      <trkpt lat="47.04289" lon="9.02074">
        <ele>730</ele>
        <time>2021-08-02T09:07:13.393Z</time>
      </trkpt>
      <trkpt lat="47.04289" lon="9.02074">
        <ele>730</ele>
        <time>2021-08-02T09:07:14.393Z</time>
      </trkpt>
      <trkpt lat="47.04289" lon="9.02072">
        <ele>731</ele>
        <time>2021-08-02T09:07:15.393Z</time>
      </trkpt>
      <trkpt lat="47.04289" lon="9.02071">
        <ele>732</ele>
        <time>2021-08-02T09:07:16.392Z</time>
      </trkpt>
      <trkpt lat="47.04288" lon="9.0207">
        <ele>732</ele>
        <time>2021-08-02T09:07:17.393Z</time>
      </trkpt>
      <trkpt lat="47.04288" lon="9.02068">
        <ele>733</ele>
        <time>2021-08-02T09:07:18.393Z</time>
      </trkpt>
      <trkpt lat="47.04287" lon="9.02067">
        <ele>734</ele>
        <time>2021-08-02T09:07:19.393Z</time>
      </trkpt>
      <trkpt lat="47.04286" lon="9.02067">
        <ele>735</ele>
        <time>2021-08-02T09:07:20.393Z</time>
      </trkpt>
      <trkpt lat="47.04285" lon="9.02066">
        <ele>736</ele>
        <time>2021-08-02T09:07:21.393Z</time>
      </trkpt>
      <trkpt lat="47.04284" lon="9.02066">
        <ele>737</ele>
        <time>2021-08-02T09:07:22.392Z</time>
      </trkpt>
      <trkpt lat="47.04284" lon="9.02065">
        <ele>737</ele>
        <time>2021-08-02T09:07:23.393Z</time>
      </trkpt>
      <trkpt lat="47.04283" lon="9.02064">
        <ele>738</ele>
        <time>2021-08-02T09:07:24.392Z</time>
      </trkpt>
      <trkpt lat="47.04282" lon="9.02061">
        <ele>738</ele>
        <time>2021-08-02T09:07:25.392Z</time>
      </trkpt>
      <trkpt lat="47.04283" lon="9.02059">
        <ele>738</ele>
        <time>2021-08-02T09:07:26.392Z</time>
      </trkpt>
      <trkpt lat="47.04283" lon="9.02057">
        <ele>738</ele>
        <time>2021-08-02T09:07:27.393Z</time>
      </trkpt>
      <trkpt lat="47.04284" lon="9.02055">
        <ele>739</ele>
        <time>2021-08-02T09:07:28.392Z</time>
      </trkpt>
      <trkpt lat="47.04283" lon="9.02054">
        <ele>739</ele>
        <time>2021-08-02T09:07:29.393Z</time>
      </trkpt>
      <trkpt lat="47.04283" lon="9.02052">
        <ele>739</ele>
        <time>2021-08-02T09:07:30.392Z</time>
      </trkpt>
      <trkpt lat="47.04284" lon="9.0205">
        <ele>739</ele>
        <time>2021-08-02T09:07:31.392Z</time>
      </trkpt>
      <trkpt lat="47.04284" lon="9.02049">
        <ele>739</ele>
        <time>2021-08-02T09:07:32.393Z</time>
      </trkpt>
      <trkpt lat="47.04284" lon="9.02047">
        <ele>739</ele>
        <time>2021-08-02T09:07:33.393Z</time>
      </trkpt>
      <trkpt lat="47.04285" lon="9.02046">
        <ele>739</ele>
        <time>2021-08-02T09:07:34.393Z</time>
      </trkpt>
      <trkpt lat="47.04284" lon="9.02045">
        <ele>740</ele>
        <time>2021-08-02T09:07:35.393Z</time>
      </trkpt>
      <trkpt lat="47.04284" lon="9.02043">
        <ele>740</ele>
        <time>2021-08-02T09:07:36.393Z</time>
      </trkpt>
      <trkpt lat="47.04284" lon="9.02043">
        <ele>740</ele>
        <time>2021-08-02T09:07:37.392Z</time>
      </trkpt>
      <trkpt lat="47.04283" lon="9.02043">
        <ele>740</ele>
        <time>2021-08-02T09:07:38.392Z</time>
      </trkpt>
      <trkpt lat="47.04283" lon="9.02043">
        <ele>740</ele>
        <time>2021-08-02T09:07:39.393Z</time>
      </trkpt>
      <trkpt lat="47.04283" lon="9.02043">
        <ele>741</ele>
        <time>2021-08-02T09:07:40.392Z</time>
      </trkpt>
      <trkpt lat="47.04282" lon="9.02042">
        <ele>741</ele>
        <time>2021-08-02T09:07:41.393Z</time>
      </trkpt>
      <trkpt lat="47.04281" lon="9.02041">
        <ele>740</ele>
        <time>2021-08-02T09:07:42.392Z</time>
      </trkpt>
      <trkpt lat="47.04281" lon="9.02039">
        <ele>740</ele>
        <time>2021-08-02T09:07:43.392Z</time>
      </trkpt>
      <trkpt lat="47.0428" lon="9.02038">
        <ele>740</ele>
        <time>2021-08-02T09:07:44.393Z</time>
      </trkpt>
      <trkpt lat="47.0428" lon="9.02036">
        <ele>740</ele>
        <time>2021-08-02T09:07:45.393Z</time>
      </trkpt>
      <trkpt lat="47.0428" lon="9.02035">
        <ele>740</ele>
        <time>2021-08-02T09:07:46.393Z</time>
      </trkpt>
      <trkpt lat="47.04279" lon="9.02034">
        <ele>740</ele>
        <time>2021-08-02T09:07:47.393Z</time>
      </trkpt>
      <trkpt lat="47.04278" lon="9.02033">
        <ele>741</ele>
        <time>2021-08-02T09:07:48.393Z</time>
      </trkpt>
      <trkpt lat="47.04277" lon="9.02033">
        <ele>741</ele>
        <time>2021-08-02T09:07:49.392Z</time>
      </trkpt>
      <trkpt lat="47.04276" lon="9.02033">
        <ele>741</ele>
        <time>2021-08-02T09:07:50.392Z</time>
      </trkpt>
      <trkpt lat="47.04275" lon="9.02032">
        <ele>741</ele>
        <time>2021-08-02T09:07:51.392Z</time>
      </trkpt>
      <trkpt lat="47.04274" lon="9.02032">
        <ele>742</ele>
        <time>2021-08-02T09:07:52.393Z</time>
      </trkpt>
      <trkpt lat="47.04274" lon="9.02031">
        <ele>742</ele>
        <time>2021-08-02T09:07:53.393Z</time>
      </trkpt>
      <trkpt lat="47.04274" lon="9.0203">
        <ele>742</ele>
        <time>2021-08-02T09:07:54.393Z</time>
      </trkpt>
      <trkpt lat="47.04274" lon="9.02029">
        <ele>743</ele>
        <time>2021-08-02T09:07:55.392Z</time>
      </trkpt>
      <trkpt lat="47.04274" lon="9.02027">
        <ele>743</ele>
        <time>2021-08-02T09:07:56.393Z</time>
      </trkpt>
      <trkpt lat="47.04274" lon="9.02024">
        <ele>743</ele>
        <time>2021-08-02T09:07:57.393Z</time>
      </trkpt>
      <trkpt lat="47.04273" lon="9.02022">
        <ele>743</ele>
        <time>2021-08-02T09:07:58.393Z</time>
      </trkpt>
      <trkpt lat="47.04272" lon="9.02019">
        <ele>743</ele>
        <time>2021-08-02T09:07:59.393Z</time>
      </trkpt>
      <trkpt lat="47.04271" lon="9.02016">
        <ele>743</ele>
        <time>2021-08-02T09:08:00.393Z</time>
      </trkpt>
      <trkpt lat="47.0427" lon="9.02015">
        <ele>743</ele>
        <time>2021-08-02T09:08:01.392Z</time>
      </trkpt>
      <trkpt lat="47.04268" lon="9.02014">
        <ele>743</ele>
        <time>2021-08-02T09:08:02.393Z</time>
      </trkpt>
      <trkpt lat="47.04267" lon="9.02014">
        <ele>743</ele>
        <time>2021-08-02T09:08:03.392Z</time>
      </trkpt>
      <trkpt lat="47.04266" lon="9.02013">
        <ele>743</ele>
        <time>2021-08-02T09:08:04.392Z</time>
      </trkpt>
      <trkpt lat="47.04265" lon="9.02013">
        <ele>744</ele>
        <time>2021-08-02T09:08:05.393Z</time>
      </trkpt>
      <trkpt lat="47.04264" lon="9.02012">
        <ele>744</ele>
        <time>2021-08-02T09:08:06.393Z</time>
      </trkpt>
      <trkpt lat="47.04263" lon="9.02011">
        <ele>744</ele>
        <time>2021-08-02T09:08:07.392Z</time>
      </trkpt>
      <trkpt lat="47.04262" lon="9.0201">
        <ele>744</ele>
        <time>2021-08-02T09:08:08.393Z</time>
      </trkpt>
      <trkpt lat="47.04261" lon="9.02008">
        <ele>744</ele>
        <time>2021-08-02T09:08:09.393Z</time>
      </trkpt>
      <trkpt lat="47.0426" lon="9.02007">
        <ele>745</ele>
        <time>2021-08-02T09:08:10.393Z</time>
      </trkpt>
      <trkpt lat="47.0426" lon="9.02006">
        <ele>745</ele>
        <time>2021-08-02T09:08:11.392Z</time>
      </trkpt>
      <trkpt lat="47.04259" lon="9.02006">
        <ele>745</ele>
        <time>2021-08-02T09:08:12.392Z</time>
      </trkpt>
      <trkpt lat="47.04258" lon="9.02006">
        <ele>745</ele>
        <time>2021-08-02T09:08:13.393Z</time>
      </trkpt>
      <trkpt lat="47.04257" lon="9.02005">
        <ele>745</ele>
        <time>2021-08-02T09:08:14.393Z</time>
      </trkpt>
      <trkpt lat="47.04257" lon="9.02004">
        <ele>745</ele>
        <time>2021-08-02T09:08:15.393Z</time>
      </trkpt>
      <trkpt lat="47.04257" lon="9.02004">
        <ele>745</ele>
        <time>2021-08-02T09:08:16.392Z</time>
      </trkpt>
      <trkpt lat="47.04256" lon="9.02004">
        <ele>746</ele>
        <time>2021-08-02T09:08:17.393Z</time>
      </trkpt>
      <trkpt lat="47.04255" lon="9.02003">
        <ele>746</ele>
        <time>2021-08-02T09:08:18.393Z</time>
      </trkpt>
      <trkpt lat="47.04254" lon="9.02001">
        <ele>746</ele>
        <time>2021-08-02T09:08:19.393Z</time>
      </trkpt>
      <trkpt lat="47.04254" lon="9.02">
        <ele>747</ele>
        <time>2021-08-02T09:08:20.393Z</time>
      </trkpt>
      <trkpt lat="47.04253" lon="9.01998">
        <ele>747</ele>
        <time>2021-08-02T09:08:21.393Z</time>
      </trkpt>
      <trkpt lat="47.04253" lon="9.01997">
        <ele>747</ele>
        <time>2021-08-02T09:08:22.393Z</time>
      </trkpt>
      <trkpt lat="47.04253" lon="9.01995">
        <ele>747</ele>
        <time>2021-08-02T09:08:23.392Z</time>
      </trkpt>
      <trkpt lat="47.04252" lon="9.01994">
        <ele>747</ele>
        <time>2021-08-02T09:08:24.393Z</time>
      </trkpt>
      <trkpt lat="47.04251" lon="9.01993">
        <ele>747</ele>
        <time>2021-08-02T09:08:25.392Z</time>
      </trkpt>
      <trkpt lat="47.0425" lon="9.01991">
        <ele>747</ele>
        <time>2021-08-02T09:08:26.392Z</time>
      </trkpt>
      <trkpt lat="47.04249" lon="9.0199">
        <ele>746</ele>
        <time>2021-08-02T09:08:27.393Z</time>
      </trkpt>
      <trkpt lat="47.0425" lon="9.01988">
        <ele>746</ele>
        <time>2021-08-02T09:08:28.393Z</time>
      </trkpt>
      <trkpt lat="47.0425" lon="9.01987">
        <ele>745</ele>
        <time>2021-08-02T09:08:29.393Z</time>
      </trkpt>
      <trkpt lat="47.04249" lon="9.01985">
        <ele>745</ele>
        <time>2021-08-02T09:08:30.393Z</time>
      </trkpt>
      <trkpt lat="47.04249" lon="9.01984">
        <ele>745</ele>
        <time>2021-08-02T09:08:31.393Z</time>
      </trkpt>
      <trkpt lat="47.04249" lon="9.01983">
        <ele>745</ele>
        <time>2021-08-02T09:08:32.393Z</time>
      </trkpt>
      <trkpt lat="47.04249" lon="9.01982">
        <ele>745</ele>
        <time>2021-08-02T09:08:33.393Z</time>
      </trkpt>
      <trkpt lat="47.04249" lon="9.01981">
        <ele>744</ele>
        <time>2021-08-02T09:08:34.393Z</time>
      </trkpt>
      <trkpt lat="47.04249" lon="9.01979">
        <ele>744</ele>
        <time>2021-08-02T09:08:35.393Z</time>
      </trkpt>
      <trkpt lat="47.04249" lon="9.01978">
        <ele>744</ele>
        <time>2021-08-02T09:08:36.392Z</time>
      </trkpt>
      <trkpt lat="47.04248" lon="9.01977">
        <ele>744</ele>
        <time>2021-08-02T09:08:37.393Z</time>
      </trkpt>
      <trkpt lat="47.04249" lon="9.01975">
        <ele>744</ele>
        <time>2021-08-02T09:08:38.393Z</time>
      </trkpt>
      <trkpt lat="47.04249" lon="9.01974">
        <ele>745</ele>
        <time>2021-08-02T09:08:39.392Z</time>
      </trkpt>
      <trkpt lat="47.04249" lon="9.01973">
        <ele>745</ele>
        <time>2021-08-02T09:08:40.393Z</time>
      </trkpt>
      <trkpt lat="47.04248" lon="9.01972">
        <ele>745</ele>
        <time>2021-08-02T09:08:41.392Z</time>
      </trkpt>
      <trkpt lat="47.04248" lon="9.01971">
        <ele>745</ele>
        <time>2021-08-02T09:08:42.393Z</time>
      </trkpt>
      <trkpt lat="47.04247" lon="9.01969">
        <ele>745</ele>
        <time>2021-08-02T09:08:43.392Z</time>
      </trkpt>
      <trkpt lat="47.04247" lon="9.01967">
        <ele>745</ele>
        <time>2021-08-02T09:08:44.393Z</time>
      </trkpt>
      <trkpt lat="47.04246" lon="9.01966">
        <ele>745</ele>
        <time>2021-08-02T09:08:45.392Z</time>
      </trkpt>
      <trkpt lat="47.04246" lon="9.01965">
        <ele>746</ele>
        <time>2021-08-02T09:08:46.393Z</time>
      </trkpt>
      <trkpt lat="47.04247" lon="9.01963">
        <ele>746</ele>
        <time>2021-08-02T09:08:47.393Z</time>
      </trkpt>
      <trkpt lat="47.04247" lon="9.01961">
        <ele>746</ele>
        <time>2021-08-02T09:08:48.393Z</time>
      </trkpt>
      <trkpt lat="47.04247" lon="9.01959">
        <ele>746</ele>
        <time>2021-08-02T09:08:49.392Z</time>
      </trkpt>
      <trkpt lat="47.04247" lon="9.01957">
        <ele>746</ele>
        <time>2021-08-02T09:08:50.393Z</time>
      </trkpt>
      <trkpt lat="47.04247" lon="9.01955">
        <ele>746</ele>
        <time>2021-08-02T09:08:51.392Z</time>
      </trkpt>
      <trkpt lat="47.04246" lon="9.01953">
        <ele>746</ele>
        <time>2021-08-02T09:08:52.392Z</time>
      </trkpt>
      <trkpt lat="47.04245" lon="9.01951">
        <ele>746</ele>
        <time>2021-08-02T09:08:53.393Z</time>
      </trkpt>
      <trkpt lat="47.04244" lon="9.01949">
        <ele>746</ele>
        <time>2021-08-02T09:08:54.393Z</time>
      </trkpt>
      <trkpt lat="47.04243" lon="9.01947">
        <ele>745</ele>
        <time>2021-08-02T09:08:55.393Z</time>
      </trkpt>
      <trkpt lat="47.04242" lon="9.01946">
        <ele>745</ele>
        <time>2021-08-02T09:08:56.392Z</time>
      </trkpt>
      <trkpt lat="47.04241" lon="9.01945">
        <ele>744</ele>
        <time>2021-08-02T09:08:57.392Z</time>
      </trkpt>
      <trkpt lat="47.0424" lon="9.01944">
        <ele>744</ele>
        <time>2021-08-02T09:08:58.393Z</time>
      </trkpt>
      <trkpt lat="47.04239" lon="9.01943">
        <ele>743</ele>
        <time>2021-08-02T09:08:59.393Z</time>
      </trkpt>
      <trkpt lat="47.04239" lon="9.01943">
        <ele>743</ele>
        <time>2021-08-02T09:09:00.393Z</time>
      </trkpt>
      <trkpt lat="47.04238" lon="9.01944">
        <ele>742</ele>
        <time>2021-08-02T09:09:01.393Z</time>
      </trkpt>
      <trkpt lat="47.04237" lon="9.01944">
        <ele>742</ele>
        <time>2021-08-02T09:09:02.393Z</time>
      </trkpt>
      <trkpt lat="47.04237" lon="9.01943">
        <ele>741</ele>
        <time>2021-08-02T09:09:03.392Z</time>
      </trkpt>
      <trkpt lat="47.04236" lon="9.01942">
        <ele>741</ele>
        <time>2021-08-02T09:09:04.393Z</time>
      </trkpt>
      <trkpt lat="47.04236" lon="9.01941">
        <ele>741</ele>
        <time>2021-08-02T09:09:05.393Z</time>
      </trkpt>
      <trkpt lat="47.04235" lon="9.01941">
        <ele>740</ele>
        <time>2021-08-02T09:09:06.393Z</time>
      </trkpt>
      <trkpt lat="47.04235" lon="9.0194">
        <ele>740</ele>
        <time>2021-08-02T09:09:07.393Z</time>
      </trkpt>
      <trkpt lat="47.04234" lon="9.01939">
        <ele>740</ele>
        <time>2021-08-02T09:09:08.392Z</time>
      </trkpt>
      <trkpt lat="47.04233" lon="9.01938">
        <ele>740</ele>
        <time>2021-08-02T09:09:09.392Z</time>
      </trkpt>
      <trkpt lat="47.04233" lon="9.01937">
        <ele>739</ele>
        <time>2021-08-02T09:09:10.393Z</time>
      </trkpt>
      <trkpt lat="47.04232" lon="9.01936">
        <ele>739</ele>
        <time>2021-08-02T09:09:11.393Z</time>
      </trkpt>
      <trkpt lat="47.04232" lon="9.01935">
        <ele>739</ele>
        <time>2021-08-02T09:09:12.393Z</time>
      </trkpt>
      <trkpt lat="47.04232" lon="9.01934">
        <ele>738</ele>
        <time>2021-08-02T09:09:13.393Z</time>
      </trkpt>
      <trkpt lat="47.04231" lon="9.01932">
        <ele>738</ele>
        <time>2021-08-02T09:09:14.393Z</time>
      </trkpt>
      <trkpt lat="47.04231" lon="9.01931">
        <ele>738</ele>
        <time>2021-08-02T09:09:15.393Z</time>
      </trkpt>
      <trkpt lat="47.04231" lon="9.0193">
        <ele>738</ele>
        <time>2021-08-02T09:09:16.393Z</time>
      </trkpt>
      <trkpt lat="47.04231" lon="9.01929">
        <ele>738</ele>
        <time>2021-08-02T09:09:17.393Z</time>
      </trkpt>
      <trkpt lat="47.0423" lon="9.01928">
        <ele>738</ele>
        <time>2021-08-02T09:09:18.393Z</time>
      </trkpt>
      <trkpt lat="47.0423" lon="9.01927">
        <ele>738</ele>
        <time>2021-08-02T09:09:19.393Z</time>
      </trkpt>
      <trkpt lat="47.04229" lon="9.01925">
        <ele>738</ele>
        <time>2021-08-02T09:09:20.392Z</time>
      </trkpt>
      <trkpt lat="47.04229" lon="9.01924">
        <ele>738</ele>
        <time>2021-08-02T09:09:21.393Z</time>
      </trkpt>
      <trkpt lat="47.04229" lon="9.01923">
        <ele>739</ele>
        <time>2021-08-02T09:09:22.392Z</time>
      </trkpt>
      <trkpt lat="47.04229" lon="9.01921">
        <ele>739</ele>
        <time>2021-08-02T09:09:23.393Z</time>
      </trkpt>
      <trkpt lat="47.04228" lon="9.01918">
        <ele>739</ele>
        <time>2021-08-02T09:09:24.392Z</time>
      </trkpt>
      <trkpt lat="47.04228" lon="9.01917">
        <ele>739</ele>
        <time>2021-08-02T09:09:25.393Z</time>
      </trkpt>
      <trkpt lat="47.04227" lon="9.01916">
        <ele>739</ele>
        <time>2021-08-02T09:09:26.393Z</time>
      </trkpt>
      <trkpt lat="47.04225" lon="9.01914">
        <ele>738</ele>
        <time>2021-08-02T09:09:27.392Z</time>
      </trkpt>
      <trkpt lat="47.04225" lon="9.01913">
        <ele>738</ele>
        <time>2021-08-02T09:09:28.392Z</time>
      </trkpt>
      <trkpt lat="47.04225" lon="9.01912">
        <ele>738</ele>
        <time>2021-08-02T09:09:29.392Z</time>
      </trkpt>
      <trkpt lat="47.04225" lon="9.0191">
        <ele>738</ele>
        <time>2021-08-02T09:09:30.392Z</time>
      </trkpt>
      <trkpt lat="47.04225" lon="9.0191">
        <ele>738</ele>
        <time>2021-08-02T09:09:31.392Z</time>
      </trkpt>
      <trkpt lat="47.04223" lon="9.01909">
        <ele>738</ele>
        <time>2021-08-02T09:09:32.393Z</time>
      </trkpt>
      <trkpt lat="47.04222" lon="9.01909">
        <ele>738</ele>
        <time>2021-08-02T09:09:33.392Z</time>
      </trkpt>
      <trkpt lat="47.04222" lon="9.01907">
        <ele>738</ele>
        <time>2021-08-02T09:09:34.393Z</time>
      </trkpt>
      <trkpt lat="47.04221" lon="9.01905">
        <ele>738</ele>
        <time>2021-08-02T09:09:35.392Z</time>
      </trkpt>
      <trkpt lat="47.04221" lon="9.01904">
        <ele>738</ele>
        <time>2021-08-02T09:09:36.392Z</time>
      </trkpt>
      <trkpt lat="47.04221" lon="9.01903">
        <ele>738</ele>
        <time>2021-08-02T09:09:37.392Z</time>
      </trkpt>
      <trkpt lat="47.04219" lon="9.01902">
        <ele>737</ele>
        <time>2021-08-02T09:09:38.392Z</time>
      </trkpt>
      <trkpt lat="47.04218" lon="9.01902">
        <ele>737</ele>
        <time>2021-08-02T09:09:39.392Z</time>
      </trkpt>
      <trkpt lat="47.04217" lon="9.01901">
        <ele>736</ele>
        <time>2021-08-02T09:09:40.393Z</time>
      </trkpt>
      <trkpt lat="47.04215" lon="9.019">
        <ele>736</ele>
        <time>2021-08-02T09:09:41.392Z</time>
      </trkpt>
      <trkpt lat="47.04214" lon="9.019">
        <ele>735</ele>
        <time>2021-08-02T09:09:42.392Z</time>
      </trkpt>
      <trkpt lat="47.04213" lon="9.019">
        <ele>735</ele>
        <time>2021-08-02T09:09:43.392Z</time>
      </trkpt>
      <trkpt lat="47.04212" lon="9.019">
        <ele>735</ele>
        <time>2021-08-02T09:09:44.392Z</time>
      </trkpt>
      <trkpt lat="47.04212" lon="9.01899">
        <ele>735</ele>
        <time>2021-08-02T09:09:45.393Z</time>
      </trkpt>
      <trkpt lat="47.04213" lon="9.01897">
        <ele>735</ele>
        <time>2021-08-02T09:09:46.392Z</time>
      </trkpt>
      <trkpt lat="47.04213" lon="9.01895">
        <ele>735</ele>
        <time>2021-08-02T09:09:47.392Z</time>
      </trkpt>
      <trkpt lat="47.04214" lon="9.01893">
        <ele>736</ele>
        <time>2021-08-02T09:09:48.392Z</time>
      </trkpt>
      <trkpt lat="47.04214" lon="9.01892">
        <ele>736</ele>
        <time>2021-08-02T09:09:49.392Z</time>
      </trkpt>
      <trkpt lat="47.04214" lon="9.01891">
        <ele>737</ele>
        <time>2021-08-02T09:09:50.392Z</time>
      </trkpt>
      <trkpt lat="47.04213" lon="9.0189">
        <ele>737</ele>
        <time>2021-08-02T09:09:51.392Z</time>
      </trkpt>
      <trkpt lat="47.04213" lon="9.01889">
        <ele>738</ele>
        <time>2021-08-02T09:09:52.392Z</time>
      </trkpt>
      <trkpt lat="47.04213" lon="9.01888">
        <ele>739</ele>
        <time>2021-08-02T09:09:53.393Z</time>
      </trkpt>
      <trkpt lat="47.04212" lon="9.01887">
        <ele>739</ele>
        <time>2021-08-02T09:09:54.392Z</time>
      </trkpt>
      <trkpt lat="47.04212" lon="9.01886">
        <ele>740</ele>
        <time>2021-08-02T09:09:55.392Z</time>
      </trkpt>
      <trkpt lat="47.04212" lon="9.01886">
        <ele>741</ele>
        <time>2021-08-02T09:09:56.392Z</time>
      </trkpt>
      <trkpt lat="47.04212" lon="9.01886">
        <ele>742</ele>
        <time>2021-08-02T09:09:57.392Z</time>
      </trkpt>
      <trkpt lat="47.04212" lon="9.01885">
        <ele>743</ele>
        <time>2021-08-02T09:09:58.393Z</time>
      </trkpt>
      <trkpt lat="47.04211" lon="9.01884">
        <ele>744</ele>
        <time>2021-08-02T09:09:59.393Z</time>
      </trkpt>
      <trkpt lat="47.04211" lon="9.01882">
        <ele>745</ele>
        <time>2021-08-02T09:10:00.393Z</time>
      </trkpt>
      <trkpt lat="47.0421" lon="9.01881">
        <ele>746</ele>
        <time>2021-08-02T09:10:01.393Z</time>
      </trkpt>
      <trkpt lat="47.04209" lon="9.01879">
        <ele>746</ele>
        <time>2021-08-02T09:10:02.392Z</time>
      </trkpt>
      <trkpt lat="47.04209" lon="9.01877">
        <ele>747</ele>
        <time>2021-08-02T09:10:03.393Z</time>
      </trkpt>
      <trkpt lat="47.0421" lon="9.01875">
        <ele>747</ele>
        <time>2021-08-02T09:10:04.393Z</time>
      </trkpt>
      <trkpt lat="47.0421" lon="9.01873">
        <ele>747</ele>
        <time>2021-08-02T09:10:05.393Z</time>
      </trkpt>
      <trkpt lat="47.04209" lon="9.01872">
        <ele>748</ele>
        <time>2021-08-02T09:10:06.393Z</time>
      </trkpt>
      <trkpt lat="47.04208" lon="9.01871">
        <ele>748</ele>
        <time>2021-08-02T09:10:07.393Z</time>
      </trkpt>
      <trkpt lat="47.04207" lon="9.0187">
        <ele>749</ele>
        <time>2021-08-02T09:10:08.393Z</time>
      </trkpt>
      <trkpt lat="47.04206" lon="9.01869">
        <ele>749</ele>
        <time>2021-08-02T09:10:09.393Z</time>
      </trkpt>
      <trkpt lat="47.04205" lon="9.01867">
        <ele>749</ele>
        <time>2021-08-02T09:10:10.393Z</time>
      </trkpt>
      <trkpt lat="47.04204" lon="9.01866">
        <ele>750</ele>
        <time>2021-08-02T09:10:11.392Z</time>
      </trkpt>
      <trkpt lat="47.04203" lon="9.01866">
        <ele>750</ele>
        <time>2021-08-02T09:10:12.392Z</time>
      </trkpt>
      <trkpt lat="47.04203" lon="9.01865">
        <ele>750</ele>
        <time>2021-08-02T09:10:13.393Z</time>
      </trkpt>
      <trkpt lat="47.04203" lon="9.01864">
        <ele>751</ele>
        <time>2021-08-02T09:10:14.393Z</time>
      </trkpt>
      <trkpt lat="47.04203" lon="9.01864">
        <ele>751</ele>
        <time>2021-08-02T09:10:15.393Z</time>
      </trkpt>
      <trkpt lat="47.04203" lon="9.01863">
        <ele>751</ele>
        <time>2021-08-02T09:10:16.393Z</time>
      </trkpt>
      <trkpt lat="47.04204" lon="9.01861">
        <ele>752</ele>
        <time>2021-08-02T09:10:17.393Z</time>
      </trkpt>
      <trkpt lat="47.04204" lon="9.0186">
        <ele>753</ele>
        <time>2021-08-02T09:10:18.393Z</time>
      </trkpt>
      <trkpt lat="47.04203" lon="9.01859">
        <ele>754</ele>
        <time>2021-08-02T09:10:19.393Z</time>
      </trkpt>
      <trkpt lat="47.04202" lon="9.01858">
        <ele>754</ele>
        <time>2021-08-02T09:10:20.393Z</time>
      </trkpt>
      <trkpt lat="47.04201" lon="9.01856">
        <ele>755</ele>
        <time>2021-08-02T09:10:21.393Z</time>
      </trkpt>
      <trkpt lat="47.042" lon="9.01855">
        <ele>756</ele>
        <time>2021-08-02T09:10:22.393Z</time>
      </trkpt>
      <trkpt lat="47.04199" lon="9.01854">
        <ele>756</ele>
        <time>2021-08-02T09:10:23.393Z</time>
      </trkpt>
      <trkpt lat="47.04198" lon="9.01854">
        <ele>757</ele>
        <time>2021-08-02T09:10:24.393Z</time>
      </trkpt>
      <trkpt lat="47.04197" lon="9.01853">
        <ele>758</ele>
        <time>2021-08-02T09:10:25.393Z</time>
      </trkpt>
      <trkpt lat="47.04196" lon="9.01852">
        <ele>758</ele>
        <time>2021-08-02T09:10:26.393Z</time>
      </trkpt>
      <trkpt lat="47.04195" lon="9.01851">
        <ele>759</ele>
        <time>2021-08-02T09:10:27.393Z</time>
      </trkpt>
      <trkpt lat="47.04194" lon="9.01852">
        <ele>759</ele>
        <time>2021-08-02T09:10:28.393Z</time>
      </trkpt>
      <trkpt lat="47.04193" lon="9.01851">
        <ele>760</ele>
        <time>2021-08-02T09:10:29.393Z</time>
      </trkpt>
      <trkpt lat="47.04193" lon="9.01851">
        <ele>760</ele>
        <time>2021-08-02T09:10:30.393Z</time>
      </trkpt>
      <trkpt lat="47.04192" lon="9.0185">
        <ele>760</ele>
        <time>2021-08-02T09:10:31.392Z</time>
      </trkpt>
      <trkpt lat="47.04192" lon="9.0185">
        <ele>760</ele>
        <time>2021-08-02T09:10:32.393Z</time>
      </trkpt>
      <trkpt lat="47.04191" lon="9.01849">
        <ele>760</ele>
        <time>2021-08-02T09:10:33.393Z</time>
      </trkpt>
      <trkpt lat="47.0419" lon="9.01849">
        <ele>760</ele>
        <time>2021-08-02T09:10:34.393Z</time>
      </trkpt>
      <trkpt lat="47.0419" lon="9.01847">
        <ele>760</ele>
        <time>2021-08-02T09:10:35.393Z</time>
      </trkpt>
      <trkpt lat="47.0419" lon="9.01846">
        <ele>760</ele>
        <time>2021-08-02T09:10:36.393Z</time>
      </trkpt>
      <trkpt lat="47.04189" lon="9.01844">
        <ele>760</ele>
        <time>2021-08-02T09:10:37.393Z</time>
      </trkpt>
      <trkpt lat="47.04189" lon="9.01843">
        <ele>760</ele>
        <time>2021-08-02T09:10:38.392Z</time>
      </trkpt>
      <trkpt lat="47.04188" lon="9.01843">
        <ele>760</ele>
        <time>2021-08-02T09:10:39.393Z</time>
      </trkpt>
      <trkpt lat="47.04188" lon="9.01842">
        <ele>760</ele>
        <time>2021-08-02T09:10:40.393Z</time>
      </trkpt>
      <trkpt lat="47.04187" lon="9.01841">
        <ele>760</ele>
        <time>2021-08-02T09:10:41.392Z</time>
      </trkpt>
      <trkpt lat="47.04186" lon="9.0184">
        <ele>760</ele>
        <time>2021-08-02T09:10:42.393Z</time>
      </trkpt>
      <trkpt lat="47.04185" lon="9.01839">
        <ele>760</ele>
        <time>2021-08-02T09:10:43.392Z</time>
      </trkpt>
      <trkpt lat="47.04185" lon="9.01837">
        <ele>760</ele>
        <time>2021-08-02T09:10:44.393Z</time>
      </trkpt>
      <trkpt lat="47.04184" lon="9.01836">
        <ele>760</ele>
        <time>2021-08-02T09:10:45.393Z</time>
      </trkpt>
      <trkpt lat="47.04183" lon="9.01835">
        <ele>761</ele>
        <time>2021-08-02T09:10:46.393Z</time>
      </trkpt>
      <trkpt lat="47.04182" lon="9.01833">
        <ele>761</ele>
        <time>2021-08-02T09:10:47.393Z</time>
      </trkpt>
      <trkpt lat="47.04182" lon="9.01831">
        <ele>761</ele>
        <time>2021-08-02T09:10:48.393Z</time>
      </trkpt>
      <trkpt lat="47.04181" lon="9.0183">
        <ele>761</ele>
        <time>2021-08-02T09:10:49.393Z</time>
      </trkpt>
      <trkpt lat="47.0418" lon="9.01828">
        <ele>760</ele>
        <time>2021-08-02T09:10:50.393Z</time>
      </trkpt>
      <trkpt lat="47.0418" lon="9.01827">
        <ele>760</ele>
        <time>2021-08-02T09:10:51.393Z</time>
      </trkpt>
      <trkpt lat="47.04179" lon="9.01826">
        <ele>760</ele>
        <time>2021-08-02T09:10:52.392Z</time>
      </trkpt>
      <trkpt lat="47.04178" lon="9.01824">
        <ele>759</ele>
        <time>2021-08-02T09:10:53.393Z</time>
      </trkpt>
      <trkpt lat="47.04178" lon="9.01823">
        <ele>759</ele>
        <time>2021-08-02T09:10:54.392Z</time>
      </trkpt>
      <trkpt lat="47.04177" lon="9.01822">
        <ele>759</ele>
        <time>2021-08-02T09:10:55.392Z</time>
      </trkpt>
      <trkpt lat="47.04177" lon="9.01821">
        <ele>759</ele>
        <time>2021-08-02T09:10:56.393Z</time>
      </trkpt>
      <trkpt lat="47.04177" lon="9.0182">
        <ele>759</ele>
        <time>2021-08-02T09:10:57.393Z</time>
      </trkpt>
      <trkpt lat="47.04177" lon="9.01819">
        <ele>759</ele>
        <time>2021-08-02T09:10:58.392Z</time>
      </trkpt>
      <trkpt lat="47.04177" lon="9.01818">
        <ele>759</ele>
        <time>2021-08-02T09:10:59.392Z</time>
      </trkpt>
      <trkpt lat="47.04176" lon="9.01817">
        <ele>759</ele>
        <time>2021-08-02T09:11:00.393Z</time>
      </trkpt>
      <trkpt lat="47.04176" lon="9.01817">
        <ele>759</ele>
        <time>2021-08-02T09:11:01.392Z</time>
      </trkpt>
      <trkpt lat="47.04175" lon="9.01816">
        <ele>758</ele>
        <time>2021-08-02T09:11:02.393Z</time>
      </trkpt>
      <trkpt lat="47.04174" lon="9.01815">
        <ele>758</ele>
        <time>2021-08-02T09:11:03.393Z</time>
      </trkpt>
      <trkpt lat="47.04174" lon="9.01815">
        <ele>757</ele>
        <time>2021-08-02T09:11:04.393Z</time>
      </trkpt>
      <trkpt lat="47.04174" lon="9.01813">
        <ele>757</ele>
        <time>2021-08-02T09:11:05.392Z</time>
      </trkpt>
      <trkpt lat="47.04173" lon="9.01812">
        <ele>757</ele>
        <time>2021-08-02T09:11:06.393Z</time>
      </trkpt>
      <trkpt lat="47.04173" lon="9.0181">
        <ele>757</ele>
        <time>2021-08-02T09:11:07.393Z</time>
      </trkpt>
      <trkpt lat="47.04173" lon="9.01808">
        <ele>757</ele>
        <time>2021-08-02T09:11:08.393Z</time>
      </trkpt>
      <trkpt lat="47.04172" lon="9.01806">
        <ele>757</ele>
        <time>2021-08-02T09:11:09.392Z</time>
      </trkpt>
      <trkpt lat="47.04171" lon="9.01805">
        <ele>756</ele>
        <time>2021-08-02T09:11:10.393Z</time>
      </trkpt>
      <trkpt lat="47.04171" lon="9.01805">
        <ele>756</ele>
        <time>2021-08-02T09:11:11.392Z</time>
      </trkpt>
      <trkpt lat="47.04171" lon="9.01804">
        <ele>755</ele>
        <time>2021-08-02T09:11:12.392Z</time>
      </trkpt>
      <trkpt lat="47.0417" lon="9.01805">
        <ele>755</ele>
        <time>2021-08-02T09:11:13.393Z</time>
      </trkpt>
      <trkpt lat="47.04169" lon="9.01804">
        <ele>754</ele>
        <time>2021-08-02T09:11:14.393Z</time>
      </trkpt>
      <trkpt lat="47.04169" lon="9.01804">
        <ele>754</ele>
        <time>2021-08-02T09:11:15.393Z</time>
      </trkpt>
      <trkpt lat="47.04168" lon="9.01803">
        <ele>754</ele>
        <time>2021-08-02T09:11:16.393Z</time>
      </trkpt>
      <trkpt lat="47.04167" lon="9.01803">
        <ele>754</ele>
        <time>2021-08-02T09:11:17.393Z</time>
      </trkpt>
      <trkpt lat="47.04166" lon="9.01802">
        <ele>754</ele>
        <time>2021-08-02T09:11:18.393Z</time>
      </trkpt>
      <trkpt lat="47.04166" lon="9.01801">
        <ele>754</ele>
        <time>2021-08-02T09:11:19.393Z</time>
      </trkpt>
      <trkpt lat="47.04166" lon="9.01799">
        <ele>755</ele>
        <time>2021-08-02T09:11:20.393Z</time>
      </trkpt>
      <trkpt lat="47.04165" lon="9.01798">
        <ele>755</ele>
        <time>2021-08-02T09:11:21.393Z</time>
      </trkpt>
      <trkpt lat="47.04165" lon="9.01798">
        <ele>756</ele>
        <time>2021-08-02T09:11:22.393Z</time>
      </trkpt>
      <trkpt lat="47.04164" lon="9.01798">
        <ele>757</ele>
        <time>2021-08-02T09:11:23.393Z</time>
      </trkpt>
      <trkpt lat="47.04164" lon="9.01797">
        <ele>757</ele>
        <time>2021-08-02T09:11:24.393Z</time>
      </trkpt>
      <trkpt lat="47.04163" lon="9.01796">
        <ele>757</ele>
        <time>2021-08-02T09:11:25.392Z</time>
      </trkpt>
      <trkpt lat="47.04163" lon="9.01795">
        <ele>757</ele>
        <time>2021-08-02T09:11:26.393Z</time>
      </trkpt>
      <trkpt lat="47.04162" lon="9.01794">
        <ele>757</ele>
        <time>2021-08-02T09:11:27.392Z</time>
      </trkpt>
      <trkpt lat="47.04161" lon="9.01793">
        <ele>756</ele>
        <time>2021-08-02T09:11:28.392Z</time>
      </trkpt>
      <trkpt lat="47.04161" lon="9.01793">
        <ele>756</ele>
        <time>2021-08-02T09:11:29.393Z</time>
      </trkpt>
      <trkpt lat="47.0416" lon="9.01792">
        <ele>756</ele>
        <time>2021-08-02T09:11:30.393Z</time>
      </trkpt>
      <trkpt lat="47.0416" lon="9.01791">
        <ele>756</ele>
        <time>2021-08-02T09:11:31.393Z</time>
      </trkpt>
      <trkpt lat="47.04159" lon="9.01791">
        <ele>757</ele>
        <time>2021-08-02T09:11:32.393Z</time>
      </trkpt>
      <trkpt lat="47.04159" lon="9.0179">
        <ele>757</ele>
        <time>2021-08-02T09:11:33.393Z</time>
      </trkpt>
      <trkpt lat="47.04158" lon="9.0179">
        <ele>757</ele>
        <time>2021-08-02T09:11:34.393Z</time>
      </trkpt>
      <trkpt lat="47.04158" lon="9.01789">
        <ele>757</ele>
        <time>2021-08-02T09:11:35.393Z</time>
      </trkpt>
      <trkpt lat="47.04157" lon="9.01788">
        <ele>757</ele>
        <time>2021-08-02T09:11:36.393Z</time>
      </trkpt>
      <trkpt lat="47.04157" lon="9.01787">
        <ele>758</ele>
        <time>2021-08-02T09:11:37.392Z</time>
      </trkpt>
      <trkpt lat="47.04156" lon="9.01787">
        <ele>758</ele>
        <time>2021-08-02T09:11:38.393Z</time>
      </trkpt>
      <trkpt lat="47.04156" lon="9.01787">
        <ele>758</ele>
        <time>2021-08-02T09:11:39.393Z</time>
      </trkpt>
      <trkpt lat="47.04155" lon="9.01786">
        <ele>758</ele>
        <time>2021-08-02T09:11:40.392Z</time>
      </trkpt>
      <trkpt lat="47.04154" lon="9.01786">
        <ele>759</ele>
        <time>2021-08-02T09:11:41.393Z</time>
      </trkpt>
      <trkpt lat="47.04153" lon="9.01786">
        <ele>759</ele>
        <time>2021-08-02T09:11:42.392Z</time>
      </trkpt>
      <trkpt lat="47.04152" lon="9.01785">
        <ele>759</ele>
        <time>2021-08-02T09:11:43.392Z</time>
      </trkpt>
      <trkpt lat="47.04151" lon="9.01785">
        <ele>759</ele>
        <time>2021-08-02T09:11:44.393Z</time>
      </trkpt>
      <trkpt lat="47.0415" lon="9.01785">
        <ele>759</ele>
        <time>2021-08-02T09:11:45.393Z</time>
      </trkpt>
      <trkpt lat="47.04149" lon="9.01784">
        <ele>760</ele>
        <time>2021-08-02T09:11:46.392Z</time>
      </trkpt>
      <trkpt lat="47.04148" lon="9.01784">
        <ele>760</ele>
        <time>2021-08-02T09:11:47.393Z</time>
      </trkpt>
      <trkpt lat="47.04147" lon="9.01784">
        <ele>759</ele>
        <time>2021-08-02T09:11:48.392Z</time>
      </trkpt>
      <trkpt lat="47.04146" lon="9.01784">
        <ele>759</ele>
        <time>2021-08-02T09:11:49.393Z</time>
      </trkpt>
      <trkpt lat="47.04145" lon="9.01785">
        <ele>759</ele>
        <time>2021-08-02T09:11:50.393Z</time>
      </trkpt>
      <trkpt lat="47.04144" lon="9.01785">
        <ele>759</ele>
        <time>2021-08-02T09:11:51.393Z</time>
      </trkpt>
      <trkpt lat="47.04143" lon="9.01784">
        <ele>759</ele>
        <time>2021-08-02T09:11:52.393Z</time>
      </trkpt>
      <trkpt lat="47.04142" lon="9.01784">
        <ele>759</ele>
        <time>2021-08-02T09:11:53.393Z</time>
      </trkpt>
      <trkpt lat="47.04142" lon="9.01783">
        <ele>759</ele>
        <time>2021-08-02T09:11:54.393Z</time>
      </trkpt>
      <trkpt lat="47.04141" lon="9.01782">
        <ele>759</ele>
        <time>2021-08-02T09:11:55.393Z</time>
      </trkpt>
      <trkpt lat="47.0414" lon="9.01781">
        <ele>759</ele>
        <time>2021-08-02T09:11:56.392Z</time>
      </trkpt>
      <trkpt lat="47.0414" lon="9.01781">
        <ele>759</ele>
        <time>2021-08-02T09:11:57.392Z</time>
      </trkpt>
      <trkpt lat="47.04139" lon="9.0178">
        <ele>759</ele>
        <time>2021-08-02T09:11:58.393Z</time>
      </trkpt>
      <trkpt lat="47.04138" lon="9.01778">
        <ele>759</ele>
        <time>2021-08-02T09:11:59.393Z</time>
      </trkpt>
      <trkpt lat="47.04138" lon="9.01777">
        <ele>759</ele>
        <time>2021-08-02T09:12:00.392Z</time>
      </trkpt>
      <trkpt lat="47.04137" lon="9.01775">
        <ele>759</ele>
        <time>2021-08-02T09:12:01.393Z</time>
      </trkpt>
      <trkpt lat="47.04136" lon="9.01774">
        <ele>759</ele>
        <time>2021-08-02T09:12:02.392Z</time>
      </trkpt>
      <trkpt lat="47.04136" lon="9.01774">
        <ele>759</ele>
        <time>2021-08-02T09:12:03.392Z</time>
      </trkpt>
      <trkpt lat="47.04135" lon="9.01773">
        <ele>759</ele>
        <time>2021-08-02T09:12:04.392Z</time>
      </trkpt>
      <trkpt lat="47.04135" lon="9.01772">
        <ele>759</ele>
        <time>2021-08-02T09:12:05.393Z</time>
      </trkpt>
      <trkpt lat="47.04134" lon="9.0177">
        <ele>758</ele>
        <time>2021-08-02T09:12:06.392Z</time>
      </trkpt>
      <trkpt lat="47.04132" lon="9.0177">
        <ele>758</ele>
        <time>2021-08-02T09:12:07.393Z</time>
      </trkpt>
      <trkpt lat="47.04131" lon="9.01769">
        <ele>758</ele>
        <time>2021-08-02T09:12:08.392Z</time>
      </trkpt>
      <trkpt lat="47.04131" lon="9.01768">
        <ele>758</ele>
        <time>2021-08-02T09:12:09.393Z</time>
      </trkpt>
      <trkpt lat="47.0413" lon="9.01768">
        <ele>758</ele>
        <time>2021-08-02T09:12:10.393Z</time>
      </trkpt>
      <trkpt lat="47.0413" lon="9.01767">
        <ele>758</ele>
        <time>2021-08-02T09:12:11.392Z</time>
      </trkpt>
      <trkpt lat="47.04129" lon="9.01767">
        <ele>758</ele>
        <time>2021-08-02T09:12:12.393Z</time>
      </trkpt>
      <trkpt lat="47.04128" lon="9.01766">
        <ele>757</ele>
        <time>2021-08-02T09:12:13.393Z</time>
      </trkpt>
      <trkpt lat="47.04127" lon="9.01765">
        <ele>757</ele>
        <time>2021-08-02T09:12:14.393Z</time>
      </trkpt>
      <trkpt lat="47.04127" lon="9.01764">
        <ele>757</ele>
        <time>2021-08-02T09:12:15.393Z</time>
      </trkpt>
      <trkpt lat="47.04126" lon="9.01763">
        <ele>757</ele>
        <time>2021-08-02T09:12:16.392Z</time>
      </trkpt>
      <trkpt lat="47.04125" lon="9.01762">
        <ele>758</ele>
        <time>2021-08-02T09:12:17.393Z</time>
      </trkpt>
      <trkpt lat="47.04124" lon="9.0176">
        <ele>758</ele>
        <time>2021-08-02T09:12:18.393Z</time>
      </trkpt>
      <trkpt lat="47.04123" lon="9.01759">
        <ele>759</ele>
        <time>2021-08-02T09:12:19.393Z</time>
      </trkpt>
      <trkpt lat="47.04124" lon="9.01758">
        <ele>760</ele>
        <time>2021-08-02T09:12:20.393Z</time>
      </trkpt>
      <trkpt lat="47.04124" lon="9.01757">
        <ele>760</ele>
        <time>2021-08-02T09:12:21.392Z</time>
      </trkpt>
      <trkpt lat="47.04124" lon="9.01757">
        <ele>760</ele>
        <time>2021-08-02T09:12:22.392Z</time>
      </trkpt>
      <trkpt lat="47.04123" lon="9.01756">
        <ele>760</ele>
        <time>2021-08-02T09:12:23.392Z</time>
      </trkpt>
      <trkpt lat="47.04123" lon="9.01756">
        <ele>760</ele>
        <time>2021-08-02T09:12:24.392Z</time>
      </trkpt>
      <trkpt lat="47.04122" lon="9.01755">
        <ele>760</ele>
        <time>2021-08-02T09:12:25.393Z</time>
      </trkpt>
      <trkpt lat="47.04121" lon="9.01754">
        <ele>760</ele>
        <time>2021-08-02T09:12:26.393Z</time>
      </trkpt>
      <trkpt lat="47.04121" lon="9.01754">
        <ele>760</ele>
        <time>2021-08-02T09:12:27.393Z</time>
      </trkpt>
      <trkpt lat="47.04121" lon="9.01753">
        <ele>761</ele>
        <time>2021-08-02T09:12:28.393Z</time>
      </trkpt>
      <trkpt lat="47.0412" lon="9.01752">
        <ele>761</ele>
        <time>2021-08-02T09:12:29.393Z</time>
      </trkpt>
      <trkpt lat="47.04119" lon="9.01751">
        <ele>761</ele>
        <time>2021-08-02T09:12:30.392Z</time>
      </trkpt>
      <trkpt lat="47.04118" lon="9.01751">
        <ele>761</ele>
        <time>2021-08-02T09:12:31.393Z</time>
      </trkpt>
      <trkpt lat="47.04117" lon="9.0175">
        <ele>762</ele>
        <time>2021-08-02T09:12:32.393Z</time>
      </trkpt>
      <trkpt lat="47.04116" lon="9.0175">
        <ele>762</ele>
        <time>2021-08-02T09:12:33.392Z</time>
      </trkpt>
      <trkpt lat="47.04114" lon="9.01749">
        <ele>763</ele>
        <time>2021-08-02T09:12:34.393Z</time>
      </trkpt>
      <trkpt lat="47.04113" lon="9.01749">
        <ele>763</ele>
        <time>2021-08-02T09:12:35.393Z</time>
      </trkpt>
      <trkpt lat="47.04113" lon="9.01748">
        <ele>764</ele>
        <time>2021-08-02T09:12:36.393Z</time>
      </trkpt>
      <trkpt lat="47.04112" lon="9.01748">
        <ele>764</ele>
        <time>2021-08-02T09:12:37.392Z</time>
      </trkpt>
      <trkpt lat="47.04111" lon="9.01748">
        <ele>764</ele>
        <time>2021-08-02T09:12:38.393Z</time>
      </trkpt>
      <trkpt lat="47.0411" lon="9.01747">
        <ele>764</ele>
        <time>2021-08-02T09:12:39.392Z</time>
      </trkpt>
      <trkpt lat="47.0411" lon="9.01747">
        <ele>764</ele>
        <time>2021-08-02T09:12:40.393Z</time>
      </trkpt>
      <trkpt lat="47.0411" lon="9.01747">
        <ele>764</ele>
        <time>2021-08-02T09:12:41.392Z</time>
      </trkpt>
      <trkpt lat="47.04109" lon="9.01747">
        <ele>764</ele>
        <time>2021-08-02T09:12:42.393Z</time>
      </trkpt>
      <trkpt lat="47.04109" lon="9.01747">
        <ele>764</ele>
        <time>2021-08-02T09:12:43.393Z</time>
      </trkpt>
      <trkpt lat="47.04108" lon="9.01747">
        <ele>764</ele>
        <time>2021-08-02T09:12:44.393Z</time>
      </trkpt>
      <trkpt lat="47.04107" lon="9.01747">
        <ele>764</ele>
        <time>2021-08-02T09:12:45.393Z</time>
      </trkpt>
      <trkpt lat="47.04106" lon="9.01746">
        <ele>764</ele>
        <time>2021-08-02T09:12:46.392Z</time>
      </trkpt>
      <trkpt lat="47.04106" lon="9.01745">
        <ele>764</ele>
        <time>2021-08-02T09:12:47.392Z</time>
      </trkpt>
      <trkpt lat="47.04106" lon="9.01744">
        <ele>764</ele>
        <time>2021-08-02T09:12:48.393Z</time>
      </trkpt>
      <trkpt lat="47.04106" lon="9.01743">
        <ele>764</ele>
        <time>2021-08-02T09:12:49.393Z</time>
      </trkpt>
      <trkpt lat="47.04105" lon="9.01742">
        <ele>764</ele>
        <time>2021-08-02T09:12:50.392Z</time>
      </trkpt>
      <trkpt lat="47.04104" lon="9.01741">
        <ele>764</ele>
        <time>2021-08-02T09:12:51.393Z</time>
      </trkpt>
      <trkpt lat="47.04104" lon="9.0174">
        <ele>764</ele>
        <time>2021-08-02T09:12:52.392Z</time>
      </trkpt>
      <trkpt lat="47.04103" lon="9.0174">
        <ele>764</ele>
        <time>2021-08-02T09:12:53.393Z</time>
      </trkpt>
      <trkpt lat="47.04103" lon="9.01739">
        <ele>764</ele>
        <time>2021-08-02T09:12:54.393Z</time>
      </trkpt>
      <trkpt lat="47.04103" lon="9.01738">
        <ele>764</ele>
        <time>2021-08-02T09:12:55.392Z</time>
      </trkpt>
      <trkpt lat="47.04103" lon="9.01737">
        <ele>764</ele>
        <time>2021-08-02T09:12:56.392Z</time>
      </trkpt>
      <trkpt lat="47.04103" lon="9.01736">
        <ele>764</ele>
        <time>2021-08-02T09:12:57.392Z</time>
      </trkpt>
      <trkpt lat="47.04103" lon="9.01735">
        <ele>765</ele>
        <time>2021-08-02T09:12:58.392Z</time>
      </trkpt>
      <trkpt lat="47.04103" lon="9.01734">
        <ele>765</ele>
        <time>2021-08-02T09:12:59.393Z</time>
      </trkpt>
      <trkpt lat="47.04103" lon="9.01733">
        <ele>765</ele>
        <time>2021-08-02T09:13:00.393Z</time>
      </trkpt>
      <trkpt lat="47.04103" lon="9.01732">
        <ele>766</ele>
        <time>2021-08-02T09:13:01.393Z</time>
      </trkpt>
      <trkpt lat="47.04103" lon="9.01731">
        <ele>766</ele>
        <time>2021-08-02T09:13:02.393Z</time>
      </trkpt>
      <trkpt lat="47.04103" lon="9.01729">
        <ele>767</ele>
        <time>2021-08-02T09:13:03.393Z</time>
      </trkpt>
      <trkpt lat="47.04103" lon="9.01729">
        <ele>767</ele>
        <time>2021-08-02T09:13:04.393Z</time>
      </trkpt>
      <trkpt lat="47.04103" lon="9.01727">
        <ele>768</ele>
        <time>2021-08-02T09:13:05.392Z</time>
      </trkpt>
      <trkpt lat="47.04103" lon="9.01726">
        <ele>768</ele>
        <time>2021-08-02T09:13:06.392Z</time>
      </trkpt>
      <trkpt lat="47.04104" lon="9.01726">
        <ele>769</ele>
        <time>2021-08-02T09:13:07.393Z</time>
      </trkpt>
      <trkpt lat="47.04105" lon="9.01725">
        <ele>770</ele>
        <time>2021-08-02T09:13:08.393Z</time>
      </trkpt>
      <trkpt lat="47.04105" lon="9.01724">
        <ele>770</ele>
        <time>2021-08-02T09:13:09.393Z</time>
      </trkpt>
      <trkpt lat="47.04106" lon="9.01723">
        <ele>771</ele>
        <time>2021-08-02T09:13:10.393Z</time>
      </trkpt>
      <trkpt lat="47.04105" lon="9.01722">
        <ele>772</ele>
        <time>2021-08-02T09:13:11.393Z</time>
      </trkpt>
      <trkpt lat="47.04105" lon="9.0172">
        <ele>772</ele>
        <time>2021-08-02T09:13:12.393Z</time>
      </trkpt>
      <trkpt lat="47.04105" lon="9.0172">
        <ele>771</ele>
        <time>2021-08-02T09:13:13.392Z</time>
      </trkpt>
      <trkpt lat="47.04105" lon="9.01719">
        <ele>771</ele>
        <time>2021-08-02T09:13:14.392Z</time>
      </trkpt>
      <trkpt lat="47.04105" lon="9.01717">
        <ele>771</ele>
        <time>2021-08-02T09:13:15.393Z</time>
      </trkpt>
      <trkpt lat="47.04105" lon="9.01716">
        <ele>770</ele>
        <time>2021-08-02T09:13:16.393Z</time>
      </trkpt>
      <trkpt lat="47.04104" lon="9.01715">
        <ele>769</ele>
        <time>2021-08-02T09:13:17.392Z</time>
      </trkpt>
      <trkpt lat="47.04103" lon="9.01713">
        <ele>769</ele>
        <time>2021-08-02T09:13:18.392Z</time>
      </trkpt>
      <trkpt lat="47.04103" lon="9.01712">
        <ele>769</ele>
        <time>2021-08-02T09:13:19.393Z</time>
      </trkpt>
      <trkpt lat="47.04102" lon="9.0171">
        <ele>769</ele>
        <time>2021-08-02T09:13:20.393Z</time>
      </trkpt>
      <trkpt lat="47.04101" lon="9.01709">
        <ele>769</ele>
        <time>2021-08-02T09:13:21.392Z</time>
      </trkpt>
      <trkpt lat="47.041" lon="9.01708">
        <ele>769</ele>
        <time>2021-08-02T09:13:22.393Z</time>
      </trkpt>
      <trkpt lat="47.04099" lon="9.01707">
        <ele>769</ele>
        <time>2021-08-02T09:13:23.393Z</time>
      </trkpt>
      <trkpt lat="47.04099" lon="9.01706">
        <ele>769</ele>
        <time>2021-08-02T09:13:24.393Z</time>
      </trkpt>
      <trkpt lat="47.04097" lon="9.01705">
        <ele>770</ele>
        <time>2021-08-02T09:13:25.393Z</time>
      </trkpt>
      <trkpt lat="47.04096" lon="9.01704">
        <ele>770</ele>
        <time>2021-08-02T09:13:26.393Z</time>
      </trkpt>
      <trkpt lat="47.04095" lon="9.01703">
        <ele>771</ele>
        <time>2021-08-02T09:13:27.392Z</time>
      </trkpt>
      <trkpt lat="47.04094" lon="9.01702">
        <ele>771</ele>
        <time>2021-08-02T09:13:28.392Z</time>
      </trkpt>
      <trkpt lat="47.04093" lon="9.01701">
        <ele>771</ele>
        <time>2021-08-02T09:13:29.393Z</time>
      </trkpt>
      <trkpt lat="47.04093" lon="9.017">
        <ele>772</ele>
        <time>2021-08-02T09:13:30.392Z</time>
      </trkpt>
      <trkpt lat="47.04092" lon="9.01698">
        <ele>772</ele>
        <time>2021-08-02T09:13:31.393Z</time>
      </trkpt>
      <trkpt lat="47.04092" lon="9.01697">
        <ele>772</ele>
        <time>2021-08-02T09:13:32.392Z</time>
      </trkpt>
      <trkpt lat="47.04091" lon="9.01697">
        <ele>772</ele>
        <time>2021-08-02T09:13:33.392Z</time>
      </trkpt>
      <trkpt lat="47.04091" lon="9.01696">
        <ele>771</ele>
        <time>2021-08-02T09:13:34.392Z</time>
      </trkpt>
      <trkpt lat="47.0409" lon="9.01695">
        <ele>771</ele>
        <time>2021-08-02T09:13:35.393Z</time>
      </trkpt>
      <trkpt lat="47.0409" lon="9.01696">
        <ele>770</ele>
        <time>2021-08-02T09:13:36.393Z</time>
      </trkpt>
      <trkpt lat="47.04088" lon="9.01697">
        <ele>769</ele>
        <time>2021-08-02T09:13:37.393Z</time>
      </trkpt>
      <trkpt lat="47.04088" lon="9.01697">
        <ele>769</ele>
        <time>2021-08-02T09:13:38.393Z</time>
      </trkpt>
      <trkpt lat="47.04088" lon="9.01696">
        <ele>769</ele>
        <time>2021-08-02T09:13:39.392Z</time>
      </trkpt>
      <trkpt lat="47.04088" lon="9.01694">
        <ele>769</ele>
        <time>2021-08-02T09:13:40.392Z</time>
      </trkpt>
      <trkpt lat="47.04088" lon="9.01693">
        <ele>769</ele>
        <time>2021-08-02T09:13:41.393Z</time>
      </trkpt>
      <trkpt lat="47.04088" lon="9.01693">
        <ele>768</ele>
        <time>2021-08-02T09:13:42.392Z</time>
      </trkpt>
      <trkpt lat="47.04088" lon="9.01693">
        <ele>768</ele>
        <time>2021-08-02T09:13:43.392Z</time>
      </trkpt>
      <trkpt lat="47.04086" lon="9.01693">
        <ele>768</ele>
        <time>2021-08-02T09:13:44.392Z</time>
      </trkpt>
      <trkpt lat="47.04085" lon="9.01692">
        <ele>768</ele>
        <time>2021-08-02T09:13:45.393Z</time>
      </trkpt>
      <trkpt lat="47.04084" lon="9.01691">
        <ele>767</ele>
        <time>2021-08-02T09:13:46.393Z</time>
      </trkpt>
      <trkpt lat="47.04084" lon="9.01691">
        <ele>767</ele>
        <time>2021-08-02T09:13:47.392Z</time>
      </trkpt>
      <trkpt lat="47.04084" lon="9.0169">
        <ele>767</ele>
        <time>2021-08-02T09:13:48.392Z</time>
      </trkpt>
      <trkpt lat="47.04084" lon="9.0169">
        <ele>766</ele>
        <time>2021-08-02T09:13:49.392Z</time>
      </trkpt>
      <trkpt lat="47.04083" lon="9.01689">
        <ele>766</ele>
        <time>2021-08-02T09:13:50.392Z</time>
      </trkpt>
      <trkpt lat="47.04083" lon="9.01688">
        <ele>765</ele>
        <time>2021-08-02T09:13:51.393Z</time>
      </trkpt>
      <trkpt lat="47.04082" lon="9.01688">
        <ele>765</ele>
        <time>2021-08-02T09:13:52.392Z</time>
      </trkpt>
      <trkpt lat="47.04082" lon="9.01687">
        <ele>765</ele>
        <time>2021-08-02T09:13:53.393Z</time>
      </trkpt>
      <trkpt lat="47.04082" lon="9.01687">
        <ele>765</ele>
        <time>2021-08-02T09:13:54.393Z</time>
      </trkpt>
      <trkpt lat="47.04082" lon="9.01687">
        <ele>766</ele>
        <time>2021-08-02T09:13:55.392Z</time>
      </trkpt>
      <trkpt lat="47.04082" lon="9.01686">
        <ele>766</ele>
        <time>2021-08-02T09:13:56.393Z</time>
      </trkpt>
      <trkpt lat="47.04081" lon="9.01686">
        <ele>767</ele>
        <time>2021-08-02T09:13:57.392Z</time>
      </trkpt>
      <trkpt lat="47.04081" lon="9.01685">
        <ele>768</ele>
        <time>2021-08-02T09:13:58.392Z</time>
      </trkpt>
      <trkpt lat="47.04081" lon="9.01685">
        <ele>769</ele>
        <time>2021-08-02T09:13:59.392Z</time>
      </trkpt>
      <trkpt lat="47.0408" lon="9.01684">
        <ele>769</ele>
        <time>2021-08-02T09:14:00.392Z</time>
      </trkpt>
      <trkpt lat="47.0408" lon="9.01684">
        <ele>770</ele>
        <time>2021-08-02T09:14:01.393Z</time>
      </trkpt>
      <trkpt lat="47.04079" lon="9.01683">
        <ele>770</ele>
        <time>2021-08-02T09:14:02.393Z</time>
      </trkpt>
      <trkpt lat="47.04079" lon="9.01683">
        <ele>770</ele>
        <time>2021-08-02T09:14:03.393Z</time>
      </trkpt>
      <trkpt lat="47.04079" lon="9.01683">
        <ele>770</ele>
        <time>2021-08-02T09:14:04.392Z</time>
      </trkpt>
      <trkpt lat="47.04079" lon="9.01681">
        <ele>771</ele>
        <time>2021-08-02T09:14:05.393Z</time>
      </trkpt>
      <trkpt lat="47.04079" lon="9.0168">
        <ele>771</ele>
        <time>2021-08-02T09:14:06.393Z</time>
      </trkpt>
      <trkpt lat="47.0408" lon="9.01679">
        <ele>771</ele>
        <time>2021-08-02T09:14:07.393Z</time>
      </trkpt>
      <trkpt lat="47.0408" lon="9.01677">
        <ele>772</ele>
        <time>2021-08-02T09:14:08.392Z</time>
      </trkpt>
      <trkpt lat="47.0408" lon="9.01675">
        <ele>772</ele>
        <time>2021-08-02T09:14:09.392Z</time>
      </trkpt>
      <trkpt lat="47.04079" lon="9.01674">
        <ele>772</ele>
        <time>2021-08-02T09:14:10.393Z</time>
      </trkpt>
      <trkpt lat="47.04079" lon="9.01674">
        <ele>772</ele>
        <time>2021-08-02T09:14:11.393Z</time>
      </trkpt>
      <trkpt lat="47.04078" lon="9.01675">
        <ele>772</ele>
        <time>2021-08-02T09:14:12.393Z</time>
      </trkpt>
      <trkpt lat="47.04075" lon="9.01672">
        <ele>771</ele>
        <time>2021-08-02T09:14:13.393Z</time>
      </trkpt>
      <trkpt lat="47.04075" lon="9.01672">
        <ele>771</ele>
        <time>2021-08-02T09:14:14.393Z</time>
      </trkpt>
      <trkpt lat="47.04076" lon="9.01673">
        <ele>770</ele>
        <time>2021-08-02T09:14:15.393Z</time>
      </trkpt>
      <trkpt lat="47.04074" lon="9.01672">
        <ele>770</ele>
        <time>2021-08-02T09:14:16.393Z</time>
      </trkpt>
      <trkpt lat="47.04075" lon="9.01671">
        <ele>770</ele>
        <time>2021-08-02T09:14:17.394Z</time>
      </trkpt>
      <trkpt lat="47.04075" lon="9.01671">
        <ele>770</ele>
        <time>2021-08-02T09:14:18.393Z</time>
      </trkpt>
      <trkpt lat="47.04076" lon="9.0167">
        <ele>771</ele>
        <time>2021-08-02T09:14:19.393Z</time>
      </trkpt>
      <trkpt lat="47.04075" lon="9.01669">
        <ele>771</ele>
        <time>2021-08-02T09:14:20.395Z</time>
      </trkpt>
      <trkpt lat="47.04075" lon="9.01668">
        <ele>772</ele>
        <time>2021-08-02T09:14:21.395Z</time>
      </trkpt>
      <trkpt lat="47.04075" lon="9.01667">
        <ele>772</ele>
        <time>2021-08-02T09:14:22.394Z</time>
      </trkpt>
      <trkpt lat="47.04074" lon="9.01666">
        <ele>773</ele>
        <time>2021-08-02T09:14:23.395Z</time>
      </trkpt>
      <trkpt lat="47.04073" lon="9.01666">
        <ele>773</ele>
        <time>2021-08-02T09:14:24.394Z</time>
      </trkpt>
      <trkpt lat="47.04073" lon="9.01666">
        <ele>774</ele>
        <time>2021-08-02T09:14:25.394Z</time>
      </trkpt>
      <trkpt lat="47.04073" lon="9.01666">
        <ele>775</ele>
        <time>2021-08-02T09:14:26.394Z</time>
      </trkpt>
      <trkpt lat="47.04072" lon="9.01662">
        <ele>775</ele>
        <time>2021-08-02T09:14:27.395Z</time>
      </trkpt>
      <trkpt lat="47.04071" lon="9.01661">
        <ele>775</ele>
        <time>2021-08-02T09:14:28.395Z</time>
      </trkpt>
      <trkpt lat="47.0407" lon="9.0166">
        <ele>775</ele>
        <time>2021-08-02T09:14:29.394Z</time>
      </trkpt>
      <trkpt lat="47.04069" lon="9.0166">
        <ele>774</ele>
        <time>2021-08-02T09:14:30.394Z</time>
      </trkpt>
      <trkpt lat="47.04069" lon="9.01659">
        <ele>774</ele>
        <time>2021-08-02T09:14:31.394Z</time>
      </trkpt>
      <trkpt lat="47.04067" lon="9.01657">
        <ele>774</ele>
        <time>2021-08-02T09:14:32.394Z</time>
      </trkpt>
      <trkpt lat="47.04065" lon="9.01656">
        <ele>773</ele>
        <time>2021-08-02T09:14:33.394Z</time>
      </trkpt>
      <trkpt lat="47.04063" lon="9.01655">
        <ele>773</ele>
        <time>2021-08-02T09:14:34.395Z</time>
      </trkpt>
      <trkpt lat="47.04061" lon="9.01654">
        <ele>772</ele>
        <time>2021-08-02T09:14:35.395Z</time>
      </trkpt>
      <trkpt lat="47.04061" lon="9.01653">
        <ele>771</ele>
        <time>2021-08-02T09:14:36.394Z</time>
      </trkpt>
      <trkpt lat="47.04061" lon="9.01652">
        <ele>770</ele>
        <time>2021-08-02T09:14:37.395Z</time>
      </trkpt>
      <trkpt lat="47.0406" lon="9.01652">
        <ele>770</ele>
        <time>2021-08-02T09:14:38.394Z</time>
      </trkpt>
      <trkpt lat="47.04058" lon="9.01654">
        <ele>755</ele>
        <time>2021-08-02T09:14:39.395Z</time>
      </trkpt>
      <trkpt lat="47.04058" lon="9.01654">
        <ele>754</ele>
        <time>2021-08-02T09:14:40.394Z</time>
      </trkpt>
      <trkpt lat="47.04061" lon="9.01655">
        <ele>750</ele>
        <time>2021-08-02T09:14:41.394Z</time>
      </trkpt>
      <trkpt lat="47.04061" lon="9.01655">
        <ele>749</ele>
        <time>2021-08-02T09:14:42.395Z</time>
      </trkpt>
      <trkpt lat="47.04061" lon="9.01655">
        <ele>748</ele>
        <time>2021-08-02T09:14:43.394Z</time>
      </trkpt>
      <trkpt lat="47.04061" lon="9.01655">
        <ele>748</ele>
        <time>2021-08-02T09:14:44.395Z</time>
      </trkpt>
      <trkpt lat="47.04061" lon="9.01655">
        <ele>747</ele>
        <time>2021-08-02T09:14:45.395Z</time>
      </trkpt>
      <trkpt lat="47.04061" lon="9.01654">
        <ele>746</ele>
        <time>2021-08-02T09:14:46.395Z</time>
      </trkpt>
      <trkpt lat="47.04061" lon="9.01654">
        <ele>745</ele>
        <time>2021-08-02T09:14:47.395Z</time>
      </trkpt>
      <trkpt lat="47.04061" lon="9.01655">
        <ele>744</ele>
        <time>2021-08-02T09:14:48.395Z</time>
      </trkpt>
      <trkpt lat="47.04061" lon="9.01655">
        <ele>743</ele>
        <time>2021-08-02T09:14:49.395Z</time>
      </trkpt>
      <trkpt lat="47.04061" lon="9.01654">
        <ele>743</ele>
        <time>2021-08-02T09:14:50.395Z</time>
      </trkpt>
      <trkpt lat="47.04061" lon="9.0165">
        <ele>744</ele>
        <time>2021-08-02T09:14:51.394Z</time>
      </trkpt>
      <trkpt lat="47.04062" lon="9.0165">
        <ele>745</ele>
        <time>2021-08-02T09:14:52.394Z</time>
      </trkpt>
      <trkpt lat="47.04063" lon="9.01649">
        <ele>746</ele>
        <time>2021-08-02T09:14:53.394Z</time>
      </trkpt>
      <trkpt lat="47.04064" lon="9.01648">
        <ele>747</ele>
        <time>2021-08-02T09:14:54.395Z</time>
      </trkpt>
      <trkpt lat="47.04065" lon="9.01646">
        <ele>748</ele>
        <time>2021-08-02T09:14:55.395Z</time>
      </trkpt>
      <trkpt lat="47.04065" lon="9.01644">
        <ele>749</ele>
        <time>2021-08-02T09:14:56.395Z</time>
      </trkpt>
      <trkpt lat="47.04065" lon="9.01643">
        <ele>750</ele>
        <time>2021-08-02T09:14:57.395Z</time>
      </trkpt>
      <trkpt lat="47.04064" lon="9.01642">
        <ele>751</ele>
        <time>2021-08-02T09:14:58.395Z</time>
      </trkpt>
      <trkpt lat="47.04064" lon="9.01641">
        <ele>753</ele>
        <time>2021-08-02T09:14:59.394Z</time>
      </trkpt>
      <trkpt lat="47.04064" lon="9.01641">
        <ele>754</ele>
        <time>2021-08-02T09:15:00.394Z</time>
      </trkpt>
      <trkpt lat="47.04063" lon="9.0164">
        <ele>755</ele>
        <time>2021-08-02T09:15:01.395Z</time>
      </trkpt>
      <trkpt lat="47.04062" lon="9.01639">
        <ele>756</ele>
        <time>2021-08-02T09:15:02.394Z</time>
      </trkpt>
      <trkpt lat="47.04062" lon="9.01639">
        <ele>757</ele>
        <time>2021-08-02T09:15:03.394Z</time>
      </trkpt>
      <trkpt lat="47.04062" lon="9.01638">
        <ele>759</ele>
        <time>2021-08-02T09:15:04.395Z</time>
      </trkpt>
      <trkpt lat="47.04061" lon="9.01637">
        <ele>760</ele>
        <time>2021-08-02T09:15:05.394Z</time>
      </trkpt>
      <trkpt lat="47.04061" lon="9.01637">
        <ele>762</ele>
        <time>2021-08-02T09:15:06.394Z</time>
      </trkpt>
      <trkpt lat="47.04061" lon="9.01637">
        <ele>763</ele>
        <time>2021-08-02T09:15:07.394Z</time>
      </trkpt>
      <trkpt lat="47.0406" lon="9.01636">
        <ele>765</ele>
        <time>2021-08-02T09:15:08.394Z</time>
      </trkpt>
      <trkpt lat="47.0406" lon="9.01637">
        <ele>765</ele>
        <time>2021-08-02T09:15:09.394Z</time>
      </trkpt>
      <trkpt lat="47.04063" lon="9.01637">
        <ele>768</ele>
        <time>2021-08-02T09:15:10.395Z</time>
      </trkpt>
      <trkpt lat="47.04064" lon="9.01636">
        <ele>769</ele>
        <time>2021-08-02T09:15:11.394Z</time>
      </trkpt>
      <trkpt lat="47.04065" lon="9.01635">
        <ele>770</ele>
        <time>2021-08-02T09:15:12.394Z</time>
      </trkpt>
      <trkpt lat="47.04065" lon="9.01634">
        <ele>771</ele>
        <time>2021-08-02T09:15:13.395Z</time>
      </trkpt>
      <trkpt lat="47.04066" lon="9.01633">
        <ele>772</ele>
        <time>2021-08-02T09:15:14.394Z</time>
      </trkpt>
      <trkpt lat="47.04066" lon="9.01631">
        <ele>773</ele>
        <time>2021-08-02T09:15:15.395Z</time>
      </trkpt>
      <trkpt lat="47.04065" lon="9.0163">
        <ele>773</ele>
        <time>2021-08-02T09:15:16.395Z</time>
      </trkpt>
      <trkpt lat="47.04066" lon="9.01628">
        <ele>774</ele>
        <time>2021-08-02T09:15:17.395Z</time>
      </trkpt>
      <trkpt lat="47.04066" lon="9.01627">
        <ele>775</ele>
        <time>2021-08-02T09:15:18.395Z</time>
      </trkpt>
      <trkpt lat="47.04066" lon="9.01625">
        <ele>776</ele>
        <time>2021-08-02T09:15:19.395Z</time>
      </trkpt>
      <trkpt lat="47.04066" lon="9.01623">
        <ele>777</ele>
        <time>2021-08-02T09:15:20.394Z</time>
      </trkpt>
      <trkpt lat="47.04066" lon="9.01622">
        <ele>778</ele>
        <time>2021-08-02T09:15:21.395Z</time>
      </trkpt>
      <trkpt lat="47.04065" lon="9.01621">
        <ele>778</ele>
        <time>2021-08-02T09:15:22.395Z</time>
      </trkpt>
      <trkpt lat="47.04064" lon="9.01619">
        <ele>778</ele>
        <time>2021-08-02T09:15:23.395Z</time>
      </trkpt>
      <trkpt lat="47.04063" lon="9.01618">
        <ele>778</ele>
        <time>2021-08-02T09:15:24.395Z</time>
      </trkpt>
      <trkpt lat="47.04062" lon="9.01617">
        <ele>778</ele>
        <time>2021-08-02T09:15:25.394Z</time>
      </trkpt>
      <trkpt lat="47.04062" lon="9.01616">
        <ele>778</ele>
        <time>2021-08-02T09:15:26.395Z</time>
      </trkpt>
      <trkpt lat="47.04062" lon="9.01615">
        <ele>778</ele>
        <time>2021-08-02T09:15:27.394Z</time>
      </trkpt>
      <trkpt lat="47.04062" lon="9.01614">
        <ele>779</ele>
        <time>2021-08-02T09:15:28.395Z</time>
      </trkpt>
      <trkpt lat="47.04062" lon="9.01613">
        <ele>780</ele>
        <time>2021-08-02T09:15:29.395Z</time>
      </trkpt>
      <trkpt lat="47.04062" lon="9.01611">
        <ele>780</ele>
        <time>2021-08-02T09:15:30.395Z</time>
      </trkpt>
      <trkpt lat="47.04062" lon="9.0161">
        <ele>781</ele>
        <time>2021-08-02T09:15:31.395Z</time>
      </trkpt>
      <trkpt lat="47.04061" lon="9.01609">
        <ele>782</ele>
        <time>2021-08-02T09:15:32.395Z</time>
      </trkpt>
      <trkpt lat="47.0406" lon="9.01608">
        <ele>783</ele>
        <time>2021-08-02T09:15:33.394Z</time>
      </trkpt>
      <trkpt lat="47.04059" lon="9.01608">
        <ele>784</ele>
        <time>2021-08-02T09:15:34.394Z</time>
      </trkpt>
      <trkpt lat="47.04059" lon="9.01607">
        <ele>785</ele>
        <time>2021-08-02T09:15:35.394Z</time>
      </trkpt>
      <trkpt lat="47.04058" lon="9.01607">
        <ele>786</ele>
        <time>2021-08-02T09:15:36.395Z</time>
      </trkpt>
      <trkpt lat="47.04057" lon="9.01606">
        <ele>787</ele>
        <time>2021-08-02T09:15:37.394Z</time>
      </trkpt>
      <trkpt lat="47.04057" lon="9.01606">
        <ele>788</ele>
        <time>2021-08-02T09:15:38.394Z</time>
      </trkpt>
      <trkpt lat="47.04056" lon="9.01605">
        <ele>789</ele>
        <time>2021-08-02T09:15:39.395Z</time>
      </trkpt>
      <trkpt lat="47.04055" lon="9.01605">
        <ele>789</ele>
        <time>2021-08-02T09:15:40.394Z</time>
      </trkpt>
      <trkpt lat="47.04054" lon="9.01604">
        <ele>790</ele>
        <time>2021-08-02T09:15:41.395Z</time>
      </trkpt>
      <trkpt lat="47.04053" lon="9.01604">
        <ele>790</ele>
        <time>2021-08-02T09:15:42.394Z</time>
      </trkpt>
      <trkpt lat="47.04053" lon="9.01603">
        <ele>790</ele>
        <time>2021-08-02T09:15:43.395Z</time>
      </trkpt>
      <trkpt lat="47.04053" lon="9.01602">
        <ele>790</ele>
        <time>2021-08-02T09:15:44.395Z</time>
      </trkpt>
      <trkpt lat="47.04052" lon="9.01601">
        <ele>790</ele>
        <time>2021-08-02T09:15:45.395Z</time>
      </trkpt>
      <trkpt lat="47.04052" lon="9.01599">
        <ele>789</ele>
        <time>2021-08-02T09:15:46.395Z</time>
      </trkpt>
      <trkpt lat="47.04051" lon="9.01598">
        <ele>789</ele>
        <time>2021-08-02T09:15:47.394Z</time>
      </trkpt>
      <trkpt lat="47.04051" lon="9.01596">
        <ele>789</ele>
        <time>2021-08-02T09:15:48.395Z</time>
      </trkpt>
      <trkpt lat="47.04051" lon="9.01595">
        <ele>789</ele>
        <time>2021-08-02T09:15:49.394Z</time>
      </trkpt>
      <trkpt lat="47.04051" lon="9.01593">
        <ele>788</ele>
        <time>2021-08-02T09:15:50.395Z</time>
      </trkpt>
      <trkpt lat="47.0405" lon="9.01592">
        <ele>788</ele>
        <time>2021-08-02T09:15:51.394Z</time>
      </trkpt>
      <trkpt lat="47.0405" lon="9.0159">
        <ele>788</ele>
        <time>2021-08-02T09:15:52.394Z</time>
      </trkpt>
      <trkpt lat="47.04049" lon="9.01589">
        <ele>787</ele>
        <time>2021-08-02T09:15:53.395Z</time>
      </trkpt>
      <trkpt lat="47.04049" lon="9.01587">
        <ele>787</ele>
        <time>2021-08-02T09:15:54.395Z</time>
      </trkpt>
      <trkpt lat="47.04049" lon="9.01586">
        <ele>787</ele>
        <time>2021-08-02T09:15:55.395Z</time>
      </trkpt>
      <trkpt lat="47.04048" lon="9.01584">
        <ele>786</ele>
        <time>2021-08-02T09:15:56.395Z</time>
      </trkpt>
      <trkpt lat="47.04048" lon="9.01582">
        <ele>786</ele>
        <time>2021-08-02T09:15:57.395Z</time>
      </trkpt>
      <trkpt lat="47.04047" lon="9.01581">
        <ele>785</ele>
        <time>2021-08-02T09:15:58.394Z</time>
      </trkpt>
      <trkpt lat="47.04047" lon="9.0158">
        <ele>785</ele>
        <time>2021-08-02T09:15:59.395Z</time>
      </trkpt>
      <trkpt lat="47.04047" lon="9.01578">
        <ele>785</ele>
        <time>2021-08-02T09:16:00.394Z</time>
      </trkpt>
      <trkpt lat="47.04047" lon="9.01577">
        <ele>785</ele>
        <time>2021-08-02T09:16:01.395Z</time>
      </trkpt>
      <trkpt lat="47.04048" lon="9.01576">
        <ele>785</ele>
        <time>2021-08-02T09:16:02.395Z</time>
      </trkpt>
      <trkpt lat="47.04048" lon="9.01575">
        <ele>785</ele>
        <time>2021-08-02T09:16:03.395Z</time>
      </trkpt>
      <trkpt lat="47.04048" lon="9.01574">
        <ele>785</ele>
        <time>2021-08-02T09:16:04.395Z</time>
      </trkpt>
      <trkpt lat="47.04049" lon="9.01572">
        <ele>785</ele>
        <time>2021-08-02T09:16:05.395Z</time>
      </trkpt>
      <trkpt lat="47.0405" lon="9.01571">
        <ele>785</ele>
        <time>2021-08-02T09:16:06.394Z</time>
      </trkpt>
      <trkpt lat="47.04051" lon="9.0157">
        <ele>785</ele>
        <time>2021-08-02T09:16:07.395Z</time>
      </trkpt>
      <trkpt lat="47.04052" lon="9.01569">
        <ele>786</ele>
        <time>2021-08-02T09:16:08.394Z</time>
      </trkpt>
      <trkpt lat="47.04053" lon="9.01568">
        <ele>786</ele>
        <time>2021-08-02T09:16:09.395Z</time>
      </trkpt>
      <trkpt lat="47.04053" lon="9.01566">
        <ele>786</ele>
        <time>2021-08-02T09:16:10.395Z</time>
      </trkpt>
      <trkpt lat="47.04053" lon="9.01566">
        <ele>786</ele>
        <time>2021-08-02T09:16:11.395Z</time>
      </trkpt>
      <trkpt lat="47.04054" lon="9.01565">
        <ele>787</ele>
        <time>2021-08-02T09:16:12.395Z</time>
      </trkpt>
      <trkpt lat="47.04055" lon="9.01565">
        <ele>787</ele>
        <time>2021-08-02T09:16:13.395Z</time>
      </trkpt>
      <trkpt lat="47.04056" lon="9.01564">
        <ele>787</ele>
        <time>2021-08-02T09:16:14.394Z</time>
      </trkpt>
      <trkpt lat="47.04056" lon="9.01562">
        <ele>787</ele>
        <time>2021-08-02T09:16:15.395Z</time>
      </trkpt>
      <trkpt lat="47.04056" lon="9.01561">
        <ele>788</ele>
        <time>2021-08-02T09:16:16.395Z</time>
      </trkpt>
      <trkpt lat="47.04057" lon="9.01559">
        <ele>788</ele>
        <time>2021-08-02T09:16:17.394Z</time>
      </trkpt>
      <trkpt lat="47.04057" lon="9.01558">
        <ele>788</ele>
        <time>2021-08-02T09:16:18.395Z</time>
      </trkpt>
      <trkpt lat="47.04057" lon="9.01557">
        <ele>788</ele>
        <time>2021-08-02T09:16:19.394Z</time>
      </trkpt>
      <trkpt lat="47.04057" lon="9.01556">
        <ele>788</ele>
        <time>2021-08-02T09:16:20.394Z</time>
      </trkpt>
      <trkpt lat="47.04057" lon="9.01555">
        <ele>789</ele>
        <time>2021-08-02T09:16:21.395Z</time>
      </trkpt>
      <trkpt lat="47.04056" lon="9.01553">
        <ele>789</ele>
        <time>2021-08-02T09:16:22.394Z</time>
      </trkpt>
      <trkpt lat="47.04055" lon="9.01552">
        <ele>789</ele>
        <time>2021-08-02T09:16:23.394Z</time>
      </trkpt>
      <trkpt lat="47.04055" lon="9.01551">
        <ele>790</ele>
        <time>2021-08-02T09:16:24.394Z</time>
      </trkpt>
      <trkpt lat="47.04054" lon="9.01551">
        <ele>789</ele>
        <time>2021-08-02T09:16:25.394Z</time>
      </trkpt>
      <trkpt lat="47.04053" lon="9.01549">
        <ele>789</ele>
        <time>2021-08-02T09:16:26.395Z</time>
      </trkpt>
      <trkpt lat="47.04051" lon="9.01548">
        <ele>789</ele>
        <time>2021-08-02T09:16:27.394Z</time>
      </trkpt>
      <trkpt lat="47.0405" lon="9.01547">
        <ele>789</ele>
        <time>2021-08-02T09:16:28.395Z</time>
      </trkpt>
      <trkpt lat="47.0405" lon="9.01546">
        <ele>788</ele>
        <time>2021-08-02T09:16:29.394Z</time>
      </trkpt>
      <trkpt lat="47.0405" lon="9.01545">
        <ele>787</ele>
        <time>2021-08-02T09:16:30.394Z</time>
      </trkpt>
      <trkpt lat="47.0405" lon="9.01544">
        <ele>787</ele>
        <time>2021-08-02T09:16:31.395Z</time>
      </trkpt>
      <trkpt lat="47.0405" lon="9.01542">
        <ele>787</ele>
        <time>2021-08-02T09:16:32.394Z</time>
      </trkpt>
      <trkpt lat="47.0405" lon="9.01541">
        <ele>787</ele>
        <time>2021-08-02T09:16:33.394Z</time>
      </trkpt>
      <trkpt lat="47.0405" lon="9.0154">
        <ele>786</ele>
        <time>2021-08-02T09:16:34.394Z</time>
      </trkpt>
      <trkpt lat="47.0405" lon="9.01539">
        <ele>786</ele>
        <time>2021-08-02T09:16:35.395Z</time>
      </trkpt>
      <trkpt lat="47.0405" lon="9.01538">
        <ele>786</ele>
        <time>2021-08-02T09:16:36.395Z</time>
      </trkpt>
      <trkpt lat="47.04051" lon="9.01537">
        <ele>786</ele>
        <time>2021-08-02T09:16:37.394Z</time>
      </trkpt>
      <trkpt lat="47.04052" lon="9.01536">
        <ele>786</ele>
        <time>2021-08-02T09:16:38.395Z</time>
      </trkpt>
      <trkpt lat="47.04052" lon="9.01535">
        <ele>785</ele>
        <time>2021-08-02T09:16:39.395Z</time>
      </trkpt>
      <trkpt lat="47.04052" lon="9.01534">
        <ele>785</ele>
        <time>2021-08-02T09:16:40.394Z</time>
      </trkpt>
      <trkpt lat="47.04052" lon="9.01533">
        <ele>785</ele>
        <time>2021-08-02T09:16:41.394Z</time>
      </trkpt>
      <trkpt lat="47.04052" lon="9.01533">
        <ele>785</ele>
        <time>2021-08-02T09:16:42.395Z</time>
      </trkpt>
      <trkpt lat="47.04052" lon="9.01532">
        <ele>785</ele>
        <time>2021-08-02T09:16:43.395Z</time>
      </trkpt>
      <trkpt lat="47.04052" lon="9.01531">
        <ele>785</ele>
        <time>2021-08-02T09:16:44.395Z</time>
      </trkpt>
      <trkpt lat="47.04052" lon="9.01531">
        <ele>785</ele>
        <time>2021-08-02T09:16:45.395Z</time>
      </trkpt>
      <trkpt lat="47.04052" lon="9.0153">
        <ele>786</ele>
        <time>2021-08-02T09:16:46.395Z</time>
      </trkpt>
      <trkpt lat="47.04052" lon="9.01529">
        <ele>786</ele>
        <time>2021-08-02T09:16:47.395Z</time>
      </trkpt>
      <trkpt lat="47.04053" lon="9.01528">
        <ele>786</ele>
        <time>2021-08-02T09:16:48.395Z</time>
      </trkpt>
      <trkpt lat="47.04053" lon="9.01527">
        <ele>786</ele>
        <time>2021-08-02T09:16:49.394Z</time>
      </trkpt>
      <trkpt lat="47.04053" lon="9.01525">
        <ele>786</ele>
        <time>2021-08-02T09:16:50.394Z</time>
      </trkpt>
      <trkpt lat="47.04053" lon="9.01524">
        <ele>787</ele>
        <time>2021-08-02T09:16:51.394Z</time>
      </trkpt>
      <trkpt lat="47.04052" lon="9.01523">
        <ele>787</ele>
        <time>2021-08-02T09:16:52.395Z</time>
      </trkpt>
      <trkpt lat="47.04051" lon="9.01522">
        <ele>787</ele>
        <time>2021-08-02T09:16:53.394Z</time>
      </trkpt>
      <trkpt lat="47.0405" lon="9.01521">
        <ele>787</ele>
        <time>2021-08-02T09:16:54.394Z</time>
      </trkpt>
      <trkpt lat="47.0405" lon="9.0152">
        <ele>787</ele>
        <time>2021-08-02T09:16:55.394Z</time>
      </trkpt>
      <trkpt lat="47.04049" lon="9.01519">
        <ele>788</ele>
        <time>2021-08-02T09:16:56.395Z</time>
      </trkpt>
      <trkpt lat="47.04049" lon="9.01517">
        <ele>788</ele>
        <time>2021-08-02T09:16:57.395Z</time>
      </trkpt>
      <trkpt lat="47.04048" lon="9.01516">
        <ele>788</ele>
        <time>2021-08-02T09:16:58.394Z</time>
      </trkpt>
      <trkpt lat="47.04048" lon="9.01515">
        <ele>789</ele>
        <time>2021-08-02T09:16:59.395Z</time>
      </trkpt>
      <trkpt lat="47.04048" lon="9.01513">
        <ele>789</ele>
        <time>2021-08-02T09:17:00.395Z</time>
      </trkpt>
      <trkpt lat="47.04048" lon="9.01512">
        <ele>790</ele>
        <time>2021-08-02T09:17:01.395Z</time>
      </trkpt>
      <trkpt lat="47.04048" lon="9.01511">
        <ele>790</ele>
        <time>2021-08-02T09:17:02.394Z</time>
      </trkpt>
      <trkpt lat="47.04048" lon="9.0151">
        <ele>790</ele>
        <time>2021-08-02T09:17:03.395Z</time>
      </trkpt>
      <trkpt lat="47.04048" lon="9.01509">
        <ele>791</ele>
        <time>2021-08-02T09:17:04.395Z</time>
      </trkpt>
      <trkpt lat="47.04048" lon="9.01507">
        <ele>791</ele>
        <time>2021-08-02T09:17:05.394Z</time>
      </trkpt>
      <trkpt lat="47.04048" lon="9.01506">
        <ele>791</ele>
        <time>2021-08-02T09:17:06.394Z</time>
      </trkpt>
      <trkpt lat="47.04048" lon="9.01505">
        <ele>791</ele>
        <time>2021-08-02T09:17:07.395Z</time>
      </trkpt>
      <trkpt lat="47.04048" lon="9.01504">
        <ele>792</ele>
        <time>2021-08-02T09:17:08.395Z</time>
      </trkpt>
      <trkpt lat="47.04047" lon="9.01504">
        <ele>792</ele>
        <time>2021-08-02T09:17:09.395Z</time>
      </trkpt>
      <trkpt lat="47.04047" lon="9.01503">
        <ele>792</ele>
        <time>2021-08-02T09:17:10.395Z</time>
      </trkpt>
      <trkpt lat="47.04045" lon="9.01502">
        <ele>793</ele>
        <time>2021-08-02T09:17:11.395Z</time>
      </trkpt>
      <trkpt lat="47.04045" lon="9.01501">
        <ele>793</ele>
        <time>2021-08-02T09:17:12.395Z</time>
      </trkpt>
      <trkpt lat="47.04045" lon="9.015">
        <ele>793</ele>
        <time>2021-08-02T09:17:13.395Z</time>
      </trkpt>
      <trkpt lat="47.04045" lon="9.01498">
        <ele>792</ele>
        <time>2021-08-02T09:17:14.395Z</time>
      </trkpt>
      <trkpt lat="47.04045" lon="9.01497">
        <ele>792</ele>
        <time>2021-08-02T09:17:15.395Z</time>
      </trkpt>
      <trkpt lat="47.04045" lon="9.01496">
        <ele>792</ele>
        <time>2021-08-02T09:17:16.395Z</time>
      </trkpt>
      <trkpt lat="47.04046" lon="9.01495">
        <ele>792</ele>
        <time>2021-08-02T09:17:17.395Z</time>
      </trkpt>
      <trkpt lat="47.04046" lon="9.01494">
        <ele>792</ele>
        <time>2021-08-02T09:17:18.395Z</time>
      </trkpt>
      <trkpt lat="47.04047" lon="9.01493">
        <ele>793</ele>
        <time>2021-08-02T09:17:19.395Z</time>
      </trkpt>
      <trkpt lat="47.04047" lon="9.01492">
        <ele>793</ele>
        <time>2021-08-02T09:17:20.394Z</time>
      </trkpt>
      <trkpt lat="47.04047" lon="9.01491">
        <ele>794</ele>
        <time>2021-08-02T09:17:21.395Z</time>
      </trkpt>
      <trkpt lat="47.04047" lon="9.0149">
        <ele>795</ele>
        <time>2021-08-02T09:17:22.395Z</time>
      </trkpt>
      <trkpt lat="47.04047" lon="9.01489">
        <ele>796</ele>
        <time>2021-08-02T09:17:23.395Z</time>
      </trkpt>
      <trkpt lat="47.04046" lon="9.01488">
        <ele>797</ele>
        <time>2021-08-02T09:17:24.395Z</time>
      </trkpt>
      <trkpt lat="47.04046" lon="9.01487">
        <ele>797</ele>
        <time>2021-08-02T09:17:25.395Z</time>
      </trkpt>
      <trkpt lat="47.04046" lon="9.01487">
        <ele>798</ele>
        <time>2021-08-02T09:17:26.395Z</time>
      </trkpt>
      <trkpt lat="47.04046" lon="9.01486">
        <ele>798</ele>
        <time>2021-08-02T09:17:27.395Z</time>
      </trkpt>
      <trkpt lat="47.04045" lon="9.01486">
        <ele>799</ele>
        <time>2021-08-02T09:17:28.394Z</time>
      </trkpt>
      <trkpt lat="47.04045" lon="9.01485">
        <ele>799</ele>
        <time>2021-08-02T09:17:29.394Z</time>
      </trkpt>
      <trkpt lat="47.04045" lon="9.01483">
        <ele>799</ele>
        <time>2021-08-02T09:17:30.395Z</time>
      </trkpt>
      <trkpt lat="47.04045" lon="9.01482">
        <ele>799</ele>
        <time>2021-08-02T09:17:31.395Z</time>
      </trkpt>
      <trkpt lat="47.04045" lon="9.01481">
        <ele>799</ele>
        <time>2021-08-02T09:17:32.395Z</time>
      </trkpt>
      <trkpt lat="47.04043" lon="9.01481">
        <ele>800</ele>
        <time>2021-08-02T09:17:33.394Z</time>
      </trkpt>
      <trkpt lat="47.04042" lon="9.01482">
        <ele>800</ele>
        <time>2021-08-02T09:17:34.394Z</time>
      </trkpt>
      <trkpt lat="47.0404" lon="9.01482">
        <ele>801</ele>
        <time>2021-08-02T09:17:35.394Z</time>
      </trkpt>
      <trkpt lat="47.04038" lon="9.01481">
        <ele>802</ele>
        <time>2021-08-02T09:17:36.394Z</time>
      </trkpt>
      <trkpt lat="47.04038" lon="9.0148">
        <ele>802</ele>
        <time>2021-08-02T09:17:37.395Z</time>
      </trkpt>
      <trkpt lat="47.04038" lon="9.01479">
        <ele>803</ele>
        <time>2021-08-02T09:17:38.395Z</time>
      </trkpt>
      <trkpt lat="47.04037" lon="9.01477">
        <ele>803</ele>
        <time>2021-08-02T09:17:39.395Z</time>
      </trkpt>
      <trkpt lat="47.04037" lon="9.01475">
        <ele>804</ele>
        <time>2021-08-02T09:17:40.395Z</time>
      </trkpt>
      <trkpt lat="47.04037" lon="9.01474">
        <ele>804</ele>
        <time>2021-08-02T09:17:41.395Z</time>
      </trkpt>
      <trkpt lat="47.04037" lon="9.01473">
        <ele>804</ele>
        <time>2021-08-02T09:17:42.394Z</time>
      </trkpt>
      <trkpt lat="47.04037" lon="9.01471">
        <ele>804</ele>
        <time>2021-08-02T09:17:43.395Z</time>
      </trkpt>
      <trkpt lat="47.04037" lon="9.0147">
        <ele>804</ele>
        <time>2021-08-02T09:17:44.395Z</time>
      </trkpt>
      <trkpt lat="47.04037" lon="9.01469">
        <ele>804</ele>
        <time>2021-08-02T09:17:45.394Z</time>
      </trkpt>
      <trkpt lat="47.04036" lon="9.01467">
        <ele>804</ele>
        <time>2021-08-02T09:17:46.394Z</time>
      </trkpt>
      <trkpt lat="47.04036" lon="9.01466">
        <ele>804</ele>
        <time>2021-08-02T09:17:47.395Z</time>
      </trkpt>
      <trkpt lat="47.04035" lon="9.01464">
        <ele>803</ele>
        <time>2021-08-02T09:17:48.394Z</time>
      </trkpt>
      <trkpt lat="47.04035" lon="9.01463">
        <ele>802</ele>
        <time>2021-08-02T09:17:49.394Z</time>
      </trkpt>
      <trkpt lat="47.04035" lon="9.01461">
        <ele>801</ele>
        <time>2021-08-02T09:17:50.394Z</time>
      </trkpt>
      <trkpt lat="47.04034" lon="9.01459">
        <ele>800</ele>
        <time>2021-08-02T09:17:51.395Z</time>
      </trkpt>
      <trkpt lat="47.04033" lon="9.01457">
        <ele>799</ele>
        <time>2021-08-02T09:17:52.395Z</time>
      </trkpt>
      <trkpt lat="47.04032" lon="9.01457">
        <ele>798</ele>
        <time>2021-08-02T09:17:53.394Z</time>
      </trkpt>
      <trkpt lat="47.04032" lon="9.01457">
        <ele>797</ele>
        <time>2021-08-02T09:17:54.395Z</time>
      </trkpt>
      <trkpt lat="47.04031" lon="9.01456">
        <ele>796</ele>
        <time>2021-08-02T09:17:55.395Z</time>
      </trkpt>
      <trkpt lat="47.04031" lon="9.01455">
        <ele>795</ele>
        <time>2021-08-02T09:17:56.394Z</time>
      </trkpt>
      <trkpt lat="47.0403" lon="9.01453">
        <ele>794</ele>
        <time>2021-08-02T09:17:57.395Z</time>
      </trkpt>
      <trkpt lat="47.0403" lon="9.01452">
        <ele>793</ele>
        <time>2021-08-02T09:17:58.395Z</time>
      </trkpt>
      <trkpt lat="47.0403" lon="9.0145">
        <ele>792</ele>
        <time>2021-08-02T09:17:59.394Z</time>
      </trkpt>
      <trkpt lat="47.0403" lon="9.01449">
        <ele>791</ele>
        <time>2021-08-02T09:18:00.395Z</time>
      </trkpt>
      <trkpt lat="47.0403" lon="9.01448">
        <ele>791</ele>
        <time>2021-08-02T09:18:01.395Z</time>
      </trkpt>
      <trkpt lat="47.0403" lon="9.01447">
        <ele>790</ele>
        <time>2021-08-02T09:18:02.395Z</time>
      </trkpt>
      <trkpt lat="47.04029" lon="9.01446">
        <ele>790</ele>
        <time>2021-08-02T09:18:03.395Z</time>
      </trkpt>
      <trkpt lat="47.04029" lon="9.01445">
        <ele>790</ele>
        <time>2021-08-02T09:18:04.395Z</time>
      </trkpt>
      <trkpt lat="47.04029" lon="9.01443">
        <ele>790</ele>
        <time>2021-08-02T09:18:05.394Z</time>
      </trkpt>
      <trkpt lat="47.04028" lon="9.01442">
        <ele>790</ele>
        <time>2021-08-02T09:18:06.395Z</time>
      </trkpt>
      <trkpt lat="47.04028" lon="9.01441">
        <ele>790</ele>
        <time>2021-08-02T09:18:07.395Z</time>
      </trkpt>
      <trkpt lat="47.04028" lon="9.0144">
        <ele>790</ele>
        <time>2021-08-02T09:18:08.394Z</time>
      </trkpt>
      <trkpt lat="47.04027" lon="9.01438">
        <ele>791</ele>
        <time>2021-08-02T09:18:09.395Z</time>
      </trkpt>
      <trkpt lat="47.04026" lon="9.01437">
        <ele>791</ele>
        <time>2021-08-02T09:18:10.395Z</time>
      </trkpt>
      <trkpt lat="47.04026" lon="9.01434">
        <ele>791</ele>
        <time>2021-08-02T09:18:11.394Z</time>
      </trkpt>
      <trkpt lat="47.04025" lon="9.01432">
        <ele>792</ele>
        <time>2021-08-02T09:18:12.395Z</time>
      </trkpt>
      <trkpt lat="47.04025" lon="9.01431">
        <ele>792</ele>
        <time>2021-08-02T09:18:13.395Z</time>
      </trkpt>
      <trkpt lat="47.04024" lon="9.01431">
        <ele>792</ele>
        <time>2021-08-02T09:18:14.395Z</time>
      </trkpt>
      <trkpt lat="47.04024" lon="9.0143">
        <ele>793</ele>
        <time>2021-08-02T09:18:15.395Z</time>
      </trkpt>
      <trkpt lat="47.04023" lon="9.01428">
        <ele>793</ele>
        <time>2021-08-02T09:18:16.394Z</time>
      </trkpt>
      <trkpt lat="47.04022" lon="9.01428">
        <ele>793</ele>
        <time>2021-08-02T09:18:17.394Z</time>
      </trkpt>
      <trkpt lat="47.04022" lon="9.01427">
        <ele>793</ele>
        <time>2021-08-02T09:18:18.395Z</time>
      </trkpt>
      <trkpt lat="47.04021" lon="9.01425">
        <ele>793</ele>
        <time>2021-08-02T09:18:19.395Z</time>
      </trkpt>
      <trkpt lat="47.0402" lon="9.01424">
        <ele>794</ele>
        <time>2021-08-02T09:18:20.394Z</time>
      </trkpt>
      <trkpt lat="47.0402" lon="9.01423">
        <ele>794</ele>
        <time>2021-08-02T09:18:21.395Z</time>
      </trkpt>
      <trkpt lat="47.0402" lon="9.01422">
        <ele>794</ele>
        <time>2021-08-02T09:18:22.395Z</time>
      </trkpt>
      <trkpt lat="47.04019" lon="9.0142">
        <ele>795</ele>
        <time>2021-08-02T09:18:23.395Z</time>
      </trkpt>
      <trkpt lat="47.04019" lon="9.01419">
        <ele>795</ele>
        <time>2021-08-02T09:18:24.395Z</time>
      </trkpt>
      <trkpt lat="47.04018" lon="9.01418">
        <ele>795</ele>
        <time>2021-08-02T09:18:25.395Z</time>
      </trkpt>
      <trkpt lat="47.04017" lon="9.01417">
        <ele>796</ele>
        <time>2021-08-02T09:18:26.394Z</time>
      </trkpt>
      <trkpt lat="47.04017" lon="9.01416">
        <ele>796</ele>
        <time>2021-08-02T09:18:27.395Z</time>
      </trkpt>
      <trkpt lat="47.04016" lon="9.01416">
        <ele>797</ele>
        <time>2021-08-02T09:18:28.394Z</time>
      </trkpt>
      <trkpt lat="47.04016" lon="9.01415">
        <ele>796</ele>
        <time>2021-08-02T09:18:29.394Z</time>
      </trkpt>
      <trkpt lat="47.04015" lon="9.01414">
        <ele>796</ele>
        <time>2021-08-02T09:18:30.395Z</time>
      </trkpt>
      <trkpt lat="47.04015" lon="9.01412">
        <ele>796</ele>
        <time>2021-08-02T09:18:31.395Z</time>
      </trkpt>
      <trkpt lat="47.04015" lon="9.01411">
        <ele>796</ele>
        <time>2021-08-02T09:18:32.394Z</time>
      </trkpt>
      <trkpt lat="47.04014" lon="9.01409">
        <ele>796</ele>
        <time>2021-08-02T09:18:33.395Z</time>
      </trkpt>
      <trkpt lat="47.04014" lon="9.01408">
        <ele>795</ele>
        <time>2021-08-02T09:18:34.395Z</time>
      </trkpt>
      <trkpt lat="47.04013" lon="9.01407">
        <ele>795</ele>
        <time>2021-08-02T09:18:35.394Z</time>
      </trkpt>
      <trkpt lat="47.04012" lon="9.01406">
        <ele>795</ele>
        <time>2021-08-02T09:18:36.395Z</time>
      </trkpt>
      <trkpt lat="47.04012" lon="9.01405">
        <ele>795</ele>
        <time>2021-08-02T09:18:37.395Z</time>
      </trkpt>
      <trkpt lat="47.04012" lon="9.01404">
        <ele>796</ele>
        <time>2021-08-02T09:18:38.395Z</time>
      </trkpt>
      <trkpt lat="47.04012" lon="9.01403">
        <ele>796</ele>
        <time>2021-08-02T09:18:39.394Z</time>
      </trkpt>
      <trkpt lat="47.04012" lon="9.01402">
        <ele>796</ele>
        <time>2021-08-02T09:18:40.395Z</time>
      </trkpt>
      <trkpt lat="47.04011" lon="9.01401">
        <ele>796</ele>
        <time>2021-08-02T09:18:41.394Z</time>
      </trkpt>
      <trkpt lat="47.04012" lon="9.01399">
        <ele>797</ele>
        <time>2021-08-02T09:18:42.395Z</time>
      </trkpt>
      <trkpt lat="47.04012" lon="9.01398">
        <ele>797</ele>
        <time>2021-08-02T09:18:43.394Z</time>
      </trkpt>
      <trkpt lat="47.04013" lon="9.01397">
        <ele>798</ele>
        <time>2021-08-02T09:18:44.395Z</time>
      </trkpt>
      <trkpt lat="47.04014" lon="9.01396">
        <ele>798</ele>
        <time>2021-08-02T09:18:45.395Z</time>
      </trkpt>
      <trkpt lat="47.04015" lon="9.01395">
        <ele>798</ele>
        <time>2021-08-02T09:18:46.395Z</time>
      </trkpt>
      <trkpt lat="47.04015" lon="9.01394">
        <ele>799</ele>
        <time>2021-08-02T09:18:47.395Z</time>
      </trkpt>
      <trkpt lat="47.04016" lon="9.01393">
        <ele>799</ele>
        <time>2021-08-02T09:18:48.395Z</time>
      </trkpt>
      <trkpt lat="47.04016" lon="9.01392">
        <ele>800</ele>
        <time>2021-08-02T09:18:49.394Z</time>
      </trkpt>
      <trkpt lat="47.04017" lon="9.0139">
        <ele>800</ele>
        <time>2021-08-02T09:18:50.395Z</time>
      </trkpt>
      <trkpt lat="47.04018" lon="9.01388">
        <ele>800</ele>
        <time>2021-08-02T09:18:51.395Z</time>
      </trkpt>
      <trkpt lat="47.04019" lon="9.01386">
        <ele>800</ele>
        <time>2021-08-02T09:18:52.394Z</time>
      </trkpt>
      <trkpt lat="47.04018" lon="9.01385">
        <ele>800</ele>
        <time>2021-08-02T09:18:53.395Z</time>
      </trkpt>
      <trkpt lat="47.04018" lon="9.01384">
        <ele>800</ele>
        <time>2021-08-02T09:18:54.395Z</time>
      </trkpt>
      <trkpt lat="47.04018" lon="9.01382">
        <ele>800</ele>
        <time>2021-08-02T09:18:55.394Z</time>
      </trkpt>
      <trkpt lat="47.04017" lon="9.01381">
        <ele>800</ele>
        <time>2021-08-02T09:18:56.395Z</time>
      </trkpt>
      <trkpt lat="47.04017" lon="9.0138">
        <ele>800</ele>
        <time>2021-08-02T09:18:57.395Z</time>
      </trkpt>
      <trkpt lat="47.04016" lon="9.01378">
        <ele>801</ele>
        <time>2021-08-02T09:18:58.395Z</time>
      </trkpt>
      <trkpt lat="47.04015" lon="9.01377">
        <ele>801</ele>
        <time>2021-08-02T09:18:59.394Z</time>
      </trkpt>
      <trkpt lat="47.04015" lon="9.01376">
        <ele>802</ele>
        <time>2021-08-02T09:19:00.394Z</time>
      </trkpt>
      <trkpt lat="47.04013" lon="9.01374">
        <ele>803</ele>
        <time>2021-08-02T09:19:01.395Z</time>
      </trkpt>
      <trkpt lat="47.04011" lon="9.01373">
        <ele>803</ele>
        <time>2021-08-02T09:19:02.395Z</time>
      </trkpt>
      <trkpt lat="47.0401" lon="9.01372">
        <ele>804</ele>
        <time>2021-08-02T09:19:03.394Z</time>
      </trkpt>
      <trkpt lat="47.04008" lon="9.0137">
        <ele>804</ele>
        <time>2021-08-02T09:19:04.394Z</time>
      </trkpt>
      <trkpt lat="47.04007" lon="9.0137">
        <ele>803</ele>
        <time>2021-08-02T09:19:05.394Z</time>
      </trkpt>
      <trkpt lat="47.04006" lon="9.01369">
        <ele>803</ele>
        <time>2021-08-02T09:19:06.395Z</time>
      </trkpt>
      <trkpt lat="47.04005" lon="9.01369">
        <ele>802</ele>
        <time>2021-08-02T09:19:07.394Z</time>
      </trkpt>
      <trkpt lat="47.04004" lon="9.01369">
        <ele>802</ele>
        <time>2021-08-02T09:19:08.394Z</time>
      </trkpt>
      <trkpt lat="47.04003" lon="9.01367">
        <ele>802</ele>
        <time>2021-08-02T09:19:09.395Z</time>
      </trkpt>
      <trkpt lat="47.04003" lon="9.01365">
        <ele>802</ele>
        <time>2021-08-02T09:19:10.394Z</time>
      </trkpt>
      <trkpt lat="47.04002" lon="9.01363">
        <ele>802</ele>
        <time>2021-08-02T09:19:11.395Z</time>
      </trkpt>
      <trkpt lat="47.04002" lon="9.01361">
        <ele>802</ele>
        <time>2021-08-02T09:19:12.394Z</time>
      </trkpt>
      <trkpt lat="47.04002" lon="9.01359">
        <ele>802</ele>
        <time>2021-08-02T09:19:13.394Z</time>
      </trkpt>
      <trkpt lat="47.04002" lon="9.01357">
        <ele>802</ele>
        <time>2021-08-02T09:19:14.395Z</time>
      </trkpt>
      <trkpt lat="47.04002" lon="9.01355">
        <ele>802</ele>
        <time>2021-08-02T09:19:15.394Z</time>
      </trkpt>
      <trkpt lat="47.04002" lon="9.01354">
        <ele>801</ele>
        <time>2021-08-02T09:19:16.394Z</time>
      </trkpt>
      <trkpt lat="47.04002" lon="9.01352">
        <ele>801</ele>
        <time>2021-08-02T09:19:17.394Z</time>
      </trkpt>
      <trkpt lat="47.04001" lon="9.0135">
        <ele>800</ele>
        <time>2021-08-02T09:19:18.394Z</time>
      </trkpt>
      <trkpt lat="47.04" lon="9.01348">
        <ele>800</ele>
        <time>2021-08-02T09:19:19.394Z</time>
      </trkpt>
      <trkpt lat="47.03999" lon="9.01346">
        <ele>800</ele>
        <time>2021-08-02T09:19:20.395Z</time>
      </trkpt>
      <trkpt lat="47.03998" lon="9.01345">
        <ele>800</ele>
        <time>2021-08-02T09:19:21.395Z</time>
      </trkpt>
      <trkpt lat="47.03998" lon="9.01344">
        <ele>801</ele>
        <time>2021-08-02T09:19:22.394Z</time>
      </trkpt>
      <trkpt lat="47.03998" lon="9.01343">
        <ele>801</ele>
        <time>2021-08-02T09:19:23.394Z</time>
      </trkpt>
      <trkpt lat="47.03998" lon="9.01342">
        <ele>802</ele>
        <time>2021-08-02T09:19:24.395Z</time>
      </trkpt>
      <trkpt lat="47.03998" lon="9.01341">
        <ele>802</ele>
        <time>2021-08-02T09:19:25.396Z</time>
      </trkpt>
      <trkpt lat="47.03998" lon="9.01341">
        <ele>801</ele>
        <time>2021-08-02T09:19:26.395Z</time>
      </trkpt>
      <trkpt lat="47.03997" lon="9.0134">
        <ele>801</ele>
        <time>2021-08-02T09:19:27.396Z</time>
      </trkpt>
      <trkpt lat="47.03997" lon="9.01339">
        <ele>801</ele>
        <time>2021-08-02T09:19:28.395Z</time>
      </trkpt>
      <trkpt lat="47.03996" lon="9.01338">
        <ele>802</ele>
        <time>2021-08-02T09:19:29.396Z</time>
      </trkpt>
      <trkpt lat="47.03996" lon="9.01337">
        <ele>802</ele>
        <time>2021-08-02T09:19:30.396Z</time>
      </trkpt>
      <trkpt lat="47.03996" lon="9.01335">
        <ele>803</ele>
        <time>2021-08-02T09:19:31.395Z</time>
      </trkpt>
      <trkpt lat="47.03996" lon="9.01334">
        <ele>803</ele>
        <time>2021-08-02T09:19:32.395Z</time>
      </trkpt>
      <trkpt lat="47.03997" lon="9.01331">
        <ele>803</ele>
        <time>2021-08-02T09:19:33.396Z</time>
      </trkpt>
      <trkpt lat="47.03997" lon="9.0133">
        <ele>803</ele>
        <time>2021-08-02T09:19:34.395Z</time>
      </trkpt>
      <trkpt lat="47.03997" lon="9.01328">
        <ele>802</ele>
        <time>2021-08-02T09:19:35.396Z</time>
      </trkpt>
      <trkpt lat="47.03996" lon="9.01326">
        <ele>802</ele>
        <time>2021-08-02T09:19:36.396Z</time>
      </trkpt>
      <trkpt lat="47.03996" lon="9.01323">
        <ele>803</ele>
        <time>2021-08-02T09:19:37.396Z</time>
      </trkpt>
      <trkpt lat="47.03995" lon="9.01321">
        <ele>803</ele>
        <time>2021-08-02T09:19:38.396Z</time>
      </trkpt>
      <trkpt lat="47.03994" lon="9.01319">
        <ele>803</ele>
        <time>2021-08-02T09:19:39.395Z</time>
      </trkpt>
      <trkpt lat="47.03994" lon="9.01316">
        <ele>804</ele>
        <time>2021-08-02T09:19:40.395Z</time>
      </trkpt>
      <trkpt lat="47.03992" lon="9.01315">
        <ele>805</ele>
        <time>2021-08-02T09:19:41.396Z</time>
      </trkpt>
      <trkpt lat="47.03991" lon="9.01314">
        <ele>805</ele>
        <time>2021-08-02T09:19:42.396Z</time>
      </trkpt>
      <trkpt lat="47.0399" lon="9.01313">
        <ele>806</ele>
        <time>2021-08-02T09:19:43.395Z</time>
      </trkpt>
      <trkpt lat="47.03989" lon="9.01313">
        <ele>806</ele>
        <time>2021-08-02T09:19:44.396Z</time>
      </trkpt>
      <trkpt lat="47.03989" lon="9.01313">
        <ele>806</ele>
        <time>2021-08-02T09:19:45.395Z</time>
      </trkpt>
      <trkpt lat="47.03988" lon="9.01313">
        <ele>806</ele>
        <time>2021-08-02T09:19:46.396Z</time>
      </trkpt>
      <trkpt lat="47.03988" lon="9.01312">
        <ele>806</ele>
        <time>2021-08-02T09:19:47.395Z</time>
      </trkpt>
      <trkpt lat="47.03988" lon="9.01311">
        <ele>806</ele>
        <time>2021-08-02T09:19:48.396Z</time>
      </trkpt>
      <trkpt lat="47.03987" lon="9.0131">
        <ele>805</ele>
        <time>2021-08-02T09:19:49.395Z</time>
      </trkpt>
      <trkpt lat="47.03987" lon="9.0131">
        <ele>805</ele>
        <time>2021-08-02T09:19:50.396Z</time>
      </trkpt>
      <trkpt lat="47.03986" lon="9.0131">
        <ele>804</ele>
        <time>2021-08-02T09:19:51.395Z</time>
      </trkpt>
      <trkpt lat="47.03986" lon="9.01308">
        <ele>804</ele>
        <time>2021-08-02T09:19:52.395Z</time>
      </trkpt>
      <trkpt lat="47.03985" lon="9.01307">
        <ele>804</ele>
        <time>2021-08-02T09:19:53.396Z</time>
      </trkpt>
      <trkpt lat="47.03984" lon="9.01306">
        <ele>804</ele>
        <time>2021-08-02T09:19:54.395Z</time>
      </trkpt>
      <trkpt lat="47.03984" lon="9.01304">
        <ele>804</ele>
        <time>2021-08-02T09:19:55.395Z</time>
      </trkpt>
      <trkpt lat="47.03984" lon="9.01302">
        <ele>804</ele>
        <time>2021-08-02T09:19:56.396Z</time>
      </trkpt>
      <trkpt lat="47.03984" lon="9.01299">
        <ele>805</ele>
        <time>2021-08-02T09:19:57.395Z</time>
      </trkpt>
      <trkpt lat="47.03982" lon="9.01298">
        <ele>805</ele>
        <time>2021-08-02T09:19:58.396Z</time>
      </trkpt>
      <trkpt lat="47.03981" lon="9.01297">
        <ele>806</ele>
        <time>2021-08-02T09:19:59.396Z</time>
      </trkpt>
      <trkpt lat="47.03981" lon="9.01296">
        <ele>806</ele>
        <time>2021-08-02T09:20:00.396Z</time>
      </trkpt>
      <trkpt lat="47.0398" lon="9.01294">
        <ele>807</ele>
        <time>2021-08-02T09:20:01.395Z</time>
      </trkpt>
      <trkpt lat="47.0398" lon="9.01292">
        <ele>807</ele>
        <time>2021-08-02T09:20:02.396Z</time>
      </trkpt>
      <trkpt lat="47.03979" lon="9.01291">
        <ele>807</ele>
        <time>2021-08-02T09:20:03.396Z</time>
      </trkpt>
      <trkpt lat="47.03979" lon="9.01289">
        <ele>807</ele>
        <time>2021-08-02T09:20:04.395Z</time>
      </trkpt>
      <trkpt lat="47.03978" lon="9.01288">
        <ele>808</ele>
        <time>2021-08-02T09:20:05.396Z</time>
      </trkpt>
      <trkpt lat="47.03978" lon="9.01287">
        <ele>808</ele>
        <time>2021-08-02T09:20:06.396Z</time>
      </trkpt>
      <trkpt lat="47.03977" lon="9.01286">
        <ele>808</ele>
        <time>2021-08-02T09:20:07.396Z</time>
      </trkpt>
      <trkpt lat="47.03977" lon="9.01286">
        <ele>808</ele>
        <time>2021-08-02T09:20:08.395Z</time>
      </trkpt>
      <trkpt lat="47.03977" lon="9.01285">
        <ele>808</ele>
        <time>2021-08-02T09:20:09.396Z</time>
      </trkpt>
      <trkpt lat="47.03976" lon="9.01284">
        <ele>808</ele>
        <time>2021-08-02T09:20:10.395Z</time>
      </trkpt>
      <trkpt lat="47.03975" lon="9.01282">
        <ele>808</ele>
        <time>2021-08-02T09:20:11.395Z</time>
      </trkpt>
      <trkpt lat="47.03975" lon="9.01281">
        <ele>808</ele>
        <time>2021-08-02T09:20:12.395Z</time>
      </trkpt>
      <trkpt lat="47.03976" lon="9.0128">
        <ele>808</ele>
        <time>2021-08-02T09:20:13.396Z</time>
      </trkpt>
      <trkpt lat="47.03975" lon="9.01279">
        <ele>807</ele>
        <time>2021-08-02T09:20:14.395Z</time>
      </trkpt>
      <trkpt lat="47.03974" lon="9.01278">
        <ele>807</ele>
        <time>2021-08-02T09:20:15.395Z</time>
      </trkpt>
      <trkpt lat="47.03973" lon="9.01278">
        <ele>806</ele>
        <time>2021-08-02T09:20:16.395Z</time>
      </trkpt>
      <trkpt lat="47.03972" lon="9.01277">
        <ele>806</ele>
        <time>2021-08-02T09:20:17.395Z</time>
      </trkpt>
      <trkpt lat="47.0397" lon="9.01276">
        <ele>805</ele>
        <time>2021-08-02T09:20:18.395Z</time>
      </trkpt>
      <trkpt lat="47.03969" lon="9.01275">
        <ele>805</ele>
        <time>2021-08-02T09:20:19.396Z</time>
      </trkpt>
      <trkpt lat="47.03968" lon="9.01274">
        <ele>804</ele>
        <time>2021-08-02T09:20:20.395Z</time>
      </trkpt>
      <trkpt lat="47.03968" lon="9.01273">
        <ele>803</ele>
        <time>2021-08-02T09:20:21.395Z</time>
      </trkpt>
      <trkpt lat="47.03967" lon="9.01272">
        <ele>803</ele>
        <time>2021-08-02T09:20:22.396Z</time>
      </trkpt>
      <trkpt lat="47.03966" lon="9.01272">
        <ele>802</ele>
        <time>2021-08-02T09:20:23.396Z</time>
      </trkpt>
      <trkpt lat="47.03965" lon="9.01272">
        <ele>801</ele>
        <time>2021-08-02T09:20:24.395Z</time>
      </trkpt>
      <trkpt lat="47.03964" lon="9.01271">
        <ele>801</ele>
        <time>2021-08-02T09:20:25.395Z</time>
      </trkpt>
      <trkpt lat="47.03963" lon="9.0127">
        <ele>801</ele>
        <time>2021-08-02T09:20:26.395Z</time>
      </trkpt>
      <trkpt lat="47.03963" lon="9.01269">
        <ele>800</ele>
        <time>2021-08-02T09:20:27.395Z</time>
      </trkpt>
      <trkpt lat="47.03963" lon="9.01267">
        <ele>800</ele>
        <time>2021-08-02T09:20:28.396Z</time>
      </trkpt>
      <trkpt lat="47.03962" lon="9.01265">
        <ele>800</ele>
        <time>2021-08-02T09:20:29.395Z</time>
      </trkpt>
      <trkpt lat="47.03962" lon="9.01263">
        <ele>800</ele>
        <time>2021-08-02T09:20:30.395Z</time>
      </trkpt>
      <trkpt lat="47.03962" lon="9.01262">
        <ele>800</ele>
        <time>2021-08-02T09:20:31.395Z</time>
      </trkpt>
      <trkpt lat="47.03962" lon="9.0126">
        <ele>800</ele>
        <time>2021-08-02T09:20:32.395Z</time>
      </trkpt>
      <trkpt lat="47.03961" lon="9.01259">
        <ele>801</ele>
        <time>2021-08-02T09:20:33.395Z</time>
      </trkpt>
      <trkpt lat="47.0396" lon="9.01257">
        <ele>802</ele>
        <time>2021-08-02T09:20:34.395Z</time>
      </trkpt>
      <trkpt lat="47.0396" lon="9.01257">
        <ele>802</ele>
        <time>2021-08-02T09:20:35.396Z</time>
      </trkpt>
      <trkpt lat="47.0396" lon="9.01257">
        <ele>802</ele>
        <time>2021-08-02T09:20:36.395Z</time>
      </trkpt>
      <trkpt lat="47.03959" lon="9.01257">
        <ele>802</ele>
        <time>2021-08-02T09:20:37.395Z</time>
      </trkpt>
      <trkpt lat="47.03957" lon="9.01252">
        <ele>804</ele>
        <time>2021-08-02T09:20:38.396Z</time>
      </trkpt>
      <trkpt lat="47.03956" lon="9.01251">
        <ele>805</ele>
        <time>2021-08-02T09:20:39.397Z</time>
      </trkpt>
      <trkpt lat="47.03956" lon="9.0125">
        <ele>806</ele>
        <time>2021-08-02T09:20:40.397Z</time>
      </trkpt>
      <trkpt lat="47.03957" lon="9.01249">
        <ele>806</ele>
        <time>2021-08-02T09:20:41.397Z</time>
      </trkpt>
      <trkpt lat="47.03956" lon="9.01248">
        <ele>806</ele>
        <time>2021-08-02T09:20:42.397Z</time>
      </trkpt>
      <trkpt lat="47.03956" lon="9.01246">
        <ele>806</ele>
        <time>2021-08-02T09:20:43.397Z</time>
      </trkpt>
      <trkpt lat="47.03956" lon="9.01246">
        <ele>807</ele>
        <time>2021-08-02T09:20:44.396Z</time>
      </trkpt>
      <trkpt lat="47.03956" lon="9.01245">
        <ele>807</ele>
        <time>2021-08-02T09:20:45.397Z</time>
      </trkpt>
      <trkpt lat="47.03956" lon="9.01243">
        <ele>807</ele>
        <time>2021-08-02T09:20:46.396Z</time>
      </trkpt>
      <trkpt lat="47.03956" lon="9.01242">
        <ele>808</ele>
        <time>2021-08-02T09:20:47.396Z</time>
      </trkpt>
      <trkpt lat="47.03955" lon="9.01242">
        <ele>808</ele>
        <time>2021-08-02T09:20:48.397Z</time>
      </trkpt>
      <trkpt lat="47.03954" lon="9.01242">
        <ele>808</ele>
        <time>2021-08-02T09:20:49.397Z</time>
      </trkpt>
      <trkpt lat="47.03953" lon="9.01242">
        <ele>809</ele>
        <time>2021-08-02T09:20:50.397Z</time>
      </trkpt>
      <trkpt lat="47.03953" lon="9.01242">
        <ele>811</ele>
        <time>2021-08-02T09:20:51.397Z</time>
      </trkpt>
      <trkpt lat="47.03953" lon="9.01242">
        <ele>811</ele>
        <time>2021-08-02T09:20:52.396Z</time>
      </trkpt>
      <trkpt lat="47.03952" lon="9.01241">
        <ele>812</ele>
        <time>2021-08-02T09:20:53.397Z</time>
      </trkpt>
      <trkpt lat="47.03952" lon="9.01237">
        <ele>814</ele>
        <time>2021-08-02T09:20:54.397Z</time>
      </trkpt>
      <trkpt lat="47.03953" lon="9.01235">
        <ele>817</ele>
        <time>2021-08-02T09:20:55.398Z</time>
      </trkpt>
      <trkpt lat="47.03955" lon="9.01231">
        <ele>821</ele>
        <time>2021-08-02T09:20:56.399Z</time>
      </trkpt>
      <trkpt lat="47.03954" lon="9.0123">
        <ele>820</ele>
        <time>2021-08-02T09:20:57.398Z</time>
      </trkpt>
      <trkpt lat="47.03954" lon="9.01229">
        <ele>820</ele>
        <time>2021-08-02T09:20:58.399Z</time>
      </trkpt>
      <trkpt lat="47.03953" lon="9.01229">
        <ele>820</ele>
        <time>2021-08-02T09:20:59.399Z</time>
      </trkpt>
      <trkpt lat="47.03953" lon="9.01229">
        <ele>821</ele>
        <time>2021-08-02T09:21:00.399Z</time>
      </trkpt>
      <trkpt lat="47.03953" lon="9.01229">
        <ele>821</ele>
        <time>2021-08-02T09:21:01.399Z</time>
      </trkpt>
      <trkpt lat="47.03953" lon="9.01229">
        <ele>821</ele>
        <time>2021-08-02T09:21:02.398Z</time>
      </trkpt>
      <trkpt lat="47.03952" lon="9.01236">
        <ele>827</ele>
        <time>2021-08-02T09:21:03.398Z</time>
      </trkpt>
      <trkpt lat="47.03954" lon="9.01238">
        <ele>827</ele>
        <time>2021-08-02T09:21:04.398Z</time>
      </trkpt>
      <trkpt lat="47.03954" lon="9.01237">
        <ele>827</ele>
        <time>2021-08-02T09:21:05.399Z</time>
      </trkpt>
      <trkpt lat="47.03949" lon="9.01236">
        <ele>822</ele>
        <time>2021-08-02T09:21:06.399Z</time>
      </trkpt>
      <trkpt lat="47.03948" lon="9.01236">
        <ele>822</ele>
        <time>2021-08-02T09:21:07.400Z</time>
      </trkpt>
      <trkpt lat="47.03948" lon="9.01236">
        <ele>822</ele>
        <time>2021-08-02T09:21:08.399Z</time>
      </trkpt>
      <trkpt lat="47.03948" lon="9.01236">
        <ele>822</ele>
        <time>2021-08-02T09:21:09.399Z</time>
      </trkpt>
      <trkpt lat="47.03947" lon="9.01235">
        <ele>822</ele>
        <time>2021-08-02T09:21:10.399Z</time>
      </trkpt>
      <trkpt lat="47.03947" lon="9.01235">
        <ele>821</ele>
        <time>2021-08-02T09:21:11.400Z</time>
      </trkpt>
      <trkpt lat="47.03947" lon="9.01234">
        <ele>821</ele>
        <time>2021-08-02T09:21:12.400Z</time>
      </trkpt>
      <trkpt lat="47.03946" lon="9.01234">
        <ele>820</ele>
        <time>2021-08-02T09:21:13.401Z</time>
      </trkpt>
      <trkpt lat="47.03951" lon="9.01242">
        <ele>812</ele>
        <time>2021-08-02T09:21:14.401Z</time>
      </trkpt>
      <trkpt lat="47.0395" lon="9.01243">
        <ele>812</ele>
        <time>2021-08-02T09:21:15.400Z</time>
      </trkpt>
      <trkpt lat="47.0395" lon="9.01244">
        <ele>811</ele>
        <time>2021-08-02T09:21:16.401Z</time>
      </trkpt>
      <trkpt lat="47.0395" lon="9.01244">
        <ele>809</ele>
        <time>2021-08-02T09:21:17.400Z</time>
      </trkpt>
      <trkpt lat="47.03951" lon="9.01245">
        <ele>807</ele>
        <time>2021-08-02T09:21:18.400Z</time>
      </trkpt>
      <trkpt lat="47.03954" lon="9.01245">
        <ele>807</ele>
        <time>2021-08-02T09:21:19.401Z</time>
      </trkpt>
      <trkpt lat="47.03955" lon="9.01247">
        <ele>809</ele>
        <time>2021-08-02T09:21:20.401Z</time>
      </trkpt>
      <trkpt lat="47.03956" lon="9.01247">
        <ele>809</ele>
        <time>2021-08-02T09:21:21.400Z</time>
      </trkpt>
      <trkpt lat="47.03956" lon="9.01247">
        <ele>810</ele>
        <time>2021-08-02T09:21:22.401Z</time>
      </trkpt>
      <trkpt lat="47.03957" lon="9.01248">
        <ele>810</ele>
        <time>2021-08-02T09:21:23.401Z</time>
      </trkpt>
      <trkpt lat="47.03957" lon="9.01248">
        <ele>810</ele>
        <time>2021-08-02T09:21:24.401Z</time>
      </trkpt>
      <trkpt lat="47.03958" lon="9.01249">
        <ele>810</ele>
        <time>2021-08-02T09:21:25.401Z</time>
      </trkpt>
      <trkpt lat="47.03959" lon="9.01248">
        <ele>810</ele>
        <time>2021-08-02T09:21:26.400Z</time>
      </trkpt>
      <trkpt lat="47.0396" lon="9.01248">
        <ele>810</ele>
        <time>2021-08-02T09:21:27.401Z</time>
      </trkpt>
      <trkpt lat="47.03952" lon="9.01249">
        <ele>812</ele>
        <time>2021-08-02T09:21:28.403Z</time>
      </trkpt>
      <trkpt lat="47.03953" lon="9.0125">
        <ele>812</ele>
        <time>2021-08-02T09:21:29.402Z</time>
      </trkpt>
      <trkpt lat="47.03953" lon="9.0125">
        <ele>811</ele>
        <time>2021-08-02T09:21:30.402Z</time>
      </trkpt>
      <trkpt lat="47.03954" lon="9.0125">
        <ele>811</ele>
        <time>2021-08-02T09:21:31.403Z</time>
      </trkpt>
      <trkpt lat="47.03953" lon="9.01249">
        <ele>810</ele>
        <time>2021-08-02T09:21:32.402Z</time>
      </trkpt>
      <trkpt lat="47.03952" lon="9.01248">
        <ele>810</ele>
        <time>2021-08-02T09:21:33.402Z</time>
      </trkpt>
      <trkpt lat="47.03951" lon="9.01247">
        <ele>810</ele>
        <time>2021-08-02T09:21:34.403Z</time>
      </trkpt>
      <trkpt lat="47.03951" lon="9.01246">
        <ele>809</ele>
        <time>2021-08-02T09:21:35.402Z</time>
      </trkpt>
      <trkpt lat="47.0395" lon="9.01245">
        <ele>809</ele>
        <time>2021-08-02T09:21:36.402Z</time>
      </trkpt>
      <trkpt lat="47.03949" lon="9.01244">
        <ele>809</ele>
        <time>2021-08-02T09:21:37.403Z</time>
      </trkpt>
      <trkpt lat="47.03948" lon="9.01244">
        <ele>809</ele>
        <time>2021-08-02T09:21:38.402Z</time>
      </trkpt>
      <trkpt lat="47.03948" lon="9.01243">
        <ele>810</ele>
        <time>2021-08-02T09:21:39.403Z</time>
      </trkpt>
      <trkpt lat="47.03947" lon="9.01242">
        <ele>810</ele>
        <time>2021-08-02T09:21:40.403Z</time>
      </trkpt>
      <trkpt lat="47.03946" lon="9.01242">
        <ele>810</ele>
        <time>2021-08-02T09:21:41.402Z</time>
      </trkpt>
      <trkpt lat="47.03945" lon="9.01241">
        <ele>810</ele>
        <time>2021-08-02T09:21:42.403Z</time>
      </trkpt>
      <trkpt lat="47.03945" lon="9.01241">
        <ele>810</ele>
        <time>2021-08-02T09:21:43.403Z</time>
      </trkpt>
      <trkpt lat="47.03944" lon="9.0124">
        <ele>811</ele>
        <time>2021-08-02T09:21:44.403Z</time>
      </trkpt>
      <trkpt lat="47.03944" lon="9.01239">
        <ele>811</ele>
        <time>2021-08-02T09:21:45.402Z</time>
      </trkpt>
      <trkpt lat="47.03943" lon="9.01239">
        <ele>811</ele>
        <time>2021-08-02T09:21:46.403Z</time>
      </trkpt>
      <trkpt lat="47.03942" lon="9.01238">
        <ele>811</ele>
        <time>2021-08-02T09:21:47.402Z</time>
      </trkpt>
      <trkpt lat="47.03941" lon="9.01237">
        <ele>811</ele>
        <time>2021-08-02T09:21:48.403Z</time>
      </trkpt>
      <trkpt lat="47.0394" lon="9.01236">
        <ele>811</ele>
        <time>2021-08-02T09:21:49.403Z</time>
      </trkpt>
      <trkpt lat="47.03939" lon="9.01235">
        <ele>811</ele>
        <time>2021-08-02T09:21:50.402Z</time>
      </trkpt>
      <trkpt lat="47.03938" lon="9.01233">
        <ele>811</ele>
        <time>2021-08-02T09:21:51.403Z</time>
      </trkpt>
      <trkpt lat="47.03938" lon="9.01231">
        <ele>811</ele>
        <time>2021-08-02T09:21:52.403Z</time>
      </trkpt>
      <trkpt lat="47.03938" lon="9.01229">
        <ele>811</ele>
        <time>2021-08-02T09:21:53.402Z</time>
      </trkpt>
      <trkpt lat="47.03938" lon="9.01227">
        <ele>811</ele>
        <time>2021-08-02T09:21:54.402Z</time>
      </trkpt>
      <trkpt lat="47.03937" lon="9.01226">
        <ele>811</ele>
        <time>2021-08-02T09:21:55.402Z</time>
      </trkpt>
      <trkpt lat="47.03936" lon="9.01225">
        <ele>811</ele>
        <time>2021-08-02T09:21:56.402Z</time>
      </trkpt>
      <trkpt lat="47.03935" lon="9.01224">
        <ele>811</ele>
        <time>2021-08-02T09:21:57.402Z</time>
      </trkpt>
      <trkpt lat="47.03935" lon="9.01223">
        <ele>811</ele>
        <time>2021-08-02T09:21:58.402Z</time>
      </trkpt>
      <trkpt lat="47.03935" lon="9.01221">
        <ele>812</ele>
        <time>2021-08-02T09:21:59.403Z</time>
      </trkpt>
      <trkpt lat="47.03934" lon="9.0122">
        <ele>811</ele>
        <time>2021-08-02T09:22:00.403Z</time>
      </trkpt>
      <trkpt lat="47.03933" lon="9.01218">
        <ele>811</ele>
        <time>2021-08-02T09:22:01.403Z</time>
      </trkpt>
      <trkpt lat="47.03932" lon="9.01215">
        <ele>811</ele>
        <time>2021-08-02T09:22:02.403Z</time>
      </trkpt>
      <trkpt lat="47.03931" lon="9.01214">
        <ele>811</ele>
        <time>2021-08-02T09:22:03.403Z</time>
      </trkpt>
      <trkpt lat="47.0393" lon="9.01213">
        <ele>811</ele>
        <time>2021-08-02T09:22:04.402Z</time>
      </trkpt>
      <trkpt lat="47.03928" lon="9.01212">
        <ele>811</ele>
        <time>2021-08-02T09:22:05.402Z</time>
      </trkpt>
      <trkpt lat="47.03927" lon="9.01212">
        <ele>810</ele>
        <time>2021-08-02T09:22:06.403Z</time>
      </trkpt>
      <trkpt lat="47.03925" lon="9.01212">
        <ele>810</ele>
        <time>2021-08-02T09:22:07.402Z</time>
      </trkpt>
      <trkpt lat="47.03925" lon="9.0121">
        <ele>810</ele>
        <time>2021-08-02T09:22:08.403Z</time>
      </trkpt>
      <trkpt lat="47.03925" lon="9.01208">
        <ele>809</ele>
        <time>2021-08-02T09:22:09.402Z</time>
      </trkpt>
      <trkpt lat="47.03924" lon="9.01206">
        <ele>808</ele>
        <time>2021-08-02T09:22:10.402Z</time>
      </trkpt>
      <trkpt lat="47.03924" lon="9.01204">
        <ele>807</ele>
        <time>2021-08-02T09:22:11.402Z</time>
      </trkpt>
      <trkpt lat="47.03923" lon="9.01203">
        <ele>807</ele>
        <time>2021-08-02T09:22:12.402Z</time>
      </trkpt>
      <trkpt lat="47.03922" lon="9.01202">
        <ele>806</ele>
        <time>2021-08-02T09:22:13.403Z</time>
      </trkpt>
      <trkpt lat="47.03921" lon="9.01201">
        <ele>806</ele>
        <time>2021-08-02T09:22:14.403Z</time>
      </trkpt>
      <trkpt lat="47.0392" lon="9.01199">
        <ele>807</ele>
        <time>2021-08-02T09:22:15.402Z</time>
      </trkpt>
      <trkpt lat="47.0392" lon="9.01198">
        <ele>807</ele>
        <time>2021-08-02T09:22:16.402Z</time>
      </trkpt>
      <trkpt lat="47.03919" lon="9.01197">
        <ele>807</ele>
        <time>2021-08-02T09:22:17.402Z</time>
      </trkpt>
      <trkpt lat="47.03919" lon="9.01196">
        <ele>807</ele>
        <time>2021-08-02T09:22:18.403Z</time>
      </trkpt>
      <trkpt lat="47.03919" lon="9.01194">
        <ele>806</ele>
        <time>2021-08-02T09:22:19.403Z</time>
      </trkpt>
      <trkpt lat="47.03918" lon="9.01193">
        <ele>806</ele>
        <time>2021-08-02T09:22:20.403Z</time>
      </trkpt>
      <trkpt lat="47.03918" lon="9.01191">
        <ele>806</ele>
        <time>2021-08-02T09:22:21.402Z</time>
      </trkpt>
      <trkpt lat="47.03917" lon="9.0119">
        <ele>807</ele>
        <time>2021-08-02T09:22:22.402Z</time>
      </trkpt>
      <trkpt lat="47.03916" lon="9.01188">
        <ele>807</ele>
        <time>2021-08-02T09:22:23.402Z</time>
      </trkpt>
      <trkpt lat="47.03916" lon="9.01186">
        <ele>807</ele>
        <time>2021-08-02T09:22:24.402Z</time>
      </trkpt>
      <trkpt lat="47.03915" lon="9.01185">
        <ele>807</ele>
        <time>2021-08-02T09:22:25.403Z</time>
      </trkpt>
      <trkpt lat="47.03915" lon="9.01183">
        <ele>808</ele>
        <time>2021-08-02T09:22:26.402Z</time>
      </trkpt>
      <trkpt lat="47.03914" lon="9.01181">
        <ele>808</ele>
        <time>2021-08-02T09:22:27.403Z</time>
      </trkpt>
      <trkpt lat="47.03914" lon="9.0118">
        <ele>808</ele>
        <time>2021-08-02T09:22:28.402Z</time>
      </trkpt>
      <trkpt lat="47.03913" lon="9.01179">
        <ele>809</ele>
        <time>2021-08-02T09:22:29.403Z</time>
      </trkpt>
      <trkpt lat="47.03913" lon="9.01177">
        <ele>809</ele>
        <time>2021-08-02T09:22:30.402Z</time>
      </trkpt>
      <trkpt lat="47.03912" lon="9.01176">
        <ele>809</ele>
        <time>2021-08-02T09:22:31.402Z</time>
      </trkpt>
      <trkpt lat="47.03911" lon="9.01174">
        <ele>810</ele>
        <time>2021-08-02T09:22:32.402Z</time>
      </trkpt>
      <trkpt lat="47.03911" lon="9.01173">
        <ele>810</ele>
        <time>2021-08-02T09:22:33.403Z</time>
      </trkpt>
      <trkpt lat="47.0391" lon="9.01172">
        <ele>811</ele>
        <time>2021-08-02T09:22:34.403Z</time>
      </trkpt>
      <trkpt lat="47.03909" lon="9.0117">
        <ele>811</ele>
        <time>2021-08-02T09:22:35.403Z</time>
      </trkpt>
      <trkpt lat="47.03908" lon="9.01167">
        <ele>812</ele>
        <time>2021-08-02T09:22:36.402Z</time>
      </trkpt>
      <trkpt lat="47.03907" lon="9.01164">
        <ele>813</ele>
        <time>2021-08-02T09:22:37.402Z</time>
      </trkpt>
      <trkpt lat="47.03906" lon="9.01162">
        <ele>813</ele>
        <time>2021-08-02T09:22:38.403Z</time>
      </trkpt>
      <trkpt lat="47.03907" lon="9.0116">
        <ele>813</ele>
        <time>2021-08-02T09:22:39.402Z</time>
      </trkpt>
      <trkpt lat="47.03907" lon="9.01158">
        <ele>814</ele>
        <time>2021-08-02T09:22:40.402Z</time>
      </trkpt>
      <trkpt lat="47.03906" lon="9.01156">
        <ele>814</ele>
        <time>2021-08-02T09:22:41.403Z</time>
      </trkpt>
      <trkpt lat="47.03905" lon="9.01155">
        <ele>815</ele>
        <time>2021-08-02T09:22:42.402Z</time>
      </trkpt>
      <trkpt lat="47.03904" lon="9.01154">
        <ele>815</ele>
        <time>2021-08-02T09:22:43.403Z</time>
      </trkpt>
      <trkpt lat="47.03903" lon="9.01153">
        <ele>816</ele>
        <time>2021-08-02T09:22:44.402Z</time>
      </trkpt>
      <trkpt lat="47.03902" lon="9.01153">
        <ele>816</ele>
        <time>2021-08-02T09:22:45.403Z</time>
      </trkpt>
      <trkpt lat="47.03901" lon="9.01152">
        <ele>817</ele>
        <time>2021-08-02T09:22:46.403Z</time>
      </trkpt>
      <trkpt lat="47.039" lon="9.01152">
        <ele>817</ele>
        <time>2021-08-02T09:22:47.402Z</time>
      </trkpt>
      <trkpt lat="47.03899" lon="9.01151">
        <ele>817</ele>
        <time>2021-08-02T09:22:48.402Z</time>
      </trkpt>
      <trkpt lat="47.03898" lon="9.0115">
        <ele>816</ele>
        <time>2021-08-02T09:22:49.402Z</time>
      </trkpt>
      <trkpt lat="47.03896" lon="9.0115">
        <ele>816</ele>
        <time>2021-08-02T09:22:50.403Z</time>
      </trkpt>
      <trkpt lat="47.03895" lon="9.01149">
        <ele>815</ele>
        <time>2021-08-02T09:22:51.402Z</time>
      </trkpt>
      <trkpt lat="47.03895" lon="9.01149">
        <ele>815</ele>
        <time>2021-08-02T09:22:52.403Z</time>
      </trkpt>
      <trkpt lat="47.03895" lon="9.01148">
        <ele>815</ele>
        <time>2021-08-02T09:22:53.403Z</time>
      </trkpt>
      <trkpt lat="47.03894" lon="9.01148">
        <ele>815</ele>
        <time>2021-08-02T09:22:54.402Z</time>
      </trkpt>
      <trkpt lat="47.03894" lon="9.01147">
        <ele>815</ele>
        <time>2021-08-02T09:22:55.403Z</time>
      </trkpt>
      <trkpt lat="47.03893" lon="9.01147">
        <ele>814</ele>
        <time>2021-08-02T09:22:56.402Z</time>
      </trkpt>
      <trkpt lat="47.03891" lon="9.01146">
        <ele>814</ele>
        <time>2021-08-02T09:22:57.403Z</time>
      </trkpt>
      <trkpt lat="47.03891" lon="9.01145">
        <ele>814</ele>
        <time>2021-08-02T09:22:58.403Z</time>
      </trkpt>
      <trkpt lat="47.0389" lon="9.01144">
        <ele>813</ele>
        <time>2021-08-02T09:22:59.402Z</time>
      </trkpt>
      <trkpt lat="47.03889" lon="9.01144">
        <ele>813</ele>
        <time>2021-08-02T09:23:00.402Z</time>
      </trkpt>
      <trkpt lat="47.03888" lon="9.01143">
        <ele>812</ele>
        <time>2021-08-02T09:23:01.402Z</time>
      </trkpt>
      <trkpt lat="47.03887" lon="9.01142">
        <ele>812</ele>
        <time>2021-08-02T09:23:02.402Z</time>
      </trkpt>
      <trkpt lat="47.03886" lon="9.0114">
        <ele>812</ele>
        <time>2021-08-02T09:23:03.403Z</time>
      </trkpt>
      <trkpt lat="47.03884" lon="9.0114">
        <ele>812</ele>
        <time>2021-08-02T09:23:04.402Z</time>
      </trkpt>
      <trkpt lat="47.03883" lon="9.01139">
        <ele>812</ele>
        <time>2021-08-02T09:23:05.402Z</time>
      </trkpt>
      <trkpt lat="47.03882" lon="9.01139">
        <ele>812</ele>
        <time>2021-08-02T09:23:06.402Z</time>
      </trkpt>
      <trkpt lat="47.0388" lon="9.01139">
        <ele>813</ele>
        <time>2021-08-02T09:23:07.403Z</time>
      </trkpt>
      <trkpt lat="47.03879" lon="9.01137">
        <ele>813</ele>
        <time>2021-08-02T09:23:08.402Z</time>
      </trkpt>
      <trkpt lat="47.03878" lon="9.01136">
        <ele>814</ele>
        <time>2021-08-02T09:23:09.403Z</time>
      </trkpt>
      <trkpt lat="47.03877" lon="9.01135">
        <ele>814</ele>
        <time>2021-08-02T09:23:10.403Z</time>
      </trkpt>
      <trkpt lat="47.03876" lon="9.01134">
        <ele>815</ele>
        <time>2021-08-02T09:23:11.403Z</time>
      </trkpt>
      <trkpt lat="47.03874" lon="9.01133">
        <ele>815</ele>
        <time>2021-08-02T09:23:12.402Z</time>
      </trkpt>
      <trkpt lat="47.03873" lon="9.01132">
        <ele>816</ele>
        <time>2021-08-02T09:23:13.402Z</time>
      </trkpt>
      <trkpt lat="47.03871" lon="9.01131">
        <ele>817</ele>
        <time>2021-08-02T09:23:14.403Z</time>
      </trkpt>
      <trkpt lat="47.0387" lon="9.01131">
        <ele>818</ele>
        <time>2021-08-02T09:23:15.403Z</time>
      </trkpt>
      <trkpt lat="47.03869" lon="9.0113">
        <ele>819</ele>
        <time>2021-08-02T09:23:16.402Z</time>
      </trkpt>
      <trkpt lat="47.03868" lon="9.0113">
        <ele>820</ele>
        <time>2021-08-02T09:23:17.402Z</time>
      </trkpt>
      <trkpt lat="47.03866" lon="9.01129">
        <ele>820</ele>
        <time>2021-08-02T09:23:18.403Z</time>
      </trkpt>
      <trkpt lat="47.03865" lon="9.01128">
        <ele>821</ele>
        <time>2021-08-02T09:23:19.402Z</time>
      </trkpt>
      <trkpt lat="47.03865" lon="9.01127">
        <ele>821</ele>
        <time>2021-08-02T09:23:20.403Z</time>
      </trkpt>
      <trkpt lat="47.03863" lon="9.01126">
        <ele>822</ele>
        <time>2021-08-02T09:23:21.402Z</time>
      </trkpt>
      <trkpt lat="47.03863" lon="9.01125">
        <ele>822</ele>
        <time>2021-08-02T09:23:22.402Z</time>
      </trkpt>
      <trkpt lat="47.03862" lon="9.01124">
        <ele>822</ele>
        <time>2021-08-02T09:23:23.403Z</time>
      </trkpt>
      <trkpt lat="47.03862" lon="9.01124">
        <ele>822</ele>
        <time>2021-08-02T09:23:24.403Z</time>
      </trkpt>
      <trkpt lat="47.03862" lon="9.01123">
        <ele>823</ele>
        <time>2021-08-02T09:23:25.402Z</time>
      </trkpt>
      <trkpt lat="47.03861" lon="9.01122">
        <ele>823</ele>
        <time>2021-08-02T09:23:26.403Z</time>
      </trkpt>
      <trkpt lat="47.03861" lon="9.01121">
        <ele>823</ele>
        <time>2021-08-02T09:23:27.403Z</time>
      </trkpt>
      <trkpt lat="47.0386" lon="9.0112">
        <ele>824</ele>
        <time>2021-08-02T09:23:28.402Z</time>
      </trkpt>
      <trkpt lat="47.03859" lon="9.01118">
        <ele>824</ele>
        <time>2021-08-02T09:23:29.402Z</time>
      </trkpt>
      <trkpt lat="47.03858" lon="9.01117">
        <ele>824</ele>
        <time>2021-08-02T09:23:30.402Z</time>
      </trkpt>
      <trkpt lat="47.03857" lon="9.01116">
        <ele>824</ele>
        <time>2021-08-02T09:23:31.402Z</time>
      </trkpt>
      <trkpt lat="47.03856" lon="9.01115">
        <ele>824</ele>
        <time>2021-08-02T09:23:32.403Z</time>
      </trkpt>
      <trkpt lat="47.03855" lon="9.01115">
        <ele>824</ele>
        <time>2021-08-02T09:23:33.402Z</time>
      </trkpt>
      <trkpt lat="47.03854" lon="9.01114">
        <ele>824</ele>
        <time>2021-08-02T09:23:34.403Z</time>
      </trkpt>
      <trkpt lat="47.03854" lon="9.01114">
        <ele>823</ele>
        <time>2021-08-02T09:23:35.403Z</time>
      </trkpt>
      <trkpt lat="47.03854" lon="9.01113">
        <ele>823</ele>
        <time>2021-08-02T09:23:36.403Z</time>
      </trkpt>
      <trkpt lat="47.03854" lon="9.01112">
        <ele>822</ele>
        <time>2021-08-02T09:23:37.402Z</time>
      </trkpt>
      <trkpt lat="47.03854" lon="9.01111">
        <ele>821</ele>
        <time>2021-08-02T09:23:38.403Z</time>
      </trkpt>
      <trkpt lat="47.03854" lon="9.0111">
        <ele>821</ele>
        <time>2021-08-02T09:23:39.402Z</time>
      </trkpt>
      <trkpt lat="47.03853" lon="9.01109">
        <ele>820</ele>
        <time>2021-08-02T09:23:40.402Z</time>
      </trkpt>
      <trkpt lat="47.03853" lon="9.01107">
        <ele>819</ele>
        <time>2021-08-02T09:23:41.402Z</time>
      </trkpt>
      <trkpt lat="47.03853" lon="9.01106">
        <ele>818</ele>
        <time>2021-08-02T09:23:42.403Z</time>
      </trkpt>
      <trkpt lat="47.03853" lon="9.01105">
        <ele>818</ele>
        <time>2021-08-02T09:23:43.402Z</time>
      </trkpt>
      <trkpt lat="47.03852" lon="9.01105">
        <ele>817</ele>
        <time>2021-08-02T09:23:44.402Z</time>
      </trkpt>
      <trkpt lat="47.03852" lon="9.01104">
        <ele>816</ele>
        <time>2021-08-02T09:23:45.403Z</time>
      </trkpt>
      <trkpt lat="47.03852" lon="9.01104">
        <ele>816</ele>
        <time>2021-08-02T09:23:46.402Z</time>
      </trkpt>
      <trkpt lat="47.03852" lon="9.01103">
        <ele>816</ele>
        <time>2021-08-02T09:23:47.402Z</time>
      </trkpt>
      <trkpt lat="47.03852" lon="9.01103">
        <ele>816</ele>
        <time>2021-08-02T09:23:48.402Z</time>
      </trkpt>
      <trkpt lat="47.03851" lon="9.01101">
        <ele>815</ele>
        <time>2021-08-02T09:23:49.402Z</time>
      </trkpt>
      <trkpt lat="47.0385" lon="9.011">
        <ele>815</ele>
        <time>2021-08-02T09:23:50.402Z</time>
      </trkpt>
      <trkpt lat="47.0385" lon="9.01099">
        <ele>815</ele>
        <time>2021-08-02T09:23:51.403Z</time>
      </trkpt>
      <trkpt lat="47.03849" lon="9.01098">
        <ele>815</ele>
        <time>2021-08-02T09:23:52.402Z</time>
      </trkpt>
      <trkpt lat="47.03849" lon="9.01097">
        <ele>814</ele>
        <time>2021-08-02T09:23:53.402Z</time>
      </trkpt>
      <trkpt lat="47.03849" lon="9.01096">
        <ele>814</ele>
        <time>2021-08-02T09:23:54.403Z</time>
      </trkpt>
      <trkpt lat="47.03848" lon="9.01095">
        <ele>813</ele>
        <time>2021-08-02T09:23:55.402Z</time>
      </trkpt>
      <trkpt lat="47.03848" lon="9.01094">
        <ele>813</ele>
        <time>2021-08-02T09:23:56.403Z</time>
      </trkpt>
      <trkpt lat="47.03847" lon="9.01094">
        <ele>812</ele>
        <time>2021-08-02T09:23:57.402Z</time>
      </trkpt>
      <trkpt lat="47.03847" lon="9.01093">
        <ele>812</ele>
        <time>2021-08-02T09:23:58.402Z</time>
      </trkpt>
      <trkpt lat="47.03847" lon="9.01092">
        <ele>812</ele>
        <time>2021-08-02T09:23:59.403Z</time>
      </trkpt>
      <trkpt lat="47.03846" lon="9.01092">
        <ele>812</ele>
        <time>2021-08-02T09:24:00.403Z</time>
      </trkpt>
      <trkpt lat="47.03846" lon="9.01092">
        <ele>812</ele>
        <time>2021-08-02T09:24:01.402Z</time>
      </trkpt>
      <trkpt lat="47.03846" lon="9.01091">
        <ele>812</ele>
        <time>2021-08-02T09:24:02.403Z</time>
      </trkpt>
      <trkpt lat="47.03846" lon="9.01089">
        <ele>811</ele>
        <time>2021-08-02T09:24:03.403Z</time>
      </trkpt>
      <trkpt lat="47.03846" lon="9.01086">
        <ele>810</ele>
        <time>2021-08-02T09:24:04.402Z</time>
      </trkpt>
      <trkpt lat="47.03846" lon="9.01083">
        <ele>809</ele>
        <time>2021-08-02T09:24:05.402Z</time>
      </trkpt>
      <trkpt lat="47.03847" lon="9.01081">
        <ele>809</ele>
        <time>2021-08-02T09:24:06.402Z</time>
      </trkpt>
      <trkpt lat="47.03847" lon="9.0108">
        <ele>808</ele>
        <time>2021-08-02T09:24:07.402Z</time>
      </trkpt>
      <trkpt lat="47.03847" lon="9.01078">
        <ele>808</ele>
        <time>2021-08-02T09:24:08.402Z</time>
      </trkpt>
      <trkpt lat="47.03847" lon="9.01077">
        <ele>808</ele>
        <time>2021-08-02T09:24:09.402Z</time>
      </trkpt>
      <trkpt lat="47.03848" lon="9.01076">
        <ele>808</ele>
        <time>2021-08-02T09:24:10.402Z</time>
      </trkpt>
      <trkpt lat="47.03848" lon="9.01075">
        <ele>808</ele>
        <time>2021-08-02T09:24:11.402Z</time>
      </trkpt>
      <trkpt lat="47.03847" lon="9.01073">
        <ele>809</ele>
        <time>2021-08-02T09:24:12.403Z</time>
      </trkpt>
      <trkpt lat="47.03847" lon="9.01072">
        <ele>809</ele>
        <time>2021-08-02T09:24:13.403Z</time>
      </trkpt>
      <trkpt lat="47.03848" lon="9.0107">
        <ele>810</ele>
        <time>2021-08-02T09:24:14.402Z</time>
      </trkpt>
      <trkpt lat="47.03847" lon="9.01068">
        <ele>810</ele>
        <time>2021-08-02T09:24:15.402Z</time>
      </trkpt>
      <trkpt lat="47.03846" lon="9.01066">
        <ele>811</ele>
        <time>2021-08-02T09:24:16.402Z</time>
      </trkpt>
      <trkpt lat="47.03844" lon="9.01064">
        <ele>811</ele>
        <time>2021-08-02T09:24:17.402Z</time>
      </trkpt>
      <trkpt lat="47.03843" lon="9.01063">
        <ele>811</ele>
        <time>2021-08-02T09:24:18.403Z</time>
      </trkpt>
      <trkpt lat="47.03842" lon="9.01061">
        <ele>811</ele>
        <time>2021-08-02T09:24:19.402Z</time>
      </trkpt>
      <trkpt lat="47.03842" lon="9.0106">
        <ele>811</ele>
        <time>2021-08-02T09:24:20.403Z</time>
      </trkpt>
      <trkpt lat="47.03843" lon="9.0106">
        <ele>810</ele>
        <time>2021-08-02T09:24:21.403Z</time>
      </trkpt>
      <trkpt lat="47.03843" lon="9.01059">
        <ele>810</ele>
        <time>2021-08-02T09:24:22.402Z</time>
      </trkpt>
      <trkpt lat="47.03843" lon="9.01058">
        <ele>811</ele>
        <time>2021-08-02T09:24:23.403Z</time>
      </trkpt>
      <trkpt lat="47.03842" lon="9.01057">
        <ele>811</ele>
        <time>2021-08-02T09:24:24.403Z</time>
      </trkpt>
      <trkpt lat="47.03841" lon="9.01057">
        <ele>811</ele>
        <time>2021-08-02T09:24:25.402Z</time>
      </trkpt>
      <trkpt lat="47.0384" lon="9.01056">
        <ele>812</ele>
        <time>2021-08-02T09:24:26.403Z</time>
      </trkpt>
      <trkpt lat="47.03839" lon="9.01056">
        <ele>812</ele>
        <time>2021-08-02T09:24:27.402Z</time>
      </trkpt>
      <trkpt lat="47.03837" lon="9.01056">
        <ele>812</ele>
        <time>2021-08-02T09:24:28.403Z</time>
      </trkpt>
      <trkpt lat="47.03836" lon="9.01055">
        <ele>812</ele>
        <time>2021-08-02T09:24:29.403Z</time>
      </trkpt>
      <trkpt lat="47.03836" lon="9.01055">
        <ele>812</ele>
        <time>2021-08-02T09:24:30.402Z</time>
      </trkpt>
      <trkpt lat="47.03835" lon="9.01055">
        <ele>813</ele>
        <time>2021-08-02T09:24:31.403Z</time>
      </trkpt>
      <trkpt lat="47.03835" lon="9.01056">
        <ele>813</ele>
        <time>2021-08-02T09:24:32.403Z</time>
      </trkpt>
      <trkpt lat="47.03834" lon="9.01055">
        <ele>814</ele>
        <time>2021-08-02T09:24:33.402Z</time>
      </trkpt>
      <trkpt lat="47.03833" lon="9.01055">
        <ele>814</ele>
        <time>2021-08-02T09:24:34.403Z</time>
      </trkpt>
      <trkpt lat="47.03832" lon="9.01055">
        <ele>814</ele>
        <time>2021-08-02T09:24:35.403Z</time>
      </trkpt>
      <trkpt lat="47.03831" lon="9.01055">
        <ele>815</ele>
        <time>2021-08-02T09:24:36.403Z</time>
      </trkpt>
      <trkpt lat="47.0383" lon="9.01054">
        <ele>815</ele>
        <time>2021-08-02T09:24:37.402Z</time>
      </trkpt>
      <trkpt lat="47.03829" lon="9.01053">
        <ele>816</ele>
        <time>2021-08-02T09:24:38.403Z</time>
      </trkpt>
      <trkpt lat="47.03828" lon="9.01052">
        <ele>817</ele>
        <time>2021-08-02T09:24:39.403Z</time>
      </trkpt>
      <trkpt lat="47.03828" lon="9.01051">
        <ele>817</ele>
        <time>2021-08-02T09:24:40.403Z</time>
      </trkpt>
      <trkpt lat="47.03827" lon="9.01051">
        <ele>817</ele>
        <time>2021-08-02T09:24:41.402Z</time>
      </trkpt>
      <trkpt lat="47.03827" lon="9.01051">
        <ele>818</ele>
        <time>2021-08-02T09:24:42.403Z</time>
      </trkpt>
      <trkpt lat="47.03826" lon="9.0105">
        <ele>818</ele>
        <time>2021-08-02T09:24:43.403Z</time>
      </trkpt>
      <trkpt lat="47.03825" lon="9.0105">
        <ele>819</ele>
        <time>2021-08-02T09:24:44.403Z</time>
      </trkpt>
      <trkpt lat="47.03824" lon="9.01051">
        <ele>819</ele>
        <time>2021-08-02T09:24:45.402Z</time>
      </trkpt>
      <trkpt lat="47.03824" lon="9.01051">
        <ele>820</ele>
        <time>2021-08-02T09:24:46.403Z</time>
      </trkpt>
      <trkpt lat="47.03823" lon="9.01052">
        <ele>820</ele>
        <time>2021-08-02T09:24:47.402Z</time>
      </trkpt>
      <trkpt lat="47.03823" lon="9.01052">
        <ele>821</ele>
        <time>2021-08-02T09:24:48.403Z</time>
      </trkpt>
      <trkpt lat="47.03822" lon="9.01052">
        <ele>821</ele>
        <time>2021-08-02T09:24:49.402Z</time>
      </trkpt>
      <trkpt lat="47.03822" lon="9.0105">
        <ele>822</ele>
        <time>2021-08-02T09:24:50.403Z</time>
      </trkpt>
      <trkpt lat="47.03821" lon="9.01049">
        <ele>822</ele>
        <time>2021-08-02T09:24:51.403Z</time>
      </trkpt>
      <trkpt lat="47.0382" lon="9.01047">
        <ele>822</ele>
        <time>2021-08-02T09:24:52.402Z</time>
      </trkpt>
      <trkpt lat="47.03819" lon="9.01046">
        <ele>822</ele>
        <time>2021-08-02T09:24:53.402Z</time>
      </trkpt>
      <trkpt lat="47.03818" lon="9.01046">
        <ele>822</ele>
        <time>2021-08-02T09:24:54.403Z</time>
      </trkpt>
      <trkpt lat="47.03817" lon="9.01045">
        <ele>822</ele>
        <time>2021-08-02T09:24:55.403Z</time>
      </trkpt>
      <trkpt lat="47.03816" lon="9.01045">
        <ele>822</ele>
        <time>2021-08-02T09:24:56.403Z</time>
      </trkpt>
      <trkpt lat="47.03815" lon="9.01044">
        <ele>822</ele>
        <time>2021-08-02T09:24:57.403Z</time>
      </trkpt>
      <trkpt lat="47.03815" lon="9.01043">
        <ele>822</ele>
        <time>2021-08-02T09:24:58.402Z</time>
      </trkpt>
      <trkpt lat="47.03814" lon="9.01043">
        <ele>822</ele>
        <time>2021-08-02T09:24:59.403Z</time>
      </trkpt>
      <trkpt lat="47.03814" lon="9.01042">
        <ele>822</ele>
        <time>2021-08-02T09:25:00.402Z</time>
      </trkpt>
      <trkpt lat="47.03813" lon="9.01041">
        <ele>822</ele>
        <time>2021-08-02T09:25:01.403Z</time>
      </trkpt>
      <trkpt lat="47.03812" lon="9.0104">
        <ele>822</ele>
        <time>2021-08-02T09:25:02.403Z</time>
      </trkpt>
      <trkpt lat="47.03811" lon="9.0104">
        <ele>822</ele>
        <time>2021-08-02T09:25:03.402Z</time>
      </trkpt>
      <trkpt lat="47.03809" lon="9.0104">
        <ele>822</ele>
        <time>2021-08-02T09:25:04.403Z</time>
      </trkpt>
      <trkpt lat="47.03808" lon="9.01039">
        <ele>823</ele>
        <time>2021-08-02T09:25:05.403Z</time>
      </trkpt>
      <trkpt lat="47.03808" lon="9.01039">
        <ele>823</ele>
        <time>2021-08-02T09:25:06.403Z</time>
      </trkpt>
      <trkpt lat="47.03807" lon="9.01038">
        <ele>824</ele>
        <time>2021-08-02T09:25:07.403Z</time>
      </trkpt>
      <trkpt lat="47.03807" lon="9.01038">
        <ele>824</ele>
        <time>2021-08-02T09:25:08.402Z</time>
      </trkpt>
      <trkpt lat="47.03806" lon="9.01037">
        <ele>825</ele>
        <time>2021-08-02T09:25:09.403Z</time>
      </trkpt>
      <trkpt lat="47.03807" lon="9.01035">
        <ele>825</ele>
        <time>2021-08-02T09:25:10.403Z</time>
      </trkpt>
      <trkpt lat="47.03807" lon="9.01034">
        <ele>825</ele>
        <time>2021-08-02T09:25:11.403Z</time>
      </trkpt>
      <trkpt lat="47.03807" lon="9.01033">
        <ele>825</ele>
        <time>2021-08-02T09:25:12.402Z</time>
      </trkpt>
      <trkpt lat="47.03806" lon="9.01033">
        <ele>825</ele>
        <time>2021-08-02T09:25:13.402Z</time>
      </trkpt>
      <trkpt lat="47.03806" lon="9.01032">
        <ele>825</ele>
        <time>2021-08-02T09:25:14.402Z</time>
      </trkpt>
      <trkpt lat="47.03805" lon="9.01032">
        <ele>825</ele>
        <time>2021-08-02T09:25:15.402Z</time>
      </trkpt>
      <trkpt lat="47.03804" lon="9.01032">
        <ele>825</ele>
        <time>2021-08-02T09:25:16.403Z</time>
      </trkpt>
      <trkpt lat="47.03804" lon="9.01031">
        <ele>825</ele>
        <time>2021-08-02T09:25:17.403Z</time>
      </trkpt>
      <trkpt lat="47.03804" lon="9.01031">
        <ele>825</ele>
        <time>2021-08-02T09:25:18.402Z</time>
      </trkpt>
      <trkpt lat="47.03804" lon="9.0103">
        <ele>825</ele>
        <time>2021-08-02T09:25:19.403Z</time>
      </trkpt>
      <trkpt lat="47.03803" lon="9.0103">
        <ele>826</ele>
        <time>2021-08-02T09:25:20.402Z</time>
      </trkpt>
      <trkpt lat="47.03802" lon="9.0103">
        <ele>826</ele>
        <time>2021-08-02T09:25:21.403Z</time>
      </trkpt>
      <trkpt lat="47.03801" lon="9.0103">
        <ele>827</ele>
        <time>2021-08-02T09:25:22.403Z</time>
      </trkpt>
      <trkpt lat="47.03801" lon="9.01029">
        <ele>826</ele>
        <time>2021-08-02T09:25:23.403Z</time>
      </trkpt>
      <trkpt lat="47.03801" lon="9.01027">
        <ele>826</ele>
        <time>2021-08-02T09:25:24.403Z</time>
      </trkpt>
      <trkpt lat="47.038" lon="9.01025">
        <ele>826</ele>
        <time>2021-08-02T09:25:25.403Z</time>
      </trkpt>
      <trkpt lat="47.038" lon="9.01024">
        <ele>825</ele>
        <time>2021-08-02T09:25:26.403Z</time>
      </trkpt>
      <trkpt lat="47.03799" lon="9.01023">
        <ele>825</ele>
        <time>2021-08-02T09:25:27.403Z</time>
      </trkpt>
      <trkpt lat="47.03799" lon="9.01023">
        <ele>825</ele>
        <time>2021-08-02T09:25:28.403Z</time>
      </trkpt>
      <trkpt lat="47.03798" lon="9.01023">
        <ele>825</ele>
        <time>2021-08-02T09:25:29.402Z</time>
      </trkpt>
      <trkpt lat="47.03798" lon="9.01022">
        <ele>826</ele>
        <time>2021-08-02T09:25:30.403Z</time>
      </trkpt>
      <trkpt lat="47.03798" lon="9.01022">
        <ele>826</ele>
        <time>2021-08-02T09:25:31.403Z</time>
      </trkpt>
      <trkpt lat="47.03798" lon="9.01021">
        <ele>826</ele>
        <time>2021-08-02T09:25:32.403Z</time>
      </trkpt>
      <trkpt lat="47.03797" lon="9.0102">
        <ele>826</ele>
        <time>2021-08-02T09:25:33.403Z</time>
      </trkpt>
      <trkpt lat="47.03796" lon="9.01019">
        <ele>826</ele>
        <time>2021-08-02T09:25:34.402Z</time>
      </trkpt>
      <trkpt lat="47.03795" lon="9.01018">
        <ele>826</ele>
        <time>2021-08-02T09:25:35.402Z</time>
      </trkpt>
      <trkpt lat="47.03795" lon="9.01018">
        <ele>826</ele>
        <time>2021-08-02T09:25:36.402Z</time>
      </trkpt>
      <trkpt lat="47.03795" lon="9.01016">
        <ele>826</ele>
        <time>2021-08-02T09:25:37.402Z</time>
      </trkpt>
      <trkpt lat="47.03795" lon="9.01015">
        <ele>826</ele>
        <time>2021-08-02T09:25:38.402Z</time>
      </trkpt>
      <trkpt lat="47.03795" lon="9.01015">
        <ele>826</ele>
        <time>2021-08-02T09:25:39.402Z</time>
      </trkpt>
      <trkpt lat="47.03794" lon="9.01014">
        <ele>826</ele>
        <time>2021-08-02T09:25:40.403Z</time>
      </trkpt>
      <trkpt lat="47.03793" lon="9.01013">
        <ele>825</ele>
        <time>2021-08-02T09:25:41.403Z</time>
      </trkpt>
      <trkpt lat="47.03792" lon="9.01012">
        <ele>825</ele>
        <time>2021-08-02T09:25:42.402Z</time>
      </trkpt>
      <trkpt lat="47.03792" lon="9.0101">
        <ele>824</ele>
        <time>2021-08-02T09:25:43.402Z</time>
      </trkpt>
      <trkpt lat="47.03791" lon="9.01008">
        <ele>824</ele>
        <time>2021-08-02T09:25:44.402Z</time>
      </trkpt>
      <trkpt lat="47.0379" lon="9.01007">
        <ele>824</ele>
        <time>2021-08-02T09:25:45.402Z</time>
      </trkpt>
      <trkpt lat="47.03788" lon="9.01006">
        <ele>824</ele>
        <time>2021-08-02T09:25:46.403Z</time>
      </trkpt>
      <trkpt lat="47.03787" lon="9.01006">
        <ele>825</ele>
        <time>2021-08-02T09:25:47.402Z</time>
      </trkpt>
      <trkpt lat="47.03786" lon="9.01006">
        <ele>825</ele>
        <time>2021-08-02T09:25:48.403Z</time>
      </trkpt>
      <trkpt lat="47.03786" lon="9.01007">
        <ele>825</ele>
        <time>2021-08-02T09:25:49.402Z</time>
      </trkpt>
      <trkpt lat="47.03785" lon="9.01007">
        <ele>826</ele>
        <time>2021-08-02T09:25:50.402Z</time>
      </trkpt>
      <trkpt lat="47.03783" lon="9.01007">
        <ele>826</ele>
        <time>2021-08-02T09:25:51.403Z</time>
      </trkpt>
      <trkpt lat="47.03782" lon="9.01007">
        <ele>826</ele>
        <time>2021-08-02T09:25:52.403Z</time>
      </trkpt>
      <trkpt lat="47.03781" lon="9.01006">
        <ele>826</ele>
        <time>2021-08-02T09:25:53.403Z</time>
      </trkpt>
      <trkpt lat="47.0378" lon="9.01005">
        <ele>826</ele>
        <time>2021-08-02T09:25:54.403Z</time>
      </trkpt>
      <trkpt lat="47.03779" lon="9.01004">
        <ele>827</ele>
        <time>2021-08-02T09:25:55.403Z</time>
      </trkpt>
      <trkpt lat="47.03777" lon="9.01004">
        <ele>827</ele>
        <time>2021-08-02T09:25:56.402Z</time>
      </trkpt>
      <trkpt lat="47.03776" lon="9.01005">
        <ele>827</ele>
        <time>2021-08-02T09:25:57.402Z</time>
      </trkpt>
      <trkpt lat="47.03775" lon="9.01005">
        <ele>827</ele>
        <time>2021-08-02T09:25:58.403Z</time>
      </trkpt>
      <trkpt lat="47.03774" lon="9.01006">
        <ele>827</ele>
        <time>2021-08-02T09:25:59.403Z</time>
      </trkpt>
      <trkpt lat="47.03773" lon="9.01006">
        <ele>827</ele>
        <time>2021-08-02T09:26:00.403Z</time>
      </trkpt>
      <trkpt lat="47.03772" lon="9.01006">
        <ele>827</ele>
        <time>2021-08-02T09:26:01.403Z</time>
      </trkpt>
      <trkpt lat="47.0377" lon="9.01006">
        <ele>827</ele>
        <time>2021-08-02T09:26:02.403Z</time>
      </trkpt>
      <trkpt lat="47.03769" lon="9.01006">
        <ele>828</ele>
        <time>2021-08-02T09:26:03.403Z</time>
      </trkpt>
      <trkpt lat="47.03768" lon="9.01007">
        <ele>829</ele>
        <time>2021-08-02T09:26:04.403Z</time>
      </trkpt>
      <trkpt lat="47.03767" lon="9.01006">
        <ele>830</ele>
        <time>2021-08-02T09:26:05.402Z</time>
      </trkpt>
      <trkpt lat="47.03766" lon="9.01004">
        <ele>830</ele>
        <time>2021-08-02T09:26:06.402Z</time>
      </trkpt>
      <trkpt lat="47.03765" lon="9.01003">
        <ele>831</ele>
        <time>2021-08-02T09:26:07.403Z</time>
      </trkpt>
      <trkpt lat="47.03764" lon="9.01003">
        <ele>833</ele>
        <time>2021-08-02T09:26:08.403Z</time>
      </trkpt>
      <trkpt lat="47.03763" lon="9.01002">
        <ele>834</ele>
        <time>2021-08-02T09:26:09.403Z</time>
      </trkpt>
      <trkpt lat="47.03762" lon="9.01003">
        <ele>835</ele>
        <time>2021-08-02T09:26:10.403Z</time>
      </trkpt>
      <trkpt lat="47.03761" lon="9.01003">
        <ele>837</ele>
        <time>2021-08-02T09:26:11.402Z</time>
      </trkpt>
      <trkpt lat="47.0376" lon="9.01003">
        <ele>838</ele>
        <time>2021-08-02T09:26:12.402Z</time>
      </trkpt>
      <trkpt lat="47.0376" lon="9.01002">
        <ele>839</ele>
        <time>2021-08-02T09:26:13.402Z</time>
      </trkpt>
      <trkpt lat="47.03758" lon="9.01001">
        <ele>841</ele>
        <time>2021-08-02T09:26:14.402Z</time>
      </trkpt>
      <trkpt lat="47.03758" lon="9.01001">
        <ele>842</ele>
        <time>2021-08-02T09:26:15.403Z</time>
      </trkpt>
      <trkpt lat="47.03757" lon="9.01">
        <ele>842</ele>
        <time>2021-08-02T09:26:16.403Z</time>
      </trkpt>
      <trkpt lat="47.03756" lon="9.00999">
        <ele>843</ele>
        <time>2021-08-02T09:26:17.403Z</time>
      </trkpt>
      <trkpt lat="47.03756" lon="9.00998">
        <ele>844</ele>
        <time>2021-08-02T09:26:18.402Z</time>
      </trkpt>
      <trkpt lat="47.03756" lon="9.00998">
        <ele>844</ele>
        <time>2021-08-02T09:26:19.403Z</time>
      </trkpt>
      <trkpt lat="47.03754" lon="9.00993">
        <ele>847</ele>
        <time>2021-08-02T09:26:20.403Z</time>
      </trkpt>
      <trkpt lat="47.03753" lon="9.00991">
        <ele>847</ele>
        <time>2021-08-02T09:26:21.403Z</time>
      </trkpt>
      <trkpt lat="47.03753" lon="9.0099">
        <ele>848</ele>
        <time>2021-08-02T09:26:22.402Z</time>
      </trkpt>
      <trkpt lat="47.03752" lon="9.00988">
        <ele>848</ele>
        <time>2021-08-02T09:26:23.402Z</time>
      </trkpt>
      <trkpt lat="47.03751" lon="9.00987">
        <ele>847</ele>
        <time>2021-08-02T09:26:24.402Z</time>
      </trkpt>
      <trkpt lat="47.03751" lon="9.00987">
        <ele>847</ele>
        <time>2021-08-02T09:26:25.403Z</time>
      </trkpt>
      <trkpt lat="47.03751" lon="9.00987">
        <ele>846</ele>
        <time>2021-08-02T09:26:26.403Z</time>
      </trkpt>
      <trkpt lat="47.0375" lon="9.00986">
        <ele>845</ele>
        <time>2021-08-02T09:26:27.403Z</time>
      </trkpt>
      <trkpt lat="47.0375" lon="9.00985">
        <ele>844</ele>
        <time>2021-08-02T09:26:28.403Z</time>
      </trkpt>
      <trkpt lat="47.0375" lon="9.00984">
        <ele>843</ele>
        <time>2021-08-02T09:26:29.402Z</time>
      </trkpt>
      <trkpt lat="47.0375" lon="9.00983">
        <ele>843</ele>
        <time>2021-08-02T09:26:30.403Z</time>
      </trkpt>
      <trkpt lat="47.03749" lon="9.00982">
        <ele>842</ele>
        <time>2021-08-02T09:26:31.402Z</time>
      </trkpt>
      <trkpt lat="47.03748" lon="9.00981">
        <ele>842</ele>
        <time>2021-08-02T09:26:32.403Z</time>
      </trkpt>
      <trkpt lat="47.03748" lon="9.0098">
        <ele>841</ele>
        <time>2021-08-02T09:26:33.403Z</time>
      </trkpt>
      <trkpt lat="47.03748" lon="9.00979">
        <ele>841</ele>
        <time>2021-08-02T09:26:34.402Z</time>
      </trkpt>
      <trkpt lat="47.03747" lon="9.00978">
        <ele>841</ele>
        <time>2021-08-02T09:26:35.402Z</time>
      </trkpt>
      <trkpt lat="47.03747" lon="9.00977">
        <ele>841</ele>
        <time>2021-08-02T09:26:36.403Z</time>
      </trkpt>
      <trkpt lat="47.03746" lon="9.00975">
        <ele>840</ele>
        <time>2021-08-02T09:26:37.402Z</time>
      </trkpt>
      <trkpt lat="47.03745" lon="9.00974">
        <ele>839</ele>
        <time>2021-08-02T09:26:38.403Z</time>
      </trkpt>
      <trkpt lat="47.03745" lon="9.00973">
        <ele>839</ele>
        <time>2021-08-02T09:26:39.403Z</time>
      </trkpt>
      <trkpt lat="47.03744" lon="9.00972">
        <ele>838</ele>
        <time>2021-08-02T09:26:40.403Z</time>
      </trkpt>
      <trkpt lat="47.03742" lon="9.00972">
        <ele>838</ele>
        <time>2021-08-02T09:26:41.403Z</time>
      </trkpt>
      <trkpt lat="47.03741" lon="9.00971">
        <ele>837</ele>
        <time>2021-08-02T09:26:42.402Z</time>
      </trkpt>
      <trkpt lat="47.0374" lon="9.00971">
        <ele>837</ele>
        <time>2021-08-02T09:26:43.403Z</time>
      </trkpt>
      <trkpt lat="47.0374" lon="9.00972">
        <ele>837</ele>
        <time>2021-08-02T09:26:44.402Z</time>
      </trkpt>
      <trkpt lat="47.03741" lon="9.00974">
        <ele>836</ele>
        <time>2021-08-02T09:26:45.402Z</time>
      </trkpt>
      <trkpt lat="47.0374" lon="9.00974">
        <ele>836</ele>
        <time>2021-08-02T09:26:46.403Z</time>
      </trkpt>
      <trkpt lat="47.0374" lon="9.00974">
        <ele>836</ele>
        <time>2021-08-02T09:26:47.402Z</time>
      </trkpt>
      <trkpt lat="47.03739" lon="9.00974">
        <ele>835</ele>
        <time>2021-08-02T09:26:48.403Z</time>
      </trkpt>
      <trkpt lat="47.03738" lon="9.00974">
        <ele>835</ele>
        <time>2021-08-02T09:26:49.403Z</time>
      </trkpt>
      <trkpt lat="47.03737" lon="9.00973">
        <ele>835</ele>
        <time>2021-08-02T09:26:50.403Z</time>
      </trkpt>
      <trkpt lat="47.03737" lon="9.00972">
        <ele>834</ele>
        <time>2021-08-02T09:26:51.403Z</time>
      </trkpt>
      <trkpt lat="47.03737" lon="9.00972">
        <ele>834</ele>
        <time>2021-08-02T09:26:52.402Z</time>
      </trkpt>
      <trkpt lat="47.03736" lon="9.00971">
        <ele>833</ele>
        <time>2021-08-02T09:26:53.403Z</time>
      </trkpt>
      <trkpt lat="47.03736" lon="9.0097">
        <ele>832</ele>
        <time>2021-08-02T09:26:54.402Z</time>
      </trkpt>
      <trkpt lat="47.03735" lon="9.00969">
        <ele>832</ele>
        <time>2021-08-02T09:26:55.403Z</time>
      </trkpt>
      <trkpt lat="47.03734" lon="9.00968">
        <ele>831</ele>
        <time>2021-08-02T09:26:56.403Z</time>
      </trkpt>
      <trkpt lat="47.03733" lon="9.00966">
        <ele>830</ele>
        <time>2021-08-02T09:26:57.402Z</time>
      </trkpt>
      <trkpt lat="47.03733" lon="9.00964">
        <ele>830</ele>
        <time>2021-08-02T09:26:58.403Z</time>
      </trkpt>
      <trkpt lat="47.03732" lon="9.00964">
        <ele>830</ele>
        <time>2021-08-02T09:26:59.402Z</time>
      </trkpt>
      <trkpt lat="47.03732" lon="9.00964">
        <ele>830</ele>
        <time>2021-08-02T09:27:00.402Z</time>
      </trkpt>
      <trkpt lat="47.03731" lon="9.00963">
        <ele>830</ele>
        <time>2021-08-02T09:27:01.403Z</time>
      </trkpt>
      <trkpt lat="47.03731" lon="9.00962">
        <ele>829</ele>
        <time>2021-08-02T09:27:02.402Z</time>
      </trkpt>
      <trkpt lat="47.0373" lon="9.00961">
        <ele>828</ele>
        <time>2021-08-02T09:27:03.403Z</time>
      </trkpt>
      <trkpt lat="47.0373" lon="9.0096">
        <ele>827</ele>
        <time>2021-08-02T09:27:04.403Z</time>
      </trkpt>
      <trkpt lat="47.03729" lon="9.00959">
        <ele>825</ele>
        <time>2021-08-02T09:27:05.402Z</time>
      </trkpt>
      <trkpt lat="47.03729" lon="9.00957">
        <ele>824</ele>
        <time>2021-08-02T09:27:06.402Z</time>
      </trkpt>
      <trkpt lat="47.03728" lon="9.00956">
        <ele>823</ele>
        <time>2021-08-02T09:27:07.402Z</time>
      </trkpt>
      <trkpt lat="47.03727" lon="9.00955">
        <ele>822</ele>
        <time>2021-08-02T09:27:08.403Z</time>
      </trkpt>
      <trkpt lat="47.03726" lon="9.00955">
        <ele>821</ele>
        <time>2021-08-02T09:27:09.403Z</time>
      </trkpt>
      <trkpt lat="47.03725" lon="9.00954">
        <ele>821</ele>
        <time>2021-08-02T09:27:10.403Z</time>
      </trkpt>
      <trkpt lat="47.03725" lon="9.00953">
        <ele>821</ele>
        <time>2021-08-02T09:27:11.403Z</time>
      </trkpt>
      <trkpt lat="47.03724" lon="9.00953">
        <ele>821</ele>
        <time>2021-08-02T09:27:12.402Z</time>
      </trkpt>
      <trkpt lat="47.03724" lon="9.00952">
        <ele>821</ele>
        <time>2021-08-02T09:27:13.402Z</time>
      </trkpt>
      <trkpt lat="47.03723" lon="9.0095">
        <ele>822</ele>
        <time>2021-08-02T09:27:14.403Z</time>
      </trkpt>
      <trkpt lat="47.03723" lon="9.00949">
        <ele>823</ele>
        <time>2021-08-02T09:27:15.403Z</time>
      </trkpt>
      <trkpt lat="47.03722" lon="9.00948">
        <ele>824</ele>
        <time>2021-08-02T09:27:16.402Z</time>
      </trkpt>
      <trkpt lat="47.03721" lon="9.00947">
        <ele>825</ele>
        <time>2021-08-02T09:27:17.402Z</time>
      </trkpt>
      <trkpt lat="47.0372" lon="9.00946">
        <ele>826</ele>
        <time>2021-08-02T09:27:18.403Z</time>
      </trkpt>
      <trkpt lat="47.03719" lon="9.00945">
        <ele>826</ele>
        <time>2021-08-02T09:27:19.402Z</time>
      </trkpt>
      <trkpt lat="47.03717" lon="9.00944">
        <ele>827</ele>
        <time>2021-08-02T09:27:20.403Z</time>
      </trkpt>
      <trkpt lat="47.03716" lon="9.00943">
        <ele>828</ele>
        <time>2021-08-02T09:27:21.403Z</time>
      </trkpt>
      <trkpt lat="47.03716" lon="9.00941">
        <ele>829</ele>
        <time>2021-08-02T09:27:22.403Z</time>
      </trkpt>
      <trkpt lat="47.03715" lon="9.0094">
        <ele>830</ele>
        <time>2021-08-02T09:27:23.403Z</time>
      </trkpt>
      <trkpt lat="47.03715" lon="9.00939">
        <ele>830</ele>
        <time>2021-08-02T09:27:24.403Z</time>
      </trkpt>
      <trkpt lat="47.03714" lon="9.00938">
        <ele>831</ele>
        <time>2021-08-02T09:27:25.403Z</time>
      </trkpt>
      <trkpt lat="47.03714" lon="9.00937">
        <ele>832</ele>
        <time>2021-08-02T09:27:26.403Z</time>
      </trkpt>
      <trkpt lat="47.03714" lon="9.00936">
        <ele>832</ele>
        <time>2021-08-02T09:27:27.403Z</time>
      </trkpt>
      <trkpt lat="47.03713" lon="9.00935">
        <ele>833</ele>
        <time>2021-08-02T09:27:28.403Z</time>
      </trkpt>
      <trkpt lat="47.03712" lon="9.00934">
        <ele>833</ele>
        <time>2021-08-02T09:27:29.403Z</time>
      </trkpt>
      <trkpt lat="47.03712" lon="9.00933">
        <ele>834</ele>
        <time>2021-08-02T09:27:30.403Z</time>
      </trkpt>
      <trkpt lat="47.03711" lon="9.00932">
        <ele>834</ele>
        <time>2021-08-02T09:27:31.402Z</time>
      </trkpt>
      <trkpt lat="47.0371" lon="9.00931">
        <ele>834</ele>
        <time>2021-08-02T09:27:32.402Z</time>
      </trkpt>
      <trkpt lat="47.03709" lon="9.0093">
        <ele>834</ele>
        <time>2021-08-02T09:27:33.403Z</time>
      </trkpt>
      <trkpt lat="47.03709" lon="9.0093">
        <ele>835</ele>
        <time>2021-08-02T09:27:34.403Z</time>
      </trkpt>
      <trkpt lat="47.03708" lon="9.00929">
        <ele>835</ele>
        <time>2021-08-02T09:27:35.402Z</time>
      </trkpt>
      <trkpt lat="47.03708" lon="9.00928">
        <ele>834</ele>
        <time>2021-08-02T09:27:36.402Z</time>
      </trkpt>
      <trkpt lat="47.03707" lon="9.00927">
        <ele>834</ele>
        <time>2021-08-02T09:27:37.402Z</time>
      </trkpt>
      <trkpt lat="47.03706" lon="9.00926">
        <ele>834</ele>
        <time>2021-08-02T09:27:38.402Z</time>
      </trkpt>
      <trkpt lat="47.03706" lon="9.00925">
        <ele>835</ele>
        <time>2021-08-02T09:27:39.403Z</time>
      </trkpt>
      <trkpt lat="47.03705" lon="9.00924">
        <ele>835</ele>
        <time>2021-08-02T09:27:40.403Z</time>
      </trkpt>
      <trkpt lat="47.03705" lon="9.00923">
        <ele>835</ele>
        <time>2021-08-02T09:27:41.403Z</time>
      </trkpt>
      <trkpt lat="47.03704" lon="9.00922">
        <ele>835</ele>
        <time>2021-08-02T09:27:42.402Z</time>
      </trkpt>
      <trkpt lat="47.03703" lon="9.00921">
        <ele>835</ele>
        <time>2021-08-02T09:27:43.403Z</time>
      </trkpt>
      <trkpt lat="47.03703" lon="9.00921">
        <ele>835</ele>
        <time>2021-08-02T09:27:44.403Z</time>
      </trkpt>
      <trkpt lat="47.03702" lon="9.0092">
        <ele>836</ele>
        <time>2021-08-02T09:27:45.403Z</time>
      </trkpt>
      <trkpt lat="47.03701" lon="9.00919">
        <ele>836</ele>
        <time>2021-08-02T09:27:46.403Z</time>
      </trkpt>
      <trkpt lat="47.037" lon="9.00918">
        <ele>835</ele>
        <time>2021-08-02T09:27:47.402Z</time>
      </trkpt>
      <trkpt lat="47.037" lon="9.00917">
        <ele>835</ele>
        <time>2021-08-02T09:27:48.403Z</time>
      </trkpt>
      <trkpt lat="47.03698" lon="9.00917">
        <ele>835</ele>
        <time>2021-08-02T09:27:49.402Z</time>
      </trkpt>
      <trkpt lat="47.03698" lon="9.00916">
        <ele>834</ele>
        <time>2021-08-02T09:27:50.403Z</time>
      </trkpt>
      <trkpt lat="47.03698" lon="9.00915">
        <ele>834</ele>
        <time>2021-08-02T09:27:51.403Z</time>
      </trkpt>
      <trkpt lat="47.03697" lon="9.00914">
        <ele>833</ele>
        <time>2021-08-02T09:27:52.403Z</time>
      </trkpt>
      <trkpt lat="47.03696" lon="9.00914">
        <ele>833</ele>
        <time>2021-08-02T09:27:53.402Z</time>
      </trkpt>
      <trkpt lat="47.03695" lon="9.00912">
        <ele>833</ele>
        <time>2021-08-02T09:27:54.403Z</time>
      </trkpt>
      <trkpt lat="47.03695" lon="9.00911">
        <ele>833</ele>
        <time>2021-08-02T09:27:55.402Z</time>
      </trkpt>
      <trkpt lat="47.03694" lon="9.0091">
        <ele>833</ele>
        <time>2021-08-02T09:27:56.403Z</time>
      </trkpt>
      <trkpt lat="47.03693" lon="9.00909">
        <ele>833</ele>
        <time>2021-08-02T09:27:57.403Z</time>
      </trkpt>
      <trkpt lat="47.03692" lon="9.00907">
        <ele>833</ele>
        <time>2021-08-02T09:27:58.403Z</time>
      </trkpt>
      <trkpt lat="47.03691" lon="9.00906">
        <ele>833</ele>
        <time>2021-08-02T09:27:59.403Z</time>
      </trkpt>
      <trkpt lat="47.0369" lon="9.00904">
        <ele>833</ele>
        <time>2021-08-02T09:28:00.402Z</time>
      </trkpt>
      <trkpt lat="47.0369" lon="9.00902">
        <ele>834</ele>
        <time>2021-08-02T09:28:01.402Z</time>
      </trkpt>
      <trkpt lat="47.03688" lon="9.009">
        <ele>834</ele>
        <time>2021-08-02T09:28:02.402Z</time>
      </trkpt>
      <trkpt lat="47.03687" lon="9.00899">
        <ele>834</ele>
        <time>2021-08-02T09:28:03.402Z</time>
      </trkpt>
      <trkpt lat="47.03687" lon="9.00898">
        <ele>834</ele>
        <time>2021-08-02T09:28:04.403Z</time>
      </trkpt>
      <trkpt lat="47.03686" lon="9.00897">
        <ele>834</ele>
        <time>2021-08-02T09:28:05.403Z</time>
      </trkpt>
      <trkpt lat="47.03685" lon="9.00896">
        <ele>834</ele>
        <time>2021-08-02T09:28:06.402Z</time>
      </trkpt>
      <trkpt lat="47.03685" lon="9.00895">
        <ele>834</ele>
        <time>2021-08-02T09:28:07.402Z</time>
      </trkpt>
      <trkpt lat="47.03685" lon="9.00894">
        <ele>834</ele>
        <time>2021-08-02T09:28:08.403Z</time>
      </trkpt>
      <trkpt lat="47.03685" lon="9.00892">
        <ele>833</ele>
        <time>2021-08-02T09:28:09.403Z</time>
      </trkpt>
      <trkpt lat="47.03686" lon="9.0089">
        <ele>832</ele>
        <time>2021-08-02T09:28:10.403Z</time>
      </trkpt>
      <trkpt lat="47.03685" lon="9.00889">
        <ele>831</ele>
        <time>2021-08-02T09:28:11.402Z</time>
      </trkpt>
      <trkpt lat="47.03685" lon="9.00888">
        <ele>831</ele>
        <time>2021-08-02T09:28:12.403Z</time>
      </trkpt>
      <trkpt lat="47.03684" lon="9.00887">
        <ele>831</ele>
        <time>2021-08-02T09:28:13.403Z</time>
      </trkpt>
      <trkpt lat="47.03683" lon="9.00887">
        <ele>831</ele>
        <time>2021-08-02T09:28:14.403Z</time>
      </trkpt>
      <trkpt lat="47.03683" lon="9.00886">
        <ele>830</ele>
        <time>2021-08-02T09:28:15.403Z</time>
      </trkpt>
      <trkpt lat="47.03682" lon="9.00885">
        <ele>830</ele>
        <time>2021-08-02T09:28:16.402Z</time>
      </trkpt>
      <trkpt lat="47.03682" lon="9.00884">
        <ele>830</ele>
        <time>2021-08-02T09:28:17.402Z</time>
      </trkpt>
      <trkpt lat="47.0368" lon="9.00884">
        <ele>830</ele>
        <time>2021-08-02T09:28:18.402Z</time>
      </trkpt>
      <trkpt lat="47.03679" lon="9.00882">
        <ele>831</ele>
        <time>2021-08-02T09:28:19.403Z</time>
      </trkpt>
      <trkpt lat="47.03679" lon="9.00881">
        <ele>831</ele>
        <time>2021-08-02T09:28:20.403Z</time>
      </trkpt>
      <trkpt lat="47.03678" lon="9.00878">
        <ele>832</ele>
        <time>2021-08-02T09:28:21.403Z</time>
      </trkpt>
      <trkpt lat="47.03678" lon="9.00877">
        <ele>832</ele>
        <time>2021-08-02T09:28:22.403Z</time>
      </trkpt>
      <trkpt lat="47.03677" lon="9.00875">
        <ele>833</ele>
        <time>2021-08-02T09:28:23.403Z</time>
      </trkpt>
      <trkpt lat="47.03677" lon="9.00874">
        <ele>833</ele>
        <time>2021-08-02T09:28:24.403Z</time>
      </trkpt>
      <trkpt lat="47.03676" lon="9.00873">
        <ele>834</ele>
        <time>2021-08-02T09:28:25.403Z</time>
      </trkpt>
      <trkpt lat="47.03674" lon="9.00872">
        <ele>834</ele>
        <time>2021-08-02T09:28:26.403Z</time>
      </trkpt>
      <trkpt lat="47.03673" lon="9.00871">
        <ele>835</ele>
        <time>2021-08-02T09:28:27.403Z</time>
      </trkpt>
      <trkpt lat="47.03672" lon="9.00869">
        <ele>836</ele>
        <time>2021-08-02T09:28:28.403Z</time>
      </trkpt>
      <trkpt lat="47.03671" lon="9.00868">
        <ele>836</ele>
        <time>2021-08-02T09:28:29.403Z</time>
      </trkpt>
      <trkpt lat="47.03671" lon="9.00866">
        <ele>837</ele>
        <time>2021-08-02T09:28:30.403Z</time>
      </trkpt>
      <trkpt lat="47.0367" lon="9.00865">
        <ele>837</ele>
        <time>2021-08-02T09:28:31.402Z</time>
      </trkpt>
      <trkpt lat="47.0367" lon="9.00864">
        <ele>837</ele>
        <time>2021-08-02T09:28:32.403Z</time>
      </trkpt>
      <trkpt lat="47.03669" lon="9.00863">
        <ele>837</ele>
        <time>2021-08-02T09:28:33.403Z</time>
      </trkpt>
      <trkpt lat="47.03669" lon="9.00861">
        <ele>837</ele>
        <time>2021-08-02T09:28:34.403Z</time>
      </trkpt>
      <trkpt lat="47.03668" lon="9.0086">
        <ele>837</ele>
        <time>2021-08-02T09:28:35.403Z</time>
      </trkpt>
      <trkpt lat="47.03668" lon="9.00858">
        <ele>836</ele>
        <time>2021-08-02T09:28:36.403Z</time>
      </trkpt>
      <trkpt lat="47.03667" lon="9.00857">
        <ele>836</ele>
        <time>2021-08-02T09:28:37.402Z</time>
      </trkpt>
      <trkpt lat="47.03666" lon="9.00856">
        <ele>836</ele>
        <time>2021-08-02T09:28:38.402Z</time>
      </trkpt>
      <trkpt lat="47.03666" lon="9.00854">
        <ele>835</ele>
        <time>2021-08-02T09:28:39.403Z</time>
      </trkpt>
      <trkpt lat="47.03666" lon="9.00853">
        <ele>835</ele>
        <time>2021-08-02T09:28:40.403Z</time>
      </trkpt>
      <trkpt lat="47.03665" lon="9.00852">
        <ele>835</ele>
        <time>2021-08-02T09:28:41.403Z</time>
      </trkpt>
      <trkpt lat="47.03665" lon="9.00851">
        <ele>835</ele>
        <time>2021-08-02T09:28:42.402Z</time>
      </trkpt>
      <trkpt lat="47.03665" lon="9.0085">
        <ele>834</ele>
        <time>2021-08-02T09:28:43.403Z</time>
      </trkpt>
      <trkpt lat="47.03665" lon="9.00849">
        <ele>834</ele>
        <time>2021-08-02T09:28:44.403Z</time>
      </trkpt>
      <trkpt lat="47.03664" lon="9.00848">
        <ele>834</ele>
        <time>2021-08-02T09:28:45.402Z</time>
      </trkpt>
      <trkpt lat="47.03664" lon="9.00847">
        <ele>833</ele>
        <time>2021-08-02T09:28:46.403Z</time>
      </trkpt>
      <trkpt lat="47.03663" lon="9.00845">
        <ele>833</ele>
        <time>2021-08-02T09:28:47.403Z</time>
      </trkpt>
      <trkpt lat="47.03663" lon="9.00844">
        <ele>832</ele>
        <time>2021-08-02T09:28:48.402Z</time>
      </trkpt>
      <trkpt lat="47.03664" lon="9.00842">
        <ele>832</ele>
        <time>2021-08-02T09:28:49.402Z</time>
      </trkpt>
      <trkpt lat="47.03664" lon="9.0084">
        <ele>832</ele>
        <time>2021-08-02T09:28:50.402Z</time>
      </trkpt>
      <trkpt lat="47.03664" lon="9.00839">
        <ele>831</ele>
        <time>2021-08-02T09:28:51.403Z</time>
      </trkpt>
      <trkpt lat="47.03664" lon="9.00837">
        <ele>831</ele>
        <time>2021-08-02T09:28:52.402Z</time>
      </trkpt>
      <trkpt lat="47.03663" lon="9.00837">
        <ele>831</ele>
        <time>2021-08-02T09:28:53.403Z</time>
      </trkpt>
      <trkpt lat="47.03663" lon="9.00835">
        <ele>831</ele>
        <time>2021-08-02T09:28:54.403Z</time>
      </trkpt>
      <trkpt lat="47.03662" lon="9.00834">
        <ele>830</ele>
        <time>2021-08-02T09:28:55.402Z</time>
      </trkpt>
      <trkpt lat="47.03662" lon="9.00832">
        <ele>830</ele>
        <time>2021-08-02T09:28:56.403Z</time>
      </trkpt>
      <trkpt lat="47.03661" lon="9.0083">
        <ele>830</ele>
        <time>2021-08-02T09:28:57.402Z</time>
      </trkpt>
      <trkpt lat="47.0366" lon="9.00828">
        <ele>830</ele>
        <time>2021-08-02T09:28:58.403Z</time>
      </trkpt>
      <trkpt lat="47.0366" lon="9.00827">
        <ele>830</ele>
        <time>2021-08-02T09:28:59.402Z</time>
      </trkpt>
      <trkpt lat="47.03659" lon="9.00826">
        <ele>831</ele>
        <time>2021-08-02T09:29:00.403Z</time>
      </trkpt>
      <trkpt lat="47.03659" lon="9.00825">
        <ele>831</ele>
        <time>2021-08-02T09:29:01.403Z</time>
      </trkpt>
      <trkpt lat="47.03658" lon="9.00824">
        <ele>831</ele>
        <time>2021-08-02T09:29:02.403Z</time>
      </trkpt>
      <trkpt lat="47.03658" lon="9.00824">
        <ele>832</ele>
        <time>2021-08-02T09:29:03.402Z</time>
      </trkpt>
      <trkpt lat="47.03664" lon="9.00822">
        <ele>828</ele>
        <time>2021-08-02T09:29:04.403Z</time>
      </trkpt>
      <trkpt lat="47.03665" lon="9.00822">
        <ele>827</ele>
        <time>2021-08-02T09:29:05.403Z</time>
      </trkpt>
      <trkpt lat="47.03665" lon="9.00822">
        <ele>827</ele>
        <time>2021-08-02T09:29:06.402Z</time>
      </trkpt>
      <trkpt lat="47.03665" lon="9.00822">
        <ele>827</ele>
        <time>2021-08-02T09:29:07.403Z</time>
      </trkpt>
      <trkpt lat="47.03663" lon="9.00826">
        <ele>828</ele>
        <time>2021-08-02T09:29:08.403Z</time>
      </trkpt>
      <trkpt lat="47.03664" lon="9.00825">
        <ele>829</ele>
        <time>2021-08-02T09:29:09.403Z</time>
      </trkpt>
      <trkpt lat="47.03662" lon="9.00828">
        <ele>832</ele>
        <time>2021-08-02T09:29:10.403Z</time>
      </trkpt>
      <trkpt lat="47.03661" lon="9.00828">
        <ele>832</ele>
        <time>2021-08-02T09:29:11.403Z</time>
      </trkpt>
      <trkpt lat="47.0366" lon="9.00826">
        <ele>833</ele>
        <time>2021-08-02T09:29:12.403Z</time>
      </trkpt>
      <trkpt lat="47.03659" lon="9.00825">
        <ele>834</ele>
        <time>2021-08-02T09:29:13.403Z</time>
      </trkpt>
      <trkpt lat="47.03658" lon="9.00825">
        <ele>834</ele>
        <time>2021-08-02T09:29:14.402Z</time>
      </trkpt>
      <trkpt lat="47.03657" lon="9.00825">
        <ele>834</ele>
        <time>2021-08-02T09:29:15.402Z</time>
      </trkpt>
      <trkpt lat="47.03656" lon="9.00825">
        <ele>835</ele>
        <time>2021-08-02T09:29:16.403Z</time>
      </trkpt>
      <trkpt lat="47.03655" lon="9.00825">
        <ele>834</ele>
        <time>2021-08-02T09:29:17.403Z</time>
      </trkpt>
      <trkpt lat="47.03654" lon="9.00825">
        <ele>834</ele>
        <time>2021-08-02T09:29:18.403Z</time>
      </trkpt>
      <trkpt lat="47.03653" lon="9.00825">
        <ele>834</ele>
        <time>2021-08-02T09:29:19.402Z</time>
      </trkpt>
      <trkpt lat="47.03652" lon="9.00825">
        <ele>833</ele>
        <time>2021-08-02T09:29:20.403Z</time>
      </trkpt>
      <trkpt lat="47.03651" lon="9.00825">
        <ele>833</ele>
        <time>2021-08-02T09:29:21.403Z</time>
      </trkpt>
      <trkpt lat="47.0365" lon="9.00824">
        <ele>833</ele>
        <time>2021-08-02T09:29:22.403Z</time>
      </trkpt>
      <trkpt lat="47.03648" lon="9.00824">
        <ele>833</ele>
        <time>2021-08-02T09:29:23.403Z</time>
      </trkpt>
      <trkpt lat="47.03646" lon="9.00824">
        <ele>833</ele>
        <time>2021-08-02T09:29:24.403Z</time>
      </trkpt>
      <trkpt lat="47.03645" lon="9.00822">
        <ele>833</ele>
        <time>2021-08-02T09:29:25.403Z</time>
      </trkpt>
      <trkpt lat="47.03644" lon="9.00822">
        <ele>833</ele>
        <time>2021-08-02T09:29:26.403Z</time>
      </trkpt>
      <trkpt lat="47.03643" lon="9.00821">
        <ele>833</ele>
        <time>2021-08-02T09:29:27.403Z</time>
      </trkpt>
      <trkpt lat="47.03642" lon="9.00821">
        <ele>833</ele>
        <time>2021-08-02T09:29:28.403Z</time>
      </trkpt>
      <trkpt lat="47.0364" lon="9.0082">
        <ele>833</ele>
        <time>2021-08-02T09:29:29.402Z</time>
      </trkpt>
      <trkpt lat="47.0364" lon="9.00819">
        <ele>833</ele>
        <time>2021-08-02T09:29:30.403Z</time>
      </trkpt>
      <trkpt lat="47.03638" lon="9.00818">
        <ele>833</ele>
        <time>2021-08-02T09:29:31.403Z</time>
      </trkpt>
      <trkpt lat="47.03636" lon="9.00819">
        <ele>833</ele>
        <time>2021-08-02T09:29:32.402Z</time>
      </trkpt>
      <trkpt lat="47.03635" lon="9.00819">
        <ele>833</ele>
        <time>2021-08-02T09:29:33.402Z</time>
      </trkpt>
      <trkpt lat="47.03633" lon="9.00819">
        <ele>833</ele>
        <time>2021-08-02T09:29:34.403Z</time>
      </trkpt>
      <trkpt lat="47.03631" lon="9.00819">
        <ele>833</ele>
        <time>2021-08-02T09:29:35.402Z</time>
      </trkpt>
      <trkpt lat="47.0363" lon="9.00818">
        <ele>832</ele>
        <time>2021-08-02T09:29:36.402Z</time>
      </trkpt>
      <trkpt lat="47.03629" lon="9.00818">
        <ele>832</ele>
        <time>2021-08-02T09:29:37.403Z</time>
      </trkpt>
      <trkpt lat="47.03629" lon="9.00817">
        <ele>833</ele>
        <time>2021-08-02T09:29:38.403Z</time>
      </trkpt>
      <trkpt lat="47.03628" lon="9.00817">
        <ele>833</ele>
        <time>2021-08-02T09:29:39.403Z</time>
      </trkpt>
      <trkpt lat="47.03628" lon="9.00816">
        <ele>834</ele>
        <time>2021-08-02T09:29:40.403Z</time>
      </trkpt>
      <trkpt lat="47.03628" lon="9.00816">
        <ele>834</ele>
        <time>2021-08-02T09:29:41.403Z</time>
      </trkpt>
      <trkpt lat="47.03627" lon="9.00816">
        <ele>835</ele>
        <time>2021-08-02T09:29:42.403Z</time>
      </trkpt>
      <trkpt lat="47.03627" lon="9.00816">
        <ele>835</ele>
        <time>2021-08-02T09:29:43.402Z</time>
      </trkpt>
      <trkpt lat="47.03627" lon="9.00823">
        <ele>835</ele>
        <time>2021-08-02T09:29:44.403Z</time>
      </trkpt>
      <trkpt lat="47.03628" lon="9.00825">
        <ele>835</ele>
        <time>2021-08-02T09:29:45.403Z</time>
      </trkpt>
      <trkpt lat="47.03627" lon="9.00826">
        <ele>835</ele>
        <time>2021-08-02T09:29:46.402Z</time>
      </trkpt>
      <trkpt lat="47.03625" lon="9.00823">
        <ele>838</ele>
        <time>2021-08-02T09:29:47.402Z</time>
      </trkpt>
      <trkpt lat="47.03624" lon="9.00823">
        <ele>838</ele>
        <time>2021-08-02T09:29:48.403Z</time>
      </trkpt>
      <trkpt lat="47.03623" lon="9.00822">
        <ele>839</ele>
        <time>2021-08-02T09:29:49.402Z</time>
      </trkpt>
      <trkpt lat="47.03622" lon="9.00822">
        <ele>839</ele>
        <time>2021-08-02T09:29:50.403Z</time>
      </trkpt>
      <trkpt lat="47.03621" lon="9.00821">
        <ele>840</ele>
        <time>2021-08-02T09:29:51.403Z</time>
      </trkpt>
      <trkpt lat="47.0362" lon="9.00821">
        <ele>840</ele>
        <time>2021-08-02T09:29:52.403Z</time>
      </trkpt>
      <trkpt lat="47.03619" lon="9.0082">
        <ele>841</ele>
        <time>2021-08-02T09:29:53.403Z</time>
      </trkpt>
      <trkpt lat="47.03618" lon="9.00819">
        <ele>841</ele>
        <time>2021-08-02T09:29:54.402Z</time>
      </trkpt>
      <trkpt lat="47.03616" lon="9.00817">
        <ele>841</ele>
        <time>2021-08-02T09:29:55.402Z</time>
      </trkpt>
      <trkpt lat="47.03615" lon="9.00816">
        <ele>841</ele>
        <time>2021-08-02T09:29:56.402Z</time>
      </trkpt>
      <trkpt lat="47.03615" lon="9.00815">
        <ele>841</ele>
        <time>2021-08-02T09:29:57.402Z</time>
      </trkpt>
      <trkpt lat="47.03614" lon="9.00815">
        <ele>842</ele>
        <time>2021-08-02T09:29:58.403Z</time>
      </trkpt>
      <trkpt lat="47.03614" lon="9.00813">
        <ele>842</ele>
        <time>2021-08-02T09:29:59.402Z</time>
      </trkpt>
      <trkpt lat="47.03613" lon="9.00811">
        <ele>842</ele>
        <time>2021-08-02T09:30:00.403Z</time>
      </trkpt>
      <trkpt lat="47.03613" lon="9.00809">
        <ele>842</ele>
        <time>2021-08-02T09:30:01.403Z</time>
      </trkpt>
      <trkpt lat="47.03612" lon="9.00808">
        <ele>843</ele>
        <time>2021-08-02T09:30:02.403Z</time>
      </trkpt>
      <trkpt lat="47.03612" lon="9.00806">
        <ele>843</ele>
        <time>2021-08-02T09:30:03.402Z</time>
      </trkpt>
      <trkpt lat="47.03611" lon="9.00805">
        <ele>843</ele>
        <time>2021-08-02T09:30:04.402Z</time>
      </trkpt>
      <trkpt lat="47.0361" lon="9.00804">
        <ele>843</ele>
        <time>2021-08-02T09:30:05.403Z</time>
      </trkpt>
      <trkpt lat="47.03611" lon="9.00803">
        <ele>843</ele>
        <time>2021-08-02T09:30:06.403Z</time>
      </trkpt>
      <trkpt lat="47.03611" lon="9.00803">
        <ele>843</ele>
        <time>2021-08-02T09:30:07.403Z</time>
      </trkpt>
      <trkpt lat="47.03611" lon="9.00802">
        <ele>844</ele>
        <time>2021-08-02T09:30:08.403Z</time>
      </trkpt>
      <trkpt lat="47.03611" lon="9.00801">
        <ele>844</ele>
        <time>2021-08-02T09:30:09.402Z</time>
      </trkpt>
      <trkpt lat="47.0361" lon="9.008">
        <ele>844</ele>
        <time>2021-08-02T09:30:10.402Z</time>
      </trkpt>
      <trkpt lat="47.03609" lon="9.008">
        <ele>845</ele>
        <time>2021-08-02T09:30:11.403Z</time>
      </trkpt>
      <trkpt lat="47.03608" lon="9.00799">
        <ele>845</ele>
        <time>2021-08-02T09:30:12.403Z</time>
      </trkpt>
      <trkpt lat="47.03608" lon="9.00799">
        <ele>846</ele>
        <time>2021-08-02T09:30:13.402Z</time>
      </trkpt>
      <trkpt lat="47.03607" lon="9.00798">
        <ele>846</ele>
        <time>2021-08-02T09:30:14.402Z</time>
      </trkpt>
      <trkpt lat="47.03607" lon="9.00797">
        <ele>846</ele>
        <time>2021-08-02T09:30:15.402Z</time>
      </trkpt>
      <trkpt lat="47.03607" lon="9.00797">
        <ele>846</ele>
        <time>2021-08-02T09:30:16.403Z</time>
      </trkpt>
      <trkpt lat="47.03606" lon="9.00796">
        <ele>846</ele>
        <time>2021-08-02T09:30:17.403Z</time>
      </trkpt>
      <trkpt lat="47.03606" lon="9.00796">
        <ele>846</ele>
        <time>2021-08-02T09:30:18.403Z</time>
      </trkpt>
      <trkpt lat="47.03605" lon="9.00795">
        <ele>846</ele>
        <time>2021-08-02T09:30:19.403Z</time>
      </trkpt>
      <trkpt lat="47.03605" lon="9.00794">
        <ele>846</ele>
        <time>2021-08-02T09:30:20.403Z</time>
      </trkpt>
      <trkpt lat="47.03604" lon="9.00793">
        <ele>846</ele>
        <time>2021-08-02T09:30:21.403Z</time>
      </trkpt>
      <trkpt lat="47.03604" lon="9.00793">
        <ele>846</ele>
        <time>2021-08-02T09:30:22.403Z</time>
      </trkpt>
      <trkpt lat="47.03603" lon="9.00792">
        <ele>846</ele>
        <time>2021-08-02T09:30:23.403Z</time>
      </trkpt>
      <trkpt lat="47.03601" lon="9.00791">
        <ele>847</ele>
        <time>2021-08-02T09:30:24.402Z</time>
      </trkpt>
      <trkpt lat="47.036" lon="9.00792">
        <ele>847</ele>
        <time>2021-08-02T09:30:25.403Z</time>
      </trkpt>
      <trkpt lat="47.03598" lon="9.00791">
        <ele>848</ele>
        <time>2021-08-02T09:30:26.404Z</time>
      </trkpt>
      <trkpt lat="47.03598" lon="9.0079">
        <ele>849</ele>
        <time>2021-08-02T09:30:27.404Z</time>
      </trkpt>
      <trkpt lat="47.03597" lon="9.00788">
        <ele>849</ele>
        <time>2021-08-02T09:30:28.403Z</time>
      </trkpt>
      <trkpt lat="47.03596" lon="9.00787">
        <ele>850</ele>
        <time>2021-08-02T09:30:29.404Z</time>
      </trkpt>
      <trkpt lat="47.03596" lon="9.00786">
        <ele>850</ele>
        <time>2021-08-02T09:30:30.404Z</time>
      </trkpt>
      <trkpt lat="47.03595" lon="9.00784">
        <ele>850</ele>
        <time>2021-08-02T09:30:31.404Z</time>
      </trkpt>
      <trkpt lat="47.03595" lon="9.00783">
        <ele>850</ele>
        <time>2021-08-02T09:30:32.403Z</time>
      </trkpt>
      <trkpt lat="47.03595" lon="9.00783">
        <ele>850</ele>
        <time>2021-08-02T09:30:33.403Z</time>
      </trkpt>
      <trkpt lat="47.03594" lon="9.00783">
        <ele>850</ele>
        <time>2021-08-02T09:30:34.403Z</time>
      </trkpt>
      <trkpt lat="47.03594" lon="9.00782">
        <ele>849</ele>
        <time>2021-08-02T09:30:35.404Z</time>
      </trkpt>
      <trkpt lat="47.03593" lon="9.0078">
        <ele>848</ele>
        <time>2021-08-02T09:30:36.404Z</time>
      </trkpt>
      <trkpt lat="47.03593" lon="9.00779">
        <ele>847</ele>
        <time>2021-08-02T09:30:37.404Z</time>
      </trkpt>
      <trkpt lat="47.03592" lon="9.00778">
        <ele>846</ele>
        <time>2021-08-02T09:30:38.403Z</time>
      </trkpt>
      <trkpt lat="47.03592" lon="9.00778">
        <ele>846</ele>
        <time>2021-08-02T09:30:39.404Z</time>
      </trkpt>
      <trkpt lat="47.03591" lon="9.00777">
        <ele>845</ele>
        <time>2021-08-02T09:30:40.404Z</time>
      </trkpt>
      <trkpt lat="47.0359" lon="9.00776">
        <ele>844</ele>
        <time>2021-08-02T09:30:41.404Z</time>
      </trkpt>
      <trkpt lat="47.03589" lon="9.00776">
        <ele>844</ele>
        <time>2021-08-02T09:30:42.404Z</time>
      </trkpt>
      <trkpt lat="47.03589" lon="9.00775">
        <ele>844</ele>
        <time>2021-08-02T09:30:43.403Z</time>
      </trkpt>
      <trkpt lat="47.03588" lon="9.00774">
        <ele>843</ele>
        <time>2021-08-02T09:30:44.403Z</time>
      </trkpt>
      <trkpt lat="47.03587" lon="9.00773">
        <ele>843</ele>
        <time>2021-08-02T09:30:45.403Z</time>
      </trkpt>
      <trkpt lat="47.03586" lon="9.00773">
        <ele>843</ele>
        <time>2021-08-02T09:30:46.404Z</time>
      </trkpt>
      <trkpt lat="47.03586" lon="9.00772">
        <ele>843</ele>
        <time>2021-08-02T09:30:47.403Z</time>
      </trkpt>
      <trkpt lat="47.03585" lon="9.00771">
        <ele>842</ele>
        <time>2021-08-02T09:30:48.404Z</time>
      </trkpt>
      <trkpt lat="47.03585" lon="9.00771">
        <ele>842</ele>
        <time>2021-08-02T09:30:49.403Z</time>
      </trkpt>
      <trkpt lat="47.03583" lon="9.00771">
        <ele>842</ele>
        <time>2021-08-02T09:30:50.404Z</time>
      </trkpt>
      <trkpt lat="47.03582" lon="9.00772">
        <ele>842</ele>
        <time>2021-08-02T09:30:51.403Z</time>
      </trkpt>
      <trkpt lat="47.0358" lon="9.00772">
        <ele>842</ele>
        <time>2021-08-02T09:30:52.404Z</time>
      </trkpt>
      <trkpt lat="47.0358" lon="9.00773">
        <ele>841</ele>
        <time>2021-08-02T09:30:53.404Z</time>
      </trkpt>
      <trkpt lat="47.0358" lon="9.00773">
        <ele>841</ele>
        <time>2021-08-02T09:30:54.403Z</time>
      </trkpt>
      <trkpt lat="47.0358" lon="9.00773">
        <ele>840</ele>
        <time>2021-08-02T09:30:55.404Z</time>
      </trkpt>
      <trkpt lat="47.0358" lon="9.00772">
        <ele>839</ele>
        <time>2021-08-02T09:30:56.403Z</time>
      </trkpt>
      <trkpt lat="47.03579" lon="9.00771">
        <ele>838</ele>
        <time>2021-08-02T09:30:57.403Z</time>
      </trkpt>
      <trkpt lat="47.03578" lon="9.00771">
        <ele>838</ele>
        <time>2021-08-02T09:30:58.403Z</time>
      </trkpt>
      <trkpt lat="47.03577" lon="9.00771">
        <ele>837</ele>
        <time>2021-08-02T09:30:59.404Z</time>
      </trkpt>
      <trkpt lat="47.03577" lon="9.0077">
        <ele>838</ele>
        <time>2021-08-02T09:31:00.404Z</time>
      </trkpt>
      <trkpt lat="47.03576" lon="9.0077">
        <ele>838</ele>
        <time>2021-08-02T09:31:01.404Z</time>
      </trkpt>
      <trkpt lat="47.03575" lon="9.0077">
        <ele>839</ele>
        <time>2021-08-02T09:31:02.404Z</time>
      </trkpt>
      <trkpt lat="47.03574" lon="9.0077">
        <ele>839</ele>
        <time>2021-08-02T09:31:03.403Z</time>
      </trkpt>
      <trkpt lat="47.03573" lon="9.00769">
        <ele>839</ele>
        <time>2021-08-02T09:31:04.404Z</time>
      </trkpt>
      <trkpt lat="47.03573" lon="9.00769">
        <ele>839</ele>
        <time>2021-08-02T09:31:05.404Z</time>
      </trkpt>
      <trkpt lat="47.03572" lon="9.00768">
        <ele>839</ele>
        <time>2021-08-02T09:31:06.403Z</time>
      </trkpt>
      <trkpt lat="47.03572" lon="9.00768">
        <ele>839</ele>
        <time>2021-08-02T09:31:07.404Z</time>
      </trkpt>
      <trkpt lat="47.03571" lon="9.00768">
        <ele>839</ele>
        <time>2021-08-02T09:31:08.404Z</time>
      </trkpt>
      <trkpt lat="47.0357" lon="9.00767">
        <ele>840</ele>
        <time>2021-08-02T09:31:09.404Z</time>
      </trkpt>
      <trkpt lat="47.03569" lon="9.00767">
        <ele>840</ele>
        <time>2021-08-02T09:31:10.404Z</time>
      </trkpt>
      <trkpt lat="47.03568" lon="9.00766">
        <ele>840</ele>
        <time>2021-08-02T09:31:11.404Z</time>
      </trkpt>
      <trkpt lat="47.03567" lon="9.00765">
        <ele>840</ele>
        <time>2021-08-02T09:31:12.404Z</time>
      </trkpt>
      <trkpt lat="47.03566" lon="9.00763">
        <ele>840</ele>
        <time>2021-08-02T09:31:13.404Z</time>
      </trkpt>
      <trkpt lat="47.03565" lon="9.00762">
        <ele>841</ele>
        <time>2021-08-02T09:31:14.403Z</time>
      </trkpt>
      <trkpt lat="47.03564" lon="9.00762">
        <ele>841</ele>
        <time>2021-08-02T09:31:15.404Z</time>
      </trkpt>
      <trkpt lat="47.03564" lon="9.00761">
        <ele>841</ele>
        <time>2021-08-02T09:31:16.404Z</time>
      </trkpt>
      <trkpt lat="47.03563" lon="9.0076">
        <ele>842</ele>
        <time>2021-08-02T09:31:17.404Z</time>
      </trkpt>
      <trkpt lat="47.03562" lon="9.00759">
        <ele>842</ele>
        <time>2021-08-02T09:31:18.403Z</time>
      </trkpt>
      <trkpt lat="47.0356" lon="9.00759">
        <ele>843</ele>
        <time>2021-08-02T09:31:19.404Z</time>
      </trkpt>
      <trkpt lat="47.03559" lon="9.00758">
        <ele>843</ele>
        <time>2021-08-02T09:31:20.404Z</time>
      </trkpt>
      <trkpt lat="47.03558" lon="9.00758">
        <ele>844</ele>
        <time>2021-08-02T09:31:21.404Z</time>
      </trkpt>
      <trkpt lat="47.03557" lon="9.00757">
        <ele>844</ele>
        <time>2021-08-02T09:31:22.403Z</time>
      </trkpt>
      <trkpt lat="47.03556" lon="9.00757">
        <ele>844</ele>
        <time>2021-08-02T09:31:23.404Z</time>
      </trkpt>
      <trkpt lat="47.03555" lon="9.00757">
        <ele>844</ele>
        <time>2021-08-02T09:31:24.404Z</time>
      </trkpt>
      <trkpt lat="47.03554" lon="9.00755">
        <ele>844</ele>
        <time>2021-08-02T09:31:25.404Z</time>
      </trkpt>
      <trkpt lat="47.03552" lon="9.00754">
        <ele>845</ele>
        <time>2021-08-02T09:31:26.403Z</time>
      </trkpt>
      <trkpt lat="47.03551" lon="9.00753">
        <ele>845</ele>
        <time>2021-08-02T09:31:27.404Z</time>
      </trkpt>
      <trkpt lat="47.0355" lon="9.00752">
        <ele>845</ele>
        <time>2021-08-02T09:31:28.404Z</time>
      </trkpt>
      <trkpt lat="47.03548" lon="9.0075">
        <ele>845</ele>
        <time>2021-08-02T09:31:29.403Z</time>
      </trkpt>
      <trkpt lat="47.03547" lon="9.00748">
        <ele>845</ele>
        <time>2021-08-02T09:31:30.403Z</time>
      </trkpt>
      <trkpt lat="47.03545" lon="9.00747">
        <ele>846</ele>
        <time>2021-08-02T09:31:31.404Z</time>
      </trkpt>
      <trkpt lat="47.03545" lon="9.00746">
        <ele>846</ele>
        <time>2021-08-02T09:31:32.404Z</time>
      </trkpt>
      <trkpt lat="47.03545" lon="9.00746">
        <ele>846</ele>
        <time>2021-08-02T09:31:33.404Z</time>
      </trkpt>
      <trkpt lat="47.03543" lon="9.00745">
        <ele>846</ele>
        <time>2021-08-02T09:31:34.404Z</time>
      </trkpt>
      <trkpt lat="47.03541" lon="9.00745">
        <ele>846</ele>
        <time>2021-08-02T09:31:35.404Z</time>
      </trkpt>
      <trkpt lat="47.03539" lon="9.00745">
        <ele>846</ele>
        <time>2021-08-02T09:31:36.404Z</time>
      </trkpt>
      <trkpt lat="47.03538" lon="9.00744">
        <ele>846</ele>
        <time>2021-08-02T09:31:37.404Z</time>
      </trkpt>
      <trkpt lat="47.03537" lon="9.00744">
        <ele>845</ele>
        <time>2021-08-02T09:31:38.404Z</time>
      </trkpt>
      <trkpt lat="47.03536" lon="9.00744">
        <ele>845</ele>
        <time>2021-08-02T09:31:39.403Z</time>
      </trkpt>
      <trkpt lat="47.03536" lon="9.00744">
        <ele>845</ele>
        <time>2021-08-02T09:31:40.404Z</time>
      </trkpt>
      <trkpt lat="47.03535" lon="9.00743">
        <ele>845</ele>
        <time>2021-08-02T09:31:41.404Z</time>
      </trkpt>
      <trkpt lat="47.03534" lon="9.00743">
        <ele>845</ele>
        <time>2021-08-02T09:31:42.403Z</time>
      </trkpt>
      <trkpt lat="47.03533" lon="9.00742">
        <ele>846</ele>
        <time>2021-08-02T09:31:43.403Z</time>
      </trkpt>
      <trkpt lat="47.03532" lon="9.00742">
        <ele>846</ele>
        <time>2021-08-02T09:31:44.403Z</time>
      </trkpt>
      <trkpt lat="47.03531" lon="9.0074">
        <ele>846</ele>
        <time>2021-08-02T09:31:45.403Z</time>
      </trkpt>
      <trkpt lat="47.0353" lon="9.0074">
        <ele>846</ele>
        <time>2021-08-02T09:31:46.403Z</time>
      </trkpt>
      <trkpt lat="47.03529" lon="9.00739">
        <ele>847</ele>
        <time>2021-08-02T09:31:47.403Z</time>
      </trkpt>
      <trkpt lat="47.03529" lon="9.00739">
        <ele>847</ele>
        <time>2021-08-02T09:31:48.404Z</time>
      </trkpt>
      <trkpt lat="47.03528" lon="9.00739">
        <ele>847</ele>
        <time>2021-08-02T09:31:49.404Z</time>
      </trkpt>
      <trkpt lat="47.03527" lon="9.00738">
        <ele>848</ele>
        <time>2021-08-02T09:31:50.404Z</time>
      </trkpt>
      <trkpt lat="47.03526" lon="9.00738">
        <ele>848</ele>
        <time>2021-08-02T09:31:51.404Z</time>
      </trkpt>
      <trkpt lat="47.03526" lon="9.00737">
        <ele>849</ele>
        <time>2021-08-02T09:31:52.404Z</time>
      </trkpt>
      <trkpt lat="47.03525" lon="9.00737">
        <ele>849</ele>
        <time>2021-08-02T09:31:53.404Z</time>
      </trkpt>
      <trkpt lat="47.03524" lon="9.00737">
        <ele>849</ele>
        <time>2021-08-02T09:31:54.404Z</time>
      </trkpt>
      <trkpt lat="47.03523" lon="9.00737">
        <ele>850</ele>
        <time>2021-08-02T09:31:55.404Z</time>
      </trkpt>
      <trkpt lat="47.03522" lon="9.00736">
        <ele>850</ele>
        <time>2021-08-02T09:31:56.404Z</time>
      </trkpt>
      <trkpt lat="47.0352" lon="9.00735">
        <ele>850</ele>
        <time>2021-08-02T09:31:57.403Z</time>
      </trkpt>
      <trkpt lat="47.03518" lon="9.00733">
        <ele>850</ele>
        <time>2021-08-02T09:31:58.403Z</time>
      </trkpt>
      <trkpt lat="47.03517" lon="9.00732">
        <ele>851</ele>
        <time>2021-08-02T09:31:59.404Z</time>
      </trkpt>
      <trkpt lat="47.03516" lon="9.00731">
        <ele>851</ele>
        <time>2021-08-02T09:32:00.404Z</time>
      </trkpt>
      <trkpt lat="47.03515" lon="9.0073">
        <ele>851</ele>
        <time>2021-08-02T09:32:01.404Z</time>
      </trkpt>
      <trkpt lat="47.03515" lon="9.00729">
        <ele>852</ele>
        <time>2021-08-02T09:32:02.404Z</time>
      </trkpt>
      <trkpt lat="47.03514" lon="9.00729">
        <ele>852</ele>
        <time>2021-08-02T09:32:03.404Z</time>
      </trkpt>
      <trkpt lat="47.03512" lon="9.00728">
        <ele>853</ele>
        <time>2021-08-02T09:32:04.403Z</time>
      </trkpt>
      <trkpt lat="47.03511" lon="9.00727">
        <ele>853</ele>
        <time>2021-08-02T09:32:05.404Z</time>
      </trkpt>
      <trkpt lat="47.0351" lon="9.00726">
        <ele>853</ele>
        <time>2021-08-02T09:32:06.404Z</time>
      </trkpt>
      <trkpt lat="47.03508" lon="9.00724">
        <ele>854</ele>
        <time>2021-08-02T09:32:07.404Z</time>
      </trkpt>
      <trkpt lat="47.03507" lon="9.00723">
        <ele>854</ele>
        <time>2021-08-02T09:32:08.404Z</time>
      </trkpt>
      <trkpt lat="47.03506" lon="9.00722">
        <ele>854</ele>
        <time>2021-08-02T09:32:09.404Z</time>
      </trkpt>
      <trkpt lat="47.03505" lon="9.00721">
        <ele>854</ele>
        <time>2021-08-02T09:32:10.404Z</time>
      </trkpt>
      <trkpt lat="47.03504" lon="9.00721">
        <ele>854</ele>
        <time>2021-08-02T09:32:11.404Z</time>
      </trkpt>
      <trkpt lat="47.03503" lon="9.0072">
        <ele>854</ele>
        <time>2021-08-02T09:32:12.404Z</time>
      </trkpt>
      <trkpt lat="47.03502" lon="9.0072">
        <ele>854</ele>
        <time>2021-08-02T09:32:13.404Z</time>
      </trkpt>
      <trkpt lat="47.03501" lon="9.0072">
        <ele>854</ele>
        <time>2021-08-02T09:32:14.403Z</time>
      </trkpt>
      <trkpt lat="47.035" lon="9.0072">
        <ele>855</ele>
        <time>2021-08-02T09:32:15.404Z</time>
      </trkpt>
      <trkpt lat="47.03499" lon="9.00719">
        <ele>855</ele>
        <time>2021-08-02T09:32:16.404Z</time>
      </trkpt>
      <trkpt lat="47.03498" lon="9.00719">
        <ele>855</ele>
        <time>2021-08-02T09:32:17.403Z</time>
      </trkpt>
      <trkpt lat="47.03497" lon="9.00718">
        <ele>855</ele>
        <time>2021-08-02T09:32:18.404Z</time>
      </trkpt>
      <trkpt lat="47.03496" lon="9.00717">
        <ele>855</ele>
        <time>2021-08-02T09:32:19.403Z</time>
      </trkpt>
      <trkpt lat="47.03495" lon="9.00717">
        <ele>855</ele>
        <time>2021-08-02T09:32:20.403Z</time>
      </trkpt>
      <trkpt lat="47.03494" lon="9.00716">
        <ele>856</ele>
        <time>2021-08-02T09:32:21.404Z</time>
      </trkpt>
      <trkpt lat="47.03492" lon="9.00715">
        <ele>856</ele>
        <time>2021-08-02T09:32:22.404Z</time>
      </trkpt>
      <trkpt lat="47.03491" lon="9.00715">
        <ele>856</ele>
        <time>2021-08-02T09:32:23.403Z</time>
      </trkpt>
      <trkpt lat="47.0349" lon="9.00715">
        <ele>857</ele>
        <time>2021-08-02T09:32:24.404Z</time>
      </trkpt>
      <trkpt lat="47.03489" lon="9.00714">
        <ele>858</ele>
        <time>2021-08-02T09:32:25.404Z</time>
      </trkpt>
      <trkpt lat="47.03487" lon="9.00713">
        <ele>858</ele>
        <time>2021-08-02T09:32:26.404Z</time>
      </trkpt>
      <trkpt lat="47.03486" lon="9.00712">
        <ele>859</ele>
        <time>2021-08-02T09:32:27.404Z</time>
      </trkpt>
      <trkpt lat="47.03485" lon="9.00711">
        <ele>860</ele>
        <time>2021-08-02T09:32:28.403Z</time>
      </trkpt>
      <trkpt lat="47.03483" lon="9.0071">
        <ele>861</ele>
        <time>2021-08-02T09:32:29.403Z</time>
      </trkpt>
      <trkpt lat="47.03481" lon="9.0071">
        <ele>862</ele>
        <time>2021-08-02T09:32:30.404Z</time>
      </trkpt>
      <trkpt lat="47.0348" lon="9.00709">
        <ele>862</ele>
        <time>2021-08-02T09:32:31.403Z</time>
      </trkpt>
      <trkpt lat="47.03479" lon="9.00708">
        <ele>863</ele>
        <time>2021-08-02T09:32:32.403Z</time>
      </trkpt>
      <trkpt lat="47.03477" lon="9.00707">
        <ele>864</ele>
        <time>2021-08-02T09:32:33.404Z</time>
      </trkpt>
      <trkpt lat="47.03476" lon="9.00706">
        <ele>865</ele>
        <time>2021-08-02T09:32:34.404Z</time>
      </trkpt>
      <trkpt lat="47.03474" lon="9.00705">
        <ele>865</ele>
        <time>2021-08-02T09:32:35.403Z</time>
      </trkpt>
      <trkpt lat="47.03473" lon="9.00704">
        <ele>866</ele>
        <time>2021-08-02T09:32:36.404Z</time>
      </trkpt>
      <trkpt lat="47.03471" lon="9.00703">
        <ele>867</ele>
        <time>2021-08-02T09:32:37.404Z</time>
      </trkpt>
      <trkpt lat="47.0347" lon="9.00703">
        <ele>867</ele>
        <time>2021-08-02T09:32:38.403Z</time>
      </trkpt>
      <trkpt lat="47.03469" lon="9.00702">
        <ele>868</ele>
        <time>2021-08-02T09:32:39.404Z</time>
      </trkpt>
      <trkpt lat="47.03467" lon="9.00701">
        <ele>868</ele>
        <time>2021-08-02T09:32:40.404Z</time>
      </trkpt>
      <trkpt lat="47.03465" lon="9.00699">
        <ele>869</ele>
        <time>2021-08-02T09:32:41.403Z</time>
      </trkpt>
      <trkpt lat="47.03464" lon="9.00698">
        <ele>870</ele>
        <time>2021-08-02T09:32:42.404Z</time>
      </trkpt>
      <trkpt lat="47.03463" lon="9.00698">
        <ele>871</ele>
        <time>2021-08-02T09:32:43.403Z</time>
      </trkpt>
      <trkpt lat="47.03461" lon="9.00697">
        <ele>871</ele>
        <time>2021-08-02T09:32:44.404Z</time>
      </trkpt>
      <trkpt lat="47.0346" lon="9.00697">
        <ele>871</ele>
        <time>2021-08-02T09:32:45.404Z</time>
      </trkpt>
      <trkpt lat="47.03459" lon="9.00697">
        <ele>872</ele>
        <time>2021-08-02T09:32:46.403Z</time>
      </trkpt>
      <trkpt lat="47.03458" lon="9.00697">
        <ele>872</ele>
        <time>2021-08-02T09:32:47.404Z</time>
      </trkpt>
      <trkpt lat="47.03457" lon="9.00698">
        <ele>872</ele>
        <time>2021-08-02T09:32:48.404Z</time>
      </trkpt>
      <trkpt lat="47.03457" lon="9.00699">
        <ele>872</ele>
        <time>2021-08-02T09:32:49.403Z</time>
      </trkpt>
      <trkpt lat="47.03456" lon="9.007">
        <ele>871</ele>
        <time>2021-08-02T09:32:50.404Z</time>
      </trkpt>
      <trkpt lat="47.03455" lon="9.00699">
        <ele>872</ele>
        <time>2021-08-02T09:32:51.403Z</time>
      </trkpt>
      <trkpt lat="47.03453" lon="9.00698">
        <ele>872</ele>
        <time>2021-08-02T09:32:52.403Z</time>
      </trkpt>
      <trkpt lat="47.03452" lon="9.00697">
        <ele>872</ele>
        <time>2021-08-02T09:32:53.403Z</time>
      </trkpt>
      <trkpt lat="47.03451" lon="9.00698">
        <ele>872</ele>
        <time>2021-08-02T09:32:54.403Z</time>
      </trkpt>
      <trkpt lat="47.0345" lon="9.00698">
        <ele>871</ele>
        <time>2021-08-02T09:32:55.403Z</time>
      </trkpt>
      <trkpt lat="47.03449" lon="9.00698">
        <ele>871</ele>
        <time>2021-08-02T09:32:56.403Z</time>
      </trkpt>
      <trkpt lat="47.03448" lon="9.00698">
        <ele>871</ele>
        <time>2021-08-02T09:32:57.403Z</time>
      </trkpt>
      <trkpt lat="47.03447" lon="9.00699">
        <ele>871</ele>
        <time>2021-08-02T09:32:58.404Z</time>
      </trkpt>
      <trkpt lat="47.03446" lon="9.00699">
        <ele>870</ele>
        <time>2021-08-02T09:32:59.403Z</time>
      </trkpt>
      <trkpt lat="47.03445" lon="9.00699">
        <ele>870</ele>
        <time>2021-08-02T09:33:00.403Z</time>
      </trkpt>
      <trkpt lat="47.03444" lon="9.007">
        <ele>870</ele>
        <time>2021-08-02T09:33:01.404Z</time>
      </trkpt>
      <trkpt lat="47.03444" lon="9.007">
        <ele>870</ele>
        <time>2021-08-02T09:33:02.404Z</time>
      </trkpt>
      <trkpt lat="47.03443" lon="9.007">
        <ele>870</ele>
        <time>2021-08-02T09:33:03.403Z</time>
      </trkpt>
      <trkpt lat="47.03442" lon="9.007">
        <ele>869</ele>
        <time>2021-08-02T09:33:04.404Z</time>
      </trkpt>
      <trkpt lat="47.03441" lon="9.007">
        <ele>869</ele>
        <time>2021-08-02T09:33:05.404Z</time>
      </trkpt>
      <trkpt lat="47.0344" lon="9.00699">
        <ele>869</ele>
        <time>2021-08-02T09:33:06.404Z</time>
      </trkpt>
      <trkpt lat="47.03439" lon="9.00699">
        <ele>869</ele>
        <time>2021-08-02T09:33:07.403Z</time>
      </trkpt>
      <trkpt lat="47.03439" lon="9.00698">
        <ele>869</ele>
        <time>2021-08-02T09:33:08.403Z</time>
      </trkpt>
      <trkpt lat="47.03438" lon="9.00698">
        <ele>869</ele>
        <time>2021-08-02T09:33:09.404Z</time>
      </trkpt>
      <trkpt lat="47.03437" lon="9.00697">
        <ele>869</ele>
        <time>2021-08-02T09:33:10.403Z</time>
      </trkpt>
      <trkpt lat="47.03436" lon="9.00696">
        <ele>869</ele>
        <time>2021-08-02T09:33:11.404Z</time>
      </trkpt>
      <trkpt lat="47.03435" lon="9.00696">
        <ele>869</ele>
        <time>2021-08-02T09:33:12.404Z</time>
      </trkpt>
      <trkpt lat="47.03434" lon="9.00695">
        <ele>868</ele>
        <time>2021-08-02T09:33:13.404Z</time>
      </trkpt>
      <trkpt lat="47.03433" lon="9.00694">
        <ele>868</ele>
        <time>2021-08-02T09:33:14.404Z</time>
      </trkpt>
      <trkpt lat="47.03433" lon="9.00693">
        <ele>868</ele>
        <time>2021-08-02T09:33:15.404Z</time>
      </trkpt>
      <trkpt lat="47.03433" lon="9.00693">
        <ele>867</ele>
        <time>2021-08-02T09:33:16.403Z</time>
      </trkpt>
      <trkpt lat="47.03432" lon="9.00692">
        <ele>867</ele>
        <time>2021-08-02T09:33:17.404Z</time>
      </trkpt>
      <trkpt lat="47.03432" lon="9.00691">
        <ele>866</ele>
        <time>2021-08-02T09:33:18.404Z</time>
      </trkpt>
      <trkpt lat="47.03432" lon="9.00691">
        <ele>866</ele>
        <time>2021-08-02T09:33:19.404Z</time>
      </trkpt>
      <trkpt lat="47.03432" lon="9.0069">
        <ele>865</ele>
        <time>2021-08-02T09:33:20.403Z</time>
      </trkpt>
      <trkpt lat="47.03432" lon="9.00689">
        <ele>865</ele>
        <time>2021-08-02T09:33:21.404Z</time>
      </trkpt>
      <trkpt lat="47.03431" lon="9.00689">
        <ele>865</ele>
        <time>2021-08-02T09:33:22.404Z</time>
      </trkpt>
      <trkpt lat="47.0343" lon="9.00688">
        <ele>865</ele>
        <time>2021-08-02T09:33:23.403Z</time>
      </trkpt>
      <trkpt lat="47.0343" lon="9.00688">
        <ele>864</ele>
        <time>2021-08-02T09:33:24.403Z</time>
      </trkpt>
      <trkpt lat="47.0343" lon="9.00687">
        <ele>864</ele>
        <time>2021-08-02T09:33:25.404Z</time>
      </trkpt>
      <trkpt lat="47.0343" lon="9.00687">
        <ele>864</ele>
        <time>2021-08-02T09:33:26.403Z</time>
      </trkpt>
      <trkpt lat="47.03432" lon="9.00686">
        <ele>864</ele>
        <time>2021-08-02T09:33:27.404Z</time>
      </trkpt>
      <trkpt lat="47.03433" lon="9.00687">
        <ele>863</ele>
        <time>2021-08-02T09:33:28.404Z</time>
      </trkpt>
      <trkpt lat="47.03433" lon="9.00687">
        <ele>863</ele>
        <time>2021-08-02T09:33:29.403Z</time>
      </trkpt>
      <trkpt lat="47.03433" lon="9.00688">
        <ele>862</ele>
        <time>2021-08-02T09:33:30.403Z</time>
      </trkpt>
      <trkpt lat="47.03433" lon="9.00688">
        <ele>862</ele>
        <time>2021-08-02T09:33:31.404Z</time>
      </trkpt>
      <trkpt lat="47.03433" lon="9.00688">
        <ele>862</ele>
        <time>2021-08-02T09:33:32.404Z</time>
      </trkpt>
      <trkpt lat="47.03433" lon="9.00688">
        <ele>862</ele>
        <time>2021-08-02T09:33:33.403Z</time>
      </trkpt>
      <trkpt lat="47.03432" lon="9.00688">
        <ele>863</ele>
        <time>2021-08-02T09:33:34.403Z</time>
      </trkpt>
      <trkpt lat="47.03433" lon="9.00688">
        <ele>863</ele>
        <time>2021-08-02T09:33:35.404Z</time>
      </trkpt>
      <trkpt lat="47.03433" lon="9.00689">
        <ele>863</ele>
        <time>2021-08-02T09:33:36.404Z</time>
      </trkpt>
      <trkpt lat="47.03434" lon="9.0069">
        <ele>863</ele>
        <time>2021-08-02T09:33:37.403Z</time>
      </trkpt>
      <trkpt lat="47.03434" lon="9.00691">
        <ele>863</ele>
        <time>2021-08-02T09:33:38.405Z</time>
      </trkpt>
      <trkpt lat="47.03434" lon="9.00692">
        <ele>864</ele>
        <time>2021-08-02T09:33:39.406Z</time>
      </trkpt>
      <trkpt lat="47.03433" lon="9.00692">
        <ele>864</ele>
        <time>2021-08-02T09:33:40.405Z</time>
      </trkpt>
      <trkpt lat="47.03433" lon="9.00693">
        <ele>864</ele>
        <time>2021-08-02T09:33:41.406Z</time>
      </trkpt>
      <trkpt lat="47.03433" lon="9.00693">
        <ele>864</ele>
        <time>2021-08-02T09:33:42.406Z</time>
      </trkpt>
      <trkpt lat="47.03433" lon="9.00694">
        <ele>864</ele>
        <time>2021-08-02T09:33:43.406Z</time>
      </trkpt>
      <trkpt lat="47.03433" lon="9.00694">
        <ele>865</ele>
        <time>2021-08-02T09:33:44.406Z</time>
      </trkpt>
      <trkpt lat="47.03433" lon="9.00694">
        <ele>865</ele>
        <time>2021-08-02T09:33:45.406Z</time>
      </trkpt>
      <trkpt lat="47.03433" lon="9.00694">
        <ele>865</ele>
        <time>2021-08-02T09:33:46.406Z</time>
      </trkpt>
      <trkpt lat="47.03432" lon="9.00695">
        <ele>865</ele>
        <time>2021-08-02T09:33:47.406Z</time>
      </trkpt>
      <trkpt lat="47.03432" lon="9.00695">
        <ele>866</ele>
        <time>2021-08-02T09:33:48.405Z</time>
      </trkpt>
      <trkpt lat="47.03432" lon="9.00695">
        <ele>866</ele>
        <time>2021-08-02T09:33:49.406Z</time>
      </trkpt>
      <trkpt lat="47.03433" lon="9.00695">
        <ele>866</ele>
        <time>2021-08-02T09:33:50.406Z</time>
      </trkpt>
      <trkpt lat="47.03433" lon="9.00695">
        <ele>867</ele>
        <time>2021-08-02T09:33:51.405Z</time>
      </trkpt>
      <trkpt lat="47.03434" lon="9.00694">
        <ele>867</ele>
        <time>2021-08-02T09:33:52.405Z</time>
      </trkpt>
      <trkpt lat="47.03434" lon="9.00693">
        <ele>867</ele>
        <time>2021-08-02T09:33:53.405Z</time>
      </trkpt>
      <trkpt lat="47.03434" lon="9.00693">
        <ele>866</ele>
        <time>2021-08-02T09:33:54.406Z</time>
      </trkpt>
      <trkpt lat="47.03434" lon="9.00693">
        <ele>865</ele>
        <time>2021-08-02T09:33:55.406Z</time>
      </trkpt>
      <trkpt lat="47.03433" lon="9.00692">
        <ele>864</ele>
        <time>2021-08-02T09:33:56.406Z</time>
      </trkpt>
      <trkpt lat="47.03433" lon="9.00692">
        <ele>864</ele>
        <time>2021-08-02T09:33:57.405Z</time>
      </trkpt>
      <trkpt lat="47.03432" lon="9.00693">
        <ele>863</ele>
        <time>2021-08-02T09:33:58.405Z</time>
      </trkpt>
      <trkpt lat="47.03433" lon="9.00694">
        <ele>862</ele>
        <time>2021-08-02T09:33:59.406Z</time>
      </trkpt>
      <trkpt lat="47.03434" lon="9.00697">
        <ele>859</ele>
        <time>2021-08-02T09:34:00.407Z</time>
      </trkpt>
      <trkpt lat="47.03436" lon="9.00696">
        <ele>855</ele>
        <time>2021-08-02T09:34:01.408Z</time>
      </trkpt>
      <trkpt lat="47.03442" lon="9.00691">
        <ele>848</ele>
        <time>2021-08-02T09:34:02.408Z</time>
      </trkpt>
      <trkpt lat="47.03442" lon="9.0069">
        <ele>848</ele>
        <time>2021-08-02T09:34:03.408Z</time>
      </trkpt>
      <trkpt lat="47.03442" lon="9.0069">
        <ele>849</ele>
        <time>2021-08-02T09:34:04.407Z</time>
      </trkpt>
      <trkpt lat="47.03443" lon="9.00689">
        <ele>849</ele>
        <time>2021-08-02T09:34:05.407Z</time>
      </trkpt>
      <trkpt lat="47.03443" lon="9.00688">
        <ele>850</ele>
        <time>2021-08-02T09:34:06.407Z</time>
      </trkpt>
      <trkpt lat="47.03443" lon="9.00688">
        <ele>851</ele>
        <time>2021-08-02T09:34:07.408Z</time>
      </trkpt>
      <trkpt lat="47.03443" lon="9.00689">
        <ele>851</ele>
        <time>2021-08-02T09:34:08.407Z</time>
      </trkpt>
      <trkpt lat="47.03442" lon="9.00689">
        <ele>852</ele>
        <time>2021-08-02T09:34:09.408Z</time>
      </trkpt>
      <trkpt lat="47.03442" lon="9.00689">
        <ele>852</ele>
        <time>2021-08-02T09:34:10.408Z</time>
      </trkpt>
      <trkpt lat="47.03441" lon="9.0069">
        <ele>852</ele>
        <time>2021-08-02T09:34:11.408Z</time>
      </trkpt>
      <trkpt lat="47.03441" lon="9.00691">
        <ele>852</ele>
        <time>2021-08-02T09:34:12.408Z</time>
      </trkpt>
      <trkpt lat="47.03441" lon="9.00692">
        <ele>851</ele>
        <time>2021-08-02T09:34:13.407Z</time>
      </trkpt>
      <trkpt lat="47.0344" lon="9.00691">
        <ele>851</ele>
        <time>2021-08-02T09:34:14.407Z</time>
      </trkpt>
      <trkpt lat="47.03439" lon="9.0069">
        <ele>852</ele>
        <time>2021-08-02T09:34:15.408Z</time>
      </trkpt>
      <trkpt lat="47.03437" lon="9.00689">
        <ele>852</ele>
        <time>2021-08-02T09:34:16.407Z</time>
      </trkpt>
      <trkpt lat="47.03436" lon="9.00687">
        <ele>852</ele>
        <time>2021-08-02T09:34:17.408Z</time>
      </trkpt>
      <trkpt lat="47.03435" lon="9.00686">
        <ele>852</ele>
        <time>2021-08-02T09:34:18.408Z</time>
      </trkpt>
      <trkpt lat="47.03434" lon="9.00685">
        <ele>852</ele>
        <time>2021-08-02T09:34:19.408Z</time>
      </trkpt>
      <trkpt lat="47.03434" lon="9.00686">
        <ele>853</ele>
        <time>2021-08-02T09:34:20.408Z</time>
      </trkpt>
      <trkpt lat="47.03433" lon="9.00685">
        <ele>853</ele>
        <time>2021-08-02T09:34:21.407Z</time>
      </trkpt>
      <trkpt lat="47.03432" lon="9.00684">
        <ele>853</ele>
        <time>2021-08-02T09:34:22.408Z</time>
      </trkpt>
      <trkpt lat="47.03432" lon="9.00684">
        <ele>853</ele>
        <time>2021-08-02T09:34:23.407Z</time>
      </trkpt>
      <trkpt lat="47.0343" lon="9.00683">
        <ele>853</ele>
        <time>2021-08-02T09:34:24.408Z</time>
      </trkpt>
      <trkpt lat="47.03429" lon="9.00682">
        <ele>853</ele>
        <time>2021-08-02T09:34:25.408Z</time>
      </trkpt>
      <trkpt lat="47.03428" lon="9.00682">
        <ele>853</ele>
        <time>2021-08-02T09:34:26.407Z</time>
      </trkpt>
      <trkpt lat="47.03427" lon="9.00682">
        <ele>854</ele>
        <time>2021-08-02T09:34:27.408Z</time>
      </trkpt>
      <trkpt lat="47.03424" lon="9.00681">
        <ele>854</ele>
        <time>2021-08-02T09:34:28.408Z</time>
      </trkpt>
      <trkpt lat="47.03422" lon="9.00681">
        <ele>854</ele>
        <time>2021-08-02T09:34:29.407Z</time>
      </trkpt>
      <trkpt lat="47.0342" lon="9.0068">
        <ele>854</ele>
        <time>2021-08-02T09:34:30.408Z</time>
      </trkpt>
      <trkpt lat="47.03419" lon="9.0068">
        <ele>855</ele>
        <time>2021-08-02T09:34:31.407Z</time>
      </trkpt>
      <trkpt lat="47.03418" lon="9.0068">
        <ele>855</ele>
        <time>2021-08-02T09:34:32.407Z</time>
      </trkpt>
      <trkpt lat="47.03416" lon="9.0068">
        <ele>855</ele>
        <time>2021-08-02T09:34:33.408Z</time>
      </trkpt>
      <trkpt lat="47.03415" lon="9.0068">
        <ele>856</ele>
        <time>2021-08-02T09:34:34.408Z</time>
      </trkpt>
      <trkpt lat="47.03414" lon="9.00679">
        <ele>856</ele>
        <time>2021-08-02T09:34:35.407Z</time>
      </trkpt>
      <trkpt lat="47.03413" lon="9.00679">
        <ele>857</ele>
        <time>2021-08-02T09:34:36.407Z</time>
      </trkpt>
      <trkpt lat="47.03412" lon="9.00679">
        <ele>857</ele>
        <time>2021-08-02T09:34:37.407Z</time>
      </trkpt>
      <trkpt lat="47.03411" lon="9.00679">
        <ele>857</ele>
        <time>2021-08-02T09:34:38.407Z</time>
      </trkpt>
      <trkpt lat="47.0341" lon="9.00678">
        <ele>857</ele>
        <time>2021-08-02T09:34:39.408Z</time>
      </trkpt>
      <trkpt lat="47.03409" lon="9.00678">
        <ele>857</ele>
        <time>2021-08-02T09:34:40.407Z</time>
      </trkpt>
      <trkpt lat="47.03409" lon="9.00678">
        <ele>857</ele>
        <time>2021-08-02T09:34:41.407Z</time>
      </trkpt>
      <trkpt lat="47.03409" lon="9.00678">
        <ele>857</ele>
        <time>2021-08-02T09:34:42.408Z</time>
      </trkpt>
      <trkpt lat="47.03409" lon="9.00678">
        <ele>857</ele>
        <time>2021-08-02T09:34:43.407Z</time>
      </trkpt>
      <trkpt lat="47.03409" lon="9.00678">
        <ele>857</ele>
        <time>2021-08-02T09:34:44.408Z</time>
      </trkpt>
      <trkpt lat="47.03409" lon="9.00678">
        <ele>856</ele>
        <time>2021-08-02T09:34:45.408Z</time>
      </trkpt>
      <trkpt lat="47.03409" lon="9.00679">
        <ele>856</ele>
        <time>2021-08-02T09:34:46.408Z</time>
      </trkpt>
      <trkpt lat="47.03409" lon="9.00679">
        <ele>855</ele>
        <time>2021-08-02T09:34:47.407Z</time>
      </trkpt>
      <trkpt lat="47.03409" lon="9.00679">
        <ele>854</ele>
        <time>2021-08-02T09:34:48.407Z</time>
      </trkpt>
      <trkpt lat="47.03408" lon="9.00679">
        <ele>853</ele>
        <time>2021-08-02T09:34:49.407Z</time>
      </trkpt>
      <trkpt lat="47.03408" lon="9.00678">
        <ele>853</ele>
        <time>2021-08-02T09:34:50.407Z</time>
      </trkpt>
      <trkpt lat="47.03408" lon="9.00677">
        <ele>852</ele>
        <time>2021-08-02T09:34:51.407Z</time>
      </trkpt>
      <trkpt lat="47.03408" lon="9.00676">
        <ele>851</ele>
        <time>2021-08-02T09:34:52.408Z</time>
      </trkpt>
      <trkpt lat="47.03408" lon="9.00675">
        <ele>851</ele>
        <time>2021-08-02T09:34:53.408Z</time>
      </trkpt>
      <trkpt lat="47.03407" lon="9.00674">
        <ele>851</ele>
        <time>2021-08-02T09:34:54.408Z</time>
      </trkpt>
      <trkpt lat="47.03407" lon="9.00673">
        <ele>851</ele>
        <time>2021-08-02T09:34:55.408Z</time>
      </trkpt>
      <trkpt lat="47.03406" lon="9.00672">
        <ele>851</ele>
        <time>2021-08-02T09:34:56.408Z</time>
      </trkpt>
      <trkpt lat="47.03405" lon="9.00671">
        <ele>850</ele>
        <time>2021-08-02T09:34:57.407Z</time>
      </trkpt>
      <trkpt lat="47.03404" lon="9.0067">
        <ele>850</ele>
        <time>2021-08-02T09:34:58.408Z</time>
      </trkpt>
      <trkpt lat="47.03403" lon="9.00669">
        <ele>850</ele>
        <time>2021-08-02T09:34:59.408Z</time>
      </trkpt>
      <trkpt lat="47.03402" lon="9.00669">
        <ele>849</ele>
        <time>2021-08-02T09:35:00.407Z</time>
      </trkpt>
      <trkpt lat="47.03402" lon="9.00668">
        <ele>849</ele>
        <time>2021-08-02T09:35:01.408Z</time>
      </trkpt>
      <trkpt lat="47.03401" lon="9.00668">
        <ele>849</ele>
        <time>2021-08-02T09:35:02.407Z</time>
      </trkpt>
      <trkpt lat="47.03402" lon="9.00669">
        <ele>849</ele>
        <time>2021-08-02T09:35:03.408Z</time>
      </trkpt>
      <trkpt lat="47.03401" lon="9.00669">
        <ele>848</ele>
        <time>2021-08-02T09:35:04.408Z</time>
      </trkpt>
      <trkpt lat="47.034" lon="9.00668">
        <ele>848</ele>
        <time>2021-08-02T09:35:05.408Z</time>
      </trkpt>
      <trkpt lat="47.034" lon="9.00668">
        <ele>848</ele>
        <time>2021-08-02T09:35:06.407Z</time>
      </trkpt>
      <trkpt lat="47.03399" lon="9.00668">
        <ele>849</ele>
        <time>2021-08-02T09:35:07.407Z</time>
      </trkpt>
      <trkpt lat="47.03398" lon="9.00667">
        <ele>849</ele>
        <time>2021-08-02T09:35:08.408Z</time>
      </trkpt>
      <trkpt lat="47.03397" lon="9.00666">
        <ele>849</ele>
        <time>2021-08-02T09:35:09.408Z</time>
      </trkpt>
      <trkpt lat="47.03396" lon="9.00666">
        <ele>849</ele>
        <time>2021-08-02T09:35:10.408Z</time>
      </trkpt>
      <trkpt lat="47.03396" lon="9.00666">
        <ele>850</ele>
        <time>2021-08-02T09:35:11.407Z</time>
      </trkpt>
      <trkpt lat="47.03394" lon="9.00665">
        <ele>850</ele>
        <time>2021-08-02T09:35:12.408Z</time>
      </trkpt>
      <trkpt lat="47.03393" lon="9.00665">
        <ele>851</ele>
        <time>2021-08-02T09:35:13.408Z</time>
      </trkpt>
      <trkpt lat="47.03393" lon="9.00665">
        <ele>851</ele>
        <time>2021-08-02T09:35:14.408Z</time>
      </trkpt>
      <trkpt lat="47.03392" lon="9.00665">
        <ele>852</ele>
        <time>2021-08-02T09:35:15.408Z</time>
      </trkpt>
      <trkpt lat="47.03391" lon="9.00664">
        <ele>852</ele>
        <time>2021-08-02T09:35:16.407Z</time>
      </trkpt>
      <trkpt lat="47.0339" lon="9.00664">
        <ele>852</ele>
        <time>2021-08-02T09:35:17.408Z</time>
      </trkpt>
      <trkpt lat="47.03389" lon="9.00664">
        <ele>852</ele>
        <time>2021-08-02T09:35:18.408Z</time>
      </trkpt>
      <trkpt lat="47.03388" lon="9.00664">
        <ele>852</ele>
        <time>2021-08-02T09:35:19.408Z</time>
      </trkpt>
      <trkpt lat="47.03388" lon="9.00664">
        <ele>852</ele>
        <time>2021-08-02T09:35:20.408Z</time>
      </trkpt>
      <trkpt lat="47.03387" lon="9.00664">
        <ele>852</ele>
        <time>2021-08-02T09:35:21.408Z</time>
      </trkpt>
      <trkpt lat="47.03386" lon="9.00663">
        <ele>852</ele>
        <time>2021-08-02T09:35:22.407Z</time>
      </trkpt>
      <trkpt lat="47.03385" lon="9.00663">
        <ele>853</ele>
        <time>2021-08-02T09:35:23.408Z</time>
      </trkpt>
      <trkpt lat="47.03383" lon="9.00663">
        <ele>853</ele>
        <time>2021-08-02T09:35:24.407Z</time>
      </trkpt>
      <trkpt lat="47.03382" lon="9.00662">
        <ele>853</ele>
        <time>2021-08-02T09:35:25.408Z</time>
      </trkpt>
      <trkpt lat="47.03381" lon="9.00662">
        <ele>852</ele>
        <time>2021-08-02T09:35:26.408Z</time>
      </trkpt>
      <trkpt lat="47.0338" lon="9.00662">
        <ele>852</ele>
        <time>2021-08-02T09:35:27.407Z</time>
      </trkpt>
      <trkpt lat="47.03379" lon="9.00661">
        <ele>852</ele>
        <time>2021-08-02T09:35:28.407Z</time>
      </trkpt>
      <trkpt lat="47.03378" lon="9.00661">
        <ele>852</ele>
        <time>2021-08-02T09:35:29.407Z</time>
      </trkpt>
      <trkpt lat="47.03377" lon="9.00661">
        <ele>852</ele>
        <time>2021-08-02T09:35:30.407Z</time>
      </trkpt>
      <trkpt lat="47.03376" lon="9.0066">
        <ele>852</ele>
        <time>2021-08-02T09:35:31.408Z</time>
      </trkpt>
      <trkpt lat="47.03375" lon="9.0066">
        <ele>851</ele>
        <time>2021-08-02T09:35:32.408Z</time>
      </trkpt>
      <trkpt lat="47.03374" lon="9.0066">
        <ele>851</ele>
        <time>2021-08-02T09:35:33.408Z</time>
      </trkpt>
      <trkpt lat="47.03373" lon="9.0066">
        <ele>851</ele>
        <time>2021-08-02T09:35:34.408Z</time>
      </trkpt>
      <trkpt lat="47.03371" lon="9.00659">
        <ele>851</ele>
        <time>2021-08-02T09:35:35.408Z</time>
      </trkpt>
      <trkpt lat="47.0337" lon="9.00659">
        <ele>851</ele>
        <time>2021-08-02T09:35:36.407Z</time>
      </trkpt>
      <trkpt lat="47.03369" lon="9.00659">
        <ele>851</ele>
        <time>2021-08-02T09:35:37.408Z</time>
      </trkpt>
      <trkpt lat="47.03368" lon="9.00659">
        <ele>852</ele>
        <time>2021-08-02T09:35:38.407Z</time>
      </trkpt>
      <trkpt lat="47.03367" lon="9.00659">
        <ele>852</ele>
        <time>2021-08-02T09:35:39.407Z</time>
      </trkpt>
      <trkpt lat="47.03367" lon="9.00658">
        <ele>852</ele>
        <time>2021-08-02T09:35:40.408Z</time>
      </trkpt>
      <trkpt lat="47.03366" lon="9.00658">
        <ele>853</ele>
        <time>2021-08-02T09:35:41.407Z</time>
      </trkpt>
      <trkpt lat="47.03365" lon="9.00658">
        <ele>853</ele>
        <time>2021-08-02T09:35:42.408Z</time>
      </trkpt>
      <trkpt lat="47.03364" lon="9.00658">
        <ele>853</ele>
        <time>2021-08-02T09:35:43.408Z</time>
      </trkpt>
      <trkpt lat="47.03362" lon="9.00657">
        <ele>853</ele>
        <time>2021-08-02T09:35:44.407Z</time>
      </trkpt>
      <trkpt lat="47.03362" lon="9.00656">
        <ele>854</ele>
        <time>2021-08-02T09:35:45.407Z</time>
      </trkpt>
      <trkpt lat="47.03361" lon="9.00655">
        <ele>854</ele>
        <time>2021-08-02T09:35:46.408Z</time>
      </trkpt>
      <trkpt lat="47.0336" lon="9.00655">
        <ele>855</ele>
        <time>2021-08-02T09:35:47.408Z</time>
      </trkpt>
      <trkpt lat="47.03359" lon="9.00655">
        <ele>855</ele>
        <time>2021-08-02T09:35:48.407Z</time>
      </trkpt>
      <trkpt lat="47.03358" lon="9.00655">
        <ele>856</ele>
        <time>2021-08-02T09:35:49.407Z</time>
      </trkpt>
      <trkpt lat="47.03357" lon="9.00655">
        <ele>856</ele>
        <time>2021-08-02T09:35:50.407Z</time>
      </trkpt>
      <trkpt lat="47.03356" lon="9.00654">
        <ele>856</ele>
        <time>2021-08-02T09:35:51.407Z</time>
      </trkpt>
      <trkpt lat="47.03355" lon="9.00654">
        <ele>857</ele>
        <time>2021-08-02T09:35:52.407Z</time>
      </trkpt>
      <trkpt lat="47.03353" lon="9.00654">
        <ele>857</ele>
        <time>2021-08-02T09:35:53.407Z</time>
      </trkpt>
      <trkpt lat="47.03352" lon="9.00654">
        <ele>857</ele>
        <time>2021-08-02T09:35:54.407Z</time>
      </trkpt>
      <trkpt lat="47.0335" lon="9.00654">
        <ele>857</ele>
        <time>2021-08-02T09:35:55.407Z</time>
      </trkpt>
      <trkpt lat="47.03349" lon="9.00653">
        <ele>857</ele>
        <time>2021-08-02T09:35:56.408Z</time>
      </trkpt>
      <trkpt lat="47.03348" lon="9.00653">
        <ele>857</ele>
        <time>2021-08-02T09:35:57.408Z</time>
      </trkpt>
      <trkpt lat="47.03347" lon="9.00653">
        <ele>857</ele>
        <time>2021-08-02T09:35:58.408Z</time>
      </trkpt>
      <trkpt lat="47.03345" lon="9.00653">
        <ele>857</ele>
        <time>2021-08-02T09:35:59.407Z</time>
      </trkpt>
      <trkpt lat="47.03344" lon="9.00652">
        <ele>858</ele>
        <time>2021-08-02T09:36:00.408Z</time>
      </trkpt>
      <trkpt lat="47.03343" lon="9.00652">
        <ele>858</ele>
        <time>2021-08-02T09:36:01.408Z</time>
      </trkpt>
      <trkpt lat="47.03342" lon="9.00652">
        <ele>858</ele>
        <time>2021-08-02T09:36:02.408Z</time>
      </trkpt>
      <trkpt lat="47.0334" lon="9.00652">
        <ele>858</ele>
        <time>2021-08-02T09:36:03.408Z</time>
      </trkpt>
      <trkpt lat="47.03339" lon="9.00651">
        <ele>859</ele>
        <time>2021-08-02T09:36:04.407Z</time>
      </trkpt>
      <trkpt lat="47.03338" lon="9.00651">
        <ele>859</ele>
        <time>2021-08-02T09:36:05.408Z</time>
      </trkpt>
      <trkpt lat="47.03337" lon="9.00651">
        <ele>859</ele>
        <time>2021-08-02T09:36:06.408Z</time>
      </trkpt>
      <trkpt lat="47.03336" lon="9.00651">
        <ele>859</ele>
        <time>2021-08-02T09:36:07.407Z</time>
      </trkpt>
      <trkpt lat="47.03335" lon="9.00651">
        <ele>858</ele>
        <time>2021-08-02T09:36:08.408Z</time>
      </trkpt>
      <trkpt lat="47.03335" lon="9.00652">
        <ele>857</ele>
        <time>2021-08-02T09:36:09.408Z</time>
      </trkpt>
      <trkpt lat="47.03335" lon="9.00652">
        <ele>857</ele>
        <time>2021-08-02T09:36:10.408Z</time>
      </trkpt>
      <trkpt lat="47.03333" lon="9.00652">
        <ele>856</ele>
        <time>2021-08-02T09:36:11.407Z</time>
      </trkpt>
      <trkpt lat="47.03333" lon="9.00652">
        <ele>855</ele>
        <time>2021-08-02T09:36:12.408Z</time>
      </trkpt>
      <trkpt lat="47.03332" lon="9.00651">
        <ele>855</ele>
        <time>2021-08-02T09:36:13.408Z</time>
      </trkpt>
      <trkpt lat="47.0333" lon="9.00651">
        <ele>855</ele>
        <time>2021-08-02T09:36:14.407Z</time>
      </trkpt>
      <trkpt lat="47.03329" lon="9.00651">
        <ele>854</ele>
        <time>2021-08-02T09:36:15.407Z</time>
      </trkpt>
      <trkpt lat="47.03327" lon="9.0065">
        <ele>854</ele>
        <time>2021-08-02T09:36:16.408Z</time>
      </trkpt>
      <trkpt lat="47.03326" lon="9.0065">
        <ele>854</ele>
        <time>2021-08-02T09:36:17.408Z</time>
      </trkpt>
      <trkpt lat="47.03325" lon="9.00649">
        <ele>855</ele>
        <time>2021-08-02T09:36:18.408Z</time>
      </trkpt>
      <trkpt lat="47.03325" lon="9.00649">
        <ele>855</ele>
        <time>2021-08-02T09:36:19.407Z</time>
      </trkpt>
      <trkpt lat="47.03324" lon="9.00648">
        <ele>855</ele>
        <time>2021-08-02T09:36:20.408Z</time>
      </trkpt>
      <trkpt lat="47.03323" lon="9.00648">
        <ele>855</ele>
        <time>2021-08-02T09:36:21.408Z</time>
      </trkpt>
      <trkpt lat="47.03322" lon="9.00647">
        <ele>854</ele>
        <time>2021-08-02T09:36:22.408Z</time>
      </trkpt>
      <trkpt lat="47.0332" lon="9.00647">
        <ele>854</ele>
        <time>2021-08-02T09:36:23.407Z</time>
      </trkpt>
      <trkpt lat="47.0332" lon="9.00647">
        <ele>854</ele>
        <time>2021-08-02T09:36:24.408Z</time>
      </trkpt>
      <trkpt lat="47.03319" lon="9.00646">
        <ele>854</ele>
        <time>2021-08-02T09:36:25.408Z</time>
      </trkpt>
      <trkpt lat="47.03319" lon="9.00645">
        <ele>854</ele>
        <time>2021-08-02T09:36:26.407Z</time>
      </trkpt>
      <trkpt lat="47.03318" lon="9.00644">
        <ele>854</ele>
        <time>2021-08-02T09:36:27.408Z</time>
      </trkpt>
      <trkpt lat="47.03318" lon="9.00644">
        <ele>854</ele>
        <time>2021-08-02T09:36:28.408Z</time>
      </trkpt>
      <trkpt lat="47.03317" lon="9.00643">
        <ele>854</ele>
        <time>2021-08-02T09:36:29.408Z</time>
      </trkpt>
      <trkpt lat="47.03316" lon="9.00642">
        <ele>854</ele>
        <time>2021-08-02T09:36:30.408Z</time>
      </trkpt>
      <trkpt lat="47.03316" lon="9.00641">
        <ele>854</ele>
        <time>2021-08-02T09:36:31.407Z</time>
      </trkpt>
      <trkpt lat="47.03315" lon="9.00641">
        <ele>853</ele>
        <time>2021-08-02T09:36:32.408Z</time>
      </trkpt>
      <trkpt lat="47.03315" lon="9.0064">
        <ele>853</ele>
        <time>2021-08-02T09:36:33.408Z</time>
      </trkpt>
      <trkpt lat="47.03314" lon="9.00639">
        <ele>853</ele>
        <time>2021-08-02T09:36:34.408Z</time>
      </trkpt>
      <trkpt lat="47.03313" lon="9.00639">
        <ele>852</ele>
        <time>2021-08-02T09:36:35.407Z</time>
      </trkpt>
      <trkpt lat="47.03312" lon="9.00637">
        <ele>852</ele>
        <time>2021-08-02T09:36:36.408Z</time>
      </trkpt>
      <trkpt lat="47.03311" lon="9.00635">
        <ele>852</ele>
        <time>2021-08-02T09:36:37.407Z</time>
      </trkpt>
      <trkpt lat="47.0331" lon="9.00634">
        <ele>852</ele>
        <time>2021-08-02T09:36:38.407Z</time>
      </trkpt>
      <trkpt lat="47.0331" lon="9.00633">
        <ele>852</ele>
        <time>2021-08-02T09:36:39.408Z</time>
      </trkpt>
      <trkpt lat="47.03309" lon="9.00632">
        <ele>852</ele>
        <time>2021-08-02T09:36:40.407Z</time>
      </trkpt>
      <trkpt lat="47.03308" lon="9.00631">
        <ele>852</ele>
        <time>2021-08-02T09:36:41.408Z</time>
      </trkpt>
      <trkpt lat="47.03307" lon="9.0063">
        <ele>852</ele>
        <time>2021-08-02T09:36:42.408Z</time>
      </trkpt>
      <trkpt lat="47.03307" lon="9.00629">
        <ele>852</ele>
        <time>2021-08-02T09:36:43.407Z</time>
      </trkpt>
      <trkpt lat="47.03306" lon="9.00629">
        <ele>852</ele>
        <time>2021-08-02T09:36:44.407Z</time>
      </trkpt>
      <trkpt lat="47.03305" lon="9.00628">
        <ele>851</ele>
        <time>2021-08-02T09:36:45.408Z</time>
      </trkpt>
      <trkpt lat="47.03304" lon="9.00628">
        <ele>851</ele>
        <time>2021-08-02T09:36:46.407Z</time>
      </trkpt>
      <trkpt lat="47.03303" lon="9.00627">
        <ele>851</ele>
        <time>2021-08-02T09:36:47.408Z</time>
      </trkpt>
      <trkpt lat="47.03302" lon="9.00626">
        <ele>851</ele>
        <time>2021-08-02T09:36:48.407Z</time>
      </trkpt>
      <trkpt lat="47.03301" lon="9.00625">
        <ele>851</ele>
        <time>2021-08-02T09:36:49.408Z</time>
      </trkpt>
      <trkpt lat="47.033" lon="9.00625">
        <ele>851</ele>
        <time>2021-08-02T09:36:50.407Z</time>
      </trkpt>
      <trkpt lat="47.03298" lon="9.00624">
        <ele>851</ele>
        <time>2021-08-02T09:36:51.407Z</time>
      </trkpt>
      <trkpt lat="47.03297" lon="9.00624">
        <ele>852</ele>
        <time>2021-08-02T09:36:52.407Z</time>
      </trkpt>
      <trkpt lat="47.03296" lon="9.00623">
        <ele>852</ele>
        <time>2021-08-02T09:36:53.407Z</time>
      </trkpt>
      <trkpt lat="47.03295" lon="9.00623">
        <ele>852</ele>
        <time>2021-08-02T09:36:54.407Z</time>
      </trkpt>
      <trkpt lat="47.03295" lon="9.00622">
        <ele>851</ele>
        <time>2021-08-02T09:36:55.407Z</time>
      </trkpt>
      <trkpt lat="47.03296" lon="9.00619">
        <ele>851</ele>
        <time>2021-08-02T09:36:56.407Z</time>
      </trkpt>
      <trkpt lat="47.03295" lon="9.00618">
        <ele>851</ele>
        <time>2021-08-02T09:36:57.407Z</time>
      </trkpt>
      <trkpt lat="47.03295" lon="9.00617">
        <ele>851</ele>
        <time>2021-08-02T09:36:58.407Z</time>
      </trkpt>
      <trkpt lat="47.03294" lon="9.00616">
        <ele>851</ele>
        <time>2021-08-02T09:36:59.408Z</time>
      </trkpt>
      <trkpt lat="47.03293" lon="9.00616">
        <ele>851</ele>
        <time>2021-08-02T09:37:00.407Z</time>
      </trkpt>
      <trkpt lat="47.03292" lon="9.00615">
        <ele>851</ele>
        <time>2021-08-02T09:37:01.408Z</time>
      </trkpt>
      <trkpt lat="47.03291" lon="9.00614">
        <ele>851</ele>
        <time>2021-08-02T09:37:02.408Z</time>
      </trkpt>
      <trkpt lat="47.0329" lon="9.00614">
        <ele>851</ele>
        <time>2021-08-02T09:37:03.407Z</time>
      </trkpt>
      <trkpt lat="47.03288" lon="9.00613">
        <ele>851</ele>
        <time>2021-08-02T09:37:04.408Z</time>
      </trkpt>
      <trkpt lat="47.03287" lon="9.00612">
        <ele>852</ele>
        <time>2021-08-02T09:37:05.408Z</time>
      </trkpt>
      <trkpt lat="47.03286" lon="9.00612">
        <ele>852</ele>
        <time>2021-08-02T09:37:06.407Z</time>
      </trkpt>
      <trkpt lat="47.03286" lon="9.00611">
        <ele>851</ele>
        <time>2021-08-02T09:37:07.408Z</time>
      </trkpt>
      <trkpt lat="47.03285" lon="9.00611">
        <ele>851</ele>
        <time>2021-08-02T09:37:08.408Z</time>
      </trkpt>
      <trkpt lat="47.03284" lon="9.0061">
        <ele>851</ele>
        <time>2021-08-02T09:37:09.408Z</time>
      </trkpt>
      <trkpt lat="47.03283" lon="9.00609">
        <ele>851</ele>
        <time>2021-08-02T09:37:10.408Z</time>
      </trkpt>
      <trkpt lat="47.03282" lon="9.00608">
        <ele>851</ele>
        <time>2021-08-02T09:37:11.408Z</time>
      </trkpt>
      <trkpt lat="47.03281" lon="9.00607">
        <ele>851</ele>
        <time>2021-08-02T09:37:12.407Z</time>
      </trkpt>
      <trkpt lat="47.0328" lon="9.00606">
        <ele>851</ele>
        <time>2021-08-02T09:37:13.408Z</time>
      </trkpt>
      <trkpt lat="47.03279" lon="9.00605">
        <ele>851</ele>
        <time>2021-08-02T09:37:14.408Z</time>
      </trkpt>
      <trkpt lat="47.03278" lon="9.00605">
        <ele>851</ele>
        <time>2021-08-02T09:37:15.407Z</time>
      </trkpt>
      <trkpt lat="47.03277" lon="9.00603">
        <ele>850</ele>
        <time>2021-08-02T09:37:16.408Z</time>
      </trkpt>
      <trkpt lat="47.03276" lon="9.00602">
        <ele>850</ele>
        <time>2021-08-02T09:37:17.408Z</time>
      </trkpt>
      <trkpt lat="47.03276" lon="9.00601">
        <ele>850</ele>
        <time>2021-08-02T09:37:18.408Z</time>
      </trkpt>
      <trkpt lat="47.03275" lon="9.006">
        <ele>850</ele>
        <time>2021-08-02T09:37:19.408Z</time>
      </trkpt>
      <trkpt lat="47.03274" lon="9.00599">
        <ele>850</ele>
        <time>2021-08-02T09:37:20.408Z</time>
      </trkpt>
      <trkpt lat="47.03274" lon="9.00597">
        <ele>849</ele>
        <time>2021-08-02T09:37:21.408Z</time>
      </trkpt>
      <trkpt lat="47.03273" lon="9.00596">
        <ele>849</ele>
        <time>2021-08-02T09:37:22.407Z</time>
      </trkpt>
      <trkpt lat="47.03273" lon="9.00595">
        <ele>849</ele>
        <time>2021-08-02T09:37:23.408Z</time>
      </trkpt>
      <trkpt lat="47.03272" lon="9.00593">
        <ele>849</ele>
        <time>2021-08-02T09:37:24.408Z</time>
      </trkpt>
      <trkpt lat="47.03271" lon="9.00592">
        <ele>849</ele>
        <time>2021-08-02T09:37:25.408Z</time>
      </trkpt>
      <trkpt lat="47.03271" lon="9.00591">
        <ele>848</ele>
        <time>2021-08-02T09:37:26.408Z</time>
      </trkpt>
      <trkpt lat="47.0327" lon="9.00591">
        <ele>848</ele>
        <time>2021-08-02T09:37:27.407Z</time>
      </trkpt>
      <trkpt lat="47.03269" lon="9.0059">
        <ele>848</ele>
        <time>2021-08-02T09:37:28.407Z</time>
      </trkpt>
      <trkpt lat="47.03268" lon="9.00589">
        <ele>848</ele>
        <time>2021-08-02T09:37:29.408Z</time>
      </trkpt>
      <trkpt lat="47.03267" lon="9.00588">
        <ele>847</ele>
        <time>2021-08-02T09:37:30.408Z</time>
      </trkpt>
      <trkpt lat="47.03266" lon="9.00587">
        <ele>847</ele>
        <time>2021-08-02T09:37:31.408Z</time>
      </trkpt>
      <trkpt lat="47.03266" lon="9.00586">
        <ele>848</ele>
        <time>2021-08-02T09:37:32.408Z</time>
      </trkpt>
      <trkpt lat="47.03265" lon="9.00585">
        <ele>848</ele>
        <time>2021-08-02T09:37:33.407Z</time>
      </trkpt>
      <trkpt lat="47.03264" lon="9.00584">
        <ele>848</ele>
        <time>2021-08-02T09:37:34.408Z</time>
      </trkpt>
      <trkpt lat="47.03263" lon="9.00583">
        <ele>848</ele>
        <time>2021-08-02T09:37:35.408Z</time>
      </trkpt>
      <trkpt lat="47.03262" lon="9.00582">
        <ele>848</ele>
        <time>2021-08-02T09:37:36.407Z</time>
      </trkpt>
      <trkpt lat="47.03261" lon="9.00581">
        <ele>848</ele>
        <time>2021-08-02T09:37:37.408Z</time>
      </trkpt>
      <trkpt lat="47.03261" lon="9.0058">
        <ele>848</ele>
        <time>2021-08-02T09:37:38.408Z</time>
      </trkpt>
      <trkpt lat="47.0326" lon="9.00579">
        <ele>848</ele>
        <time>2021-08-02T09:37:39.407Z</time>
      </trkpt>
      <trkpt lat="47.03259" lon="9.00579">
        <ele>848</ele>
        <time>2021-08-02T09:37:40.408Z</time>
      </trkpt>
      <trkpt lat="47.03258" lon="9.00578">
        <ele>848</ele>
        <time>2021-08-02T09:37:41.407Z</time>
      </trkpt>
      <trkpt lat="47.03257" lon="9.00577">
        <ele>848</ele>
        <time>2021-08-02T09:37:42.407Z</time>
      </trkpt>
      <trkpt lat="47.03256" lon="9.00576">
        <ele>849</ele>
        <time>2021-08-02T09:37:43.408Z</time>
      </trkpt>
      <trkpt lat="47.03255" lon="9.00576">
        <ele>849</ele>
        <time>2021-08-02T09:37:44.408Z</time>
      </trkpt>
      <trkpt lat="47.03254" lon="9.00576">
        <ele>849</ele>
        <time>2021-08-02T09:37:45.408Z</time>
      </trkpt>
      <trkpt lat="47.03252" lon="9.00577">
        <ele>849</ele>
        <time>2021-08-02T09:37:46.407Z</time>
      </trkpt>
      <trkpt lat="47.03251" lon="9.00577">
        <ele>850</ele>
        <time>2021-08-02T09:37:47.408Z</time>
      </trkpt>
      <trkpt lat="47.0325" lon="9.00577">
        <ele>850</ele>
        <time>2021-08-02T09:37:48.408Z</time>
      </trkpt>
      <trkpt lat="47.0325" lon="9.00577">
        <ele>849</ele>
        <time>2021-08-02T09:37:49.408Z</time>
      </trkpt>
      <trkpt lat="47.0325" lon="9.00576">
        <ele>849</ele>
        <time>2021-08-02T09:37:50.408Z</time>
      </trkpt>
      <trkpt lat="47.03249" lon="9.00575">
        <ele>849</ele>
        <time>2021-08-02T09:37:51.408Z</time>
      </trkpt>
      <trkpt lat="47.03248" lon="9.00574">
        <ele>849</ele>
        <time>2021-08-02T09:37:52.408Z</time>
      </trkpt>
      <trkpt lat="47.03247" lon="9.00574">
        <ele>849</ele>
        <time>2021-08-02T09:37:53.407Z</time>
      </trkpt>
      <trkpt lat="47.03246" lon="9.00573">
        <ele>849</ele>
        <time>2021-08-02T09:37:54.407Z</time>
      </trkpt>
      <trkpt lat="47.03246" lon="9.00573">
        <ele>849</ele>
        <time>2021-08-02T09:37:55.407Z</time>
      </trkpt>
      <trkpt lat="47.03245" lon="9.00573">
        <ele>849</ele>
        <time>2021-08-02T09:37:56.408Z</time>
      </trkpt>
      <trkpt lat="47.03245" lon="9.00573">
        <ele>848</ele>
        <time>2021-08-02T09:37:57.407Z</time>
      </trkpt>
      <trkpt lat="47.03245" lon="9.00573">
        <ele>848</ele>
        <time>2021-08-02T09:37:58.408Z</time>
      </trkpt>
      <trkpt lat="47.03242" lon="9.00573">
        <ele>848</ele>
        <time>2021-08-02T09:37:59.408Z</time>
      </trkpt>
      <trkpt lat="47.03241" lon="9.00572">
        <ele>848</ele>
        <time>2021-08-02T09:38:00.408Z</time>
      </trkpt>
      <trkpt lat="47.0324" lon="9.00571">
        <ele>848</ele>
        <time>2021-08-02T09:38:01.407Z</time>
      </trkpt>
      <trkpt lat="47.03239" lon="9.0057">
        <ele>848</ele>
        <time>2021-08-02T09:38:02.408Z</time>
      </trkpt>
      <trkpt lat="47.03239" lon="9.00568">
        <ele>847</ele>
        <time>2021-08-02T09:38:03.408Z</time>
      </trkpt>
      <trkpt lat="47.03238" lon="9.00568">
        <ele>847</ele>
        <time>2021-08-02T09:38:04.408Z</time>
      </trkpt>
      <trkpt lat="47.03237" lon="9.00568">
        <ele>848</ele>
        <time>2021-08-02T09:38:05.407Z</time>
      </trkpt>
      <trkpt lat="47.03236" lon="9.00567">
        <ele>848</ele>
        <time>2021-08-02T09:38:06.408Z</time>
      </trkpt>
      <trkpt lat="47.03235" lon="9.00566">
        <ele>849</ele>
        <time>2021-08-02T09:38:07.407Z</time>
      </trkpt>
      <trkpt lat="47.03234" lon="9.00566">
        <ele>849</ele>
        <time>2021-08-02T09:38:08.407Z</time>
      </trkpt>
      <trkpt lat="47.03233" lon="9.00565">
        <ele>850</ele>
        <time>2021-08-02T09:38:09.408Z</time>
      </trkpt>
      <trkpt lat="47.03232" lon="9.00563">
        <ele>850</ele>
        <time>2021-08-02T09:38:10.408Z</time>
      </trkpt>
      <trkpt lat="47.03231" lon="9.00562">
        <ele>851</ele>
        <time>2021-08-02T09:38:11.408Z</time>
      </trkpt>
      <trkpt lat="47.0323" lon="9.0056">
        <ele>851</ele>
        <time>2021-08-02T09:38:12.407Z</time>
      </trkpt>
      <trkpt lat="47.03228" lon="9.00559">
        <ele>851</ele>
        <time>2021-08-02T09:38:13.408Z</time>
      </trkpt>
      <trkpt lat="47.03227" lon="9.00558">
        <ele>852</ele>
        <time>2021-08-02T09:38:14.408Z</time>
      </trkpt>
      <trkpt lat="47.03226" lon="9.00556">
        <ele>852</ele>
        <time>2021-08-02T09:38:15.408Z</time>
      </trkpt>
      <trkpt lat="47.03225" lon="9.00555">
        <ele>852</ele>
        <time>2021-08-02T09:38:16.408Z</time>
      </trkpt>
      <trkpt lat="47.03224" lon="9.00554">
        <ele>852</ele>
        <time>2021-08-02T09:38:17.408Z</time>
      </trkpt>
      <trkpt lat="47.03223" lon="9.00552">
        <ele>852</ele>
        <time>2021-08-02T09:38:18.408Z</time>
      </trkpt>
      <trkpt lat="47.03223" lon="9.00551">
        <ele>852</ele>
        <time>2021-08-02T09:38:19.407Z</time>
      </trkpt>
      <trkpt lat="47.03222" lon="9.00549">
        <ele>852</ele>
        <time>2021-08-02T09:38:20.408Z</time>
      </trkpt>
      <trkpt lat="47.03221" lon="9.00548">
        <ele>852</ele>
        <time>2021-08-02T09:38:21.408Z</time>
      </trkpt>
      <trkpt lat="47.0322" lon="9.00547">
        <ele>852</ele>
        <time>2021-08-02T09:38:22.407Z</time>
      </trkpt>
      <trkpt lat="47.03219" lon="9.00546">
        <ele>852</ele>
        <time>2021-08-02T09:38:23.407Z</time>
      </trkpt>
      <trkpt lat="47.03217" lon="9.00545">
        <ele>852</ele>
        <time>2021-08-02T09:38:24.407Z</time>
      </trkpt>
      <trkpt lat="47.03216" lon="9.00544">
        <ele>851</ele>
        <time>2021-08-02T09:38:25.407Z</time>
      </trkpt>
      <trkpt lat="47.03216" lon="9.00543">
        <ele>851</ele>
        <time>2021-08-02T09:38:26.407Z</time>
      </trkpt>
      <trkpt lat="47.03216" lon="9.00541">
        <ele>851</ele>
        <time>2021-08-02T09:38:27.408Z</time>
      </trkpt>
      <trkpt lat="47.03215" lon="9.0054">
        <ele>851</ele>
        <time>2021-08-02T09:38:28.408Z</time>
      </trkpt>
      <trkpt lat="47.03214" lon="9.00539">
        <ele>851</ele>
        <time>2021-08-02T09:38:29.408Z</time>
      </trkpt>
      <trkpt lat="47.03214" lon="9.00539">
        <ele>851</ele>
        <time>2021-08-02T09:38:30.408Z</time>
      </trkpt>
      <trkpt lat="47.03213" lon="9.00538">
        <ele>851</ele>
        <time>2021-08-02T09:38:31.407Z</time>
      </trkpt>
      <trkpt lat="47.03212" lon="9.00537">
        <ele>851</ele>
        <time>2021-08-02T09:38:32.407Z</time>
      </trkpt>
      <trkpt lat="47.03212" lon="9.00536">
        <ele>850</ele>
        <time>2021-08-02T09:38:33.407Z</time>
      </trkpt>
      <trkpt lat="47.03211" lon="9.00535">
        <ele>850</ele>
        <time>2021-08-02T09:38:34.407Z</time>
      </trkpt>
      <trkpt lat="47.0321" lon="9.00535">
        <ele>850</ele>
        <time>2021-08-02T09:38:35.407Z</time>
      </trkpt>
      <trkpt lat="47.03209" lon="9.00534">
        <ele>850</ele>
        <time>2021-08-02T09:38:36.408Z</time>
      </trkpt>
      <trkpt lat="47.03208" lon="9.00533">
        <ele>850</ele>
        <time>2021-08-02T09:38:37.407Z</time>
      </trkpt>
      <trkpt lat="47.03208" lon="9.00532">
        <ele>850</ele>
        <time>2021-08-02T09:38:38.407Z</time>
      </trkpt>
      <trkpt lat="47.03207" lon="9.0053">
        <ele>850</ele>
        <time>2021-08-02T09:38:39.407Z</time>
      </trkpt>
      <trkpt lat="47.03206" lon="9.00529">
        <ele>850</ele>
        <time>2021-08-02T09:38:40.408Z</time>
      </trkpt>
      <trkpt lat="47.03205" lon="9.00528">
        <ele>850</ele>
        <time>2021-08-02T09:38:41.408Z</time>
      </trkpt>
      <trkpt lat="47.03205" lon="9.00527">
        <ele>850</ele>
        <time>2021-08-02T09:38:42.407Z</time>
      </trkpt>
      <trkpt lat="47.03204" lon="9.00526">
        <ele>850</ele>
        <time>2021-08-02T09:38:43.408Z</time>
      </trkpt>
      <trkpt lat="47.03204" lon="9.00525">
        <ele>851</ele>
        <time>2021-08-02T09:38:44.408Z</time>
      </trkpt>
      <trkpt lat="47.03203" lon="9.00524">
        <ele>851</ele>
        <time>2021-08-02T09:38:45.407Z</time>
      </trkpt>
      <trkpt lat="47.03203" lon="9.00523">
        <ele>852</ele>
        <time>2021-08-02T09:38:46.408Z</time>
      </trkpt>
      <trkpt lat="47.03202" lon="9.00522">
        <ele>852</ele>
        <time>2021-08-02T09:38:47.408Z</time>
      </trkpt>
      <trkpt lat="47.03202" lon="9.00521">
        <ele>852</ele>
        <time>2021-08-02T09:38:48.407Z</time>
      </trkpt>
      <trkpt lat="47.03202" lon="9.00519">
        <ele>853</ele>
        <time>2021-08-02T09:38:49.407Z</time>
      </trkpt>
      <trkpt lat="47.03201" lon="9.00517">
        <ele>853</ele>
        <time>2021-08-02T09:38:50.407Z</time>
      </trkpt>
      <trkpt lat="47.032" lon="9.00516">
        <ele>853</ele>
        <time>2021-08-02T09:38:51.408Z</time>
      </trkpt>
      <trkpt lat="47.03199" lon="9.00516">
        <ele>853</ele>
        <time>2021-08-02T09:38:52.407Z</time>
      </trkpt>
      <trkpt lat="47.03199" lon="9.00515">
        <ele>854</ele>
        <time>2021-08-02T09:38:53.407Z</time>
      </trkpt>
      <trkpt lat="47.03198" lon="9.00513">
        <ele>854</ele>
        <time>2021-08-02T09:38:54.408Z</time>
      </trkpt>
      <trkpt lat="47.03198" lon="9.00512">
        <ele>854</ele>
        <time>2021-08-02T09:38:55.408Z</time>
      </trkpt>
      <trkpt lat="47.03197" lon="9.0051">
        <ele>854</ele>
        <time>2021-08-02T09:38:56.407Z</time>
      </trkpt>
      <trkpt lat="47.03197" lon="9.00508">
        <ele>853</ele>
        <time>2021-08-02T09:38:57.407Z</time>
      </trkpt>
      <trkpt lat="47.03196" lon="9.00506">
        <ele>853</ele>
        <time>2021-08-02T09:38:58.407Z</time>
      </trkpt>
      <trkpt lat="47.03196" lon="9.00504">
        <ele>853</ele>
        <time>2021-08-02T09:38:59.407Z</time>
      </trkpt>
      <trkpt lat="47.03196" lon="9.00503">
        <ele>852</ele>
        <time>2021-08-02T09:39:00.407Z</time>
      </trkpt>
      <trkpt lat="47.03196" lon="9.00502">
        <ele>852</ele>
        <time>2021-08-02T09:39:01.407Z</time>
      </trkpt>
      <trkpt lat="47.03196" lon="9.005">
        <ele>852</ele>
        <time>2021-08-02T09:39:02.407Z</time>
      </trkpt>
      <trkpt lat="47.03197" lon="9.00499">
        <ele>852</ele>
        <time>2021-08-02T09:39:03.407Z</time>
      </trkpt>
      <trkpt lat="47.03196" lon="9.00497">
        <ele>852</ele>
        <time>2021-08-02T09:39:04.407Z</time>
      </trkpt>
      <trkpt lat="47.03195" lon="9.00496">
        <ele>851</ele>
        <time>2021-08-02T09:39:05.408Z</time>
      </trkpt>
      <trkpt lat="47.03194" lon="9.00495">
        <ele>851</ele>
        <time>2021-08-02T09:39:06.408Z</time>
      </trkpt>
      <trkpt lat="47.03192" lon="9.00494">
        <ele>852</ele>
        <time>2021-08-02T09:39:07.407Z</time>
      </trkpt>
      <trkpt lat="47.03191" lon="9.00493">
        <ele>852</ele>
        <time>2021-08-02T09:39:08.407Z</time>
      </trkpt>
      <trkpt lat="47.0319" lon="9.00493">
        <ele>852</ele>
        <time>2021-08-02T09:39:09.407Z</time>
      </trkpt>
      <trkpt lat="47.03189" lon="9.00492">
        <ele>852</ele>
        <time>2021-08-02T09:39:10.407Z</time>
      </trkpt>
      <trkpt lat="47.03188" lon="9.00491">
        <ele>852</ele>
        <time>2021-08-02T09:39:11.408Z</time>
      </trkpt>
      <trkpt lat="47.03187" lon="9.00491">
        <ele>852</ele>
        <time>2021-08-02T09:39:12.407Z</time>
      </trkpt>
      <trkpt lat="47.03186" lon="9.0049">
        <ele>853</ele>
        <time>2021-08-02T09:39:13.407Z</time>
      </trkpt>
      <trkpt lat="47.03186" lon="9.0049">
        <ele>853</ele>
        <time>2021-08-02T09:39:14.407Z</time>
      </trkpt>
      <trkpt lat="47.03185" lon="9.0049">
        <ele>854</ele>
        <time>2021-08-02T09:39:15.408Z</time>
      </trkpt>
      <trkpt lat="47.03184" lon="9.00489">
        <ele>854</ele>
        <time>2021-08-02T09:39:16.408Z</time>
      </trkpt>
      <trkpt lat="47.03183" lon="9.00489">
        <ele>854</ele>
        <time>2021-08-02T09:39:17.407Z</time>
      </trkpt>
      <trkpt lat="47.03182" lon="9.00488">
        <ele>855</ele>
        <time>2021-08-02T09:39:18.407Z</time>
      </trkpt>
      <trkpt lat="47.03182" lon="9.00487">
        <ele>855</ele>
        <time>2021-08-02T09:39:19.407Z</time>
      </trkpt>
      <trkpt lat="47.03181" lon="9.00486">
        <ele>855</ele>
        <time>2021-08-02T09:39:20.407Z</time>
      </trkpt>
      <trkpt lat="47.03182" lon="9.00485">
        <ele>856</ele>
        <time>2021-08-02T09:39:21.407Z</time>
      </trkpt>
      <trkpt lat="47.03182" lon="9.00484">
        <ele>856</ele>
        <time>2021-08-02T09:39:22.407Z</time>
      </trkpt>
      <trkpt lat="47.03182" lon="9.00482">
        <ele>856</ele>
        <time>2021-08-02T09:39:23.407Z</time>
      </trkpt>
      <trkpt lat="47.03181" lon="9.00481">
        <ele>856</ele>
        <time>2021-08-02T09:39:24.407Z</time>
      </trkpt>
      <trkpt lat="47.0318" lon="9.00481">
        <ele>856</ele>
        <time>2021-08-02T09:39:25.407Z</time>
      </trkpt>
      <trkpt lat="47.03178" lon="9.00481">
        <ele>856</ele>
        <time>2021-08-02T09:39:26.407Z</time>
      </trkpt>
      <trkpt lat="47.03177" lon="9.0048">
        <ele>856</ele>
        <time>2021-08-02T09:39:27.407Z</time>
      </trkpt>
      <trkpt lat="47.03177" lon="9.0048">
        <ele>856</ele>
        <time>2021-08-02T09:39:28.407Z</time>
      </trkpt>
      <trkpt lat="47.03176" lon="9.0048">
        <ele>857</ele>
        <time>2021-08-02T09:39:29.407Z</time>
      </trkpt>
      <trkpt lat="47.03176" lon="9.00479">
        <ele>857</ele>
        <time>2021-08-02T09:39:30.407Z</time>
      </trkpt>
      <trkpt lat="47.03176" lon="9.00479">
        <ele>857</ele>
        <time>2021-08-02T09:39:31.407Z</time>
      </trkpt>
      <trkpt lat="47.03175" lon="9.00478">
        <ele>857</ele>
        <time>2021-08-02T09:39:32.407Z</time>
      </trkpt>
      <trkpt lat="47.03175" lon="9.00478">
        <ele>857</ele>
        <time>2021-08-02T09:39:33.408Z</time>
      </trkpt>
      <trkpt lat="47.03174" lon="9.00477">
        <ele>857</ele>
        <time>2021-08-02T09:39:34.408Z</time>
      </trkpt>
      <trkpt lat="47.03174" lon="9.00477">
        <ele>857</ele>
        <time>2021-08-02T09:39:35.408Z</time>
      </trkpt>
      <trkpt lat="47.03173" lon="9.00477">
        <ele>857</ele>
        <time>2021-08-02T09:39:36.408Z</time>
      </trkpt>
      <trkpt lat="47.03173" lon="9.00478">
        <ele>857</ele>
        <time>2021-08-02T09:39:37.408Z</time>
      </trkpt>
      <trkpt lat="47.03172" lon="9.00479">
        <ele>857</ele>
        <time>2021-08-02T09:39:38.408Z</time>
      </trkpt>
      <trkpt lat="47.03171" lon="9.00479">
        <ele>857</ele>
        <time>2021-08-02T09:39:39.408Z</time>
      </trkpt>
      <trkpt lat="47.0317" lon="9.0048">
        <ele>857</ele>
        <time>2021-08-02T09:39:40.408Z</time>
      </trkpt>
      <trkpt lat="47.03169" lon="9.00479">
        <ele>857</ele>
        <time>2021-08-02T09:39:41.408Z</time>
      </trkpt>
      <trkpt lat="47.03169" lon="9.00479">
        <ele>858</ele>
        <time>2021-08-02T09:39:42.408Z</time>
      </trkpt>
      <trkpt lat="47.03168" lon="9.00479">
        <ele>858</ele>
        <time>2021-08-02T09:39:43.408Z</time>
      </trkpt>
      <trkpt lat="47.03167" lon="9.00478">
        <ele>858</ele>
        <time>2021-08-02T09:39:44.408Z</time>
      </trkpt>
      <trkpt lat="47.03165" lon="9.00478">
        <ele>859</ele>
        <time>2021-08-02T09:39:45.407Z</time>
      </trkpt>
      <trkpt lat="47.03164" lon="9.00477">
        <ele>859</ele>
        <time>2021-08-02T09:39:46.408Z</time>
      </trkpt>
      <trkpt lat="47.03162" lon="9.00476">
        <ele>859</ele>
        <time>2021-08-02T09:39:47.408Z</time>
      </trkpt>
      <trkpt lat="47.03161" lon="9.00476">
        <ele>860</ele>
        <time>2021-08-02T09:39:48.408Z</time>
      </trkpt>
      <trkpt lat="47.0316" lon="9.00475">
        <ele>860</ele>
        <time>2021-08-02T09:39:49.408Z</time>
      </trkpt>
      <trkpt lat="47.03159" lon="9.00474">
        <ele>861</ele>
        <time>2021-08-02T09:39:50.408Z</time>
      </trkpt>
      <trkpt lat="47.03157" lon="9.00474">
        <ele>861</ele>
        <time>2021-08-02T09:39:51.408Z</time>
      </trkpt>
      <trkpt lat="47.03156" lon="9.00474">
        <ele>861</ele>
        <time>2021-08-02T09:39:52.408Z</time>
      </trkpt>
      <trkpt lat="47.03154" lon="9.00475">
        <ele>861</ele>
        <time>2021-08-02T09:39:53.408Z</time>
      </trkpt>
      <trkpt lat="47.03152" lon="9.00476">
        <ele>861</ele>
        <time>2021-08-02T09:39:54.407Z</time>
      </trkpt>
      <trkpt lat="47.03151" lon="9.00476">
        <ele>861</ele>
        <time>2021-08-02T09:39:55.408Z</time>
      </trkpt>
      <trkpt lat="47.03151" lon="9.00477">
        <ele>861</ele>
        <time>2021-08-02T09:39:56.407Z</time>
      </trkpt>
      <trkpt lat="47.0315" lon="9.00476">
        <ele>862</ele>
        <time>2021-08-02T09:39:57.408Z</time>
      </trkpt>
      <trkpt lat="47.03149" lon="9.00475">
        <ele>862</ele>
        <time>2021-08-02T09:39:58.407Z</time>
      </trkpt>
      <trkpt lat="47.03148" lon="9.00474">
        <ele>862</ele>
        <time>2021-08-02T09:39:59.408Z</time>
      </trkpt>
      <trkpt lat="47.03148" lon="9.00474">
        <ele>862</ele>
        <time>2021-08-02T09:40:00.408Z</time>
      </trkpt>
      <trkpt lat="47.03147" lon="9.00473">
        <ele>863</ele>
        <time>2021-08-02T09:40:01.407Z</time>
      </trkpt>
      <trkpt lat="47.03146" lon="9.00473">
        <ele>863</ele>
        <time>2021-08-02T09:40:02.408Z</time>
      </trkpt>
      <trkpt lat="47.03146" lon="9.00474">
        <ele>863</ele>
        <time>2021-08-02T09:40:03.407Z</time>
      </trkpt>
      <trkpt lat="47.03146" lon="9.00473">
        <ele>863</ele>
        <time>2021-08-02T09:40:04.408Z</time>
      </trkpt>
      <trkpt lat="47.03146" lon="9.00473">
        <ele>864</ele>
        <time>2021-08-02T09:40:05.408Z</time>
      </trkpt>
      <trkpt lat="47.03146" lon="9.00472">
        <ele>864</ele>
        <time>2021-08-02T09:40:06.408Z</time>
      </trkpt>
      <trkpt lat="47.03146" lon="9.00471">
        <ele>864</ele>
        <time>2021-08-02T09:40:07.408Z</time>
      </trkpt>
      <trkpt lat="47.03146" lon="9.00469">
        <ele>864</ele>
        <time>2021-08-02T09:40:08.408Z</time>
      </trkpt>
      <trkpt lat="47.03146" lon="9.00468">
        <ele>864</ele>
        <time>2021-08-02T09:40:09.408Z</time>
      </trkpt>
      <trkpt lat="47.03145" lon="9.00466">
        <ele>864</ele>
        <time>2021-08-02T09:40:10.408Z</time>
      </trkpt>
      <trkpt lat="47.03145" lon="9.00465">
        <ele>863</ele>
        <time>2021-08-02T09:40:11.407Z</time>
      </trkpt>
      <trkpt lat="47.03144" lon="9.00465">
        <ele>863</ele>
        <time>2021-08-02T09:40:12.407Z</time>
      </trkpt>
      <trkpt lat="47.03144" lon="9.00464">
        <ele>862</ele>
        <time>2021-08-02T09:40:13.407Z</time>
      </trkpt>
      <trkpt lat="47.03143" lon="9.00463">
        <ele>862</ele>
        <time>2021-08-02T09:40:14.407Z</time>
      </trkpt>
      <trkpt lat="47.03143" lon="9.00462">
        <ele>862</ele>
        <time>2021-08-02T09:40:15.407Z</time>
      </trkpt>
      <trkpt lat="47.03142" lon="9.00461">
        <ele>862</ele>
        <time>2021-08-02T09:40:16.407Z</time>
      </trkpt>
      <trkpt lat="47.03142" lon="9.0046">
        <ele>862</ele>
        <time>2021-08-02T09:40:17.407Z</time>
      </trkpt>
      <trkpt lat="47.03141" lon="9.00458">
        <ele>861</ele>
        <time>2021-08-02T09:40:18.407Z</time>
      </trkpt>
      <trkpt lat="47.0314" lon="9.00456">
        <ele>861</ele>
        <time>2021-08-02T09:40:19.407Z</time>
      </trkpt>
      <trkpt lat="47.0314" lon="9.00454">
        <ele>860</ele>
        <time>2021-08-02T09:40:20.407Z</time>
      </trkpt>
      <trkpt lat="47.0314" lon="9.00453">
        <ele>860</ele>
        <time>2021-08-02T09:40:21.407Z</time>
      </trkpt>
      <trkpt lat="47.03139" lon="9.00452">
        <ele>860</ele>
        <time>2021-08-02T09:40:22.407Z</time>
      </trkpt>
      <trkpt lat="47.03138" lon="9.00451">
        <ele>859</ele>
        <time>2021-08-02T09:40:23.407Z</time>
      </trkpt>
      <trkpt lat="47.03137" lon="9.00451">
        <ele>859</ele>
        <time>2021-08-02T09:40:24.407Z</time>
      </trkpt>
      <trkpt lat="47.03135" lon="9.0045">
        <ele>859</ele>
        <time>2021-08-02T09:40:25.407Z</time>
      </trkpt>
      <trkpt lat="47.03135" lon="9.00449">
        <ele>858</ele>
        <time>2021-08-02T09:40:26.407Z</time>
      </trkpt>
      <trkpt lat="47.03134" lon="9.00448">
        <ele>858</ele>
        <time>2021-08-02T09:40:27.408Z</time>
      </trkpt>
      <trkpt lat="47.03134" lon="9.00447">
        <ele>858</ele>
        <time>2021-08-02T09:40:28.407Z</time>
      </trkpt>
      <trkpt lat="47.03134" lon="9.00446">
        <ele>858</ele>
        <time>2021-08-02T09:40:29.408Z</time>
      </trkpt>
      <trkpt lat="47.03133" lon="9.00445">
        <ele>858</ele>
        <time>2021-08-02T09:40:30.407Z</time>
      </trkpt>
      <trkpt lat="47.03133" lon="9.00444">
        <ele>858</ele>
        <time>2021-08-02T09:40:31.408Z</time>
      </trkpt>
      <trkpt lat="47.03133" lon="9.00443">
        <ele>857</ele>
        <time>2021-08-02T09:40:32.408Z</time>
      </trkpt>
      <trkpt lat="47.03133" lon="9.00441">
        <ele>857</ele>
        <time>2021-08-02T09:40:33.407Z</time>
      </trkpt>
      <trkpt lat="47.03133" lon="9.0044">
        <ele>857</ele>
        <time>2021-08-02T09:40:34.407Z</time>
      </trkpt>
      <trkpt lat="47.03133" lon="9.00438">
        <ele>858</ele>
        <time>2021-08-02T09:40:35.407Z</time>
      </trkpt>
      <trkpt lat="47.03133" lon="9.00437">
        <ele>858</ele>
        <time>2021-08-02T09:40:36.407Z</time>
      </trkpt>
      <trkpt lat="47.03132" lon="9.00436">
        <ele>858</ele>
        <time>2021-08-02T09:40:37.407Z</time>
      </trkpt>
      <trkpt lat="47.03132" lon="9.00435">
        <ele>858</ele>
        <time>2021-08-02T09:40:38.408Z</time>
      </trkpt>
      <trkpt lat="47.03131" lon="9.00433">
        <ele>859</ele>
        <time>2021-08-02T09:40:39.408Z</time>
      </trkpt>
      <trkpt lat="47.0313" lon="9.00431">
        <ele>859</ele>
        <time>2021-08-02T09:40:40.408Z</time>
      </trkpt>
      <trkpt lat="47.0313" lon="9.00427">
        <ele>859</ele>
        <time>2021-08-02T09:40:41.407Z</time>
      </trkpt>
      <trkpt lat="47.03131" lon="9.00424">
        <ele>859</ele>
        <time>2021-08-02T09:40:42.407Z</time>
      </trkpt>
      <trkpt lat="47.03131" lon="9.00422">
        <ele>859</ele>
        <time>2021-08-02T09:40:43.408Z</time>
      </trkpt>
      <trkpt lat="47.0313" lon="9.0042">
        <ele>860</ele>
        <time>2021-08-02T09:40:44.407Z</time>
      </trkpt>
      <trkpt lat="47.03129" lon="9.00418">
        <ele>860</ele>
        <time>2021-08-02T09:40:45.408Z</time>
      </trkpt>
      <trkpt lat="47.03128" lon="9.00416">
        <ele>860</ele>
        <time>2021-08-02T09:40:46.408Z</time>
      </trkpt>
      <trkpt lat="47.03127" lon="9.00414">
        <ele>860</ele>
        <time>2021-08-02T09:40:47.407Z</time>
      </trkpt>
      <trkpt lat="47.03126" lon="9.00413">
        <ele>859</ele>
        <time>2021-08-02T09:40:48.408Z</time>
      </trkpt>
      <trkpt lat="47.03126" lon="9.00411">
        <ele>859</ele>
        <time>2021-08-02T09:40:49.407Z</time>
      </trkpt>
      <trkpt lat="47.03125" lon="9.0041">
        <ele>859</ele>
        <time>2021-08-02T09:40:50.407Z</time>
      </trkpt>
      <trkpt lat="47.03125" lon="9.00409">
        <ele>859</ele>
        <time>2021-08-02T09:40:51.407Z</time>
      </trkpt>
      <trkpt lat="47.03124" lon="9.0041">
        <ele>858</ele>
        <time>2021-08-02T09:40:52.407Z</time>
      </trkpt>
      <trkpt lat="47.03124" lon="9.00411">
        <ele>858</ele>
        <time>2021-08-02T09:40:53.407Z</time>
      </trkpt>
      <trkpt lat="47.03124" lon="9.00413">
        <ele>857</ele>
        <time>2021-08-02T09:40:54.409Z</time>
      </trkpt>
      <trkpt lat="47.03125" lon="9.00413">
        <ele>857</ele>
        <time>2021-08-02T09:40:55.409Z</time>
      </trkpt>
      <trkpt lat="47.03125" lon="9.00412">
        <ele>857</ele>
        <time>2021-08-02T09:40:56.408Z</time>
      </trkpt>
      <trkpt lat="47.03125" lon="9.00412">
        <ele>857</ele>
        <time>2021-08-02T09:40:57.409Z</time>
      </trkpt>
      <trkpt lat="47.03125" lon="9.00411">
        <ele>854</ele>
        <time>2021-08-02T09:40:58.409Z</time>
      </trkpt>
      <trkpt lat="47.03125" lon="9.00412">
        <ele>854</ele>
        <time>2021-08-02T09:40:59.409Z</time>
      </trkpt>
      <trkpt lat="47.03125" lon="9.00412">
        <ele>853</ele>
        <time>2021-08-02T09:41:00.408Z</time>
      </trkpt>
      <trkpt lat="47.03122" lon="9.00412">
        <ele>850</ele>
        <time>2021-08-02T09:41:01.410Z</time>
      </trkpt>
      <trkpt lat="47.03121" lon="9.00411">
        <ele>849</ele>
        <time>2021-08-02T09:41:02.409Z</time>
      </trkpt>
      <trkpt lat="47.0312" lon="9.00411">
        <ele>849</ele>
        <time>2021-08-02T09:41:03.409Z</time>
      </trkpt>
      <trkpt lat="47.03119" lon="9.0041">
        <ele>848</ele>
        <time>2021-08-02T09:41:04.410Z</time>
      </trkpt>
      <trkpt lat="47.03118" lon="9.00409">
        <ele>847</ele>
        <time>2021-08-02T09:41:05.409Z</time>
      </trkpt>
      <trkpt lat="47.03117" lon="9.00408">
        <ele>847</ele>
        <time>2021-08-02T09:41:06.410Z</time>
      </trkpt>
      <trkpt lat="47.03116" lon="9.00407">
        <ele>846</ele>
        <time>2021-08-02T09:41:07.410Z</time>
      </trkpt>
      <trkpt lat="47.03116" lon="9.00406">
        <ele>846</ele>
        <time>2021-08-02T09:41:08.410Z</time>
      </trkpt>
      <trkpt lat="47.03115" lon="9.00405">
        <ele>845</ele>
        <time>2021-08-02T09:41:09.410Z</time>
      </trkpt>
      <trkpt lat="47.03115" lon="9.00404">
        <ele>845</ele>
        <time>2021-08-02T09:41:10.410Z</time>
      </trkpt>
      <trkpt lat="47.03115" lon="9.00403">
        <ele>844</ele>
        <time>2021-08-02T09:41:11.410Z</time>
      </trkpt>
      <trkpt lat="47.03115" lon="9.00402">
        <ele>844</ele>
        <time>2021-08-02T09:41:12.409Z</time>
      </trkpt>
      <trkpt lat="47.03116" lon="9.00401">
        <ele>844</ele>
        <time>2021-08-02T09:41:13.410Z</time>
      </trkpt>
      <trkpt lat="47.03116" lon="9.004">
        <ele>844</ele>
        <time>2021-08-02T09:41:14.410Z</time>
      </trkpt>
      <trkpt lat="47.03116" lon="9.00398">
        <ele>844</ele>
        <time>2021-08-02T09:41:15.409Z</time>
      </trkpt>
      <trkpt lat="47.03115" lon="9.00397">
        <ele>844</ele>
        <time>2021-08-02T09:41:16.410Z</time>
      </trkpt>
      <trkpt lat="47.03115" lon="9.00395">
        <ele>844</ele>
        <time>2021-08-02T09:41:17.410Z</time>
      </trkpt>
      <trkpt lat="47.03115" lon="9.00394">
        <ele>844</ele>
        <time>2021-08-02T09:41:18.409Z</time>
      </trkpt>
      <trkpt lat="47.03115" lon="9.00393">
        <ele>845</ele>
        <time>2021-08-02T09:41:19.409Z</time>
      </trkpt>
      <trkpt lat="47.03115" lon="9.00391">
        <ele>845</ele>
        <time>2021-08-02T09:41:20.410Z</time>
      </trkpt>
      <trkpt lat="47.03115" lon="9.00389">
        <ele>846</ele>
        <time>2021-08-02T09:41:21.409Z</time>
      </trkpt>
      <trkpt lat="47.03115" lon="9.00387">
        <ele>846</ele>
        <time>2021-08-02T09:41:22.410Z</time>
      </trkpt>
      <trkpt lat="47.03115" lon="9.00385">
        <ele>847</ele>
        <time>2021-08-02T09:41:23.410Z</time>
      </trkpt>
      <trkpt lat="47.03115" lon="9.00383">
        <ele>847</ele>
        <time>2021-08-02T09:41:24.410Z</time>
      </trkpt>
      <trkpt lat="47.03114" lon="9.00381">
        <ele>848</ele>
        <time>2021-08-02T09:41:25.410Z</time>
      </trkpt>
      <trkpt lat="47.03114" lon="9.00379">
        <ele>848</ele>
        <time>2021-08-02T09:41:26.409Z</time>
      </trkpt>
      <trkpt lat="47.03114" lon="9.00377">
        <ele>849</ele>
        <time>2021-08-02T09:41:27.410Z</time>
      </trkpt>
      <trkpt lat="47.03114" lon="9.00376">
        <ele>849</ele>
        <time>2021-08-02T09:41:28.409Z</time>
      </trkpt>
      <trkpt lat="47.03114" lon="9.00373">
        <ele>849</ele>
        <time>2021-08-02T09:41:29.410Z</time>
      </trkpt>
      <trkpt lat="47.03115" lon="9.00371">
        <ele>849</ele>
        <time>2021-08-02T09:41:30.409Z</time>
      </trkpt>
      <trkpt lat="47.03115" lon="9.00369">
        <ele>849</ele>
        <time>2021-08-02T09:41:31.409Z</time>
      </trkpt>
      <trkpt lat="47.03115" lon="9.00366">
        <ele>849</ele>
        <time>2021-08-02T09:41:32.409Z</time>
      </trkpt>
      <trkpt lat="47.03115" lon="9.00364">
        <ele>850</ele>
        <time>2021-08-02T09:41:33.409Z</time>
      </trkpt>
      <trkpt lat="47.03115" lon="9.00361">
        <ele>850</ele>
        <time>2021-08-02T09:41:34.410Z</time>
      </trkpt>
      <trkpt lat="47.03114" lon="9.00359">
        <ele>850</ele>
        <time>2021-08-02T09:41:35.409Z</time>
      </trkpt>
      <trkpt lat="47.03113" lon="9.00357">
        <ele>850</ele>
        <time>2021-08-02T09:41:36.410Z</time>
      </trkpt>
      <trkpt lat="47.03113" lon="9.00355">
        <ele>850</ele>
        <time>2021-08-02T09:41:37.410Z</time>
      </trkpt>
      <trkpt lat="47.03113" lon="9.00352">
        <ele>850</ele>
        <time>2021-08-02T09:41:38.410Z</time>
      </trkpt>
      <trkpt lat="47.03113" lon="9.00351">
        <ele>850</ele>
        <time>2021-08-02T09:41:39.410Z</time>
      </trkpt>
      <trkpt lat="47.03113" lon="9.00349">
        <ele>850</ele>
        <time>2021-08-02T09:41:40.409Z</time>
      </trkpt>
      <trkpt lat="47.03112" lon="9.00347">
        <ele>850</ele>
        <time>2021-08-02T09:41:41.409Z</time>
      </trkpt>
      <trkpt lat="47.03112" lon="9.00345">
        <ele>850</ele>
        <time>2021-08-02T09:41:42.410Z</time>
      </trkpt>
      <trkpt lat="47.03112" lon="9.00343">
        <ele>851</ele>
        <time>2021-08-02T09:41:43.410Z</time>
      </trkpt>
      <trkpt lat="47.03112" lon="9.00341">
        <ele>851</ele>
        <time>2021-08-02T09:41:44.409Z</time>
      </trkpt>
      <trkpt lat="47.03113" lon="9.0034">
        <ele>850</ele>
        <time>2021-08-02T09:41:45.410Z</time>
      </trkpt>
      <trkpt lat="47.03113" lon="9.00337">
        <ele>850</ele>
        <time>2021-08-02T09:41:46.409Z</time>
      </trkpt>
      <trkpt lat="47.03113" lon="9.00336">
        <ele>850</ele>
        <time>2021-08-02T09:41:47.410Z</time>
      </trkpt>
      <trkpt lat="47.03113" lon="9.00334">
        <ele>850</ele>
        <time>2021-08-02T09:41:48.410Z</time>
      </trkpt>
      <trkpt lat="47.03112" lon="9.00333">
        <ele>850</ele>
        <time>2021-08-02T09:41:49.409Z</time>
      </trkpt>
      <trkpt lat="47.03112" lon="9.00331">
        <ele>850</ele>
        <time>2021-08-02T09:41:50.409Z</time>
      </trkpt>
      <trkpt lat="47.03112" lon="9.00329">
        <ele>850</ele>
        <time>2021-08-02T09:41:51.409Z</time>
      </trkpt>
      <trkpt lat="47.03112" lon="9.00328">
        <ele>850</ele>
        <time>2021-08-02T09:41:52.410Z</time>
      </trkpt>
      <trkpt lat="47.03112" lon="9.00326">
        <ele>850</ele>
        <time>2021-08-02T09:41:53.409Z</time>
      </trkpt>
      <trkpt lat="47.03112" lon="9.00325">
        <ele>850</ele>
        <time>2021-08-02T09:41:54.409Z</time>
      </trkpt>
      <trkpt lat="47.03113" lon="9.00323">
        <ele>850</ele>
        <time>2021-08-02T09:41:55.409Z</time>
      </trkpt>
      <trkpt lat="47.03113" lon="9.00322">
        <ele>851</ele>
        <time>2021-08-02T09:41:56.409Z</time>
      </trkpt>
      <trkpt lat="47.03113" lon="9.0032">
        <ele>851</ele>
        <time>2021-08-02T09:41:57.410Z</time>
      </trkpt>
      <trkpt lat="47.03113" lon="9.00319">
        <ele>851</ele>
        <time>2021-08-02T09:41:58.409Z</time>
      </trkpt>
      <trkpt lat="47.03113" lon="9.00317">
        <ele>851</ele>
        <time>2021-08-02T09:41:59.409Z</time>
      </trkpt>
      <trkpt lat="47.03112" lon="9.00316">
        <ele>851</ele>
        <time>2021-08-02T09:42:00.409Z</time>
      </trkpt>
      <trkpt lat="47.03112" lon="9.00314">
        <ele>851</ele>
        <time>2021-08-02T09:42:01.409Z</time>
      </trkpt>
      <trkpt lat="47.03112" lon="9.00313">
        <ele>851</ele>
        <time>2021-08-02T09:42:02.410Z</time>
      </trkpt>
      <trkpt lat="47.03112" lon="9.00311">
        <ele>851</ele>
        <time>2021-08-02T09:42:03.410Z</time>
      </trkpt>
      <trkpt lat="47.03111" lon="9.0031">
        <ele>851</ele>
        <time>2021-08-02T09:42:04.409Z</time>
      </trkpt>
      <trkpt lat="47.03111" lon="9.00308">
        <ele>851</ele>
        <time>2021-08-02T09:42:05.409Z</time>
      </trkpt>
      <trkpt lat="47.03111" lon="9.00307">
        <ele>851</ele>
        <time>2021-08-02T09:42:06.409Z</time>
      </trkpt>
      <trkpt lat="47.03111" lon="9.00305">
        <ele>850</ele>
        <time>2021-08-02T09:42:07.409Z</time>
      </trkpt>
      <trkpt lat="47.0311" lon="9.00304">
        <ele>850</ele>
        <time>2021-08-02T09:42:08.410Z</time>
      </trkpt>
      <trkpt lat="47.0311" lon="9.00301">
        <ele>850</ele>
        <time>2021-08-02T09:42:09.409Z</time>
      </trkpt>
      <trkpt lat="47.0311" lon="9.003">
        <ele>850</ele>
        <time>2021-08-02T09:42:10.409Z</time>
      </trkpt>
      <trkpt lat="47.03109" lon="9.00298">
        <ele>850</ele>
        <time>2021-08-02T09:42:11.409Z</time>
      </trkpt>
      <trkpt lat="47.03109" lon="9.00296">
        <ele>850</ele>
        <time>2021-08-02T09:42:12.409Z</time>
      </trkpt>
      <trkpt lat="47.03109" lon="9.00295">
        <ele>850</ele>
        <time>2021-08-02T09:42:13.410Z</time>
      </trkpt>
      <trkpt lat="47.03108" lon="9.00293">
        <ele>850</ele>
        <time>2021-08-02T09:42:14.409Z</time>
      </trkpt>
      <trkpt lat="47.03108" lon="9.00291">
        <ele>850</ele>
        <time>2021-08-02T09:42:15.409Z</time>
      </trkpt>
      <trkpt lat="47.03107" lon="9.0029">
        <ele>850</ele>
        <time>2021-08-02T09:42:16.410Z</time>
      </trkpt>
      <trkpt lat="47.03106" lon="9.00289">
        <ele>850</ele>
        <time>2021-08-02T09:42:17.409Z</time>
      </trkpt>
      <trkpt lat="47.03105" lon="9.00288">
        <ele>851</ele>
        <time>2021-08-02T09:42:18.409Z</time>
      </trkpt>
      <trkpt lat="47.03105" lon="9.00287">
        <ele>851</ele>
        <time>2021-08-02T09:42:19.409Z</time>
      </trkpt>
      <trkpt lat="47.03105" lon="9.00285">
        <ele>851</ele>
        <time>2021-08-02T09:42:20.409Z</time>
      </trkpt>
      <trkpt lat="47.03105" lon="9.00284">
        <ele>851</ele>
        <time>2021-08-02T09:42:21.409Z</time>
      </trkpt>
      <trkpt lat="47.03104" lon="9.00284">
        <ele>851</ele>
        <time>2021-08-02T09:42:22.409Z</time>
      </trkpt>
      <trkpt lat="47.03103" lon="9.00283">
        <ele>851</ele>
        <time>2021-08-02T09:42:23.409Z</time>
      </trkpt>
      <trkpt lat="47.03103" lon="9.00283">
        <ele>851</ele>
        <time>2021-08-02T09:42:24.410Z</time>
      </trkpt>
      <trkpt lat="47.031" lon="9.00282">
        <ele>852</ele>
        <time>2021-08-02T09:42:25.410Z</time>
      </trkpt>
      <trkpt lat="47.031" lon="9.0028">
        <ele>852</ele>
        <time>2021-08-02T09:42:26.409Z</time>
      </trkpt>
      <trkpt lat="47.03101" lon="9.00279">
        <ele>852</ele>
        <time>2021-08-02T09:42:27.409Z</time>
      </trkpt>
      <trkpt lat="47.031" lon="9.00278">
        <ele>851</ele>
        <time>2021-08-02T09:42:28.410Z</time>
      </trkpt>
      <trkpt lat="47.031" lon="9.00276">
        <ele>851</ele>
        <time>2021-08-02T09:42:29.410Z</time>
      </trkpt>
      <trkpt lat="47.031" lon="9.00275">
        <ele>851</ele>
        <time>2021-08-02T09:42:30.410Z</time>
      </trkpt>
      <trkpt lat="47.03099" lon="9.00274">
        <ele>851</ele>
        <time>2021-08-02T09:42:31.409Z</time>
      </trkpt>
      <trkpt lat="47.03099" lon="9.00273">
        <ele>852</ele>
        <time>2021-08-02T09:42:32.409Z</time>
      </trkpt>
      <trkpt lat="47.03099" lon="9.00273">
        <ele>852</ele>
        <time>2021-08-02T09:42:33.410Z</time>
      </trkpt>
      <trkpt lat="47.03098" lon="9.00273">
        <ele>852</ele>
        <time>2021-08-02T09:42:34.410Z</time>
      </trkpt>
      <trkpt lat="47.03097" lon="9.00273">
        <ele>853</ele>
        <time>2021-08-02T09:42:35.409Z</time>
      </trkpt>
      <trkpt lat="47.03096" lon="9.00273">
        <ele>853</ele>
        <time>2021-08-02T09:42:36.409Z</time>
      </trkpt>
      <trkpt lat="47.03095" lon="9.00274">
        <ele>853</ele>
        <time>2021-08-02T09:42:37.410Z</time>
      </trkpt>
      <trkpt lat="47.03095" lon="9.00273">
        <ele>854</ele>
        <time>2021-08-02T09:42:38.410Z</time>
      </trkpt>
      <trkpt lat="47.03095" lon="9.00273">
        <ele>855</ele>
        <time>2021-08-02T09:42:39.410Z</time>
      </trkpt>
      <trkpt lat="47.03094" lon="9.00272">
        <ele>855</ele>
        <time>2021-08-02T09:42:40.409Z</time>
      </trkpt>
      <trkpt lat="47.03094" lon="9.00271">
        <ele>856</ele>
        <time>2021-08-02T09:42:41.410Z</time>
      </trkpt>
      <trkpt lat="47.03094" lon="9.0027">
        <ele>856</ele>
        <time>2021-08-02T09:42:42.409Z</time>
      </trkpt>
      <trkpt lat="47.03094" lon="9.00268">
        <ele>856</ele>
        <time>2021-08-02T09:42:43.410Z</time>
      </trkpt>
      <trkpt lat="47.03093" lon="9.00267">
        <ele>855</ele>
        <time>2021-08-02T09:42:44.409Z</time>
      </trkpt>
      <trkpt lat="47.03093" lon="9.00266">
        <ele>855</ele>
        <time>2021-08-02T09:42:45.410Z</time>
      </trkpt>
      <trkpt lat="47.03092" lon="9.00265">
        <ele>855</ele>
        <time>2021-08-02T09:42:46.410Z</time>
      </trkpt>
      <trkpt lat="47.03092" lon="9.00264">
        <ele>855</ele>
        <time>2021-08-02T09:42:47.409Z</time>
      </trkpt>
      <trkpt lat="47.03092" lon="9.00262">
        <ele>855</ele>
        <time>2021-08-02T09:42:48.409Z</time>
      </trkpt>
      <trkpt lat="47.03091" lon="9.00261">
        <ele>856</ele>
        <time>2021-08-02T09:42:49.410Z</time>
      </trkpt>
      <trkpt lat="47.0309" lon="9.0026">
        <ele>856</ele>
        <time>2021-08-02T09:42:50.409Z</time>
      </trkpt>
      <trkpt lat="47.0309" lon="9.00259">
        <ele>856</ele>
        <time>2021-08-02T09:42:51.409Z</time>
      </trkpt>
      <trkpt lat="47.03089" lon="9.00258">
        <ele>856</ele>
        <time>2021-08-02T09:42:52.409Z</time>
      </trkpt>
      <trkpt lat="47.03088" lon="9.00257">
        <ele>856</ele>
        <time>2021-08-02T09:42:53.410Z</time>
      </trkpt>
      <trkpt lat="47.03088" lon="9.00255">
        <ele>855</ele>
        <time>2021-08-02T09:42:54.409Z</time>
      </trkpt>
      <trkpt lat="47.03088" lon="9.00253">
        <ele>855</ele>
        <time>2021-08-02T09:42:55.410Z</time>
      </trkpt>
      <trkpt lat="47.03088" lon="9.00251">
        <ele>855</ele>
        <time>2021-08-02T09:42:56.409Z</time>
      </trkpt>
      <trkpt lat="47.03087" lon="9.00249">
        <ele>855</ele>
        <time>2021-08-02T09:42:57.409Z</time>
      </trkpt>
      <trkpt lat="47.03087" lon="9.00248">
        <ele>855</ele>
        <time>2021-08-02T09:42:58.409Z</time>
      </trkpt>
      <trkpt lat="47.03086" lon="9.00247">
        <ele>854</ele>
        <time>2021-08-02T09:42:59.410Z</time>
      </trkpt>
      <trkpt lat="47.03085" lon="9.00245">
        <ele>855</ele>
        <time>2021-08-02T09:43:00.410Z</time>
      </trkpt>
      <trkpt lat="47.03086" lon="9.00244">
        <ele>855</ele>
        <time>2021-08-02T09:43:01.409Z</time>
      </trkpt>
      <trkpt lat="47.03086" lon="9.00242">
        <ele>856</ele>
        <time>2021-08-02T09:43:02.409Z</time>
      </trkpt>
      <trkpt lat="47.03087" lon="9.00242">
        <ele>856</ele>
        <time>2021-08-02T09:43:03.409Z</time>
      </trkpt>
      <trkpt lat="47.03087" lon="9.00242">
        <ele>856</ele>
        <time>2021-08-02T09:43:04.409Z</time>
      </trkpt>
      <trkpt lat="47.03086" lon="9.00242">
        <ele>857</ele>
        <time>2021-08-02T09:43:05.410Z</time>
      </trkpt>
      <trkpt lat="47.03085" lon="9.00242">
        <ele>857</ele>
        <time>2021-08-02T09:43:06.409Z</time>
      </trkpt>
      <trkpt lat="47.03084" lon="9.00243">
        <ele>858</ele>
        <time>2021-08-02T09:43:07.409Z</time>
      </trkpt>
      <trkpt lat="47.03084" lon="9.00243">
        <ele>857</ele>
        <time>2021-08-02T09:43:08.410Z</time>
      </trkpt>
      <trkpt lat="47.03083" lon="9.00243">
        <ele>857</ele>
        <time>2021-08-02T09:43:09.410Z</time>
      </trkpt>
      <trkpt lat="47.03081" lon="9.00242">
        <ele>857</ele>
        <time>2021-08-02T09:43:10.410Z</time>
      </trkpt>
      <trkpt lat="47.03081" lon="9.0024">
        <ele>856</ele>
        <time>2021-08-02T09:43:11.409Z</time>
      </trkpt>
      <trkpt lat="47.03081" lon="9.00238">
        <ele>856</ele>
        <time>2021-08-02T09:43:12.409Z</time>
      </trkpt>
      <trkpt lat="47.0308" lon="9.00237">
        <ele>856</ele>
        <time>2021-08-02T09:43:13.409Z</time>
      </trkpt>
      <trkpt lat="47.0308" lon="9.00235">
        <ele>855</ele>
        <time>2021-08-02T09:43:14.410Z</time>
      </trkpt>
      <trkpt lat="47.0308" lon="9.00234">
        <ele>855</ele>
        <time>2021-08-02T09:43:15.409Z</time>
      </trkpt>
      <trkpt lat="47.0308" lon="9.00233">
        <ele>855</ele>
        <time>2021-08-02T09:43:16.409Z</time>
      </trkpt>
      <trkpt lat="47.0308" lon="9.00231">
        <ele>855</ele>
        <time>2021-08-02T09:43:17.409Z</time>
      </trkpt>
      <trkpt lat="47.03079" lon="9.0023">
        <ele>855</ele>
        <time>2021-08-02T09:43:18.410Z</time>
      </trkpt>
      <trkpt lat="47.03078" lon="9.00229">
        <ele>855</ele>
        <time>2021-08-02T09:43:19.409Z</time>
      </trkpt>
      <trkpt lat="47.03077" lon="9.00228">
        <ele>855</ele>
        <time>2021-08-02T09:43:20.409Z</time>
      </trkpt>
      <trkpt lat="47.03077" lon="9.00227">
        <ele>855</ele>
        <time>2021-08-02T09:43:21.410Z</time>
      </trkpt>
      <trkpt lat="47.03076" lon="9.00226">
        <ele>855</ele>
        <time>2021-08-02T09:43:22.410Z</time>
      </trkpt>
      <trkpt lat="47.03074" lon="9.00225">
        <ele>854</ele>
        <time>2021-08-02T09:43:23.409Z</time>
      </trkpt>
      <trkpt lat="47.03073" lon="9.00224">
        <ele>854</ele>
        <time>2021-08-02T09:43:24.410Z</time>
      </trkpt>
      <trkpt lat="47.03072" lon="9.00222">
        <ele>853</ele>
        <time>2021-08-02T09:43:25.410Z</time>
      </trkpt>
      <trkpt lat="47.03073" lon="9.00221">
        <ele>853</ele>
        <time>2021-08-02T09:43:26.409Z</time>
      </trkpt>
      <trkpt lat="47.03073" lon="9.00219">
        <ele>853</ele>
        <time>2021-08-02T09:43:27.410Z</time>
      </trkpt>
      <trkpt lat="47.03073" lon="9.00219">
        <ele>852</ele>
        <time>2021-08-02T09:43:28.410Z</time>
      </trkpt>
      <trkpt lat="47.03073" lon="9.00218">
        <ele>852</ele>
        <time>2021-08-02T09:43:29.410Z</time>
      </trkpt>
      <trkpt lat="47.03072" lon="9.00218">
        <ele>851</ele>
        <time>2021-08-02T09:43:30.409Z</time>
      </trkpt>
      <trkpt lat="47.03072" lon="9.00218">
        <ele>851</ele>
        <time>2021-08-02T09:43:31.410Z</time>
      </trkpt>
      <trkpt lat="47.03071" lon="9.00219">
        <ele>851</ele>
        <time>2021-08-02T09:43:32.410Z</time>
      </trkpt>
      <trkpt lat="47.03071" lon="9.0022">
        <ele>850</ele>
        <time>2021-08-02T09:43:33.409Z</time>
      </trkpt>
      <trkpt lat="47.03071" lon="9.0022">
        <ele>850</ele>
        <time>2021-08-02T09:43:34.409Z</time>
      </trkpt>
      <trkpt lat="47.0307" lon="9.0022">
        <ele>850</ele>
        <time>2021-08-02T09:43:35.410Z</time>
      </trkpt>
      <trkpt lat="47.03069" lon="9.00221">
        <ele>850</ele>
        <time>2021-08-02T09:43:36.409Z</time>
      </trkpt>
      <trkpt lat="47.03069" lon="9.0022">
        <ele>850</ele>
        <time>2021-08-02T09:43:37.410Z</time>
      </trkpt>
      <trkpt lat="47.03067" lon="9.0022">
        <ele>849</ele>
        <time>2021-08-02T09:43:38.410Z</time>
      </trkpt>
      <trkpt lat="47.03065" lon="9.0022">
        <ele>849</ele>
        <time>2021-08-02T09:43:39.410Z</time>
      </trkpt>
      <trkpt lat="47.03064" lon="9.0022">
        <ele>849</ele>
        <time>2021-08-02T09:43:40.410Z</time>
      </trkpt>
      <trkpt lat="47.03064" lon="9.00219">
        <ele>850</ele>
        <time>2021-08-02T09:43:41.409Z</time>
      </trkpt>
      <trkpt lat="47.03063" lon="9.00218">
        <ele>850</ele>
        <time>2021-08-02T09:43:42.410Z</time>
      </trkpt>
      <trkpt lat="47.03062" lon="9.00217">
        <ele>851</ele>
        <time>2021-08-02T09:43:43.409Z</time>
      </trkpt>
      <trkpt lat="47.03062" lon="9.00216">
        <ele>851</ele>
        <time>2021-08-02T09:43:44.410Z</time>
      </trkpt>
      <trkpt lat="47.03062" lon="9.00214">
        <ele>852</ele>
        <time>2021-08-02T09:43:45.409Z</time>
      </trkpt>
      <trkpt lat="47.03062" lon="9.00213">
        <ele>852</ele>
        <time>2021-08-02T09:43:46.409Z</time>
      </trkpt>
      <trkpt lat="47.03063" lon="9.00212">
        <ele>852</ele>
        <time>2021-08-02T09:43:47.410Z</time>
      </trkpt>
      <trkpt lat="47.03063" lon="9.00211">
        <ele>853</ele>
        <time>2021-08-02T09:43:48.409Z</time>
      </trkpt>
      <trkpt lat="47.03062" lon="9.0021">
        <ele>853</ele>
        <time>2021-08-02T09:43:49.409Z</time>
      </trkpt>
      <trkpt lat="47.03061" lon="9.00209">
        <ele>853</ele>
        <time>2021-08-02T09:43:50.409Z</time>
      </trkpt>
      <trkpt lat="47.0306" lon="9.00208">
        <ele>853</ele>
        <time>2021-08-02T09:43:51.409Z</time>
      </trkpt>
      <trkpt lat="47.0306" lon="9.00207">
        <ele>854</ele>
        <time>2021-08-02T09:43:52.410Z</time>
      </trkpt>
      <trkpt lat="47.0306" lon="9.00206">
        <ele>854</ele>
        <time>2021-08-02T09:43:53.409Z</time>
      </trkpt>
      <trkpt lat="47.0306" lon="9.00206">
        <ele>855</ele>
        <time>2021-08-02T09:43:54.409Z</time>
      </trkpt>
      <trkpt lat="47.0306" lon="9.00205">
        <ele>855</ele>
        <time>2021-08-02T09:43:55.409Z</time>
      </trkpt>
      <trkpt lat="47.0306" lon="9.00204">
        <ele>855</ele>
        <time>2021-08-02T09:43:56.410Z</time>
      </trkpt>
      <trkpt lat="47.0306" lon="9.00202">
        <ele>856</ele>
        <time>2021-08-02T09:43:57.409Z</time>
      </trkpt>
      <trkpt lat="47.03059" lon="9.00201">
        <ele>856</ele>
        <time>2021-08-02T09:43:58.410Z</time>
      </trkpt>
      <trkpt lat="47.03058" lon="9.00199">
        <ele>856</ele>
        <time>2021-08-02T09:43:59.409Z</time>
      </trkpt>
      <trkpt lat="47.03057" lon="9.00198">
        <ele>856</ele>
        <time>2021-08-02T09:44:00.410Z</time>
      </trkpt>
      <trkpt lat="47.03056" lon="9.00197">
        <ele>856</ele>
        <time>2021-08-02T09:44:01.410Z</time>
      </trkpt>
      <trkpt lat="47.03055" lon="9.00197">
        <ele>856</ele>
        <time>2021-08-02T09:44:02.410Z</time>
      </trkpt>
      <trkpt lat="47.03055" lon="9.00196">
        <ele>855</ele>
        <time>2021-08-02T09:44:03.410Z</time>
      </trkpt>
      <trkpt lat="47.03055" lon="9.00194">
        <ele>855</ele>
        <time>2021-08-02T09:44:04.409Z</time>
      </trkpt>
      <trkpt lat="47.03056" lon="9.00193">
        <ele>855</ele>
        <time>2021-08-02T09:44:05.410Z</time>
      </trkpt>
      <trkpt lat="47.03055" lon="9.00191">
        <ele>855</ele>
        <time>2021-08-02T09:44:06.409Z</time>
      </trkpt>
      <trkpt lat="47.03055" lon="9.0019">
        <ele>856</ele>
        <time>2021-08-02T09:44:07.409Z</time>
      </trkpt>
      <trkpt lat="47.03054" lon="9.00189">
        <ele>856</ele>
        <time>2021-08-02T09:44:08.410Z</time>
      </trkpt>
      <trkpt lat="47.03053" lon="9.00187">
        <ele>856</ele>
        <time>2021-08-02T09:44:09.410Z</time>
      </trkpt>
      <trkpt lat="47.03052" lon="9.00185">
        <ele>856</ele>
        <time>2021-08-02T09:44:10.410Z</time>
      </trkpt>
      <trkpt lat="47.0305" lon="9.00184">
        <ele>856</ele>
        <time>2021-08-02T09:44:11.409Z</time>
      </trkpt>
      <trkpt lat="47.03048" lon="9.00184">
        <ele>857</ele>
        <time>2021-08-02T09:44:12.410Z</time>
      </trkpt>
      <trkpt lat="47.03047" lon="9.00183">
        <ele>857</ele>
        <time>2021-08-02T09:44:13.410Z</time>
      </trkpt>
      <trkpt lat="47.03047" lon="9.00182">
        <ele>857</ele>
        <time>2021-08-02T09:44:14.409Z</time>
      </trkpt>
      <trkpt lat="47.03048" lon="9.00181">
        <ele>857</ele>
        <time>2021-08-02T09:44:15.410Z</time>
      </trkpt>
      <trkpt lat="47.03047" lon="9.0018">
        <ele>857</ele>
        <time>2021-08-02T09:44:16.410Z</time>
      </trkpt>
      <trkpt lat="47.03046" lon="9.00179">
        <ele>857</ele>
        <time>2021-08-02T09:44:17.410Z</time>
      </trkpt>
      <trkpt lat="47.03045" lon="9.00178">
        <ele>857</ele>
        <time>2021-08-02T09:44:18.409Z</time>
      </trkpt>
      <trkpt lat="47.03045" lon="9.00177">
        <ele>857</ele>
        <time>2021-08-02T09:44:19.409Z</time>
      </trkpt>
      <trkpt lat="47.03044" lon="9.00176">
        <ele>858</ele>
        <time>2021-08-02T09:44:20.409Z</time>
      </trkpt>
      <trkpt lat="47.03043" lon="9.00174">
        <ele>858</ele>
        <time>2021-08-02T09:44:21.409Z</time>
      </trkpt>
      <trkpt lat="47.03043" lon="9.00173">
        <ele>857</ele>
        <time>2021-08-02T09:44:22.409Z</time>
      </trkpt>
      <trkpt lat="47.03042" lon="9.00172">
        <ele>857</ele>
        <time>2021-08-02T09:44:23.409Z</time>
      </trkpt>
      <trkpt lat="47.03042" lon="9.00171">
        <ele>856</ele>
        <time>2021-08-02T09:44:24.409Z</time>
      </trkpt>
      <trkpt lat="47.03042" lon="9.00169">
        <ele>856</ele>
        <time>2021-08-02T09:44:25.410Z</time>
      </trkpt>
      <trkpt lat="47.03043" lon="9.00167">
        <ele>855</ele>
        <time>2021-08-02T09:44:26.409Z</time>
      </trkpt>
      <trkpt lat="47.03043" lon="9.00165">
        <ele>854</ele>
        <time>2021-08-02T09:44:27.409Z</time>
      </trkpt>
      <trkpt lat="47.03043" lon="9.00164">
        <ele>854</ele>
        <time>2021-08-02T09:44:28.409Z</time>
      </trkpt>
      <trkpt lat="47.03042" lon="9.00163">
        <ele>854</ele>
        <time>2021-08-02T09:44:29.409Z</time>
      </trkpt>
      <trkpt lat="47.03042" lon="9.00163">
        <ele>853</ele>
        <time>2021-08-02T09:44:30.410Z</time>
      </trkpt>
      <trkpt lat="47.03041" lon="9.00162">
        <ele>853</ele>
        <time>2021-08-02T09:44:31.410Z</time>
      </trkpt>
      <trkpt lat="47.0304" lon="9.00161">
        <ele>853</ele>
        <time>2021-08-02T09:44:32.409Z</time>
      </trkpt>
      <trkpt lat="47.0304" lon="9.0016">
        <ele>852</ele>
        <time>2021-08-02T09:44:33.409Z</time>
      </trkpt>
      <trkpt lat="47.03039" lon="9.00159">
        <ele>852</ele>
        <time>2021-08-02T09:44:34.409Z</time>
      </trkpt>
      <trkpt lat="47.03038" lon="9.00157">
        <ele>851</ele>
        <time>2021-08-02T09:44:35.410Z</time>
      </trkpt>
      <trkpt lat="47.03037" lon="9.00157">
        <ele>851</ele>
        <time>2021-08-02T09:44:36.410Z</time>
      </trkpt>
      <trkpt lat="47.03035" lon="9.00156">
        <ele>851</ele>
        <time>2021-08-02T09:44:37.409Z</time>
      </trkpt>
      <trkpt lat="47.03034" lon="9.00155">
        <ele>851</ele>
        <time>2021-08-02T09:44:38.409Z</time>
      </trkpt>
      <trkpt lat="47.03033" lon="9.00154">
        <ele>850</ele>
        <time>2021-08-02T09:44:39.409Z</time>
      </trkpt>
      <trkpt lat="47.03033" lon="9.00153">
        <ele>850</ele>
        <time>2021-08-02T09:44:40.409Z</time>
      </trkpt>
      <trkpt lat="47.03032" lon="9.00153">
        <ele>850</ele>
        <time>2021-08-02T09:44:41.410Z</time>
      </trkpt>
      <trkpt lat="47.03031" lon="9.00153">
        <ele>850</ele>
        <time>2021-08-02T09:44:42.410Z</time>
      </trkpt>
      <trkpt lat="47.03031" lon="9.00152">
        <ele>851</ele>
        <time>2021-08-02T09:44:43.409Z</time>
      </trkpt>
      <trkpt lat="47.0303" lon="9.00153">
        <ele>851</ele>
        <time>2021-08-02T09:44:44.409Z</time>
      </trkpt>
      <trkpt lat="47.0303" lon="9.00153">
        <ele>851</ele>
        <time>2021-08-02T09:44:45.409Z</time>
      </trkpt>
      <trkpt lat="47.0303" lon="9.00153">
        <ele>852</ele>
        <time>2021-08-02T09:44:46.410Z</time>
      </trkpt>
      <trkpt lat="47.0303" lon="9.00153">
        <ele>853</ele>
        <time>2021-08-02T09:44:47.411Z</time>
      </trkpt>
      <trkpt lat="47.0303" lon="9.00152">
        <ele>853</ele>
        <time>2021-08-02T09:44:48.410Z</time>
      </trkpt>
      <trkpt lat="47.0303" lon="9.00152">
        <ele>852</ele>
        <time>2021-08-02T09:44:49.411Z</time>
      </trkpt>
      <trkpt lat="47.0303" lon="9.00151">
        <ele>852</ele>
        <time>2021-08-02T09:44:50.411Z</time>
      </trkpt>
      <trkpt lat="47.03029" lon="9.00151">
        <ele>852</ele>
        <time>2021-08-02T09:44:51.410Z</time>
      </trkpt>
      <trkpt lat="47.03029" lon="9.0015">
        <ele>851</ele>
        <time>2021-08-02T09:44:52.411Z</time>
      </trkpt>
      <trkpt lat="47.03029" lon="9.00148">
        <ele>852</ele>
        <time>2021-08-02T09:44:53.411Z</time>
      </trkpt>
      <trkpt lat="47.03029" lon="9.00147">
        <ele>852</ele>
        <time>2021-08-02T09:44:54.411Z</time>
      </trkpt>
      <trkpt lat="47.03029" lon="9.00145">
        <ele>852</ele>
        <time>2021-08-02T09:44:55.410Z</time>
      </trkpt>
      <trkpt lat="47.03028" lon="9.00143">
        <ele>852</ele>
        <time>2021-08-02T09:44:56.411Z</time>
      </trkpt>
      <trkpt lat="47.03027" lon="9.00142">
        <ele>852</ele>
        <time>2021-08-02T09:44:57.410Z</time>
      </trkpt>
      <trkpt lat="47.03025" lon="9.00141">
        <ele>852</ele>
        <time>2021-08-02T09:44:58.410Z</time>
      </trkpt>
      <trkpt lat="47.03024" lon="9.0014">
        <ele>852</ele>
        <time>2021-08-02T09:44:59.411Z</time>
      </trkpt>
      <trkpt lat="47.03024" lon="9.00139">
        <ele>852</ele>
        <time>2021-08-02T09:45:00.411Z</time>
      </trkpt>
      <trkpt lat="47.03023" lon="9.00138">
        <ele>853</ele>
        <time>2021-08-02T09:45:01.411Z</time>
      </trkpt>
      <trkpt lat="47.03023" lon="9.00136">
        <ele>853</ele>
        <time>2021-08-02T09:45:02.410Z</time>
      </trkpt>
      <trkpt lat="47.03022" lon="9.00135">
        <ele>853</ele>
        <time>2021-08-02T09:45:03.410Z</time>
      </trkpt>
      <trkpt lat="47.0302" lon="9.00134">
        <ele>853</ele>
        <time>2021-08-02T09:45:04.410Z</time>
      </trkpt>
      <trkpt lat="47.03018" lon="9.00133">
        <ele>853</ele>
        <time>2021-08-02T09:45:05.411Z</time>
      </trkpt>
      <trkpt lat="47.03018" lon="9.00132">
        <ele>853</ele>
        <time>2021-08-02T09:45:06.411Z</time>
      </trkpt>
      <trkpt lat="47.03017" lon="9.00131">
        <ele>854</ele>
        <time>2021-08-02T09:45:07.411Z</time>
      </trkpt>
      <trkpt lat="47.03016" lon="9.0013">
        <ele>854</ele>
        <time>2021-08-02T09:45:08.410Z</time>
      </trkpt>
      <trkpt lat="47.03015" lon="9.00129">
        <ele>854</ele>
        <time>2021-08-02T09:45:09.410Z</time>
      </trkpt>
      <trkpt lat="47.03013" lon="9.00129">
        <ele>854</ele>
        <time>2021-08-02T09:45:10.410Z</time>
      </trkpt>
      <trkpt lat="47.03012" lon="9.00128">
        <ele>854</ele>
        <time>2021-08-02T09:45:11.410Z</time>
      </trkpt>
      <trkpt lat="47.03012" lon="9.00128">
        <ele>854</ele>
        <time>2021-08-02T09:45:12.410Z</time>
      </trkpt>
      <trkpt lat="47.03011" lon="9.00128">
        <ele>855</ele>
        <time>2021-08-02T09:45:13.411Z</time>
      </trkpt>
      <trkpt lat="47.03011" lon="9.00128">
        <ele>855</ele>
        <time>2021-08-02T09:45:14.410Z</time>
      </trkpt>
      <trkpt lat="47.03013" lon="9.00128">
        <ele>855</ele>
        <time>2021-08-02T09:45:15.410Z</time>
      </trkpt>
      <trkpt lat="47.03015" lon="9.00127">
        <ele>856</ele>
        <time>2021-08-02T09:45:16.410Z</time>
      </trkpt>
      <trkpt lat="47.03018" lon="9.00127">
        <ele>856</ele>
        <time>2021-08-02T09:45:17.410Z</time>
      </trkpt>
      <trkpt lat="47.0302" lon="9.00127">
        <ele>856</ele>
        <time>2021-08-02T09:45:18.411Z</time>
      </trkpt>
      <trkpt lat="47.03021" lon="9.00127">
        <ele>857</ele>
        <time>2021-08-02T09:45:19.410Z</time>
      </trkpt>
      <trkpt lat="47.03021" lon="9.00126">
        <ele>857</ele>
        <time>2021-08-02T09:45:20.411Z</time>
      </trkpt>
      <trkpt lat="47.0302" lon="9.00126">
        <ele>857</ele>
        <time>2021-08-02T09:45:21.410Z</time>
      </trkpt>
      <trkpt lat="47.0302" lon="9.00126">
        <ele>857</ele>
        <time>2021-08-02T09:45:22.411Z</time>
      </trkpt>
      <trkpt lat="47.0302" lon="9.00126">
        <ele>858</ele>
        <time>2021-08-02T09:45:23.411Z</time>
      </trkpt>
      <trkpt lat="47.0302" lon="9.00126">
        <ele>858</ele>
        <time>2021-08-02T09:45:24.410Z</time>
      </trkpt>
      <trkpt lat="47.0302" lon="9.00127">
        <ele>857</ele>
        <time>2021-08-02T09:45:25.411Z</time>
      </trkpt>
      <trkpt lat="47.0302" lon="9.00127">
        <ele>857</ele>
        <time>2021-08-02T09:45:26.410Z</time>
      </trkpt>
      <trkpt lat="47.03021" lon="9.00126">
        <ele>857</ele>
        <time>2021-08-02T09:45:27.411Z</time>
      </trkpt>
      <trkpt lat="47.03022" lon="9.00126">
        <ele>858</ele>
        <time>2021-08-02T09:45:28.411Z</time>
      </trkpt>
      <trkpt lat="47.03023" lon="9.00126">
        <ele>858</ele>
        <time>2021-08-02T09:45:29.411Z</time>
      </trkpt>
      <trkpt lat="47.03023" lon="9.00126">
        <ele>858</ele>
        <time>2021-08-02T09:45:30.410Z</time>
      </trkpt>
      <trkpt lat="47.03023" lon="9.00126">
        <ele>858</ele>
        <time>2021-08-02T09:45:31.411Z</time>
      </trkpt>
      <trkpt lat="47.03022" lon="9.00127">
        <ele>858</ele>
        <time>2021-08-02T09:45:32.411Z</time>
      </trkpt>
      <trkpt lat="47.03022" lon="9.00127">
        <ele>858</ele>
        <time>2021-08-02T09:45:33.411Z</time>
      </trkpt>
      <trkpt lat="47.03021" lon="9.00127">
        <ele>858</ele>
        <time>2021-08-02T09:45:34.411Z</time>
      </trkpt>
      <trkpt lat="47.0302" lon="9.00127">
        <ele>858</ele>
        <time>2021-08-02T09:45:35.410Z</time>
      </trkpt>
      <trkpt lat="47.0302" lon="9.00128">
        <ele>859</ele>
        <time>2021-08-02T09:45:36.411Z</time>
      </trkpt>
      <trkpt lat="47.03019" lon="9.00128">
        <ele>859</ele>
        <time>2021-08-02T09:45:37.411Z</time>
      </trkpt>
      <trkpt lat="47.03019" lon="9.00128">
        <ele>859</ele>
        <time>2021-08-02T09:45:38.410Z</time>
      </trkpt>
      <trkpt lat="47.03018" lon="9.00128">
        <ele>859</ele>
        <time>2021-08-02T09:45:39.411Z</time>
      </trkpt>
      <trkpt lat="47.03017" lon="9.00128">
        <ele>859</ele>
        <time>2021-08-02T09:45:40.410Z</time>
      </trkpt>
      <trkpt lat="47.03016" lon="9.00128">
        <ele>859</ele>
        <time>2021-08-02T09:45:41.410Z</time>
      </trkpt>
      <trkpt lat="47.03015" lon="9.00128">
        <ele>859</ele>
        <time>2021-08-02T09:45:42.411Z</time>
      </trkpt>
      <trkpt lat="47.03015" lon="9.00128">
        <ele>859</ele>
        <time>2021-08-02T09:45:43.410Z</time>
      </trkpt>
      <trkpt lat="47.03014" lon="9.00127">
        <ele>859</ele>
        <time>2021-08-02T09:45:44.411Z</time>
      </trkpt>
      <trkpt lat="47.03013" lon="9.00127">
        <ele>859</ele>
        <time>2021-08-02T09:45:45.410Z</time>
      </trkpt>
      <trkpt lat="47.03013" lon="9.00127">
        <ele>859</ele>
        <time>2021-08-02T09:45:46.411Z</time>
      </trkpt>
      <trkpt lat="47.03012" lon="9.00127">
        <ele>858</ele>
        <time>2021-08-02T09:45:47.410Z</time>
      </trkpt>
      <trkpt lat="47.03012" lon="9.00127">
        <ele>858</ele>
        <time>2021-08-02T09:45:48.410Z</time>
      </trkpt>
      <trkpt lat="47.03013" lon="9.00126">
        <ele>858</ele>
        <time>2021-08-02T09:45:49.411Z</time>
      </trkpt>
      <trkpt lat="47.03013" lon="9.00125">
        <ele>858</ele>
        <time>2021-08-02T09:45:50.411Z</time>
      </trkpt>
      <trkpt lat="47.03014" lon="9.00125">
        <ele>858</ele>
        <time>2021-08-02T09:45:51.411Z</time>
      </trkpt>
      <trkpt lat="47.03015" lon="9.00125">
        <ele>858</ele>
        <time>2021-08-02T09:45:52.410Z</time>
      </trkpt>
      <trkpt lat="47.03014" lon="9.00126">
        <ele>856</ele>
        <time>2021-08-02T09:45:53.411Z</time>
      </trkpt>
      <trkpt lat="47.03014" lon="9.00126">
        <ele>856</ele>
        <time>2021-08-02T09:45:54.411Z</time>
      </trkpt>
      <trkpt lat="47.03015" lon="9.00126">
        <ele>856</ele>
        <time>2021-08-02T09:45:55.411Z</time>
      </trkpt>
      <trkpt lat="47.03015" lon="9.00125">
        <ele>856</ele>
        <time>2021-08-02T09:45:56.411Z</time>
      </trkpt>
      <trkpt lat="47.03014" lon="9.00126">
        <ele>856</ele>
        <time>2021-08-02T09:45:57.411Z</time>
      </trkpt>
      <trkpt lat="47.03014" lon="9.00126">
        <ele>856</ele>
        <time>2021-08-02T09:45:58.411Z</time>
      </trkpt>
      <trkpt lat="47.03016" lon="9.00127">
        <ele>856</ele>
        <time>2021-08-02T09:45:59.411Z</time>
      </trkpt>
      <trkpt lat="47.03016" lon="9.00128">
        <ele>856</ele>
        <time>2021-08-02T09:46:00.411Z</time>
      </trkpt>
      <trkpt lat="47.03017" lon="9.00129">
        <ele>856</ele>
        <time>2021-08-02T09:46:01.411Z</time>
      </trkpt>
      <trkpt lat="47.03017" lon="9.0013">
        <ele>856</ele>
        <time>2021-08-02T09:46:02.411Z</time>
      </trkpt>
      <trkpt lat="47.03015" lon="9.00132">
        <ele>856</ele>
        <time>2021-08-02T09:46:03.411Z</time>
      </trkpt>
      <trkpt lat="47.03015" lon="9.00133">
        <ele>856</ele>
        <time>2021-08-02T09:46:04.410Z</time>
      </trkpt>
      <trkpt lat="47.03013" lon="9.00133">
        <ele>856</ele>
        <time>2021-08-02T09:46:05.411Z</time>
      </trkpt>
      <trkpt lat="47.03012" lon="9.00132">
        <ele>856</ele>
        <time>2021-08-02T09:46:06.411Z</time>
      </trkpt>
      <trkpt lat="47.0301" lon="9.00132">
        <ele>856</ele>
        <time>2021-08-02T09:46:07.410Z</time>
      </trkpt>
      <trkpt lat="47.03009" lon="9.00134">
        <ele>856</ele>
        <time>2021-08-02T09:46:08.411Z</time>
      </trkpt>
      <trkpt lat="47.03007" lon="9.00134">
        <ele>855</ele>
        <time>2021-08-02T09:46:09.410Z</time>
      </trkpt>
      <trkpt lat="47.03006" lon="9.00135">
        <ele>855</ele>
        <time>2021-08-02T09:46:10.411Z</time>
      </trkpt>
      <trkpt lat="47.03004" lon="9.00135">
        <ele>855</ele>
        <time>2021-08-02T09:46:11.411Z</time>
      </trkpt>
      <trkpt lat="47.03003" lon="9.00136">
        <ele>855</ele>
        <time>2021-08-02T09:46:12.411Z</time>
      </trkpt>
      <trkpt lat="47.03002" lon="9.00136">
        <ele>854</ele>
        <time>2021-08-02T09:46:13.411Z</time>
      </trkpt>
      <trkpt lat="47.03" lon="9.00138">
        <ele>854</ele>
        <time>2021-08-02T09:46:14.411Z</time>
      </trkpt>
      <trkpt lat="47.02999" lon="9.00139">
        <ele>854</ele>
        <time>2021-08-02T09:46:15.411Z</time>
      </trkpt>
      <trkpt lat="47.02998" lon="9.0014">
        <ele>854</ele>
        <time>2021-08-02T09:46:16.411Z</time>
      </trkpt>
      <trkpt lat="47.02998" lon="9.0014">
        <ele>853</ele>
        <time>2021-08-02T09:46:17.410Z</time>
      </trkpt>
      <trkpt lat="47.02996" lon="9.0014">
        <ele>852</ele>
        <time>2021-08-02T09:46:18.411Z</time>
      </trkpt>
      <trkpt lat="47.02994" lon="9.0014">
        <ele>852</ele>
        <time>2021-08-02T09:46:19.411Z</time>
      </trkpt>
      <trkpt lat="47.02993" lon="9.0014">
        <ele>851</ele>
        <time>2021-08-02T09:46:20.411Z</time>
      </trkpt>
      <trkpt lat="47.02991" lon="9.0014">
        <ele>851</ele>
        <time>2021-08-02T09:46:21.411Z</time>
      </trkpt>
      <trkpt lat="47.02989" lon="9.0014">
        <ele>850</ele>
        <time>2021-08-02T09:46:22.411Z</time>
      </trkpt>
      <trkpt lat="47.02988" lon="9.0014">
        <ele>850</ele>
        <time>2021-08-02T09:46:23.411Z</time>
      </trkpt>
      <trkpt lat="47.02988" lon="9.0014">
        <ele>850</ele>
        <time>2021-08-02T09:46:24.410Z</time>
      </trkpt>
      <trkpt lat="47.02988" lon="9.0014">
        <ele>849</ele>
        <time>2021-08-02T09:46:25.411Z</time>
      </trkpt>
      <trkpt lat="47.02989" lon="9.0014">
        <ele>849</ele>
        <time>2021-08-02T09:46:26.410Z</time>
      </trkpt>
      <trkpt lat="47.0299" lon="9.00141">
        <ele>848</ele>
        <time>2021-08-02T09:46:27.411Z</time>
      </trkpt>
      <trkpt lat="47.02991" lon="9.00141">
        <ele>848</ele>
        <time>2021-08-02T09:46:28.410Z</time>
      </trkpt>
      <trkpt lat="47.02992" lon="9.00141">
        <ele>847</ele>
        <time>2021-08-02T09:46:29.411Z</time>
      </trkpt>
      <trkpt lat="47.02992" lon="9.00141">
        <ele>847</ele>
        <time>2021-08-02T09:46:30.410Z</time>
      </trkpt>
      <trkpt lat="47.02992" lon="9.00141">
        <ele>846</ele>
        <time>2021-08-02T09:46:31.411Z</time>
      </trkpt>
      <trkpt lat="47.02992" lon="9.00142">
        <ele>845</ele>
        <time>2021-08-02T09:46:32.410Z</time>
      </trkpt>
      <trkpt lat="47.02993" lon="9.00142">
        <ele>845</ele>
        <time>2021-08-02T09:46:33.410Z</time>
      </trkpt>
      <trkpt lat="47.02993" lon="9.00142">
        <ele>845</ele>
        <time>2021-08-02T09:46:34.411Z</time>
      </trkpt>
      <trkpt lat="47.02993" lon="9.00142">
        <ele>848</ele>
        <time>2021-08-02T09:46:35.412Z</time>
      </trkpt>
      <trkpt lat="47.02994" lon="9.00143">
        <ele>853</ele>
        <time>2021-08-02T09:46:36.412Z</time>
      </trkpt>
      <trkpt lat="47.02992" lon="9.00144">
        <ele>851</ele>
        <time>2021-08-02T09:46:37.412Z</time>
      </trkpt>
      <trkpt lat="47.02992" lon="9.00144">
        <ele>851</ele>
        <time>2021-08-02T09:46:38.411Z</time>
      </trkpt>
      <trkpt lat="47.02992" lon="9.00145">
        <ele>852</ele>
        <time>2021-08-02T09:46:39.412Z</time>
      </trkpt>
      <trkpt lat="47.02992" lon="9.00144">
        <ele>852</ele>
        <time>2021-08-02T09:46:40.412Z</time>
      </trkpt>
      <trkpt lat="47.02992" lon="9.00144">
        <ele>852</ele>
        <time>2021-08-02T09:46:41.412Z</time>
      </trkpt>
      <trkpt lat="47.02992" lon="9.00144">
        <ele>852</ele>
        <time>2021-08-02T09:46:42.411Z</time>
      </trkpt>
      <trkpt lat="47.02994" lon="9.00141">
        <ele>850</ele>
        <time>2021-08-02T09:46:43.412Z</time>
      </trkpt>
      <trkpt lat="47.02993" lon="9.00141">
        <ele>850</ele>
        <time>2021-08-02T09:46:44.412Z</time>
      </trkpt>
      <trkpt lat="47.02991" lon="9.0014">
        <ele>847</ele>
        <time>2021-08-02T09:46:45.413Z</time>
      </trkpt>
      <trkpt lat="47.02991" lon="9.0014">
        <ele>847</ele>
        <time>2021-08-02T09:46:46.413Z</time>
      </trkpt>
      <trkpt lat="47.02992" lon="9.0014">
        <ele>848</ele>
        <time>2021-08-02T09:46:47.415Z</time>
      </trkpt>
      <trkpt lat="47.02992" lon="9.0014">
        <ele>849</ele>
        <time>2021-08-02T09:46:48.415Z</time>
      </trkpt>
      <trkpt lat="47.02994" lon="9.0014">
        <ele>850</ele>
        <time>2021-08-02T09:46:49.414Z</time>
      </trkpt>
      <trkpt lat="47.02994" lon="9.0014">
        <ele>851</ele>
        <time>2021-08-02T09:46:50.415Z</time>
      </trkpt>
      <trkpt lat="47.02995" lon="9.0014">
        <ele>852</ele>
        <time>2021-08-02T09:46:51.415Z</time>
      </trkpt>
      <trkpt lat="47.02995" lon="9.0014">
        <ele>853</ele>
        <time>2021-08-02T09:46:52.414Z</time>
      </trkpt>
      <trkpt lat="47.02996" lon="9.00141">
        <ele>852</ele>
        <time>2021-08-02T09:46:53.414Z</time>
      </trkpt>
      <trkpt lat="47.02996" lon="9.0014">
        <ele>851</ele>
        <time>2021-08-02T09:46:54.415Z</time>
      </trkpt>
      <trkpt lat="47.02996" lon="9.00139">
        <ele>851</ele>
        <time>2021-08-02T09:46:55.416Z</time>
      </trkpt>
      <trkpt lat="47.03001" lon="9.0014">
        <ele>853</ele>
        <time>2021-08-02T09:46:56.416Z</time>
      </trkpt>
      <trkpt lat="47.03001" lon="9.0014">
        <ele>853</ele>
        <time>2021-08-02T09:46:57.416Z</time>
      </trkpt>
      <trkpt lat="47.03001" lon="9.0014">
        <ele>852</ele>
        <time>2021-08-02T09:46:58.415Z</time>
      </trkpt>
      <trkpt lat="47.02999" lon="9.00141">
        <ele>854</ele>
        <time>2021-08-02T09:46:59.417Z</time>
      </trkpt>
      <trkpt lat="47.03" lon="9.00142">
        <ele>855</ele>
        <time>2021-08-02T09:47:00.417Z</time>
      </trkpt>
      <trkpt lat="47.02999" lon="9.00142">
        <ele>855</ele>
        <time>2021-08-02T09:47:01.416Z</time>
      </trkpt>
      <trkpt lat="47.02999" lon="9.00144">
        <ele>855</ele>
        <time>2021-08-02T09:47:02.418Z</time>
      </trkpt>
      <trkpt lat="47.02999" lon="9.00144">
        <ele>855</ele>
        <time>2021-08-02T09:47:03.418Z</time>
      </trkpt>
      <trkpt lat="47.03" lon="9.00145">
        <ele>855</ele>
        <time>2021-08-02T09:47:04.417Z</time>
      </trkpt>
      <trkpt lat="47.03001" lon="9.00145">
        <ele>855</ele>
        <time>2021-08-02T09:47:05.418Z</time>
      </trkpt>
      <trkpt lat="47.03002" lon="9.00146">
        <ele>855</ele>
        <time>2021-08-02T09:47:06.418Z</time>
      </trkpt>
      <trkpt lat="47.03002" lon="9.00147">
        <ele>855</ele>
        <time>2021-08-02T09:47:07.418Z</time>
      </trkpt>
      <trkpt lat="47.03003" lon="9.00147">
        <ele>856</ele>
        <time>2021-08-02T09:47:08.418Z</time>
      </trkpt>
      <trkpt lat="47.03004" lon="9.00147">
        <ele>856</ele>
        <time>2021-08-02T09:47:09.417Z</time>
      </trkpt>
      <trkpt lat="47.03005" lon="9.00148">
        <ele>857</ele>
        <time>2021-08-02T09:47:10.417Z</time>
      </trkpt>
      <trkpt lat="47.03006" lon="9.00149">
        <ele>858</ele>
        <time>2021-08-02T09:47:11.418Z</time>
      </trkpt>
      <trkpt lat="47.03006" lon="9.00149">
        <ele>858</ele>
        <time>2021-08-02T09:47:12.418Z</time>
      </trkpt>
      <trkpt lat="47.03006" lon="9.00149">
        <ele>859</ele>
        <time>2021-08-02T09:47:13.418Z</time>
      </trkpt>
      <trkpt lat="47.03005" lon="9.00149">
        <ele>860</ele>
        <time>2021-08-02T09:47:14.417Z</time>
      </trkpt>
      <trkpt lat="47.03004" lon="9.00147">
        <ele>860</ele>
        <time>2021-08-02T09:47:15.418Z</time>
      </trkpt>
      <trkpt lat="47.03005" lon="9.00145">
        <ele>861</ele>
        <time>2021-08-02T09:47:16.417Z</time>
      </trkpt>
      <trkpt lat="47.03005" lon="9.00142">
        <ele>863</ele>
        <time>2021-08-02T09:47:17.418Z</time>
      </trkpt>
      <trkpt lat="47.03004" lon="9.00142">
        <ele>864</ele>
        <time>2021-08-02T09:47:18.418Z</time>
      </trkpt>
      <trkpt lat="47.03004" lon="9.00142">
        <ele>865</ele>
        <time>2021-08-02T09:47:19.417Z</time>
      </trkpt>
      <trkpt lat="47.03004" lon="9.00141">
        <ele>865</ele>
        <time>2021-08-02T09:47:20.417Z</time>
      </trkpt>
      <trkpt lat="47.03005" lon="9.00141">
        <ele>866</ele>
        <time>2021-08-02T09:47:21.418Z</time>
      </trkpt>
      <trkpt lat="47.03006" lon="9.00141">
        <ele>868</ele>
        <time>2021-08-02T09:47:22.417Z</time>
      </trkpt>
      <trkpt lat="47.03006" lon="9.00141">
        <ele>869</ele>
        <time>2021-08-02T09:47:23.417Z</time>
      </trkpt>
      <trkpt lat="47.03006" lon="9.00142">
        <ele>870</ele>
        <time>2021-08-02T09:47:24.419Z</time>
      </trkpt>
      <trkpt lat="47.03006" lon="9.00142">
        <ele>870</ele>
        <time>2021-08-02T09:47:25.418Z</time>
      </trkpt>
      <trkpt lat="47.03006" lon="9.00142">
        <ele>869</ele>
        <time>2021-08-02T09:47:26.418Z</time>
      </trkpt>
      <trkpt lat="47.03006" lon="9.00142">
        <ele>867</ele>
        <time>2021-08-02T09:47:27.419Z</time>
      </trkpt>
      <trkpt lat="47.03008" lon="9.00141">
        <ele>867</ele>
        <time>2021-08-02T09:47:28.419Z</time>
      </trkpt>
      <trkpt lat="47.03008" lon="9.00141">
        <ele>867</ele>
        <time>2021-08-02T09:47:29.420Z</time>
      </trkpt>
      <trkpt lat="47.03007" lon="9.00143">
        <ele>866</ele>
        <time>2021-08-02T09:47:33.420Z</time>
      </trkpt>
      <trkpt lat="47.03007" lon="9.00143">
        <ele>866</ele>
        <time>2021-08-02T09:47:34.419Z</time>
      </trkpt>
      <trkpt lat="47.03006" lon="9.00142">
        <ele>866</ele>
        <time>2021-08-02T09:47:35.419Z</time>
      </trkpt>
      <trkpt lat="47.03005" lon="9.00141">
        <ele>866</ele>
        <time>2021-08-02T09:47:36.419Z</time>
      </trkpt>
      <trkpt lat="47.03004" lon="9.00141">
        <ele>865</ele>
        <time>2021-08-02T09:47:37.420Z</time>
      </trkpt>
      <trkpt lat="47.03003" lon="9.00141">
        <ele>865</ele>
        <time>2021-08-02T09:47:38.420Z</time>
      </trkpt>
      <trkpt lat="47.03001" lon="9.00141">
        <ele>865</ele>
        <time>2021-08-02T09:47:39.419Z</time>
      </trkpt>
      <trkpt lat="47.03" lon="9.00141">
        <ele>864</ele>
        <time>2021-08-02T09:47:40.420Z</time>
      </trkpt>
      <trkpt lat="47.03" lon="9.0014">
        <ele>864</ele>
        <time>2021-08-02T09:47:41.420Z</time>
      </trkpt>
      <trkpt lat="47.03001" lon="9.00139">
        <ele>864</ele>
        <time>2021-08-02T09:47:42.420Z</time>
      </trkpt>
      <trkpt lat="47.03001" lon="9.00138">
        <ele>863</ele>
        <time>2021-08-02T09:47:43.419Z</time>
      </trkpt>
      <trkpt lat="47.03001" lon="9.00138">
        <ele>863</ele>
        <time>2021-08-02T09:47:44.419Z</time>
      </trkpt>
      <trkpt lat="47.03001" lon="9.00137">
        <ele>862</ele>
        <time>2021-08-02T09:47:45.419Z</time>
      </trkpt>
      <trkpt lat="47.02999" lon="9.00136">
        <ele>861</ele>
        <time>2021-08-02T09:47:46.420Z</time>
      </trkpt>
      <trkpt lat="47.03" lon="9.00137">
        <ele>860</ele>
        <time>2021-08-02T09:47:47.420Z</time>
      </trkpt>
      <trkpt lat="47.03" lon="9.00137">
        <ele>860</ele>
        <time>2021-08-02T09:47:48.420Z</time>
      </trkpt>
      <trkpt lat="47.02999" lon="9.00137">
        <ele>859</ele>
        <time>2021-08-02T09:47:49.420Z</time>
      </trkpt>
      <trkpt lat="47.03001" lon="9.00137">
        <ele>859</ele>
        <time>2021-08-02T09:47:50.419Z</time>
      </trkpt>
      <trkpt lat="47.03002" lon="9.00132">
        <ele>858</ele>
        <time>2021-08-02T09:47:51.420Z</time>
      </trkpt>
      <trkpt lat="47.03003" lon="9.0013">
        <ele>858</ele>
        <time>2021-08-02T09:47:52.420Z</time>
      </trkpt>
      <trkpt lat="47.03004" lon="9.00131">
        <ele>857</ele>
        <time>2021-08-02T09:47:53.420Z</time>
      </trkpt>
      <trkpt lat="47.03005" lon="9.00131">
        <ele>856</ele>
        <time>2021-08-02T09:47:54.420Z</time>
      </trkpt>
      <trkpt lat="47.03005" lon="9.00131">
        <ele>855</ele>
        <time>2021-08-02T09:47:55.420Z</time>
      </trkpt>
      <trkpt lat="47.03004" lon="9.00131">
        <ele>854</ele>
        <time>2021-08-02T09:47:56.420Z</time>
      </trkpt>
      <trkpt lat="47.03004" lon="9.0013">
        <ele>854</ele>
        <time>2021-08-02T09:47:57.420Z</time>
      </trkpt>
      <trkpt lat="47.03003" lon="9.00129">
        <ele>852</ele>
        <time>2021-08-02T09:47:58.420Z</time>
      </trkpt>
      <trkpt lat="47.03002" lon="9.00129">
        <ele>851</ele>
        <time>2021-08-02T09:47:59.420Z</time>
      </trkpt>
      <trkpt lat="47.03002" lon="9.00128">
        <ele>850</ele>
        <time>2021-08-02T09:48:00.420Z</time>
      </trkpt>
      <trkpt lat="47.03001" lon="9.00128">
        <ele>850</ele>
        <time>2021-08-02T09:48:01.419Z</time>
      </trkpt>
      <trkpt lat="47.03001" lon="9.00129">
        <ele>849</ele>
        <time>2021-08-02T09:48:02.419Z</time>
      </trkpt>
      <trkpt lat="47.03001" lon="9.00129">
        <ele>849</ele>
        <time>2021-08-02T09:48:03.420Z</time>
      </trkpt>
      <trkpt lat="47.03003" lon="9.0013">
        <ele>848</ele>
        <time>2021-08-02T09:48:04.419Z</time>
      </trkpt>
      <trkpt lat="47.03003" lon="9.0013">
        <ele>847</ele>
        <time>2021-08-02T09:48:05.419Z</time>
      </trkpt>
      <trkpt lat="47.03003" lon="9.0013">
        <ele>847</ele>
        <time>2021-08-02T09:48:06.419Z</time>
      </trkpt>
      <trkpt lat="47.03004" lon="9.0013">
        <ele>847</ele>
        <time>2021-08-02T09:48:07.419Z</time>
      </trkpt>
      <trkpt lat="47.03005" lon="9.00129">
        <ele>847</ele>
        <time>2021-08-02T09:48:08.419Z</time>
      </trkpt>
      <trkpt lat="47.03007" lon="9.00129">
        <ele>846</ele>
        <time>2021-08-02T09:48:09.419Z</time>
      </trkpt>
      <trkpt lat="47.03009" lon="9.00128">
        <ele>846</ele>
        <time>2021-08-02T09:48:10.419Z</time>
      </trkpt>
      <trkpt lat="47.0301" lon="9.00127">
        <ele>846</ele>
        <time>2021-08-02T09:48:11.419Z</time>
      </trkpt>
      <trkpt lat="47.03012" lon="9.00126">
        <ele>846</ele>
        <time>2021-08-02T09:48:12.420Z</time>
      </trkpt>
      <trkpt lat="47.03013" lon="9.00126">
        <ele>845</ele>
        <time>2021-08-02T09:48:13.419Z</time>
      </trkpt>
      <trkpt lat="47.03013" lon="9.00125">
        <ele>845</ele>
        <time>2021-08-02T09:48:14.419Z</time>
      </trkpt>
      <trkpt lat="47.03013" lon="9.00126">
        <ele>845</ele>
        <time>2021-08-02T09:48:15.420Z</time>
      </trkpt>
      <trkpt lat="47.03014" lon="9.00126">
        <ele>845</ele>
        <time>2021-08-02T09:48:16.419Z</time>
      </trkpt>
      <trkpt lat="47.03014" lon="9.00127">
        <ele>845</ele>
        <time>2021-08-02T09:48:17.419Z</time>
      </trkpt>
      <trkpt lat="47.03015" lon="9.00128">
        <ele>845</ele>
        <time>2021-08-02T09:48:18.419Z</time>
      </trkpt>
      <trkpt lat="47.03016" lon="9.00129">
        <ele>845</ele>
        <time>2021-08-02T09:48:19.420Z</time>
      </trkpt>
      <trkpt lat="47.03016" lon="9.00129">
        <ele>845</ele>
        <time>2021-08-02T09:48:20.419Z</time>
      </trkpt>
      <trkpt lat="47.03016" lon="9.00129">
        <ele>845</ele>
        <time>2021-08-02T09:48:21.420Z</time>
      </trkpt>
      <trkpt lat="47.03015" lon="9.00129">
        <ele>845</ele>
        <time>2021-08-02T09:48:22.420Z</time>
      </trkpt>
      <trkpt lat="47.03015" lon="9.00131">
        <ele>845</ele>
        <time>2021-08-02T09:48:23.420Z</time>
      </trkpt>
      <trkpt lat="47.03015" lon="9.00132">
        <ele>845</ele>
        <time>2021-08-02T09:48:24.419Z</time>
      </trkpt>
      <trkpt lat="47.03014" lon="9.00133">
        <ele>845</ele>
        <time>2021-08-02T09:48:25.420Z</time>
      </trkpt>
      <trkpt lat="47.03014" lon="9.00134">
        <ele>845</ele>
        <time>2021-08-02T09:48:26.419Z</time>
      </trkpt>
      <trkpt lat="47.03013" lon="9.00134">
        <ele>846</ele>
        <time>2021-08-02T09:48:27.419Z</time>
      </trkpt>
      <trkpt lat="47.03012" lon="9.00133">
        <ele>846</ele>
        <time>2021-08-02T09:48:28.419Z</time>
      </trkpt>
      <trkpt lat="47.0301" lon="9.00133">
        <ele>846</ele>
        <time>2021-08-02T09:48:29.419Z</time>
      </trkpt>
      <trkpt lat="47.03009" lon="9.00132">
        <ele>846</ele>
        <time>2021-08-02T09:48:30.420Z</time>
      </trkpt>
      <trkpt lat="47.03009" lon="9.00132">
        <ele>846</ele>
        <time>2021-08-02T09:48:31.419Z</time>
      </trkpt>
      <trkpt lat="47.03009" lon="9.00131">
        <ele>846</ele>
        <time>2021-08-02T09:48:32.419Z</time>
      </trkpt>
      <trkpt lat="47.0301" lon="9.00132">
        <ele>846</ele>
        <time>2021-08-02T09:48:33.420Z</time>
      </trkpt>
      <trkpt lat="47.0301" lon="9.00133">
        <ele>847</ele>
        <time>2021-08-02T09:48:34.419Z</time>
      </trkpt>
      <trkpt lat="47.03011" lon="9.00134">
        <ele>847</ele>
        <time>2021-08-02T09:48:35.420Z</time>
      </trkpt>
      <trkpt lat="47.0301" lon="9.00133">
        <ele>847</ele>
        <time>2021-08-02T09:48:36.420Z</time>
      </trkpt>
      <trkpt lat="47.03008" lon="9.00133">
        <ele>847</ele>
        <time>2021-08-02T09:48:37.419Z</time>
      </trkpt>
      <trkpt lat="47.03008" lon="9.00134">
        <ele>847</ele>
        <time>2021-08-02T09:48:38.419Z</time>
      </trkpt>
      <trkpt lat="47.03007" lon="9.00134">
        <ele>847</ele>
        <time>2021-08-02T09:48:39.419Z</time>
      </trkpt>
      <trkpt lat="47.03007" lon="9.00135">
        <ele>847</ele>
        <time>2021-08-02T09:48:40.419Z</time>
      </trkpt>
      <trkpt lat="47.03007" lon="9.00134">
        <ele>847</ele>
        <time>2021-08-02T09:48:41.420Z</time>
      </trkpt>
      <trkpt lat="47.03007" lon="9.00134">
        <ele>847</ele>
        <time>2021-08-02T09:48:42.420Z</time>
      </trkpt>
      <trkpt lat="47.03006" lon="9.00135">
        <ele>847</ele>
        <time>2021-08-02T09:48:43.421Z</time>
      </trkpt>
      <trkpt lat="47.03005" lon="9.00136">
        <ele>847</ele>
        <time>2021-08-02T09:48:44.420Z</time>
      </trkpt>
      <trkpt lat="47.03004" lon="9.00136">
        <ele>847</ele>
        <time>2021-08-02T09:48:45.420Z</time>
      </trkpt>
      <trkpt lat="47.03003" lon="9.00137">
        <ele>847</ele>
        <time>2021-08-02T09:48:46.421Z</time>
      </trkpt>
      <trkpt lat="47.03002" lon="9.00136">
        <ele>847</ele>
        <time>2021-08-02T09:48:47.420Z</time>
      </trkpt>
      <trkpt lat="47.03001" lon="9.00137">
        <ele>847</ele>
        <time>2021-08-02T09:48:48.421Z</time>
      </trkpt>
      <trkpt lat="47.03002" lon="9.00138">
        <ele>846</ele>
        <time>2021-08-02T09:48:49.422Z</time>
      </trkpt>
      <trkpt lat="47.03002" lon="9.00138">
        <ele>847</ele>
        <time>2021-08-02T09:48:50.421Z</time>
      </trkpt>
      <trkpt lat="47.03002" lon="9.00139">
        <ele>847</ele>
        <time>2021-08-02T09:48:51.421Z</time>
      </trkpt>
      <trkpt lat="47.03002" lon="9.00139">
        <ele>847</ele>
        <time>2021-08-02T09:48:52.421Z</time>
      </trkpt>
      <trkpt lat="47.03" lon="9.00138">
        <ele>849</ele>
        <time>2021-08-02T09:48:53.423Z</time>
      </trkpt>
      <trkpt lat="47.03" lon="9.00138">
        <ele>849</ele>
        <time>2021-08-02T09:48:54.422Z</time>
      </trkpt>
      <trkpt lat="47.03" lon="9.00138">
        <ele>849</ele>
        <time>2021-08-02T09:48:55.422Z</time>
      </trkpt>
      <trkpt lat="47.03" lon="9.00139">
        <ele>850</ele>
        <time>2021-08-02T09:48:56.424Z</time>
      </trkpt>
      <trkpt lat="47.03" lon="9.00139">
        <ele>850</ele>
        <time>2021-08-02T09:48:57.423Z</time>
      </trkpt>
      <trkpt lat="47.02999" lon="9.00139">
        <ele>850</ele>
        <time>2021-08-02T09:48:58.423Z</time>
      </trkpt>
      <trkpt lat="47.02999" lon="9.0014">
        <ele>851</ele>
        <time>2021-08-02T09:48:59.424Z</time>
      </trkpt>
      <trkpt lat="47.02999" lon="9.0014">
        <ele>851</ele>
        <time>2021-08-02T09:49:00.424Z</time>
      </trkpt>
      <trkpt lat="47.02999" lon="9.0014">
        <ele>852</ele>
        <time>2021-08-02T09:49:01.423Z</time>
      </trkpt>
      <trkpt lat="47.02997" lon="9.00139">
        <ele>854</ele>
        <time>2021-08-02T09:49:02.424Z</time>
      </trkpt>
      <trkpt lat="47.02996" lon="9.00139">
        <ele>854</ele>
        <time>2021-08-02T09:49:03.424Z</time>
      </trkpt>
      <trkpt lat="47.02994" lon="9.00139">
        <ele>854</ele>
        <time>2021-08-02T09:49:04.423Z</time>
      </trkpt>
      <trkpt lat="47.02995" lon="9.00139">
        <ele>855</ele>
        <time>2021-08-02T09:49:05.423Z</time>
      </trkpt>
      <trkpt lat="47.02996" lon="9.00139">
        <ele>855</ele>
        <time>2021-08-02T09:49:06.423Z</time>
      </trkpt>
      <trkpt lat="47.02996" lon="9.00139">
        <ele>855</ele>
        <time>2021-08-02T09:49:07.424Z</time>
      </trkpt>
      <trkpt lat="47.02997" lon="9.00139">
        <ele>855</ele>
        <time>2021-08-02T09:49:08.424Z</time>
      </trkpt>
      <trkpt lat="47.02998" lon="9.0014">
        <ele>855</ele>
        <time>2021-08-02T09:49:09.424Z</time>
      </trkpt>
      <trkpt lat="47.02998" lon="9.00141">
        <ele>855</ele>
        <time>2021-08-02T09:49:10.424Z</time>
      </trkpt>
      <trkpt lat="47.02999" lon="9.00142">
        <ele>855</ele>
        <time>2021-08-02T09:49:11.424Z</time>
      </trkpt>
      <trkpt lat="47.03" lon="9.00144">
        <ele>856</ele>
        <time>2021-08-02T09:49:12.424Z</time>
      </trkpt>
      <trkpt lat="47.03" lon="9.00145">
        <ele>856</ele>
        <time>2021-08-02T09:49:13.424Z</time>
      </trkpt>
      <trkpt lat="47.03" lon="9.00145">
        <ele>856</ele>
        <time>2021-08-02T09:49:14.423Z</time>
      </trkpt>
      <trkpt lat="47.03" lon="9.00145">
        <ele>857</ele>
        <time>2021-08-02T09:49:15.423Z</time>
      </trkpt>
      <trkpt lat="47.03" lon="9.00146">
        <ele>857</ele>
        <time>2021-08-02T09:49:16.423Z</time>
      </trkpt>
      <trkpt lat="47.03001" lon="9.00146">
        <ele>858</ele>
        <time>2021-08-02T09:49:17.423Z</time>
      </trkpt>
      <trkpt lat="47.03001" lon="9.00146">
        <ele>858</ele>
        <time>2021-08-02T09:49:18.424Z</time>
      </trkpt>
      <trkpt lat="47.03002" lon="9.00147">
        <ele>859</ele>
        <time>2021-08-02T09:49:19.424Z</time>
      </trkpt>
      <trkpt lat="47.03003" lon="9.00147">
        <ele>859</ele>
        <time>2021-08-02T09:49:20.424Z</time>
      </trkpt>
      <trkpt lat="47.03005" lon="9.00147">
        <ele>859</ele>
        <time>2021-08-02T09:49:21.424Z</time>
      </trkpt>
      <trkpt lat="47.03006" lon="9.00147">
        <ele>860</ele>
        <time>2021-08-02T09:49:22.424Z</time>
      </trkpt>
      <trkpt lat="47.03006" lon="9.00147">
        <ele>860</ele>
        <time>2021-08-02T09:49:23.423Z</time>
      </trkpt>
      <trkpt lat="47.03006" lon="9.00147">
        <ele>861</ele>
        <time>2021-08-02T09:49:24.424Z</time>
      </trkpt>
      <trkpt lat="47.03005" lon="9.00146">
        <ele>861</ele>
        <time>2021-08-02T09:49:25.424Z</time>
      </trkpt>
      <trkpt lat="47.03004" lon="9.00145">
        <ele>861</ele>
        <time>2021-08-02T09:49:26.423Z</time>
      </trkpt>
      <trkpt lat="47.03004" lon="9.00146">
        <ele>861</ele>
        <time>2021-08-02T09:49:27.424Z</time>
      </trkpt>
      <trkpt lat="47.03003" lon="9.00146">
        <ele>861</ele>
        <time>2021-08-02T09:49:28.424Z</time>
      </trkpt>
      <trkpt lat="47.03003" lon="9.00146">
        <ele>861</ele>
        <time>2021-08-02T09:49:29.424Z</time>
      </trkpt>
      <trkpt lat="47.03001" lon="9.00146">
        <ele>860</ele>
        <time>2021-08-02T09:49:30.423Z</time>
      </trkpt>
      <trkpt lat="47.03001" lon="9.00145">
        <ele>860</ele>
        <time>2021-08-02T09:49:31.424Z</time>
      </trkpt>
      <trkpt lat="47.03" lon="9.00145">
        <ele>860</ele>
        <time>2021-08-02T09:49:32.424Z</time>
      </trkpt>
      <trkpt lat="47.02999" lon="9.00143">
        <ele>859</ele>
        <time>2021-08-02T09:49:33.426Z</time>
      </trkpt>
      <trkpt lat="47.02999" lon="9.00144">
        <ele>859</ele>
        <time>2021-08-02T09:49:34.426Z</time>
      </trkpt>
      <trkpt lat="47.02998" lon="9.00143">
        <ele>859</ele>
        <time>2021-08-02T09:49:35.425Z</time>
      </trkpt>
      <trkpt lat="47.02998" lon="9.00143">
        <ele>859</ele>
        <time>2021-08-02T09:49:36.426Z</time>
      </trkpt>
      <trkpt lat="47.02997" lon="9.00143">
        <ele>859</ele>
        <time>2021-08-02T09:49:37.426Z</time>
      </trkpt>
      <trkpt lat="47.02998" lon="9.00143">
        <ele>859</ele>
        <time>2021-08-02T09:49:38.426Z</time>
      </trkpt>
      <trkpt lat="47.02998" lon="9.00141">
        <ele>859</ele>
        <time>2021-08-02T09:49:39.426Z</time>
      </trkpt>
      <trkpt lat="47.02997" lon="9.00139">
        <ele>858</ele>
        <time>2021-08-02T09:49:40.426Z</time>
      </trkpt>
      <trkpt lat="47.02997" lon="9.00137">
        <ele>858</ele>
        <time>2021-08-02T09:49:41.426Z</time>
      </trkpt>
      <trkpt lat="47.02997" lon="9.00136">
        <ele>858</ele>
        <time>2021-08-02T09:49:42.426Z</time>
      </trkpt>
      <trkpt lat="47.02996" lon="9.00134">
        <ele>858</ele>
        <time>2021-08-02T09:49:43.425Z</time>
      </trkpt>
      <trkpt lat="47.02997" lon="9.00132">
        <ele>858</ele>
        <time>2021-08-02T09:49:44.426Z</time>
      </trkpt>
      <trkpt lat="47.02998" lon="9.00124">
        <ele>858</ele>
        <time>2021-08-02T09:49:54.426Z</time>
      </trkpt>
      <trkpt lat="47.03006" lon="9.00118">
        <ele>858</ele>
        <time>2021-08-02T09:49:55.426Z</time>
      </trkpt>
      <trkpt lat="47.03017" lon="9.00116">
        <ele>858</ele>
        <time>2021-08-02T09:49:56.426Z</time>
      </trkpt>
      <trkpt lat="47.03013" lon="9.00116">
        <ele>858</ele>
        <time>2021-08-02T09:49:57.426Z</time>
      </trkpt>
      <trkpt lat="47.03016" lon="9.00114">
        <ele>858</ele>
        <time>2021-08-02T09:49:58.426Z</time>
      </trkpt>
      <trkpt lat="47.03018" lon="9.00114">
        <ele>858</ele>
        <time>2021-08-02T09:49:59.425Z</time>
      </trkpt>
      <trkpt lat="47.03021" lon="9.00114">
        <ele>858</ele>
        <time>2021-08-02T09:50:00.426Z</time>
      </trkpt>
      <trkpt lat="47.03021" lon="9.00112">
        <ele>857</ele>
        <time>2021-08-02T09:50:01.426Z</time>
      </trkpt>
      <trkpt lat="47.03025" lon="9.00113">
        <ele>857</ele>
        <time>2021-08-02T09:50:02.426Z</time>
      </trkpt>
      <trkpt lat="47.03028" lon="9.00113">
        <ele>857</ele>
        <time>2021-08-02T09:50:03.425Z</time>
      </trkpt>
      <trkpt lat="47.0303" lon="9.00113">
        <ele>856</ele>
        <time>2021-08-02T09:50:04.426Z</time>
      </trkpt>
      <trkpt lat="47.03029" lon="9.00112">
        <ele>856</ele>
        <time>2021-08-02T09:50:05.425Z</time>
      </trkpt>
      <trkpt lat="47.03027" lon="9.00114">
        <ele>855</ele>
        <time>2021-08-02T09:50:06.426Z</time>
      </trkpt>
      <trkpt lat="47.03023" lon="9.00116">
        <ele>855</ele>
        <time>2021-08-02T09:50:07.425Z</time>
      </trkpt>
      <trkpt lat="47.03019" lon="9.00118">
        <ele>855</ele>
        <time>2021-08-02T09:50:08.426Z</time>
      </trkpt>
      <trkpt lat="47.03013" lon="9.0012">
        <ele>854</ele>
        <time>2021-08-02T09:50:09.425Z</time>
      </trkpt>
      <trkpt lat="47.0301" lon="9.00121">
        <ele>854</ele>
        <time>2021-08-02T09:50:10.426Z</time>
      </trkpt>
      <trkpt lat="47.03009" lon="9.00122">
        <ele>854</ele>
        <time>2021-08-02T09:50:11.425Z</time>
      </trkpt>
      <trkpt lat="47.03007" lon="9.00124">
        <ele>853</ele>
        <time>2021-08-02T09:50:12.425Z</time>
      </trkpt>
      <trkpt lat="47.03006" lon="9.00124">
        <ele>853</ele>
        <time>2021-08-02T09:50:13.425Z</time>
      </trkpt>
      <trkpt lat="47.03006" lon="9.00124">
        <ele>852</ele>
        <time>2021-08-02T09:50:14.425Z</time>
      </trkpt>
      <trkpt lat="47.03007" lon="9.00124">
        <ele>852</ele>
        <time>2021-08-02T09:50:15.426Z</time>
      </trkpt>
      <trkpt lat="47.03007" lon="9.00124">
        <ele>852</ele>
        <time>2021-08-02T09:50:16.426Z</time>
      </trkpt>
      <trkpt lat="47.03008" lon="9.00124">
        <ele>851</ele>
        <time>2021-08-02T09:50:17.426Z</time>
      </trkpt>
      <trkpt lat="47.03009" lon="9.00124">
        <ele>851</ele>
        <time>2021-08-02T09:50:18.425Z</time>
      </trkpt>
      <trkpt lat="47.03009" lon="9.00124">
        <ele>851</ele>
        <time>2021-08-02T09:50:19.426Z</time>
      </trkpt>
      <trkpt lat="47.03009" lon="9.00125">
        <ele>850</ele>
        <time>2021-08-02T09:50:20.426Z</time>
      </trkpt>
      <trkpt lat="47.03009" lon="9.00125">
        <ele>850</ele>
        <time>2021-08-02T09:50:21.426Z</time>
      </trkpt>
      <trkpt lat="47.03008" lon="9.00126">
        <ele>850</ele>
        <time>2021-08-02T09:50:22.425Z</time>
      </trkpt>
      <trkpt lat="47.03006" lon="9.00128">
        <ele>850</ele>
        <time>2021-08-02T09:50:23.426Z</time>
      </trkpt>
      <trkpt lat="47.03003" lon="9.00129">
        <ele>849</ele>
        <time>2021-08-02T09:50:24.426Z</time>
      </trkpt>
      <trkpt lat="47.03" lon="9.0013">
        <ele>849</ele>
        <time>2021-08-02T09:50:25.426Z</time>
      </trkpt>
      <trkpt lat="47.02997" lon="9.0013">
        <ele>849</ele>
        <time>2021-08-02T09:50:26.426Z</time>
      </trkpt>
      <trkpt lat="47.02996" lon="9.00131">
        <ele>849</ele>
        <time>2021-08-02T09:50:27.425Z</time>
      </trkpt>
      <trkpt lat="47.02995" lon="9.00131">
        <ele>849</ele>
        <time>2021-08-02T09:50:28.426Z</time>
      </trkpt>
      <trkpt lat="47.02996" lon="9.0013">
        <ele>849</ele>
        <time>2021-08-02T09:50:29.425Z</time>
      </trkpt>
      <trkpt lat="47.02995" lon="9.0013">
        <ele>849</ele>
        <time>2021-08-02T09:50:30.426Z</time>
      </trkpt>
      <trkpt lat="47.02996" lon="9.00129">
        <ele>849</ele>
        <time>2021-08-02T09:50:31.425Z</time>
      </trkpt>
      <trkpt lat="47.02997" lon="9.00129">
        <ele>849</ele>
        <time>2021-08-02T09:50:32.426Z</time>
      </trkpt>
      <trkpt lat="47.02997" lon="9.00129">
        <ele>850</ele>
        <time>2021-08-02T09:50:33.426Z</time>
      </trkpt>
      <trkpt lat="47.02998" lon="9.00128">
        <ele>850</ele>
        <time>2021-08-02T09:50:34.426Z</time>
      </trkpt>
      <trkpt lat="47.02998" lon="9.00128">
        <ele>851</ele>
        <time>2021-08-02T09:50:35.426Z</time>
      </trkpt>
      <trkpt lat="47.02999" lon="9.00129">
        <ele>853</ele>
        <time>2021-08-02T09:50:36.425Z</time>
      </trkpt>
      <trkpt lat="47.02998" lon="9.00129">
        <ele>854</ele>
        <time>2021-08-02T09:50:37.425Z</time>
      </trkpt>
      <trkpt lat="47.02998" lon="9.00129">
        <ele>855</ele>
        <time>2021-08-02T09:50:38.426Z</time>
      </trkpt>
      <trkpt lat="47.02998" lon="9.00129">
        <ele>856</ele>
        <time>2021-08-02T09:50:39.426Z</time>
      </trkpt>
      <trkpt lat="47.02997" lon="9.00128">
        <ele>856</ele>
        <time>2021-08-02T09:50:40.426Z</time>
      </trkpt>
      <trkpt lat="47.02996" lon="9.00128">
        <ele>857</ele>
        <time>2021-08-02T09:50:41.426Z</time>
      </trkpt>
      <trkpt lat="47.02995" lon="9.00128">
        <ele>857</ele>
        <time>2021-08-02T09:50:42.425Z</time>
      </trkpt>
      <trkpt lat="47.02994" lon="9.00128">
        <ele>857</ele>
        <time>2021-08-02T09:50:43.426Z</time>
      </trkpt>
      <trkpt lat="47.02994" lon="9.00129">
        <ele>857</ele>
        <time>2021-08-02T09:50:44.425Z</time>
      </trkpt>
      <trkpt lat="47.02993" lon="9.00129">
        <ele>857</ele>
        <time>2021-08-02T09:50:45.426Z</time>
      </trkpt>
      <trkpt lat="47.02993" lon="9.00129">
        <ele>858</ele>
        <time>2021-08-02T09:50:46.425Z</time>
      </trkpt>
      <trkpt lat="47.02992" lon="9.0013">
        <ele>858</ele>
        <time>2021-08-02T09:50:47.426Z</time>
      </trkpt>
      <trkpt lat="47.02991" lon="9.00132">
        <ele>859</ele>
        <time>2021-08-02T09:50:48.426Z</time>
      </trkpt>
      <trkpt lat="47.02992" lon="9.00134">
        <ele>859</ele>
        <time>2021-08-02T09:50:49.426Z</time>
      </trkpt>
      <trkpt lat="47.02993" lon="9.00135">
        <ele>859</ele>
        <time>2021-08-02T09:50:50.425Z</time>
      </trkpt>
      <trkpt lat="47.02993" lon="9.00137">
        <ele>859</ele>
        <time>2021-08-02T09:50:51.426Z</time>
      </trkpt>
      <trkpt lat="47.02991" lon="9.00139">
        <ele>859</ele>
        <time>2021-08-02T09:50:52.426Z</time>
      </trkpt>
      <trkpt lat="47.02991" lon="9.0014">
        <ele>859</ele>
        <time>2021-08-02T09:50:53.426Z</time>
      </trkpt>
      <trkpt lat="47.02992" lon="9.0014">
        <ele>859</ele>
        <time>2021-08-02T09:50:54.425Z</time>
      </trkpt>
      <trkpt lat="47.02996" lon="9.00141">
        <ele>858</ele>
        <time>2021-08-02T09:50:55.426Z</time>
      </trkpt>
      <trkpt lat="47.03" lon="9.00142">
        <ele>858</ele>
        <time>2021-08-02T09:50:56.426Z</time>
      </trkpt>
      <trkpt lat="47.03002" lon="9.00142">
        <ele>857</ele>
        <time>2021-08-02T09:50:57.425Z</time>
      </trkpt>
      <trkpt lat="47.03002" lon="9.00143">
        <ele>857</ele>
        <time>2021-08-02T09:50:58.426Z</time>
      </trkpt>
      <trkpt lat="47.03001" lon="9.00144">
        <ele>857</ele>
        <time>2021-08-02T09:50:59.426Z</time>
      </trkpt>
      <trkpt lat="47.03001" lon="9.00145">
        <ele>857</ele>
        <time>2021-08-02T09:51:00.425Z</time>
      </trkpt>
      <trkpt lat="47.03" lon="9.00146">
        <ele>857</ele>
        <time>2021-08-02T09:51:01.426Z</time>
      </trkpt>
      <trkpt lat="47.03" lon="9.00146">
        <ele>857</ele>
        <time>2021-08-02T09:51:02.425Z</time>
      </trkpt>
      <trkpt lat="47.03" lon="9.00145">
        <ele>857</ele>
        <time>2021-08-02T09:51:03.425Z</time>
      </trkpt>
      <trkpt lat="47.03001" lon="9.00143">
        <ele>857</ele>
        <time>2021-08-02T09:51:04.426Z</time>
      </trkpt>
      <trkpt lat="47.03002" lon="9.00144">
        <ele>857</ele>
        <time>2021-08-02T09:51:05.426Z</time>
      </trkpt>
      <trkpt lat="47.03002" lon="9.00143">
        <ele>857</ele>
        <time>2021-08-02T09:51:06.426Z</time>
      </trkpt>
      <trkpt lat="47.03002" lon="9.00143">
        <ele>856</ele>
        <time>2021-08-02T09:51:07.426Z</time>
      </trkpt>
      <trkpt lat="47.03002" lon="9.00142">
        <ele>856</ele>
        <time>2021-08-02T09:51:08.426Z</time>
      </trkpt>
      <trkpt lat="47.03001" lon="9.00142">
        <ele>856</ele>
        <time>2021-08-02T09:51:09.425Z</time>
      </trkpt>
      <trkpt lat="47.03001" lon="9.00141">
        <ele>855</ele>
        <time>2021-08-02T09:51:10.426Z</time>
      </trkpt>
      <trkpt lat="47.03" lon="9.00143">
        <ele>855</ele>
        <time>2021-08-02T09:51:11.425Z</time>
      </trkpt>
      <trkpt lat="47.02999" lon="9.00144">
        <ele>854</ele>
        <time>2021-08-02T09:51:12.426Z</time>
      </trkpt>
      <trkpt lat="47.03" lon="9.00143">
        <ele>854</ele>
        <time>2021-08-02T09:51:13.426Z</time>
      </trkpt>
      <trkpt lat="47.03013" lon="9.00129">
        <ele>847</ele>
        <time>2021-08-02T09:51:14.426Z</time>
      </trkpt>
      <trkpt lat="47.03012" lon="9.00127">
        <ele>847</ele>
        <time>2021-08-02T09:51:15.426Z</time>
      </trkpt>
      <trkpt lat="47.03011" lon="9.00125">
        <ele>847</ele>
        <time>2021-08-02T09:51:35.533Z</time>
      </trkpt>
      <trkpt lat="47.0301" lon="9.00124">
        <ele>847</ele>
        <time>2021-08-02T09:51:36.534Z</time>
      </trkpt>
      <trkpt lat="47.03009" lon="9.00123">
        <ele>847</ele>
        <time>2021-08-02T09:51:37.534Z</time>
      </trkpt>
      <trkpt lat="47.03009" lon="9.00121">
        <ele>848</ele>
        <time>2021-08-02T09:51:38.534Z</time>
      </trkpt>
      <trkpt lat="47.03008" lon="9.0012">
        <ele>848</ele>
        <time>2021-08-02T09:51:39.534Z</time>
      </trkpt>
      <trkpt lat="47.03008" lon="9.0012">
        <ele>848</ele>
        <time>2021-08-02T09:51:40.534Z</time>
      </trkpt>
      <trkpt lat="47.03007" lon="9.00119">
        <ele>849</ele>
        <time>2021-08-02T09:51:41.534Z</time>
      </trkpt>
      <trkpt lat="47.03007" lon="9.00118">
        <ele>849</ele>
        <time>2021-08-02T09:51:42.534Z</time>
      </trkpt>
      <trkpt lat="47.03006" lon="9.00117">
        <ele>850</ele>
        <time>2021-08-02T09:51:43.533Z</time>
      </trkpt>
      <trkpt lat="47.03005" lon="9.00117">
        <ele>850</ele>
        <time>2021-08-02T09:51:44.533Z</time>
      </trkpt>
      <trkpt lat="47.03004" lon="9.00115">
        <ele>851</ele>
        <time>2021-08-02T09:51:45.534Z</time>
      </trkpt>
      <trkpt lat="47.03003" lon="9.00114">
        <ele>851</ele>
        <time>2021-08-02T09:51:46.534Z</time>
      </trkpt>
      <trkpt lat="47.03003" lon="9.00113">
        <ele>850</ele>
        <time>2021-08-02T09:51:47.533Z</time>
      </trkpt>
      <trkpt lat="47.03002" lon="9.00112">
        <ele>850</ele>
        <time>2021-08-02T09:51:48.534Z</time>
      </trkpt>
      <trkpt lat="47.03001" lon="9.0011">
        <ele>850</ele>
        <time>2021-08-02T09:51:49.534Z</time>
      </trkpt>
      <trkpt lat="47.03" lon="9.00109">
        <ele>850</ele>
        <time>2021-08-02T09:51:50.534Z</time>
      </trkpt>
      <trkpt lat="47.02999" lon="9.00107">
        <ele>850</ele>
        <time>2021-08-02T09:51:51.534Z</time>
      </trkpt>
      <trkpt lat="47.02998" lon="9.00105">
        <ele>850</ele>
        <time>2021-08-02T09:51:52.533Z</time>
      </trkpt>
      <trkpt lat="47.02997" lon="9.00104">
        <ele>850</ele>
        <time>2021-08-02T09:51:53.534Z</time>
      </trkpt>
      <trkpt lat="47.02995" lon="9.00101">
        <ele>850</ele>
        <time>2021-08-02T09:51:54.534Z</time>
      </trkpt>
      <trkpt lat="47.02995" lon="9.00101">
        <ele>850</ele>
        <time>2021-08-02T09:51:55.534Z</time>
      </trkpt>
      <trkpt lat="47.02994" lon="9.001">
        <ele>850</ele>
        <time>2021-08-02T09:51:56.533Z</time>
      </trkpt>
      <trkpt lat="47.02994" lon="9.00099">
        <ele>850</ele>
        <time>2021-08-02T09:51:57.533Z</time>
      </trkpt>
      <trkpt lat="47.02993" lon="9.00097">
        <ele>850</ele>
        <time>2021-08-02T09:51:58.533Z</time>
      </trkpt>
      <trkpt lat="47.02993" lon="9.00096">
        <ele>850</ele>
        <time>2021-08-02T09:51:59.533Z</time>
      </trkpt>
      <trkpt lat="47.02992" lon="9.00095">
        <ele>850</ele>
        <time>2021-08-02T09:52:00.533Z</time>
      </trkpt>
      <trkpt lat="47.02991" lon="9.00094">
        <ele>851</ele>
        <time>2021-08-02T09:52:01.533Z</time>
      </trkpt>
      <trkpt lat="47.02991" lon="9.00093">
        <ele>851</ele>
        <time>2021-08-02T09:52:02.533Z</time>
      </trkpt>
      <trkpt lat="47.02991" lon="9.00092">
        <ele>851</ele>
        <time>2021-08-02T09:52:03.534Z</time>
      </trkpt>
      <trkpt lat="47.02991" lon="9.0009">
        <ele>852</ele>
        <time>2021-08-02T09:52:04.533Z</time>
      </trkpt>
      <trkpt lat="47.02991" lon="9.0009">
        <ele>853</ele>
        <time>2021-08-02T09:52:05.533Z</time>
      </trkpt>
      <trkpt lat="47.02991" lon="9.00089">
        <ele>853</ele>
        <time>2021-08-02T09:52:06.533Z</time>
      </trkpt>
      <trkpt lat="47.0299" lon="9.00089">
        <ele>853</ele>
        <time>2021-08-02T09:52:07.533Z</time>
      </trkpt>
      <trkpt lat="47.0299" lon="9.00088">
        <ele>853</ele>
        <time>2021-08-02T09:52:08.534Z</time>
      </trkpt>
      <trkpt lat="47.02989" lon="9.00087">
        <ele>853</ele>
        <time>2021-08-02T09:52:09.533Z</time>
      </trkpt>
      <trkpt lat="47.02989" lon="9.00087">
        <ele>853</ele>
        <time>2021-08-02T09:52:10.533Z</time>
      </trkpt>
      <trkpt lat="47.02985" lon="9.0008">
        <ele>853</ele>
        <time>2021-08-02T09:52:11.533Z</time>
      </trkpt>
      <trkpt lat="47.02983" lon="9.00078">
        <ele>854</ele>
        <time>2021-08-02T09:52:12.533Z</time>
      </trkpt>
      <trkpt lat="47.02981" lon="9.00077">
        <ele>854</ele>
        <time>2021-08-02T09:52:13.533Z</time>
      </trkpt>
      <trkpt lat="47.02979" lon="9.00078">
        <ele>854</ele>
        <time>2021-08-02T09:52:14.534Z</time>
      </trkpt>
      <trkpt lat="47.02978" lon="9.00078">
        <ele>854</ele>
        <time>2021-08-02T09:52:15.534Z</time>
      </trkpt>
      <trkpt lat="47.02977" lon="9.00078">
        <ele>854</ele>
        <time>2021-08-02T09:52:16.534Z</time>
      </trkpt>
      <trkpt lat="47.02974" lon="9.00076">
        <ele>853</ele>
        <time>2021-08-02T09:52:17.535Z</time>
      </trkpt>
      <trkpt lat="47.02974" lon="9.00075">
        <ele>853</ele>
        <time>2021-08-02T09:52:18.536Z</time>
      </trkpt>
      <trkpt lat="47.02973" lon="9.00074">
        <ele>853</ele>
        <time>2021-08-02T09:52:19.536Z</time>
      </trkpt>
      <trkpt lat="47.02972" lon="9.00074">
        <ele>852</ele>
        <time>2021-08-02T09:52:20.536Z</time>
      </trkpt>
      <trkpt lat="47.02972" lon="9.00073">
        <ele>852</ele>
        <time>2021-08-02T09:52:21.536Z</time>
      </trkpt>
      <trkpt lat="47.02971" lon="9.00072">
        <ele>852</ele>
        <time>2021-08-02T09:52:22.535Z</time>
      </trkpt>
      <trkpt lat="47.0297" lon="9.00071">
        <ele>851</ele>
        <time>2021-08-02T09:52:23.536Z</time>
      </trkpt>
      <trkpt lat="47.0297" lon="9.00071">
        <ele>851</ele>
        <time>2021-08-02T09:52:24.536Z</time>
      </trkpt>
      <trkpt lat="47.02969" lon="9.0007">
        <ele>850</ele>
        <time>2021-08-02T09:52:25.535Z</time>
      </trkpt>
      <trkpt lat="47.02969" lon="9.00069">
        <ele>850</ele>
        <time>2021-08-02T09:52:26.536Z</time>
      </trkpt>
      <trkpt lat="47.02969" lon="9.00068">
        <ele>850</ele>
        <time>2021-08-02T09:52:27.536Z</time>
      </trkpt>
      <trkpt lat="47.02969" lon="9.00067">
        <ele>850</ele>
        <time>2021-08-02T09:52:28.536Z</time>
      </trkpt>
      <trkpt lat="47.02968" lon="9.00066">
        <ele>849</ele>
        <time>2021-08-02T09:52:29.536Z</time>
      </trkpt>
      <trkpt lat="47.02967" lon="9.00065">
        <ele>849</ele>
        <time>2021-08-02T09:52:30.535Z</time>
      </trkpt>
      <trkpt lat="47.02967" lon="9.00063">
        <ele>849</ele>
        <time>2021-08-02T09:52:31.535Z</time>
      </trkpt>
      <trkpt lat="47.02966" lon="9.00063">
        <ele>848</ele>
        <time>2021-08-02T09:52:32.536Z</time>
      </trkpt>
      <trkpt lat="47.02965" lon="9.00061">
        <ele>848</ele>
        <time>2021-08-02T09:52:33.535Z</time>
      </trkpt>
      <trkpt lat="47.02964" lon="9.00059">
        <ele>848</ele>
        <time>2021-08-02T09:52:34.535Z</time>
      </trkpt>
      <trkpt lat="47.02963" lon="9.00057">
        <ele>848</ele>
        <time>2021-08-02T09:52:35.536Z</time>
      </trkpt>
      <trkpt lat="47.02962" lon="9.00056">
        <ele>848</ele>
        <time>2021-08-02T09:52:36.536Z</time>
      </trkpt>
      <trkpt lat="47.0296" lon="9.00056">
        <ele>848</ele>
        <time>2021-08-02T09:52:37.535Z</time>
      </trkpt>
      <trkpt lat="47.02959" lon="9.00056">
        <ele>848</ele>
        <time>2021-08-02T09:52:38.536Z</time>
      </trkpt>
      <trkpt lat="47.02958" lon="9.00056">
        <ele>848</ele>
        <time>2021-08-02T09:52:39.536Z</time>
      </trkpt>
      <trkpt lat="47.02958" lon="9.00055">
        <ele>848</ele>
        <time>2021-08-02T09:52:40.536Z</time>
      </trkpt>
      <trkpt lat="47.02958" lon="9.00055">
        <ele>848</ele>
        <time>2021-08-02T09:52:41.536Z</time>
      </trkpt>
      <trkpt lat="47.02953" lon="9.00051">
        <ele>848</ele>
        <time>2021-08-02T09:52:42.537Z</time>
      </trkpt>
      <trkpt lat="47.02953" lon="9.00051">
        <ele>848</ele>
        <time>2021-08-02T09:52:43.536Z</time>
      </trkpt>
      <trkpt lat="47.02953" lon="9.00051">
        <ele>848</ele>
        <time>2021-08-02T09:52:44.536Z</time>
      </trkpt>
      <trkpt lat="47.02953" lon="9.0005">
        <ele>848</ele>
        <time>2021-08-02T09:52:45.536Z</time>
      </trkpt>
      <trkpt lat="47.02953" lon="9.00049">
        <ele>848</ele>
        <time>2021-08-02T09:52:46.536Z</time>
      </trkpt>
      <trkpt lat="47.02952" lon="9.00049">
        <ele>848</ele>
        <time>2021-08-02T09:52:47.536Z</time>
      </trkpt>
      <trkpt lat="47.02952" lon="9.00048">
        <ele>848</ele>
        <time>2021-08-02T09:52:48.536Z</time>
      </trkpt>
      <trkpt lat="47.02951" lon="9.00047">
        <ele>849</ele>
        <time>2021-08-02T09:52:49.536Z</time>
      </trkpt>
      <trkpt lat="47.0295" lon="9.00047">
        <ele>849</ele>
        <time>2021-08-02T09:52:50.536Z</time>
      </trkpt>
      <trkpt lat="47.02949" lon="9.00046">
        <ele>849</ele>
        <time>2021-08-02T09:52:51.536Z</time>
      </trkpt>
      <trkpt lat="47.02948" lon="9.00045">
        <ele>849</ele>
        <time>2021-08-02T09:52:52.536Z</time>
      </trkpt>
      <trkpt lat="47.02947" lon="9.00044">
        <ele>850</ele>
        <time>2021-08-02T09:52:53.536Z</time>
      </trkpt>
      <trkpt lat="47.02946" lon="9.00043">
        <ele>850</ele>
        <time>2021-08-02T09:52:54.536Z</time>
      </trkpt>
      <trkpt lat="47.02945" lon="9.00043">
        <ele>851</ele>
        <time>2021-08-02T09:52:55.536Z</time>
      </trkpt>
      <trkpt lat="47.02944" lon="9.00042">
        <ele>851</ele>
        <time>2021-08-02T09:52:56.536Z</time>
      </trkpt>
      <trkpt lat="47.02943" lon="9.00041">
        <ele>852</ele>
        <time>2021-08-02T09:52:57.537Z</time>
      </trkpt>
      <trkpt lat="47.02942" lon="9.00039">
        <ele>853</ele>
        <time>2021-08-02T09:52:58.536Z</time>
      </trkpt>
      <trkpt lat="47.02941" lon="9.00038">
        <ele>854</ele>
        <time>2021-08-02T09:52:59.537Z</time>
      </trkpt>
      <trkpt lat="47.02941" lon="9.00036">
        <ele>854</ele>
        <time>2021-08-02T09:53:00.536Z</time>
      </trkpt>
      <trkpt lat="47.02941" lon="9.00034">
        <ele>854</ele>
        <time>2021-08-02T09:53:01.536Z</time>
      </trkpt>
      <trkpt lat="47.0294" lon="9.00033">
        <ele>854</ele>
        <time>2021-08-02T09:53:02.536Z</time>
      </trkpt>
      <trkpt lat="47.0294" lon="9.00032">
        <ele>855</ele>
        <time>2021-08-02T09:53:03.537Z</time>
      </trkpt>
      <trkpt lat="47.02939" lon="9.00031">
        <ele>855</ele>
        <time>2021-08-02T09:53:04.537Z</time>
      </trkpt>
      <trkpt lat="47.02939" lon="9.0003">
        <ele>856</ele>
        <time>2021-08-02T09:53:05.537Z</time>
      </trkpt>
      <trkpt lat="47.02939" lon="9.00029">
        <ele>856</ele>
        <time>2021-08-02T09:53:06.537Z</time>
      </trkpt>
      <trkpt lat="47.02939" lon="9.00029">
        <ele>856</ele>
        <time>2021-08-02T09:53:07.537Z</time>
      </trkpt>
      <trkpt lat="47.0294" lon="9.00029">
        <ele>857</ele>
        <time>2021-08-02T09:53:08.537Z</time>
      </trkpt>
      <trkpt lat="47.02938" lon="9.00028">
        <ele>856</ele>
        <time>2021-08-02T09:53:09.538Z</time>
      </trkpt>
      <trkpt lat="47.02938" lon="9.00028">
        <ele>856</ele>
        <time>2021-08-02T09:53:10.537Z</time>
      </trkpt>
      <trkpt lat="47.02938" lon="9.00028">
        <ele>854</ele>
        <time>2021-08-02T09:53:11.538Z</time>
      </trkpt>
      <trkpt lat="47.02937" lon="9.00028">
        <ele>854</ele>
        <time>2021-08-02T09:53:12.538Z</time>
      </trkpt>
      <trkpt lat="47.02936" lon="9.00028">
        <ele>853</ele>
        <time>2021-08-02T09:53:13.537Z</time>
      </trkpt>
      <trkpt lat="47.02935" lon="9.00028">
        <ele>853</ele>
        <time>2021-08-02T09:53:14.537Z</time>
      </trkpt>
      <trkpt lat="47.02933" lon="9.00027">
        <ele>854</ele>
        <time>2021-08-02T09:53:15.537Z</time>
      </trkpt>
      <trkpt lat="47.02932" lon="9.00027">
        <ele>854</ele>
        <time>2021-08-02T09:53:16.537Z</time>
      </trkpt>
      <trkpt lat="47.02931" lon="9.00027">
        <ele>854</ele>
        <time>2021-08-02T09:53:17.537Z</time>
      </trkpt>
      <trkpt lat="47.0293" lon="9.00026">
        <ele>855</ele>
        <time>2021-08-02T09:53:18.537Z</time>
      </trkpt>
      <trkpt lat="47.02929" lon="9.00026">
        <ele>855</ele>
        <time>2021-08-02T09:53:19.537Z</time>
      </trkpt>
      <trkpt lat="47.02927" lon="9.00025">
        <ele>855</ele>
        <time>2021-08-02T09:53:20.537Z</time>
      </trkpt>
      <trkpt lat="47.02925" lon="9.00024">
        <ele>855</ele>
        <time>2021-08-02T09:53:21.537Z</time>
      </trkpt>
      <trkpt lat="47.02923" lon="9.00023">
        <ele>855</ele>
        <time>2021-08-02T09:53:22.537Z</time>
      </trkpt>
      <trkpt lat="47.02922" lon="9.00022">
        <ele>855</ele>
        <time>2021-08-02T09:53:23.537Z</time>
      </trkpt>
      <trkpt lat="47.02921" lon="9.00022">
        <ele>856</ele>
        <time>2021-08-02T09:53:24.538Z</time>
      </trkpt>
      <trkpt lat="47.02919" lon="9.00022">
        <ele>856</ele>
        <time>2021-08-02T09:53:25.538Z</time>
      </trkpt>
      <trkpt lat="47.02918" lon="9.00021">
        <ele>857</ele>
        <time>2021-08-02T09:53:26.537Z</time>
      </trkpt>
      <trkpt lat="47.02917" lon="9.0002">
        <ele>857</ele>
        <time>2021-08-02T09:53:27.538Z</time>
      </trkpt>
      <trkpt lat="47.02916" lon="9.0002">
        <ele>858</ele>
        <time>2021-08-02T09:53:28.538Z</time>
      </trkpt>
      <trkpt lat="47.02915" lon="9.00019">
        <ele>858</ele>
        <time>2021-08-02T09:53:29.537Z</time>
      </trkpt>
      <trkpt lat="47.02914" lon="9.00019">
        <ele>859</ele>
        <time>2021-08-02T09:53:30.538Z</time>
      </trkpt>
      <trkpt lat="47.02913" lon="9.00018">
        <ele>859</ele>
        <time>2021-08-02T09:53:31.537Z</time>
      </trkpt>
      <trkpt lat="47.02912" lon="9.00017">
        <ele>860</ele>
        <time>2021-08-02T09:53:32.538Z</time>
      </trkpt>
      <trkpt lat="47.02911" lon="9.00016">
        <ele>860</ele>
        <time>2021-08-02T09:53:33.538Z</time>
      </trkpt>
      <trkpt lat="47.02909" lon="9.00016">
        <ele>861</ele>
        <time>2021-08-02T09:53:34.538Z</time>
      </trkpt>
      <trkpt lat="47.02908" lon="9.00015">
        <ele>861</ele>
        <time>2021-08-02T09:53:35.537Z</time>
      </trkpt>
      <trkpt lat="47.02905" lon="9.00014">
        <ele>861</ele>
        <time>2021-08-02T09:53:36.538Z</time>
      </trkpt>
      <trkpt lat="47.02904" lon="9.00013">
        <ele>861</ele>
        <time>2021-08-02T09:53:37.537Z</time>
      </trkpt>
      <trkpt lat="47.02903" lon="9.00012">
        <ele>861</ele>
        <time>2021-08-02T09:53:38.538Z</time>
      </trkpt>
      <trkpt lat="47.02903" lon="9.0001">
        <ele>861</ele>
        <time>2021-08-02T09:53:39.538Z</time>
      </trkpt>
      <trkpt lat="47.02903" lon="9.00008">
        <ele>861</ele>
        <time>2021-08-02T09:53:40.538Z</time>
      </trkpt>
      <trkpt lat="47.02902" lon="9.00007">
        <ele>861</ele>
        <time>2021-08-02T09:53:41.537Z</time>
      </trkpt>
      <trkpt lat="47.02901" lon="9.00007">
        <ele>861</ele>
        <time>2021-08-02T09:53:42.538Z</time>
      </trkpt>
      <trkpt lat="47.029" lon="9.00007">
        <ele>861</ele>
        <time>2021-08-02T09:53:43.538Z</time>
      </trkpt>
      <trkpt lat="47.02899" lon="9.00006">
        <ele>862</ele>
        <time>2021-08-02T09:53:44.537Z</time>
      </trkpt>
      <trkpt lat="47.02898" lon="9.00006">
        <ele>862</ele>
        <time>2021-08-02T09:53:45.537Z</time>
      </trkpt>
      <trkpt lat="47.02897" lon="9.00006">
        <ele>862</ele>
        <time>2021-08-02T09:53:46.538Z</time>
      </trkpt>
      <trkpt lat="47.02897" lon="9.00005">
        <ele>862</ele>
        <time>2021-08-02T09:53:47.538Z</time>
      </trkpt>
      <trkpt lat="47.02896" lon="9.00004">
        <ele>862</ele>
        <time>2021-08-02T09:53:48.538Z</time>
      </trkpt>
      <trkpt lat="47.02896" lon="9.00003">
        <ele>862</ele>
        <time>2021-08-02T09:53:49.537Z</time>
      </trkpt>
      <trkpt lat="47.02895" lon="9.00002">
        <ele>862</ele>
        <time>2021-08-02T09:53:50.537Z</time>
      </trkpt>
      <trkpt lat="47.02895" lon="9.00001">
        <ele>862</ele>
        <time>2021-08-02T09:53:51.537Z</time>
      </trkpt>
      <trkpt lat="47.02894" lon="9.00001">
        <ele>862</ele>
        <time>2021-08-02T09:53:52.538Z</time>
      </trkpt>
      <trkpt lat="47.02894" lon="9.00001">
        <ele>862</ele>
        <time>2021-08-02T09:53:53.538Z</time>
      </trkpt>
      <trkpt lat="47.02894" lon="9.00001">
        <ele>862</ele>
        <time>2021-08-02T09:53:54.537Z</time>
      </trkpt>
      <trkpt lat="47.02894" lon="9.00002">
        <ele>862</ele>
        <time>2021-08-02T09:53:55.538Z</time>
      </trkpt>
      <trkpt lat="47.02894" lon="9.00003">
        <ele>862</ele>
        <time>2021-08-02T09:53:56.538Z</time>
      </trkpt>
      <trkpt lat="47.02894" lon="9.00004">
        <ele>863</ele>
        <time>2021-08-02T09:53:57.538Z</time>
      </trkpt>
      <trkpt lat="47.02894" lon="9.00005">
        <ele>864</ele>
        <time>2021-08-02T09:53:58.537Z</time>
      </trkpt>
      <trkpt lat="47.02894" lon="9.00006">
        <ele>865</ele>
        <time>2021-08-02T09:53:59.537Z</time>
      </trkpt>
      <trkpt lat="47.02894" lon="9.00005">
        <ele>865</ele>
        <time>2021-08-02T09:54:00.538Z</time>
      </trkpt>
      <trkpt lat="47.02894" lon="9.00004">
        <ele>865</ele>
        <time>2021-08-02T09:54:01.538Z</time>
      </trkpt>
      <trkpt lat="47.02893" lon="9.00003">
        <ele>864</ele>
        <time>2021-08-02T09:54:02.538Z</time>
      </trkpt>
      <trkpt lat="47.02892" lon="9.00002">
        <ele>863</ele>
        <time>2021-08-02T09:54:03.537Z</time>
      </trkpt>
      <trkpt lat="47.02892" lon="9.00001">
        <ele>863</ele>
        <time>2021-08-02T09:54:04.538Z</time>
      </trkpt>
      <trkpt lat="47.02891" lon="9">
        <ele>863</ele>
        <time>2021-08-02T09:54:05.537Z</time>
      </trkpt>
      <trkpt lat="47.0289" lon="8.99998">
        <ele>862</ele>
        <time>2021-08-02T09:54:06.538Z</time>
      </trkpt>
      <trkpt lat="47.02889" lon="8.99997">
        <ele>861</ele>
        <time>2021-08-02T09:54:07.538Z</time>
      </trkpt>
      <trkpt lat="47.02889" lon="8.99995">
        <ele>860</ele>
        <time>2021-08-02T09:54:08.538Z</time>
      </trkpt>
      <trkpt lat="47.02889" lon="8.99994">
        <ele>860</ele>
        <time>2021-08-02T09:54:09.538Z</time>
      </trkpt>
      <trkpt lat="47.02889" lon="8.99992">
        <ele>860</ele>
        <time>2021-08-02T09:54:10.538Z</time>
      </trkpt>
      <trkpt lat="47.02888" lon="8.99991">
        <ele>859</ele>
        <time>2021-08-02T09:54:11.538Z</time>
      </trkpt>
      <trkpt lat="47.02886" lon="8.9999">
        <ele>859</ele>
        <time>2021-08-02T09:54:12.538Z</time>
      </trkpt>
      <trkpt lat="47.02884" lon="8.99989">
        <ele>859</ele>
        <time>2021-08-02T09:54:13.537Z</time>
      </trkpt>
      <trkpt lat="47.02883" lon="8.99987">
        <ele>859</ele>
        <time>2021-08-02T09:54:14.537Z</time>
      </trkpt>
      <trkpt lat="47.02882" lon="8.99985">
        <ele>859</ele>
        <time>2021-08-02T09:54:15.537Z</time>
      </trkpt>
      <trkpt lat="47.02882" lon="8.99984">
        <ele>859</ele>
        <time>2021-08-02T09:54:16.537Z</time>
      </trkpt>
      <trkpt lat="47.02882" lon="8.99984">
        <ele>859</ele>
        <time>2021-08-02T09:54:17.537Z</time>
      </trkpt>
      <trkpt lat="47.02882" lon="8.99983">
        <ele>859</ele>
        <time>2021-08-02T09:54:18.537Z</time>
      </trkpt>
      <trkpt lat="47.02881" lon="8.99983">
        <ele>859</ele>
        <time>2021-08-02T09:54:19.537Z</time>
      </trkpt>
      <trkpt lat="47.0288" lon="8.99981">
        <ele>860</ele>
        <time>2021-08-02T09:54:20.537Z</time>
      </trkpt>
      <trkpt lat="47.0288" lon="8.9998">
        <ele>860</ele>
        <time>2021-08-02T09:54:21.537Z</time>
      </trkpt>
      <trkpt lat="47.0288" lon="8.9998">
        <ele>860</ele>
        <time>2021-08-02T09:54:22.537Z</time>
      </trkpt>
      <trkpt lat="47.0288" lon="8.99979">
        <ele>860</ele>
        <time>2021-08-02T09:54:23.537Z</time>
      </trkpt>
      <trkpt lat="47.02879" lon="8.99977">
        <ele>860</ele>
        <time>2021-08-02T09:54:24.538Z</time>
      </trkpt>
      <trkpt lat="47.02878" lon="8.99976">
        <ele>860</ele>
        <time>2021-08-02T09:54:25.537Z</time>
      </trkpt>
      <trkpt lat="47.02878" lon="8.99974">
        <ele>859</ele>
        <time>2021-08-02T09:54:26.537Z</time>
      </trkpt>
      <trkpt lat="47.02877" lon="8.99972">
        <ele>859</ele>
        <time>2021-08-02T09:54:27.537Z</time>
      </trkpt>
      <trkpt lat="47.02877" lon="8.9997">
        <ele>859</ele>
        <time>2021-08-02T09:54:28.537Z</time>
      </trkpt>
      <trkpt lat="47.02877" lon="8.99967">
        <ele>859</ele>
        <time>2021-08-02T09:54:29.537Z</time>
      </trkpt>
      <trkpt lat="47.02877" lon="8.99966">
        <ele>859</ele>
        <time>2021-08-02T09:54:30.537Z</time>
      </trkpt>
      <trkpt lat="47.02876" lon="8.99964">
        <ele>859</ele>
        <time>2021-08-02T09:54:31.537Z</time>
      </trkpt>
      <trkpt lat="47.02877" lon="8.99962">
        <ele>859</ele>
        <time>2021-08-02T09:54:32.537Z</time>
      </trkpt>
      <trkpt lat="47.02877" lon="8.9996">
        <ele>859</ele>
        <time>2021-08-02T09:54:33.537Z</time>
      </trkpt>
      <trkpt lat="47.02878" lon="8.99959">
        <ele>859</ele>
        <time>2021-08-02T09:54:34.537Z</time>
      </trkpt>
      <trkpt lat="47.02878" lon="8.99959">
        <ele>860</ele>
        <time>2021-08-02T09:54:35.538Z</time>
      </trkpt>
      <trkpt lat="47.02878" lon="8.99957">
        <ele>859</ele>
        <time>2021-08-02T09:54:36.537Z</time>
      </trkpt>
      <trkpt lat="47.02878" lon="8.99957">
        <ele>859</ele>
        <time>2021-08-02T09:54:37.537Z</time>
      </trkpt>
      <trkpt lat="47.02878" lon="8.99956">
        <ele>858</ele>
        <time>2021-08-02T09:54:38.537Z</time>
      </trkpt>
      <trkpt lat="47.02877" lon="8.99955">
        <ele>858</ele>
        <time>2021-08-02T09:54:39.537Z</time>
      </trkpt>
      <trkpt lat="47.02877" lon="8.99954">
        <ele>857</ele>
        <time>2021-08-02T09:54:40.537Z</time>
      </trkpt>
      <trkpt lat="47.02877" lon="8.99952">
        <ele>857</ele>
        <time>2021-08-02T09:54:41.537Z</time>
      </trkpt>
      <trkpt lat="47.02876" lon="8.99951">
        <ele>857</ele>
        <time>2021-08-02T09:54:42.538Z</time>
      </trkpt>
      <trkpt lat="47.02876" lon="8.99949">
        <ele>856</ele>
        <time>2021-08-02T09:54:43.537Z</time>
      </trkpt>
      <trkpt lat="47.02876" lon="8.99948">
        <ele>856</ele>
        <time>2021-08-02T09:54:44.538Z</time>
      </trkpt>
      <trkpt lat="47.02876" lon="8.99946">
        <ele>856</ele>
        <time>2021-08-02T09:54:45.537Z</time>
      </trkpt>
      <trkpt lat="47.02875" lon="8.99944">
        <ele>857</ele>
        <time>2021-08-02T09:54:46.537Z</time>
      </trkpt>
      <trkpt lat="47.02874" lon="8.99943">
        <ele>857</ele>
        <time>2021-08-02T09:54:47.537Z</time>
      </trkpt>
      <trkpt lat="47.02873" lon="8.99941">
        <ele>857</ele>
        <time>2021-08-02T09:54:48.537Z</time>
      </trkpt>
      <trkpt lat="47.02873" lon="8.99939">
        <ele>857</ele>
        <time>2021-08-02T09:54:49.537Z</time>
      </trkpt>
      <trkpt lat="47.02873" lon="8.99938">
        <ele>858</ele>
        <time>2021-08-02T09:54:50.537Z</time>
      </trkpt>
      <trkpt lat="47.02874" lon="8.99936">
        <ele>858</ele>
        <time>2021-08-02T09:54:51.538Z</time>
      </trkpt>
      <trkpt lat="47.02873" lon="8.99935">
        <ele>858</ele>
        <time>2021-08-02T09:54:52.538Z</time>
      </trkpt>
      <trkpt lat="47.02872" lon="8.99933">
        <ele>858</ele>
        <time>2021-08-02T09:54:53.537Z</time>
      </trkpt>
      <trkpt lat="47.02871" lon="8.99932">
        <ele>858</ele>
        <time>2021-08-02T09:54:54.537Z</time>
      </trkpt>
      <trkpt lat="47.0287" lon="8.99931">
        <ele>858</ele>
        <time>2021-08-02T09:54:55.538Z</time>
      </trkpt>
      <trkpt lat="47.0287" lon="8.99929">
        <ele>858</ele>
        <time>2021-08-02T09:54:56.537Z</time>
      </trkpt>
      <trkpt lat="47.02869" lon="8.99928">
        <ele>858</ele>
        <time>2021-08-02T09:54:57.537Z</time>
      </trkpt>
      <trkpt lat="47.02868" lon="8.99927">
        <ele>859</ele>
        <time>2021-08-02T09:54:58.538Z</time>
      </trkpt>
      <trkpt lat="47.02867" lon="8.99926">
        <ele>858</ele>
        <time>2021-08-02T09:54:59.537Z</time>
      </trkpt>
      <trkpt lat="47.02867" lon="8.99926">
        <ele>858</ele>
        <time>2021-08-02T09:55:00.537Z</time>
      </trkpt>
      <trkpt lat="47.02866" lon="8.99925">
        <ele>858</ele>
        <time>2021-08-02T09:55:01.537Z</time>
      </trkpt>
      <trkpt lat="47.02865" lon="8.99924">
        <ele>857</ele>
        <time>2021-08-02T09:55:02.537Z</time>
      </trkpt>
      <trkpt lat="47.02864" lon="8.99923">
        <ele>857</ele>
        <time>2021-08-02T09:55:03.537Z</time>
      </trkpt>
      <trkpt lat="47.02863" lon="8.99922">
        <ele>856</ele>
        <time>2021-08-02T09:55:04.538Z</time>
      </trkpt>
      <trkpt lat="47.02863" lon="8.9992">
        <ele>856</ele>
        <time>2021-08-02T09:55:05.538Z</time>
      </trkpt>
      <trkpt lat="47.02864" lon="8.99918">
        <ele>855</ele>
        <time>2021-08-02T09:55:06.537Z</time>
      </trkpt>
      <trkpt lat="47.02863" lon="8.99916">
        <ele>855</ele>
        <time>2021-08-02T09:55:07.538Z</time>
      </trkpt>
      <trkpt lat="47.02863" lon="8.99914">
        <ele>855</ele>
        <time>2021-08-02T09:55:08.537Z</time>
      </trkpt>
      <trkpt lat="47.02862" lon="8.99912">
        <ele>855</ele>
        <time>2021-08-02T09:55:09.538Z</time>
      </trkpt>
      <trkpt lat="47.02861" lon="8.99911">
        <ele>855</ele>
        <time>2021-08-02T09:55:10.538Z</time>
      </trkpt>
      <trkpt lat="47.0286" lon="8.9991">
        <ele>855</ele>
        <time>2021-08-02T09:55:11.537Z</time>
      </trkpt>
      <trkpt lat="47.0286" lon="8.99909">
        <ele>855</ele>
        <time>2021-08-02T09:55:12.538Z</time>
      </trkpt>
      <trkpt lat="47.02859" lon="8.99908">
        <ele>855</ele>
        <time>2021-08-02T09:55:13.538Z</time>
      </trkpt>
      <trkpt lat="47.02858" lon="8.99907">
        <ele>856</ele>
        <time>2021-08-02T09:55:14.537Z</time>
      </trkpt>
      <trkpt lat="47.02857" lon="8.99906">
        <ele>856</ele>
        <time>2021-08-02T09:55:15.537Z</time>
      </trkpt>
      <trkpt lat="47.02856" lon="8.99905">
        <ele>855</ele>
        <time>2021-08-02T09:55:16.538Z</time>
      </trkpt>
      <trkpt lat="47.02855" lon="8.99904">
        <ele>855</ele>
        <time>2021-08-02T09:55:17.537Z</time>
      </trkpt>
      <trkpt lat="47.02854" lon="8.99904">
        <ele>855</ele>
        <time>2021-08-02T09:55:18.537Z</time>
      </trkpt>
      <trkpt lat="47.02853" lon="8.99903">
        <ele>854</ele>
        <time>2021-08-02T09:55:19.537Z</time>
      </trkpt>
      <trkpt lat="47.02851" lon="8.99901">
        <ele>854</ele>
        <time>2021-08-02T09:55:20.537Z</time>
      </trkpt>
      <trkpt lat="47.0285" lon="8.999">
        <ele>854</ele>
        <time>2021-08-02T09:55:21.538Z</time>
      </trkpt>
      <trkpt lat="47.0285" lon="8.99898">
        <ele>854</ele>
        <time>2021-08-02T09:55:22.537Z</time>
      </trkpt>
      <trkpt lat="47.02849" lon="8.99897">
        <ele>854</ele>
        <time>2021-08-02T09:55:23.537Z</time>
      </trkpt>
      <trkpt lat="47.02849" lon="8.99896">
        <ele>855</ele>
        <time>2021-08-02T09:55:24.537Z</time>
      </trkpt>
      <trkpt lat="47.0285" lon="8.99895">
        <ele>854</ele>
        <time>2021-08-02T09:55:25.537Z</time>
      </trkpt>
      <trkpt lat="47.02849" lon="8.99894">
        <ele>854</ele>
        <time>2021-08-02T09:55:26.537Z</time>
      </trkpt>
      <trkpt lat="47.02848" lon="8.99893">
        <ele>854</ele>
        <time>2021-08-02T09:55:27.537Z</time>
      </trkpt>
      <trkpt lat="47.02848" lon="8.99892">
        <ele>854</ele>
        <time>2021-08-02T09:55:28.537Z</time>
      </trkpt>
      <trkpt lat="47.02847" lon="8.99891">
        <ele>854</ele>
        <time>2021-08-02T09:55:29.537Z</time>
      </trkpt>
      <trkpt lat="47.02847" lon="8.9989">
        <ele>853</ele>
        <time>2021-08-02T09:55:30.537Z</time>
      </trkpt>
      <trkpt lat="47.02846" lon="8.99889">
        <ele>853</ele>
        <time>2021-08-02T09:55:31.537Z</time>
      </trkpt>
      <trkpt lat="47.02845" lon="8.99888">
        <ele>853</ele>
        <time>2021-08-02T09:55:32.537Z</time>
      </trkpt>
      <trkpt lat="47.02844" lon="8.99887">
        <ele>852</ele>
        <time>2021-08-02T09:55:33.538Z</time>
      </trkpt>
      <trkpt lat="47.02843" lon="8.99886">
        <ele>852</ele>
        <time>2021-08-02T09:55:34.537Z</time>
      </trkpt>
      <trkpt lat="47.02842" lon="8.99885">
        <ele>851</ele>
        <time>2021-08-02T09:55:35.537Z</time>
      </trkpt>
      <trkpt lat="47.02842" lon="8.99885">
        <ele>850</ele>
        <time>2021-08-02T09:55:36.537Z</time>
      </trkpt>
      <trkpt lat="47.02842" lon="8.99884">
        <ele>850</ele>
        <time>2021-08-02T09:55:37.537Z</time>
      </trkpt>
      <trkpt lat="47.02842" lon="8.99883">
        <ele>849</ele>
        <time>2021-08-02T09:55:39.559Z</time>
      </trkpt>
      <trkpt lat="47.02841" lon="8.99882">
        <ele>849</ele>
        <time>2021-08-02T09:55:40.558Z</time>
      </trkpt>
      <trkpt lat="47.02841" lon="8.99881">
        <ele>848</ele>
        <time>2021-08-02T09:55:41.558Z</time>
      </trkpt>
      <trkpt lat="47.02841" lon="8.9988">
        <ele>848</ele>
        <time>2021-08-02T09:55:42.559Z</time>
      </trkpt>
      <trkpt lat="47.02841" lon="8.99879">
        <ele>848</ele>
        <time>2021-08-02T09:55:43.559Z</time>
      </trkpt>
      <trkpt lat="47.0284" lon="8.99878">
        <ele>848</ele>
        <time>2021-08-02T09:55:44.559Z</time>
      </trkpt>
      <trkpt lat="47.02839" lon="8.99877">
        <ele>848</ele>
        <time>2021-08-02T09:55:45.558Z</time>
      </trkpt>
      <trkpt lat="47.02838" lon="8.99877">
        <ele>848</ele>
        <time>2021-08-02T09:55:46.558Z</time>
      </trkpt>
      <trkpt lat="47.02837" lon="8.99876">
        <ele>848</ele>
        <time>2021-08-02T09:55:47.558Z</time>
      </trkpt>
      <trkpt lat="47.02836" lon="8.99874">
        <ele>848</ele>
        <time>2021-08-02T09:55:48.558Z</time>
      </trkpt>
      <trkpt lat="47.02836" lon="8.99874">
        <ele>848</ele>
        <time>2021-08-02T09:55:49.558Z</time>
      </trkpt>
      <trkpt lat="47.02835" lon="8.99873">
        <ele>848</ele>
        <time>2021-08-02T09:55:50.558Z</time>
      </trkpt>
      <trkpt lat="47.02835" lon="8.99872">
        <ele>848</ele>
        <time>2021-08-02T09:55:51.558Z</time>
      </trkpt>
      <trkpt lat="47.02834" lon="8.99871">
        <ele>848</ele>
        <time>2021-08-02T09:55:52.558Z</time>
      </trkpt>
      <trkpt lat="47.02833" lon="8.9987">
        <ele>848</ele>
        <time>2021-08-02T09:55:53.558Z</time>
      </trkpt>
      <trkpt lat="47.02832" lon="8.99869">
        <ele>847</ele>
        <time>2021-08-02T09:55:54.558Z</time>
      </trkpt>
      <trkpt lat="47.02832" lon="8.99867">
        <ele>847</ele>
        <time>2021-08-02T09:55:55.559Z</time>
      </trkpt>
      <trkpt lat="47.02831" lon="8.99866">
        <ele>847</ele>
        <time>2021-08-02T09:55:56.558Z</time>
      </trkpt>
      <trkpt lat="47.02831" lon="8.99865">
        <ele>847</ele>
        <time>2021-08-02T09:55:57.558Z</time>
      </trkpt>
      <trkpt lat="47.0283" lon="8.99863">
        <ele>847</ele>
        <time>2021-08-02T09:55:58.558Z</time>
      </trkpt>
      <trkpt lat="47.02829" lon="8.99862">
        <ele>847</ele>
        <time>2021-08-02T09:55:59.558Z</time>
      </trkpt>
      <trkpt lat="47.02828" lon="8.99861">
        <ele>847</ele>
        <time>2021-08-02T09:56:00.558Z</time>
      </trkpt>
      <trkpt lat="47.02828" lon="8.9986">
        <ele>847</ele>
        <time>2021-08-02T09:56:01.558Z</time>
      </trkpt>
      <trkpt lat="47.02827" lon="8.99859">
        <ele>847</ele>
        <time>2021-08-02T09:56:02.559Z</time>
      </trkpt>
      <trkpt lat="47.02827" lon="8.99858">
        <ele>847</ele>
        <time>2021-08-02T09:56:03.558Z</time>
      </trkpt>
      <trkpt lat="47.02827" lon="8.99857">
        <ele>847</ele>
        <time>2021-08-02T09:56:04.558Z</time>
      </trkpt>
      <trkpt lat="47.02826" lon="8.99856">
        <ele>847</ele>
        <time>2021-08-02T09:56:05.559Z</time>
      </trkpt>
      <trkpt lat="47.02825" lon="8.99855">
        <ele>847</ele>
        <time>2021-08-02T09:56:06.558Z</time>
      </trkpt>
      <trkpt lat="47.02824" lon="8.99854">
        <ele>847</ele>
        <time>2021-08-02T09:56:07.558Z</time>
      </trkpt>
      <trkpt lat="47.02824" lon="8.99852">
        <ele>848</ele>
        <time>2021-08-02T09:56:08.558Z</time>
      </trkpt>
      <trkpt lat="47.02824" lon="8.9985">
        <ele>848</ele>
        <time>2021-08-02T09:56:09.558Z</time>
      </trkpt>
      <trkpt lat="47.02825" lon="8.99848">
        <ele>849</ele>
        <time>2021-08-02T09:56:10.558Z</time>
      </trkpt>
      <trkpt lat="47.02824" lon="8.99847">
        <ele>849</ele>
        <time>2021-08-02T09:56:11.558Z</time>
      </trkpt>
      <trkpt lat="47.02823" lon="8.99845">
        <ele>849</ele>
        <time>2021-08-02T09:56:12.558Z</time>
      </trkpt>
      <trkpt lat="47.02822" lon="8.99844">
        <ele>850</ele>
        <time>2021-08-02T09:56:13.558Z</time>
      </trkpt>
      <trkpt lat="47.02822" lon="8.99843">
        <ele>850</ele>
        <time>2021-08-02T09:56:14.559Z</time>
      </trkpt>
      <trkpt lat="47.02821" lon="8.99841">
        <ele>850</ele>
        <time>2021-08-02T09:56:15.558Z</time>
      </trkpt>
      <trkpt lat="47.02821" lon="8.9984">
        <ele>850</ele>
        <time>2021-08-02T09:56:16.558Z</time>
      </trkpt>
      <trkpt lat="47.0282" lon="8.99839">
        <ele>850</ele>
        <time>2021-08-02T09:56:17.558Z</time>
      </trkpt>
      <trkpt lat="47.0282" lon="8.99838">
        <ele>850</ele>
        <time>2021-08-02T09:56:18.559Z</time>
      </trkpt>
      <trkpt lat="47.02819" lon="8.99837">
        <ele>851</ele>
        <time>2021-08-02T09:56:19.558Z</time>
      </trkpt>
      <trkpt lat="47.02819" lon="8.99836">
        <ele>851</ele>
        <time>2021-08-02T09:56:20.559Z</time>
      </trkpt>
      <trkpt lat="47.02818" lon="8.99835">
        <ele>851</ele>
        <time>2021-08-02T09:56:21.558Z</time>
      </trkpt>
      <trkpt lat="47.02818" lon="8.99834">
        <ele>850</ele>
        <time>2021-08-02T09:56:22.558Z</time>
      </trkpt>
      <trkpt lat="47.02817" lon="8.99833">
        <ele>850</ele>
        <time>2021-08-02T09:56:23.559Z</time>
      </trkpt>
      <trkpt lat="47.02817" lon="8.99831">
        <ele>850</ele>
        <time>2021-08-02T09:56:24.558Z</time>
      </trkpt>
      <trkpt lat="47.02816" lon="8.99829">
        <ele>850</ele>
        <time>2021-08-02T09:56:25.558Z</time>
      </trkpt>
      <trkpt lat="47.02816" lon="8.99827">
        <ele>850</ele>
        <time>2021-08-02T09:56:26.558Z</time>
      </trkpt>
      <trkpt lat="47.02814" lon="8.99826">
        <ele>850</ele>
        <time>2021-08-02T09:56:27.558Z</time>
      </trkpt>
      <trkpt lat="47.02813" lon="8.99825">
        <ele>850</ele>
        <time>2021-08-02T09:56:28.558Z</time>
      </trkpt>
      <trkpt lat="47.02812" lon="8.99823">
        <ele>850</ele>
        <time>2021-08-02T09:56:29.558Z</time>
      </trkpt>
      <trkpt lat="47.02812" lon="8.99821">
        <ele>850</ele>
        <time>2021-08-02T09:56:30.558Z</time>
      </trkpt>
      <trkpt lat="47.02812" lon="8.99819">
        <ele>850</ele>
        <time>2021-08-02T09:56:31.558Z</time>
      </trkpt>
      <trkpt lat="47.02812" lon="8.99817">
        <ele>850</ele>
        <time>2021-08-02T09:56:32.559Z</time>
      </trkpt>
      <trkpt lat="47.02812" lon="8.99815">
        <ele>850</ele>
        <time>2021-08-02T09:56:33.558Z</time>
      </trkpt>
      <trkpt lat="47.02811" lon="8.99814">
        <ele>851</ele>
        <time>2021-08-02T09:56:34.558Z</time>
      </trkpt>
      <trkpt lat="47.02811" lon="8.99813">
        <ele>851</ele>
        <time>2021-08-02T09:56:35.558Z</time>
      </trkpt>
      <trkpt lat="47.02811" lon="8.99811">
        <ele>851</ele>
        <time>2021-08-02T09:56:36.558Z</time>
      </trkpt>
      <trkpt lat="47.02811" lon="8.9981">
        <ele>851</ele>
        <time>2021-08-02T09:56:37.558Z</time>
      </trkpt>
      <trkpt lat="47.02811" lon="8.99808">
        <ele>851</ele>
        <time>2021-08-02T09:56:38.558Z</time>
      </trkpt>
      <trkpt lat="47.0281" lon="8.99807">
        <ele>852</ele>
        <time>2021-08-02T09:56:39.558Z</time>
      </trkpt>
      <trkpt lat="47.02809" lon="8.99805">
        <ele>852</ele>
        <time>2021-08-02T09:56:40.558Z</time>
      </trkpt>
      <trkpt lat="47.02809" lon="8.99804">
        <ele>852</ele>
        <time>2021-08-02T09:56:41.559Z</time>
      </trkpt>
      <trkpt lat="47.02809" lon="8.99803">
        <ele>853</ele>
        <time>2021-08-02T09:56:42.558Z</time>
      </trkpt>
      <trkpt lat="47.02809" lon="8.99802">
        <ele>853</ele>
        <time>2021-08-02T09:56:43.559Z</time>
      </trkpt>
      <trkpt lat="47.02808" lon="8.99801">
        <ele>853</ele>
        <time>2021-08-02T09:56:44.558Z</time>
      </trkpt>
      <trkpt lat="47.02808" lon="8.998">
        <ele>853</ele>
        <time>2021-08-02T09:56:45.558Z</time>
      </trkpt>
      <trkpt lat="47.02808" lon="8.99798">
        <ele>853</ele>
        <time>2021-08-02T09:56:46.559Z</time>
      </trkpt>
      <trkpt lat="47.02807" lon="8.99796">
        <ele>854</ele>
        <time>2021-08-02T09:56:47.558Z</time>
      </trkpt>
      <trkpt lat="47.02807" lon="8.99795">
        <ele>854</ele>
        <time>2021-08-02T09:56:48.558Z</time>
      </trkpt>
      <trkpt lat="47.02807" lon="8.99794">
        <ele>853</ele>
        <time>2021-08-02T09:56:49.559Z</time>
      </trkpt>
      <trkpt lat="47.02806" lon="8.99792">
        <ele>853</ele>
        <time>2021-08-02T09:56:50.558Z</time>
      </trkpt>
      <trkpt lat="47.02806" lon="8.99791">
        <ele>852</ele>
        <time>2021-08-02T09:56:51.559Z</time>
      </trkpt>
      <trkpt lat="47.02806" lon="8.9979">
        <ele>851</ele>
        <time>2021-08-02T09:56:52.559Z</time>
      </trkpt>
      <trkpt lat="47.02805" lon="8.99788">
        <ele>851</ele>
        <time>2021-08-02T09:56:53.558Z</time>
      </trkpt>
      <trkpt lat="47.02805" lon="8.99787">
        <ele>850</ele>
        <time>2021-08-02T09:56:54.558Z</time>
      </trkpt>
      <trkpt lat="47.02804" lon="8.99786">
        <ele>850</ele>
        <time>2021-08-02T09:56:55.558Z</time>
      </trkpt>
      <trkpt lat="47.02804" lon="8.99784">
        <ele>850</ele>
        <time>2021-08-02T09:56:56.559Z</time>
      </trkpt>
      <trkpt lat="47.02803" lon="8.99782">
        <ele>850</ele>
        <time>2021-08-02T09:56:57.558Z</time>
      </trkpt>
      <trkpt lat="47.02804" lon="8.9978">
        <ele>850</ele>
        <time>2021-08-02T09:56:58.559Z</time>
      </trkpt>
      <trkpt lat="47.02803" lon="8.99778">
        <ele>850</ele>
        <time>2021-08-02T09:56:59.559Z</time>
      </trkpt>
      <trkpt lat="47.02803" lon="8.99777">
        <ele>851</ele>
        <time>2021-08-02T09:57:00.558Z</time>
      </trkpt>
      <trkpt lat="47.02802" lon="8.99775">
        <ele>851</ele>
        <time>2021-08-02T09:57:01.559Z</time>
      </trkpt>
      <trkpt lat="47.02802" lon="8.99773">
        <ele>852</ele>
        <time>2021-08-02T09:57:02.558Z</time>
      </trkpt>
      <trkpt lat="47.02801" lon="8.99771">
        <ele>853</ele>
        <time>2021-08-02T09:57:03.558Z</time>
      </trkpt>
      <trkpt lat="47.028" lon="8.99769">
        <ele>854</ele>
        <time>2021-08-02T09:57:04.558Z</time>
      </trkpt>
      <trkpt lat="47.028" lon="8.99767">
        <ele>854</ele>
        <time>2021-08-02T09:57:05.558Z</time>
      </trkpt>
      <trkpt lat="47.028" lon="8.99766">
        <ele>854</ele>
        <time>2021-08-02T09:57:06.558Z</time>
      </trkpt>
      <trkpt lat="47.02799" lon="8.99764">
        <ele>854</ele>
        <time>2021-08-02T09:57:07.558Z</time>
      </trkpt>
      <trkpt lat="47.02798" lon="8.99762">
        <ele>855</ele>
        <time>2021-08-02T09:57:08.558Z</time>
      </trkpt>
      <trkpt lat="47.02798" lon="8.99761">
        <ele>855</ele>
        <time>2021-08-02T09:57:09.558Z</time>
      </trkpt>
      <trkpt lat="47.02797" lon="8.99759">
        <ele>855</ele>
        <time>2021-08-02T09:57:10.558Z</time>
      </trkpt>
      <trkpt lat="47.02797" lon="8.99757">
        <ele>856</ele>
        <time>2021-08-02T09:57:17.695Z</time>
      </trkpt>
      <trkpt lat="47.02795" lon="8.99755">
        <ele>856</ele>
        <time>2021-08-02T09:57:18.695Z</time>
      </trkpt>
      <trkpt lat="47.02795" lon="8.99754">
        <ele>857</ele>
        <time>2021-08-02T09:57:19.695Z</time>
      </trkpt>
      <trkpt lat="47.02794" lon="8.99753">
        <ele>857</ele>
        <time>2021-08-02T09:57:20.695Z</time>
      </trkpt>
      <trkpt lat="47.02793" lon="8.99751">
        <ele>857</ele>
        <time>2021-08-02T09:57:21.695Z</time>
      </trkpt>
      <trkpt lat="47.02793" lon="8.9975">
        <ele>856</ele>
        <time>2021-08-02T09:57:22.695Z</time>
      </trkpt>
      <trkpt lat="47.02792" lon="8.99749">
        <ele>856</ele>
        <time>2021-08-02T09:57:23.695Z</time>
      </trkpt>
      <trkpt lat="47.02792" lon="8.99747">
        <ele>856</ele>
        <time>2021-08-02T09:57:24.696Z</time>
      </trkpt>
      <trkpt lat="47.02791" lon="8.99746">
        <ele>856</ele>
        <time>2021-08-02T09:57:25.695Z</time>
      </trkpt>
      <trkpt lat="47.0279" lon="8.99745">
        <ele>855</ele>
        <time>2021-08-02T09:57:26.695Z</time>
      </trkpt>
      <trkpt lat="47.0279" lon="8.99744">
        <ele>854</ele>
        <time>2021-08-02T09:57:27.695Z</time>
      </trkpt>
      <trkpt lat="47.02789" lon="8.99743">
        <ele>854</ele>
        <time>2021-08-02T09:57:28.695Z</time>
      </trkpt>
      <trkpt lat="47.02788" lon="8.99742">
        <ele>854</ele>
        <time>2021-08-02T09:57:29.695Z</time>
      </trkpt>
      <trkpt lat="47.02788" lon="8.99742">
        <ele>854</ele>
        <time>2021-08-02T09:57:30.695Z</time>
      </trkpt>
      <trkpt lat="47.02787" lon="8.99741">
        <ele>854</ele>
        <time>2021-08-02T09:57:31.696Z</time>
      </trkpt>
      <trkpt lat="47.02786" lon="8.9974">
        <ele>854</ele>
        <time>2021-08-02T09:57:32.695Z</time>
      </trkpt>
      <trkpt lat="47.02786" lon="8.99739">
        <ele>854</ele>
        <time>2021-08-02T09:57:33.695Z</time>
      </trkpt>
      <trkpt lat="47.02786" lon="8.99737">
        <ele>853</ele>
        <time>2021-08-02T09:57:34.695Z</time>
      </trkpt>
      <trkpt lat="47.02785" lon="8.99736">
        <ele>853</ele>
        <time>2021-08-02T09:57:35.695Z</time>
      </trkpt>
      <trkpt lat="47.02784" lon="8.99733">
        <ele>853</ele>
        <time>2021-08-02T09:57:36.696Z</time>
      </trkpt>
      <trkpt lat="47.02783" lon="8.99731">
        <ele>853</ele>
        <time>2021-08-02T09:57:37.695Z</time>
      </trkpt>
      <trkpt lat="47.02782" lon="8.99728">
        <ele>853</ele>
        <time>2021-08-02T09:57:38.695Z</time>
      </trkpt>
      <trkpt lat="47.02782" lon="8.99726">
        <ele>853</ele>
        <time>2021-08-02T09:57:39.695Z</time>
      </trkpt>
      <trkpt lat="47.0278" lon="8.99726">
        <ele>853</ele>
        <time>2021-08-02T09:57:40.696Z</time>
      </trkpt>
      <trkpt lat="47.02779" lon="8.99726">
        <ele>853</ele>
        <time>2021-08-02T09:57:41.695Z</time>
      </trkpt>
      <trkpt lat="47.02777" lon="8.99725">
        <ele>854</ele>
        <time>2021-08-02T09:57:42.695Z</time>
      </trkpt>
      <trkpt lat="47.02776" lon="8.99724">
        <ele>854</ele>
        <time>2021-08-02T09:57:43.695Z</time>
      </trkpt>
      <trkpt lat="47.02776" lon="8.99723">
        <ele>854</ele>
        <time>2021-08-02T09:57:44.695Z</time>
      </trkpt>
      <trkpt lat="47.02775" lon="8.99722">
        <ele>854</ele>
        <time>2021-08-02T09:57:45.695Z</time>
      </trkpt>
      <trkpt lat="47.02774" lon="8.99721">
        <ele>854</ele>
        <time>2021-08-02T09:57:46.695Z</time>
      </trkpt>
      <trkpt lat="47.02773" lon="8.9972">
        <ele>854</ele>
        <time>2021-08-02T09:57:47.696Z</time>
      </trkpt>
      <trkpt lat="47.02773" lon="8.99719">
        <ele>855</ele>
        <time>2021-08-02T09:57:48.695Z</time>
      </trkpt>
      <trkpt lat="47.02772" lon="8.99718">
        <ele>855</ele>
        <time>2021-08-02T09:57:49.695Z</time>
      </trkpt>
      <trkpt lat="47.02772" lon="8.99716">
        <ele>855</ele>
        <time>2021-08-02T09:57:50.695Z</time>
      </trkpt>
      <trkpt lat="47.02771" lon="8.99715">
        <ele>854</ele>
        <time>2021-08-02T09:57:54.851Z</time>
      </trkpt>
      <trkpt lat="47.0277" lon="8.99714">
        <ele>854</ele>
        <time>2021-08-02T09:57:55.851Z</time>
      </trkpt>
      <trkpt lat="47.0277" lon="8.99714">
        <ele>853</ele>
        <time>2021-08-02T09:57:56.850Z</time>
      </trkpt>
      <trkpt lat="47.02769" lon="8.99712">
        <ele>852</ele>
        <time>2021-08-02T09:58:00.948Z</time>
      </trkpt>
      <trkpt lat="47.02768" lon="8.99711">
        <ele>852</ele>
        <time>2021-08-02T09:58:01.948Z</time>
      </trkpt>
      <trkpt lat="47.02767" lon="8.99709">
        <ele>852</ele>
        <time>2021-08-02T09:58:02.948Z</time>
      </trkpt>
      <trkpt lat="47.02767" lon="8.99707">
        <ele>851</ele>
        <time>2021-08-02T09:58:03.948Z</time>
      </trkpt>
      <trkpt lat="47.02766" lon="8.99705">
        <ele>851</ele>
        <time>2021-08-02T09:58:04.948Z</time>
      </trkpt>
      <trkpt lat="47.02766" lon="8.99703">
        <ele>851</ele>
        <time>2021-08-02T09:58:05.948Z</time>
      </trkpt>
      <trkpt lat="47.02766" lon="8.99701">
        <ele>851</ele>
        <time>2021-08-02T09:58:06.948Z</time>
      </trkpt>
      <trkpt lat="47.02766" lon="8.997">
        <ele>851</ele>
        <time>2021-08-02T09:58:07.948Z</time>
      </trkpt>
      <trkpt lat="47.02766" lon="8.99698">
        <ele>852</ele>
        <time>2021-08-02T09:58:08.948Z</time>
      </trkpt>
      <trkpt lat="47.02765" lon="8.99695">
        <ele>852</ele>
        <time>2021-08-02T09:58:09.948Z</time>
      </trkpt>
      <trkpt lat="47.02765" lon="8.99692">
        <ele>852</ele>
        <time>2021-08-02T09:58:10.948Z</time>
      </trkpt>
      <trkpt lat="47.02764" lon="8.99691">
        <ele>851</ele>
        <time>2021-08-02T09:58:11.948Z</time>
      </trkpt>
      <trkpt lat="47.02764" lon="8.9969">
        <ele>851</ele>
        <time>2021-08-02T09:58:12.948Z</time>
      </trkpt>
      <trkpt lat="47.02763" lon="8.99688">
        <ele>851</ele>
        <time>2021-08-02T09:58:13.948Z</time>
      </trkpt>
      <trkpt lat="47.02763" lon="8.99687">
        <ele>851</ele>
        <time>2021-08-02T09:58:14.949Z</time>
      </trkpt>
      <trkpt lat="47.02762" lon="8.99686">
        <ele>851</ele>
        <time>2021-08-02T09:58:15.949Z</time>
      </trkpt>
      <trkpt lat="47.02761" lon="8.99684">
        <ele>851</ele>
        <time>2021-08-02T09:58:16.948Z</time>
      </trkpt>
      <trkpt lat="47.0276" lon="8.99683">
        <ele>851</ele>
        <time>2021-08-02T09:58:17.948Z</time>
      </trkpt>
      <trkpt lat="47.0276" lon="8.99681">
        <ele>851</ele>
        <time>2021-08-02T09:58:18.948Z</time>
      </trkpt>
      <trkpt lat="47.02759" lon="8.9968">
        <ele>852</ele>
        <time>2021-08-02T09:58:19.948Z</time>
      </trkpt>
      <trkpt lat="47.02758" lon="8.99679">
        <ele>852</ele>
        <time>2021-08-02T09:58:20.948Z</time>
      </trkpt>
      <trkpt lat="47.02757" lon="8.99676">
        <ele>853</ele>
        <time>2021-08-02T09:58:21.949Z</time>
      </trkpt>
      <trkpt lat="47.02757" lon="8.99676">
        <ele>853</ele>
        <time>2021-08-02T09:58:22.948Z</time>
      </trkpt>
      <trkpt lat="47.02757" lon="8.99674">
        <ele>853</ele>
        <time>2021-08-02T09:58:23.948Z</time>
      </trkpt>
      <trkpt lat="47.02757" lon="8.99672">
        <ele>853</ele>
        <time>2021-08-02T09:58:24.948Z</time>
      </trkpt>
      <trkpt lat="47.02758" lon="8.9967">
        <ele>853</ele>
        <time>2021-08-02T09:58:25.948Z</time>
      </trkpt>
      <trkpt lat="47.02757" lon="8.99668">
        <ele>853</ele>
        <time>2021-08-02T09:58:26.948Z</time>
      </trkpt>
      <trkpt lat="47.02756" lon="8.99666">
        <ele>853</ele>
        <time>2021-08-02T09:58:27.948Z</time>
      </trkpt>
      <trkpt lat="47.02755" lon="8.99665">
        <ele>853</ele>
        <time>2021-08-02T09:58:28.949Z</time>
      </trkpt>
      <trkpt lat="47.02755" lon="8.99664">
        <ele>853</ele>
        <time>2021-08-02T09:58:29.948Z</time>
      </trkpt>
      <trkpt lat="47.02754" lon="8.99662">
        <ele>852</ele>
        <time>2021-08-02T09:58:30.948Z</time>
      </trkpt>
      <trkpt lat="47.02755" lon="8.9966">
        <ele>852</ele>
        <time>2021-08-02T09:58:31.948Z</time>
      </trkpt>
      <trkpt lat="47.02755" lon="8.99658">
        <ele>852</ele>
        <time>2021-08-02T09:58:32.949Z</time>
      </trkpt>
      <trkpt lat="47.02754" lon="8.99656">
        <ele>852</ele>
        <time>2021-08-02T09:58:33.948Z</time>
      </trkpt>
      <trkpt lat="47.02754" lon="8.99655">
        <ele>852</ele>
        <time>2021-08-02T09:58:34.948Z</time>
      </trkpt>
      <trkpt lat="47.02753" lon="8.99653">
        <ele>852</ele>
        <time>2021-08-02T09:58:35.949Z</time>
      </trkpt>
      <trkpt lat="47.02752" lon="8.99652">
        <ele>852</ele>
        <time>2021-08-02T09:58:36.948Z</time>
      </trkpt>
      <trkpt lat="47.02752" lon="8.9965">
        <ele>852</ele>
        <time>2021-08-02T09:58:37.949Z</time>
      </trkpt>
      <trkpt lat="47.02751" lon="8.99648">
        <ele>851</ele>
        <time>2021-08-02T09:58:38.948Z</time>
      </trkpt>
      <trkpt lat="47.02751" lon="8.99647">
        <ele>851</ele>
        <time>2021-08-02T09:58:39.949Z</time>
      </trkpt>
      <trkpt lat="47.0275" lon="8.99645">
        <ele>850</ele>
        <time>2021-08-02T09:58:40.949Z</time>
      </trkpt>
      <trkpt lat="47.0275" lon="8.99644">
        <ele>850</ele>
        <time>2021-08-02T09:58:41.949Z</time>
      </trkpt>
      <trkpt lat="47.02749" lon="8.99642">
        <ele>851</ele>
        <time>2021-08-02T09:58:42.948Z</time>
      </trkpt>
      <trkpt lat="47.02749" lon="8.99641">
        <ele>851</ele>
        <time>2021-08-02T09:58:43.948Z</time>
      </trkpt>
      <trkpt lat="47.02748" lon="8.99639">
        <ele>851</ele>
        <time>2021-08-02T09:58:44.948Z</time>
      </trkpt>
      <trkpt lat="47.02748" lon="8.99638">
        <ele>851</ele>
        <time>2021-08-02T09:58:45.948Z</time>
      </trkpt>
      <trkpt lat="47.02748" lon="8.99636">
        <ele>851</ele>
        <time>2021-08-02T09:58:46.948Z</time>
      </trkpt>
      <trkpt lat="47.02748" lon="8.99634">
        <ele>851</ele>
        <time>2021-08-02T09:58:47.948Z</time>
      </trkpt>
      <trkpt lat="47.02747" lon="8.99633">
        <ele>851</ele>
        <time>2021-08-02T09:58:48.948Z</time>
      </trkpt>
      <trkpt lat="47.02747" lon="8.99631">
        <ele>852</ele>
        <time>2021-08-02T09:58:52.072Z</time>
      </trkpt>
      <trkpt lat="47.02746" lon="8.99629">
        <ele>852</ele>
        <time>2021-08-02T09:58:53.071Z</time>
      </trkpt>
      <trkpt lat="47.02746" lon="8.99628">
        <ele>851</ele>
        <time>2021-08-02T09:58:54.071Z</time>
      </trkpt>
      <trkpt lat="47.02745" lon="8.99626">
        <ele>852</ele>
        <time>2021-08-02T09:58:55.071Z</time>
      </trkpt>
      <trkpt lat="47.02745" lon="8.99625">
        <ele>851</ele>
        <time>2021-08-02T09:58:56.072Z</time>
      </trkpt>
      <trkpt lat="47.02745" lon="8.99624">
        <ele>851</ele>
        <time>2021-08-02T09:58:57.071Z</time>
      </trkpt>
      <trkpt lat="47.02745" lon="8.99622">
        <ele>851</ele>
        <time>2021-08-02T09:58:58.071Z</time>
      </trkpt>
      <trkpt lat="47.02744" lon="8.99621">
        <ele>851</ele>
        <time>2021-08-02T09:58:59.071Z</time>
      </trkpt>
      <trkpt lat="47.02743" lon="8.99619">
        <ele>851</ele>
        <time>2021-08-02T09:59:00.071Z</time>
      </trkpt>
      <trkpt lat="47.02743" lon="8.99618">
        <ele>851</ele>
        <time>2021-08-02T09:59:01.071Z</time>
      </trkpt>
      <trkpt lat="47.02743" lon="8.99616">
        <ele>850</ele>
        <time>2021-08-02T09:59:02.071Z</time>
      </trkpt>
      <trkpt lat="47.02743" lon="8.99614">
        <ele>850</ele>
        <time>2021-08-02T09:59:03.071Z</time>
      </trkpt>
      <trkpt lat="47.02743" lon="8.99611">
        <ele>850</ele>
        <time>2021-08-02T09:59:04.071Z</time>
      </trkpt>
      <trkpt lat="47.02742" lon="8.99609">
        <ele>850</ele>
        <time>2021-08-02T09:59:05.071Z</time>
      </trkpt>
      <trkpt lat="47.02742" lon="8.99607">
        <ele>850</ele>
        <time>2021-08-02T09:59:06.072Z</time>
      </trkpt>
      <trkpt lat="47.02742" lon="8.99606">
        <ele>850</ele>
        <time>2021-08-02T09:59:07.071Z</time>
      </trkpt>
      <trkpt lat="47.02742" lon="8.99604">
        <ele>850</ele>
        <time>2021-08-02T09:59:08.071Z</time>
      </trkpt>
      <trkpt lat="47.02742" lon="8.99603">
        <ele>850</ele>
        <time>2021-08-02T09:59:09.071Z</time>
      </trkpt>
      <trkpt lat="47.02743" lon="8.99602">
        <ele>851</ele>
        <time>2021-08-02T09:59:10.071Z</time>
      </trkpt>
      <trkpt lat="47.02743" lon="8.996">
        <ele>851</ele>
        <time>2021-08-02T09:59:11.071Z</time>
      </trkpt>
      <trkpt lat="47.02743" lon="8.99599">
        <ele>851</ele>
        <time>2021-08-02T09:59:13.201Z</time>
      </trkpt>
      <trkpt lat="47.02743" lon="8.99597">
        <ele>851</ele>
        <time>2021-08-02T09:59:14.201Z</time>
      </trkpt>
      <trkpt lat="47.02742" lon="8.99596">
        <ele>851</ele>
        <time>2021-08-02T09:59:15.201Z</time>
      </trkpt>
      <trkpt lat="47.02742" lon="8.99595">
        <ele>852</ele>
        <time>2021-08-02T09:59:16.201Z</time>
      </trkpt>
      <trkpt lat="47.02742" lon="8.99593">
        <ele>852</ele>
        <time>2021-08-02T09:59:17.201Z</time>
      </trkpt>
      <trkpt lat="47.02741" lon="8.99592">
        <ele>852</ele>
        <time>2021-08-02T09:59:18.201Z</time>
      </trkpt>
      <trkpt lat="47.0274" lon="8.99591">
        <ele>853</ele>
        <time>2021-08-02T09:59:19.201Z</time>
      </trkpt>
      <trkpt lat="47.02739" lon="8.99589">
        <ele>853</ele>
        <time>2021-08-02T09:59:20.201Z</time>
      </trkpt>
      <trkpt lat="47.02739" lon="8.99588">
        <ele>854</ele>
        <time>2021-08-02T09:59:21.202Z</time>
      </trkpt>
      <trkpt lat="47.02739" lon="8.99587">
        <ele>854</ele>
        <time>2021-08-02T09:59:22.201Z</time>
      </trkpt>
      <trkpt lat="47.02739" lon="8.99585">
        <ele>854</ele>
        <time>2021-08-02T09:59:23.202Z</time>
      </trkpt>
      <trkpt lat="47.02738" lon="8.99584">
        <ele>854</ele>
        <time>2021-08-02T09:59:24.201Z</time>
      </trkpt>
      <trkpt lat="47.02737" lon="8.99583">
        <ele>854</ele>
        <time>2021-08-02T09:59:25.201Z</time>
      </trkpt>
      <trkpt lat="47.02737" lon="8.99582">
        <ele>854</ele>
        <time>2021-08-02T09:59:26.201Z</time>
      </trkpt>
      <trkpt lat="47.02737" lon="8.9958">
        <ele>854</ele>
        <time>2021-08-02T09:59:27.201Z</time>
      </trkpt>
      <trkpt lat="47.02736" lon="8.99579">
        <ele>854</ele>
        <time>2021-08-02T09:59:28.201Z</time>
      </trkpt>
      <trkpt lat="47.02736" lon="8.99578">
        <ele>854</ele>
        <time>2021-08-02T09:59:29.202Z</time>
      </trkpt>
      <trkpt lat="47.02736" lon="8.99577">
        <ele>854</ele>
        <time>2021-08-02T09:59:30.202Z</time>
      </trkpt>
      <trkpt lat="47.02736" lon="8.99576">
        <ele>854</ele>
        <time>2021-08-02T09:59:31.201Z</time>
      </trkpt>
      <trkpt lat="47.02735" lon="8.99575">
        <ele>854</ele>
        <time>2021-08-02T09:59:32.201Z</time>
      </trkpt>
      <trkpt lat="47.02733" lon="8.99575">
        <ele>854</ele>
        <time>2021-08-02T09:59:33.201Z</time>
      </trkpt>
      <trkpt lat="47.02733" lon="8.99575">
        <ele>854</ele>
        <time>2021-08-02T09:59:34.201Z</time>
      </trkpt>
      <trkpt lat="47.02733" lon="8.99574">
        <ele>854</ele>
        <time>2021-08-02T09:59:35.202Z</time>
      </trkpt>
      <trkpt lat="47.02731" lon="8.99572">
        <ele>854</ele>
        <time>2021-08-02T09:59:36.201Z</time>
      </trkpt>
      <trkpt lat="47.0273" lon="8.99572">
        <ele>854</ele>
        <time>2021-08-02T09:59:37.201Z</time>
      </trkpt>
      <trkpt lat="47.0273" lon="8.99572">
        <ele>854</ele>
        <time>2021-08-02T09:59:38.201Z</time>
      </trkpt>
      <trkpt lat="47.02729" lon="8.99572">
        <ele>854</ele>
        <time>2021-08-02T09:59:39.201Z</time>
      </trkpt>
      <trkpt lat="47.02729" lon="8.99572">
        <ele>854</ele>
        <time>2021-08-02T09:59:40.201Z</time>
      </trkpt>
      <trkpt lat="47.02729" lon="8.99573">
        <ele>854</ele>
        <time>2021-08-02T09:59:41.201Z</time>
      </trkpt>
      <trkpt lat="47.02728" lon="8.99573">
        <ele>854</ele>
        <time>2021-08-02T09:59:42.201Z</time>
      </trkpt>
      <trkpt lat="47.02726" lon="8.99573">
        <ele>863</ele>
        <time>2021-08-02T09:59:43.202Z</time>
      </trkpt>
      <trkpt lat="47.02725" lon="8.99573">
        <ele>863</ele>
        <time>2021-08-02T09:59:44.201Z</time>
      </trkpt>
      <trkpt lat="47.02724" lon="8.99573">
        <ele>863</ele>
        <time>2021-08-02T09:59:45.201Z</time>
      </trkpt>
      <trkpt lat="47.02723" lon="8.99572">
        <ele>863</ele>
        <time>2021-08-02T09:59:46.202Z</time>
      </trkpt>
      <trkpt lat="47.02721" lon="8.99571">
        <ele>863</ele>
        <time>2021-08-02T09:59:47.201Z</time>
      </trkpt>
      <trkpt lat="47.0272" lon="8.9957">
        <ele>863</ele>
        <time>2021-08-02T09:59:48.201Z</time>
      </trkpt>
      <trkpt lat="47.02719" lon="8.99569">
        <ele>863</ele>
        <time>2021-08-02T09:59:49.202Z</time>
      </trkpt>
      <trkpt lat="47.02718" lon="8.99569">
        <ele>863</ele>
        <time>2021-08-02T09:59:50.202Z</time>
      </trkpt>
      <trkpt lat="47.02717" lon="8.99568">
        <ele>863</ele>
        <time>2021-08-02T09:59:51.201Z</time>
      </trkpt>
      <trkpt lat="47.02715" lon="8.99567">
        <ele>863</ele>
        <time>2021-08-02T09:59:52.201Z</time>
      </trkpt>
      <trkpt lat="47.02714" lon="8.99566">
        <ele>862</ele>
        <time>2021-08-02T09:59:53.201Z</time>
      </trkpt>
      <trkpt lat="47.02712" lon="8.99564">
        <ele>862</ele>
        <time>2021-08-02T09:59:54.201Z</time>
      </trkpt>
      <trkpt lat="47.0271" lon="8.99563">
        <ele>862</ele>
        <time>2021-08-02T09:59:55.202Z</time>
      </trkpt>
      <trkpt lat="47.02708" lon="8.99562">
        <ele>862</ele>
        <time>2021-08-02T09:59:56.201Z</time>
      </trkpt>
      <trkpt lat="47.02707" lon="8.9956">
        <ele>862</ele>
        <time>2021-08-02T09:59:57.201Z</time>
      </trkpt>
      <trkpt lat="47.02706" lon="8.99559">
        <ele>861</ele>
        <time>2021-08-02T09:59:58.201Z</time>
      </trkpt>
      <trkpt lat="47.02705" lon="8.99559">
        <ele>861</ele>
        <time>2021-08-02T09:59:59.201Z</time>
      </trkpt>
      <trkpt lat="47.02704" lon="8.9956">
        <ele>861</ele>
        <time>2021-08-02T10:00:00.201Z</time>
      </trkpt>
      <trkpt lat="47.02702" lon="8.9956">
        <ele>860</ele>
        <time>2021-08-02T10:00:01.201Z</time>
      </trkpt>
      <trkpt lat="47.02701" lon="8.9956">
        <ele>860</ele>
        <time>2021-08-02T10:00:09.310Z</time>
      </trkpt>
      <trkpt lat="47.02701" lon="8.9956">
        <ele>860</ele>
        <time>2021-08-02T10:00:10.310Z</time>
      </trkpt>
      <trkpt lat="47.027" lon="8.99559">
        <ele>860</ele>
        <time>2021-08-02T10:00:11.310Z</time>
      </trkpt>
      <trkpt lat="47.02699" lon="8.99558">
        <ele>859</ele>
        <time>2021-08-02T10:00:12.311Z</time>
      </trkpt>
      <trkpt lat="47.02699" lon="8.99557">
        <ele>859</ele>
        <time>2021-08-02T10:00:13.310Z</time>
      </trkpt>
      <trkpt lat="47.02699" lon="8.99556">
        <ele>860</ele>
        <time>2021-08-02T10:00:14.310Z</time>
      </trkpt>
      <trkpt lat="47.02698" lon="8.99554">
        <ele>860</ele>
        <time>2021-08-02T10:00:15.310Z</time>
      </trkpt>
      <trkpt lat="47.02697" lon="8.99553">
        <ele>860</ele>
        <time>2021-08-02T10:00:16.310Z</time>
      </trkpt>
      <trkpt lat="47.02696" lon="8.99551">
        <ele>861</ele>
        <time>2021-08-02T10:00:17.310Z</time>
      </trkpt>
      <trkpt lat="47.02695" lon="8.9955">
        <ele>861</ele>
        <time>2021-08-02T10:00:18.311Z</time>
      </trkpt>
      <trkpt lat="47.02694" lon="8.99549">
        <ele>862</ele>
        <time>2021-08-02T10:00:19.310Z</time>
      </trkpt>
      <trkpt lat="47.02693" lon="8.99548">
        <ele>862</ele>
        <time>2021-08-02T10:00:20.310Z</time>
      </trkpt>
      <trkpt lat="47.02692" lon="8.99546">
        <ele>863</ele>
        <time>2021-08-02T10:00:21.310Z</time>
      </trkpt>
      <trkpt lat="47.02691" lon="8.99545">
        <ele>863</ele>
        <time>2021-08-02T10:00:22.310Z</time>
      </trkpt>
      <trkpt lat="47.02691" lon="8.99545">
        <ele>864</ele>
        <time>2021-08-02T10:00:23.310Z</time>
      </trkpt>
      <trkpt lat="47.02691" lon="8.99544">
        <ele>864</ele>
        <time>2021-08-02T10:00:24.310Z</time>
      </trkpt>
      <trkpt lat="47.02692" lon="8.99543">
        <ele>865</ele>
        <time>2021-08-02T10:00:25.311Z</time>
      </trkpt>
      <trkpt lat="47.02692" lon="8.99542">
        <ele>865</ele>
        <time>2021-08-02T10:00:26.310Z</time>
      </trkpt>
      <trkpt lat="47.02691" lon="8.99541">
        <ele>865</ele>
        <time>2021-08-02T10:00:27.310Z</time>
      </trkpt>
      <trkpt lat="47.0269" lon="8.99539">
        <ele>865</ele>
        <time>2021-08-02T10:00:28.310Z</time>
      </trkpt>
      <trkpt lat="47.02689" lon="8.99538">
        <ele>865</ele>
        <time>2021-08-02T10:00:29.310Z</time>
      </trkpt>
      <trkpt lat="47.02688" lon="8.99536">
        <ele>865</ele>
        <time>2021-08-02T10:00:30.310Z</time>
      </trkpt>
      <trkpt lat="47.02688" lon="8.99535">
        <ele>864</ele>
        <time>2021-08-02T10:00:31.310Z</time>
      </trkpt>
      <trkpt lat="47.02688" lon="8.99533">
        <ele>864</ele>
        <time>2021-08-02T10:00:32.310Z</time>
      </trkpt>
      <trkpt lat="47.02687" lon="8.99532">
        <ele>864</ele>
        <time>2021-08-02T10:00:33.310Z</time>
      </trkpt>
      <trkpt lat="47.02687" lon="8.9953">
        <ele>864</ele>
        <time>2021-08-02T10:00:34.310Z</time>
      </trkpt>
      <trkpt lat="47.02687" lon="8.99529">
        <ele>865</ele>
        <time>2021-08-02T10:00:35.310Z</time>
      </trkpt>
      <trkpt lat="47.02687" lon="8.99527">
        <ele>865</ele>
        <time>2021-08-02T10:00:36.311Z</time>
      </trkpt>
      <trkpt lat="47.02686" lon="8.99526">
        <ele>865</ele>
        <time>2021-08-02T10:00:37.310Z</time>
      </trkpt>
      <trkpt lat="47.02686" lon="8.99525">
        <ele>865</ele>
        <time>2021-08-02T10:00:38.310Z</time>
      </trkpt>
      <trkpt lat="47.02686" lon="8.99523">
        <ele>865</ele>
        <time>2021-08-02T10:00:39.310Z</time>
      </trkpt>
      <trkpt lat="47.02685" lon="8.99521">
        <ele>864</ele>
        <time>2021-08-02T10:00:40.310Z</time>
      </trkpt>
      <trkpt lat="47.02684" lon="8.9952">
        <ele>864</ele>
        <time>2021-08-02T10:00:41.310Z</time>
      </trkpt>
      <trkpt lat="47.02683" lon="8.99518">
        <ele>863</ele>
        <time>2021-08-02T10:00:42.310Z</time>
      </trkpt>
      <trkpt lat="47.02682" lon="8.99516">
        <ele>863</ele>
        <time>2021-08-02T10:00:43.310Z</time>
      </trkpt>
      <trkpt lat="47.02682" lon="8.99515">
        <ele>862</ele>
        <time>2021-08-02T10:00:44.310Z</time>
      </trkpt>
      <trkpt lat="47.02682" lon="8.99513">
        <ele>861</ele>
        <time>2021-08-02T10:00:45.310Z</time>
      </trkpt>
      <trkpt lat="47.02682" lon="8.99512">
        <ele>860</ele>
        <time>2021-08-02T10:00:46.311Z</time>
      </trkpt>
      <trkpt lat="47.02682" lon="8.9951">
        <ele>860</ele>
        <time>2021-08-02T10:00:47.310Z</time>
      </trkpt>
      <trkpt lat="47.02681" lon="8.99507">
        <ele>860</ele>
        <time>2021-08-02T10:00:48.310Z</time>
      </trkpt>
      <trkpt lat="47.02681" lon="8.99506">
        <ele>860</ele>
        <time>2021-08-02T10:00:49.310Z</time>
      </trkpt>
      <trkpt lat="47.0268" lon="8.99505">
        <ele>860</ele>
        <time>2021-08-02T10:00:50.310Z</time>
      </trkpt>
      <trkpt lat="47.0268" lon="8.99504">
        <ele>859</ele>
        <time>2021-08-02T10:00:51.311Z</time>
      </trkpt>
      <trkpt lat="47.02679" lon="8.99502">
        <ele>859</ele>
        <time>2021-08-02T10:00:52.310Z</time>
      </trkpt>
      <trkpt lat="47.02678" lon="8.99501">
        <ele>859</ele>
        <time>2021-08-02T10:00:53.310Z</time>
      </trkpt>
      <trkpt lat="47.02677" lon="8.995">
        <ele>859</ele>
        <time>2021-08-02T10:00:54.310Z</time>
      </trkpt>
      <trkpt lat="47.02675" lon="8.99497">
        <ele>858</ele>
        <time>2021-08-02T10:00:55.310Z</time>
      </trkpt>
      <trkpt lat="47.02675" lon="8.99496">
        <ele>859</ele>
        <time>2021-08-02T10:00:56.310Z</time>
      </trkpt>
      <trkpt lat="47.02675" lon="8.99493">
        <ele>859</ele>
        <time>2021-08-02T10:00:57.310Z</time>
      </trkpt>
      <trkpt lat="47.02675" lon="8.99492">
        <ele>859</ele>
        <time>2021-08-02T10:00:58.310Z</time>
      </trkpt>
      <trkpt lat="47.02674" lon="8.99491">
        <ele>859</ele>
        <time>2021-08-02T10:00:59.310Z</time>
      </trkpt>
      <trkpt lat="47.02674" lon="8.99489">
        <ele>858</ele>
        <time>2021-08-02T10:01:00.310Z</time>
      </trkpt>
      <trkpt lat="47.02673" lon="8.99488">
        <ele>858</ele>
        <time>2021-08-02T10:01:01.311Z</time>
      </trkpt>
      <trkpt lat="47.02673" lon="8.99487">
        <ele>857</ele>
        <time>2021-08-02T10:01:02.310Z</time>
      </trkpt>
      <trkpt lat="47.02673" lon="8.99485">
        <ele>857</ele>
        <time>2021-08-02T10:01:03.310Z</time>
      </trkpt>
      <trkpt lat="47.02672" lon="8.99484">
        <ele>857</ele>
        <time>2021-08-02T10:01:04.310Z</time>
      </trkpt>
      <trkpt lat="47.02671" lon="8.99482">
        <ele>857</ele>
        <time>2021-08-02T10:01:05.310Z</time>
      </trkpt>
      <trkpt lat="47.0267" lon="8.99481">
        <ele>857</ele>
        <time>2021-08-02T10:01:06.311Z</time>
      </trkpt>
      <trkpt lat="47.02668" lon="8.9948">
        <ele>857</ele>
        <time>2021-08-02T10:01:07.310Z</time>
      </trkpt>
      <trkpt lat="47.02667" lon="8.99479">
        <ele>856</ele>
        <time>2021-08-02T10:01:08.310Z</time>
      </trkpt>
      <trkpt lat="47.02667" lon="8.99478">
        <ele>856</ele>
        <time>2021-08-02T10:01:09.310Z</time>
      </trkpt>
      <trkpt lat="47.02666" lon="8.99476">
        <ele>856</ele>
        <time>2021-08-02T10:01:10.310Z</time>
      </trkpt>
      <trkpt lat="47.02666" lon="8.99474">
        <ele>855</ele>
        <time>2021-08-02T10:01:11.310Z</time>
      </trkpt>
      <trkpt lat="47.02665" lon="8.99473">
        <ele>855</ele>
        <time>2021-08-02T10:01:12.310Z</time>
      </trkpt>
      <trkpt lat="47.02665" lon="8.99471">
        <ele>855</ele>
        <time>2021-08-02T10:01:13.310Z</time>
      </trkpt>
      <trkpt lat="47.02665" lon="8.99469">
        <ele>855</ele>
        <time>2021-08-02T10:01:14.311Z</time>
      </trkpt>
      <trkpt lat="47.02664" lon="8.99467">
        <ele>855</ele>
        <time>2021-08-02T10:01:15.310Z</time>
      </trkpt>
      <trkpt lat="47.02663" lon="8.99465">
        <ele>855</ele>
        <time>2021-08-02T10:01:16.310Z</time>
      </trkpt>
      <trkpt lat="47.02663" lon="8.99464">
        <ele>855</ele>
        <time>2021-08-02T10:01:17.310Z</time>
      </trkpt>
      <trkpt lat="47.02662" lon="8.99462">
        <ele>856</ele>
        <time>2021-08-02T10:01:18.310Z</time>
      </trkpt>
      <trkpt lat="47.02662" lon="8.9946">
        <ele>856</ele>
        <time>2021-08-02T10:01:19.310Z</time>
      </trkpt>
      <trkpt lat="47.02662" lon="8.99458">
        <ele>856</ele>
        <time>2021-08-02T10:01:20.310Z</time>
      </trkpt>
      <trkpt lat="47.02662" lon="8.99456">
        <ele>856</ele>
        <time>2021-08-02T10:01:21.310Z</time>
      </trkpt>
      <trkpt lat="47.02661" lon="8.99454">
        <ele>856</ele>
        <time>2021-08-02T10:01:22.310Z</time>
      </trkpt>
      <trkpt lat="47.0266" lon="8.99452">
        <ele>857</ele>
        <time>2021-08-02T10:01:23.310Z</time>
      </trkpt>
      <trkpt lat="47.0266" lon="8.99449">
        <ele>857</ele>
        <time>2021-08-02T10:01:24.310Z</time>
      </trkpt>
      <trkpt lat="47.02659" lon="8.99447">
        <ele>857</ele>
        <time>2021-08-02T10:01:25.310Z</time>
      </trkpt>
      <trkpt lat="47.02659" lon="8.99445">
        <ele>857</ele>
        <time>2021-08-02T10:01:26.310Z</time>
      </trkpt>
      <trkpt lat="47.02659" lon="8.99444">
        <ele>857</ele>
        <time>2021-08-02T10:01:27.311Z</time>
      </trkpt>
      <trkpt lat="47.02659" lon="8.99441">
        <ele>857</ele>
        <time>2021-08-02T10:01:28.310Z</time>
      </trkpt>
      <trkpt lat="47.0266" lon="8.99438">
        <ele>857</ele>
        <time>2021-08-02T10:01:29.311Z</time>
      </trkpt>
      <trkpt lat="47.02659" lon="8.99436">
        <ele>857</ele>
        <time>2021-08-02T10:01:30.310Z</time>
      </trkpt>
      <trkpt lat="47.02659" lon="8.99434">
        <ele>857</ele>
        <time>2021-08-02T10:01:31.310Z</time>
      </trkpt>
      <trkpt lat="47.02658" lon="8.99431">
        <ele>857</ele>
        <time>2021-08-02T10:01:32.310Z</time>
      </trkpt>
      <trkpt lat="47.02657" lon="8.99429">
        <ele>857</ele>
        <time>2021-08-02T10:01:33.310Z</time>
      </trkpt>
      <trkpt lat="47.02657" lon="8.99428">
        <ele>857</ele>
        <time>2021-08-02T10:01:34.310Z</time>
      </trkpt>
      <trkpt lat="47.02657" lon="8.99426">
        <ele>857</ele>
        <time>2021-08-02T10:01:35.310Z</time>
      </trkpt>
      <trkpt lat="47.02657" lon="8.99426">
        <ele>857</ele>
        <time>2021-08-02T10:01:36.311Z</time>
      </trkpt>
      <trkpt lat="47.02657" lon="8.99426">
        <ele>857</ele>
        <time>2021-08-02T10:01:37.311Z</time>
      </trkpt>
      <trkpt lat="47.02656" lon="8.99427">
        <ele>856</ele>
        <time>2021-08-02T10:01:38.311Z</time>
      </trkpt>
      <trkpt lat="47.02655" lon="8.99428">
        <ele>856</ele>
        <time>2021-08-02T10:01:39.311Z</time>
      </trkpt>
      <trkpt lat="47.02656" lon="8.99424">
        <ele>856</ele>
        <time>2021-08-02T10:01:40.312Z</time>
      </trkpt>
      <trkpt lat="47.02657" lon="8.99423">
        <ele>856</ele>
        <time>2021-08-02T10:01:41.311Z</time>
      </trkpt>
      <trkpt lat="47.02657" lon="8.99421">
        <ele>856</ele>
        <time>2021-08-02T10:01:42.311Z</time>
      </trkpt>
      <trkpt lat="47.02657" lon="8.99419">
        <ele>855</ele>
        <time>2021-08-02T10:01:43.311Z</time>
      </trkpt>
      <trkpt lat="47.02658" lon="8.99417">
        <ele>855</ele>
        <time>2021-08-02T10:01:44.311Z</time>
      </trkpt>
      <trkpt lat="47.02658" lon="8.99416">
        <ele>854</ele>
        <time>2021-08-02T10:01:45.312Z</time>
      </trkpt>
      <trkpt lat="47.02658" lon="8.99414">
        <ele>853</ele>
        <time>2021-08-02T10:01:46.311Z</time>
      </trkpt>
      <trkpt lat="47.02659" lon="8.99412">
        <ele>853</ele>
        <time>2021-08-02T10:01:47.312Z</time>
      </trkpt>
      <trkpt lat="47.02659" lon="8.99411">
        <ele>853</ele>
        <time>2021-08-02T10:01:48.312Z</time>
      </trkpt>
      <trkpt lat="47.0266" lon="8.99409">
        <ele>853</ele>
        <time>2021-08-02T10:01:49.311Z</time>
      </trkpt>
      <trkpt lat="47.0266" lon="8.99407">
        <ele>852</ele>
        <time>2021-08-02T10:01:50.311Z</time>
      </trkpt>
      <trkpt lat="47.0266" lon="8.99406">
        <ele>852</ele>
        <time>2021-08-02T10:01:51.311Z</time>
      </trkpt>
      <trkpt lat="47.02661" lon="8.99404">
        <ele>851</ele>
        <time>2021-08-02T10:01:52.311Z</time>
      </trkpt>
      <trkpt lat="47.02661" lon="8.99403">
        <ele>851</ele>
        <time>2021-08-02T10:01:53.311Z</time>
      </trkpt>
      <trkpt lat="47.02661" lon="8.99401">
        <ele>851</ele>
        <time>2021-08-02T10:01:54.311Z</time>
      </trkpt>
      <trkpt lat="47.02662" lon="8.994">
        <ele>851</ele>
        <time>2021-08-02T10:01:55.311Z</time>
      </trkpt>
      <trkpt lat="47.02662" lon="8.99398">
        <ele>851</ele>
        <time>2021-08-02T10:01:56.311Z</time>
      </trkpt>
      <trkpt lat="47.02663" lon="8.99396">
        <ele>851</ele>
        <time>2021-08-02T10:01:57.311Z</time>
      </trkpt>
      <trkpt lat="47.02663" lon="8.99395">
        <ele>851</ele>
        <time>2021-08-02T10:01:58.312Z</time>
      </trkpt>
      <trkpt lat="47.02663" lon="8.99393">
        <ele>852</ele>
        <time>2021-08-02T10:01:59.311Z</time>
      </trkpt>
      <trkpt lat="47.02664" lon="8.99391">
        <ele>852</ele>
        <time>2021-08-02T10:02:00.311Z</time>
      </trkpt>
      <trkpt lat="47.02664" lon="8.99389">
        <ele>852</ele>
        <time>2021-08-02T10:02:01.311Z</time>
      </trkpt>
      <trkpt lat="47.02664" lon="8.99388">
        <ele>853</ele>
        <time>2021-08-02T10:02:02.312Z</time>
      </trkpt>
      <trkpt lat="47.02665" lon="8.99386">
        <ele>853</ele>
        <time>2021-08-02T10:02:03.311Z</time>
      </trkpt>
      <trkpt lat="47.02665" lon="8.99384">
        <ele>853</ele>
        <time>2021-08-02T10:02:04.312Z</time>
      </trkpt>
      <trkpt lat="47.02666" lon="8.99382">
        <ele>852</ele>
        <time>2021-08-02T10:02:05.311Z</time>
      </trkpt>
      <trkpt lat="47.02666" lon="8.99381">
        <ele>852</ele>
        <time>2021-08-02T10:02:06.311Z</time>
      </trkpt>
      <trkpt lat="47.02666" lon="8.99379">
        <ele>853</ele>
        <time>2021-08-02T10:02:07.311Z</time>
      </trkpt>
      <trkpt lat="47.02667" lon="8.99377">
        <ele>853</ele>
        <time>2021-08-02T10:02:08.311Z</time>
      </trkpt>
      <trkpt lat="47.02667" lon="8.99375">
        <ele>852</ele>
        <time>2021-08-02T10:02:09.312Z</time>
      </trkpt>
      <trkpt lat="47.02667" lon="8.99374">
        <ele>852</ele>
        <time>2021-08-02T10:02:10.311Z</time>
      </trkpt>
      <trkpt lat="47.02668" lon="8.99372">
        <ele>852</ele>
        <time>2021-08-02T10:02:11.311Z</time>
      </trkpt>
      <trkpt lat="47.02668" lon="8.99371">
        <ele>851</ele>
        <time>2021-08-02T10:02:12.311Z</time>
      </trkpt>
      <trkpt lat="47.02668" lon="8.9937">
        <ele>850</ele>
        <time>2021-08-02T10:02:13.311Z</time>
      </trkpt>
      <trkpt lat="47.02668" lon="8.99368">
        <ele>850</ele>
        <time>2021-08-02T10:02:14.311Z</time>
      </trkpt>
      <trkpt lat="47.02668" lon="8.99367">
        <ele>849</ele>
        <time>2021-08-02T10:02:15.311Z</time>
      </trkpt>
      <trkpt lat="47.02668" lon="8.99365">
        <ele>849</ele>
        <time>2021-08-02T10:02:16.312Z</time>
      </trkpt>
      <trkpt lat="47.02668" lon="8.99363">
        <ele>849</ele>
        <time>2021-08-02T10:02:17.311Z</time>
      </trkpt>
      <trkpt lat="47.02669" lon="8.99361">
        <ele>849</ele>
        <time>2021-08-02T10:02:18.311Z</time>
      </trkpt>
      <trkpt lat="47.02669" lon="8.99359">
        <ele>849</ele>
        <time>2021-08-02T10:02:19.311Z</time>
      </trkpt>
      <trkpt lat="47.02669" lon="8.99357">
        <ele>849</ele>
        <time>2021-08-02T10:02:20.311Z</time>
      </trkpt>
      <trkpt lat="47.02669" lon="8.99356">
        <ele>849</ele>
        <time>2021-08-02T10:02:21.311Z</time>
      </trkpt>
      <trkpt lat="47.0267" lon="8.99354">
        <ele>849</ele>
        <time>2021-08-02T10:02:22.311Z</time>
      </trkpt>
      <trkpt lat="47.0267" lon="8.99352">
        <ele>849</ele>
        <time>2021-08-02T10:02:23.311Z</time>
      </trkpt>
      <trkpt lat="47.0267" lon="8.99351">
        <ele>849</ele>
        <time>2021-08-02T10:02:24.311Z</time>
      </trkpt>
      <trkpt lat="47.02671" lon="8.99349">
        <ele>849</ele>
        <time>2021-08-02T10:02:25.311Z</time>
      </trkpt>
      <trkpt lat="47.02671" lon="8.99347">
        <ele>849</ele>
        <time>2021-08-02T10:02:26.312Z</time>
      </trkpt>
      <trkpt lat="47.02672" lon="8.99345">
        <ele>849</ele>
        <time>2021-08-02T10:02:27.312Z</time>
      </trkpt>
      <trkpt lat="47.02672" lon="8.99343">
        <ele>849</ele>
        <time>2021-08-02T10:02:28.311Z</time>
      </trkpt>
      <trkpt lat="47.02673" lon="8.99341">
        <ele>848</ele>
        <time>2021-08-02T10:02:29.311Z</time>
      </trkpt>
      <trkpt lat="47.02673" lon="8.99338">
        <ele>848</ele>
        <time>2021-08-02T10:02:30.311Z</time>
      </trkpt>
      <trkpt lat="47.02674" lon="8.99336">
        <ele>847</ele>
        <time>2021-08-02T10:02:31.311Z</time>
      </trkpt>
      <trkpt lat="47.02674" lon="8.99334">
        <ele>847</ele>
        <time>2021-08-02T10:02:32.311Z</time>
      </trkpt>
      <trkpt lat="47.02674" lon="8.99332">
        <ele>847</ele>
        <time>2021-08-02T10:02:33.311Z</time>
      </trkpt>
      <trkpt lat="47.02673" lon="8.9933">
        <ele>846</ele>
        <time>2021-08-02T10:02:34.311Z</time>
      </trkpt>
      <trkpt lat="47.02673" lon="8.99328">
        <ele>846</ele>
        <time>2021-08-02T10:02:35.311Z</time>
      </trkpt>
      <trkpt lat="47.02673" lon="8.99326">
        <ele>846</ele>
        <time>2021-08-02T10:02:37.403Z</time>
      </trkpt>
      <trkpt lat="47.02673" lon="8.99325">
        <ele>846</ele>
        <time>2021-08-02T10:02:41.158Z</time>
      </trkpt>
      <trkpt lat="47.02673" lon="8.99323">
        <ele>847</ele>
        <time>2021-08-02T10:02:42.157Z</time>
      </trkpt>
      <trkpt lat="47.02673" lon="8.99321">
        <ele>847</ele>
        <time>2021-08-02T10:02:43.158Z</time>
      </trkpt>
      <trkpt lat="47.02673" lon="8.99319">
        <ele>846</ele>
        <time>2021-08-02T10:03:09.922Z</time>
      </trkpt>
      <trkpt lat="47.02673" lon="8.99318">
        <ele>846</ele>
        <time>2021-08-02T10:03:10.922Z</time>
      </trkpt>
      <trkpt lat="47.02672" lon="8.99316">
        <ele>846</ele>
        <time>2021-08-02T10:03:11.922Z</time>
      </trkpt>
      <trkpt lat="47.02672" lon="8.99314">
        <ele>846</ele>
        <time>2021-08-02T10:03:12.923Z</time>
      </trkpt>
      <trkpt lat="47.02672" lon="8.99312">
        <ele>846</ele>
        <time>2021-08-02T10:03:13.922Z</time>
      </trkpt>
      <trkpt lat="47.02671" lon="8.9931">
        <ele>847</ele>
        <time>2021-08-02T10:03:14.922Z</time>
      </trkpt>
      <trkpt lat="47.02671" lon="8.99309">
        <ele>847</ele>
        <time>2021-08-02T10:03:15.922Z</time>
      </trkpt>
      <trkpt lat="47.02671" lon="8.99307">
        <ele>847</ele>
        <time>2021-08-02T10:03:16.922Z</time>
      </trkpt>
      <trkpt lat="47.02671" lon="8.99305">
        <ele>847</ele>
        <time>2021-08-02T10:03:17.923Z</time>
      </trkpt>
      <trkpt lat="47.02672" lon="8.99303">
        <ele>847</ele>
        <time>2021-08-02T10:03:21.925Z</time>
      </trkpt>
      <trkpt lat="47.02672" lon="8.99301">
        <ele>847</ele>
        <time>2021-08-02T10:03:22.925Z</time>
      </trkpt>
      <trkpt lat="47.02672" lon="8.99299">
        <ele>847</ele>
        <time>2021-08-02T10:03:23.925Z</time>
      </trkpt>
      <trkpt lat="47.02672" lon="8.99297">
        <ele>847</ele>
        <time>2021-08-02T10:03:24.925Z</time>
      </trkpt>
      <trkpt lat="47.02672" lon="8.99295">
        <ele>847</ele>
        <time>2021-08-02T10:03:25.925Z</time>
      </trkpt>
      <trkpt lat="47.02672" lon="8.99294">
        <ele>847</ele>
        <time>2021-08-02T10:03:26.925Z</time>
      </trkpt>
      <trkpt lat="47.02671" lon="8.99292">
        <ele>847</ele>
        <time>2021-08-02T10:03:27.925Z</time>
      </trkpt>
      <trkpt lat="47.02672" lon="8.9929">
        <ele>847</ele>
        <time>2021-08-02T10:03:28.925Z</time>
      </trkpt>
      <trkpt lat="47.02672" lon="8.99288">
        <ele>848</ele>
        <time>2021-08-02T10:03:29.925Z</time>
      </trkpt>
      <trkpt lat="47.02672" lon="8.99286">
        <ele>848</ele>
        <time>2021-08-02T10:03:30.925Z</time>
      </trkpt>
      <trkpt lat="47.02673" lon="8.99284">
        <ele>848</ele>
        <time>2021-08-02T10:03:31.925Z</time>
      </trkpt>
      <trkpt lat="47.02673" lon="8.99282">
        <ele>848</ele>
        <time>2021-08-02T10:03:32.925Z</time>
      </trkpt>
      <trkpt lat="47.02673" lon="8.9928">
        <ele>848</ele>
        <time>2021-08-02T10:03:33.925Z</time>
      </trkpt>
      <trkpt lat="47.02672" lon="8.99279">
        <ele>848</ele>
        <time>2021-08-02T10:03:34.925Z</time>
      </trkpt>
      <trkpt lat="47.02672" lon="8.99277">
        <ele>848</ele>
        <time>2021-08-02T10:03:35.925Z</time>
      </trkpt>
      <trkpt lat="47.02672" lon="8.99276">
        <ele>848</ele>
        <time>2021-08-02T10:03:36.925Z</time>
      </trkpt>
      <trkpt lat="47.02672" lon="8.99274">
        <ele>848</ele>
        <time>2021-08-02T10:03:37.925Z</time>
      </trkpt>
      <trkpt lat="47.02672" lon="8.99272">
        <ele>848</ele>
        <time>2021-08-02T10:03:38.925Z</time>
      </trkpt>
      <trkpt lat="47.02673" lon="8.99271">
        <ele>848</ele>
        <time>2021-08-02T10:03:39.925Z</time>
      </trkpt>
      <trkpt lat="47.02673" lon="8.99268">
        <ele>848</ele>
        <time>2021-08-02T10:03:40.925Z</time>
      </trkpt>
      <trkpt lat="47.02674" lon="8.99267">
        <ele>849</ele>
        <time>2021-08-02T10:03:41.925Z</time>
      </trkpt>
      <trkpt lat="47.02674" lon="8.99265">
        <ele>849</ele>
        <time>2021-08-02T10:03:42.925Z</time>
      </trkpt>
      <trkpt lat="47.02675" lon="8.99263">
        <ele>849</ele>
        <time>2021-08-02T10:03:43.925Z</time>
      </trkpt>
      <trkpt lat="47.02675" lon="8.99262">
        <ele>849</ele>
        <time>2021-08-02T10:03:44.925Z</time>
      </trkpt>
      <trkpt lat="47.02676" lon="8.9926">
        <ele>849</ele>
        <time>2021-08-02T10:03:45.925Z</time>
      </trkpt>
      <trkpt lat="47.02676" lon="8.99258">
        <ele>849</ele>
        <time>2021-08-02T10:03:46.925Z</time>
      </trkpt>
      <trkpt lat="47.02677" lon="8.99257">
        <ele>849</ele>
        <time>2021-08-02T10:03:47.925Z</time>
      </trkpt>
      <trkpt lat="47.02677" lon="8.99255">
        <ele>849</ele>
        <time>2021-08-02T10:03:48.925Z</time>
      </trkpt>
      <trkpt lat="47.02678" lon="8.99254">
        <ele>848</ele>
        <time>2021-08-02T10:03:49.925Z</time>
      </trkpt>
      <trkpt lat="47.02679" lon="8.99253">
        <ele>849</ele>
        <time>2021-08-02T10:03:50.925Z</time>
      </trkpt>
      <trkpt lat="47.0268" lon="8.99252">
        <ele>849</ele>
        <time>2021-08-02T10:03:51.925Z</time>
      </trkpt>
      <trkpt lat="47.0268" lon="8.99251">
        <ele>849</ele>
        <time>2021-08-02T10:03:52.925Z</time>
      </trkpt>
      <trkpt lat="47.0268" lon="8.9925">
        <ele>850</ele>
        <time>2021-08-02T10:03:53.925Z</time>
      </trkpt>
      <trkpt lat="47.0268" lon="8.99249">
        <ele>850</ele>
        <time>2021-08-02T10:03:54.925Z</time>
      </trkpt>
      <trkpt lat="47.0268" lon="8.99248">
        <ele>851</ele>
        <time>2021-08-02T10:03:55.925Z</time>
      </trkpt>
      <trkpt lat="47.0268" lon="8.99248">
        <ele>852</ele>
        <time>2021-08-02T10:03:56.925Z</time>
      </trkpt>
      <trkpt lat="47.02682" lon="8.99248">
        <ele>854</ele>
        <time>2021-08-02T10:04:02.044Z</time>
      </trkpt>
      <trkpt lat="47.02683" lon="8.99247">
        <ele>853</ele>
        <time>2021-08-02T10:04:03.045Z</time>
      </trkpt>
      <trkpt lat="47.02684" lon="8.99246">
        <ele>853</ele>
        <time>2021-08-02T10:04:10.809Z</time>
      </trkpt>
      <trkpt lat="47.02685" lon="8.99244">
        <ele>852</ele>
        <time>2021-08-02T10:04:11.809Z</time>
      </trkpt>
      <trkpt lat="47.02686" lon="8.99243">
        <ele>852</ele>
        <time>2021-08-02T10:04:12.809Z</time>
      </trkpt>
      <trkpt lat="47.02686" lon="8.99242">
        <ele>852</ele>
        <time>2021-08-02T10:04:13.809Z</time>
      </trkpt>
      <trkpt lat="47.02687" lon="8.9924">
        <ele>852</ele>
        <time>2021-08-02T10:04:14.809Z</time>
      </trkpt>
      <trkpt lat="47.02688" lon="8.99239">
        <ele>851</ele>
        <time>2021-08-02T10:04:15.809Z</time>
      </trkpt>
      <trkpt lat="47.02688" lon="8.99237">
        <ele>851</ele>
        <time>2021-08-02T10:04:16.809Z</time>
      </trkpt>
      <trkpt lat="47.02689" lon="8.99236">
        <ele>851</ele>
        <time>2021-08-02T10:04:17.809Z</time>
      </trkpt>
      <trkpt lat="47.02689" lon="8.99234">
        <ele>850</ele>
        <time>2021-08-02T10:04:18.810Z</time>
      </trkpt>
      <trkpt lat="47.0269" lon="8.99233">
        <ele>850</ele>
        <time>2021-08-02T10:04:19.809Z</time>
      </trkpt>
      <trkpt lat="47.0269" lon="8.99231">
        <ele>850</ele>
        <time>2021-08-02T10:04:20.809Z</time>
      </trkpt>
      <trkpt lat="47.02691" lon="8.99229">
        <ele>849</ele>
        <time>2021-08-02T10:04:21.810Z</time>
      </trkpt>
      <trkpt lat="47.02692" lon="8.99227">
        <ele>849</ele>
        <time>2021-08-02T10:04:22.809Z</time>
      </trkpt>
      <trkpt lat="47.02693" lon="8.99226">
        <ele>849</ele>
        <time>2021-08-02T10:04:23.809Z</time>
      </trkpt>
      <trkpt lat="47.02694" lon="8.99224">
        <ele>848</ele>
        <time>2021-08-02T10:04:24.809Z</time>
      </trkpt>
      <trkpt lat="47.02694" lon="8.99222">
        <ele>848</ele>
        <time>2021-08-02T10:04:25.810Z</time>
      </trkpt>
      <trkpt lat="47.02695" lon="8.9922">
        <ele>847</ele>
        <time>2021-08-02T10:04:26.809Z</time>
      </trkpt>
      <trkpt lat="47.02696" lon="8.99218">
        <ele>846</ele>
        <time>2021-08-02T10:04:27.809Z</time>
      </trkpt>
      <trkpt lat="47.02696" lon="8.99216">
        <ele>846</ele>
        <time>2021-08-02T10:04:28.810Z</time>
      </trkpt>
      <trkpt lat="47.02696" lon="8.99214">
        <ele>846</ele>
        <time>2021-08-02T10:04:29.809Z</time>
      </trkpt>
      <trkpt lat="47.02696" lon="8.99213">
        <ele>847</ele>
        <time>2021-08-02T10:04:30.810Z</time>
      </trkpt>
      <trkpt lat="47.02697" lon="8.99211">
        <ele>847</ele>
        <time>2021-08-02T10:04:31.809Z</time>
      </trkpt>
      <trkpt lat="47.02697" lon="8.9921">
        <ele>848</ele>
        <time>2021-08-02T10:04:32.809Z</time>
      </trkpt>
      <trkpt lat="47.02698" lon="8.99209">
        <ele>848</ele>
        <time>2021-08-02T10:04:33.810Z</time>
      </trkpt>
      <trkpt lat="47.02699" lon="8.99207">
        <ele>849</ele>
        <time>2021-08-02T10:04:34.810Z</time>
      </trkpt>
      <trkpt lat="47.02699" lon="8.99206">
        <ele>849</ele>
        <time>2021-08-02T10:04:35.809Z</time>
      </trkpt>
      <trkpt lat="47.027" lon="8.99204">
        <ele>849</ele>
        <time>2021-08-02T10:04:36.810Z</time>
      </trkpt>
      <trkpt lat="47.027" lon="8.99203">
        <ele>848</ele>
        <time>2021-08-02T10:04:37.809Z</time>
      </trkpt>
      <trkpt lat="47.02701" lon="8.99201">
        <ele>848</ele>
        <time>2021-08-02T10:04:38.809Z</time>
      </trkpt>
      <trkpt lat="47.02701" lon="8.992">
        <ele>848</ele>
        <time>2021-08-02T10:04:39.809Z</time>
      </trkpt>
      <trkpt lat="47.02701" lon="8.99199">
        <ele>848</ele>
        <time>2021-08-02T10:04:40.809Z</time>
      </trkpt>
      <trkpt lat="47.02702" lon="8.99197">
        <ele>848</ele>
        <time>2021-08-02T10:04:41.809Z</time>
      </trkpt>
      <trkpt lat="47.02702" lon="8.99195">
        <ele>848</ele>
        <time>2021-08-02T10:04:42.809Z</time>
      </trkpt>
      <trkpt lat="47.02703" lon="8.99194">
        <ele>848</ele>
        <time>2021-08-02T10:04:43.809Z</time>
      </trkpt>
      <trkpt lat="47.02703" lon="8.99192">
        <ele>848</ele>
        <time>2021-08-02T10:04:44.809Z</time>
      </trkpt>
      <trkpt lat="47.02704" lon="8.9919">
        <ele>849</ele>
        <time>2021-08-02T10:04:45.809Z</time>
      </trkpt>
      <trkpt lat="47.02704" lon="8.99189">
        <ele>849</ele>
        <time>2021-08-02T10:04:46.810Z</time>
      </trkpt>
      <trkpt lat="47.02705" lon="8.99187">
        <ele>849</ele>
        <time>2021-08-02T10:04:47.809Z</time>
      </trkpt>
      <trkpt lat="47.02705" lon="8.99185">
        <ele>848</ele>
        <time>2021-08-02T10:04:48.809Z</time>
      </trkpt>
      <trkpt lat="47.02705" lon="8.99183">
        <ele>848</ele>
        <time>2021-08-02T10:04:49.809Z</time>
      </trkpt>
      <trkpt lat="47.02705" lon="8.99182">
        <ele>848</ele>
        <time>2021-08-02T10:04:50.810Z</time>
      </trkpt>
      <trkpt lat="47.02706" lon="8.9918">
        <ele>848</ele>
        <time>2021-08-02T10:04:51.809Z</time>
      </trkpt>
      <trkpt lat="47.02706" lon="8.99178">
        <ele>847</ele>
        <time>2021-08-02T10:04:52.809Z</time>
      </trkpt>
      <trkpt lat="47.02706" lon="8.99176">
        <ele>847</ele>
        <time>2021-08-02T10:04:53.809Z</time>
      </trkpt>
      <trkpt lat="47.02707" lon="8.99174">
        <ele>847</ele>
        <time>2021-08-02T10:04:54.809Z</time>
      </trkpt>
      <trkpt lat="47.02708" lon="8.99172">
        <ele>847</ele>
        <time>2021-08-02T10:04:55.809Z</time>
      </trkpt>
      <trkpt lat="47.02709" lon="8.9917">
        <ele>847</ele>
        <time>2021-08-02T10:04:56.810Z</time>
      </trkpt>
      <trkpt lat="47.02709" lon="8.99167">
        <ele>847</ele>
        <time>2021-08-02T10:04:57.809Z</time>
      </trkpt>
      <trkpt lat="47.02709" lon="8.99165">
        <ele>847</ele>
        <time>2021-08-02T10:04:58.809Z</time>
      </trkpt>
      <trkpt lat="47.0271" lon="8.99163">
        <ele>847</ele>
        <time>2021-08-02T10:04:59.809Z</time>
      </trkpt>
      <trkpt lat="47.0271" lon="8.99161">
        <ele>847</ele>
        <time>2021-08-02T10:05:00.809Z</time>
      </trkpt>
      <trkpt lat="47.0271" lon="8.99159">
        <ele>847</ele>
        <time>2021-08-02T10:05:01.810Z</time>
      </trkpt>
      <trkpt lat="47.0271" lon="8.99157">
        <ele>848</ele>
        <time>2021-08-02T10:05:02.809Z</time>
      </trkpt>
      <trkpt lat="47.02711" lon="8.99156">
        <ele>848</ele>
        <time>2021-08-02T10:05:03.809Z</time>
      </trkpt>
      <trkpt lat="47.02711" lon="8.99154">
        <ele>849</ele>
        <time>2021-08-02T10:05:04.809Z</time>
      </trkpt>
      <trkpt lat="47.0271" lon="8.99152">
        <ele>850</ele>
        <time>2021-08-02T10:05:05.810Z</time>
      </trkpt>
      <trkpt lat="47.0271" lon="8.9915">
        <ele>850</ele>
        <time>2021-08-02T10:05:06.810Z</time>
      </trkpt>
      <trkpt lat="47.0271" lon="8.99148">
        <ele>850</ele>
        <time>2021-08-02T10:05:07.809Z</time>
      </trkpt>
      <trkpt lat="47.0271" lon="8.99147">
        <ele>850</ele>
        <time>2021-08-02T10:05:08.809Z</time>
      </trkpt>
      <trkpt lat="47.0271" lon="8.99145">
        <ele>850</ele>
        <time>2021-08-02T10:05:09.809Z</time>
      </trkpt>
      <trkpt lat="47.0271" lon="8.99143">
        <ele>849</ele>
        <time>2021-08-02T10:05:10.809Z</time>
      </trkpt>
      <trkpt lat="47.0271" lon="8.99142">
        <ele>849</ele>
        <time>2021-08-02T10:05:11.809Z</time>
      </trkpt>
      <trkpt lat="47.0271" lon="8.9914">
        <ele>848</ele>
        <time>2021-08-02T10:05:12.809Z</time>
      </trkpt>
      <trkpt lat="47.0271" lon="8.99138">
        <ele>848</ele>
        <time>2021-08-02T10:05:13.809Z</time>
      </trkpt>
      <trkpt lat="47.0271" lon="8.99136">
        <ele>848</ele>
        <time>2021-08-02T10:05:14.809Z</time>
      </trkpt>
      <trkpt lat="47.0271" lon="8.99135">
        <ele>849</ele>
        <time>2021-08-02T10:05:15.809Z</time>
      </trkpt>
      <trkpt lat="47.0271" lon="8.99133">
        <ele>849</ele>
        <time>2021-08-02T10:05:16.809Z</time>
      </trkpt>
      <trkpt lat="47.0271" lon="8.99131">
        <ele>850</ele>
        <time>2021-08-02T10:05:17.809Z</time>
      </trkpt>
      <trkpt lat="47.0271" lon="8.99129">
        <ele>850</ele>
        <time>2021-08-02T10:05:18.809Z</time>
      </trkpt>
      <trkpt lat="47.0271" lon="8.99127">
        <ele>851</ele>
        <time>2021-08-02T10:05:19.809Z</time>
      </trkpt>
      <trkpt lat="47.0271" lon="8.99126">
        <ele>852</ele>
        <time>2021-08-02T10:05:20.809Z</time>
      </trkpt>
      <trkpt lat="47.0271" lon="8.99124">
        <ele>852</ele>
        <time>2021-08-02T10:05:21.809Z</time>
      </trkpt>
      <trkpt lat="47.0271" lon="8.99123">
        <ele>853</ele>
        <time>2021-08-02T10:05:22.810Z</time>
      </trkpt>
      <trkpt lat="47.0271" lon="8.99121">
        <ele>854</ele>
        <time>2021-08-02T10:05:23.809Z</time>
      </trkpt>
      <trkpt lat="47.02709" lon="8.99119">
        <ele>855</ele>
        <time>2021-08-02T10:05:24.810Z</time>
      </trkpt>
      <trkpt lat="47.02709" lon="8.99118">
        <ele>856</ele>
        <time>2021-08-02T10:05:25.809Z</time>
      </trkpt>
      <trkpt lat="47.02709" lon="8.99116">
        <ele>856</ele>
        <time>2021-08-02T10:05:26.809Z</time>
      </trkpt>
      <trkpt lat="47.02709" lon="8.99114">
        <ele>857</ele>
        <time>2021-08-02T10:05:27.810Z</time>
      </trkpt>
      <trkpt lat="47.02708" lon="8.99112">
        <ele>858</ele>
        <time>2021-08-02T10:05:28.809Z</time>
      </trkpt>
      <trkpt lat="47.02708" lon="8.9911">
        <ele>858</ele>
        <time>2021-08-02T10:05:29.810Z</time>
      </trkpt>
      <trkpt lat="47.02709" lon="8.99107">
        <ele>857</ele>
        <time>2021-08-02T10:05:30.810Z</time>
      </trkpt>
      <trkpt lat="47.02708" lon="8.99105">
        <ele>857</ele>
        <time>2021-08-02T10:05:31.810Z</time>
      </trkpt>
      <trkpt lat="47.02708" lon="8.99104">
        <ele>857</ele>
        <time>2021-08-02T10:05:32.810Z</time>
      </trkpt>
      <trkpt lat="47.02707" lon="8.99102">
        <ele>857</ele>
        <time>2021-08-02T10:05:33.809Z</time>
      </trkpt>
      <trkpt lat="47.02707" lon="8.991">
        <ele>857</ele>
        <time>2021-08-02T10:05:34.810Z</time>
      </trkpt>
      <trkpt lat="47.02707" lon="8.99097">
        <ele>857</ele>
        <time>2021-08-02T10:05:35.810Z</time>
      </trkpt>
      <trkpt lat="47.02707" lon="8.99096">
        <ele>857</ele>
        <time>2021-08-02T10:05:36.810Z</time>
      </trkpt>
      <trkpt lat="47.02707" lon="8.99094">
        <ele>856</ele>
        <time>2021-08-02T10:05:37.810Z</time>
      </trkpt>
      <trkpt lat="47.02706" lon="8.99092">
        <ele>856</ele>
        <time>2021-08-02T10:05:38.810Z</time>
      </trkpt>
      <trkpt lat="47.02706" lon="8.9909">
        <ele>856</ele>
        <time>2021-08-02T10:05:39.810Z</time>
      </trkpt>
      <trkpt lat="47.02706" lon="8.99088">
        <ele>855</ele>
        <time>2021-08-02T10:05:40.810Z</time>
      </trkpt>
      <trkpt lat="47.02706" lon="8.99086">
        <ele>855</ele>
        <time>2021-08-02T10:05:41.809Z</time>
      </trkpt>
      <trkpt lat="47.02706" lon="8.99085">
        <ele>855</ele>
        <time>2021-08-02T10:05:42.810Z</time>
      </trkpt>
      <trkpt lat="47.02705" lon="8.99083">
        <ele>856</ele>
        <time>2021-08-02T10:05:43.810Z</time>
      </trkpt>
      <trkpt lat="47.02705" lon="8.99081">
        <ele>856</ele>
        <time>2021-08-02T10:05:44.810Z</time>
      </trkpt>
      <trkpt lat="47.02706" lon="8.99079">
        <ele>857</ele>
        <time>2021-08-02T10:05:49.910Z</time>
      </trkpt>
      <trkpt lat="47.02706" lon="8.99078">
        <ele>857</ele>
        <time>2021-08-02T10:05:51.814Z</time>
      </trkpt>
      <trkpt lat="47.02706" lon="8.99077">
        <ele>857</ele>
        <time>2021-08-02T10:05:52.814Z</time>
      </trkpt>
      <trkpt lat="47.02705" lon="8.99075">
        <ele>857</ele>
        <time>2021-08-02T10:06:01.570Z</time>
      </trkpt>
      <trkpt lat="47.02705" lon="8.99073">
        <ele>857</ele>
        <time>2021-08-02T10:06:02.570Z</time>
      </trkpt>
      <trkpt lat="47.02704" lon="8.99072">
        <ele>858</ele>
        <time>2021-08-02T10:06:03.570Z</time>
      </trkpt>
      <trkpt lat="47.02703" lon="8.9907">
        <ele>858</ele>
        <time>2021-08-02T10:06:16.660Z</time>
      </trkpt>
      <trkpt lat="47.02702" lon="8.99067">
        <ele>858</ele>
        <time>2021-08-02T10:06:17.659Z</time>
      </trkpt>
      <trkpt lat="47.02701" lon="8.99066">
        <ele>858</ele>
        <time>2021-08-02T10:06:18.659Z</time>
      </trkpt>
      <trkpt lat="47.02701" lon="8.99064">
        <ele>858</ele>
        <time>2021-08-02T10:06:19.659Z</time>
      </trkpt>
      <trkpt lat="47.02701" lon="8.99063">
        <ele>858</ele>
        <time>2021-08-02T10:06:23.681Z</time>
      </trkpt>
      <trkpt lat="47.027" lon="8.9906">
        <ele>858</ele>
        <time>2021-08-02T10:06:24.681Z</time>
      </trkpt>
      <trkpt lat="47.027" lon="8.99059">
        <ele>858</ele>
        <time>2021-08-02T10:06:25.681Z</time>
      </trkpt>
      <trkpt lat="47.027" lon="8.99057">
        <ele>858</ele>
        <time>2021-08-02T10:06:26.681Z</time>
      </trkpt>
      <trkpt lat="47.027" lon="8.99055">
        <ele>858</ele>
        <time>2021-08-02T10:06:27.681Z</time>
      </trkpt>
      <trkpt lat="47.02699" lon="8.99054">
        <ele>858</ele>
        <time>2021-08-02T10:06:38.795Z</time>
      </trkpt>
      <trkpt lat="47.02699" lon="8.99052">
        <ele>858</ele>
        <time>2021-08-02T10:06:39.795Z</time>
      </trkpt>
      <trkpt lat="47.02699" lon="8.99049">
        <ele>857</ele>
        <time>2021-08-02T10:06:40.796Z</time>
      </trkpt>
      <trkpt lat="47.02699" lon="8.99047">
        <ele>857</ele>
        <time>2021-08-02T10:06:41.795Z</time>
      </trkpt>
      <trkpt lat="47.02699" lon="8.99045">
        <ele>857</ele>
        <time>2021-08-02T10:06:46.942Z</time>
      </trkpt>
      <trkpt lat="47.02698" lon="8.99042">
        <ele>856</ele>
        <time>2021-08-02T10:06:47.941Z</time>
      </trkpt>
      <trkpt lat="47.02698" lon="8.99041">
        <ele>856</ele>
        <time>2021-08-02T10:06:48.942Z</time>
      </trkpt>
      <trkpt lat="47.02697" lon="8.99039">
        <ele>856</ele>
        <time>2021-08-02T10:06:49.941Z</time>
      </trkpt>
      <trkpt lat="47.02697" lon="8.99037">
        <ele>855</ele>
        <time>2021-08-02T10:06:50.942Z</time>
      </trkpt>
      <trkpt lat="47.02697" lon="8.99035">
        <ele>855</ele>
        <time>2021-08-02T10:06:51.941Z</time>
      </trkpt>
      <trkpt lat="47.02696" lon="8.99033">
        <ele>855</ele>
        <time>2021-08-02T10:06:52.941Z</time>
      </trkpt>
      <trkpt lat="47.02696" lon="8.99031">
        <ele>855</ele>
        <time>2021-08-02T10:06:53.941Z</time>
      </trkpt>
      <trkpt lat="47.02695" lon="8.99029">
        <ele>855</ele>
        <time>2021-08-02T10:06:54.941Z</time>
      </trkpt>
      <trkpt lat="47.02695" lon="8.99027">
        <ele>855</ele>
        <time>2021-08-02T10:06:59.075Z</time>
      </trkpt>
      <trkpt lat="47.02694" lon="8.99025">
        <ele>855</ele>
        <time>2021-08-02T10:07:00.075Z</time>
      </trkpt>
      <trkpt lat="47.02694" lon="8.99023">
        <ele>855</ele>
        <time>2021-08-02T10:07:01.075Z</time>
      </trkpt>
      <trkpt lat="47.02693" lon="8.99021">
        <ele>855</ele>
        <time>2021-08-02T10:07:05.212Z</time>
      </trkpt>
      <trkpt lat="47.02693" lon="8.99019">
        <ele>855</ele>
        <time>2021-08-02T10:07:06.212Z</time>
      </trkpt>
      <trkpt lat="47.02692" lon="8.99018">
        <ele>855</ele>
        <time>2021-08-02T10:07:07.212Z</time>
      </trkpt>
      <trkpt lat="47.02692" lon="8.99017">
        <ele>855</ele>
        <time>2021-08-02T10:07:08.213Z</time>
      </trkpt>
      <trkpt lat="47.02691" lon="8.99015">
        <ele>856</ele>
        <time>2021-08-02T10:07:09.212Z</time>
      </trkpt>
      <trkpt lat="47.02691" lon="8.99013">
        <ele>855</ele>
        <time>2021-08-02T10:07:10.212Z</time>
      </trkpt>
      <trkpt lat="47.0269" lon="8.99012">
        <ele>855</ele>
        <time>2021-08-02T10:07:11.213Z</time>
      </trkpt>
      <trkpt lat="47.02689" lon="8.9901">
        <ele>856</ele>
        <time>2021-08-02T10:07:12.212Z</time>
      </trkpt>
      <trkpt lat="47.02689" lon="8.99008">
        <ele>856</ele>
        <time>2021-08-02T10:07:13.212Z</time>
      </trkpt>
      <trkpt lat="47.02688" lon="8.99006">
        <ele>856</ele>
        <time>2021-08-02T10:07:14.212Z</time>
      </trkpt>
      <trkpt lat="47.02688" lon="8.99004">
        <ele>856</ele>
        <time>2021-08-02T10:07:15.212Z</time>
      </trkpt>
      <trkpt lat="47.02688" lon="8.99002">
        <ele>856</ele>
        <time>2021-08-02T10:07:16.212Z</time>
      </trkpt>
      <trkpt lat="47.02688" lon="8.99">
        <ele>856</ele>
        <time>2021-08-02T10:07:17.212Z</time>
      </trkpt>
      <trkpt lat="47.02687" lon="8.98998">
        <ele>856</ele>
        <time>2021-08-02T10:07:18.212Z</time>
      </trkpt>
      <trkpt lat="47.02687" lon="8.98996">
        <ele>855</ele>
        <time>2021-08-02T10:07:19.213Z</time>
      </trkpt>
      <trkpt lat="47.02686" lon="8.98993">
        <ele>855</ele>
        <time>2021-08-02T10:07:20.213Z</time>
      </trkpt>
      <trkpt lat="47.02685" lon="8.98992">
        <ele>855</ele>
        <time>2021-08-02T10:07:21.213Z</time>
      </trkpt>
      <trkpt lat="47.02685" lon="8.98991">
        <ele>855</ele>
        <time>2021-08-02T10:07:22.212Z</time>
      </trkpt>
      <trkpt lat="47.02684" lon="8.98989">
        <ele>855</ele>
        <time>2021-08-02T10:07:23.213Z</time>
      </trkpt>
      <trkpt lat="47.02683" lon="8.98988">
        <ele>855</ele>
        <time>2021-08-02T10:07:24.213Z</time>
      </trkpt>
      <trkpt lat="47.02683" lon="8.98986">
        <ele>855</ele>
        <time>2021-08-02T10:07:25.213Z</time>
      </trkpt>
      <trkpt lat="47.02683" lon="8.98984">
        <ele>855</ele>
        <time>2021-08-02T10:07:26.213Z</time>
      </trkpt>
      <trkpt lat="47.02683" lon="8.98983">
        <ele>854</ele>
        <time>2021-08-02T10:07:27.213Z</time>
      </trkpt>
      <trkpt lat="47.02682" lon="8.98981">
        <ele>854</ele>
        <time>2021-08-02T10:07:28.213Z</time>
      </trkpt>
      <trkpt lat="47.02682" lon="8.98979">
        <ele>854</ele>
        <time>2021-08-02T10:07:29.212Z</time>
      </trkpt>
      <trkpt lat="47.02681" lon="8.98977">
        <ele>853</ele>
        <time>2021-08-02T10:07:30.213Z</time>
      </trkpt>
      <trkpt lat="47.0268" lon="8.98975">
        <ele>853</ele>
        <time>2021-08-02T10:07:31.213Z</time>
      </trkpt>
      <trkpt lat="47.02679" lon="8.98973">
        <ele>854</ele>
        <time>2021-08-02T10:07:32.212Z</time>
      </trkpt>
      <trkpt lat="47.02678" lon="8.98971">
        <ele>854</ele>
        <time>2021-08-02T10:07:33.212Z</time>
      </trkpt>
      <trkpt lat="47.02677" lon="8.9897">
        <ele>854</ele>
        <time>2021-08-02T10:07:34.213Z</time>
      </trkpt>
      <trkpt lat="47.02676" lon="8.98968">
        <ele>855</ele>
        <time>2021-08-02T10:07:35.212Z</time>
      </trkpt>
      <trkpt lat="47.02675" lon="8.98966">
        <ele>855</ele>
        <time>2021-08-02T10:07:36.213Z</time>
      </trkpt>
      <trkpt lat="47.02674" lon="8.98964">
        <ele>854</ele>
        <time>2021-08-02T10:07:37.212Z</time>
      </trkpt>
      <trkpt lat="47.02672" lon="8.98961">
        <ele>854</ele>
        <time>2021-08-02T10:07:38.213Z</time>
      </trkpt>
      <trkpt lat="47.02671" lon="8.9896">
        <ele>854</ele>
        <time>2021-08-02T10:07:39.213Z</time>
      </trkpt>
      <trkpt lat="47.02671" lon="8.98959">
        <ele>855</ele>
        <time>2021-08-02T10:07:40.213Z</time>
      </trkpt>
      <trkpt lat="47.0267" lon="8.98957">
        <ele>854</ele>
        <time>2021-08-02T10:07:41.213Z</time>
      </trkpt>
      <trkpt lat="47.02669" lon="8.98956">
        <ele>854</ele>
        <time>2021-08-02T10:07:42.212Z</time>
      </trkpt>
      <trkpt lat="47.02668" lon="8.98955">
        <ele>854</ele>
        <time>2021-08-02T10:07:43.212Z</time>
      </trkpt>
      <trkpt lat="47.02666" lon="8.98955">
        <ele>853</ele>
        <time>2021-08-02T10:07:44.213Z</time>
      </trkpt>
      <trkpt lat="47.02664" lon="8.98954">
        <ele>853</ele>
        <time>2021-08-02T10:07:45.212Z</time>
      </trkpt>
      <trkpt lat="47.02663" lon="8.98953">
        <ele>853</ele>
        <time>2021-08-02T10:07:46.212Z</time>
      </trkpt>
      <trkpt lat="47.02661" lon="8.98952">
        <ele>853</ele>
        <time>2021-08-02T10:07:47.213Z</time>
      </trkpt>
      <trkpt lat="47.0266" lon="8.98951">
        <ele>853</ele>
        <time>2021-08-02T10:07:48.212Z</time>
      </trkpt>
      <trkpt lat="47.02659" lon="8.9895">
        <ele>853</ele>
        <time>2021-08-02T10:07:49.213Z</time>
      </trkpt>
      <trkpt lat="47.02658" lon="8.98949">
        <ele>853</ele>
        <time>2021-08-02T10:07:50.212Z</time>
      </trkpt>
      <trkpt lat="47.02657" lon="8.98948">
        <ele>853</ele>
        <time>2021-08-02T10:07:51.213Z</time>
      </trkpt>
      <trkpt lat="47.02656" lon="8.98947">
        <ele>853</ele>
        <time>2021-08-02T10:07:52.213Z</time>
      </trkpt>
      <trkpt lat="47.02654" lon="8.98946">
        <ele>854</ele>
        <time>2021-08-02T10:07:53.212Z</time>
      </trkpt>
      <trkpt lat="47.02653" lon="8.98945">
        <ele>854</ele>
        <time>2021-08-02T10:07:54.213Z</time>
      </trkpt>
      <trkpt lat="47.02652" lon="8.98944">
        <ele>854</ele>
        <time>2021-08-02T10:07:55.213Z</time>
      </trkpt>
      <trkpt lat="47.0265" lon="8.98943">
        <ele>854</ele>
        <time>2021-08-02T10:07:56.213Z</time>
      </trkpt>
      <trkpt lat="47.02649" lon="8.98943">
        <ele>854</ele>
        <time>2021-08-02T10:07:57.213Z</time>
      </trkpt>
      <trkpt lat="47.02648" lon="8.98943">
        <ele>854</ele>
        <time>2021-08-02T10:07:58.212Z</time>
      </trkpt>
      <trkpt lat="47.02647" lon="8.98942">
        <ele>854</ele>
        <time>2021-08-02T10:07:59.213Z</time>
      </trkpt>
      <trkpt lat="47.02646" lon="8.98942">
        <ele>854</ele>
        <time>2021-08-02T10:08:00.213Z</time>
      </trkpt>
      <trkpt lat="47.02645" lon="8.98941">
        <ele>854</ele>
        <time>2021-08-02T10:08:01.213Z</time>
      </trkpt>
      <trkpt lat="47.02645" lon="8.9894">
        <ele>854</ele>
        <time>2021-08-02T10:08:02.213Z</time>
      </trkpt>
      <trkpt lat="47.02644" lon="8.98939">
        <ele>854</ele>
        <time>2021-08-02T10:08:03.213Z</time>
      </trkpt>
      <trkpt lat="47.02643" lon="8.98938">
        <ele>854</ele>
        <time>2021-08-02T10:08:04.212Z</time>
      </trkpt>
      <trkpt lat="47.02642" lon="8.98937">
        <ele>855</ele>
        <time>2021-08-02T10:08:05.212Z</time>
      </trkpt>
      <trkpt lat="47.02641" lon="8.98936">
        <ele>855</ele>
        <time>2021-08-02T10:08:06.213Z</time>
      </trkpt>
      <trkpt lat="47.0264" lon="8.98936">
        <ele>856</ele>
        <time>2021-08-02T10:08:07.213Z</time>
      </trkpt>
      <trkpt lat="47.02637" lon="8.98933">
        <ele>856</ele>
        <time>2021-08-02T10:08:08.213Z</time>
      </trkpt>
      <trkpt lat="47.02635" lon="8.98931">
        <ele>857</ele>
        <time>2021-08-02T10:08:09.212Z</time>
      </trkpt>
      <trkpt lat="47.02634" lon="8.9893">
        <ele>857</ele>
        <time>2021-08-02T10:08:10.213Z</time>
      </trkpt>
      <trkpt lat="47.02633" lon="8.98929">
        <ele>857</ele>
        <time>2021-08-02T10:08:11.212Z</time>
      </trkpt>
      <trkpt lat="47.02632" lon="8.98928">
        <ele>857</ele>
        <time>2021-08-02T10:08:12.212Z</time>
      </trkpt>
      <trkpt lat="47.02631" lon="8.98927">
        <ele>857</ele>
        <time>2021-08-02T10:08:13.213Z</time>
      </trkpt>
      <trkpt lat="47.02629" lon="8.98926">
        <ele>857</ele>
        <time>2021-08-02T10:08:14.212Z</time>
      </trkpt>
      <trkpt lat="47.02629" lon="8.98925">
        <ele>857</ele>
        <time>2021-08-02T10:08:15.212Z</time>
      </trkpt>
      <trkpt lat="47.02628" lon="8.98924">
        <ele>858</ele>
        <time>2021-08-02T10:08:16.213Z</time>
      </trkpt>
      <trkpt lat="47.02627" lon="8.98923">
        <ele>858</ele>
        <time>2021-08-02T10:08:17.213Z</time>
      </trkpt>
      <trkpt lat="47.02626" lon="8.98922">
        <ele>858</ele>
        <time>2021-08-02T10:08:18.212Z</time>
      </trkpt>
      <trkpt lat="47.02625" lon="8.9892">
        <ele>858</ele>
        <time>2021-08-02T10:08:19.213Z</time>
      </trkpt>
      <trkpt lat="47.02624" lon="8.98919">
        <ele>858</ele>
        <time>2021-08-02T10:08:20.213Z</time>
      </trkpt>
      <trkpt lat="47.02623" lon="8.98917">
        <ele>859</ele>
        <time>2021-08-02T10:08:21.213Z</time>
      </trkpt>
      <trkpt lat="47.02622" lon="8.98916">
        <ele>858</ele>
        <time>2021-08-02T10:08:22.213Z</time>
      </trkpt>
      <trkpt lat="47.02621" lon="8.98916">
        <ele>859</ele>
        <time>2021-08-02T10:08:23.213Z</time>
      </trkpt>
      <trkpt lat="47.0262" lon="8.98915">
        <ele>859</ele>
        <time>2021-08-02T10:08:24.213Z</time>
      </trkpt>
      <trkpt lat="47.02619" lon="8.98913">
        <ele>858</ele>
        <time>2021-08-02T10:08:25.213Z</time>
      </trkpt>
      <trkpt lat="47.02618" lon="8.98911">
        <ele>858</ele>
        <time>2021-08-02T10:08:26.213Z</time>
      </trkpt>
      <trkpt lat="47.02617" lon="8.9891">
        <ele>857</ele>
        <time>2021-08-02T10:08:27.213Z</time>
      </trkpt>
      <trkpt lat="47.02616" lon="8.98909">
        <ele>857</ele>
        <time>2021-08-02T10:08:28.213Z</time>
      </trkpt>
      <trkpt lat="47.02615" lon="8.98908">
        <ele>856</ele>
        <time>2021-08-02T10:08:29.212Z</time>
      </trkpt>
      <trkpt lat="47.02614" lon="8.98908">
        <ele>856</ele>
        <time>2021-08-02T10:08:30.213Z</time>
      </trkpt>
      <trkpt lat="47.02613" lon="8.98907">
        <ele>855</ele>
        <time>2021-08-02T10:08:31.213Z</time>
      </trkpt>
      <trkpt lat="47.02612" lon="8.98906">
        <ele>855</ele>
        <time>2021-08-02T10:08:32.213Z</time>
      </trkpt>
      <trkpt lat="47.02611" lon="8.98905">
        <ele>854</ele>
        <time>2021-08-02T10:08:33.213Z</time>
      </trkpt>
      <trkpt lat="47.0261" lon="8.98903">
        <ele>854</ele>
        <time>2021-08-02T10:08:34.213Z</time>
      </trkpt>
      <trkpt lat="47.02609" lon="8.98903">
        <ele>854</ele>
        <time>2021-08-02T10:08:35.213Z</time>
      </trkpt>
      <trkpt lat="47.02607" lon="8.98902">
        <ele>853</ele>
        <time>2021-08-02T10:08:36.213Z</time>
      </trkpt>
      <trkpt lat="47.02606" lon="8.98901">
        <ele>853</ele>
        <time>2021-08-02T10:08:37.213Z</time>
      </trkpt>
      <trkpt lat="47.02606" lon="8.989">
        <ele>852</ele>
        <time>2021-08-02T10:08:38.213Z</time>
      </trkpt>
      <trkpt lat="47.02605" lon="8.98899">
        <ele>853</ele>
        <time>2021-08-02T10:08:39.213Z</time>
      </trkpt>
      <trkpt lat="47.02604" lon="8.98898">
        <ele>853</ele>
        <time>2021-08-02T10:08:40.213Z</time>
      </trkpt>
      <trkpt lat="47.02603" lon="8.98897">
        <ele>854</ele>
        <time>2021-08-02T10:08:41.213Z</time>
      </trkpt>
      <trkpt lat="47.02602" lon="8.98896">
        <ele>854</ele>
        <time>2021-08-02T10:08:42.213Z</time>
      </trkpt>
      <trkpt lat="47.02601" lon="8.98895">
        <ele>855</ele>
        <time>2021-08-02T10:08:43.213Z</time>
      </trkpt>
      <trkpt lat="47.026" lon="8.98893">
        <ele>855</ele>
        <time>2021-08-02T10:08:44.213Z</time>
      </trkpt>
      <trkpt lat="47.02601" lon="8.98892">
        <ele>855</ele>
        <time>2021-08-02T10:08:45.212Z</time>
      </trkpt>
      <trkpt lat="47.02601" lon="8.98891">
        <ele>856</ele>
        <time>2021-08-02T10:08:46.213Z</time>
      </trkpt>
      <trkpt lat="47.026" lon="8.98889">
        <ele>856</ele>
        <time>2021-08-02T10:08:47.212Z</time>
      </trkpt>
      <trkpt lat="47.02598" lon="8.98887">
        <ele>856</ele>
        <time>2021-08-02T10:08:48.213Z</time>
      </trkpt>
      <trkpt lat="47.02597" lon="8.98885">
        <ele>857</ele>
        <time>2021-08-02T10:08:49.212Z</time>
      </trkpt>
      <trkpt lat="47.02595" lon="8.98884">
        <ele>857</ele>
        <time>2021-08-02T10:08:50.213Z</time>
      </trkpt>
      <trkpt lat="47.02593" lon="8.98883">
        <ele>858</ele>
        <time>2021-08-02T10:08:51.213Z</time>
      </trkpt>
      <trkpt lat="47.02592" lon="8.98881">
        <ele>858</ele>
        <time>2021-08-02T10:08:52.213Z</time>
      </trkpt>
      <trkpt lat="47.02591" lon="8.9888">
        <ele>857</ele>
        <time>2021-08-02T10:08:53.213Z</time>
      </trkpt>
      <trkpt lat="47.02591" lon="8.98878">
        <ele>857</ele>
        <time>2021-08-02T10:08:54.213Z</time>
      </trkpt>
      <trkpt lat="47.02589" lon="8.98877">
        <ele>857</ele>
        <time>2021-08-02T10:08:55.213Z</time>
      </trkpt>
      <trkpt lat="47.02588" lon="8.98876">
        <ele>857</ele>
        <time>2021-08-02T10:08:56.213Z</time>
      </trkpt>
      <trkpt lat="47.02586" lon="8.98875">
        <ele>857</ele>
        <time>2021-08-02T10:08:57.213Z</time>
      </trkpt>
      <trkpt lat="47.02585" lon="8.98875">
        <ele>857</ele>
        <time>2021-08-02T10:08:58.213Z</time>
      </trkpt>
      <trkpt lat="47.02583" lon="8.98875">
        <ele>857</ele>
        <time>2021-08-02T10:08:59.212Z</time>
      </trkpt>
      <trkpt lat="47.02582" lon="8.98874">
        <ele>857</ele>
        <time>2021-08-02T10:09:00.213Z</time>
      </trkpt>
      <trkpt lat="47.02582" lon="8.98871">
        <ele>857</ele>
        <time>2021-08-02T10:09:01.213Z</time>
      </trkpt>
      <trkpt lat="47.02581" lon="8.9887">
        <ele>857</ele>
        <time>2021-08-02T10:09:02.213Z</time>
      </trkpt>
      <trkpt lat="47.02581" lon="8.98869">
        <ele>857</ele>
        <time>2021-08-02T10:09:03.213Z</time>
      </trkpt>
      <trkpt lat="47.02581" lon="8.98868">
        <ele>857</ele>
        <time>2021-08-02T10:09:04.212Z</time>
      </trkpt>
      <trkpt lat="47.02581" lon="8.98867">
        <ele>857</ele>
        <time>2021-08-02T10:09:05.213Z</time>
      </trkpt>
      <trkpt lat="47.0258" lon="8.98866">
        <ele>857</ele>
        <time>2021-08-02T10:09:06.213Z</time>
      </trkpt>
      <trkpt lat="47.02579" lon="8.98865">
        <ele>858</ele>
        <time>2021-08-02T10:09:07.213Z</time>
      </trkpt>
      <trkpt lat="47.02578" lon="8.98864">
        <ele>858</ele>
        <time>2021-08-02T10:09:08.213Z</time>
      </trkpt>
      <trkpt lat="47.02577" lon="8.98864">
        <ele>858</ele>
        <time>2021-08-02T10:09:09.212Z</time>
      </trkpt>
      <trkpt lat="47.02576" lon="8.98863">
        <ele>859</ele>
        <time>2021-08-02T10:09:10.212Z</time>
      </trkpt>
      <trkpt lat="47.02575" lon="8.98863">
        <ele>859</ele>
        <time>2021-08-02T10:09:11.212Z</time>
      </trkpt>
      <trkpt lat="47.02574" lon="8.98862">
        <ele>860</ele>
        <time>2021-08-02T10:09:12.213Z</time>
      </trkpt>
      <trkpt lat="47.02573" lon="8.98861">
        <ele>860</ele>
        <time>2021-08-02T10:09:13.213Z</time>
      </trkpt>
      <trkpt lat="47.02573" lon="8.9886">
        <ele>861</ele>
        <time>2021-08-02T10:09:14.213Z</time>
      </trkpt>
      <trkpt lat="47.02572" lon="8.98859">
        <ele>861</ele>
        <time>2021-08-02T10:09:15.213Z</time>
      </trkpt>
      <trkpt lat="47.02571" lon="8.98858">
        <ele>861</ele>
        <time>2021-08-02T10:09:16.213Z</time>
      </trkpt>
      <trkpt lat="47.02569" lon="8.98857">
        <ele>861</ele>
        <time>2021-08-02T10:09:17.213Z</time>
      </trkpt>
      <trkpt lat="47.02568" lon="8.98856">
        <ele>861</ele>
        <time>2021-08-02T10:09:18.213Z</time>
      </trkpt>
      <trkpt lat="47.02567" lon="8.98855">
        <ele>861</ele>
        <time>2021-08-02T10:09:19.213Z</time>
      </trkpt>
      <trkpt lat="47.02566" lon="8.98854">
        <ele>861</ele>
        <time>2021-08-02T10:09:20.213Z</time>
      </trkpt>
      <trkpt lat="47.02565" lon="8.98853">
        <ele>861</ele>
        <time>2021-08-02T10:09:21.213Z</time>
      </trkpt>
      <trkpt lat="47.02564" lon="8.98852">
        <ele>861</ele>
        <time>2021-08-02T10:09:22.212Z</time>
      </trkpt>
      <trkpt lat="47.02562" lon="8.98851">
        <ele>861</ele>
        <time>2021-08-02T10:09:23.213Z</time>
      </trkpt>
      <trkpt lat="47.02561" lon="8.9885">
        <ele>861</ele>
        <time>2021-08-02T10:09:24.213Z</time>
      </trkpt>
      <trkpt lat="47.02559" lon="8.98849">
        <ele>861</ele>
        <time>2021-08-02T10:09:25.212Z</time>
      </trkpt>
      <trkpt lat="47.02557" lon="8.98849">
        <ele>861</ele>
        <time>2021-08-02T10:09:26.213Z</time>
      </trkpt>
      <trkpt lat="47.02555" lon="8.98847">
        <ele>861</ele>
        <time>2021-08-02T10:09:27.213Z</time>
      </trkpt>
      <trkpt lat="47.02554" lon="8.98846">
        <ele>861</ele>
        <time>2021-08-02T10:09:28.212Z</time>
      </trkpt>
      <trkpt lat="47.02553" lon="8.98845">
        <ele>861</ele>
        <time>2021-08-02T10:09:29.213Z</time>
      </trkpt>
      <trkpt lat="47.02552" lon="8.98844">
        <ele>860</ele>
        <time>2021-08-02T10:09:30.213Z</time>
      </trkpt>
      <trkpt lat="47.0255" lon="8.98843">
        <ele>860</ele>
        <time>2021-08-02T10:09:31.212Z</time>
      </trkpt>
      <trkpt lat="47.02549" lon="8.98842">
        <ele>860</ele>
        <time>2021-08-02T10:09:32.212Z</time>
      </trkpt>
      <trkpt lat="47.02548" lon="8.98842">
        <ele>861</ele>
        <time>2021-08-02T10:09:33.212Z</time>
      </trkpt>
      <trkpt lat="47.02547" lon="8.98841">
        <ele>861</ele>
        <time>2021-08-02T10:09:34.212Z</time>
      </trkpt>
      <trkpt lat="47.02547" lon="8.9884">
        <ele>861</ele>
        <time>2021-08-02T10:09:35.212Z</time>
      </trkpt>
      <trkpt lat="47.02545" lon="8.98839">
        <ele>861</ele>
        <time>2021-08-02T10:09:36.212Z</time>
      </trkpt>
      <trkpt lat="47.02544" lon="8.98837">
        <ele>861</ele>
        <time>2021-08-02T10:09:37.212Z</time>
      </trkpt>
      <trkpt lat="47.02542" lon="8.98835">
        <ele>861</ele>
        <time>2021-08-02T10:09:38.212Z</time>
      </trkpt>
      <trkpt lat="47.0254" lon="8.98834">
        <ele>860</ele>
        <time>2021-08-02T10:09:39.213Z</time>
      </trkpt>
      <trkpt lat="47.02539" lon="8.98833">
        <ele>860</ele>
        <time>2021-08-02T10:09:40.212Z</time>
      </trkpt>
      <trkpt lat="47.02538" lon="8.98833">
        <ele>860</ele>
        <time>2021-08-02T10:09:41.212Z</time>
      </trkpt>
      <trkpt lat="47.02537" lon="8.98832">
        <ele>859</ele>
        <time>2021-08-02T10:09:42.212Z</time>
      </trkpt>
      <trkpt lat="47.02536" lon="8.98831">
        <ele>859</ele>
        <time>2021-08-02T10:09:43.212Z</time>
      </trkpt>
      <trkpt lat="47.02536" lon="8.9883">
        <ele>859</ele>
        <time>2021-08-02T10:09:44.213Z</time>
      </trkpt>
      <trkpt lat="47.02535" lon="8.98828">
        <ele>859</ele>
        <time>2021-08-02T10:09:45.213Z</time>
      </trkpt>
      <trkpt lat="47.02533" lon="8.98828">
        <ele>859</ele>
        <time>2021-08-02T10:09:46.212Z</time>
      </trkpt>
      <trkpt lat="47.02531" lon="8.98827">
        <ele>859</ele>
        <time>2021-08-02T10:09:47.213Z</time>
      </trkpt>
      <trkpt lat="47.0253" lon="8.98826">
        <ele>859</ele>
        <time>2021-08-02T10:09:48.213Z</time>
      </trkpt>
      <trkpt lat="47.0253" lon="8.98824">
        <ele>859</ele>
        <time>2021-08-02T10:09:49.212Z</time>
      </trkpt>
      <trkpt lat="47.02529" lon="8.98823">
        <ele>859</ele>
        <time>2021-08-02T10:09:50.213Z</time>
      </trkpt>
      <trkpt lat="47.02528" lon="8.98821">
        <ele>859</ele>
        <time>2021-08-02T10:09:51.213Z</time>
      </trkpt>
      <trkpt lat="47.02528" lon="8.98821">
        <ele>858</ele>
        <time>2021-08-02T10:09:52.213Z</time>
      </trkpt>
      <trkpt lat="47.02527" lon="8.98821">
        <ele>858</ele>
        <time>2021-08-02T10:09:53.213Z</time>
      </trkpt>
      <trkpt lat="47.02526" lon="8.9882">
        <ele>857</ele>
        <time>2021-08-02T10:09:54.213Z</time>
      </trkpt>
      <trkpt lat="47.02525" lon="8.9882">
        <ele>857</ele>
        <time>2021-08-02T10:09:55.212Z</time>
      </trkpt>
      <trkpt lat="47.02524" lon="8.98819">
        <ele>856</ele>
        <time>2021-08-02T10:09:56.213Z</time>
      </trkpt>
      <trkpt lat="47.02523" lon="8.98818">
        <ele>856</ele>
        <time>2021-08-02T10:09:57.213Z</time>
      </trkpt>
      <trkpt lat="47.02523" lon="8.98817">
        <ele>855</ele>
        <time>2021-08-02T10:09:58.213Z</time>
      </trkpt>
      <trkpt lat="47.02521" lon="8.98816">
        <ele>855</ele>
        <time>2021-08-02T10:09:59.213Z</time>
      </trkpt>
      <trkpt lat="47.0252" lon="8.98815">
        <ele>855</ele>
        <time>2021-08-02T10:10:00.212Z</time>
      </trkpt>
      <trkpt lat="47.02519" lon="8.98814">
        <ele>855</ele>
        <time>2021-08-02T10:10:01.213Z</time>
      </trkpt>
      <trkpt lat="47.02517" lon="8.98813">
        <ele>855</ele>
        <time>2021-08-02T10:10:02.212Z</time>
      </trkpt>
      <trkpt lat="47.02517" lon="8.98812">
        <ele>855</ele>
        <time>2021-08-02T10:10:03.212Z</time>
      </trkpt>
      <trkpt lat="47.02516" lon="8.98812">
        <ele>855</ele>
        <time>2021-08-02T10:10:04.213Z</time>
      </trkpt>
      <trkpt lat="47.02515" lon="8.98811">
        <ele>855</ele>
        <time>2021-08-02T10:10:05.213Z</time>
      </trkpt>
      <trkpt lat="47.02514" lon="8.98811">
        <ele>855</ele>
        <time>2021-08-02T10:10:06.213Z</time>
      </trkpt>
      <trkpt lat="47.02512" lon="8.9881">
        <ele>855</ele>
        <time>2021-08-02T10:10:07.212Z</time>
      </trkpt>
      <trkpt lat="47.02511" lon="8.9881">
        <ele>855</ele>
        <time>2021-08-02T10:10:08.213Z</time>
      </trkpt>
      <trkpt lat="47.0251" lon="8.9881">
        <ele>856</ele>
        <time>2021-08-02T10:10:09.213Z</time>
      </trkpt>
      <trkpt lat="47.02509" lon="8.98811">
        <ele>856</ele>
        <time>2021-08-02T10:10:10.212Z</time>
      </trkpt>
      <trkpt lat="47.02508" lon="8.98811">
        <ele>857</ele>
        <time>2021-08-02T10:10:11.213Z</time>
      </trkpt>
      <trkpt lat="47.02507" lon="8.98811">
        <ele>857</ele>
        <time>2021-08-02T10:10:12.212Z</time>
      </trkpt>
      <trkpt lat="47.02506" lon="8.98812">
        <ele>857</ele>
        <time>2021-08-02T10:10:13.213Z</time>
      </trkpt>
      <trkpt lat="47.02505" lon="8.98812">
        <ele>856</ele>
        <time>2021-08-02T10:10:14.213Z</time>
      </trkpt>
      <trkpt lat="47.02504" lon="8.98811">
        <ele>855</ele>
        <time>2021-08-02T10:10:15.213Z</time>
      </trkpt>
      <trkpt lat="47.02502" lon="8.98811">
        <ele>855</ele>
        <time>2021-08-02T10:10:16.213Z</time>
      </trkpt>
      <trkpt lat="47.02501" lon="8.98811">
        <ele>855</ele>
        <time>2021-08-02T10:10:17.213Z</time>
      </trkpt>
      <trkpt lat="47.025" lon="8.9881">
        <ele>855</ele>
        <time>2021-08-02T10:10:18.213Z</time>
      </trkpt>
      <trkpt lat="47.02499" lon="8.9881">
        <ele>855</ele>
        <time>2021-08-02T10:10:19.213Z</time>
      </trkpt>
      <trkpt lat="47.02498" lon="8.9881">
        <ele>855</ele>
        <time>2021-08-02T10:10:20.212Z</time>
      </trkpt>
      <trkpt lat="47.02497" lon="8.9881">
        <ele>856</ele>
        <time>2021-08-02T10:10:21.213Z</time>
      </trkpt>
      <trkpt lat="47.02496" lon="8.9881">
        <ele>856</ele>
        <time>2021-08-02T10:10:22.212Z</time>
      </trkpt>
      <trkpt lat="47.02495" lon="8.98809">
        <ele>857</ele>
        <time>2021-08-02T10:10:23.213Z</time>
      </trkpt>
      <trkpt lat="47.02494" lon="8.98809">
        <ele>857</ele>
        <time>2021-08-02T10:10:24.213Z</time>
      </trkpt>
      <trkpt lat="47.02493" lon="8.98808">
        <ele>857</ele>
        <time>2021-08-02T10:10:25.212Z</time>
      </trkpt>
      <trkpt lat="47.02492" lon="8.98807">
        <ele>857</ele>
        <time>2021-08-02T10:10:26.213Z</time>
      </trkpt>
      <trkpt lat="47.02491" lon="8.98806">
        <ele>858</ele>
        <time>2021-08-02T10:10:27.213Z</time>
      </trkpt>
      <trkpt lat="47.0249" lon="8.98804">
        <ele>858</ele>
        <time>2021-08-02T10:10:28.213Z</time>
      </trkpt>
      <trkpt lat="47.02489" lon="8.98804">
        <ele>858</ele>
        <time>2021-08-02T10:10:29.213Z</time>
      </trkpt>
      <trkpt lat="47.02488" lon="8.98803">
        <ele>858</ele>
        <time>2021-08-02T10:10:30.212Z</time>
      </trkpt>
      <trkpt lat="47.02487" lon="8.98802">
        <ele>858</ele>
        <time>2021-08-02T10:10:31.212Z</time>
      </trkpt>
      <trkpt lat="47.02487" lon="8.98801">
        <ele>857</ele>
        <time>2021-08-02T10:10:32.213Z</time>
      </trkpt>
      <trkpt lat="47.02486" lon="8.98801">
        <ele>856</ele>
        <time>2021-08-02T10:10:33.212Z</time>
      </trkpt>
      <trkpt lat="47.02486" lon="8.98799">
        <ele>856</ele>
        <time>2021-08-02T10:10:34.212Z</time>
      </trkpt>
      <trkpt lat="47.02485" lon="8.98799">
        <ele>856</ele>
        <time>2021-08-02T10:10:35.212Z</time>
      </trkpt>
      <trkpt lat="47.02484" lon="8.98798">
        <ele>856</ele>
        <time>2021-08-02T10:10:36.213Z</time>
      </trkpt>
      <trkpt lat="47.02483" lon="8.98797">
        <ele>855</ele>
        <time>2021-08-02T10:10:37.213Z</time>
      </trkpt>
      <trkpt lat="47.02482" lon="8.98796">
        <ele>855</ele>
        <time>2021-08-02T10:10:38.212Z</time>
      </trkpt>
      <trkpt lat="47.02481" lon="8.98795">
        <ele>855</ele>
        <time>2021-08-02T10:10:39.213Z</time>
      </trkpt>
      <trkpt lat="47.0248" lon="8.98794">
        <ele>855</ele>
        <time>2021-08-02T10:10:40.213Z</time>
      </trkpt>
      <trkpt lat="47.0248" lon="8.98793">
        <ele>854</ele>
        <time>2021-08-02T10:10:41.213Z</time>
      </trkpt>
      <trkpt lat="47.02479" lon="8.98792">
        <ele>854</ele>
        <time>2021-08-02T10:10:42.213Z</time>
      </trkpt>
      <trkpt lat="47.02479" lon="8.98791">
        <ele>854</ele>
        <time>2021-08-02T10:10:43.212Z</time>
      </trkpt>
      <trkpt lat="47.02478" lon="8.98789">
        <ele>854</ele>
        <time>2021-08-02T10:10:44.213Z</time>
      </trkpt>
      <trkpt lat="47.02477" lon="8.98789">
        <ele>854</ele>
        <time>2021-08-02T10:10:45.213Z</time>
      </trkpt>
      <trkpt lat="47.02476" lon="8.98788">
        <ele>854</ele>
        <time>2021-08-02T10:10:46.212Z</time>
      </trkpt>
      <trkpt lat="47.02475" lon="8.98787">
        <ele>854</ele>
        <time>2021-08-02T10:10:47.213Z</time>
      </trkpt>
      <trkpt lat="47.02474" lon="8.98785">
        <ele>854</ele>
        <time>2021-08-02T10:10:48.213Z</time>
      </trkpt>
      <trkpt lat="47.02475" lon="8.98784">
        <ele>853</ele>
        <time>2021-08-02T10:10:49.213Z</time>
      </trkpt>
      <trkpt lat="47.02475" lon="8.98782">
        <ele>853</ele>
        <time>2021-08-02T10:10:50.213Z</time>
      </trkpt>
      <trkpt lat="47.02474" lon="8.98781">
        <ele>853</ele>
        <time>2021-08-02T10:10:51.212Z</time>
      </trkpt>
      <trkpt lat="47.02474" lon="8.98781">
        <ele>853</ele>
        <time>2021-08-02T10:10:52.213Z</time>
      </trkpt>
      <trkpt lat="47.02473" lon="8.9878">
        <ele>853</ele>
        <time>2021-08-02T10:10:53.212Z</time>
      </trkpt>
      <trkpt lat="47.02472" lon="8.9878">
        <ele>853</ele>
        <time>2021-08-02T10:10:54.213Z</time>
      </trkpt>
      <trkpt lat="47.02472" lon="8.98779">
        <ele>853</ele>
        <time>2021-08-02T10:10:55.213Z</time>
      </trkpt>
      <trkpt lat="47.02471" lon="8.98779">
        <ele>852</ele>
        <time>2021-08-02T10:10:56.212Z</time>
      </trkpt>
      <trkpt lat="47.0247" lon="8.98778">
        <ele>852</ele>
        <time>2021-08-02T10:10:57.213Z</time>
      </trkpt>
      <trkpt lat="47.0247" lon="8.98778">
        <ele>852</ele>
        <time>2021-08-02T10:10:58.213Z</time>
      </trkpt>
      <trkpt lat="47.02469" lon="8.98777">
        <ele>852</ele>
        <time>2021-08-02T10:10:59.212Z</time>
      </trkpt>
      <trkpt lat="47.02468" lon="8.98777">
        <ele>852</ele>
        <time>2021-08-02T10:11:00.213Z</time>
      </trkpt>
      <trkpt lat="47.02467" lon="8.98776">
        <ele>853</ele>
        <time>2021-08-02T10:11:01.213Z</time>
      </trkpt>
      <trkpt lat="47.02466" lon="8.98776">
        <ele>853</ele>
        <time>2021-08-02T10:11:02.213Z</time>
      </trkpt>
      <trkpt lat="47.02465" lon="8.98776">
        <ele>854</ele>
        <time>2021-08-02T10:11:03.212Z</time>
      </trkpt>
      <trkpt lat="47.02464" lon="8.98775">
        <ele>854</ele>
        <time>2021-08-02T10:11:04.212Z</time>
      </trkpt>
      <trkpt lat="47.02463" lon="8.98773">
        <ele>854</ele>
        <time>2021-08-02T10:11:05.213Z</time>
      </trkpt>
      <trkpt lat="47.02462" lon="8.98772">
        <ele>854</ele>
        <time>2021-08-02T10:11:06.213Z</time>
      </trkpt>
      <trkpt lat="47.0246" lon="8.9877">
        <ele>854</ele>
        <time>2021-08-02T10:11:07.213Z</time>
      </trkpt>
      <trkpt lat="47.0246" lon="8.98769">
        <ele>854</ele>
        <time>2021-08-02T10:11:08.212Z</time>
      </trkpt>
      <trkpt lat="47.02459" lon="8.98768">
        <ele>854</ele>
        <time>2021-08-02T10:11:09.213Z</time>
      </trkpt>
      <trkpt lat="47.02459" lon="8.98767">
        <ele>854</ele>
        <time>2021-08-02T10:11:10.212Z</time>
      </trkpt>
      <trkpt lat="47.02458" lon="8.98766">
        <ele>853</ele>
        <time>2021-08-02T10:11:11.212Z</time>
      </trkpt>
      <trkpt lat="47.02458" lon="8.98765">
        <ele>853</ele>
        <time>2021-08-02T10:11:12.213Z</time>
      </trkpt>
      <trkpt lat="47.02458" lon="8.98764">
        <ele>854</ele>
        <time>2021-08-02T10:11:13.213Z</time>
      </trkpt>
      <trkpt lat="47.02457" lon="8.98762">
        <ele>854</ele>
        <time>2021-08-02T10:11:14.213Z</time>
      </trkpt>
      <trkpt lat="47.02456" lon="8.9876">
        <ele>854</ele>
        <time>2021-08-02T10:11:15.212Z</time>
      </trkpt>
      <trkpt lat="47.02454" lon="8.98758">
        <ele>854</ele>
        <time>2021-08-02T10:11:16.213Z</time>
      </trkpt>
      <trkpt lat="47.02453" lon="8.98756">
        <ele>854</ele>
        <time>2021-08-02T10:11:17.212Z</time>
      </trkpt>
      <trkpt lat="47.02452" lon="8.98756">
        <ele>854</ele>
        <time>2021-08-02T10:11:18.213Z</time>
      </trkpt>
      <trkpt lat="47.02452" lon="8.98755">
        <ele>853</ele>
        <time>2021-08-02T10:11:19.213Z</time>
      </trkpt>
      <trkpt lat="47.02451" lon="8.98754">
        <ele>853</ele>
        <time>2021-08-02T10:11:20.213Z</time>
      </trkpt>
      <trkpt lat="47.02451" lon="8.98753">
        <ele>852</ele>
        <time>2021-08-02T10:11:21.212Z</time>
      </trkpt>
      <trkpt lat="47.0245" lon="8.98752">
        <ele>852</ele>
        <time>2021-08-02T10:11:22.212Z</time>
      </trkpt>
      <trkpt lat="47.02448" lon="8.98751">
        <ele>852</ele>
        <time>2021-08-02T10:11:23.213Z</time>
      </trkpt>
      <trkpt lat="47.02447" lon="8.9875">
        <ele>852</ele>
        <time>2021-08-02T10:11:24.212Z</time>
      </trkpt>
      <trkpt lat="47.02446" lon="8.9875">
        <ele>853</ele>
        <time>2021-08-02T10:11:25.213Z</time>
      </trkpt>
      <trkpt lat="47.02444" lon="8.98749">
        <ele>853</ele>
        <time>2021-08-02T10:11:26.212Z</time>
      </trkpt>
      <trkpt lat="47.02443" lon="8.98748">
        <ele>854</ele>
        <time>2021-08-02T10:11:27.213Z</time>
      </trkpt>
      <trkpt lat="47.02442" lon="8.98747">
        <ele>854</ele>
        <time>2021-08-02T10:11:28.213Z</time>
      </trkpt>
      <trkpt lat="47.02441" lon="8.98745">
        <ele>854</ele>
        <time>2021-08-02T10:11:29.213Z</time>
      </trkpt>
      <trkpt lat="47.02441" lon="8.98744">
        <ele>854</ele>
        <time>2021-08-02T10:11:30.213Z</time>
      </trkpt>
      <trkpt lat="47.0244" lon="8.98742">
        <ele>854</ele>
        <time>2021-08-02T10:11:31.213Z</time>
      </trkpt>
      <trkpt lat="47.0244" lon="8.98741">
        <ele>854</ele>
        <time>2021-08-02T10:11:32.213Z</time>
      </trkpt>
      <trkpt lat="47.0244" lon="8.9874">
        <ele>854</ele>
        <time>2021-08-02T10:11:33.213Z</time>
      </trkpt>
      <trkpt lat="47.02439" lon="8.98739">
        <ele>853</ele>
        <time>2021-08-02T10:11:34.212Z</time>
      </trkpt>
      <trkpt lat="47.02439" lon="8.98738">
        <ele>853</ele>
        <time>2021-08-02T10:11:35.212Z</time>
      </trkpt>
      <trkpt lat="47.02438" lon="8.98737">
        <ele>853</ele>
        <time>2021-08-02T10:11:36.212Z</time>
      </trkpt>
      <trkpt lat="47.02437" lon="8.98737">
        <ele>853</ele>
        <time>2021-08-02T10:11:37.213Z</time>
      </trkpt>
      <trkpt lat="47.02436" lon="8.98736">
        <ele>853</ele>
        <time>2021-08-02T10:11:38.213Z</time>
      </trkpt>
      <trkpt lat="47.02435" lon="8.98736">
        <ele>853</ele>
        <time>2021-08-02T10:11:39.212Z</time>
      </trkpt>
      <trkpt lat="47.02435" lon="8.98735">
        <ele>853</ele>
        <time>2021-08-02T10:11:40.212Z</time>
      </trkpt>
      <trkpt lat="47.02434" lon="8.98734">
        <ele>853</ele>
        <time>2021-08-02T10:11:41.213Z</time>
      </trkpt>
      <trkpt lat="47.02433" lon="8.98733">
        <ele>853</ele>
        <time>2021-08-02T10:11:42.213Z</time>
      </trkpt>
      <trkpt lat="47.02432" lon="8.98731">
        <ele>853</ele>
        <time>2021-08-02T10:11:43.212Z</time>
      </trkpt>
      <trkpt lat="47.02432" lon="8.98729">
        <ele>853</ele>
        <time>2021-08-02T10:11:44.212Z</time>
      </trkpt>
      <trkpt lat="47.02432" lon="8.98728">
        <ele>853</ele>
        <time>2021-08-02T10:11:45.213Z</time>
      </trkpt>
      <trkpt lat="47.0243" lon="8.98727">
        <ele>853</ele>
        <time>2021-08-02T10:11:46.213Z</time>
      </trkpt>
      <trkpt lat="47.02429" lon="8.98726">
        <ele>853</ele>
        <time>2021-08-02T10:11:47.213Z</time>
      </trkpt>
      <trkpt lat="47.02428" lon="8.98725">
        <ele>853</ele>
        <time>2021-08-02T10:11:48.212Z</time>
      </trkpt>
      <trkpt lat="47.02427" lon="8.98723">
        <ele>853</ele>
        <time>2021-08-02T10:11:49.213Z</time>
      </trkpt>
      <trkpt lat="47.02427" lon="8.98721">
        <ele>852</ele>
        <time>2021-08-02T10:11:50.212Z</time>
      </trkpt>
      <trkpt lat="47.02426" lon="8.9872">
        <ele>852</ele>
        <time>2021-08-02T10:11:51.213Z</time>
      </trkpt>
      <trkpt lat="47.02424" lon="8.98719">
        <ele>851</ele>
        <time>2021-08-02T10:11:52.213Z</time>
      </trkpt>
      <trkpt lat="47.02423" lon="8.98718">
        <ele>851</ele>
        <time>2021-08-02T10:11:53.212Z</time>
      </trkpt>
      <trkpt lat="47.02423" lon="8.98718">
        <ele>851</ele>
        <time>2021-08-02T10:11:54.213Z</time>
      </trkpt>
      <trkpt lat="47.02422" lon="8.98717">
        <ele>851</ele>
        <time>2021-08-02T10:11:55.213Z</time>
      </trkpt>
      <trkpt lat="47.02421" lon="8.98716">
        <ele>851</ele>
        <time>2021-08-02T10:11:56.212Z</time>
      </trkpt>
      <trkpt lat="47.02421" lon="8.98715">
        <ele>851</ele>
        <time>2021-08-02T10:11:57.213Z</time>
      </trkpt>
      <trkpt lat="47.0242" lon="8.98714">
        <ele>850</ele>
        <time>2021-08-02T10:11:58.212Z</time>
      </trkpt>
      <trkpt lat="47.0242" lon="8.98713">
        <ele>850</ele>
        <time>2021-08-02T10:11:59.212Z</time>
      </trkpt>
      <trkpt lat="47.02419" lon="8.98711">
        <ele>850</ele>
        <time>2021-08-02T10:12:00.212Z</time>
      </trkpt>
      <trkpt lat="47.02419" lon="8.9871">
        <ele>850</ele>
        <time>2021-08-02T10:12:01.213Z</time>
      </trkpt>
      <trkpt lat="47.02419" lon="8.98709">
        <ele>850</ele>
        <time>2021-08-02T10:12:02.212Z</time>
      </trkpt>
      <trkpt lat="47.02419" lon="8.98707">
        <ele>850</ele>
        <time>2021-08-02T10:12:03.212Z</time>
      </trkpt>
      <trkpt lat="47.02418" lon="8.98707">
        <ele>850</ele>
        <time>2021-08-02T10:12:04.212Z</time>
      </trkpt>
      <trkpt lat="47.02417" lon="8.98706">
        <ele>850</ele>
        <time>2021-08-02T10:12:05.213Z</time>
      </trkpt>
      <trkpt lat="47.02416" lon="8.98705">
        <ele>849</ele>
        <time>2021-08-02T10:12:06.213Z</time>
      </trkpt>
      <trkpt lat="47.02415" lon="8.98704">
        <ele>849</ele>
        <time>2021-08-02T10:12:07.212Z</time>
      </trkpt>
      <trkpt lat="47.02415" lon="8.98702">
        <ele>849</ele>
        <time>2021-08-02T10:12:08.212Z</time>
      </trkpt>
      <trkpt lat="47.02415" lon="8.98701">
        <ele>850</ele>
        <time>2021-08-02T10:12:15.301Z</time>
      </trkpt>
      <trkpt lat="47.02414" lon="8.98701">
        <ele>850</ele>
        <time>2021-08-02T10:12:16.302Z</time>
      </trkpt>
      <trkpt lat="47.02413" lon="8.987">
        <ele>850</ele>
        <time>2021-08-02T10:12:17.302Z</time>
      </trkpt>
      <trkpt lat="47.02412" lon="8.98699">
        <ele>849</ele>
        <time>2021-08-02T10:12:18.301Z</time>
      </trkpt>
      <trkpt lat="47.02412" lon="8.98698">
        <ele>849</ele>
        <time>2021-08-02T10:12:19.301Z</time>
      </trkpt>
      <trkpt lat="47.0241" lon="8.98697">
        <ele>849</ele>
        <time>2021-08-02T10:12:20.301Z</time>
      </trkpt>
      <trkpt lat="47.02409" lon="8.98695">
        <ele>849</ele>
        <time>2021-08-02T10:12:21.302Z</time>
      </trkpt>
      <trkpt lat="47.02408" lon="8.98694">
        <ele>849</ele>
        <time>2021-08-02T10:12:22.301Z</time>
      </trkpt>
      <trkpt lat="47.02408" lon="8.98692">
        <ele>849</ele>
        <time>2021-08-02T10:12:29.442Z</time>
      </trkpt>
      <trkpt lat="47.02407" lon="8.98691">
        <ele>849</ele>
        <time>2021-08-02T10:12:30.442Z</time>
      </trkpt>
      <trkpt lat="47.02406" lon="8.98689">
        <ele>849</ele>
        <time>2021-08-02T10:12:31.442Z</time>
      </trkpt>
      <trkpt lat="47.02405" lon="8.98687">
        <ele>849</ele>
        <time>2021-08-02T10:12:32.441Z</time>
      </trkpt>
      <trkpt lat="47.02404" lon="8.98686">
        <ele>849</ele>
        <time>2021-08-02T10:12:40.564Z</time>
      </trkpt>
      <trkpt lat="47.02403" lon="8.98684">
        <ele>849</ele>
        <time>2021-08-02T10:12:48.444Z</time>
      </trkpt>
      <trkpt lat="47.02402" lon="8.98683">
        <ele>849</ele>
        <time>2021-08-02T10:12:49.443Z</time>
      </trkpt>
      <trkpt lat="47.02401" lon="8.98681">
        <ele>849</ele>
        <time>2021-08-02T10:12:50.443Z</time>
      </trkpt>
      <trkpt lat="47.02401" lon="8.9868">
        <ele>849</ele>
        <time>2021-08-02T10:12:51.443Z</time>
      </trkpt>
      <trkpt lat="47.024" lon="8.9868">
        <ele>849</ele>
        <time>2021-08-02T10:12:52.444Z</time>
      </trkpt>
      <trkpt lat="47.02399" lon="8.98679">
        <ele>850</ele>
        <time>2021-08-02T10:12:53.444Z</time>
      </trkpt>
      <trkpt lat="47.02398" lon="8.98679">
        <ele>850</ele>
        <time>2021-08-02T10:12:54.443Z</time>
      </trkpt>
      <trkpt lat="47.02397" lon="8.98679">
        <ele>850</ele>
        <time>2021-08-02T10:12:55.444Z</time>
      </trkpt>
      <trkpt lat="47.02397" lon="8.98678">
        <ele>850</ele>
        <time>2021-08-02T10:12:56.444Z</time>
      </trkpt>
      <trkpt lat="47.02397" lon="8.98676">
        <ele>849</ele>
        <time>2021-08-02T10:12:57.444Z</time>
      </trkpt>
      <trkpt lat="47.02397" lon="8.98674">
        <ele>849</ele>
        <time>2021-08-02T10:12:58.443Z</time>
      </trkpt>
      <trkpt lat="47.02397" lon="8.98672">
        <ele>849</ele>
        <time>2021-08-02T10:12:59.444Z</time>
      </trkpt>
      <trkpt lat="47.02397" lon="8.98671">
        <ele>848</ele>
        <time>2021-08-02T10:13:00.444Z</time>
      </trkpt>
      <trkpt lat="47.02397" lon="8.98669">
        <ele>848</ele>
        <time>2021-08-02T10:13:01.443Z</time>
      </trkpt>
      <trkpt lat="47.02396" lon="8.98668">
        <ele>848</ele>
        <time>2021-08-02T10:13:02.443Z</time>
      </trkpt>
      <trkpt lat="47.02396" lon="8.98667">
        <ele>847</ele>
        <time>2021-08-02T10:13:03.444Z</time>
      </trkpt>
      <trkpt lat="47.02395" lon="8.98666">
        <ele>847</ele>
        <time>2021-08-02T10:13:04.444Z</time>
      </trkpt>
      <trkpt lat="47.02395" lon="8.98665">
        <ele>847</ele>
        <time>2021-08-02T10:13:05.443Z</time>
      </trkpt>
      <trkpt lat="47.02394" lon="8.98663">
        <ele>847</ele>
        <time>2021-08-02T10:13:06.443Z</time>
      </trkpt>
      <trkpt lat="47.02393" lon="8.98662">
        <ele>847</ele>
        <time>2021-08-02T10:13:07.443Z</time>
      </trkpt>
      <trkpt lat="47.02392" lon="8.98661">
        <ele>847</ele>
        <time>2021-08-02T10:13:08.444Z</time>
      </trkpt>
      <trkpt lat="47.02391" lon="8.9866">
        <ele>847</ele>
        <time>2021-08-02T10:13:09.444Z</time>
      </trkpt>
      <trkpt lat="47.02389" lon="8.98659">
        <ele>847</ele>
        <time>2021-08-02T10:13:10.443Z</time>
      </trkpt>
      <trkpt lat="47.02388" lon="8.98659">
        <ele>847</ele>
        <time>2021-08-02T10:13:11.444Z</time>
      </trkpt>
      <trkpt lat="47.02387" lon="8.98658">
        <ele>847</ele>
        <time>2021-08-02T10:13:12.444Z</time>
      </trkpt>
      <trkpt lat="47.02386" lon="8.98658">
        <ele>847</ele>
        <time>2021-08-02T10:13:13.443Z</time>
      </trkpt>
      <trkpt lat="47.02384" lon="8.98657">
        <ele>848</ele>
        <time>2021-08-02T10:13:14.444Z</time>
      </trkpt>
      <trkpt lat="47.02383" lon="8.98656">
        <ele>848</ele>
        <time>2021-08-02T10:13:15.444Z</time>
      </trkpt>
      <trkpt lat="47.02382" lon="8.98654">
        <ele>849</ele>
        <time>2021-08-02T10:13:16.443Z</time>
      </trkpt>
      <trkpt lat="47.02381" lon="8.98653">
        <ele>849</ele>
        <time>2021-08-02T10:13:17.444Z</time>
      </trkpt>
      <trkpt lat="47.02381" lon="8.98652">
        <ele>850</ele>
        <time>2021-08-02T10:13:18.443Z</time>
      </trkpt>
      <trkpt lat="47.02379" lon="8.98651">
        <ele>850</ele>
        <time>2021-08-02T10:13:19.444Z</time>
      </trkpt>
      <trkpt lat="47.02378" lon="8.9865">
        <ele>850</ele>
        <time>2021-08-02T10:13:20.444Z</time>
      </trkpt>
      <trkpt lat="47.02377" lon="8.98649">
        <ele>850</ele>
        <time>2021-08-02T10:13:21.444Z</time>
      </trkpt>
      <trkpt lat="47.02375" lon="8.98649">
        <ele>850</ele>
        <time>2021-08-02T10:13:22.444Z</time>
      </trkpt>
      <trkpt lat="47.02374" lon="8.98648">
        <ele>850</ele>
        <time>2021-08-02T10:13:23.444Z</time>
      </trkpt>
      <trkpt lat="47.02372" lon="8.98647">
        <ele>850</ele>
        <time>2021-08-02T10:13:24.443Z</time>
      </trkpt>
      <trkpt lat="47.02371" lon="8.98646">
        <ele>850</ele>
        <time>2021-08-02T10:13:25.443Z</time>
      </trkpt>
      <trkpt lat="47.0237" lon="8.98645">
        <ele>850</ele>
        <time>2021-08-02T10:13:26.444Z</time>
      </trkpt>
      <trkpt lat="47.02369" lon="8.98644">
        <ele>850</ele>
        <time>2021-08-02T10:13:27.444Z</time>
      </trkpt>
      <trkpt lat="47.02369" lon="8.98642">
        <ele>850</ele>
        <time>2021-08-02T10:13:28.444Z</time>
      </trkpt>
      <trkpt lat="47.02369" lon="8.98641">
        <ele>850</ele>
        <time>2021-08-02T10:13:29.444Z</time>
      </trkpt>
      <trkpt lat="47.02369" lon="8.9864">
        <ele>850</ele>
        <time>2021-08-02T10:13:30.443Z</time>
      </trkpt>
      <trkpt lat="47.02368" lon="8.9864">
        <ele>851</ele>
        <time>2021-08-02T10:13:31.444Z</time>
      </trkpt>
      <trkpt lat="47.02367" lon="8.98639">
        <ele>851</ele>
        <time>2021-08-02T10:13:32.444Z</time>
      </trkpt>
      <trkpt lat="47.02365" lon="8.98639">
        <ele>851</ele>
        <time>2021-08-02T10:13:33.444Z</time>
      </trkpt>
      <trkpt lat="47.02365" lon="8.98638">
        <ele>852</ele>
        <time>2021-08-02T10:13:34.444Z</time>
      </trkpt>
      <trkpt lat="47.02364" lon="8.98637">
        <ele>852</ele>
        <time>2021-08-02T10:13:35.443Z</time>
      </trkpt>
      <trkpt lat="47.02363" lon="8.98636">
        <ele>853</ele>
        <time>2021-08-02T10:13:36.444Z</time>
      </trkpt>
      <trkpt lat="47.02363" lon="8.98635">
        <ele>853</ele>
        <time>2021-08-02T10:13:37.444Z</time>
      </trkpt>
      <trkpt lat="47.02362" lon="8.98634">
        <ele>854</ele>
        <time>2021-08-02T10:13:38.444Z</time>
      </trkpt>
      <trkpt lat="47.02362" lon="8.98633">
        <ele>854</ele>
        <time>2021-08-02T10:13:39.443Z</time>
      </trkpt>
      <trkpt lat="47.02362" lon="8.98632">
        <ele>855</ele>
        <time>2021-08-02T10:13:40.443Z</time>
      </trkpt>
      <trkpt lat="47.02361" lon="8.98631">
        <ele>855</ele>
        <time>2021-08-02T10:13:41.444Z</time>
      </trkpt>
      <trkpt lat="47.02361" lon="8.9863">
        <ele>855</ele>
        <time>2021-08-02T10:13:42.444Z</time>
      </trkpt>
      <trkpt lat="47.02361" lon="8.98629">
        <ele>855</ele>
        <time>2021-08-02T10:13:43.443Z</time>
      </trkpt>
      <trkpt lat="47.0236" lon="8.98628">
        <ele>855</ele>
        <time>2021-08-02T10:13:44.444Z</time>
      </trkpt>
      <trkpt lat="47.0236" lon="8.98626">
        <ele>855</ele>
        <time>2021-08-02T10:13:45.444Z</time>
      </trkpt>
      <trkpt lat="47.02358" lon="8.98625">
        <ele>855</ele>
        <time>2021-08-02T10:13:46.444Z</time>
      </trkpt>
      <trkpt lat="47.02357" lon="8.98623">
        <ele>855</ele>
        <time>2021-08-02T10:13:47.444Z</time>
      </trkpt>
      <trkpt lat="47.02356" lon="8.98621">
        <ele>855</ele>
        <time>2021-08-02T10:13:48.443Z</time>
      </trkpt>
      <trkpt lat="47.02356" lon="8.98619">
        <ele>854</ele>
        <time>2021-08-02T10:13:49.444Z</time>
      </trkpt>
      <trkpt lat="47.02356" lon="8.98617">
        <ele>855</ele>
        <time>2021-08-02T10:13:50.444Z</time>
      </trkpt>
      <trkpt lat="47.02355" lon="8.98615">
        <ele>855</ele>
        <time>2021-08-02T10:13:51.444Z</time>
      </trkpt>
      <trkpt lat="47.02354" lon="8.98614">
        <ele>855</ele>
        <time>2021-08-02T10:13:52.443Z</time>
      </trkpt>
      <trkpt lat="47.02352" lon="8.98612">
        <ele>855</ele>
        <time>2021-08-02T10:13:53.443Z</time>
      </trkpt>
      <trkpt lat="47.02351" lon="8.9861">
        <ele>855</ele>
        <time>2021-08-02T10:13:54.443Z</time>
      </trkpt>
      <trkpt lat="47.0235" lon="8.98608">
        <ele>855</ele>
        <time>2021-08-02T10:13:55.443Z</time>
      </trkpt>
      <trkpt lat="47.02349" lon="8.98606">
        <ele>856</ele>
        <time>2021-08-02T10:13:56.444Z</time>
      </trkpt>
      <trkpt lat="47.02348" lon="8.98605">
        <ele>856</ele>
        <time>2021-08-02T10:13:57.443Z</time>
      </trkpt>
      <trkpt lat="47.02347" lon="8.98603">
        <ele>856</ele>
        <time>2021-08-02T10:13:58.444Z</time>
      </trkpt>
      <trkpt lat="47.02346" lon="8.98603">
        <ele>856</ele>
        <time>2021-08-02T10:13:59.444Z</time>
      </trkpt>
      <trkpt lat="47.02345" lon="8.98603">
        <ele>856</ele>
        <time>2021-08-02T10:14:00.444Z</time>
      </trkpt>
      <trkpt lat="47.02344" lon="8.98602">
        <ele>856</ele>
        <time>2021-08-02T10:14:01.443Z</time>
      </trkpt>
      <trkpt lat="47.02344" lon="8.986">
        <ele>856</ele>
        <time>2021-08-02T10:14:02.444Z</time>
      </trkpt>
      <trkpt lat="47.02343" lon="8.986">
        <ele>856</ele>
        <time>2021-08-02T10:14:03.444Z</time>
      </trkpt>
      <trkpt lat="47.02342" lon="8.98599">
        <ele>856</ele>
        <time>2021-08-02T10:14:04.444Z</time>
      </trkpt>
      <trkpt lat="47.02342" lon="8.98598">
        <ele>856</ele>
        <time>2021-08-02T10:14:05.443Z</time>
      </trkpt>
      <trkpt lat="47.02341" lon="8.98597">
        <ele>857</ele>
        <time>2021-08-02T10:14:06.444Z</time>
      </trkpt>
      <trkpt lat="47.0234" lon="8.98597">
        <ele>857</ele>
        <time>2021-08-02T10:14:07.444Z</time>
      </trkpt>
      <trkpt lat="47.02339" lon="8.98596">
        <ele>857</ele>
        <time>2021-08-02T10:14:08.443Z</time>
      </trkpt>
      <trkpt lat="47.02338" lon="8.98595">
        <ele>857</ele>
        <time>2021-08-02T10:14:09.444Z</time>
      </trkpt>
      <trkpt lat="47.02337" lon="8.98595">
        <ele>857</ele>
        <time>2021-08-02T10:14:10.444Z</time>
      </trkpt>
      <trkpt lat="47.02336" lon="8.98594">
        <ele>857</ele>
        <time>2021-08-02T10:14:11.443Z</time>
      </trkpt>
      <trkpt lat="47.02335" lon="8.98594">
        <ele>857</ele>
        <time>2021-08-02T10:14:12.444Z</time>
      </trkpt>
      <trkpt lat="47.02334" lon="8.98593">
        <ele>857</ele>
        <time>2021-08-02T10:14:13.443Z</time>
      </trkpt>
      <trkpt lat="47.02333" lon="8.98592">
        <ele>857</ele>
        <time>2021-08-02T10:14:14.443Z</time>
      </trkpt>
      <trkpt lat="47.02332" lon="8.98591">
        <ele>857</ele>
        <time>2021-08-02T10:14:15.443Z</time>
      </trkpt>
      <trkpt lat="47.02331" lon="8.98591">
        <ele>857</ele>
        <time>2021-08-02T10:14:16.443Z</time>
      </trkpt>
      <trkpt lat="47.0233" lon="8.98589">
        <ele>857</ele>
        <time>2021-08-02T10:14:17.443Z</time>
      </trkpt>
      <trkpt lat="47.02329" lon="8.98587">
        <ele>857</ele>
        <time>2021-08-02T10:14:18.444Z</time>
      </trkpt>
      <trkpt lat="47.02328" lon="8.98584">
        <ele>857</ele>
        <time>2021-08-02T10:14:19.443Z</time>
      </trkpt>
      <trkpt lat="47.02326" lon="8.98583">
        <ele>857</ele>
        <time>2021-08-02T10:14:20.444Z</time>
      </trkpt>
      <trkpt lat="47.02326" lon="8.98581">
        <ele>857</ele>
        <time>2021-08-02T10:14:21.443Z</time>
      </trkpt>
      <trkpt lat="47.02325" lon="8.9858">
        <ele>857</ele>
        <time>2021-08-02T10:14:22.444Z</time>
      </trkpt>
      <trkpt lat="47.02323" lon="8.98579">
        <ele>857</ele>
        <time>2021-08-02T10:14:32.552Z</time>
      </trkpt>
      <trkpt lat="47.02322" lon="8.98578">
        <ele>857</ele>
        <time>2021-08-02T10:14:42.464Z</time>
      </trkpt>
      <trkpt lat="47.02322" lon="8.98578">
        <ele>857</ele>
        <time>2021-08-02T10:14:43.464Z</time>
      </trkpt>
      <trkpt lat="47.02321" lon="8.98577">
        <ele>857</ele>
        <time>2021-08-02T10:14:44.464Z</time>
      </trkpt>
      <trkpt lat="47.02321" lon="8.98576">
        <ele>858</ele>
        <time>2021-08-02T10:14:45.464Z</time>
      </trkpt>
      <trkpt lat="47.02321" lon="8.98575">
        <ele>858</ele>
        <time>2021-08-02T10:14:46.463Z</time>
      </trkpt>
      <trkpt lat="47.0232" lon="8.98573">
        <ele>858</ele>
        <time>2021-08-02T10:14:47.463Z</time>
      </trkpt>
      <trkpt lat="47.0232" lon="8.98572">
        <ele>858</ele>
        <time>2021-08-02T10:14:48.464Z</time>
      </trkpt>
      <trkpt lat="47.02319" lon="8.98572">
        <ele>859</ele>
        <time>2021-08-02T10:14:49.463Z</time>
      </trkpt>
      <trkpt lat="47.02319" lon="8.98571">
        <ele>859</ele>
        <time>2021-08-02T10:14:50.463Z</time>
      </trkpt>
      <trkpt lat="47.02318" lon="8.9857">
        <ele>859</ele>
        <time>2021-08-02T10:14:51.463Z</time>
      </trkpt>
      <trkpt lat="47.02317" lon="8.98569">
        <ele>860</ele>
        <time>2021-08-02T10:14:52.464Z</time>
      </trkpt>
      <trkpt lat="47.02317" lon="8.98569">
        <ele>859</ele>
        <time>2021-08-02T10:14:53.463Z</time>
      </trkpt>
      <trkpt lat="47.02317" lon="8.98568">
        <ele>859</ele>
        <time>2021-08-02T10:14:54.463Z</time>
      </trkpt>
      <trkpt lat="47.02317" lon="8.98567">
        <ele>858</ele>
        <time>2021-08-02T10:14:55.463Z</time>
      </trkpt>
      <trkpt lat="47.02316" lon="8.98566">
        <ele>858</ele>
        <time>2021-08-02T10:14:56.463Z</time>
      </trkpt>
      <trkpt lat="47.02316" lon="8.98565">
        <ele>858</ele>
        <time>2021-08-02T10:14:57.464Z</time>
      </trkpt>
      <trkpt lat="47.02316" lon="8.98565">
        <ele>857</ele>
        <time>2021-08-02T10:14:58.463Z</time>
      </trkpt>
      <trkpt lat="47.02315" lon="8.98565">
        <ele>857</ele>
        <time>2021-08-02T10:14:59.464Z</time>
      </trkpt>
      <trkpt lat="47.02314" lon="8.98565">
        <ele>856</ele>
        <time>2021-08-02T10:15:00.464Z</time>
      </trkpt>
      <trkpt lat="47.02313" lon="8.98564">
        <ele>856</ele>
        <time>2021-08-02T10:15:01.464Z</time>
      </trkpt>
      <trkpt lat="47.02312" lon="8.98564">
        <ele>856</ele>
        <time>2021-08-02T10:15:02.464Z</time>
      </trkpt>
      <trkpt lat="47.02312" lon="8.98563">
        <ele>856</ele>
        <time>2021-08-02T10:15:03.464Z</time>
      </trkpt>
      <trkpt lat="47.02311" lon="8.98562">
        <ele>856</ele>
        <time>2021-08-02T10:15:04.464Z</time>
      </trkpt>
      <trkpt lat="47.0231" lon="8.98561">
        <ele>856</ele>
        <time>2021-08-02T10:15:05.464Z</time>
      </trkpt>
      <trkpt lat="47.02309" lon="8.9856">
        <ele>856</ele>
        <time>2021-08-02T10:15:06.464Z</time>
      </trkpt>
      <trkpt lat="47.02309" lon="8.98559">
        <ele>856</ele>
        <time>2021-08-02T10:15:07.463Z</time>
      </trkpt>
      <trkpt lat="47.02308" lon="8.98559">
        <ele>856</ele>
        <time>2021-08-02T10:15:08.463Z</time>
      </trkpt>
      <trkpt lat="47.02307" lon="8.98557">
        <ele>855</ele>
        <time>2021-08-02T10:15:09.463Z</time>
      </trkpt>
      <trkpt lat="47.02306" lon="8.98556">
        <ele>855</ele>
        <time>2021-08-02T10:15:10.463Z</time>
      </trkpt>
      <trkpt lat="47.02305" lon="8.98555">
        <ele>855</ele>
        <time>2021-08-02T10:15:11.463Z</time>
      </trkpt>
      <trkpt lat="47.02305" lon="8.98554">
        <ele>854</ele>
        <time>2021-08-02T10:15:12.463Z</time>
      </trkpt>
      <trkpt lat="47.02305" lon="8.98553">
        <ele>854</ele>
        <time>2021-08-02T10:15:13.463Z</time>
      </trkpt>
      <trkpt lat="47.02304" lon="8.98551">
        <ele>853</ele>
        <time>2021-08-02T10:15:14.463Z</time>
      </trkpt>
      <trkpt lat="47.02304" lon="8.9855">
        <ele>853</ele>
        <time>2021-08-02T10:15:15.463Z</time>
      </trkpt>
      <trkpt lat="47.02304" lon="8.98548">
        <ele>853</ele>
        <time>2021-08-02T10:15:16.463Z</time>
      </trkpt>
      <trkpt lat="47.02304" lon="8.98546">
        <ele>853</ele>
        <time>2021-08-02T10:15:17.463Z</time>
      </trkpt>
      <trkpt lat="47.02304" lon="8.98544">
        <ele>853</ele>
        <time>2021-08-02T10:15:18.463Z</time>
      </trkpt>
      <trkpt lat="47.02304" lon="8.98543">
        <ele>852</ele>
        <time>2021-08-02T10:15:19.463Z</time>
      </trkpt>
      <trkpt lat="47.02303" lon="8.98542">
        <ele>852</ele>
        <time>2021-08-02T10:15:20.463Z</time>
      </trkpt>
      <trkpt lat="47.02303" lon="8.9854">
        <ele>852</ele>
        <time>2021-08-02T10:15:21.464Z</time>
      </trkpt>
      <trkpt lat="47.02302" lon="8.98538">
        <ele>852</ele>
        <time>2021-08-02T10:15:22.463Z</time>
      </trkpt>
      <trkpt lat="47.02301" lon="8.98537">
        <ele>852</ele>
        <time>2021-08-02T10:15:23.463Z</time>
      </trkpt>
      <trkpt lat="47.023" lon="8.98536">
        <ele>852</ele>
        <time>2021-08-02T10:15:24.463Z</time>
      </trkpt>
      <trkpt lat="47.023" lon="8.98535">
        <ele>852</ele>
        <time>2021-08-02T10:15:25.464Z</time>
      </trkpt>
      <trkpt lat="47.023" lon="8.98534">
        <ele>851</ele>
        <time>2021-08-02T10:15:26.463Z</time>
      </trkpt>
      <trkpt lat="47.023" lon="8.98531">
        <ele>851</ele>
        <time>2021-08-02T10:15:27.464Z</time>
      </trkpt>
      <trkpt lat="47.023" lon="8.98529">
        <ele>851</ele>
        <time>2021-08-02T10:15:28.464Z</time>
      </trkpt>
      <trkpt lat="47.023" lon="8.98528">
        <ele>851</ele>
        <time>2021-08-02T10:15:29.464Z</time>
      </trkpt>
      <trkpt lat="47.02299" lon="8.98527">
        <ele>851</ele>
        <time>2021-08-02T10:15:30.464Z</time>
      </trkpt>
      <trkpt lat="47.02298" lon="8.98525">
        <ele>851</ele>
        <time>2021-08-02T10:15:31.464Z</time>
      </trkpt>
      <trkpt lat="47.02298" lon="8.98524">
        <ele>852</ele>
        <time>2021-08-02T10:15:32.464Z</time>
      </trkpt>
      <trkpt lat="47.02297" lon="8.98522">
        <ele>852</ele>
        <time>2021-08-02T10:15:33.463Z</time>
      </trkpt>
      <trkpt lat="47.02297" lon="8.9852">
        <ele>853</ele>
        <time>2021-08-02T10:15:34.464Z</time>
      </trkpt>
      <trkpt lat="47.02295" lon="8.98519">
        <ele>853</ele>
        <time>2021-08-02T10:15:35.464Z</time>
      </trkpt>
      <trkpt lat="47.02294" lon="8.98517">
        <ele>854</ele>
        <time>2021-08-02T10:15:36.464Z</time>
      </trkpt>
      <trkpt lat="47.02293" lon="8.98516">
        <ele>854</ele>
        <time>2021-08-02T10:15:37.463Z</time>
      </trkpt>
      <trkpt lat="47.02292" lon="8.98515">
        <ele>853</ele>
        <time>2021-08-02T10:15:38.464Z</time>
      </trkpt>
      <trkpt lat="47.02291" lon="8.98514">
        <ele>853</ele>
        <time>2021-08-02T10:15:39.464Z</time>
      </trkpt>
      <trkpt lat="47.0229" lon="8.98512">
        <ele>853</ele>
        <time>2021-08-02T10:15:40.463Z</time>
      </trkpt>
      <trkpt lat="47.02287" lon="8.9851">
        <ele>852</ele>
        <time>2021-08-02T10:15:41.464Z</time>
      </trkpt>
      <trkpt lat="47.02286" lon="8.98508">
        <ele>852</ele>
        <time>2021-08-02T10:15:42.463Z</time>
      </trkpt>
      <trkpt lat="47.02285" lon="8.98506">
        <ele>851</ele>
        <time>2021-08-02T10:15:43.464Z</time>
      </trkpt>
      <trkpt lat="47.02284" lon="8.98504">
        <ele>851</ele>
        <time>2021-08-02T10:15:44.463Z</time>
      </trkpt>
      <trkpt lat="47.02283" lon="8.98503">
        <ele>851</ele>
        <time>2021-08-02T10:15:45.464Z</time>
      </trkpt>
      <trkpt lat="47.02283" lon="8.98502">
        <ele>852</ele>
        <time>2021-08-02T10:15:46.464Z</time>
      </trkpt>
      <trkpt lat="47.02283" lon="8.985">
        <ele>852</ele>
        <time>2021-08-02T10:15:47.464Z</time>
      </trkpt>
      <trkpt lat="47.02282" lon="8.98499">
        <ele>852</ele>
        <time>2021-08-02T10:15:48.463Z</time>
      </trkpt>
      <trkpt lat="47.02281" lon="8.98498">
        <ele>852</ele>
        <time>2021-08-02T10:15:49.464Z</time>
      </trkpt>
      <trkpt lat="47.0228" lon="8.98497">
        <ele>852</ele>
        <time>2021-08-02T10:15:50.464Z</time>
      </trkpt>
      <trkpt lat="47.02279" lon="8.98496">
        <ele>852</ele>
        <time>2021-08-02T10:15:51.464Z</time>
      </trkpt>
      <trkpt lat="47.02279" lon="8.98494">
        <ele>852</ele>
        <time>2021-08-02T10:15:52.464Z</time>
      </trkpt>
      <trkpt lat="47.02278" lon="8.98493">
        <ele>852</ele>
        <time>2021-08-02T10:15:53.464Z</time>
      </trkpt>
      <trkpt lat="47.02277" lon="8.98492">
        <ele>852</ele>
        <time>2021-08-02T10:15:54.464Z</time>
      </trkpt>
      <trkpt lat="47.02276" lon="8.98491">
        <ele>851</ele>
        <time>2021-08-02T10:15:55.464Z</time>
      </trkpt>
      <trkpt lat="47.02275" lon="8.98489">
        <ele>850</ele>
        <time>2021-08-02T10:15:56.464Z</time>
      </trkpt>
      <trkpt lat="47.02275" lon="8.98487">
        <ele>850</ele>
        <time>2021-08-02T10:15:57.463Z</time>
      </trkpt>
      <trkpt lat="47.02275" lon="8.98486">
        <ele>849</ele>
        <time>2021-08-02T10:15:58.464Z</time>
      </trkpt>
      <trkpt lat="47.02275" lon="8.98485">
        <ele>849</ele>
        <time>2021-08-02T10:15:59.464Z</time>
      </trkpt>
      <trkpt lat="47.02275" lon="8.98484">
        <ele>849</ele>
        <time>2021-08-02T10:16:00.464Z</time>
      </trkpt>
      <trkpt lat="47.02275" lon="8.98482">
        <ele>849</ele>
        <time>2021-08-02T10:16:01.464Z</time>
      </trkpt>
      <trkpt lat="47.02274" lon="8.98481">
        <ele>849</ele>
        <time>2021-08-02T10:16:07.548Z</time>
      </trkpt>
      <trkpt lat="47.02274" lon="8.98479">
        <ele>849</ele>
        <time>2021-08-02T10:16:08.549Z</time>
      </trkpt>
      <trkpt lat="47.02274" lon="8.98478">
        <ele>848</ele>
        <time>2021-08-02T10:16:09.549Z</time>
      </trkpt>
      <trkpt lat="47.02274" lon="8.98476">
        <ele>848</ele>
        <time>2021-08-02T10:16:10.549Z</time>
      </trkpt>
      <trkpt lat="47.02273" lon="8.98474">
        <ele>848</ele>
        <time>2021-08-02T10:16:11.549Z</time>
      </trkpt>
      <trkpt lat="47.02273" lon="8.98473">
        <ele>848</ele>
        <time>2021-08-02T10:16:12.549Z</time>
      </trkpt>
      <trkpt lat="47.02273" lon="8.98471">
        <ele>847</ele>
        <time>2021-08-02T10:16:13.549Z</time>
      </trkpt>
      <trkpt lat="47.02272" lon="8.9847">
        <ele>847</ele>
        <time>2021-08-02T10:16:14.549Z</time>
      </trkpt>
      <trkpt lat="47.02272" lon="8.98469">
        <ele>847</ele>
        <time>2021-08-02T10:16:15.548Z</time>
      </trkpt>
      <trkpt lat="47.02272" lon="8.98468">
        <ele>848</ele>
        <time>2021-08-02T10:16:16.549Z</time>
      </trkpt>
      <trkpt lat="47.02271" lon="8.98466">
        <ele>848</ele>
        <time>2021-08-02T10:16:17.549Z</time>
      </trkpt>
      <trkpt lat="47.02271" lon="8.98465">
        <ele>848</ele>
        <time>2021-08-02T10:16:18.549Z</time>
      </trkpt>
      <trkpt lat="47.02271" lon="8.98464">
        <ele>849</ele>
        <time>2021-08-02T10:16:19.549Z</time>
      </trkpt>
      <trkpt lat="47.02271" lon="8.98463">
        <ele>849</ele>
        <time>2021-08-02T10:16:20.549Z</time>
      </trkpt>
      <trkpt lat="47.02272" lon="8.98461">
        <ele>849</ele>
        <time>2021-08-02T10:16:21.548Z</time>
      </trkpt>
      <trkpt lat="47.02271" lon="8.98459">
        <ele>849</ele>
        <time>2021-08-02T10:16:22.549Z</time>
      </trkpt>
      <trkpt lat="47.02271" lon="8.98458">
        <ele>849</ele>
        <time>2021-08-02T10:16:23.549Z</time>
      </trkpt>
      <trkpt lat="47.02271" lon="8.98457">
        <ele>850</ele>
        <time>2021-08-02T10:16:24.548Z</time>
      </trkpt>
      <trkpt lat="47.0227" lon="8.98455">
        <ele>850</ele>
        <time>2021-08-02T10:16:25.549Z</time>
      </trkpt>
      <trkpt lat="47.0227" lon="8.98454">
        <ele>850</ele>
        <time>2021-08-02T10:16:26.548Z</time>
      </trkpt>
      <trkpt lat="47.0227" lon="8.98453">
        <ele>851</ele>
        <time>2021-08-02T10:16:27.549Z</time>
      </trkpt>
      <trkpt lat="47.0227" lon="8.98452">
        <ele>851</ele>
        <time>2021-08-02T10:16:28.549Z</time>
      </trkpt>
      <trkpt lat="47.0227" lon="8.98451">
        <ele>851</ele>
        <time>2021-08-02T10:16:29.549Z</time>
      </trkpt>
      <trkpt lat="47.02271" lon="8.98448">
        <ele>852</ele>
        <time>2021-08-02T10:16:30.548Z</time>
      </trkpt>
      <trkpt lat="47.02272" lon="8.98446">
        <ele>852</ele>
        <time>2021-08-02T10:16:31.548Z</time>
      </trkpt>
      <trkpt lat="47.02272" lon="8.98445">
        <ele>853</ele>
        <time>2021-08-02T10:16:32.549Z</time>
      </trkpt>
      <trkpt lat="47.02273" lon="8.98443">
        <ele>853</ele>
        <time>2021-08-02T10:16:33.548Z</time>
      </trkpt>
      <trkpt lat="47.02273" lon="8.98442">
        <ele>853</ele>
        <time>2021-08-02T10:16:34.548Z</time>
      </trkpt>
      <trkpt lat="47.02273" lon="8.98441">
        <ele>854</ele>
        <time>2021-08-02T10:16:35.549Z</time>
      </trkpt>
      <trkpt lat="47.02273" lon="8.9844">
        <ele>854</ele>
        <time>2021-08-02T10:16:36.549Z</time>
      </trkpt>
      <trkpt lat="47.02274" lon="8.98438">
        <ele>854</ele>
        <time>2021-08-02T10:16:37.549Z</time>
      </trkpt>
      <trkpt lat="47.02273" lon="8.98437">
        <ele>854</ele>
        <time>2021-08-02T10:16:38.548Z</time>
      </trkpt>
      <trkpt lat="47.02272" lon="8.98436">
        <ele>854</ele>
        <time>2021-08-02T10:16:39.549Z</time>
      </trkpt>
      <trkpt lat="47.02272" lon="8.98435">
        <ele>854</ele>
        <time>2021-08-02T10:16:40.549Z</time>
      </trkpt>
      <trkpt lat="47.02271" lon="8.98434">
        <ele>854</ele>
        <time>2021-08-02T10:16:41.549Z</time>
      </trkpt>
      <trkpt lat="47.0227" lon="8.98434">
        <ele>854</ele>
        <time>2021-08-02T10:16:42.548Z</time>
      </trkpt>
      <trkpt lat="47.0227" lon="8.98432">
        <ele>854</ele>
        <time>2021-08-02T10:16:43.549Z</time>
      </trkpt>
      <trkpt lat="47.0227" lon="8.98431">
        <ele>854</ele>
        <time>2021-08-02T10:16:44.548Z</time>
      </trkpt>
      <trkpt lat="47.0227" lon="8.98429">
        <ele>854</ele>
        <time>2021-08-02T10:16:45.548Z</time>
      </trkpt>
      <trkpt lat="47.0227" lon="8.98427">
        <ele>854</ele>
        <time>2021-08-02T10:16:46.549Z</time>
      </trkpt>
      <trkpt lat="47.0227" lon="8.98426">
        <ele>854</ele>
        <time>2021-08-02T10:16:47.549Z</time>
      </trkpt>
      <trkpt lat="47.0227" lon="8.98424">
        <ele>854</ele>
        <time>2021-08-02T10:16:48.549Z</time>
      </trkpt>
      <trkpt lat="47.0227" lon="8.98422">
        <ele>854</ele>
        <time>2021-08-02T10:16:49.548Z</time>
      </trkpt>
      <trkpt lat="47.02269" lon="8.98421">
        <ele>854</ele>
        <time>2021-08-02T10:16:50.549Z</time>
      </trkpt>
      <trkpt lat="47.02269" lon="8.9842">
        <ele>854</ele>
        <time>2021-08-02T10:16:51.549Z</time>
      </trkpt>
      <trkpt lat="47.02269" lon="8.98419">
        <ele>854</ele>
        <time>2021-08-02T10:16:52.549Z</time>
      </trkpt>
      <trkpt lat="47.02268" lon="8.98418">
        <ele>854</ele>
        <time>2021-08-02T10:16:53.549Z</time>
      </trkpt>
      <trkpt lat="47.02268" lon="8.98416">
        <ele>854</ele>
        <time>2021-08-02T10:16:54.548Z</time>
      </trkpt>
      <trkpt lat="47.02268" lon="8.98415">
        <ele>855</ele>
        <time>2021-08-02T10:16:55.549Z</time>
      </trkpt>
      <trkpt lat="47.02268" lon="8.98413">
        <ele>855</ele>
        <time>2021-08-02T10:16:56.549Z</time>
      </trkpt>
      <trkpt lat="47.02267" lon="8.98413">
        <ele>855</ele>
        <time>2021-08-02T10:16:57.549Z</time>
      </trkpt>
      <trkpt lat="47.02265" lon="8.98412">
        <ele>855</ele>
        <time>2021-08-02T10:16:58.548Z</time>
      </trkpt>
      <trkpt lat="47.02264" lon="8.98411">
        <ele>855</ele>
        <time>2021-08-02T10:16:59.548Z</time>
      </trkpt>
      <trkpt lat="47.02263" lon="8.9841">
        <ele>855</ele>
        <time>2021-08-02T10:17:00.549Z</time>
      </trkpt>
      <trkpt lat="47.02263" lon="8.98409">
        <ele>855</ele>
        <time>2021-08-02T10:17:01.549Z</time>
      </trkpt>
      <trkpt lat="47.02263" lon="8.98407">
        <ele>855</ele>
        <time>2021-08-02T10:17:02.549Z</time>
      </trkpt>
      <trkpt lat="47.02263" lon="8.98406">
        <ele>854</ele>
        <time>2021-08-02T10:17:03.549Z</time>
      </trkpt>
      <trkpt lat="47.02262" lon="8.98404">
        <ele>854</ele>
        <time>2021-08-02T10:17:04.549Z</time>
      </trkpt>
      <trkpt lat="47.02262" lon="8.98403">
        <ele>854</ele>
        <time>2021-08-02T10:17:05.549Z</time>
      </trkpt>
      <trkpt lat="47.02262" lon="8.98402">
        <ele>854</ele>
        <time>2021-08-02T10:17:06.548Z</time>
      </trkpt>
      <trkpt lat="47.02263" lon="8.984">
        <ele>854</ele>
        <time>2021-08-02T10:17:07.549Z</time>
      </trkpt>
      <trkpt lat="47.02263" lon="8.98398">
        <ele>854</ele>
        <time>2021-08-02T10:17:08.548Z</time>
      </trkpt>
      <trkpt lat="47.02263" lon="8.98397">
        <ele>854</ele>
        <time>2021-08-02T10:17:09.548Z</time>
      </trkpt>
      <trkpt lat="47.02262" lon="8.98396">
        <ele>855</ele>
        <time>2021-08-02T10:17:10.549Z</time>
      </trkpt>
      <trkpt lat="47.02261" lon="8.98395">
        <ele>855</ele>
        <time>2021-08-02T10:17:11.549Z</time>
      </trkpt>
      <trkpt lat="47.02261" lon="8.98394">
        <ele>855</ele>
        <time>2021-08-02T10:17:12.549Z</time>
      </trkpt>
      <trkpt lat="47.02261" lon="8.98393">
        <ele>855</ele>
        <time>2021-08-02T10:17:13.549Z</time>
      </trkpt>
      <trkpt lat="47.02261" lon="8.98392">
        <ele>856</ele>
        <time>2021-08-02T10:17:14.548Z</time>
      </trkpt>
      <trkpt lat="47.02262" lon="8.98391">
        <ele>856</ele>
        <time>2021-08-02T10:17:15.549Z</time>
      </trkpt>
      <trkpt lat="47.02262" lon="8.9839">
        <ele>857</ele>
        <time>2021-08-02T10:17:16.549Z</time>
      </trkpt>
      <trkpt lat="47.02263" lon="8.98389">
        <ele>857</ele>
        <time>2021-08-02T10:17:17.548Z</time>
      </trkpt>
      <trkpt lat="47.02263" lon="8.98388">
        <ele>858</ele>
        <time>2021-08-02T10:17:24.656Z</time>
      </trkpt>
      <trkpt lat="47.02264" lon="8.98386">
        <ele>858</ele>
        <time>2021-08-02T10:17:25.655Z</time>
      </trkpt>
      <trkpt lat="47.02264" lon="8.98385">
        <ele>859</ele>
        <time>2021-08-02T10:17:26.656Z</time>
      </trkpt>
      <trkpt lat="47.02264" lon="8.98384">
        <ele>859</ele>
        <time>2021-08-02T10:17:27.655Z</time>
      </trkpt>
      <trkpt lat="47.02264" lon="8.98383">
        <ele>859</ele>
        <time>2021-08-02T10:17:28.655Z</time>
      </trkpt>
      <trkpt lat="47.02265" lon="8.98381">
        <ele>860</ele>
        <time>2021-08-02T10:17:29.655Z</time>
      </trkpt>
      <trkpt lat="47.02266" lon="8.98379">
        <ele>860</ele>
        <time>2021-08-02T10:17:30.656Z</time>
      </trkpt>
      <trkpt lat="47.02267" lon="8.98377">
        <ele>860</ele>
        <time>2021-08-02T10:17:31.656Z</time>
      </trkpt>
      <trkpt lat="47.02268" lon="8.98375">
        <ele>860</ele>
        <time>2021-08-02T10:17:32.656Z</time>
      </trkpt>
      <trkpt lat="47.02269" lon="8.98373">
        <ele>859</ele>
        <time>2021-08-02T10:17:33.655Z</time>
      </trkpt>
      <trkpt lat="47.0227" lon="8.98371">
        <ele>859</ele>
        <time>2021-08-02T10:17:34.656Z</time>
      </trkpt>
      <trkpt lat="47.02272" lon="8.98369">
        <ele>859</ele>
        <time>2021-08-02T10:17:35.655Z</time>
      </trkpt>
      <trkpt lat="47.02272" lon="8.98367">
        <ele>858</ele>
        <time>2021-08-02T10:17:36.656Z</time>
      </trkpt>
      <trkpt lat="47.02273" lon="8.98365">
        <ele>857</ele>
        <time>2021-08-02T10:17:37.656Z</time>
      </trkpt>
      <trkpt lat="47.02274" lon="8.98363">
        <ele>856</ele>
        <time>2021-08-02T10:17:38.656Z</time>
      </trkpt>
      <trkpt lat="47.02275" lon="8.98361">
        <ele>855</ele>
        <time>2021-08-02T10:17:39.655Z</time>
      </trkpt>
      <trkpt lat="47.02276" lon="8.98359">
        <ele>855</ele>
        <time>2021-08-02T10:17:40.656Z</time>
      </trkpt>
      <trkpt lat="47.02278" lon="8.98357">
        <ele>854</ele>
        <time>2021-08-02T10:17:41.656Z</time>
      </trkpt>
      <trkpt lat="47.02278" lon="8.98355">
        <ele>854</ele>
        <time>2021-08-02T10:17:42.656Z</time>
      </trkpt>
      <trkpt lat="47.02278" lon="8.98353">
        <ele>853</ele>
        <time>2021-08-02T10:17:43.655Z</time>
      </trkpt>
      <trkpt lat="47.02278" lon="8.98352">
        <ele>853</ele>
        <time>2021-08-02T10:17:44.655Z</time>
      </trkpt>
      <trkpt lat="47.02278" lon="8.9835">
        <ele>852</ele>
        <time>2021-08-02T10:17:45.656Z</time>
      </trkpt>
      <trkpt lat="47.02278" lon="8.98349">
        <ele>851</ele>
        <time>2021-08-02T10:17:46.655Z</time>
      </trkpt>
      <trkpt lat="47.02278" lon="8.98348">
        <ele>851</ele>
        <time>2021-08-02T10:17:47.656Z</time>
      </trkpt>
      <trkpt lat="47.02279" lon="8.98347">
        <ele>850</ele>
        <time>2021-08-02T10:17:48.656Z</time>
      </trkpt>
      <trkpt lat="47.02279" lon="8.98345">
        <ele>850</ele>
        <time>2021-08-02T10:17:49.655Z</time>
      </trkpt>
      <trkpt lat="47.02279" lon="8.98344">
        <ele>849</ele>
        <time>2021-08-02T10:17:50.655Z</time>
      </trkpt>
      <trkpt lat="47.02279" lon="8.98343">
        <ele>849</ele>
        <time>2021-08-02T10:17:51.655Z</time>
      </trkpt>
      <trkpt lat="47.02279" lon="8.98341">
        <ele>848</ele>
        <time>2021-08-02T10:17:52.655Z</time>
      </trkpt>
      <trkpt lat="47.02279" lon="8.9834">
        <ele>848</ele>
        <time>2021-08-02T10:17:53.656Z</time>
      </trkpt>
      <trkpt lat="47.02279" lon="8.98338">
        <ele>848</ele>
        <time>2021-08-02T10:17:54.656Z</time>
      </trkpt>
      <trkpt lat="47.0228" lon="8.98337">
        <ele>847</ele>
        <time>2021-08-02T10:17:55.656Z</time>
      </trkpt>
      <trkpt lat="47.0228" lon="8.98335">
        <ele>847</ele>
        <time>2021-08-02T10:17:56.656Z</time>
      </trkpt>
      <trkpt lat="47.0228" lon="8.98333">
        <ele>847</ele>
        <time>2021-08-02T10:17:57.656Z</time>
      </trkpt>
      <trkpt lat="47.0228" lon="8.98332">
        <ele>846</ele>
        <time>2021-08-02T10:17:58.656Z</time>
      </trkpt>
      <trkpt lat="47.02281" lon="8.9833">
        <ele>846</ele>
        <time>2021-08-02T10:17:59.656Z</time>
      </trkpt>
      <trkpt lat="47.02281" lon="8.98328">
        <ele>845</ele>
        <time>2021-08-02T10:18:00.656Z</time>
      </trkpt>
      <trkpt lat="47.02283" lon="8.98324">
        <ele>845</ele>
        <time>2021-08-02T10:18:01.655Z</time>
      </trkpt>
      <trkpt lat="47.02284" lon="8.98321">
        <ele>845</ele>
        <time>2021-08-02T10:18:02.655Z</time>
      </trkpt>
      <trkpt lat="47.02285" lon="8.98319">
        <ele>844</ele>
        <time>2021-08-02T10:18:03.656Z</time>
      </trkpt>
      <trkpt lat="47.02287" lon="8.98317">
        <ele>844</ele>
        <time>2021-08-02T10:18:04.656Z</time>
      </trkpt>
      <trkpt lat="47.02289" lon="8.98315">
        <ele>844</ele>
        <time>2021-08-02T10:18:05.656Z</time>
      </trkpt>
      <trkpt lat="47.0229" lon="8.98314">
        <ele>844</ele>
        <time>2021-08-02T10:18:06.656Z</time>
      </trkpt>
      <trkpt lat="47.02291" lon="8.98313">
        <ele>844</ele>
        <time>2021-08-02T10:18:07.655Z</time>
      </trkpt>
      <trkpt lat="47.02292" lon="8.98312">
        <ele>844</ele>
        <time>2021-08-02T10:18:08.656Z</time>
      </trkpt>
      <trkpt lat="47.02293" lon="8.98311">
        <ele>843</ele>
        <time>2021-08-02T10:18:09.655Z</time>
      </trkpt>
      <trkpt lat="47.02293" lon="8.9831">
        <ele>843</ele>
        <time>2021-08-02T10:18:10.656Z</time>
      </trkpt>
      <trkpt lat="47.02294" lon="8.9831">
        <ele>843</ele>
        <time>2021-08-02T10:18:11.656Z</time>
      </trkpt>
      <trkpt lat="47.02295" lon="8.98309">
        <ele>842</ele>
        <time>2021-08-02T10:18:12.656Z</time>
      </trkpt>
      <trkpt lat="47.02295" lon="8.98308">
        <ele>842</ele>
        <time>2021-08-02T10:18:13.656Z</time>
      </trkpt>
      <trkpt lat="47.02296" lon="8.98306">
        <ele>842</ele>
        <time>2021-08-02T10:18:14.655Z</time>
      </trkpt>
      <trkpt lat="47.02295" lon="8.98304">
        <ele>841</ele>
        <time>2021-08-02T10:18:15.656Z</time>
      </trkpt>
      <trkpt lat="47.02295" lon="8.98302">
        <ele>841</ele>
        <time>2021-08-02T10:18:16.656Z</time>
      </trkpt>
      <trkpt lat="47.02294" lon="8.98301">
        <ele>840</ele>
        <time>2021-08-02T10:18:17.656Z</time>
      </trkpt>
      <trkpt lat="47.02295" lon="8.983">
        <ele>839</ele>
        <time>2021-08-02T10:18:18.656Z</time>
      </trkpt>
      <trkpt lat="47.02295" lon="8.98299">
        <ele>838</ele>
        <time>2021-08-02T10:18:19.655Z</time>
      </trkpt>
      <trkpt lat="47.02296" lon="8.98298">
        <ele>838</ele>
        <time>2021-08-02T10:18:20.655Z</time>
      </trkpt>
      <trkpt lat="47.02297" lon="8.98296">
        <ele>838</ele>
        <time>2021-08-02T10:18:21.656Z</time>
      </trkpt>
      <trkpt lat="47.02298" lon="8.98294">
        <ele>838</ele>
        <time>2021-08-02T10:18:22.655Z</time>
      </trkpt>
      <trkpt lat="47.02298" lon="8.98293">
        <ele>838</ele>
        <time>2021-08-02T10:18:23.656Z</time>
      </trkpt>
      <trkpt lat="47.02299" lon="8.98292">
        <ele>838</ele>
        <time>2021-08-02T10:18:24.655Z</time>
      </trkpt>
      <trkpt lat="47.02299" lon="8.98291">
        <ele>838</ele>
        <time>2021-08-02T10:18:25.656Z</time>
      </trkpt>
      <trkpt lat="47.02299" lon="8.98291">
        <ele>838</ele>
        <time>2021-08-02T10:18:26.656Z</time>
      </trkpt>
      <trkpt lat="47.02299" lon="8.9829">
        <ele>838</ele>
        <time>2021-08-02T10:18:27.656Z</time>
      </trkpt>
      <trkpt lat="47.02299" lon="8.9829">
        <ele>838</ele>
        <time>2021-08-02T10:18:28.656Z</time>
      </trkpt>
      <trkpt lat="47.023" lon="8.98289">
        <ele>838</ele>
        <time>2021-08-02T10:18:29.655Z</time>
      </trkpt>
      <trkpt lat="47.023" lon="8.98288">
        <ele>838</ele>
        <time>2021-08-02T10:18:30.656Z</time>
      </trkpt>
      <trkpt lat="47.02301" lon="8.98287">
        <ele>839</ele>
        <time>2021-08-02T10:18:31.656Z</time>
      </trkpt>
      <trkpt lat="47.02302" lon="8.98287">
        <ele>839</ele>
        <time>2021-08-02T10:18:32.655Z</time>
      </trkpt>
      <trkpt lat="47.02302" lon="8.98286">
        <ele>839</ele>
        <time>2021-08-02T10:18:33.656Z</time>
      </trkpt>
      <trkpt lat="47.02303" lon="8.98286">
        <ele>840</ele>
        <time>2021-08-02T10:18:34.655Z</time>
      </trkpt>
      <trkpt lat="47.02304" lon="8.98286">
        <ele>840</ele>
        <time>2021-08-02T10:18:35.656Z</time>
      </trkpt>
      <trkpt lat="47.02305" lon="8.98286">
        <ele>840</ele>
        <time>2021-08-02T10:18:36.656Z</time>
      </trkpt>
      <trkpt lat="47.02306" lon="8.98285">
        <ele>840</ele>
        <time>2021-08-02T10:18:37.656Z</time>
      </trkpt>
      <trkpt lat="47.02306" lon="8.98284">
        <ele>841</ele>
        <time>2021-08-02T10:18:38.656Z</time>
      </trkpt>
      <trkpt lat="47.02307" lon="8.98283">
        <ele>841</ele>
        <time>2021-08-02T10:18:39.655Z</time>
      </trkpt>
      <trkpt lat="47.02308" lon="8.98282">
        <ele>841</ele>
        <time>2021-08-02T10:18:40.655Z</time>
      </trkpt>
      <trkpt lat="47.02309" lon="8.98281">
        <ele>842</ele>
        <time>2021-08-02T10:18:41.655Z</time>
      </trkpt>
      <trkpt lat="47.02309" lon="8.98279">
        <ele>842</ele>
        <time>2021-08-02T10:18:42.655Z</time>
      </trkpt>
      <trkpt lat="47.0231" lon="8.98277">
        <ele>843</ele>
        <time>2021-08-02T10:18:43.656Z</time>
      </trkpt>
      <trkpt lat="47.0231" lon="8.98276">
        <ele>843</ele>
        <time>2021-08-02T10:18:44.655Z</time>
      </trkpt>
      <trkpt lat="47.02309" lon="8.98275">
        <ele>844</ele>
        <time>2021-08-02T10:18:45.656Z</time>
      </trkpt>
      <trkpt lat="47.0231" lon="8.98273">
        <ele>844</ele>
        <time>2021-08-02T10:18:46.656Z</time>
      </trkpt>
      <trkpt lat="47.0231" lon="8.98272">
        <ele>844</ele>
        <time>2021-08-02T10:18:47.656Z</time>
      </trkpt>
      <trkpt lat="47.02311" lon="8.9827">
        <ele>844</ele>
        <time>2021-08-02T10:18:48.655Z</time>
      </trkpt>
      <trkpt lat="47.02311" lon="8.98268">
        <ele>844</ele>
        <time>2021-08-02T10:18:49.656Z</time>
      </trkpt>
      <trkpt lat="47.02311" lon="8.98266">
        <ele>844</ele>
        <time>2021-08-02T10:18:50.656Z</time>
      </trkpt>
      <trkpt lat="47.02312" lon="8.98265">
        <ele>845</ele>
        <time>2021-08-02T10:18:51.656Z</time>
      </trkpt>
      <trkpt lat="47.02312" lon="8.98263">
        <ele>845</ele>
        <time>2021-08-02T10:18:52.656Z</time>
      </trkpt>
      <trkpt lat="47.02312" lon="8.98261">
        <ele>846</ele>
        <time>2021-08-02T10:18:53.656Z</time>
      </trkpt>
      <trkpt lat="47.02313" lon="8.98259">
        <ele>847</ele>
        <time>2021-08-02T10:18:54.655Z</time>
      </trkpt>
      <trkpt lat="47.02313" lon="8.98257">
        <ele>847</ele>
        <time>2021-08-02T10:18:55.656Z</time>
      </trkpt>
      <trkpt lat="47.02314" lon="8.98255">
        <ele>848</ele>
        <time>2021-08-02T10:18:56.656Z</time>
      </trkpt>
      <trkpt lat="47.02315" lon="8.98253">
        <ele>848</ele>
        <time>2021-08-02T10:18:57.656Z</time>
      </trkpt>
      <trkpt lat="47.02316" lon="8.9825">
        <ele>849</ele>
        <time>2021-08-02T10:18:58.656Z</time>
      </trkpt>
      <trkpt lat="47.02316" lon="8.98247">
        <ele>849</ele>
        <time>2021-08-02T10:18:59.655Z</time>
      </trkpt>
      <trkpt lat="47.02316" lon="8.98245">
        <ele>849</ele>
        <time>2021-08-02T10:19:00.656Z</time>
      </trkpt>
      <trkpt lat="47.02315" lon="8.98244">
        <ele>848</ele>
        <time>2021-08-02T10:19:01.656Z</time>
      </trkpt>
      <trkpt lat="47.02316" lon="8.98243">
        <ele>848</ele>
        <time>2021-08-02T10:19:02.655Z</time>
      </trkpt>
      <trkpt lat="47.02316" lon="8.98241">
        <ele>848</ele>
        <time>2021-08-02T10:19:03.655Z</time>
      </trkpt>
      <trkpt lat="47.02316" lon="8.9824">
        <ele>848</ele>
        <time>2021-08-02T10:19:04.656Z</time>
      </trkpt>
      <trkpt lat="47.02315" lon="8.98238">
        <ele>848</ele>
        <time>2021-08-02T10:19:05.656Z</time>
      </trkpt>
      <trkpt lat="47.02316" lon="8.98237">
        <ele>849</ele>
        <time>2021-08-02T10:19:06.655Z</time>
      </trkpt>
      <trkpt lat="47.02315" lon="8.98234">
        <ele>849</ele>
        <time>2021-08-02T10:19:07.655Z</time>
      </trkpt>
      <trkpt lat="47.02314" lon="8.98232">
        <ele>850</ele>
        <time>2021-08-02T10:19:08.656Z</time>
      </trkpt>
      <trkpt lat="47.02312" lon="8.9823">
        <ele>850</ele>
        <time>2021-08-02T10:19:09.655Z</time>
      </trkpt>
      <trkpt lat="47.0231" lon="8.98228">
        <ele>850</ele>
        <time>2021-08-02T10:19:10.656Z</time>
      </trkpt>
      <trkpt lat="47.02309" lon="8.98227">
        <ele>850</ele>
        <time>2021-08-02T10:19:11.655Z</time>
      </trkpt>
      <trkpt lat="47.02308" lon="8.98227">
        <ele>850</ele>
        <time>2021-08-02T10:19:12.656Z</time>
      </trkpt>
      <trkpt lat="47.02308" lon="8.98226">
        <ele>850</ele>
        <time>2021-08-02T10:19:13.656Z</time>
      </trkpt>
      <trkpt lat="47.02307" lon="8.98225">
        <ele>850</ele>
        <time>2021-08-02T10:19:14.656Z</time>
      </trkpt>
      <trkpt lat="47.02306" lon="8.98224">
        <ele>849</ele>
        <time>2021-08-02T10:19:15.656Z</time>
      </trkpt>
      <trkpt lat="47.02305" lon="8.98222">
        <ele>849</ele>
        <time>2021-08-02T10:19:16.655Z</time>
      </trkpt>
      <trkpt lat="47.02304" lon="8.98221">
        <ele>848</ele>
        <time>2021-08-02T10:19:17.656Z</time>
      </trkpt>
      <trkpt lat="47.02304" lon="8.9822">
        <ele>848</ele>
        <time>2021-08-02T10:19:18.656Z</time>
      </trkpt>
      <trkpt lat="47.02303" lon="8.98219">
        <ele>847</ele>
        <time>2021-08-02T10:19:19.656Z</time>
      </trkpt>
      <trkpt lat="47.02302" lon="8.98218">
        <ele>846</ele>
        <time>2021-08-02T10:19:20.656Z</time>
      </trkpt>
      <trkpt lat="47.02301" lon="8.98217">
        <ele>846</ele>
        <time>2021-08-02T10:19:21.656Z</time>
      </trkpt>
      <trkpt lat="47.023" lon="8.98215">
        <ele>846</ele>
        <time>2021-08-02T10:19:22.655Z</time>
      </trkpt>
      <trkpt lat="47.02299" lon="8.98214">
        <ele>846</ele>
        <time>2021-08-02T10:19:23.656Z</time>
      </trkpt>
      <trkpt lat="47.02297" lon="8.98213">
        <ele>846</ele>
        <time>2021-08-02T10:19:24.656Z</time>
      </trkpt>
      <trkpt lat="47.02297" lon="8.98211">
        <ele>846</ele>
        <time>2021-08-02T10:19:25.656Z</time>
      </trkpt>
      <trkpt lat="47.02296" lon="8.98209">
        <ele>846</ele>
        <time>2021-08-02T10:19:26.656Z</time>
      </trkpt>
      <trkpt lat="47.02295" lon="8.98208">
        <ele>847</ele>
        <time>2021-08-02T10:19:27.656Z</time>
      </trkpt>
      <trkpt lat="47.02295" lon="8.98208">
        <ele>847</ele>
        <time>2021-08-02T10:19:28.656Z</time>
      </trkpt>
      <trkpt lat="47.02295" lon="8.98207">
        <ele>847</ele>
        <time>2021-08-02T10:19:29.655Z</time>
      </trkpt>
      <trkpt lat="47.02295" lon="8.98206">
        <ele>847</ele>
        <time>2021-08-02T10:19:30.656Z</time>
      </trkpt>
      <trkpt lat="47.02295" lon="8.98204">
        <ele>847</ele>
        <time>2021-08-02T10:19:31.655Z</time>
      </trkpt>
      <trkpt lat="47.02295" lon="8.98202">
        <ele>847</ele>
        <time>2021-08-02T10:19:32.656Z</time>
      </trkpt>
      <trkpt lat="47.02295" lon="8.98201">
        <ele>848</ele>
        <time>2021-08-02T10:19:33.656Z</time>
      </trkpt>
      <trkpt lat="47.02295" lon="8.98199">
        <ele>848</ele>
        <time>2021-08-02T10:19:34.656Z</time>
      </trkpt>
      <trkpt lat="47.02295" lon="8.98198">
        <ele>848</ele>
        <time>2021-08-02T10:19:35.656Z</time>
      </trkpt>
      <trkpt lat="47.02294" lon="8.98196">
        <ele>848</ele>
        <time>2021-08-02T10:19:36.656Z</time>
      </trkpt>
      <trkpt lat="47.02294" lon="8.98195">
        <ele>849</ele>
        <time>2021-08-02T10:19:37.656Z</time>
      </trkpt>
      <trkpt lat="47.02293" lon="8.98194">
        <ele>850</ele>
        <time>2021-08-02T10:19:38.655Z</time>
      </trkpt>
      <trkpt lat="47.02293" lon="8.98193">
        <ele>850</ele>
        <time>2021-08-02T10:19:39.655Z</time>
      </trkpt>
      <trkpt lat="47.02293" lon="8.98193">
        <ele>850</ele>
        <time>2021-08-02T10:19:40.655Z</time>
      </trkpt>
      <trkpt lat="47.02292" lon="8.98192">
        <ele>851</ele>
        <time>2021-08-02T10:19:41.655Z</time>
      </trkpt>
      <trkpt lat="47.02292" lon="8.98191">
        <ele>851</ele>
        <time>2021-08-02T10:19:42.656Z</time>
      </trkpt>
      <trkpt lat="47.02292" lon="8.9819">
        <ele>851</ele>
        <time>2021-08-02T10:19:43.656Z</time>
      </trkpt>
      <trkpt lat="47.02292" lon="8.98189">
        <ele>852</ele>
        <time>2021-08-02T10:19:44.656Z</time>
      </trkpt>
      <trkpt lat="47.02292" lon="8.98187">
        <ele>852</ele>
        <time>2021-08-02T10:19:45.655Z</time>
      </trkpt>
      <trkpt lat="47.02292" lon="8.98186">
        <ele>852</ele>
        <time>2021-08-02T10:19:46.656Z</time>
      </trkpt>
      <trkpt lat="47.02293" lon="8.98184">
        <ele>852</ele>
        <time>2021-08-02T10:19:47.655Z</time>
      </trkpt>
      <trkpt lat="47.02292" lon="8.98183">
        <ele>852</ele>
        <time>2021-08-02T10:19:48.655Z</time>
      </trkpt>
      <trkpt lat="47.02292" lon="8.98181">
        <ele>852</ele>
        <time>2021-08-02T10:19:49.655Z</time>
      </trkpt>
      <trkpt lat="47.02291" lon="8.98179">
        <ele>852</ele>
        <time>2021-08-02T10:19:50.656Z</time>
      </trkpt>
      <trkpt lat="47.02291" lon="8.98177">
        <ele>851</ele>
        <time>2021-08-02T10:19:51.655Z</time>
      </trkpt>
      <trkpt lat="47.02292" lon="8.98176">
        <ele>851</ele>
        <time>2021-08-02T10:19:52.656Z</time>
      </trkpt>
      <trkpt lat="47.02292" lon="8.98174">
        <ele>851</ele>
        <time>2021-08-02T10:19:53.656Z</time>
      </trkpt>
      <trkpt lat="47.02292" lon="8.98173">
        <ele>850</ele>
        <time>2021-08-02T10:19:54.655Z</time>
      </trkpt>
      <trkpt lat="47.02292" lon="8.98172">
        <ele>851</ele>
        <time>2021-08-02T10:19:55.656Z</time>
      </trkpt>
      <trkpt lat="47.02291" lon="8.9817">
        <ele>851</ele>
        <time>2021-08-02T10:19:56.656Z</time>
      </trkpt>
      <trkpt lat="47.02291" lon="8.98169">
        <ele>851</ele>
        <time>2021-08-02T10:19:57.656Z</time>
      </trkpt>
      <trkpt lat="47.02291" lon="8.98168">
        <ele>852</ele>
        <time>2021-08-02T10:19:58.655Z</time>
      </trkpt>
      <trkpt lat="47.02291" lon="8.98167">
        <ele>852</ele>
        <time>2021-08-02T10:19:59.656Z</time>
      </trkpt>
      <trkpt lat="47.02291" lon="8.98165">
        <ele>853</ele>
        <time>2021-08-02T10:20:00.656Z</time>
      </trkpt>
      <trkpt lat="47.02291" lon="8.98163">
        <ele>853</ele>
        <time>2021-08-02T10:20:01.656Z</time>
      </trkpt>
      <trkpt lat="47.02291" lon="8.98161">
        <ele>853</ele>
        <time>2021-08-02T10:20:02.656Z</time>
      </trkpt>
      <trkpt lat="47.02292" lon="8.98159">
        <ele>853</ele>
        <time>2021-08-02T10:20:03.656Z</time>
      </trkpt>
      <trkpt lat="47.02292" lon="8.98158">
        <ele>854</ele>
        <time>2021-08-02T10:20:04.655Z</time>
      </trkpt>
      <trkpt lat="47.02292" lon="8.98157">
        <ele>854</ele>
        <time>2021-08-02T10:20:05.655Z</time>
      </trkpt>
      <trkpt lat="47.02291" lon="8.98155">
        <ele>855</ele>
        <time>2021-08-02T10:20:06.656Z</time>
      </trkpt>
      <trkpt lat="47.02291" lon="8.98154">
        <ele>855</ele>
        <time>2021-08-02T10:20:07.656Z</time>
      </trkpt>
      <trkpt lat="47.02291" lon="8.98153">
        <ele>856</ele>
        <time>2021-08-02T10:20:08.656Z</time>
      </trkpt>
      <trkpt lat="47.02291" lon="8.98151">
        <ele>856</ele>
        <time>2021-08-02T10:20:09.656Z</time>
      </trkpt>
      <trkpt lat="47.02291" lon="8.9815">
        <ele>857</ele>
        <time>2021-08-02T10:20:10.656Z</time>
      </trkpt>
      <trkpt lat="47.02291" lon="8.98149">
        <ele>856</ele>
        <time>2021-08-02T10:20:11.655Z</time>
      </trkpt>
      <trkpt lat="47.0229" lon="8.98148">
        <ele>856</ele>
        <time>2021-08-02T10:20:12.656Z</time>
      </trkpt>
      <trkpt lat="47.02291" lon="8.98146">
        <ele>856</ele>
        <time>2021-08-02T10:20:13.655Z</time>
      </trkpt>
      <trkpt lat="47.0229" lon="8.98145">
        <ele>856</ele>
        <time>2021-08-02T10:20:14.656Z</time>
      </trkpt>
      <trkpt lat="47.0229" lon="8.98144">
        <ele>857</ele>
        <time>2021-08-02T10:20:15.656Z</time>
      </trkpt>
      <trkpt lat="47.0229" lon="8.98142">
        <ele>857</ele>
        <time>2021-08-02T10:20:16.655Z</time>
      </trkpt>
      <trkpt lat="47.0229" lon="8.98141">
        <ele>857</ele>
        <time>2021-08-02T10:20:17.656Z</time>
      </trkpt>
      <trkpt lat="47.02291" lon="8.98139">
        <ele>857</ele>
        <time>2021-08-02T10:20:18.655Z</time>
      </trkpt>
      <trkpt lat="47.02291" lon="8.98137">
        <ele>857</ele>
        <time>2021-08-02T10:20:19.655Z</time>
      </trkpt>
      <trkpt lat="47.0229" lon="8.98136">
        <ele>857</ele>
        <time>2021-08-02T10:20:20.656Z</time>
      </trkpt>
      <trkpt lat="47.0229" lon="8.98135">
        <ele>857</ele>
        <time>2021-08-02T10:20:21.656Z</time>
      </trkpt>
      <trkpt lat="47.0229" lon="8.98133">
        <ele>857</ele>
        <time>2021-08-02T10:20:22.655Z</time>
      </trkpt>
      <trkpt lat="47.02291" lon="8.98132">
        <ele>857</ele>
        <time>2021-08-02T10:20:23.655Z</time>
      </trkpt>
      <trkpt lat="47.02292" lon="8.9813">
        <ele>857</ele>
        <time>2021-08-02T10:20:24.656Z</time>
      </trkpt>
      <trkpt lat="47.02291" lon="8.98129">
        <ele>857</ele>
        <time>2021-08-02T10:20:25.655Z</time>
      </trkpt>
      <trkpt lat="47.02291" lon="8.98128">
        <ele>857</ele>
        <time>2021-08-02T10:20:26.655Z</time>
      </trkpt>
      <trkpt lat="47.0229" lon="8.98126">
        <ele>856</ele>
        <time>2021-08-02T10:20:27.656Z</time>
      </trkpt>
      <trkpt lat="47.02289" lon="8.98125">
        <ele>856</ele>
        <time>2021-08-02T10:20:28.655Z</time>
      </trkpt>
      <trkpt lat="47.02287" lon="8.98125">
        <ele>855</ele>
        <time>2021-08-02T10:20:29.655Z</time>
      </trkpt>
      <trkpt lat="47.02286" lon="8.98123">
        <ele>855</ele>
        <time>2021-08-02T10:20:30.655Z</time>
      </trkpt>
      <trkpt lat="47.02286" lon="8.98122">
        <ele>855</ele>
        <time>2021-08-02T10:20:31.656Z</time>
      </trkpt>
      <trkpt lat="47.02285" lon="8.9812">
        <ele>855</ele>
        <time>2021-08-02T10:20:32.656Z</time>
      </trkpt>
      <trkpt lat="47.02285" lon="8.98119">
        <ele>855</ele>
        <time>2021-08-02T10:20:33.656Z</time>
      </trkpt>
      <trkpt lat="47.02285" lon="8.98117">
        <ele>856</ele>
        <time>2021-08-02T10:20:34.656Z</time>
      </trkpt>
      <trkpt lat="47.02284" lon="8.98116">
        <ele>856</ele>
        <time>2021-08-02T10:20:35.655Z</time>
      </trkpt>
      <trkpt lat="47.02284" lon="8.98116">
        <ele>857</ele>
        <time>2021-08-02T10:20:36.656Z</time>
      </trkpt>
      <trkpt lat="47.02283" lon="8.98115">
        <ele>858</ele>
        <time>2021-08-02T10:20:37.655Z</time>
      </trkpt>
      <trkpt lat="47.02283" lon="8.98114">
        <ele>858</ele>
        <time>2021-08-02T10:20:38.655Z</time>
      </trkpt>
      <trkpt lat="47.02283" lon="8.98113">
        <ele>858</ele>
        <time>2021-08-02T10:20:39.655Z</time>
      </trkpt>
      <trkpt lat="47.02282" lon="8.98112">
        <ele>858</ele>
        <time>2021-08-02T10:20:40.655Z</time>
      </trkpt>
      <trkpt lat="47.02281" lon="8.98111">
        <ele>857</ele>
        <time>2021-08-02T10:20:41.656Z</time>
      </trkpt>
      <trkpt lat="47.0228" lon="8.9811">
        <ele>857</ele>
        <time>2021-08-02T10:20:42.655Z</time>
      </trkpt>
      <trkpt lat="47.02279" lon="8.98109">
        <ele>857</ele>
        <time>2021-08-02T10:20:43.655Z</time>
      </trkpt>
      <trkpt lat="47.02278" lon="8.98108">
        <ele>857</ele>
        <time>2021-08-02T10:20:44.656Z</time>
      </trkpt>
      <trkpt lat="47.02278" lon="8.98107">
        <ele>857</ele>
        <time>2021-08-02T10:20:45.655Z</time>
      </trkpt>
      <trkpt lat="47.02278" lon="8.98104">
        <ele>857</ele>
        <time>2021-08-02T10:20:46.656Z</time>
      </trkpt>
      <trkpt lat="47.02278" lon="8.98103">
        <ele>857</ele>
        <time>2021-08-02T10:20:47.656Z</time>
      </trkpt>
      <trkpt lat="47.02278" lon="8.98102">
        <ele>857</ele>
        <time>2021-08-02T10:20:48.655Z</time>
      </trkpt>
      <trkpt lat="47.02278" lon="8.981">
        <ele>857</ele>
        <time>2021-08-02T10:20:49.656Z</time>
      </trkpt>
      <trkpt lat="47.02279" lon="8.98098">
        <ele>857</ele>
        <time>2021-08-02T10:20:50.655Z</time>
      </trkpt>
      <trkpt lat="47.02279" lon="8.98095">
        <ele>857</ele>
        <time>2021-08-02T10:20:51.655Z</time>
      </trkpt>
      <trkpt lat="47.02278" lon="8.98093">
        <ele>857</ele>
        <time>2021-08-02T10:20:52.655Z</time>
      </trkpt>
      <trkpt lat="47.02277" lon="8.98091">
        <ele>857</ele>
        <time>2021-08-02T10:20:53.656Z</time>
      </trkpt>
      <trkpt lat="47.02277" lon="8.9809">
        <ele>857</ele>
        <time>2021-08-02T10:20:54.656Z</time>
      </trkpt>
      <trkpt lat="47.02276" lon="8.98089">
        <ele>858</ele>
        <time>2021-08-02T10:20:55.656Z</time>
      </trkpt>
      <trkpt lat="47.02276" lon="8.98088">
        <ele>858</ele>
        <time>2021-08-02T10:20:56.655Z</time>
      </trkpt>
      <trkpt lat="47.02276" lon="8.98087">
        <ele>858</ele>
        <time>2021-08-02T10:20:57.656Z</time>
      </trkpt>
      <trkpt lat="47.02275" lon="8.98086">
        <ele>858</ele>
        <time>2021-08-02T10:20:58.656Z</time>
      </trkpt>
      <trkpt lat="47.02275" lon="8.98085">
        <ele>859</ele>
        <time>2021-08-02T10:20:59.656Z</time>
      </trkpt>
      <trkpt lat="47.02275" lon="8.98084">
        <ele>858</ele>
        <time>2021-08-02T10:21:00.655Z</time>
      </trkpt>
      <trkpt lat="47.02275" lon="8.98082">
        <ele>858</ele>
        <time>2021-08-02T10:21:01.656Z</time>
      </trkpt>
      <trkpt lat="47.02275" lon="8.9808">
        <ele>857</ele>
        <time>2021-08-02T10:21:02.656Z</time>
      </trkpt>
      <trkpt lat="47.02274" lon="8.98078">
        <ele>856</ele>
        <time>2021-08-02T10:21:03.655Z</time>
      </trkpt>
      <trkpt lat="47.02273" lon="8.98077">
        <ele>856</ele>
        <time>2021-08-02T10:21:04.655Z</time>
      </trkpt>
      <trkpt lat="47.02271" lon="8.98075">
        <ele>856</ele>
        <time>2021-08-02T10:21:05.655Z</time>
      </trkpt>
      <trkpt lat="47.0227" lon="8.98074">
        <ele>856</ele>
        <time>2021-08-02T10:21:06.656Z</time>
      </trkpt>
      <trkpt lat="47.02269" lon="8.98073">
        <ele>856</ele>
        <time>2021-08-02T10:21:07.655Z</time>
      </trkpt>
      <trkpt lat="47.02268" lon="8.98071">
        <ele>856</ele>
        <time>2021-08-02T10:21:08.656Z</time>
      </trkpt>
      <trkpt lat="47.02267" lon="8.9807">
        <ele>856</ele>
        <time>2021-08-02T10:21:09.656Z</time>
      </trkpt>
      <trkpt lat="47.02267" lon="8.98069">
        <ele>856</ele>
        <time>2021-08-02T10:21:10.656Z</time>
      </trkpt>
      <trkpt lat="47.02266" lon="8.98068">
        <ele>856</ele>
        <time>2021-08-02T10:21:11.656Z</time>
      </trkpt>
      <trkpt lat="47.02266" lon="8.98066">
        <ele>856</ele>
        <time>2021-08-02T10:21:12.656Z</time>
      </trkpt>
      <trkpt lat="47.02266" lon="8.98065">
        <ele>856</ele>
        <time>2021-08-02T10:21:13.656Z</time>
      </trkpt>
      <trkpt lat="47.02265" lon="8.98063">
        <ele>855</ele>
        <time>2021-08-02T10:21:14.656Z</time>
      </trkpt>
      <trkpt lat="47.02264" lon="8.98062">
        <ele>855</ele>
        <time>2021-08-02T10:21:15.655Z</time>
      </trkpt>
      <trkpt lat="47.02263" lon="8.9806">
        <ele>855</ele>
        <time>2021-08-02T10:21:16.656Z</time>
      </trkpt>
      <trkpt lat="47.02262" lon="8.98059">
        <ele>855</ele>
        <time>2021-08-02T10:21:17.656Z</time>
      </trkpt>
      <trkpt lat="47.0226" lon="8.98057">
        <ele>854</ele>
        <time>2021-08-02T10:21:18.655Z</time>
      </trkpt>
      <trkpt lat="47.02259" lon="8.98056">
        <ele>854</ele>
        <time>2021-08-02T10:21:19.655Z</time>
      </trkpt>
      <trkpt lat="47.02258" lon="8.98056">
        <ele>854</ele>
        <time>2021-08-02T10:21:20.656Z</time>
      </trkpt>
      <trkpt lat="47.02257" lon="8.98055">
        <ele>854</ele>
        <time>2021-08-02T10:21:21.656Z</time>
      </trkpt>
      <trkpt lat="47.02257" lon="8.98054">
        <ele>854</ele>
        <time>2021-08-02T10:21:22.656Z</time>
      </trkpt>
      <trkpt lat="47.02257" lon="8.98053">
        <ele>854</ele>
        <time>2021-08-02T10:21:23.655Z</time>
      </trkpt>
      <trkpt lat="47.02256" lon="8.98052">
        <ele>854</ele>
        <time>2021-08-02T10:21:24.655Z</time>
      </trkpt>
      <trkpt lat="47.02255" lon="8.9805">
        <ele>854</ele>
        <time>2021-08-02T10:21:25.655Z</time>
      </trkpt>
      <trkpt lat="47.02255" lon="8.98049">
        <ele>855</ele>
        <time>2021-08-02T10:21:26.655Z</time>
      </trkpt>
      <trkpt lat="47.02255" lon="8.98047">
        <ele>855</ele>
        <time>2021-08-02T10:21:27.655Z</time>
      </trkpt>
      <trkpt lat="47.02254" lon="8.98045">
        <ele>855</ele>
        <time>2021-08-02T10:21:28.655Z</time>
      </trkpt>
      <trkpt lat="47.02254" lon="8.98042">
        <ele>855</ele>
        <time>2021-08-02T10:21:29.655Z</time>
      </trkpt>
      <trkpt lat="47.02254" lon="8.9804">
        <ele>855</ele>
        <time>2021-08-02T10:21:30.655Z</time>
      </trkpt>
      <trkpt lat="47.02253" lon="8.98039">
        <ele>855</ele>
        <time>2021-08-02T10:21:31.656Z</time>
      </trkpt>
      <trkpt lat="47.02253" lon="8.98038">
        <ele>855</ele>
        <time>2021-08-02T10:21:32.655Z</time>
      </trkpt>
      <trkpt lat="47.02253" lon="8.98036">
        <ele>855</ele>
        <time>2021-08-02T10:21:33.655Z</time>
      </trkpt>
      <trkpt lat="47.02252" lon="8.98035">
        <ele>855</ele>
        <time>2021-08-02T10:21:34.655Z</time>
      </trkpt>
      <trkpt lat="47.02252" lon="8.98034">
        <ele>855</ele>
        <time>2021-08-02T10:21:35.655Z</time>
      </trkpt>
      <trkpt lat="47.02251" lon="8.98032">
        <ele>855</ele>
        <time>2021-08-02T10:21:36.656Z</time>
      </trkpt>
      <trkpt lat="47.02251" lon="8.98031">
        <ele>855</ele>
        <time>2021-08-02T10:21:37.656Z</time>
      </trkpt>
      <trkpt lat="47.0225" lon="8.98031">
        <ele>855</ele>
        <time>2021-08-02T10:21:38.656Z</time>
      </trkpt>
      <trkpt lat="47.02251" lon="8.9803">
        <ele>855</ele>
        <time>2021-08-02T10:21:39.656Z</time>
      </trkpt>
      <trkpt lat="47.0225" lon="8.98028">
        <ele>855</ele>
        <time>2021-08-02T10:21:40.656Z</time>
      </trkpt>
      <trkpt lat="47.02249" lon="8.98026">
        <ele>855</ele>
        <time>2021-08-02T10:21:41.655Z</time>
      </trkpt>
      <trkpt lat="47.02249" lon="8.98025">
        <ele>855</ele>
        <time>2021-08-02T10:21:42.656Z</time>
      </trkpt>
      <trkpt lat="47.02248" lon="8.98024">
        <ele>854</ele>
        <time>2021-08-02T10:21:43.655Z</time>
      </trkpt>
      <trkpt lat="47.02248" lon="8.98024">
        <ele>854</ele>
        <time>2021-08-02T10:21:44.656Z</time>
      </trkpt>
      <trkpt lat="47.02247" lon="8.98023">
        <ele>854</ele>
        <time>2021-08-02T10:21:45.655Z</time>
      </trkpt>
      <trkpt lat="47.02247" lon="8.98022">
        <ele>854</ele>
        <time>2021-08-02T10:21:46.656Z</time>
      </trkpt>
      <trkpt lat="47.02246" lon="8.98021">
        <ele>854</ele>
        <time>2021-08-02T10:21:47.656Z</time>
      </trkpt>
      <trkpt lat="47.02247" lon="8.9802">
        <ele>854</ele>
        <time>2021-08-02T10:21:48.655Z</time>
      </trkpt>
      <trkpt lat="47.02246" lon="8.98018">
        <ele>854</ele>
        <time>2021-08-02T10:21:49.656Z</time>
      </trkpt>
      <trkpt lat="47.02246" lon="8.98016">
        <ele>854</ele>
        <time>2021-08-02T10:21:50.655Z</time>
      </trkpt>
      <trkpt lat="47.02246" lon="8.98015">
        <ele>854</ele>
        <time>2021-08-02T10:21:51.655Z</time>
      </trkpt>
      <trkpt lat="47.02246" lon="8.98013">
        <ele>854</ele>
        <time>2021-08-02T10:21:52.655Z</time>
      </trkpt>
      <trkpt lat="47.02245" lon="8.98011">
        <ele>855</ele>
        <time>2021-08-02T10:21:56.694Z</time>
      </trkpt>
      <trkpt lat="47.02244" lon="8.9801">
        <ele>855</ele>
        <time>2021-08-02T10:21:57.694Z</time>
      </trkpt>
      <trkpt lat="47.02244" lon="8.98009">
        <ele>856</ele>
        <time>2021-08-02T10:21:58.693Z</time>
      </trkpt>
      <trkpt lat="47.02243" lon="8.98008">
        <ele>856</ele>
        <time>2021-08-02T10:21:59.694Z</time>
      </trkpt>
      <trkpt lat="47.02242" lon="8.98006">
        <ele>856</ele>
        <time>2021-08-02T10:22:00.694Z</time>
      </trkpt>
      <trkpt lat="47.02242" lon="8.98005">
        <ele>857</ele>
        <time>2021-08-02T10:22:01.694Z</time>
      </trkpt>
      <trkpt lat="47.02241" lon="8.98004">
        <ele>857</ele>
        <time>2021-08-02T10:22:02.694Z</time>
      </trkpt>
      <trkpt lat="47.0224" lon="8.98004">
        <ele>857</ele>
        <time>2021-08-02T10:22:03.693Z</time>
      </trkpt>
      <trkpt lat="47.0224" lon="8.98003">
        <ele>857</ele>
        <time>2021-08-02T10:22:04.693Z</time>
      </trkpt>
      <trkpt lat="47.02239" lon="8.98002">
        <ele>857</ele>
        <time>2021-08-02T10:22:05.693Z</time>
      </trkpt>
      <trkpt lat="47.02239" lon="8.98001">
        <ele>857</ele>
        <time>2021-08-02T10:22:06.694Z</time>
      </trkpt>
      <trkpt lat="47.02239" lon="8.98">
        <ele>856</ele>
        <time>2021-08-02T10:22:07.694Z</time>
      </trkpt>
      <trkpt lat="47.02239" lon="8.97999">
        <ele>856</ele>
        <time>2021-08-02T10:22:08.694Z</time>
      </trkpt>
      <trkpt lat="47.02238" lon="8.97998">
        <ele>856</ele>
        <time>2021-08-02T10:22:09.694Z</time>
      </trkpt>
      <trkpt lat="47.02237" lon="8.97997">
        <ele>856</ele>
        <time>2021-08-02T10:22:10.694Z</time>
      </trkpt>
      <trkpt lat="47.02236" lon="8.97996">
        <ele>857</ele>
        <time>2021-08-02T10:22:11.694Z</time>
      </trkpt>
      <trkpt lat="47.02235" lon="8.97995">
        <ele>857</ele>
        <time>2021-08-02T10:22:12.693Z</time>
      </trkpt>
      <trkpt lat="47.02234" lon="8.97994">
        <ele>857</ele>
        <time>2021-08-02T10:22:13.693Z</time>
      </trkpt>
      <trkpt lat="47.02234" lon="8.97992">
        <ele>857</ele>
        <time>2021-08-02T10:22:14.694Z</time>
      </trkpt>
      <trkpt lat="47.02233" lon="8.97991">
        <ele>857</ele>
        <time>2021-08-02T10:22:15.693Z</time>
      </trkpt>
      <trkpt lat="47.02233" lon="8.97989">
        <ele>857</ele>
        <time>2021-08-02T10:22:16.693Z</time>
      </trkpt>
      <trkpt lat="47.02233" lon="8.97988">
        <ele>857</ele>
        <time>2021-08-02T10:22:17.694Z</time>
      </trkpt>
      <trkpt lat="47.02233" lon="8.97986">
        <ele>858</ele>
        <time>2021-08-02T10:22:18.693Z</time>
      </trkpt>
      <trkpt lat="47.02233" lon="8.97985">
        <ele>858</ele>
        <time>2021-08-02T10:22:19.693Z</time>
      </trkpt>
      <trkpt lat="47.02232" lon="8.97984">
        <ele>859</ele>
        <time>2021-08-02T10:22:20.693Z</time>
      </trkpt>
      <trkpt lat="47.02232" lon="8.97983">
        <ele>859</ele>
        <time>2021-08-02T10:22:21.694Z</time>
      </trkpt>
      <trkpt lat="47.02232" lon="8.97982">
        <ele>860</ele>
        <time>2021-08-02T10:22:22.694Z</time>
      </trkpt>
      <trkpt lat="47.02232" lon="8.9798">
        <ele>860</ele>
        <time>2021-08-02T10:22:23.694Z</time>
      </trkpt>
      <trkpt lat="47.02231" lon="8.97977">
        <ele>861</ele>
        <time>2021-08-02T10:22:24.694Z</time>
      </trkpt>
      <trkpt lat="47.02231" lon="8.97974">
        <ele>861</ele>
        <time>2021-08-02T10:22:25.694Z</time>
      </trkpt>
      <trkpt lat="47.02231" lon="8.97973">
        <ele>862</ele>
        <time>2021-08-02T10:22:26.694Z</time>
      </trkpt>
      <trkpt lat="47.02231" lon="8.97971">
        <ele>862</ele>
        <time>2021-08-02T10:22:27.693Z</time>
      </trkpt>
      <trkpt lat="47.0223" lon="8.97969">
        <ele>863</ele>
        <time>2021-08-02T10:22:28.693Z</time>
      </trkpt>
      <trkpt lat="47.02229" lon="8.97967">
        <ele>863</ele>
        <time>2021-08-02T10:22:29.694Z</time>
      </trkpt>
      <trkpt lat="47.0223" lon="8.97965">
        <ele>863</ele>
        <time>2021-08-02T10:22:30.694Z</time>
      </trkpt>
      <trkpt lat="47.0223" lon="8.97963">
        <ele>863</ele>
        <time>2021-08-02T10:22:31.693Z</time>
      </trkpt>
      <trkpt lat="47.0223" lon="8.97963">
        <ele>863</ele>
        <time>2021-08-02T10:22:32.693Z</time>
      </trkpt>
      <trkpt lat="47.02229" lon="8.97962">
        <ele>863</ele>
        <time>2021-08-02T10:22:33.693Z</time>
      </trkpt>
      <trkpt lat="47.02229" lon="8.97961">
        <ele>863</ele>
        <time>2021-08-02T10:22:34.693Z</time>
      </trkpt>
      <trkpt lat="47.02229" lon="8.97961">
        <ele>863</ele>
        <time>2021-08-02T10:22:35.694Z</time>
      </trkpt>
      <trkpt lat="47.0223" lon="8.97959">
        <ele>863</ele>
        <time>2021-08-02T10:22:36.694Z</time>
      </trkpt>
      <trkpt lat="47.0223" lon="8.97957">
        <ele>863</ele>
        <time>2021-08-02T10:22:37.694Z</time>
      </trkpt>
      <trkpt lat="47.0223" lon="8.97956">
        <ele>862</ele>
        <time>2021-08-02T10:22:38.694Z</time>
      </trkpt>
      <trkpt lat="47.02229" lon="8.97954">
        <ele>862</ele>
        <time>2021-08-02T10:22:39.694Z</time>
      </trkpt>
      <trkpt lat="47.02228" lon="8.97953">
        <ele>861</ele>
        <time>2021-08-02T10:22:40.694Z</time>
      </trkpt>
      <trkpt lat="47.02227" lon="8.97951">
        <ele>860</ele>
        <time>2021-08-02T10:22:41.693Z</time>
      </trkpt>
      <trkpt lat="47.02227" lon="8.9795">
        <ele>860</ele>
        <time>2021-08-02T10:22:42.693Z</time>
      </trkpt>
      <trkpt lat="47.02226" lon="8.97949">
        <ele>860</ele>
        <time>2021-08-02T10:22:43.694Z</time>
      </trkpt>
      <trkpt lat="47.02226" lon="8.97947">
        <ele>859</ele>
        <time>2021-08-02T10:22:44.694Z</time>
      </trkpt>
      <trkpt lat="47.02226" lon="8.97946">
        <ele>859</ele>
        <time>2021-08-02T10:22:45.693Z</time>
      </trkpt>
      <trkpt lat="47.02226" lon="8.97944">
        <ele>859</ele>
        <time>2021-08-02T10:22:46.694Z</time>
      </trkpt>
      <trkpt lat="47.02225" lon="8.97943">
        <ele>859</ele>
        <time>2021-08-02T10:22:47.694Z</time>
      </trkpt>
      <trkpt lat="47.02225" lon="8.97942">
        <ele>859</ele>
        <time>2021-08-02T10:22:48.693Z</time>
      </trkpt>
      <trkpt lat="47.02225" lon="8.9794">
        <ele>859</ele>
        <time>2021-08-02T10:22:49.694Z</time>
      </trkpt>
      <trkpt lat="47.02224" lon="8.97938">
        <ele>858</ele>
        <time>2021-08-02T10:22:50.693Z</time>
      </trkpt>
      <trkpt lat="47.02223" lon="8.97937">
        <ele>858</ele>
        <time>2021-08-02T10:22:51.694Z</time>
      </trkpt>
      <trkpt lat="47.02222" lon="8.97935">
        <ele>858</ele>
        <time>2021-08-02T10:22:52.694Z</time>
      </trkpt>
      <trkpt lat="47.02222" lon="8.97934">
        <ele>857</ele>
        <time>2021-08-02T10:22:53.694Z</time>
      </trkpt>
      <trkpt lat="47.02222" lon="8.97934">
        <ele>857</ele>
        <time>2021-08-02T10:22:54.693Z</time>
      </trkpt>
      <trkpt lat="47.02222" lon="8.97933">
        <ele>856</ele>
        <time>2021-08-02T10:22:55.694Z</time>
      </trkpt>
      <trkpt lat="47.02222" lon="8.97933">
        <ele>856</ele>
        <time>2021-08-02T10:22:56.694Z</time>
      </trkpt>
      <trkpt lat="47.02223" lon="8.97932">
        <ele>855</ele>
        <time>2021-08-02T10:22:57.694Z</time>
      </trkpt>
      <trkpt lat="47.02222" lon="8.97931">
        <ele>855</ele>
        <time>2021-08-02T10:22:58.694Z</time>
      </trkpt>
      <trkpt lat="47.02222" lon="8.97931">
        <ele>855</ele>
        <time>2021-08-02T10:22:59.694Z</time>
      </trkpt>
      <trkpt lat="47.02221" lon="8.97929">
        <ele>855</ele>
        <time>2021-08-02T10:23:00.694Z</time>
      </trkpt>
      <trkpt lat="47.02221" lon="8.97929">
        <ele>855</ele>
        <time>2021-08-02T10:23:01.693Z</time>
      </trkpt>
      <trkpt lat="47.02222" lon="8.97928">
        <ele>855</ele>
        <time>2021-08-02T10:23:02.694Z</time>
      </trkpt>
      <trkpt lat="47.02221" lon="8.97927">
        <ele>855</ele>
        <time>2021-08-02T10:23:03.694Z</time>
      </trkpt>
      <trkpt lat="47.02221" lon="8.97927">
        <ele>856</ele>
        <time>2021-08-02T10:23:04.693Z</time>
      </trkpt>
      <trkpt lat="47.0222" lon="8.97926">
        <ele>856</ele>
        <time>2021-08-02T10:23:05.693Z</time>
      </trkpt>
      <trkpt lat="47.02219" lon="8.97925">
        <ele>856</ele>
        <time>2021-08-02T10:23:06.693Z</time>
      </trkpt>
      <trkpt lat="47.02218" lon="8.97925">
        <ele>856</ele>
        <time>2021-08-02T10:23:07.693Z</time>
      </trkpt>
      <trkpt lat="47.02219" lon="8.97925">
        <ele>856</ele>
        <time>2021-08-02T10:23:08.694Z</time>
      </trkpt>
      <trkpt lat="47.02219" lon="8.97926">
        <ele>856</ele>
        <time>2021-08-02T10:23:09.694Z</time>
      </trkpt>
      <trkpt lat="47.02219" lon="8.97927">
        <ele>857</ele>
        <time>2021-08-02T10:23:10.693Z</time>
      </trkpt>
      <trkpt lat="47.02219" lon="8.97927">
        <ele>857</ele>
        <time>2021-08-02T10:23:11.693Z</time>
      </trkpt>
      <trkpt lat="47.02219" lon="8.97927">
        <ele>857</ele>
        <time>2021-08-02T10:23:12.694Z</time>
      </trkpt>
      <trkpt lat="47.02218" lon="8.97926">
        <ele>856</ele>
        <time>2021-08-02T10:23:13.693Z</time>
      </trkpt>
      <trkpt lat="47.02217" lon="8.97926">
        <ele>856</ele>
        <time>2021-08-02T10:23:14.694Z</time>
      </trkpt>
      <trkpt lat="47.02217" lon="8.97927">
        <ele>856</ele>
        <time>2021-08-02T10:23:15.693Z</time>
      </trkpt>
      <trkpt lat="47.02216" lon="8.97927">
        <ele>856</ele>
        <time>2021-08-02T10:23:16.693Z</time>
      </trkpt>
      <trkpt lat="47.02215" lon="8.97927">
        <ele>857</ele>
        <time>2021-08-02T10:23:17.694Z</time>
      </trkpt>
      <trkpt lat="47.02214" lon="8.97927">
        <ele>857</ele>
        <time>2021-08-02T10:23:18.693Z</time>
      </trkpt>
      <trkpt lat="47.02213" lon="8.97927">
        <ele>857</ele>
        <time>2021-08-02T10:23:19.693Z</time>
      </trkpt>
      <trkpt lat="47.02214" lon="8.97926">
        <ele>857</ele>
        <time>2021-08-02T10:23:20.694Z</time>
      </trkpt>
      <trkpt lat="47.02214" lon="8.97925">
        <ele>857</ele>
        <time>2021-08-02T10:23:21.693Z</time>
      </trkpt>
      <trkpt lat="47.02215" lon="8.97924">
        <ele>858</ele>
        <time>2021-08-02T10:23:22.694Z</time>
      </trkpt>
      <trkpt lat="47.02215" lon="8.97924">
        <ele>858</ele>
        <time>2021-08-02T10:23:23.694Z</time>
      </trkpt>
      <trkpt lat="47.02215" lon="8.97925">
        <ele>858</ele>
        <time>2021-08-02T10:23:24.694Z</time>
      </trkpt>
      <trkpt lat="47.02214" lon="8.97925">
        <ele>858</ele>
        <time>2021-08-02T10:23:25.694Z</time>
      </trkpt>
      <trkpt lat="47.02214" lon="8.97925">
        <ele>858</ele>
        <time>2021-08-02T10:23:26.694Z</time>
      </trkpt>
      <trkpt lat="47.02214" lon="8.97925">
        <ele>858</ele>
        <time>2021-08-02T10:23:27.693Z</time>
      </trkpt>
      <trkpt lat="47.02215" lon="8.97925">
        <ele>858</ele>
        <time>2021-08-02T10:23:28.694Z</time>
      </trkpt>
      <trkpt lat="47.02216" lon="8.97925">
        <ele>858</ele>
        <time>2021-08-02T10:23:29.693Z</time>
      </trkpt>
      <trkpt lat="47.02216" lon="8.97924">
        <ele>858</ele>
        <time>2021-08-02T10:23:30.694Z</time>
      </trkpt>
      <trkpt lat="47.02216" lon="8.97923">
        <ele>859</ele>
        <time>2021-08-02T10:23:31.694Z</time>
      </trkpt>
      <trkpt lat="47.02215" lon="8.97922">
        <ele>859</ele>
        <time>2021-08-02T10:23:32.693Z</time>
      </trkpt>
      <trkpt lat="47.02214" lon="8.97921">
        <ele>859</ele>
        <time>2021-08-02T10:23:33.693Z</time>
      </trkpt>
      <trkpt lat="47.02214" lon="8.97919">
        <ele>859</ele>
        <time>2021-08-02T10:23:34.694Z</time>
      </trkpt>
      <trkpt lat="47.02214" lon="8.97918">
        <ele>859</ele>
        <time>2021-08-02T10:23:35.694Z</time>
      </trkpt>
      <trkpt lat="47.02213" lon="8.97917">
        <ele>859</ele>
        <time>2021-08-02T10:23:36.693Z</time>
      </trkpt>
      <trkpt lat="47.02213" lon="8.97916">
        <ele>859</ele>
        <time>2021-08-02T10:23:37.693Z</time>
      </trkpt>
      <trkpt lat="47.02213" lon="8.97915">
        <ele>859</ele>
        <time>2021-08-02T10:23:38.694Z</time>
      </trkpt>
      <trkpt lat="47.02213" lon="8.97913">
        <ele>859</ele>
        <time>2021-08-02T10:23:39.694Z</time>
      </trkpt>
      <trkpt lat="47.02213" lon="8.97912">
        <ele>860</ele>
        <time>2021-08-02T10:23:40.694Z</time>
      </trkpt>
      <trkpt lat="47.02212" lon="8.97912">
        <ele>859</ele>
        <time>2021-08-02T10:23:41.695Z</time>
      </trkpt>
      <trkpt lat="47.02211" lon="8.97912">
        <ele>859</ele>
        <time>2021-08-02T10:23:42.695Z</time>
      </trkpt>
      <trkpt lat="47.02211" lon="8.97912">
        <ele>859</ele>
        <time>2021-08-02T10:23:43.694Z</time>
      </trkpt>
      <trkpt lat="47.02212" lon="8.97911">
        <ele>859</ele>
        <time>2021-08-02T10:23:44.694Z</time>
      </trkpt>
      <trkpt lat="47.02212" lon="8.9791">
        <ele>858</ele>
        <time>2021-08-02T10:23:45.694Z</time>
      </trkpt>
      <trkpt lat="47.02213" lon="8.9791">
        <ele>858</ele>
        <time>2021-08-02T10:23:46.695Z</time>
      </trkpt>
      <trkpt lat="47.02213" lon="8.9791">
        <ele>859</ele>
        <time>2021-08-02T10:23:47.694Z</time>
      </trkpt>
      <trkpt lat="47.02214" lon="8.97907">
        <ele>859</ele>
        <time>2021-08-02T10:23:48.694Z</time>
      </trkpt>
      <trkpt lat="47.02214" lon="8.97906">
        <ele>859</ele>
        <time>2021-08-02T10:23:49.695Z</time>
      </trkpt>
      <trkpt lat="47.02214" lon="8.97904">
        <ele>859</ele>
        <time>2021-08-02T10:23:50.694Z</time>
      </trkpt>
      <trkpt lat="47.02214" lon="8.97902">
        <ele>859</ele>
        <time>2021-08-02T10:23:51.694Z</time>
      </trkpt>
      <trkpt lat="47.02213" lon="8.97901">
        <ele>859</ele>
        <time>2021-08-02T10:23:52.694Z</time>
      </trkpt>
      <trkpt lat="47.02212" lon="8.97901">
        <ele>859</ele>
        <time>2021-08-02T10:23:53.694Z</time>
      </trkpt>
      <trkpt lat="47.02211" lon="8.979">
        <ele>858</ele>
        <time>2021-08-02T10:23:54.694Z</time>
      </trkpt>
      <trkpt lat="47.0221" lon="8.97899">
        <ele>858</ele>
        <time>2021-08-02T10:23:55.694Z</time>
      </trkpt>
      <trkpt lat="47.02208" lon="8.97898">
        <ele>857</ele>
        <time>2021-08-02T10:23:56.694Z</time>
      </trkpt>
      <trkpt lat="47.02208" lon="8.97898">
        <ele>857</ele>
        <time>2021-08-02T10:23:57.695Z</time>
      </trkpt>
      <trkpt lat="47.02208" lon="8.97898">
        <ele>857</ele>
        <time>2021-08-02T10:23:58.694Z</time>
      </trkpt>
      <trkpt lat="47.02209" lon="8.97897">
        <ele>857</ele>
        <time>2021-08-02T10:23:59.694Z</time>
      </trkpt>
      <trkpt lat="47.0221" lon="8.97896">
        <ele>857</ele>
        <time>2021-08-02T10:24:00.694Z</time>
      </trkpt>
      <trkpt lat="47.02211" lon="8.97894">
        <ele>857</ele>
        <time>2021-08-02T10:24:01.694Z</time>
      </trkpt>
      <trkpt lat="47.02211" lon="8.97892">
        <ele>857</ele>
        <time>2021-08-02T10:24:02.694Z</time>
      </trkpt>
      <trkpt lat="47.02212" lon="8.97891">
        <ele>857</ele>
        <time>2021-08-02T10:24:03.694Z</time>
      </trkpt>
      <trkpt lat="47.02212" lon="8.97889">
        <ele>858</ele>
        <time>2021-08-02T10:24:04.694Z</time>
      </trkpt>
      <trkpt lat="47.02213" lon="8.97887">
        <ele>858</ele>
        <time>2021-08-02T10:24:05.695Z</time>
      </trkpt>
      <trkpt lat="47.02213" lon="8.97886">
        <ele>858</ele>
        <time>2021-08-02T10:24:06.694Z</time>
      </trkpt>
      <trkpt lat="47.02214" lon="8.97886">
        <ele>859</ele>
        <time>2021-08-02T10:24:07.695Z</time>
      </trkpt>
      <trkpt lat="47.02214" lon="8.97885">
        <ele>859</ele>
        <time>2021-08-02T10:24:08.694Z</time>
      </trkpt>
      <trkpt lat="47.02215" lon="8.97885">
        <ele>860</ele>
        <time>2021-08-02T10:24:09.694Z</time>
      </trkpt>
      <trkpt lat="47.02216" lon="8.97886">
        <ele>861</ele>
        <time>2021-08-02T10:24:10.695Z</time>
      </trkpt>
      <trkpt lat="47.02216" lon="8.97887">
        <ele>861</ele>
        <time>2021-08-02T10:24:11.694Z</time>
      </trkpt>
      <trkpt lat="47.02217" lon="8.97888">
        <ele>862</ele>
        <time>2021-08-02T10:24:12.694Z</time>
      </trkpt>
      <trkpt lat="47.02217" lon="8.97888">
        <ele>862</ele>
        <time>2021-08-02T10:24:13.694Z</time>
      </trkpt>
      <trkpt lat="47.02217" lon="8.97888">
        <ele>863</ele>
        <time>2021-08-02T10:24:14.694Z</time>
      </trkpt>
      <trkpt lat="47.02215" lon="8.97887">
        <ele>864</ele>
        <time>2021-08-02T10:24:15.694Z</time>
      </trkpt>
      <trkpt lat="47.02212" lon="8.97883">
        <ele>861</ele>
        <time>2021-08-02T10:24:16.695Z</time>
      </trkpt>
      <trkpt lat="47.02212" lon="8.97882">
        <ele>861</ele>
        <time>2021-08-02T10:24:17.694Z</time>
      </trkpt>
      <trkpt lat="47.02213" lon="8.97881">
        <ele>861</ele>
        <time>2021-08-02T10:24:18.694Z</time>
      </trkpt>
      <trkpt lat="47.02214" lon="8.9788">
        <ele>861</ele>
        <time>2021-08-02T10:24:19.695Z</time>
      </trkpt>
      <trkpt lat="47.02214" lon="8.97879">
        <ele>862</ele>
        <time>2021-08-02T10:24:20.695Z</time>
      </trkpt>
      <trkpt lat="47.02215" lon="8.97878">
        <ele>862</ele>
        <time>2021-08-02T10:24:21.695Z</time>
      </trkpt>
      <trkpt lat="47.02215" lon="8.97876">
        <ele>862</ele>
        <time>2021-08-02T10:24:22.695Z</time>
      </trkpt>
      <trkpt lat="47.02216" lon="8.97875">
        <ele>862</ele>
        <time>2021-08-02T10:24:23.694Z</time>
      </trkpt>
      <trkpt lat="47.02216" lon="8.97873">
        <ele>862</ele>
        <time>2021-08-02T10:24:24.695Z</time>
      </trkpt>
      <trkpt lat="47.02216" lon="8.97872">
        <ele>862</ele>
        <time>2021-08-02T10:24:25.695Z</time>
      </trkpt>
      <trkpt lat="47.02217" lon="8.97871">
        <ele>861</ele>
        <time>2021-08-02T10:24:26.694Z</time>
      </trkpt>
      <trkpt lat="47.02217" lon="8.97869">
        <ele>861</ele>
        <time>2021-08-02T10:24:27.695Z</time>
      </trkpt>
      <trkpt lat="47.02219" lon="8.97867">
        <ele>860</ele>
        <time>2021-08-02T10:24:28.694Z</time>
      </trkpt>
      <trkpt lat="47.02221" lon="8.97865">
        <ele>860</ele>
        <time>2021-08-02T10:24:29.695Z</time>
      </trkpt>
      <trkpt lat="47.02222" lon="8.97863">
        <ele>859</ele>
        <time>2021-08-02T10:24:30.695Z</time>
      </trkpt>
      <trkpt lat="47.02223" lon="8.97861">
        <ele>859</ele>
        <time>2021-08-02T10:24:31.694Z</time>
      </trkpt>
      <trkpt lat="47.02222" lon="8.9786">
        <ele>858</ele>
        <time>2021-08-02T10:24:32.695Z</time>
      </trkpt>
      <trkpt lat="47.02222" lon="8.9786">
        <ele>858</ele>
        <time>2021-08-02T10:24:33.695Z</time>
      </trkpt>
      <trkpt lat="47.02222" lon="8.97858">
        <ele>858</ele>
        <time>2021-08-02T10:24:34.695Z</time>
      </trkpt>
      <trkpt lat="47.02222" lon="8.97857">
        <ele>857</ele>
        <time>2021-08-02T10:24:35.694Z</time>
      </trkpt>
      <trkpt lat="47.02221" lon="8.97857">
        <ele>857</ele>
        <time>2021-08-02T10:24:36.694Z</time>
      </trkpt>
      <trkpt lat="47.0222" lon="8.97856">
        <ele>857</ele>
        <time>2021-08-02T10:24:37.694Z</time>
      </trkpt>
      <trkpt lat="47.02219" lon="8.97855">
        <ele>857</ele>
        <time>2021-08-02T10:24:38.694Z</time>
      </trkpt>
      <trkpt lat="47.02219" lon="8.97854">
        <ele>857</ele>
        <time>2021-08-02T10:24:39.694Z</time>
      </trkpt>
      <trkpt lat="47.02218" lon="8.97853">
        <ele>857</ele>
        <time>2021-08-02T10:24:40.694Z</time>
      </trkpt>
      <trkpt lat="47.02218" lon="8.97851">
        <ele>857</ele>
        <time>2021-08-02T10:24:41.695Z</time>
      </trkpt>
      <trkpt lat="47.02218" lon="8.9785">
        <ele>857</ele>
        <time>2021-08-02T10:24:42.694Z</time>
      </trkpt>
      <trkpt lat="47.02219" lon="8.97848">
        <ele>857</ele>
        <time>2021-08-02T10:24:43.694Z</time>
      </trkpt>
      <trkpt lat="47.0222" lon="8.97847">
        <ele>857</ele>
        <time>2021-08-02T10:24:44.695Z</time>
      </trkpt>
      <trkpt lat="47.0222" lon="8.97846">
        <ele>857</ele>
        <time>2021-08-02T10:24:45.695Z</time>
      </trkpt>
      <trkpt lat="47.02221" lon="8.97845">
        <ele>857</ele>
        <time>2021-08-02T10:24:46.694Z</time>
      </trkpt>
      <trkpt lat="47.02221" lon="8.97844">
        <ele>857</ele>
        <time>2021-08-02T10:24:47.694Z</time>
      </trkpt>
      <trkpt lat="47.02221" lon="8.97843">
        <ele>857</ele>
        <time>2021-08-02T10:24:48.694Z</time>
      </trkpt>
      <trkpt lat="47.02222" lon="8.97843">
        <ele>857</ele>
        <time>2021-08-02T10:24:49.695Z</time>
      </trkpt>
      <trkpt lat="47.02223" lon="8.97844">
        <ele>856</ele>
        <time>2021-08-02T10:24:50.695Z</time>
      </trkpt>
      <trkpt lat="47.02225" lon="8.97843">
        <ele>856</ele>
        <time>2021-08-02T10:24:51.695Z</time>
      </trkpt>
      <trkpt lat="47.02226" lon="8.97842">
        <ele>856</ele>
        <time>2021-08-02T10:24:52.694Z</time>
      </trkpt>
      <trkpt lat="47.02227" lon="8.97841">
        <ele>857</ele>
        <time>2021-08-02T10:24:53.694Z</time>
      </trkpt>
      <trkpt lat="47.02228" lon="8.97839">
        <ele>857</ele>
        <time>2021-08-02T10:24:54.694Z</time>
      </trkpt>
      <trkpt lat="47.02229" lon="8.97838">
        <ele>856</ele>
        <time>2021-08-02T10:24:55.694Z</time>
      </trkpt>
      <trkpt lat="47.02229" lon="8.97836">
        <ele>856</ele>
        <time>2021-08-02T10:24:56.695Z</time>
      </trkpt>
      <trkpt lat="47.02229" lon="8.97835">
        <ele>856</ele>
        <time>2021-08-02T10:24:57.695Z</time>
      </trkpt>
      <trkpt lat="47.0223" lon="8.97834">
        <ele>855</ele>
        <time>2021-08-02T10:24:58.694Z</time>
      </trkpt>
      <trkpt lat="47.02231" lon="8.97833">
        <ele>855</ele>
        <time>2021-08-02T10:24:59.694Z</time>
      </trkpt>
      <trkpt lat="47.02231" lon="8.97831">
        <ele>854</ele>
        <time>2021-08-02T10:25:00.694Z</time>
      </trkpt>
      <trkpt lat="47.02232" lon="8.9783">
        <ele>854</ele>
        <time>2021-08-02T10:25:01.694Z</time>
      </trkpt>
      <trkpt lat="47.02231" lon="8.97828">
        <ele>854</ele>
        <time>2021-08-02T10:25:02.694Z</time>
      </trkpt>
      <trkpt lat="47.02231" lon="8.97826">
        <ele>854</ele>
        <time>2021-08-02T10:25:03.694Z</time>
      </trkpt>
      <trkpt lat="47.02231" lon="8.97824">
        <ele>853</ele>
        <time>2021-08-02T10:25:04.694Z</time>
      </trkpt>
      <trkpt lat="47.02231" lon="8.97823">
        <ele>853</ele>
        <time>2021-08-02T10:25:05.694Z</time>
      </trkpt>
      <trkpt lat="47.02231" lon="8.97821">
        <ele>854</ele>
        <time>2021-08-02T10:25:06.694Z</time>
      </trkpt>
      <trkpt lat="47.02231" lon="8.97819">
        <ele>854</ele>
        <time>2021-08-02T10:25:07.694Z</time>
      </trkpt>
      <trkpt lat="47.02231" lon="8.97817">
        <ele>853</ele>
        <time>2021-08-02T10:25:08.694Z</time>
      </trkpt>
      <trkpt lat="47.02231" lon="8.97816">
        <ele>853</ele>
        <time>2021-08-02T10:25:09.694Z</time>
      </trkpt>
      <trkpt lat="47.02231" lon="8.97815">
        <ele>853</ele>
        <time>2021-08-02T10:25:10.694Z</time>
      </trkpt>
      <trkpt lat="47.02231" lon="8.97813">
        <ele>853</ele>
        <time>2021-08-02T10:25:11.694Z</time>
      </trkpt>
      <trkpt lat="47.02231" lon="8.97812">
        <ele>853</ele>
        <time>2021-08-02T10:25:12.694Z</time>
      </trkpt>
      <trkpt lat="47.02231" lon="8.97811">
        <ele>853</ele>
        <time>2021-08-02T10:25:13.694Z</time>
      </trkpt>
      <trkpt lat="47.02231" lon="8.97809">
        <ele>853</ele>
        <time>2021-08-02T10:25:14.694Z</time>
      </trkpt>
      <trkpt lat="47.02231" lon="8.97807">
        <ele>853</ele>
        <time>2021-08-02T10:25:15.695Z</time>
      </trkpt>
      <trkpt lat="47.02232" lon="8.97805">
        <ele>852</ele>
        <time>2021-08-02T10:25:16.695Z</time>
      </trkpt>
      <trkpt lat="47.02232" lon="8.97804">
        <ele>852</ele>
        <time>2021-08-02T10:25:17.694Z</time>
      </trkpt>
      <trkpt lat="47.02232" lon="8.97804">
        <ele>852</ele>
        <time>2021-08-02T10:25:18.694Z</time>
      </trkpt>
      <trkpt lat="47.02233" lon="8.97804">
        <ele>852</ele>
        <time>2021-08-02T10:25:19.694Z</time>
      </trkpt>
      <trkpt lat="47.02233" lon="8.97804">
        <ele>852</ele>
        <time>2021-08-02T10:25:20.694Z</time>
      </trkpt>
      <trkpt lat="47.02234" lon="8.97803">
        <ele>852</ele>
        <time>2021-08-02T10:25:21.694Z</time>
      </trkpt>
      <trkpt lat="47.02233" lon="8.97802">
        <ele>852</ele>
        <time>2021-08-02T10:25:22.695Z</time>
      </trkpt>
      <trkpt lat="47.02233" lon="8.97801">
        <ele>852</ele>
        <time>2021-08-02T10:25:23.695Z</time>
      </trkpt>
      <trkpt lat="47.02233" lon="8.97799">
        <ele>852</ele>
        <time>2021-08-02T10:25:24.694Z</time>
      </trkpt>
      <trkpt lat="47.02233" lon="8.97798">
        <ele>852</ele>
        <time>2021-08-02T10:25:25.694Z</time>
      </trkpt>
      <trkpt lat="47.02232" lon="8.97797">
        <ele>852</ele>
        <time>2021-08-02T10:25:26.695Z</time>
      </trkpt>
      <trkpt lat="47.02232" lon="8.97795">
        <ele>852</ele>
        <time>2021-08-02T10:25:27.695Z</time>
      </trkpt>
      <trkpt lat="47.02231" lon="8.97794">
        <ele>851</ele>
        <time>2021-08-02T10:25:28.695Z</time>
      </trkpt>
      <trkpt lat="47.02231" lon="8.97792">
        <ele>851</ele>
        <time>2021-08-02T10:25:29.695Z</time>
      </trkpt>
      <trkpt lat="47.02231" lon="8.9779">
        <ele>850</ele>
        <time>2021-08-02T10:25:30.695Z</time>
      </trkpt>
      <trkpt lat="47.02231" lon="8.97789">
        <ele>850</ele>
        <time>2021-08-02T10:25:31.695Z</time>
      </trkpt>
      <trkpt lat="47.02231" lon="8.97787">
        <ele>849</ele>
        <time>2021-08-02T10:25:32.694Z</time>
      </trkpt>
      <trkpt lat="47.0223" lon="8.97785">
        <ele>849</ele>
        <time>2021-08-02T10:25:33.694Z</time>
      </trkpt>
      <trkpt lat="47.0223" lon="8.97783">
        <ele>849</ele>
        <time>2021-08-02T10:25:34.695Z</time>
      </trkpt>
      <trkpt lat="47.0223" lon="8.97781">
        <ele>848</ele>
        <time>2021-08-02T10:25:35.695Z</time>
      </trkpt>
      <trkpt lat="47.02229" lon="8.9778">
        <ele>848</ele>
        <time>2021-08-02T10:25:36.695Z</time>
      </trkpt>
      <trkpt lat="47.02228" lon="8.97779">
        <ele>848</ele>
        <time>2021-08-02T10:25:37.695Z</time>
      </trkpt>
      <trkpt lat="47.02228" lon="8.97778">
        <ele>848</ele>
        <time>2021-08-02T10:25:38.694Z</time>
      </trkpt>
      <trkpt lat="47.02227" lon="8.97777">
        <ele>848</ele>
        <time>2021-08-02T10:25:39.694Z</time>
      </trkpt>
      <trkpt lat="47.02226" lon="8.97776">
        <ele>848</ele>
        <time>2021-08-02T10:25:40.695Z</time>
      </trkpt>
      <trkpt lat="47.02225" lon="8.97775">
        <ele>847</ele>
        <time>2021-08-02T10:25:41.694Z</time>
      </trkpt>
      <trkpt lat="47.02224" lon="8.97773">
        <ele>847</ele>
        <time>2021-08-02T10:25:42.695Z</time>
      </trkpt>
      <trkpt lat="47.02223" lon="8.97772">
        <ele>847</ele>
        <time>2021-08-02T10:25:43.694Z</time>
      </trkpt>
      <trkpt lat="47.02222" lon="8.9777">
        <ele>847</ele>
        <time>2021-08-02T10:25:44.694Z</time>
      </trkpt>
      <trkpt lat="47.02221" lon="8.97768">
        <ele>847</ele>
        <time>2021-08-02T10:25:45.695Z</time>
      </trkpt>
      <trkpt lat="47.02221" lon="8.97766">
        <ele>847</ele>
        <time>2021-08-02T10:25:46.695Z</time>
      </trkpt>
      <trkpt lat="47.0222" lon="8.97765">
        <ele>847</ele>
        <time>2021-08-02T10:25:47.694Z</time>
      </trkpt>
      <trkpt lat="47.02219" lon="8.97764">
        <ele>847</ele>
        <time>2021-08-02T10:25:48.694Z</time>
      </trkpt>
      <trkpt lat="47.02218" lon="8.97763">
        <ele>846</ele>
        <time>2021-08-02T10:25:49.694Z</time>
      </trkpt>
      <trkpt lat="47.02217" lon="8.97761">
        <ele>846</ele>
        <time>2021-08-02T10:25:50.694Z</time>
      </trkpt>
      <trkpt lat="47.02216" lon="8.9776">
        <ele>846</ele>
        <time>2021-08-02T10:25:51.694Z</time>
      </trkpt>
      <trkpt lat="47.02215" lon="8.97758">
        <ele>846</ele>
        <time>2021-08-02T10:25:52.695Z</time>
      </trkpt>
      <trkpt lat="47.02214" lon="8.97756">
        <ele>846</ele>
        <time>2021-08-02T10:25:53.694Z</time>
      </trkpt>
      <trkpt lat="47.02214" lon="8.97754">
        <ele>846</ele>
        <time>2021-08-02T10:25:54.695Z</time>
      </trkpt>
      <trkpt lat="47.02213" lon="8.97752">
        <ele>846</ele>
        <time>2021-08-02T10:25:55.694Z</time>
      </trkpt>
      <trkpt lat="47.02214" lon="8.97749">
        <ele>846</ele>
        <time>2021-08-02T10:25:56.694Z</time>
      </trkpt>
      <trkpt lat="47.02214" lon="8.97746">
        <ele>846</ele>
        <time>2021-08-02T10:25:57.695Z</time>
      </trkpt>
      <trkpt lat="47.02213" lon="8.97745">
        <ele>846</ele>
        <time>2021-08-02T10:25:58.695Z</time>
      </trkpt>
      <trkpt lat="47.02213" lon="8.97744">
        <ele>846</ele>
        <time>2021-08-02T10:25:59.695Z</time>
      </trkpt>
      <trkpt lat="47.02213" lon="8.97743">
        <ele>846</ele>
        <time>2021-08-02T10:26:00.695Z</time>
      </trkpt>
      <trkpt lat="47.02213" lon="8.97741">
        <ele>846</ele>
        <time>2021-08-02T10:26:01.694Z</time>
      </trkpt>
      <trkpt lat="47.02213" lon="8.9774">
        <ele>847</ele>
        <time>2021-08-02T10:26:02.695Z</time>
      </trkpt>
      <trkpt lat="47.02214" lon="8.97738">
        <ele>847</ele>
        <time>2021-08-02T10:26:03.694Z</time>
      </trkpt>
      <trkpt lat="47.02214" lon="8.97736">
        <ele>847</ele>
        <time>2021-08-02T10:26:04.694Z</time>
      </trkpt>
      <trkpt lat="47.02213" lon="8.97734">
        <ele>847</ele>
        <time>2021-08-02T10:26:05.694Z</time>
      </trkpt>
      <trkpt lat="47.02213" lon="8.97732">
        <ele>847</ele>
        <time>2021-08-02T10:26:06.694Z</time>
      </trkpt>
      <trkpt lat="47.02212" lon="8.9773">
        <ele>847</ele>
        <time>2021-08-02T10:26:07.695Z</time>
      </trkpt>
      <trkpt lat="47.02212" lon="8.97729">
        <ele>846</ele>
        <time>2021-08-02T10:26:08.695Z</time>
      </trkpt>
      <trkpt lat="47.02212" lon="8.97727">
        <ele>846</ele>
        <time>2021-08-02T10:26:09.695Z</time>
      </trkpt>
      <trkpt lat="47.02212" lon="8.97726">
        <ele>847</ele>
        <time>2021-08-02T10:26:10.695Z</time>
      </trkpt>
      <trkpt lat="47.02212" lon="8.97726">
        <ele>847</ele>
        <time>2021-08-02T10:26:11.694Z</time>
      </trkpt>
      <trkpt lat="47.02211" lon="8.97725">
        <ele>848</ele>
        <time>2021-08-02T10:26:12.695Z</time>
      </trkpt>
      <trkpt lat="47.02211" lon="8.97724">
        <ele>848</ele>
        <time>2021-08-02T10:26:13.695Z</time>
      </trkpt>
      <trkpt lat="47.0221" lon="8.97723">
        <ele>848</ele>
        <time>2021-08-02T10:26:14.695Z</time>
      </trkpt>
      <trkpt lat="47.02209" lon="8.97721">
        <ele>848</ele>
        <time>2021-08-02T10:26:15.694Z</time>
      </trkpt>
      <trkpt lat="47.02209" lon="8.9772">
        <ele>848</ele>
        <time>2021-08-02T10:26:16.694Z</time>
      </trkpt>
      <trkpt lat="47.02208" lon="8.97719">
        <ele>848</ele>
        <time>2021-08-02T10:26:17.695Z</time>
      </trkpt>
      <trkpt lat="47.02208" lon="8.97718">
        <ele>848</ele>
        <time>2021-08-02T10:26:18.695Z</time>
      </trkpt>
      <trkpt lat="47.02208" lon="8.97716">
        <ele>848</ele>
        <time>2021-08-02T10:26:19.695Z</time>
      </trkpt>
      <trkpt lat="47.02208" lon="8.97714">
        <ele>848</ele>
        <time>2021-08-02T10:26:20.694Z</time>
      </trkpt>
      <trkpt lat="47.02208" lon="8.97712">
        <ele>848</ele>
        <time>2021-08-02T10:26:21.695Z</time>
      </trkpt>
      <trkpt lat="47.02208" lon="8.9771">
        <ele>849</ele>
        <time>2021-08-02T10:26:22.694Z</time>
      </trkpt>
      <trkpt lat="47.02208" lon="8.97707">
        <ele>849</ele>
        <time>2021-08-02T10:26:23.695Z</time>
      </trkpt>
      <trkpt lat="47.02208" lon="8.97704">
        <ele>849</ele>
        <time>2021-08-02T10:26:24.695Z</time>
      </trkpt>
      <trkpt lat="47.02207" lon="8.97702">
        <ele>850</ele>
        <time>2021-08-02T10:26:25.694Z</time>
      </trkpt>
      <trkpt lat="47.02207" lon="8.977">
        <ele>850</ele>
        <time>2021-08-02T10:26:26.694Z</time>
      </trkpt>
      <trkpt lat="47.02206" lon="8.97697">
        <ele>850</ele>
        <time>2021-08-02T10:26:27.695Z</time>
      </trkpt>
      <trkpt lat="47.02205" lon="8.97695">
        <ele>851</ele>
        <time>2021-08-02T10:26:28.694Z</time>
      </trkpt>
      <trkpt lat="47.02204" lon="8.97694">
        <ele>851</ele>
        <time>2021-08-02T10:26:29.694Z</time>
      </trkpt>
      <trkpt lat="47.02203" lon="8.97692">
        <ele>852</ele>
        <time>2021-08-02T10:26:30.694Z</time>
      </trkpt>
      <trkpt lat="47.02202" lon="8.97691">
        <ele>853</ele>
        <time>2021-08-02T10:26:31.694Z</time>
      </trkpt>
      <trkpt lat="47.02202" lon="8.9769">
        <ele>853</ele>
        <time>2021-08-02T10:26:32.694Z</time>
      </trkpt>
      <trkpt lat="47.02201" lon="8.97689">
        <ele>854</ele>
        <time>2021-08-02T10:26:33.695Z</time>
      </trkpt>
      <trkpt lat="47.02201" lon="8.97688">
        <ele>854</ele>
        <time>2021-08-02T10:26:34.695Z</time>
      </trkpt>
      <trkpt lat="47.022" lon="8.97687">
        <ele>855</ele>
        <time>2021-08-02T10:26:35.695Z</time>
      </trkpt>
      <trkpt lat="47.02199" lon="8.97685">
        <ele>855</ele>
        <time>2021-08-02T10:26:36.695Z</time>
      </trkpt>
      <trkpt lat="47.02198" lon="8.97685">
        <ele>856</ele>
        <time>2021-08-02T10:26:37.695Z</time>
      </trkpt>
      <trkpt lat="47.02197" lon="8.97684">
        <ele>856</ele>
        <time>2021-08-02T10:26:38.695Z</time>
      </trkpt>
      <trkpt lat="47.02197" lon="8.97683">
        <ele>856</ele>
        <time>2021-08-02T10:26:39.695Z</time>
      </trkpt>
      <trkpt lat="47.02195" lon="8.97681">
        <ele>856</ele>
        <time>2021-08-02T10:26:40.694Z</time>
      </trkpt>
      <trkpt lat="47.02194" lon="8.97679">
        <ele>857</ele>
        <time>2021-08-02T10:26:41.694Z</time>
      </trkpt>
      <trkpt lat="47.02193" lon="8.97678">
        <ele>857</ele>
        <time>2021-08-02T10:26:42.695Z</time>
      </trkpt>
      <trkpt lat="47.02192" lon="8.97677">
        <ele>857</ele>
        <time>2021-08-02T10:26:43.695Z</time>
      </trkpt>
      <trkpt lat="47.02192" lon="8.97676">
        <ele>857</ele>
        <time>2021-08-02T10:26:50.696Z</time>
      </trkpt>
      <trkpt lat="47.02192" lon="8.97675">
        <ele>858</ele>
        <time>2021-08-02T10:26:51.696Z</time>
      </trkpt>
      <trkpt lat="47.02191" lon="8.97674">
        <ele>858</ele>
        <time>2021-08-02T10:26:52.696Z</time>
      </trkpt>
      <trkpt lat="47.02191" lon="8.97673">
        <ele>859</ele>
        <time>2021-08-02T10:26:56.857Z</time>
      </trkpt>
      <trkpt lat="47.02191" lon="8.9767">
        <ele>859</ele>
        <time>2021-08-02T10:26:57.857Z</time>
      </trkpt>
      <trkpt lat="47.02191" lon="8.97669">
        <ele>860</ele>
        <time>2021-08-02T10:26:58.857Z</time>
      </trkpt>
      <trkpt lat="47.0219" lon="8.97668">
        <ele>860</ele>
        <time>2021-08-02T10:26:59.856Z</time>
      </trkpt>
      <trkpt lat="47.0219" lon="8.97667">
        <ele>861</ele>
        <time>2021-08-02T10:27:00.856Z</time>
      </trkpt>
      <trkpt lat="47.02189" lon="8.97665">
        <ele>861</ele>
        <time>2021-08-02T10:27:03.926Z</time>
      </trkpt>
      <trkpt lat="47.02189" lon="8.97664">
        <ele>862</ele>
        <time>2021-08-02T10:27:04.925Z</time>
      </trkpt>
      <trkpt lat="47.02188" lon="8.97663">
        <ele>862</ele>
        <time>2021-08-02T10:27:05.925Z</time>
      </trkpt>
      <trkpt lat="47.02188" lon="8.97662">
        <ele>863</ele>
        <time>2021-08-02T10:27:06.926Z</time>
      </trkpt>
      <trkpt lat="47.02187" lon="8.97661">
        <ele>863</ele>
        <time>2021-08-02T10:27:07.925Z</time>
      </trkpt>
      <trkpt lat="47.02187" lon="8.9766">
        <ele>863</ele>
        <time>2021-08-02T10:27:08.925Z</time>
      </trkpt>
      <trkpt lat="47.02188" lon="8.97659">
        <ele>864</ele>
        <time>2021-08-02T10:27:09.926Z</time>
      </trkpt>
      <trkpt lat="47.02188" lon="8.97658">
        <ele>864</ele>
        <time>2021-08-02T10:27:10.926Z</time>
      </trkpt>
      <trkpt lat="47.02188" lon="8.97657">
        <ele>863</ele>
        <time>2021-08-02T10:27:11.925Z</time>
      </trkpt>
      <trkpt lat="47.02189" lon="8.97655">
        <ele>862</ele>
        <time>2021-08-02T10:27:12.926Z</time>
      </trkpt>
      <trkpt lat="47.02189" lon="8.97653">
        <ele>862</ele>
        <time>2021-08-02T10:27:13.926Z</time>
      </trkpt>
      <trkpt lat="47.02188" lon="8.97652">
        <ele>861</ele>
        <time>2021-08-02T10:27:34.974Z</time>
      </trkpt>
      <trkpt lat="47.02188" lon="8.9765">
        <ele>860</ele>
        <time>2021-08-02T10:27:35.974Z</time>
      </trkpt>
      <trkpt lat="47.02188" lon="8.97649">
        <ele>859</ele>
        <time>2021-08-02T10:27:54.080Z</time>
      </trkpt>
      <trkpt lat="47.02188" lon="8.97648">
        <ele>859</ele>
        <time>2021-08-02T10:27:55.079Z</time>
      </trkpt>
      <trkpt lat="47.02188" lon="8.97647">
        <ele>858</ele>
        <time>2021-08-02T10:27:56.080Z</time>
      </trkpt>
      <trkpt lat="47.02188" lon="8.97645">
        <ele>857</ele>
        <time>2021-08-02T10:27:57.079Z</time>
      </trkpt>
      <trkpt lat="47.02187" lon="8.97644">
        <ele>856</ele>
        <time>2021-08-02T10:28:03.169Z</time>
      </trkpt>
      <trkpt lat="47.02187" lon="8.97643">
        <ele>855</ele>
        <time>2021-08-02T10:28:04.169Z</time>
      </trkpt>
      <trkpt lat="47.02187" lon="8.97641">
        <ele>855</ele>
        <time>2021-08-02T10:28:05.169Z</time>
      </trkpt>
      <trkpt lat="47.02187" lon="8.97639">
        <ele>855</ele>
        <time>2021-08-02T10:28:06.168Z</time>
      </trkpt>
      <trkpt lat="47.02188" lon="8.97637">
        <ele>855</ele>
        <time>2021-08-02T10:28:07.169Z</time>
      </trkpt>
      <trkpt lat="47.02188" lon="8.97636">
        <ele>855</ele>
        <time>2021-08-02T10:28:08.169Z</time>
      </trkpt>
      <trkpt lat="47.02188" lon="8.97634">
        <ele>855</ele>
        <time>2021-08-02T10:28:09.169Z</time>
      </trkpt>
      <trkpt lat="47.02188" lon="8.97632">
        <ele>855</ele>
        <time>2021-08-02T10:28:10.168Z</time>
      </trkpt>
      <trkpt lat="47.02188" lon="8.9763">
        <ele>855</ele>
        <time>2021-08-02T10:28:11.169Z</time>
      </trkpt>
      <trkpt lat="47.02188" lon="8.97627">
        <ele>855</ele>
        <time>2021-08-02T10:28:12.169Z</time>
      </trkpt>
      <trkpt lat="47.02188" lon="8.97625">
        <ele>855</ele>
        <time>2021-08-02T10:28:13.169Z</time>
      </trkpt>
      <trkpt lat="47.02187" lon="8.97623">
        <ele>855</ele>
        <time>2021-08-02T10:28:14.169Z</time>
      </trkpt>
      <trkpt lat="47.02187" lon="8.97621">
        <ele>855</ele>
        <time>2021-08-02T10:28:15.169Z</time>
      </trkpt>
      <trkpt lat="47.02187" lon="8.97619">
        <ele>856</ele>
        <time>2021-08-02T10:28:16.169Z</time>
      </trkpt>
      <trkpt lat="47.02186" lon="8.97618">
        <ele>856</ele>
        <time>2021-08-02T10:28:17.169Z</time>
      </trkpt>
      <trkpt lat="47.02186" lon="8.97617">
        <ele>856</ele>
        <time>2021-08-02T10:28:18.168Z</time>
      </trkpt>
      <trkpt lat="47.02186" lon="8.97616">
        <ele>857</ele>
        <time>2021-08-02T10:28:19.169Z</time>
      </trkpt>
      <trkpt lat="47.02186" lon="8.97615">
        <ele>857</ele>
        <time>2021-08-02T10:28:20.168Z</time>
      </trkpt>
      <trkpt lat="47.02185" lon="8.97613">
        <ele>857</ele>
        <time>2021-08-02T10:28:21.169Z</time>
      </trkpt>
      <trkpt lat="47.02185" lon="8.97612">
        <ele>856</ele>
        <time>2021-08-02T10:28:22.169Z</time>
      </trkpt>
      <trkpt lat="47.02185" lon="8.9761">
        <ele>856</ele>
        <time>2021-08-02T10:28:23.168Z</time>
      </trkpt>
      <trkpt lat="47.02184" lon="8.97608">
        <ele>856</ele>
        <time>2021-08-02T10:28:24.169Z</time>
      </trkpt>
      <trkpt lat="47.02183" lon="8.97606">
        <ele>856</ele>
        <time>2021-08-02T10:28:25.168Z</time>
      </trkpt>
      <trkpt lat="47.02183" lon="8.97605">
        <ele>856</ele>
        <time>2021-08-02T10:28:26.169Z</time>
      </trkpt>
      <trkpt lat="47.02183" lon="8.97603">
        <ele>856</ele>
        <time>2021-08-02T10:28:27.169Z</time>
      </trkpt>
      <trkpt lat="47.02182" lon="8.97602">
        <ele>855</ele>
        <time>2021-08-02T10:28:28.168Z</time>
      </trkpt>
      <trkpt lat="47.02181" lon="8.97601">
        <ele>855</ele>
        <time>2021-08-02T10:28:29.168Z</time>
      </trkpt>
      <trkpt lat="47.0218" lon="8.976">
        <ele>856</ele>
        <time>2021-08-02T10:29:03.367Z</time>
      </trkpt>
      <trkpt lat="47.02179" lon="8.97598">
        <ele>856</ele>
        <time>2021-08-02T10:29:04.367Z</time>
      </trkpt>
      <trkpt lat="47.02178" lon="8.97597">
        <ele>856</ele>
        <time>2021-08-02T10:29:05.366Z</time>
      </trkpt>
      <trkpt lat="47.02176" lon="8.97595">
        <ele>856</ele>
        <time>2021-08-02T10:29:06.366Z</time>
      </trkpt>
      <trkpt lat="47.02175" lon="8.97594">
        <ele>855</ele>
        <time>2021-08-02T10:29:13.472Z</time>
      </trkpt>
      <trkpt lat="47.02174" lon="8.97593">
        <ele>855</ele>
        <time>2021-08-02T10:29:14.472Z</time>
      </trkpt>
      <trkpt lat="47.02173" lon="8.97592">
        <ele>855</ele>
        <time>2021-08-02T10:29:15.472Z</time>
      </trkpt>
      <trkpt lat="47.02173" lon="8.97591">
        <ele>855</ele>
        <time>2021-08-02T10:29:16.471Z</time>
      </trkpt>
      <trkpt lat="47.02172" lon="8.97589">
        <ele>855</ele>
        <time>2021-08-02T10:29:17.472Z</time>
      </trkpt>
      <trkpt lat="47.02171" lon="8.97588">
        <ele>855</ele>
        <time>2021-08-02T10:29:18.472Z</time>
      </trkpt>
      <trkpt lat="47.0217" lon="8.97588">
        <ele>855</ele>
        <time>2021-08-02T10:29:19.471Z</time>
      </trkpt>
      <trkpt lat="47.0217" lon="8.97587">
        <ele>854</ele>
        <time>2021-08-02T10:29:20.471Z</time>
      </trkpt>
      <trkpt lat="47.02169" lon="8.97585">
        <ele>854</ele>
        <time>2021-08-02T10:29:21.471Z</time>
      </trkpt>
      <trkpt lat="47.02169" lon="8.97584">
        <ele>853</ele>
        <time>2021-08-02T10:29:22.471Z</time>
      </trkpt>
      <trkpt lat="47.02169" lon="8.97584">
        <ele>853</ele>
        <time>2021-08-02T10:29:23.472Z</time>
      </trkpt>
      <trkpt lat="47.02168" lon="8.97583">
        <ele>853</ele>
        <time>2021-08-02T10:29:24.471Z</time>
      </trkpt>
      <trkpt lat="47.02167" lon="8.97582">
        <ele>853</ele>
        <time>2021-08-02T10:29:25.471Z</time>
      </trkpt>
      <trkpt lat="47.02166" lon="8.9758">
        <ele>853</ele>
        <time>2021-08-02T10:29:26.472Z</time>
      </trkpt>
      <trkpt lat="47.02164" lon="8.97579">
        <ele>853</ele>
        <time>2021-08-02T10:29:27.471Z</time>
      </trkpt>
      <trkpt lat="47.02164" lon="8.97578">
        <ele>853</ele>
        <time>2021-08-02T10:29:28.471Z</time>
      </trkpt>
      <trkpt lat="47.02164" lon="8.97579">
        <ele>853</ele>
        <time>2021-08-02T10:29:29.472Z</time>
      </trkpt>
      <trkpt lat="47.02165" lon="8.9758">
        <ele>853</ele>
        <time>2021-08-02T10:29:30.472Z</time>
      </trkpt>
      <trkpt lat="47.02165" lon="8.9758">
        <ele>853</ele>
        <time>2021-08-02T10:29:31.473Z</time>
      </trkpt>
      <trkpt lat="47.02165" lon="8.97579">
        <ele>853</ele>
        <time>2021-08-02T10:29:32.472Z</time>
      </trkpt>
      <trkpt lat="47.02164" lon="8.97578">
        <ele>853</ele>
        <time>2021-08-02T10:29:33.472Z</time>
      </trkpt>
      <trkpt lat="47.02164" lon="8.97578">
        <ele>852</ele>
        <time>2021-08-02T10:29:34.472Z</time>
      </trkpt>
      <trkpt lat="47.02163" lon="8.97577">
        <ele>852</ele>
        <time>2021-08-02T10:29:35.472Z</time>
      </trkpt>
      <trkpt lat="47.02163" lon="8.97577">
        <ele>852</ele>
        <time>2021-08-02T10:29:36.473Z</time>
      </trkpt>
      <trkpt lat="47.02162" lon="8.97577">
        <ele>852</ele>
        <time>2021-08-02T10:29:37.472Z</time>
      </trkpt>
      <trkpt lat="47.02161" lon="8.97577">
        <ele>851</ele>
        <time>2021-08-02T10:29:38.472Z</time>
      </trkpt>
      <trkpt lat="47.0216" lon="8.97577">
        <ele>851</ele>
        <time>2021-08-02T10:29:39.473Z</time>
      </trkpt>
      <trkpt lat="47.0216" lon="8.97577">
        <ele>851</ele>
        <time>2021-08-02T10:29:40.472Z</time>
      </trkpt>
      <trkpt lat="47.02158" lon="8.97577">
        <ele>850</ele>
        <time>2021-08-02T10:29:41.473Z</time>
      </trkpt>
      <trkpt lat="47.02157" lon="8.97577">
        <ele>850</ele>
        <time>2021-08-02T10:29:42.472Z</time>
      </trkpt>
      <trkpt lat="47.02157" lon="8.97577">
        <ele>850</ele>
        <time>2021-08-02T10:29:43.472Z</time>
      </trkpt>
      <trkpt lat="47.02157" lon="8.97575">
        <ele>850</ele>
        <time>2021-08-02T10:29:44.472Z</time>
      </trkpt>
      <trkpt lat="47.02157" lon="8.97571">
        <ele>850</ele>
        <time>2021-08-02T10:29:45.473Z</time>
      </trkpt>
      <trkpt lat="47.02156" lon="8.97571">
        <ele>850</ele>
        <time>2021-08-02T10:29:46.473Z</time>
      </trkpt>
      <trkpt lat="47.02156" lon="8.9757">
        <ele>850</ele>
        <time>2021-08-02T10:29:47.473Z</time>
      </trkpt>
      <trkpt lat="47.02155" lon="8.97569">
        <ele>850</ele>
        <time>2021-08-02T10:29:48.473Z</time>
      </trkpt>
      <trkpt lat="47.02154" lon="8.97569">
        <ele>850</ele>
        <time>2021-08-02T10:29:49.473Z</time>
      </trkpt>
      <trkpt lat="47.02153" lon="8.97569">
        <ele>850</ele>
        <time>2021-08-02T10:29:50.472Z</time>
      </trkpt>
      <trkpt lat="47.02152" lon="8.97569">
        <ele>851</ele>
        <time>2021-08-02T10:29:51.473Z</time>
      </trkpt>
      <trkpt lat="47.02151" lon="8.97569">
        <ele>851</ele>
        <time>2021-08-02T10:29:52.473Z</time>
      </trkpt>
      <trkpt lat="47.02151" lon="8.97569">
        <ele>851</ele>
        <time>2021-08-02T10:29:53.472Z</time>
      </trkpt>
      <trkpt lat="47.0215" lon="8.97569">
        <ele>850</ele>
        <time>2021-08-02T10:29:54.473Z</time>
      </trkpt>
      <trkpt lat="47.02148" lon="8.97569">
        <ele>850</ele>
        <time>2021-08-02T10:29:55.472Z</time>
      </trkpt>
      <trkpt lat="47.02146" lon="8.97569">
        <ele>850</ele>
        <time>2021-08-02T10:29:56.473Z</time>
      </trkpt>
      <trkpt lat="47.02145" lon="8.97569">
        <ele>850</ele>
        <time>2021-08-02T10:29:57.473Z</time>
      </trkpt>
      <trkpt lat="47.02144" lon="8.97568">
        <ele>849</ele>
        <time>2021-08-02T10:29:58.473Z</time>
      </trkpt>
      <trkpt lat="47.02142" lon="8.97567">
        <ele>849</ele>
        <time>2021-08-02T10:29:59.473Z</time>
      </trkpt>
      <trkpt lat="47.02141" lon="8.97566">
        <ele>849</ele>
        <time>2021-08-02T10:30:00.472Z</time>
      </trkpt>
      <trkpt lat="47.0214" lon="8.97565">
        <ele>849</ele>
        <time>2021-08-02T10:30:01.472Z</time>
      </trkpt>
      <trkpt lat="47.02139" lon="8.97565">
        <ele>848</ele>
        <time>2021-08-02T10:30:02.473Z</time>
      </trkpt>
      <trkpt lat="47.02138" lon="8.97564">
        <ele>848</ele>
        <time>2021-08-02T10:30:03.473Z</time>
      </trkpt>
      <trkpt lat="47.02137" lon="8.97562">
        <ele>848</ele>
        <time>2021-08-02T10:30:04.472Z</time>
      </trkpt>
      <trkpt lat="47.02136" lon="8.97561">
        <ele>848</ele>
        <time>2021-08-02T10:30:05.473Z</time>
      </trkpt>
      <trkpt lat="47.02135" lon="8.9756">
        <ele>848</ele>
        <time>2021-08-02T10:30:06.472Z</time>
      </trkpt>
      <trkpt lat="47.02134" lon="8.9756">
        <ele>849</ele>
        <time>2021-08-02T10:30:07.472Z</time>
      </trkpt>
      <trkpt lat="47.02134" lon="8.97559">
        <ele>849</ele>
        <time>2021-08-02T10:30:08.472Z</time>
      </trkpt>
      <trkpt lat="47.02133" lon="8.97558">
        <ele>849</ele>
        <time>2021-08-02T10:30:09.473Z</time>
      </trkpt>
      <trkpt lat="47.02133" lon="8.97556">
        <ele>849</ele>
        <time>2021-08-02T10:30:10.473Z</time>
      </trkpt>
      <trkpt lat="47.02132" lon="8.97549">
        <ele>849</ele>
        <time>2021-08-02T10:30:11.472Z</time>
      </trkpt>
      <trkpt lat="47.02131" lon="8.97547">
        <ele>849</ele>
        <time>2021-08-02T10:30:12.472Z</time>
      </trkpt>
      <trkpt lat="47.0213" lon="8.97544">
        <ele>850</ele>
        <time>2021-08-02T10:30:13.472Z</time>
      </trkpt>
      <trkpt lat="47.0213" lon="8.97542">
        <ele>850</ele>
        <time>2021-08-02T10:30:14.472Z</time>
      </trkpt>
      <trkpt lat="47.02129" lon="8.97541">
        <ele>850</ele>
        <time>2021-08-02T10:30:15.473Z</time>
      </trkpt>
      <trkpt lat="47.02129" lon="8.97538">
        <ele>850</ele>
        <time>2021-08-02T10:30:16.472Z</time>
      </trkpt>
      <trkpt lat="47.02129" lon="8.97537">
        <ele>851</ele>
        <time>2021-08-02T10:30:17.472Z</time>
      </trkpt>
      <trkpt lat="47.02128" lon="8.97536">
        <ele>851</ele>
        <time>2021-08-02T10:30:18.472Z</time>
      </trkpt>
      <trkpt lat="47.02127" lon="8.97535">
        <ele>851</ele>
        <time>2021-08-02T10:30:19.472Z</time>
      </trkpt>
      <trkpt lat="47.02126" lon="8.97534">
        <ele>851</ele>
        <time>2021-08-02T10:30:20.473Z</time>
      </trkpt>
      <trkpt lat="47.02125" lon="8.97534">
        <ele>852</ele>
        <time>2021-08-02T10:30:21.472Z</time>
      </trkpt>
      <trkpt lat="47.02124" lon="8.97533">
        <ele>852</ele>
        <time>2021-08-02T10:30:22.472Z</time>
      </trkpt>
      <trkpt lat="47.02123" lon="8.97533">
        <ele>852</ele>
        <time>2021-08-02T10:30:23.472Z</time>
      </trkpt>
      <trkpt lat="47.02122" lon="8.97532">
        <ele>852</ele>
        <time>2021-08-02T10:30:24.472Z</time>
      </trkpt>
      <trkpt lat="47.02121" lon="8.97532">
        <ele>853</ele>
        <time>2021-08-02T10:30:25.472Z</time>
      </trkpt>
      <trkpt lat="47.0212" lon="8.97532">
        <ele>853</ele>
        <time>2021-08-02T10:30:26.473Z</time>
      </trkpt>
      <trkpt lat="47.0212" lon="8.97531">
        <ele>853</ele>
        <time>2021-08-02T10:30:27.472Z</time>
      </trkpt>
      <trkpt lat="47.02119" lon="8.97531">
        <ele>853</ele>
        <time>2021-08-02T10:30:28.472Z</time>
      </trkpt>
      <trkpt lat="47.02119" lon="8.9753">
        <ele>853</ele>
        <time>2021-08-02T10:30:29.473Z</time>
      </trkpt>
      <trkpt lat="47.02119" lon="8.97529">
        <ele>853</ele>
        <time>2021-08-02T10:30:30.472Z</time>
      </trkpt>
      <trkpt lat="47.02119" lon="8.97528">
        <ele>853</ele>
        <time>2021-08-02T10:30:31.472Z</time>
      </trkpt>
      <trkpt lat="47.02118" lon="8.97526">
        <ele>853</ele>
        <time>2021-08-02T10:30:32.472Z</time>
      </trkpt>
      <trkpt lat="47.02118" lon="8.97525">
        <ele>853</ele>
        <time>2021-08-02T10:30:33.472Z</time>
      </trkpt>
      <trkpt lat="47.02117" lon="8.97524">
        <ele>853</ele>
        <time>2021-08-02T10:30:34.473Z</time>
      </trkpt>
      <trkpt lat="47.02116" lon="8.97523">
        <ele>853</ele>
        <time>2021-08-02T10:30:35.472Z</time>
      </trkpt>
      <trkpt lat="47.02115" lon="8.97521">
        <ele>853</ele>
        <time>2021-08-02T10:30:36.472Z</time>
      </trkpt>
      <trkpt lat="47.02114" lon="8.9752">
        <ele>853</ele>
        <time>2021-08-02T10:30:37.472Z</time>
      </trkpt>
      <trkpt lat="47.02113" lon="8.97519">
        <ele>853</ele>
        <time>2021-08-02T10:30:38.472Z</time>
      </trkpt>
      <trkpt lat="47.02113" lon="8.97518">
        <ele>852</ele>
        <time>2021-08-02T10:30:39.472Z</time>
      </trkpt>
      <trkpt lat="47.02112" lon="8.97518">
        <ele>852</ele>
        <time>2021-08-02T10:30:40.472Z</time>
      </trkpt>
      <trkpt lat="47.02111" lon="8.97518">
        <ele>851</ele>
        <time>2021-08-02T10:30:41.472Z</time>
      </trkpt>
      <trkpt lat="47.02111" lon="8.97517">
        <ele>851</ele>
        <time>2021-08-02T10:30:42.472Z</time>
      </trkpt>
      <trkpt lat="47.0211" lon="8.97516">
        <ele>851</ele>
        <time>2021-08-02T10:30:43.472Z</time>
      </trkpt>
      <trkpt lat="47.0211" lon="8.97515">
        <ele>851</ele>
        <time>2021-08-02T10:30:44.473Z</time>
      </trkpt>
      <trkpt lat="47.02109" lon="8.97514">
        <ele>851</ele>
        <time>2021-08-02T10:30:45.472Z</time>
      </trkpt>
      <trkpt lat="47.02107" lon="8.97514">
        <ele>851</ele>
        <time>2021-08-02T10:30:46.472Z</time>
      </trkpt>
      <trkpt lat="47.02106" lon="8.97512">
        <ele>851</ele>
        <time>2021-08-02T10:30:47.472Z</time>
      </trkpt>
      <trkpt lat="47.02106" lon="8.9751">
        <ele>851</ele>
        <time>2021-08-02T10:30:48.473Z</time>
      </trkpt>
      <trkpt lat="47.02106" lon="8.97507">
        <ele>851</ele>
        <time>2021-08-02T10:30:49.472Z</time>
      </trkpt>
      <trkpt lat="47.02106" lon="8.97504">
        <ele>851</ele>
        <time>2021-08-02T10:30:50.473Z</time>
      </trkpt>
      <trkpt lat="47.02107" lon="8.975">
        <ele>851</ele>
        <time>2021-08-02T10:30:51.472Z</time>
      </trkpt>
      <trkpt lat="47.02107" lon="8.97497">
        <ele>851</ele>
        <time>2021-08-02T10:30:52.472Z</time>
      </trkpt>
      <trkpt lat="47.02107" lon="8.97495">
        <ele>851</ele>
        <time>2021-08-02T10:30:53.472Z</time>
      </trkpt>
      <trkpt lat="47.02107" lon="8.97491">
        <ele>851</ele>
        <time>2021-08-02T10:30:54.472Z</time>
      </trkpt>
      <trkpt lat="47.02106" lon="8.9749">
        <ele>851</ele>
        <time>2021-08-02T10:30:55.472Z</time>
      </trkpt>
      <trkpt lat="47.02105" lon="8.97488">
        <ele>850</ele>
        <time>2021-08-02T10:30:56.472Z</time>
      </trkpt>
      <trkpt lat="47.02104" lon="8.97486">
        <ele>850</ele>
        <time>2021-08-02T10:30:57.472Z</time>
      </trkpt>
      <trkpt lat="47.02103" lon="8.97485">
        <ele>850</ele>
        <time>2021-08-02T10:30:58.472Z</time>
      </trkpt>
      <trkpt lat="47.02103" lon="8.97483">
        <ele>849</ele>
        <time>2021-08-02T10:30:59.472Z</time>
      </trkpt>
      <trkpt lat="47.02103" lon="8.97482">
        <ele>849</ele>
        <time>2021-08-02T10:31:00.472Z</time>
      </trkpt>
      <trkpt lat="47.02103" lon="8.97479">
        <ele>849</ele>
        <time>2021-08-02T10:31:01.473Z</time>
      </trkpt>
      <trkpt lat="47.02104" lon="8.97478">
        <ele>849</ele>
        <time>2021-08-02T10:31:02.472Z</time>
      </trkpt>
      <trkpt lat="47.02103" lon="8.97476">
        <ele>849</ele>
        <time>2021-08-02T10:31:03.473Z</time>
      </trkpt>
      <trkpt lat="47.02103" lon="8.97474">
        <ele>849</ele>
        <time>2021-08-02T10:31:04.472Z</time>
      </trkpt>
      <trkpt lat="47.02102" lon="8.97473">
        <ele>849</ele>
        <time>2021-08-02T10:31:05.472Z</time>
      </trkpt>
      <trkpt lat="47.02101" lon="8.97471">
        <ele>849</ele>
        <time>2021-08-02T10:31:06.473Z</time>
      </trkpt>
      <trkpt lat="47.021" lon="8.9747">
        <ele>849</ele>
        <time>2021-08-02T10:31:07.472Z</time>
      </trkpt>
      <trkpt lat="47.02099" lon="8.97469">
        <ele>849</ele>
        <time>2021-08-02T10:31:08.473Z</time>
      </trkpt>
      <trkpt lat="47.02098" lon="8.97469">
        <ele>849</ele>
        <time>2021-08-02T10:31:09.473Z</time>
      </trkpt>
      <trkpt lat="47.02098" lon="8.97468">
        <ele>849</ele>
        <time>2021-08-02T10:31:10.473Z</time>
      </trkpt>
      <trkpt lat="47.02097" lon="8.97467">
        <ele>849</ele>
        <time>2021-08-02T10:31:11.473Z</time>
      </trkpt>
      <trkpt lat="47.02096" lon="8.97466">
        <ele>849</ele>
        <time>2021-08-02T10:31:12.472Z</time>
      </trkpt>
      <trkpt lat="47.02095" lon="8.97466">
        <ele>849</ele>
        <time>2021-08-02T10:31:13.472Z</time>
      </trkpt>
      <trkpt lat="47.02095" lon="8.97465">
        <ele>849</ele>
        <time>2021-08-02T10:31:14.473Z</time>
      </trkpt>
      <trkpt lat="47.02094" lon="8.97464">
        <ele>850</ele>
        <time>2021-08-02T10:31:15.473Z</time>
      </trkpt>
      <trkpt lat="47.02093" lon="8.97462">
        <ele>850</ele>
        <time>2021-08-02T10:31:16.472Z</time>
      </trkpt>
      <trkpt lat="47.02092" lon="8.97461">
        <ele>850</ele>
        <time>2021-08-02T10:31:17.472Z</time>
      </trkpt>
      <trkpt lat="47.02092" lon="8.97459">
        <ele>850</ele>
        <time>2021-08-02T10:31:18.472Z</time>
      </trkpt>
      <trkpt lat="47.02091" lon="8.97458">
        <ele>850</ele>
        <time>2021-08-02T10:31:19.472Z</time>
      </trkpt>
      <trkpt lat="47.02091" lon="8.97457">
        <ele>850</ele>
        <time>2021-08-02T10:31:21.533Z</time>
      </trkpt>
      <trkpt lat="47.02091" lon="8.97456">
        <ele>850</ele>
        <time>2021-08-02T10:31:22.532Z</time>
      </trkpt>
      <trkpt lat="47.0209" lon="8.97454">
        <ele>850</ele>
        <time>2021-08-02T10:31:23.532Z</time>
      </trkpt>
      <trkpt lat="47.02089" lon="8.97453">
        <ele>850</ele>
        <time>2021-08-02T10:31:24.533Z</time>
      </trkpt>
      <trkpt lat="47.02089" lon="8.97452">
        <ele>850</ele>
        <time>2021-08-02T10:31:25.532Z</time>
      </trkpt>
      <trkpt lat="47.02088" lon="8.9745">
        <ele>851</ele>
        <time>2021-08-02T10:31:26.532Z</time>
      </trkpt>
      <trkpt lat="47.02087" lon="8.97449">
        <ele>851</ele>
        <time>2021-08-02T10:31:27.532Z</time>
      </trkpt>
      <trkpt lat="47.02086" lon="8.97447">
        <ele>851</ele>
        <time>2021-08-02T10:31:28.532Z</time>
      </trkpt>
      <trkpt lat="47.02085" lon="8.97445">
        <ele>851</ele>
        <time>2021-08-02T10:31:29.532Z</time>
      </trkpt>
      <trkpt lat="47.02084" lon="8.97443">
        <ele>852</ele>
        <time>2021-08-02T10:31:30.532Z</time>
      </trkpt>
      <trkpt lat="47.02084" lon="8.97441">
        <ele>852</ele>
        <time>2021-08-02T10:31:31.532Z</time>
      </trkpt>
      <trkpt lat="47.02084" lon="8.97439">
        <ele>852</ele>
        <time>2021-08-02T10:31:32.532Z</time>
      </trkpt>
      <trkpt lat="47.02084" lon="8.97438">
        <ele>852</ele>
        <time>2021-08-02T10:31:33.532Z</time>
      </trkpt>
      <trkpt lat="47.02083" lon="8.97437">
        <ele>852</ele>
        <time>2021-08-02T10:31:34.532Z</time>
      </trkpt>
      <trkpt lat="47.02083" lon="8.97435">
        <ele>852</ele>
        <time>2021-08-02T10:31:35.532Z</time>
      </trkpt>
      <trkpt lat="47.02082" lon="8.97435">
        <ele>852</ele>
        <time>2021-08-02T10:31:36.532Z</time>
      </trkpt>
      <trkpt lat="47.02082" lon="8.97434">
        <ele>853</ele>
        <time>2021-08-02T10:31:37.532Z</time>
      </trkpt>
      <trkpt lat="47.02082" lon="8.97433">
        <ele>852</ele>
        <time>2021-08-02T10:31:38.532Z</time>
      </trkpt>
      <trkpt lat="47.02082" lon="8.97432">
        <ele>852</ele>
        <time>2021-08-02T10:31:39.532Z</time>
      </trkpt>
      <trkpt lat="47.02082" lon="8.97431">
        <ele>852</ele>
        <time>2021-08-02T10:31:40.532Z</time>
      </trkpt>
      <trkpt lat="47.02082" lon="8.9743">
        <ele>852</ele>
        <time>2021-08-02T10:31:41.532Z</time>
      </trkpt>
      <trkpt lat="47.02082" lon="8.97429">
        <ele>853</ele>
        <time>2021-08-02T10:31:42.532Z</time>
      </trkpt>
      <trkpt lat="47.02081" lon="8.97428">
        <ele>853</ele>
        <time>2021-08-02T10:31:43.533Z</time>
      </trkpt>
      <trkpt lat="47.02081" lon="8.97426">
        <ele>854</ele>
        <time>2021-08-02T10:31:44.533Z</time>
      </trkpt>
      <trkpt lat="47.0208" lon="8.97425">
        <ele>854</ele>
        <time>2021-08-02T10:31:45.532Z</time>
      </trkpt>
      <trkpt lat="47.02079" lon="8.97424">
        <ele>855</ele>
        <time>2021-08-02T10:31:46.533Z</time>
      </trkpt>
      <trkpt lat="47.0208" lon="8.97422">
        <ele>855</ele>
        <time>2021-08-02T10:31:50.694Z</time>
      </trkpt>
      <trkpt lat="47.02079" lon="8.97419">
        <ele>855</ele>
        <time>2021-08-02T10:31:51.695Z</time>
      </trkpt>
      <trkpt lat="47.02079" lon="8.97416">
        <ele>855</ele>
        <time>2021-08-02T10:31:52.694Z</time>
      </trkpt>
      <trkpt lat="47.02079" lon="8.97414">
        <ele>855</ele>
        <time>2021-08-02T10:31:53.694Z</time>
      </trkpt>
      <trkpt lat="47.0208" lon="8.97413">
        <ele>855</ele>
        <time>2021-08-02T10:31:54.694Z</time>
      </trkpt>
      <trkpt lat="47.0208" lon="8.97411">
        <ele>855</ele>
        <time>2021-08-02T10:32:13.824Z</time>
      </trkpt>
      <trkpt lat="47.02079" lon="8.97409">
        <ele>854</ele>
        <time>2021-08-02T10:32:15.683Z</time>
      </trkpt>
      <trkpt lat="47.02078" lon="8.97408">
        <ele>854</ele>
        <time>2021-08-02T10:32:34.564Z</time>
      </trkpt>
      <trkpt lat="47.02077" lon="8.97406">
        <ele>854</ele>
        <time>2021-08-02T10:32:35.564Z</time>
      </trkpt>
      <trkpt lat="47.02077" lon="8.97405">
        <ele>854</ele>
        <time>2021-08-02T10:32:36.564Z</time>
      </trkpt>
      <trkpt lat="47.02076" lon="8.97404">
        <ele>854</ele>
        <time>2021-08-02T10:32:37.564Z</time>
      </trkpt>
      <trkpt lat="47.02076" lon="8.97404">
        <ele>854</ele>
        <time>2021-08-02T10:32:38.565Z</time>
      </trkpt>
      <trkpt lat="47.02076" lon="8.97402">
        <ele>854</ele>
        <time>2021-08-02T10:32:39.565Z</time>
      </trkpt>
      <trkpt lat="47.02076" lon="8.974">
        <ele>854</ele>
        <time>2021-08-02T10:32:40.564Z</time>
      </trkpt>
      <trkpt lat="47.02075" lon="8.97397">
        <ele>853</ele>
        <time>2021-08-02T10:32:41.564Z</time>
      </trkpt>
      <trkpt lat="47.02075" lon="8.97395">
        <ele>853</ele>
        <time>2021-08-02T10:32:42.565Z</time>
      </trkpt>
      <trkpt lat="47.02075" lon="8.97394">
        <ele>853</ele>
        <time>2021-08-02T10:32:43.564Z</time>
      </trkpt>
      <trkpt lat="47.02075" lon="8.97394">
        <ele>852</ele>
        <time>2021-08-02T10:32:44.565Z</time>
      </trkpt>
      <trkpt lat="47.02074" lon="8.97393">
        <ele>852</ele>
        <time>2021-08-02T10:32:45.564Z</time>
      </trkpt>
      <trkpt lat="47.02073" lon="8.97392">
        <ele>852</ele>
        <time>2021-08-02T10:32:46.564Z</time>
      </trkpt>
      <trkpt lat="47.02073" lon="8.97391">
        <ele>851</ele>
        <time>2021-08-02T10:32:52.688Z</time>
      </trkpt>
      <trkpt lat="47.02073" lon="8.97389">
        <ele>851</ele>
        <time>2021-08-02T10:32:53.689Z</time>
      </trkpt>
      <trkpt lat="47.02073" lon="8.97388">
        <ele>850</ele>
        <time>2021-08-02T10:32:54.688Z</time>
      </trkpt>
      <trkpt lat="47.02072" lon="8.97387">
        <ele>850</ele>
        <time>2021-08-02T10:32:55.688Z</time>
      </trkpt>
      <trkpt lat="47.02071" lon="8.97385">
        <ele>850</ele>
        <time>2021-08-02T10:32:56.688Z</time>
      </trkpt>
      <trkpt lat="47.02071" lon="8.97383">
        <ele>849</ele>
        <time>2021-08-02T10:32:57.688Z</time>
      </trkpt>
      <trkpt lat="47.0207" lon="8.97381">
        <ele>849</ele>
        <time>2021-08-02T10:32:59.799Z</time>
      </trkpt>
      <trkpt lat="47.02069" lon="8.97379">
        <ele>848</ele>
        <time>2021-08-02T10:33:00.798Z</time>
      </trkpt>
      <trkpt lat="47.02067" lon="8.97377">
        <ele>848</ele>
        <time>2021-08-02T10:33:01.798Z</time>
      </trkpt>
      <trkpt lat="47.02066" lon="8.97375">
        <ele>847</ele>
        <time>2021-08-02T10:33:02.798Z</time>
      </trkpt>
      <trkpt lat="47.02066" lon="8.97374">
        <ele>847</ele>
        <time>2021-08-02T10:33:03.798Z</time>
      </trkpt>
      <trkpt lat="47.02065" lon="8.97373">
        <ele>846</ele>
        <time>2021-08-02T10:33:04.799Z</time>
      </trkpt>
      <trkpt lat="47.02064" lon="8.97372">
        <ele>846</ele>
        <time>2021-08-02T10:33:05.799Z</time>
      </trkpt>
      <trkpt lat="47.02064" lon="8.97371">
        <ele>846</ele>
        <time>2021-08-02T10:33:06.798Z</time>
      </trkpt>
      <trkpt lat="47.02063" lon="8.97369">
        <ele>847</ele>
        <time>2021-08-02T10:33:07.798Z</time>
      </trkpt>
      <trkpt lat="47.02063" lon="8.97367">
        <ele>847</ele>
        <time>2021-08-02T10:33:08.798Z</time>
      </trkpt>
      <trkpt lat="47.02063" lon="8.97366">
        <ele>848</ele>
        <time>2021-08-02T10:33:09.798Z</time>
      </trkpt>
      <trkpt lat="47.02062" lon="8.97364">
        <ele>849</ele>
        <time>2021-08-02T10:33:10.798Z</time>
      </trkpt>
      <trkpt lat="47.02062" lon="8.97362">
        <ele>850</ele>
        <time>2021-08-02T10:33:11.798Z</time>
      </trkpt>
      <trkpt lat="47.02062" lon="8.97359">
        <ele>851</ele>
        <time>2021-08-02T10:33:12.798Z</time>
      </trkpt>
      <trkpt lat="47.02063" lon="8.97357">
        <ele>852</ele>
        <time>2021-08-02T10:33:13.798Z</time>
      </trkpt>
      <trkpt lat="47.02063" lon="8.97355">
        <ele>853</ele>
        <time>2021-08-02T10:33:14.799Z</time>
      </trkpt>
      <trkpt lat="47.02062" lon="8.97353">
        <ele>854</ele>
        <time>2021-08-02T10:33:15.798Z</time>
      </trkpt>
      <trkpt lat="47.02061" lon="8.9735">
        <ele>854</ele>
        <time>2021-08-02T10:33:16.798Z</time>
      </trkpt>
      <trkpt lat="47.0206" lon="8.97349">
        <ele>855</ele>
        <time>2021-08-02T10:33:17.799Z</time>
      </trkpt>
      <trkpt lat="47.0206" lon="8.97348">
        <ele>856</ele>
        <time>2021-08-02T10:33:18.798Z</time>
      </trkpt>
      <trkpt lat="47.02059" lon="8.97347">
        <ele>857</ele>
        <time>2021-08-02T10:33:19.799Z</time>
      </trkpt>
      <trkpt lat="47.02058" lon="8.97346">
        <ele>857</ele>
        <time>2021-08-02T10:33:20.798Z</time>
      </trkpt>
      <trkpt lat="47.02058" lon="8.97344">
        <ele>857</ele>
        <time>2021-08-02T10:33:21.799Z</time>
      </trkpt>
      <trkpt lat="47.02057" lon="8.9734">
        <ele>858</ele>
        <time>2021-08-02T10:33:22.798Z</time>
      </trkpt>
      <trkpt lat="47.02056" lon="8.97337">
        <ele>858</ele>
        <time>2021-08-02T10:33:23.798Z</time>
      </trkpt>
      <trkpt lat="47.02055" lon="8.97335">
        <ele>858</ele>
        <time>2021-08-02T10:33:24.798Z</time>
      </trkpt>
      <trkpt lat="47.02055" lon="8.97334">
        <ele>858</ele>
        <time>2021-08-02T10:33:25.798Z</time>
      </trkpt>
      <trkpt lat="47.02053" lon="8.97335">
        <ele>858</ele>
        <time>2021-08-02T10:33:26.798Z</time>
      </trkpt>
      <trkpt lat="47.02053" lon="8.97334">
        <ele>858</ele>
        <time>2021-08-02T10:33:27.798Z</time>
      </trkpt>
      <trkpt lat="47.02053" lon="8.97333">
        <ele>858</ele>
        <time>2021-08-02T10:33:28.798Z</time>
      </trkpt>
      <trkpt lat="47.02053" lon="8.97331">
        <ele>858</ele>
        <time>2021-08-02T10:33:29.798Z</time>
      </trkpt>
      <trkpt lat="47.02052" lon="8.97331">
        <ele>858</ele>
        <time>2021-08-02T10:33:30.799Z</time>
      </trkpt>
      <trkpt lat="47.02052" lon="8.97329">
        <ele>858</ele>
        <time>2021-08-02T10:33:31.798Z</time>
      </trkpt>
      <trkpt lat="47.02051" lon="8.97328">
        <ele>858</ele>
        <time>2021-08-02T10:33:32.798Z</time>
      </trkpt>
      <trkpt lat="47.02051" lon="8.97326">
        <ele>858</ele>
        <time>2021-08-02T10:33:33.798Z</time>
      </trkpt>
      <trkpt lat="47.0205" lon="8.97325">
        <ele>858</ele>
        <time>2021-08-02T10:33:34.798Z</time>
      </trkpt>
      <trkpt lat="47.0205" lon="8.97323">
        <ele>858</ele>
        <time>2021-08-02T10:33:35.798Z</time>
      </trkpt>
      <trkpt lat="47.0205" lon="8.97322">
        <ele>857</ele>
        <time>2021-08-02T10:33:36.798Z</time>
      </trkpt>
      <trkpt lat="47.02049" lon="8.9732">
        <ele>857</ele>
        <time>2021-08-02T10:33:37.798Z</time>
      </trkpt>
      <trkpt lat="47.02049" lon="8.97318">
        <ele>857</ele>
        <time>2021-08-02T10:33:38.798Z</time>
      </trkpt>
      <trkpt lat="47.02049" lon="8.97317">
        <ele>857</ele>
        <time>2021-08-02T10:33:39.798Z</time>
      </trkpt>
      <trkpt lat="47.02049" lon="8.97316">
        <ele>858</ele>
        <time>2021-08-02T10:33:40.798Z</time>
      </trkpt>
      <trkpt lat="47.02048" lon="8.97315">
        <ele>858</ele>
        <time>2021-08-02T10:33:41.799Z</time>
      </trkpt>
      <trkpt lat="47.02048" lon="8.97314">
        <ele>858</ele>
        <time>2021-08-02T10:33:42.798Z</time>
      </trkpt>
      <trkpt lat="47.02047" lon="8.97313">
        <ele>858</ele>
        <time>2021-08-02T10:33:43.799Z</time>
      </trkpt>
      <trkpt lat="47.02046" lon="8.97312">
        <ele>858</ele>
        <time>2021-08-02T10:33:44.798Z</time>
      </trkpt>
      <trkpt lat="47.02046" lon="8.97311">
        <ele>858</ele>
        <time>2021-08-02T10:33:45.798Z</time>
      </trkpt>
      <trkpt lat="47.02045" lon="8.9731">
        <ele>857</ele>
        <time>2021-08-02T10:33:46.798Z</time>
      </trkpt>
      <trkpt lat="47.02045" lon="8.97309">
        <ele>856</ele>
        <time>2021-08-02T10:33:47.798Z</time>
      </trkpt>
      <trkpt lat="47.02044" lon="8.97308">
        <ele>856</ele>
        <time>2021-08-02T10:33:48.798Z</time>
      </trkpt>
      <trkpt lat="47.02044" lon="8.97307">
        <ele>855</ele>
        <time>2021-08-02T10:33:49.798Z</time>
      </trkpt>
      <trkpt lat="47.02043" lon="8.97307">
        <ele>855</ele>
        <time>2021-08-02T10:33:50.798Z</time>
      </trkpt>
      <trkpt lat="47.02042" lon="8.97306">
        <ele>854</ele>
        <time>2021-08-02T10:33:51.798Z</time>
      </trkpt>
      <trkpt lat="47.02042" lon="8.97305">
        <ele>854</ele>
        <time>2021-08-02T10:33:52.798Z</time>
      </trkpt>
      <trkpt lat="47.02043" lon="8.97303">
        <ele>854</ele>
        <time>2021-08-02T10:33:53.798Z</time>
      </trkpt>
      <trkpt lat="47.02043" lon="8.97303">
        <ele>854</ele>
        <time>2021-08-02T10:33:54.798Z</time>
      </trkpt>
      <trkpt lat="47.02044" lon="8.97302">
        <ele>854</ele>
        <time>2021-08-02T10:33:55.798Z</time>
      </trkpt>
      <trkpt lat="47.02044" lon="8.97301">
        <ele>855</ele>
        <time>2021-08-02T10:33:56.799Z</time>
      </trkpt>
      <trkpt lat="47.02044" lon="8.973">
        <ele>855</ele>
        <time>2021-08-02T10:33:57.798Z</time>
      </trkpt>
      <trkpt lat="47.02045" lon="8.97299">
        <ele>856</ele>
        <time>2021-08-02T10:33:58.798Z</time>
      </trkpt>
      <trkpt lat="47.02045" lon="8.97298">
        <ele>856</ele>
        <time>2021-08-02T10:33:59.798Z</time>
      </trkpt>
      <trkpt lat="47.02046" lon="8.97296">
        <ele>856</ele>
        <time>2021-08-02T10:34:00.799Z</time>
      </trkpt>
      <trkpt lat="47.02046" lon="8.97295">
        <ele>856</ele>
        <time>2021-08-02T10:34:01.798Z</time>
      </trkpt>
      <trkpt lat="47.02046" lon="8.97294">
        <ele>856</ele>
        <time>2021-08-02T10:34:02.798Z</time>
      </trkpt>
      <trkpt lat="47.02046" lon="8.97292">
        <ele>855</ele>
        <time>2021-08-02T10:34:03.798Z</time>
      </trkpt>
      <trkpt lat="47.02047" lon="8.97291">
        <ele>855</ele>
        <time>2021-08-02T10:34:04.798Z</time>
      </trkpt>
      <trkpt lat="47.02047" lon="8.97288">
        <ele>854</ele>
        <time>2021-08-02T10:34:05.799Z</time>
      </trkpt>
      <trkpt lat="47.02047" lon="8.97286">
        <ele>853</ele>
        <time>2021-08-02T10:34:06.798Z</time>
      </trkpt>
      <trkpt lat="47.02046" lon="8.97284">
        <ele>852</ele>
        <time>2021-08-02T10:34:07.798Z</time>
      </trkpt>
      <trkpt lat="47.02045" lon="8.97282">
        <ele>852</ele>
        <time>2021-08-02T10:34:08.798Z</time>
      </trkpt>
      <trkpt lat="47.02045" lon="8.97281">
        <ele>851</ele>
        <time>2021-08-02T10:34:09.798Z</time>
      </trkpt>
      <trkpt lat="47.02044" lon="8.9728">
        <ele>850</ele>
        <time>2021-08-02T10:34:10.798Z</time>
      </trkpt>
      <trkpt lat="47.02044" lon="8.97278">
        <ele>849</ele>
        <time>2021-08-02T10:34:11.798Z</time>
      </trkpt>
      <trkpt lat="47.02045" lon="8.97277">
        <ele>849</ele>
        <time>2021-08-02T10:34:12.798Z</time>
      </trkpt>
      <trkpt lat="47.02045" lon="8.97275">
        <ele>849</ele>
        <time>2021-08-02T10:34:13.798Z</time>
      </trkpt>
      <trkpt lat="47.02045" lon="8.97273">
        <ele>849</ele>
        <time>2021-08-02T10:34:14.798Z</time>
      </trkpt>
      <trkpt lat="47.02045" lon="8.97272">
        <ele>849</ele>
        <time>2021-08-02T10:34:15.798Z</time>
      </trkpt>
      <trkpt lat="47.02045" lon="8.97271">
        <ele>849</ele>
        <time>2021-08-02T10:34:16.798Z</time>
      </trkpt>
      <trkpt lat="47.02045" lon="8.9727">
        <ele>850</ele>
        <time>2021-08-02T10:34:17.798Z</time>
      </trkpt>
      <trkpt lat="47.02045" lon="8.97268">
        <ele>850</ele>
        <time>2021-08-02T10:34:18.798Z</time>
      </trkpt>
      <trkpt lat="47.02045" lon="8.97267">
        <ele>849</ele>
        <time>2021-08-02T10:34:19.798Z</time>
      </trkpt>
      <trkpt lat="47.02045" lon="8.97266">
        <ele>849</ele>
        <time>2021-08-02T10:34:20.799Z</time>
      </trkpt>
      <trkpt lat="47.02046" lon="8.97264">
        <ele>849</ele>
        <time>2021-08-02T10:34:21.798Z</time>
      </trkpt>
      <trkpt lat="47.02046" lon="8.97263">
        <ele>849</ele>
        <time>2021-08-02T10:34:22.799Z</time>
      </trkpt>
      <trkpt lat="47.02047" lon="8.97262">
        <ele>849</ele>
        <time>2021-08-02T10:34:23.798Z</time>
      </trkpt>
      <trkpt lat="47.02047" lon="8.97262">
        <ele>849</ele>
        <time>2021-08-02T10:34:24.799Z</time>
      </trkpt>
      <trkpt lat="47.02048" lon="8.97261">
        <ele>849</ele>
        <time>2021-08-02T10:34:25.798Z</time>
      </trkpt>
      <trkpt lat="47.02049" lon="8.97261">
        <ele>849</ele>
        <time>2021-08-02T10:34:26.798Z</time>
      </trkpt>
      <trkpt lat="47.0205" lon="8.97259">
        <ele>849</ele>
        <time>2021-08-02T10:34:27.798Z</time>
      </trkpt>
      <trkpt lat="47.02051" lon="8.97257">
        <ele>849</ele>
        <time>2021-08-02T10:34:28.799Z</time>
      </trkpt>
      <trkpt lat="47.02052" lon="8.97255">
        <ele>849</ele>
        <time>2021-08-02T10:34:29.798Z</time>
      </trkpt>
      <trkpt lat="47.02052" lon="8.97254">
        <ele>849</ele>
        <time>2021-08-02T10:34:30.798Z</time>
      </trkpt>
      <trkpt lat="47.02052" lon="8.97252">
        <ele>849</ele>
        <time>2021-08-02T10:34:31.798Z</time>
      </trkpt>
      <trkpt lat="47.02053" lon="8.97251">
        <ele>849</ele>
        <time>2021-08-02T10:34:32.798Z</time>
      </trkpt>
      <trkpt lat="47.02053" lon="8.9725">
        <ele>849</ele>
        <time>2021-08-02T10:34:33.798Z</time>
      </trkpt>
      <trkpt lat="47.02053" lon="8.97248">
        <ele>849</ele>
        <time>2021-08-02T10:34:34.798Z</time>
      </trkpt>
      <trkpt lat="47.02052" lon="8.97247">
        <ele>849</ele>
        <time>2021-08-02T10:34:35.798Z</time>
      </trkpt>
      <trkpt lat="47.02053" lon="8.97245">
        <ele>849</ele>
        <time>2021-08-02T10:34:36.798Z</time>
      </trkpt>
      <trkpt lat="47.02053" lon="8.97244">
        <ele>849</ele>
        <time>2021-08-02T10:34:37.798Z</time>
      </trkpt>
      <trkpt lat="47.02053" lon="8.97242">
        <ele>849</ele>
        <time>2021-08-02T10:34:38.798Z</time>
      </trkpt>
      <trkpt lat="47.02054" lon="8.97241">
        <ele>849</ele>
        <time>2021-08-02T10:34:39.798Z</time>
      </trkpt>
      <trkpt lat="47.02054" lon="8.9724">
        <ele>850</ele>
        <time>2021-08-02T10:34:40.799Z</time>
      </trkpt>
      <trkpt lat="47.02054" lon="8.97238">
        <ele>850</ele>
        <time>2021-08-02T10:34:41.798Z</time>
      </trkpt>
      <trkpt lat="47.02054" lon="8.97237">
        <ele>851</ele>
        <time>2021-08-02T10:34:42.798Z</time>
      </trkpt>
      <trkpt lat="47.02054" lon="8.97236">
        <ele>851</ele>
        <time>2021-08-02T10:34:43.799Z</time>
      </trkpt>
      <trkpt lat="47.02053" lon="8.97235">
        <ele>851</ele>
        <time>2021-08-02T10:34:44.798Z</time>
      </trkpt>
      <trkpt lat="47.02053" lon="8.97234">
        <ele>852</ele>
        <time>2021-08-02T10:34:45.798Z</time>
      </trkpt>
      <trkpt lat="47.02052" lon="8.97233">
        <ele>852</ele>
        <time>2021-08-02T10:34:46.799Z</time>
      </trkpt>
      <trkpt lat="47.02052" lon="8.97232">
        <ele>852</ele>
        <time>2021-08-02T10:34:47.798Z</time>
      </trkpt>
      <trkpt lat="47.02052" lon="8.9723">
        <ele>852</ele>
        <time>2021-08-02T10:34:48.798Z</time>
      </trkpt>
      <trkpt lat="47.02051" lon="8.97229">
        <ele>852</ele>
        <time>2021-08-02T10:34:49.798Z</time>
      </trkpt>
      <trkpt lat="47.02052" lon="8.97228">
        <ele>852</ele>
        <time>2021-08-02T10:34:50.798Z</time>
      </trkpt>
      <trkpt lat="47.02053" lon="8.97228">
        <ele>852</ele>
        <time>2021-08-02T10:34:51.798Z</time>
      </trkpt>
      <trkpt lat="47.02053" lon="8.97228">
        <ele>852</ele>
        <time>2021-08-02T10:34:52.799Z</time>
      </trkpt>
      <trkpt lat="47.02054" lon="8.97227">
        <ele>852</ele>
        <time>2021-08-02T10:34:53.798Z</time>
      </trkpt>
      <trkpt lat="47.02055" lon="8.97227">
        <ele>853</ele>
        <time>2021-08-02T10:34:54.798Z</time>
      </trkpt>
      <trkpt lat="47.02055" lon="8.97226">
        <ele>853</ele>
        <time>2021-08-02T10:34:55.798Z</time>
      </trkpt>
      <trkpt lat="47.02056" lon="8.97226">
        <ele>854</ele>
        <time>2021-08-02T10:34:56.798Z</time>
      </trkpt>
      <trkpt lat="47.02057" lon="8.97225">
        <ele>854</ele>
        <time>2021-08-02T10:34:57.798Z</time>
      </trkpt>
      <trkpt lat="47.02058" lon="8.97224">
        <ele>854</ele>
        <time>2021-08-02T10:34:58.798Z</time>
      </trkpt>
      <trkpt lat="47.02058" lon="8.97224">
        <ele>854</ele>
        <time>2021-08-02T10:34:59.798Z</time>
      </trkpt>
      <trkpt lat="47.02058" lon="8.97224">
        <ele>855</ele>
        <time>2021-08-02T10:35:00.798Z</time>
      </trkpt>
      <trkpt lat="47.02059" lon="8.97223">
        <ele>855</ele>
        <time>2021-08-02T10:35:01.798Z</time>
      </trkpt>
      <trkpt lat="47.0206" lon="8.97222">
        <ele>855</ele>
        <time>2021-08-02T10:35:02.798Z</time>
      </trkpt>
      <trkpt lat="47.02061" lon="8.9722">
        <ele>855</ele>
        <time>2021-08-02T10:35:03.799Z</time>
      </trkpt>
      <trkpt lat="47.02062" lon="8.97219">
        <ele>855</ele>
        <time>2021-08-02T10:35:04.798Z</time>
      </trkpt>
      <trkpt lat="47.02063" lon="8.97218">
        <ele>855</ele>
        <time>2021-08-02T10:35:05.798Z</time>
      </trkpt>
      <trkpt lat="47.02063" lon="8.97217">
        <ele>855</ele>
        <time>2021-08-02T10:35:06.798Z</time>
      </trkpt>
      <trkpt lat="47.02064" lon="8.97216">
        <ele>855</ele>
        <time>2021-08-02T10:35:07.798Z</time>
      </trkpt>
      <trkpt lat="47.02066" lon="8.97216">
        <ele>855</ele>
        <time>2021-08-02T10:35:08.799Z</time>
      </trkpt>
      <trkpt lat="47.02068" lon="8.97215">
        <ele>855</ele>
        <time>2021-08-02T10:35:09.798Z</time>
      </trkpt>
      <trkpt lat="47.02068" lon="8.97214">
        <ele>855</ele>
        <time>2021-08-02T10:35:10.798Z</time>
      </trkpt>
      <trkpt lat="47.02069" lon="8.97213">
        <ele>855</ele>
        <time>2021-08-02T10:35:11.798Z</time>
      </trkpt>
      <trkpt lat="47.02069" lon="8.97212">
        <ele>855</ele>
        <time>2021-08-02T10:35:12.798Z</time>
      </trkpt>
      <trkpt lat="47.0207" lon="8.9721">
        <ele>855</ele>
        <time>2021-08-02T10:35:13.798Z</time>
      </trkpt>
      <trkpt lat="47.02071" lon="8.97209">
        <ele>855</ele>
        <time>2021-08-02T10:35:14.798Z</time>
      </trkpt>
      <trkpt lat="47.02072" lon="8.97208">
        <ele>855</ele>
        <time>2021-08-02T10:35:15.798Z</time>
      </trkpt>
      <trkpt lat="47.02072" lon="8.97208">
        <ele>855</ele>
        <time>2021-08-02T10:35:16.798Z</time>
      </trkpt>
      <trkpt lat="47.02072" lon="8.97207">
        <ele>855</ele>
        <time>2021-08-02T10:35:17.799Z</time>
      </trkpt>
      <trkpt lat="47.02072" lon="8.97206">
        <ele>855</ele>
        <time>2021-08-02T10:35:18.799Z</time>
      </trkpt>
      <trkpt lat="47.02072" lon="8.97205">
        <ele>856</ele>
        <time>2021-08-02T10:35:19.798Z</time>
      </trkpt>
      <trkpt lat="47.02071" lon="8.97204">
        <ele>856</ele>
        <time>2021-08-02T10:35:20.798Z</time>
      </trkpt>
      <trkpt lat="47.02071" lon="8.97203">
        <ele>856</ele>
        <time>2021-08-02T10:35:21.799Z</time>
      </trkpt>
      <trkpt lat="47.02071" lon="8.97202">
        <ele>856</ele>
        <time>2021-08-02T10:35:22.798Z</time>
      </trkpt>
      <trkpt lat="47.02071" lon="8.97201">
        <ele>856</ele>
        <time>2021-08-02T10:35:23.798Z</time>
      </trkpt>
      <trkpt lat="47.02071" lon="8.972">
        <ele>856</ele>
        <time>2021-08-02T10:35:24.798Z</time>
      </trkpt>
      <trkpt lat="47.02072" lon="8.97198">
        <ele>856</ele>
        <time>2021-08-02T10:35:25.798Z</time>
      </trkpt>
      <trkpt lat="47.02072" lon="8.97198">
        <ele>857</ele>
        <time>2021-08-02T10:35:26.798Z</time>
      </trkpt>
      <trkpt lat="47.02073" lon="8.97197">
        <ele>857</ele>
        <time>2021-08-02T10:35:27.798Z</time>
      </trkpt>
      <trkpt lat="47.02074" lon="8.97195">
        <ele>857</ele>
        <time>2021-08-02T10:35:28.798Z</time>
      </trkpt>
      <trkpt lat="47.02074" lon="8.97194">
        <ele>857</ele>
        <time>2021-08-02T10:35:29.798Z</time>
      </trkpt>
      <trkpt lat="47.02074" lon="8.97193">
        <ele>857</ele>
        <time>2021-08-02T10:35:30.799Z</time>
      </trkpt>
      <trkpt lat="47.02073" lon="8.97192">
        <ele>857</ele>
        <time>2021-08-02T10:35:31.798Z</time>
      </trkpt>
      <trkpt lat="47.02073" lon="8.97191">
        <ele>857</ele>
        <time>2021-08-02T10:35:32.799Z</time>
      </trkpt>
      <trkpt lat="47.02073" lon="8.9719">
        <ele>857</ele>
        <time>2021-08-02T10:35:33.798Z</time>
      </trkpt>
      <trkpt lat="47.02074" lon="8.97189">
        <ele>857</ele>
        <time>2021-08-02T10:35:34.798Z</time>
      </trkpt>
      <trkpt lat="47.02074" lon="8.97188">
        <ele>857</ele>
        <time>2021-08-02T10:35:35.798Z</time>
      </trkpt>
      <trkpt lat="47.02074" lon="8.97187">
        <ele>857</ele>
        <time>2021-08-02T10:35:36.799Z</time>
      </trkpt>
      <trkpt lat="47.02074" lon="8.97186">
        <ele>857</ele>
        <time>2021-08-02T10:35:37.798Z</time>
      </trkpt>
      <trkpt lat="47.02075" lon="8.97185">
        <ele>857</ele>
        <time>2021-08-02T10:35:38.799Z</time>
      </trkpt>
      <trkpt lat="47.02076" lon="8.97185">
        <ele>858</ele>
        <time>2021-08-02T10:35:39.798Z</time>
      </trkpt>
      <trkpt lat="47.02076" lon="8.97185">
        <ele>858</ele>
        <time>2021-08-02T10:35:40.798Z</time>
      </trkpt>
      <trkpt lat="47.02076" lon="8.97185">
        <ele>858</ele>
        <time>2021-08-02T10:35:41.798Z</time>
      </trkpt>
      <trkpt lat="47.02076" lon="8.97185">
        <ele>858</ele>
        <time>2021-08-02T10:35:42.798Z</time>
      </trkpt>
      <trkpt lat="47.02077" lon="8.97182">
        <ele>858</ele>
        <time>2021-08-02T10:35:43.798Z</time>
      </trkpt>
      <trkpt lat="47.02078" lon="8.9718">
        <ele>857</ele>
        <time>2021-08-02T10:35:44.798Z</time>
      </trkpt>
      <trkpt lat="47.02079" lon="8.97179">
        <ele>857</ele>
        <time>2021-08-02T10:35:45.798Z</time>
      </trkpt>
      <trkpt lat="47.0208" lon="8.97177">
        <ele>857</ele>
        <time>2021-08-02T10:35:46.798Z</time>
      </trkpt>
      <trkpt lat="47.0208" lon="8.97177">
        <ele>857</ele>
        <time>2021-08-02T10:35:47.798Z</time>
      </trkpt>
      <trkpt lat="47.0208" lon="8.97176">
        <ele>857</ele>
        <time>2021-08-02T10:35:48.798Z</time>
      </trkpt>
      <trkpt lat="47.0208" lon="8.97175">
        <ele>857</ele>
        <time>2021-08-02T10:35:49.798Z</time>
      </trkpt>
      <trkpt lat="47.0208" lon="8.97175">
        <ele>857</ele>
        <time>2021-08-02T10:35:50.798Z</time>
      </trkpt>
      <trkpt lat="47.0208" lon="8.97174">
        <ele>856</ele>
        <time>2021-08-02T10:35:51.800Z</time>
      </trkpt>
      <trkpt lat="47.0208" lon="8.97172">
        <ele>856</ele>
        <time>2021-08-02T10:35:52.800Z</time>
      </trkpt>
      <trkpt lat="47.02081" lon="8.97171">
        <ele>856</ele>
        <time>2021-08-02T10:35:53.800Z</time>
      </trkpt>
      <trkpt lat="47.02082" lon="8.9717">
        <ele>856</ele>
        <time>2021-08-02T10:35:54.799Z</time>
      </trkpt>
      <trkpt lat="47.02082" lon="8.97168">
        <ele>856</ele>
        <time>2021-08-02T10:35:55.800Z</time>
      </trkpt>
      <trkpt lat="47.02083" lon="8.97167">
        <ele>855</ele>
        <time>2021-08-02T10:35:56.799Z</time>
      </trkpt>
      <trkpt lat="47.02084" lon="8.97165">
        <ele>854</ele>
        <time>2021-08-02T10:35:57.799Z</time>
      </trkpt>
      <trkpt lat="47.02085" lon="8.97163">
        <ele>854</ele>
        <time>2021-08-02T10:35:58.799Z</time>
      </trkpt>
      <trkpt lat="47.02086" lon="8.97162">
        <ele>853</ele>
        <time>2021-08-02T10:35:59.799Z</time>
      </trkpt>
      <trkpt lat="47.02086" lon="8.9716">
        <ele>853</ele>
        <time>2021-08-02T10:36:00.800Z</time>
      </trkpt>
      <trkpt lat="47.02087" lon="8.97159">
        <ele>853</ele>
        <time>2021-08-02T10:36:01.800Z</time>
      </trkpt>
      <trkpt lat="47.02087" lon="8.97157">
        <ele>853</ele>
        <time>2021-08-02T10:36:02.800Z</time>
      </trkpt>
      <trkpt lat="47.02087" lon="8.97155">
        <ele>853</ele>
        <time>2021-08-02T10:36:03.799Z</time>
      </trkpt>
      <trkpt lat="47.02087" lon="8.97152">
        <ele>854</ele>
        <time>2021-08-02T10:36:04.800Z</time>
      </trkpt>
      <trkpt lat="47.02087" lon="8.9715">
        <ele>853</ele>
        <time>2021-08-02T10:36:05.800Z</time>
      </trkpt>
      <trkpt lat="47.02087" lon="8.97149">
        <ele>853</ele>
        <time>2021-08-02T10:36:06.800Z</time>
      </trkpt>
      <trkpt lat="47.02089" lon="8.97147">
        <ele>853</ele>
        <time>2021-08-02T10:36:07.800Z</time>
      </trkpt>
      <trkpt lat="47.0209" lon="8.97145">
        <ele>853</ele>
        <time>2021-08-02T10:36:08.799Z</time>
      </trkpt>
      <trkpt lat="47.02092" lon="8.97144">
        <ele>853</ele>
        <time>2021-08-02T10:36:09.800Z</time>
      </trkpt>
      <trkpt lat="47.02092" lon="8.97142">
        <ele>853</ele>
        <time>2021-08-02T10:36:10.800Z</time>
      </trkpt>
      <trkpt lat="47.02093" lon="8.97141">
        <ele>853</ele>
        <time>2021-08-02T10:36:11.800Z</time>
      </trkpt>
      <trkpt lat="47.02095" lon="8.97139">
        <ele>853</ele>
        <time>2021-08-02T10:36:12.799Z</time>
      </trkpt>
      <trkpt lat="47.02095" lon="8.97138">
        <ele>853</ele>
        <time>2021-08-02T10:36:13.799Z</time>
      </trkpt>
      <trkpt lat="47.02095" lon="8.97137">
        <ele>853</ele>
        <time>2021-08-02T10:36:14.800Z</time>
      </trkpt>
      <trkpt lat="47.02096" lon="8.97135">
        <ele>854</ele>
        <time>2021-08-02T10:36:15.800Z</time>
      </trkpt>
      <trkpt lat="47.02096" lon="8.97134">
        <ele>854</ele>
        <time>2021-08-02T10:36:16.800Z</time>
      </trkpt>
      <trkpt lat="47.02097" lon="8.97132">
        <ele>855</ele>
        <time>2021-08-02T10:36:17.799Z</time>
      </trkpt>
      <trkpt lat="47.02097" lon="8.97132">
        <ele>855</ele>
        <time>2021-08-02T10:36:18.800Z</time>
      </trkpt>
      <trkpt lat="47.02097" lon="8.97131">
        <ele>856</ele>
        <time>2021-08-02T10:36:19.800Z</time>
      </trkpt>
      <trkpt lat="47.02097" lon="8.9713">
        <ele>857</ele>
        <time>2021-08-02T10:36:20.800Z</time>
      </trkpt>
      <trkpt lat="47.02099" lon="8.97128">
        <ele>857</ele>
        <time>2021-08-02T10:36:21.799Z</time>
      </trkpt>
      <trkpt lat="47.02099" lon="8.97127">
        <ele>857</ele>
        <time>2021-08-02T10:36:22.799Z</time>
      </trkpt>
      <trkpt lat="47.021" lon="8.97125">
        <ele>857</ele>
        <time>2021-08-02T10:36:23.799Z</time>
      </trkpt>
      <trkpt lat="47.02102" lon="8.97123">
        <ele>858</ele>
        <time>2021-08-02T10:36:24.799Z</time>
      </trkpt>
      <trkpt lat="47.02103" lon="8.97122">
        <ele>858</ele>
        <time>2021-08-02T10:36:25.799Z</time>
      </trkpt>
      <trkpt lat="47.02103" lon="8.9712">
        <ele>857</ele>
        <time>2021-08-02T10:36:26.799Z</time>
      </trkpt>
      <trkpt lat="47.02104" lon="8.97118">
        <ele>857</ele>
        <time>2021-08-02T10:36:27.800Z</time>
      </trkpt>
      <trkpt lat="47.02104" lon="8.97117">
        <ele>857</ele>
        <time>2021-08-02T10:36:28.799Z</time>
      </trkpt>
      <trkpt lat="47.02104" lon="8.97116">
        <ele>856</ele>
        <time>2021-08-02T10:36:29.800Z</time>
      </trkpt>
      <trkpt lat="47.02104" lon="8.97114">
        <ele>856</ele>
        <time>2021-08-02T10:36:30.800Z</time>
      </trkpt>
      <trkpt lat="47.02105" lon="8.97112">
        <ele>856</ele>
        <time>2021-08-02T10:36:31.799Z</time>
      </trkpt>
      <trkpt lat="47.02106" lon="8.9711">
        <ele>857</ele>
        <time>2021-08-02T10:36:32.799Z</time>
      </trkpt>
      <trkpt lat="47.02107" lon="8.97108">
        <ele>857</ele>
        <time>2021-08-02T10:36:33.799Z</time>
      </trkpt>
      <trkpt lat="47.02108" lon="8.97107">
        <ele>857</ele>
        <time>2021-08-02T10:36:34.800Z</time>
      </trkpt>
      <trkpt lat="47.02108" lon="8.97105">
        <ele>857</ele>
        <time>2021-08-02T10:36:35.800Z</time>
      </trkpt>
      <trkpt lat="47.02109" lon="8.97104">
        <ele>857</ele>
        <time>2021-08-02T10:36:36.800Z</time>
      </trkpt>
      <trkpt lat="47.0211" lon="8.97103">
        <ele>858</ele>
        <time>2021-08-02T10:36:37.799Z</time>
      </trkpt>
      <trkpt lat="47.0211" lon="8.97101">
        <ele>858</ele>
        <time>2021-08-02T10:36:38.800Z</time>
      </trkpt>
      <trkpt lat="47.02111" lon="8.971">
        <ele>858</ele>
        <time>2021-08-02T10:36:39.800Z</time>
      </trkpt>
      <trkpt lat="47.02111" lon="8.97099">
        <ele>858</ele>
        <time>2021-08-02T10:36:40.799Z</time>
      </trkpt>
      <trkpt lat="47.02112" lon="8.97098">
        <ele>858</ele>
        <time>2021-08-02T10:36:41.799Z</time>
      </trkpt>
      <trkpt lat="47.02112" lon="8.97096">
        <ele>858</ele>
        <time>2021-08-02T10:36:42.800Z</time>
      </trkpt>
      <trkpt lat="47.02113" lon="8.97094">
        <ele>858</ele>
        <time>2021-08-02T10:36:43.799Z</time>
      </trkpt>
      <trkpt lat="47.02113" lon="8.97092">
        <ele>859</ele>
        <time>2021-08-02T10:36:44.800Z</time>
      </trkpt>
      <trkpt lat="47.02113" lon="8.9709">
        <ele>859</ele>
        <time>2021-08-02T10:36:45.800Z</time>
      </trkpt>
      <trkpt lat="47.02113" lon="8.97087">
        <ele>858</ele>
        <time>2021-08-02T10:36:46.799Z</time>
      </trkpt>
      <trkpt lat="47.02114" lon="8.97086">
        <ele>858</ele>
        <time>2021-08-02T10:36:47.800Z</time>
      </trkpt>
      <trkpt lat="47.02114" lon="8.97084">
        <ele>858</ele>
        <time>2021-08-02T10:36:48.800Z</time>
      </trkpt>
      <trkpt lat="47.02114" lon="8.97082">
        <ele>858</ele>
        <time>2021-08-02T10:36:49.800Z</time>
      </trkpt>
      <trkpt lat="47.02114" lon="8.97081">
        <ele>857</ele>
        <time>2021-08-02T10:36:50.800Z</time>
      </trkpt>
      <trkpt lat="47.02114" lon="8.97078">
        <ele>857</ele>
        <time>2021-08-02T10:36:51.799Z</time>
      </trkpt>
      <trkpt lat="47.02113" lon="8.97076">
        <ele>857</ele>
        <time>2021-08-02T10:36:52.800Z</time>
      </trkpt>
      <trkpt lat="47.02113" lon="8.97074">
        <ele>857</ele>
        <time>2021-08-02T10:36:53.800Z</time>
      </trkpt>
      <trkpt lat="47.02113" lon="8.97073">
        <ele>857</ele>
        <time>2021-08-02T10:36:54.799Z</time>
      </trkpt>
      <trkpt lat="47.02113" lon="8.97071">
        <ele>857</ele>
        <time>2021-08-02T10:36:55.800Z</time>
      </trkpt>
      <trkpt lat="47.02114" lon="8.97069">
        <ele>857</ele>
        <time>2021-08-02T10:36:56.800Z</time>
      </trkpt>
      <trkpt lat="47.02114" lon="8.97067">
        <ele>857</ele>
        <time>2021-08-02T10:36:57.800Z</time>
      </trkpt>
      <trkpt lat="47.02114" lon="8.97066">
        <ele>857</ele>
        <time>2021-08-02T10:36:58.800Z</time>
      </trkpt>
      <trkpt lat="47.02113" lon="8.97064">
        <ele>857</ele>
        <time>2021-08-02T10:36:59.800Z</time>
      </trkpt>
      <trkpt lat="47.02113" lon="8.97061">
        <ele>857</ele>
        <time>2021-08-02T10:37:00.800Z</time>
      </trkpt>
      <trkpt lat="47.02113" lon="8.97059">
        <ele>857</ele>
        <time>2021-08-02T10:37:01.799Z</time>
      </trkpt>
      <trkpt lat="47.02112" lon="8.97058">
        <ele>857</ele>
        <time>2021-08-02T10:37:02.799Z</time>
      </trkpt>
      <trkpt lat="47.02113" lon="8.97057">
        <ele>857</ele>
        <time>2021-08-02T10:37:03.799Z</time>
      </trkpt>
      <trkpt lat="47.02112" lon="8.97056">
        <ele>857</ele>
        <time>2021-08-02T10:37:04.799Z</time>
      </trkpt>
      <trkpt lat="47.02112" lon="8.97055">
        <ele>857</ele>
        <time>2021-08-02T10:37:05.800Z</time>
      </trkpt>
      <trkpt lat="47.02112" lon="8.97054">
        <ele>856</ele>
        <time>2021-08-02T10:37:06.799Z</time>
      </trkpt>
      <trkpt lat="47.02112" lon="8.97051">
        <ele>856</ele>
        <time>2021-08-02T10:37:07.800Z</time>
      </trkpt>
      <trkpt lat="47.02112" lon="8.97048">
        <ele>857</ele>
        <time>2021-08-02T10:37:08.799Z</time>
      </trkpt>
      <trkpt lat="47.02112" lon="8.97047">
        <ele>857</ele>
        <time>2021-08-02T10:37:09.799Z</time>
      </trkpt>
      <trkpt lat="47.02113" lon="8.97045">
        <ele>857</ele>
        <time>2021-08-02T10:37:10.800Z</time>
      </trkpt>
      <trkpt lat="47.02114" lon="8.97044">
        <ele>858</ele>
        <time>2021-08-02T10:37:11.800Z</time>
      </trkpt>
      <trkpt lat="47.02114" lon="8.97043">
        <ele>858</ele>
        <time>2021-08-02T10:37:12.800Z</time>
      </trkpt>
      <trkpt lat="47.02114" lon="8.97042">
        <ele>858</ele>
        <time>2021-08-02T10:37:13.800Z</time>
      </trkpt>
      <trkpt lat="47.02114" lon="8.9704">
        <ele>858</ele>
        <time>2021-08-02T10:37:14.799Z</time>
      </trkpt>
      <trkpt lat="47.02114" lon="8.97038">
        <ele>858</ele>
        <time>2021-08-02T10:37:15.800Z</time>
      </trkpt>
      <trkpt lat="47.02114" lon="8.97036">
        <ele>858</ele>
        <time>2021-08-02T10:37:16.800Z</time>
      </trkpt>
      <trkpt lat="47.02114" lon="8.97034">
        <ele>858</ele>
        <time>2021-08-02T10:37:17.800Z</time>
      </trkpt>
      <trkpt lat="47.02115" lon="8.97032">
        <ele>858</ele>
        <time>2021-08-02T10:37:18.799Z</time>
      </trkpt>
      <trkpt lat="47.02115" lon="8.9703">
        <ele>858</ele>
        <time>2021-08-02T10:37:19.800Z</time>
      </trkpt>
      <trkpt lat="47.02115" lon="8.97028">
        <ele>858</ele>
        <time>2021-08-02T10:37:20.799Z</time>
      </trkpt>
      <trkpt lat="47.02114" lon="8.97027">
        <ele>858</ele>
        <time>2021-08-02T10:37:21.800Z</time>
      </trkpt>
      <trkpt lat="47.02114" lon="8.97025">
        <ele>857</ele>
        <time>2021-08-02T10:37:22.800Z</time>
      </trkpt>
      <trkpt lat="47.02114" lon="8.97023">
        <ele>857</ele>
        <time>2021-08-02T10:37:23.800Z</time>
      </trkpt>
      <trkpt lat="47.02114" lon="8.97022">
        <ele>856</ele>
        <time>2021-08-02T10:37:24.799Z</time>
      </trkpt>
      <trkpt lat="47.02115" lon="8.9702">
        <ele>856</ele>
        <time>2021-08-02T10:37:25.800Z</time>
      </trkpt>
      <trkpt lat="47.02115" lon="8.97019">
        <ele>856</ele>
        <time>2021-08-02T10:37:26.800Z</time>
      </trkpt>
      <trkpt lat="47.02115" lon="8.97018">
        <ele>856</ele>
        <time>2021-08-02T10:37:27.800Z</time>
      </trkpt>
      <trkpt lat="47.02115" lon="8.97017">
        <ele>856</ele>
        <time>2021-08-02T10:37:28.800Z</time>
      </trkpt>
      <trkpt lat="47.02114" lon="8.97016">
        <ele>856</ele>
        <time>2021-08-02T10:37:29.799Z</time>
      </trkpt>
      <trkpt lat="47.02113" lon="8.97014">
        <ele>855</ele>
        <time>2021-08-02T10:37:30.800Z</time>
      </trkpt>
      <trkpt lat="47.02113" lon="8.97012">
        <ele>855</ele>
        <time>2021-08-02T10:37:31.800Z</time>
      </trkpt>
      <trkpt lat="47.02112" lon="8.9701">
        <ele>855</ele>
        <time>2021-08-02T10:37:32.799Z</time>
      </trkpt>
      <trkpt lat="47.02112" lon="8.97009">
        <ele>855</ele>
        <time>2021-08-02T10:37:33.800Z</time>
      </trkpt>
      <trkpt lat="47.02112" lon="8.97007">
        <ele>855</ele>
        <time>2021-08-02T10:37:34.800Z</time>
      </trkpt>
      <trkpt lat="47.02112" lon="8.97006">
        <ele>855</ele>
        <time>2021-08-02T10:37:35.800Z</time>
      </trkpt>
      <trkpt lat="47.02112" lon="8.97004">
        <ele>855</ele>
        <time>2021-08-02T10:37:36.800Z</time>
      </trkpt>
      <trkpt lat="47.02113" lon="8.97003">
        <ele>855</ele>
        <time>2021-08-02T10:37:37.800Z</time>
      </trkpt>
      <trkpt lat="47.02113" lon="8.97001">
        <ele>855</ele>
        <time>2021-08-02T10:37:38.799Z</time>
      </trkpt>
      <trkpt lat="47.02113" lon="8.96999">
        <ele>855</ele>
        <time>2021-08-02T10:37:39.800Z</time>
      </trkpt>
      <trkpt lat="47.02113" lon="8.96997">
        <ele>855</ele>
        <time>2021-08-02T10:37:40.799Z</time>
      </trkpt>
      <trkpt lat="47.02113" lon="8.96996">
        <ele>855</ele>
        <time>2021-08-02T10:37:41.800Z</time>
      </trkpt>
      <trkpt lat="47.02113" lon="8.96993">
        <ele>855</ele>
        <time>2021-08-02T10:37:42.800Z</time>
      </trkpt>
      <trkpt lat="47.02113" lon="8.96991">
        <ele>855</ele>
        <time>2021-08-02T10:37:43.799Z</time>
      </trkpt>
      <trkpt lat="47.02114" lon="8.96989">
        <ele>855</ele>
        <time>2021-08-02T10:37:44.800Z</time>
      </trkpt>
      <trkpt lat="47.02114" lon="8.96986">
        <ele>855</ele>
        <time>2021-08-02T10:37:45.800Z</time>
      </trkpt>
      <trkpt lat="47.02114" lon="8.96984">
        <ele>855</ele>
        <time>2021-08-02T10:37:46.799Z</time>
      </trkpt>
      <trkpt lat="47.02114" lon="8.96982">
        <ele>856</ele>
        <time>2021-08-02T10:37:47.800Z</time>
      </trkpt>
      <trkpt lat="47.02114" lon="8.96981">
        <ele>856</ele>
        <time>2021-08-02T10:37:48.799Z</time>
      </trkpt>
      <trkpt lat="47.02113" lon="8.96979">
        <ele>856</ele>
        <time>2021-08-02T10:37:49.800Z</time>
      </trkpt>
      <trkpt lat="47.02113" lon="8.96977">
        <ele>856</ele>
        <time>2021-08-02T10:37:50.800Z</time>
      </trkpt>
      <trkpt lat="47.02113" lon="8.96975">
        <ele>856</ele>
        <time>2021-08-02T10:37:51.799Z</time>
      </trkpt>
      <trkpt lat="47.02113" lon="8.96973">
        <ele>857</ele>
        <time>2021-08-02T10:37:52.800Z</time>
      </trkpt>
      <trkpt lat="47.02113" lon="8.96972">
        <ele>857</ele>
        <time>2021-08-02T10:37:53.799Z</time>
      </trkpt>
      <trkpt lat="47.02112" lon="8.9697">
        <ele>857</ele>
        <time>2021-08-02T10:38:00.907Z</time>
      </trkpt>
      <trkpt lat="47.02111" lon="8.96969">
        <ele>857</ele>
        <time>2021-08-02T10:38:01.907Z</time>
      </trkpt>
      <trkpt lat="47.02111" lon="8.96969">
        <ele>856</ele>
        <time>2021-08-02T10:38:02.906Z</time>
      </trkpt>
      <trkpt lat="47.0211" lon="8.96969">
        <ele>856</ele>
        <time>2021-08-02T10:38:06.977Z</time>
      </trkpt>
      <trkpt lat="47.0211" lon="8.96967">
        <ele>856</ele>
        <time>2021-08-02T10:38:07.976Z</time>
      </trkpt>
      <trkpt lat="47.0211" lon="8.96967">
        <ele>856</ele>
        <time>2021-08-02T10:38:13.818Z</time>
      </trkpt>
      <trkpt lat="47.02111" lon="8.96966">
        <ele>856</ele>
        <time>2021-08-02T10:38:14.817Z</time>
      </trkpt>
      <trkpt lat="47.02112" lon="8.96964">
        <ele>856</ele>
        <time>2021-08-02T10:38:20.680Z</time>
      </trkpt>
      <trkpt lat="47.02112" lon="8.96963">
        <ele>856</ele>
        <time>2021-08-02T10:38:37.543Z</time>
      </trkpt>
      <trkpt lat="47.02112" lon="8.96962">
        <ele>856</ele>
        <time>2021-08-02T10:38:38.542Z</time>
      </trkpt>
      <trkpt lat="47.02113" lon="8.96961">
        <ele>857</ele>
        <time>2021-08-02T10:38:39.543Z</time>
      </trkpt>
      <trkpt lat="47.02114" lon="8.9696">
        <ele>857</ele>
        <time>2021-08-02T10:38:40.543Z</time>
      </trkpt>
      <trkpt lat="47.02114" lon="8.96959">
        <ele>857</ele>
        <time>2021-08-02T10:38:41.543Z</time>
      </trkpt>
      <trkpt lat="47.02115" lon="8.96958">
        <ele>857</ele>
        <time>2021-08-02T10:38:42.543Z</time>
      </trkpt>
      <trkpt lat="47.02116" lon="8.96956">
        <ele>857</ele>
        <time>2021-08-02T10:38:43.543Z</time>
      </trkpt>
      <trkpt lat="47.02117" lon="8.96955">
        <ele>857</ele>
        <time>2021-08-02T10:38:44.542Z</time>
      </trkpt>
      <trkpt lat="47.02117" lon="8.96954">
        <ele>857</ele>
        <time>2021-08-02T10:38:45.542Z</time>
      </trkpt>
      <trkpt lat="47.02118" lon="8.96953">
        <ele>857</ele>
        <time>2021-08-02T10:38:46.543Z</time>
      </trkpt>
      <trkpt lat="47.02118" lon="8.96952">
        <ele>856</ele>
        <time>2021-08-02T10:38:47.542Z</time>
      </trkpt>
      <trkpt lat="47.02119" lon="8.96951">
        <ele>856</ele>
        <time>2021-08-02T10:38:48.543Z</time>
      </trkpt>
      <trkpt lat="47.02121" lon="8.9695">
        <ele>856</ele>
        <time>2021-08-02T10:38:49.543Z</time>
      </trkpt>
      <trkpt lat="47.02122" lon="8.96948">
        <ele>857</ele>
        <time>2021-08-02T10:38:50.543Z</time>
      </trkpt>
      <trkpt lat="47.02124" lon="8.96947">
        <ele>857</ele>
        <time>2021-08-02T10:38:51.542Z</time>
      </trkpt>
      <trkpt lat="47.02124" lon="8.96946">
        <ele>857</ele>
        <time>2021-08-02T10:38:52.542Z</time>
      </trkpt>
      <trkpt lat="47.02125" lon="8.96945">
        <ele>858</ele>
        <time>2021-08-02T10:38:53.542Z</time>
      </trkpt>
      <trkpt lat="47.02125" lon="8.96944">
        <ele>859</ele>
        <time>2021-08-02T10:38:54.543Z</time>
      </trkpt>
      <trkpt lat="47.02125" lon="8.96943">
        <ele>859</ele>
        <time>2021-08-02T10:38:55.542Z</time>
      </trkpt>
      <trkpt lat="47.02126" lon="8.96941">
        <ele>859</ele>
        <time>2021-08-02T10:38:56.543Z</time>
      </trkpt>
      <trkpt lat="47.02126" lon="8.96939">
        <ele>860</ele>
        <time>2021-08-02T10:38:57.542Z</time>
      </trkpt>
      <trkpt lat="47.02127" lon="8.96937">
        <ele>860</ele>
        <time>2021-08-02T10:38:58.542Z</time>
      </trkpt>
      <trkpt lat="47.02128" lon="8.96935">
        <ele>859</ele>
        <time>2021-08-02T10:38:59.542Z</time>
      </trkpt>
      <trkpt lat="47.02128" lon="8.96934">
        <ele>859</ele>
        <time>2021-08-02T10:39:00.542Z</time>
      </trkpt>
      <trkpt lat="47.02128" lon="8.96932">
        <ele>859</ele>
        <time>2021-08-02T10:39:01.542Z</time>
      </trkpt>
      <trkpt lat="47.02128" lon="8.9693">
        <ele>858</ele>
        <time>2021-08-02T10:39:02.543Z</time>
      </trkpt>
      <trkpt lat="47.02128" lon="8.96928">
        <ele>858</ele>
        <time>2021-08-02T10:39:03.542Z</time>
      </trkpt>
      <trkpt lat="47.02128" lon="8.96926">
        <ele>857</ele>
        <time>2021-08-02T10:39:04.542Z</time>
      </trkpt>
      <trkpt lat="47.02128" lon="8.96925">
        <ele>857</ele>
        <time>2021-08-02T10:39:05.542Z</time>
      </trkpt>
      <trkpt lat="47.02128" lon="8.96923">
        <ele>856</ele>
        <time>2021-08-02T10:39:06.543Z</time>
      </trkpt>
      <trkpt lat="47.02128" lon="8.9692">
        <ele>856</ele>
        <time>2021-08-02T10:39:07.542Z</time>
      </trkpt>
      <trkpt lat="47.02128" lon="8.96918">
        <ele>855</ele>
        <time>2021-08-02T10:39:08.542Z</time>
      </trkpt>
      <trkpt lat="47.02127" lon="8.96917">
        <ele>855</ele>
        <time>2021-08-02T10:39:09.542Z</time>
      </trkpt>
      <trkpt lat="47.02127" lon="8.96916">
        <ele>855</ele>
        <time>2021-08-02T10:39:10.542Z</time>
      </trkpt>
      <trkpt lat="47.02127" lon="8.96914">
        <ele>855</ele>
        <time>2021-08-02T10:39:11.542Z</time>
      </trkpt>
      <trkpt lat="47.02128" lon="8.96913">
        <ele>855</ele>
        <time>2021-08-02T10:39:12.542Z</time>
      </trkpt>
      <trkpt lat="47.02127" lon="8.96911">
        <ele>855</ele>
        <time>2021-08-02T10:39:13.542Z</time>
      </trkpt>
      <trkpt lat="47.02126" lon="8.96909">
        <ele>855</ele>
        <time>2021-08-02T10:39:14.542Z</time>
      </trkpt>
      <trkpt lat="47.02125" lon="8.96907">
        <ele>855</ele>
        <time>2021-08-02T10:39:15.542Z</time>
      </trkpt>
      <trkpt lat="47.02124" lon="8.96906">
        <ele>855</ele>
        <time>2021-08-02T10:39:16.542Z</time>
      </trkpt>
      <trkpt lat="47.02124" lon="8.96905">
        <ele>855</ele>
        <time>2021-08-02T10:39:17.542Z</time>
      </trkpt>
      <trkpt lat="47.02124" lon="8.96904">
        <ele>855</ele>
        <time>2021-08-02T10:39:18.543Z</time>
      </trkpt>
      <trkpt lat="47.02123" lon="8.96903">
        <ele>855</ele>
        <time>2021-08-02T10:39:19.543Z</time>
      </trkpt>
      <trkpt lat="47.02123" lon="8.96902">
        <ele>854</ele>
        <time>2021-08-02T10:39:20.542Z</time>
      </trkpt>
      <trkpt lat="47.02123" lon="8.96901">
        <ele>854</ele>
        <time>2021-08-02T10:39:21.543Z</time>
      </trkpt>
      <trkpt lat="47.02122" lon="8.969">
        <ele>855</ele>
        <time>2021-08-02T10:39:22.543Z</time>
      </trkpt>
      <trkpt lat="47.02121" lon="8.969">
        <ele>855</ele>
        <time>2021-08-02T10:39:23.543Z</time>
      </trkpt>
      <trkpt lat="47.02121" lon="8.96899">
        <ele>855</ele>
        <time>2021-08-02T10:39:24.543Z</time>
      </trkpt>
      <trkpt lat="47.02121" lon="8.96898">
        <ele>855</ele>
        <time>2021-08-02T10:39:25.543Z</time>
      </trkpt>
      <trkpt lat="47.02121" lon="8.96897">
        <ele>855</ele>
        <time>2021-08-02T10:39:26.543Z</time>
      </trkpt>
      <trkpt lat="47.02118" lon="8.96892">
        <ele>855</ele>
        <time>2021-08-02T10:39:27.543Z</time>
      </trkpt>
      <trkpt lat="47.02118" lon="8.9689">
        <ele>855</ele>
        <time>2021-08-02T10:39:28.543Z</time>
      </trkpt>
      <trkpt lat="47.02118" lon="8.96889">
        <ele>855</ele>
        <time>2021-08-02T10:39:29.542Z</time>
      </trkpt>
      <trkpt lat="47.02118" lon="8.96888">
        <ele>855</ele>
        <time>2021-08-02T10:39:30.542Z</time>
      </trkpt>
      <trkpt lat="47.02119" lon="8.96887">
        <ele>855</ele>
        <time>2021-08-02T10:39:31.542Z</time>
      </trkpt>
      <trkpt lat="47.02119" lon="8.96888">
        <ele>855</ele>
        <time>2021-08-02T10:39:32.543Z</time>
      </trkpt>
      <trkpt lat="47.02119" lon="8.9689">
        <ele>854</ele>
        <time>2021-08-02T10:39:33.542Z</time>
      </trkpt>
      <trkpt lat="47.02119" lon="8.96892">
        <ele>854</ele>
        <time>2021-08-02T10:39:34.542Z</time>
      </trkpt>
      <trkpt lat="47.02118" lon="8.96894">
        <ele>854</ele>
        <time>2021-08-02T10:39:35.543Z</time>
      </trkpt>
      <trkpt lat="47.02118" lon="8.96894">
        <ele>854</ele>
        <time>2021-08-02T10:39:36.543Z</time>
      </trkpt>
      <trkpt lat="47.02118" lon="8.96894">
        <ele>854</ele>
        <time>2021-08-02T10:39:37.542Z</time>
      </trkpt>
      <trkpt lat="47.02118" lon="8.96894">
        <ele>852</ele>
        <time>2021-08-02T10:39:38.544Z</time>
      </trkpt>
      <trkpt lat="47.02117" lon="8.96893">
        <ele>851</ele>
        <time>2021-08-02T10:39:39.543Z</time>
      </trkpt>
      <trkpt lat="47.02117" lon="8.96893">
        <ele>851</ele>
        <time>2021-08-02T10:39:40.543Z</time>
      </trkpt>
      <trkpt lat="47.02117" lon="8.96892">
        <ele>850</ele>
        <time>2021-08-02T10:39:41.544Z</time>
      </trkpt>
      <trkpt lat="47.02116" lon="8.96891">
        <ele>850</ele>
        <time>2021-08-02T10:39:42.543Z</time>
      </trkpt>
      <trkpt lat="47.02116" lon="8.9689">
        <ele>850</ele>
        <time>2021-08-02T10:39:43.543Z</time>
      </trkpt>
      <trkpt lat="47.02116" lon="8.96888">
        <ele>850</ele>
        <time>2021-08-02T10:39:44.543Z</time>
      </trkpt>
      <trkpt lat="47.02115" lon="8.96887">
        <ele>850</ele>
        <time>2021-08-02T10:39:45.543Z</time>
      </trkpt>
      <trkpt lat="47.02113" lon="8.96886">
        <ele>850</ele>
        <time>2021-08-02T10:39:46.543Z</time>
      </trkpt>
      <trkpt lat="47.02112" lon="8.96885">
        <ele>850</ele>
        <time>2021-08-02T10:39:47.543Z</time>
      </trkpt>
      <trkpt lat="47.02112" lon="8.96883">
        <ele>851</ele>
        <time>2021-08-02T10:39:48.543Z</time>
      </trkpt>
      <trkpt lat="47.02111" lon="8.96881">
        <ele>851</ele>
        <time>2021-08-02T10:39:49.543Z</time>
      </trkpt>
      <trkpt lat="47.02111" lon="8.96879">
        <ele>851</ele>
        <time>2021-08-02T10:39:50.543Z</time>
      </trkpt>
      <trkpt lat="47.0211" lon="8.96877">
        <ele>851</ele>
        <time>2021-08-02T10:39:51.543Z</time>
      </trkpt>
      <trkpt lat="47.0211" lon="8.96875">
        <ele>850</ele>
        <time>2021-08-02T10:39:52.543Z</time>
      </trkpt>
      <trkpt lat="47.02109" lon="8.96874">
        <ele>850</ele>
        <time>2021-08-02T10:39:53.543Z</time>
      </trkpt>
      <trkpt lat="47.02108" lon="8.96872">
        <ele>850</ele>
        <time>2021-08-02T10:39:54.543Z</time>
      </trkpt>
      <trkpt lat="47.02107" lon="8.96872">
        <ele>849</ele>
        <time>2021-08-02T10:39:55.543Z</time>
      </trkpt>
      <trkpt lat="47.02106" lon="8.9687">
        <ele>849</ele>
        <time>2021-08-02T10:39:56.543Z</time>
      </trkpt>
      <trkpt lat="47.02105" lon="8.96869">
        <ele>849</ele>
        <time>2021-08-02T10:39:57.543Z</time>
      </trkpt>
      <trkpt lat="47.02105" lon="8.96868">
        <ele>850</ele>
        <time>2021-08-02T10:39:58.543Z</time>
      </trkpt>
      <trkpt lat="47.02106" lon="8.96867">
        <ele>850</ele>
        <time>2021-08-02T10:39:59.543Z</time>
      </trkpt>
      <trkpt lat="47.02106" lon="8.96866">
        <ele>850</ele>
        <time>2021-08-02T10:40:00.543Z</time>
      </trkpt>
      <trkpt lat="47.02105" lon="8.96864">
        <ele>850</ele>
        <time>2021-08-02T10:40:01.543Z</time>
      </trkpt>
      <trkpt lat="47.02105" lon="8.96862">
        <ele>851</ele>
        <time>2021-08-02T10:40:02.543Z</time>
      </trkpt>
      <trkpt lat="47.02104" lon="8.96861">
        <ele>851</ele>
        <time>2021-08-02T10:40:03.543Z</time>
      </trkpt>
      <trkpt lat="47.02103" lon="8.96859">
        <ele>851</ele>
        <time>2021-08-02T10:40:04.543Z</time>
      </trkpt>
      <trkpt lat="47.02103" lon="8.96858">
        <ele>852</ele>
        <time>2021-08-02T10:40:05.543Z</time>
      </trkpt>
      <trkpt lat="47.02102" lon="8.96853">
        <ele>856</ele>
        <time>2021-08-02T10:40:06.543Z</time>
      </trkpt>
      <trkpt lat="47.02102" lon="8.96852">
        <ele>856</ele>
        <time>2021-08-02T10:40:07.544Z</time>
      </trkpt>
      <trkpt lat="47.02102" lon="8.96851">
        <ele>857</ele>
        <time>2021-08-02T10:40:08.543Z</time>
      </trkpt>
      <trkpt lat="47.02102" lon="8.9685">
        <ele>857</ele>
        <time>2021-08-02T10:40:09.544Z</time>
      </trkpt>
      <trkpt lat="47.02101" lon="8.96849">
        <ele>857</ele>
        <time>2021-08-02T10:40:10.543Z</time>
      </trkpt>
      <trkpt lat="47.021" lon="8.96848">
        <ele>858</ele>
        <time>2021-08-02T10:40:11.544Z</time>
      </trkpt>
      <trkpt lat="47.02099" lon="8.96847">
        <ele>858</ele>
        <time>2021-08-02T10:40:12.543Z</time>
      </trkpt>
      <trkpt lat="47.02098" lon="8.96846">
        <ele>859</ele>
        <time>2021-08-02T10:40:13.543Z</time>
      </trkpt>
      <trkpt lat="47.02097" lon="8.96844">
        <ele>859</ele>
        <time>2021-08-02T10:40:14.543Z</time>
      </trkpt>
      <trkpt lat="47.02098" lon="8.96842">
        <ele>860</ele>
        <time>2021-08-02T10:40:15.544Z</time>
      </trkpt>
      <trkpt lat="47.02098" lon="8.9684">
        <ele>861</ele>
        <time>2021-08-02T10:40:16.543Z</time>
      </trkpt>
      <trkpt lat="47.02098" lon="8.96839">
        <ele>861</ele>
        <time>2021-08-02T10:40:17.543Z</time>
      </trkpt>
      <trkpt lat="47.02097" lon="8.96837">
        <ele>862</ele>
        <time>2021-08-02T10:40:18.544Z</time>
      </trkpt>
      <trkpt lat="47.02097" lon="8.96835">
        <ele>862</ele>
        <time>2021-08-02T10:40:20.652Z</time>
      </trkpt>
      <trkpt lat="47.02097" lon="8.96834">
        <ele>862</ele>
        <time>2021-08-02T10:40:21.653Z</time>
      </trkpt>
      <trkpt lat="47.02097" lon="8.96833">
        <ele>863</ele>
        <time>2021-08-02T10:40:22.652Z</time>
      </trkpt>
      <trkpt lat="47.02096" lon="8.96831">
        <ele>863</ele>
        <time>2021-08-02T10:40:23.653Z</time>
      </trkpt>
      <trkpt lat="47.02096" lon="8.96829">
        <ele>863</ele>
        <time>2021-08-02T10:40:24.652Z</time>
      </trkpt>
      <trkpt lat="47.02096" lon="8.96828">
        <ele>863</ele>
        <time>2021-08-02T10:40:25.653Z</time>
      </trkpt>
      <trkpt lat="47.02095" lon="8.96826">
        <ele>863</ele>
        <time>2021-08-02T10:40:26.653Z</time>
      </trkpt>
      <trkpt lat="47.02094" lon="8.96825">
        <ele>863</ele>
        <time>2021-08-02T10:40:27.652Z</time>
      </trkpt>
      <trkpt lat="47.02093" lon="8.96824">
        <ele>863</ele>
        <time>2021-08-02T10:40:28.653Z</time>
      </trkpt>
      <trkpt lat="47.02093" lon="8.96822">
        <ele>863</ele>
        <time>2021-08-02T10:40:29.653Z</time>
      </trkpt>
      <trkpt lat="47.02093" lon="8.96821">
        <ele>863</ele>
        <time>2021-08-02T10:40:32.637Z</time>
      </trkpt>
      <trkpt lat="47.02093" lon="8.96821">
        <ele>864</ele>
        <time>2021-08-02T10:40:33.638Z</time>
      </trkpt>
      <trkpt lat="47.02093" lon="8.96821">
        <ele>864</ele>
        <time>2021-08-02T10:40:34.638Z</time>
      </trkpt>
      <trkpt lat="47.02093" lon="8.9682">
        <ele>863</ele>
        <time>2021-08-02T10:40:35.637Z</time>
      </trkpt>
      <trkpt lat="47.02093" lon="8.96819">
        <ele>863</ele>
        <time>2021-08-02T10:40:36.638Z</time>
      </trkpt>
      <trkpt lat="47.02093" lon="8.96818">
        <ele>863</ele>
        <time>2021-08-02T10:40:37.638Z</time>
      </trkpt>
      <trkpt lat="47.02093" lon="8.96816">
        <ele>863</ele>
        <time>2021-08-02T10:40:38.638Z</time>
      </trkpt>
      <trkpt lat="47.02092" lon="8.96815">
        <ele>863</ele>
        <time>2021-08-02T10:40:39.638Z</time>
      </trkpt>
      <trkpt lat="47.02092" lon="8.96814">
        <ele>863</ele>
        <time>2021-08-02T10:40:40.638Z</time>
      </trkpt>
      <trkpt lat="47.02091" lon="8.96813">
        <ele>863</ele>
        <time>2021-08-02T10:40:41.638Z</time>
      </trkpt>
      <trkpt lat="47.02091" lon="8.96812">
        <ele>863</ele>
        <time>2021-08-02T10:40:42.638Z</time>
      </trkpt>
      <trkpt lat="47.02091" lon="8.96812">
        <ele>863</ele>
        <time>2021-08-02T10:40:43.638Z</time>
      </trkpt>
      <trkpt lat="47.0209" lon="8.96811">
        <ele>864</ele>
        <time>2021-08-02T10:40:44.637Z</time>
      </trkpt>
      <trkpt lat="47.0209" lon="8.9681">
        <ele>864</ele>
        <time>2021-08-02T10:40:45.638Z</time>
      </trkpt>
      <trkpt lat="47.02089" lon="8.96808">
        <ele>865</ele>
        <time>2021-08-02T10:40:46.637Z</time>
      </trkpt>
      <trkpt lat="47.02088" lon="8.96806">
        <ele>865</ele>
        <time>2021-08-02T10:40:47.638Z</time>
      </trkpt>
      <trkpt lat="47.02088" lon="8.96805">
        <ele>865</ele>
        <time>2021-08-02T10:40:48.638Z</time>
      </trkpt>
      <trkpt lat="47.02088" lon="8.96803">
        <ele>865</ele>
        <time>2021-08-02T10:40:49.637Z</time>
      </trkpt>
      <trkpt lat="47.02087" lon="8.96801">
        <ele>865</ele>
        <time>2021-08-02T10:40:50.638Z</time>
      </trkpt>
      <trkpt lat="47.02086" lon="8.968">
        <ele>866</ele>
        <time>2021-08-02T10:40:51.637Z</time>
      </trkpt>
      <trkpt lat="47.02085" lon="8.96798">
        <ele>866</ele>
        <time>2021-08-02T10:40:52.638Z</time>
      </trkpt>
      <trkpt lat="47.02084" lon="8.96797">
        <ele>866</ele>
        <time>2021-08-02T10:40:53.637Z</time>
      </trkpt>
      <trkpt lat="47.02083" lon="8.96795">
        <ele>866</ele>
        <time>2021-08-02T10:40:54.638Z</time>
      </trkpt>
      <trkpt lat="47.02082" lon="8.96793">
        <ele>866</ele>
        <time>2021-08-02T10:40:55.637Z</time>
      </trkpt>
      <trkpt lat="47.02081" lon="8.96791">
        <ele>866</ele>
        <time>2021-08-02T10:40:56.637Z</time>
      </trkpt>
      <trkpt lat="47.02081" lon="8.96788">
        <ele>866</ele>
        <time>2021-08-02T10:40:57.638Z</time>
      </trkpt>
      <trkpt lat="47.02079" lon="8.96787">
        <ele>866</ele>
        <time>2021-08-02T10:40:58.638Z</time>
      </trkpt>
      <trkpt lat="47.02078" lon="8.96786">
        <ele>866</ele>
        <time>2021-08-02T10:40:59.638Z</time>
      </trkpt>
      <trkpt lat="47.02077" lon="8.96785">
        <ele>867</ele>
        <time>2021-08-02T10:41:00.638Z</time>
      </trkpt>
      <trkpt lat="47.02076" lon="8.96784">
        <ele>867</ele>
        <time>2021-08-02T10:41:01.638Z</time>
      </trkpt>
      <trkpt lat="47.02076" lon="8.96783">
        <ele>867</ele>
        <time>2021-08-02T10:41:02.637Z</time>
      </trkpt>
      <trkpt lat="47.02076" lon="8.96782">
        <ele>867</ele>
        <time>2021-08-02T10:41:03.638Z</time>
      </trkpt>
      <trkpt lat="47.02076" lon="8.9678">
        <ele>867</ele>
        <time>2021-08-02T10:41:04.638Z</time>
      </trkpt>
      <trkpt lat="47.02076" lon="8.96777">
        <ele>867</ele>
        <time>2021-08-02T10:41:05.638Z</time>
      </trkpt>
      <trkpt lat="47.02075" lon="8.96774">
        <ele>867</ele>
        <time>2021-08-02T10:41:06.637Z</time>
      </trkpt>
      <trkpt lat="47.02075" lon="8.96771">
        <ele>867</ele>
        <time>2021-08-02T10:41:07.638Z</time>
      </trkpt>
      <trkpt lat="47.02075" lon="8.96769">
        <ele>867</ele>
        <time>2021-08-02T10:41:08.638Z</time>
      </trkpt>
      <trkpt lat="47.02075" lon="8.96767">
        <ele>867</ele>
        <time>2021-08-02T10:41:09.637Z</time>
      </trkpt>
      <trkpt lat="47.02075" lon="8.96765">
        <ele>868</ele>
        <time>2021-08-02T10:41:10.638Z</time>
      </trkpt>
      <trkpt lat="47.02075" lon="8.96764">
        <ele>868</ele>
        <time>2021-08-02T10:41:11.638Z</time>
      </trkpt>
      <trkpt lat="47.02075" lon="8.96763">
        <ele>868</ele>
        <time>2021-08-02T10:41:12.637Z</time>
      </trkpt>
      <trkpt lat="47.02075" lon="8.96762">
        <ele>868</ele>
        <time>2021-08-02T10:41:13.637Z</time>
      </trkpt>
      <trkpt lat="47.02074" lon="8.9676">
        <ele>868</ele>
        <time>2021-08-02T10:41:14.638Z</time>
      </trkpt>
      <trkpt lat="47.02073" lon="8.96758">
        <ele>868</ele>
        <time>2021-08-02T10:41:15.638Z</time>
      </trkpt>
      <trkpt lat="47.02072" lon="8.96757">
        <ele>868</ele>
        <time>2021-08-02T10:41:16.637Z</time>
      </trkpt>
      <trkpt lat="47.02072" lon="8.96755">
        <ele>868</ele>
        <time>2021-08-02T10:41:17.638Z</time>
      </trkpt>
      <trkpt lat="47.02072" lon="8.96754">
        <ele>867</ele>
        <time>2021-08-02T10:41:18.637Z</time>
      </trkpt>
      <trkpt lat="47.02072" lon="8.96753">
        <ele>866</ele>
        <time>2021-08-02T10:41:19.638Z</time>
      </trkpt>
      <trkpt lat="47.02071" lon="8.96752">
        <ele>866</ele>
        <time>2021-08-02T10:41:20.638Z</time>
      </trkpt>
      <trkpt lat="47.02071" lon="8.96751">
        <ele>866</ele>
        <time>2021-08-02T10:41:21.637Z</time>
      </trkpt>
      <trkpt lat="47.0207" lon="8.9675">
        <ele>865</ele>
        <time>2021-08-02T10:41:22.638Z</time>
      </trkpt>
      <trkpt lat="47.02069" lon="8.9675">
        <ele>865</ele>
        <time>2021-08-02T10:41:23.638Z</time>
      </trkpt>
      <trkpt lat="47.02068" lon="8.96749">
        <ele>864</ele>
        <time>2021-08-02T10:41:24.637Z</time>
      </trkpt>
      <trkpt lat="47.02067" lon="8.96748">
        <ele>863</ele>
        <time>2021-08-02T10:41:25.638Z</time>
      </trkpt>
      <trkpt lat="47.02067" lon="8.96748">
        <ele>862</ele>
        <time>2021-08-02T10:41:26.638Z</time>
      </trkpt>
      <trkpt lat="47.02067" lon="8.96746">
        <ele>862</ele>
        <time>2021-08-02T10:41:27.638Z</time>
      </trkpt>
      <trkpt lat="47.02067" lon="8.96745">
        <ele>861</ele>
        <time>2021-08-02T10:41:28.638Z</time>
      </trkpt>
      <trkpt lat="47.02067" lon="8.96744">
        <ele>860</ele>
        <time>2021-08-02T10:41:29.637Z</time>
      </trkpt>
      <trkpt lat="47.02066" lon="8.96743">
        <ele>860</ele>
        <time>2021-08-02T10:41:30.638Z</time>
      </trkpt>
      <trkpt lat="47.02066" lon="8.96741">
        <ele>860</ele>
        <time>2021-08-02T10:41:31.638Z</time>
      </trkpt>
      <trkpt lat="47.02065" lon="8.9674">
        <ele>860</ele>
        <time>2021-08-02T10:41:32.637Z</time>
      </trkpt>
      <trkpt lat="47.02065" lon="8.96738">
        <ele>860</ele>
        <time>2021-08-02T10:41:33.638Z</time>
      </trkpt>
      <trkpt lat="47.02064" lon="8.96737">
        <ele>860</ele>
        <time>2021-08-02T10:41:34.637Z</time>
      </trkpt>
      <trkpt lat="47.02063" lon="8.96736">
        <ele>860</ele>
        <time>2021-08-02T10:41:35.638Z</time>
      </trkpt>
      <trkpt lat="47.02062" lon="8.96734">
        <ele>860</ele>
        <time>2021-08-02T10:41:36.638Z</time>
      </trkpt>
      <trkpt lat="47.02061" lon="8.96733">
        <ele>860</ele>
        <time>2021-08-02T10:41:37.638Z</time>
      </trkpt>
      <trkpt lat="47.02059" lon="8.96731">
        <ele>860</ele>
        <time>2021-08-02T10:41:38.637Z</time>
      </trkpt>
      <trkpt lat="47.02057" lon="8.9673">
        <ele>860</ele>
        <time>2021-08-02T10:41:39.637Z</time>
      </trkpt>
      <trkpt lat="47.02056" lon="8.96729">
        <ele>860</ele>
        <time>2021-08-02T10:41:40.638Z</time>
      </trkpt>
      <trkpt lat="47.02056" lon="8.96728">
        <ele>860</ele>
        <time>2021-08-02T10:41:41.637Z</time>
      </trkpt>
      <trkpt lat="47.02056" lon="8.96728">
        <ele>860</ele>
        <time>2021-08-02T10:41:42.637Z</time>
      </trkpt>
      <trkpt lat="47.02055" lon="8.96726">
        <ele>860</ele>
        <time>2021-08-02T10:41:43.637Z</time>
      </trkpt>
      <trkpt lat="47.02054" lon="8.96725">
        <ele>860</ele>
        <time>2021-08-02T10:41:44.637Z</time>
      </trkpt>
      <trkpt lat="47.02053" lon="8.96724">
        <ele>860</ele>
        <time>2021-08-02T10:41:45.638Z</time>
      </trkpt>
      <trkpt lat="47.02053" lon="8.96723">
        <ele>860</ele>
        <time>2021-08-02T10:41:46.638Z</time>
      </trkpt>
      <trkpt lat="47.02052" lon="8.96722">
        <ele>860</ele>
        <time>2021-08-02T10:41:47.637Z</time>
      </trkpt>
      <trkpt lat="47.02051" lon="8.96721">
        <ele>860</ele>
        <time>2021-08-02T10:41:48.638Z</time>
      </trkpt>
      <trkpt lat="47.0205" lon="8.9672">
        <ele>860</ele>
        <time>2021-08-02T10:41:49.638Z</time>
      </trkpt>
      <trkpt lat="47.02049" lon="8.96719">
        <ele>861</ele>
        <time>2021-08-02T10:41:50.637Z</time>
      </trkpt>
      <trkpt lat="47.02048" lon="8.96718">
        <ele>861</ele>
        <time>2021-08-02T10:41:51.638Z</time>
      </trkpt>
      <trkpt lat="47.02048" lon="8.96717">
        <ele>861</ele>
        <time>2021-08-02T10:41:52.638Z</time>
      </trkpt>
      <trkpt lat="47.02047" lon="8.96716">
        <ele>862</ele>
        <time>2021-08-02T10:41:53.637Z</time>
      </trkpt>
      <trkpt lat="47.02047" lon="8.96715">
        <ele>862</ele>
        <time>2021-08-02T10:41:54.637Z</time>
      </trkpt>
      <trkpt lat="47.02046" lon="8.96713">
        <ele>863</ele>
        <time>2021-08-02T10:41:55.638Z</time>
      </trkpt>
      <trkpt lat="47.02045" lon="8.96711">
        <ele>863</ele>
        <time>2021-08-02T10:41:56.638Z</time>
      </trkpt>
      <trkpt lat="47.02045" lon="8.96709">
        <ele>864</ele>
        <time>2021-08-02T10:41:57.638Z</time>
      </trkpt>
      <trkpt lat="47.02044" lon="8.96708">
        <ele>865</ele>
        <time>2021-08-02T10:41:58.637Z</time>
      </trkpt>
      <trkpt lat="47.02043" lon="8.96707">
        <ele>865</ele>
        <time>2021-08-02T10:41:59.638Z</time>
      </trkpt>
      <trkpt lat="47.02042" lon="8.96706">
        <ele>865</ele>
        <time>2021-08-02T10:42:00.638Z</time>
      </trkpt>
      <trkpt lat="47.02041" lon="8.96706">
        <ele>866</ele>
        <time>2021-08-02T10:42:05.659Z</time>
      </trkpt>
      <trkpt lat="47.0204" lon="8.96704">
        <ele>867</ele>
        <time>2021-08-02T10:42:08.390Z</time>
      </trkpt>
      <trkpt lat="47.02039" lon="8.96703">
        <ele>867</ele>
        <time>2021-08-02T10:42:17.184Z</time>
      </trkpt>
      <trkpt lat="47.02038" lon="8.96701">
        <ele>868</ele>
        <time>2021-08-02T10:42:18.184Z</time>
      </trkpt>
      <trkpt lat="47.02036" lon="8.96698">
        <ele>868</ele>
        <time>2021-08-02T10:42:19.185Z</time>
      </trkpt>
      <trkpt lat="47.02035" lon="8.96695">
        <ele>868</ele>
        <time>2021-08-02T10:42:20.185Z</time>
      </trkpt>
      <trkpt lat="47.02034" lon="8.96692">
        <ele>868</ele>
        <time>2021-08-02T10:42:35.322Z</time>
      </trkpt>
      <trkpt lat="47.02033" lon="8.9669">
        <ele>869</ele>
        <time>2021-08-02T10:42:36.322Z</time>
      </trkpt>
      <trkpt lat="47.02032" lon="8.96689">
        <ele>869</ele>
        <time>2021-08-02T10:42:37.322Z</time>
      </trkpt>
      <trkpt lat="47.02032" lon="8.96688">
        <ele>869</ele>
        <time>2021-08-02T10:42:38.322Z</time>
      </trkpt>
      <trkpt lat="47.02031" lon="8.96687">
        <ele>870</ele>
        <time>2021-08-02T10:42:39.322Z</time>
      </trkpt>
      <trkpt lat="47.0203" lon="8.96686">
        <ele>870</ele>
        <time>2021-08-02T10:42:40.321Z</time>
      </trkpt>
      <trkpt lat="47.02029" lon="8.96685">
        <ele>870</ele>
        <time>2021-08-02T10:42:41.321Z</time>
      </trkpt>
      <trkpt lat="47.02028" lon="8.96685">
        <ele>870</ele>
        <time>2021-08-02T10:42:42.321Z</time>
      </trkpt>
      <trkpt lat="47.02027" lon="8.96684">
        <ele>869</ele>
        <time>2021-08-02T10:42:43.321Z</time>
      </trkpt>
      <trkpt lat="47.02027" lon="8.96683">
        <ele>869</ele>
        <time>2021-08-02T10:42:44.322Z</time>
      </trkpt>
      <trkpt lat="47.02025" lon="8.96683">
        <ele>869</ele>
        <time>2021-08-02T10:42:46.420Z</time>
      </trkpt>
      <trkpt lat="47.02025" lon="8.96682">
        <ele>869</ele>
        <time>2021-08-02T10:42:47.420Z</time>
      </trkpt>
      <trkpt lat="47.02024" lon="8.96682">
        <ele>868</ele>
        <time>2021-08-02T10:42:48.420Z</time>
      </trkpt>
      <trkpt lat="47.02024" lon="8.96681">
        <ele>868</ele>
        <time>2021-08-02T10:42:49.419Z</time>
      </trkpt>
      <trkpt lat="47.02023" lon="8.96681">
        <ele>867</ele>
        <time>2021-08-02T10:42:50.419Z</time>
      </trkpt>
      <trkpt lat="47.02022" lon="8.96681">
        <ele>867</ele>
        <time>2021-08-02T10:42:51.420Z</time>
      </trkpt>
      <trkpt lat="47.02021" lon="8.96681">
        <ele>867</ele>
        <time>2021-08-02T10:42:52.420Z</time>
      </trkpt>
      <trkpt lat="47.0202" lon="8.9668">
        <ele>866</ele>
        <time>2021-08-02T10:43:26.549Z</time>
      </trkpt>
      <trkpt lat="47.02018" lon="8.96679">
        <ele>866</ele>
        <time>2021-08-02T10:43:27.549Z</time>
      </trkpt>
      <trkpt lat="47.02016" lon="8.96677">
        <ele>866</ele>
        <time>2021-08-02T10:43:29.413Z</time>
      </trkpt>
      <trkpt lat="47.02014" lon="8.96675">
        <ele>866</ele>
        <time>2021-08-02T10:43:30.413Z</time>
      </trkpt>
      <trkpt lat="47.02013" lon="8.96674">
        <ele>865</ele>
        <time>2021-08-02T10:43:31.413Z</time>
      </trkpt>
      <trkpt lat="47.02012" lon="8.96673">
        <ele>865</ele>
        <time>2021-08-02T10:43:32.412Z</time>
      </trkpt>
      <trkpt lat="47.02011" lon="8.96672">
        <ele>865</ele>
        <time>2021-08-02T10:43:33.412Z</time>
      </trkpt>
      <trkpt lat="47.0201" lon="8.96671">
        <ele>864</ele>
        <time>2021-08-02T10:43:34.413Z</time>
      </trkpt>
      <trkpt lat="47.02009" lon="8.9667">
        <ele>864</ele>
        <time>2021-08-02T10:43:35.413Z</time>
      </trkpt>
      <trkpt lat="47.02008" lon="8.96669">
        <ele>863</ele>
        <time>2021-08-02T10:43:36.413Z</time>
      </trkpt>
      <trkpt lat="47.02007" lon="8.96669">
        <ele>863</ele>
        <time>2021-08-02T10:43:37.413Z</time>
      </trkpt>
      <trkpt lat="47.02006" lon="8.96669">
        <ele>862</ele>
        <time>2021-08-02T10:43:38.412Z</time>
      </trkpt>
      <trkpt lat="47.02006" lon="8.96668">
        <ele>862</ele>
        <time>2021-08-02T10:43:39.413Z</time>
      </trkpt>
      <trkpt lat="47.02005" lon="8.96668">
        <ele>861</ele>
        <time>2021-08-02T10:43:40.413Z</time>
      </trkpt>
      <trkpt lat="47.02004" lon="8.96668">
        <ele>861</ele>
        <time>2021-08-02T10:43:41.413Z</time>
      </trkpt>
      <trkpt lat="47.02004" lon="8.96668">
        <ele>861</ele>
        <time>2021-08-02T10:43:42.413Z</time>
      </trkpt>
      <trkpt lat="47.02004" lon="8.96667">
        <ele>861</ele>
        <time>2021-08-02T10:43:43.412Z</time>
      </trkpt>
      <trkpt lat="47.02004" lon="8.96666">
        <ele>861</ele>
        <time>2021-08-02T10:43:44.413Z</time>
      </trkpt>
      <trkpt lat="47.02004" lon="8.96665">
        <ele>860</ele>
        <time>2021-08-02T10:43:45.412Z</time>
      </trkpt>
      <trkpt lat="47.02003" lon="8.96664">
        <ele>860</ele>
        <time>2021-08-02T10:43:46.413Z</time>
      </trkpt>
      <trkpt lat="47.02002" lon="8.96663">
        <ele>860</ele>
        <time>2021-08-02T10:43:47.413Z</time>
      </trkpt>
      <trkpt lat="47.02002" lon="8.96662">
        <ele>861</ele>
        <time>2021-08-02T10:43:48.413Z</time>
      </trkpt>
      <trkpt lat="47.02001" lon="8.9666">
        <ele>861</ele>
        <time>2021-08-02T10:43:49.412Z</time>
      </trkpt>
      <trkpt lat="47.02001" lon="8.96659">
        <ele>861</ele>
        <time>2021-08-02T10:43:50.412Z</time>
      </trkpt>
      <trkpt lat="47.02001" lon="8.96658">
        <ele>862</ele>
        <time>2021-08-02T10:43:51.412Z</time>
      </trkpt>
      <trkpt lat="47.02001" lon="8.96657">
        <ele>863</ele>
        <time>2021-08-02T10:43:52.412Z</time>
      </trkpt>
      <trkpt lat="47.02" lon="8.96656">
        <ele>863</ele>
        <time>2021-08-02T10:43:53.412Z</time>
      </trkpt>
      <trkpt lat="47.02" lon="8.96654">
        <ele>864</ele>
        <time>2021-08-02T10:43:54.413Z</time>
      </trkpt>
      <trkpt lat="47.01999" lon="8.96654">
        <ele>864</ele>
        <time>2021-08-02T10:43:55.412Z</time>
      </trkpt>
      <trkpt lat="47.01998" lon="8.96653">
        <ele>864</ele>
        <time>2021-08-02T10:43:56.413Z</time>
      </trkpt>
      <trkpt lat="47.01997" lon="8.96652">
        <ele>865</ele>
        <time>2021-08-02T10:43:57.413Z</time>
      </trkpt>
      <trkpt lat="47.01996" lon="8.96651">
        <ele>865</ele>
        <time>2021-08-02T10:43:58.413Z</time>
      </trkpt>
      <trkpt lat="47.01994" lon="8.9665">
        <ele>865</ele>
        <time>2021-08-02T10:43:59.412Z</time>
      </trkpt>
      <trkpt lat="47.01994" lon="8.96649">
        <ele>866</ele>
        <time>2021-08-02T10:44:00.413Z</time>
      </trkpt>
      <trkpt lat="47.01993" lon="8.96647">
        <ele>866</ele>
        <time>2021-08-02T10:44:01.412Z</time>
      </trkpt>
      <trkpt lat="47.01992" lon="8.96647">
        <ele>867</ele>
        <time>2021-08-02T10:44:02.413Z</time>
      </trkpt>
      <trkpt lat="47.0199" lon="8.96646">
        <ele>867</ele>
        <time>2021-08-02T10:44:03.413Z</time>
      </trkpt>
      <trkpt lat="47.01989" lon="8.96646">
        <ele>867</ele>
        <time>2021-08-02T10:44:04.413Z</time>
      </trkpt>
      <trkpt lat="47.01988" lon="8.96646">
        <ele>868</ele>
        <time>2021-08-02T10:44:05.413Z</time>
      </trkpt>
      <trkpt lat="47.01987" lon="8.96646">
        <ele>868</ele>
        <time>2021-08-02T10:44:06.413Z</time>
      </trkpt>
      <trkpt lat="47.01986" lon="8.96646">
        <ele>868</ele>
        <time>2021-08-02T10:44:07.413Z</time>
      </trkpt>
      <trkpt lat="47.01986" lon="8.96645">
        <ele>868</ele>
        <time>2021-08-02T10:44:08.413Z</time>
      </trkpt>
      <trkpt lat="47.01985" lon="8.96644">
        <ele>868</ele>
        <time>2021-08-02T10:44:09.413Z</time>
      </trkpt>
      <trkpt lat="47.01984" lon="8.96643">
        <ele>868</ele>
        <time>2021-08-02T10:44:10.413Z</time>
      </trkpt>
      <trkpt lat="47.01983" lon="8.96643">
        <ele>868</ele>
        <time>2021-08-02T10:44:11.413Z</time>
      </trkpt>
      <trkpt lat="47.01982" lon="8.96642">
        <ele>868</ele>
        <time>2021-08-02T10:44:12.413Z</time>
      </trkpt>
      <trkpt lat="47.0198" lon="8.96641">
        <ele>868</ele>
        <time>2021-08-02T10:44:13.413Z</time>
      </trkpt>
      <trkpt lat="47.01978" lon="8.96641">
        <ele>868</ele>
        <time>2021-08-02T10:44:14.413Z</time>
      </trkpt>
      <trkpt lat="47.01977" lon="8.96639">
        <ele>868</ele>
        <time>2021-08-02T10:44:15.413Z</time>
      </trkpt>
      <trkpt lat="47.01976" lon="8.96639">
        <ele>867</ele>
        <time>2021-08-02T10:44:16.413Z</time>
      </trkpt>
      <trkpt lat="47.01975" lon="8.96638">
        <ele>867</ele>
        <time>2021-08-02T10:44:17.413Z</time>
      </trkpt>
      <trkpt lat="47.01974" lon="8.96638">
        <ele>867</ele>
        <time>2021-08-02T10:44:18.413Z</time>
      </trkpt>
      <trkpt lat="47.01974" lon="8.96637">
        <ele>867</ele>
        <time>2021-08-02T10:44:19.413Z</time>
      </trkpt>
      <trkpt lat="47.01973" lon="8.96638">
        <ele>867</ele>
        <time>2021-08-02T10:44:20.413Z</time>
      </trkpt>
      <trkpt lat="47.01973" lon="8.96638">
        <ele>867</ele>
        <time>2021-08-02T10:44:21.413Z</time>
      </trkpt>
      <trkpt lat="47.01973" lon="8.96638">
        <ele>867</ele>
        <time>2021-08-02T10:44:22.412Z</time>
      </trkpt>
      <trkpt lat="47.01973" lon="8.96638">
        <ele>867</ele>
        <time>2021-08-02T10:44:23.412Z</time>
      </trkpt>
      <trkpt lat="47.01972" lon="8.96639">
        <ele>867</ele>
        <time>2021-08-02T10:44:24.412Z</time>
      </trkpt>
      <trkpt lat="47.01971" lon="8.9664">
        <ele>867</ele>
        <time>2021-08-02T10:44:25.412Z</time>
      </trkpt>
      <trkpt lat="47.01971" lon="8.9664">
        <ele>867</ele>
        <time>2021-08-02T10:44:26.412Z</time>
      </trkpt>
      <trkpt lat="47.0197" lon="8.96641">
        <ele>867</ele>
        <time>2021-08-02T10:44:27.412Z</time>
      </trkpt>
      <trkpt lat="47.01969" lon="8.96641">
        <ele>863</ele>
        <time>2021-08-02T10:44:28.413Z</time>
      </trkpt>
      <trkpt lat="47.01969" lon="8.96641">
        <ele>863</ele>
        <time>2021-08-02T10:44:29.412Z</time>
      </trkpt>
      <trkpt lat="47.01969" lon="8.9664">
        <ele>862</ele>
        <time>2021-08-02T10:44:30.412Z</time>
      </trkpt>
      <trkpt lat="47.01969" lon="8.9664">
        <ele>861</ele>
        <time>2021-08-02T10:44:31.412Z</time>
      </trkpt>
      <trkpt lat="47.01968" lon="8.9664">
        <ele>861</ele>
        <time>2021-08-02T10:44:32.413Z</time>
      </trkpt>
      <trkpt lat="47.01968" lon="8.96639">
        <ele>860</ele>
        <time>2021-08-02T10:44:33.413Z</time>
      </trkpt>
      <trkpt lat="47.01967" lon="8.96639">
        <ele>860</ele>
        <time>2021-08-02T10:44:34.412Z</time>
      </trkpt>
      <trkpt lat="47.01966" lon="8.96638">
        <ele>859</ele>
        <time>2021-08-02T10:44:35.413Z</time>
      </trkpt>
      <trkpt lat="47.01966" lon="8.96638">
        <ele>859</ele>
        <time>2021-08-02T10:44:36.413Z</time>
      </trkpt>
      <trkpt lat="47.01965" lon="8.96638">
        <ele>858</ele>
        <time>2021-08-02T10:44:37.413Z</time>
      </trkpt>
      <trkpt lat="47.01964" lon="8.96637">
        <ele>858</ele>
        <time>2021-08-02T10:44:38.413Z</time>
      </trkpt>
      <trkpt lat="47.01963" lon="8.96637">
        <ele>858</ele>
        <time>2021-08-02T10:44:39.413Z</time>
      </trkpt>
      <trkpt lat="47.01963" lon="8.96637">
        <ele>858</ele>
        <time>2021-08-02T10:44:40.413Z</time>
      </trkpt>
      <trkpt lat="47.01962" lon="8.96637">
        <ele>858</ele>
        <time>2021-08-02T10:44:41.412Z</time>
      </trkpt>
      <trkpt lat="47.01962" lon="8.96636">
        <ele>858</ele>
        <time>2021-08-02T10:44:42.413Z</time>
      </trkpt>
      <trkpt lat="47.01961" lon="8.96635">
        <ele>859</ele>
        <time>2021-08-02T10:44:43.413Z</time>
      </trkpt>
      <trkpt lat="47.01961" lon="8.96635">
        <ele>859</ele>
        <time>2021-08-02T10:44:44.413Z</time>
      </trkpt>
      <trkpt lat="47.0196" lon="8.96634">
        <ele>859</ele>
        <time>2021-08-02T10:44:45.412Z</time>
      </trkpt>
      <trkpt lat="47.01959" lon="8.96633">
        <ele>860</ele>
        <time>2021-08-02T10:44:46.412Z</time>
      </trkpt>
      <trkpt lat="47.01957" lon="8.96632">
        <ele>860</ele>
        <time>2021-08-02T10:44:47.413Z</time>
      </trkpt>
      <trkpt lat="47.01956" lon="8.96631">
        <ele>860</ele>
        <time>2021-08-02T10:44:48.413Z</time>
      </trkpt>
      <trkpt lat="47.01955" lon="8.96631">
        <ele>860</ele>
        <time>2021-08-02T10:44:49.413Z</time>
      </trkpt>
      <trkpt lat="47.01953" lon="8.96631">
        <ele>861</ele>
        <time>2021-08-02T10:44:50.412Z</time>
      </trkpt>
      <trkpt lat="47.01951" lon="8.9663">
        <ele>861</ele>
        <time>2021-08-02T10:44:51.413Z</time>
      </trkpt>
      <trkpt lat="47.0195" lon="8.9663">
        <ele>861</ele>
        <time>2021-08-02T10:44:52.413Z</time>
      </trkpt>
      <trkpt lat="47.01949" lon="8.96629">
        <ele>862</ele>
        <time>2021-08-02T10:44:53.413Z</time>
      </trkpt>
      <trkpt lat="47.01948" lon="8.96627">
        <ele>862</ele>
        <time>2021-08-02T10:44:54.413Z</time>
      </trkpt>
      <trkpt lat="47.01947" lon="8.96626">
        <ele>862</ele>
        <time>2021-08-02T10:44:55.412Z</time>
      </trkpt>
      <trkpt lat="47.01946" lon="8.96627">
        <ele>862</ele>
        <time>2021-08-02T10:44:56.413Z</time>
      </trkpt>
      <trkpt lat="47.01945" lon="8.96628">
        <ele>862</ele>
        <time>2021-08-02T10:44:57.412Z</time>
      </trkpt>
      <trkpt lat="47.01944" lon="8.96628">
        <ele>862</ele>
        <time>2021-08-02T10:44:58.413Z</time>
      </trkpt>
      <trkpt lat="47.01943" lon="8.96628">
        <ele>862</ele>
        <time>2021-08-02T10:44:59.412Z</time>
      </trkpt>
      <trkpt lat="47.01942" lon="8.96627">
        <ele>861</ele>
        <time>2021-08-02T10:45:00.412Z</time>
      </trkpt>
      <trkpt lat="47.01941" lon="8.96626">
        <ele>861</ele>
        <time>2021-08-02T10:45:01.412Z</time>
      </trkpt>
      <trkpt lat="47.0194" lon="8.96626">
        <ele>861</ele>
        <time>2021-08-02T10:45:02.412Z</time>
      </trkpt>
      <trkpt lat="47.0194" lon="8.96625">
        <ele>861</ele>
        <time>2021-08-02T10:45:03.413Z</time>
      </trkpt>
      <trkpt lat="47.01939" lon="8.96625">
        <ele>860</ele>
        <time>2021-08-02T10:45:04.413Z</time>
      </trkpt>
      <trkpt lat="47.01938" lon="8.96624">
        <ele>860</ele>
        <time>2021-08-02T10:45:05.413Z</time>
      </trkpt>
      <trkpt lat="47.01937" lon="8.96624">
        <ele>860</ele>
        <time>2021-08-02T10:45:06.413Z</time>
      </trkpt>
      <trkpt lat="47.01937" lon="8.96624">
        <ele>859</ele>
        <time>2021-08-02T10:45:07.413Z</time>
      </trkpt>
      <trkpt lat="47.01936" lon="8.96624">
        <ele>859</ele>
        <time>2021-08-02T10:45:08.413Z</time>
      </trkpt>
      <trkpt lat="47.01935" lon="8.96624">
        <ele>859</ele>
        <time>2021-08-02T10:45:09.413Z</time>
      </trkpt>
      <trkpt lat="47.01934" lon="8.96622">
        <ele>858</ele>
        <time>2021-08-02T10:45:10.413Z</time>
      </trkpt>
      <trkpt lat="47.01933" lon="8.96621">
        <ele>858</ele>
        <time>2021-08-02T10:45:11.412Z</time>
      </trkpt>
      <trkpt lat="47.01933" lon="8.9662">
        <ele>858</ele>
        <time>2021-08-02T10:45:12.413Z</time>
      </trkpt>
      <trkpt lat="47.01933" lon="8.9662">
        <ele>858</ele>
        <time>2021-08-02T10:45:13.412Z</time>
      </trkpt>
      <trkpt lat="47.01932" lon="8.96619">
        <ele>857</ele>
        <time>2021-08-02T10:45:14.412Z</time>
      </trkpt>
      <trkpt lat="47.0193" lon="8.96619">
        <ele>857</ele>
        <time>2021-08-02T10:45:15.413Z</time>
      </trkpt>
      <trkpt lat="47.01929" lon="8.96618">
        <ele>857</ele>
        <time>2021-08-02T10:45:16.413Z</time>
      </trkpt>
      <trkpt lat="47.01929" lon="8.96618">
        <ele>857</ele>
        <time>2021-08-02T10:45:17.412Z</time>
      </trkpt>
      <trkpt lat="47.01929" lon="8.96617">
        <ele>857</ele>
        <time>2021-08-02T10:45:18.412Z</time>
      </trkpt>
      <trkpt lat="47.01928" lon="8.96615">
        <ele>857</ele>
        <time>2021-08-02T10:45:19.413Z</time>
      </trkpt>
      <trkpt lat="47.01928" lon="8.96614">
        <ele>857</ele>
        <time>2021-08-02T10:45:20.412Z</time>
      </trkpt>
      <trkpt lat="47.01927" lon="8.96614">
        <ele>857</ele>
        <time>2021-08-02T10:45:21.412Z</time>
      </trkpt>
      <trkpt lat="47.01927" lon="8.96613">
        <ele>857</ele>
        <time>2021-08-02T10:45:22.413Z</time>
      </trkpt>
      <trkpt lat="47.01926" lon="8.96613">
        <ele>858</ele>
        <time>2021-08-02T10:45:23.412Z</time>
      </trkpt>
      <trkpt lat="47.01925" lon="8.96612">
        <ele>858</ele>
        <time>2021-08-02T10:45:24.413Z</time>
      </trkpt>
      <trkpt lat="47.01924" lon="8.96612">
        <ele>858</ele>
        <time>2021-08-02T10:45:25.413Z</time>
      </trkpt>
      <trkpt lat="47.01924" lon="8.96611">
        <ele>859</ele>
        <time>2021-08-02T10:45:26.413Z</time>
      </trkpt>
      <trkpt lat="47.01924" lon="8.9661">
        <ele>859</ele>
        <time>2021-08-02T10:45:27.413Z</time>
      </trkpt>
      <trkpt lat="47.01924" lon="8.96611">
        <ele>860</ele>
        <time>2021-08-02T10:45:28.413Z</time>
      </trkpt>
      <trkpt lat="47.01924" lon="8.9661">
        <ele>861</ele>
        <time>2021-08-02T10:45:29.413Z</time>
      </trkpt>
      <trkpt lat="47.01925" lon="8.9661">
        <ele>861</ele>
        <time>2021-08-02T10:45:30.413Z</time>
      </trkpt>
      <trkpt lat="47.01924" lon="8.96608">
        <ele>863</ele>
        <time>2021-08-02T10:45:31.414Z</time>
      </trkpt>
      <trkpt lat="47.01924" lon="8.96608">
        <ele>863</ele>
        <time>2021-08-02T10:45:32.414Z</time>
      </trkpt>
      <trkpt lat="47.01923" lon="8.96608">
        <ele>864</ele>
        <time>2021-08-02T10:45:33.413Z</time>
      </trkpt>
      <trkpt lat="47.01922" lon="8.96608">
        <ele>864</ele>
        <time>2021-08-02T10:45:34.414Z</time>
      </trkpt>
      <trkpt lat="47.01922" lon="8.96607">
        <ele>865</ele>
        <time>2021-08-02T10:45:35.413Z</time>
      </trkpt>
      <trkpt lat="47.01921" lon="8.96606">
        <ele>865</ele>
        <time>2021-08-02T10:45:36.414Z</time>
      </trkpt>
      <trkpt lat="47.0192" lon="8.96605">
        <ele>866</ele>
        <time>2021-08-02T10:45:37.413Z</time>
      </trkpt>
      <trkpt lat="47.0192" lon="8.96604">
        <ele>866</ele>
        <time>2021-08-02T10:45:38.414Z</time>
      </trkpt>
      <trkpt lat="47.0192" lon="8.96603">
        <ele>866</ele>
        <time>2021-08-02T10:45:39.414Z</time>
      </trkpt>
      <trkpt lat="47.0192" lon="8.96603">
        <ele>866</ele>
        <time>2021-08-02T10:45:40.413Z</time>
      </trkpt>
      <trkpt lat="47.01919" lon="8.96602">
        <ele>866</ele>
        <time>2021-08-02T10:45:41.413Z</time>
      </trkpt>
      <trkpt lat="47.01918" lon="8.96602">
        <ele>866</ele>
        <time>2021-08-02T10:45:42.413Z</time>
      </trkpt>
      <trkpt lat="47.01917" lon="8.96602">
        <ele>866</ele>
        <time>2021-08-02T10:45:43.413Z</time>
      </trkpt>
      <trkpt lat="47.01918" lon="8.96602">
        <ele>866</ele>
        <time>2021-08-02T10:45:44.413Z</time>
      </trkpt>
      <trkpt lat="47.01918" lon="8.96603">
        <ele>866</ele>
        <time>2021-08-02T10:45:45.413Z</time>
      </trkpt>
      <trkpt lat="47.01917" lon="8.96604">
        <ele>866</ele>
        <time>2021-08-02T10:45:46.413Z</time>
      </trkpt>
      <trkpt lat="47.01917" lon="8.96605">
        <ele>866</ele>
        <time>2021-08-02T10:45:47.414Z</time>
      </trkpt>
      <trkpt lat="47.01917" lon="8.96605">
        <ele>867</ele>
        <time>2021-08-02T10:45:48.414Z</time>
      </trkpt>
      <trkpt lat="47.01918" lon="8.96605">
        <ele>868</ele>
        <time>2021-08-02T10:45:49.414Z</time>
      </trkpt>
      <trkpt lat="47.01919" lon="8.96606">
        <ele>868</ele>
        <time>2021-08-02T10:45:50.414Z</time>
      </trkpt>
      <trkpt lat="47.01919" lon="8.96605">
        <ele>869</ele>
        <time>2021-08-02T10:45:51.413Z</time>
      </trkpt>
      <trkpt lat="47.01918" lon="8.96605">
        <ele>870</ele>
        <time>2021-08-02T10:45:52.414Z</time>
      </trkpt>
      <trkpt lat="47.01918" lon="8.96604">
        <ele>870</ele>
        <time>2021-08-02T10:45:53.414Z</time>
      </trkpt>
      <trkpt lat="47.01917" lon="8.96604">
        <ele>871</ele>
        <time>2021-08-02T10:45:54.414Z</time>
      </trkpt>
      <trkpt lat="47.01917" lon="8.96604">
        <ele>871</ele>
        <time>2021-08-02T10:45:55.413Z</time>
      </trkpt>
      <trkpt lat="47.01915" lon="8.96603">
        <ele>871</ele>
        <time>2021-08-02T10:45:56.414Z</time>
      </trkpt>
      <trkpt lat="47.01915" lon="8.96602">
        <ele>871</ele>
        <time>2021-08-02T10:45:57.413Z</time>
      </trkpt>
      <trkpt lat="47.01914" lon="8.96602">
        <ele>872</ele>
        <time>2021-08-02T10:45:58.414Z</time>
      </trkpt>
      <trkpt lat="47.01913" lon="8.96601">
        <ele>872</ele>
        <time>2021-08-02T10:45:59.414Z</time>
      </trkpt>
      <trkpt lat="47.01912" lon="8.96601">
        <ele>872</ele>
        <time>2021-08-02T10:46:00.414Z</time>
      </trkpt>
      <trkpt lat="47.01911" lon="8.96601">
        <ele>872</ele>
        <time>2021-08-02T10:46:01.414Z</time>
      </trkpt>
      <trkpt lat="47.0191" lon="8.96601">
        <ele>872</ele>
        <time>2021-08-02T10:46:02.414Z</time>
      </trkpt>
      <trkpt lat="47.01909" lon="8.96601">
        <ele>872</ele>
        <time>2021-08-02T10:46:03.414Z</time>
      </trkpt>
      <trkpt lat="47.01908" lon="8.966">
        <ele>872</ele>
        <time>2021-08-02T10:46:04.414Z</time>
      </trkpt>
      <trkpt lat="47.01907" lon="8.966">
        <ele>872</ele>
        <time>2021-08-02T10:46:05.414Z</time>
      </trkpt>
      <trkpt lat="47.01907" lon="8.96599">
        <ele>871</ele>
        <time>2021-08-02T10:46:06.414Z</time>
      </trkpt>
      <trkpt lat="47.01907" lon="8.96598">
        <ele>871</ele>
        <time>2021-08-02T10:46:07.414Z</time>
      </trkpt>
      <trkpt lat="47.01907" lon="8.96598">
        <ele>870</ele>
        <time>2021-08-02T10:46:08.413Z</time>
      </trkpt>
      <trkpt lat="47.01906" lon="8.96596">
        <ele>869</ele>
        <time>2021-08-02T10:46:09.414Z</time>
      </trkpt>
      <trkpt lat="47.01906" lon="8.96595">
        <ele>869</ele>
        <time>2021-08-02T10:46:10.413Z</time>
      </trkpt>
      <trkpt lat="47.01906" lon="8.96593">
        <ele>868</ele>
        <time>2021-08-02T10:46:11.414Z</time>
      </trkpt>
      <trkpt lat="47.01905" lon="8.96592">
        <ele>868</ele>
        <time>2021-08-02T10:46:12.414Z</time>
      </trkpt>
      <trkpt lat="47.01905" lon="8.96591">
        <ele>867</ele>
        <time>2021-08-02T10:46:13.413Z</time>
      </trkpt>
      <trkpt lat="47.01903" lon="8.96588">
        <ele>867</ele>
        <time>2021-08-02T10:46:14.414Z</time>
      </trkpt>
      <trkpt lat="47.01902" lon="8.96585">
        <ele>867</ele>
        <time>2021-08-02T10:46:15.414Z</time>
      </trkpt>
      <trkpt lat="47.01902" lon="8.96582">
        <ele>866</ele>
        <time>2021-08-02T10:46:16.414Z</time>
      </trkpt>
      <trkpt lat="47.01901" lon="8.9658">
        <ele>866</ele>
        <time>2021-08-02T10:46:17.413Z</time>
      </trkpt>
      <trkpt lat="47.019" lon="8.96577">
        <ele>866</ele>
        <time>2021-08-02T10:46:18.414Z</time>
      </trkpt>
      <trkpt lat="47.01899" lon="8.96575">
        <ele>866</ele>
        <time>2021-08-02T10:46:19.414Z</time>
      </trkpt>
      <trkpt lat="47.01899" lon="8.96573">
        <ele>866</ele>
        <time>2021-08-02T10:46:20.414Z</time>
      </trkpt>
      <trkpt lat="47.01899" lon="8.96572">
        <ele>866</ele>
        <time>2021-08-02T10:46:21.413Z</time>
      </trkpt>
      <trkpt lat="47.019" lon="8.96571">
        <ele>866</ele>
        <time>2021-08-02T10:46:22.414Z</time>
      </trkpt>
      <trkpt lat="47.01899" lon="8.96571">
        <ele>866</ele>
        <time>2021-08-02T10:46:23.414Z</time>
      </trkpt>
      <trkpt lat="47.01899" lon="8.9657">
        <ele>865</ele>
        <time>2021-08-02T10:46:24.413Z</time>
      </trkpt>
      <trkpt lat="47.01898" lon="8.96569">
        <ele>865</ele>
        <time>2021-08-02T10:46:25.413Z</time>
      </trkpt>
      <trkpt lat="47.01896" lon="8.96568">
        <ele>865</ele>
        <time>2021-08-02T10:46:26.414Z</time>
      </trkpt>
      <trkpt lat="47.01894" lon="8.96567">
        <ele>865</ele>
        <time>2021-08-02T10:46:27.413Z</time>
      </trkpt>
      <trkpt lat="47.01893" lon="8.96566">
        <ele>865</ele>
        <time>2021-08-02T10:46:28.414Z</time>
      </trkpt>
      <trkpt lat="47.01892" lon="8.96565">
        <ele>864</ele>
        <time>2021-08-02T10:46:29.413Z</time>
      </trkpt>
      <trkpt lat="47.01891" lon="8.96563">
        <ele>864</ele>
        <time>2021-08-02T10:46:30.414Z</time>
      </trkpt>
      <trkpt lat="47.01891" lon="8.96562">
        <ele>864</ele>
        <time>2021-08-02T10:46:31.413Z</time>
      </trkpt>
      <trkpt lat="47.01891" lon="8.96561">
        <ele>863</ele>
        <time>2021-08-02T10:46:32.414Z</time>
      </trkpt>
      <trkpt lat="47.01891" lon="8.96559">
        <ele>863</ele>
        <time>2021-08-02T10:46:33.413Z</time>
      </trkpt>
      <trkpt lat="47.01891" lon="8.96558">
        <ele>863</ele>
        <time>2021-08-02T10:46:34.414Z</time>
      </trkpt>
      <trkpt lat="47.0189" lon="8.96556">
        <ele>863</ele>
        <time>2021-08-02T10:46:35.414Z</time>
      </trkpt>
      <trkpt lat="47.0189" lon="8.96554">
        <ele>863</ele>
        <time>2021-08-02T10:46:36.414Z</time>
      </trkpt>
      <trkpt lat="47.01889" lon="8.96552">
        <ele>863</ele>
        <time>2021-08-02T10:46:37.414Z</time>
      </trkpt>
      <trkpt lat="47.01888" lon="8.9655">
        <ele>863</ele>
        <time>2021-08-02T10:46:38.414Z</time>
      </trkpt>
      <trkpt lat="47.01886" lon="8.96549">
        <ele>863</ele>
        <time>2021-08-02T10:46:39.414Z</time>
      </trkpt>
      <trkpt lat="47.01885" lon="8.96548">
        <ele>863</ele>
        <time>2021-08-02T10:46:40.414Z</time>
      </trkpt>
      <trkpt lat="47.01884" lon="8.96547">
        <ele>863</ele>
        <time>2021-08-02T10:46:41.414Z</time>
      </trkpt>
      <trkpt lat="47.01885" lon="8.96545">
        <ele>863</ele>
        <time>2021-08-02T10:46:42.414Z</time>
      </trkpt>
      <trkpt lat="47.01886" lon="8.96544">
        <ele>863</ele>
        <time>2021-08-02T10:46:43.414Z</time>
      </trkpt>
      <trkpt lat="47.01887" lon="8.96542">
        <ele>862</ele>
        <time>2021-08-02T10:46:44.414Z</time>
      </trkpt>
      <trkpt lat="47.01888" lon="8.96541">
        <ele>862</ele>
        <time>2021-08-02T10:46:45.414Z</time>
      </trkpt>
      <trkpt lat="47.01889" lon="8.9654">
        <ele>862</ele>
        <time>2021-08-02T10:46:46.413Z</time>
      </trkpt>
      <trkpt lat="47.01888" lon="8.96538">
        <ele>861</ele>
        <time>2021-08-02T10:46:47.414Z</time>
      </trkpt>
      <trkpt lat="47.01888" lon="8.96537">
        <ele>861</ele>
        <time>2021-08-02T10:46:48.413Z</time>
      </trkpt>
      <trkpt lat="47.01887" lon="8.96536">
        <ele>861</ele>
        <time>2021-08-02T10:46:49.414Z</time>
      </trkpt>
      <trkpt lat="47.01886" lon="8.96535">
        <ele>860</ele>
        <time>2021-08-02T10:46:50.414Z</time>
      </trkpt>
      <trkpt lat="47.01885" lon="8.96534">
        <ele>859</ele>
        <time>2021-08-02T10:46:51.414Z</time>
      </trkpt>
      <trkpt lat="47.01885" lon="8.96533">
        <ele>859</ele>
        <time>2021-08-02T10:46:52.413Z</time>
      </trkpt>
      <trkpt lat="47.01886" lon="8.96531">
        <ele>858</ele>
        <time>2021-08-02T10:46:53.414Z</time>
      </trkpt>
      <trkpt lat="47.01886" lon="8.9653">
        <ele>858</ele>
        <time>2021-08-02T10:46:54.413Z</time>
      </trkpt>
      <trkpt lat="47.01885" lon="8.96529">
        <ele>858</ele>
        <time>2021-08-02T10:46:55.414Z</time>
      </trkpt>
      <trkpt lat="47.01885" lon="8.96529">
        <ele>857</ele>
        <time>2021-08-02T10:46:56.413Z</time>
      </trkpt>
      <trkpt lat="47.01885" lon="8.96529">
        <ele>857</ele>
        <time>2021-08-02T10:46:57.414Z</time>
      </trkpt>
      <trkpt lat="47.01885" lon="8.96529">
        <ele>857</ele>
        <time>2021-08-02T10:46:58.414Z</time>
      </trkpt>
      <trkpt lat="47.01886" lon="8.96528">
        <ele>859</ele>
        <time>2021-08-02T10:46:59.413Z</time>
      </trkpt>
      <trkpt lat="47.01886" lon="8.96527">
        <ele>860</ele>
        <time>2021-08-02T10:47:00.414Z</time>
      </trkpt>
      <trkpt lat="47.01886" lon="8.96526">
        <ele>860</ele>
        <time>2021-08-02T10:47:01.413Z</time>
      </trkpt>
      <trkpt lat="47.01886" lon="8.96525">
        <ele>861</ele>
        <time>2021-08-02T10:47:02.413Z</time>
      </trkpt>
      <trkpt lat="47.01886" lon="8.96524">
        <ele>861</ele>
        <time>2021-08-02T10:47:03.413Z</time>
      </trkpt>
      <trkpt lat="47.01885" lon="8.96522">
        <ele>861</ele>
        <time>2021-08-02T10:47:04.414Z</time>
      </trkpt>
      <trkpt lat="47.01884" lon="8.96521">
        <ele>861</ele>
        <time>2021-08-02T10:47:05.413Z</time>
      </trkpt>
      <trkpt lat="47.01884" lon="8.96519">
        <ele>861</ele>
        <time>2021-08-02T10:47:06.414Z</time>
      </trkpt>
      <trkpt lat="47.01883" lon="8.96517">
        <ele>861</ele>
        <time>2021-08-02T10:47:07.413Z</time>
      </trkpt>
      <trkpt lat="47.01883" lon="8.96515">
        <ele>861</ele>
        <time>2021-08-02T10:47:08.413Z</time>
      </trkpt>
      <trkpt lat="47.01883" lon="8.96513">
        <ele>861</ele>
        <time>2021-08-02T10:47:09.413Z</time>
      </trkpt>
      <trkpt lat="47.01883" lon="8.96511">
        <ele>860</ele>
        <time>2021-08-02T10:47:10.414Z</time>
      </trkpt>
      <trkpt lat="47.01883" lon="8.96509">
        <ele>860</ele>
        <time>2021-08-02T10:47:11.414Z</time>
      </trkpt>
      <trkpt lat="47.01884" lon="8.96507">
        <ele>859</ele>
        <time>2021-08-02T10:47:12.414Z</time>
      </trkpt>
      <trkpt lat="47.01885" lon="8.96505">
        <ele>859</ele>
        <time>2021-08-02T10:47:13.414Z</time>
      </trkpt>
      <trkpt lat="47.01885" lon="8.96502">
        <ele>858</ele>
        <time>2021-08-02T10:47:14.414Z</time>
      </trkpt>
      <trkpt lat="47.01886" lon="8.965">
        <ele>858</ele>
        <time>2021-08-02T10:47:15.414Z</time>
      </trkpt>
      <trkpt lat="47.01886" lon="8.96498">
        <ele>858</ele>
        <time>2021-08-02T10:47:16.413Z</time>
      </trkpt>
      <trkpt lat="47.01886" lon="8.96496">
        <ele>857</ele>
        <time>2021-08-02T10:47:17.413Z</time>
      </trkpt>
      <trkpt lat="47.01886" lon="8.96495">
        <ele>857</ele>
        <time>2021-08-02T10:47:18.413Z</time>
      </trkpt>
      <trkpt lat="47.01887" lon="8.96494">
        <ele>857</ele>
        <time>2021-08-02T10:47:19.414Z</time>
      </trkpt>
      <trkpt lat="47.0189" lon="8.96491">
        <ele>856</ele>
        <time>2021-08-02T10:47:20.413Z</time>
      </trkpt>
      <trkpt lat="47.0189" lon="8.9649">
        <ele>856</ele>
        <time>2021-08-02T10:47:21.414Z</time>
      </trkpt>
      <trkpt lat="47.01889" lon="8.9649">
        <ele>856</ele>
        <time>2021-08-02T10:47:22.413Z</time>
      </trkpt>
      <trkpt lat="47.0189" lon="8.96489">
        <ele>856</ele>
        <time>2021-08-02T10:47:23.414Z</time>
      </trkpt>
      <trkpt lat="47.0189" lon="8.96487">
        <ele>856</ele>
        <time>2021-08-02T10:47:24.414Z</time>
      </trkpt>
      <trkpt lat="47.0189" lon="8.96486">
        <ele>856</ele>
        <time>2021-08-02T10:47:25.414Z</time>
      </trkpt>
      <trkpt lat="47.0189" lon="8.96485">
        <ele>856</ele>
        <time>2021-08-02T10:47:26.414Z</time>
      </trkpt>
      <trkpt lat="47.0189" lon="8.96484">
        <ele>856</ele>
        <time>2021-08-02T10:47:27.414Z</time>
      </trkpt>
      <trkpt lat="47.0189" lon="8.96482">
        <ele>856</ele>
        <time>2021-08-02T10:47:28.413Z</time>
      </trkpt>
      <trkpt lat="47.01891" lon="8.96481">
        <ele>856</ele>
        <time>2021-08-02T10:47:29.413Z</time>
      </trkpt>
      <trkpt lat="47.01891" lon="8.96479">
        <ele>856</ele>
        <time>2021-08-02T10:47:30.413Z</time>
      </trkpt>
      <trkpt lat="47.01891" lon="8.96478">
        <ele>856</ele>
        <time>2021-08-02T10:47:31.414Z</time>
      </trkpt>
      <trkpt lat="47.01891" lon="8.96476">
        <ele>856</ele>
        <time>2021-08-02T10:47:32.414Z</time>
      </trkpt>
      <trkpt lat="47.01891" lon="8.96474">
        <ele>855</ele>
        <time>2021-08-02T10:47:33.414Z</time>
      </trkpt>
      <trkpt lat="47.0189" lon="8.96473">
        <ele>855</ele>
        <time>2021-08-02T10:47:34.414Z</time>
      </trkpt>
      <trkpt lat="47.01888" lon="8.96471">
        <ele>855</ele>
        <time>2021-08-02T10:47:35.413Z</time>
      </trkpt>
      <trkpt lat="47.01888" lon="8.9647">
        <ele>854</ele>
        <time>2021-08-02T10:47:36.414Z</time>
      </trkpt>
      <trkpt lat="47.01888" lon="8.96469">
        <ele>855</ele>
        <time>2021-08-02T10:47:37.413Z</time>
      </trkpt>
      <trkpt lat="47.01888" lon="8.96469">
        <ele>855</ele>
        <time>2021-08-02T10:47:38.413Z</time>
      </trkpt>
      <trkpt lat="47.01888" lon="8.96468">
        <ele>855</ele>
        <time>2021-08-02T10:47:39.414Z</time>
      </trkpt>
      <trkpt lat="47.01889" lon="8.96467">
        <ele>856</ele>
        <time>2021-08-02T10:47:40.414Z</time>
      </trkpt>
      <trkpt lat="47.0189" lon="8.96465">
        <ele>856</ele>
        <time>2021-08-02T10:47:41.414Z</time>
      </trkpt>
      <trkpt lat="47.01891" lon="8.96464">
        <ele>856</ele>
        <time>2021-08-02T10:47:42.413Z</time>
      </trkpt>
      <trkpt lat="47.01891" lon="8.96463">
        <ele>856</ele>
        <time>2021-08-02T10:47:43.414Z</time>
      </trkpt>
      <trkpt lat="47.01891" lon="8.96461">
        <ele>856</ele>
        <time>2021-08-02T10:47:44.414Z</time>
      </trkpt>
      <trkpt lat="47.01891" lon="8.9646">
        <ele>856</ele>
        <time>2021-08-02T10:47:45.414Z</time>
      </trkpt>
      <trkpt lat="47.01891" lon="8.96459">
        <ele>856</ele>
        <time>2021-08-02T10:47:46.414Z</time>
      </trkpt>
      <trkpt lat="47.0189" lon="8.96458">
        <ele>855</ele>
        <time>2021-08-02T10:47:47.414Z</time>
      </trkpt>
      <trkpt lat="47.0189" lon="8.96456">
        <ele>854</ele>
        <time>2021-08-02T10:47:48.414Z</time>
      </trkpt>
      <trkpt lat="47.0189" lon="8.96455">
        <ele>854</ele>
        <time>2021-08-02T10:47:49.414Z</time>
      </trkpt>
      <trkpt lat="47.01889" lon="8.96454">
        <ele>853</ele>
        <time>2021-08-02T10:47:50.414Z</time>
      </trkpt>
      <trkpt lat="47.0189" lon="8.96453">
        <ele>853</ele>
        <time>2021-08-02T10:47:51.414Z</time>
      </trkpt>
      <trkpt lat="47.01889" lon="8.96451">
        <ele>852</ele>
        <time>2021-08-02T10:47:52.414Z</time>
      </trkpt>
      <trkpt lat="47.0189" lon="8.9645">
        <ele>852</ele>
        <time>2021-08-02T10:47:53.413Z</time>
      </trkpt>
      <trkpt lat="47.01889" lon="8.96449">
        <ele>851</ele>
        <time>2021-08-02T10:47:54.414Z</time>
      </trkpt>
      <trkpt lat="47.01888" lon="8.96448">
        <ele>851</ele>
        <time>2021-08-02T10:47:55.413Z</time>
      </trkpt>
      <trkpt lat="47.01888" lon="8.96447">
        <ele>850</ele>
        <time>2021-08-02T10:47:56.414Z</time>
      </trkpt>
      <trkpt lat="47.01887" lon="8.96445">
        <ele>849</ele>
        <time>2021-08-02T10:47:57.414Z</time>
      </trkpt>
      <trkpt lat="47.01887" lon="8.96444">
        <ele>849</ele>
        <time>2021-08-02T10:47:58.414Z</time>
      </trkpt>
      <trkpt lat="47.01887" lon="8.96442">
        <ele>849</ele>
        <time>2021-08-02T10:47:59.413Z</time>
      </trkpt>
      <trkpt lat="47.01887" lon="8.96442">
        <ele>849</ele>
        <time>2021-08-02T10:48:00.414Z</time>
      </trkpt>
      <trkpt lat="47.01887" lon="8.96441">
        <ele>850</ele>
        <time>2021-08-02T10:48:01.413Z</time>
      </trkpt>
      <trkpt lat="47.01887" lon="8.9644">
        <ele>850</ele>
        <time>2021-08-02T10:48:02.414Z</time>
      </trkpt>
      <trkpt lat="47.01887" lon="8.96439">
        <ele>851</ele>
        <time>2021-08-02T10:48:03.413Z</time>
      </trkpt>
      <trkpt lat="47.01887" lon="8.96438">
        <ele>851</ele>
        <time>2021-08-02T10:48:04.414Z</time>
      </trkpt>
      <trkpt lat="47.01887" lon="8.96436">
        <ele>851</ele>
        <time>2021-08-02T10:48:05.414Z</time>
      </trkpt>
      <trkpt lat="47.01888" lon="8.96435">
        <ele>851</ele>
        <time>2021-08-02T10:48:06.414Z</time>
      </trkpt>
      <trkpt lat="47.01888" lon="8.96433">
        <ele>852</ele>
        <time>2021-08-02T10:48:07.413Z</time>
      </trkpt>
      <trkpt lat="47.01889" lon="8.96432">
        <ele>852</ele>
        <time>2021-08-02T10:48:08.413Z</time>
      </trkpt>
      <trkpt lat="47.01888" lon="8.9643">
        <ele>852</ele>
        <time>2021-08-02T10:48:09.414Z</time>
      </trkpt>
      <trkpt lat="47.01888" lon="8.96429">
        <ele>852</ele>
        <time>2021-08-02T10:48:10.414Z</time>
      </trkpt>
      <trkpt lat="47.01887" lon="8.96428">
        <ele>851</ele>
        <time>2021-08-02T10:48:11.414Z</time>
      </trkpt>
      <trkpt lat="47.01887" lon="8.96426">
        <ele>851</ele>
        <time>2021-08-02T10:48:12.414Z</time>
      </trkpt>
      <trkpt lat="47.01886" lon="8.96424">
        <ele>851</ele>
        <time>2021-08-02T10:48:13.413Z</time>
      </trkpt>
      <trkpt lat="47.01885" lon="8.96422">
        <ele>850</ele>
        <time>2021-08-02T10:48:14.414Z</time>
      </trkpt>
      <trkpt lat="47.01887" lon="8.96421">
        <ele>850</ele>
        <time>2021-08-02T10:48:15.414Z</time>
      </trkpt>
      <trkpt lat="47.01887" lon="8.96419">
        <ele>850</ele>
        <time>2021-08-02T10:48:16.413Z</time>
      </trkpt>
      <trkpt lat="47.01887" lon="8.96418">
        <ele>850</ele>
        <time>2021-08-02T10:48:17.413Z</time>
      </trkpt>
      <trkpt lat="47.01887" lon="8.96416">
        <ele>849</ele>
        <time>2021-08-02T10:48:18.414Z</time>
      </trkpt>
      <trkpt lat="47.01887" lon="8.96414">
        <ele>849</ele>
        <time>2021-08-02T10:48:19.414Z</time>
      </trkpt>
      <trkpt lat="47.01887" lon="8.96413">
        <ele>849</ele>
        <time>2021-08-02T10:48:20.413Z</time>
      </trkpt>
      <trkpt lat="47.01887" lon="8.96411">
        <ele>849</ele>
        <time>2021-08-02T10:48:21.414Z</time>
      </trkpt>
      <trkpt lat="47.01888" lon="8.9641">
        <ele>849</ele>
        <time>2021-08-02T10:48:22.414Z</time>
      </trkpt>
      <trkpt lat="47.01887" lon="8.96409">
        <ele>849</ele>
        <time>2021-08-02T10:48:23.413Z</time>
      </trkpt>
      <trkpt lat="47.01887" lon="8.96408">
        <ele>849</ele>
        <time>2021-08-02T10:48:24.414Z</time>
      </trkpt>
      <trkpt lat="47.01887" lon="8.96406">
        <ele>848</ele>
        <time>2021-08-02T10:48:25.414Z</time>
      </trkpt>
      <trkpt lat="47.01888" lon="8.96404">
        <ele>848</ele>
        <time>2021-08-02T10:48:26.414Z</time>
      </trkpt>
      <trkpt lat="47.01888" lon="8.96401">
        <ele>848</ele>
        <time>2021-08-02T10:48:27.413Z</time>
      </trkpt>
      <trkpt lat="47.01889" lon="8.964">
        <ele>848</ele>
        <time>2021-08-02T10:48:28.413Z</time>
      </trkpt>
      <trkpt lat="47.01888" lon="8.96398">
        <ele>848</ele>
        <time>2021-08-02T10:48:29.414Z</time>
      </trkpt>
      <trkpt lat="47.01888" lon="8.96397">
        <ele>848</ele>
        <time>2021-08-02T10:48:30.413Z</time>
      </trkpt>
      <trkpt lat="47.01887" lon="8.96396">
        <ele>847</ele>
        <time>2021-08-02T10:48:31.414Z</time>
      </trkpt>
      <trkpt lat="47.01887" lon="8.96394">
        <ele>847</ele>
        <time>2021-08-02T10:48:32.413Z</time>
      </trkpt>
      <trkpt lat="47.01887" lon="8.96393">
        <ele>847</ele>
        <time>2021-08-02T10:48:33.414Z</time>
      </trkpt>
      <trkpt lat="47.01886" lon="8.96392">
        <ele>847</ele>
        <time>2021-08-02T10:48:34.414Z</time>
      </trkpt>
      <trkpt lat="47.01886" lon="8.9639">
        <ele>847</ele>
        <time>2021-08-02T10:48:35.414Z</time>
      </trkpt>
      <trkpt lat="47.01886" lon="8.96389">
        <ele>847</ele>
        <time>2021-08-02T10:48:36.414Z</time>
      </trkpt>
      <trkpt lat="47.01885" lon="8.96387">
        <ele>846</ele>
        <time>2021-08-02T10:48:37.414Z</time>
      </trkpt>
      <trkpt lat="47.01885" lon="8.96386">
        <ele>846</ele>
        <time>2021-08-02T10:48:38.414Z</time>
      </trkpt>
      <trkpt lat="47.01886" lon="8.96385">
        <ele>846</ele>
        <time>2021-08-02T10:48:39.413Z</time>
      </trkpt>
      <trkpt lat="47.01886" lon="8.96383">
        <ele>846</ele>
        <time>2021-08-02T10:48:40.413Z</time>
      </trkpt>
      <trkpt lat="47.01887" lon="8.96381">
        <ele>846</ele>
        <time>2021-08-02T10:48:41.414Z</time>
      </trkpt>
      <trkpt lat="47.01887" lon="8.9638">
        <ele>846</ele>
        <time>2021-08-02T10:48:42.414Z</time>
      </trkpt>
      <trkpt lat="47.01887" lon="8.96379">
        <ele>846</ele>
        <time>2021-08-02T10:48:43.414Z</time>
      </trkpt>
      <trkpt lat="47.01888" lon="8.96377">
        <ele>846</ele>
        <time>2021-08-02T10:48:44.414Z</time>
      </trkpt>
      <trkpt lat="47.01888" lon="8.96375">
        <ele>847</ele>
        <time>2021-08-02T10:48:45.414Z</time>
      </trkpt>
      <trkpt lat="47.01889" lon="8.96374">
        <ele>847</ele>
        <time>2021-08-02T10:48:47.524Z</time>
      </trkpt>
      <trkpt lat="47.01889" lon="8.96373">
        <ele>848</ele>
        <time>2021-08-02T10:48:48.523Z</time>
      </trkpt>
      <trkpt lat="47.0189" lon="8.96372">
        <ele>848</ele>
        <time>2021-08-02T10:48:49.524Z</time>
      </trkpt>
      <trkpt lat="47.0189" lon="8.96371">
        <ele>849</ele>
        <time>2021-08-02T10:48:50.524Z</time>
      </trkpt>
      <trkpt lat="47.0189" lon="8.96369">
        <ele>849</ele>
        <time>2021-08-02T10:48:51.524Z</time>
      </trkpt>
      <trkpt lat="47.0189" lon="8.96368">
        <ele>850</ele>
        <time>2021-08-02T10:48:52.524Z</time>
      </trkpt>
      <trkpt lat="47.0189" lon="8.96366">
        <ele>850</ele>
        <time>2021-08-02T10:48:53.524Z</time>
      </trkpt>
      <trkpt lat="47.01889" lon="8.96365">
        <ele>850</ele>
        <time>2021-08-02T10:48:54.523Z</time>
      </trkpt>
      <trkpt lat="47.0189" lon="8.96363">
        <ele>850</ele>
        <time>2021-08-02T10:48:55.524Z</time>
      </trkpt>
      <trkpt lat="47.0189" lon="8.96362">
        <ele>850</ele>
        <time>2021-08-02T10:48:56.524Z</time>
      </trkpt>
      <trkpt lat="47.0189" lon="8.9636">
        <ele>850</ele>
        <time>2021-08-02T10:48:57.523Z</time>
      </trkpt>
      <trkpt lat="47.01888" lon="8.96358">
        <ele>850</ele>
        <time>2021-08-02T10:48:58.524Z</time>
      </trkpt>
      <trkpt lat="47.01886" lon="8.96356">
        <ele>849</ele>
        <time>2021-08-02T10:48:59.524Z</time>
      </trkpt>
      <trkpt lat="47.01885" lon="8.96355">
        <ele>849</ele>
        <time>2021-08-02T10:49:00.524Z</time>
      </trkpt>
      <trkpt lat="47.01884" lon="8.96353">
        <ele>848</ele>
        <time>2021-08-02T10:49:01.524Z</time>
      </trkpt>
      <trkpt lat="47.01884" lon="8.96351">
        <ele>848</ele>
        <time>2021-08-02T10:49:02.524Z</time>
      </trkpt>
      <trkpt lat="47.01884" lon="8.9635">
        <ele>847</ele>
        <time>2021-08-02T10:49:03.523Z</time>
      </trkpt>
      <trkpt lat="47.01883" lon="8.96348">
        <ele>847</ele>
        <time>2021-08-02T10:49:04.523Z</time>
      </trkpt>
      <trkpt lat="47.01883" lon="8.96347">
        <ele>847</ele>
        <time>2021-08-02T10:49:05.524Z</time>
      </trkpt>
      <trkpt lat="47.01883" lon="8.96345">
        <ele>847</ele>
        <time>2021-08-02T10:49:06.523Z</time>
      </trkpt>
      <trkpt lat="47.01884" lon="8.96344">
        <ele>847</ele>
        <time>2021-08-02T10:49:07.524Z</time>
      </trkpt>
      <trkpt lat="47.01884" lon="8.96343">
        <ele>847</ele>
        <time>2021-08-02T10:49:11.576Z</time>
      </trkpt>
      <trkpt lat="47.01885" lon="8.96342">
        <ele>847</ele>
        <time>2021-08-02T10:49:12.576Z</time>
      </trkpt>
      <trkpt lat="47.01886" lon="8.96341">
        <ele>847</ele>
        <time>2021-08-02T10:49:14.403Z</time>
      </trkpt>
      <trkpt lat="47.01887" lon="8.9634">
        <ele>847</ele>
        <time>2021-08-02T10:49:15.404Z</time>
      </trkpt>
      <trkpt lat="47.01888" lon="8.96338">
        <ele>847</ele>
        <time>2021-08-02T10:49:16.404Z</time>
      </trkpt>
      <trkpt lat="47.01889" lon="8.96337">
        <ele>847</ele>
        <time>2021-08-02T10:49:17.403Z</time>
      </trkpt>
      <trkpt lat="47.01889" lon="8.96336">
        <ele>847</ele>
        <time>2021-08-02T10:49:18.404Z</time>
      </trkpt>
      <trkpt lat="47.01889" lon="8.96335">
        <ele>847</ele>
        <time>2021-08-02T10:49:19.404Z</time>
      </trkpt>
      <trkpt lat="47.0189" lon="8.96333">
        <ele>847</ele>
        <time>2021-08-02T10:49:20.404Z</time>
      </trkpt>
      <trkpt lat="47.0189" lon="8.96332">
        <ele>847</ele>
        <time>2021-08-02T10:49:21.404Z</time>
      </trkpt>
      <trkpt lat="47.0189" lon="8.96331">
        <ele>848</ele>
        <time>2021-08-02T10:49:22.404Z</time>
      </trkpt>
      <trkpt lat="47.01889" lon="8.96328">
        <ele>848</ele>
        <time>2021-08-02T10:49:23.404Z</time>
      </trkpt>
      <trkpt lat="47.0189" lon="8.96327">
        <ele>848</ele>
        <time>2021-08-02T10:49:24.403Z</time>
      </trkpt>
      <trkpt lat="47.0189" lon="8.96325">
        <ele>849</ele>
        <time>2021-08-02T10:49:25.404Z</time>
      </trkpt>
      <trkpt lat="47.01891" lon="8.96324">
        <ele>849</ele>
        <time>2021-08-02T10:49:26.403Z</time>
      </trkpt>
      <trkpt lat="47.01891" lon="8.96322">
        <ele>850</ele>
        <time>2021-08-02T10:49:27.404Z</time>
      </trkpt>
      <trkpt lat="47.0189" lon="8.96321">
        <ele>850</ele>
        <time>2021-08-02T10:49:28.404Z</time>
      </trkpt>
      <trkpt lat="47.01889" lon="8.96319">
        <ele>850</ele>
        <time>2021-08-02T10:49:29.404Z</time>
      </trkpt>
      <trkpt lat="47.01888" lon="8.96318">
        <ele>850</ele>
        <time>2021-08-02T10:49:30.404Z</time>
      </trkpt>
      <trkpt lat="47.01887" lon="8.96317">
        <ele>850</ele>
        <time>2021-08-02T10:49:31.404Z</time>
      </trkpt>
      <trkpt lat="47.01888" lon="8.96316">
        <ele>850</ele>
        <time>2021-08-02T10:49:32.404Z</time>
      </trkpt>
      <trkpt lat="47.01888" lon="8.96315">
        <ele>850</ele>
        <time>2021-08-02T10:49:33.404Z</time>
      </trkpt>
      <trkpt lat="47.01889" lon="8.96314">
        <ele>850</ele>
        <time>2021-08-02T10:49:34.404Z</time>
      </trkpt>
      <trkpt lat="47.01889" lon="8.96313">
        <ele>850</ele>
        <time>2021-08-02T10:49:35.404Z</time>
      </trkpt>
      <trkpt lat="47.01889" lon="8.96311">
        <ele>850</ele>
        <time>2021-08-02T10:49:36.404Z</time>
      </trkpt>
      <trkpt lat="47.01889" lon="8.9631">
        <ele>850</ele>
        <time>2021-08-02T10:49:37.404Z</time>
      </trkpt>
      <trkpt lat="47.01889" lon="8.96309">
        <ele>850</ele>
        <time>2021-08-02T10:49:38.404Z</time>
      </trkpt>
      <trkpt lat="47.01889" lon="8.96308">
        <ele>850</ele>
        <time>2021-08-02T10:49:39.403Z</time>
      </trkpt>
      <trkpt lat="47.01888" lon="8.96306">
        <ele>849</ele>
        <time>2021-08-02T10:49:40.404Z</time>
      </trkpt>
      <trkpt lat="47.01887" lon="8.96305">
        <ele>848</ele>
        <time>2021-08-02T10:49:41.403Z</time>
      </trkpt>
      <trkpt lat="47.01886" lon="8.96303">
        <ele>848</ele>
        <time>2021-08-02T10:49:42.404Z</time>
      </trkpt>
      <trkpt lat="47.01886" lon="8.96302">
        <ele>847</ele>
        <time>2021-08-02T10:49:43.403Z</time>
      </trkpt>
      <trkpt lat="47.01886" lon="8.963">
        <ele>846</ele>
        <time>2021-08-02T10:49:44.404Z</time>
      </trkpt>
      <trkpt lat="47.01885" lon="8.96299">
        <ele>846</ele>
        <time>2021-08-02T10:49:45.404Z</time>
      </trkpt>
      <trkpt lat="47.01886" lon="8.96298">
        <ele>845</ele>
        <time>2021-08-02T10:49:46.404Z</time>
      </trkpt>
      <trkpt lat="47.01886" lon="8.96297">
        <ele>845</ele>
        <time>2021-08-02T10:49:47.403Z</time>
      </trkpt>
      <trkpt lat="47.01886" lon="8.96295">
        <ele>846</ele>
        <time>2021-08-02T10:49:48.404Z</time>
      </trkpt>
      <trkpt lat="47.01885" lon="8.96294">
        <ele>845</ele>
        <time>2021-08-02T10:49:49.403Z</time>
      </trkpt>
      <trkpt lat="47.01885" lon="8.96293">
        <ele>845</ele>
        <time>2021-08-02T10:49:50.404Z</time>
      </trkpt>
      <trkpt lat="47.01885" lon="8.96291">
        <ele>845</ele>
        <time>2021-08-02T10:49:51.404Z</time>
      </trkpt>
      <trkpt lat="47.01885" lon="8.9629">
        <ele>846</ele>
        <time>2021-08-02T10:49:52.404Z</time>
      </trkpt>
      <trkpt lat="47.01885" lon="8.96289">
        <ele>846</ele>
        <time>2021-08-02T10:49:53.404Z</time>
      </trkpt>
      <trkpt lat="47.01886" lon="8.96287">
        <ele>846</ele>
        <time>2021-08-02T10:49:54.403Z</time>
      </trkpt>
      <trkpt lat="47.01885" lon="8.96286">
        <ele>846</ele>
        <time>2021-08-02T10:49:55.404Z</time>
      </trkpt>
      <trkpt lat="47.01885" lon="8.96284">
        <ele>846</ele>
        <time>2021-08-02T10:49:56.404Z</time>
      </trkpt>
      <trkpt lat="47.01886" lon="8.96283">
        <ele>846</ele>
        <time>2021-08-02T10:49:57.404Z</time>
      </trkpt>
      <trkpt lat="47.01886" lon="8.96281">
        <ele>846</ele>
        <time>2021-08-02T10:49:58.404Z</time>
      </trkpt>
      <trkpt lat="47.01886" lon="8.9628">
        <ele>846</ele>
        <time>2021-08-02T10:49:59.403Z</time>
      </trkpt>
      <trkpt lat="47.01886" lon="8.96278">
        <ele>847</ele>
        <time>2021-08-02T10:50:00.404Z</time>
      </trkpt>
      <trkpt lat="47.01885" lon="8.96277">
        <ele>847</ele>
        <time>2021-08-02T10:50:01.404Z</time>
      </trkpt>
      <trkpt lat="47.01885" lon="8.96276">
        <ele>847</ele>
        <time>2021-08-02T10:50:02.404Z</time>
      </trkpt>
      <trkpt lat="47.01886" lon="8.96275">
        <ele>847</ele>
        <time>2021-08-02T10:50:03.404Z</time>
      </trkpt>
      <trkpt lat="47.01887" lon="8.96274">
        <ele>846</ele>
        <time>2021-08-02T10:50:04.403Z</time>
      </trkpt>
      <trkpt lat="47.01888" lon="8.96272">
        <ele>846</ele>
        <time>2021-08-02T10:50:05.403Z</time>
      </trkpt>
      <trkpt lat="47.01888" lon="8.9627">
        <ele>846</ele>
        <time>2021-08-02T10:50:06.403Z</time>
      </trkpt>
      <trkpt lat="47.01888" lon="8.96268">
        <ele>846</ele>
        <time>2021-08-02T10:50:07.404Z</time>
      </trkpt>
      <trkpt lat="47.01888" lon="8.96267">
        <ele>846</ele>
        <time>2021-08-02T10:50:08.403Z</time>
      </trkpt>
      <trkpt lat="47.01888" lon="8.96265">
        <ele>845</ele>
        <time>2021-08-02T10:50:09.404Z</time>
      </trkpt>
      <trkpt lat="47.01888" lon="8.96264">
        <ele>845</ele>
        <time>2021-08-02T10:50:10.404Z</time>
      </trkpt>
      <trkpt lat="47.01887" lon="8.96263">
        <ele>845</ele>
        <time>2021-08-02T10:50:11.403Z</time>
      </trkpt>
      <trkpt lat="47.01887" lon="8.96261">
        <ele>845</ele>
        <time>2021-08-02T10:50:12.403Z</time>
      </trkpt>
      <trkpt lat="47.01888" lon="8.9626">
        <ele>845</ele>
        <time>2021-08-02T10:50:13.404Z</time>
      </trkpt>
      <trkpt lat="47.01888" lon="8.96259">
        <ele>845</ele>
        <time>2021-08-02T10:50:14.403Z</time>
      </trkpt>
      <trkpt lat="47.01888" lon="8.96257">
        <ele>845</ele>
        <time>2021-08-02T10:50:15.403Z</time>
      </trkpt>
      <trkpt lat="47.01889" lon="8.96256">
        <ele>845</ele>
        <time>2021-08-02T10:50:16.403Z</time>
      </trkpt>
      <trkpt lat="47.01889" lon="8.96255">
        <ele>845</ele>
        <time>2021-08-02T10:50:17.404Z</time>
      </trkpt>
      <trkpt lat="47.0189" lon="8.96255">
        <ele>845</ele>
        <time>2021-08-02T10:50:18.404Z</time>
      </trkpt>
      <trkpt lat="47.0189" lon="8.96254">
        <ele>845</ele>
        <time>2021-08-02T10:50:19.403Z</time>
      </trkpt>
      <trkpt lat="47.01891" lon="8.96253">
        <ele>845</ele>
        <time>2021-08-02T10:50:20.404Z</time>
      </trkpt>
      <trkpt lat="47.01893" lon="8.96253">
        <ele>845</ele>
        <time>2021-08-02T10:50:21.403Z</time>
      </trkpt>
      <trkpt lat="47.01895" lon="8.96252">
        <ele>846</ele>
        <time>2021-08-02T10:50:22.403Z</time>
      </trkpt>
      <trkpt lat="47.01897" lon="8.96251">
        <ele>846</ele>
        <time>2021-08-02T10:50:23.404Z</time>
      </trkpt>
      <trkpt lat="47.01899" lon="8.96251">
        <ele>846</ele>
        <time>2021-08-02T10:50:24.404Z</time>
      </trkpt>
      <trkpt lat="47.019" lon="8.96249">
        <ele>847</ele>
        <time>2021-08-02T10:50:25.404Z</time>
      </trkpt>
      <trkpt lat="47.01901" lon="8.96248">
        <ele>847</ele>
        <time>2021-08-02T10:50:26.404Z</time>
      </trkpt>
      <trkpt lat="47.01902" lon="8.96247">
        <ele>847</ele>
        <time>2021-08-02T10:50:27.403Z</time>
      </trkpt>
      <trkpt lat="47.01903" lon="8.96246">
        <ele>847</ele>
        <time>2021-08-02T10:50:28.404Z</time>
      </trkpt>
      <trkpt lat="47.01903" lon="8.96245">
        <ele>848</ele>
        <time>2021-08-02T10:50:29.404Z</time>
      </trkpt>
      <trkpt lat="47.01902" lon="8.96245">
        <ele>848</ele>
        <time>2021-08-02T10:50:30.403Z</time>
      </trkpt>
      <trkpt lat="47.01903" lon="8.96245">
        <ele>848</ele>
        <time>2021-08-02T10:50:31.403Z</time>
      </trkpt>
      <trkpt lat="47.01903" lon="8.96244">
        <ele>848</ele>
        <time>2021-08-02T10:50:32.404Z</time>
      </trkpt>
      <trkpt lat="47.01903" lon="8.96244">
        <ele>847</ele>
        <time>2021-08-02T10:50:33.404Z</time>
      </trkpt>
      <trkpt lat="47.01903" lon="8.96241">
        <ele>845</ele>
        <time>2021-08-02T10:50:34.405Z</time>
      </trkpt>
      <trkpt lat="47.01904" lon="8.96241">
        <ele>845</ele>
        <time>2021-08-02T10:50:35.404Z</time>
      </trkpt>
      <trkpt lat="47.01904" lon="8.96241">
        <ele>845</ele>
        <time>2021-08-02T10:50:36.404Z</time>
      </trkpt>
      <trkpt lat="47.01907" lon="8.96244">
        <ele>853</ele>
        <time>2021-08-02T10:50:37.405Z</time>
      </trkpt>
      <trkpt lat="47.01908" lon="8.96244">
        <ele>855</ele>
        <time>2021-08-02T10:50:38.404Z</time>
      </trkpt>
      <trkpt lat="47.01909" lon="8.96243">
        <ele>856</ele>
        <time>2021-08-02T10:50:39.405Z</time>
      </trkpt>
      <trkpt lat="47.0191" lon="8.96243">
        <ele>856</ele>
        <time>2021-08-02T10:50:40.405Z</time>
      </trkpt>
      <trkpt lat="47.01911" lon="8.96242">
        <ele>857</ele>
        <time>2021-08-02T10:50:41.404Z</time>
      </trkpt>
      <trkpt lat="47.01911" lon="8.9624">
        <ele>857</ele>
        <time>2021-08-02T10:50:42.404Z</time>
      </trkpt>
      <trkpt lat="47.0191" lon="8.96239">
        <ele>856</ele>
        <time>2021-08-02T10:50:51.430Z</time>
      </trkpt>
      <trkpt lat="47.0191" lon="8.96238">
        <ele>856</ele>
        <time>2021-08-02T10:50:52.431Z</time>
      </trkpt>
      <trkpt lat="47.0191" lon="8.96237">
        <ele>856</ele>
        <time>2021-08-02T10:50:57.337Z</time>
      </trkpt>
      <trkpt lat="47.0191" lon="8.96236">
        <ele>855</ele>
        <time>2021-08-02T10:50:58.336Z</time>
      </trkpt>
      <trkpt lat="47.0191" lon="8.96236">
        <ele>855</ele>
        <time>2021-08-02T10:51:06.172Z</time>
      </trkpt>
      <trkpt lat="47.0191" lon="8.96236">
        <ele>855</ele>
        <time>2021-08-02T10:51:07.172Z</time>
      </trkpt>
      <trkpt lat="47.01911" lon="8.96235">
        <ele>854</ele>
        <time>2021-08-02T10:51:08.172Z</time>
      </trkpt>
      <trkpt lat="47.01911" lon="8.96235">
        <ele>854</ele>
        <time>2021-08-02T10:51:27.208Z</time>
      </trkpt>
      <trkpt lat="47.01911" lon="8.96234">
        <ele>853</ele>
        <time>2021-08-02T10:51:28.208Z</time>
      </trkpt>
      <trkpt lat="47.01911" lon="8.96233">
        <ele>853</ele>
        <time>2021-08-02T10:51:30.053Z</time>
      </trkpt>
      <trkpt lat="47.01911" lon="8.96232">
        <ele>852</ele>
        <time>2021-08-02T10:51:31.053Z</time>
      </trkpt>
      <trkpt lat="47.0191" lon="8.96231">
        <ele>852</ele>
        <time>2021-08-02T10:51:32.054Z</time>
      </trkpt>
      <trkpt lat="47.0191" lon="8.9623">
        <ele>852</ele>
        <time>2021-08-02T10:51:33.054Z</time>
      </trkpt>
      <trkpt lat="47.01911" lon="8.96228">
        <ele>852</ele>
        <time>2021-08-02T10:51:34.053Z</time>
      </trkpt>
      <trkpt lat="47.01911" lon="8.96226">
        <ele>851</ele>
        <time>2021-08-02T10:51:35.053Z</time>
      </trkpt>
      <trkpt lat="47.0191" lon="8.96224">
        <ele>850</ele>
        <time>2021-08-02T10:51:36.053Z</time>
      </trkpt>
      <trkpt lat="47.01911" lon="8.96223">
        <ele>850</ele>
        <time>2021-08-02T10:51:37.053Z</time>
      </trkpt>
      <trkpt lat="47.01911" lon="8.96222">
        <ele>850</ele>
        <time>2021-08-02T10:51:38.053Z</time>
      </trkpt>
      <trkpt lat="47.0191" lon="8.96221">
        <ele>850</ele>
        <time>2021-08-02T10:51:39.054Z</time>
      </trkpt>
      <trkpt lat="47.01911" lon="8.96219">
        <ele>850</ele>
        <time>2021-08-02T10:51:40.054Z</time>
      </trkpt>
      <trkpt lat="47.0191" lon="8.96218">
        <ele>849</ele>
        <time>2021-08-02T10:51:41.054Z</time>
      </trkpt>
      <trkpt lat="47.01909" lon="8.96217">
        <ele>849</ele>
        <time>2021-08-02T10:51:42.054Z</time>
      </trkpt>
      <trkpt lat="47.01908" lon="8.96215">
        <ele>849</ele>
        <time>2021-08-02T10:51:43.054Z</time>
      </trkpt>
      <trkpt lat="47.01908" lon="8.96214">
        <ele>848</ele>
        <time>2021-08-02T10:51:44.053Z</time>
      </trkpt>
      <trkpt lat="47.01907" lon="8.96212">
        <ele>848</ele>
        <time>2021-08-02T10:51:52.070Z</time>
      </trkpt>
      <trkpt lat="47.01907" lon="8.9621">
        <ele>848</ele>
        <time>2021-08-02T10:51:53.071Z</time>
      </trkpt>
      <trkpt lat="47.01906" lon="8.96209">
        <ele>847</ele>
        <time>2021-08-02T10:51:54.071Z</time>
      </trkpt>
      <trkpt lat="47.01906" lon="8.96208">
        <ele>847</ele>
        <time>2021-08-02T10:51:55.071Z</time>
      </trkpt>
      <trkpt lat="47.01907" lon="8.96207">
        <ele>847</ele>
        <time>2021-08-02T10:52:09.065Z</time>
      </trkpt>
      <trkpt lat="47.01907" lon="8.96207">
        <ele>847</ele>
        <time>2021-08-02T10:52:10.065Z</time>
      </trkpt>
      <trkpt lat="47.01907" lon="8.96206">
        <ele>847</ele>
        <time>2021-08-02T10:52:11.065Z</time>
      </trkpt>
      <trkpt lat="47.01906" lon="8.96207">
        <ele>848</ele>
        <time>2021-08-02T10:52:12.065Z</time>
      </trkpt>
      <trkpt lat="47.01906" lon="8.96207">
        <ele>848</ele>
        <time>2021-08-02T10:52:13.065Z</time>
      </trkpt>
      <trkpt lat="47.01908" lon="8.96206">
        <ele>848</ele>
        <time>2021-08-02T10:52:14.065Z</time>
      </trkpt>
      <trkpt lat="47.0191" lon="8.96205">
        <ele>849</ele>
        <time>2021-08-02T10:52:15.065Z</time>
      </trkpt>
      <trkpt lat="47.01911" lon="8.96204">
        <ele>849</ele>
        <time>2021-08-02T10:52:22.063Z</time>
      </trkpt>
      <trkpt lat="47.01911" lon="8.96202">
        <ele>850</ele>
        <time>2021-08-02T10:52:23.062Z</time>
      </trkpt>
      <trkpt lat="47.01911" lon="8.96201">
        <ele>850</ele>
        <time>2021-08-02T10:52:24.063Z</time>
      </trkpt>
      <trkpt lat="47.0191" lon="8.96199">
        <ele>851</ele>
        <time>2021-08-02T10:52:25.063Z</time>
      </trkpt>
      <trkpt lat="47.0191" lon="8.96198">
        <ele>851</ele>
        <time>2021-08-02T10:52:26.063Z</time>
      </trkpt>
      <trkpt lat="47.01911" lon="8.96197">
        <ele>852</ele>
        <time>2021-08-02T10:52:27.062Z</time>
      </trkpt>
      <trkpt lat="47.01911" lon="8.96197">
        <ele>852</ele>
        <time>2021-08-02T10:52:28.063Z</time>
      </trkpt>
      <trkpt lat="47.01911" lon="8.96196">
        <ele>852</ele>
        <time>2021-08-02T10:52:29.063Z</time>
      </trkpt>
      <trkpt lat="47.01911" lon="8.96196">
        <ele>852</ele>
        <time>2021-08-02T10:52:33.103Z</time>
      </trkpt>
      <trkpt lat="47.01912" lon="8.96196">
        <ele>852</ele>
        <time>2021-08-02T10:52:34.103Z</time>
      </trkpt>
      <trkpt lat="47.01912" lon="8.96195">
        <ele>852</ele>
        <time>2021-08-02T10:52:35.104Z</time>
      </trkpt>
      <trkpt lat="47.01912" lon="8.96194">
        <ele>851</ele>
        <time>2021-08-02T10:52:36.103Z</time>
      </trkpt>
      <trkpt lat="47.01912" lon="8.96194">
        <ele>851</ele>
        <time>2021-08-02T10:52:37.103Z</time>
      </trkpt>
      <trkpt lat="47.01909" lon="8.96191">
        <ele>851</ele>
        <time>2021-08-02T10:52:38.103Z</time>
      </trkpt>
      <trkpt lat="47.01908" lon="8.96192">
        <ele>851</ele>
        <time>2021-08-02T10:52:39.103Z</time>
      </trkpt>
      <trkpt lat="47.01908" lon="8.96192">
        <ele>851</ele>
        <time>2021-08-02T10:52:40.103Z</time>
      </trkpt>
      <trkpt lat="47.01908" lon="8.96191">
        <ele>853</ele>
        <time>2021-08-02T10:52:41.103Z</time>
      </trkpt>
      <trkpt lat="47.01906" lon="8.96197">
        <ele>852</ele>
        <time>2021-08-02T10:52:42.103Z</time>
      </trkpt>
      <trkpt lat="47.01906" lon="8.96198">
        <ele>852</ele>
        <time>2021-08-02T10:52:43.103Z</time>
      </trkpt>
      <trkpt lat="47.01907" lon="8.962">
        <ele>850</ele>
        <time>2021-08-02T10:52:44.103Z</time>
      </trkpt>
      <trkpt lat="47.01908" lon="8.96201">
        <ele>849</ele>
        <time>2021-08-02T10:52:45.103Z</time>
      </trkpt>
      <trkpt lat="47.01908" lon="8.96201">
        <ele>848</ele>
        <time>2021-08-02T10:52:46.104Z</time>
      </trkpt>
      <trkpt lat="47.01909" lon="8.96202">
        <ele>847</ele>
        <time>2021-08-02T10:52:47.103Z</time>
      </trkpt>
      <trkpt lat="47.0191" lon="8.96201">
        <ele>846</ele>
        <time>2021-08-02T10:52:53.062Z</time>
      </trkpt>
      <trkpt lat="47.01912" lon="8.962">
        <ele>846</ele>
        <time>2021-08-02T10:52:54.062Z</time>
      </trkpt>
      <trkpt lat="47.01912" lon="8.96199">
        <ele>846</ele>
        <time>2021-08-02T10:52:55.063Z</time>
      </trkpt>
      <trkpt lat="47.01913" lon="8.96197">
        <ele>846</ele>
        <time>2021-08-02T10:52:56.062Z</time>
      </trkpt>
      <trkpt lat="47.01914" lon="8.96196">
        <ele>846</ele>
        <time>2021-08-02T10:52:57.062Z</time>
      </trkpt>
      <trkpt lat="47.01914" lon="8.96195">
        <ele>845</ele>
        <time>2021-08-02T10:52:58.062Z</time>
      </trkpt>
      <trkpt lat="47.01914" lon="8.96193">
        <ele>845</ele>
        <time>2021-08-02T10:52:59.062Z</time>
      </trkpt>
      <trkpt lat="47.01914" lon="8.96192">
        <ele>845</ele>
        <time>2021-08-02T10:53:00.062Z</time>
      </trkpt>
      <trkpt lat="47.01915" lon="8.96191">
        <ele>845</ele>
        <time>2021-08-02T10:53:01.062Z</time>
      </trkpt>
      <trkpt lat="47.01915" lon="8.96189">
        <ele>845</ele>
        <time>2021-08-02T10:53:02.062Z</time>
      </trkpt>
      <trkpt lat="47.01915" lon="8.96188">
        <ele>845</ele>
        <time>2021-08-02T10:53:03.062Z</time>
      </trkpt>
      <trkpt lat="47.01915" lon="8.96188">
        <ele>845</ele>
        <time>2021-08-02T10:53:04.062Z</time>
      </trkpt>
      <trkpt lat="47.01915" lon="8.96185">
        <ele>846</ele>
        <time>2021-08-02T10:53:05.062Z</time>
      </trkpt>
      <trkpt lat="47.01915" lon="8.96184">
        <ele>846</ele>
        <time>2021-08-02T10:53:06.062Z</time>
      </trkpt>
      <trkpt lat="47.01915" lon="8.96182">
        <ele>846</ele>
        <time>2021-08-02T10:53:07.062Z</time>
      </trkpt>
      <trkpt lat="47.01915" lon="8.96181">
        <ele>847</ele>
        <time>2021-08-02T10:53:11.053Z</time>
      </trkpt>
      <trkpt lat="47.01915" lon="8.9618">
        <ele>847</ele>
        <time>2021-08-02T10:53:12.053Z</time>
      </trkpt>
      <trkpt lat="47.01914" lon="8.96178">
        <ele>847</ele>
        <time>2021-08-02T10:53:13.053Z</time>
      </trkpt>
      <trkpt lat="47.01914" lon="8.96178">
        <ele>848</ele>
        <time>2021-08-02T10:53:16.955Z</time>
      </trkpt>
      <trkpt lat="47.01914" lon="8.96177">
        <ele>848</ele>
        <time>2021-08-02T10:53:17.955Z</time>
      </trkpt>
      <trkpt lat="47.01914" lon="8.96176">
        <ele>849</ele>
        <time>2021-08-02T10:53:18.955Z</time>
      </trkpt>
      <trkpt lat="47.01915" lon="8.96176">
        <ele>850</ele>
        <time>2021-08-02T10:53:23.931Z</time>
      </trkpt>
      <trkpt lat="47.01915" lon="8.96176">
        <ele>850</ele>
        <time>2021-08-02T10:53:24.931Z</time>
      </trkpt>
      <trkpt lat="47.01916" lon="8.96176">
        <ele>851</ele>
        <time>2021-08-02T10:53:25.931Z</time>
      </trkpt>
      <trkpt lat="47.01915" lon="8.96174">
        <ele>851</ele>
        <time>2021-08-02T10:53:30.789Z</time>
      </trkpt>
      <trkpt lat="47.01914" lon="8.96171">
        <ele>851</ele>
        <time>2021-08-02T10:53:31.789Z</time>
      </trkpt>
      <trkpt lat="47.01914" lon="8.96164">
        <ele>852</ele>
        <time>2021-08-02T10:53:32.789Z</time>
      </trkpt>
      <trkpt lat="47.01914" lon="8.96164">
        <ele>853</ele>
        <time>2021-08-02T10:54:04.795Z</time>
      </trkpt>
      <trkpt lat="47.01914" lon="8.96165">
        <ele>853</ele>
        <time>2021-08-02T10:54:05.795Z</time>
      </trkpt>
      <trkpt lat="47.01914" lon="8.96166">
        <ele>853</ele>
        <time>2021-08-02T10:54:06.796Z</time>
      </trkpt>
      <trkpt lat="47.01914" lon="8.96166">
        <ele>853</ele>
        <time>2021-08-02T10:54:07.796Z</time>
      </trkpt>
      <trkpt lat="47.01914" lon="8.96166">
        <ele>853</ele>
        <time>2021-08-02T10:54:08.796Z</time>
      </trkpt>
      <trkpt lat="47.01913" lon="8.96166">
        <ele>852</ele>
        <time>2021-08-02T10:54:09.797Z</time>
      </trkpt>
      <trkpt lat="47.01913" lon="8.96166">
        <ele>853</ele>
        <time>2021-08-02T10:54:10.672Z</time>
      </trkpt>
      <trkpt lat="47.01912" lon="8.96165">
        <ele>853</ele>
        <time>2021-08-02T10:54:13.787Z</time>
      </trkpt>
      <trkpt lat="47.01911" lon="8.96164">
        <ele>853</ele>
        <time>2021-08-02T10:54:15.395Z</time>
      </trkpt>
      <trkpt lat="47.01912" lon="8.96164">
        <ele>854</ele>
        <time>2021-08-02T10:54:16.395Z</time>
      </trkpt>
      <trkpt lat="47.01914" lon="8.96165">
        <ele>856</ele>
        <time>2021-08-02T10:54:17.395Z</time>
      </trkpt>
      <trkpt lat="47.01915" lon="8.96164">
        <ele>857</ele>
        <time>2021-08-02T10:54:18.395Z</time>
      </trkpt>
      <trkpt lat="47.01915" lon="8.96164">
        <ele>857</ele>
        <time>2021-08-02T10:54:19.395Z</time>
      </trkpt>
      <trkpt lat="47.01916" lon="8.96163">
        <ele>857</ele>
        <time>2021-08-02T10:54:20.395Z</time>
      </trkpt>
      <trkpt lat="47.01916" lon="8.96162">
        <ele>858</ele>
        <time>2021-08-02T10:54:21.395Z</time>
      </trkpt>
      <trkpt lat="47.01916" lon="8.96162">
        <ele>858</ele>
        <time>2021-08-02T10:54:22.395Z</time>
      </trkpt>
      <trkpt lat="47.01916" lon="8.96161">
        <ele>859</ele>
        <time>2021-08-02T10:54:23.395Z</time>
      </trkpt>
      <trkpt lat="47.01916" lon="8.9616">
        <ele>859</ele>
        <time>2021-08-02T10:54:24.395Z</time>
      </trkpt>
      <trkpt lat="47.01915" lon="8.9616">
        <ele>859</ele>
        <time>2021-08-02T10:54:44.316Z</time>
      </trkpt>
      <trkpt lat="47.01915" lon="8.96159">
        <ele>859</ele>
        <time>2021-08-02T10:54:45.316Z</time>
      </trkpt>
      <trkpt lat="47.01915" lon="8.96158">
        <ele>859</ele>
        <time>2021-08-02T10:54:46.316Z</time>
      </trkpt>
      <trkpt lat="47.01916" lon="8.96157">
        <ele>859</ele>
        <time>2021-08-02T10:54:47.316Z</time>
      </trkpt>
      <trkpt lat="47.01917" lon="8.96156">
        <ele>859</ele>
        <time>2021-08-02T10:54:50.277Z</time>
      </trkpt>
      <trkpt lat="47.01919" lon="8.96155">
        <ele>859</ele>
        <time>2021-08-02T10:54:51.277Z</time>
      </trkpt>
      <trkpt lat="47.01919" lon="8.96155">
        <ele>858</ele>
        <time>2021-08-02T10:54:52.277Z</time>
      </trkpt>
      <trkpt lat="47.0192" lon="8.96154">
        <ele>858</ele>
        <time>2021-08-02T10:54:53.277Z</time>
      </trkpt>
      <trkpt lat="47.01921" lon="8.96153">
        <ele>858</ele>
        <time>2021-08-02T10:55:18.185Z</time>
      </trkpt>
      <trkpt lat="47.01921" lon="8.96152">
        <ele>858</ele>
        <time>2021-08-02T10:55:19.185Z</time>
      </trkpt>
      <trkpt lat="47.01921" lon="8.96151">
        <ele>858</ele>
        <time>2021-08-02T10:55:20.185Z</time>
      </trkpt>
      <trkpt lat="47.01921" lon="8.96149">
        <ele>858</ele>
        <time>2021-08-02T10:55:21.185Z</time>
      </trkpt>
      <trkpt lat="47.01921" lon="8.96148">
        <ele>858</ele>
        <time>2021-08-02T10:55:22.185Z</time>
      </trkpt>
      <trkpt lat="47.01921" lon="8.96147">
        <ele>858</ele>
        <time>2021-08-02T10:55:23.185Z</time>
      </trkpt>
      <trkpt lat="47.0192" lon="8.96147">
        <ele>858</ele>
        <time>2021-08-02T10:55:24.185Z</time>
      </trkpt>
      <trkpt lat="47.0192" lon="8.96146">
        <ele>858</ele>
        <time>2021-08-02T10:55:25.185Z</time>
      </trkpt>
      <trkpt lat="47.0192" lon="8.96145">
        <ele>858</ele>
        <time>2021-08-02T10:55:35.174Z</time>
      </trkpt>
      <trkpt lat="47.01919" lon="8.96143">
        <ele>858</ele>
        <time>2021-08-02T10:55:36.174Z</time>
      </trkpt>
      <trkpt lat="47.01919" lon="8.96141">
        <ele>858</ele>
        <time>2021-08-02T10:55:37.174Z</time>
      </trkpt>
      <trkpt lat="47.01919" lon="8.9614">
        <ele>858</ele>
        <time>2021-08-02T10:55:43.277Z</time>
      </trkpt>
      <trkpt lat="47.01919" lon="8.96138">
        <ele>858</ele>
        <time>2021-08-02T10:55:44.277Z</time>
      </trkpt>
      <trkpt lat="47.01919" lon="8.96136">
        <ele>858</ele>
        <time>2021-08-02T10:55:53.067Z</time>
      </trkpt>
      <trkpt lat="47.01918" lon="8.96135">
        <ele>858</ele>
        <time>2021-08-02T10:55:54.067Z</time>
      </trkpt>
      <trkpt lat="47.01918" lon="8.96134">
        <ele>857</ele>
        <time>2021-08-02T10:55:55.910Z</time>
      </trkpt>
      <trkpt lat="47.01918" lon="8.96133">
        <ele>857</ele>
        <time>2021-08-02T10:56:12.682Z</time>
      </trkpt>
      <trkpt lat="47.01918" lon="8.96132">
        <ele>857</ele>
        <time>2021-08-02T10:56:28.541Z</time>
      </trkpt>
      <trkpt lat="47.01917" lon="8.9613">
        <ele>857</ele>
        <time>2021-08-02T10:56:29.541Z</time>
      </trkpt>
      <trkpt lat="47.01916" lon="8.96129">
        <ele>857</ele>
        <time>2021-08-02T10:56:30.541Z</time>
      </trkpt>
      <trkpt lat="47.01916" lon="8.96128">
        <ele>857</ele>
        <time>2021-08-02T10:56:31.541Z</time>
      </trkpt>
      <trkpt lat="47.01915" lon="8.96126">
        <ele>857</ele>
        <time>2021-08-02T10:56:32.541Z</time>
      </trkpt>
      <trkpt lat="47.01915" lon="8.96126">
        <ele>857</ele>
        <time>2021-08-02T10:56:33.541Z</time>
      </trkpt>
      <trkpt lat="47.01915" lon="8.96124">
        <ele>857</ele>
        <time>2021-08-02T10:56:34.541Z</time>
      </trkpt>
      <trkpt lat="47.01914" lon="8.96124">
        <ele>857</ele>
        <time>2021-08-02T10:56:35.541Z</time>
      </trkpt>
      <trkpt lat="47.01913" lon="8.96123">
        <ele>857</ele>
        <time>2021-08-02T10:56:36.541Z</time>
      </trkpt>
      <trkpt lat="47.01913" lon="8.96122">
        <ele>858</ele>
        <time>2021-08-02T10:56:37.541Z</time>
      </trkpt>
      <trkpt lat="47.01912" lon="8.9612">
        <ele>858</ele>
        <time>2021-08-02T10:56:38.541Z</time>
      </trkpt>
      <trkpt lat="47.0191" lon="8.96118">
        <ele>858</ele>
        <time>2021-08-02T10:56:39.541Z</time>
      </trkpt>
      <trkpt lat="47.0191" lon="8.96116">
        <ele>858</ele>
        <time>2021-08-02T10:56:51.457Z</time>
      </trkpt>
      <trkpt lat="47.0191" lon="8.96114">
        <ele>858</ele>
        <time>2021-08-02T10:56:52.457Z</time>
      </trkpt>
      <trkpt lat="47.01909" lon="8.96111">
        <ele>858</ele>
        <time>2021-08-02T10:56:53.457Z</time>
      </trkpt>
      <trkpt lat="47.01908" lon="8.9611">
        <ele>859</ele>
        <time>2021-08-02T10:56:54.457Z</time>
      </trkpt>
      <trkpt lat="47.01908" lon="8.96109">
        <ele>859</ele>
        <time>2021-08-02T10:56:55.457Z</time>
      </trkpt>
      <trkpt lat="47.01907" lon="8.96108">
        <ele>859</ele>
        <time>2021-08-02T10:56:56.457Z</time>
      </trkpt>
      <trkpt lat="47.01906" lon="8.96107">
        <ele>859</ele>
        <time>2021-08-02T10:56:57.457Z</time>
      </trkpt>
      <trkpt lat="47.01905" lon="8.96106">
        <ele>859</ele>
        <time>2021-08-02T10:56:58.457Z</time>
      </trkpt>
      <trkpt lat="47.01905" lon="8.96106">
        <ele>859</ele>
        <time>2021-08-02T10:56:59.457Z</time>
      </trkpt>
      <trkpt lat="47.01905" lon="8.96106">
        <ele>859</ele>
        <time>2021-08-02T10:57:00.457Z</time>
      </trkpt>
      <trkpt lat="47.01906" lon="8.96105">
        <ele>859</ele>
        <time>2021-08-02T10:57:01.457Z</time>
      </trkpt>
      <trkpt lat="47.01907" lon="8.96104">
        <ele>859</ele>
        <time>2021-08-02T10:57:02.457Z</time>
      </trkpt>
      <trkpt lat="47.01907" lon="8.96103">
        <ele>859</ele>
        <time>2021-08-02T10:57:03.457Z</time>
      </trkpt>
      <trkpt lat="47.01907" lon="8.96102">
        <ele>859</ele>
        <time>2021-08-02T10:57:04.457Z</time>
      </trkpt>
      <trkpt lat="47.01908" lon="8.961">
        <ele>858</ele>
        <time>2021-08-02T10:57:05.457Z</time>
      </trkpt>
      <trkpt lat="47.01909" lon="8.96099">
        <ele>858</ele>
        <time>2021-08-02T10:57:08.328Z</time>
      </trkpt>
      <trkpt lat="47.01909" lon="8.96097">
        <ele>858</ele>
        <time>2021-08-02T10:57:24.224Z</time>
      </trkpt>
      <trkpt lat="47.0191" lon="8.96095">
        <ele>858</ele>
        <time>2021-08-02T10:57:25.224Z</time>
      </trkpt>
      <trkpt lat="47.0191" lon="8.96094">
        <ele>857</ele>
        <time>2021-08-02T10:57:26.224Z</time>
      </trkpt>
      <trkpt lat="47.0191" lon="8.96091">
        <ele>857</ele>
        <time>2021-08-02T10:57:27.224Z</time>
      </trkpt>
      <trkpt lat="47.01909" lon="8.96089">
        <ele>857</ele>
        <time>2021-08-02T10:57:31.206Z</time>
      </trkpt>
      <trkpt lat="47.01909" lon="8.96087">
        <ele>857</ele>
        <time>2021-08-02T10:57:32.206Z</time>
      </trkpt>
      <trkpt lat="47.0191" lon="8.96085">
        <ele>857</ele>
        <time>2021-08-02T10:57:33.206Z</time>
      </trkpt>
      <trkpt lat="47.01911" lon="8.96084">
        <ele>856</ele>
        <time>2021-08-02T10:57:53.341Z</time>
      </trkpt>
      <trkpt lat="47.01912" lon="8.96082">
        <ele>856</ele>
        <time>2021-08-02T10:57:54.341Z</time>
      </trkpt>
      <trkpt lat="47.01912" lon="8.9608">
        <ele>856</ele>
        <time>2021-08-02T10:58:03.161Z</time>
      </trkpt>
      <trkpt lat="47.01914" lon="8.96079">
        <ele>856</ele>
        <time>2021-08-02T10:58:04.161Z</time>
      </trkpt>
      <trkpt lat="47.01914" lon="8.96077">
        <ele>856</ele>
        <time>2021-08-02T10:58:05.161Z</time>
      </trkpt>
      <trkpt lat="47.01914" lon="8.96075">
        <ele>856</ele>
        <time>2021-08-02T10:58:21.911Z</time>
      </trkpt>
      <trkpt lat="47.01915" lon="8.96075">
        <ele>856</ele>
        <time>2021-08-02T10:58:22.911Z</time>
      </trkpt>
      <trkpt lat="47.01915" lon="8.96075">
        <ele>856</ele>
        <time>2021-08-02T10:58:39.020Z</time>
      </trkpt>
      <trkpt lat="47.01914" lon="8.96075">
        <ele>856</ele>
        <time>2021-08-02T10:58:40.021Z</time>
      </trkpt>
      <trkpt lat="47.01914" lon="8.96075">
        <ele>856</ele>
        <time>2021-08-02T10:58:41.022Z</time>
      </trkpt>
      <trkpt lat="47.01915" lon="8.96075">
        <ele>856</ele>
        <time>2021-08-02T10:58:52.765Z</time>
      </trkpt>
      <trkpt lat="47.01914" lon="8.96075">
        <ele>856</ele>
        <time>2021-08-02T10:58:53.766Z</time>
      </trkpt>
      <trkpt lat="47.01914" lon="8.96076">
        <ele>856</ele>
        <time>2021-08-02T10:58:58.522Z</time>
      </trkpt>
      <trkpt lat="47.01915" lon="8.96076">
        <ele>856</ele>
        <time>2021-08-02T10:58:59.522Z</time>
      </trkpt>
      <trkpt lat="47.01915" lon="8.96076">
        <ele>856</ele>
        <time>2021-08-02T10:59:00.523Z</time>
      </trkpt>
      <trkpt lat="47.01915" lon="8.96076">
        <ele>856</ele>
        <time>2021-08-02T10:59:01.522Z</time>
      </trkpt>
      <trkpt lat="47.01916" lon="8.96076">
        <ele>856</ele>
        <time>2021-08-02T10:59:02.522Z</time>
      </trkpt>
      <trkpt lat="47.01917" lon="8.96076">
        <ele>856</ele>
        <time>2021-08-02T10:59:03.523Z</time>
      </trkpt>
      <trkpt lat="47.01917" lon="8.96076">
        <ele>856</ele>
        <time>2021-08-02T10:59:04.523Z</time>
      </trkpt>
      <trkpt lat="47.01917" lon="8.96076">
        <ele>856</ele>
        <time>2021-08-02T10:59:09.529Z</time>
      </trkpt>
      <trkpt lat="47.01918" lon="8.96076">
        <ele>855</ele>
        <time>2021-08-02T10:59:10.530Z</time>
      </trkpt>
      <trkpt lat="47.01917" lon="8.96075">
        <ele>855</ele>
        <time>2021-08-02T10:59:11.530Z</time>
      </trkpt>
      <trkpt lat="47.01917" lon="8.96075">
        <ele>855</ele>
        <time>2021-08-02T10:59:12.529Z</time>
      </trkpt>
      <trkpt lat="47.01917" lon="8.96074">
        <ele>854</ele>
        <time>2021-08-02T10:59:20.653Z</time>
      </trkpt>
      <trkpt lat="47.01917" lon="8.96073">
        <ele>854</ele>
        <time>2021-08-02T10:59:21.653Z</time>
      </trkpt>
      <trkpt lat="47.01917" lon="8.96072">
        <ele>854</ele>
        <time>2021-08-02T10:59:29.393Z</time>
      </trkpt>
      <trkpt lat="47.01917" lon="8.9607">
        <ele>854</ele>
        <time>2021-08-02T10:59:32.136Z</time>
      </trkpt>
      <trkpt lat="47.01917" lon="8.96069">
        <ele>854</ele>
        <time>2021-08-02T10:59:33.135Z</time>
      </trkpt>
      <trkpt lat="47.01917" lon="8.96067">
        <ele>854</ele>
        <time>2021-08-02T10:59:34.909Z</time>
      </trkpt>
      <trkpt lat="47.01917" lon="8.96066">
        <ele>854</ele>
        <time>2021-08-02T10:59:35.910Z</time>
      </trkpt>
      <trkpt lat="47.01918" lon="8.96065">
        <ele>855</ele>
        <time>2021-08-02T10:59:38.033Z</time>
      </trkpt>
      <trkpt lat="47.01917" lon="8.96065">
        <ele>855</ele>
        <time>2021-08-02T10:59:39.034Z</time>
      </trkpt>
      <trkpt lat="47.01917" lon="8.96065">
        <ele>855</ele>
        <time>2021-08-02T10:59:40.034Z</time>
      </trkpt>
      <trkpt lat="47.01918" lon="8.96066">
        <ele>856</ele>
        <time>2021-08-02T10:59:41.034Z</time>
      </trkpt>
      <trkpt lat="47.01918" lon="8.96066">
        <ele>856</ele>
        <time>2021-08-02T10:59:42.035Z</time>
      </trkpt>
      <trkpt lat="47.01918" lon="8.96066">
        <ele>856</ele>
        <time>2021-08-02T10:59:52.033Z</time>
      </trkpt>
      <trkpt lat="47.01918" lon="8.96064">
        <ele>857</ele>
        <time>2021-08-02T10:59:53.034Z</time>
      </trkpt>
      <trkpt lat="47.01918" lon="8.96062">
        <ele>857</ele>
        <time>2021-08-02T10:59:54.034Z</time>
      </trkpt>
      <trkpt lat="47.01917" lon="8.96061">
        <ele>856</ele>
        <time>2021-08-02T11:00:07.197Z</time>
      </trkpt>
      <trkpt lat="47.01917" lon="8.9606">
        <ele>856</ele>
        <time>2021-08-02T11:00:08.197Z</time>
      </trkpt>
      <trkpt lat="47.01917" lon="8.9606">
        <ele>856</ele>
        <time>2021-08-02T11:00:09.197Z</time>
      </trkpt>
      <trkpt lat="47.01916" lon="8.96059">
        <ele>856</ele>
        <time>2021-08-02T11:00:10.198Z</time>
      </trkpt>
      <trkpt lat="47.01916" lon="8.96059">
        <ele>856</ele>
        <time>2021-08-02T11:00:11.198Z</time>
      </trkpt>
      <trkpt lat="47.01916" lon="8.9606">
        <ele>856</ele>
        <time>2021-08-02T11:00:12.197Z</time>
      </trkpt>
      <trkpt lat="47.01916" lon="8.96058">
        <ele>856</ele>
        <time>2021-08-02T11:00:13.199Z</time>
      </trkpt>
      <trkpt lat="47.01916" lon="8.96057">
        <ele>856</ele>
        <time>2021-08-02T11:00:14.199Z</time>
      </trkpt>
      <trkpt lat="47.01915" lon="8.96056">
        <ele>856</ele>
        <time>2021-08-02T11:00:21.278Z</time>
      </trkpt>
      <trkpt lat="47.01915" lon="8.96056">
        <ele>855</ele>
        <time>2021-08-02T11:00:38.165Z</time>
      </trkpt>
      <trkpt lat="47.01914" lon="8.96056">
        <ele>855</ele>
        <time>2021-08-02T11:00:52.050Z</time>
      </trkpt>
      <trkpt lat="47.01914" lon="8.96056">
        <ele>855</ele>
        <time>2021-08-02T11:00:53.050Z</time>
      </trkpt>
      <trkpt lat="47.01912" lon="8.96056">
        <ele>855</ele>
        <time>2021-08-02T11:00:54.051Z</time>
      </trkpt>
      <trkpt lat="47.01911" lon="8.96056">
        <ele>855</ele>
        <time>2021-08-02T11:00:55.051Z</time>
      </trkpt>
      <trkpt lat="47.01911" lon="8.96057">
        <ele>855</ele>
        <time>2021-08-02T11:01:11.173Z</time>
      </trkpt>
      <trkpt lat="47.0191" lon="8.96057">
        <ele>855</ele>
        <time>2021-08-02T11:01:12.174Z</time>
      </trkpt>
      <trkpt lat="47.0191" lon="8.96057">
        <ele>855</ele>
        <time>2021-08-02T11:01:13.173Z</time>
      </trkpt>
      <trkpt lat="47.01908" lon="8.96056">
        <ele>855</ele>
        <time>2021-08-02T11:01:14.174Z</time>
      </trkpt>
      <trkpt lat="47.01907" lon="8.96055">
        <ele>855</ele>
        <time>2021-08-02T11:01:20.296Z</time>
      </trkpt>
      <trkpt lat="47.01903" lon="8.96053">
        <ele>854</ele>
        <time>2021-08-02T11:01:21.296Z</time>
      </trkpt>
      <trkpt lat="47.01902" lon="8.96053">
        <ele>854</ele>
        <time>2021-08-02T11:01:22.296Z</time>
      </trkpt>
      <trkpt lat="47.01902" lon="8.96053">
        <ele>854</ele>
        <time>2021-08-02T11:01:23.297Z</time>
      </trkpt>
      <trkpt lat="47.01901" lon="8.96052">
        <ele>854</ele>
        <time>2021-08-02T11:01:24.297Z</time>
      </trkpt>
      <trkpt lat="47.01902" lon="8.96052">
        <ele>854</ele>
        <time>2021-08-02T11:01:25.297Z</time>
      </trkpt>
      <trkpt lat="47.01902" lon="8.96051">
        <ele>854</ele>
        <time>2021-08-02T11:01:26.297Z</time>
      </trkpt>
      <trkpt lat="47.01902" lon="8.9605">
        <ele>854</ele>
        <time>2021-08-02T11:01:27.297Z</time>
      </trkpt>
      <trkpt lat="47.01902" lon="8.96049">
        <ele>853</ele>
        <time>2021-08-02T11:01:28.297Z</time>
      </trkpt>
      <trkpt lat="47.01902" lon="8.96048">
        <ele>853</ele>
        <time>2021-08-02T11:01:29.297Z</time>
      </trkpt>
      <trkpt lat="47.01902" lon="8.96047">
        <ele>852</ele>
        <time>2021-08-02T11:01:33.387Z</time>
      </trkpt>
      <trkpt lat="47.01902" lon="8.96045">
        <ele>852</ele>
        <time>2021-08-02T11:01:46.137Z</time>
      </trkpt>
      <trkpt lat="47.01903" lon="8.96044">
        <ele>852</ele>
        <time>2021-08-02T11:01:47.137Z</time>
      </trkpt>
      <trkpt lat="47.01903" lon="8.96043">
        <ele>851</ele>
        <time>2021-08-02T11:01:48.137Z</time>
      </trkpt>
      <trkpt lat="47.01903" lon="8.96041">
        <ele>851</ele>
        <time>2021-08-02T11:01:49.137Z</time>
      </trkpt>
      <trkpt lat="47.01903" lon="8.9604">
        <ele>851</ele>
        <time>2021-08-02T11:01:50.137Z</time>
      </trkpt>
      <trkpt lat="47.01904" lon="8.96039">
        <ele>851</ele>
        <time>2021-08-02T11:01:51.137Z</time>
      </trkpt>
      <trkpt lat="47.01904" lon="8.96038">
        <ele>850</ele>
        <time>2021-08-02T11:02:33.175Z</time>
      </trkpt>
      <trkpt lat="47.01905" lon="8.96038">
        <ele>850</ele>
        <time>2021-08-02T11:02:34.175Z</time>
      </trkpt>
      <trkpt lat="47.01906" lon="8.96037">
        <ele>850</ele>
        <time>2021-08-02T11:02:44.024Z</time>
      </trkpt>
      <trkpt lat="47.01907" lon="8.96036">
        <ele>850</ele>
        <time>2021-08-02T11:02:45.025Z</time>
      </trkpt>
      <trkpt lat="47.01906" lon="8.96034">
        <ele>850</ele>
        <time>2021-08-02T11:02:46.024Z</time>
      </trkpt>
      <trkpt lat="47.01905" lon="8.96032">
        <ele>850</ele>
        <time>2021-08-02T11:02:57.011Z</time>
      </trkpt>
      <trkpt lat="47.01904" lon="8.96031">
        <ele>850</ele>
        <time>2021-08-02T11:02:58.011Z</time>
      </trkpt>
      <trkpt lat="47.01905" lon="8.96029">
        <ele>849</ele>
        <time>2021-08-02T11:02:59.011Z</time>
      </trkpt>
      <trkpt lat="47.01905" lon="8.96028">
        <ele>849</ele>
        <time>2021-08-02T11:03:00.011Z</time>
      </trkpt>
      <trkpt lat="47.01906" lon="8.96026">
        <ele>849</ele>
        <time>2021-08-02T11:03:01.011Z</time>
      </trkpt>
      <trkpt lat="47.01906" lon="8.96024">
        <ele>849</ele>
        <time>2021-08-02T11:03:07.065Z</time>
      </trkpt>
      <trkpt lat="47.01906" lon="8.96022">
        <ele>849</ele>
        <time>2021-08-02T11:03:08.066Z</time>
      </trkpt>
      <trkpt lat="47.01906" lon="8.9602">
        <ele>849</ele>
        <time>2021-08-02T11:03:09.065Z</time>
      </trkpt>
      <trkpt lat="47.01906" lon="8.96019">
        <ele>849</ele>
        <time>2021-08-02T11:03:12.138Z</time>
      </trkpt>
      <trkpt lat="47.01906" lon="8.96017">
        <ele>849</ele>
        <time>2021-08-02T11:03:13.138Z</time>
      </trkpt>
      <trkpt lat="47.01906" lon="8.96016">
        <ele>849</ele>
        <time>2021-08-02T11:03:14.137Z</time>
      </trkpt>
      <trkpt lat="47.01905" lon="8.96015">
        <ele>849</ele>
        <time>2021-08-02T11:03:18.899Z</time>
      </trkpt>
      <trkpt lat="47.01905" lon="8.96013">
        <ele>848</ele>
        <time>2021-08-02T11:03:21.627Z</time>
      </trkpt>
      <trkpt lat="47.01905" lon="8.96011">
        <ele>848</ele>
        <time>2021-08-02T11:03:22.628Z</time>
      </trkpt>
      <trkpt lat="47.01905" lon="8.9601">
        <ele>848</ele>
        <time>2021-08-02T11:03:23.627Z</time>
      </trkpt>
      <trkpt lat="47.01904" lon="8.96009">
        <ele>848</ele>
        <time>2021-08-02T11:03:25.632Z</time>
      </trkpt>
      <trkpt lat="47.01905" lon="8.96007">
        <ele>848</ele>
        <time>2021-08-02T11:03:26.631Z</time>
      </trkpt>
      <trkpt lat="47.01905" lon="8.96005">
        <ele>848</ele>
        <time>2021-08-02T11:03:38.507Z</time>
      </trkpt>
      <trkpt lat="47.01905" lon="8.96004">
        <ele>848</ele>
        <time>2021-08-02T11:03:39.507Z</time>
      </trkpt>
      <trkpt lat="47.01905" lon="8.96002">
        <ele>847</ele>
        <time>2021-08-02T11:03:40.507Z</time>
      </trkpt>
      <trkpt lat="47.01906" lon="8.96">
        <ele>847</ele>
        <time>2021-08-02T11:03:41.507Z</time>
      </trkpt>
      <trkpt lat="47.01906" lon="8.95999">
        <ele>847</ele>
        <time>2021-08-02T11:03:44.491Z</time>
      </trkpt>
      <trkpt lat="47.01907" lon="8.95997">
        <ele>847</ele>
        <time>2021-08-02T11:03:45.491Z</time>
      </trkpt>
      <trkpt lat="47.01907" lon="8.95996">
        <ele>846</ele>
        <time>2021-08-02T11:03:46.491Z</time>
      </trkpt>
      <trkpt lat="47.01906" lon="8.95994">
        <ele>847</ele>
        <time>2021-08-02T11:03:47.491Z</time>
      </trkpt>
      <trkpt lat="47.01906" lon="8.95993">
        <ele>847</ele>
        <time>2021-08-02T11:03:48.491Z</time>
      </trkpt>
      <trkpt lat="47.01907" lon="8.95991">
        <ele>847</ele>
        <time>2021-08-02T11:03:49.491Z</time>
      </trkpt>
      <trkpt lat="47.01907" lon="8.95989">
        <ele>847</ele>
        <time>2021-08-02T11:03:50.491Z</time>
      </trkpt>
      <trkpt lat="47.01907" lon="8.95988">
        <ele>847</ele>
        <time>2021-08-02T11:03:51.491Z</time>
      </trkpt>
      <trkpt lat="47.01907" lon="8.95986">
        <ele>848</ele>
        <time>2021-08-02T11:03:52.492Z</time>
      </trkpt>
      <trkpt lat="47.01906" lon="8.95984">
        <ele>848</ele>
        <time>2021-08-02T11:03:55.490Z</time>
      </trkpt>
      <trkpt lat="47.01907" lon="8.95982">
        <ele>848</ele>
        <time>2021-08-02T11:04:09.260Z</time>
      </trkpt>
      <trkpt lat="47.01907" lon="8.9598">
        <ele>848</ele>
        <time>2021-08-02T11:04:14.132Z</time>
      </trkpt>
      <trkpt lat="47.01906" lon="8.95978">
        <ele>848</ele>
        <time>2021-08-02T11:04:18.050Z</time>
      </trkpt>
      <trkpt lat="47.01907" lon="8.95976">
        <ele>848</ele>
        <time>2021-08-02T11:04:19.050Z</time>
      </trkpt>
      <trkpt lat="47.01907" lon="8.95975">
        <ele>848</ele>
        <time>2021-08-02T11:04:20.050Z</time>
      </trkpt>
      <trkpt lat="47.01905" lon="8.95972">
        <ele>848</ele>
        <time>2021-08-02T11:04:22.168Z</time>
      </trkpt>
      <trkpt lat="47.01905" lon="8.9597">
        <ele>848</ele>
        <time>2021-08-02T11:04:23.167Z</time>
      </trkpt>
      <trkpt lat="47.01905" lon="8.95969">
        <ele>849</ele>
        <time>2021-08-02T11:04:24.168Z</time>
      </trkpt>
      <trkpt lat="47.01908" lon="8.95967">
        <ele>849</ele>
        <time>2021-08-02T11:04:25.167Z</time>
      </trkpt>
      <trkpt lat="47.01909" lon="8.95966">
        <ele>849</ele>
        <time>2021-08-02T11:04:27.253Z</time>
      </trkpt>
      <trkpt lat="47.0191" lon="8.95964">
        <ele>849</ele>
        <time>2021-08-02T11:04:41.020Z</time>
      </trkpt>
      <trkpt lat="47.0191" lon="8.95963">
        <ele>849</ele>
        <time>2021-08-02T11:04:42.021Z</time>
      </trkpt>
      <trkpt lat="47.0191" lon="8.95961">
        <ele>850</ele>
        <time>2021-08-02T11:04:43.020Z</time>
      </trkpt>
      <trkpt lat="47.01911" lon="8.9596">
        <ele>850</ele>
        <time>2021-08-02T11:04:53.063Z</time>
      </trkpt>
      <trkpt lat="47.01911" lon="8.95958">
        <ele>850</ele>
        <time>2021-08-02T11:04:54.062Z</time>
      </trkpt>
      <trkpt lat="47.01911" lon="8.95957">
        <ele>850</ele>
        <time>2021-08-02T11:04:55.063Z</time>
      </trkpt>
      <trkpt lat="47.01911" lon="8.95956">
        <ele>850</ele>
        <time>2021-08-02T11:05:16.922Z</time>
      </trkpt>
      <trkpt lat="47.01911" lon="8.95954">
        <ele>850</ele>
        <time>2021-08-02T11:05:23.806Z</time>
      </trkpt>
      <trkpt lat="47.01911" lon="8.95953">
        <ele>850</ele>
        <time>2021-08-02T11:05:24.807Z</time>
      </trkpt>
      <trkpt lat="47.01911" lon="8.95951">
        <ele>850</ele>
        <time>2021-08-02T11:05:25.807Z</time>
      </trkpt>
      <trkpt lat="47.01909" lon="8.95949">
        <ele>850</ele>
        <time>2021-08-02T11:05:26.806Z</time>
      </trkpt>
      <trkpt lat="47.01909" lon="8.95947">
        <ele>850</ele>
        <time>2021-08-02T11:05:27.807Z</time>
      </trkpt>
      <trkpt lat="47.01908" lon="8.95945">
        <ele>850</ele>
        <time>2021-08-02T11:05:33.938Z</time>
      </trkpt>
      <trkpt lat="47.01908" lon="8.95943">
        <ele>850</ele>
        <time>2021-08-02T11:05:34.937Z</time>
      </trkpt>
      <trkpt lat="47.01907" lon="8.95942">
        <ele>849</ele>
        <time>2021-08-02T11:05:35.938Z</time>
      </trkpt>
      <trkpt lat="47.01907" lon="8.95941">
        <ele>849</ele>
        <time>2021-08-02T11:05:36.938Z</time>
      </trkpt>
      <trkpt lat="47.01907" lon="8.9594">
        <ele>849</ele>
        <time>2021-08-02T11:05:37.938Z</time>
      </trkpt>
      <trkpt lat="47.01908" lon="8.95938">
        <ele>849</ele>
        <time>2021-08-02T11:05:38.938Z</time>
      </trkpt>
      <trkpt lat="47.01907" lon="8.95936">
        <ele>849</ele>
        <time>2021-08-02T11:05:39.938Z</time>
      </trkpt>
      <trkpt lat="47.01905" lon="8.95933">
        <ele>849</ele>
        <time>2021-08-02T11:05:40.938Z</time>
      </trkpt>
      <trkpt lat="47.01904" lon="8.95932">
        <ele>850</ele>
        <time>2021-08-02T11:05:41.938Z</time>
      </trkpt>
      <trkpt lat="47.01903" lon="8.9593">
        <ele>849</ele>
        <time>2021-08-02T11:05:42.937Z</time>
      </trkpt>
      <trkpt lat="47.01903" lon="8.95928">
        <ele>849</ele>
        <time>2021-08-02T11:05:43.938Z</time>
      </trkpt>
      <trkpt lat="47.01904" lon="8.95927">
        <ele>849</ele>
        <time>2021-08-02T11:05:50.027Z</time>
      </trkpt>
      <trkpt lat="47.01903" lon="8.95925">
        <ele>849</ele>
        <time>2021-08-02T11:05:51.026Z</time>
      </trkpt>
      <trkpt lat="47.01904" lon="8.95924">
        <ele>849</ele>
        <time>2021-08-02T11:05:52.026Z</time>
      </trkpt>
      <trkpt lat="47.01905" lon="8.95922">
        <ele>849</ele>
        <time>2021-08-02T11:06:04.918Z</time>
      </trkpt>
      <trkpt lat="47.01905" lon="8.95921">
        <ele>849</ele>
        <time>2021-08-02T11:06:05.918Z</time>
      </trkpt>
      <trkpt lat="47.01905" lon="8.9592">
        <ele>850</ele>
        <time>2021-08-02T11:06:06.918Z</time>
      </trkpt>
      <trkpt lat="47.01905" lon="8.95919">
        <ele>850</ele>
        <time>2021-08-02T11:06:07.918Z</time>
      </trkpt>
      <trkpt lat="47.01904" lon="8.95918">
        <ele>850</ele>
        <time>2021-08-02T11:06:15.021Z</time>
      </trkpt>
      <trkpt lat="47.01904" lon="8.95917">
        <ele>850</ele>
        <time>2021-08-02T11:06:16.021Z</time>
      </trkpt>
      <trkpt lat="47.01905" lon="8.95916">
        <ele>850</ele>
        <time>2021-08-02T11:06:17.021Z</time>
      </trkpt>
      <trkpt lat="47.01906" lon="8.95915">
        <ele>850</ele>
        <time>2021-08-02T11:06:18.020Z</time>
      </trkpt>
      <trkpt lat="47.01906" lon="8.95913">
        <ele>850</ele>
        <time>2021-08-02T11:06:19.020Z</time>
      </trkpt>
      <trkpt lat="47.01907" lon="8.95912">
        <ele>850</ele>
        <time>2021-08-02T11:06:20.020Z</time>
      </trkpt>
      <trkpt lat="47.01907" lon="8.95911">
        <ele>850</ele>
        <time>2021-08-02T11:06:21.020Z</time>
      </trkpt>
      <trkpt lat="47.01907" lon="8.95909">
        <ele>850</ele>
        <time>2021-08-02T11:06:22.021Z</time>
      </trkpt>
      <trkpt lat="47.01908" lon="8.95908">
        <ele>850</ele>
        <time>2021-08-02T11:06:23.021Z</time>
      </trkpt>
      <trkpt lat="47.01909" lon="8.95906">
        <ele>850</ele>
        <time>2021-08-02T11:06:24.021Z</time>
      </trkpt>
      <trkpt lat="47.0191" lon="8.95905">
        <ele>850</ele>
        <time>2021-08-02T11:06:25.021Z</time>
      </trkpt>
      <trkpt lat="47.0191" lon="8.95903">
        <ele>850</ele>
        <time>2021-08-02T11:06:26.021Z</time>
      </trkpt>
      <trkpt lat="47.01911" lon="8.95902">
        <ele>849</ele>
        <time>2021-08-02T11:06:27.021Z</time>
      </trkpt>
      <trkpt lat="47.01911" lon="8.959">
        <ele>849</ele>
        <time>2021-08-02T11:06:28.020Z</time>
      </trkpt>
      <trkpt lat="47.01911" lon="8.95899">
        <ele>849</ele>
        <time>2021-08-02T11:06:29.020Z</time>
      </trkpt>
      <trkpt lat="47.01911" lon="8.95898">
        <ele>849</ele>
        <time>2021-08-02T11:06:30.020Z</time>
      </trkpt>
      <trkpt lat="47.01911" lon="8.95897">
        <ele>849</ele>
        <time>2021-08-02T11:06:31.020Z</time>
      </trkpt>
      <trkpt lat="47.01912" lon="8.95896">
        <ele>849</ele>
        <time>2021-08-02T11:06:32.020Z</time>
      </trkpt>
      <trkpt lat="47.01912" lon="8.95895">
        <ele>849</ele>
        <time>2021-08-02T11:06:33.021Z</time>
      </trkpt>
      <trkpt lat="47.01912" lon="8.95893">
        <ele>849</ele>
        <time>2021-08-02T11:06:34.020Z</time>
      </trkpt>
      <trkpt lat="47.01913" lon="8.95891">
        <ele>849</ele>
        <time>2021-08-02T11:06:35.020Z</time>
      </trkpt>
      <trkpt lat="47.01913" lon="8.95889">
        <ele>849</ele>
        <time>2021-08-02T11:06:36.020Z</time>
      </trkpt>
      <trkpt lat="47.01913" lon="8.95887">
        <ele>849</ele>
        <time>2021-08-02T11:06:37.021Z</time>
      </trkpt>
      <trkpt lat="47.01912" lon="8.95886">
        <ele>849</ele>
        <time>2021-08-02T11:06:38.021Z</time>
      </trkpt>
      <trkpt lat="47.01912" lon="8.95884">
        <ele>849</ele>
        <time>2021-08-02T11:06:39.020Z</time>
      </trkpt>
      <trkpt lat="47.01911" lon="8.95882">
        <ele>849</ele>
        <time>2021-08-02T11:06:40.021Z</time>
      </trkpt>
      <trkpt lat="47.0191" lon="8.9588">
        <ele>849</ele>
        <time>2021-08-02T11:06:41.021Z</time>
      </trkpt>
      <trkpt lat="47.01909" lon="8.95878">
        <ele>849</ele>
        <time>2021-08-02T11:06:42.020Z</time>
      </trkpt>
      <trkpt lat="47.01909" lon="8.95876">
        <ele>849</ele>
        <time>2021-08-02T11:06:43.021Z</time>
      </trkpt>
      <trkpt lat="47.01908" lon="8.95874">
        <ele>849</ele>
        <time>2021-08-02T11:06:44.021Z</time>
      </trkpt>
      <trkpt lat="47.01908" lon="8.95872">
        <ele>849</ele>
        <time>2021-08-02T11:06:45.021Z</time>
      </trkpt>
      <trkpt lat="47.01908" lon="8.95871">
        <ele>849</ele>
        <time>2021-08-02T11:06:46.020Z</time>
      </trkpt>
      <trkpt lat="47.01909" lon="8.9587">
        <ele>848</ele>
        <time>2021-08-02T11:06:49.046Z</time>
      </trkpt>
      <trkpt lat="47.0191" lon="8.95868">
        <ele>848</ele>
        <time>2021-08-02T11:06:50.046Z</time>
      </trkpt>
      <trkpt lat="47.01911" lon="8.95867">
        <ele>848</ele>
        <time>2021-08-02T11:06:51.046Z</time>
      </trkpt>
      <trkpt lat="47.01912" lon="8.95865">
        <ele>848</ele>
        <time>2021-08-02T11:06:52.045Z</time>
      </trkpt>
      <trkpt lat="47.01913" lon="8.95863">
        <ele>848</ele>
        <time>2021-08-02T11:06:53.045Z</time>
      </trkpt>
      <trkpt lat="47.01913" lon="8.95862">
        <ele>848</ele>
        <time>2021-08-02T11:06:54.046Z</time>
      </trkpt>
      <trkpt lat="47.01913" lon="8.9586">
        <ele>848</ele>
        <time>2021-08-02T11:06:55.045Z</time>
      </trkpt>
      <trkpt lat="47.01914" lon="8.95859">
        <ele>848</ele>
        <time>2021-08-02T11:06:56.046Z</time>
      </trkpt>
      <trkpt lat="47.01914" lon="8.95857">
        <ele>848</ele>
        <time>2021-08-02T11:06:57.045Z</time>
      </trkpt>
      <trkpt lat="47.01915" lon="8.95856">
        <ele>848</ele>
        <time>2021-08-02T11:06:58.046Z</time>
      </trkpt>
      <trkpt lat="47.01915" lon="8.95854">
        <ele>848</ele>
        <time>2021-08-02T11:06:59.046Z</time>
      </trkpt>
      <trkpt lat="47.01915" lon="8.95853">
        <ele>849</ele>
        <time>2021-08-02T11:07:00.046Z</time>
      </trkpt>
      <trkpt lat="47.01916" lon="8.95851">
        <ele>849</ele>
        <time>2021-08-02T11:07:01.045Z</time>
      </trkpt>
      <trkpt lat="47.01915" lon="8.9585">
        <ele>849</ele>
        <time>2021-08-02T11:07:02.046Z</time>
      </trkpt>
      <trkpt lat="47.01914" lon="8.95848">
        <ele>849</ele>
        <time>2021-08-02T11:07:03.046Z</time>
      </trkpt>
      <trkpt lat="47.01914" lon="8.95846">
        <ele>849</ele>
        <time>2021-08-02T11:07:04.046Z</time>
      </trkpt>
      <trkpt lat="47.01915" lon="8.95845">
        <ele>849</ele>
        <time>2021-08-02T11:07:05.045Z</time>
      </trkpt>
      <trkpt lat="47.01915" lon="8.95843">
        <ele>849</ele>
        <time>2021-08-02T11:07:06.046Z</time>
      </trkpt>
      <trkpt lat="47.01915" lon="8.95841">
        <ele>849</ele>
        <time>2021-08-02T11:07:07.046Z</time>
      </trkpt>
      <trkpt lat="47.01914" lon="8.95839">
        <ele>849</ele>
        <time>2021-08-02T11:07:08.046Z</time>
      </trkpt>
      <trkpt lat="47.01914" lon="8.95837">
        <ele>849</ele>
        <time>2021-08-02T11:07:09.046Z</time>
      </trkpt>
      <trkpt lat="47.01914" lon="8.95835">
        <ele>849</ele>
        <time>2021-08-02T11:07:10.045Z</time>
      </trkpt>
      <trkpt lat="47.01914" lon="8.95834">
        <ele>849</ele>
        <time>2021-08-02T11:07:11.046Z</time>
      </trkpt>
      <trkpt lat="47.01913" lon="8.95833">
        <ele>850</ele>
        <time>2021-08-02T11:07:12.045Z</time>
      </trkpt>
      <trkpt lat="47.01912" lon="8.95831">
        <ele>850</ele>
        <time>2021-08-02T11:07:13.046Z</time>
      </trkpt>
      <trkpt lat="47.01912" lon="8.95829">
        <ele>850</ele>
        <time>2021-08-02T11:07:14.045Z</time>
      </trkpt>
      <trkpt lat="47.01912" lon="8.95828">
        <ele>851</ele>
        <time>2021-08-02T11:07:15.045Z</time>
      </trkpt>
      <trkpt lat="47.01912" lon="8.95826">
        <ele>851</ele>
        <time>2021-08-02T11:07:16.046Z</time>
      </trkpt>
      <trkpt lat="47.01911" lon="8.95824">
        <ele>851</ele>
        <time>2021-08-02T11:07:17.045Z</time>
      </trkpt>
      <trkpt lat="47.01911" lon="8.95822">
        <ele>851</ele>
        <time>2021-08-02T11:07:18.045Z</time>
      </trkpt>
      <trkpt lat="47.0191" lon="8.9582">
        <ele>851</ele>
        <time>2021-08-02T11:07:19.046Z</time>
      </trkpt>
      <trkpt lat="47.01909" lon="8.95818">
        <ele>851</ele>
        <time>2021-08-02T11:07:20.045Z</time>
      </trkpt>
      <trkpt lat="47.01909" lon="8.95817">
        <ele>851</ele>
        <time>2021-08-02T11:07:21.046Z</time>
      </trkpt>
      <trkpt lat="47.01907" lon="8.95816">
        <ele>852</ele>
        <time>2021-08-02T11:07:22.046Z</time>
      </trkpt>
      <trkpt lat="47.01906" lon="8.95814">
        <ele>852</ele>
        <time>2021-08-02T11:07:23.046Z</time>
      </trkpt>
      <trkpt lat="47.01906" lon="8.95813">
        <ele>852</ele>
        <time>2021-08-02T11:07:24.046Z</time>
      </trkpt>
      <trkpt lat="47.01906" lon="8.95812">
        <ele>851</ele>
        <time>2021-08-02T11:07:25.046Z</time>
      </trkpt>
      <trkpt lat="47.01906" lon="8.95811">
        <ele>851</ele>
        <time>2021-08-02T11:07:26.045Z</time>
      </trkpt>
      <trkpt lat="47.01905" lon="8.95809">
        <ele>851</ele>
        <time>2021-08-02T11:07:27.045Z</time>
      </trkpt>
      <trkpt lat="47.01907" lon="8.95808">
        <ele>851</ele>
        <time>2021-08-02T11:07:28.045Z</time>
      </trkpt>
      <trkpt lat="47.01907" lon="8.95806">
        <ele>851</ele>
        <time>2021-08-02T11:07:29.045Z</time>
      </trkpt>
      <trkpt lat="47.01909" lon="8.95805">
        <ele>851</ele>
        <time>2021-08-02T11:07:30.046Z</time>
      </trkpt>
      <trkpt lat="47.0191" lon="8.95804">
        <ele>851</ele>
        <time>2021-08-02T11:07:31.045Z</time>
      </trkpt>
      <trkpt lat="47.01909" lon="8.95802">
        <ele>850</ele>
        <time>2021-08-02T11:07:32.046Z</time>
      </trkpt>
      <trkpt lat="47.01908" lon="8.95801">
        <ele>850</ele>
        <time>2021-08-02T11:07:33.046Z</time>
      </trkpt>
      <trkpt lat="47.01908" lon="8.958">
        <ele>850</ele>
        <time>2021-08-02T11:07:34.046Z</time>
      </trkpt>
      <trkpt lat="47.01908" lon="8.95798">
        <ele>850</ele>
        <time>2021-08-02T11:07:38.160Z</time>
      </trkpt>
      <trkpt lat="47.01908" lon="8.95797">
        <ele>850</ele>
        <time>2021-08-02T11:07:39.160Z</time>
      </trkpt>
      <trkpt lat="47.01907" lon="8.95795">
        <ele>851</ele>
        <time>2021-08-02T11:07:40.160Z</time>
      </trkpt>
      <trkpt lat="47.01906" lon="8.95794">
        <ele>851</ele>
        <time>2021-08-02T11:07:41.159Z</time>
      </trkpt>
      <trkpt lat="47.01906" lon="8.95793">
        <ele>851</ele>
        <time>2021-08-02T11:07:42.160Z</time>
      </trkpt>
      <trkpt lat="47.01906" lon="8.95791">
        <ele>851</ele>
        <time>2021-08-02T11:07:43.160Z</time>
      </trkpt>
      <trkpt lat="47.01905" lon="8.9579">
        <ele>851</ele>
        <time>2021-08-02T11:07:44.160Z</time>
      </trkpt>
      <trkpt lat="47.01903" lon="8.95788">
        <ele>851</ele>
        <time>2021-08-02T11:07:45.160Z</time>
      </trkpt>
      <trkpt lat="47.01902" lon="8.95787">
        <ele>851</ele>
        <time>2021-08-02T11:07:46.160Z</time>
      </trkpt>
      <trkpt lat="47.01902" lon="8.95785">
        <ele>850</ele>
        <time>2021-08-02T11:07:47.159Z</time>
      </trkpt>
      <trkpt lat="47.01903" lon="8.95783">
        <ele>850</ele>
        <time>2021-08-02T11:07:48.160Z</time>
      </trkpt>
      <trkpt lat="47.01903" lon="8.95782">
        <ele>850</ele>
        <time>2021-08-02T11:07:49.160Z</time>
      </trkpt>
      <trkpt lat="47.01904" lon="8.9578">
        <ele>850</ele>
        <time>2021-08-02T11:07:50.159Z</time>
      </trkpt>
      <trkpt lat="47.01904" lon="8.95779">
        <ele>850</ele>
        <time>2021-08-02T11:07:51.160Z</time>
      </trkpt>
      <trkpt lat="47.01904" lon="8.95777">
        <ele>850</ele>
        <time>2021-08-02T11:07:52.160Z</time>
      </trkpt>
      <trkpt lat="47.01904" lon="8.95775">
        <ele>850</ele>
        <time>2021-08-02T11:07:53.160Z</time>
      </trkpt>
      <trkpt lat="47.01903" lon="8.95773">
        <ele>851</ele>
        <time>2021-08-02T11:07:54.160Z</time>
      </trkpt>
      <trkpt lat="47.01902" lon="8.95772">
        <ele>851</ele>
        <time>2021-08-02T11:07:55.160Z</time>
      </trkpt>
      <trkpt lat="47.01901" lon="8.95771">
        <ele>851</ele>
        <time>2021-08-02T11:07:56.160Z</time>
      </trkpt>
      <trkpt lat="47.019" lon="8.9577">
        <ele>852</ele>
        <time>2021-08-02T11:07:57.160Z</time>
      </trkpt>
      <trkpt lat="47.019" lon="8.95768">
        <ele>852</ele>
        <time>2021-08-02T11:07:58.159Z</time>
      </trkpt>
      <trkpt lat="47.019" lon="8.95768">
        <ele>852</ele>
        <time>2021-08-02T11:07:59.159Z</time>
      </trkpt>
      <trkpt lat="47.01899" lon="8.95766">
        <ele>852</ele>
        <time>2021-08-02T11:08:00.160Z</time>
      </trkpt>
      <trkpt lat="47.01899" lon="8.95765">
        <ele>853</ele>
        <time>2021-08-02T11:08:01.160Z</time>
      </trkpt>
      <trkpt lat="47.01898" lon="8.95765">
        <ele>853</ele>
        <time>2021-08-02T11:08:02.159Z</time>
      </trkpt>
      <trkpt lat="47.01897" lon="8.95764">
        <ele>852</ele>
        <time>2021-08-02T11:08:03.160Z</time>
      </trkpt>
      <trkpt lat="47.01897" lon="8.95763">
        <ele>852</ele>
        <time>2021-08-02T11:08:04.160Z</time>
      </trkpt>
      <trkpt lat="47.01896" lon="8.95762">
        <ele>851</ele>
        <time>2021-08-02T11:08:05.160Z</time>
      </trkpt>
      <trkpt lat="47.01896" lon="8.95761">
        <ele>850</ele>
        <time>2021-08-02T11:08:06.160Z</time>
      </trkpt>
      <trkpt lat="47.01896" lon="8.9576">
        <ele>850</ele>
        <time>2021-08-02T11:08:07.159Z</time>
      </trkpt>
      <trkpt lat="47.01897" lon="8.95759">
        <ele>849</ele>
        <time>2021-08-02T11:08:08.159Z</time>
      </trkpt>
      <trkpt lat="47.01898" lon="8.95758">
        <ele>849</ele>
        <time>2021-08-02T11:08:09.160Z</time>
      </trkpt>
      <trkpt lat="47.01898" lon="8.95757">
        <ele>849</ele>
        <time>2021-08-02T11:08:10.160Z</time>
      </trkpt>
      <trkpt lat="47.01899" lon="8.95756">
        <ele>848</ele>
        <time>2021-08-02T11:08:11.159Z</time>
      </trkpt>
      <trkpt lat="47.01899" lon="8.95755">
        <ele>848</ele>
        <time>2021-08-02T11:08:12.160Z</time>
      </trkpt>
      <trkpt lat="47.019" lon="8.95753">
        <ele>848</ele>
        <time>2021-08-02T11:08:13.160Z</time>
      </trkpt>
      <trkpt lat="47.019" lon="8.95752">
        <ele>848</ele>
        <time>2021-08-02T11:08:14.160Z</time>
      </trkpt>
      <trkpt lat="47.019" lon="8.95751">
        <ele>848</ele>
        <time>2021-08-02T11:08:15.160Z</time>
      </trkpt>
      <trkpt lat="47.019" lon="8.9575">
        <ele>848</ele>
        <time>2021-08-02T11:08:16.160Z</time>
      </trkpt>
      <trkpt lat="47.01901" lon="8.95749">
        <ele>848</ele>
        <time>2021-08-02T11:08:17.159Z</time>
      </trkpt>
      <trkpt lat="47.01901" lon="8.95748">
        <ele>848</ele>
        <time>2021-08-02T11:08:18.160Z</time>
      </trkpt>
      <trkpt lat="47.01902" lon="8.95747">
        <ele>848</ele>
        <time>2021-08-02T11:08:19.159Z</time>
      </trkpt>
      <trkpt lat="47.01902" lon="8.95746">
        <ele>849</ele>
        <time>2021-08-02T11:08:20.159Z</time>
      </trkpt>
      <trkpt lat="47.01902" lon="8.95745">
        <ele>849</ele>
        <time>2021-08-02T11:08:21.160Z</time>
      </trkpt>
      <trkpt lat="47.019" lon="8.95744">
        <ele>849</ele>
        <time>2021-08-02T11:08:22.159Z</time>
      </trkpt>
      <trkpt lat="47.01899" lon="8.95742">
        <ele>849</ele>
        <time>2021-08-02T11:08:23.160Z</time>
      </trkpt>
      <trkpt lat="47.01898" lon="8.95741">
        <ele>849</ele>
        <time>2021-08-02T11:08:24.160Z</time>
      </trkpt>
      <trkpt lat="47.01898" lon="8.95739">
        <ele>850</ele>
        <time>2021-08-02T11:08:25.160Z</time>
      </trkpt>
      <trkpt lat="47.01898" lon="8.95737">
        <ele>850</ele>
        <time>2021-08-02T11:08:26.160Z</time>
      </trkpt>
      <trkpt lat="47.01899" lon="8.95736">
        <ele>850</ele>
        <time>2021-08-02T11:08:27.160Z</time>
      </trkpt>
      <trkpt lat="47.01899" lon="8.95734">
        <ele>850</ele>
        <time>2021-08-02T11:08:28.160Z</time>
      </trkpt>
      <trkpt lat="47.01901" lon="8.95732">
        <ele>850</ele>
        <time>2021-08-02T11:08:29.160Z</time>
      </trkpt>
      <trkpt lat="47.01901" lon="8.95731">
        <ele>851</ele>
        <time>2021-08-02T11:08:30.160Z</time>
      </trkpt>
      <trkpt lat="47.01902" lon="8.95729">
        <ele>851</ele>
        <time>2021-08-02T11:08:31.160Z</time>
      </trkpt>
      <trkpt lat="47.01902" lon="8.95728">
        <ele>851</ele>
        <time>2021-08-02T11:08:32.160Z</time>
      </trkpt>
      <trkpt lat="47.01902" lon="8.95726">
        <ele>851</ele>
        <time>2021-08-02T11:08:33.159Z</time>
      </trkpt>
      <trkpt lat="47.01903" lon="8.95724">
        <ele>851</ele>
        <time>2021-08-02T11:08:34.160Z</time>
      </trkpt>
      <trkpt lat="47.01903" lon="8.95722">
        <ele>851</ele>
        <time>2021-08-02T11:08:35.160Z</time>
      </trkpt>
      <trkpt lat="47.01903" lon="8.95721">
        <ele>851</ele>
        <time>2021-08-02T11:08:36.160Z</time>
      </trkpt>
      <trkpt lat="47.01903" lon="8.9572">
        <ele>851</ele>
        <time>2021-08-02T11:08:37.160Z</time>
      </trkpt>
      <trkpt lat="47.01903" lon="8.95719">
        <ele>851</ele>
        <time>2021-08-02T11:08:38.160Z</time>
      </trkpt>
      <trkpt lat="47.01903" lon="8.95717">
        <ele>851</ele>
        <time>2021-08-02T11:08:39.160Z</time>
      </trkpt>
      <trkpt lat="47.01903" lon="8.95715">
        <ele>851</ele>
        <time>2021-08-02T11:08:40.159Z</time>
      </trkpt>
      <trkpt lat="47.01903" lon="8.95713">
        <ele>850</ele>
        <time>2021-08-02T11:08:41.159Z</time>
      </trkpt>
      <trkpt lat="47.01904" lon="8.95711">
        <ele>850</ele>
        <time>2021-08-02T11:08:42.160Z</time>
      </trkpt>
      <trkpt lat="47.01905" lon="8.9571">
        <ele>850</ele>
        <time>2021-08-02T11:08:43.160Z</time>
      </trkpt>
      <trkpt lat="47.01904" lon="8.95708">
        <ele>849</ele>
        <time>2021-08-02T11:08:44.159Z</time>
      </trkpt>
      <trkpt lat="47.01904" lon="8.95707">
        <ele>849</ele>
        <time>2021-08-02T11:08:45.160Z</time>
      </trkpt>
      <trkpt lat="47.01904" lon="8.95706">
        <ele>848</ele>
        <time>2021-08-02T11:08:46.159Z</time>
      </trkpt>
      <trkpt lat="47.01904" lon="8.95705">
        <ele>848</ele>
        <time>2021-08-02T11:08:47.160Z</time>
      </trkpt>
      <trkpt lat="47.01903" lon="8.95703">
        <ele>848</ele>
        <time>2021-08-02T11:08:48.160Z</time>
      </trkpt>
      <trkpt lat="47.01903" lon="8.95702">
        <ele>847</ele>
        <time>2021-08-02T11:08:49.160Z</time>
      </trkpt>
      <trkpt lat="47.01903" lon="8.957">
        <ele>847</ele>
        <time>2021-08-02T11:08:50.159Z</time>
      </trkpt>
      <trkpt lat="47.01903" lon="8.95699">
        <ele>847</ele>
        <time>2021-08-02T11:08:51.159Z</time>
      </trkpt>
      <trkpt lat="47.01902" lon="8.95698">
        <ele>847</ele>
        <time>2021-08-02T11:08:52.160Z</time>
      </trkpt>
      <trkpt lat="47.01901" lon="8.95696">
        <ele>848</ele>
        <time>2021-08-02T11:08:53.160Z</time>
      </trkpt>
      <trkpt lat="47.019" lon="8.95695">
        <ele>848</ele>
        <time>2021-08-02T11:08:54.160Z</time>
      </trkpt>
      <trkpt lat="47.01899" lon="8.95694">
        <ele>848</ele>
        <time>2021-08-02T11:08:55.160Z</time>
      </trkpt>
      <trkpt lat="47.01899" lon="8.95693">
        <ele>848</ele>
        <time>2021-08-02T11:08:56.160Z</time>
      </trkpt>
      <trkpt lat="47.019" lon="8.95691">
        <ele>848</ele>
        <time>2021-08-02T11:08:57.160Z</time>
      </trkpt>
      <trkpt lat="47.019" lon="8.9569">
        <ele>848</ele>
        <time>2021-08-02T11:08:58.159Z</time>
      </trkpt>
      <trkpt lat="47.01902" lon="8.95688">
        <ele>848</ele>
        <time>2021-08-02T11:08:59.160Z</time>
      </trkpt>
      <trkpt lat="47.01903" lon="8.95687">
        <ele>848</ele>
        <time>2021-08-02T11:09:00.159Z</time>
      </trkpt>
      <trkpt lat="47.01903" lon="8.95685">
        <ele>848</ele>
        <time>2021-08-02T11:09:01.160Z</time>
      </trkpt>
      <trkpt lat="47.01904" lon="8.95684">
        <ele>848</ele>
        <time>2021-08-02T11:09:02.159Z</time>
      </trkpt>
      <trkpt lat="47.01904" lon="8.95683">
        <ele>848</ele>
        <time>2021-08-02T11:09:03.160Z</time>
      </trkpt>
      <trkpt lat="47.01905" lon="8.95681">
        <ele>848</ele>
        <time>2021-08-02T11:09:04.160Z</time>
      </trkpt>
      <trkpt lat="47.01905" lon="8.95679">
        <ele>848</ele>
        <time>2021-08-02T11:09:05.159Z</time>
      </trkpt>
      <trkpt lat="47.01906" lon="8.95678">
        <ele>848</ele>
        <time>2021-08-02T11:09:06.160Z</time>
      </trkpt>
      <trkpt lat="47.01906" lon="8.95677">
        <ele>848</ele>
        <time>2021-08-02T11:09:07.160Z</time>
      </trkpt>
      <trkpt lat="47.01905" lon="8.95675">
        <ele>848</ele>
        <time>2021-08-02T11:09:08.160Z</time>
      </trkpt>
      <trkpt lat="47.01903" lon="8.95674">
        <ele>848</ele>
        <time>2021-08-02T11:09:09.159Z</time>
      </trkpt>
      <trkpt lat="47.01903" lon="8.95673">
        <ele>847</ele>
        <time>2021-08-02T11:09:10.159Z</time>
      </trkpt>
      <trkpt lat="47.01902" lon="8.95672">
        <ele>847</ele>
        <time>2021-08-02T11:09:11.160Z</time>
      </trkpt>
      <trkpt lat="47.01902" lon="8.95671">
        <ele>847</ele>
        <time>2021-08-02T11:09:12.159Z</time>
      </trkpt>
      <trkpt lat="47.01903" lon="8.9567">
        <ele>846</ele>
        <time>2021-08-02T11:09:13.159Z</time>
      </trkpt>
      <trkpt lat="47.01903" lon="8.95669">
        <ele>846</ele>
        <time>2021-08-02T11:09:14.159Z</time>
      </trkpt>
      <trkpt lat="47.01905" lon="8.95668">
        <ele>846</ele>
        <time>2021-08-02T11:09:15.160Z</time>
      </trkpt>
      <trkpt lat="47.01905" lon="8.95667">
        <ele>846</ele>
        <time>2021-08-02T11:09:16.160Z</time>
      </trkpt>
      <trkpt lat="47.01905" lon="8.95666">
        <ele>846</ele>
        <time>2021-08-02T11:09:17.160Z</time>
      </trkpt>
      <trkpt lat="47.01905" lon="8.95665">
        <ele>845</ele>
        <time>2021-08-02T11:09:18.160Z</time>
      </trkpt>
      <trkpt lat="47.01905" lon="8.95664">
        <ele>845</ele>
        <time>2021-08-02T11:09:19.160Z</time>
      </trkpt>
      <trkpt lat="47.01906" lon="8.95662">
        <ele>845</ele>
        <time>2021-08-02T11:09:20.160Z</time>
      </trkpt>
      <trkpt lat="47.01906" lon="8.95661">
        <ele>844</ele>
        <time>2021-08-02T11:09:21.160Z</time>
      </trkpt>
      <trkpt lat="47.01907" lon="8.95659">
        <ele>844</ele>
        <time>2021-08-02T11:09:22.160Z</time>
      </trkpt>
      <trkpt lat="47.01908" lon="8.95658">
        <ele>844</ele>
        <time>2021-08-02T11:09:23.160Z</time>
      </trkpt>
      <trkpt lat="47.01909" lon="8.95656">
        <ele>845</ele>
        <time>2021-08-02T11:09:24.160Z</time>
      </trkpt>
      <trkpt lat="47.01909" lon="8.95655">
        <ele>845</ele>
        <time>2021-08-02T11:09:25.159Z</time>
      </trkpt>
      <trkpt lat="47.0191" lon="8.95654">
        <ele>845</ele>
        <time>2021-08-02T11:09:26.160Z</time>
      </trkpt>
      <trkpt lat="47.01911" lon="8.95652">
        <ele>845</ele>
        <time>2021-08-02T11:09:27.159Z</time>
      </trkpt>
      <trkpt lat="47.01911" lon="8.95651">
        <ele>845</ele>
        <time>2021-08-02T11:09:28.160Z</time>
      </trkpt>
      <trkpt lat="47.01912" lon="8.95649">
        <ele>845</ele>
        <time>2021-08-02T11:09:29.160Z</time>
      </trkpt>
      <trkpt lat="47.01912" lon="8.95648">
        <ele>846</ele>
        <time>2021-08-02T11:09:30.160Z</time>
      </trkpt>
      <trkpt lat="47.01913" lon="8.95646">
        <ele>846</ele>
        <time>2021-08-02T11:09:31.160Z</time>
      </trkpt>
      <trkpt lat="47.01913" lon="8.95645">
        <ele>846</ele>
        <time>2021-08-02T11:09:32.160Z</time>
      </trkpt>
      <trkpt lat="47.01913" lon="8.95643">
        <ele>846</ele>
        <time>2021-08-02T11:09:33.159Z</time>
      </trkpt>
      <trkpt lat="47.01914" lon="8.95642">
        <ele>846</ele>
        <time>2021-08-02T11:09:34.160Z</time>
      </trkpt>
      <trkpt lat="47.01914" lon="8.9564">
        <ele>846</ele>
        <time>2021-08-02T11:09:35.160Z</time>
      </trkpt>
      <trkpt lat="47.01916" lon="8.95639">
        <ele>847</ele>
        <time>2021-08-02T11:09:36.160Z</time>
      </trkpt>
      <trkpt lat="47.01917" lon="8.95638">
        <ele>848</ele>
        <time>2021-08-02T11:09:37.159Z</time>
      </trkpt>
      <trkpt lat="47.01918" lon="8.95635">
        <ele>848</ele>
        <time>2021-08-02T11:09:38.160Z</time>
      </trkpt>
      <trkpt lat="47.01919" lon="8.95634">
        <ele>849</ele>
        <time>2021-08-02T11:09:39.159Z</time>
      </trkpt>
      <trkpt lat="47.01919" lon="8.95631">
        <ele>849</ele>
        <time>2021-08-02T11:09:40.160Z</time>
      </trkpt>
      <trkpt lat="47.01919" lon="8.9563">
        <ele>849</ele>
        <time>2021-08-02T11:09:41.159Z</time>
      </trkpt>
      <trkpt lat="47.01919" lon="8.95628">
        <ele>850</ele>
        <time>2021-08-02T11:09:42.160Z</time>
      </trkpt>
      <trkpt lat="47.01919" lon="8.95627">
        <ele>850</ele>
        <time>2021-08-02T11:09:43.159Z</time>
      </trkpt>
      <trkpt lat="47.01919" lon="8.95626">
        <ele>850</ele>
        <time>2021-08-02T11:09:44.160Z</time>
      </trkpt>
      <trkpt lat="47.01918" lon="8.95624">
        <ele>850</ele>
        <time>2021-08-02T11:09:45.159Z</time>
      </trkpt>
      <trkpt lat="47.01918" lon="8.95623">
        <ele>850</ele>
        <time>2021-08-02T11:09:46.160Z</time>
      </trkpt>
      <trkpt lat="47.01918" lon="8.95621">
        <ele>850</ele>
        <time>2021-08-02T11:09:47.159Z</time>
      </trkpt>
      <trkpt lat="47.01918" lon="8.9562">
        <ele>850</ele>
        <time>2021-08-02T11:09:48.159Z</time>
      </trkpt>
      <trkpt lat="47.01918" lon="8.95618">
        <ele>849</ele>
        <time>2021-08-02T11:09:49.160Z</time>
      </trkpt>
      <trkpt lat="47.01918" lon="8.95617">
        <ele>849</ele>
        <time>2021-08-02T11:09:50.159Z</time>
      </trkpt>
      <trkpt lat="47.01918" lon="8.95615">
        <ele>849</ele>
        <time>2021-08-02T11:09:51.159Z</time>
      </trkpt>
      <trkpt lat="47.01919" lon="8.95614">
        <ele>849</ele>
        <time>2021-08-02T11:09:52.160Z</time>
      </trkpt>
      <trkpt lat="47.0192" lon="8.95612">
        <ele>848</ele>
        <time>2021-08-02T11:09:53.159Z</time>
      </trkpt>
      <trkpt lat="47.01922" lon="8.9561">
        <ele>848</ele>
        <time>2021-08-02T11:09:54.159Z</time>
      </trkpt>
      <trkpt lat="47.01923" lon="8.95609">
        <ele>848</ele>
        <time>2021-08-02T11:09:58.267Z</time>
      </trkpt>
      <trkpt lat="47.01924" lon="8.95607">
        <ele>848</ele>
        <time>2021-08-02T11:09:59.267Z</time>
      </trkpt>
      <trkpt lat="47.01925" lon="8.95606">
        <ele>848</ele>
        <time>2021-08-02T11:10:00.267Z</time>
      </trkpt>
      <trkpt lat="47.01926" lon="8.95604">
        <ele>847</ele>
        <time>2021-08-02T11:10:01.267Z</time>
      </trkpt>
      <trkpt lat="47.01925" lon="8.95602">
        <ele>847</ele>
        <time>2021-08-02T11:10:02.268Z</time>
      </trkpt>
      <trkpt lat="47.01925" lon="8.956">
        <ele>847</ele>
        <time>2021-08-02T11:10:03.267Z</time>
      </trkpt>
      <trkpt lat="47.01926" lon="8.95599">
        <ele>847</ele>
        <time>2021-08-02T11:10:04.267Z</time>
      </trkpt>
      <trkpt lat="47.01925" lon="8.95597">
        <ele>847</ele>
        <time>2021-08-02T11:10:05.267Z</time>
      </trkpt>
      <trkpt lat="47.01924" lon="8.95595">
        <ele>847</ele>
        <time>2021-08-02T11:10:06.268Z</time>
      </trkpt>
      <trkpt lat="47.01924" lon="8.95593">
        <ele>847</ele>
        <time>2021-08-02T11:10:07.267Z</time>
      </trkpt>
      <trkpt lat="47.01924" lon="8.95592">
        <ele>847</ele>
        <time>2021-08-02T11:10:08.267Z</time>
      </trkpt>
      <trkpt lat="47.01924" lon="8.9559">
        <ele>847</ele>
        <time>2021-08-02T11:10:09.267Z</time>
      </trkpt>
      <trkpt lat="47.01925" lon="8.95589">
        <ele>847</ele>
        <time>2021-08-02T11:10:10.267Z</time>
      </trkpt>
      <trkpt lat="47.01925" lon="8.95587">
        <ele>847</ele>
        <time>2021-08-02T11:10:11.267Z</time>
      </trkpt>
      <trkpt lat="47.01924" lon="8.95585">
        <ele>847</ele>
        <time>2021-08-02T11:10:12.267Z</time>
      </trkpt>
      <trkpt lat="47.01926" lon="8.95584">
        <ele>847</ele>
        <time>2021-08-02T11:10:13.267Z</time>
      </trkpt>
      <trkpt lat="47.01927" lon="8.95583">
        <ele>848</ele>
        <time>2021-08-02T11:10:14.267Z</time>
      </trkpt>
      <trkpt lat="47.01927" lon="8.95581">
        <ele>848</ele>
        <time>2021-08-02T11:10:15.267Z</time>
      </trkpt>
      <trkpt lat="47.01926" lon="8.95579">
        <ele>848</ele>
        <time>2021-08-02T11:10:16.267Z</time>
      </trkpt>
      <trkpt lat="47.01925" lon="8.95578">
        <ele>848</ele>
        <time>2021-08-02T11:10:17.268Z</time>
      </trkpt>
      <trkpt lat="47.01926" lon="8.95577">
        <ele>848</ele>
        <time>2021-08-02T11:10:18.267Z</time>
      </trkpt>
      <trkpt lat="47.01926" lon="8.95575">
        <ele>848</ele>
        <time>2021-08-02T11:10:19.267Z</time>
      </trkpt>
      <trkpt lat="47.01925" lon="8.95574">
        <ele>848</ele>
        <time>2021-08-02T11:10:20.267Z</time>
      </trkpt>
      <trkpt lat="47.01926" lon="8.95572">
        <ele>848</ele>
        <time>2021-08-02T11:10:21.267Z</time>
      </trkpt>
      <trkpt lat="47.01926" lon="8.95571">
        <ele>848</ele>
        <time>2021-08-02T11:10:22.267Z</time>
      </trkpt>
      <trkpt lat="47.01927" lon="8.9557">
        <ele>849</ele>
        <time>2021-08-02T11:10:23.267Z</time>
      </trkpt>
      <trkpt lat="47.01927" lon="8.95568">
        <ele>849</ele>
        <time>2021-08-02T11:10:24.268Z</time>
      </trkpt>
      <trkpt lat="47.01928" lon="8.95567">
        <ele>849</ele>
        <time>2021-08-02T11:10:25.268Z</time>
      </trkpt>
      <trkpt lat="47.01928" lon="8.95566">
        <ele>849</ele>
        <time>2021-08-02T11:10:26.268Z</time>
      </trkpt>
      <trkpt lat="47.01929" lon="8.95565">
        <ele>849</ele>
        <time>2021-08-02T11:10:27.267Z</time>
      </trkpt>
      <trkpt lat="47.0193" lon="8.95564">
        <ele>848</ele>
        <time>2021-08-02T11:10:28.268Z</time>
      </trkpt>
      <trkpt lat="47.0193" lon="8.95562">
        <ele>848</ele>
        <time>2021-08-02T11:10:29.268Z</time>
      </trkpt>
      <trkpt lat="47.0193" lon="8.95561">
        <ele>848</ele>
        <time>2021-08-02T11:10:30.267Z</time>
      </trkpt>
      <trkpt lat="47.01931" lon="8.9556">
        <ele>848</ele>
        <time>2021-08-02T11:10:31.267Z</time>
      </trkpt>
      <trkpt lat="47.01932" lon="8.95559">
        <ele>848</ele>
        <time>2021-08-02T11:10:32.267Z</time>
      </trkpt>
      <trkpt lat="47.01934" lon="8.95559">
        <ele>848</ele>
        <time>2021-08-02T11:10:33.268Z</time>
      </trkpt>
      <trkpt lat="47.01936" lon="8.95559">
        <ele>848</ele>
        <time>2021-08-02T11:10:34.267Z</time>
      </trkpt>
      <trkpt lat="47.01937" lon="8.95558">
        <ele>848</ele>
        <time>2021-08-02T11:10:35.268Z</time>
      </trkpt>
      <trkpt lat="47.01938" lon="8.95557">
        <ele>848</ele>
        <time>2021-08-02T11:10:36.267Z</time>
      </trkpt>
      <trkpt lat="47.01939" lon="8.95556">
        <ele>848</ele>
        <time>2021-08-02T11:10:37.267Z</time>
      </trkpt>
      <trkpt lat="47.0194" lon="8.95555">
        <ele>848</ele>
        <time>2021-08-02T11:10:38.267Z</time>
      </trkpt>
      <trkpt lat="47.0194" lon="8.95555">
        <ele>848</ele>
        <time>2021-08-02T11:10:39.268Z</time>
      </trkpt>
      <trkpt lat="47.01941" lon="8.95554">
        <ele>847</ele>
        <time>2021-08-02T11:10:40.267Z</time>
      </trkpt>
      <trkpt lat="47.01942" lon="8.95553">
        <ele>847</ele>
        <time>2021-08-02T11:10:41.267Z</time>
      </trkpt>
      <trkpt lat="47.01943" lon="8.95553">
        <ele>847</ele>
        <time>2021-08-02T11:10:42.268Z</time>
      </trkpt>
      <trkpt lat="47.01945" lon="8.95552">
        <ele>847</ele>
        <time>2021-08-02T11:10:43.267Z</time>
      </trkpt>
      <trkpt lat="47.01946" lon="8.95551">
        <ele>848</ele>
        <time>2021-08-02T11:10:44.268Z</time>
      </trkpt>
      <trkpt lat="47.01947" lon="8.9555">
        <ele>848</ele>
        <time>2021-08-02T11:10:45.268Z</time>
      </trkpt>
      <trkpt lat="47.01948" lon="8.95549">
        <ele>848</ele>
        <time>2021-08-02T11:10:46.268Z</time>
      </trkpt>
      <trkpt lat="47.01948" lon="8.95547">
        <ele>848</ele>
        <time>2021-08-02T11:10:47.268Z</time>
      </trkpt>
      <trkpt lat="47.01948" lon="8.95546">
        <ele>849</ele>
        <time>2021-08-02T11:10:48.268Z</time>
      </trkpt>
      <trkpt lat="47.01948" lon="8.95545">
        <ele>849</ele>
        <time>2021-08-02T11:10:49.268Z</time>
      </trkpt>
      <trkpt lat="47.01949" lon="8.95544">
        <ele>850</ele>
        <time>2021-08-02T11:10:50.268Z</time>
      </trkpt>
      <trkpt lat="47.0195" lon="8.95543">
        <ele>851</ele>
        <time>2021-08-02T11:10:51.268Z</time>
      </trkpt>
      <trkpt lat="47.01951" lon="8.95542">
        <ele>851</ele>
        <time>2021-08-02T11:10:52.268Z</time>
      </trkpt>
      <trkpt lat="47.01953" lon="8.95541">
        <ele>852</ele>
        <time>2021-08-02T11:10:53.268Z</time>
      </trkpt>
      <trkpt lat="47.01954" lon="8.9554">
        <ele>852</ele>
        <time>2021-08-02T11:10:54.268Z</time>
      </trkpt>
      <trkpt lat="47.01954" lon="8.95538">
        <ele>852</ele>
        <time>2021-08-02T11:10:55.267Z</time>
      </trkpt>
      <trkpt lat="47.01954" lon="8.95537">
        <ele>852</ele>
        <time>2021-08-02T11:10:56.268Z</time>
      </trkpt>
      <trkpt lat="47.01955" lon="8.95535">
        <ele>851</ele>
        <time>2021-08-02T11:10:57.267Z</time>
      </trkpt>
      <trkpt lat="47.01956" lon="8.95534">
        <ele>851</ele>
        <time>2021-08-02T11:10:58.268Z</time>
      </trkpt>
      <trkpt lat="47.01956" lon="8.95532">
        <ele>851</ele>
        <time>2021-08-02T11:10:59.267Z</time>
      </trkpt>
      <trkpt lat="47.01956" lon="8.95531">
        <ele>851</ele>
        <time>2021-08-02T11:11:00.267Z</time>
      </trkpt>
      <trkpt lat="47.01957" lon="8.9553">
        <ele>851</ele>
        <time>2021-08-02T11:11:01.268Z</time>
      </trkpt>
      <trkpt lat="47.01958" lon="8.95529">
        <ele>851</ele>
        <time>2021-08-02T11:11:02.268Z</time>
      </trkpt>
      <trkpt lat="47.01959" lon="8.95528">
        <ele>851</ele>
        <time>2021-08-02T11:11:03.268Z</time>
      </trkpt>
      <trkpt lat="47.0196" lon="8.95526">
        <ele>852</ele>
        <time>2021-08-02T11:11:04.267Z</time>
      </trkpt>
      <trkpt lat="47.01962" lon="8.95525">
        <ele>852</ele>
        <time>2021-08-02T11:11:05.267Z</time>
      </trkpt>
      <trkpt lat="47.01962" lon="8.95524">
        <ele>853</ele>
        <time>2021-08-02T11:11:06.267Z</time>
      </trkpt>
      <trkpt lat="47.01963" lon="8.95523">
        <ele>853</ele>
        <time>2021-08-02T11:11:07.267Z</time>
      </trkpt>
      <trkpt lat="47.01964" lon="8.95521">
        <ele>854</ele>
        <time>2021-08-02T11:11:08.267Z</time>
      </trkpt>
      <trkpt lat="47.01965" lon="8.9552">
        <ele>855</ele>
        <time>2021-08-02T11:11:09.268Z</time>
      </trkpt>
      <trkpt lat="47.01967" lon="8.95519">
        <ele>855</ele>
        <time>2021-08-02T11:11:10.268Z</time>
      </trkpt>
      <trkpt lat="47.01968" lon="8.95517">
        <ele>855</ele>
        <time>2021-08-02T11:11:11.268Z</time>
      </trkpt>
      <trkpt lat="47.01968" lon="8.95516">
        <ele>855</ele>
        <time>2021-08-02T11:11:12.267Z</time>
      </trkpt>
      <trkpt lat="47.01969" lon="8.95514">
        <ele>855</ele>
        <time>2021-08-02T11:11:13.267Z</time>
      </trkpt>
      <trkpt lat="47.0197" lon="8.95513">
        <ele>855</ele>
        <time>2021-08-02T11:11:14.268Z</time>
      </trkpt>
      <trkpt lat="47.0197" lon="8.95512">
        <ele>856</ele>
        <time>2021-08-02T11:11:15.268Z</time>
      </trkpt>
      <trkpt lat="47.01971" lon="8.95509">
        <ele>856</ele>
        <time>2021-08-02T11:11:16.268Z</time>
      </trkpt>
      <trkpt lat="47.01973" lon="8.95507">
        <ele>857</ele>
        <time>2021-08-02T11:11:17.268Z</time>
      </trkpt>
      <trkpt lat="47.01974" lon="8.95504">
        <ele>857</ele>
        <time>2021-08-02T11:11:18.268Z</time>
      </trkpt>
      <trkpt lat="47.01974" lon="8.95503">
        <ele>858</ele>
        <time>2021-08-02T11:11:19.267Z</time>
      </trkpt>
      <trkpt lat="47.01974" lon="8.955">
        <ele>858</ele>
        <time>2021-08-02T11:11:20.268Z</time>
      </trkpt>
      <trkpt lat="47.01974" lon="8.95498">
        <ele>859</ele>
        <time>2021-08-02T11:11:21.268Z</time>
      </trkpt>
      <trkpt lat="47.01973" lon="8.95495">
        <ele>859</ele>
        <time>2021-08-02T11:11:22.268Z</time>
      </trkpt>
      <trkpt lat="47.01973" lon="8.95493">
        <ele>860</ele>
        <time>2021-08-02T11:11:23.268Z</time>
      </trkpt>
      <trkpt lat="47.01973" lon="8.95491">
        <ele>861</ele>
        <time>2021-08-02T11:11:24.268Z</time>
      </trkpt>
      <trkpt lat="47.01972" lon="8.95489">
        <ele>861</ele>
        <time>2021-08-02T11:11:25.268Z</time>
      </trkpt>
      <trkpt lat="47.01972" lon="8.95488">
        <ele>862</ele>
        <time>2021-08-02T11:11:26.268Z</time>
      </trkpt>
      <trkpt lat="47.01971" lon="8.95487">
        <ele>862</ele>
        <time>2021-08-02T11:11:27.268Z</time>
      </trkpt>
      <trkpt lat="47.01972" lon="8.95486">
        <ele>862</ele>
        <time>2021-08-02T11:11:28.267Z</time>
      </trkpt>
      <trkpt lat="47.01972" lon="8.95485">
        <ele>862</ele>
        <time>2021-08-02T11:11:29.268Z</time>
      </trkpt>
      <trkpt lat="47.01972" lon="8.95484">
        <ele>862</ele>
        <time>2021-08-02T11:11:30.267Z</time>
      </trkpt>
      <trkpt lat="47.01972" lon="8.95483">
        <ele>863</ele>
        <time>2021-08-02T11:11:31.267Z</time>
      </trkpt>
      <trkpt lat="47.01973" lon="8.95481">
        <ele>863</ele>
        <time>2021-08-02T11:11:32.267Z</time>
      </trkpt>
      <trkpt lat="47.01974" lon="8.9548">
        <ele>863</ele>
        <time>2021-08-02T11:11:33.268Z</time>
      </trkpt>
      <trkpt lat="47.01974" lon="8.95478">
        <ele>864</ele>
        <time>2021-08-02T11:11:34.268Z</time>
      </trkpt>
      <trkpt lat="47.01975" lon="8.95477">
        <ele>864</ele>
        <time>2021-08-02T11:11:35.267Z</time>
      </trkpt>
      <trkpt lat="47.01975" lon="8.95475">
        <ele>864</ele>
        <time>2021-08-02T11:11:36.268Z</time>
      </trkpt>
      <trkpt lat="47.01976" lon="8.95474">
        <ele>864</ele>
        <time>2021-08-02T11:11:37.268Z</time>
      </trkpt>
      <trkpt lat="47.01977" lon="8.95473">
        <ele>864</ele>
        <time>2021-08-02T11:11:38.267Z</time>
      </trkpt>
      <trkpt lat="47.01978" lon="8.95471">
        <ele>864</ele>
        <time>2021-08-02T11:11:39.268Z</time>
      </trkpt>
      <trkpt lat="47.01978" lon="8.9547">
        <ele>864</ele>
        <time>2021-08-02T11:11:40.267Z</time>
      </trkpt>
      <trkpt lat="47.01979" lon="8.95469">
        <ele>864</ele>
        <time>2021-08-02T11:11:41.267Z</time>
      </trkpt>
      <trkpt lat="47.01979" lon="8.95467">
        <ele>864</ele>
        <time>2021-08-02T11:11:42.268Z</time>
      </trkpt>
      <trkpt lat="47.0198" lon="8.95466">
        <ele>865</ele>
        <time>2021-08-02T11:11:43.267Z</time>
      </trkpt>
      <trkpt lat="47.01981" lon="8.95466">
        <ele>865</ele>
        <time>2021-08-02T11:11:44.268Z</time>
      </trkpt>
      <trkpt lat="47.01982" lon="8.95465">
        <ele>865</ele>
        <time>2021-08-02T11:11:45.270Z</time>
      </trkpt>
      <trkpt lat="47.01982" lon="8.95464">
        <ele>865</ele>
        <time>2021-08-02T11:11:46.270Z</time>
      </trkpt>
      <trkpt lat="47.01983" lon="8.95463">
        <ele>865</ele>
        <time>2021-08-02T11:11:47.270Z</time>
      </trkpt>
      <trkpt lat="47.01983" lon="8.95462">
        <ele>864</ele>
        <time>2021-08-02T11:11:48.269Z</time>
      </trkpt>
      <trkpt lat="47.01983" lon="8.95461">
        <ele>864</ele>
        <time>2021-08-02T11:11:49.270Z</time>
      </trkpt>
      <trkpt lat="47.01983" lon="8.9546">
        <ele>864</ele>
        <time>2021-08-02T11:11:50.270Z</time>
      </trkpt>
      <trkpt lat="47.01983" lon="8.95459">
        <ele>863</ele>
        <time>2021-08-02T11:11:51.270Z</time>
      </trkpt>
      <trkpt lat="47.01984" lon="8.95457">
        <ele>863</ele>
        <time>2021-08-02T11:11:52.270Z</time>
      </trkpt>
      <trkpt lat="47.01985" lon="8.95456">
        <ele>863</ele>
        <time>2021-08-02T11:11:53.269Z</time>
      </trkpt>
      <trkpt lat="47.01985" lon="8.95455">
        <ele>862</ele>
        <time>2021-08-02T11:11:54.270Z</time>
      </trkpt>
      <trkpt lat="47.01986" lon="8.95454">
        <ele>862</ele>
        <time>2021-08-02T11:11:55.269Z</time>
      </trkpt>
      <trkpt lat="47.01987" lon="8.95454">
        <ele>862</ele>
        <time>2021-08-02T11:11:56.269Z</time>
      </trkpt>
      <trkpt lat="47.01988" lon="8.95453">
        <ele>862</ele>
        <time>2021-08-02T11:11:57.270Z</time>
      </trkpt>
      <trkpt lat="47.01989" lon="8.95453">
        <ele>861</ele>
        <time>2021-08-02T11:11:58.270Z</time>
      </trkpt>
      <trkpt lat="47.0199" lon="8.95453">
        <ele>861</ele>
        <time>2021-08-02T11:11:59.270Z</time>
      </trkpt>
      <trkpt lat="47.01991" lon="8.95453">
        <ele>861</ele>
        <time>2021-08-02T11:12:00.270Z</time>
      </trkpt>
      <trkpt lat="47.01992" lon="8.95452">
        <ele>860</ele>
        <time>2021-08-02T11:12:01.269Z</time>
      </trkpt>
      <trkpt lat="47.01992" lon="8.95452">
        <ele>860</ele>
        <time>2021-08-02T11:12:02.270Z</time>
      </trkpt>
      <trkpt lat="47.01993" lon="8.95452">
        <ele>859</ele>
        <time>2021-08-02T11:12:03.269Z</time>
      </trkpt>
      <trkpt lat="47.01993" lon="8.95451">
        <ele>859</ele>
        <time>2021-08-02T11:12:04.270Z</time>
      </trkpt>
      <trkpt lat="47.01994" lon="8.95451">
        <ele>858</ele>
        <time>2021-08-02T11:12:05.270Z</time>
      </trkpt>
      <trkpt lat="47.01996" lon="8.95451">
        <ele>858</ele>
        <time>2021-08-02T11:12:06.269Z</time>
      </trkpt>
      <trkpt lat="47.01997" lon="8.95452">
        <ele>857</ele>
        <time>2021-08-02T11:12:07.270Z</time>
      </trkpt>
      <trkpt lat="47.01998" lon="8.95452">
        <ele>857</ele>
        <time>2021-08-02T11:12:08.269Z</time>
      </trkpt>
      <trkpt lat="47.01998" lon="8.95452">
        <ele>856</ele>
        <time>2021-08-02T11:12:09.270Z</time>
      </trkpt>
      <trkpt lat="47.01999" lon="8.95451">
        <ele>856</ele>
        <time>2021-08-02T11:12:10.270Z</time>
      </trkpt>
      <trkpt lat="47.02" lon="8.95451">
        <ele>856</ele>
        <time>2021-08-02T11:12:11.270Z</time>
      </trkpt>
      <trkpt lat="47.02" lon="8.95451">
        <ele>856</ele>
        <time>2021-08-02T11:12:12.269Z</time>
      </trkpt>
      <trkpt lat="47.02001" lon="8.9545">
        <ele>855</ele>
        <time>2021-08-02T11:12:13.270Z</time>
      </trkpt>
      <trkpt lat="47.02002" lon="8.9545">
        <ele>855</ele>
        <time>2021-08-02T11:12:14.270Z</time>
      </trkpt>
      <trkpt lat="47.02003" lon="8.9545">
        <ele>854</ele>
        <time>2021-08-02T11:12:15.269Z</time>
      </trkpt>
      <trkpt lat="47.02005" lon="8.9545">
        <ele>854</ele>
        <time>2021-08-02T11:12:16.269Z</time>
      </trkpt>
      <trkpt lat="47.02005" lon="8.9545">
        <ele>854</ele>
        <time>2021-08-02T11:12:17.270Z</time>
      </trkpt>
      <trkpt lat="47.02006" lon="8.9545">
        <ele>854</ele>
        <time>2021-08-02T11:12:18.269Z</time>
      </trkpt>
      <trkpt lat="47.02006" lon="8.9545">
        <ele>854</ele>
        <time>2021-08-02T11:12:19.270Z</time>
      </trkpt>
      <trkpt lat="47.02007" lon="8.9545">
        <ele>854</ele>
        <time>2021-08-02T11:12:20.270Z</time>
      </trkpt>
      <trkpt lat="47.02008" lon="8.95449">
        <ele>854</ele>
        <time>2021-08-02T11:12:21.270Z</time>
      </trkpt>
      <trkpt lat="47.02009" lon="8.95448">
        <ele>854</ele>
        <time>2021-08-02T11:12:22.270Z</time>
      </trkpt>
      <trkpt lat="47.0201" lon="8.95447">
        <ele>854</ele>
        <time>2021-08-02T11:12:23.269Z</time>
      </trkpt>
      <trkpt lat="47.02011" lon="8.95446">
        <ele>854</ele>
        <time>2021-08-02T11:12:24.270Z</time>
      </trkpt>
      <trkpt lat="47.02011" lon="8.95446">
        <ele>854</ele>
        <time>2021-08-02T11:12:25.269Z</time>
      </trkpt>
      <trkpt lat="47.02012" lon="8.95445">
        <ele>854</ele>
        <time>2021-08-02T11:12:26.270Z</time>
      </trkpt>
      <trkpt lat="47.02013" lon="8.95444">
        <ele>854</ele>
        <time>2021-08-02T11:12:27.269Z</time>
      </trkpt>
      <trkpt lat="47.02014" lon="8.95444">
        <ele>854</ele>
        <time>2021-08-02T11:12:28.270Z</time>
      </trkpt>
      <trkpt lat="47.02015" lon="8.95443">
        <ele>854</ele>
        <time>2021-08-02T11:12:29.269Z</time>
      </trkpt>
      <trkpt lat="47.02015" lon="8.95442">
        <ele>855</ele>
        <time>2021-08-02T11:12:30.270Z</time>
      </trkpt>
      <trkpt lat="47.02018" lon="8.95441">
        <ele>856</ele>
        <time>2021-08-02T11:12:31.270Z</time>
      </trkpt>
      <trkpt lat="47.02019" lon="8.95439">
        <ele>856</ele>
        <time>2021-08-02T11:12:32.269Z</time>
      </trkpt>
      <trkpt lat="47.0202" lon="8.95437">
        <ele>857</ele>
        <time>2021-08-02T11:12:33.270Z</time>
      </trkpt>
      <trkpt lat="47.02021" lon="8.95436">
        <ele>857</ele>
        <time>2021-08-02T11:12:34.270Z</time>
      </trkpt>
      <trkpt lat="47.02022" lon="8.95435">
        <ele>858</ele>
        <time>2021-08-02T11:12:35.269Z</time>
      </trkpt>
      <trkpt lat="47.02023" lon="8.95433">
        <ele>858</ele>
        <time>2021-08-02T11:12:36.270Z</time>
      </trkpt>
      <trkpt lat="47.02024" lon="8.95431">
        <ele>859</ele>
        <time>2021-08-02T11:12:37.270Z</time>
      </trkpt>
      <trkpt lat="47.02026" lon="8.95431">
        <ele>859</ele>
        <time>2021-08-02T11:12:38.270Z</time>
      </trkpt>
      <trkpt lat="47.02027" lon="8.95429">
        <ele>859</ele>
        <time>2021-08-02T11:12:39.270Z</time>
      </trkpt>
      <trkpt lat="47.02028" lon="8.95428">
        <ele>859</ele>
        <time>2021-08-02T11:12:40.270Z</time>
      </trkpt>
      <trkpt lat="47.02029" lon="8.95427">
        <ele>859</ele>
        <time>2021-08-02T11:12:41.270Z</time>
      </trkpt>
      <trkpt lat="47.02029" lon="8.95426">
        <ele>859</ele>
        <time>2021-08-02T11:12:42.269Z</time>
      </trkpt>
      <trkpt lat="47.0203" lon="8.95424">
        <ele>859</ele>
        <time>2021-08-02T11:12:43.270Z</time>
      </trkpt>
      <trkpt lat="47.02031" lon="8.95423">
        <ele>859</ele>
        <time>2021-08-02T11:12:44.269Z</time>
      </trkpt>
      <trkpt lat="47.02031" lon="8.95422">
        <ele>859</ele>
        <time>2021-08-02T11:12:45.270Z</time>
      </trkpt>
      <trkpt lat="47.02032" lon="8.95421">
        <ele>860</ele>
        <time>2021-08-02T11:12:46.270Z</time>
      </trkpt>
      <trkpt lat="47.02032" lon="8.9542">
        <ele>860</ele>
        <time>2021-08-02T11:12:47.270Z</time>
      </trkpt>
      <trkpt lat="47.02033" lon="8.95418">
        <ele>860</ele>
        <time>2021-08-02T11:12:48.270Z</time>
      </trkpt>
      <trkpt lat="47.02034" lon="8.95417">
        <ele>860</ele>
        <time>2021-08-02T11:12:49.269Z</time>
      </trkpt>
      <trkpt lat="47.02035" lon="8.95416">
        <ele>860</ele>
        <time>2021-08-02T11:12:50.270Z</time>
      </trkpt>
      <trkpt lat="47.02035" lon="8.95414">
        <ele>860</ele>
        <time>2021-08-02T11:12:51.269Z</time>
      </trkpt>
      <trkpt lat="47.02035" lon="8.95412">
        <ele>860</ele>
        <time>2021-08-02T11:12:52.270Z</time>
      </trkpt>
      <trkpt lat="47.02036" lon="8.95411">
        <ele>860</ele>
        <time>2021-08-02T11:12:53.270Z</time>
      </trkpt>
      <trkpt lat="47.02036" lon="8.95409">
        <ele>860</ele>
        <time>2021-08-02T11:12:54.270Z</time>
      </trkpt>
      <trkpt lat="47.02036" lon="8.95408">
        <ele>860</ele>
        <time>2021-08-02T11:12:55.270Z</time>
      </trkpt>
      <trkpt lat="47.02037" lon="8.95406">
        <ele>860</ele>
        <time>2021-08-02T11:12:56.270Z</time>
      </trkpt>
      <trkpt lat="47.02037" lon="8.95405">
        <ele>860</ele>
        <time>2021-08-02T11:12:57.270Z</time>
      </trkpt>
      <trkpt lat="47.02037" lon="8.95403">
        <ele>860</ele>
        <time>2021-08-02T11:12:58.270Z</time>
      </trkpt>
      <trkpt lat="47.02038" lon="8.95401">
        <ele>860</ele>
        <time>2021-08-02T11:12:59.269Z</time>
      </trkpt>
      <trkpt lat="47.02038" lon="8.954">
        <ele>860</ele>
        <time>2021-08-02T11:13:00.270Z</time>
      </trkpt>
      <trkpt lat="47.02039" lon="8.95398">
        <ele>860</ele>
        <time>2021-08-02T11:13:01.270Z</time>
      </trkpt>
      <trkpt lat="47.02039" lon="8.95397">
        <ele>860</ele>
        <time>2021-08-02T11:13:02.270Z</time>
      </trkpt>
      <trkpt lat="47.0204" lon="8.95395">
        <ele>860</ele>
        <time>2021-08-02T11:13:03.270Z</time>
      </trkpt>
      <trkpt lat="47.0204" lon="8.95394">
        <ele>860</ele>
        <time>2021-08-02T11:13:04.270Z</time>
      </trkpt>
      <trkpt lat="47.02041" lon="8.95394">
        <ele>860</ele>
        <time>2021-08-02T11:13:05.270Z</time>
      </trkpt>
      <trkpt lat="47.02041" lon="8.95392">
        <ele>859</ele>
        <time>2021-08-02T11:13:06.270Z</time>
      </trkpt>
      <trkpt lat="47.02041" lon="8.95391">
        <ele>859</ele>
        <time>2021-08-02T11:13:07.270Z</time>
      </trkpt>
      <trkpt lat="47.02042" lon="8.95389">
        <ele>859</ele>
        <time>2021-08-02T11:13:08.270Z</time>
      </trkpt>
      <trkpt lat="47.02042" lon="8.95387">
        <ele>859</ele>
        <time>2021-08-02T11:13:09.270Z</time>
      </trkpt>
      <trkpt lat="47.02042" lon="8.95386">
        <ele>859</ele>
        <time>2021-08-02T11:13:10.270Z</time>
      </trkpt>
      <trkpt lat="47.02042" lon="8.95384">
        <ele>858</ele>
        <time>2021-08-02T11:13:11.270Z</time>
      </trkpt>
      <trkpt lat="47.02043" lon="8.95383">
        <ele>858</ele>
        <time>2021-08-02T11:13:12.269Z</time>
      </trkpt>
      <trkpt lat="47.02043" lon="8.95382">
        <ele>858</ele>
        <time>2021-08-02T11:13:13.270Z</time>
      </trkpt>
      <trkpt lat="47.02043" lon="8.9538">
        <ele>858</ele>
        <time>2021-08-02T11:13:14.270Z</time>
      </trkpt>
      <trkpt lat="47.02044" lon="8.95378">
        <ele>857</ele>
        <time>2021-08-02T11:13:15.270Z</time>
      </trkpt>
      <trkpt lat="47.02044" lon="8.95376">
        <ele>857</ele>
        <time>2021-08-02T11:13:16.270Z</time>
      </trkpt>
      <trkpt lat="47.02045" lon="8.95374">
        <ele>857</ele>
        <time>2021-08-02T11:13:17.270Z</time>
      </trkpt>
      <trkpt lat="47.02045" lon="8.95372">
        <ele>857</ele>
        <time>2021-08-02T11:13:18.270Z</time>
      </trkpt>
      <trkpt lat="47.02045" lon="8.95371">
        <ele>857</ele>
        <time>2021-08-02T11:13:19.270Z</time>
      </trkpt>
      <trkpt lat="47.02045" lon="8.9537">
        <ele>857</ele>
        <time>2021-08-02T11:13:20.270Z</time>
      </trkpt>
      <trkpt lat="47.02045" lon="8.95369">
        <ele>856</ele>
        <time>2021-08-02T11:13:21.269Z</time>
      </trkpt>
      <trkpt lat="47.02045" lon="8.95367">
        <ele>856</ele>
        <time>2021-08-02T11:13:22.270Z</time>
      </trkpt>
      <trkpt lat="47.02046" lon="8.95365">
        <ele>856</ele>
        <time>2021-08-02T11:13:23.270Z</time>
      </trkpt>
      <trkpt lat="47.02046" lon="8.95363">
        <ele>856</ele>
        <time>2021-08-02T11:13:24.270Z</time>
      </trkpt>
      <trkpt lat="47.02046" lon="8.95361">
        <ele>857</ele>
        <time>2021-08-02T11:13:25.269Z</time>
      </trkpt>
      <trkpt lat="47.02047" lon="8.95359">
        <ele>857</ele>
        <time>2021-08-02T11:13:26.269Z</time>
      </trkpt>
      <trkpt lat="47.02047" lon="8.95357">
        <ele>857</ele>
        <time>2021-08-02T11:13:27.269Z</time>
      </trkpt>
      <trkpt lat="47.02046" lon="8.95354">
        <ele>857</ele>
        <time>2021-08-02T11:13:28.270Z</time>
      </trkpt>
      <trkpt lat="47.02045" lon="8.95351">
        <ele>856</ele>
        <time>2021-08-02T11:13:29.269Z</time>
      </trkpt>
      <trkpt lat="47.02045" lon="8.95349">
        <ele>855</ele>
        <time>2021-08-02T11:13:30.270Z</time>
      </trkpt>
      <trkpt lat="47.02044" lon="8.95347">
        <ele>854</ele>
        <time>2021-08-02T11:13:31.270Z</time>
      </trkpt>
      <trkpt lat="47.02044" lon="8.95346">
        <ele>854</ele>
        <time>2021-08-02T11:13:32.270Z</time>
      </trkpt>
      <trkpt lat="47.02045" lon="8.95344">
        <ele>854</ele>
        <time>2021-08-02T11:13:33.270Z</time>
      </trkpt>
      <trkpt lat="47.02045" lon="8.95342">
        <ele>854</ele>
        <time>2021-08-02T11:13:34.270Z</time>
      </trkpt>
      <trkpt lat="47.02046" lon="8.95341">
        <ele>854</ele>
        <time>2021-08-02T11:13:35.270Z</time>
      </trkpt>
      <trkpt lat="47.02046" lon="8.95339">
        <ele>854</ele>
        <time>2021-08-02T11:13:36.270Z</time>
      </trkpt>
      <trkpt lat="47.02046" lon="8.95337">
        <ele>854</ele>
        <time>2021-08-02T11:13:37.270Z</time>
      </trkpt>
      <trkpt lat="47.02047" lon="8.95336">
        <ele>854</ele>
        <time>2021-08-02T11:13:38.269Z</time>
      </trkpt>
      <trkpt lat="47.02047" lon="8.95334">
        <ele>854</ele>
        <time>2021-08-02T11:13:39.270Z</time>
      </trkpt>
      <trkpt lat="47.02047" lon="8.95332">
        <ele>854</ele>
        <time>2021-08-02T11:13:40.270Z</time>
      </trkpt>
      <trkpt lat="47.02048" lon="8.9533">
        <ele>854</ele>
        <time>2021-08-02T11:13:41.269Z</time>
      </trkpt>
      <trkpt lat="47.02048" lon="8.95329">
        <ele>854</ele>
        <time>2021-08-02T11:13:42.270Z</time>
      </trkpt>
      <trkpt lat="47.02048" lon="8.95327">
        <ele>854</ele>
        <time>2021-08-02T11:13:43.270Z</time>
      </trkpt>
      <trkpt lat="47.02047" lon="8.95325">
        <ele>854</ele>
        <time>2021-08-02T11:13:44.269Z</time>
      </trkpt>
      <trkpt lat="47.02047" lon="8.95322">
        <ele>853</ele>
        <time>2021-08-02T11:13:45.270Z</time>
      </trkpt>
      <trkpt lat="47.02047" lon="8.95319">
        <ele>853</ele>
        <time>2021-08-02T11:13:46.270Z</time>
      </trkpt>
      <trkpt lat="47.02047" lon="8.95318">
        <ele>853</ele>
        <time>2021-08-02T11:13:47.269Z</time>
      </trkpt>
      <trkpt lat="47.02047" lon="8.95316">
        <ele>853</ele>
        <time>2021-08-02T11:13:48.270Z</time>
      </trkpt>
      <trkpt lat="47.02047" lon="8.95315">
        <ele>853</ele>
        <time>2021-08-02T11:13:49.270Z</time>
      </trkpt>
      <trkpt lat="47.02047" lon="8.95314">
        <ele>853</ele>
        <time>2021-08-02T11:13:50.270Z</time>
      </trkpt>
      <trkpt lat="47.02047" lon="8.95312">
        <ele>853</ele>
        <time>2021-08-02T11:13:51.270Z</time>
      </trkpt>
      <trkpt lat="47.02047" lon="8.9531">
        <ele>853</ele>
        <time>2021-08-02T11:13:52.270Z</time>
      </trkpt>
      <trkpt lat="47.02047" lon="8.95309">
        <ele>853</ele>
        <time>2021-08-02T11:13:53.269Z</time>
      </trkpt>
      <trkpt lat="47.02047" lon="8.95308">
        <ele>853</ele>
        <time>2021-08-02T11:13:54.270Z</time>
      </trkpt>
      <trkpt lat="47.02047" lon="8.95307">
        <ele>853</ele>
        <time>2021-08-02T11:13:55.269Z</time>
      </trkpt>
      <trkpt lat="47.02047" lon="8.95306">
        <ele>853</ele>
        <time>2021-08-02T11:13:56.270Z</time>
      </trkpt>
      <trkpt lat="47.02046" lon="8.95305">
        <ele>854</ele>
        <time>2021-08-02T11:13:57.269Z</time>
      </trkpt>
      <trkpt lat="47.02046" lon="8.95303">
        <ele>854</ele>
        <time>2021-08-02T11:13:58.270Z</time>
      </trkpt>
      <trkpt lat="47.02046" lon="8.95302">
        <ele>855</ele>
        <time>2021-08-02T11:13:59.270Z</time>
      </trkpt>
      <trkpt lat="47.02046" lon="8.953">
        <ele>855</ele>
        <time>2021-08-02T11:14:00.270Z</time>
      </trkpt>
      <trkpt lat="47.02046" lon="8.95299">
        <ele>855</ele>
        <time>2021-08-02T11:14:01.270Z</time>
      </trkpt>
      <trkpt lat="47.02045" lon="8.95298">
        <ele>855</ele>
        <time>2021-08-02T11:14:02.269Z</time>
      </trkpt>
      <trkpt lat="47.02045" lon="8.95296">
        <ele>855</ele>
        <time>2021-08-02T11:14:03.270Z</time>
      </trkpt>
      <trkpt lat="47.02045" lon="8.95295">
        <ele>855</ele>
        <time>2021-08-02T11:14:04.269Z</time>
      </trkpt>
      <trkpt lat="47.02045" lon="8.95293">
        <ele>855</ele>
        <time>2021-08-02T11:14:05.270Z</time>
      </trkpt>
      <trkpt lat="47.02045" lon="8.95291">
        <ele>855</ele>
        <time>2021-08-02T11:14:06.270Z</time>
      </trkpt>
      <trkpt lat="47.02045" lon="8.9529">
        <ele>855</ele>
        <time>2021-08-02T11:14:07.270Z</time>
      </trkpt>
      <trkpt lat="47.02045" lon="8.95288">
        <ele>855</ele>
        <time>2021-08-02T11:14:08.270Z</time>
      </trkpt>
      <trkpt lat="47.02044" lon="8.95286">
        <ele>855</ele>
        <time>2021-08-02T11:14:09.269Z</time>
      </trkpt>
      <trkpt lat="47.02044" lon="8.95284">
        <ele>855</ele>
        <time>2021-08-02T11:14:10.270Z</time>
      </trkpt>
      <trkpt lat="47.02044" lon="8.95283">
        <ele>854</ele>
        <time>2021-08-02T11:14:11.269Z</time>
      </trkpt>
      <trkpt lat="47.02044" lon="8.95281">
        <ele>854</ele>
        <time>2021-08-02T11:14:12.270Z</time>
      </trkpt>
      <trkpt lat="47.02044" lon="8.95279">
        <ele>854</ele>
        <time>2021-08-02T11:14:13.270Z</time>
      </trkpt>
      <trkpt lat="47.02044" lon="8.95277">
        <ele>854</ele>
        <time>2021-08-02T11:14:14.270Z</time>
      </trkpt>
      <trkpt lat="47.02044" lon="8.95276">
        <ele>855</ele>
        <time>2021-08-02T11:14:15.270Z</time>
      </trkpt>
      <trkpt lat="47.02044" lon="8.95275">
        <ele>855</ele>
        <time>2021-08-02T11:14:16.270Z</time>
      </trkpt>
      <trkpt lat="47.02044" lon="8.95273">
        <ele>855</ele>
        <time>2021-08-02T11:14:17.270Z</time>
      </trkpt>
      <trkpt lat="47.02044" lon="8.95271">
        <ele>856</ele>
        <time>2021-08-02T11:14:18.269Z</time>
      </trkpt>
      <trkpt lat="47.02044" lon="8.9527">
        <ele>856</ele>
        <time>2021-08-02T11:14:19.270Z</time>
      </trkpt>
      <trkpt lat="47.02044" lon="8.95269">
        <ele>856</ele>
        <time>2021-08-02T11:14:20.270Z</time>
      </trkpt>
      <trkpt lat="47.02044" lon="8.95267">
        <ele>856</ele>
        <time>2021-08-02T11:14:21.270Z</time>
      </trkpt>
      <trkpt lat="47.02044" lon="8.95266">
        <ele>855</ele>
        <time>2021-08-02T11:14:22.270Z</time>
      </trkpt>
      <trkpt lat="47.02044" lon="8.95265">
        <ele>855</ele>
        <time>2021-08-02T11:14:23.270Z</time>
      </trkpt>
      <trkpt lat="47.02045" lon="8.95263">
        <ele>855</ele>
        <time>2021-08-02T11:14:24.270Z</time>
      </trkpt>
      <trkpt lat="47.02045" lon="8.95262">
        <ele>855</ele>
        <time>2021-08-02T11:14:25.269Z</time>
      </trkpt>
      <trkpt lat="47.02045" lon="8.9526">
        <ele>855</ele>
        <time>2021-08-02T11:14:26.270Z</time>
      </trkpt>
      <trkpt lat="47.02044" lon="8.95258">
        <ele>855</ele>
        <time>2021-08-02T11:14:27.270Z</time>
      </trkpt>
      <trkpt lat="47.02043" lon="8.95256">
        <ele>855</ele>
        <time>2021-08-02T11:14:28.269Z</time>
      </trkpt>
      <trkpt lat="47.02042" lon="8.95255">
        <ele>855</ele>
        <time>2021-08-02T11:14:29.270Z</time>
      </trkpt>
      <trkpt lat="47.02041" lon="8.95253">
        <ele>855</ele>
        <time>2021-08-02T11:14:30.269Z</time>
      </trkpt>
      <trkpt lat="47.0204" lon="8.95251">
        <ele>855</ele>
        <time>2021-08-02T11:14:31.269Z</time>
      </trkpt>
      <trkpt lat="47.0204" lon="8.95249">
        <ele>855</ele>
        <time>2021-08-02T11:14:32.269Z</time>
      </trkpt>
      <trkpt lat="47.0204" lon="8.95248">
        <ele>855</ele>
        <time>2021-08-02T11:14:33.270Z</time>
      </trkpt>
      <trkpt lat="47.02039" lon="8.95247">
        <ele>855</ele>
        <time>2021-08-02T11:14:34.270Z</time>
      </trkpt>
      <trkpt lat="47.02038" lon="8.95246">
        <ele>855</ele>
        <time>2021-08-02T11:14:35.270Z</time>
      </trkpt>
      <trkpt lat="47.02037" lon="8.95245">
        <ele>855</ele>
        <time>2021-08-02T11:14:36.270Z</time>
      </trkpt>
      <trkpt lat="47.02036" lon="8.95244">
        <ele>856</ele>
        <time>2021-08-02T11:14:37.270Z</time>
      </trkpt>
      <trkpt lat="47.02035" lon="8.95243">
        <ele>856</ele>
        <time>2021-08-02T11:14:38.269Z</time>
      </trkpt>
      <trkpt lat="47.02034" lon="8.95242">
        <ele>857</ele>
        <time>2021-08-02T11:14:39.269Z</time>
      </trkpt>
      <trkpt lat="47.02032" lon="8.9524">
        <ele>857</ele>
        <time>2021-08-02T11:14:40.270Z</time>
      </trkpt>
      <trkpt lat="47.02031" lon="8.95239">
        <ele>857</ele>
        <time>2021-08-02T11:14:41.270Z</time>
      </trkpt>
      <trkpt lat="47.0203" lon="8.95237">
        <ele>858</ele>
        <time>2021-08-02T11:14:42.269Z</time>
      </trkpt>
      <trkpt lat="47.02029" lon="8.95236">
        <ele>859</ele>
        <time>2021-08-02T11:14:43.269Z</time>
      </trkpt>
      <trkpt lat="47.02029" lon="8.95236">
        <ele>860</ele>
        <time>2021-08-02T11:14:44.269Z</time>
      </trkpt>
      <trkpt lat="47.02028" lon="8.95235">
        <ele>860</ele>
        <time>2021-08-02T11:14:45.269Z</time>
      </trkpt>
      <trkpt lat="47.02028" lon="8.95233">
        <ele>861</ele>
        <time>2021-08-02T11:14:46.269Z</time>
      </trkpt>
      <trkpt lat="47.02028" lon="8.95231">
        <ele>861</ele>
        <time>2021-08-02T11:14:47.269Z</time>
      </trkpt>
      <trkpt lat="47.02027" lon="8.9523">
        <ele>862</ele>
        <time>2021-08-02T11:14:48.270Z</time>
      </trkpt>
      <trkpt lat="47.02027" lon="8.95229">
        <ele>862</ele>
        <time>2021-08-02T11:14:49.270Z</time>
      </trkpt>
      <trkpt lat="47.02026" lon="8.95229">
        <ele>863</ele>
        <time>2021-08-02T11:14:50.270Z</time>
      </trkpt>
      <trkpt lat="47.02026" lon="8.95228">
        <ele>863</ele>
        <time>2021-08-02T11:14:51.270Z</time>
      </trkpt>
      <trkpt lat="47.02025" lon="8.95228">
        <ele>864</ele>
        <time>2021-08-02T11:14:52.269Z</time>
      </trkpt>
      <trkpt lat="47.02025" lon="8.95227">
        <ele>864</ele>
        <time>2021-08-02T11:14:53.270Z</time>
      </trkpt>
      <trkpt lat="47.02025" lon="8.95226">
        <ele>864</ele>
        <time>2021-08-02T11:14:54.269Z</time>
      </trkpt>
      <trkpt lat="47.02025" lon="8.95226">
        <ele>864</ele>
        <time>2021-08-02T11:14:55.269Z</time>
      </trkpt>
      <trkpt lat="47.02024" lon="8.95226">
        <ele>864</ele>
        <time>2021-08-02T11:14:56.269Z</time>
      </trkpt>
      <trkpt lat="47.02025" lon="8.95226">
        <ele>864</ele>
        <time>2021-08-02T11:14:57.270Z</time>
      </trkpt>
      <trkpt lat="47.02026" lon="8.95226">
        <ele>864</ele>
        <time>2021-08-02T11:14:58.269Z</time>
      </trkpt>
      <trkpt lat="47.02027" lon="8.95226">
        <ele>864</ele>
        <time>2021-08-02T11:14:59.269Z</time>
      </trkpt>
      <trkpt lat="47.02028" lon="8.95225">
        <ele>863</ele>
        <time>2021-08-02T11:15:00.270Z</time>
      </trkpt>
      <trkpt lat="47.02028" lon="8.95224">
        <ele>863</ele>
        <time>2021-08-02T11:15:01.269Z</time>
      </trkpt>
      <trkpt lat="47.02029" lon="8.95223">
        <ele>863</ele>
        <time>2021-08-02T11:15:02.270Z</time>
      </trkpt>
      <trkpt lat="47.02029" lon="8.95223">
        <ele>863</ele>
        <time>2021-08-02T11:15:03.270Z</time>
      </trkpt>
      <trkpt lat="47.0203" lon="8.95221">
        <ele>863</ele>
        <time>2021-08-02T11:15:04.270Z</time>
      </trkpt>
      <trkpt lat="47.02031" lon="8.9522">
        <ele>863</ele>
        <time>2021-08-02T11:15:05.270Z</time>
      </trkpt>
      <trkpt lat="47.02031" lon="8.95218">
        <ele>862</ele>
        <time>2021-08-02T11:15:06.270Z</time>
      </trkpt>
      <trkpt lat="47.02032" lon="8.95217">
        <ele>862</ele>
        <time>2021-08-02T11:15:07.270Z</time>
      </trkpt>
      <trkpt lat="47.02033" lon="8.95216">
        <ele>861</ele>
        <time>2021-08-02T11:15:08.269Z</time>
      </trkpt>
      <trkpt lat="47.02034" lon="8.95215">
        <ele>861</ele>
        <time>2021-08-02T11:15:09.270Z</time>
      </trkpt>
      <trkpt lat="47.02034" lon="8.95214">
        <ele>861</ele>
        <time>2021-08-02T11:15:10.269Z</time>
      </trkpt>
      <trkpt lat="47.02034" lon="8.95213">
        <ele>860</ele>
        <time>2021-08-02T11:15:11.270Z</time>
      </trkpt>
      <trkpt lat="47.02034" lon="8.95211">
        <ele>860</ele>
        <time>2021-08-02T11:15:12.270Z</time>
      </trkpt>
      <trkpt lat="47.02035" lon="8.9521">
        <ele>860</ele>
        <time>2021-08-02T11:15:13.270Z</time>
      </trkpt>
      <trkpt lat="47.02036" lon="8.95209">
        <ele>860</ele>
        <time>2021-08-02T11:15:14.270Z</time>
      </trkpt>
      <trkpt lat="47.02036" lon="8.95207">
        <ele>860</ele>
        <time>2021-08-02T11:15:15.270Z</time>
      </trkpt>
      <trkpt lat="47.02037" lon="8.95206">
        <ele>860</ele>
        <time>2021-08-02T11:15:16.270Z</time>
      </trkpt>
      <trkpt lat="47.02037" lon="8.95204">
        <ele>860</ele>
        <time>2021-08-02T11:15:17.269Z</time>
      </trkpt>
      <trkpt lat="47.02038" lon="8.95203">
        <ele>860</ele>
        <time>2021-08-02T11:15:18.270Z</time>
      </trkpt>
      <trkpt lat="47.02039" lon="8.95202">
        <ele>860</ele>
        <time>2021-08-02T11:15:19.270Z</time>
      </trkpt>
      <trkpt lat="47.02038" lon="8.952">
        <ele>860</ele>
        <time>2021-08-02T11:15:20.270Z</time>
      </trkpt>
      <trkpt lat="47.02039" lon="8.95199">
        <ele>860</ele>
        <time>2021-08-02T11:15:21.270Z</time>
      </trkpt>
      <trkpt lat="47.02039" lon="8.95197">
        <ele>860</ele>
        <time>2021-08-02T11:15:22.270Z</time>
      </trkpt>
      <trkpt lat="47.0204" lon="8.95196">
        <ele>860</ele>
        <time>2021-08-02T11:15:23.269Z</time>
      </trkpt>
      <trkpt lat="47.0204" lon="8.95195">
        <ele>861</ele>
        <time>2021-08-02T11:15:24.270Z</time>
      </trkpt>
      <trkpt lat="47.02041" lon="8.95193">
        <ele>861</ele>
        <time>2021-08-02T11:15:25.269Z</time>
      </trkpt>
      <trkpt lat="47.02042" lon="8.95192">
        <ele>860</ele>
        <time>2021-08-02T11:15:26.270Z</time>
      </trkpt>
      <trkpt lat="47.02041" lon="8.9519">
        <ele>860</ele>
        <time>2021-08-02T11:15:27.270Z</time>
      </trkpt>
      <trkpt lat="47.02041" lon="8.9519">
        <ele>860</ele>
        <time>2021-08-02T11:15:28.270Z</time>
      </trkpt>
      <trkpt lat="47.02041" lon="8.95189">
        <ele>860</ele>
        <time>2021-08-02T11:15:29.270Z</time>
      </trkpt>
      <trkpt lat="47.02041" lon="8.95187">
        <ele>860</ele>
        <time>2021-08-02T11:15:30.269Z</time>
      </trkpt>
      <trkpt lat="47.02041" lon="8.95186">
        <ele>860</ele>
        <time>2021-08-02T11:15:31.270Z</time>
      </trkpt>
      <trkpt lat="47.0204" lon="8.95184">
        <ele>861</ele>
        <time>2021-08-02T11:15:32.269Z</time>
      </trkpt>
      <trkpt lat="47.0204" lon="8.95183">
        <ele>861</ele>
        <time>2021-08-02T11:15:33.269Z</time>
      </trkpt>
      <trkpt lat="47.02039" lon="8.95182">
        <ele>862</ele>
        <time>2021-08-02T11:15:34.270Z</time>
      </trkpt>
      <trkpt lat="47.02039" lon="8.9518">
        <ele>862</ele>
        <time>2021-08-02T11:15:35.270Z</time>
      </trkpt>
      <trkpt lat="47.02038" lon="8.95178">
        <ele>862</ele>
        <time>2021-08-02T11:15:36.269Z</time>
      </trkpt>
      <trkpt lat="47.02038" lon="8.95177">
        <ele>862</ele>
        <time>2021-08-02T11:15:37.269Z</time>
      </trkpt>
      <trkpt lat="47.02038" lon="8.95175">
        <ele>861</ele>
        <time>2021-08-02T11:15:38.269Z</time>
      </trkpt>
      <trkpt lat="47.02038" lon="8.95173">
        <ele>861</ele>
        <time>2021-08-02T11:15:39.270Z</time>
      </trkpt>
      <trkpt lat="47.02038" lon="8.95172">
        <ele>861</ele>
        <time>2021-08-02T11:15:40.270Z</time>
      </trkpt>
      <trkpt lat="47.02038" lon="8.95171">
        <ele>860</ele>
        <time>2021-08-02T11:15:41.270Z</time>
      </trkpt>
      <trkpt lat="47.02038" lon="8.95171">
        <ele>860</ele>
        <time>2021-08-02T11:15:42.270Z</time>
      </trkpt>
      <trkpt lat="47.02038" lon="8.9517">
        <ele>859</ele>
        <time>2021-08-02T11:15:43.270Z</time>
      </trkpt>
      <trkpt lat="47.02038" lon="8.95169">
        <ele>859</ele>
        <time>2021-08-02T11:15:44.270Z</time>
      </trkpt>
      <trkpt lat="47.02039" lon="8.95168">
        <ele>858</ele>
        <time>2021-08-02T11:15:45.270Z</time>
      </trkpt>
      <trkpt lat="47.0204" lon="8.95167">
        <ele>858</ele>
        <time>2021-08-02T11:15:46.269Z</time>
      </trkpt>
      <trkpt lat="47.02041" lon="8.95165">
        <ele>857</ele>
        <time>2021-08-02T11:15:47.270Z</time>
      </trkpt>
      <trkpt lat="47.02042" lon="8.95164">
        <ele>857</ele>
        <time>2021-08-02T11:15:48.270Z</time>
      </trkpt>
      <trkpt lat="47.02042" lon="8.95163">
        <ele>856</ele>
        <time>2021-08-02T11:15:49.270Z</time>
      </trkpt>
      <trkpt lat="47.02043" lon="8.95162">
        <ele>856</ele>
        <time>2021-08-02T11:15:50.269Z</time>
      </trkpt>
      <trkpt lat="47.02043" lon="8.95161">
        <ele>855</ele>
        <time>2021-08-02T11:15:51.270Z</time>
      </trkpt>
      <trkpt lat="47.02043" lon="8.9516">
        <ele>855</ele>
        <time>2021-08-02T11:15:52.270Z</time>
      </trkpt>
      <trkpt lat="47.02044" lon="8.95159">
        <ele>855</ele>
        <time>2021-08-02T11:15:53.270Z</time>
      </trkpt>
      <trkpt lat="47.02044" lon="8.95158">
        <ele>855</ele>
        <time>2021-08-02T11:15:54.270Z</time>
      </trkpt>
      <trkpt lat="47.02044" lon="8.95156">
        <ele>855</ele>
        <time>2021-08-02T11:15:55.270Z</time>
      </trkpt>
      <trkpt lat="47.02044" lon="8.95155">
        <ele>856</ele>
        <time>2021-08-02T11:15:56.269Z</time>
      </trkpt>
      <trkpt lat="47.02043" lon="8.95153">
        <ele>856</ele>
        <time>2021-08-02T11:15:57.270Z</time>
      </trkpt>
      <trkpt lat="47.02041" lon="8.95151">
        <ele>856</ele>
        <time>2021-08-02T11:15:58.269Z</time>
      </trkpt>
      <trkpt lat="47.0204" lon="8.9515">
        <ele>855</ele>
        <time>2021-08-02T11:15:59.269Z</time>
      </trkpt>
      <trkpt lat="47.0204" lon="8.95148">
        <ele>855</ele>
        <time>2021-08-02T11:16:08.406Z</time>
      </trkpt>
      <trkpt lat="47.02041" lon="8.95148">
        <ele>855</ele>
        <time>2021-08-02T11:16:12.136Z</time>
      </trkpt>
      <trkpt lat="47.02041" lon="8.95147">
        <ele>855</ele>
        <time>2021-08-02T11:16:13.136Z</time>
      </trkpt>
      <trkpt lat="47.02042" lon="8.95146">
        <ele>855</ele>
        <time>2021-08-02T11:16:14.137Z</time>
      </trkpt>
      <trkpt lat="47.02042" lon="8.95145">
        <ele>855</ele>
        <time>2021-08-02T11:16:28.166Z</time>
      </trkpt>
      <trkpt lat="47.02042" lon="8.95144">
        <ele>854</ele>
        <time>2021-08-02T11:16:29.165Z</time>
      </trkpt>
      <trkpt lat="47.02043" lon="8.95143">
        <ele>853</ele>
        <time>2021-08-02T11:16:30.166Z</time>
      </trkpt>
      <trkpt lat="47.02043" lon="8.95142">
        <ele>853</ele>
        <time>2021-08-02T11:16:31.166Z</time>
      </trkpt>
      <trkpt lat="47.02044" lon="8.95141">
        <ele>852</ele>
        <time>2021-08-02T11:16:32.166Z</time>
      </trkpt>
      <trkpt lat="47.02046" lon="8.9514">
        <ele>852</ele>
        <time>2021-08-02T11:16:33.166Z</time>
      </trkpt>
      <trkpt lat="47.02047" lon="8.95139">
        <ele>851</ele>
        <time>2021-08-02T11:16:34.166Z</time>
      </trkpt>
      <trkpt lat="47.02047" lon="8.95138">
        <ele>851</ele>
        <time>2021-08-02T11:16:35.166Z</time>
      </trkpt>
      <trkpt lat="47.02048" lon="8.95136">
        <ele>850</ele>
        <time>2021-08-02T11:16:36.166Z</time>
      </trkpt>
      <trkpt lat="47.02048" lon="8.95135">
        <ele>850</ele>
        <time>2021-08-02T11:16:37.166Z</time>
      </trkpt>
      <trkpt lat="47.02049" lon="8.95133">
        <ele>850</ele>
        <time>2021-08-02T11:16:38.165Z</time>
      </trkpt>
      <trkpt lat="47.0205" lon="8.95132">
        <ele>850</ele>
        <time>2021-08-02T11:16:39.166Z</time>
      </trkpt>
      <trkpt lat="47.0205" lon="8.9513">
        <ele>850</ele>
        <time>2021-08-02T11:16:40.165Z</time>
      </trkpt>
      <trkpt lat="47.0205" lon="8.95128">
        <ele>850</ele>
        <time>2021-08-02T11:16:41.166Z</time>
      </trkpt>
      <trkpt lat="47.0205" lon="8.95126">
        <ele>850</ele>
        <time>2021-08-02T11:16:42.166Z</time>
      </trkpt>
      <trkpt lat="47.0205" lon="8.95124">
        <ele>850</ele>
        <time>2021-08-02T11:16:43.166Z</time>
      </trkpt>
      <trkpt lat="47.0205" lon="8.95122">
        <ele>850</ele>
        <time>2021-08-02T11:16:44.165Z</time>
      </trkpt>
      <trkpt lat="47.0205" lon="8.9512">
        <ele>850</ele>
        <time>2021-08-02T11:16:45.165Z</time>
      </trkpt>
      <trkpt lat="47.0205" lon="8.95119">
        <ele>850</ele>
        <time>2021-08-02T11:16:46.166Z</time>
      </trkpt>
      <trkpt lat="47.0205" lon="8.95117">
        <ele>850</ele>
        <time>2021-08-02T11:16:47.166Z</time>
      </trkpt>
      <trkpt lat="47.0205" lon="8.95116">
        <ele>850</ele>
        <time>2021-08-02T11:16:48.166Z</time>
      </trkpt>
      <trkpt lat="47.02049" lon="8.95114">
        <ele>850</ele>
        <time>2021-08-02T11:16:49.166Z</time>
      </trkpt>
      <trkpt lat="47.02048" lon="8.95113">
        <ele>850</ele>
        <time>2021-08-02T11:16:50.165Z</time>
      </trkpt>
      <trkpt lat="47.02047" lon="8.95111">
        <ele>850</ele>
        <time>2021-08-02T11:16:51.166Z</time>
      </trkpt>
      <trkpt lat="47.02048" lon="8.9511">
        <ele>850</ele>
        <time>2021-08-02T11:16:52.166Z</time>
      </trkpt>
      <trkpt lat="47.02047" lon="8.95108">
        <ele>850</ele>
        <time>2021-08-02T11:16:53.166Z</time>
      </trkpt>
      <trkpt lat="47.02046" lon="8.95107">
        <ele>850</ele>
        <time>2021-08-02T11:16:54.166Z</time>
      </trkpt>
      <trkpt lat="47.02046" lon="8.95105">
        <ele>850</ele>
        <time>2021-08-02T11:16:55.166Z</time>
      </trkpt>
      <trkpt lat="47.02045" lon="8.95104">
        <ele>849</ele>
        <time>2021-08-02T11:16:56.166Z</time>
      </trkpt>
      <trkpt lat="47.02045" lon="8.95102">
        <ele>849</ele>
        <time>2021-08-02T11:16:57.166Z</time>
      </trkpt>
      <trkpt lat="47.02045" lon="8.95101">
        <ele>849</ele>
        <time>2021-08-02T11:16:58.166Z</time>
      </trkpt>
      <trkpt lat="47.02045" lon="8.95099">
        <ele>849</ele>
        <time>2021-08-02T11:16:59.165Z</time>
      </trkpt>
      <trkpt lat="47.02046" lon="8.95097">
        <ele>849</ele>
        <time>2021-08-02T11:17:00.166Z</time>
      </trkpt>
      <trkpt lat="47.02046" lon="8.95096">
        <ele>848</ele>
        <time>2021-08-02T11:17:01.165Z</time>
      </trkpt>
      <trkpt lat="47.02045" lon="8.95095">
        <ele>849</ele>
        <time>2021-08-02T11:17:02.166Z</time>
      </trkpt>
      <trkpt lat="47.02045" lon="8.95094">
        <ele>849</ele>
        <time>2021-08-02T11:17:03.166Z</time>
      </trkpt>
      <trkpt lat="47.02046" lon="8.95093">
        <ele>849</ele>
        <time>2021-08-02T11:17:04.166Z</time>
      </trkpt>
      <trkpt lat="47.02046" lon="8.95092">
        <ele>849</ele>
        <time>2021-08-02T11:17:05.166Z</time>
      </trkpt>
      <trkpt lat="47.02046" lon="8.95091">
        <ele>849</ele>
        <time>2021-08-02T11:17:06.166Z</time>
      </trkpt>
      <trkpt lat="47.02046" lon="8.9509">
        <ele>849</ele>
        <time>2021-08-02T11:17:07.166Z</time>
      </trkpt>
      <trkpt lat="47.02047" lon="8.95088">
        <ele>849</ele>
        <time>2021-08-02T11:17:08.165Z</time>
      </trkpt>
      <trkpt lat="47.02048" lon="8.95086">
        <ele>848</ele>
        <time>2021-08-02T11:17:09.166Z</time>
      </trkpt>
      <trkpt lat="47.02051" lon="8.95085">
        <ele>848</ele>
        <time>2021-08-02T11:17:10.165Z</time>
      </trkpt>
      <trkpt lat="47.02053" lon="8.95083">
        <ele>848</ele>
        <time>2021-08-02T11:17:11.165Z</time>
      </trkpt>
      <trkpt lat="47.02054" lon="8.95083">
        <ele>848</ele>
        <time>2021-08-02T11:17:12.165Z</time>
      </trkpt>
      <trkpt lat="47.02055" lon="8.95083">
        <ele>847</ele>
        <time>2021-08-02T11:17:13.166Z</time>
      </trkpt>
      <trkpt lat="47.02057" lon="8.95082">
        <ele>847</ele>
        <time>2021-08-02T11:17:14.166Z</time>
      </trkpt>
      <trkpt lat="47.02058" lon="8.95082">
        <ele>847</ele>
        <time>2021-08-02T11:17:15.166Z</time>
      </trkpt>
      <trkpt lat="47.02059" lon="8.95081">
        <ele>847</ele>
        <time>2021-08-02T11:17:16.165Z</time>
      </trkpt>
      <trkpt lat="47.02059" lon="8.9508">
        <ele>848</ele>
        <time>2021-08-02T11:17:17.165Z</time>
      </trkpt>
      <trkpt lat="47.0206" lon="8.95079">
        <ele>848</ele>
        <time>2021-08-02T11:17:18.165Z</time>
      </trkpt>
      <trkpt lat="47.02061" lon="8.95078">
        <ele>848</ele>
        <time>2021-08-02T11:17:19.165Z</time>
      </trkpt>
      <trkpt lat="47.02062" lon="8.95077">
        <ele>848</ele>
        <time>2021-08-02T11:17:20.166Z</time>
      </trkpt>
      <trkpt lat="47.02062" lon="8.95076">
        <ele>849</ele>
        <time>2021-08-02T11:17:21.166Z</time>
      </trkpt>
      <trkpt lat="47.02062" lon="8.95075">
        <ele>849</ele>
        <time>2021-08-02T11:17:22.166Z</time>
      </trkpt>
      <trkpt lat="47.02062" lon="8.95074">
        <ele>849</ele>
        <time>2021-08-02T11:17:23.166Z</time>
      </trkpt>
      <trkpt lat="47.02063" lon="8.95072">
        <ele>849</ele>
        <time>2021-08-02T11:17:24.166Z</time>
      </trkpt>
      <trkpt lat="47.02063" lon="8.95071">
        <ele>849</ele>
        <time>2021-08-02T11:17:25.166Z</time>
      </trkpt>
      <trkpt lat="47.02064" lon="8.95069">
        <ele>849</ele>
        <time>2021-08-02T11:17:26.166Z</time>
      </trkpt>
      <trkpt lat="47.02064" lon="8.95068">
        <ele>849</ele>
        <time>2021-08-02T11:17:27.165Z</time>
      </trkpt>
      <trkpt lat="47.02063" lon="8.95067">
        <ele>849</ele>
        <time>2021-08-02T11:17:28.165Z</time>
      </trkpt>
      <trkpt lat="47.02064" lon="8.95066">
        <ele>849</ele>
        <time>2021-08-02T11:17:29.166Z</time>
      </trkpt>
      <trkpt lat="47.02064" lon="8.95066">
        <ele>848</ele>
        <time>2021-08-02T11:17:30.166Z</time>
      </trkpt>
      <trkpt lat="47.02064" lon="8.95065">
        <ele>848</ele>
        <time>2021-08-02T11:17:31.166Z</time>
      </trkpt>
      <trkpt lat="47.02065" lon="8.95064">
        <ele>848</ele>
        <time>2021-08-02T11:17:32.166Z</time>
      </trkpt>
      <trkpt lat="47.02066" lon="8.95064">
        <ele>848</ele>
        <time>2021-08-02T11:17:33.165Z</time>
      </trkpt>
      <trkpt lat="47.02067" lon="8.95063">
        <ele>848</ele>
        <time>2021-08-02T11:17:34.166Z</time>
      </trkpt>
      <trkpt lat="47.02068" lon="8.95062">
        <ele>849</ele>
        <time>2021-08-02T11:17:35.166Z</time>
      </trkpt>
      <trkpt lat="47.02069" lon="8.95061">
        <ele>849</ele>
        <time>2021-08-02T11:17:36.165Z</time>
      </trkpt>
      <trkpt lat="47.02071" lon="8.9506">
        <ele>849</ele>
        <time>2021-08-02T11:17:37.166Z</time>
      </trkpt>
      <trkpt lat="47.02073" lon="8.95059">
        <ele>849</ele>
        <time>2021-08-02T11:17:38.165Z</time>
      </trkpt>
      <trkpt lat="47.02074" lon="8.95058">
        <ele>849</ele>
        <time>2021-08-02T11:17:39.166Z</time>
      </trkpt>
      <trkpt lat="47.02074" lon="8.95057">
        <ele>849</ele>
        <time>2021-08-02T11:17:40.165Z</time>
      </trkpt>
      <trkpt lat="47.02075" lon="8.95055">
        <ele>849</ele>
        <time>2021-08-02T11:17:41.165Z</time>
      </trkpt>
      <trkpt lat="47.02075" lon="8.95053">
        <ele>850</ele>
        <time>2021-08-02T11:17:42.166Z</time>
      </trkpt>
      <trkpt lat="47.02075" lon="8.95051">
        <ele>850</ele>
        <time>2021-08-02T11:17:43.166Z</time>
      </trkpt>
      <trkpt lat="47.02076" lon="8.95049">
        <ele>850</ele>
        <time>2021-08-02T11:17:44.166Z</time>
      </trkpt>
      <trkpt lat="47.02076" lon="8.95048">
        <ele>850</ele>
        <time>2021-08-02T11:17:45.166Z</time>
      </trkpt>
      <trkpt lat="47.02077" lon="8.95046">
        <ele>850</ele>
        <time>2021-08-02T11:17:46.166Z</time>
      </trkpt>
      <trkpt lat="47.02078" lon="8.95045">
        <ele>850</ele>
        <time>2021-08-02T11:17:47.166Z</time>
      </trkpt>
      <trkpt lat="47.02079" lon="8.95043">
        <ele>850</ele>
        <time>2021-08-02T11:17:48.165Z</time>
      </trkpt>
      <trkpt lat="47.0208" lon="8.95042">
        <ele>850</ele>
        <time>2021-08-02T11:17:49.166Z</time>
      </trkpt>
      <trkpt lat="47.02081" lon="8.95041">
        <ele>850</ele>
        <time>2021-08-02T11:17:50.166Z</time>
      </trkpt>
      <trkpt lat="47.0208" lon="8.9504">
        <ele>849</ele>
        <time>2021-08-02T11:17:51.166Z</time>
      </trkpt>
      <trkpt lat="47.0208" lon="8.95039">
        <ele>849</ele>
        <time>2021-08-02T11:17:52.165Z</time>
      </trkpt>
      <trkpt lat="47.02079" lon="8.95037">
        <ele>849</ele>
        <time>2021-08-02T11:17:53.166Z</time>
      </trkpt>
      <trkpt lat="47.0208" lon="8.95035">
        <ele>849</ele>
        <time>2021-08-02T11:17:54.166Z</time>
      </trkpt>
      <trkpt lat="47.02081" lon="8.95033">
        <ele>848</ele>
        <time>2021-08-02T11:17:55.166Z</time>
      </trkpt>
      <trkpt lat="47.02081" lon="8.95032">
        <ele>848</ele>
        <time>2021-08-02T11:17:56.166Z</time>
      </trkpt>
      <trkpt lat="47.02081" lon="8.95032">
        <ele>848</ele>
        <time>2021-08-02T11:17:57.165Z</time>
      </trkpt>
      <trkpt lat="47.02081" lon="8.95031">
        <ele>847</ele>
        <time>2021-08-02T11:17:58.166Z</time>
      </trkpt>
      <trkpt lat="47.02081" lon="8.95031">
        <ele>847</ele>
        <time>2021-08-02T11:17:59.166Z</time>
      </trkpt>
      <trkpt lat="47.02082" lon="8.9503">
        <ele>847</ele>
        <time>2021-08-02T11:18:00.166Z</time>
      </trkpt>
      <trkpt lat="47.02082" lon="8.95029">
        <ele>847</ele>
        <time>2021-08-02T11:18:01.166Z</time>
      </trkpt>
      <trkpt lat="47.02083" lon="8.95029">
        <ele>847</ele>
        <time>2021-08-02T11:18:02.166Z</time>
      </trkpt>
      <trkpt lat="47.02083" lon="8.95029">
        <ele>847</ele>
        <time>2021-08-02T11:18:03.166Z</time>
      </trkpt>
      <trkpt lat="47.02084" lon="8.95029">
        <ele>848</ele>
        <time>2021-08-02T11:18:04.166Z</time>
      </trkpt>
      <trkpt lat="47.02085" lon="8.95028">
        <ele>848</ele>
        <time>2021-08-02T11:18:05.166Z</time>
      </trkpt>
      <trkpt lat="47.02086" lon="8.95028">
        <ele>848</ele>
        <time>2021-08-02T11:18:06.166Z</time>
      </trkpt>
      <trkpt lat="47.02087" lon="8.95027">
        <ele>848</ele>
        <time>2021-08-02T11:18:07.166Z</time>
      </trkpt>
      <trkpt lat="47.02089" lon="8.95027">
        <ele>849</ele>
        <time>2021-08-02T11:18:08.166Z</time>
      </trkpt>
      <trkpt lat="47.0209" lon="8.95027">
        <ele>849</ele>
        <time>2021-08-02T11:18:09.166Z</time>
      </trkpt>
      <trkpt lat="47.02092" lon="8.95027">
        <ele>849</ele>
        <time>2021-08-02T11:18:10.166Z</time>
      </trkpt>
      <trkpt lat="47.02094" lon="8.95026">
        <ele>850</ele>
        <time>2021-08-02T11:18:11.165Z</time>
      </trkpt>
      <trkpt lat="47.02095" lon="8.95025">
        <ele>850</ele>
        <time>2021-08-02T11:18:12.166Z</time>
      </trkpt>
      <trkpt lat="47.02097" lon="8.95024">
        <ele>850</ele>
        <time>2021-08-02T11:18:13.165Z</time>
      </trkpt>
      <trkpt lat="47.02098" lon="8.95023">
        <ele>851</ele>
        <time>2021-08-02T11:18:14.166Z</time>
      </trkpt>
      <trkpt lat="47.021" lon="8.95023">
        <ele>851</ele>
        <time>2021-08-02T11:18:15.165Z</time>
      </trkpt>
      <trkpt lat="47.02101" lon="8.95023">
        <ele>852</ele>
        <time>2021-08-02T11:18:16.166Z</time>
      </trkpt>
      <trkpt lat="47.02102" lon="8.95022">
        <ele>852</ele>
        <time>2021-08-02T11:18:17.166Z</time>
      </trkpt>
      <trkpt lat="47.02103" lon="8.95022">
        <ele>853</ele>
        <time>2021-08-02T11:18:18.166Z</time>
      </trkpt>
      <trkpt lat="47.02104" lon="8.95021">
        <ele>854</ele>
        <time>2021-08-02T11:18:19.166Z</time>
      </trkpt>
      <trkpt lat="47.02105" lon="8.95021">
        <ele>855</ele>
        <time>2021-08-02T11:18:20.165Z</time>
      </trkpt>
      <trkpt lat="47.02106" lon="8.9502">
        <ele>856</ele>
        <time>2021-08-02T11:18:21.166Z</time>
      </trkpt>
      <trkpt lat="47.02107" lon="8.9502">
        <ele>856</ele>
        <time>2021-08-02T11:18:22.165Z</time>
      </trkpt>
      <trkpt lat="47.02108" lon="8.95019">
        <ele>856</ele>
        <time>2021-08-02T11:18:23.166Z</time>
      </trkpt>
      <trkpt lat="47.02109" lon="8.95018">
        <ele>857</ele>
        <time>2021-08-02T11:18:24.165Z</time>
      </trkpt>
      <trkpt lat="47.02109" lon="8.95017">
        <ele>857</ele>
        <time>2021-08-02T11:18:25.166Z</time>
      </trkpt>
      <trkpt lat="47.0211" lon="8.95016">
        <ele>857</ele>
        <time>2021-08-02T11:18:26.165Z</time>
      </trkpt>
      <trkpt lat="47.02111" lon="8.95015">
        <ele>858</ele>
        <time>2021-08-02T11:18:27.166Z</time>
      </trkpt>
      <trkpt lat="47.02112" lon="8.95014">
        <ele>858</ele>
        <time>2021-08-02T11:18:28.166Z</time>
      </trkpt>
      <trkpt lat="47.02113" lon="8.95014">
        <ele>858</ele>
        <time>2021-08-02T11:18:29.166Z</time>
      </trkpt>
      <trkpt lat="47.02116" lon="8.95013">
        <ele>859</ele>
        <time>2021-08-02T11:18:30.166Z</time>
      </trkpt>
      <trkpt lat="47.02118" lon="8.95012">
        <ele>859</ele>
        <time>2021-08-02T11:18:31.165Z</time>
      </trkpt>
      <trkpt lat="47.02119" lon="8.9501">
        <ele>858</ele>
        <time>2021-08-02T11:18:32.166Z</time>
      </trkpt>
      <trkpt lat="47.0212" lon="8.95009">
        <ele>858</ele>
        <time>2021-08-02T11:18:33.166Z</time>
      </trkpt>
      <trkpt lat="47.02121" lon="8.95009">
        <ele>858</ele>
        <time>2021-08-02T11:18:34.166Z</time>
      </trkpt>
      <trkpt lat="47.02123" lon="8.95008">
        <ele>858</ele>
        <time>2021-08-02T11:18:35.165Z</time>
      </trkpt>
      <trkpt lat="47.02124" lon="8.95008">
        <ele>857</ele>
        <time>2021-08-02T11:18:36.166Z</time>
      </trkpt>
      <trkpt lat="47.02125" lon="8.95007">
        <ele>857</ele>
        <time>2021-08-02T11:18:37.166Z</time>
      </trkpt>
      <trkpt lat="47.02125" lon="8.95006">
        <ele>856</ele>
        <time>2021-08-02T11:18:38.166Z</time>
      </trkpt>
      <trkpt lat="47.02126" lon="8.95006">
        <ele>856</ele>
        <time>2021-08-02T11:18:39.166Z</time>
      </trkpt>
      <trkpt lat="47.02127" lon="8.95004">
        <ele>856</ele>
        <time>2021-08-02T11:18:40.165Z</time>
      </trkpt>
      <trkpt lat="47.02128" lon="8.95003">
        <ele>856</ele>
        <time>2021-08-02T11:18:41.165Z</time>
      </trkpt>
      <trkpt lat="47.02129" lon="8.95002">
        <ele>856</ele>
        <time>2021-08-02T11:18:42.165Z</time>
      </trkpt>
      <trkpt lat="47.02129" lon="8.95002">
        <ele>855</ele>
        <time>2021-08-02T11:18:43.165Z</time>
      </trkpt>
      <trkpt lat="47.0213" lon="8.95002">
        <ele>855</ele>
        <time>2021-08-02T11:18:44.165Z</time>
      </trkpt>
      <trkpt lat="47.0213" lon="8.95002">
        <ele>855</ele>
        <time>2021-08-02T11:18:45.165Z</time>
      </trkpt>
      <trkpt lat="47.02131" lon="8.95001">
        <ele>855</ele>
        <time>2021-08-02T11:18:46.166Z</time>
      </trkpt>
      <trkpt lat="47.02133" lon="8.94999">
        <ele>855</ele>
        <time>2021-08-02T11:18:47.165Z</time>
      </trkpt>
      <trkpt lat="47.02133" lon="8.94999">
        <ele>855</ele>
        <time>2021-08-02T11:18:48.166Z</time>
      </trkpt>
      <trkpt lat="47.02134" lon="8.94998">
        <ele>855</ele>
        <time>2021-08-02T11:18:49.166Z</time>
      </trkpt>
      <trkpt lat="47.02134" lon="8.94998">
        <ele>855</ele>
        <time>2021-08-02T11:18:50.165Z</time>
      </trkpt>
      <trkpt lat="47.02134" lon="8.94997">
        <ele>855</ele>
        <time>2021-08-02T11:18:51.166Z</time>
      </trkpt>
      <trkpt lat="47.02134" lon="8.94995">
        <ele>855</ele>
        <time>2021-08-02T11:18:52.165Z</time>
      </trkpt>
      <trkpt lat="47.02134" lon="8.94995">
        <ele>855</ele>
        <time>2021-08-02T11:18:53.166Z</time>
      </trkpt>
      <trkpt lat="47.02135" lon="8.94994">
        <ele>855</ele>
        <time>2021-08-02T11:18:54.165Z</time>
      </trkpt>
      <trkpt lat="47.02135" lon="8.94994">
        <ele>855</ele>
        <time>2021-08-02T11:18:55.165Z</time>
      </trkpt>
      <trkpt lat="47.02136" lon="8.94993">
        <ele>856</ele>
        <time>2021-08-02T11:18:56.166Z</time>
      </trkpt>
      <trkpt lat="47.02137" lon="8.94993">
        <ele>856</ele>
        <time>2021-08-02T11:18:57.166Z</time>
      </trkpt>
      <trkpt lat="47.02137" lon="8.94991">
        <ele>856</ele>
        <time>2021-08-02T11:18:58.166Z</time>
      </trkpt>
      <trkpt lat="47.02138" lon="8.94991">
        <ele>856</ele>
        <time>2021-08-02T11:18:59.166Z</time>
      </trkpt>
      <trkpt lat="47.02138" lon="8.94991">
        <ele>856</ele>
        <time>2021-08-02T11:19:00.165Z</time>
      </trkpt>
      <trkpt lat="47.02139" lon="8.9499">
        <ele>856</ele>
        <time>2021-08-02T11:19:01.166Z</time>
      </trkpt>
      <trkpt lat="47.02139" lon="8.9499">
        <ele>855</ele>
        <time>2021-08-02T11:19:02.165Z</time>
      </trkpt>
      <trkpt lat="47.0214" lon="8.94991">
        <ele>855</ele>
        <time>2021-08-02T11:19:03.166Z</time>
      </trkpt>
      <trkpt lat="47.02141" lon="8.9499">
        <ele>854</ele>
        <time>2021-08-02T11:19:04.166Z</time>
      </trkpt>
      <trkpt lat="47.02141" lon="8.9499">
        <ele>854</ele>
        <time>2021-08-02T11:19:05.165Z</time>
      </trkpt>
      <trkpt lat="47.02142" lon="8.94989">
        <ele>854</ele>
        <time>2021-08-02T11:19:06.166Z</time>
      </trkpt>
      <trkpt lat="47.02144" lon="8.94988">
        <ele>853</ele>
        <time>2021-08-02T11:19:07.165Z</time>
      </trkpt>
      <trkpt lat="47.02145" lon="8.94987">
        <ele>853</ele>
        <time>2021-08-02T11:19:08.165Z</time>
      </trkpt>
      <trkpt lat="47.02146" lon="8.94986">
        <ele>852</ele>
        <time>2021-08-02T11:19:09.166Z</time>
      </trkpt>
      <trkpt lat="47.02146" lon="8.94985">
        <ele>852</ele>
        <time>2021-08-02T11:19:10.166Z</time>
      </trkpt>
      <trkpt lat="47.02147" lon="8.94984">
        <ele>851</ele>
        <time>2021-08-02T11:19:11.166Z</time>
      </trkpt>
      <trkpt lat="47.02147" lon="8.94983">
        <ele>851</ele>
        <time>2021-08-02T11:19:12.165Z</time>
      </trkpt>
      <trkpt lat="47.02148" lon="8.94982">
        <ele>851</ele>
        <time>2021-08-02T11:19:13.166Z</time>
      </trkpt>
      <trkpt lat="47.02149" lon="8.94981">
        <ele>851</ele>
        <time>2021-08-02T11:19:14.166Z</time>
      </trkpt>
      <trkpt lat="47.02149" lon="8.9498">
        <ele>851</ele>
        <time>2021-08-02T11:19:15.165Z</time>
      </trkpt>
      <trkpt lat="47.0215" lon="8.94979">
        <ele>851</ele>
        <time>2021-08-02T11:19:16.166Z</time>
      </trkpt>
      <trkpt lat="47.02151" lon="8.94979">
        <ele>851</ele>
        <time>2021-08-02T11:19:17.165Z</time>
      </trkpt>
      <trkpt lat="47.02151" lon="8.94979">
        <ele>851</ele>
        <time>2021-08-02T11:19:18.166Z</time>
      </trkpt>
      <trkpt lat="47.02152" lon="8.94977">
        <ele>851</ele>
        <time>2021-08-02T11:19:19.165Z</time>
      </trkpt>
      <trkpt lat="47.02154" lon="8.94976">
        <ele>851</ele>
        <time>2021-08-02T11:19:20.166Z</time>
      </trkpt>
      <trkpt lat="47.02155" lon="8.94974">
        <ele>852</ele>
        <time>2021-08-02T11:19:21.166Z</time>
      </trkpt>
      <trkpt lat="47.02156" lon="8.94973">
        <ele>852</ele>
        <time>2021-08-02T11:19:22.166Z</time>
      </trkpt>
      <trkpt lat="47.02157" lon="8.94972">
        <ele>852</ele>
        <time>2021-08-02T11:19:23.166Z</time>
      </trkpt>
      <trkpt lat="47.02157" lon="8.94971">
        <ele>851</ele>
        <time>2021-08-02T11:19:24.165Z</time>
      </trkpt>
      <trkpt lat="47.02158" lon="8.9497">
        <ele>851</ele>
        <time>2021-08-02T11:19:25.165Z</time>
      </trkpt>
      <trkpt lat="47.02159" lon="8.94969">
        <ele>851</ele>
        <time>2021-08-02T11:19:26.166Z</time>
      </trkpt>
      <trkpt lat="47.02159" lon="8.94968">
        <ele>851</ele>
        <time>2021-08-02T11:19:27.166Z</time>
      </trkpt>
      <trkpt lat="47.0216" lon="8.94967">
        <ele>851</ele>
        <time>2021-08-02T11:19:28.165Z</time>
      </trkpt>
      <trkpt lat="47.0216" lon="8.94966">
        <ele>851</ele>
        <time>2021-08-02T11:19:29.165Z</time>
      </trkpt>
      <trkpt lat="47.0216" lon="8.94964">
        <ele>851</ele>
        <time>2021-08-02T11:19:30.166Z</time>
      </trkpt>
      <trkpt lat="47.02161" lon="8.94962">
        <ele>851</ele>
        <time>2021-08-02T11:19:31.166Z</time>
      </trkpt>
      <trkpt lat="47.02161" lon="8.94961">
        <ele>851</ele>
        <time>2021-08-02T11:19:32.165Z</time>
      </trkpt>
      <trkpt lat="47.02162" lon="8.94959">
        <ele>851</ele>
        <time>2021-08-02T11:19:33.166Z</time>
      </trkpt>
      <trkpt lat="47.02162" lon="8.94957">
        <ele>852</ele>
        <time>2021-08-02T11:19:34.166Z</time>
      </trkpt>
      <trkpt lat="47.02163" lon="8.94956">
        <ele>852</ele>
        <time>2021-08-02T11:19:35.166Z</time>
      </trkpt>
      <trkpt lat="47.02163" lon="8.94954">
        <ele>852</ele>
        <time>2021-08-02T11:19:36.166Z</time>
      </trkpt>
      <trkpt lat="47.02163" lon="8.94953">
        <ele>852</ele>
        <time>2021-08-02T11:19:37.166Z</time>
      </trkpt>
      <trkpt lat="47.02164" lon="8.94953">
        <ele>853</ele>
        <time>2021-08-02T11:19:38.166Z</time>
      </trkpt>
      <trkpt lat="47.02164" lon="8.94951">
        <ele>853</ele>
        <time>2021-08-02T11:19:42.295Z</time>
      </trkpt>
      <trkpt lat="47.02165" lon="8.94951">
        <ele>853</ele>
        <time>2021-08-02T11:19:43.294Z</time>
      </trkpt>
      <trkpt lat="47.02165" lon="8.9495">
        <ele>853</ele>
        <time>2021-08-02T11:19:44.295Z</time>
      </trkpt>
      <trkpt lat="47.02165" lon="8.94948">
        <ele>853</ele>
        <time>2021-08-02T11:19:45.295Z</time>
      </trkpt>
      <trkpt lat="47.02166" lon="8.94947">
        <ele>853</ele>
        <time>2021-08-02T11:19:53.396Z</time>
      </trkpt>
      <trkpt lat="47.02167" lon="8.94946">
        <ele>854</ele>
        <time>2021-08-02T11:19:54.397Z</time>
      </trkpt>
      <trkpt lat="47.02168" lon="8.94945">
        <ele>854</ele>
        <time>2021-08-02T11:19:55.396Z</time>
      </trkpt>
      <trkpt lat="47.02168" lon="8.94943">
        <ele>854</ele>
        <time>2021-08-02T11:19:56.397Z</time>
      </trkpt>
      <trkpt lat="47.02168" lon="8.94942">
        <ele>854</ele>
        <time>2021-08-02T11:19:57.397Z</time>
      </trkpt>
      <trkpt lat="47.02169" lon="8.94941">
        <ele>854</ele>
        <time>2021-08-02T11:19:58.396Z</time>
      </trkpt>
      <trkpt lat="47.02169" lon="8.9494">
        <ele>855</ele>
        <time>2021-08-02T11:19:59.397Z</time>
      </trkpt>
      <trkpt lat="47.0217" lon="8.94939">
        <ele>855</ele>
        <time>2021-08-02T11:20:00.397Z</time>
      </trkpt>
      <trkpt lat="47.0217" lon="8.94937">
        <ele>855</ele>
        <time>2021-08-02T11:20:01.397Z</time>
      </trkpt>
      <trkpt lat="47.0217" lon="8.94936">
        <ele>855</ele>
        <time>2021-08-02T11:20:02.397Z</time>
      </trkpt>
      <trkpt lat="47.02171" lon="8.94932">
        <ele>855</ele>
        <time>2021-08-02T11:20:03.397Z</time>
      </trkpt>
      <trkpt lat="47.02172" lon="8.94931">
        <ele>855</ele>
        <time>2021-08-02T11:20:04.397Z</time>
      </trkpt>
      <trkpt lat="47.02173" lon="8.94929">
        <ele>855</ele>
        <time>2021-08-02T11:20:05.396Z</time>
      </trkpt>
      <trkpt lat="47.02173" lon="8.94927">
        <ele>855</ele>
        <time>2021-08-02T11:20:06.397Z</time>
      </trkpt>
      <trkpt lat="47.02172" lon="8.94926">
        <ele>855</ele>
        <time>2021-08-02T11:20:07.397Z</time>
      </trkpt>
      <trkpt lat="47.02173" lon="8.94925">
        <ele>855</ele>
        <time>2021-08-02T11:20:08.397Z</time>
      </trkpt>
      <trkpt lat="47.02173" lon="8.94923">
        <ele>855</ele>
        <time>2021-08-02T11:20:09.396Z</time>
      </trkpt>
      <trkpt lat="47.02173" lon="8.94922">
        <ele>855</ele>
        <time>2021-08-02T11:20:10.397Z</time>
      </trkpt>
      <trkpt lat="47.02172" lon="8.9492">
        <ele>854</ele>
        <time>2021-08-02T11:20:11.397Z</time>
      </trkpt>
      <trkpt lat="47.02173" lon="8.94919">
        <ele>854</ele>
        <time>2021-08-02T11:20:12.397Z</time>
      </trkpt>
      <trkpt lat="47.02173" lon="8.94918">
        <ele>854</ele>
        <time>2021-08-02T11:20:13.397Z</time>
      </trkpt>
      <trkpt lat="47.02174" lon="8.94915">
        <ele>854</ele>
        <time>2021-08-02T11:20:14.397Z</time>
      </trkpt>
      <trkpt lat="47.02174" lon="8.94913">
        <ele>855</ele>
        <time>2021-08-02T11:20:15.397Z</time>
      </trkpt>
      <trkpt lat="47.02174" lon="8.94911">
        <ele>855</ele>
        <time>2021-08-02T11:20:16.397Z</time>
      </trkpt>
      <trkpt lat="47.02175" lon="8.9491">
        <ele>855</ele>
        <time>2021-08-02T11:20:17.396Z</time>
      </trkpt>
      <trkpt lat="47.02176" lon="8.94909">
        <ele>856</ele>
        <time>2021-08-02T11:20:18.397Z</time>
      </trkpt>
      <trkpt lat="47.02176" lon="8.94907">
        <ele>856</ele>
        <time>2021-08-02T11:20:19.397Z</time>
      </trkpt>
      <trkpt lat="47.02176" lon="8.94906">
        <ele>856</ele>
        <time>2021-08-02T11:20:20.397Z</time>
      </trkpt>
      <trkpt lat="47.02176" lon="8.94905">
        <ele>855</ele>
        <time>2021-08-02T11:20:22.526Z</time>
      </trkpt>
      <trkpt lat="47.02176" lon="8.94903">
        <ele>855</ele>
        <time>2021-08-02T11:20:27.418Z</time>
      </trkpt>
      <trkpt lat="47.02176" lon="8.94902">
        <ele>854</ele>
        <time>2021-08-02T11:20:28.418Z</time>
      </trkpt>
      <trkpt lat="47.02176" lon="8.94901">
        <ele>854</ele>
        <time>2021-08-02T11:20:29.417Z</time>
      </trkpt>
      <trkpt lat="47.02177" lon="8.94899">
        <ele>854</ele>
        <time>2021-08-02T11:20:33.518Z</time>
      </trkpt>
      <trkpt lat="47.02178" lon="8.94897">
        <ele>854</ele>
        <time>2021-08-02T11:20:39.392Z</time>
      </trkpt>
      <trkpt lat="47.02179" lon="8.94895">
        <ele>854</ele>
        <time>2021-08-02T11:20:40.392Z</time>
      </trkpt>
      <trkpt lat="47.02179" lon="8.94893">
        <ele>855</ele>
        <time>2021-08-02T11:20:47.289Z</time>
      </trkpt>
      <trkpt lat="47.02179" lon="8.94891">
        <ele>855</ele>
        <time>2021-08-02T11:20:48.290Z</time>
      </trkpt>
      <trkpt lat="47.02179" lon="8.9489">
        <ele>856</ele>
        <time>2021-08-02T11:20:49.290Z</time>
      </trkpt>
      <trkpt lat="47.02179" lon="8.94888">
        <ele>856</ele>
        <time>2021-08-02T11:20:50.290Z</time>
      </trkpt>
      <trkpt lat="47.0218" lon="8.94887">
        <ele>857</ele>
        <time>2021-08-02T11:20:51.289Z</time>
      </trkpt>
      <trkpt lat="47.0218" lon="8.94885">
        <ele>858</ele>
        <time>2021-08-02T11:20:52.289Z</time>
      </trkpt>
      <trkpt lat="47.0218" lon="8.94884">
        <ele>858</ele>
        <time>2021-08-02T11:20:55.413Z</time>
      </trkpt>
      <trkpt lat="47.0218" lon="8.94882">
        <ele>859</ele>
        <time>2021-08-02T11:20:56.414Z</time>
      </trkpt>
      <trkpt lat="47.0218" lon="8.94881">
        <ele>859</ele>
        <time>2021-08-02T11:20:57.413Z</time>
      </trkpt>
      <trkpt lat="47.0218" lon="8.9488">
        <ele>859</ele>
        <time>2021-08-02T11:20:59.557Z</time>
      </trkpt>
      <trkpt lat="47.0218" lon="8.94878">
        <ele>859</ele>
        <time>2021-08-02T11:21:00.558Z</time>
      </trkpt>
      <trkpt lat="47.0218" lon="8.94876">
        <ele>860</ele>
        <time>2021-08-02T11:21:01.558Z</time>
      </trkpt>
      <trkpt lat="47.02181" lon="8.94874">
        <ele>860</ele>
        <time>2021-08-02T11:21:02.557Z</time>
      </trkpt>
      <trkpt lat="47.02182" lon="8.94872">
        <ele>861</ele>
        <time>2021-08-02T11:21:03.558Z</time>
      </trkpt>
      <trkpt lat="47.02182" lon="8.9487">
        <ele>861</ele>
        <time>2021-08-02T11:21:04.557Z</time>
      </trkpt>
      <trkpt lat="47.02182" lon="8.94869">
        <ele>861</ele>
        <time>2021-08-02T11:21:05.557Z</time>
      </trkpt>
      <trkpt lat="47.02183" lon="8.94867">
        <ele>861</ele>
        <time>2021-08-02T11:21:06.558Z</time>
      </trkpt>
      <trkpt lat="47.02183" lon="8.94865">
        <ele>861</ele>
        <time>2021-08-02T11:21:07.557Z</time>
      </trkpt>
      <trkpt lat="47.02183" lon="8.94862">
        <ele>862</ele>
        <time>2021-08-02T11:21:08.558Z</time>
      </trkpt>
      <trkpt lat="47.02183" lon="8.9486">
        <ele>862</ele>
        <time>2021-08-02T11:21:09.557Z</time>
      </trkpt>
      <trkpt lat="47.02183" lon="8.94859">
        <ele>862</ele>
        <time>2021-08-02T11:21:10.558Z</time>
      </trkpt>
      <trkpt lat="47.02183" lon="8.94859">
        <ele>862</ele>
        <time>2021-08-02T11:21:11.558Z</time>
      </trkpt>
      <trkpt lat="47.02183" lon="8.94855">
        <ele>860</ele>
        <time>2021-08-02T11:21:12.559Z</time>
      </trkpt>
      <trkpt lat="47.02183" lon="8.94854">
        <ele>860</ele>
        <time>2021-08-02T11:21:13.558Z</time>
      </trkpt>
      <trkpt lat="47.02182" lon="8.94852">
        <ele>860</ele>
        <time>2021-08-02T11:21:14.559Z</time>
      </trkpt>
      <trkpt lat="47.02182" lon="8.94851">
        <ele>860</ele>
        <time>2021-08-02T11:21:15.558Z</time>
      </trkpt>
      <trkpt lat="47.02183" lon="8.9485">
        <ele>860</ele>
        <time>2021-08-02T11:21:16.558Z</time>
      </trkpt>
      <trkpt lat="47.02183" lon="8.94848">
        <ele>860</ele>
        <time>2021-08-02T11:21:17.558Z</time>
      </trkpt>
      <trkpt lat="47.02183" lon="8.94847">
        <ele>860</ele>
        <time>2021-08-02T11:21:18.558Z</time>
      </trkpt>
      <trkpt lat="47.02183" lon="8.94846">
        <ele>859</ele>
        <time>2021-08-02T11:21:19.558Z</time>
      </trkpt>
      <trkpt lat="47.02183" lon="8.94844">
        <ele>859</ele>
        <time>2021-08-02T11:21:20.558Z</time>
      </trkpt>
      <trkpt lat="47.02182" lon="8.94843">
        <ele>860</ele>
        <time>2021-08-02T11:21:21.558Z</time>
      </trkpt>
      <trkpt lat="47.02182" lon="8.94842">
        <ele>859</ele>
        <time>2021-08-02T11:21:22.558Z</time>
      </trkpt>
      <trkpt lat="47.02182" lon="8.9484">
        <ele>859</ele>
        <time>2021-08-02T11:21:24.636Z</time>
      </trkpt>
      <trkpt lat="47.02182" lon="8.94838">
        <ele>859</ele>
        <time>2021-08-02T11:21:25.636Z</time>
      </trkpt>
      <trkpt lat="47.02182" lon="8.94836">
        <ele>860</ele>
        <time>2021-08-02T11:21:26.636Z</time>
      </trkpt>
      <trkpt lat="47.02182" lon="8.94833">
        <ele>859</ele>
        <time>2021-08-02T11:21:27.636Z</time>
      </trkpt>
      <trkpt lat="47.02182" lon="8.94832">
        <ele>859</ele>
        <time>2021-08-02T11:21:28.636Z</time>
      </trkpt>
      <trkpt lat="47.02182" lon="8.9483">
        <ele>859</ele>
        <time>2021-08-02T11:21:29.636Z</time>
      </trkpt>
      <trkpt lat="47.02182" lon="8.94829">
        <ele>859</ele>
        <time>2021-08-02T11:21:30.636Z</time>
      </trkpt>
      <trkpt lat="47.02182" lon="8.94827">
        <ele>859</ele>
        <time>2021-08-02T11:21:31.636Z</time>
      </trkpt>
      <trkpt lat="47.02182" lon="8.94826">
        <ele>859</ele>
        <time>2021-08-02T11:21:32.636Z</time>
      </trkpt>
      <trkpt lat="47.02183" lon="8.94825">
        <ele>859</ele>
        <time>2021-08-02T11:21:33.636Z</time>
      </trkpt>
      <trkpt lat="47.02183" lon="8.94824">
        <ele>859</ele>
        <time>2021-08-02T11:21:34.636Z</time>
      </trkpt>
      <trkpt lat="47.02183" lon="8.94822">
        <ele>859</ele>
        <time>2021-08-02T11:21:35.637Z</time>
      </trkpt>
      <trkpt lat="47.02184" lon="8.9482">
        <ele>859</ele>
        <time>2021-08-02T11:21:36.637Z</time>
      </trkpt>
      <trkpt lat="47.02183" lon="8.94818">
        <ele>859</ele>
        <time>2021-08-02T11:21:37.636Z</time>
      </trkpt>
      <trkpt lat="47.02183" lon="8.94816">
        <ele>859</ele>
        <time>2021-08-02T11:21:38.636Z</time>
      </trkpt>
      <trkpt lat="47.02183" lon="8.94815">
        <ele>859</ele>
        <time>2021-08-02T11:21:39.636Z</time>
      </trkpt>
      <trkpt lat="47.02184" lon="8.94812">
        <ele>859</ele>
        <time>2021-08-02T11:21:40.636Z</time>
      </trkpt>
      <trkpt lat="47.02184" lon="8.94809">
        <ele>859</ele>
        <time>2021-08-02T11:21:41.636Z</time>
      </trkpt>
      <trkpt lat="47.02185" lon="8.94807">
        <ele>859</ele>
        <time>2021-08-02T11:21:42.636Z</time>
      </trkpt>
      <trkpt lat="47.02186" lon="8.94804">
        <ele>859</ele>
        <time>2021-08-02T11:21:43.636Z</time>
      </trkpt>
      <trkpt lat="47.02186" lon="8.94802">
        <ele>859</ele>
        <time>2021-08-02T11:21:44.637Z</time>
      </trkpt>
      <trkpt lat="47.02186" lon="8.948">
        <ele>859</ele>
        <time>2021-08-02T11:21:45.637Z</time>
      </trkpt>
      <trkpt lat="47.02186" lon="8.94799">
        <ele>859</ele>
        <time>2021-08-02T11:21:46.636Z</time>
      </trkpt>
      <trkpt lat="47.02187" lon="8.94798">
        <ele>859</ele>
        <time>2021-08-02T11:21:47.637Z</time>
      </trkpt>
      <trkpt lat="47.02187" lon="8.94797">
        <ele>859</ele>
        <time>2021-08-02T11:21:48.636Z</time>
      </trkpt>
      <trkpt lat="47.02186" lon="8.94795">
        <ele>859</ele>
        <time>2021-08-02T11:21:49.637Z</time>
      </trkpt>
      <trkpt lat="47.02186" lon="8.94794">
        <ele>860</ele>
        <time>2021-08-02T11:21:50.636Z</time>
      </trkpt>
      <trkpt lat="47.02187" lon="8.94792">
        <ele>860</ele>
        <time>2021-08-02T11:21:51.637Z</time>
      </trkpt>
      <trkpt lat="47.02187" lon="8.9479">
        <ele>860</ele>
        <time>2021-08-02T11:21:52.636Z</time>
      </trkpt>
      <trkpt lat="47.02187" lon="8.94788">
        <ele>861</ele>
        <time>2021-08-02T11:21:53.637Z</time>
      </trkpt>
      <trkpt lat="47.02187" lon="8.94787">
        <ele>861</ele>
        <time>2021-08-02T11:21:54.636Z</time>
      </trkpt>
      <trkpt lat="47.02187" lon="8.94786">
        <ele>861</ele>
        <time>2021-08-02T11:21:55.637Z</time>
      </trkpt>
      <trkpt lat="47.02187" lon="8.94785">
        <ele>861</ele>
        <time>2021-08-02T11:21:56.636Z</time>
      </trkpt>
      <trkpt lat="47.02187" lon="8.94783">
        <ele>861</ele>
        <time>2021-08-02T11:21:57.637Z</time>
      </trkpt>
      <trkpt lat="47.02187" lon="8.94781">
        <ele>861</ele>
        <time>2021-08-02T11:21:58.636Z</time>
      </trkpt>
      <trkpt lat="47.02187" lon="8.94779">
        <ele>861</ele>
        <time>2021-08-02T11:22:01.766Z</time>
      </trkpt>
      <trkpt lat="47.02188" lon="8.94777">
        <ele>861</ele>
        <time>2021-08-02T11:22:02.766Z</time>
      </trkpt>
      <trkpt lat="47.02189" lon="8.94776">
        <ele>861</ele>
        <time>2021-08-02T11:22:03.766Z</time>
      </trkpt>
      <trkpt lat="47.02189" lon="8.94774">
        <ele>861</ele>
        <time>2021-08-02T11:22:04.766Z</time>
      </trkpt>
      <trkpt lat="47.02189" lon="8.94773">
        <ele>861</ele>
        <time>2021-08-02T11:22:05.766Z</time>
      </trkpt>
      <trkpt lat="47.02189" lon="8.94771">
        <ele>861</ele>
        <time>2021-08-02T11:22:06.766Z</time>
      </trkpt>
      <trkpt lat="47.02189" lon="8.9477">
        <ele>861</ele>
        <time>2021-08-02T11:22:07.766Z</time>
      </trkpt>
      <trkpt lat="47.02189" lon="8.94768">
        <ele>860</ele>
        <time>2021-08-02T11:22:08.766Z</time>
      </trkpt>
      <trkpt lat="47.02189" lon="8.94766">
        <ele>860</ele>
        <time>2021-08-02T11:22:09.766Z</time>
      </trkpt>
      <trkpt lat="47.02189" lon="8.94764">
        <ele>859</ele>
        <time>2021-08-02T11:22:10.766Z</time>
      </trkpt>
      <trkpt lat="47.0219" lon="8.94762">
        <ele>859</ele>
        <time>2021-08-02T11:22:11.766Z</time>
      </trkpt>
      <trkpt lat="47.0219" lon="8.94761">
        <ele>858</ele>
        <time>2021-08-02T11:22:12.766Z</time>
      </trkpt>
      <trkpt lat="47.02189" lon="8.94759">
        <ele>858</ele>
        <time>2021-08-02T11:22:13.766Z</time>
      </trkpt>
      <trkpt lat="47.02188" lon="8.94758">
        <ele>858</ele>
        <time>2021-08-02T11:22:14.766Z</time>
      </trkpt>
      <trkpt lat="47.02188" lon="8.94757">
        <ele>858</ele>
        <time>2021-08-02T11:22:15.766Z</time>
      </trkpt>
      <trkpt lat="47.02187" lon="8.94754">
        <ele>858</ele>
        <time>2021-08-02T11:22:17.768Z</time>
      </trkpt>
      <trkpt lat="47.02187" lon="8.94752">
        <ele>858</ele>
        <time>2021-08-02T11:22:18.768Z</time>
      </trkpt>
      <trkpt lat="47.02186" lon="8.9475">
        <ele>858</ele>
        <time>2021-08-02T11:22:19.768Z</time>
      </trkpt>
      <trkpt lat="47.02185" lon="8.94747">
        <ele>858</ele>
        <time>2021-08-02T11:22:20.768Z</time>
      </trkpt>
      <trkpt lat="47.02184" lon="8.94746">
        <ele>858</ele>
        <time>2021-08-02T11:22:21.768Z</time>
      </trkpt>
      <trkpt lat="47.02183" lon="8.94745">
        <ele>858</ele>
        <time>2021-08-02T11:22:22.768Z</time>
      </trkpt>
      <trkpt lat="47.02182" lon="8.94744">
        <ele>858</ele>
        <time>2021-08-02T11:22:23.768Z</time>
      </trkpt>
      <trkpt lat="47.02181" lon="8.94743">
        <ele>858</ele>
        <time>2021-08-02T11:22:24.769Z</time>
      </trkpt>
      <trkpt lat="47.02181" lon="8.94741">
        <ele>858</ele>
        <time>2021-08-02T11:22:25.768Z</time>
      </trkpt>
      <trkpt lat="47.0218" lon="8.9474">
        <ele>858</ele>
        <time>2021-08-02T11:22:26.768Z</time>
      </trkpt>
      <trkpt lat="47.0218" lon="8.94738">
        <ele>857</ele>
        <time>2021-08-02T11:22:27.768Z</time>
      </trkpt>
      <trkpt lat="47.02179" lon="8.94736">
        <ele>857</ele>
        <time>2021-08-02T11:22:28.768Z</time>
      </trkpt>
      <trkpt lat="47.02179" lon="8.94735">
        <ele>857</ele>
        <time>2021-08-02T11:22:29.768Z</time>
      </trkpt>
      <trkpt lat="47.02179" lon="8.94734">
        <ele>857</ele>
        <time>2021-08-02T11:22:30.768Z</time>
      </trkpt>
      <trkpt lat="47.02177" lon="8.94731">
        <ele>857</ele>
        <time>2021-08-02T11:22:31.768Z</time>
      </trkpt>
      <trkpt lat="47.02176" lon="8.94729">
        <ele>857</ele>
        <time>2021-08-02T11:22:32.769Z</time>
      </trkpt>
      <trkpt lat="47.02175" lon="8.94727">
        <ele>857</ele>
        <time>2021-08-02T11:22:33.769Z</time>
      </trkpt>
      <trkpt lat="47.02174" lon="8.94725">
        <ele>856</ele>
        <time>2021-08-02T11:22:34.768Z</time>
      </trkpt>
      <trkpt lat="47.02173" lon="8.94723">
        <ele>856</ele>
        <time>2021-08-02T11:22:35.768Z</time>
      </trkpt>
      <trkpt lat="47.02171" lon="8.94721">
        <ele>856</ele>
        <time>2021-08-02T11:22:36.768Z</time>
      </trkpt>
      <trkpt lat="47.0217" lon="8.9472">
        <ele>856</ele>
        <time>2021-08-02T11:22:37.768Z</time>
      </trkpt>
      <trkpt lat="47.0217" lon="8.94719">
        <ele>856</ele>
        <time>2021-08-02T11:22:38.768Z</time>
      </trkpt>
      <trkpt lat="47.02169" lon="8.94717">
        <ele>856</ele>
        <time>2021-08-02T11:22:39.768Z</time>
      </trkpt>
      <trkpt lat="47.02168" lon="8.94716">
        <ele>857</ele>
        <time>2021-08-02T11:22:40.768Z</time>
      </trkpt>
      <trkpt lat="47.02168" lon="8.94714">
        <ele>857</ele>
        <time>2021-08-02T11:22:41.768Z</time>
      </trkpt>
      <trkpt lat="47.02168" lon="8.94713">
        <ele>857</ele>
        <time>2021-08-02T11:22:42.768Z</time>
      </trkpt>
      <trkpt lat="47.02168" lon="8.94712">
        <ele>857</ele>
        <time>2021-08-02T11:22:43.768Z</time>
      </trkpt>
      <trkpt lat="47.02168" lon="8.94711">
        <ele>858</ele>
        <time>2021-08-02T11:22:44.768Z</time>
      </trkpt>
      <trkpt lat="47.02167" lon="8.9471">
        <ele>858</ele>
        <time>2021-08-02T11:22:45.768Z</time>
      </trkpt>
      <trkpt lat="47.02166" lon="8.94706">
        <ele>858</ele>
        <time>2021-08-02T11:22:46.768Z</time>
      </trkpt>
      <trkpt lat="47.02166" lon="8.94702">
        <ele>859</ele>
        <time>2021-08-02T11:22:47.768Z</time>
      </trkpt>
      <trkpt lat="47.02165" lon="8.947">
        <ele>859</ele>
        <time>2021-08-02T11:22:48.768Z</time>
      </trkpt>
      <trkpt lat="47.02165" lon="8.94698">
        <ele>859</ele>
        <time>2021-08-02T11:22:49.768Z</time>
      </trkpt>
      <trkpt lat="47.02164" lon="8.94696">
        <ele>859</ele>
        <time>2021-08-02T11:22:50.768Z</time>
      </trkpt>
      <trkpt lat="47.02163" lon="8.94695">
        <ele>859</ele>
        <time>2021-08-02T11:22:51.768Z</time>
      </trkpt>
      <trkpt lat="47.02162" lon="8.94693">
        <ele>859</ele>
        <time>2021-08-02T11:22:52.769Z</time>
      </trkpt>
      <trkpt lat="47.02161" lon="8.94692">
        <ele>860</ele>
        <time>2021-08-02T11:22:53.768Z</time>
      </trkpt>
      <trkpt lat="47.02161" lon="8.94691">
        <ele>859</ele>
        <time>2021-08-02T11:22:54.769Z</time>
      </trkpt>
      <trkpt lat="47.0216" lon="8.9469">
        <ele>859</ele>
        <time>2021-08-02T11:22:55.768Z</time>
      </trkpt>
      <trkpt lat="47.02161" lon="8.94688">
        <ele>859</ele>
        <time>2021-08-02T11:22:56.768Z</time>
      </trkpt>
      <trkpt lat="47.02161" lon="8.94687">
        <ele>859</ele>
        <time>2021-08-02T11:22:57.768Z</time>
      </trkpt>
      <trkpt lat="47.0216" lon="8.94686">
        <ele>859</ele>
        <time>2021-08-02T11:22:58.768Z</time>
      </trkpt>
      <trkpt lat="47.0216" lon="8.94684">
        <ele>859</ele>
        <time>2021-08-02T11:22:59.769Z</time>
      </trkpt>
      <trkpt lat="47.02159" lon="8.94682">
        <ele>860</ele>
        <time>2021-08-02T11:23:00.768Z</time>
      </trkpt>
      <trkpt lat="47.02159" lon="8.9468">
        <ele>860</ele>
        <time>2021-08-02T11:23:01.768Z</time>
      </trkpt>
      <trkpt lat="47.02158" lon="8.94679">
        <ele>860</ele>
        <time>2021-08-02T11:23:02.768Z</time>
      </trkpt>
      <trkpt lat="47.02158" lon="8.94677">
        <ele>860</ele>
        <time>2021-08-02T11:23:03.768Z</time>
      </trkpt>
      <trkpt lat="47.02158" lon="8.94675">
        <ele>860</ele>
        <time>2021-08-02T11:23:04.768Z</time>
      </trkpt>
      <trkpt lat="47.02158" lon="8.94674">
        <ele>860</ele>
        <time>2021-08-02T11:23:05.769Z</time>
      </trkpt>
      <trkpt lat="47.02158" lon="8.94672">
        <ele>860</ele>
        <time>2021-08-02T11:23:06.768Z</time>
      </trkpt>
      <trkpt lat="47.02158" lon="8.94671">
        <ele>860</ele>
        <time>2021-08-02T11:23:07.768Z</time>
      </trkpt>
      <trkpt lat="47.02157" lon="8.94669">
        <ele>860</ele>
        <time>2021-08-02T11:23:08.769Z</time>
      </trkpt>
      <trkpt lat="47.02157" lon="8.94667">
        <ele>861</ele>
        <time>2021-08-02T11:23:09.768Z</time>
      </trkpt>
      <trkpt lat="47.02156" lon="8.94665">
        <ele>861</ele>
        <time>2021-08-02T11:23:10.768Z</time>
      </trkpt>
      <trkpt lat="47.02156" lon="8.94663">
        <ele>861</ele>
        <time>2021-08-02T11:23:11.768Z</time>
      </trkpt>
      <trkpt lat="47.02156" lon="8.94662">
        <ele>862</ele>
        <time>2021-08-02T11:23:12.768Z</time>
      </trkpt>
      <trkpt lat="47.02156" lon="8.94661">
        <ele>862</ele>
        <time>2021-08-02T11:23:13.768Z</time>
      </trkpt>
      <trkpt lat="47.02156" lon="8.94659">
        <ele>863</ele>
        <time>2021-08-02T11:23:14.768Z</time>
      </trkpt>
      <trkpt lat="47.02156" lon="8.94657">
        <ele>864</ele>
        <time>2021-08-02T11:23:15.768Z</time>
      </trkpt>
      <trkpt lat="47.02155" lon="8.94656">
        <ele>864</ele>
        <time>2021-08-02T11:23:16.768Z</time>
      </trkpt>
      <trkpt lat="47.02154" lon="8.94655">
        <ele>865</ele>
        <time>2021-08-02T11:23:17.768Z</time>
      </trkpt>
      <trkpt lat="47.02154" lon="8.94654">
        <ele>865</ele>
        <time>2021-08-02T11:23:18.769Z</time>
      </trkpt>
      <trkpt lat="47.02153" lon="8.94652">
        <ele>865</ele>
        <time>2021-08-02T11:23:19.768Z</time>
      </trkpt>
      <trkpt lat="47.02152" lon="8.94651">
        <ele>865</ele>
        <time>2021-08-02T11:23:20.768Z</time>
      </trkpt>
      <trkpt lat="47.02151" lon="8.94651">
        <ele>866</ele>
        <time>2021-08-02T11:23:21.768Z</time>
      </trkpt>
      <trkpt lat="47.02151" lon="8.9465">
        <ele>866</ele>
        <time>2021-08-02T11:23:22.769Z</time>
      </trkpt>
      <trkpt lat="47.02149" lon="8.94648">
        <ele>866</ele>
        <time>2021-08-02T11:23:23.769Z</time>
      </trkpt>
      <trkpt lat="47.02148" lon="8.94646">
        <ele>866</ele>
        <time>2021-08-02T11:23:24.768Z</time>
      </trkpt>
      <trkpt lat="47.02147" lon="8.94645">
        <ele>866</ele>
        <time>2021-08-02T11:23:25.768Z</time>
      </trkpt>
      <trkpt lat="47.02145" lon="8.94643">
        <ele>866</ele>
        <time>2021-08-02T11:23:26.768Z</time>
      </trkpt>
      <trkpt lat="47.02144" lon="8.94641">
        <ele>866</ele>
        <time>2021-08-02T11:23:27.768Z</time>
      </trkpt>
      <trkpt lat="47.02141" lon="8.9464">
        <ele>866</ele>
        <time>2021-08-02T11:23:28.769Z</time>
      </trkpt>
      <trkpt lat="47.02139" lon="8.94639">
        <ele>866</ele>
        <time>2021-08-02T11:23:29.768Z</time>
      </trkpt>
      <trkpt lat="47.02138" lon="8.94639">
        <ele>866</ele>
        <time>2021-08-02T11:23:30.769Z</time>
      </trkpt>
      <trkpt lat="47.02138" lon="8.94639">
        <ele>866</ele>
        <time>2021-08-02T11:23:31.768Z</time>
      </trkpt>
      <trkpt lat="47.02136" lon="8.94638">
        <ele>866</ele>
        <time>2021-08-02T11:23:32.768Z</time>
      </trkpt>
      <trkpt lat="47.02135" lon="8.94636">
        <ele>866</ele>
        <time>2021-08-02T11:23:33.768Z</time>
      </trkpt>
      <trkpt lat="47.02134" lon="8.94635">
        <ele>866</ele>
        <time>2021-08-02T11:23:34.768Z</time>
      </trkpt>
      <trkpt lat="47.02133" lon="8.94634">
        <ele>866</ele>
        <time>2021-08-02T11:23:35.768Z</time>
      </trkpt>
      <trkpt lat="47.02133" lon="8.94633">
        <ele>866</ele>
        <time>2021-08-02T11:23:36.768Z</time>
      </trkpt>
      <trkpt lat="47.02132" lon="8.94633">
        <ele>866</ele>
        <time>2021-08-02T11:23:37.768Z</time>
      </trkpt>
      <trkpt lat="47.02132" lon="8.94633">
        <ele>865</ele>
        <time>2021-08-02T11:23:38.769Z</time>
      </trkpt>
      <trkpt lat="47.02131" lon="8.94633">
        <ele>865</ele>
        <time>2021-08-02T11:23:39.769Z</time>
      </trkpt>
      <trkpt lat="47.0213" lon="8.94632">
        <ele>865</ele>
        <time>2021-08-02T11:23:40.769Z</time>
      </trkpt>
      <trkpt lat="47.02128" lon="8.9463">
        <ele>864</ele>
        <time>2021-08-02T11:23:41.768Z</time>
      </trkpt>
      <trkpt lat="47.02127" lon="8.94628">
        <ele>864</ele>
        <time>2021-08-02T11:23:42.769Z</time>
      </trkpt>
      <trkpt lat="47.02126" lon="8.94625">
        <ele>864</ele>
        <time>2021-08-02T11:23:43.768Z</time>
      </trkpt>
      <trkpt lat="47.02126" lon="8.94623">
        <ele>863</ele>
        <time>2021-08-02T11:23:44.768Z</time>
      </trkpt>
      <trkpt lat="47.02126" lon="8.94621">
        <ele>863</ele>
        <time>2021-08-02T11:23:45.769Z</time>
      </trkpt>
      <trkpt lat="47.02124" lon="8.9462">
        <ele>863</ele>
        <time>2021-08-02T11:23:46.768Z</time>
      </trkpt>
      <trkpt lat="47.02122" lon="8.94619">
        <ele>862</ele>
        <time>2021-08-02T11:23:47.769Z</time>
      </trkpt>
      <trkpt lat="47.0212" lon="8.9462">
        <ele>862</ele>
        <time>2021-08-02T11:23:48.769Z</time>
      </trkpt>
      <trkpt lat="47.02118" lon="8.9462">
        <ele>862</ele>
        <time>2021-08-02T11:23:49.769Z</time>
      </trkpt>
      <trkpt lat="47.02117" lon="8.94619">
        <ele>861</ele>
        <time>2021-08-02T11:23:50.769Z</time>
      </trkpt>
      <trkpt lat="47.02117" lon="8.94619">
        <ele>861</ele>
        <time>2021-08-02T11:23:51.769Z</time>
      </trkpt>
      <trkpt lat="47.02116" lon="8.94619">
        <ele>860</ele>
        <time>2021-08-02T11:23:52.769Z</time>
      </trkpt>
      <trkpt lat="47.02116" lon="8.94619">
        <ele>860</ele>
        <time>2021-08-02T11:23:53.768Z</time>
      </trkpt>
      <trkpt lat="47.02115" lon="8.94618">
        <ele>859</ele>
        <time>2021-08-02T11:23:54.768Z</time>
      </trkpt>
      <trkpt lat="47.02114" lon="8.94617">
        <ele>859</ele>
        <time>2021-08-02T11:23:55.768Z</time>
      </trkpt>
      <trkpt lat="47.02114" lon="8.94617">
        <ele>859</ele>
        <time>2021-08-02T11:23:56.768Z</time>
      </trkpt>
      <trkpt lat="47.02113" lon="8.94615">
        <ele>859</ele>
        <time>2021-08-02T11:23:57.768Z</time>
      </trkpt>
      <trkpt lat="47.02112" lon="8.94614">
        <ele>859</ele>
        <time>2021-08-02T11:23:58.768Z</time>
      </trkpt>
      <trkpt lat="47.02111" lon="8.94613">
        <ele>859</ele>
        <time>2021-08-02T11:23:59.768Z</time>
      </trkpt>
      <trkpt lat="47.0211" lon="8.94611">
        <ele>859</ele>
        <time>2021-08-02T11:24:00.769Z</time>
      </trkpt>
      <trkpt lat="47.0211" lon="8.94609">
        <ele>858</ele>
        <time>2021-08-02T11:24:01.769Z</time>
      </trkpt>
      <trkpt lat="47.02109" lon="8.94608">
        <ele>858</ele>
        <time>2021-08-02T11:24:02.769Z</time>
      </trkpt>
      <trkpt lat="47.02108" lon="8.94606">
        <ele>858</ele>
        <time>2021-08-02T11:24:03.768Z</time>
      </trkpt>
      <trkpt lat="47.02108" lon="8.94604">
        <ele>858</ele>
        <time>2021-08-02T11:24:04.768Z</time>
      </trkpt>
      <trkpt lat="47.02107" lon="8.94602">
        <ele>858</ele>
        <time>2021-08-02T11:24:05.769Z</time>
      </trkpt>
      <trkpt lat="47.02105" lon="8.946">
        <ele>858</ele>
        <time>2021-08-02T11:24:06.768Z</time>
      </trkpt>
      <trkpt lat="47.02104" lon="8.94598">
        <ele>858</ele>
        <time>2021-08-02T11:24:07.769Z</time>
      </trkpt>
      <trkpt lat="47.02103" lon="8.94596">
        <ele>858</ele>
        <time>2021-08-02T11:24:08.768Z</time>
      </trkpt>
      <trkpt lat="47.02102" lon="8.94594">
        <ele>858</ele>
        <time>2021-08-02T11:24:09.769Z</time>
      </trkpt>
      <trkpt lat="47.02103" lon="8.94593">
        <ele>858</ele>
        <time>2021-08-02T11:24:10.768Z</time>
      </trkpt>
      <trkpt lat="47.02101" lon="8.94591">
        <ele>858</ele>
        <time>2021-08-02T11:24:13.882Z</time>
      </trkpt>
      <trkpt lat="47.021" lon="8.94589">
        <ele>858</ele>
        <time>2021-08-02T11:24:14.882Z</time>
      </trkpt>
      <trkpt lat="47.02099" lon="8.94586">
        <ele>858</ele>
        <time>2021-08-02T11:24:15.883Z</time>
      </trkpt>
      <trkpt lat="47.02098" lon="8.94584">
        <ele>858</ele>
        <time>2021-08-02T11:24:16.882Z</time>
      </trkpt>
      <trkpt lat="47.02097" lon="8.94582">
        <ele>858</ele>
        <time>2021-08-02T11:24:30.043Z</time>
      </trkpt>
      <trkpt lat="47.02096" lon="8.9458">
        <ele>858</ele>
        <time>2021-08-02T11:24:31.042Z</time>
      </trkpt>
      <trkpt lat="47.02096" lon="8.94579">
        <ele>858</ele>
        <time>2021-08-02T11:24:32.042Z</time>
      </trkpt>
      <trkpt lat="47.02096" lon="8.94577">
        <ele>859</ele>
        <time>2021-08-02T11:24:33.043Z</time>
      </trkpt>
      <trkpt lat="47.02096" lon="8.94575">
        <ele>859</ele>
        <time>2021-08-02T11:24:34.043Z</time>
      </trkpt>
      <trkpt lat="47.02096" lon="8.94573">
        <ele>859</ele>
        <time>2021-08-02T11:24:35.043Z</time>
      </trkpt>
      <trkpt lat="47.02095" lon="8.94571">
        <ele>859</ele>
        <time>2021-08-02T11:24:36.042Z</time>
      </trkpt>
      <trkpt lat="47.02094" lon="8.9457">
        <ele>859</ele>
        <time>2021-08-02T11:24:37.042Z</time>
      </trkpt>
      <trkpt lat="47.02094" lon="8.94568">
        <ele>859</ele>
        <time>2021-08-02T11:25:09.145Z</time>
      </trkpt>
      <trkpt lat="47.02093" lon="8.94566">
        <ele>859</ele>
        <time>2021-08-02T11:25:10.145Z</time>
      </trkpt>
      <trkpt lat="47.02093" lon="8.94565">
        <ele>858</ele>
        <time>2021-08-02T11:25:11.146Z</time>
      </trkpt>
      <trkpt lat="47.02092" lon="8.94563">
        <ele>858</ele>
        <time>2021-08-02T11:25:17.268Z</time>
      </trkpt>
      <trkpt lat="47.02093" lon="8.94561">
        <ele>858</ele>
        <time>2021-08-02T11:25:18.267Z</time>
      </trkpt>
      <trkpt lat="47.02094" lon="8.94559">
        <ele>857</ele>
        <time>2021-08-02T11:25:20.135Z</time>
      </trkpt>
      <trkpt lat="47.02095" lon="8.94558">
        <ele>857</ele>
        <time>2021-08-02T11:25:21.136Z</time>
      </trkpt>
      <trkpt lat="47.02096" lon="8.94556">
        <ele>857</ele>
        <time>2021-08-02T11:25:22.136Z</time>
      </trkpt>
      <trkpt lat="47.02097" lon="8.94554">
        <ele>856</ele>
        <time>2021-08-02T11:25:23.135Z</time>
      </trkpt>
      <trkpt lat="47.02095" lon="8.94552">
        <ele>856</ele>
        <time>2021-08-02T11:25:24.135Z</time>
      </trkpt>
      <trkpt lat="47.02094" lon="8.94551">
        <ele>856</ele>
        <time>2021-08-02T11:25:25.135Z</time>
      </trkpt>
      <trkpt lat="47.02095" lon="8.94549">
        <ele>855</ele>
        <time>2021-08-02T11:25:29.285Z</time>
      </trkpt>
      <trkpt lat="47.02097" lon="8.94546">
        <ele>855</ele>
        <time>2021-08-02T11:25:30.285Z</time>
      </trkpt>
      <trkpt lat="47.02098" lon="8.94543">
        <ele>855</ele>
        <time>2021-08-02T11:25:31.285Z</time>
      </trkpt>
      <trkpt lat="47.021" lon="8.94542">
        <ele>855</ele>
        <time>2021-08-02T11:25:32.286Z</time>
      </trkpt>
      <trkpt lat="47.021" lon="8.9454">
        <ele>855</ele>
        <time>2021-08-02T11:25:33.286Z</time>
      </trkpt>
      <trkpt lat="47.02101" lon="8.94539">
        <ele>855</ele>
        <time>2021-08-02T11:25:34.286Z</time>
      </trkpt>
      <trkpt lat="47.02101" lon="8.94538">
        <ele>855</ele>
        <time>2021-08-02T11:25:35.285Z</time>
      </trkpt>
      <trkpt lat="47.02101" lon="8.94537">
        <ele>856</ele>
        <time>2021-08-02T11:25:36.285Z</time>
      </trkpt>
      <trkpt lat="47.02102" lon="8.94535">
        <ele>856</ele>
        <time>2021-08-02T11:25:37.285Z</time>
      </trkpt>
      <trkpt lat="47.02103" lon="8.94534">
        <ele>856</ele>
        <time>2021-08-02T11:25:38.286Z</time>
      </trkpt>
      <trkpt lat="47.02104" lon="8.94533">
        <ele>856</ele>
        <time>2021-08-02T11:25:39.285Z</time>
      </trkpt>
      <trkpt lat="47.02104" lon="8.94531">
        <ele>856</ele>
        <time>2021-08-02T11:25:40.285Z</time>
      </trkpt>
      <trkpt lat="47.02105" lon="8.9453">
        <ele>856</ele>
        <time>2021-08-02T11:25:41.285Z</time>
      </trkpt>
      <trkpt lat="47.02105" lon="8.94528">
        <ele>856</ele>
        <time>2021-08-02T11:25:42.286Z</time>
      </trkpt>
      <trkpt lat="47.02106" lon="8.94526">
        <ele>855</ele>
        <time>2021-08-02T11:25:43.285Z</time>
      </trkpt>
      <trkpt lat="47.02106" lon="8.94524">
        <ele>855</ele>
        <time>2021-08-02T11:25:44.286Z</time>
      </trkpt>
      <trkpt lat="47.02108" lon="8.94522">
        <ele>854</ele>
        <time>2021-08-02T11:25:45.285Z</time>
      </trkpt>
      <trkpt lat="47.0211" lon="8.9452">
        <ele>854</ele>
        <time>2021-08-02T11:25:46.285Z</time>
      </trkpt>
      <trkpt lat="47.02111" lon="8.94519">
        <ele>853</ele>
        <time>2021-08-02T11:25:47.285Z</time>
      </trkpt>
      <trkpt lat="47.02114" lon="8.94517">
        <ele>853</ele>
        <time>2021-08-02T11:25:48.286Z</time>
      </trkpt>
      <trkpt lat="47.02116" lon="8.94515">
        <ele>852</ele>
        <time>2021-08-02T11:25:49.285Z</time>
      </trkpt>
      <trkpt lat="47.02117" lon="8.94512">
        <ele>852</ele>
        <time>2021-08-02T11:25:50.285Z</time>
      </trkpt>
      <trkpt lat="47.02119" lon="8.9451">
        <ele>852</ele>
        <time>2021-08-02T11:25:51.285Z</time>
      </trkpt>
      <trkpt lat="47.02121" lon="8.94508">
        <ele>852</ele>
        <time>2021-08-02T11:25:52.286Z</time>
      </trkpt>
      <trkpt lat="47.02122" lon="8.94506">
        <ele>852</ele>
        <time>2021-08-02T11:25:53.285Z</time>
      </trkpt>
      <trkpt lat="47.02123" lon="8.94505">
        <ele>852</ele>
        <time>2021-08-02T11:25:54.285Z</time>
      </trkpt>
      <trkpt lat="47.02123" lon="8.94504">
        <ele>852</ele>
        <time>2021-08-02T11:25:55.286Z</time>
      </trkpt>
      <trkpt lat="47.02124" lon="8.94503">
        <ele>852</ele>
        <time>2021-08-02T11:25:56.285Z</time>
      </trkpt>
      <trkpt lat="47.02125" lon="8.94501">
        <ele>852</ele>
        <time>2021-08-02T11:25:57.286Z</time>
      </trkpt>
      <trkpt lat="47.02127" lon="8.945">
        <ele>851</ele>
        <time>2021-08-02T11:25:58.286Z</time>
      </trkpt>
      <trkpt lat="47.02128" lon="8.94499">
        <ele>851</ele>
        <time>2021-08-02T11:25:59.285Z</time>
      </trkpt>
      <trkpt lat="47.02129" lon="8.94498">
        <ele>851</ele>
        <time>2021-08-02T11:26:00.285Z</time>
      </trkpt>
      <trkpt lat="47.02129" lon="8.94496">
        <ele>850</ele>
        <time>2021-08-02T11:26:01.286Z</time>
      </trkpt>
      <trkpt lat="47.0213" lon="8.94495">
        <ele>850</ele>
        <time>2021-08-02T11:26:02.285Z</time>
      </trkpt>
      <trkpt lat="47.0213" lon="8.94493">
        <ele>850</ele>
        <time>2021-08-02T11:26:03.286Z</time>
      </trkpt>
      <trkpt lat="47.02132" lon="8.94492">
        <ele>849</ele>
        <time>2021-08-02T11:26:04.285Z</time>
      </trkpt>
      <trkpt lat="47.02133" lon="8.9449">
        <ele>849</ele>
        <time>2021-08-02T11:26:05.285Z</time>
      </trkpt>
      <trkpt lat="47.02134" lon="8.94488">
        <ele>849</ele>
        <time>2021-08-02T11:26:06.286Z</time>
      </trkpt>
      <trkpt lat="47.02136" lon="8.94487">
        <ele>849</ele>
        <time>2021-08-02T11:26:07.286Z</time>
      </trkpt>
      <trkpt lat="47.02137" lon="8.94485">
        <ele>849</ele>
        <time>2021-08-02T11:26:08.285Z</time>
      </trkpt>
      <trkpt lat="47.02137" lon="8.94483">
        <ele>849</ele>
        <time>2021-08-02T11:26:09.285Z</time>
      </trkpt>
      <trkpt lat="47.02137" lon="8.94482">
        <ele>849</ele>
        <time>2021-08-02T11:26:10.286Z</time>
      </trkpt>
      <trkpt lat="47.02138" lon="8.9448">
        <ele>848</ele>
        <time>2021-08-02T11:26:11.285Z</time>
      </trkpt>
      <trkpt lat="47.0214" lon="8.94479">
        <ele>848</ele>
        <time>2021-08-02T11:26:12.286Z</time>
      </trkpt>
      <trkpt lat="47.02142" lon="8.94477">
        <ele>849</ele>
        <time>2021-08-02T11:26:13.285Z</time>
      </trkpt>
      <trkpt lat="47.02144" lon="8.94475">
        <ele>849</ele>
        <time>2021-08-02T11:26:14.285Z</time>
      </trkpt>
      <trkpt lat="47.02146" lon="8.94474">
        <ele>850</ele>
        <time>2021-08-02T11:26:15.285Z</time>
      </trkpt>
      <trkpt lat="47.02148" lon="8.94472">
        <ele>851</ele>
        <time>2021-08-02T11:26:16.285Z</time>
      </trkpt>
      <trkpt lat="47.02149" lon="8.94471">
        <ele>852</ele>
        <time>2021-08-02T11:26:17.285Z</time>
      </trkpt>
      <trkpt lat="47.0215" lon="8.94469">
        <ele>852</ele>
        <time>2021-08-02T11:26:18.285Z</time>
      </trkpt>
      <trkpt lat="47.02152" lon="8.94468">
        <ele>853</ele>
        <time>2021-08-02T11:26:19.285Z</time>
      </trkpt>
      <trkpt lat="47.02153" lon="8.94466">
        <ele>854</ele>
        <time>2021-08-02T11:26:20.285Z</time>
      </trkpt>
      <trkpt lat="47.02154" lon="8.94464">
        <ele>854</ele>
        <time>2021-08-02T11:26:21.285Z</time>
      </trkpt>
      <trkpt lat="47.02153" lon="8.94463">
        <ele>855</ele>
        <time>2021-08-02T11:26:22.286Z</time>
      </trkpt>
      <trkpt lat="47.02153" lon="8.94461">
        <ele>855</ele>
        <time>2021-08-02T11:26:23.285Z</time>
      </trkpt>
      <trkpt lat="47.02154" lon="8.94459">
        <ele>855</ele>
        <time>2021-08-02T11:26:24.285Z</time>
      </trkpt>
      <trkpt lat="47.02154" lon="8.94458">
        <ele>856</ele>
        <time>2021-08-02T11:26:25.285Z</time>
      </trkpt>
      <trkpt lat="47.02154" lon="8.94456">
        <ele>857</ele>
        <time>2021-08-02T11:26:26.285Z</time>
      </trkpt>
      <trkpt lat="47.02155" lon="8.94454">
        <ele>857</ele>
        <time>2021-08-02T11:26:27.285Z</time>
      </trkpt>
      <trkpt lat="47.02156" lon="8.94452">
        <ele>857</ele>
        <time>2021-08-02T11:26:28.285Z</time>
      </trkpt>
      <trkpt lat="47.02158" lon="8.9445">
        <ele>857</ele>
        <time>2021-08-02T11:26:29.285Z</time>
      </trkpt>
      <trkpt lat="47.02159" lon="8.94448">
        <ele>857</ele>
        <time>2021-08-02T11:26:30.285Z</time>
      </trkpt>
      <trkpt lat="47.0216" lon="8.94445">
        <ele>857</ele>
        <time>2021-08-02T11:26:31.285Z</time>
      </trkpt>
      <trkpt lat="47.0216" lon="8.94443">
        <ele>858</ele>
        <time>2021-08-02T11:26:32.285Z</time>
      </trkpt>
      <trkpt lat="47.02161" lon="8.9444">
        <ele>858</ele>
        <time>2021-08-02T11:26:33.286Z</time>
      </trkpt>
      <trkpt lat="47.02163" lon="8.94439">
        <ele>858</ele>
        <time>2021-08-02T11:26:34.285Z</time>
      </trkpt>
      <trkpt lat="47.02163" lon="8.94438">
        <ele>858</ele>
        <time>2021-08-02T11:26:35.286Z</time>
      </trkpt>
      <trkpt lat="47.02164" lon="8.94437">
        <ele>858</ele>
        <time>2021-08-02T11:26:36.285Z</time>
      </trkpt>
      <trkpt lat="47.02164" lon="8.94435">
        <ele>858</ele>
        <time>2021-08-02T11:26:37.285Z</time>
      </trkpt>
      <trkpt lat="47.02164" lon="8.94434">
        <ele>858</ele>
        <time>2021-08-02T11:26:38.285Z</time>
      </trkpt>
      <trkpt lat="47.02164" lon="8.94432">
        <ele>858</ele>
        <time>2021-08-02T11:26:39.286Z</time>
      </trkpt>
      <trkpt lat="47.02165" lon="8.94431">
        <ele>859</ele>
        <time>2021-08-02T11:26:40.285Z</time>
      </trkpt>
      <trkpt lat="47.02164" lon="8.94429">
        <ele>859</ele>
        <time>2021-08-02T11:26:41.285Z</time>
      </trkpt>
      <trkpt lat="47.02164" lon="8.94428">
        <ele>859</ele>
        <time>2021-08-02T11:26:42.285Z</time>
      </trkpt>
      <trkpt lat="47.02163" lon="8.94426">
        <ele>858</ele>
        <time>2021-08-02T11:26:43.286Z</time>
      </trkpt>
      <trkpt lat="47.02163" lon="8.94423">
        <ele>858</ele>
        <time>2021-08-02T11:26:44.286Z</time>
      </trkpt>
      <trkpt lat="47.02164" lon="8.94421">
        <ele>857</ele>
        <time>2021-08-02T11:26:45.285Z</time>
      </trkpt>
      <trkpt lat="47.02164" lon="8.94418">
        <ele>857</ele>
        <time>2021-08-02T11:26:46.285Z</time>
      </trkpt>
      <trkpt lat="47.02164" lon="8.94416">
        <ele>857</ele>
        <time>2021-08-02T11:26:47.286Z</time>
      </trkpt>
      <trkpt lat="47.02165" lon="8.94415">
        <ele>856</ele>
        <time>2021-08-02T11:26:48.285Z</time>
      </trkpt>
      <trkpt lat="47.02165" lon="8.94413">
        <ele>856</ele>
        <time>2021-08-02T11:26:49.285Z</time>
      </trkpt>
      <trkpt lat="47.02166" lon="8.94411">
        <ele>856</ele>
        <time>2021-08-02T11:26:50.285Z</time>
      </trkpt>
      <trkpt lat="47.02165" lon="8.94409">
        <ele>856</ele>
        <time>2021-08-02T11:26:51.285Z</time>
      </trkpt>
      <trkpt lat="47.02164" lon="8.94407">
        <ele>856</ele>
        <time>2021-08-02T11:26:52.285Z</time>
      </trkpt>
      <trkpt lat="47.02164" lon="8.94405">
        <ele>856</ele>
        <time>2021-08-02T11:26:53.286Z</time>
      </trkpt>
      <trkpt lat="47.02164" lon="8.94403">
        <ele>856</ele>
        <time>2021-08-02T11:26:54.285Z</time>
      </trkpt>
      <trkpt lat="47.02164" lon="8.94401">
        <ele>856</ele>
        <time>2021-08-02T11:26:55.286Z</time>
      </trkpt>
      <trkpt lat="47.02164" lon="8.944">
        <ele>856</ele>
        <time>2021-08-02T11:26:56.285Z</time>
      </trkpt>
      <trkpt lat="47.02164" lon="8.94398">
        <ele>856</ele>
        <time>2021-08-02T11:26:57.286Z</time>
      </trkpt>
      <trkpt lat="47.02164" lon="8.94397">
        <ele>856</ele>
        <time>2021-08-02T11:26:58.285Z</time>
      </trkpt>
      <trkpt lat="47.02164" lon="8.94395">
        <ele>857</ele>
        <time>2021-08-02T11:26:59.285Z</time>
      </trkpt>
      <trkpt lat="47.02164" lon="8.94394">
        <ele>857</ele>
        <time>2021-08-02T11:27:00.285Z</time>
      </trkpt>
      <trkpt lat="47.02164" lon="8.94392">
        <ele>857</ele>
        <time>2021-08-02T11:27:01.285Z</time>
      </trkpt>
      <trkpt lat="47.02165" lon="8.94391">
        <ele>857</ele>
        <time>2021-08-02T11:27:02.285Z</time>
      </trkpt>
      <trkpt lat="47.02165" lon="8.94389">
        <ele>857</ele>
        <time>2021-08-02T11:27:03.286Z</time>
      </trkpt>
      <trkpt lat="47.02166" lon="8.94388">
        <ele>857</ele>
        <time>2021-08-02T11:27:04.285Z</time>
      </trkpt>
      <trkpt lat="47.02166" lon="8.94387">
        <ele>857</ele>
        <time>2021-08-02T11:27:05.286Z</time>
      </trkpt>
      <trkpt lat="47.02165" lon="8.94387">
        <ele>857</ele>
        <time>2021-08-02T11:27:06.285Z</time>
      </trkpt>
      <trkpt lat="47.02165" lon="8.94386">
        <ele>857</ele>
        <time>2021-08-02T11:27:07.286Z</time>
      </trkpt>
      <trkpt lat="47.02165" lon="8.94385">
        <ele>856</ele>
        <time>2021-08-02T11:27:08.286Z</time>
      </trkpt>
      <trkpt lat="47.02165" lon="8.94384">
        <ele>856</ele>
        <time>2021-08-02T11:27:09.285Z</time>
      </trkpt>
      <trkpt lat="47.02165" lon="8.94381">
        <ele>856</ele>
        <time>2021-08-02T11:27:10.285Z</time>
      </trkpt>
      <trkpt lat="47.02166" lon="8.9438">
        <ele>856</ele>
        <time>2021-08-02T11:27:11.285Z</time>
      </trkpt>
      <trkpt lat="47.02167" lon="8.94379">
        <ele>856</ele>
        <time>2021-08-02T11:27:12.285Z</time>
      </trkpt>
      <trkpt lat="47.02167" lon="8.94377">
        <ele>855</ele>
        <time>2021-08-02T11:27:13.285Z</time>
      </trkpt>
      <trkpt lat="47.02167" lon="8.94375">
        <ele>855</ele>
        <time>2021-08-02T11:27:14.285Z</time>
      </trkpt>
      <trkpt lat="47.02167" lon="8.94373">
        <ele>855</ele>
        <time>2021-08-02T11:27:15.285Z</time>
      </trkpt>
      <trkpt lat="47.02168" lon="8.94371">
        <ele>855</ele>
        <time>2021-08-02T11:27:16.286Z</time>
      </trkpt>
      <trkpt lat="47.02167" lon="8.94369">
        <ele>855</ele>
        <time>2021-08-02T11:27:17.285Z</time>
      </trkpt>
      <trkpt lat="47.02168" lon="8.94367">
        <ele>855</ele>
        <time>2021-08-02T11:27:18.286Z</time>
      </trkpt>
      <trkpt lat="47.02169" lon="8.94366">
        <ele>855</ele>
        <time>2021-08-02T11:27:19.285Z</time>
      </trkpt>
      <trkpt lat="47.0217" lon="8.94364">
        <ele>855</ele>
        <time>2021-08-02T11:27:20.286Z</time>
      </trkpt>
      <trkpt lat="47.0217" lon="8.94363">
        <ele>855</ele>
        <time>2021-08-02T11:27:21.285Z</time>
      </trkpt>
      <trkpt lat="47.0217" lon="8.94362">
        <ele>855</ele>
        <time>2021-08-02T11:27:22.285Z</time>
      </trkpt>
      <trkpt lat="47.0217" lon="8.9436">
        <ele>855</ele>
        <time>2021-08-02T11:27:23.285Z</time>
      </trkpt>
      <trkpt lat="47.0217" lon="8.94359">
        <ele>855</ele>
        <time>2021-08-02T11:27:24.285Z</time>
      </trkpt>
      <trkpt lat="47.02171" lon="8.94358">
        <ele>855</ele>
        <time>2021-08-02T11:27:25.286Z</time>
      </trkpt>
      <trkpt lat="47.02171" lon="8.94356">
        <ele>854</ele>
        <time>2021-08-02T11:27:26.285Z</time>
      </trkpt>
      <trkpt lat="47.0217" lon="8.94354">
        <ele>854</ele>
        <time>2021-08-02T11:27:27.286Z</time>
      </trkpt>
      <trkpt lat="47.0217" lon="8.94353">
        <ele>854</ele>
        <time>2021-08-02T11:27:28.286Z</time>
      </trkpt>
      <trkpt lat="47.0217" lon="8.94351">
        <ele>854</ele>
        <time>2021-08-02T11:27:29.285Z</time>
      </trkpt>
      <trkpt lat="47.0217" lon="8.94349">
        <ele>854</ele>
        <time>2021-08-02T11:27:30.285Z</time>
      </trkpt>
      <trkpt lat="47.0217" lon="8.94348">
        <ele>854</ele>
        <time>2021-08-02T11:27:31.285Z</time>
      </trkpt>
      <trkpt lat="47.0217" lon="8.94346">
        <ele>854</ele>
        <time>2021-08-02T11:27:32.285Z</time>
      </trkpt>
      <trkpt lat="47.0217" lon="8.94345">
        <ele>854</ele>
        <time>2021-08-02T11:27:33.285Z</time>
      </trkpt>
      <trkpt lat="47.0217" lon="8.94344">
        <ele>855</ele>
        <time>2021-08-02T11:27:34.286Z</time>
      </trkpt>
      <trkpt lat="47.0217" lon="8.94343">
        <ele>856</ele>
        <time>2021-08-02T11:27:35.286Z</time>
      </trkpt>
      <trkpt lat="47.0217" lon="8.94343">
        <ele>856</ele>
        <time>2021-08-02T11:27:36.285Z</time>
      </trkpt>
      <trkpt lat="47.0217" lon="8.94342">
        <ele>857</ele>
        <time>2021-08-02T11:27:37.285Z</time>
      </trkpt>
      <trkpt lat="47.0217" lon="8.94341">
        <ele>857</ele>
        <time>2021-08-02T11:27:38.285Z</time>
      </trkpt>
      <trkpt lat="47.02171" lon="8.94339">
        <ele>858</ele>
        <time>2021-08-02T11:27:39.285Z</time>
      </trkpt>
      <trkpt lat="47.02171" lon="8.94337">
        <ele>859</ele>
        <time>2021-08-02T11:27:40.285Z</time>
      </trkpt>
      <trkpt lat="47.0217" lon="8.94335">
        <ele>859</ele>
        <time>2021-08-02T11:27:41.285Z</time>
      </trkpt>
      <trkpt lat="47.02169" lon="8.94333">
        <ele>860</ele>
        <time>2021-08-02T11:27:42.285Z</time>
      </trkpt>
      <trkpt lat="47.02168" lon="8.94331">
        <ele>860</ele>
        <time>2021-08-02T11:27:43.286Z</time>
      </trkpt>
      <trkpt lat="47.02167" lon="8.94329">
        <ele>860</ele>
        <time>2021-08-02T11:27:44.285Z</time>
      </trkpt>
      <trkpt lat="47.02167" lon="8.94327">
        <ele>861</ele>
        <time>2021-08-02T11:27:45.285Z</time>
      </trkpt>
      <trkpt lat="47.02168" lon="8.94325">
        <ele>861</ele>
        <time>2021-08-02T11:27:46.285Z</time>
      </trkpt>
      <trkpt lat="47.02167" lon="8.94322">
        <ele>861</ele>
        <time>2021-08-02T11:27:47.286Z</time>
      </trkpt>
      <trkpt lat="47.02167" lon="8.9432">
        <ele>861</ele>
        <time>2021-08-02T11:27:48.285Z</time>
      </trkpt>
      <trkpt lat="47.02166" lon="8.94318">
        <ele>861</ele>
        <time>2021-08-02T11:27:49.285Z</time>
      </trkpt>
      <trkpt lat="47.02165" lon="8.94315">
        <ele>861</ele>
        <time>2021-08-02T11:27:50.285Z</time>
      </trkpt>
      <trkpt lat="47.02164" lon="8.94312">
        <ele>861</ele>
        <time>2021-08-02T11:27:51.285Z</time>
      </trkpt>
      <trkpt lat="47.02164" lon="8.9431">
        <ele>861</ele>
        <time>2021-08-02T11:27:52.286Z</time>
      </trkpt>
      <trkpt lat="47.02164" lon="8.94308">
        <ele>861</ele>
        <time>2021-08-02T11:27:53.285Z</time>
      </trkpt>
      <trkpt lat="47.02164" lon="8.94306">
        <ele>861</ele>
        <time>2021-08-02T11:27:54.286Z</time>
      </trkpt>
      <trkpt lat="47.02164" lon="8.94304">
        <ele>861</ele>
        <time>2021-08-02T11:27:55.285Z</time>
      </trkpt>
      <trkpt lat="47.02164" lon="8.94302">
        <ele>861</ele>
        <time>2021-08-02T11:27:56.285Z</time>
      </trkpt>
      <trkpt lat="47.02165" lon="8.94301">
        <ele>862</ele>
        <time>2021-08-02T11:27:57.285Z</time>
      </trkpt>
      <trkpt lat="47.02165" lon="8.943">
        <ele>862</ele>
        <time>2021-08-02T11:27:58.286Z</time>
      </trkpt>
      <trkpt lat="47.02166" lon="8.94298">
        <ele>862</ele>
        <time>2021-08-02T11:27:59.285Z</time>
      </trkpt>
      <trkpt lat="47.02166" lon="8.94297">
        <ele>862</ele>
        <time>2021-08-02T11:28:00.285Z</time>
      </trkpt>
      <trkpt lat="47.02166" lon="8.94295">
        <ele>862</ele>
        <time>2021-08-02T11:28:01.285Z</time>
      </trkpt>
      <trkpt lat="47.02166" lon="8.94293">
        <ele>862</ele>
        <time>2021-08-02T11:28:02.285Z</time>
      </trkpt>
      <trkpt lat="47.02166" lon="8.94292">
        <ele>862</ele>
        <time>2021-08-02T11:28:03.285Z</time>
      </trkpt>
      <trkpt lat="47.02166" lon="8.94291">
        <ele>862</ele>
        <time>2021-08-02T11:28:04.285Z</time>
      </trkpt>
      <trkpt lat="47.02165" lon="8.94288">
        <ele>861</ele>
        <time>2021-08-02T11:28:05.285Z</time>
      </trkpt>
      <trkpt lat="47.02164" lon="8.94286">
        <ele>861</ele>
        <time>2021-08-02T11:28:06.285Z</time>
      </trkpt>
      <trkpt lat="47.02164" lon="8.94284">
        <ele>861</ele>
        <time>2021-08-02T11:28:07.286Z</time>
      </trkpt>
      <trkpt lat="47.02163" lon="8.94283">
        <ele>861</ele>
        <time>2021-08-02T11:28:08.285Z</time>
      </trkpt>
      <trkpt lat="47.02163" lon="8.94282">
        <ele>861</ele>
        <time>2021-08-02T11:28:09.286Z</time>
      </trkpt>
      <trkpt lat="47.02163" lon="8.94281">
        <ele>861</ele>
        <time>2021-08-02T11:28:10.285Z</time>
      </trkpt>
      <trkpt lat="47.02163" lon="8.9428">
        <ele>861</ele>
        <time>2021-08-02T11:28:11.286Z</time>
      </trkpt>
      <trkpt lat="47.02163" lon="8.94279">
        <ele>861</ele>
        <time>2021-08-02T11:28:12.286Z</time>
      </trkpt>
      <trkpt lat="47.02162" lon="8.94278">
        <ele>861</ele>
        <time>2021-08-02T11:28:13.286Z</time>
      </trkpt>
      <trkpt lat="47.02161" lon="8.94278">
        <ele>861</ele>
        <time>2021-08-02T11:28:14.286Z</time>
      </trkpt>
      <trkpt lat="47.02161" lon="8.94276">
        <ele>861</ele>
        <time>2021-08-02T11:28:15.285Z</time>
      </trkpt>
      <trkpt lat="47.0216" lon="8.94275">
        <ele>861</ele>
        <time>2021-08-02T11:28:16.285Z</time>
      </trkpt>
      <trkpt lat="47.0216" lon="8.94274">
        <ele>861</ele>
        <time>2021-08-02T11:28:17.285Z</time>
      </trkpt>
      <trkpt lat="47.02159" lon="8.94272">
        <ele>861</ele>
        <time>2021-08-02T11:28:18.286Z</time>
      </trkpt>
      <trkpt lat="47.02159" lon="8.9427">
        <ele>861</ele>
        <time>2021-08-02T11:28:19.285Z</time>
      </trkpt>
      <trkpt lat="47.02159" lon="8.94268">
        <ele>862</ele>
        <time>2021-08-02T11:28:20.285Z</time>
      </trkpt>
      <trkpt lat="47.02159" lon="8.94266">
        <ele>862</ele>
        <time>2021-08-02T11:28:21.285Z</time>
      </trkpt>
      <trkpt lat="47.02158" lon="8.94264">
        <ele>862</ele>
        <time>2021-08-02T11:28:22.286Z</time>
      </trkpt>
      <trkpt lat="47.02158" lon="8.94262">
        <ele>862</ele>
        <time>2021-08-02T11:28:23.286Z</time>
      </trkpt>
      <trkpt lat="47.02158" lon="8.9426">
        <ele>862</ele>
        <time>2021-08-02T11:28:24.285Z</time>
      </trkpt>
      <trkpt lat="47.02157" lon="8.94257">
        <ele>862</ele>
        <time>2021-08-02T11:28:25.285Z</time>
      </trkpt>
      <trkpt lat="47.02156" lon="8.94255">
        <ele>862</ele>
        <time>2021-08-02T11:28:26.285Z</time>
      </trkpt>
      <trkpt lat="47.02155" lon="8.94254">
        <ele>862</ele>
        <time>2021-08-02T11:28:27.285Z</time>
      </trkpt>
      <trkpt lat="47.02155" lon="8.94251">
        <ele>862</ele>
        <time>2021-08-02T11:28:28.285Z</time>
      </trkpt>
      <trkpt lat="47.02154" lon="8.94249">
        <ele>863</ele>
        <time>2021-08-02T11:28:29.286Z</time>
      </trkpt>
      <trkpt lat="47.02154" lon="8.94247">
        <ele>863</ele>
        <time>2021-08-02T11:28:30.285Z</time>
      </trkpt>
      <trkpt lat="47.02153" lon="8.94245">
        <ele>864</ele>
        <time>2021-08-02T11:28:31.286Z</time>
      </trkpt>
      <trkpt lat="47.02152" lon="8.94243">
        <ele>865</ele>
        <time>2021-08-02T11:28:32.285Z</time>
      </trkpt>
      <trkpt lat="47.02152" lon="8.94241">
        <ele>865</ele>
        <time>2021-08-02T11:28:33.285Z</time>
      </trkpt>
      <trkpt lat="47.02151" lon="8.9424">
        <ele>866</ele>
        <time>2021-08-02T11:28:34.285Z</time>
      </trkpt>
      <trkpt lat="47.02151" lon="8.94239">
        <ele>866</ele>
        <time>2021-08-02T11:28:35.286Z</time>
      </trkpt>
      <trkpt lat="47.0215" lon="8.94237">
        <ele>867</ele>
        <time>2021-08-02T11:28:36.285Z</time>
      </trkpt>
      <trkpt lat="47.0215" lon="8.94235">
        <ele>867</ele>
        <time>2021-08-02T11:28:37.285Z</time>
      </trkpt>
      <trkpt lat="47.0215" lon="8.94233">
        <ele>868</ele>
        <time>2021-08-02T11:28:38.286Z</time>
      </trkpt>
      <trkpt lat="47.02151" lon="8.94231">
        <ele>868</ele>
        <time>2021-08-02T11:28:39.285Z</time>
      </trkpt>
      <trkpt lat="47.02152" lon="8.9423">
        <ele>869</ele>
        <time>2021-08-02T11:28:40.285Z</time>
      </trkpt>
      <trkpt lat="47.02152" lon="8.94228">
        <ele>869</ele>
        <time>2021-08-02T11:28:41.285Z</time>
      </trkpt>
      <trkpt lat="47.02151" lon="8.94227">
        <ele>870</ele>
        <time>2021-08-02T11:28:42.286Z</time>
      </trkpt>
      <trkpt lat="47.02151" lon="8.94226">
        <ele>870</ele>
        <time>2021-08-02T11:28:43.285Z</time>
      </trkpt>
      <trkpt lat="47.0215" lon="8.94225">
        <ele>871</ele>
        <time>2021-08-02T11:28:44.286Z</time>
      </trkpt>
      <trkpt lat="47.0215" lon="8.94224">
        <ele>871</ele>
        <time>2021-08-02T11:28:45.285Z</time>
      </trkpt>
      <trkpt lat="47.0215" lon="8.94222">
        <ele>871</ele>
        <time>2021-08-02T11:28:46.285Z</time>
      </trkpt>
      <trkpt lat="47.0215" lon="8.94221">
        <ele>872</ele>
        <time>2021-08-02T11:28:47.285Z</time>
      </trkpt>
      <trkpt lat="47.0215" lon="8.94219">
        <ele>872</ele>
        <time>2021-08-02T11:28:48.285Z</time>
      </trkpt>
      <trkpt lat="47.0215" lon="8.94218">
        <ele>872</ele>
        <time>2021-08-02T11:28:49.285Z</time>
      </trkpt>
      <trkpt lat="47.0215" lon="8.94217">
        <ele>873</ele>
        <time>2021-08-02T11:28:50.285Z</time>
      </trkpt>
      <trkpt lat="47.0215" lon="8.94215">
        <ele>873</ele>
        <time>2021-08-02T11:28:51.286Z</time>
      </trkpt>
      <trkpt lat="47.02149" lon="8.94214">
        <ele>873</ele>
        <time>2021-08-02T11:28:52.286Z</time>
      </trkpt>
      <trkpt lat="47.02149" lon="8.94213">
        <ele>874</ele>
        <time>2021-08-02T11:28:53.286Z</time>
      </trkpt>
      <trkpt lat="47.02149" lon="8.94212">
        <ele>873</ele>
        <time>2021-08-02T11:28:54.285Z</time>
      </trkpt>
      <trkpt lat="47.02148" lon="8.94211">
        <ele>873</ele>
        <time>2021-08-02T11:28:55.285Z</time>
      </trkpt>
      <trkpt lat="47.02148" lon="8.9421">
        <ele>873</ele>
        <time>2021-08-02T11:28:56.285Z</time>
      </trkpt>
      <trkpt lat="47.02148" lon="8.94209">
        <ele>874</ele>
        <time>2021-08-02T11:28:57.286Z</time>
      </trkpt>
      <trkpt lat="47.02148" lon="8.94208">
        <ele>874</ele>
        <time>2021-08-02T11:28:58.285Z</time>
      </trkpt>
      <trkpt lat="47.02147" lon="8.94207">
        <ele>874</ele>
        <time>2021-08-02T11:28:59.285Z</time>
      </trkpt>
      <trkpt lat="47.02148" lon="8.94205">
        <ele>874</ele>
        <time>2021-08-02T11:29:00.285Z</time>
      </trkpt>
      <trkpt lat="47.02148" lon="8.94204">
        <ele>874</ele>
        <time>2021-08-02T11:29:01.285Z</time>
      </trkpt>
      <trkpt lat="47.02148" lon="8.94203">
        <ele>874</ele>
        <time>2021-08-02T11:29:02.285Z</time>
      </trkpt>
      <trkpt lat="47.02148" lon="8.94202">
        <ele>873</ele>
        <time>2021-08-02T11:29:03.285Z</time>
      </trkpt>
      <trkpt lat="47.02148" lon="8.94201">
        <ele>873</ele>
        <time>2021-08-02T11:29:04.285Z</time>
      </trkpt>
      <trkpt lat="47.02149" lon="8.94199">
        <ele>873</ele>
        <time>2021-08-02T11:29:05.286Z</time>
      </trkpt>
      <trkpt lat="47.02149" lon="8.94198">
        <ele>872</ele>
        <time>2021-08-02T11:29:06.285Z</time>
      </trkpt>
      <trkpt lat="47.0215" lon="8.94197">
        <ele>872</ele>
        <time>2021-08-02T11:29:07.285Z</time>
      </trkpt>
      <trkpt lat="47.0215" lon="8.94196">
        <ele>872</ele>
        <time>2021-08-02T11:29:08.286Z</time>
      </trkpt>
      <trkpt lat="47.02151" lon="8.94195">
        <ele>872</ele>
        <time>2021-08-02T11:29:09.286Z</time>
      </trkpt>
      <trkpt lat="47.02151" lon="8.94194">
        <ele>872</ele>
        <time>2021-08-02T11:29:10.286Z</time>
      </trkpt>
      <trkpt lat="47.02152" lon="8.94193">
        <ele>872</ele>
        <time>2021-08-02T11:29:11.285Z</time>
      </trkpt>
      <trkpt lat="47.02153" lon="8.94192">
        <ele>872</ele>
        <time>2021-08-02T11:29:12.285Z</time>
      </trkpt>
      <trkpt lat="47.02153" lon="8.9419">
        <ele>872</ele>
        <time>2021-08-02T11:29:13.286Z</time>
      </trkpt>
      <trkpt lat="47.02154" lon="8.94189">
        <ele>872</ele>
        <time>2021-08-02T11:29:14.285Z</time>
      </trkpt>
      <trkpt lat="47.02156" lon="8.94187">
        <ele>871</ele>
        <time>2021-08-02T11:29:15.285Z</time>
      </trkpt>
      <trkpt lat="47.02157" lon="8.94186">
        <ele>871</ele>
        <time>2021-08-02T11:29:16.285Z</time>
      </trkpt>
      <trkpt lat="47.02159" lon="8.94185">
        <ele>871</ele>
        <time>2021-08-02T11:29:17.286Z</time>
      </trkpt>
      <trkpt lat="47.02159" lon="8.94184">
        <ele>872</ele>
        <time>2021-08-02T11:29:18.286Z</time>
      </trkpt>
      <trkpt lat="47.0216" lon="8.94183">
        <ele>872</ele>
        <time>2021-08-02T11:29:19.286Z</time>
      </trkpt>
      <trkpt lat="47.02159" lon="8.94183">
        <ele>872</ele>
        <time>2021-08-02T11:29:20.285Z</time>
      </trkpt>
      <trkpt lat="47.02159" lon="8.94182">
        <ele>873</ele>
        <time>2021-08-02T11:29:21.286Z</time>
      </trkpt>
      <trkpt lat="47.02159" lon="8.94181">
        <ele>873</ele>
        <time>2021-08-02T11:29:22.285Z</time>
      </trkpt>
      <trkpt lat="47.02159" lon="8.94179">
        <ele>873</ele>
        <time>2021-08-02T11:29:23.286Z</time>
      </trkpt>
      <trkpt lat="47.02161" lon="8.94178">
        <ele>873</ele>
        <time>2021-08-02T11:29:24.286Z</time>
      </trkpt>
      <trkpt lat="47.02161" lon="8.94177">
        <ele>874</ele>
        <time>2021-08-02T11:29:25.286Z</time>
      </trkpt>
      <trkpt lat="47.02162" lon="8.94176">
        <ele>874</ele>
        <time>2021-08-02T11:29:26.285Z</time>
      </trkpt>
      <trkpt lat="47.02163" lon="8.94175">
        <ele>874</ele>
        <time>2021-08-02T11:29:27.286Z</time>
      </trkpt>
      <trkpt lat="47.02163" lon="8.94174">
        <ele>874</ele>
        <time>2021-08-02T11:29:28.286Z</time>
      </trkpt>
      <trkpt lat="47.02164" lon="8.94173">
        <ele>874</ele>
        <time>2021-08-02T11:29:29.286Z</time>
      </trkpt>
      <trkpt lat="47.02164" lon="8.94171">
        <ele>875</ele>
        <time>2021-08-02T11:29:30.285Z</time>
      </trkpt>
      <trkpt lat="47.02165" lon="8.94171">
        <ele>875</ele>
        <time>2021-08-02T11:29:31.285Z</time>
      </trkpt>
      <trkpt lat="47.02164" lon="8.9417">
        <ele>875</ele>
        <time>2021-08-02T11:29:32.285Z</time>
      </trkpt>
      <trkpt lat="47.02164" lon="8.94169">
        <ele>876</ele>
        <time>2021-08-02T11:29:33.285Z</time>
      </trkpt>
      <trkpt lat="47.02163" lon="8.94168">
        <ele>876</ele>
        <time>2021-08-02T11:29:34.285Z</time>
      </trkpt>
      <trkpt lat="47.02163" lon="8.94167">
        <ele>876</ele>
        <time>2021-08-02T11:29:35.285Z</time>
      </trkpt>
      <trkpt lat="47.02163" lon="8.94165">
        <ele>876</ele>
        <time>2021-08-02T11:29:36.285Z</time>
      </trkpt>
      <trkpt lat="47.02163" lon="8.94164">
        <ele>876</ele>
        <time>2021-08-02T11:29:37.286Z</time>
      </trkpt>
      <trkpt lat="47.02164" lon="8.94163">
        <ele>876</ele>
        <time>2021-08-02T11:29:38.285Z</time>
      </trkpt>
      <trkpt lat="47.02164" lon="8.94161">
        <ele>876</ele>
        <time>2021-08-02T11:29:39.285Z</time>
      </trkpt>
      <trkpt lat="47.02165" lon="8.9416">
        <ele>876</ele>
        <time>2021-08-02T11:29:40.285Z</time>
      </trkpt>
      <trkpt lat="47.02165" lon="8.94158">
        <ele>876</ele>
        <time>2021-08-02T11:29:41.286Z</time>
      </trkpt>
      <trkpt lat="47.02166" lon="8.94156">
        <ele>876</ele>
        <time>2021-08-02T11:29:42.285Z</time>
      </trkpt>
      <trkpt lat="47.02166" lon="8.94154">
        <ele>875</ele>
        <time>2021-08-02T11:29:43.286Z</time>
      </trkpt>
      <trkpt lat="47.02166" lon="8.94153">
        <ele>875</ele>
        <time>2021-08-02T11:29:44.285Z</time>
      </trkpt>
      <trkpt lat="47.02166" lon="8.94152">
        <ele>875</ele>
        <time>2021-08-02T11:29:45.285Z</time>
      </trkpt>
      <trkpt lat="47.02166" lon="8.94151">
        <ele>875</ele>
        <time>2021-08-02T11:29:46.285Z</time>
      </trkpt>
      <trkpt lat="47.02167" lon="8.94145">
        <ele>874</ele>
        <time>2021-08-02T11:29:47.285Z</time>
      </trkpt>
      <trkpt lat="47.02166" lon="8.94144">
        <ele>874</ele>
        <time>2021-08-02T11:29:48.285Z</time>
      </trkpt>
      <trkpt lat="47.02166" lon="8.94142">
        <ele>874</ele>
        <time>2021-08-02T11:29:49.285Z</time>
      </trkpt>
      <trkpt lat="47.02166" lon="8.94141">
        <ele>874</ele>
        <time>2021-08-02T11:29:50.285Z</time>
      </trkpt>
      <trkpt lat="47.02166" lon="8.94138">
        <ele>873</ele>
        <time>2021-08-02T11:29:51.285Z</time>
      </trkpt>
      <trkpt lat="47.02167" lon="8.94137">
        <ele>873</ele>
        <time>2021-08-02T11:29:52.285Z</time>
      </trkpt>
      <trkpt lat="47.02167" lon="8.94136">
        <ele>873</ele>
        <time>2021-08-02T11:29:53.285Z</time>
      </trkpt>
      <trkpt lat="47.02167" lon="8.94134">
        <ele>873</ele>
        <time>2021-08-02T11:29:54.285Z</time>
      </trkpt>
      <trkpt lat="47.02168" lon="8.94133">
        <ele>872</ele>
        <time>2021-08-02T11:29:55.285Z</time>
      </trkpt>
      <trkpt lat="47.02168" lon="8.94131">
        <ele>872</ele>
        <time>2021-08-02T11:29:56.285Z</time>
      </trkpt>
      <trkpt lat="47.02168" lon="8.9413">
        <ele>872</ele>
        <time>2021-08-02T11:29:57.285Z</time>
      </trkpt>
      <trkpt lat="47.02167" lon="8.94126">
        <ele>872</ele>
        <time>2021-08-02T11:29:58.285Z</time>
      </trkpt>
      <trkpt lat="47.02165" lon="8.94123">
        <ele>872</ele>
        <time>2021-08-02T11:29:59.285Z</time>
      </trkpt>
      <trkpt lat="47.02166" lon="8.94121">
        <ele>871</ele>
        <time>2021-08-02T11:30:00.285Z</time>
      </trkpt>
      <trkpt lat="47.02165" lon="8.94119">
        <ele>871</ele>
        <time>2021-08-02T11:30:01.285Z</time>
      </trkpt>
      <trkpt lat="47.02165" lon="8.94117">
        <ele>870</ele>
        <time>2021-08-02T11:30:02.285Z</time>
      </trkpt>
      <trkpt lat="47.02165" lon="8.94115">
        <ele>870</ele>
        <time>2021-08-02T11:30:03.285Z</time>
      </trkpt>
      <trkpt lat="47.02166" lon="8.94113">
        <ele>870</ele>
        <time>2021-08-02T11:30:04.285Z</time>
      </trkpt>
      <trkpt lat="47.02165" lon="8.94111">
        <ele>870</ele>
        <time>2021-08-02T11:30:05.285Z</time>
      </trkpt>
      <trkpt lat="47.02165" lon="8.9411">
        <ele>870</ele>
        <time>2021-08-02T11:30:06.285Z</time>
      </trkpt>
      <trkpt lat="47.02165" lon="8.94108">
        <ele>870</ele>
        <time>2021-08-02T11:30:07.285Z</time>
      </trkpt>
      <trkpt lat="47.02165" lon="8.94106">
        <ele>871</ele>
        <time>2021-08-02T11:30:08.285Z</time>
      </trkpt>
      <trkpt lat="47.02164" lon="8.94105">
        <ele>871</ele>
        <time>2021-08-02T11:30:09.285Z</time>
      </trkpt>
      <trkpt lat="47.02164" lon="8.94104">
        <ele>870</ele>
        <time>2021-08-02T11:30:10.285Z</time>
      </trkpt>
      <trkpt lat="47.02164" lon="8.94103">
        <ele>870</ele>
        <time>2021-08-02T11:30:11.285Z</time>
      </trkpt>
      <trkpt lat="47.02164" lon="8.94101">
        <ele>870</ele>
        <time>2021-08-02T11:30:12.285Z</time>
      </trkpt>
      <trkpt lat="47.02163" lon="8.941">
        <ele>869</ele>
        <time>2021-08-02T11:30:13.285Z</time>
      </trkpt>
      <trkpt lat="47.02163" lon="8.94099">
        <ele>868</ele>
        <time>2021-08-02T11:30:14.285Z</time>
      </trkpt>
      <trkpt lat="47.02162" lon="8.94098">
        <ele>867</ele>
        <time>2021-08-02T11:30:15.285Z</time>
      </trkpt>
      <trkpt lat="47.02162" lon="8.94097">
        <ele>867</ele>
        <time>2021-08-02T11:30:16.285Z</time>
      </trkpt>
      <trkpt lat="47.02162" lon="8.94095">
        <ele>866</ele>
        <time>2021-08-02T11:30:17.285Z</time>
      </trkpt>
      <trkpt lat="47.02162" lon="8.94093">
        <ele>865</ele>
        <time>2021-08-02T11:30:18.285Z</time>
      </trkpt>
      <trkpt lat="47.02162" lon="8.94091">
        <ele>865</ele>
        <time>2021-08-02T11:30:19.285Z</time>
      </trkpt>
      <trkpt lat="47.02163" lon="8.9409">
        <ele>864</ele>
        <time>2021-08-02T11:30:20.285Z</time>
      </trkpt>
      <trkpt lat="47.02163" lon="8.94088">
        <ele>864</ele>
        <time>2021-08-02T11:30:21.285Z</time>
      </trkpt>
      <trkpt lat="47.02164" lon="8.94086">
        <ele>864</ele>
        <time>2021-08-02T11:30:22.285Z</time>
      </trkpt>
      <trkpt lat="47.02165" lon="8.94085">
        <ele>864</ele>
        <time>2021-08-02T11:30:23.285Z</time>
      </trkpt>
      <trkpt lat="47.02165" lon="8.94084">
        <ele>864</ele>
        <time>2021-08-02T11:30:24.285Z</time>
      </trkpt>
      <trkpt lat="47.02165" lon="8.94082">
        <ele>864</ele>
        <time>2021-08-02T11:30:25.285Z</time>
      </trkpt>
      <trkpt lat="47.02164" lon="8.9408">
        <ele>864</ele>
        <time>2021-08-02T11:30:26.285Z</time>
      </trkpt>
      <trkpt lat="47.02164" lon="8.94079">
        <ele>863</ele>
        <time>2021-08-02T11:30:27.285Z</time>
      </trkpt>
      <trkpt lat="47.02165" lon="8.94077">
        <ele>863</ele>
        <time>2021-08-02T11:30:28.285Z</time>
      </trkpt>
      <trkpt lat="47.02165" lon="8.94075">
        <ele>864</ele>
        <time>2021-08-02T11:30:29.285Z</time>
      </trkpt>
      <trkpt lat="47.02166" lon="8.94072">
        <ele>864</ele>
        <time>2021-08-02T11:30:30.285Z</time>
      </trkpt>
      <trkpt lat="47.02166" lon="8.9407">
        <ele>864</ele>
        <time>2021-08-02T11:30:31.285Z</time>
      </trkpt>
      <trkpt lat="47.02165" lon="8.94069">
        <ele>864</ele>
        <time>2021-08-02T11:30:32.285Z</time>
      </trkpt>
      <trkpt lat="47.02164" lon="8.94067">
        <ele>865</ele>
        <time>2021-08-02T11:30:33.285Z</time>
      </trkpt>
      <trkpt lat="47.02165" lon="8.94065">
        <ele>865</ele>
        <time>2021-08-02T11:30:34.285Z</time>
      </trkpt>
      <trkpt lat="47.02166" lon="8.94064">
        <ele>866</ele>
        <time>2021-08-02T11:30:35.285Z</time>
      </trkpt>
      <trkpt lat="47.02168" lon="8.94061">
        <ele>866</ele>
        <time>2021-08-02T11:30:36.285Z</time>
      </trkpt>
      <trkpt lat="47.02169" lon="8.94058">
        <ele>866</ele>
        <time>2021-08-02T11:30:37.285Z</time>
      </trkpt>
      <trkpt lat="47.0217" lon="8.94056">
        <ele>866</ele>
        <time>2021-08-02T11:30:38.285Z</time>
      </trkpt>
      <trkpt lat="47.0217" lon="8.94055">
        <ele>866</ele>
        <time>2021-08-02T11:30:39.285Z</time>
      </trkpt>
      <trkpt lat="47.02169" lon="8.94053">
        <ele>866</ele>
        <time>2021-08-02T11:30:40.285Z</time>
      </trkpt>
      <trkpt lat="47.0217" lon="8.94052">
        <ele>866</ele>
        <time>2021-08-02T11:30:41.285Z</time>
      </trkpt>
      <trkpt lat="47.0217" lon="8.94051">
        <ele>866</ele>
        <time>2021-08-02T11:30:42.285Z</time>
      </trkpt>
      <trkpt lat="47.0217" lon="8.9405">
        <ele>865</ele>
        <time>2021-08-02T11:30:43.285Z</time>
      </trkpt>
      <trkpt lat="47.0217" lon="8.94048">
        <ele>864</ele>
        <time>2021-08-02T11:30:44.285Z</time>
      </trkpt>
      <trkpt lat="47.0217" lon="8.94047">
        <ele>864</ele>
        <time>2021-08-02T11:30:45.285Z</time>
      </trkpt>
      <trkpt lat="47.02171" lon="8.94045">
        <ele>863</ele>
        <time>2021-08-02T11:30:46.285Z</time>
      </trkpt>
      <trkpt lat="47.02171" lon="8.94044">
        <ele>863</ele>
        <time>2021-08-02T11:30:47.285Z</time>
      </trkpt>
      <trkpt lat="47.02172" lon="8.94043">
        <ele>863</ele>
        <time>2021-08-02T11:30:48.285Z</time>
      </trkpt>
      <trkpt lat="47.02172" lon="8.94042">
        <ele>862</ele>
        <time>2021-08-02T11:30:49.285Z</time>
      </trkpt>
      <trkpt lat="47.02173" lon="8.94041">
        <ele>862</ele>
        <time>2021-08-02T11:30:50.285Z</time>
      </trkpt>
      <trkpt lat="47.02173" lon="8.9404">
        <ele>862</ele>
        <time>2021-08-02T11:30:51.285Z</time>
      </trkpt>
      <trkpt lat="47.02174" lon="8.94039">
        <ele>861</ele>
        <time>2021-08-02T11:30:52.285Z</time>
      </trkpt>
      <trkpt lat="47.02174" lon="8.94038">
        <ele>861</ele>
        <time>2021-08-02T11:30:53.285Z</time>
      </trkpt>
      <trkpt lat="47.02174" lon="8.94037">
        <ele>860</ele>
        <time>2021-08-02T11:30:54.285Z</time>
      </trkpt>
      <trkpt lat="47.02174" lon="8.94035">
        <ele>860</ele>
        <time>2021-08-02T11:30:55.285Z</time>
      </trkpt>
      <trkpt lat="47.02175" lon="8.94035">
        <ele>859</ele>
        <time>2021-08-02T11:30:56.285Z</time>
      </trkpt>
      <trkpt lat="47.02175" lon="8.94034">
        <ele>858</ele>
        <time>2021-08-02T11:30:57.285Z</time>
      </trkpt>
      <trkpt lat="47.02174" lon="8.94033">
        <ele>858</ele>
        <time>2021-08-02T11:30:58.285Z</time>
      </trkpt>
      <trkpt lat="47.02174" lon="8.94032">
        <ele>857</ele>
        <time>2021-08-02T11:30:59.285Z</time>
      </trkpt>
      <trkpt lat="47.02175" lon="8.94031">
        <ele>858</ele>
        <time>2021-08-02T11:31:00.285Z</time>
      </trkpt>
      <trkpt lat="47.02175" lon="8.9403">
        <ele>858</ele>
        <time>2021-08-02T11:31:01.285Z</time>
      </trkpt>
      <trkpt lat="47.02175" lon="8.94028">
        <ele>858</ele>
        <time>2021-08-02T11:31:02.285Z</time>
      </trkpt>
      <trkpt lat="47.02175" lon="8.94027">
        <ele>858</ele>
        <time>2021-08-02T11:31:03.285Z</time>
      </trkpt>
      <trkpt lat="47.02175" lon="8.94025">
        <ele>858</ele>
        <time>2021-08-02T11:31:04.285Z</time>
      </trkpt>
      <trkpt lat="47.02174" lon="8.94023">
        <ele>859</ele>
        <time>2021-08-02T11:31:05.285Z</time>
      </trkpt>
      <trkpt lat="47.02174" lon="8.94021">
        <ele>859</ele>
        <time>2021-08-02T11:31:06.285Z</time>
      </trkpt>
      <trkpt lat="47.02174" lon="8.94018">
        <ele>859</ele>
        <time>2021-08-02T11:31:07.285Z</time>
      </trkpt>
      <trkpt lat="47.02174" lon="8.94015">
        <ele>859</ele>
        <time>2021-08-02T11:31:08.285Z</time>
      </trkpt>
      <trkpt lat="47.02174" lon="8.94013">
        <ele>859</ele>
        <time>2021-08-02T11:31:09.285Z</time>
      </trkpt>
      <trkpt lat="47.02175" lon="8.9401">
        <ele>860</ele>
        <time>2021-08-02T11:31:10.285Z</time>
      </trkpt>
      <trkpt lat="47.02175" lon="8.94008">
        <ele>860</ele>
        <time>2021-08-02T11:31:11.285Z</time>
      </trkpt>
      <trkpt lat="47.02174" lon="8.94006">
        <ele>860</ele>
        <time>2021-08-02T11:31:12.285Z</time>
      </trkpt>
      <trkpt lat="47.02174" lon="8.94004">
        <ele>860</ele>
        <time>2021-08-02T11:31:13.285Z</time>
      </trkpt>
      <trkpt lat="47.02174" lon="8.94001">
        <ele>861</ele>
        <time>2021-08-02T11:31:14.285Z</time>
      </trkpt>
      <trkpt lat="47.02174" lon="8.93998">
        <ele>861</ele>
        <time>2021-08-02T11:31:15.285Z</time>
      </trkpt>
      <trkpt lat="47.02174" lon="8.93997">
        <ele>861</ele>
        <time>2021-08-02T11:31:16.285Z</time>
      </trkpt>
      <trkpt lat="47.02174" lon="8.93994">
        <ele>861</ele>
        <time>2021-08-02T11:31:17.285Z</time>
      </trkpt>
      <trkpt lat="47.02173" lon="8.93992">
        <ele>861</ele>
        <time>2021-08-02T11:31:18.285Z</time>
      </trkpt>
      <trkpt lat="47.02172" lon="8.93989">
        <ele>862</ele>
        <time>2021-08-02T11:31:19.285Z</time>
      </trkpt>
      <trkpt lat="47.0217" lon="8.93987">
        <ele>862</ele>
        <time>2021-08-02T11:31:20.285Z</time>
      </trkpt>
      <trkpt lat="47.02169" lon="8.93985">
        <ele>862</ele>
        <time>2021-08-02T11:31:21.285Z</time>
      </trkpt>
      <trkpt lat="47.02168" lon="8.93984">
        <ele>862</ele>
        <time>2021-08-02T11:31:22.285Z</time>
      </trkpt>
      <trkpt lat="47.02167" lon="8.93983">
        <ele>862</ele>
        <time>2021-08-02T11:31:23.285Z</time>
      </trkpt>
      <trkpt lat="47.02166" lon="8.93981">
        <ele>861</ele>
        <time>2021-08-02T11:31:24.285Z</time>
      </trkpt>
      <trkpt lat="47.02165" lon="8.9398">
        <ele>861</ele>
        <time>2021-08-02T11:31:25.285Z</time>
      </trkpt>
      <trkpt lat="47.02165" lon="8.93979">
        <ele>861</ele>
        <time>2021-08-02T11:31:26.285Z</time>
      </trkpt>
      <trkpt lat="47.02164" lon="8.93978">
        <ele>861</ele>
        <time>2021-08-02T11:31:27.285Z</time>
      </trkpt>
      <trkpt lat="47.02163" lon="8.93977">
        <ele>860</ele>
        <time>2021-08-02T11:31:28.285Z</time>
      </trkpt>
      <trkpt lat="47.02162" lon="8.93975">
        <ele>860</ele>
        <time>2021-08-02T11:31:29.285Z</time>
      </trkpt>
      <trkpt lat="47.02162" lon="8.93974">
        <ele>859</ele>
        <time>2021-08-02T11:31:30.285Z</time>
      </trkpt>
      <trkpt lat="47.02162" lon="8.93972">
        <ele>859</ele>
        <time>2021-08-02T11:31:31.285Z</time>
      </trkpt>
      <trkpt lat="47.02163" lon="8.9397">
        <ele>858</ele>
        <time>2021-08-02T11:31:32.285Z</time>
      </trkpt>
      <trkpt lat="47.02165" lon="8.93969">
        <ele>858</ele>
        <time>2021-08-02T11:31:33.285Z</time>
      </trkpt>
      <trkpt lat="47.02167" lon="8.93968">
        <ele>858</ele>
        <time>2021-08-02T11:31:34.285Z</time>
      </trkpt>
      <trkpt lat="47.02168" lon="8.93966">
        <ele>857</ele>
        <time>2021-08-02T11:31:35.285Z</time>
      </trkpt>
      <trkpt lat="47.02169" lon="8.93966">
        <ele>857</ele>
        <time>2021-08-02T11:31:36.285Z</time>
      </trkpt>
      <trkpt lat="47.02171" lon="8.93965">
        <ele>857</ele>
        <time>2021-08-02T11:31:37.285Z</time>
      </trkpt>
      <trkpt lat="47.02172" lon="8.93965">
        <ele>857</ele>
        <time>2021-08-02T11:31:38.285Z</time>
      </trkpt>
      <trkpt lat="47.02172" lon="8.93965">
        <ele>857</ele>
        <time>2021-08-02T11:31:39.285Z</time>
      </trkpt>
      <trkpt lat="47.02173" lon="8.93965">
        <ele>857</ele>
        <time>2021-08-02T11:31:40.285Z</time>
      </trkpt>
      <trkpt lat="47.02174" lon="8.93964">
        <ele>857</ele>
        <time>2021-08-02T11:31:41.285Z</time>
      </trkpt>
      <trkpt lat="47.02175" lon="8.93963">
        <ele>856</ele>
        <time>2021-08-02T11:31:42.285Z</time>
      </trkpt>
      <trkpt lat="47.02176" lon="8.93962">
        <ele>856</ele>
        <time>2021-08-02T11:31:43.285Z</time>
      </trkpt>
      <trkpt lat="47.02177" lon="8.93961">
        <ele>856</ele>
        <time>2021-08-02T11:31:44.285Z</time>
      </trkpt>
      <trkpt lat="47.02178" lon="8.9396">
        <ele>856</ele>
        <time>2021-08-02T11:31:45.285Z</time>
      </trkpt>
      <trkpt lat="47.02179" lon="8.93959">
        <ele>856</ele>
        <time>2021-08-02T11:31:46.285Z</time>
      </trkpt>
      <trkpt lat="47.0218" lon="8.93958">
        <ele>855</ele>
        <time>2021-08-02T11:31:47.285Z</time>
      </trkpt>
      <trkpt lat="47.02181" lon="8.93957">
        <ele>855</ele>
        <time>2021-08-02T11:31:48.285Z</time>
      </trkpt>
      <trkpt lat="47.02182" lon="8.93957">
        <ele>855</ele>
        <time>2021-08-02T11:31:49.285Z</time>
      </trkpt>
      <trkpt lat="47.02183" lon="8.93956">
        <ele>855</ele>
        <time>2021-08-02T11:31:50.285Z</time>
      </trkpt>
      <trkpt lat="47.02185" lon="8.93955">
        <ele>854</ele>
        <time>2021-08-02T11:31:51.285Z</time>
      </trkpt>
      <trkpt lat="47.02186" lon="8.93953">
        <ele>854</ele>
        <time>2021-08-02T11:31:52.285Z</time>
      </trkpt>
      <trkpt lat="47.02188" lon="8.93952">
        <ele>854</ele>
        <time>2021-08-02T11:31:53.285Z</time>
      </trkpt>
      <trkpt lat="47.02188" lon="8.93951">
        <ele>854</ele>
        <time>2021-08-02T11:31:54.285Z</time>
      </trkpt>
      <trkpt lat="47.02189" lon="8.93949">
        <ele>854</ele>
        <time>2021-08-02T11:31:55.285Z</time>
      </trkpt>
      <trkpt lat="47.02191" lon="8.93948">
        <ele>853</ele>
        <time>2021-08-02T11:31:56.285Z</time>
      </trkpt>
      <trkpt lat="47.02193" lon="8.93946">
        <ele>853</ele>
        <time>2021-08-02T11:31:57.285Z</time>
      </trkpt>
      <trkpt lat="47.02194" lon="8.93944">
        <ele>853</ele>
        <time>2021-08-02T11:31:58.285Z</time>
      </trkpt>
      <trkpt lat="47.02196" lon="8.93944">
        <ele>853</ele>
        <time>2021-08-02T11:31:59.285Z</time>
      </trkpt>
      <trkpt lat="47.02198" lon="8.93942">
        <ele>853</ele>
        <time>2021-08-02T11:32:00.285Z</time>
      </trkpt>
      <trkpt lat="47.02199" lon="8.93942">
        <ele>852</ele>
        <time>2021-08-02T11:32:01.285Z</time>
      </trkpt>
      <trkpt lat="47.022" lon="8.93942">
        <ele>852</ele>
        <time>2021-08-02T11:32:02.285Z</time>
      </trkpt>
      <trkpt lat="47.02201" lon="8.93942">
        <ele>852</ele>
        <time>2021-08-02T11:32:03.285Z</time>
      </trkpt>
      <trkpt lat="47.02201" lon="8.93942">
        <ele>852</ele>
        <time>2021-08-02T11:32:04.285Z</time>
      </trkpt>
      <trkpt lat="47.02202" lon="8.93942">
        <ele>852</ele>
        <time>2021-08-02T11:32:05.285Z</time>
      </trkpt>
      <trkpt lat="47.02203" lon="8.93941">
        <ele>852</ele>
        <time>2021-08-02T11:32:06.285Z</time>
      </trkpt>
      <trkpt lat="47.02203" lon="8.9394">
        <ele>852</ele>
        <time>2021-08-02T11:32:07.285Z</time>
      </trkpt>
      <trkpt lat="47.02204" lon="8.9394">
        <ele>852</ele>
        <time>2021-08-02T11:32:08.285Z</time>
      </trkpt>
      <trkpt lat="47.02205" lon="8.93939">
        <ele>852</ele>
        <time>2021-08-02T11:32:09.285Z</time>
      </trkpt>
      <trkpt lat="47.02207" lon="8.93938">
        <ele>852</ele>
        <time>2021-08-02T11:32:10.285Z</time>
      </trkpt>
      <trkpt lat="47.02208" lon="8.93937">
        <ele>853</ele>
        <time>2021-08-02T11:32:11.285Z</time>
      </trkpt>
      <trkpt lat="47.02209" lon="8.93936">
        <ele>852</ele>
        <time>2021-08-02T11:32:12.285Z</time>
      </trkpt>
      <trkpt lat="47.0221" lon="8.93936">
        <ele>852</ele>
        <time>2021-08-02T11:32:13.285Z</time>
      </trkpt>
      <trkpt lat="47.02211" lon="8.93935">
        <ele>852</ele>
        <time>2021-08-02T11:32:14.285Z</time>
      </trkpt>
      <trkpt lat="47.02212" lon="8.93935">
        <ele>852</ele>
        <time>2021-08-02T11:32:15.285Z</time>
      </trkpt>
      <trkpt lat="47.02214" lon="8.93934">
        <ele>852</ele>
        <time>2021-08-02T11:32:16.285Z</time>
      </trkpt>
      <trkpt lat="47.02216" lon="8.93933">
        <ele>852</ele>
        <time>2021-08-02T11:32:17.285Z</time>
      </trkpt>
      <trkpt lat="47.02216" lon="8.93932">
        <ele>853</ele>
        <time>2021-08-02T11:32:18.285Z</time>
      </trkpt>
      <trkpt lat="47.02218" lon="8.93931">
        <ele>853</ele>
        <time>2021-08-02T11:32:19.285Z</time>
      </trkpt>
      <trkpt lat="47.02218" lon="8.9393">
        <ele>853</ele>
        <time>2021-08-02T11:32:20.285Z</time>
      </trkpt>
      <trkpt lat="47.02219" lon="8.93929">
        <ele>853</ele>
        <time>2021-08-02T11:32:21.285Z</time>
      </trkpt>
      <trkpt lat="47.02221" lon="8.93928">
        <ele>852</ele>
        <time>2021-08-02T11:32:22.285Z</time>
      </trkpt>
      <trkpt lat="47.02222" lon="8.93927">
        <ele>852</ele>
        <time>2021-08-02T11:32:23.285Z</time>
      </trkpt>
      <trkpt lat="47.02223" lon="8.93926">
        <ele>852</ele>
        <time>2021-08-02T11:32:24.285Z</time>
      </trkpt>
      <trkpt lat="47.02225" lon="8.93925">
        <ele>852</ele>
        <time>2021-08-02T11:32:25.285Z</time>
      </trkpt>
      <trkpt lat="47.02227" lon="8.93924">
        <ele>852</ele>
        <time>2021-08-02T11:32:26.285Z</time>
      </trkpt>
      <trkpt lat="47.02228" lon="8.93923">
        <ele>852</ele>
        <time>2021-08-02T11:32:27.285Z</time>
      </trkpt>
      <trkpt lat="47.0223" lon="8.93923">
        <ele>852</ele>
        <time>2021-08-02T11:32:28.285Z</time>
      </trkpt>
      <trkpt lat="47.02231" lon="8.93922">
        <ele>852</ele>
        <time>2021-08-02T11:32:29.285Z</time>
      </trkpt>
      <trkpt lat="47.02233" lon="8.93921">
        <ele>852</ele>
        <time>2021-08-02T11:32:30.285Z</time>
      </trkpt>
      <trkpt lat="47.02234" lon="8.93921">
        <ele>852</ele>
        <time>2021-08-02T11:32:31.285Z</time>
      </trkpt>
      <trkpt lat="47.02235" lon="8.9392">
        <ele>852</ele>
        <time>2021-08-02T11:32:32.285Z</time>
      </trkpt>
      <trkpt lat="47.02236" lon="8.9392">
        <ele>852</ele>
        <time>2021-08-02T11:32:33.285Z</time>
      </trkpt>
      <trkpt lat="47.02237" lon="8.9392">
        <ele>852</ele>
        <time>2021-08-02T11:32:34.285Z</time>
      </trkpt>
      <trkpt lat="47.02239" lon="8.93919">
        <ele>853</ele>
        <time>2021-08-02T11:32:35.285Z</time>
      </trkpt>
      <trkpt lat="47.02241" lon="8.93918">
        <ele>853</ele>
        <time>2021-08-02T11:32:36.285Z</time>
      </trkpt>
      <trkpt lat="47.02242" lon="8.93917">
        <ele>854</ele>
        <time>2021-08-02T11:32:37.285Z</time>
      </trkpt>
      <trkpt lat="47.02243" lon="8.93916">
        <ele>854</ele>
        <time>2021-08-02T11:32:38.285Z</time>
      </trkpt>
      <trkpt lat="47.02245" lon="8.93915">
        <ele>854</ele>
        <time>2021-08-02T11:32:39.285Z</time>
      </trkpt>
      <trkpt lat="47.02245" lon="8.93914">
        <ele>855</ele>
        <time>2021-08-02T11:32:40.285Z</time>
      </trkpt>
      <trkpt lat="47.02246" lon="8.93914">
        <ele>855</ele>
        <time>2021-08-02T11:32:41.285Z</time>
      </trkpt>
      <trkpt lat="47.02248" lon="8.93913">
        <ele>856</ele>
        <time>2021-08-02T11:32:42.285Z</time>
      </trkpt>
      <trkpt lat="47.02249" lon="8.93912">
        <ele>856</ele>
        <time>2021-08-02T11:32:43.285Z</time>
      </trkpt>
      <trkpt lat="47.0225" lon="8.93911">
        <ele>857</ele>
        <time>2021-08-02T11:32:44.285Z</time>
      </trkpt>
      <trkpt lat="47.02251" lon="8.9391">
        <ele>857</ele>
        <time>2021-08-02T11:32:45.285Z</time>
      </trkpt>
      <trkpt lat="47.02252" lon="8.93909">
        <ele>857</ele>
        <time>2021-08-02T11:32:46.285Z</time>
      </trkpt>
      <trkpt lat="47.02254" lon="8.93909">
        <ele>857</ele>
        <time>2021-08-02T11:32:47.285Z</time>
      </trkpt>
      <trkpt lat="47.02255" lon="8.93908">
        <ele>856</ele>
        <time>2021-08-02T11:32:48.285Z</time>
      </trkpt>
      <trkpt lat="47.02256" lon="8.93907">
        <ele>856</ele>
        <time>2021-08-02T11:32:49.285Z</time>
      </trkpt>
      <trkpt lat="47.02257" lon="8.93906">
        <ele>856</ele>
        <time>2021-08-02T11:32:50.285Z</time>
      </trkpt>
      <trkpt lat="47.02259" lon="8.93905">
        <ele>856</ele>
        <time>2021-08-02T11:32:51.285Z</time>
      </trkpt>
      <trkpt lat="47.02261" lon="8.93904">
        <ele>856</ele>
        <time>2021-08-02T11:32:52.285Z</time>
      </trkpt>
      <trkpt lat="47.02262" lon="8.93904">
        <ele>856</ele>
        <time>2021-08-02T11:32:53.285Z</time>
      </trkpt>
      <trkpt lat="47.02263" lon="8.93902">
        <ele>856</ele>
        <time>2021-08-02T11:32:54.285Z</time>
      </trkpt>
      <trkpt lat="47.02264" lon="8.93901">
        <ele>856</ele>
        <time>2021-08-02T11:32:55.285Z</time>
      </trkpt>
      <trkpt lat="47.02265" lon="8.93901">
        <ele>856</ele>
        <time>2021-08-02T11:32:56.285Z</time>
      </trkpt>
      <trkpt lat="47.02266" lon="8.939">
        <ele>855</ele>
        <time>2021-08-02T11:32:57.285Z</time>
      </trkpt>
      <trkpt lat="47.02267" lon="8.93898">
        <ele>855</ele>
        <time>2021-08-02T11:32:58.285Z</time>
      </trkpt>
      <trkpt lat="47.02268" lon="8.93897">
        <ele>855</ele>
        <time>2021-08-02T11:32:59.285Z</time>
      </trkpt>
      <trkpt lat="47.02269" lon="8.93896">
        <ele>854</ele>
        <time>2021-08-02T11:33:00.285Z</time>
      </trkpt>
      <trkpt lat="47.0227" lon="8.93894">
        <ele>854</ele>
        <time>2021-08-02T11:33:01.285Z</time>
      </trkpt>
      <trkpt lat="47.02271" lon="8.93893">
        <ele>854</ele>
        <time>2021-08-02T11:33:02.285Z</time>
      </trkpt>
      <trkpt lat="47.02273" lon="8.93893">
        <ele>854</ele>
        <time>2021-08-02T11:33:03.285Z</time>
      </trkpt>
      <trkpt lat="47.02274" lon="8.93891">
        <ele>853</ele>
        <time>2021-08-02T11:33:04.285Z</time>
      </trkpt>
      <trkpt lat="47.02275" lon="8.93891">
        <ele>853</ele>
        <time>2021-08-02T11:33:05.285Z</time>
      </trkpt>
      <trkpt lat="47.02276" lon="8.9389">
        <ele>853</ele>
        <time>2021-08-02T11:33:06.285Z</time>
      </trkpt>
      <trkpt lat="47.02277" lon="8.93888">
        <ele>852</ele>
        <time>2021-08-02T11:33:07.285Z</time>
      </trkpt>
      <trkpt lat="47.02278" lon="8.93887">
        <ele>851</ele>
        <time>2021-08-02T11:33:08.285Z</time>
      </trkpt>
      <trkpt lat="47.02279" lon="8.93886">
        <ele>851</ele>
        <time>2021-08-02T11:33:09.285Z</time>
      </trkpt>
      <trkpt lat="47.0228" lon="8.93884">
        <ele>850</ele>
        <time>2021-08-02T11:33:10.285Z</time>
      </trkpt>
      <trkpt lat="47.0228" lon="8.93883">
        <ele>850</ele>
        <time>2021-08-02T11:33:11.285Z</time>
      </trkpt>
      <trkpt lat="47.0228" lon="8.93882">
        <ele>850</ele>
        <time>2021-08-02T11:33:12.285Z</time>
      </trkpt>
      <trkpt lat="47.02281" lon="8.93881">
        <ele>850</ele>
        <time>2021-08-02T11:33:14.276Z</time>
      </trkpt>
      <trkpt lat="47.02282" lon="8.9388">
        <ele>850</ele>
        <time>2021-08-02T11:33:15.276Z</time>
      </trkpt>
      <trkpt lat="47.02282" lon="8.93879">
        <ele>850</ele>
        <time>2021-08-02T11:33:16.276Z</time>
      </trkpt>
      <trkpt lat="47.02283" lon="8.93877">
        <ele>849</ele>
        <time>2021-08-02T11:33:17.276Z</time>
      </trkpt>
      <trkpt lat="47.02284" lon="8.93876">
        <ele>849</ele>
        <time>2021-08-02T11:33:18.276Z</time>
      </trkpt>
      <trkpt lat="47.02285" lon="8.93874">
        <ele>849</ele>
        <time>2021-08-02T11:33:19.276Z</time>
      </trkpt>
      <trkpt lat="47.02286" lon="8.93873">
        <ele>848</ele>
        <time>2021-08-02T11:33:20.276Z</time>
      </trkpt>
      <trkpt lat="47.02287" lon="8.93872">
        <ele>848</ele>
        <time>2021-08-02T11:33:21.276Z</time>
      </trkpt>
      <trkpt lat="47.02288" lon="8.93871">
        <ele>848</ele>
        <time>2021-08-02T11:33:22.276Z</time>
      </trkpt>
      <trkpt lat="47.0229" lon="8.9387">
        <ele>848</ele>
        <time>2021-08-02T11:33:23.276Z</time>
      </trkpt>
      <trkpt lat="47.02291" lon="8.93869">
        <ele>848</ele>
        <time>2021-08-02T11:33:24.276Z</time>
      </trkpt>
      <trkpt lat="47.02291" lon="8.93868">
        <ele>848</ele>
        <time>2021-08-02T11:33:25.276Z</time>
      </trkpt>
      <trkpt lat="47.02292" lon="8.93866">
        <ele>848</ele>
        <time>2021-08-02T11:33:26.276Z</time>
      </trkpt>
      <trkpt lat="47.02293" lon="8.93865">
        <ele>847</ele>
        <time>2021-08-02T11:33:27.276Z</time>
      </trkpt>
      <trkpt lat="47.02293" lon="8.93864">
        <ele>847</ele>
        <time>2021-08-02T11:33:28.276Z</time>
      </trkpt>
      <trkpt lat="47.02294" lon="8.93864">
        <ele>847</ele>
        <time>2021-08-02T11:33:29.276Z</time>
      </trkpt>
      <trkpt lat="47.02296" lon="8.93862">
        <ele>847</ele>
        <time>2021-08-02T11:33:30.276Z</time>
      </trkpt>
      <trkpt lat="47.02297" lon="8.9386">
        <ele>847</ele>
        <time>2021-08-02T11:33:31.276Z</time>
      </trkpt>
      <trkpt lat="47.02298" lon="8.93859">
        <ele>846</ele>
        <time>2021-08-02T11:33:32.276Z</time>
      </trkpt>
      <trkpt lat="47.02299" lon="8.93858">
        <ele>846</ele>
        <time>2021-08-02T11:33:33.276Z</time>
      </trkpt>
      <trkpt lat="47.023" lon="8.93858">
        <ele>846</ele>
        <time>2021-08-02T11:33:34.276Z</time>
      </trkpt>
      <trkpt lat="47.02301" lon="8.93857">
        <ele>846</ele>
        <time>2021-08-02T11:33:35.276Z</time>
      </trkpt>
      <trkpt lat="47.02301" lon="8.93857">
        <ele>846</ele>
        <time>2021-08-02T11:33:36.276Z</time>
      </trkpt>
      <trkpt lat="47.02302" lon="8.93856">
        <ele>846</ele>
        <time>2021-08-02T11:33:37.276Z</time>
      </trkpt>
      <trkpt lat="47.02303" lon="8.93856">
        <ele>847</ele>
        <time>2021-08-02T11:33:38.276Z</time>
      </trkpt>
      <trkpt lat="47.02303" lon="8.93855">
        <ele>847</ele>
        <time>2021-08-02T11:33:39.276Z</time>
      </trkpt>
      <trkpt lat="47.02304" lon="8.93854">
        <ele>848</ele>
        <time>2021-08-02T11:33:40.276Z</time>
      </trkpt>
      <trkpt lat="47.02305" lon="8.93854">
        <ele>848</ele>
        <time>2021-08-02T11:33:41.276Z</time>
      </trkpt>
      <trkpt lat="47.02307" lon="8.93853">
        <ele>849</ele>
        <time>2021-08-02T11:33:42.276Z</time>
      </trkpt>
      <trkpt lat="47.02307" lon="8.93853">
        <ele>849</ele>
        <time>2021-08-02T11:33:43.276Z</time>
      </trkpt>
      <trkpt lat="47.02308" lon="8.93853">
        <ele>849</ele>
        <time>2021-08-02T11:33:44.276Z</time>
      </trkpt>
      <trkpt lat="47.02309" lon="8.93853">
        <ele>850</ele>
        <time>2021-08-02T11:33:45.276Z</time>
      </trkpt>
      <trkpt lat="47.0231" lon="8.93853">
        <ele>850</ele>
        <time>2021-08-02T11:33:46.276Z</time>
      </trkpt>
      <trkpt lat="47.02311" lon="8.93853">
        <ele>851</ele>
        <time>2021-08-02T11:33:47.276Z</time>
      </trkpt>
      <trkpt lat="47.02312" lon="8.93853">
        <ele>851</ele>
        <time>2021-08-02T11:33:48.276Z</time>
      </trkpt>
      <trkpt lat="47.02313" lon="8.93853">
        <ele>851</ele>
        <time>2021-08-02T11:33:49.276Z</time>
      </trkpt>
      <trkpt lat="47.02314" lon="8.93853">
        <ele>852</ele>
        <time>2021-08-02T11:33:50.276Z</time>
      </trkpt>
      <trkpt lat="47.02316" lon="8.93853">
        <ele>852</ele>
        <time>2021-08-02T11:33:51.276Z</time>
      </trkpt>
      <trkpt lat="47.02317" lon="8.93852">
        <ele>852</ele>
        <time>2021-08-02T11:33:52.276Z</time>
      </trkpt>
      <trkpt lat="47.02317" lon="8.93852">
        <ele>852</ele>
        <time>2021-08-02T11:33:53.276Z</time>
      </trkpt>
      <trkpt lat="47.02318" lon="8.93853">
        <ele>852</ele>
        <time>2021-08-02T11:33:54.276Z</time>
      </trkpt>
      <trkpt lat="47.02318" lon="8.93854">
        <ele>852</ele>
        <time>2021-08-02T11:33:55.276Z</time>
      </trkpt>
      <trkpt lat="47.02319" lon="8.93856">
        <ele>852</ele>
        <time>2021-08-02T11:34:06.395Z</time>
      </trkpt>
      <trkpt lat="47.02319" lon="8.93857">
        <ele>852</ele>
        <time>2021-08-02T11:34:07.395Z</time>
      </trkpt>
      <trkpt lat="47.02319" lon="8.93859">
        <ele>853</ele>
        <time>2021-08-02T11:34:08.395Z</time>
      </trkpt>
      <trkpt lat="47.0232" lon="8.9386">
        <ele>853</ele>
        <time>2021-08-02T11:34:12.394Z</time>
      </trkpt>
      <trkpt lat="47.02321" lon="8.93861">
        <ele>853</ele>
        <time>2021-08-02T11:34:13.394Z</time>
      </trkpt>
      <trkpt lat="47.02321" lon="8.93862">
        <ele>854</ele>
        <time>2021-08-02T11:34:14.394Z</time>
      </trkpt>
      <trkpt lat="47.02322" lon="8.93863">
        <ele>854</ele>
        <time>2021-08-02T11:34:15.394Z</time>
      </trkpt>
      <trkpt lat="47.02323" lon="8.93864">
        <ele>855</ele>
        <time>2021-08-02T11:34:17.533Z</time>
      </trkpt>
      <trkpt lat="47.02323" lon="8.93866">
        <ele>855</ele>
        <time>2021-08-02T11:34:18.533Z</time>
      </trkpt>
      <trkpt lat="47.02324" lon="8.93867">
        <ele>856</ele>
        <time>2021-08-02T11:34:19.533Z</time>
      </trkpt>
      <trkpt lat="47.02324" lon="8.93869">
        <ele>856</ele>
        <time>2021-08-02T11:34:20.533Z</time>
      </trkpt>
      <trkpt lat="47.02325" lon="8.93871">
        <ele>857</ele>
        <time>2021-08-02T11:34:21.533Z</time>
      </trkpt>
      <trkpt lat="47.02326" lon="8.93873">
        <ele>857</ele>
        <time>2021-08-02T11:34:22.533Z</time>
      </trkpt>
      <trkpt lat="47.02326" lon="8.93875">
        <ele>858</ele>
        <time>2021-08-02T11:34:23.533Z</time>
      </trkpt>
      <trkpt lat="47.02326" lon="8.93877">
        <ele>858</ele>
        <time>2021-08-02T11:34:37.642Z</time>
      </trkpt>
      <trkpt lat="47.02327" lon="8.93879">
        <ele>858</ele>
        <time>2021-08-02T11:34:38.642Z</time>
      </trkpt>
      <trkpt lat="47.02327" lon="8.93881">
        <ele>858</ele>
        <time>2021-08-02T11:34:39.642Z</time>
      </trkpt>
      <trkpt lat="47.02327" lon="8.93884">
        <ele>858</ele>
        <time>2021-08-02T11:34:40.642Z</time>
      </trkpt>
      <trkpt lat="47.02328" lon="8.93886">
        <ele>858</ele>
        <time>2021-08-02T11:34:41.642Z</time>
      </trkpt>
      <trkpt lat="47.02328" lon="8.93887">
        <ele>858</ele>
        <time>2021-08-02T11:34:42.642Z</time>
      </trkpt>
      <trkpt lat="47.02329" lon="8.93889">
        <ele>858</ele>
        <time>2021-08-02T11:34:43.642Z</time>
      </trkpt>
      <trkpt lat="47.02329" lon="8.93891">
        <ele>858</ele>
        <time>2021-08-02T11:34:44.642Z</time>
      </trkpt>
      <trkpt lat="47.02328" lon="8.93892">
        <ele>858</ele>
        <time>2021-08-02T11:34:45.642Z</time>
      </trkpt>
      <trkpt lat="47.02329" lon="8.93892">
        <ele>858</ele>
        <time>2021-08-02T11:34:46.642Z</time>
      </trkpt>
      <trkpt lat="47.02329" lon="8.93894">
        <ele>858</ele>
        <time>2021-08-02T11:34:47.642Z</time>
      </trkpt>
      <trkpt lat="47.0233" lon="8.93896">
        <ele>858</ele>
        <time>2021-08-02T11:34:48.642Z</time>
      </trkpt>
      <trkpt lat="47.0233" lon="8.93898">
        <ele>858</ele>
        <time>2021-08-02T11:34:59.647Z</time>
      </trkpt>
      <trkpt lat="47.0233" lon="8.93899">
        <ele>858</ele>
        <time>2021-08-02T11:35:00.647Z</time>
      </trkpt>
      <trkpt lat="47.02331" lon="8.93901">
        <ele>858</ele>
        <time>2021-08-02T11:35:06.375Z</time>
      </trkpt>
      <trkpt lat="47.02331" lon="8.93902">
        <ele>858</ele>
        <time>2021-08-02T11:35:07.375Z</time>
      </trkpt>
      <trkpt lat="47.02332" lon="8.93904">
        <ele>858</ele>
        <time>2021-08-02T11:35:08.375Z</time>
      </trkpt>
      <trkpt lat="47.02332" lon="8.93906">
        <ele>858</ele>
        <time>2021-08-02T11:35:09.375Z</time>
      </trkpt>
      <trkpt lat="47.02332" lon="8.93908">
        <ele>858</ele>
        <time>2021-08-02T11:35:10.375Z</time>
      </trkpt>
      <trkpt lat="47.02332" lon="8.93908">
        <ele>858</ele>
        <time>2021-08-02T11:35:11.375Z</time>
      </trkpt>
      <trkpt lat="47.02332" lon="8.9391">
        <ele>858</ele>
        <time>2021-08-02T11:35:12.375Z</time>
      </trkpt>
      <trkpt lat="47.02333" lon="8.93912">
        <ele>857</ele>
        <time>2021-08-02T11:35:13.375Z</time>
      </trkpt>
      <trkpt lat="47.02334" lon="8.93914">
        <ele>857</ele>
        <time>2021-08-02T11:35:14.375Z</time>
      </trkpt>
      <trkpt lat="47.02335" lon="8.93917">
        <ele>857</ele>
        <time>2021-08-02T11:35:15.375Z</time>
      </trkpt>
      <trkpt lat="47.02335" lon="8.93918">
        <ele>858</ele>
        <time>2021-08-02T11:35:21.379Z</time>
      </trkpt>
      <trkpt lat="47.02335" lon="8.9392">
        <ele>858</ele>
        <time>2021-08-02T11:35:22.379Z</time>
      </trkpt>
      <trkpt lat="47.02336" lon="8.93921">
        <ele>858</ele>
        <time>2021-08-02T11:35:23.379Z</time>
      </trkpt>
      <trkpt lat="47.02336" lon="8.93922">
        <ele>858</ele>
        <time>2021-08-02T11:35:24.379Z</time>
      </trkpt>
      <trkpt lat="47.02336" lon="8.93924">
        <ele>858</ele>
        <time>2021-08-02T11:35:25.379Z</time>
      </trkpt>
      <trkpt lat="47.02337" lon="8.93925">
        <ele>858</ele>
        <time>2021-08-02T11:35:26.379Z</time>
      </trkpt>
      <trkpt lat="47.02338" lon="8.93926">
        <ele>858</ele>
        <time>2021-08-02T11:35:27.379Z</time>
      </trkpt>
      <trkpt lat="47.02339" lon="8.93929">
        <ele>858</ele>
        <time>2021-08-02T11:35:28.379Z</time>
      </trkpt>
      <trkpt lat="47.02339" lon="8.93931">
        <ele>858</ele>
        <time>2021-08-02T11:35:29.379Z</time>
      </trkpt>
      <trkpt lat="47.02341" lon="8.93934">
        <ele>858</ele>
        <time>2021-08-02T11:35:30.379Z</time>
      </trkpt>
      <trkpt lat="47.02342" lon="8.93936">
        <ele>858</ele>
        <time>2021-08-02T11:35:31.379Z</time>
      </trkpt>
      <trkpt lat="47.02344" lon="8.93937">
        <ele>858</ele>
        <time>2021-08-02T11:35:32.379Z</time>
      </trkpt>
      <trkpt lat="47.02345" lon="8.93938">
        <ele>858</ele>
        <time>2021-08-02T11:35:33.379Z</time>
      </trkpt>
      <trkpt lat="47.02347" lon="8.9394">
        <ele>858</ele>
        <time>2021-08-02T11:35:34.379Z</time>
      </trkpt>
      <trkpt lat="47.02347" lon="8.93941">
        <ele>858</ele>
        <time>2021-08-02T11:35:35.379Z</time>
      </trkpt>
      <trkpt lat="47.02347" lon="8.93943">
        <ele>858</ele>
        <time>2021-08-02T11:35:36.379Z</time>
      </trkpt>
      <trkpt lat="47.02348" lon="8.93945">
        <ele>857</ele>
        <time>2021-08-02T11:35:37.379Z</time>
      </trkpt>
      <trkpt lat="47.02348" lon="8.93946">
        <ele>857</ele>
        <time>2021-08-02T11:35:38.379Z</time>
      </trkpt>
      <trkpt lat="47.02349" lon="8.93947">
        <ele>856</ele>
        <time>2021-08-02T11:35:39.379Z</time>
      </trkpt>
      <trkpt lat="47.02349" lon="8.93948">
        <ele>856</ele>
        <time>2021-08-02T11:35:42.372Z</time>
      </trkpt>
      <trkpt lat="47.0235" lon="8.93949">
        <ele>855</ele>
        <time>2021-08-02T11:35:43.372Z</time>
      </trkpt>
      <trkpt lat="47.02351" lon="8.9395">
        <ele>854</ele>
        <time>2021-08-02T11:35:44.372Z</time>
      </trkpt>
      <trkpt lat="47.02351" lon="8.93951">
        <ele>853</ele>
        <time>2021-08-02T11:35:45.372Z</time>
      </trkpt>
      <trkpt lat="47.02352" lon="8.93952">
        <ele>853</ele>
        <time>2021-08-02T11:35:46.372Z</time>
      </trkpt>
      <trkpt lat="47.02352" lon="8.93953">
        <ele>852</ele>
        <time>2021-08-02T11:35:47.372Z</time>
      </trkpt>
      <trkpt lat="47.02353" lon="8.93955">
        <ele>851</ele>
        <time>2021-08-02T11:35:48.372Z</time>
      </trkpt>
      <trkpt lat="47.02353" lon="8.93956">
        <ele>850</ele>
        <time>2021-08-02T11:35:49.372Z</time>
      </trkpt>
      <trkpt lat="47.02353" lon="8.93957">
        <ele>849</ele>
        <time>2021-08-02T11:35:50.372Z</time>
      </trkpt>
      <trkpt lat="47.02354" lon="8.93958">
        <ele>848</ele>
        <time>2021-08-02T11:35:51.372Z</time>
      </trkpt>
      <trkpt lat="47.02355" lon="8.9396">
        <ele>848</ele>
        <time>2021-08-02T11:35:52.372Z</time>
      </trkpt>
      <trkpt lat="47.02356" lon="8.93961">
        <ele>847</ele>
        <time>2021-08-02T11:35:53.372Z</time>
      </trkpt>
      <trkpt lat="47.02356" lon="8.93963">
        <ele>847</ele>
        <time>2021-08-02T11:35:54.372Z</time>
      </trkpt>
      <trkpt lat="47.02357" lon="8.93964">
        <ele>847</ele>
        <time>2021-08-02T11:35:55.372Z</time>
      </trkpt>
      <trkpt lat="47.02359" lon="8.93966">
        <ele>847</ele>
        <time>2021-08-02T11:35:56.372Z</time>
      </trkpt>
      <trkpt lat="47.0236" lon="8.93968">
        <ele>847</ele>
        <time>2021-08-02T11:35:57.372Z</time>
      </trkpt>
      <trkpt lat="47.02361" lon="8.93969">
        <ele>847</ele>
        <time>2021-08-02T11:35:58.372Z</time>
      </trkpt>
      <trkpt lat="47.02362" lon="8.9397">
        <ele>847</ele>
        <time>2021-08-02T11:35:59.372Z</time>
      </trkpt>
      <trkpt lat="47.02363" lon="8.93971">
        <ele>847</ele>
        <time>2021-08-02T11:36:00.372Z</time>
      </trkpt>
      <trkpt lat="47.02364" lon="8.93971">
        <ele>847</ele>
        <time>2021-08-02T11:36:01.372Z</time>
      </trkpt>
      <trkpt lat="47.02364" lon="8.93972">
        <ele>847</ele>
        <time>2021-08-02T11:36:02.372Z</time>
      </trkpt>
      <trkpt lat="47.02365" lon="8.93974">
        <ele>847</ele>
        <time>2021-08-02T11:36:03.372Z</time>
      </trkpt>
      <trkpt lat="47.02366" lon="8.93976">
        <ele>847</ele>
        <time>2021-08-02T11:36:04.372Z</time>
      </trkpt>
      <trkpt lat="47.02367" lon="8.93977">
        <ele>848</ele>
        <time>2021-08-02T11:36:05.372Z</time>
      </trkpt>
      <trkpt lat="47.02368" lon="8.93978">
        <ele>848</ele>
        <time>2021-08-02T11:36:06.372Z</time>
      </trkpt>
      <trkpt lat="47.02369" lon="8.93979">
        <ele>848</ele>
        <time>2021-08-02T11:36:07.372Z</time>
      </trkpt>
      <trkpt lat="47.0237" lon="8.93981">
        <ele>849</ele>
        <time>2021-08-02T11:36:08.372Z</time>
      </trkpt>
      <trkpt lat="47.0237" lon="8.93982">
        <ele>849</ele>
        <time>2021-08-02T11:36:09.372Z</time>
      </trkpt>
      <trkpt lat="47.02371" lon="8.93985">
        <ele>849</ele>
        <time>2021-08-02T11:36:10.372Z</time>
      </trkpt>
      <trkpt lat="47.02371" lon="8.93988">
        <ele>850</ele>
        <time>2021-08-02T11:36:11.372Z</time>
      </trkpt>
      <trkpt lat="47.02372" lon="8.93988">
        <ele>850</ele>
        <time>2021-08-02T11:36:12.372Z</time>
      </trkpt>
      <trkpt lat="47.02373" lon="8.93989">
        <ele>850</ele>
        <time>2021-08-02T11:36:13.372Z</time>
      </trkpt>
      <trkpt lat="47.02374" lon="8.9399">
        <ele>849</ele>
        <time>2021-08-02T11:36:14.372Z</time>
      </trkpt>
      <trkpt lat="47.02375" lon="8.93991">
        <ele>849</ele>
        <time>2021-08-02T11:36:15.372Z</time>
      </trkpt>
      <trkpt lat="47.02376" lon="8.93992">
        <ele>849</ele>
        <time>2021-08-02T11:36:16.372Z</time>
      </trkpt>
      <trkpt lat="47.02377" lon="8.93993">
        <ele>848</ele>
        <time>2021-08-02T11:36:17.372Z</time>
      </trkpt>
      <trkpt lat="47.02377" lon="8.93994">
        <ele>848</ele>
        <time>2021-08-02T11:36:18.372Z</time>
      </trkpt>
      <trkpt lat="47.02378" lon="8.93995">
        <ele>848</ele>
        <time>2021-08-02T11:36:19.372Z</time>
      </trkpt>
      <trkpt lat="47.02379" lon="8.93996">
        <ele>848</ele>
        <time>2021-08-02T11:36:20.372Z</time>
      </trkpt>
      <trkpt lat="47.0238" lon="8.93997">
        <ele>849</ele>
        <time>2021-08-02T11:36:21.372Z</time>
      </trkpt>
      <trkpt lat="47.0238" lon="8.93998">
        <ele>849</ele>
        <time>2021-08-02T11:36:22.372Z</time>
      </trkpt>
      <trkpt lat="47.02381" lon="8.94">
        <ele>849</ele>
        <time>2021-08-02T11:36:23.372Z</time>
      </trkpt>
      <trkpt lat="47.02381" lon="8.94002">
        <ele>849</ele>
        <time>2021-08-02T11:36:24.372Z</time>
      </trkpt>
      <trkpt lat="47.02382" lon="8.94004">
        <ele>849</ele>
        <time>2021-08-02T11:36:25.372Z</time>
      </trkpt>
      <trkpt lat="47.02383" lon="8.94005">
        <ele>849</ele>
        <time>2021-08-02T11:36:26.372Z</time>
      </trkpt>
      <trkpt lat="47.02384" lon="8.94006">
        <ele>850</ele>
        <time>2021-08-02T11:36:27.372Z</time>
      </trkpt>
      <trkpt lat="47.02386" lon="8.94007">
        <ele>850</ele>
        <time>2021-08-02T11:36:28.372Z</time>
      </trkpt>
      <trkpt lat="47.02387" lon="8.94008">
        <ele>850</ele>
        <time>2021-08-02T11:36:29.372Z</time>
      </trkpt>
      <trkpt lat="47.02388" lon="8.94009">
        <ele>851</ele>
        <time>2021-08-02T11:36:30.372Z</time>
      </trkpt>
      <trkpt lat="47.02389" lon="8.9401">
        <ele>852</ele>
        <time>2021-08-02T11:36:31.372Z</time>
      </trkpt>
      <trkpt lat="47.02389" lon="8.94012">
        <ele>852</ele>
        <time>2021-08-02T11:36:32.372Z</time>
      </trkpt>
      <trkpt lat="47.0239" lon="8.94014">
        <ele>853</ele>
        <time>2021-08-02T11:36:33.372Z</time>
      </trkpt>
      <trkpt lat="47.0239" lon="8.94016">
        <ele>854</ele>
        <time>2021-08-02T11:36:34.372Z</time>
      </trkpt>
      <trkpt lat="47.02391" lon="8.94018">
        <ele>854</ele>
        <time>2021-08-02T11:36:35.372Z</time>
      </trkpt>
      <trkpt lat="47.02391" lon="8.9402">
        <ele>854</ele>
        <time>2021-08-02T11:36:36.372Z</time>
      </trkpt>
      <trkpt lat="47.02391" lon="8.94022">
        <ele>855</ele>
        <time>2021-08-02T11:36:37.372Z</time>
      </trkpt>
      <trkpt lat="47.0239" lon="8.94024">
        <ele>855</ele>
        <time>2021-08-02T11:36:38.372Z</time>
      </trkpt>
      <trkpt lat="47.02389" lon="8.94025">
        <ele>855</ele>
        <time>2021-08-02T11:36:39.372Z</time>
      </trkpt>
      <trkpt lat="47.0239" lon="8.94027">
        <ele>856</ele>
        <time>2021-08-02T11:36:40.372Z</time>
      </trkpt>
      <trkpt lat="47.0239" lon="8.94029">
        <ele>856</ele>
        <time>2021-08-02T11:36:41.372Z</time>
      </trkpt>
      <trkpt lat="47.0239" lon="8.94031">
        <ele>857</ele>
        <time>2021-08-02T11:36:42.372Z</time>
      </trkpt>
      <trkpt lat="47.02391" lon="8.94032">
        <ele>857</ele>
        <time>2021-08-02T11:36:43.372Z</time>
      </trkpt>
      <trkpt lat="47.02391" lon="8.94033">
        <ele>857</ele>
        <time>2021-08-02T11:36:44.372Z</time>
      </trkpt>
      <trkpt lat="47.02391" lon="8.94035">
        <ele>858</ele>
        <time>2021-08-02T11:36:45.372Z</time>
      </trkpt>
      <trkpt lat="47.02391" lon="8.94036">
        <ele>858</ele>
        <time>2021-08-02T11:36:46.372Z</time>
      </trkpt>
      <trkpt lat="47.02391" lon="8.94038">
        <ele>859</ele>
        <time>2021-08-02T11:36:47.372Z</time>
      </trkpt>
      <trkpt lat="47.02391" lon="8.9404">
        <ele>860</ele>
        <time>2021-08-02T11:36:48.372Z</time>
      </trkpt>
      <trkpt lat="47.02391" lon="8.94042">
        <ele>860</ele>
        <time>2021-08-02T11:36:49.372Z</time>
      </trkpt>
      <trkpt lat="47.02391" lon="8.94044">
        <ele>861</ele>
        <time>2021-08-02T11:36:50.372Z</time>
      </trkpt>
      <trkpt lat="47.02392" lon="8.94047">
        <ele>862</ele>
        <time>2021-08-02T11:36:51.372Z</time>
      </trkpt>
      <trkpt lat="47.02393" lon="8.9405">
        <ele>862</ele>
        <time>2021-08-02T11:36:52.372Z</time>
      </trkpt>
      <trkpt lat="47.02393" lon="8.94053">
        <ele>863</ele>
        <time>2021-08-02T11:36:53.372Z</time>
      </trkpt>
      <trkpt lat="47.02394" lon="8.94055">
        <ele>864</ele>
        <time>2021-08-02T11:36:54.372Z</time>
      </trkpt>
      <trkpt lat="47.02394" lon="8.94057">
        <ele>864</ele>
        <time>2021-08-02T11:36:55.372Z</time>
      </trkpt>
      <trkpt lat="47.02394" lon="8.94058">
        <ele>865</ele>
        <time>2021-08-02T11:36:56.372Z</time>
      </trkpt>
      <trkpt lat="47.02395" lon="8.94058">
        <ele>865</ele>
        <time>2021-08-02T11:36:57.372Z</time>
      </trkpt>
      <trkpt lat="47.02396" lon="8.94059">
        <ele>865</ele>
        <time>2021-08-02T11:36:58.372Z</time>
      </trkpt>
      <trkpt lat="47.02396" lon="8.9406">
        <ele>865</ele>
        <time>2021-08-02T11:36:59.372Z</time>
      </trkpt>
      <trkpt lat="47.02397" lon="8.94061">
        <ele>865</ele>
        <time>2021-08-02T11:37:00.372Z</time>
      </trkpt>
      <trkpt lat="47.02399" lon="8.94062">
        <ele>865</ele>
        <time>2021-08-02T11:37:01.372Z</time>
      </trkpt>
      <trkpt lat="47.02401" lon="8.94063">
        <ele>865</ele>
        <time>2021-08-02T11:37:02.372Z</time>
      </trkpt>
      <trkpt lat="47.02402" lon="8.94063">
        <ele>864</ele>
        <time>2021-08-02T11:37:03.372Z</time>
      </trkpt>
      <trkpt lat="47.02404" lon="8.94063">
        <ele>864</ele>
        <time>2021-08-02T11:37:04.372Z</time>
      </trkpt>
      <trkpt lat="47.02405" lon="8.94063">
        <ele>864</ele>
        <time>2021-08-02T11:37:05.372Z</time>
      </trkpt>
      <trkpt lat="47.02406" lon="8.94064">
        <ele>863</ele>
        <time>2021-08-02T11:37:06.372Z</time>
      </trkpt>
      <trkpt lat="47.02406" lon="8.94064">
        <ele>863</ele>
        <time>2021-08-02T11:37:07.372Z</time>
      </trkpt>
      <trkpt lat="47.02407" lon="8.94064">
        <ele>863</ele>
        <time>2021-08-02T11:37:08.372Z</time>
      </trkpt>
      <trkpt lat="47.02407" lon="8.94064">
        <ele>863</ele>
        <time>2021-08-02T11:37:09.372Z</time>
      </trkpt>
      <trkpt lat="47.02404" lon="8.94065">
        <ele>860</ele>
        <time>2021-08-02T11:37:10.373Z</time>
      </trkpt>
      <trkpt lat="47.02404" lon="8.94066">
        <ele>860</ele>
        <time>2021-08-02T11:37:11.372Z</time>
      </trkpt>
      <trkpt lat="47.02403" lon="8.94066">
        <ele>860</ele>
        <time>2021-08-02T11:37:12.372Z</time>
      </trkpt>
      <trkpt lat="47.02403" lon="8.94068">
        <ele>859</ele>
        <time>2021-08-02T11:37:13.373Z</time>
      </trkpt>
      <trkpt lat="47.02403" lon="8.94069">
        <ele>859</ele>
        <time>2021-08-02T11:37:14.372Z</time>
      </trkpt>
      <trkpt lat="47.02403" lon="8.94071">
        <ele>859</ele>
        <time>2021-08-02T11:37:15.372Z</time>
      </trkpt>
      <trkpt lat="47.02403" lon="8.94073">
        <ele>858</ele>
        <time>2021-08-02T11:37:16.372Z</time>
      </trkpt>
      <trkpt lat="47.02404" lon="8.94075">
        <ele>858</ele>
        <time>2021-08-02T11:37:17.373Z</time>
      </trkpt>
      <trkpt lat="47.02404" lon="8.94076">
        <ele>857</ele>
        <time>2021-08-02T11:37:18.372Z</time>
      </trkpt>
      <trkpt lat="47.02404" lon="8.94078">
        <ele>856</ele>
        <time>2021-08-02T11:37:19.372Z</time>
      </trkpt>
      <trkpt lat="47.02405" lon="8.9408">
        <ele>855</ele>
        <time>2021-08-02T11:37:20.372Z</time>
      </trkpt>
      <trkpt lat="47.02405" lon="8.94082">
        <ele>854</ele>
        <time>2021-08-02T11:37:21.372Z</time>
      </trkpt>
      <trkpt lat="47.02406" lon="8.94084">
        <ele>854</ele>
        <time>2021-08-02T11:37:22.372Z</time>
      </trkpt>
      <trkpt lat="47.02407" lon="8.94085">
        <ele>854</ele>
        <time>2021-08-02T11:37:23.372Z</time>
      </trkpt>
      <trkpt lat="47.02407" lon="8.94087">
        <ele>854</ele>
        <time>2021-08-02T11:37:24.372Z</time>
      </trkpt>
      <trkpt lat="47.02408" lon="8.94089">
        <ele>854</ele>
        <time>2021-08-02T11:37:25.372Z</time>
      </trkpt>
      <trkpt lat="47.02408" lon="8.94092">
        <ele>854</ele>
        <time>2021-08-02T11:37:26.372Z</time>
      </trkpt>
      <trkpt lat="47.02409" lon="8.94094">
        <ele>854</ele>
        <time>2021-08-02T11:37:27.372Z</time>
      </trkpt>
      <trkpt lat="47.02409" lon="8.94096">
        <ele>855</ele>
        <time>2021-08-02T11:37:28.372Z</time>
      </trkpt>
      <trkpt lat="47.02409" lon="8.94098">
        <ele>855</ele>
        <time>2021-08-02T11:37:29.373Z</time>
      </trkpt>
      <trkpt lat="47.0241" lon="8.94099">
        <ele>856</ele>
        <time>2021-08-02T11:37:30.372Z</time>
      </trkpt>
      <trkpt lat="47.0241" lon="8.941">
        <ele>856</ele>
        <time>2021-08-02T11:37:31.373Z</time>
      </trkpt>
      <trkpt lat="47.02411" lon="8.94102">
        <ele>856</ele>
        <time>2021-08-02T11:37:32.373Z</time>
      </trkpt>
      <trkpt lat="47.02411" lon="8.94104">
        <ele>856</ele>
        <time>2021-08-02T11:37:33.373Z</time>
      </trkpt>
      <trkpt lat="47.02412" lon="8.94106">
        <ele>855</ele>
        <time>2021-08-02T11:37:34.372Z</time>
      </trkpt>
      <trkpt lat="47.02412" lon="8.94107">
        <ele>856</ele>
        <time>2021-08-02T11:37:35.373Z</time>
      </trkpt>
      <trkpt lat="47.02412" lon="8.94109">
        <ele>856</ele>
        <time>2021-08-02T11:37:36.372Z</time>
      </trkpt>
      <trkpt lat="47.02413" lon="8.94111">
        <ele>856</ele>
        <time>2021-08-02T11:37:37.372Z</time>
      </trkpt>
      <trkpt lat="47.02413" lon="8.94113">
        <ele>856</ele>
        <time>2021-08-02T11:37:38.372Z</time>
      </trkpt>
      <trkpt lat="47.02413" lon="8.94115">
        <ele>856</ele>
        <time>2021-08-02T11:37:39.372Z</time>
      </trkpt>
      <trkpt lat="47.02413" lon="8.94117">
        <ele>856</ele>
        <time>2021-08-02T11:37:40.372Z</time>
      </trkpt>
      <trkpt lat="47.02414" lon="8.94118">
        <ele>856</ele>
        <time>2021-08-02T11:37:41.372Z</time>
      </trkpt>
      <trkpt lat="47.02414" lon="8.9412">
        <ele>856</ele>
        <time>2021-08-02T11:37:42.372Z</time>
      </trkpt>
      <trkpt lat="47.02414" lon="8.94122">
        <ele>856</ele>
        <time>2021-08-02T11:37:43.373Z</time>
      </trkpt>
      <trkpt lat="47.02414" lon="8.94123">
        <ele>856</ele>
        <time>2021-08-02T11:37:44.373Z</time>
      </trkpt>
      <trkpt lat="47.02415" lon="8.94125">
        <ele>856</ele>
        <time>2021-08-02T11:37:45.373Z</time>
      </trkpt>
      <trkpt lat="47.02416" lon="8.94127">
        <ele>856</ele>
        <time>2021-08-02T11:37:46.372Z</time>
      </trkpt>
      <trkpt lat="47.02416" lon="8.94129">
        <ele>857</ele>
        <time>2021-08-02T11:37:47.372Z</time>
      </trkpt>
      <trkpt lat="47.02416" lon="8.94131">
        <ele>857</ele>
        <time>2021-08-02T11:37:48.372Z</time>
      </trkpt>
      <trkpt lat="47.02416" lon="8.94133">
        <ele>857</ele>
        <time>2021-08-02T11:37:49.372Z</time>
      </trkpt>
      <trkpt lat="47.02417" lon="8.94134">
        <ele>857</ele>
        <time>2021-08-02T11:37:50.372Z</time>
      </trkpt>
      <trkpt lat="47.02417" lon="8.94136">
        <ele>857</ele>
        <time>2021-08-02T11:37:51.373Z</time>
      </trkpt>
      <trkpt lat="47.02418" lon="8.94138">
        <ele>856</ele>
        <time>2021-08-02T11:37:52.373Z</time>
      </trkpt>
      <trkpt lat="47.02418" lon="8.9414">
        <ele>856</ele>
        <time>2021-08-02T11:37:53.373Z</time>
      </trkpt>
      <trkpt lat="47.02419" lon="8.94142">
        <ele>855</ele>
        <time>2021-08-02T11:37:54.372Z</time>
      </trkpt>
      <trkpt lat="47.02419" lon="8.94144">
        <ele>855</ele>
        <time>2021-08-02T11:37:55.372Z</time>
      </trkpt>
      <trkpt lat="47.02419" lon="8.94145">
        <ele>854</ele>
        <time>2021-08-02T11:37:56.373Z</time>
      </trkpt>
      <trkpt lat="47.0242" lon="8.94147">
        <ele>854</ele>
        <time>2021-08-02T11:37:57.372Z</time>
      </trkpt>
      <trkpt lat="47.0242" lon="8.94149">
        <ele>853</ele>
        <time>2021-08-02T11:37:58.372Z</time>
      </trkpt>
      <trkpt lat="47.02421" lon="8.9415">
        <ele>852</ele>
        <time>2021-08-02T11:37:59.372Z</time>
      </trkpt>
      <trkpt lat="47.02421" lon="8.94152">
        <ele>851</ele>
        <time>2021-08-02T11:38:00.372Z</time>
      </trkpt>
      <trkpt lat="47.02422" lon="8.94153">
        <ele>851</ele>
        <time>2021-08-02T11:38:01.372Z</time>
      </trkpt>
      <trkpt lat="47.02422" lon="8.94155">
        <ele>850</ele>
        <time>2021-08-02T11:38:02.373Z</time>
      </trkpt>
      <trkpt lat="47.02423" lon="8.94157">
        <ele>850</ele>
        <time>2021-08-02T11:38:03.372Z</time>
      </trkpt>
      <trkpt lat="47.02423" lon="8.94158">
        <ele>850</ele>
        <time>2021-08-02T11:38:04.372Z</time>
      </trkpt>
      <trkpt lat="47.02424" lon="8.9416">
        <ele>850</ele>
        <time>2021-08-02T11:38:05.372Z</time>
      </trkpt>
      <trkpt lat="47.02424" lon="8.94161">
        <ele>851</ele>
        <time>2021-08-02T11:38:06.372Z</time>
      </trkpt>
      <trkpt lat="47.02425" lon="8.94163">
        <ele>852</ele>
        <time>2021-08-02T11:38:07.372Z</time>
      </trkpt>
      <trkpt lat="47.02425" lon="8.94164">
        <ele>852</ele>
        <time>2021-08-02T11:38:08.373Z</time>
      </trkpt>
      <trkpt lat="47.02426" lon="8.94166">
        <ele>853</ele>
        <time>2021-08-02T11:38:09.372Z</time>
      </trkpt>
      <trkpt lat="47.02427" lon="8.94167">
        <ele>853</ele>
        <time>2021-08-02T11:38:10.373Z</time>
      </trkpt>
      <trkpt lat="47.02427" lon="8.94168">
        <ele>853</ele>
        <time>2021-08-02T11:38:11.372Z</time>
      </trkpt>
      <trkpt lat="47.02428" lon="8.9417">
        <ele>853</ele>
        <time>2021-08-02T11:38:12.373Z</time>
      </trkpt>
      <trkpt lat="47.02428" lon="8.94172">
        <ele>853</ele>
        <time>2021-08-02T11:38:13.372Z</time>
      </trkpt>
      <trkpt lat="47.02429" lon="8.94173">
        <ele>853</ele>
        <time>2021-08-02T11:38:14.372Z</time>
      </trkpt>
      <trkpt lat="47.0243" lon="8.94175">
        <ele>853</ele>
        <time>2021-08-02T11:38:15.372Z</time>
      </trkpt>
      <trkpt lat="47.02431" lon="8.94177">
        <ele>853</ele>
        <time>2021-08-02T11:38:16.373Z</time>
      </trkpt>
      <trkpt lat="47.02431" lon="8.94178">
        <ele>853</ele>
        <time>2021-08-02T11:38:17.372Z</time>
      </trkpt>
      <trkpt lat="47.02432" lon="8.9418">
        <ele>854</ele>
        <time>2021-08-02T11:38:18.372Z</time>
      </trkpt>
      <trkpt lat="47.02432" lon="8.94181">
        <ele>854</ele>
        <time>2021-08-02T11:38:19.372Z</time>
      </trkpt>
      <trkpt lat="47.02433" lon="8.94182">
        <ele>854</ele>
        <time>2021-08-02T11:38:20.372Z</time>
      </trkpt>
      <trkpt lat="47.02434" lon="8.94184">
        <ele>854</ele>
        <time>2021-08-02T11:38:21.372Z</time>
      </trkpt>
      <trkpt lat="47.02434" lon="8.94186">
        <ele>855</ele>
        <time>2021-08-02T11:38:22.373Z</time>
      </trkpt>
      <trkpt lat="47.02435" lon="8.94188">
        <ele>855</ele>
        <time>2021-08-02T11:38:23.373Z</time>
      </trkpt>
      <trkpt lat="47.02435" lon="8.94189">
        <ele>855</ele>
        <time>2021-08-02T11:38:24.372Z</time>
      </trkpt>
      <trkpt lat="47.02436" lon="8.94191">
        <ele>856</ele>
        <time>2021-08-02T11:38:25.372Z</time>
      </trkpt>
      <trkpt lat="47.02436" lon="8.94193">
        <ele>856</ele>
        <time>2021-08-02T11:38:26.372Z</time>
      </trkpt>
      <trkpt lat="47.02437" lon="8.94194">
        <ele>856</ele>
        <time>2021-08-02T11:38:27.373Z</time>
      </trkpt>
      <trkpt lat="47.02438" lon="8.94196">
        <ele>856</ele>
        <time>2021-08-02T11:38:28.372Z</time>
      </trkpt>
      <trkpt lat="47.02438" lon="8.94198">
        <ele>856</ele>
        <time>2021-08-02T11:38:29.373Z</time>
      </trkpt>
      <trkpt lat="47.02438" lon="8.942">
        <ele>856</ele>
        <time>2021-08-02T11:38:30.372Z</time>
      </trkpt>
      <trkpt lat="47.02439" lon="8.94202">
        <ele>856</ele>
        <time>2021-08-02T11:38:31.373Z</time>
      </trkpt>
      <trkpt lat="47.02439" lon="8.94204">
        <ele>856</ele>
        <time>2021-08-02T11:38:32.372Z</time>
      </trkpt>
      <trkpt lat="47.0244" lon="8.94205">
        <ele>856</ele>
        <time>2021-08-02T11:38:33.373Z</time>
      </trkpt>
      <trkpt lat="47.02441" lon="8.94207">
        <ele>856</ele>
        <time>2021-08-02T11:38:34.373Z</time>
      </trkpt>
      <trkpt lat="47.02441" lon="8.94209">
        <ele>856</ele>
        <time>2021-08-02T11:38:35.372Z</time>
      </trkpt>
      <trkpt lat="47.02442" lon="8.94211">
        <ele>856</ele>
        <time>2021-08-02T11:38:36.372Z</time>
      </trkpt>
      <trkpt lat="47.02442" lon="8.94212">
        <ele>856</ele>
        <time>2021-08-02T11:38:37.373Z</time>
      </trkpt>
      <trkpt lat="47.02443" lon="8.94214">
        <ele>856</ele>
        <time>2021-08-02T11:38:38.373Z</time>
      </trkpt>
      <trkpt lat="47.02444" lon="8.94216">
        <ele>856</ele>
        <time>2021-08-02T11:38:39.372Z</time>
      </trkpt>
      <trkpt lat="47.02444" lon="8.94217">
        <ele>856</ele>
        <time>2021-08-02T11:38:40.372Z</time>
      </trkpt>
      <trkpt lat="47.02444" lon="8.94219">
        <ele>856</ele>
        <time>2021-08-02T11:38:41.372Z</time>
      </trkpt>
      <trkpt lat="47.02445" lon="8.94221">
        <ele>856</ele>
        <time>2021-08-02T11:38:42.372Z</time>
      </trkpt>
      <trkpt lat="47.02445" lon="8.94223">
        <ele>856</ele>
        <time>2021-08-02T11:38:43.373Z</time>
      </trkpt>
      <trkpt lat="47.02445" lon="8.94225">
        <ele>855</ele>
        <time>2021-08-02T11:38:44.372Z</time>
      </trkpt>
      <trkpt lat="47.02445" lon="8.94227">
        <ele>854</ele>
        <time>2021-08-02T11:38:45.372Z</time>
      </trkpt>
      <trkpt lat="47.02446" lon="8.94228">
        <ele>853</ele>
        <time>2021-08-02T11:38:46.373Z</time>
      </trkpt>
      <trkpt lat="47.02446" lon="8.9423">
        <ele>852</ele>
        <time>2021-08-02T11:38:47.373Z</time>
      </trkpt>
      <trkpt lat="47.02446" lon="8.94231">
        <ele>852</ele>
        <time>2021-08-02T11:38:48.372Z</time>
      </trkpt>
      <trkpt lat="47.02447" lon="8.94233">
        <ele>851</ele>
        <time>2021-08-02T11:38:49.373Z</time>
      </trkpt>
      <trkpt lat="47.02447" lon="8.94235">
        <ele>851</ele>
        <time>2021-08-02T11:38:50.372Z</time>
      </trkpt>
      <trkpt lat="47.02448" lon="8.94236">
        <ele>850</ele>
        <time>2021-08-02T11:38:51.372Z</time>
      </trkpt>
      <trkpt lat="47.02448" lon="8.94238">
        <ele>850</ele>
        <time>2021-08-02T11:38:52.373Z</time>
      </trkpt>
      <trkpt lat="47.02449" lon="8.94239">
        <ele>849</ele>
        <time>2021-08-02T11:38:53.372Z</time>
      </trkpt>
      <trkpt lat="47.0245" lon="8.94241">
        <ele>849</ele>
        <time>2021-08-02T11:38:54.373Z</time>
      </trkpt>
      <trkpt lat="47.0245" lon="8.94243">
        <ele>849</ele>
        <time>2021-08-02T11:38:55.373Z</time>
      </trkpt>
      <trkpt lat="47.0245" lon="8.94245">
        <ele>848</ele>
        <time>2021-08-02T11:38:56.373Z</time>
      </trkpt>
      <trkpt lat="47.0245" lon="8.94246">
        <ele>848</ele>
        <time>2021-08-02T11:38:57.373Z</time>
      </trkpt>
      <trkpt lat="47.02451" lon="8.94249">
        <ele>848</ele>
        <time>2021-08-02T11:38:58.373Z</time>
      </trkpt>
      <trkpt lat="47.02451" lon="8.9425">
        <ele>848</ele>
        <time>2021-08-02T11:38:59.373Z</time>
      </trkpt>
      <trkpt lat="47.02452" lon="8.94251">
        <ele>848</ele>
        <time>2021-08-02T11:39:00.372Z</time>
      </trkpt>
      <trkpt lat="47.02453" lon="8.94252">
        <ele>847</ele>
        <time>2021-08-02T11:39:01.373Z</time>
      </trkpt>
      <trkpt lat="47.02453" lon="8.94253">
        <ele>847</ele>
        <time>2021-08-02T11:39:02.373Z</time>
      </trkpt>
      <trkpt lat="47.02454" lon="8.94255">
        <ele>848</ele>
        <time>2021-08-02T11:39:03.372Z</time>
      </trkpt>
      <trkpt lat="47.02455" lon="8.94256">
        <ele>848</ele>
        <time>2021-08-02T11:39:04.372Z</time>
      </trkpt>
      <trkpt lat="47.02455" lon="8.94257">
        <ele>849</ele>
        <time>2021-08-02T11:39:05.372Z</time>
      </trkpt>
      <trkpt lat="47.02456" lon="8.94258">
        <ele>849</ele>
        <time>2021-08-02T11:39:06.373Z</time>
      </trkpt>
      <trkpt lat="47.02457" lon="8.9426">
        <ele>849</ele>
        <time>2021-08-02T11:39:07.372Z</time>
      </trkpt>
      <trkpt lat="47.02457" lon="8.94261">
        <ele>850</ele>
        <time>2021-08-02T11:39:08.373Z</time>
      </trkpt>
      <trkpt lat="47.02458" lon="8.94262">
        <ele>851</ele>
        <time>2021-08-02T11:39:09.372Z</time>
      </trkpt>
      <trkpt lat="47.02459" lon="8.94263">
        <ele>851</ele>
        <time>2021-08-02T11:39:10.373Z</time>
      </trkpt>
      <trkpt lat="47.02459" lon="8.94264">
        <ele>852</ele>
        <time>2021-08-02T11:39:11.373Z</time>
      </trkpt>
      <trkpt lat="47.0246" lon="8.94264">
        <ele>852</ele>
        <time>2021-08-02T11:39:12.373Z</time>
      </trkpt>
      <trkpt lat="47.02461" lon="8.94266">
        <ele>853</ele>
        <time>2021-08-02T11:39:13.372Z</time>
      </trkpt>
      <trkpt lat="47.02462" lon="8.94266">
        <ele>853</ele>
        <time>2021-08-02T11:39:14.372Z</time>
      </trkpt>
      <trkpt lat="47.02463" lon="8.94268">
        <ele>853</ele>
        <time>2021-08-02T11:39:15.372Z</time>
      </trkpt>
      <trkpt lat="47.02464" lon="8.9427">
        <ele>853</ele>
        <time>2021-08-02T11:39:16.372Z</time>
      </trkpt>
      <trkpt lat="47.02464" lon="8.94272">
        <ele>853</ele>
        <time>2021-08-02T11:39:17.372Z</time>
      </trkpt>
      <trkpt lat="47.02465" lon="8.94274">
        <ele>854</ele>
        <time>2021-08-02T11:39:18.372Z</time>
      </trkpt>
      <trkpt lat="47.02465" lon="8.94277">
        <ele>854</ele>
        <time>2021-08-02T11:39:19.372Z</time>
      </trkpt>
      <trkpt lat="47.02466" lon="8.94279">
        <ele>854</ele>
        <time>2021-08-02T11:39:20.372Z</time>
      </trkpt>
      <trkpt lat="47.02467" lon="8.94281">
        <ele>853</ele>
        <time>2021-08-02T11:39:21.372Z</time>
      </trkpt>
      <trkpt lat="47.02468" lon="8.94281">
        <ele>853</ele>
        <time>2021-08-02T11:39:22.373Z</time>
      </trkpt>
      <trkpt lat="47.02469" lon="8.94282">
        <ele>853</ele>
        <time>2021-08-02T11:39:23.373Z</time>
      </trkpt>
      <trkpt lat="47.0247" lon="8.94283">
        <ele>852</ele>
        <time>2021-08-02T11:39:24.373Z</time>
      </trkpt>
      <trkpt lat="47.0247" lon="8.94284">
        <ele>852</ele>
        <time>2021-08-02T11:39:25.372Z</time>
      </trkpt>
      <trkpt lat="47.0247" lon="8.94286">
        <ele>853</ele>
        <time>2021-08-02T11:39:26.373Z</time>
      </trkpt>
      <trkpt lat="47.02471" lon="8.94288">
        <ele>853</ele>
        <time>2021-08-02T11:39:27.372Z</time>
      </trkpt>
      <trkpt lat="47.02471" lon="8.94289">
        <ele>852</ele>
        <time>2021-08-02T11:39:28.373Z</time>
      </trkpt>
      <trkpt lat="47.02472" lon="8.94291">
        <ele>852</ele>
        <time>2021-08-02T11:39:29.372Z</time>
      </trkpt>
      <trkpt lat="47.02473" lon="8.94292">
        <ele>852</ele>
        <time>2021-08-02T11:39:30.373Z</time>
      </trkpt>
      <trkpt lat="47.02474" lon="8.94293">
        <ele>852</ele>
        <time>2021-08-02T11:39:31.372Z</time>
      </trkpt>
      <trkpt lat="47.02475" lon="8.94295">
        <ele>852</ele>
        <time>2021-08-02T11:39:32.372Z</time>
      </trkpt>
      <trkpt lat="47.02475" lon="8.94296">
        <ele>852</ele>
        <time>2021-08-02T11:39:33.373Z</time>
      </trkpt>
      <trkpt lat="47.02476" lon="8.94297">
        <ele>852</ele>
        <time>2021-08-02T11:39:34.373Z</time>
      </trkpt>
      <trkpt lat="47.02477" lon="8.94299">
        <ele>851</ele>
        <time>2021-08-02T11:39:35.372Z</time>
      </trkpt>
      <trkpt lat="47.02478" lon="8.943">
        <ele>851</ele>
        <time>2021-08-02T11:39:36.373Z</time>
      </trkpt>
      <trkpt lat="47.02478" lon="8.94301">
        <ele>851</ele>
        <time>2021-08-02T11:39:37.373Z</time>
      </trkpt>
      <trkpt lat="47.02479" lon="8.94303">
        <ele>851</ele>
        <time>2021-08-02T11:39:38.372Z</time>
      </trkpt>
      <trkpt lat="47.02479" lon="8.94304">
        <ele>851</ele>
        <time>2021-08-02T11:39:39.373Z</time>
      </trkpt>
      <trkpt lat="47.0248" lon="8.94306">
        <ele>851</ele>
        <time>2021-08-02T11:39:40.373Z</time>
      </trkpt>
      <trkpt lat="47.02481" lon="8.94308">
        <ele>851</ele>
        <time>2021-08-02T11:39:41.372Z</time>
      </trkpt>
      <trkpt lat="47.02482" lon="8.94309">
        <ele>851</ele>
        <time>2021-08-02T11:39:42.372Z</time>
      </trkpt>
      <trkpt lat="47.02482" lon="8.94311">
        <ele>851</ele>
        <time>2021-08-02T11:39:43.372Z</time>
      </trkpt>
      <trkpt lat="47.02482" lon="8.94313">
        <ele>851</ele>
        <time>2021-08-02T11:39:44.372Z</time>
      </trkpt>
      <trkpt lat="47.02483" lon="8.94314">
        <ele>851</ele>
        <time>2021-08-02T11:39:45.373Z</time>
      </trkpt>
      <trkpt lat="47.02484" lon="8.94316">
        <ele>851</ele>
        <time>2021-08-02T11:39:46.372Z</time>
      </trkpt>
      <trkpt lat="47.02484" lon="8.94317">
        <ele>851</ele>
        <time>2021-08-02T11:39:47.373Z</time>
      </trkpt>
      <trkpt lat="47.02485" lon="8.94319">
        <ele>851</ele>
        <time>2021-08-02T11:39:48.372Z</time>
      </trkpt>
      <trkpt lat="47.02486" lon="8.9432">
        <ele>851</ele>
        <time>2021-08-02T11:39:49.373Z</time>
      </trkpt>
      <trkpt lat="47.02486" lon="8.94321">
        <ele>852</ele>
        <time>2021-08-02T11:39:50.372Z</time>
      </trkpt>
      <trkpt lat="47.02487" lon="8.94322">
        <ele>852</ele>
        <time>2021-08-02T11:39:51.372Z</time>
      </trkpt>
      <trkpt lat="47.02488" lon="8.94324">
        <ele>852</ele>
        <time>2021-08-02T11:39:52.372Z</time>
      </trkpt>
      <trkpt lat="47.02488" lon="8.94325">
        <ele>853</ele>
        <time>2021-08-02T11:39:53.372Z</time>
      </trkpt>
      <trkpt lat="47.02489" lon="8.94327">
        <ele>853</ele>
        <time>2021-08-02T11:39:54.372Z</time>
      </trkpt>
      <trkpt lat="47.0249" lon="8.94329">
        <ele>853</ele>
        <time>2021-08-02T11:39:55.372Z</time>
      </trkpt>
      <trkpt lat="47.0249" lon="8.94331">
        <ele>853</ele>
        <time>2021-08-02T11:39:59.410Z</time>
      </trkpt>
      <trkpt lat="47.0249" lon="8.94333">
        <ele>853</ele>
        <time>2021-08-02T11:40:00.410Z</time>
      </trkpt>
      <trkpt lat="47.0249" lon="8.94335">
        <ele>854</ele>
        <time>2021-08-02T11:40:01.411Z</time>
      </trkpt>
      <trkpt lat="47.02491" lon="8.94337">
        <ele>854</ele>
        <time>2021-08-02T11:40:02.410Z</time>
      </trkpt>
      <trkpt lat="47.02492" lon="8.94338">
        <ele>854</ele>
        <time>2021-08-02T11:40:03.410Z</time>
      </trkpt>
      <trkpt lat="47.02493" lon="8.9434">
        <ele>854</ele>
        <time>2021-08-02T11:40:04.410Z</time>
      </trkpt>
      <trkpt lat="47.02493" lon="8.94341">
        <ele>854</ele>
        <time>2021-08-02T11:40:05.411Z</time>
      </trkpt>
      <trkpt lat="47.02495" lon="8.94343">
        <ele>854</ele>
        <time>2021-08-02T11:40:06.410Z</time>
      </trkpt>
      <trkpt lat="47.02496" lon="8.94344">
        <ele>854</ele>
        <time>2021-08-02T11:40:07.410Z</time>
      </trkpt>
      <trkpt lat="47.02496" lon="8.94346">
        <ele>854</ele>
        <time>2021-08-02T11:40:08.411Z</time>
      </trkpt>
      <trkpt lat="47.02497" lon="8.94347">
        <ele>855</ele>
        <time>2021-08-02T11:40:09.410Z</time>
      </trkpt>
      <trkpt lat="47.02498" lon="8.94349">
        <ele>855</ele>
        <time>2021-08-02T11:40:10.410Z</time>
      </trkpt>
      <trkpt lat="47.02499" lon="8.94351">
        <ele>855</ele>
        <time>2021-08-02T11:40:11.411Z</time>
      </trkpt>
      <trkpt lat="47.02499" lon="8.94353">
        <ele>855</ele>
        <time>2021-08-02T11:40:12.410Z</time>
      </trkpt>
      <trkpt lat="47.02499" lon="8.94354">
        <ele>855</ele>
        <time>2021-08-02T11:40:13.410Z</time>
      </trkpt>
      <trkpt lat="47.025" lon="8.94356">
        <ele>855</ele>
        <time>2021-08-02T11:40:14.410Z</time>
      </trkpt>
      <trkpt lat="47.025" lon="8.94358">
        <ele>855</ele>
        <time>2021-08-02T11:40:15.411Z</time>
      </trkpt>
      <trkpt lat="47.02501" lon="8.9436">
        <ele>855</ele>
        <time>2021-08-02T11:40:16.410Z</time>
      </trkpt>
      <trkpt lat="47.02501" lon="8.94362">
        <ele>855</ele>
        <time>2021-08-02T11:40:17.410Z</time>
      </trkpt>
      <trkpt lat="47.02502" lon="8.94363">
        <ele>855</ele>
        <time>2021-08-02T11:40:18.410Z</time>
      </trkpt>
      <trkpt lat="47.02503" lon="8.94365">
        <ele>854</ele>
        <time>2021-08-02T11:40:19.411Z</time>
      </trkpt>
      <trkpt lat="47.02503" lon="8.94367">
        <ele>855</ele>
        <time>2021-08-02T11:40:20.410Z</time>
      </trkpt>
      <trkpt lat="47.02504" lon="8.94369">
        <ele>855</ele>
        <time>2021-08-02T11:40:21.411Z</time>
      </trkpt>
      <trkpt lat="47.02504" lon="8.94371">
        <ele>855</ele>
        <time>2021-08-02T11:40:22.410Z</time>
      </trkpt>
      <trkpt lat="47.02505" lon="8.94372">
        <ele>855</ele>
        <time>2021-08-02T11:40:23.410Z</time>
      </trkpt>
      <trkpt lat="47.02506" lon="8.94374">
        <ele>855</ele>
        <time>2021-08-02T11:40:24.410Z</time>
      </trkpt>
      <trkpt lat="47.02507" lon="8.94376">
        <ele>855</ele>
        <time>2021-08-02T11:40:25.410Z</time>
      </trkpt>
      <trkpt lat="47.02507" lon="8.94378">
        <ele>855</ele>
        <time>2021-08-02T11:40:26.411Z</time>
      </trkpt>
      <trkpt lat="47.02508" lon="8.94379">
        <ele>855</ele>
        <time>2021-08-02T11:40:27.410Z</time>
      </trkpt>
      <trkpt lat="47.02509" lon="8.94381">
        <ele>855</ele>
        <time>2021-08-02T11:40:28.411Z</time>
      </trkpt>
      <trkpt lat="47.02509" lon="8.94383">
        <ele>856</ele>
        <time>2021-08-02T11:40:29.411Z</time>
      </trkpt>
      <trkpt lat="47.0251" lon="8.94385">
        <ele>856</ele>
        <time>2021-08-02T11:40:30.410Z</time>
      </trkpt>
      <trkpt lat="47.02511" lon="8.94386">
        <ele>856</ele>
        <time>2021-08-02T11:40:31.410Z</time>
      </trkpt>
      <trkpt lat="47.02511" lon="8.94387">
        <ele>856</ele>
        <time>2021-08-02T11:40:32.410Z</time>
      </trkpt>
      <trkpt lat="47.02511" lon="8.94388">
        <ele>856</ele>
        <time>2021-08-02T11:40:33.410Z</time>
      </trkpt>
      <trkpt lat="47.02512" lon="8.94389">
        <ele>855</ele>
        <time>2021-08-02T11:40:34.410Z</time>
      </trkpt>
      <trkpt lat="47.02512" lon="8.9439">
        <ele>855</ele>
        <time>2021-08-02T11:40:35.410Z</time>
      </trkpt>
      <trkpt lat="47.02513" lon="8.94392">
        <ele>855</ele>
        <time>2021-08-02T11:40:36.410Z</time>
      </trkpt>
      <trkpt lat="47.02513" lon="8.94394">
        <ele>855</ele>
        <time>2021-08-02T11:40:37.410Z</time>
      </trkpt>
      <trkpt lat="47.02514" lon="8.94395">
        <ele>854</ele>
        <time>2021-08-02T11:40:38.411Z</time>
      </trkpt>
      <trkpt lat="47.02514" lon="8.94397">
        <ele>854</ele>
        <time>2021-08-02T11:40:39.410Z</time>
      </trkpt>
      <trkpt lat="47.02514" lon="8.94399">
        <ele>853</ele>
        <time>2021-08-02T11:40:40.410Z</time>
      </trkpt>
      <trkpt lat="47.02515" lon="8.94401">
        <ele>853</ele>
        <time>2021-08-02T11:40:41.410Z</time>
      </trkpt>
      <trkpt lat="47.02516" lon="8.94403">
        <ele>853</ele>
        <time>2021-08-02T11:40:42.410Z</time>
      </trkpt>
      <trkpt lat="47.02516" lon="8.94404">
        <ele>852</ele>
        <time>2021-08-02T11:40:43.410Z</time>
      </trkpt>
      <trkpt lat="47.02517" lon="8.94406">
        <ele>852</ele>
        <time>2021-08-02T11:40:44.410Z</time>
      </trkpt>
      <trkpt lat="47.02518" lon="8.94407">
        <ele>851</ele>
        <time>2021-08-02T11:40:45.410Z</time>
      </trkpt>
      <trkpt lat="47.02519" lon="8.94408">
        <ele>851</ele>
        <time>2021-08-02T11:40:46.410Z</time>
      </trkpt>
      <trkpt lat="47.02519" lon="8.94411">
        <ele>852</ele>
        <time>2021-08-02T11:40:47.410Z</time>
      </trkpt>
      <trkpt lat="47.0252" lon="8.94413">
        <ele>852</ele>
        <time>2021-08-02T11:40:48.411Z</time>
      </trkpt>
      <trkpt lat="47.02521" lon="8.94415">
        <ele>853</ele>
        <time>2021-08-02T11:40:49.410Z</time>
      </trkpt>
      <trkpt lat="47.02522" lon="8.94417">
        <ele>854</ele>
        <time>2021-08-02T11:40:50.411Z</time>
      </trkpt>
      <trkpt lat="47.02522" lon="8.94418">
        <ele>854</ele>
        <time>2021-08-02T11:40:51.410Z</time>
      </trkpt>
      <trkpt lat="47.02523" lon="8.9442">
        <ele>854</ele>
        <time>2021-08-02T11:40:52.411Z</time>
      </trkpt>
      <trkpt lat="47.02523" lon="8.94421">
        <ele>855</ele>
        <time>2021-08-02T11:40:53.411Z</time>
      </trkpt>
      <trkpt lat="47.02523" lon="8.94423">
        <ele>855</ele>
        <time>2021-08-02T11:40:54.410Z</time>
      </trkpt>
      <trkpt lat="47.02524" lon="8.94424">
        <ele>855</ele>
        <time>2021-08-02T11:40:55.410Z</time>
      </trkpt>
      <trkpt lat="47.02524" lon="8.94425">
        <ele>856</ele>
        <time>2021-08-02T11:40:56.411Z</time>
      </trkpt>
      <trkpt lat="47.02524" lon="8.94427">
        <ele>856</ele>
        <time>2021-08-02T11:40:57.410Z</time>
      </trkpt>
      <trkpt lat="47.02523" lon="8.94428">
        <ele>855</ele>
        <time>2021-08-02T11:40:58.411Z</time>
      </trkpt>
      <trkpt lat="47.02523" lon="8.94429">
        <ele>855</ele>
        <time>2021-08-02T11:40:59.410Z</time>
      </trkpt>
      <trkpt lat="47.02522" lon="8.94431">
        <ele>855</ele>
        <time>2021-08-02T11:41:00.410Z</time>
      </trkpt>
      <trkpt lat="47.02521" lon="8.94432">
        <ele>854</ele>
        <time>2021-08-02T11:41:01.410Z</time>
      </trkpt>
      <trkpt lat="47.0252" lon="8.94433">
        <ele>854</ele>
        <time>2021-08-02T11:41:02.411Z</time>
      </trkpt>
      <trkpt lat="47.02519" lon="8.94434">
        <ele>854</ele>
        <time>2021-08-02T11:41:03.410Z</time>
      </trkpt>
      <trkpt lat="47.02519" lon="8.94436">
        <ele>853</ele>
        <time>2021-08-02T11:41:04.410Z</time>
      </trkpt>
      <trkpt lat="47.02518" lon="8.94437">
        <ele>853</ele>
        <time>2021-08-02T11:41:05.411Z</time>
      </trkpt>
      <trkpt lat="47.02517" lon="8.94438">
        <ele>853</ele>
        <time>2021-08-02T11:41:06.411Z</time>
      </trkpt>
      <trkpt lat="47.02516" lon="8.9444">
        <ele>854</ele>
        <time>2021-08-02T11:41:07.411Z</time>
      </trkpt>
      <trkpt lat="47.02515" lon="8.94441">
        <ele>854</ele>
        <time>2021-08-02T11:41:08.411Z</time>
      </trkpt>
      <trkpt lat="47.02515" lon="8.94443">
        <ele>854</ele>
        <time>2021-08-02T11:41:11.486Z</time>
      </trkpt>
      <trkpt lat="47.02514" lon="8.94444">
        <ele>854</ele>
        <time>2021-08-02T11:41:12.487Z</time>
      </trkpt>
      <trkpt lat="47.02514" lon="8.94446">
        <ele>854</ele>
        <time>2021-08-02T11:41:13.487Z</time>
      </trkpt>
      <trkpt lat="47.02513" lon="8.94447">
        <ele>853</ele>
        <time>2021-08-02T11:41:14.487Z</time>
      </trkpt>
      <trkpt lat="47.02513" lon="8.94448">
        <ele>853</ele>
        <time>2021-08-02T11:41:23.688Z</time>
      </trkpt>
      <trkpt lat="47.02512" lon="8.94449">
        <ele>854</ele>
        <time>2021-08-02T11:41:24.688Z</time>
      </trkpt>
      <trkpt lat="47.02512" lon="8.94451">
        <ele>854</ele>
        <time>2021-08-02T11:41:25.687Z</time>
      </trkpt>
      <trkpt lat="47.02511" lon="8.94453">
        <ele>854</ele>
        <time>2021-08-02T11:41:26.687Z</time>
      </trkpt>
      <trkpt lat="47.02511" lon="8.94454">
        <ele>854</ele>
        <time>2021-08-02T11:41:27.687Z</time>
      </trkpt>
      <trkpt lat="47.0251" lon="8.94455">
        <ele>853</ele>
        <time>2021-08-02T11:41:28.688Z</time>
      </trkpt>
      <trkpt lat="47.02511" lon="8.94457">
        <ele>853</ele>
        <time>2021-08-02T11:41:29.688Z</time>
      </trkpt>
      <trkpt lat="47.02511" lon="8.94459">
        <ele>853</ele>
        <time>2021-08-02T11:41:30.687Z</time>
      </trkpt>
      <trkpt lat="47.02511" lon="8.9446">
        <ele>853</ele>
        <time>2021-08-02T11:41:31.687Z</time>
      </trkpt>
      <trkpt lat="47.02512" lon="8.94461">
        <ele>853</ele>
        <time>2021-08-02T11:41:32.688Z</time>
      </trkpt>
      <trkpt lat="47.02513" lon="8.94462">
        <ele>853</ele>
        <time>2021-08-02T11:41:33.687Z</time>
      </trkpt>
      <trkpt lat="47.02514" lon="8.94463">
        <ele>853</ele>
        <time>2021-08-02T11:41:34.687Z</time>
      </trkpt>
      <trkpt lat="47.02514" lon="8.94464">
        <ele>853</ele>
        <time>2021-08-02T11:41:35.687Z</time>
      </trkpt>
      <trkpt lat="47.02514" lon="8.94466">
        <ele>852</ele>
        <time>2021-08-02T11:41:38.776Z</time>
      </trkpt>
      <trkpt lat="47.02514" lon="8.94467">
        <ele>852</ele>
        <time>2021-08-02T11:41:39.776Z</time>
      </trkpt>
      <trkpt lat="47.02515" lon="8.94468">
        <ele>852</ele>
        <time>2021-08-02T11:41:40.776Z</time>
      </trkpt>
      <trkpt lat="47.02517" lon="8.94471">
        <ele>851</ele>
        <time>2021-08-02T11:41:46.881Z</time>
      </trkpt>
      <trkpt lat="47.02518" lon="8.94473">
        <ele>851</ele>
        <time>2021-08-02T11:41:50.777Z</time>
      </trkpt>
      <trkpt lat="47.02519" lon="8.94473">
        <ele>851</ele>
        <time>2021-08-02T11:42:01.667Z</time>
      </trkpt>
      <trkpt lat="47.02519" lon="8.94474">
        <ele>851</ele>
        <time>2021-08-02T11:42:02.666Z</time>
      </trkpt>
      <trkpt lat="47.02518" lon="8.94474">
        <ele>851</ele>
        <time>2021-08-02T11:42:03.667Z</time>
      </trkpt>
      <trkpt lat="47.02518" lon="8.94474">
        <ele>851</ele>
        <time>2021-08-02T11:42:04.666Z</time>
      </trkpt>
      <trkpt lat="47.02519" lon="8.94474">
        <ele>852</ele>
        <time>2021-08-02T11:42:05.666Z</time>
      </trkpt>
      <trkpt lat="47.02519" lon="8.94475">
        <ele>853</ele>
        <time>2021-08-02T11:42:06.667Z</time>
      </trkpt>
      <trkpt lat="47.02519" lon="8.94476">
        <ele>853</ele>
        <time>2021-08-02T11:42:07.667Z</time>
      </trkpt>
      <trkpt lat="47.02519" lon="8.94477">
        <ele>854</ele>
        <time>2021-08-02T11:42:23.790Z</time>
      </trkpt>
      <trkpt lat="47.02519" lon="8.94479">
        <ele>854</ele>
        <time>2021-08-02T11:42:24.791Z</time>
      </trkpt>
      <trkpt lat="47.02519" lon="8.9448">
        <ele>854</ele>
        <time>2021-08-02T11:42:25.790Z</time>
      </trkpt>
      <trkpt lat="47.02519" lon="8.94479">
        <ele>855</ele>
        <time>2021-08-02T11:42:52.894Z</time>
      </trkpt>
      <trkpt lat="47.02519" lon="8.94478">
        <ele>855</ele>
        <time>2021-08-02T11:42:53.893Z</time>
      </trkpt>
      <trkpt lat="47.02519" lon="8.94477">
        <ele>856</ele>
        <time>2021-08-02T11:42:54.893Z</time>
      </trkpt>
      <trkpt lat="47.02519" lon="8.94476">
        <ele>856</ele>
        <time>2021-08-02T11:42:55.894Z</time>
      </trkpt>
      <trkpt lat="47.02519" lon="8.94476">
        <ele>856</ele>
        <time>2021-08-02T11:42:56.894Z</time>
      </trkpt>
      <trkpt lat="47.02519" lon="8.94475">
        <ele>857</ele>
        <time>2021-08-02T11:42:57.894Z</time>
      </trkpt>
      <trkpt lat="47.02519" lon="8.94475">
        <ele>857</ele>
        <time>2021-08-02T11:42:58.894Z</time>
      </trkpt>
      <trkpt lat="47.02518" lon="8.94475">
        <ele>860</ele>
        <time>2021-08-02T11:43:03.906Z</time>
      </trkpt>
      <trkpt lat="47.02517" lon="8.94475">
        <ele>860</ele>
        <time>2021-08-02T11:43:15.787Z</time>
      </trkpt>
      <trkpt lat="47.02514" lon="8.94471">
        <ele>866</ele>
        <time>2021-08-02T11:43:16.787Z</time>
      </trkpt>
      <trkpt lat="47.02514" lon="8.94471">
        <ele>866</ele>
        <time>2021-08-02T11:43:17.787Z</time>
      </trkpt>
      <trkpt lat="47.02514" lon="8.94472">
        <ele>866</ele>
        <time>2021-08-02T11:43:18.786Z</time>
      </trkpt>
      <trkpt lat="47.02514" lon="8.94473">
        <ele>865</ele>
        <time>2021-08-02T11:43:21.886Z</time>
      </trkpt>
      <trkpt lat="47.02513" lon="8.94473">
        <ele>864</ele>
        <time>2021-08-02T11:43:28.755Z</time>
      </trkpt>
      <trkpt lat="47.02513" lon="8.94473">
        <ele>864</ele>
        <time>2021-08-02T11:43:32.646Z</time>
      </trkpt>
      <trkpt lat="47.02512" lon="8.94473">
        <ele>863</ele>
        <time>2021-08-02T11:43:33.646Z</time>
      </trkpt>
      <trkpt lat="47.02512" lon="8.94474">
        <ele>863</ele>
        <time>2021-08-02T11:43:34.646Z</time>
      </trkpt>
      <trkpt lat="47.02512" lon="8.94475">
        <ele>863</ele>
        <time>2021-08-02T11:43:35.646Z</time>
      </trkpt>
      <trkpt lat="47.02512" lon="8.94476">
        <ele>863</ele>
        <time>2021-08-02T11:43:36.647Z</time>
      </trkpt>
      <trkpt lat="47.02511" lon="8.94476">
        <ele>862</ele>
        <time>2021-08-02T11:43:37.646Z</time>
      </trkpt>
      <trkpt lat="47.02511" lon="8.94476">
        <ele>862</ele>
        <time>2021-08-02T11:43:38.647Z</time>
      </trkpt>
      <trkpt lat="47.02511" lon="8.94477">
        <ele>862</ele>
        <time>2021-08-02T11:43:39.646Z</time>
      </trkpt>
      <trkpt lat="47.02512" lon="8.94476">
        <ele>861</ele>
        <time>2021-08-02T11:43:46.770Z</time>
      </trkpt>
      <trkpt lat="47.02513" lon="8.94476">
        <ele>861</ele>
        <time>2021-08-02T11:43:47.770Z</time>
      </trkpt>
      <trkpt lat="47.02514" lon="8.94476">
        <ele>860</ele>
        <time>2021-08-02T11:43:48.770Z</time>
      </trkpt>
      <trkpt lat="47.02514" lon="8.94476">
        <ele>860</ele>
        <time>2021-08-02T11:43:54.906Z</time>
      </trkpt>
      <trkpt lat="47.02514" lon="8.94477">
        <ele>859</ele>
        <time>2021-08-02T11:43:55.907Z</time>
      </trkpt>
      <trkpt lat="47.02514" lon="8.94477">
        <ele>859</ele>
        <time>2021-08-02T11:43:56.906Z</time>
      </trkpt>
      <trkpt lat="47.02519" lon="8.94471">
        <ele>856</ele>
        <time>2021-08-02T11:43:57.907Z</time>
      </trkpt>
      <trkpt lat="47.02519" lon="8.9447">
        <ele>856</ele>
        <time>2021-08-02T11:43:58.906Z</time>
      </trkpt>
      <trkpt lat="47.02519" lon="8.94469">
        <ele>856</ele>
        <time>2021-08-02T11:43:59.906Z</time>
      </trkpt>
      <trkpt lat="47.02519" lon="8.94468">
        <ele>856</ele>
        <time>2021-08-02T11:44:00.906Z</time>
      </trkpt>
      <trkpt lat="47.02518" lon="8.94468">
        <ele>856</ele>
        <time>2021-08-02T11:44:01.907Z</time>
      </trkpt>
      <trkpt lat="47.02518" lon="8.94467">
        <ele>855</ele>
        <time>2021-08-02T11:44:02.907Z</time>
      </trkpt>
      <trkpt lat="47.02519" lon="8.94467">
        <ele>855</ele>
        <time>2021-08-02T11:44:03.907Z</time>
      </trkpt>
      <trkpt lat="47.02519" lon="8.94468">
        <ele>854</ele>
        <time>2021-08-02T11:44:04.906Z</time>
      </trkpt>
      <trkpt lat="47.02519" lon="8.94469">
        <ele>854</ele>
        <time>2021-08-02T11:44:05.906Z</time>
      </trkpt>
      <trkpt lat="47.0252" lon="8.9447">
        <ele>854</ele>
        <time>2021-08-02T11:44:06.906Z</time>
      </trkpt>
      <trkpt lat="47.0252" lon="8.94471">
        <ele>853</ele>
        <time>2021-08-02T11:44:07.906Z</time>
      </trkpt>
      <trkpt lat="47.02514" lon="8.94471">
        <ele>853</ele>
        <time>2021-08-02T11:46:04.906Z</time>
      </trkpt>
      <trkpt lat="47.0251" lon="8.94477">
        <ele>853</ele>
        <time>2021-08-02T11:46:05.907Z</time>
      </trkpt>
      <trkpt lat="47.02507" lon="8.94482">
        <ele>853</ele>
        <time>2021-08-02T11:46:06.906Z</time>
      </trkpt>
      <trkpt lat="47.02516" lon="8.94477">
        <ele>853</ele>
        <time>2021-08-02T11:46:13.907Z</time>
      </trkpt>
      <trkpt lat="47.02516" lon="8.94476">
        <ele>853</ele>
        <time>2021-08-02T11:46:14.907Z</time>
      </trkpt>
      <trkpt lat="47.02517" lon="8.94475">
        <ele>853</ele>
        <time>2021-08-02T11:46:15.906Z</time>
      </trkpt>
      <trkpt lat="47.02517" lon="8.94475">
        <ele>852</ele>
        <time>2021-08-02T11:46:17.907Z</time>
      </trkpt>
      <trkpt lat="47.02517" lon="8.94477">
        <ele>852</ele>
        <time>2021-08-02T11:46:18.906Z</time>
      </trkpt>
      <trkpt lat="47.02518" lon="8.94478">
        <ele>851</ele>
        <time>2021-08-02T11:46:19.906Z</time>
      </trkpt>
      <trkpt lat="47.02518" lon="8.94479">
        <ele>851</ele>
        <time>2021-08-02T11:46:20.906Z</time>
      </trkpt>
      <trkpt lat="47.02518" lon="8.94482">
        <ele>851</ele>
        <time>2021-08-02T11:46:21.907Z</time>
      </trkpt>
      <trkpt lat="47.02519" lon="8.94481">
        <ele>850</ele>
        <time>2021-08-02T11:46:22.906Z</time>
      </trkpt>
      <trkpt lat="47.02519" lon="8.94481">
        <ele>850</ele>
        <time>2021-08-02T11:46:23.906Z</time>
      </trkpt>
      <trkpt lat="47.02519" lon="8.94481">
        <ele>850</ele>
        <time>2021-08-02T11:46:24.906Z</time>
      </trkpt>
      <trkpt lat="47.02518" lon="8.94483">
        <ele>850</ele>
        <time>2021-08-02T11:46:25.906Z</time>
      </trkpt>
      <trkpt lat="47.02516" lon="8.94485">
        <ele>850</ele>
        <time>2021-08-02T11:46:26.906Z</time>
      </trkpt>
      <trkpt lat="47.02515" lon="8.94486">
        <ele>850</ele>
        <time>2021-08-02T11:46:27.907Z</time>
      </trkpt>
      <trkpt lat="47.02514" lon="8.94489">
        <ele>850</ele>
        <time>2021-08-02T11:46:28.907Z</time>
      </trkpt>
      <trkpt lat="47.02512" lon="8.94491">
        <ele>850</ele>
        <time>2021-08-02T11:46:29.906Z</time>
      </trkpt>
      <trkpt lat="47.02511" lon="8.94494">
        <ele>850</ele>
        <time>2021-08-02T11:46:30.906Z</time>
      </trkpt>
      <trkpt lat="47.0251" lon="8.94495">
        <ele>850</ele>
        <time>2021-08-02T11:46:31.907Z</time>
      </trkpt>
      <trkpt lat="47.02509" lon="8.94496">
        <ele>850</ele>
        <time>2021-08-02T11:46:32.907Z</time>
      </trkpt>
      <trkpt lat="47.0251" lon="8.94495">
        <ele>850</ele>
        <time>2021-08-02T11:46:33.907Z</time>
      </trkpt>
      <trkpt lat="47.02511" lon="8.94492">
        <ele>850</ele>
        <time>2021-08-02T11:46:37.907Z</time>
      </trkpt>
      <trkpt lat="47.02512" lon="8.94493">
        <ele>850</ele>
        <time>2021-08-02T11:46:38.907Z</time>
      </trkpt>
      <trkpt lat="47.02512" lon="8.94493">
        <ele>850</ele>
        <time>2021-08-02T11:46:39.906Z</time>
      </trkpt>
      <trkpt lat="47.02512" lon="8.94493">
        <ele>850</ele>
        <time>2021-08-02T11:46:40.907Z</time>
      </trkpt>
      <trkpt lat="47.02512" lon="8.94494">
        <ele>849</ele>
        <time>2021-08-02T11:46:41.907Z</time>
      </trkpt>
      <trkpt lat="47.02512" lon="8.94495">
        <ele>849</ele>
        <time>2021-08-02T11:46:42.907Z</time>
      </trkpt>
      <trkpt lat="47.02512" lon="8.94495">
        <ele>849</ele>
        <time>2021-08-02T11:46:43.906Z</time>
      </trkpt>
      <trkpt lat="47.02512" lon="8.94495">
        <ele>849</ele>
        <time>2021-08-02T11:46:44.906Z</time>
      </trkpt>
      <trkpt lat="47.02511" lon="8.94499">
        <ele>849</ele>
        <time>2021-08-02T11:46:59.032Z</time>
      </trkpt>
      <trkpt lat="47.02511" lon="8.94499">
        <ele>849</ele>
        <time>2021-08-02T11:47:00.032Z</time>
      </trkpt>
      <trkpt lat="47.02511" lon="8.94499">
        <ele>849</ele>
        <time>2021-08-02T11:47:01.032Z</time>
      </trkpt>
      <trkpt lat="47.02511" lon="8.945">
        <ele>849</ele>
        <time>2021-08-02T11:47:02.032Z</time>
      </trkpt>
      <trkpt lat="47.0251" lon="8.945">
        <ele>849</ele>
        <time>2021-08-02T11:47:03.031Z</time>
      </trkpt>
      <trkpt lat="47.02511" lon="8.945">
        <ele>849</ele>
        <time>2021-08-02T11:47:04.032Z</time>
      </trkpt>
      <trkpt lat="47.02511" lon="8.945">
        <ele>849</ele>
        <time>2021-08-02T11:47:05.032Z</time>
      </trkpt>
      <trkpt lat="47.02511" lon="8.945">
        <ele>849</ele>
        <time>2021-08-02T11:47:06.032Z</time>
      </trkpt>
      <trkpt lat="47.02511" lon="8.945">
        <ele>849</ele>
        <time>2021-08-02T11:47:07.032Z</time>
      </trkpt>
      <trkpt lat="47.02511" lon="8.94499">
        <ele>848</ele>
        <time>2021-08-02T11:47:08.032Z</time>
      </trkpt>
      <trkpt lat="47.02512" lon="8.94497">
        <ele>848</ele>
        <time>2021-08-02T11:47:09.032Z</time>
      </trkpt>
      <trkpt lat="47.02512" lon="8.94495">
        <ele>848</ele>
        <time>2021-08-02T11:47:10.031Z</time>
      </trkpt>
      <trkpt lat="47.02513" lon="8.94492">
        <ele>848</ele>
        <time>2021-08-02T11:47:12.032Z</time>
      </trkpt>
      <trkpt lat="47.02513" lon="8.94492">
        <ele>848</ele>
        <time>2021-08-02T11:47:14.031Z</time>
      </trkpt>
      <trkpt lat="47.02513" lon="8.94493">
        <ele>848</ele>
        <time>2021-08-02T11:47:15.032Z</time>
      </trkpt>
      <trkpt lat="47.02513" lon="8.94493">
        <ele>847</ele>
        <time>2021-08-02T11:47:16.032Z</time>
      </trkpt>
      <trkpt lat="47.02516" lon="8.9449">
        <ele>847</ele>
        <time>2021-08-02T11:47:17.031Z</time>
      </trkpt>
      <trkpt lat="47.02517" lon="8.94487">
        <ele>847</ele>
        <time>2021-08-02T11:47:18.032Z</time>
      </trkpt>
      <trkpt lat="47.02518" lon="8.94485">
        <ele>847</ele>
        <time>2021-08-02T11:47:19.031Z</time>
      </trkpt>
      <trkpt lat="47.02518" lon="8.94485">
        <ele>847</ele>
        <time>2021-08-02T11:47:20.031Z</time>
      </trkpt>
      <trkpt lat="47.0252" lon="8.94483">
        <ele>846</ele>
        <time>2021-08-02T11:47:21.032Z</time>
      </trkpt>
      <trkpt lat="47.02521" lon="8.94482">
        <ele>846</ele>
        <time>2021-08-02T11:47:23.031Z</time>
      </trkpt>
      <trkpt lat="47.0252" lon="8.94485">
        <ele>846</ele>
        <time>2021-08-02T11:47:24.031Z</time>
      </trkpt>
      <trkpt lat="47.0252" lon="8.94486">
        <ele>846</ele>
        <time>2021-08-02T11:47:25.031Z</time>
      </trkpt>
      <trkpt lat="47.0252" lon="8.94486">
        <ele>846</ele>
        <time>2021-08-02T11:47:26.031Z</time>
      </trkpt>
      <trkpt lat="47.0252" lon="8.94484">
        <ele>845</ele>
        <time>2021-08-02T11:47:27.031Z</time>
      </trkpt>
      <trkpt lat="47.0252" lon="8.94482">
        <ele>845</ele>
        <time>2021-08-02T11:47:28.032Z</time>
      </trkpt>
      <trkpt lat="47.0252" lon="8.94479">
        <ele>844</ele>
        <time>2021-08-02T11:47:29.032Z</time>
      </trkpt>
      <trkpt lat="47.0252" lon="8.94476">
        <ele>844</ele>
        <time>2021-08-02T11:47:30.032Z</time>
      </trkpt>
      <trkpt lat="47.0252" lon="8.94472">
        <ele>844</ele>
        <time>2021-08-02T11:47:31.032Z</time>
      </trkpt>
      <trkpt lat="47.02521" lon="8.94469">
        <ele>843</ele>
        <time>2021-08-02T11:47:32.031Z</time>
      </trkpt>
      <trkpt lat="47.02522" lon="8.94466">
        <ele>843</ele>
        <time>2021-08-02T11:47:33.031Z</time>
      </trkpt>
      <trkpt lat="47.02523" lon="8.94465">
        <ele>842</ele>
        <time>2021-08-02T11:47:34.032Z</time>
      </trkpt>
      <trkpt lat="47.02523" lon="8.94465">
        <ele>842</ele>
        <time>2021-08-02T11:47:35.032Z</time>
      </trkpt>
      <trkpt lat="47.02523" lon="8.94464">
        <ele>842</ele>
        <time>2021-08-02T11:47:36.031Z</time>
      </trkpt>
      <trkpt lat="47.02521" lon="8.94471">
        <ele>840</ele>
        <time>2021-08-02T11:47:46.031Z</time>
      </trkpt>
      <trkpt lat="47.02521" lon="8.94471">
        <ele>839</ele>
        <time>2021-08-02T11:47:47.032Z</time>
      </trkpt>
      <trkpt lat="47.02521" lon="8.94471">
        <ele>839</ele>
        <time>2021-08-02T11:47:48.032Z</time>
      </trkpt>
      <trkpt lat="47.02521" lon="8.9447">
        <ele>839</ele>
        <time>2021-08-02T11:47:49.032Z</time>
      </trkpt>
      <trkpt lat="47.02522" lon="8.94471">
        <ele>839</ele>
        <time>2021-08-02T11:47:50.032Z</time>
      </trkpt>
      <trkpt lat="47.02522" lon="8.94468">
        <ele>839</ele>
        <time>2021-08-02T11:47:51.032Z</time>
      </trkpt>
      <trkpt lat="47.02523" lon="8.94465">
        <ele>839</ele>
        <time>2021-08-02T11:47:52.032Z</time>
      </trkpt>
      <trkpt lat="47.02524" lon="8.94465">
        <ele>839</ele>
        <time>2021-08-02T11:47:53.032Z</time>
      </trkpt>
      <trkpt lat="47.02525" lon="8.94463">
        <ele>839</ele>
        <time>2021-08-02T11:47:54.031Z</time>
      </trkpt>
      <trkpt lat="47.02526" lon="8.94462">
        <ele>839</ele>
        <time>2021-08-02T11:47:55.032Z</time>
      </trkpt>
      <trkpt lat="47.02526" lon="8.94462">
        <ele>839</ele>
        <time>2021-08-02T11:47:56.032Z</time>
      </trkpt>
      <trkpt lat="47.02526" lon="8.94463">
        <ele>839</ele>
        <time>2021-08-02T11:47:57.031Z</time>
      </trkpt>
      <trkpt lat="47.02526" lon="8.94465">
        <ele>839</ele>
        <time>2021-08-02T11:48:00.032Z</time>
      </trkpt>
      <trkpt lat="47.02527" lon="8.94464">
        <ele>839</ele>
        <time>2021-08-02T11:48:01.031Z</time>
      </trkpt>
      <trkpt lat="47.02526" lon="8.94464">
        <ele>839</ele>
        <time>2021-08-02T11:48:04.031Z</time>
      </trkpt>
      <trkpt lat="47.02525" lon="8.9446">
        <ele>839</ele>
        <time>2021-08-02T11:48:09.031Z</time>
      </trkpt>
      <trkpt lat="47.02538" lon="8.94436">
        <ele>838</ele>
        <time>2021-08-02T11:48:49.148Z</time>
      </trkpt>
      <trkpt lat="47.02538" lon="8.94436">
        <ele>838</ele>
        <time>2021-08-02T11:48:50.148Z</time>
      </trkpt>
      <trkpt lat="47.02538" lon="8.94432">
        <ele>838</ele>
        <time>2021-08-02T11:48:52.149Z</time>
      </trkpt>
      <trkpt lat="47.02538" lon="8.94433">
        <ele>838</ele>
        <time>2021-08-02T11:48:53.149Z</time>
      </trkpt>
      <trkpt lat="47.02537" lon="8.94432">
        <ele>837</ele>
        <time>2021-08-02T11:48:58.149Z</time>
      </trkpt>
      <trkpt lat="47.02535" lon="8.94427">
        <ele>836</ele>
        <time>2021-08-02T11:49:18.148Z</time>
      </trkpt>
      <trkpt lat="47.02535" lon="8.94427">
        <ele>837</ele>
        <time>2021-08-02T11:49:19.148Z</time>
      </trkpt>
      <trkpt lat="47.02535" lon="8.94428">
        <ele>837</ele>
        <time>2021-08-02T11:49:20.148Z</time>
      </trkpt>
      <trkpt lat="47.02534" lon="8.94429">
        <ele>837</ele>
        <time>2021-08-02T11:49:21.149Z</time>
      </trkpt>
      <trkpt lat="47.02534" lon="8.94429">
        <ele>837</ele>
        <time>2021-08-02T11:49:22.148Z</time>
      </trkpt>
      <trkpt lat="47.02534" lon="8.9443">
        <ele>837</ele>
        <time>2021-08-02T11:49:23.148Z</time>
      </trkpt>
      <trkpt lat="47.02534" lon="8.94431">
        <ele>837</ele>
        <time>2021-08-02T11:49:24.149Z</time>
      </trkpt>
      <trkpt lat="47.02533" lon="8.94432">
        <ele>837</ele>
        <time>2021-08-02T11:49:25.149Z</time>
      </trkpt>
      <trkpt lat="47.02533" lon="8.94433">
        <ele>837</ele>
        <time>2021-08-02T11:49:26.149Z</time>
      </trkpt>
      <trkpt lat="47.02533" lon="8.94434">
        <ele>837</ele>
        <time>2021-08-02T11:49:27.149Z</time>
      </trkpt>
      <trkpt lat="47.02533" lon="8.94435">
        <ele>837</ele>
        <time>2021-08-02T11:49:28.149Z</time>
      </trkpt>
      <trkpt lat="47.02532" lon="8.94436">
        <ele>837</ele>
        <time>2021-08-02T11:49:29.149Z</time>
      </trkpt>
      <trkpt lat="47.02531" lon="8.94443">
        <ele>837</ele>
        <time>2021-08-02T11:49:30.149Z</time>
      </trkpt>
      <trkpt lat="47.02531" lon="8.9445">
        <ele>837</ele>
        <time>2021-08-02T11:49:31.149Z</time>
      </trkpt>
      <trkpt lat="47.02529" lon="8.94457">
        <ele>837</ele>
        <time>2021-08-02T11:49:32.149Z</time>
      </trkpt>
      <trkpt lat="47.0253" lon="8.94462">
        <ele>837</ele>
        <time>2021-08-02T11:49:33.148Z</time>
      </trkpt>
      <trkpt lat="47.02528" lon="8.94468">
        <ele>836</ele>
        <time>2021-08-02T11:49:34.149Z</time>
      </trkpt>
      <trkpt lat="47.02527" lon="8.94471">
        <ele>836</ele>
        <time>2021-08-02T11:49:35.149Z</time>
      </trkpt>
      <trkpt lat="47.02525" lon="8.94473">
        <ele>836</ele>
        <time>2021-08-02T11:49:36.148Z</time>
      </trkpt>
      <trkpt lat="47.02526" lon="8.94475">
        <ele>836</ele>
        <time>2021-08-02T11:49:37.149Z</time>
      </trkpt>
      <trkpt lat="47.02527" lon="8.94478">
        <ele>836</ele>
        <time>2021-08-02T11:49:38.149Z</time>
      </trkpt>
      <trkpt lat="47.02527" lon="8.94479">
        <ele>837</ele>
        <time>2021-08-02T11:49:40.148Z</time>
      </trkpt>
      <trkpt lat="47.02527" lon="8.9448">
        <ele>837</ele>
        <time>2021-08-02T11:49:41.148Z</time>
      </trkpt>
      <trkpt lat="47.02521" lon="8.94495">
        <ele>839</ele>
        <time>2021-08-02T11:53:24.060Z</time>
      </trkpt>
      <trkpt lat="47.0252" lon="8.94489">
        <ele>841</ele>
        <time>2021-08-02T11:53:25.060Z</time>
      </trkpt>
      <trkpt lat="47.02522" lon="8.94492">
        <ele>843</ele>
        <time>2021-08-02T11:53:26.060Z</time>
      </trkpt>
      <trkpt lat="47.0253" lon="8.94491">
        <ele>846</ele>
        <time>2021-08-02T11:53:28.060Z</time>
      </trkpt>
      <trkpt lat="47.02532" lon="8.94489">
        <ele>848</ele>
        <time>2021-08-02T11:53:29.060Z</time>
      </trkpt>
      <trkpt lat="47.02532" lon="8.94487">
        <ele>849</ele>
        <time>2021-08-02T11:53:30.060Z</time>
      </trkpt>
      <trkpt lat="47.02532" lon="8.94483">
        <ele>850</ele>
        <time>2021-08-02T11:53:31.060Z</time>
      </trkpt>
      <trkpt lat="47.02533" lon="8.9448">
        <ele>852</ele>
        <time>2021-08-02T11:53:32.060Z</time>
      </trkpt>
      <trkpt lat="47.02531" lon="8.94477">
        <ele>852</ele>
        <time>2021-08-02T11:53:33.060Z</time>
      </trkpt>
      <trkpt lat="47.0253" lon="8.94475">
        <ele>853</ele>
        <time>2021-08-02T11:53:34.060Z</time>
      </trkpt>
      <trkpt lat="47.02527" lon="8.94475">
        <ele>854</ele>
        <time>2021-08-02T11:53:35.060Z</time>
      </trkpt>
      <trkpt lat="47.02523" lon="8.94475">
        <ele>854</ele>
        <time>2021-08-02T11:53:36.060Z</time>
      </trkpt>
      <trkpt lat="47.02519" lon="8.94478">
        <ele>855</ele>
        <time>2021-08-02T11:53:37.060Z</time>
      </trkpt>
      <trkpt lat="47.02516" lon="8.94479">
        <ele>856</ele>
        <time>2021-08-02T11:53:38.059Z</time>
      </trkpt>
      <trkpt lat="47.02513" lon="8.94481">
        <ele>856</ele>
        <time>2021-08-02T11:53:39.059Z</time>
      </trkpt>
      <trkpt lat="47.02513" lon="8.94482">
        <ele>856</ele>
        <time>2021-08-02T11:53:40.060Z</time>
      </trkpt>
      <trkpt lat="47.02512" lon="8.94483">
        <ele>856</ele>
        <time>2021-08-02T11:53:41.059Z</time>
      </trkpt>
      <trkpt lat="47.02511" lon="8.94484">
        <ele>856</ele>
        <time>2021-08-02T11:53:42.060Z</time>
      </trkpt>
      <trkpt lat="47.02511" lon="8.94485">
        <ele>856</ele>
        <time>2021-08-02T11:53:43.059Z</time>
      </trkpt>
      <trkpt lat="47.0251" lon="8.94485">
        <ele>856</ele>
        <time>2021-08-02T11:53:44.059Z</time>
      </trkpt>
      <trkpt lat="47.02511" lon="8.94485">
        <ele>856</ele>
        <time>2021-08-02T11:53:47.144Z</time>
      </trkpt>
      <trkpt lat="47.02511" lon="8.94485">
        <ele>856</ele>
        <time>2021-08-02T11:53:48.144Z</time>
      </trkpt>
      <trkpt lat="47.02511" lon="8.94485">
        <ele>856</ele>
        <time>2021-08-02T11:53:49.144Z</time>
      </trkpt>
      <trkpt lat="47.02512" lon="8.94485">
        <ele>856</ele>
        <time>2021-08-02T11:53:50.145Z</time>
      </trkpt>
      <trkpt lat="47.02522" lon="8.94472">
        <ele>854</ele>
        <time>2021-08-02T11:53:51.147Z</time>
      </trkpt>
      <trkpt lat="47.02522" lon="8.94472">
        <ele>854</ele>
        <time>2021-08-02T11:53:52.147Z</time>
      </trkpt>
      <trkpt lat="47.02521" lon="8.94471">
        <ele>854</ele>
        <time>2021-08-02T11:53:53.146Z</time>
      </trkpt>
      <trkpt lat="47.02519" lon="8.94472">
        <ele>852</ele>
        <time>2021-08-02T11:53:54.147Z</time>
      </trkpt>
      <trkpt lat="47.02518" lon="8.94472">
        <ele>851</ele>
        <time>2021-08-02T11:53:55.146Z</time>
      </trkpt>
      <trkpt lat="47.02517" lon="8.94473">
        <ele>851</ele>
        <time>2021-08-02T11:53:56.146Z</time>
      </trkpt>
      <trkpt lat="47.02517" lon="8.94473">
        <ele>850</ele>
        <time>2021-08-02T11:53:57.146Z</time>
      </trkpt>
      <trkpt lat="47.02517" lon="8.94473">
        <ele>850</ele>
        <time>2021-08-02T11:53:58.146Z</time>
      </trkpt>
      <trkpt lat="47.02517" lon="8.94473">
        <ele>850</ele>
        <time>2021-08-02T11:53:59.146Z</time>
      </trkpt>
      <trkpt lat="47.02518" lon="8.94472">
        <ele>849</ele>
        <time>2021-08-02T11:54:00.147Z</time>
      </trkpt>
      <trkpt lat="47.02518" lon="8.94472">
        <ele>848</ele>
        <time>2021-08-02T11:54:01.146Z</time>
      </trkpt>
      <trkpt lat="47.02518" lon="8.94472">
        <ele>848</ele>
        <time>2021-08-02T11:54:02.147Z</time>
      </trkpt>
      <trkpt lat="47.02518" lon="8.94472">
        <ele>848</ele>
        <time>2021-08-02T11:54:03.146Z</time>
      </trkpt>
      <trkpt lat="47.02519" lon="8.94472">
        <ele>848</ele>
        <time>2021-08-02T11:54:04.146Z</time>
      </trkpt>
      <trkpt lat="47.02519" lon="8.94471">
        <ele>848</ele>
        <time>2021-08-02T11:54:05.147Z</time>
      </trkpt>
      <trkpt lat="47.02519" lon="8.94472">
        <ele>848</ele>
        <time>2021-08-02T11:54:06.147Z</time>
      </trkpt>
      <trkpt lat="47.0252" lon="8.94477">
        <ele>852</ele>
        <time>2021-08-02T11:54:07.148Z</time>
      </trkpt>
      <trkpt lat="47.0252" lon="8.94478">
        <ele>852</ele>
        <time>2021-08-02T11:54:08.148Z</time>
      </trkpt>
      <trkpt lat="47.02521" lon="8.94478">
        <ele>852</ele>
        <time>2021-08-02T11:54:09.147Z</time>
      </trkpt>
      <trkpt lat="47.02521" lon="8.94476">
        <ele>852</ele>
        <time>2021-08-02T11:54:10.148Z</time>
      </trkpt>
      <trkpt lat="47.02521" lon="8.94475">
        <ele>852</ele>
        <time>2021-08-02T11:54:11.147Z</time>
      </trkpt>
      <trkpt lat="47.02521" lon="8.94473">
        <ele>852</ele>
        <time>2021-08-02T11:54:12.148Z</time>
      </trkpt>
      <trkpt lat="47.02522" lon="8.94472">
        <ele>852</ele>
        <time>2021-08-02T11:54:13.148Z</time>
      </trkpt>
      <trkpt lat="47.02522" lon="8.94471">
        <ele>852</ele>
        <time>2021-08-02T11:54:14.148Z</time>
      </trkpt>
      <trkpt lat="47.02522" lon="8.9447">
        <ele>852</ele>
        <time>2021-08-02T11:54:15.147Z</time>
      </trkpt>
      <trkpt lat="47.02522" lon="8.9447">
        <ele>851</ele>
        <time>2021-08-02T11:54:16.148Z</time>
      </trkpt>
      <trkpt lat="47.02521" lon="8.94469">
        <ele>851</ele>
        <time>2021-08-02T11:54:17.148Z</time>
      </trkpt>
      <trkpt lat="47.0252" lon="8.94468">
        <ele>850</ele>
        <time>2021-08-02T11:54:18.147Z</time>
      </trkpt>
      <trkpt lat="47.02519" lon="8.94467">
        <ele>850</ele>
        <time>2021-08-02T11:54:19.148Z</time>
      </trkpt>
      <trkpt lat="47.02519" lon="8.94466">
        <ele>850</ele>
        <time>2021-08-02T11:54:20.147Z</time>
      </trkpt>
      <trkpt lat="47.02518" lon="8.94465">
        <ele>850</ele>
        <time>2021-08-02T11:54:21.148Z</time>
      </trkpt>
      <trkpt lat="47.02518" lon="8.94463">
        <ele>850</ele>
        <time>2021-08-02T11:54:22.147Z</time>
      </trkpt>
      <trkpt lat="47.02517" lon="8.94462">
        <ele>850</ele>
        <time>2021-08-02T11:54:23.147Z</time>
      </trkpt>
      <trkpt lat="47.02516" lon="8.94462">
        <ele>850</ele>
        <time>2021-08-02T11:54:24.148Z</time>
      </trkpt>
      <trkpt lat="47.02515" lon="8.94461">
        <ele>850</ele>
        <time>2021-08-02T11:54:25.148Z</time>
      </trkpt>
      <trkpt lat="47.02515" lon="8.9446">
        <ele>850</ele>
        <time>2021-08-02T11:54:26.147Z</time>
      </trkpt>
      <trkpt lat="47.02514" lon="8.94459">
        <ele>850</ele>
        <time>2021-08-02T11:54:27.148Z</time>
      </trkpt>
      <trkpt lat="47.02513" lon="8.94458">
        <ele>849</ele>
        <time>2021-08-02T11:54:28.147Z</time>
      </trkpt>
      <trkpt lat="47.02513" lon="8.94456">
        <ele>849</ele>
        <time>2021-08-02T11:54:29.147Z</time>
      </trkpt>
      <trkpt lat="47.02512" lon="8.94456">
        <ele>848</ele>
        <time>2021-08-02T11:54:30.148Z</time>
      </trkpt>
      <trkpt lat="47.02511" lon="8.94455">
        <ele>848</ele>
        <time>2021-08-02T11:54:31.147Z</time>
      </trkpt>
      <trkpt lat="47.02511" lon="8.94454">
        <ele>847</ele>
        <time>2021-08-02T11:54:32.148Z</time>
      </trkpt>
      <trkpt lat="47.02511" lon="8.94452">
        <ele>847</ele>
        <time>2021-08-02T11:54:33.147Z</time>
      </trkpt>
      <trkpt lat="47.02511" lon="8.94451">
        <ele>847</ele>
        <time>2021-08-02T11:54:34.148Z</time>
      </trkpt>
      <trkpt lat="47.02511" lon="8.9445">
        <ele>847</ele>
        <time>2021-08-02T11:54:35.148Z</time>
      </trkpt>
      <trkpt lat="47.02511" lon="8.94449">
        <ele>848</ele>
        <time>2021-08-02T11:54:36.147Z</time>
      </trkpt>
      <trkpt lat="47.02511" lon="8.94449">
        <ele>848</ele>
        <time>2021-08-02T11:54:37.148Z</time>
      </trkpt>
      <trkpt lat="47.02511" lon="8.94449">
        <ele>848</ele>
        <time>2021-08-02T11:54:38.148Z</time>
      </trkpt>
      <trkpt lat="47.02511" lon="8.94451">
        <ele>847</ele>
        <time>2021-08-02T11:54:39.148Z</time>
      </trkpt>
      <trkpt lat="47.02511" lon="8.94453">
        <ele>847</ele>
        <time>2021-08-02T11:54:40.147Z</time>
      </trkpt>
      <trkpt lat="47.02511" lon="8.94454">
        <ele>847</ele>
        <time>2021-08-02T11:54:41.148Z</time>
      </trkpt>
      <trkpt lat="47.02511" lon="8.94455">
        <ele>846</ele>
        <time>2021-08-02T11:54:42.148Z</time>
      </trkpt>
      <trkpt lat="47.02511" lon="8.94456">
        <ele>846</ele>
        <time>2021-08-02T11:54:43.148Z</time>
      </trkpt>
      <trkpt lat="47.02511" lon="8.94457">
        <ele>845</ele>
        <time>2021-08-02T11:54:44.147Z</time>
      </trkpt>
      <trkpt lat="47.02511" lon="8.94459">
        <ele>845</ele>
        <time>2021-08-02T11:54:45.148Z</time>
      </trkpt>
      <trkpt lat="47.0251" lon="8.9446">
        <ele>844</ele>
        <time>2021-08-02T11:54:46.147Z</time>
      </trkpt>
      <trkpt lat="47.02509" lon="8.94461">
        <ele>844</ele>
        <time>2021-08-02T11:54:47.147Z</time>
      </trkpt>
      <trkpt lat="47.02509" lon="8.94463">
        <ele>844</ele>
        <time>2021-08-02T11:54:48.148Z</time>
      </trkpt>
      <trkpt lat="47.02508" lon="8.94464">
        <ele>844</ele>
        <time>2021-08-02T11:54:49.148Z</time>
      </trkpt>
      <trkpt lat="47.02508" lon="8.94465">
        <ele>844</ele>
        <time>2021-08-02T11:54:50.147Z</time>
      </trkpt>
      <trkpt lat="47.02507" lon="8.94467">
        <ele>844</ele>
        <time>2021-08-02T11:54:51.148Z</time>
      </trkpt>
      <trkpt lat="47.02507" lon="8.94468">
        <ele>844</ele>
        <time>2021-08-02T11:54:52.148Z</time>
      </trkpt>
      <trkpt lat="47.02506" lon="8.94469">
        <ele>844</ele>
        <time>2021-08-02T11:54:53.148Z</time>
      </trkpt>
      <trkpt lat="47.02506" lon="8.94469">
        <ele>844</ele>
        <time>2021-08-02T11:54:54.147Z</time>
      </trkpt>
      <trkpt lat="47.02505" lon="8.94471">
        <ele>844</ele>
        <time>2021-08-02T11:54:55.147Z</time>
      </trkpt>
      <trkpt lat="47.02504" lon="8.94474">
        <ele>845</ele>
        <time>2021-08-02T11:54:56.147Z</time>
      </trkpt>
      <trkpt lat="47.02502" lon="8.94477">
        <ele>845</ele>
        <time>2021-08-02T11:54:57.148Z</time>
      </trkpt>
      <trkpt lat="47.02501" lon="8.94478">
        <ele>846</ele>
        <time>2021-08-02T11:54:58.148Z</time>
      </trkpt>
      <trkpt lat="47.02502" lon="8.94479">
        <ele>847</ele>
        <time>2021-08-02T11:54:59.147Z</time>
      </trkpt>
      <trkpt lat="47.02502" lon="8.9448">
        <ele>847</ele>
        <time>2021-08-02T11:55:00.147Z</time>
      </trkpt>
      <trkpt lat="47.02501" lon="8.94481">
        <ele>848</ele>
        <time>2021-08-02T11:55:01.147Z</time>
      </trkpt>
      <trkpt lat="47.025" lon="8.94483">
        <ele>848</ele>
        <time>2021-08-02T11:55:02.147Z</time>
      </trkpt>
      <trkpt lat="47.02499" lon="8.94484">
        <ele>848</ele>
        <time>2021-08-02T11:55:03.148Z</time>
      </trkpt>
      <trkpt lat="47.02498" lon="8.94486">
        <ele>849</ele>
        <time>2021-08-02T11:55:04.147Z</time>
      </trkpt>
      <trkpt lat="47.02498" lon="8.94487">
        <ele>849</ele>
        <time>2021-08-02T11:55:05.147Z</time>
      </trkpt>
      <trkpt lat="47.02498" lon="8.94487">
        <ele>850</ele>
        <time>2021-08-02T11:55:06.147Z</time>
      </trkpt>
      <trkpt lat="47.02497" lon="8.94488">
        <ele>850</ele>
        <time>2021-08-02T11:55:07.148Z</time>
      </trkpt>
      <trkpt lat="47.02496" lon="8.94488">
        <ele>850</ele>
        <time>2021-08-02T11:55:08.147Z</time>
      </trkpt>
      <trkpt lat="47.02495" lon="8.94489">
        <ele>851</ele>
        <time>2021-08-02T11:55:09.147Z</time>
      </trkpt>
      <trkpt lat="47.02494" lon="8.9449">
        <ele>851</ele>
        <time>2021-08-02T11:55:10.147Z</time>
      </trkpt>
      <trkpt lat="47.02493" lon="8.9449">
        <ele>851</ele>
        <time>2021-08-02T11:55:11.147Z</time>
      </trkpt>
      <trkpt lat="47.02492" lon="8.94491">
        <ele>851</ele>
        <time>2021-08-02T11:55:12.147Z</time>
      </trkpt>
      <trkpt lat="47.02491" lon="8.94491">
        <ele>851</ele>
        <time>2021-08-02T11:55:13.148Z</time>
      </trkpt>
      <trkpt lat="47.0249" lon="8.94492">
        <ele>852</ele>
        <time>2021-08-02T11:55:14.147Z</time>
      </trkpt>
      <trkpt lat="47.02489" lon="8.94493">
        <ele>851</ele>
        <time>2021-08-02T11:55:15.148Z</time>
      </trkpt>
      <trkpt lat="47.02488" lon="8.94494">
        <ele>851</ele>
        <time>2021-08-02T11:55:16.147Z</time>
      </trkpt>
      <trkpt lat="47.02487" lon="8.94496">
        <ele>851</ele>
        <time>2021-08-02T11:55:17.148Z</time>
      </trkpt>
      <trkpt lat="47.02486" lon="8.94496">
        <ele>850</ele>
        <time>2021-08-02T11:55:18.148Z</time>
      </trkpt>
      <trkpt lat="47.02486" lon="8.94496">
        <ele>850</ele>
        <time>2021-08-02T11:55:19.147Z</time>
      </trkpt>
      <trkpt lat="47.02486" lon="8.94496">
        <ele>850</ele>
        <time>2021-08-02T11:55:20.147Z</time>
      </trkpt>
      <trkpt lat="47.02485" lon="8.94497">
        <ele>849</ele>
        <time>2021-08-02T11:55:21.147Z</time>
      </trkpt>
      <trkpt lat="47.02485" lon="8.94497">
        <ele>849</ele>
        <time>2021-08-02T11:55:22.148Z</time>
      </trkpt>
      <trkpt lat="47.02484" lon="8.94498">
        <ele>849</ele>
        <time>2021-08-02T11:55:23.147Z</time>
      </trkpt>
      <trkpt lat="47.02483" lon="8.94499">
        <ele>849</ele>
        <time>2021-08-02T11:55:24.147Z</time>
      </trkpt>
      <trkpt lat="47.02482" lon="8.945">
        <ele>849</ele>
        <time>2021-08-02T11:55:25.147Z</time>
      </trkpt>
      <trkpt lat="47.02481" lon="8.945">
        <ele>850</ele>
        <time>2021-08-02T11:55:26.148Z</time>
      </trkpt>
      <trkpt lat="47.0248" lon="8.94501">
        <ele>850</ele>
        <time>2021-08-02T11:55:27.147Z</time>
      </trkpt>
      <trkpt lat="47.02479" lon="8.94502">
        <ele>850</ele>
        <time>2021-08-02T11:55:28.148Z</time>
      </trkpt>
      <trkpt lat="47.02478" lon="8.94502">
        <ele>850</ele>
        <time>2021-08-02T11:55:29.147Z</time>
      </trkpt>
      <trkpt lat="47.02477" lon="8.94503">
        <ele>851</ele>
        <time>2021-08-02T11:55:30.148Z</time>
      </trkpt>
      <trkpt lat="47.02476" lon="8.94504">
        <ele>851</ele>
        <time>2021-08-02T11:55:31.147Z</time>
      </trkpt>
      <trkpt lat="47.02475" lon="8.94504">
        <ele>851</ele>
        <time>2021-08-02T11:55:32.148Z</time>
      </trkpt>
      <trkpt lat="47.02474" lon="8.94505">
        <ele>851</ele>
        <time>2021-08-02T11:55:33.148Z</time>
      </trkpt>
      <trkpt lat="47.02474" lon="8.94505">
        <ele>851</ele>
        <time>2021-08-02T11:55:34.147Z</time>
      </trkpt>
      <trkpt lat="47.02472" lon="8.94505">
        <ele>851</ele>
        <time>2021-08-02T11:55:35.147Z</time>
      </trkpt>
      <trkpt lat="47.02471" lon="8.94506">
        <ele>851</ele>
        <time>2021-08-02T11:55:36.147Z</time>
      </trkpt>
      <trkpt lat="47.0247" lon="8.94507">
        <ele>851</ele>
        <time>2021-08-02T11:55:37.148Z</time>
      </trkpt>
      <trkpt lat="47.02469" lon="8.94508">
        <ele>851</ele>
        <time>2021-08-02T11:55:38.148Z</time>
      </trkpt>
      <trkpt lat="47.02467" lon="8.94509">
        <ele>851</ele>
        <time>2021-08-02T11:55:39.148Z</time>
      </trkpt>
      <trkpt lat="47.02466" lon="8.94509">
        <ele>851</ele>
        <time>2021-08-02T11:55:40.147Z</time>
      </trkpt>
      <trkpt lat="47.02465" lon="8.9451">
        <ele>852</ele>
        <time>2021-08-02T11:55:41.147Z</time>
      </trkpt>
      <trkpt lat="47.02464" lon="8.94511">
        <ele>852</ele>
        <time>2021-08-02T11:55:42.147Z</time>
      </trkpt>
      <trkpt lat="47.02463" lon="8.94511">
        <ele>853</ele>
        <time>2021-08-02T11:55:43.148Z</time>
      </trkpt>
      <trkpt lat="47.02462" lon="8.94512">
        <ele>853</ele>
        <time>2021-08-02T11:55:44.147Z</time>
      </trkpt>
      <trkpt lat="47.0246" lon="8.94513">
        <ele>854</ele>
        <time>2021-08-02T11:55:45.147Z</time>
      </trkpt>
      <trkpt lat="47.02459" lon="8.94513">
        <ele>854</ele>
        <time>2021-08-02T11:55:46.147Z</time>
      </trkpt>
      <trkpt lat="47.02458" lon="8.94514">
        <ele>855</ele>
        <time>2021-08-02T11:55:47.148Z</time>
      </trkpt>
      <trkpt lat="47.02457" lon="8.94515">
        <ele>855</ele>
        <time>2021-08-02T11:55:48.147Z</time>
      </trkpt>
      <trkpt lat="47.02456" lon="8.94515">
        <ele>855</ele>
        <time>2021-08-02T11:55:49.147Z</time>
      </trkpt>
      <trkpt lat="47.02455" lon="8.94516">
        <ele>855</ele>
        <time>2021-08-02T11:55:50.147Z</time>
      </trkpt>
      <trkpt lat="47.02452" lon="8.94519">
        <ele>855</ele>
        <time>2021-08-02T11:55:51.147Z</time>
      </trkpt>
      <trkpt lat="47.0245" lon="8.94521">
        <ele>855</ele>
        <time>2021-08-02T11:55:52.148Z</time>
      </trkpt>
      <trkpt lat="47.02448" lon="8.94522">
        <ele>855</ele>
        <time>2021-08-02T11:55:53.147Z</time>
      </trkpt>
      <trkpt lat="47.02447" lon="8.94524">
        <ele>855</ele>
        <time>2021-08-02T11:55:54.147Z</time>
      </trkpt>
      <trkpt lat="47.02445" lon="8.94526">
        <ele>856</ele>
        <time>2021-08-02T11:55:55.147Z</time>
      </trkpt>
      <trkpt lat="47.02443" lon="8.94527">
        <ele>856</ele>
        <time>2021-08-02T11:55:56.147Z</time>
      </trkpt>
      <trkpt lat="47.02442" lon="8.94528">
        <ele>856</ele>
        <time>2021-08-02T11:55:57.147Z</time>
      </trkpt>
      <trkpt lat="47.0244" lon="8.94529">
        <ele>856</ele>
        <time>2021-08-02T11:55:58.147Z</time>
      </trkpt>
      <trkpt lat="47.02439" lon="8.9453">
        <ele>857</ele>
        <time>2021-08-02T11:55:59.147Z</time>
      </trkpt>
      <trkpt lat="47.02438" lon="8.94531">
        <ele>857</ele>
        <time>2021-08-02T11:56:00.147Z</time>
      </trkpt>
      <trkpt lat="47.02436" lon="8.94531">
        <ele>857</ele>
        <time>2021-08-02T11:56:01.147Z</time>
      </trkpt>
      <trkpt lat="47.02436" lon="8.9453">
        <ele>857</ele>
        <time>2021-08-02T11:56:02.147Z</time>
      </trkpt>
      <trkpt lat="47.02435" lon="8.94529">
        <ele>857</ele>
        <time>2021-08-02T11:56:03.147Z</time>
      </trkpt>
      <trkpt lat="47.02434" lon="8.94529">
        <ele>857</ele>
        <time>2021-08-02T11:56:04.147Z</time>
      </trkpt>
      <trkpt lat="47.02432" lon="8.9453">
        <ele>857</ele>
        <time>2021-08-02T11:56:05.147Z</time>
      </trkpt>
      <trkpt lat="47.02431" lon="8.9453">
        <ele>857</ele>
        <time>2021-08-02T11:56:06.147Z</time>
      </trkpt>
      <trkpt lat="47.0243" lon="8.9453">
        <ele>858</ele>
        <time>2021-08-02T11:56:07.147Z</time>
      </trkpt>
      <trkpt lat="47.02429" lon="8.94529">
        <ele>858</ele>
        <time>2021-08-02T11:56:08.148Z</time>
      </trkpt>
      <trkpt lat="47.02428" lon="8.94529">
        <ele>858</ele>
        <time>2021-08-02T11:56:09.147Z</time>
      </trkpt>
      <trkpt lat="47.02426" lon="8.94529">
        <ele>858</ele>
        <time>2021-08-02T11:56:10.148Z</time>
      </trkpt>
      <trkpt lat="47.02425" lon="8.94528">
        <ele>858</ele>
        <time>2021-08-02T11:56:11.147Z</time>
      </trkpt>
      <trkpt lat="47.02424" lon="8.94529">
        <ele>858</ele>
        <time>2021-08-02T11:56:12.148Z</time>
      </trkpt>
      <trkpt lat="47.02422" lon="8.94529">
        <ele>858</ele>
        <time>2021-08-02T11:56:13.148Z</time>
      </trkpt>
      <trkpt lat="47.02422" lon="8.94528">
        <ele>858</ele>
        <time>2021-08-02T11:56:14.148Z</time>
      </trkpt>
      <trkpt lat="47.02421" lon="8.94528">
        <ele>858</ele>
        <time>2021-08-02T11:56:15.148Z</time>
      </trkpt>
      <trkpt lat="47.0242" lon="8.94528">
        <ele>858</ele>
        <time>2021-08-02T11:56:16.148Z</time>
      </trkpt>
      <trkpt lat="47.02419" lon="8.94528">
        <ele>858</ele>
        <time>2021-08-02T11:56:17.148Z</time>
      </trkpt>
      <trkpt lat="47.02419" lon="8.94528">
        <ele>858</ele>
        <time>2021-08-02T11:56:18.147Z</time>
      </trkpt>
      <trkpt lat="47.02418" lon="8.94528">
        <ele>858</ele>
        <time>2021-08-02T11:56:19.148Z</time>
      </trkpt>
      <trkpt lat="47.02417" lon="8.94528">
        <ele>858</ele>
        <time>2021-08-02T11:56:20.148Z</time>
      </trkpt>
      <trkpt lat="47.02416" lon="8.94528">
        <ele>859</ele>
        <time>2021-08-02T11:56:21.147Z</time>
      </trkpt>
      <trkpt lat="47.02415" lon="8.94529">
        <ele>859</ele>
        <time>2021-08-02T11:56:22.148Z</time>
      </trkpt>
      <trkpt lat="47.02414" lon="8.94528">
        <ele>859</ele>
        <time>2021-08-02T11:56:23.147Z</time>
      </trkpt>
      <trkpt lat="47.02412" lon="8.94527">
        <ele>859</ele>
        <time>2021-08-02T11:56:24.147Z</time>
      </trkpt>
      <trkpt lat="47.02411" lon="8.94527">
        <ele>859</ele>
        <time>2021-08-02T11:56:25.147Z</time>
      </trkpt>
      <trkpt lat="47.0241" lon="8.94527">
        <ele>859</ele>
        <time>2021-08-02T11:56:26.148Z</time>
      </trkpt>
      <trkpt lat="47.02409" lon="8.94528">
        <ele>859</ele>
        <time>2021-08-02T11:56:27.148Z</time>
      </trkpt>
      <trkpt lat="47.02408" lon="8.94528">
        <ele>859</ele>
        <time>2021-08-02T11:56:28.148Z</time>
      </trkpt>
      <trkpt lat="47.02407" lon="8.94528">
        <ele>859</ele>
        <time>2021-08-02T11:56:29.147Z</time>
      </trkpt>
      <trkpt lat="47.02406" lon="8.94527">
        <ele>859</ele>
        <time>2021-08-02T11:56:30.147Z</time>
      </trkpt>
      <trkpt lat="47.02406" lon="8.94526">
        <ele>860</ele>
        <time>2021-08-02T11:56:31.148Z</time>
      </trkpt>
      <trkpt lat="47.02404" lon="8.94525">
        <ele>860</ele>
        <time>2021-08-02T11:56:32.148Z</time>
      </trkpt>
      <trkpt lat="47.02403" lon="8.94525">
        <ele>860</ele>
        <time>2021-08-02T11:56:33.147Z</time>
      </trkpt>
      <trkpt lat="47.02402" lon="8.94523">
        <ele>861</ele>
        <time>2021-08-02T11:56:34.148Z</time>
      </trkpt>
      <trkpt lat="47.02401" lon="8.94522">
        <ele>861</ele>
        <time>2021-08-02T11:56:35.147Z</time>
      </trkpt>
      <trkpt lat="47.02399" lon="8.94521">
        <ele>861</ele>
        <time>2021-08-02T11:56:36.147Z</time>
      </trkpt>
      <trkpt lat="47.02398" lon="8.9452">
        <ele>862</ele>
        <time>2021-08-02T11:56:37.147Z</time>
      </trkpt>
      <trkpt lat="47.02397" lon="8.94519">
        <ele>862</ele>
        <time>2021-08-02T11:56:38.148Z</time>
      </trkpt>
      <trkpt lat="47.02396" lon="8.94519">
        <ele>862</ele>
        <time>2021-08-02T11:56:39.147Z</time>
      </trkpt>
      <trkpt lat="47.02395" lon="8.94518">
        <ele>862</ele>
        <time>2021-08-02T11:56:40.147Z</time>
      </trkpt>
      <trkpt lat="47.02395" lon="8.94518">
        <ele>862</ele>
        <time>2021-08-02T11:56:41.147Z</time>
      </trkpt>
      <trkpt lat="47.02393" lon="8.94518">
        <ele>862</ele>
        <time>2021-08-02T11:56:42.148Z</time>
      </trkpt>
      <trkpt lat="47.02392" lon="8.94518">
        <ele>862</ele>
        <time>2021-08-02T11:56:43.148Z</time>
      </trkpt>
      <trkpt lat="47.0239" lon="8.94518">
        <ele>862</ele>
        <time>2021-08-02T11:56:44.147Z</time>
      </trkpt>
      <trkpt lat="47.02389" lon="8.94518">
        <ele>862</ele>
        <time>2021-08-02T11:56:45.148Z</time>
      </trkpt>
      <trkpt lat="47.02388" lon="8.94518">
        <ele>861</ele>
        <time>2021-08-02T11:56:46.147Z</time>
      </trkpt>
      <trkpt lat="47.02387" lon="8.94519">
        <ele>861</ele>
        <time>2021-08-02T11:56:47.147Z</time>
      </trkpt>
      <trkpt lat="47.02385" lon="8.9452">
        <ele>861</ele>
        <time>2021-08-02T11:56:50.269Z</time>
      </trkpt>
      <trkpt lat="47.02384" lon="8.94521">
        <ele>860</ele>
        <time>2021-08-02T11:56:51.269Z</time>
      </trkpt>
      <trkpt lat="47.02383" lon="8.94522">
        <ele>860</ele>
        <time>2021-08-02T11:56:52.269Z</time>
      </trkpt>
      <trkpt lat="47.02382" lon="8.94523">
        <ele>860</ele>
        <time>2021-08-02T11:56:53.269Z</time>
      </trkpt>
      <trkpt lat="47.02381" lon="8.94524">
        <ele>860</ele>
        <time>2021-08-02T11:56:54.269Z</time>
      </trkpt>
      <trkpt lat="47.0238" lon="8.94525">
        <ele>859</ele>
        <time>2021-08-02T11:56:55.269Z</time>
      </trkpt>
      <trkpt lat="47.02379" lon="8.94527">
        <ele>859</ele>
        <time>2021-08-02T11:56:56.269Z</time>
      </trkpt>
      <trkpt lat="47.02377" lon="8.94528">
        <ele>858</ele>
        <time>2021-08-02T11:56:57.270Z</time>
      </trkpt>
      <trkpt lat="47.02376" lon="8.94529">
        <ele>858</ele>
        <time>2021-08-02T11:57:10.293Z</time>
      </trkpt>
      <trkpt lat="47.02375" lon="8.94531">
        <ele>858</ele>
        <time>2021-08-02T11:57:11.293Z</time>
      </trkpt>
      <trkpt lat="47.02375" lon="8.94532">
        <ele>857</ele>
        <time>2021-08-02T11:57:12.293Z</time>
      </trkpt>
      <trkpt lat="47.02374" lon="8.94533">
        <ele>857</ele>
        <time>2021-08-02T11:57:14.413Z</time>
      </trkpt>
      <trkpt lat="47.02374" lon="8.94534">
        <ele>856</ele>
        <time>2021-08-02T11:57:15.413Z</time>
      </trkpt>
      <trkpt lat="47.02374" lon="8.94535">
        <ele>856</ele>
        <time>2021-08-02T11:57:16.413Z</time>
      </trkpt>
      <trkpt lat="47.02373" lon="8.94536">
        <ele>855</ele>
        <time>2021-08-02T11:57:17.413Z</time>
      </trkpt>
      <trkpt lat="47.02372" lon="8.94537">
        <ele>854</ele>
        <time>2021-08-02T11:57:18.413Z</time>
      </trkpt>
      <trkpt lat="47.02372" lon="8.94538">
        <ele>854</ele>
        <time>2021-08-02T11:57:19.413Z</time>
      </trkpt>
      <trkpt lat="47.02371" lon="8.9454">
        <ele>853</ele>
        <time>2021-08-02T11:57:20.413Z</time>
      </trkpt>
      <trkpt lat="47.02371" lon="8.94542">
        <ele>853</ele>
        <time>2021-08-02T11:57:22.501Z</time>
      </trkpt>
      <trkpt lat="47.0237" lon="8.94543">
        <ele>852</ele>
        <time>2021-08-02T11:57:24.252Z</time>
      </trkpt>
      <trkpt lat="47.02369" lon="8.94545">
        <ele>852</ele>
        <time>2021-08-02T11:57:25.251Z</time>
      </trkpt>
      <trkpt lat="47.02369" lon="8.94546">
        <ele>852</ele>
        <time>2021-08-02T11:57:26.251Z</time>
      </trkpt>
      <trkpt lat="47.02369" lon="8.94548">
        <ele>852</ele>
        <time>2021-08-02T11:57:27.251Z</time>
      </trkpt>
      <trkpt lat="47.02368" lon="8.94549">
        <ele>851</ele>
        <time>2021-08-02T11:57:28.252Z</time>
      </trkpt>
      <trkpt lat="47.02368" lon="8.9455">
        <ele>851</ele>
        <time>2021-08-02T11:57:29.252Z</time>
      </trkpt>
      <trkpt lat="47.02366" lon="8.94552">
        <ele>852</ele>
        <time>2021-08-02T11:57:30.251Z</time>
      </trkpt>
      <trkpt lat="47.02365" lon="8.94554">
        <ele>852</ele>
        <time>2021-08-02T11:57:31.252Z</time>
      </trkpt>
      <trkpt lat="47.02365" lon="8.94556">
        <ele>852</ele>
        <time>2021-08-02T11:57:32.251Z</time>
      </trkpt>
      <trkpt lat="47.02365" lon="8.94558">
        <ele>852</ele>
        <time>2021-08-02T11:57:33.252Z</time>
      </trkpt>
      <trkpt lat="47.02365" lon="8.9456">
        <ele>853</ele>
        <time>2021-08-02T11:57:34.251Z</time>
      </trkpt>
      <trkpt lat="47.02364" lon="8.94562">
        <ele>853</ele>
        <time>2021-08-02T11:57:35.252Z</time>
      </trkpt>
      <trkpt lat="47.02363" lon="8.94563">
        <ele>853</ele>
        <time>2021-08-02T11:57:36.251Z</time>
      </trkpt>
      <trkpt lat="47.02362" lon="8.94564">
        <ele>854</ele>
        <time>2021-08-02T11:57:37.252Z</time>
      </trkpt>
      <trkpt lat="47.02361" lon="8.94564">
        <ele>854</ele>
        <time>2021-08-02T11:57:43.426Z</time>
      </trkpt>
      <trkpt lat="47.0236" lon="8.94566">
        <ele>854</ele>
        <time>2021-08-02T11:57:47.273Z</time>
      </trkpt>
      <trkpt lat="47.02359" lon="8.94567">
        <ele>854</ele>
        <time>2021-08-02T11:58:05.035Z</time>
      </trkpt>
      <trkpt lat="47.02358" lon="8.94568">
        <ele>855</ele>
        <time>2021-08-02T11:58:06.035Z</time>
      </trkpt>
      <trkpt lat="47.02358" lon="8.94569">
        <ele>855</ele>
        <time>2021-08-02T11:58:07.035Z</time>
      </trkpt>
      <trkpt lat="47.02357" lon="8.94571">
        <ele>855</ele>
        <time>2021-08-02T11:58:08.035Z</time>
      </trkpt>
      <trkpt lat="47.02356" lon="8.94573">
        <ele>855</ele>
        <time>2021-08-02T11:58:09.035Z</time>
      </trkpt>
      <trkpt lat="47.02355" lon="8.94574">
        <ele>855</ele>
        <time>2021-08-02T11:58:10.034Z</time>
      </trkpt>
      <trkpt lat="47.02355" lon="8.94575">
        <ele>855</ele>
        <time>2021-08-02T11:58:11.035Z</time>
      </trkpt>
      <trkpt lat="47.02354" lon="8.94577">
        <ele>855</ele>
        <time>2021-08-02T11:58:12.035Z</time>
      </trkpt>
      <trkpt lat="47.02353" lon="8.9458">
        <ele>855</ele>
        <time>2021-08-02T11:58:13.035Z</time>
      </trkpt>
      <trkpt lat="47.02353" lon="8.94583">
        <ele>855</ele>
        <time>2021-08-02T11:58:14.035Z</time>
      </trkpt>
      <trkpt lat="47.02352" lon="8.94585">
        <ele>855</ele>
        <time>2021-08-02T11:58:15.035Z</time>
      </trkpt>
      <trkpt lat="47.02352" lon="8.94586">
        <ele>855</ele>
        <time>2021-08-02T11:58:27.145Z</time>
      </trkpt>
      <trkpt lat="47.02352" lon="8.94587">
        <ele>854</ele>
        <time>2021-08-02T11:58:28.145Z</time>
      </trkpt>
      <trkpt lat="47.02352" lon="8.94588">
        <ele>854</ele>
        <time>2021-08-02T11:58:29.145Z</time>
      </trkpt>
      <trkpt lat="47.02352" lon="8.94589">
        <ele>853</ele>
        <time>2021-08-02T11:58:30.144Z</time>
      </trkpt>
      <trkpt lat="47.02352" lon="8.94589">
        <ele>852</ele>
        <time>2021-08-02T11:58:31.145Z</time>
      </trkpt>
      <trkpt lat="47.02352" lon="8.9459">
        <ele>852</ele>
        <time>2021-08-02T11:58:32.145Z</time>
      </trkpt>
      <trkpt lat="47.02352" lon="8.94591">
        <ele>852</ele>
        <time>2021-08-02T11:58:33.145Z</time>
      </trkpt>
      <trkpt lat="47.02351" lon="8.94591">
        <ele>852</ele>
        <time>2021-08-02T11:58:34.145Z</time>
      </trkpt>
      <trkpt lat="47.02351" lon="8.94592">
        <ele>852</ele>
        <time>2021-08-02T11:58:35.145Z</time>
      </trkpt>
      <trkpt lat="47.0235" lon="8.94592">
        <ele>852</ele>
        <time>2021-08-02T11:58:36.145Z</time>
      </trkpt>
      <trkpt lat="47.02349" lon="8.94593">
        <ele>852</ele>
        <time>2021-08-02T11:58:37.144Z</time>
      </trkpt>
      <trkpt lat="47.02348" lon="8.94594">
        <ele>852</ele>
        <time>2021-08-02T11:58:38.144Z</time>
      </trkpt>
      <trkpt lat="47.02347" lon="8.94595">
        <ele>852</ele>
        <time>2021-08-02T11:58:39.144Z</time>
      </trkpt>
      <trkpt lat="47.02347" lon="8.94596">
        <ele>852</ele>
        <time>2021-08-02T11:58:40.144Z</time>
      </trkpt>
      <trkpt lat="47.02346" lon="8.94597">
        <ele>851</ele>
        <time>2021-08-02T11:58:41.144Z</time>
      </trkpt>
      <trkpt lat="47.02346" lon="8.94598">
        <ele>850</ele>
        <time>2021-08-02T11:58:42.144Z</time>
      </trkpt>
      <trkpt lat="47.02345" lon="8.94599">
        <ele>850</ele>
        <time>2021-08-02T11:58:43.144Z</time>
      </trkpt>
      <trkpt lat="47.02345" lon="8.946">
        <ele>849</ele>
        <time>2021-08-02T11:58:44.144Z</time>
      </trkpt>
      <trkpt lat="47.02344" lon="8.94601">
        <ele>849</ele>
        <time>2021-08-02T11:58:45.144Z</time>
      </trkpt>
      <trkpt lat="47.02344" lon="8.94602">
        <ele>849</ele>
        <time>2021-08-02T11:58:46.145Z</time>
      </trkpt>
      <trkpt lat="47.02344" lon="8.94603">
        <ele>849</ele>
        <time>2021-08-02T11:58:47.145Z</time>
      </trkpt>
      <trkpt lat="47.02344" lon="8.94604">
        <ele>849</ele>
        <time>2021-08-02T11:58:48.145Z</time>
      </trkpt>
      <trkpt lat="47.02345" lon="8.94604">
        <ele>848</ele>
        <time>2021-08-02T11:58:49.145Z</time>
      </trkpt>
      <trkpt lat="47.02346" lon="8.94605">
        <ele>848</ele>
        <time>2021-08-02T11:58:50.144Z</time>
      </trkpt>
      <trkpt lat="47.02349" lon="8.94602">
        <ele>850</ele>
        <time>2021-08-02T11:58:51.145Z</time>
      </trkpt>
      <trkpt lat="47.0235" lon="8.94601">
        <ele>851</ele>
        <time>2021-08-02T11:58:52.145Z</time>
      </trkpt>
      <trkpt lat="47.0235" lon="8.946">
        <ele>851</ele>
        <time>2021-08-02T11:58:53.144Z</time>
      </trkpt>
      <trkpt lat="47.0235" lon="8.94599">
        <ele>851</ele>
        <time>2021-08-02T11:58:54.144Z</time>
      </trkpt>
      <trkpt lat="47.02351" lon="8.94599">
        <ele>851</ele>
        <time>2021-08-02T11:58:55.145Z</time>
      </trkpt>
      <trkpt lat="47.02351" lon="8.94598">
        <ele>850</ele>
        <time>2021-08-02T11:58:56.145Z</time>
      </trkpt>
      <trkpt lat="47.02351" lon="8.94598">
        <ele>850</ele>
        <time>2021-08-02T11:58:57.145Z</time>
      </trkpt>
      <trkpt lat="47.02349" lon="8.94597">
        <ele>847</ele>
        <time>2021-08-02T11:58:58.145Z</time>
      </trkpt>
      <trkpt lat="47.02349" lon="8.94598">
        <ele>848</ele>
        <time>2021-08-02T11:58:59.145Z</time>
      </trkpt>
      <trkpt lat="47.02349" lon="8.94598">
        <ele>848</ele>
        <time>2021-08-02T11:59:00.145Z</time>
      </trkpt>
      <trkpt lat="47.02349" lon="8.94599">
        <ele>848</ele>
        <time>2021-08-02T11:59:01.144Z</time>
      </trkpt>
      <trkpt lat="47.02348" lon="8.946">
        <ele>848</ele>
        <time>2021-08-02T11:59:02.145Z</time>
      </trkpt>
      <trkpt lat="47.02347" lon="8.94603">
        <ele>849</ele>
        <time>2021-08-02T11:59:03.145Z</time>
      </trkpt>
      <trkpt lat="47.02348" lon="8.94602">
        <ele>850</ele>
        <time>2021-08-02T11:59:04.144Z</time>
      </trkpt>
      <trkpt lat="47.0235" lon="8.946">
        <ele>853</ele>
        <time>2021-08-02T11:59:05.144Z</time>
      </trkpt>
      <trkpt lat="47.02351" lon="8.94599">
        <ele>854</ele>
        <time>2021-08-02T11:59:06.145Z</time>
      </trkpt>
      <trkpt lat="47.02351" lon="8.94599">
        <ele>855</ele>
        <time>2021-08-02T11:59:07.144Z</time>
      </trkpt>
      <trkpt lat="47.02352" lon="8.94598">
        <ele>855</ele>
        <time>2021-08-02T11:59:08.144Z</time>
      </trkpt>
      <trkpt lat="47.02352" lon="8.94598">
        <ele>855</ele>
        <time>2021-08-02T11:59:09.145Z</time>
      </trkpt>
      <trkpt lat="47.02353" lon="8.94598">
        <ele>855</ele>
        <time>2021-08-02T11:59:10.145Z</time>
      </trkpt>
      <trkpt lat="47.02354" lon="8.94599">
        <ele>856</ele>
        <time>2021-08-02T11:59:11.145Z</time>
      </trkpt>
      <trkpt lat="47.02356" lon="8.94599">
        <ele>856</ele>
        <time>2021-08-02T11:59:12.144Z</time>
      </trkpt>
      <trkpt lat="47.02358" lon="8.94598">
        <ele>856</ele>
        <time>2021-08-02T11:59:13.144Z</time>
      </trkpt>
      <trkpt lat="47.0236" lon="8.94598">
        <ele>856</ele>
        <time>2021-08-02T11:59:14.145Z</time>
      </trkpt>
      <trkpt lat="47.02361" lon="8.94597">
        <ele>856</ele>
        <time>2021-08-02T11:59:15.145Z</time>
      </trkpt>
      <trkpt lat="47.02361" lon="8.94597">
        <ele>857</ele>
        <time>2021-08-02T11:59:16.145Z</time>
      </trkpt>
      <trkpt lat="47.02362" lon="8.94598">
        <ele>857</ele>
        <time>2021-08-02T11:59:17.145Z</time>
      </trkpt>
      <trkpt lat="47.02365" lon="8.94599">
        <ele>863</ele>
        <time>2021-08-02T11:59:18.146Z</time>
      </trkpt>
      <trkpt lat="47.02367" lon="8.94599">
        <ele>864</ele>
        <time>2021-08-02T11:59:19.146Z</time>
      </trkpt>
      <trkpt lat="47.02367" lon="8.946">
        <ele>865</ele>
        <time>2021-08-02T11:59:20.146Z</time>
      </trkpt>
      <trkpt lat="47.02367" lon="8.946">
        <ele>865</ele>
        <time>2021-08-02T11:59:21.146Z</time>
      </trkpt>
      <trkpt lat="47.02367" lon="8.94601">
        <ele>866</ele>
        <time>2021-08-02T11:59:22.146Z</time>
      </trkpt>
      <trkpt lat="47.02367" lon="8.94602">
        <ele>867</ele>
        <time>2021-08-02T11:59:23.146Z</time>
      </trkpt>
      <trkpt lat="47.02366" lon="8.94602">
        <ele>867</ele>
        <time>2021-08-02T11:59:24.145Z</time>
      </trkpt>
      <trkpt lat="47.02366" lon="8.94603">
        <ele>866</ele>
        <time>2021-08-02T11:59:25.146Z</time>
      </trkpt>
      <trkpt lat="47.02366" lon="8.94604">
        <ele>864</ele>
        <time>2021-08-02T11:59:26.147Z</time>
      </trkpt>
      <trkpt lat="47.02365" lon="8.94604">
        <ele>863</ele>
        <time>2021-08-02T11:59:27.147Z</time>
      </trkpt>
      <trkpt lat="47.02361" lon="8.94605">
        <ele>855</ele>
        <time>2021-08-02T11:59:28.147Z</time>
      </trkpt>
      <trkpt lat="47.0236" lon="8.94603">
        <ele>854</ele>
        <time>2021-08-02T11:59:29.147Z</time>
      </trkpt>
      <trkpt lat="47.0236" lon="8.94601">
        <ele>854</ele>
        <time>2021-08-02T11:59:30.147Z</time>
      </trkpt>
      <trkpt lat="47.02362" lon="8.94598">
        <ele>854</ele>
        <time>2021-08-02T11:59:31.147Z</time>
      </trkpt>
      <trkpt lat="47.02362" lon="8.94596">
        <ele>853</ele>
        <time>2021-08-02T11:59:32.147Z</time>
      </trkpt>
      <trkpt lat="47.02362" lon="8.94594">
        <ele>853</ele>
        <time>2021-08-02T11:59:33.147Z</time>
      </trkpt>
      <trkpt lat="47.02362" lon="8.94593">
        <ele>852</ele>
        <time>2021-08-02T11:59:34.147Z</time>
      </trkpt>
      <trkpt lat="47.02362" lon="8.94592">
        <ele>852</ele>
        <time>2021-08-02T11:59:35.147Z</time>
      </trkpt>
      <trkpt lat="47.02363" lon="8.9459">
        <ele>851</ele>
        <time>2021-08-02T11:59:36.147Z</time>
      </trkpt>
      <trkpt lat="47.02363" lon="8.94589">
        <ele>851</ele>
        <time>2021-08-02T11:59:37.146Z</time>
      </trkpt>
      <trkpt lat="47.02362" lon="8.9459">
        <ele>851</ele>
        <time>2021-08-02T11:59:38.147Z</time>
      </trkpt>
      <trkpt lat="47.02361" lon="8.9459">
        <ele>850</ele>
        <time>2021-08-02T11:59:39.147Z</time>
      </trkpt>
      <trkpt lat="47.0236" lon="8.94591">
        <ele>850</ele>
        <time>2021-08-02T11:59:40.147Z</time>
      </trkpt>
      <trkpt lat="47.0236" lon="8.9459">
        <ele>850</ele>
        <time>2021-08-02T11:59:41.147Z</time>
      </trkpt>
      <trkpt lat="47.02359" lon="8.94591">
        <ele>849</ele>
        <time>2021-08-02T11:59:42.147Z</time>
      </trkpt>
      <trkpt lat="47.02358" lon="8.94591">
        <ele>849</ele>
        <time>2021-08-02T11:59:43.147Z</time>
      </trkpt>
      <trkpt lat="47.02358" lon="8.94591">
        <ele>849</ele>
        <time>2021-08-02T11:59:44.146Z</time>
      </trkpt>
      <trkpt lat="47.02357" lon="8.94591">
        <ele>848</ele>
        <time>2021-08-02T11:59:45.146Z</time>
      </trkpt>
      <trkpt lat="47.02356" lon="8.94592">
        <ele>848</ele>
        <time>2021-08-02T11:59:46.147Z</time>
      </trkpt>
      <trkpt lat="47.02356" lon="8.94592">
        <ele>848</ele>
        <time>2021-08-02T11:59:47.147Z</time>
      </trkpt>
      <trkpt lat="47.02357" lon="8.94592">
        <ele>847</ele>
        <time>2021-08-02T11:59:48.147Z</time>
      </trkpt>
      <trkpt lat="47.02358" lon="8.94592">
        <ele>848</ele>
        <time>2021-08-02T11:59:49.146Z</time>
      </trkpt>
      <trkpt lat="47.02357" lon="8.94592">
        <ele>849</ele>
        <time>2021-08-02T11:59:50.148Z</time>
      </trkpt>
      <trkpt lat="47.02358" lon="8.94592">
        <ele>850</ele>
        <time>2021-08-02T11:59:51.147Z</time>
      </trkpt>
      <trkpt lat="47.02357" lon="8.94592">
        <ele>851</ele>
        <time>2021-08-02T11:59:52.148Z</time>
      </trkpt>
      <trkpt lat="47.02357" lon="8.94592">
        <ele>852</ele>
        <time>2021-08-02T11:59:53.148Z</time>
      </trkpt>
      <trkpt lat="47.02356" lon="8.94592">
        <ele>852</ele>
        <time>2021-08-02T11:59:54.147Z</time>
      </trkpt>
      <trkpt lat="47.02355" lon="8.94592">
        <ele>853</ele>
        <time>2021-08-02T11:59:55.148Z</time>
      </trkpt>
      <trkpt lat="47.02355" lon="8.94592">
        <ele>853</ele>
        <time>2021-08-02T11:59:56.148Z</time>
      </trkpt>
      <trkpt lat="47.02354" lon="8.94592">
        <ele>853</ele>
        <time>2021-08-02T11:59:57.148Z</time>
      </trkpt>
      <trkpt lat="47.02354" lon="8.94593">
        <ele>853</ele>
        <time>2021-08-02T11:59:58.148Z</time>
      </trkpt>
      <trkpt lat="47.02354" lon="8.94593">
        <ele>853</ele>
        <time>2021-08-02T11:59:59.148Z</time>
      </trkpt>
      <trkpt lat="47.02354" lon="8.94592">
        <ele>853</ele>
        <time>2021-08-02T12:00:00.148Z</time>
      </trkpt>
      <trkpt lat="47.02354" lon="8.94592">
        <ele>853</ele>
        <time>2021-08-02T12:00:01.148Z</time>
      </trkpt>
      <trkpt lat="47.02354" lon="8.94591">
        <ele>853</ele>
        <time>2021-08-02T12:00:02.148Z</time>
      </trkpt>
      <trkpt lat="47.02356" lon="8.94588">
        <ele>847</ele>
        <time>2021-08-02T12:00:03.149Z</time>
      </trkpt>
      <trkpt lat="47.02356" lon="8.94588">
        <ele>848</ele>
        <time>2021-08-02T12:00:04.148Z</time>
      </trkpt>
      <trkpt lat="47.02356" lon="8.94588">
        <ele>850</ele>
        <time>2021-08-02T12:00:05.149Z</time>
      </trkpt>
      <trkpt lat="47.02356" lon="8.94588">
        <ele>850</ele>
        <time>2021-08-02T12:00:06.149Z</time>
      </trkpt>
      <trkpt lat="47.02356" lon="8.94588">
        <ele>851</ele>
        <time>2021-08-02T12:00:07.148Z</time>
      </trkpt>
      <trkpt lat="47.02356" lon="8.94588">
        <ele>852</ele>
        <time>2021-08-02T12:00:08.149Z</time>
      </trkpt>
      <trkpt lat="47.02356" lon="8.94588">
        <ele>853</ele>
        <time>2021-08-02T12:00:09.148Z</time>
      </trkpt>
      <trkpt lat="47.02356" lon="8.94588">
        <ele>853</ele>
        <time>2021-08-02T12:00:10.148Z</time>
      </trkpt>
      <trkpt lat="47.02357" lon="8.94588">
        <ele>854</ele>
        <time>2021-08-02T12:00:11.149Z</time>
      </trkpt>
      <trkpt lat="47.02357" lon="8.94587">
        <ele>854</ele>
        <time>2021-08-02T12:00:12.149Z</time>
      </trkpt>
      <trkpt lat="47.02348" lon="8.94596">
        <ele>843</ele>
        <time>2021-08-02T12:00:13.149Z</time>
      </trkpt>
      <trkpt lat="47.02345" lon="8.94598">
        <ele>844</ele>
        <time>2021-08-02T12:00:14.151Z</time>
      </trkpt>
      <trkpt lat="47.02343" lon="8.94599">
        <ele>844</ele>
        <time>2021-08-02T12:00:15.151Z</time>
      </trkpt>
      <trkpt lat="47.02342" lon="8.94599">
        <ele>845</ele>
        <time>2021-08-02T12:00:16.150Z</time>
      </trkpt>
      <trkpt lat="47.02341" lon="8.946">
        <ele>845</ele>
        <time>2021-08-02T12:00:17.151Z</time>
      </trkpt>
      <trkpt lat="47.02341" lon="8.946">
        <ele>846</ele>
        <time>2021-08-02T12:00:18.151Z</time>
      </trkpt>
      <trkpt lat="47.02341" lon="8.94601">
        <ele>846</ele>
        <time>2021-08-02T12:00:19.150Z</time>
      </trkpt>
      <trkpt lat="47.02343" lon="8.946">
        <ele>846</ele>
        <time>2021-08-02T12:00:20.151Z</time>
      </trkpt>
      <trkpt lat="47.02342" lon="8.94601">
        <ele>847</ele>
        <time>2021-08-02T12:00:21.152Z</time>
      </trkpt>
      <trkpt lat="47.02341" lon="8.94601">
        <ele>847</ele>
        <time>2021-08-02T12:00:22.152Z</time>
      </trkpt>
      <trkpt lat="47.02341" lon="8.94601">
        <ele>848</ele>
        <time>2021-08-02T12:00:23.151Z</time>
      </trkpt>
      <trkpt lat="47.02341" lon="8.94601">
        <ele>848</ele>
        <time>2021-08-02T12:00:24.152Z</time>
      </trkpt>
      <trkpt lat="47.02341" lon="8.94601">
        <ele>848</ele>
        <time>2021-08-02T12:00:25.152Z</time>
      </trkpt>
      <trkpt lat="47.02342" lon="8.94601">
        <ele>848</ele>
        <time>2021-08-02T12:00:26.152Z</time>
      </trkpt>
      <trkpt lat="47.02343" lon="8.94601">
        <ele>847</ele>
        <time>2021-08-02T12:00:27.152Z</time>
      </trkpt>
      <trkpt lat="47.02343" lon="8.946">
        <ele>847</ele>
        <time>2021-08-02T12:00:28.151Z</time>
      </trkpt>
      <trkpt lat="47.02343" lon="8.946">
        <ele>846</ele>
        <time>2021-08-02T12:00:29.151Z</time>
      </trkpt>
      <trkpt lat="47.02343" lon="8.94599">
        <ele>846</ele>
        <time>2021-08-02T12:00:30.152Z</time>
      </trkpt>
      <trkpt lat="47.02344" lon="8.94599">
        <ele>846</ele>
        <time>2021-08-02T12:00:31.152Z</time>
      </trkpt>
      <trkpt lat="47.02344" lon="8.94598">
        <ele>845</ele>
        <time>2021-08-02T12:00:32.151Z</time>
      </trkpt>
      <trkpt lat="47.02344" lon="8.94599">
        <ele>845</ele>
        <time>2021-08-02T12:00:33.152Z</time>
      </trkpt>
      <trkpt lat="47.02343" lon="8.94599">
        <ele>845</ele>
        <time>2021-08-02T12:00:34.152Z</time>
      </trkpt>
      <trkpt lat="47.02344" lon="8.94598">
        <ele>841</ele>
        <time>2021-08-02T12:00:35.151Z</time>
      </trkpt>
      <trkpt lat="47.02345" lon="8.94598">
        <ele>841</ele>
        <time>2021-08-02T12:00:36.151Z</time>
      </trkpt>
      <trkpt lat="47.02345" lon="8.94598">
        <ele>840</ele>
        <time>2021-08-02T12:00:37.151Z</time>
      </trkpt>
      <trkpt lat="47.02345" lon="8.94598">
        <ele>840</ele>
        <time>2021-08-02T12:00:38.152Z</time>
      </trkpt>
      <trkpt lat="47.02346" lon="8.94598">
        <ele>840</ele>
        <time>2021-08-02T12:00:39.151Z</time>
      </trkpt>
      <trkpt lat="47.02347" lon="8.94597">
        <ele>841</ele>
        <time>2021-08-02T12:00:40.151Z</time>
      </trkpt>
      <trkpt lat="47.02347" lon="8.94597">
        <ele>841</ele>
        <time>2021-08-02T12:00:41.151Z</time>
      </trkpt>
      <trkpt lat="47.02348" lon="8.94597">
        <ele>842</ele>
        <time>2021-08-02T12:00:42.151Z</time>
      </trkpt>
      <trkpt lat="47.02348" lon="8.94597">
        <ele>842</ele>
        <time>2021-08-02T12:00:43.151Z</time>
      </trkpt>
      <trkpt lat="47.02348" lon="8.94596">
        <ele>843</ele>
        <time>2021-08-02T12:00:44.151Z</time>
      </trkpt>
      <trkpt lat="47.02348" lon="8.94596">
        <ele>843</ele>
        <time>2021-08-02T12:00:45.151Z</time>
      </trkpt>
      <trkpt lat="47.02349" lon="8.94596">
        <ele>844</ele>
        <time>2021-08-02T12:00:46.151Z</time>
      </trkpt>
      <trkpt lat="47.02352" lon="8.94596">
        <ele>849</ele>
        <time>2021-08-02T12:00:47.151Z</time>
      </trkpt>
      <trkpt lat="47.02353" lon="8.94595">
        <ele>850</ele>
        <time>2021-08-02T12:00:48.152Z</time>
      </trkpt>
      <trkpt lat="47.02353" lon="8.94594">
        <ele>852</ele>
        <time>2021-08-02T12:00:49.151Z</time>
      </trkpt>
      <trkpt lat="47.02353" lon="8.94594">
        <ele>852</ele>
        <time>2021-08-02T12:00:50.152Z</time>
      </trkpt>
      <trkpt lat="47.02354" lon="8.94594">
        <ele>853</ele>
        <time>2021-08-02T12:00:51.152Z</time>
      </trkpt>
      <trkpt lat="47.02354" lon="8.94593">
        <ele>854</ele>
        <time>2021-08-02T12:00:52.151Z</time>
      </trkpt>
      <trkpt lat="47.02355" lon="8.94593">
        <ele>855</ele>
        <time>2021-08-02T12:00:53.152Z</time>
      </trkpt>
      <trkpt lat="47.02357" lon="8.94591">
        <ele>855</ele>
        <time>2021-08-02T12:00:54.151Z</time>
      </trkpt>
      <trkpt lat="47.02358" lon="8.9459">
        <ele>856</ele>
        <time>2021-08-02T12:00:55.151Z</time>
      </trkpt>
      <trkpt lat="47.02358" lon="8.9459">
        <ele>855</ele>
        <time>2021-08-02T12:00:56.152Z</time>
      </trkpt>
      <trkpt lat="47.02358" lon="8.94589">
        <ele>855</ele>
        <time>2021-08-02T12:00:57.152Z</time>
      </trkpt>
      <trkpt lat="47.02358" lon="8.94589">
        <ele>854</ele>
        <time>2021-08-02T12:00:58.152Z</time>
      </trkpt>
      <trkpt lat="47.02358" lon="8.94585">
        <ele>846</ele>
        <time>2021-08-02T12:00:59.152Z</time>
      </trkpt>
      <trkpt lat="47.02359" lon="8.94586">
        <ele>845</ele>
        <time>2021-08-02T12:01:00.152Z</time>
      </trkpt>
      <trkpt lat="47.02358" lon="8.94587">
        <ele>847</ele>
        <time>2021-08-02T12:01:01.152Z</time>
      </trkpt>
      <trkpt lat="47.02357" lon="8.94587">
        <ele>848</ele>
        <time>2021-08-02T12:01:02.153Z</time>
      </trkpt>
      <trkpt lat="47.02361" lon="8.94588">
        <ele>855</ele>
        <time>2021-08-02T12:01:03.153Z</time>
      </trkpt>
      <trkpt lat="47.02361" lon="8.94588">
        <ele>856</ele>
        <time>2021-08-02T12:01:04.153Z</time>
      </trkpt>
      <trkpt lat="47.02362" lon="8.94589">
        <ele>857</ele>
        <time>2021-08-02T12:01:05.152Z</time>
      </trkpt>
      <trkpt lat="47.0236" lon="8.94584">
        <ele>850</ele>
        <time>2021-08-02T12:01:06.153Z</time>
      </trkpt>
      <trkpt lat="47.0236" lon="8.94584">
        <ele>850</ele>
        <time>2021-08-02T12:01:07.153Z</time>
      </trkpt>
      <trkpt lat="47.02359" lon="8.94584">
        <ele>849</ele>
        <time>2021-08-02T12:01:08.154Z</time>
      </trkpt>
      <trkpt lat="47.02359" lon="8.94585">
        <ele>848</ele>
        <time>2021-08-02T12:01:09.155Z</time>
      </trkpt>
      <trkpt lat="47.02358" lon="8.94586">
        <ele>847</ele>
        <time>2021-08-02T12:01:10.155Z</time>
      </trkpt>
      <trkpt lat="47.02358" lon="8.94586">
        <ele>847</ele>
        <time>2021-08-02T12:01:11.155Z</time>
      </trkpt>
      <trkpt lat="47.02358" lon="8.94586">
        <ele>847</ele>
        <time>2021-08-02T12:01:12.155Z</time>
      </trkpt>
      <trkpt lat="47.02358" lon="8.94586">
        <ele>847</ele>
        <time>2021-08-02T12:01:13.155Z</time>
      </trkpt>
      <trkpt lat="47.02358" lon="8.94586">
        <ele>847</ele>
        <time>2021-08-02T12:01:14.154Z</time>
      </trkpt>
      <trkpt lat="47.02361" lon="8.94584">
        <ele>849</ele>
        <time>2021-08-02T12:01:15.156Z</time>
      </trkpt>
      <trkpt lat="47.0236" lon="8.94586">
        <ele>852</ele>
        <time>2021-08-02T12:01:16.158Z</time>
      </trkpt>
      <trkpt lat="47.02359" lon="8.94586">
        <ele>853</ele>
        <time>2021-08-02T12:01:17.158Z</time>
      </trkpt>
      <trkpt lat="47.02359" lon="8.94586">
        <ele>854</ele>
        <time>2021-08-02T12:01:18.157Z</time>
      </trkpt>
      <trkpt lat="47.02359" lon="8.94586">
        <ele>854</ele>
        <time>2021-08-02T12:01:19.158Z</time>
      </trkpt>
      <trkpt lat="47.02358" lon="8.94585">
        <ele>855</ele>
        <time>2021-08-02T12:01:20.158Z</time>
      </trkpt>
      <trkpt lat="47.02358" lon="8.94586">
        <ele>856</ele>
        <time>2021-08-02T12:01:21.158Z</time>
      </trkpt>
      <trkpt lat="47.02358" lon="8.94586">
        <ele>856</ele>
        <time>2021-08-02T12:01:22.158Z</time>
      </trkpt>
      <trkpt lat="47.02358" lon="8.94586">
        <ele>857</ele>
        <time>2021-08-02T12:01:23.159Z</time>
      </trkpt>
      <trkpt lat="47.02359" lon="8.94585">
        <ele>857</ele>
        <time>2021-08-02T12:01:24.158Z</time>
      </trkpt>
      <trkpt lat="47.02361" lon="8.94586">
        <ele>854</ele>
        <time>2021-08-02T12:01:25.159Z</time>
      </trkpt>
      <trkpt lat="47.0236" lon="8.94585">
        <ele>853</ele>
        <time>2021-08-02T12:01:26.160Z</time>
      </trkpt>
      <trkpt lat="47.0236" lon="8.94584">
        <ele>853</ele>
        <time>2021-08-02T12:01:27.159Z</time>
      </trkpt>
      <trkpt lat="47.0236" lon="8.94583">
        <ele>853</ele>
        <time>2021-08-02T12:01:28.160Z</time>
      </trkpt>
      <trkpt lat="47.02359" lon="8.94582">
        <ele>853</ele>
        <time>2021-08-02T12:01:29.159Z</time>
      </trkpt>
      <trkpt lat="47.02359" lon="8.94582">
        <ele>853</ele>
        <time>2021-08-02T12:01:30.160Z</time>
      </trkpt>
      <trkpt lat="47.02358" lon="8.94582">
        <ele>853</ele>
        <time>2021-08-02T12:01:31.160Z</time>
      </trkpt>
      <trkpt lat="47.02358" lon="8.94583">
        <ele>853</ele>
        <time>2021-08-02T12:01:32.159Z</time>
      </trkpt>
      <trkpt lat="47.02358" lon="8.94583">
        <ele>853</ele>
        <time>2021-08-02T12:01:33.160Z</time>
      </trkpt>
      <trkpt lat="47.02359" lon="8.94583">
        <ele>853</ele>
        <time>2021-08-02T12:01:34.160Z</time>
      </trkpt>
      <trkpt lat="47.0236" lon="8.94582">
        <ele>852</ele>
        <time>2021-08-02T12:01:35.159Z</time>
      </trkpt>
      <trkpt lat="47.02359" lon="8.94583">
        <ele>852</ele>
        <time>2021-08-02T12:01:36.160Z</time>
      </trkpt>
      <trkpt lat="47.02359" lon="8.94583">
        <ele>852</ele>
        <time>2021-08-02T12:01:37.160Z</time>
      </trkpt>
      <trkpt lat="47.02358" lon="8.94583">
        <ele>851</ele>
        <time>2021-08-02T12:01:38.159Z</time>
      </trkpt>
      <trkpt lat="47.02358" lon="8.94583">
        <ele>851</ele>
        <time>2021-08-02T12:01:39.159Z</time>
      </trkpt>
      <trkpt lat="47.02359" lon="8.94582">
        <ele>851</ele>
        <time>2021-08-02T12:01:40.159Z</time>
      </trkpt>
      <trkpt lat="47.02359" lon="8.94582">
        <ele>850</ele>
        <time>2021-08-02T12:01:41.159Z</time>
      </trkpt>
      <trkpt lat="47.0236" lon="8.94582">
        <ele>850</ele>
        <time>2021-08-02T12:01:42.159Z</time>
      </trkpt>
      <trkpt lat="47.0236" lon="8.94582">
        <ele>850</ele>
        <time>2021-08-02T12:01:43.159Z</time>
      </trkpt>
      <trkpt lat="47.0236" lon="8.94582">
        <ele>850</ele>
        <time>2021-08-02T12:01:44.160Z</time>
      </trkpt>
      <trkpt lat="47.0236" lon="8.94582">
        <ele>850</ele>
        <time>2021-08-02T12:01:45.161Z</time>
      </trkpt>
      <trkpt lat="47.0236" lon="8.94582">
        <ele>850</ele>
        <time>2021-08-02T12:01:46.160Z</time>
      </trkpt>
      <trkpt lat="47.02359" lon="8.94583">
        <ele>848</ele>
        <time>2021-08-02T12:01:47.161Z</time>
      </trkpt>
      <trkpt lat="47.02358" lon="8.94583">
        <ele>847</ele>
        <time>2021-08-02T12:01:48.160Z</time>
      </trkpt>
      <trkpt lat="47.02358" lon="8.94583">
        <ele>847</ele>
        <time>2021-08-02T12:01:49.160Z</time>
      </trkpt>
      <trkpt lat="47.0236" lon="8.94584">
        <ele>849</ele>
        <time>2021-08-02T12:01:50.161Z</time>
      </trkpt>
      <trkpt lat="47.0236" lon="8.94584">
        <ele>849</ele>
        <time>2021-08-02T12:01:51.160Z</time>
      </trkpt>
      <trkpt lat="47.02361" lon="8.94585">
        <ele>849</ele>
        <time>2021-08-02T12:01:52.161Z</time>
      </trkpt>
      <trkpt lat="47.02362" lon="8.94584">
        <ele>849</ele>
        <time>2021-08-02T12:01:53.161Z</time>
      </trkpt>
      <trkpt lat="47.02364" lon="8.94583">
        <ele>849</ele>
        <time>2021-08-02T12:01:54.161Z</time>
      </trkpt>
      <trkpt lat="47.02366" lon="8.94582">
        <ele>849</ele>
        <time>2021-08-02T12:01:55.160Z</time>
      </trkpt>
      <trkpt lat="47.02366" lon="8.94582">
        <ele>849</ele>
        <time>2021-08-02T12:01:56.160Z</time>
      </trkpt>
      <trkpt lat="47.02366" lon="8.94581">
        <ele>849</ele>
        <time>2021-08-02T12:01:57.161Z</time>
      </trkpt>
      <trkpt lat="47.02365" lon="8.94581">
        <ele>849</ele>
        <time>2021-08-02T12:01:58.160Z</time>
      </trkpt>
      <trkpt lat="47.02365" lon="8.94581">
        <ele>849</ele>
        <time>2021-08-02T12:01:59.161Z</time>
      </trkpt>
      <trkpt lat="47.02365" lon="8.94582">
        <ele>849</ele>
        <time>2021-08-02T12:02:00.161Z</time>
      </trkpt>
      <trkpt lat="47.02359" lon="8.94584">
        <ele>847</ele>
        <time>2021-08-02T12:02:01.161Z</time>
      </trkpt>
      <trkpt lat="47.02359" lon="8.94583">
        <ele>846</ele>
        <time>2021-08-02T12:02:02.161Z</time>
      </trkpt>
      <trkpt lat="47.02359" lon="8.94583">
        <ele>846</ele>
        <time>2021-08-02T12:02:03.160Z</time>
      </trkpt>
      <trkpt lat="47.02358" lon="8.94583">
        <ele>846</ele>
        <time>2021-08-02T12:02:04.161Z</time>
      </trkpt>
      <trkpt lat="47.02358" lon="8.94583">
        <ele>846</ele>
        <time>2021-08-02T12:02:05.161Z</time>
      </trkpt>
      <trkpt lat="47.02358" lon="8.94582">
        <ele>846</ele>
        <time>2021-08-02T12:02:06.161Z</time>
      </trkpt>
      <trkpt lat="47.02358" lon="8.94584">
        <ele>842</ele>
        <time>2021-08-02T12:02:07.161Z</time>
      </trkpt>
      <trkpt lat="47.02357" lon="8.94584">
        <ele>841</ele>
        <time>2021-08-02T12:02:08.161Z</time>
      </trkpt>
      <trkpt lat="47.02357" lon="8.94583">
        <ele>841</ele>
        <time>2021-08-02T12:02:09.160Z</time>
      </trkpt>
      <trkpt lat="47.02357" lon="8.94578">
        <ele>838</ele>
        <time>2021-08-02T12:02:10.161Z</time>
      </trkpt>
      <trkpt lat="47.02357" lon="8.94578">
        <ele>839</ele>
        <time>2021-08-02T12:02:11.161Z</time>
      </trkpt>
      <trkpt lat="47.02356" lon="8.94586">
        <ele>846</ele>
        <time>2021-08-02T12:02:12.161Z</time>
      </trkpt>
      <trkpt lat="47.02356" lon="8.94586">
        <ele>846</ele>
        <time>2021-08-02T12:02:13.161Z</time>
      </trkpt>
      <trkpt lat="47.02356" lon="8.94585">
        <ele>847</ele>
        <time>2021-08-02T12:02:14.160Z</time>
      </trkpt>
      <trkpt lat="47.02355" lon="8.94587">
        <ele>849</ele>
        <time>2021-08-02T12:02:15.161Z</time>
      </trkpt>
      <trkpt lat="47.02355" lon="8.94587">
        <ele>849</ele>
        <time>2021-08-02T12:02:16.160Z</time>
      </trkpt>
      <trkpt lat="47.02356" lon="8.94587">
        <ele>850</ele>
        <time>2021-08-02T12:02:17.160Z</time>
      </trkpt>
      <trkpt lat="47.02354" lon="8.94586">
        <ele>852</ele>
        <time>2021-08-02T12:02:18.161Z</time>
      </trkpt>
      <trkpt lat="47.02355" lon="8.94586">
        <ele>852</ele>
        <time>2021-08-02T12:02:19.160Z</time>
      </trkpt>
      <trkpt lat="47.02355" lon="8.94585">
        <ele>852</ele>
        <time>2021-08-02T12:02:20.161Z</time>
      </trkpt>
      <trkpt lat="47.02355" lon="8.94585">
        <ele>852</ele>
        <time>2021-08-02T12:02:21.161Z</time>
      </trkpt>
      <trkpt lat="47.02355" lon="8.94584">
        <ele>851</ele>
        <time>2021-08-02T12:02:22.162Z</time>
      </trkpt>
      <trkpt lat="47.02355" lon="8.94584">
        <ele>852</ele>
        <time>2021-08-02T12:02:23.161Z</time>
      </trkpt>
      <trkpt lat="47.02355" lon="8.94584">
        <ele>852</ele>
        <time>2021-08-02T12:02:24.161Z</time>
      </trkpt>
      <trkpt lat="47.02354" lon="8.94584">
        <ele>852</ele>
        <time>2021-08-02T12:02:25.161Z</time>
      </trkpt>
      <trkpt lat="47.02354" lon="8.94579">
        <ele>851</ele>
        <time>2021-08-02T12:02:26.161Z</time>
      </trkpt>
      <trkpt lat="47.02354" lon="8.9458">
        <ele>852</ele>
        <time>2021-08-02T12:02:27.162Z</time>
      </trkpt>
      <trkpt lat="47.02354" lon="8.94582">
        <ele>852</ele>
        <time>2021-08-02T12:02:28.161Z</time>
      </trkpt>
      <trkpt lat="47.02354" lon="8.94582">
        <ele>852</ele>
        <time>2021-08-02T12:02:29.162Z</time>
      </trkpt>
      <trkpt lat="47.02354" lon="8.94582">
        <ele>852</ele>
        <time>2021-08-02T12:02:30.162Z</time>
      </trkpt>
      <trkpt lat="47.02354" lon="8.94582">
        <ele>852</ele>
        <time>2021-08-02T12:02:31.161Z</time>
      </trkpt>
      <trkpt lat="47.02355" lon="8.94583">
        <ele>851</ele>
        <time>2021-08-02T12:02:32.162Z</time>
      </trkpt>
      <trkpt lat="47.02355" lon="8.94582">
        <ele>851</ele>
        <time>2021-08-02T12:02:33.161Z</time>
      </trkpt>
      <trkpt lat="47.02356" lon="8.94582">
        <ele>850</ele>
        <time>2021-08-02T12:02:34.162Z</time>
      </trkpt>
      <trkpt lat="47.02355" lon="8.9458">
        <ele>849</ele>
        <time>2021-08-02T12:02:35.162Z</time>
      </trkpt>
      <trkpt lat="47.02354" lon="8.94579">
        <ele>849</ele>
        <time>2021-08-02T12:02:36.162Z</time>
      </trkpt>
      <trkpt lat="47.02354" lon="8.94579">
        <ele>848</ele>
        <time>2021-08-02T12:02:37.161Z</time>
      </trkpt>
      <trkpt lat="47.02354" lon="8.94579">
        <ele>847</ele>
        <time>2021-08-02T12:02:38.162Z</time>
      </trkpt>
      <trkpt lat="47.02353" lon="8.94579">
        <ele>846</ele>
        <time>2021-08-02T12:02:39.162Z</time>
      </trkpt>
      <trkpt lat="47.02353" lon="8.9458">
        <ele>845</ele>
        <time>2021-08-02T12:02:40.162Z</time>
      </trkpt>
      <trkpt lat="47.02352" lon="8.9458">
        <ele>844</ele>
        <time>2021-08-02T12:02:41.162Z</time>
      </trkpt>
      <trkpt lat="47.02353" lon="8.9458">
        <ele>844</ele>
        <time>2021-08-02T12:02:42.162Z</time>
      </trkpt>
      <trkpt lat="47.02353" lon="8.9458">
        <ele>844</ele>
        <time>2021-08-02T12:02:43.162Z</time>
      </trkpt>
      <trkpt lat="47.02353" lon="8.94582">
        <ele>844</ele>
        <time>2021-08-02T12:02:44.162Z</time>
      </trkpt>
      <trkpt lat="47.02353" lon="8.94582">
        <ele>844</ele>
        <time>2021-08-02T12:02:45.161Z</time>
      </trkpt>
      <trkpt lat="47.02352" lon="8.94583">
        <ele>847</ele>
        <time>2021-08-02T12:02:46.162Z</time>
      </trkpt>
      <trkpt lat="47.02351" lon="8.94584">
        <ele>848</ele>
        <time>2021-08-02T12:02:47.162Z</time>
      </trkpt>
      <trkpt lat="47.02352" lon="8.94583">
        <ele>845</ele>
        <time>2021-08-02T12:02:48.163Z</time>
      </trkpt>
      <trkpt lat="47.02352" lon="8.94582">
        <ele>846</ele>
        <time>2021-08-02T12:02:49.162Z</time>
      </trkpt>
      <trkpt lat="47.02352" lon="8.94582">
        <ele>847</ele>
        <time>2021-08-02T12:02:50.163Z</time>
      </trkpt>
      <trkpt lat="47.02352" lon="8.94583">
        <ele>847</ele>
        <time>2021-08-02T12:02:51.164Z</time>
      </trkpt>
      <trkpt lat="47.02352" lon="8.94583">
        <ele>845</ele>
        <time>2021-08-02T12:02:52.164Z</time>
      </trkpt>
      <trkpt lat="47.02352" lon="8.94583">
        <ele>845</ele>
        <time>2021-08-02T12:02:53.165Z</time>
      </trkpt>
      <trkpt lat="47.02352" lon="8.94582">
        <ele>844</ele>
        <time>2021-08-02T12:02:54.164Z</time>
      </trkpt>
      <trkpt lat="47.02351" lon="8.94581">
        <ele>844</ele>
        <time>2021-08-02T12:02:55.165Z</time>
      </trkpt>
      <trkpt lat="47.0235" lon="8.94581">
        <ele>844</ele>
        <time>2021-08-02T12:02:56.165Z</time>
      </trkpt>
      <trkpt lat="47.0235" lon="8.94583">
        <ele>844</ele>
        <time>2021-08-02T12:02:57.164Z</time>
      </trkpt>
      <trkpt lat="47.0235" lon="8.94584">
        <ele>843</ele>
        <time>2021-08-02T12:02:58.164Z</time>
      </trkpt>
      <trkpt lat="47.02349" lon="8.94585">
        <ele>843</ele>
        <time>2021-08-02T12:02:59.164Z</time>
      </trkpt>
      <trkpt lat="47.02349" lon="8.94585">
        <ele>843</ele>
        <time>2021-08-02T12:03:00.164Z</time>
      </trkpt>
      <trkpt lat="47.02349" lon="8.94586">
        <ele>844</ele>
        <time>2021-08-02T12:03:01.165Z</time>
      </trkpt>
      <trkpt lat="47.02351" lon="8.94587">
        <ele>844</ele>
        <time>2021-08-02T12:03:02.164Z</time>
      </trkpt>
      <trkpt lat="47.02351" lon="8.94587">
        <ele>844</ele>
        <time>2021-08-02T12:03:03.165Z</time>
      </trkpt>
      <trkpt lat="47.02351" lon="8.94587">
        <ele>843</ele>
        <time>2021-08-02T12:03:04.164Z</time>
      </trkpt>
      <trkpt lat="47.0235" lon="8.94588">
        <ele>843</ele>
        <time>2021-08-02T12:03:05.165Z</time>
      </trkpt>
      <trkpt lat="47.02351" lon="8.94589">
        <ele>845</ele>
        <time>2021-08-02T12:03:06.165Z</time>
      </trkpt>
      <trkpt lat="47.0235" lon="8.94587">
        <ele>845</ele>
        <time>2021-08-02T12:03:07.165Z</time>
      </trkpt>
      <trkpt lat="47.0235" lon="8.94587">
        <ele>845</ele>
        <time>2021-08-02T12:03:08.164Z</time>
      </trkpt>
      <trkpt lat="47.0235" lon="8.94587">
        <ele>845</ele>
        <time>2021-08-02T12:03:09.165Z</time>
      </trkpt>
      <trkpt lat="47.0235" lon="8.94588">
        <ele>845</ele>
        <time>2021-08-02T12:03:10.165Z</time>
      </trkpt>
      <trkpt lat="47.02351" lon="8.94589">
        <ele>845</ele>
        <time>2021-08-02T12:03:11.164Z</time>
      </trkpt>
      <trkpt lat="47.02352" lon="8.94589">
        <ele>845</ele>
        <time>2021-08-02T12:03:12.164Z</time>
      </trkpt>
      <trkpt lat="47.02353" lon="8.94589">
        <ele>845</ele>
        <time>2021-08-02T12:03:13.165Z</time>
      </trkpt>
      <trkpt lat="47.02353" lon="8.94589">
        <ele>846</ele>
        <time>2021-08-02T12:03:14.165Z</time>
      </trkpt>
      <trkpt lat="47.02354" lon="8.94589">
        <ele>847</ele>
        <time>2021-08-02T12:03:15.165Z</time>
      </trkpt>
      <trkpt lat="47.02355" lon="8.94589">
        <ele>847</ele>
        <time>2021-08-02T12:03:16.165Z</time>
      </trkpt>
      <trkpt lat="47.02355" lon="8.94589">
        <ele>848</ele>
        <time>2021-08-02T12:03:17.165Z</time>
      </trkpt>
      <trkpt lat="47.02355" lon="8.94589">
        <ele>849</ele>
        <time>2021-08-02T12:03:18.164Z</time>
      </trkpt>
      <trkpt lat="47.02355" lon="8.94589">
        <ele>849</ele>
        <time>2021-08-02T12:03:19.165Z</time>
      </trkpt>
      <trkpt lat="47.02356" lon="8.94589">
        <ele>850</ele>
        <time>2021-08-02T12:03:20.165Z</time>
      </trkpt>
      <trkpt lat="47.02356" lon="8.94589">
        <ele>850</ele>
        <time>2021-08-02T12:03:21.165Z</time>
      </trkpt>
      <trkpt lat="47.02356" lon="8.94589">
        <ele>850</ele>
        <time>2021-08-02T12:03:22.164Z</time>
      </trkpt>
      <trkpt lat="47.02362" lon="8.9459">
        <ele>853</ele>
        <time>2021-08-02T12:03:23.164Z</time>
      </trkpt>
      <trkpt lat="47.02363" lon="8.94589">
        <ele>854</ele>
        <time>2021-08-02T12:03:24.165Z</time>
      </trkpt>
      <trkpt lat="47.02362" lon="8.94588">
        <ele>854</ele>
        <time>2021-08-02T12:03:25.164Z</time>
      </trkpt>
      <trkpt lat="47.02362" lon="8.94588">
        <ele>855</ele>
        <time>2021-08-02T12:03:26.164Z</time>
      </trkpt>
      <trkpt lat="47.02361" lon="8.94587">
        <ele>855</ele>
        <time>2021-08-02T12:03:27.165Z</time>
      </trkpt>
      <trkpt lat="47.02362" lon="8.94586">
        <ele>856</ele>
        <time>2021-08-02T12:03:28.165Z</time>
      </trkpt>
      <trkpt lat="47.02362" lon="8.94586">
        <ele>856</ele>
        <time>2021-08-02T12:03:29.165Z</time>
      </trkpt>
      <trkpt lat="47.02361" lon="8.94584">
        <ele>856</ele>
        <time>2021-08-02T12:03:30.165Z</time>
      </trkpt>
      <trkpt lat="47.02359" lon="8.94585">
        <ele>849</ele>
        <time>2021-08-02T12:03:31.164Z</time>
      </trkpt>
      <trkpt lat="47.02358" lon="8.94586">
        <ele>849</ele>
        <time>2021-08-02T12:03:32.165Z</time>
      </trkpt>
      <trkpt lat="47.02358" lon="8.94586">
        <ele>848</ele>
        <time>2021-08-02T12:03:33.164Z</time>
      </trkpt>
      <trkpt lat="47.02358" lon="8.94586">
        <ele>847</ele>
        <time>2021-08-02T12:03:34.165Z</time>
      </trkpt>
      <trkpt lat="47.02354" lon="8.94585">
        <ele>840</ele>
        <time>2021-08-02T12:03:35.164Z</time>
      </trkpt>
      <trkpt lat="47.02353" lon="8.94584">
        <ele>840</ele>
        <time>2021-08-02T12:03:36.165Z</time>
      </trkpt>
      <trkpt lat="47.02353" lon="8.94584">
        <ele>840</ele>
        <time>2021-08-02T12:03:37.164Z</time>
      </trkpt>
      <trkpt lat="47.02353" lon="8.94583">
        <ele>840</ele>
        <time>2021-08-02T12:03:38.165Z</time>
      </trkpt>
      <trkpt lat="47.02353" lon="8.94583">
        <ele>840</ele>
        <time>2021-08-02T12:03:39.164Z</time>
      </trkpt>
      <trkpt lat="47.02353" lon="8.94583">
        <ele>841</ele>
        <time>2021-08-02T12:03:40.164Z</time>
      </trkpt>
      <trkpt lat="47.02351" lon="8.94586">
        <ele>846</ele>
        <time>2021-08-02T12:03:41.164Z</time>
      </trkpt>
      <trkpt lat="47.02351" lon="8.94587">
        <ele>847</ele>
        <time>2021-08-02T12:03:42.164Z</time>
      </trkpt>
      <trkpt lat="47.02352" lon="8.94588">
        <ele>847</ele>
        <time>2021-08-02T12:03:43.164Z</time>
      </trkpt>
      <trkpt lat="47.02353" lon="8.94588">
        <ele>848</ele>
        <time>2021-08-02T12:03:44.165Z</time>
      </trkpt>
      <trkpt lat="47.02354" lon="8.94587">
        <ele>848</ele>
        <time>2021-08-02T12:03:45.165Z</time>
      </trkpt>
      <trkpt lat="47.02354" lon="8.94586">
        <ele>848</ele>
        <time>2021-08-02T12:03:46.164Z</time>
      </trkpt>
      <trkpt lat="47.02353" lon="8.94586">
        <ele>847</ele>
        <time>2021-08-02T12:03:47.165Z</time>
      </trkpt>
      <trkpt lat="47.02353" lon="8.94585">
        <ele>847</ele>
        <time>2021-08-02T12:03:48.165Z</time>
      </trkpt>
      <trkpt lat="47.02352" lon="8.94582">
        <ele>848</ele>
        <time>2021-08-02T12:03:49.164Z</time>
      </trkpt>
      <trkpt lat="47.02352" lon="8.94582">
        <ele>848</ele>
        <time>2021-08-02T12:03:50.164Z</time>
      </trkpt>
      <trkpt lat="47.02351" lon="8.94582">
        <ele>848</ele>
        <time>2021-08-02T12:03:51.165Z</time>
      </trkpt>
      <trkpt lat="47.02351" lon="8.94582">
        <ele>848</ele>
        <time>2021-08-02T12:03:52.165Z</time>
      </trkpt>
      <trkpt lat="47.02351" lon="8.94583">
        <ele>848</ele>
        <time>2021-08-02T12:03:53.164Z</time>
      </trkpt>
      <trkpt lat="47.02351" lon="8.94583">
        <ele>848</ele>
        <time>2021-08-02T12:03:54.164Z</time>
      </trkpt>
      <trkpt lat="47.02352" lon="8.94584">
        <ele>850</ele>
        <time>2021-08-02T12:03:55.164Z</time>
      </trkpt>
      <trkpt lat="47.02353" lon="8.94585">
        <ele>850</ele>
        <time>2021-08-02T12:03:56.165Z</time>
      </trkpt>
      <trkpt lat="47.02352" lon="8.94585">
        <ele>850</ele>
        <time>2021-08-02T12:03:57.164Z</time>
      </trkpt>
      <trkpt lat="47.02355" lon="8.94581">
        <ele>851</ele>
        <time>2021-08-02T12:03:58.165Z</time>
      </trkpt>
      <trkpt lat="47.02355" lon="8.9458">
        <ele>851</ele>
        <time>2021-08-02T12:03:59.164Z</time>
      </trkpt>
      <trkpt lat="47.02356" lon="8.94579">
        <ele>851</ele>
        <time>2021-08-02T12:04:00.165Z</time>
      </trkpt>
      <trkpt lat="47.02355" lon="8.9458">
        <ele>851</ele>
        <time>2021-08-02T12:04:01.164Z</time>
      </trkpt>
      <trkpt lat="47.02355" lon="8.9458">
        <ele>851</ele>
        <time>2021-08-02T12:04:02.165Z</time>
      </trkpt>
      <trkpt lat="47.02354" lon="8.94581">
        <ele>850</ele>
        <time>2021-08-02T12:04:03.165Z</time>
      </trkpt>
      <trkpt lat="47.02353" lon="8.94581">
        <ele>850</ele>
        <time>2021-08-02T12:04:04.164Z</time>
      </trkpt>
      <trkpt lat="47.02353" lon="8.94581">
        <ele>850</ele>
        <time>2021-08-02T12:04:05.164Z</time>
      </trkpt>
      <trkpt lat="47.02353" lon="8.94581">
        <ele>850</ele>
        <time>2021-08-02T12:04:06.165Z</time>
      </trkpt>
      <trkpt lat="47.02354" lon="8.9458">
        <ele>850</ele>
        <time>2021-08-02T12:04:07.165Z</time>
      </trkpt>
      <trkpt lat="47.02354" lon="8.94581">
        <ele>850</ele>
        <time>2021-08-02T12:04:08.164Z</time>
      </trkpt>
      <trkpt lat="47.02352" lon="8.94582">
        <ele>846</ele>
        <time>2021-08-02T12:04:09.165Z</time>
      </trkpt>
      <trkpt lat="47.02351" lon="8.94582">
        <ele>845</ele>
        <time>2021-08-02T12:04:10.164Z</time>
      </trkpt>
      <trkpt lat="47.0235" lon="8.94582">
        <ele>845</ele>
        <time>2021-08-02T12:04:11.164Z</time>
      </trkpt>
      <trkpt lat="47.0235" lon="8.94582">
        <ele>844</ele>
        <time>2021-08-02T12:04:12.165Z</time>
      </trkpt>
      <trkpt lat="47.0235" lon="8.94582">
        <ele>844</ele>
        <time>2021-08-02T12:04:13.165Z</time>
      </trkpt>
      <trkpt lat="47.02351" lon="8.94584">
        <ele>846</ele>
        <time>2021-08-02T12:04:14.164Z</time>
      </trkpt>
      <trkpt lat="47.02351" lon="8.94585">
        <ele>846</ele>
        <time>2021-08-02T12:04:15.165Z</time>
      </trkpt>
      <trkpt lat="47.02351" lon="8.94585">
        <ele>846</ele>
        <time>2021-08-02T12:04:16.164Z</time>
      </trkpt>
      <trkpt lat="47.02352" lon="8.94585">
        <ele>847</ele>
        <time>2021-08-02T12:04:17.164Z</time>
      </trkpt>
      <trkpt lat="47.02352" lon="8.94584">
        <ele>847</ele>
        <time>2021-08-02T12:04:18.164Z</time>
      </trkpt>
      <trkpt lat="47.02352" lon="8.94584">
        <ele>848</ele>
        <time>2021-08-02T12:04:19.164Z</time>
      </trkpt>
      <trkpt lat="47.02354" lon="8.94585">
        <ele>851</ele>
        <time>2021-08-02T12:04:20.165Z</time>
      </trkpt>
      <trkpt lat="47.02356" lon="8.94583">
        <ele>854</ele>
        <time>2021-08-02T12:04:21.165Z</time>
      </trkpt>
      <trkpt lat="47.02356" lon="8.94583">
        <ele>854</ele>
        <time>2021-08-02T12:04:22.165Z</time>
      </trkpt>
      <trkpt lat="47.02356" lon="8.94582">
        <ele>855</ele>
        <time>2021-08-02T12:04:23.166Z</time>
      </trkpt>
      <trkpt lat="47.02357" lon="8.94584">
        <ele>852</ele>
        <time>2021-08-02T12:04:24.166Z</time>
      </trkpt>
      <trkpt lat="47.02357" lon="8.94585">
        <ele>853</ele>
        <time>2021-08-02T12:04:25.166Z</time>
      </trkpt>
      <trkpt lat="47.02357" lon="8.94585">
        <ele>853</ele>
        <time>2021-08-02T12:04:26.165Z</time>
      </trkpt>
      <trkpt lat="47.02357" lon="8.94585">
        <ele>853</ele>
        <time>2021-08-02T12:04:27.166Z</time>
      </trkpt>
      <trkpt lat="47.02357" lon="8.94583">
        <ele>856</ele>
        <time>2021-08-02T12:04:28.165Z</time>
      </trkpt>
      <trkpt lat="47.02357" lon="8.94582">
        <ele>857</ele>
        <time>2021-08-02T12:04:29.166Z</time>
      </trkpt>
      <trkpt lat="47.02355" lon="8.94585">
        <ele>856</ele>
        <time>2021-08-02T12:04:30.167Z</time>
      </trkpt>
      <trkpt lat="47.02354" lon="8.94586">
        <ele>849</ele>
        <time>2021-08-02T12:04:31.167Z</time>
      </trkpt>
      <trkpt lat="47.02354" lon="8.94586">
        <ele>848</ele>
        <time>2021-08-02T12:04:32.167Z</time>
      </trkpt>
      <trkpt lat="47.02354" lon="8.94586">
        <ele>847</ele>
        <time>2021-08-02T12:04:33.167Z</time>
      </trkpt>
      <trkpt lat="47.02353" lon="8.94587">
        <ele>846</ele>
        <time>2021-08-02T12:04:34.167Z</time>
      </trkpt>
      <trkpt lat="47.02353" lon="8.94587">
        <ele>845</ele>
        <time>2021-08-02T12:04:35.166Z</time>
      </trkpt>
      <trkpt lat="47.02353" lon="8.94589">
        <ele>846</ele>
        <time>2021-08-02T12:04:36.166Z</time>
      </trkpt>
      <trkpt lat="47.02353" lon="8.94589">
        <ele>846</ele>
        <time>2021-08-02T12:04:37.166Z</time>
      </trkpt>
      <trkpt lat="47.02352" lon="8.94589">
        <ele>846</ele>
        <time>2021-08-02T12:04:38.167Z</time>
      </trkpt>
      <trkpt lat="47.02352" lon="8.94589">
        <ele>845</ele>
        <time>2021-08-02T12:04:39.166Z</time>
      </trkpt>
      <trkpt lat="47.02352" lon="8.94587">
        <ele>843</ele>
        <time>2021-08-02T12:04:40.169Z</time>
      </trkpt>
      <trkpt lat="47.02352" lon="8.94586">
        <ele>843</ele>
        <time>2021-08-02T12:04:41.169Z</time>
      </trkpt>
      <trkpt lat="47.02352" lon="8.94586">
        <ele>842</ele>
        <time>2021-08-02T12:04:42.168Z</time>
      </trkpt>
      <trkpt lat="47.02353" lon="8.94586">
        <ele>842</ele>
        <time>2021-08-02T12:04:43.169Z</time>
      </trkpt>
      <trkpt lat="47.02353" lon="8.94586">
        <ele>842</ele>
        <time>2021-08-02T12:04:44.169Z</time>
      </trkpt>
      <trkpt lat="47.02354" lon="8.94587">
        <ele>842</ele>
        <time>2021-08-02T12:04:45.169Z</time>
      </trkpt>
      <trkpt lat="47.02354" lon="8.94587">
        <ele>842</ele>
        <time>2021-08-02T12:04:46.168Z</time>
      </trkpt>
      <trkpt lat="47.02355" lon="8.94587">
        <ele>842</ele>
        <time>2021-08-02T12:04:47.168Z</time>
      </trkpt>
      <trkpt lat="47.02355" lon="8.94588">
        <ele>844</ele>
        <time>2021-08-02T12:04:48.170Z</time>
      </trkpt>
      <trkpt lat="47.02354" lon="8.94588">
        <ele>844</ele>
        <time>2021-08-02T12:04:49.169Z</time>
      </trkpt>
      <trkpt lat="47.02354" lon="8.94588">
        <ele>844</ele>
        <time>2021-08-02T12:04:50.169Z</time>
      </trkpt>
      <trkpt lat="47.02356" lon="8.94592">
        <ele>847</ele>
        <time>2021-08-02T12:04:51.169Z</time>
      </trkpt>
      <trkpt lat="47.02356" lon="8.94592">
        <ele>848</ele>
        <time>2021-08-02T12:04:52.170Z</time>
      </trkpt>
      <trkpt lat="47.02356" lon="8.94592">
        <ele>849</ele>
        <time>2021-08-02T12:04:53.170Z</time>
      </trkpt>
      <trkpt lat="47.02356" lon="8.94592">
        <ele>850</ele>
        <time>2021-08-02T12:04:54.170Z</time>
      </trkpt>
      <trkpt lat="47.02357" lon="8.94592">
        <ele>851</ele>
        <time>2021-08-02T12:04:55.170Z</time>
      </trkpt>
      <trkpt lat="47.02358" lon="8.94592">
        <ele>852</ele>
        <time>2021-08-02T12:04:56.170Z</time>
      </trkpt>
      <trkpt lat="47.02358" lon="8.94592">
        <ele>853</ele>
        <time>2021-08-02T12:04:57.169Z</time>
      </trkpt>
      <trkpt lat="47.02358" lon="8.94592">
        <ele>854</ele>
        <time>2021-08-02T12:04:58.170Z</time>
      </trkpt>
      <trkpt lat="47.02348" lon="8.9459">
        <ele>839</ele>
        <time>2021-08-02T12:04:59.171Z</time>
      </trkpt>
      <trkpt lat="47.02348" lon="8.9459">
        <ele>839</ele>
        <time>2021-08-02T12:05:00.171Z</time>
      </trkpt>
      <trkpt lat="47.02347" lon="8.94591">
        <ele>839</ele>
        <time>2021-08-02T12:05:01.170Z</time>
      </trkpt>
      <trkpt lat="47.02347" lon="8.94591">
        <ele>839</ele>
        <time>2021-08-02T12:05:02.170Z</time>
      </trkpt>
      <trkpt lat="47.02346" lon="8.9459">
        <ele>839</ele>
        <time>2021-08-02T12:05:03.171Z</time>
      </trkpt>
      <trkpt lat="47.02345" lon="8.9459">
        <ele>839</ele>
        <time>2021-08-02T12:05:04.171Z</time>
      </trkpt>
      <trkpt lat="47.02345" lon="8.94591">
        <ele>839</ele>
        <time>2021-08-02T12:05:05.170Z</time>
      </trkpt>
      <trkpt lat="47.02345" lon="8.94591">
        <ele>838</ele>
        <time>2021-08-02T12:05:06.171Z</time>
      </trkpt>
      <trkpt lat="47.02345" lon="8.94592">
        <ele>838</ele>
        <time>2021-08-02T12:05:07.171Z</time>
      </trkpt>
      <trkpt lat="47.02343" lon="8.94593">
        <ele>835</ele>
        <time>2021-08-02T12:05:10.153Z</time>
      </trkpt>
      <trkpt lat="47.02343" lon="8.94594">
        <ele>834</ele>
        <time>2021-08-02T12:05:11.154Z</time>
      </trkpt>
      <trkpt lat="47.02343" lon="8.94594">
        <ele>834</ele>
        <time>2021-08-02T12:05:12.153Z</time>
      </trkpt>
      <trkpt lat="47.02343" lon="8.94593">
        <ele>833</ele>
        <time>2021-08-02T12:05:13.155Z</time>
      </trkpt>
      <trkpt lat="47.02341" lon="8.94593">
        <ele>833</ele>
        <time>2021-08-02T12:05:31.172Z</time>
      </trkpt>
      <trkpt lat="47.02343" lon="8.94593">
        <ele>834</ele>
        <time>2021-08-02T12:05:32.172Z</time>
      </trkpt>
      <trkpt lat="47.02344" lon="8.94593">
        <ele>836</ele>
        <time>2021-08-02T12:05:33.171Z</time>
      </trkpt>
      <trkpt lat="47.02349" lon="8.94593">
        <ele>847</ele>
        <time>2021-08-02T12:05:43.288Z</time>
      </trkpt>
      <trkpt lat="47.02352" lon="8.94592">
        <ele>848</ele>
        <time>2021-08-02T12:05:44.288Z</time>
      </trkpt>
      <trkpt lat="47.02353" lon="8.94592">
        <ele>848</ele>
        <time>2021-08-02T12:05:45.287Z</time>
      </trkpt>
      <trkpt lat="47.02354" lon="8.94587">
        <ele>847</ele>
        <time>2021-08-02T12:05:46.288Z</time>
      </trkpt>
      <trkpt lat="47.02355" lon="8.94588">
        <ele>847</ele>
        <time>2021-08-02T12:05:47.288Z</time>
      </trkpt>
      <trkpt lat="47.02356" lon="8.94588">
        <ele>848</ele>
        <time>2021-08-02T12:05:48.287Z</time>
      </trkpt>
      <trkpt lat="47.02356" lon="8.94588">
        <ele>848</ele>
        <time>2021-08-02T12:05:49.288Z</time>
      </trkpt>
      <trkpt lat="47.02356" lon="8.94588">
        <ele>849</ele>
        <time>2021-08-02T12:05:50.287Z</time>
      </trkpt>
      <trkpt lat="47.02357" lon="8.94589">
        <ele>849</ele>
        <time>2021-08-02T12:05:51.288Z</time>
      </trkpt>
      <trkpt lat="47.02356" lon="8.94589">
        <ele>849</ele>
        <time>2021-08-02T12:05:52.289Z</time>
      </trkpt>
      <trkpt lat="47.02357" lon="8.94587">
        <ele>850</ele>
        <time>2021-08-02T12:05:53.288Z</time>
      </trkpt>
      <trkpt lat="47.02356" lon="8.94587">
        <ele>850</ele>
        <time>2021-08-02T12:05:54.289Z</time>
      </trkpt>
      <trkpt lat="47.02355" lon="8.94587">
        <ele>849</ele>
        <time>2021-08-02T12:05:55.290Z</time>
      </trkpt>
      <trkpt lat="47.02355" lon="8.94588">
        <ele>849</ele>
        <time>2021-08-02T12:05:56.290Z</time>
      </trkpt>
      <trkpt lat="47.02355" lon="8.94588">
        <ele>849</ele>
        <time>2021-08-02T12:05:57.289Z</time>
      </trkpt>
      <trkpt lat="47.02355" lon="8.94589">
        <ele>850</ele>
        <time>2021-08-02T12:05:58.290Z</time>
      </trkpt>
      <trkpt lat="47.02354" lon="8.94591">
        <ele>850</ele>
        <time>2021-08-02T12:05:59.290Z</time>
      </trkpt>
      <trkpt lat="47.02354" lon="8.94591">
        <ele>850</ele>
        <time>2021-08-02T12:06:00.290Z</time>
      </trkpt>
      <trkpt lat="47.02354" lon="8.94592">
        <ele>849</ele>
        <time>2021-08-02T12:06:01.289Z</time>
      </trkpt>
      <trkpt lat="47.02354" lon="8.94592">
        <ele>849</ele>
        <time>2021-08-02T12:06:02.290Z</time>
      </trkpt>
      <trkpt lat="47.02353" lon="8.94592">
        <ele>849</ele>
        <time>2021-08-02T12:06:03.289Z</time>
      </trkpt>
      <trkpt lat="47.02352" lon="8.94593">
        <ele>849</ele>
        <time>2021-08-02T12:06:04.290Z</time>
      </trkpt>
      <trkpt lat="47.02351" lon="8.94594">
        <ele>848</ele>
        <time>2021-08-02T12:06:05.289Z</time>
      </trkpt>
      <trkpt lat="47.02351" lon="8.94595">
        <ele>847</ele>
        <time>2021-08-02T12:06:06.289Z</time>
      </trkpt>
      <trkpt lat="47.0235" lon="8.94595">
        <ele>847</ele>
        <time>2021-08-02T12:06:07.290Z</time>
      </trkpt>
      <trkpt lat="47.0235" lon="8.94596">
        <ele>847</ele>
        <time>2021-08-02T12:06:08.290Z</time>
      </trkpt>
      <trkpt lat="47.02348" lon="8.94598">
        <ele>845</ele>
        <time>2021-08-02T12:06:09.289Z</time>
      </trkpt>
      <trkpt lat="47.02348" lon="8.94599">
        <ele>844</ele>
        <time>2021-08-02T12:06:10.289Z</time>
      </trkpt>
      <trkpt lat="47.02347" lon="8.94598">
        <ele>844</ele>
        <time>2021-08-02T12:06:11.289Z</time>
      </trkpt>
      <trkpt lat="47.02345" lon="8.94598">
        <ele>842</ele>
        <time>2021-08-02T12:06:12.289Z</time>
      </trkpt>
      <trkpt lat="47.02344" lon="8.94597">
        <ele>841</ele>
        <time>2021-08-02T12:06:13.289Z</time>
      </trkpt>
      <trkpt lat="47.02344" lon="8.94597">
        <ele>840</ele>
        <time>2021-08-02T12:06:14.289Z</time>
      </trkpt>
      <trkpt lat="47.02342" lon="8.94598">
        <ele>838</ele>
        <time>2021-08-02T12:06:15.290Z</time>
      </trkpt>
      <trkpt lat="47.02342" lon="8.94598">
        <ele>838</ele>
        <time>2021-08-02T12:06:16.289Z</time>
      </trkpt>
      <trkpt lat="47.02343" lon="8.94598">
        <ele>838</ele>
        <time>2021-08-02T12:06:17.291Z</time>
      </trkpt>
      <trkpt lat="47.02343" lon="8.94597">
        <ele>838</ele>
        <time>2021-08-02T12:06:18.291Z</time>
      </trkpt>
      <trkpt lat="47.02343" lon="8.94596">
        <ele>838</ele>
        <time>2021-08-02T12:06:19.290Z</time>
      </trkpt>
      <trkpt lat="47.02343" lon="8.94596">
        <ele>838</ele>
        <time>2021-08-02T12:06:20.291Z</time>
      </trkpt>
      <trkpt lat="47.02344" lon="8.94594">
        <ele>839</ele>
        <time>2021-08-02T12:06:21.291Z</time>
      </trkpt>
      <trkpt lat="47.02344" lon="8.94595">
        <ele>840</ele>
        <time>2021-08-02T12:06:22.291Z</time>
      </trkpt>
      <trkpt lat="47.02345" lon="8.94595">
        <ele>840</ele>
        <time>2021-08-02T12:06:23.291Z</time>
      </trkpt>
      <trkpt lat="47.02346" lon="8.94596">
        <ele>841</ele>
        <time>2021-08-02T12:06:24.292Z</time>
      </trkpt>
      <trkpt lat="47.02347" lon="8.94595">
        <ele>842</ele>
        <time>2021-08-02T12:06:25.292Z</time>
      </trkpt>
      <trkpt lat="47.02348" lon="8.94594">
        <ele>842</ele>
        <time>2021-08-02T12:06:26.291Z</time>
      </trkpt>
      <trkpt lat="47.02348" lon="8.94593">
        <ele>841</ele>
        <time>2021-08-02T12:06:27.292Z</time>
      </trkpt>
      <trkpt lat="47.02348" lon="8.94593">
        <ele>841</ele>
        <time>2021-08-02T12:06:28.292Z</time>
      </trkpt>
      <trkpt lat="47.02349" lon="8.94593">
        <ele>841</ele>
        <time>2021-08-02T12:06:29.292Z</time>
      </trkpt>
      <trkpt lat="47.02348" lon="8.94592">
        <ele>841</ele>
        <time>2021-08-02T12:06:30.292Z</time>
      </trkpt>
      <trkpt lat="47.02349" lon="8.94592">
        <ele>841</ele>
        <time>2021-08-02T12:06:31.292Z</time>
      </trkpt>
      <trkpt lat="47.02351" lon="8.9459">
        <ele>840</ele>
        <time>2021-08-02T12:06:32.292Z</time>
      </trkpt>
      <trkpt lat="47.02353" lon="8.94589">
        <ele>840</ele>
        <time>2021-08-02T12:06:33.291Z</time>
      </trkpt>
      <trkpt lat="47.02355" lon="8.94588">
        <ele>840</ele>
        <time>2021-08-02T12:06:34.292Z</time>
      </trkpt>
      <trkpt lat="47.02356" lon="8.94587">
        <ele>841</ele>
        <time>2021-08-02T12:06:35.292Z</time>
      </trkpt>
      <trkpt lat="47.02357" lon="8.94587">
        <ele>841</ele>
        <time>2021-08-02T12:06:36.292Z</time>
      </trkpt>
      <trkpt lat="47.02358" lon="8.94586">
        <ele>841</ele>
        <time>2021-08-02T12:06:37.292Z</time>
      </trkpt>
      <trkpt lat="47.02357" lon="8.94586">
        <ele>841</ele>
        <time>2021-08-02T12:06:38.292Z</time>
      </trkpt>
      <trkpt lat="47.02356" lon="8.94586">
        <ele>841</ele>
        <time>2021-08-02T12:06:39.291Z</time>
      </trkpt>
      <trkpt lat="47.02353" lon="8.94585">
        <ele>836</ele>
        <time>2021-08-02T12:06:40.292Z</time>
      </trkpt>
      <trkpt lat="47.02352" lon="8.94586">
        <ele>836</ele>
        <time>2021-08-02T12:06:41.291Z</time>
      </trkpt>
      <trkpt lat="47.02351" lon="8.94587">
        <ele>837</ele>
        <time>2021-08-02T12:06:42.291Z</time>
      </trkpt>
      <trkpt lat="47.02351" lon="8.94588">
        <ele>837</ele>
        <time>2021-08-02T12:06:43.292Z</time>
      </trkpt>
      <trkpt lat="47.0235" lon="8.94589">
        <ele>838</ele>
        <time>2021-08-02T12:06:44.292Z</time>
      </trkpt>
      <trkpt lat="47.0235" lon="8.94588">
        <ele>838</ele>
        <time>2021-08-02T12:06:45.292Z</time>
      </trkpt>
      <trkpt lat="47.0235" lon="8.94587">
        <ele>839</ele>
        <time>2021-08-02T12:06:46.292Z</time>
      </trkpt>
      <trkpt lat="47.0235" lon="8.94587">
        <ele>839</ele>
        <time>2021-08-02T12:06:47.292Z</time>
      </trkpt>
      <trkpt lat="47.0235" lon="8.94587">
        <ele>840</ele>
        <time>2021-08-02T12:06:48.292Z</time>
      </trkpt>
      <trkpt lat="47.0235" lon="8.9459">
        <ele>841</ele>
        <time>2021-08-02T12:06:49.293Z</time>
      </trkpt>
      <trkpt lat="47.0235" lon="8.94591">
        <ele>841</ele>
        <time>2021-08-02T12:06:50.292Z</time>
      </trkpt>
      <trkpt lat="47.0235" lon="8.94591">
        <ele>842</ele>
        <time>2021-08-02T12:06:51.293Z</time>
      </trkpt>
      <trkpt lat="47.0235" lon="8.9459">
        <ele>842</ele>
        <time>2021-08-02T12:06:52.293Z</time>
      </trkpt>
      <trkpt lat="47.0235" lon="8.9459">
        <ele>843</ele>
        <time>2021-08-02T12:06:53.293Z</time>
      </trkpt>
      <trkpt lat="47.0235" lon="8.9459">
        <ele>843</ele>
        <time>2021-08-02T12:06:54.292Z</time>
      </trkpt>
      <trkpt lat="47.0235" lon="8.9459">
        <ele>846</ele>
        <time>2021-08-02T12:06:55.293Z</time>
      </trkpt>
      <trkpt lat="47.0235" lon="8.9459">
        <ele>847</ele>
        <time>2021-08-02T12:06:56.292Z</time>
      </trkpt>
      <trkpt lat="47.02351" lon="8.94591">
        <ele>847</ele>
        <time>2021-08-02T12:06:57.292Z</time>
      </trkpt>
      <trkpt lat="47.02347" lon="8.94591">
        <ele>847</ele>
        <time>2021-08-02T12:06:58.293Z</time>
      </trkpt>
      <trkpt lat="47.02349" lon="8.94591">
        <ele>847</ele>
        <time>2021-08-02T12:06:59.292Z</time>
      </trkpt>
      <trkpt lat="47.0235" lon="8.9459">
        <ele>847</ele>
        <time>2021-08-02T12:07:00.292Z</time>
      </trkpt>
      <trkpt lat="47.02351" lon="8.9459">
        <ele>848</ele>
        <time>2021-08-02T12:07:01.293Z</time>
      </trkpt>
      <trkpt lat="47.02351" lon="8.94589">
        <ele>848</ele>
        <time>2021-08-02T12:07:02.293Z</time>
      </trkpt>
      <trkpt lat="47.02352" lon="8.94588">
        <ele>849</ele>
        <time>2021-08-02T12:07:03.293Z</time>
      </trkpt>
      <trkpt lat="47.02352" lon="8.94588">
        <ele>849</ele>
        <time>2021-08-02T12:07:04.293Z</time>
      </trkpt>
      <trkpt lat="47.02352" lon="8.94588">
        <ele>849</ele>
        <time>2021-08-02T12:07:05.292Z</time>
      </trkpt>
      <trkpt lat="47.02352" lon="8.94588">
        <ele>849</ele>
        <time>2021-08-02T12:07:06.293Z</time>
      </trkpt>
      <trkpt lat="47.02353" lon="8.94584">
        <ele>850</ele>
        <time>2021-08-02T12:07:10.352Z</time>
      </trkpt>
      <trkpt lat="47.02354" lon="8.94586">
        <ele>850</ele>
        <time>2021-08-02T12:07:11.353Z</time>
      </trkpt>
      <trkpt lat="47.02354" lon="8.94586">
        <ele>849</ele>
        <time>2021-08-02T12:07:12.353Z</time>
      </trkpt>
      <trkpt lat="47.02354" lon="8.94586">
        <ele>849</ele>
        <time>2021-08-02T12:07:13.353Z</time>
      </trkpt>
      <trkpt lat="47.02354" lon="8.94586">
        <ele>849</ele>
        <time>2021-08-02T12:07:14.353Z</time>
      </trkpt>
      <trkpt lat="47.02355" lon="8.94586">
        <ele>849</ele>
        <time>2021-08-02T12:07:15.353Z</time>
      </trkpt>
      <trkpt lat="47.02355" lon="8.94586">
        <ele>848</ele>
        <time>2021-08-02T12:07:16.352Z</time>
      </trkpt>
      <trkpt lat="47.02355" lon="8.94587">
        <ele>848</ele>
        <time>2021-08-02T12:07:17.352Z</time>
      </trkpt>
      <trkpt lat="47.02355" lon="8.94587">
        <ele>848</ele>
        <time>2021-08-02T12:07:18.353Z</time>
      </trkpt>
      <trkpt lat="47.02355" lon="8.94587">
        <ele>849</ele>
        <time>2021-08-02T12:07:19.353Z</time>
      </trkpt>
      <trkpt lat="47.02356" lon="8.94587">
        <ele>849</ele>
        <time>2021-08-02T12:07:20.352Z</time>
      </trkpt>
      <trkpt lat="47.02356" lon="8.94587">
        <ele>849</ele>
        <time>2021-08-02T12:07:21.352Z</time>
      </trkpt>
      <trkpt lat="47.02356" lon="8.94587">
        <ele>848</ele>
        <time>2021-08-02T12:07:22.352Z</time>
      </trkpt>
      <trkpt lat="47.02357" lon="8.94586">
        <ele>846</ele>
        <time>2021-08-02T12:07:23.352Z</time>
      </trkpt>
      <trkpt lat="47.02357" lon="8.94586">
        <ele>846</ele>
        <time>2021-08-02T12:07:24.353Z</time>
      </trkpt>
      <trkpt lat="47.02357" lon="8.94585">
        <ele>847</ele>
        <time>2021-08-02T12:07:25.352Z</time>
      </trkpt>
      <trkpt lat="47.02357" lon="8.94584">
        <ele>847</ele>
        <time>2021-08-02T12:07:26.353Z</time>
      </trkpt>
      <trkpt lat="47.02356" lon="8.94583">
        <ele>848</ele>
        <time>2021-08-02T12:07:27.352Z</time>
      </trkpt>
      <trkpt lat="47.02355" lon="8.94582">
        <ele>848</ele>
        <time>2021-08-02T12:07:28.352Z</time>
      </trkpt>
      <trkpt lat="47.02354" lon="8.94582">
        <ele>849</ele>
        <time>2021-08-02T12:07:29.352Z</time>
      </trkpt>
      <trkpt lat="47.02354" lon="8.94583">
        <ele>849</ele>
        <time>2021-08-02T12:07:30.352Z</time>
      </trkpt>
      <trkpt lat="47.02354" lon="8.94584">
        <ele>850</ele>
        <time>2021-08-02T12:07:31.353Z</time>
      </trkpt>
      <trkpt lat="47.02354" lon="8.94584">
        <ele>850</ele>
        <time>2021-08-02T12:07:32.353Z</time>
      </trkpt>
      <trkpt lat="47.02353" lon="8.94585">
        <ele>851</ele>
        <time>2021-08-02T12:07:33.353Z</time>
      </trkpt>
      <trkpt lat="47.02355" lon="8.94586">
        <ele>852</ele>
        <time>2021-08-02T12:07:34.353Z</time>
      </trkpt>
      <trkpt lat="47.02355" lon="8.94586">
        <ele>852</ele>
        <time>2021-08-02T12:07:35.353Z</time>
      </trkpt>
      <trkpt lat="47.02355" lon="8.94587">
        <ele>849</ele>
        <time>2021-08-02T12:07:36.354Z</time>
      </trkpt>
      <trkpt lat="47.02356" lon="8.94589">
        <ele>849</ele>
        <time>2021-08-02T12:07:37.354Z</time>
      </trkpt>
      <trkpt lat="47.02357" lon="8.94589">
        <ele>849</ele>
        <time>2021-08-02T12:07:38.354Z</time>
      </trkpt>
      <trkpt lat="47.02357" lon="8.94588">
        <ele>849</ele>
        <time>2021-08-02T12:07:39.354Z</time>
      </trkpt>
      <trkpt lat="47.02358" lon="8.94588">
        <ele>849</ele>
        <time>2021-08-02T12:07:40.354Z</time>
      </trkpt>
      <trkpt lat="47.02358" lon="8.94587">
        <ele>849</ele>
        <time>2021-08-02T12:07:41.355Z</time>
      </trkpt>
      <trkpt lat="47.02358" lon="8.94587">
        <ele>849</ele>
        <time>2021-08-02T12:07:42.354Z</time>
      </trkpt>
      <trkpt lat="47.02358" lon="8.94588">
        <ele>849</ele>
        <time>2021-08-02T12:07:43.354Z</time>
      </trkpt>
      <trkpt lat="47.02357" lon="8.94589">
        <ele>849</ele>
        <time>2021-08-02T12:07:44.354Z</time>
      </trkpt>
      <trkpt lat="47.02357" lon="8.94589">
        <ele>849</ele>
        <time>2021-08-02T12:07:45.355Z</time>
      </trkpt>
      <trkpt lat="47.02357" lon="8.94589">
        <ele>849</ele>
        <time>2021-08-02T12:07:46.355Z</time>
      </trkpt>
      <trkpt lat="47.02357" lon="8.9459">
        <ele>849</ele>
        <time>2021-08-02T12:07:47.354Z</time>
      </trkpt>
      <trkpt lat="47.02357" lon="8.9459">
        <ele>849</ele>
        <time>2021-08-02T12:07:48.354Z</time>
      </trkpt>
      <trkpt lat="47.02357" lon="8.9459">
        <ele>849</ele>
        <time>2021-08-02T12:07:49.354Z</time>
      </trkpt>
      <trkpt lat="47.02357" lon="8.9459">
        <ele>849</ele>
        <time>2021-08-02T12:07:54.417Z</time>
      </trkpt>
      <trkpt lat="47.02357" lon="8.9459">
        <ele>849</ele>
        <time>2021-08-02T12:07:55.417Z</time>
      </trkpt>
      <trkpt lat="47.02357" lon="8.94589">
        <ele>848</ele>
        <time>2021-08-02T12:07:56.417Z</time>
      </trkpt>
      <trkpt lat="47.02356" lon="8.94585">
        <ele>850</ele>
        <time>2021-08-02T12:07:57.418Z</time>
      </trkpt>
      <trkpt lat="47.02355" lon="8.94584">
        <ele>850</ele>
        <time>2021-08-02T12:07:58.418Z</time>
      </trkpt>
      <trkpt lat="47.02354" lon="8.94585">
        <ele>851</ele>
        <time>2021-08-02T12:07:59.418Z</time>
      </trkpt>
      <trkpt lat="47.02353" lon="8.94586">
        <ele>851</ele>
        <time>2021-08-02T12:08:00.418Z</time>
      </trkpt>
      <trkpt lat="47.02353" lon="8.94587">
        <ele>851</ele>
        <time>2021-08-02T12:08:01.418Z</time>
      </trkpt>
      <trkpt lat="47.02353" lon="8.94588">
        <ele>852</ele>
        <time>2021-08-02T12:08:02.418Z</time>
      </trkpt>
      <trkpt lat="47.02353" lon="8.94588">
        <ele>852</ele>
        <time>2021-08-02T12:08:03.418Z</time>
      </trkpt>
      <trkpt lat="47.02353" lon="8.94588">
        <ele>852</ele>
        <time>2021-08-02T12:08:04.418Z</time>
      </trkpt>
      <trkpt lat="47.02353" lon="8.94588">
        <ele>852</ele>
        <time>2021-08-02T12:08:05.418Z</time>
      </trkpt>
      <trkpt lat="47.02354" lon="8.94588">
        <ele>852</ele>
        <time>2021-08-02T12:08:06.418Z</time>
      </trkpt>
      <trkpt lat="47.02354" lon="8.94589">
        <ele>852</ele>
        <time>2021-08-02T12:08:07.418Z</time>
      </trkpt>
      <trkpt lat="47.02354" lon="8.94589">
        <ele>852</ele>
        <time>2021-08-02T12:08:08.418Z</time>
      </trkpt>
      <trkpt lat="47.02358" lon="8.94587">
        <ele>847</ele>
        <time>2021-08-02T12:08:09.419Z</time>
      </trkpt>
      <trkpt lat="47.02358" lon="8.94587">
        <ele>846</ele>
        <time>2021-08-02T12:08:10.418Z</time>
      </trkpt>
      <trkpt lat="47.02354" lon="8.9459">
        <ele>846</ele>
        <time>2021-08-02T12:08:11.419Z</time>
      </trkpt>
      <trkpt lat="47.02353" lon="8.94591">
        <ele>846</ele>
        <time>2021-08-02T12:08:12.420Z</time>
      </trkpt>
      <trkpt lat="47.02354" lon="8.94591">
        <ele>846</ele>
        <time>2021-08-02T12:08:13.419Z</time>
      </trkpt>
      <trkpt lat="47.02355" lon="8.94591">
        <ele>846</ele>
        <time>2021-08-02T12:08:14.419Z</time>
      </trkpt>
      <trkpt lat="47.02355" lon="8.9459">
        <ele>846</ele>
        <time>2021-08-02T12:08:15.420Z</time>
      </trkpt>
      <trkpt lat="47.02355" lon="8.9459">
        <ele>846</ele>
        <time>2021-08-02T12:08:16.420Z</time>
      </trkpt>
      <trkpt lat="47.02355" lon="8.9459">
        <ele>846</ele>
        <time>2021-08-02T12:08:17.420Z</time>
      </trkpt>
      <trkpt lat="47.02356" lon="8.9459">
        <ele>845</ele>
        <time>2021-08-02T12:08:18.420Z</time>
      </trkpt>
      <trkpt lat="47.02356" lon="8.94589">
        <ele>845</ele>
        <time>2021-08-02T12:08:19.419Z</time>
      </trkpt>
      <trkpt lat="47.02357" lon="8.94589">
        <ele>843</ele>
        <time>2021-08-02T12:08:20.420Z</time>
      </trkpt>
      <trkpt lat="47.02357" lon="8.94589">
        <ele>843</ele>
        <time>2021-08-02T12:08:21.420Z</time>
      </trkpt>
      <trkpt lat="47.02357" lon="8.94589">
        <ele>843</ele>
        <time>2021-08-02T12:08:22.421Z</time>
      </trkpt>
      <trkpt lat="47.02356" lon="8.94589">
        <ele>843</ele>
        <time>2021-08-02T12:08:23.421Z</time>
      </trkpt>
      <trkpt lat="47.02352" lon="8.94586">
        <ele>839</ele>
        <time>2021-08-02T12:08:24.421Z</time>
      </trkpt>
      <trkpt lat="47.02354" lon="8.94587">
        <ele>842</ele>
        <time>2021-08-02T12:08:25.420Z</time>
      </trkpt>
      <trkpt lat="47.02354" lon="8.94587">
        <ele>842</ele>
        <time>2021-08-02T12:08:26.421Z</time>
      </trkpt>
      <trkpt lat="47.02354" lon="8.94586">
        <ele>843</ele>
        <time>2021-08-02T12:08:27.420Z</time>
      </trkpt>
      <trkpt lat="47.02353" lon="8.94586">
        <ele>843</ele>
        <time>2021-08-02T12:08:28.421Z</time>
      </trkpt>
      <trkpt lat="47.02353" lon="8.94586">
        <ele>844</ele>
        <time>2021-08-02T12:08:29.421Z</time>
      </trkpt>
      <trkpt lat="47.02355" lon="8.94587">
        <ele>849</ele>
        <time>2021-08-02T12:08:30.420Z</time>
      </trkpt>
      <trkpt lat="47.02355" lon="8.94587">
        <ele>849</ele>
        <time>2021-08-02T12:08:31.421Z</time>
      </trkpt>
      <trkpt lat="47.02355" lon="8.94586">
        <ele>850</ele>
        <time>2021-08-02T12:08:32.420Z</time>
      </trkpt>
      <trkpt lat="47.02355" lon="8.94585">
        <ele>849</ele>
        <time>2021-08-02T12:08:33.422Z</time>
      </trkpt>
      <trkpt lat="47.02355" lon="8.94585">
        <ele>849</ele>
        <time>2021-08-02T12:08:34.422Z</time>
      </trkpt>
      <trkpt lat="47.02354" lon="8.94585">
        <ele>848</ele>
        <time>2021-08-02T12:08:35.422Z</time>
      </trkpt>
      <trkpt lat="47.02354" lon="8.94585">
        <ele>848</ele>
        <time>2021-08-02T12:08:36.422Z</time>
      </trkpt>
      <trkpt lat="47.02353" lon="8.94582">
        <ele>847</ele>
        <time>2021-08-02T12:08:37.422Z</time>
      </trkpt>
      <trkpt lat="47.02353" lon="8.94582">
        <ele>847</ele>
        <time>2021-08-02T12:08:38.421Z</time>
      </trkpt>
      <trkpt lat="47.02349" lon="8.94583">
        <ele>845</ele>
        <time>2021-08-02T12:08:39.422Z</time>
      </trkpt>
      <trkpt lat="47.02349" lon="8.94583">
        <ele>845</ele>
        <time>2021-08-02T12:08:40.423Z</time>
      </trkpt>
      <trkpt lat="47.02348" lon="8.94584">
        <ele>845</ele>
        <time>2021-08-02T12:08:41.422Z</time>
      </trkpt>
      <trkpt lat="47.02347" lon="8.94584">
        <ele>845</ele>
        <time>2021-08-02T12:08:42.423Z</time>
      </trkpt>
      <trkpt lat="47.02347" lon="8.94585">
        <ele>845</ele>
        <time>2021-08-02T12:08:43.423Z</time>
      </trkpt>
      <trkpt lat="47.02347" lon="8.94587">
        <ele>844</ele>
        <time>2021-08-02T12:08:44.423Z</time>
      </trkpt>
      <trkpt lat="47.02348" lon="8.94587">
        <ele>844</ele>
        <time>2021-08-02T12:08:45.423Z</time>
      </trkpt>
      <trkpt lat="47.02349" lon="8.94586">
        <ele>844</ele>
        <time>2021-08-02T12:08:46.422Z</time>
      </trkpt>
      <trkpt lat="47.0235" lon="8.94585">
        <ele>844</ele>
        <time>2021-08-02T12:08:47.423Z</time>
      </trkpt>
      <trkpt lat="47.0235" lon="8.94585">
        <ele>844</ele>
        <time>2021-08-02T12:08:48.423Z</time>
      </trkpt>
      <trkpt lat="47.02351" lon="8.94584">
        <ele>844</ele>
        <time>2021-08-02T12:08:49.423Z</time>
      </trkpt>
      <trkpt lat="47.0235" lon="8.94583">
        <ele>844</ele>
        <time>2021-08-02T12:08:50.423Z</time>
      </trkpt>
      <trkpt lat="47.02349" lon="8.94581">
        <ele>845</ele>
        <time>2021-08-02T12:08:51.423Z</time>
      </trkpt>
      <trkpt lat="47.0235" lon="8.94579">
        <ele>846</ele>
        <time>2021-08-02T12:08:52.422Z</time>
      </trkpt>
      <trkpt lat="47.02351" lon="8.94579">
        <ele>846</ele>
        <time>2021-08-02T12:08:53.422Z</time>
      </trkpt>
      <trkpt lat="47.02351" lon="8.94579">
        <ele>847</ele>
        <time>2021-08-02T12:08:54.423Z</time>
      </trkpt>
      <trkpt lat="47.02351" lon="8.94579">
        <ele>848</ele>
        <time>2021-08-02T12:08:55.423Z</time>
      </trkpt>
      <trkpt lat="47.02351" lon="8.94581">
        <ele>849</ele>
        <time>2021-08-02T12:08:56.423Z</time>
      </trkpt>
      <trkpt lat="47.02351" lon="8.94582">
        <ele>849</ele>
        <time>2021-08-02T12:08:57.422Z</time>
      </trkpt>
      <trkpt lat="47.02352" lon="8.94582">
        <ele>850</ele>
        <time>2021-08-02T12:08:58.422Z</time>
      </trkpt>
      <trkpt lat="47.02352" lon="8.94583">
        <ele>850</ele>
        <time>2021-08-02T12:08:59.423Z</time>
      </trkpt>
      <trkpt lat="47.02353" lon="8.94583">
        <ele>851</ele>
        <time>2021-08-02T12:09:00.423Z</time>
      </trkpt>
      <trkpt lat="47.02353" lon="8.94583">
        <ele>851</ele>
        <time>2021-08-02T12:09:01.423Z</time>
      </trkpt>
      <trkpt lat="47.02353" lon="8.94582">
        <ele>851</ele>
        <time>2021-08-02T12:09:02.422Z</time>
      </trkpt>
      <trkpt lat="47.02353" lon="8.94581">
        <ele>850</ele>
        <time>2021-08-02T12:09:03.423Z</time>
      </trkpt>
      <trkpt lat="47.02354" lon="8.9458">
        <ele>850</ele>
        <time>2021-08-02T12:09:04.422Z</time>
      </trkpt>
      <trkpt lat="47.02353" lon="8.94581">
        <ele>850</ele>
        <time>2021-08-02T12:09:05.422Z</time>
      </trkpt>
      <trkpt lat="47.02353" lon="8.94581">
        <ele>849</ele>
        <time>2021-08-02T12:09:06.422Z</time>
      </trkpt>
      <trkpt lat="47.02354" lon="8.94582">
        <ele>849</ele>
        <time>2021-08-02T12:09:07.422Z</time>
      </trkpt>
      <trkpt lat="47.02354" lon="8.94582">
        <ele>849</ele>
        <time>2021-08-02T12:09:08.423Z</time>
      </trkpt>
      <trkpt lat="47.02354" lon="8.94583">
        <ele>849</ele>
        <time>2021-08-02T12:09:09.423Z</time>
      </trkpt>
      <trkpt lat="47.02355" lon="8.94583">
        <ele>849</ele>
        <time>2021-08-02T12:09:10.423Z</time>
      </trkpt>
      <trkpt lat="47.02355" lon="8.94583">
        <ele>849</ele>
        <time>2021-08-02T12:09:11.422Z</time>
      </trkpt>
      <trkpt lat="47.02355" lon="8.94582">
        <ele>849</ele>
        <time>2021-08-02T12:09:12.423Z</time>
      </trkpt>
      <trkpt lat="47.02355" lon="8.94583">
        <ele>849</ele>
        <time>2021-08-02T12:09:13.423Z</time>
      </trkpt>
      <trkpt lat="47.02355" lon="8.94583">
        <ele>849</ele>
        <time>2021-08-02T12:09:14.423Z</time>
      </trkpt>
      <trkpt lat="47.02355" lon="8.94584">
        <ele>847</ele>
        <time>2021-08-02T12:09:15.423Z</time>
      </trkpt>
      <trkpt lat="47.02354" lon="8.94584">
        <ele>846</ele>
        <time>2021-08-02T12:09:16.423Z</time>
      </trkpt>
      <trkpt lat="47.02354" lon="8.94584">
        <ele>846</ele>
        <time>2021-08-02T12:09:17.422Z</time>
      </trkpt>
      <trkpt lat="47.02354" lon="8.94584">
        <ele>846</ele>
        <time>2021-08-02T12:09:18.422Z</time>
      </trkpt>
      <trkpt lat="47.02354" lon="8.94584">
        <ele>846</ele>
        <time>2021-08-02T12:09:19.422Z</time>
      </trkpt>
      <trkpt lat="47.02353" lon="8.94584">
        <ele>845</ele>
        <time>2021-08-02T12:09:20.423Z</time>
      </trkpt>
      <trkpt lat="47.02352" lon="8.94584">
        <ele>845</ele>
        <time>2021-08-02T12:09:21.422Z</time>
      </trkpt>
      <trkpt lat="47.02351" lon="8.94585">
        <ele>844</ele>
        <time>2021-08-02T12:09:22.423Z</time>
      </trkpt>
      <trkpt lat="47.0235" lon="8.94586">
        <ele>844</ele>
        <time>2021-08-02T12:09:23.423Z</time>
      </trkpt>
      <trkpt lat="47.02349" lon="8.94588">
        <ele>844</ele>
        <time>2021-08-02T12:09:24.422Z</time>
      </trkpt>
      <trkpt lat="47.02348" lon="8.94588">
        <ele>843</ele>
        <time>2021-08-02T12:09:25.422Z</time>
      </trkpt>
      <trkpt lat="47.02348" lon="8.94588">
        <ele>843</ele>
        <time>2021-08-02T12:09:26.422Z</time>
      </trkpt>
      <trkpt lat="47.02347" lon="8.94589">
        <ele>843</ele>
        <time>2021-08-02T12:09:27.423Z</time>
      </trkpt>
      <trkpt lat="47.02346" lon="8.94589">
        <ele>843</ele>
        <time>2021-08-02T12:09:28.423Z</time>
      </trkpt>
      <trkpt lat="47.02346" lon="8.9459">
        <ele>842</ele>
        <time>2021-08-02T12:09:29.423Z</time>
      </trkpt>
      <trkpt lat="47.02346" lon="8.9459">
        <ele>842</ele>
        <time>2021-08-02T12:09:30.422Z</time>
      </trkpt>
      <trkpt lat="47.02345" lon="8.9459">
        <ele>842</ele>
        <time>2021-08-02T12:09:31.423Z</time>
      </trkpt>
      <trkpt lat="47.02345" lon="8.9459">
        <ele>841</ele>
        <time>2021-08-02T12:09:32.423Z</time>
      </trkpt>
      <trkpt lat="47.02345" lon="8.94589">
        <ele>841</ele>
        <time>2021-08-02T12:09:33.423Z</time>
      </trkpt>
      <trkpt lat="47.02345" lon="8.94588">
        <ele>841</ele>
        <time>2021-08-02T12:09:34.422Z</time>
      </trkpt>
      <trkpt lat="47.02344" lon="8.94588">
        <ele>840</ele>
        <time>2021-08-02T12:09:35.423Z</time>
      </trkpt>
      <trkpt lat="47.02345" lon="8.94587">
        <ele>841</ele>
        <time>2021-08-02T12:09:39.578Z</time>
      </trkpt>
      <trkpt lat="47.02345" lon="8.94585">
        <ele>841</ele>
        <time>2021-08-02T12:09:40.577Z</time>
      </trkpt>
      <trkpt lat="47.02345" lon="8.94585">
        <ele>841</ele>
        <time>2021-08-02T12:09:41.577Z</time>
      </trkpt>
      <trkpt lat="47.02345" lon="8.94585">
        <ele>847</ele>
        <time>2021-08-02T12:09:42.578Z</time>
      </trkpt>
      <trkpt lat="47.02344" lon="8.94587">
        <ele>847</ele>
        <time>2021-08-02T12:09:43.578Z</time>
      </trkpt>
      <trkpt lat="47.02344" lon="8.94589">
        <ele>847</ele>
        <time>2021-08-02T12:09:44.577Z</time>
      </trkpt>
      <trkpt lat="47.02344" lon="8.94589">
        <ele>848</ele>
        <time>2021-08-02T12:09:45.578Z</time>
      </trkpt>
      <trkpt lat="47.02346" lon="8.94589">
        <ele>849</ele>
        <time>2021-08-02T12:09:46.578Z</time>
      </trkpt>
      <trkpt lat="47.02347" lon="8.94588">
        <ele>849</ele>
        <time>2021-08-02T12:09:47.578Z</time>
      </trkpt>
      <trkpt lat="47.02347" lon="8.94587">
        <ele>850</ele>
        <time>2021-08-02T12:09:48.578Z</time>
      </trkpt>
      <trkpt lat="47.02347" lon="8.94587">
        <ele>850</ele>
        <time>2021-08-02T12:09:49.578Z</time>
      </trkpt>
      <trkpt lat="47.02348" lon="8.94587">
        <ele>851</ele>
        <time>2021-08-02T12:09:50.579Z</time>
      </trkpt>
      <trkpt lat="47.02347" lon="8.94586">
        <ele>852</ele>
        <time>2021-08-02T12:09:51.579Z</time>
      </trkpt>
      <trkpt lat="47.0235" lon="8.94588">
        <ele>852</ele>
        <time>2021-08-02T12:09:52.579Z</time>
      </trkpt>
      <trkpt lat="47.0235" lon="8.94588">
        <ele>853</ele>
        <time>2021-08-02T12:09:53.578Z</time>
      </trkpt>
      <trkpt lat="47.02351" lon="8.94589">
        <ele>853</ele>
        <time>2021-08-02T12:09:54.578Z</time>
      </trkpt>
      <trkpt lat="47.02351" lon="8.94588">
        <ele>853</ele>
        <time>2021-08-02T12:09:55.578Z</time>
      </trkpt>
      <trkpt lat="47.02351" lon="8.94588">
        <ele>854</ele>
        <time>2021-08-02T12:09:56.578Z</time>
      </trkpt>
      <trkpt lat="47.02351" lon="8.94588">
        <ele>854</ele>
        <time>2021-08-02T12:09:57.580Z</time>
      </trkpt>
      <trkpt lat="47.02351" lon="8.94587">
        <ele>854</ele>
        <time>2021-08-02T12:09:58.580Z</time>
      </trkpt>
      <trkpt lat="47.02351" lon="8.94586">
        <ele>854</ele>
        <time>2021-08-02T12:09:59.579Z</time>
      </trkpt>
      <trkpt lat="47.02351" lon="8.94586">
        <ele>855</ele>
        <time>2021-08-02T12:10:00.579Z</time>
      </trkpt>
      <trkpt lat="47.02351" lon="8.94585">
        <ele>855</ele>
        <time>2021-08-02T12:10:01.579Z</time>
      </trkpt>
      <trkpt lat="47.02351" lon="8.94585">
        <ele>855</ele>
        <time>2021-08-02T12:10:02.579Z</time>
      </trkpt>
      <trkpt lat="47.02351" lon="8.94585">
        <ele>856</ele>
        <time>2021-08-02T12:10:03.579Z</time>
      </trkpt>
      <trkpt lat="47.0235" lon="8.94585">
        <ele>856</ele>
        <time>2021-08-02T12:10:04.579Z</time>
      </trkpt>
      <trkpt lat="47.0235" lon="8.94585">
        <ele>857</ele>
        <time>2021-08-02T12:10:05.579Z</time>
      </trkpt>
      <trkpt lat="47.02349" lon="8.94584">
        <ele>857</ele>
        <time>2021-08-02T12:10:06.579Z</time>
      </trkpt>
      <trkpt lat="47.02349" lon="8.94584">
        <ele>857</ele>
        <time>2021-08-02T12:10:08.691Z</time>
      </trkpt>
      <trkpt lat="47.02349" lon="8.94584">
        <ele>857</ele>
        <time>2021-08-02T12:10:09.691Z</time>
      </trkpt>
      <trkpt lat="47.02349" lon="8.94584">
        <ele>857</ele>
        <time>2021-08-02T12:10:10.691Z</time>
      </trkpt>
      <trkpt lat="47.02348" lon="8.94584">
        <ele>857</ele>
        <time>2021-08-02T12:10:11.692Z</time>
      </trkpt>
      <trkpt lat="47.02348" lon="8.94585">
        <ele>857</ele>
        <time>2021-08-02T12:10:12.691Z</time>
      </trkpt>
      <trkpt lat="47.02347" lon="8.94585">
        <ele>859</ele>
        <time>2021-08-02T12:10:13.692Z</time>
      </trkpt>
      <trkpt lat="47.02348" lon="8.94584">
        <ele>857</ele>
        <time>2021-08-02T12:10:14.692Z</time>
      </trkpt>
      <trkpt lat="47.02349" lon="8.94585">
        <ele>856</ele>
        <time>2021-08-02T12:10:15.692Z</time>
      </trkpt>
      <trkpt lat="47.0235" lon="8.94584">
        <ele>856</ele>
        <time>2021-08-02T12:10:16.692Z</time>
      </trkpt>
      <trkpt lat="47.02351" lon="8.94584">
        <ele>856</ele>
        <time>2021-08-02T12:10:17.692Z</time>
      </trkpt>
      <trkpt lat="47.02351" lon="8.94584">
        <ele>855</ele>
        <time>2021-08-02T12:10:18.692Z</time>
      </trkpt>
      <trkpt lat="47.0235" lon="8.94583">
        <ele>855</ele>
        <time>2021-08-02T12:10:19.692Z</time>
      </trkpt>
      <trkpt lat="47.02349" lon="8.94583">
        <ele>855</ele>
        <time>2021-08-02T12:10:20.692Z</time>
      </trkpt>
      <trkpt lat="47.02349" lon="8.94582">
        <ele>856</ele>
        <time>2021-08-02T12:10:21.691Z</time>
      </trkpt>
      <trkpt lat="47.02348" lon="8.94581">
        <ele>856</ele>
        <time>2021-08-02T12:10:22.691Z</time>
      </trkpt>
      <trkpt lat="47.02348" lon="8.94581">
        <ele>856</ele>
        <time>2021-08-02T12:10:23.692Z</time>
      </trkpt>
      <trkpt lat="47.02347" lon="8.9458">
        <ele>857</ele>
        <time>2021-08-02T12:10:24.692Z</time>
      </trkpt>
      <trkpt lat="47.02347" lon="8.94581">
        <ele>857</ele>
        <time>2021-08-02T12:10:25.692Z</time>
      </trkpt>
      <trkpt lat="47.02346" lon="8.94582">
        <ele>857</ele>
        <time>2021-08-02T12:10:26.692Z</time>
      </trkpt>
      <trkpt lat="47.02347" lon="8.94582">
        <ele>857</ele>
        <time>2021-08-02T12:10:27.691Z</time>
      </trkpt>
      <trkpt lat="47.02346" lon="8.94582">
        <ele>857</ele>
        <time>2021-08-02T12:10:28.692Z</time>
      </trkpt>
      <trkpt lat="47.02347" lon="8.94585">
        <ele>850</ele>
        <time>2021-08-02T12:10:29.691Z</time>
      </trkpt>
      <trkpt lat="47.02348" lon="8.94585">
        <ele>849</ele>
        <time>2021-08-02T12:10:30.692Z</time>
      </trkpt>
      <trkpt lat="47.02348" lon="8.94584">
        <ele>849</ele>
        <time>2021-08-02T12:10:31.692Z</time>
      </trkpt>
      <trkpt lat="47.02348" lon="8.94583">
        <ele>849</ele>
        <time>2021-08-02T12:10:32.692Z</time>
      </trkpt>
      <trkpt lat="47.02348" lon="8.94582">
        <ele>849</ele>
        <time>2021-08-02T12:10:33.692Z</time>
      </trkpt>
      <trkpt lat="47.02348" lon="8.94582">
        <ele>848</ele>
        <time>2021-08-02T12:10:34.692Z</time>
      </trkpt>
      <trkpt lat="47.02348" lon="8.94582">
        <ele>848</ele>
        <time>2021-08-02T12:10:35.692Z</time>
      </trkpt>
      <trkpt lat="47.02348" lon="8.94582">
        <ele>842</ele>
        <time>2021-08-02T12:10:36.692Z</time>
      </trkpt>
      <trkpt lat="47.02348" lon="8.94582">
        <ele>842</ele>
        <time>2021-08-02T12:10:37.693Z</time>
      </trkpt>
      <trkpt lat="47.02349" lon="8.94583">
        <ele>842</ele>
        <time>2021-08-02T12:10:38.693Z</time>
      </trkpt>
      <trkpt lat="47.02351" lon="8.94584">
        <ele>843</ele>
        <time>2021-08-02T12:10:39.693Z</time>
      </trkpt>
      <trkpt lat="47.02352" lon="8.94585">
        <ele>844</ele>
        <time>2021-08-02T12:10:40.692Z</time>
      </trkpt>
      <trkpt lat="47.02353" lon="8.94585">
        <ele>845</ele>
        <time>2021-08-02T12:10:41.692Z</time>
      </trkpt>
      <trkpt lat="47.02353" lon="8.94585">
        <ele>846</ele>
        <time>2021-08-02T12:10:42.693Z</time>
      </trkpt>
      <trkpt lat="47.02352" lon="8.94583">
        <ele>849</ele>
        <time>2021-08-02T12:10:43.694Z</time>
      </trkpt>
      <trkpt lat="47.02352" lon="8.94584">
        <ele>849</ele>
        <time>2021-08-02T12:10:44.693Z</time>
      </trkpt>
      <trkpt lat="47.02351" lon="8.94583">
        <ele>849</ele>
        <time>2021-08-02T12:10:45.695Z</time>
      </trkpt>
      <trkpt lat="47.02351" lon="8.94583">
        <ele>849</ele>
        <time>2021-08-02T12:10:52.680Z</time>
      </trkpt>
      <trkpt lat="47.02351" lon="8.94583">
        <ele>849</ele>
        <time>2021-08-02T12:10:53.679Z</time>
      </trkpt>
      <trkpt lat="47.0235" lon="8.94582">
        <ele>846</ele>
        <time>2021-08-02T12:10:54.680Z</time>
      </trkpt>
      <trkpt lat="47.0235" lon="8.94582">
        <ele>842</ele>
        <time>2021-08-02T12:10:55.680Z</time>
      </trkpt>
      <trkpt lat="47.0235" lon="8.94582">
        <ele>842</ele>
        <time>2021-08-02T12:10:56.680Z</time>
      </trkpt>
      <trkpt lat="47.0235" lon="8.94581">
        <ele>842</ele>
        <time>2021-08-02T12:10:57.680Z</time>
      </trkpt>
      <trkpt lat="47.0235" lon="8.94581">
        <ele>843</ele>
        <time>2021-08-02T12:10:58.680Z</time>
      </trkpt>
      <trkpt lat="47.0235" lon="8.9458">
        <ele>844</ele>
        <time>2021-08-02T12:10:59.680Z</time>
      </trkpt>
      <trkpt lat="47.0235" lon="8.9458">
        <ele>845</ele>
        <time>2021-08-02T12:11:00.680Z</time>
      </trkpt>
      <trkpt lat="47.0235" lon="8.9458">
        <ele>844</ele>
        <time>2021-08-02T12:11:01.679Z</time>
      </trkpt>
      <trkpt lat="47.0235" lon="8.9458">
        <ele>844</ele>
        <time>2021-08-02T12:11:02.680Z</time>
      </trkpt>
      <trkpt lat="47.0235" lon="8.9458">
        <ele>844</ele>
        <time>2021-08-02T12:11:03.680Z</time>
      </trkpt>
      <trkpt lat="47.02351" lon="8.94579">
        <ele>844</ele>
        <time>2021-08-02T12:11:04.680Z</time>
      </trkpt>
      <trkpt lat="47.02351" lon="8.94578">
        <ele>845</ele>
        <time>2021-08-02T12:11:05.680Z</time>
      </trkpt>
      <trkpt lat="47.02349" lon="8.94578">
        <ele>846</ele>
        <time>2021-08-02T12:11:06.680Z</time>
      </trkpt>
      <trkpt lat="47.02349" lon="8.94579">
        <ele>845</ele>
        <time>2021-08-02T12:11:07.680Z</time>
      </trkpt>
      <trkpt lat="47.0235" lon="8.94579">
        <ele>845</ele>
        <time>2021-08-02T12:11:08.680Z</time>
      </trkpt>
      <trkpt lat="47.0235" lon="8.9458">
        <ele>845</ele>
        <time>2021-08-02T12:11:09.681Z</time>
      </trkpt>
      <trkpt lat="47.0235" lon="8.94585">
        <ele>849</ele>
        <time>2021-08-02T12:11:10.681Z</time>
      </trkpt>
      <trkpt lat="47.02351" lon="8.94584">
        <ele>849</ele>
        <time>2021-08-02T12:11:11.681Z</time>
      </trkpt>
      <trkpt lat="47.02348" lon="8.94578">
        <ele>845</ele>
        <time>2021-08-02T12:11:12.681Z</time>
      </trkpt>
      <trkpt lat="47.02348" lon="8.94577">
        <ele>845</ele>
        <time>2021-08-02T12:11:13.681Z</time>
      </trkpt>
      <trkpt lat="47.02347" lon="8.94575">
        <ele>845</ele>
        <time>2021-08-02T12:11:14.680Z</time>
      </trkpt>
      <trkpt lat="47.02347" lon="8.94572">
        <ele>847</ele>
        <time>2021-08-02T12:11:15.680Z</time>
      </trkpt>
      <trkpt lat="47.02348" lon="8.94572">
        <ele>847</ele>
        <time>2021-08-02T12:11:16.681Z</time>
      </trkpt>
      <trkpt lat="47.02351" lon="8.94582">
        <ele>848</ele>
        <time>2021-08-02T12:11:20.681Z</time>
      </trkpt>
      <trkpt lat="47.02352" lon="8.94582">
        <ele>847</ele>
        <time>2021-08-02T12:11:21.681Z</time>
      </trkpt>
      <trkpt lat="47.02352" lon="8.94582">
        <ele>847</ele>
        <time>2021-08-02T12:11:22.680Z</time>
      </trkpt>
      <trkpt lat="47.02351" lon="8.94582">
        <ele>847</ele>
        <time>2021-08-02T12:11:23.681Z</time>
      </trkpt>
      <trkpt lat="47.02351" lon="8.94582">
        <ele>846</ele>
        <time>2021-08-02T12:11:24.680Z</time>
      </trkpt>
      <trkpt lat="47.0235" lon="8.94582">
        <ele>846</ele>
        <time>2021-08-02T12:11:25.680Z</time>
      </trkpt>
      <trkpt lat="47.02348" lon="8.94585">
        <ele>845</ele>
        <time>2021-08-02T12:11:26.681Z</time>
      </trkpt>
      <trkpt lat="47.02349" lon="8.94584">
        <ele>845</ele>
        <time>2021-08-02T12:11:27.682Z</time>
      </trkpt>
      <trkpt lat="47.02349" lon="8.94585">
        <ele>846</ele>
        <time>2021-08-02T12:11:28.681Z</time>
      </trkpt>
      <trkpt lat="47.02349" lon="8.94586">
        <ele>846</ele>
        <time>2021-08-02T12:11:29.682Z</time>
      </trkpt>
      <trkpt lat="47.02349" lon="8.94586">
        <ele>847</ele>
        <time>2021-08-02T12:11:30.682Z</time>
      </trkpt>
      <trkpt lat="47.0235" lon="8.94586">
        <ele>847</ele>
        <time>2021-08-02T12:11:31.682Z</time>
      </trkpt>
      <trkpt lat="47.0235" lon="8.94586">
        <ele>848</ele>
        <time>2021-08-02T12:11:32.682Z</time>
      </trkpt>
      <trkpt lat="47.02352" lon="8.94586">
        <ele>849</ele>
        <time>2021-08-02T12:11:33.682Z</time>
      </trkpt>
      <trkpt lat="47.02355" lon="8.94587">
        <ele>854</ele>
        <time>2021-08-02T12:11:37.809Z</time>
      </trkpt>
      <trkpt lat="47.02356" lon="8.94587">
        <ele>854</ele>
        <time>2021-08-02T12:11:47.691Z</time>
      </trkpt>
      <trkpt lat="47.02356" lon="8.94587">
        <ele>854</ele>
        <time>2021-08-02T12:11:51.575Z</time>
      </trkpt>
      <trkpt lat="47.02355" lon="8.94586">
        <ele>853</ele>
        <time>2021-08-02T12:11:52.576Z</time>
      </trkpt>
      <trkpt lat="47.02355" lon="8.94586">
        <ele>852</ele>
        <time>2021-08-02T12:11:53.575Z</time>
      </trkpt>
      <trkpt lat="47.02355" lon="8.94586">
        <ele>852</ele>
        <time>2021-08-02T12:11:54.576Z</time>
      </trkpt>
      <trkpt lat="47.02354" lon="8.94586">
        <ele>851</ele>
        <time>2021-08-02T12:11:55.576Z</time>
      </trkpt>
      <trkpt lat="47.02353" lon="8.94586">
        <ele>850</ele>
        <time>2021-08-02T12:11:56.575Z</time>
      </trkpt>
      <trkpt lat="47.02354" lon="8.94587">
        <ele>848</ele>
        <time>2021-08-02T12:12:06.740Z</time>
      </trkpt>
      <trkpt lat="47.02354" lon="8.94587">
        <ele>848</ele>
        <time>2021-08-02T12:12:07.740Z</time>
      </trkpt>
      <trkpt lat="47.02354" lon="8.94587">
        <ele>848</ele>
        <time>2021-08-02T12:12:15.556Z</time>
      </trkpt>
      <trkpt lat="47.02353" lon="8.94587">
        <ele>847</ele>
        <time>2021-08-02T12:12:16.555Z</time>
      </trkpt>
      <trkpt lat="47.02352" lon="8.94585">
        <ele>846</ele>
        <time>2021-08-02T12:12:28.428Z</time>
      </trkpt>
      <trkpt lat="47.02352" lon="8.94585">
        <ele>846</ele>
        <time>2021-08-02T12:12:29.428Z</time>
      </trkpt>
      <trkpt lat="47.02352" lon="8.94585">
        <ele>846</ele>
        <time>2021-08-02T12:12:30.428Z</time>
      </trkpt>
      <trkpt lat="47.02352" lon="8.94585">
        <ele>846</ele>
        <time>2021-08-02T12:12:31.429Z</time>
      </trkpt>
      <trkpt lat="47.02352" lon="8.94586">
        <ele>845</ele>
        <time>2021-08-02T12:12:32.428Z</time>
      </trkpt>
      <trkpt lat="47.02352" lon="8.94586">
        <ele>845</ele>
        <time>2021-08-02T12:12:33.429Z</time>
      </trkpt>
      <trkpt lat="47.02353" lon="8.94586">
        <ele>847</ele>
        <time>2021-08-02T12:12:38.448Z</time>
      </trkpt>
      <trkpt lat="47.02353" lon="8.94587">
        <ele>847</ele>
        <time>2021-08-02T12:12:40.322Z</time>
      </trkpt>
      <trkpt lat="47.02353" lon="8.94587">
        <ele>847</ele>
        <time>2021-08-02T12:12:41.322Z</time>
      </trkpt>
      <trkpt lat="47.02348" lon="8.94581">
        <ele>859</ele>
        <time>2021-08-02T12:12:51.179Z</time>
      </trkpt>
      <trkpt lat="47.02348" lon="8.94581">
        <ele>859</ele>
        <time>2021-08-02T12:12:52.179Z</time>
      </trkpt>
      <trkpt lat="47.02349" lon="8.94582">
        <ele>855</ele>
        <time>2021-08-02T12:12:53.179Z</time>
      </trkpt>
      <trkpt lat="47.02349" lon="8.94583">
        <ele>855</ele>
        <time>2021-08-02T12:12:58.196Z</time>
      </trkpt>
      <trkpt lat="47.02349" lon="8.94585">
        <ele>855</ele>
        <time>2021-08-02T12:12:59.196Z</time>
      </trkpt>
      <trkpt lat="47.02349" lon="8.94585">
        <ele>855</ele>
        <time>2021-08-02T12:13:00.196Z</time>
      </trkpt>
      <trkpt lat="47.02349" lon="8.94586">
        <ele>855</ele>
        <time>2021-08-02T12:13:08.308Z</time>
      </trkpt>
      <trkpt lat="47.02349" lon="8.94586">
        <ele>855</ele>
        <time>2021-08-02T12:13:09.307Z</time>
      </trkpt>
      <trkpt lat="47.02349" lon="8.94586">
        <ele>855</ele>
        <time>2021-08-02T12:13:10.307Z</time>
      </trkpt>
      <trkpt lat="47.02348" lon="8.94588">
        <ele>850</ele>
        <time>2021-08-02T12:13:11.307Z</time>
      </trkpt>
      <trkpt lat="47.02348" lon="8.94588">
        <ele>850</ele>
        <time>2021-08-02T12:13:12.308Z</time>
      </trkpt>
      <trkpt lat="47.02348" lon="8.94588">
        <ele>850</ele>
        <time>2021-08-02T12:13:13.308Z</time>
      </trkpt>
      <trkpt lat="47.02349" lon="8.94587">
        <ele>850</ele>
        <time>2021-08-02T12:13:14.308Z</time>
      </trkpt>
      <trkpt lat="47.02348" lon="8.94587">
        <ele>850</ele>
        <time>2021-08-02T12:13:15.307Z</time>
      </trkpt>
      <trkpt lat="47.02348" lon="8.94586">
        <ele>850</ele>
        <time>2021-08-02T12:13:16.308Z</time>
      </trkpt>
      <trkpt lat="47.02347" lon="8.94584">
        <ele>850</ele>
        <time>2021-08-02T12:13:17.307Z</time>
      </trkpt>
      <trkpt lat="47.02347" lon="8.94584">
        <ele>850</ele>
        <time>2021-08-02T12:13:18.308Z</time>
      </trkpt>
      <trkpt lat="47.02347" lon="8.94581">
        <ele>852</ele>
        <time>2021-08-02T12:13:19.307Z</time>
      </trkpt>
      <trkpt lat="47.02347" lon="8.9458">
        <ele>853</ele>
        <time>2021-08-02T12:13:21.346Z</time>
      </trkpt>
      <trkpt lat="47.02348" lon="8.94579">
        <ele>853</ele>
        <time>2021-08-02T12:13:22.346Z</time>
      </trkpt>
      <trkpt lat="47.02347" lon="8.94578">
        <ele>853</ele>
        <time>2021-08-02T12:13:23.346Z</time>
      </trkpt>
      <trkpt lat="47.02346" lon="8.94577">
        <ele>853</ele>
        <time>2021-08-02T12:13:26.449Z</time>
      </trkpt>
      <trkpt lat="47.02347" lon="8.94576">
        <ele>853</ele>
        <time>2021-08-02T12:13:27.450Z</time>
      </trkpt>
      <trkpt lat="47.02347" lon="8.94576">
        <ele>853</ele>
        <time>2021-08-02T12:13:28.449Z</time>
      </trkpt>
      <trkpt lat="47.02348" lon="8.94576">
        <ele>853</ele>
        <time>2021-08-02T12:13:29.449Z</time>
      </trkpt>
      <trkpt lat="47.02348" lon="8.94575">
        <ele>853</ele>
        <time>2021-08-02T12:13:30.449Z</time>
      </trkpt>
      <trkpt lat="47.02348" lon="8.94574">
        <ele>853</ele>
        <time>2021-08-02T12:13:32.547Z</time>
      </trkpt>
      <trkpt lat="47.02348" lon="8.94573">
        <ele>853</ele>
        <time>2021-08-02T12:13:33.548Z</time>
      </trkpt>
      <trkpt lat="47.02347" lon="8.94572">
        <ele>853</ele>
        <time>2021-08-02T12:13:41.452Z</time>
      </trkpt>
      <trkpt lat="47.02346" lon="8.94571">
        <ele>853</ele>
        <time>2021-08-02T12:13:42.452Z</time>
      </trkpt>
      <trkpt lat="47.02346" lon="8.94572">
        <ele>853</ele>
        <time>2021-08-02T12:13:43.453Z</time>
      </trkpt>
      <trkpt lat="47.02346" lon="8.94572">
        <ele>853</ele>
        <time>2021-08-02T12:13:51.558Z</time>
      </trkpt>
      <trkpt lat="47.02343" lon="8.94572">
        <ele>854</ele>
        <time>2021-08-02T12:13:52.560Z</time>
      </trkpt>
      <trkpt lat="47.02342" lon="8.94573">
        <ele>854</ele>
        <time>2021-08-02T12:13:53.559Z</time>
      </trkpt>
      <trkpt lat="47.02342" lon="8.94574">
        <ele>854</ele>
        <time>2021-08-02T12:13:54.559Z</time>
      </trkpt>
      <trkpt lat="47.02342" lon="8.94575">
        <ele>855</ele>
        <time>2021-08-02T12:13:55.560Z</time>
      </trkpt>
      <trkpt lat="47.02342" lon="8.94575">
        <ele>855</ele>
        <time>2021-08-02T12:13:56.560Z</time>
      </trkpt>
      <trkpt lat="47.02344" lon="8.94579">
        <ele>853</ele>
        <time>2021-08-02T12:14:01.600Z</time>
      </trkpt>
      <trkpt lat="47.02344" lon="8.94579">
        <ele>853</ele>
        <time>2021-08-02T12:14:02.601Z</time>
      </trkpt>
      <trkpt lat="47.02344" lon="8.9458">
        <ele>852</ele>
        <time>2021-08-02T12:14:03.600Z</time>
      </trkpt>
      <trkpt lat="47.02345" lon="8.94585">
        <ele>848</ele>
        <time>2021-08-02T12:14:04.600Z</time>
      </trkpt>
      <trkpt lat="47.02345" lon="8.94585">
        <ele>849</ele>
        <time>2021-08-02T12:14:05.602Z</time>
      </trkpt>
      <trkpt lat="47.02346" lon="8.94585">
        <ele>849</ele>
        <time>2021-08-02T12:14:06.602Z</time>
      </trkpt>
      <trkpt lat="47.02346" lon="8.94585">
        <ele>849</ele>
        <time>2021-08-02T12:14:07.601Z</time>
      </trkpt>
      <trkpt lat="47.02347" lon="8.94586">
        <ele>850</ele>
        <time>2021-08-02T12:14:08.601Z</time>
      </trkpt>
      <trkpt lat="47.02347" lon="8.94586">
        <ele>850</ele>
        <time>2021-08-02T12:14:09.602Z</time>
      </trkpt>
      <trkpt lat="47.02344" lon="8.94588">
        <ele>854</ele>
        <time>2021-08-02T12:14:10.602Z</time>
      </trkpt>
      <trkpt lat="47.02345" lon="8.94589">
        <ele>855</ele>
        <time>2021-08-02T12:14:11.602Z</time>
      </trkpt>
      <trkpt lat="47.02345" lon="8.94589">
        <ele>856</ele>
        <time>2021-08-02T12:14:12.602Z</time>
      </trkpt>
      <trkpt lat="47.02346" lon="8.94591">
        <ele>858</ele>
        <time>2021-08-02T12:14:13.604Z</time>
      </trkpt>
      <trkpt lat="47.02346" lon="8.94591">
        <ele>859</ele>
        <time>2021-08-02T12:14:17.723Z</time>
      </trkpt>
      <trkpt lat="47.02346" lon="8.94592">
        <ele>860</ele>
        <time>2021-08-02T12:14:18.723Z</time>
      </trkpt>
      <trkpt lat="47.02347" lon="8.94593">
        <ele>860</ele>
        <time>2021-08-02T12:14:19.723Z</time>
      </trkpt>
      <trkpt lat="47.02346" lon="8.94593">
        <ele>860</ele>
        <time>2021-08-02T12:14:20.723Z</time>
      </trkpt>
      <trkpt lat="47.02345" lon="8.94593">
        <ele>861</ele>
        <time>2021-08-02T12:14:21.723Z</time>
      </trkpt>
      <trkpt lat="47.02345" lon="8.94593">
        <ele>861</ele>
        <time>2021-08-02T12:14:22.723Z</time>
      </trkpt>
      <trkpt lat="47.02344" lon="8.94592">
        <ele>861</ele>
        <time>2021-08-02T12:14:23.723Z</time>
      </trkpt>
      <trkpt lat="47.02343" lon="8.94591">
        <ele>861</ele>
        <time>2021-08-02T12:14:24.724Z</time>
      </trkpt>
      <trkpt lat="47.02343" lon="8.9459">
        <ele>861</ele>
        <time>2021-08-02T12:14:25.723Z</time>
      </trkpt>
      <trkpt lat="47.02342" lon="8.9459">
        <ele>861</ele>
        <time>2021-08-02T12:14:26.723Z</time>
      </trkpt>
      <trkpt lat="47.02342" lon="8.9459">
        <ele>861</ele>
        <time>2021-08-02T12:14:27.723Z</time>
      </trkpt>
      <trkpt lat="47.02343" lon="8.94591">
        <ele>861</ele>
        <time>2021-08-02T12:14:28.723Z</time>
      </trkpt>
      <trkpt lat="47.02343" lon="8.9459">
        <ele>854</ele>
        <time>2021-08-02T12:14:31.665Z</time>
      </trkpt>
      <trkpt lat="47.02342" lon="8.9459">
        <ele>853</ele>
        <time>2021-08-02T12:14:32.665Z</time>
      </trkpt>
      <trkpt lat="47.02341" lon="8.9459">
        <ele>853</ele>
        <time>2021-08-02T12:14:33.665Z</time>
      </trkpt>
      <trkpt lat="47.02341" lon="8.9459">
        <ele>852</ele>
        <time>2021-08-02T12:14:34.665Z</time>
      </trkpt>
      <trkpt lat="47.02342" lon="8.9459">
        <ele>852</ele>
        <time>2021-08-02T12:14:35.665Z</time>
      </trkpt>
      <trkpt lat="47.02343" lon="8.9459">
        <ele>852</ele>
        <time>2021-08-02T12:14:36.665Z</time>
      </trkpt>
      <trkpt lat="47.02343" lon="8.9459">
        <ele>851</ele>
        <time>2021-08-02T12:14:40.875Z</time>
      </trkpt>
      <trkpt lat="47.02344" lon="8.94589">
        <ele>851</ele>
        <time>2021-08-02T12:14:41.874Z</time>
      </trkpt>
      <trkpt lat="47.02344" lon="8.94589">
        <ele>852</ele>
        <time>2021-08-02T12:14:42.875Z</time>
      </trkpt>
      <trkpt lat="47.02344" lon="8.9459">
        <ele>852</ele>
        <time>2021-08-02T12:14:43.874Z</time>
      </trkpt>
      <trkpt lat="47.02345" lon="8.9459">
        <ele>852</ele>
        <time>2021-08-02T12:14:44.875Z</time>
      </trkpt>
      <trkpt lat="47.02346" lon="8.9459">
        <ele>852</ele>
        <time>2021-08-02T12:14:45.874Z</time>
      </trkpt>
      <trkpt lat="47.02346" lon="8.9459">
        <ele>852</ele>
        <time>2021-08-02T12:14:46.875Z</time>
      </trkpt>
      <trkpt lat="47.02345" lon="8.9459">
        <ele>852</ele>
        <time>2021-08-02T12:14:47.875Z</time>
      </trkpt>
      <trkpt lat="47.02345" lon="8.94591">
        <ele>851</ele>
        <time>2021-08-02T12:14:48.875Z</time>
      </trkpt>
      <trkpt lat="47.02345" lon="8.9459">
        <ele>851</ele>
        <time>2021-08-02T12:14:49.875Z</time>
      </trkpt>
      <trkpt lat="47.02344" lon="8.94588">
        <ele>851</ele>
        <time>2021-08-02T12:14:50.875Z</time>
      </trkpt>
      <trkpt lat="47.02343" lon="8.94585">
        <ele>851</ele>
        <time>2021-08-02T12:14:51.875Z</time>
      </trkpt>
      <trkpt lat="47.02341" lon="8.94583">
        <ele>851</ele>
        <time>2021-08-02T12:14:52.875Z</time>
      </trkpt>
      <trkpt lat="47.02342" lon="8.94582">
        <ele>851</ele>
        <time>2021-08-02T12:14:53.874Z</time>
      </trkpt>
      <trkpt lat="47.02342" lon="8.94581">
        <ele>851</ele>
        <time>2021-08-02T12:14:54.875Z</time>
      </trkpt>
      <trkpt lat="47.02342" lon="8.9458">
        <ele>851</ele>
        <time>2021-08-02T12:14:55.875Z</time>
      </trkpt>
      <trkpt lat="47.02343" lon="8.9458">
        <ele>851</ele>
        <time>2021-08-02T12:14:56.874Z</time>
      </trkpt>
      <trkpt lat="47.02344" lon="8.94581">
        <ele>851</ele>
        <time>2021-08-02T12:14:57.874Z</time>
      </trkpt>
      <trkpt lat="47.02344" lon="8.94581">
        <ele>851</ele>
        <time>2021-08-02T12:14:58.875Z</time>
      </trkpt>
      <trkpt lat="47.02344" lon="8.94581">
        <ele>852</ele>
        <time>2021-08-02T12:14:59.875Z</time>
      </trkpt>
      <trkpt lat="47.02344" lon="8.9458">
        <ele>852</ele>
        <time>2021-08-02T12:15:00.875Z</time>
      </trkpt>
      <trkpt lat="47.02344" lon="8.9458">
        <ele>852</ele>
        <time>2021-08-02T12:15:01.875Z</time>
      </trkpt>
      <trkpt lat="47.02343" lon="8.9458">
        <ele>852</ele>
        <time>2021-08-02T12:15:02.876Z</time>
      </trkpt>
      <trkpt lat="47.02343" lon="8.94579">
        <ele>852</ele>
        <time>2021-08-02T12:15:03.876Z</time>
      </trkpt>
      <trkpt lat="47.02343" lon="8.9458">
        <ele>852</ele>
        <time>2021-08-02T12:15:04.876Z</time>
      </trkpt>
      <trkpt lat="47.02343" lon="8.94579">
        <ele>852</ele>
        <time>2021-08-02T12:15:05.876Z</time>
      </trkpt>
      <trkpt lat="47.02343" lon="8.94579">
        <ele>852</ele>
        <time>2021-08-02T12:15:06.875Z</time>
      </trkpt>
      <trkpt lat="47.02351" lon="8.94586">
        <ele>855</ele>
        <time>2021-08-02T12:15:07.875Z</time>
      </trkpt>
      <trkpt lat="47.02351" lon="8.94585">
        <ele>856</ele>
        <time>2021-08-02T12:15:08.875Z</time>
      </trkpt>
      <trkpt lat="47.02354" lon="8.94587">
        <ele>857</ele>
        <time>2021-08-02T12:15:09.876Z</time>
      </trkpt>
      <trkpt lat="47.02355" lon="8.94589">
        <ele>858</ele>
        <time>2021-08-02T12:15:10.876Z</time>
      </trkpt>
      <trkpt lat="47.02356" lon="8.94591">
        <ele>858</ele>
        <time>2021-08-02T12:15:11.876Z</time>
      </trkpt>
      <trkpt lat="47.02358" lon="8.94593">
        <ele>859</ele>
        <time>2021-08-02T12:15:12.877Z</time>
      </trkpt>
      <trkpt lat="47.02359" lon="8.94595">
        <ele>861</ele>
        <time>2021-08-02T12:15:13.877Z</time>
      </trkpt>
      <trkpt lat="47.02359" lon="8.94594">
        <ele>861</ele>
        <time>2021-08-02T12:15:14.877Z</time>
      </trkpt>
      <trkpt lat="47.02359" lon="8.94594">
        <ele>862</ele>
        <time>2021-08-02T12:15:15.877Z</time>
      </trkpt>
      <trkpt lat="47.02359" lon="8.94593">
        <ele>862</ele>
        <time>2021-08-02T12:15:16.876Z</time>
      </trkpt>
      <trkpt lat="47.02359" lon="8.94592">
        <ele>862</ele>
        <time>2021-08-02T12:15:17.876Z</time>
      </trkpt>
      <trkpt lat="47.02359" lon="8.94591">
        <ele>862</ele>
        <time>2021-08-02T12:15:18.876Z</time>
      </trkpt>
      <trkpt lat="47.02359" lon="8.9459">
        <ele>861</ele>
        <time>2021-08-02T12:15:20.927Z</time>
      </trkpt>
      <trkpt lat="47.0236" lon="8.94591">
        <ele>861</ele>
        <time>2021-08-02T12:15:21.927Z</time>
      </trkpt>
      <trkpt lat="47.0236" lon="8.94592">
        <ele>861</ele>
        <time>2021-08-02T12:15:22.927Z</time>
      </trkpt>
      <trkpt lat="47.0236" lon="8.94592">
        <ele>861</ele>
        <time>2021-08-02T12:15:23.927Z</time>
      </trkpt>
      <trkpt lat="47.0236" lon="8.94593">
        <ele>860</ele>
        <time>2021-08-02T12:15:24.927Z</time>
      </trkpt>
      <trkpt lat="47.02361" lon="8.94592">
        <ele>859</ele>
        <time>2021-08-02T12:15:25.927Z</time>
      </trkpt>
      <trkpt lat="47.02361" lon="8.94591">
        <ele>858</ele>
        <time>2021-08-02T12:15:30.953Z</time>
      </trkpt>
      <trkpt lat="47.02361" lon="8.94591">
        <ele>858</ele>
        <time>2021-08-02T12:15:31.953Z</time>
      </trkpt>
      <trkpt lat="47.02359" lon="8.9459">
        <ele>858</ele>
        <time>2021-08-02T12:15:32.953Z</time>
      </trkpt>
      <trkpt lat="47.02359" lon="8.94589">
        <ele>858</ele>
        <time>2021-08-02T12:15:33.953Z</time>
      </trkpt>
      <trkpt lat="47.02359" lon="8.94589">
        <ele>858</ele>
        <time>2021-08-02T12:15:38.066Z</time>
      </trkpt>
      <trkpt lat="47.02358" lon="8.94589">
        <ele>858</ele>
        <time>2021-08-02T12:15:39.066Z</time>
      </trkpt>
      <trkpt lat="47.02359" lon="8.94589">
        <ele>859</ele>
        <time>2021-08-02T12:15:40.066Z</time>
      </trkpt>
      <trkpt lat="47.0236" lon="8.9459">
        <ele>859</ele>
        <time>2021-08-02T12:15:42.218Z</time>
      </trkpt>
      <trkpt lat="47.0236" lon="8.9459">
        <ele>859</ele>
        <time>2021-08-02T12:15:43.218Z</time>
      </trkpt>
      <trkpt lat="47.02359" lon="8.94589">
        <ele>860</ele>
        <time>2021-08-02T12:15:44.219Z</time>
      </trkpt>
      <trkpt lat="47.02359" lon="8.94589">
        <ele>860</ele>
        <time>2021-08-02T12:15:45.218Z</time>
      </trkpt>
      <trkpt lat="47.02359" lon="8.94589">
        <ele>860</ele>
        <time>2021-08-02T12:15:46.218Z</time>
      </trkpt>
      <trkpt lat="47.02358" lon="8.94589">
        <ele>860</ele>
        <time>2021-08-02T12:15:47.218Z</time>
      </trkpt>
      <trkpt lat="47.02354" lon="8.94587">
        <ele>854</ele>
        <time>2021-08-02T12:15:51.352Z</time>
      </trkpt>
      <trkpt lat="47.02354" lon="8.94587">
        <ele>854</ele>
        <time>2021-08-02T12:15:52.351Z</time>
      </trkpt>
      <trkpt lat="47.02354" lon="8.94588">
        <ele>854</ele>
        <time>2021-08-02T12:15:53.351Z</time>
      </trkpt>
      <trkpt lat="47.02354" lon="8.94586">
        <ele>851</ele>
        <time>2021-08-02T12:15:54.352Z</time>
      </trkpt>
      <trkpt lat="47.02354" lon="8.94586">
        <ele>851</ele>
        <time>2021-08-02T12:15:55.352Z</time>
      </trkpt>
      <trkpt lat="47.02354" lon="8.94586">
        <ele>853</ele>
        <time>2021-08-02T12:15:56.353Z</time>
      </trkpt>
      <trkpt lat="47.02354" lon="8.94586">
        <ele>854</ele>
        <time>2021-08-02T12:15:57.353Z</time>
      </trkpt>
      <trkpt lat="47.02354" lon="8.94585">
        <ele>854</ele>
        <time>2021-08-02T12:15:58.352Z</time>
      </trkpt>
      <trkpt lat="47.02351" lon="8.94578">
        <ele>856</ele>
        <time>2021-08-02T12:15:59.353Z</time>
      </trkpt>
      <trkpt lat="47.02351" lon="8.94576">
        <ele>856</ele>
        <time>2021-08-02T12:16:00.353Z</time>
      </trkpt>
      <trkpt lat="47.0235" lon="8.94575">
        <ele>856</ele>
        <time>2021-08-02T12:16:01.352Z</time>
      </trkpt>
      <trkpt lat="47.0235" lon="8.94574">
        <ele>857</ele>
        <time>2021-08-02T12:16:02.353Z</time>
      </trkpt>
      <trkpt lat="47.02349" lon="8.94573">
        <ele>854</ele>
        <time>2021-08-02T12:16:03.352Z</time>
      </trkpt>
      <trkpt lat="47.02349" lon="8.94574">
        <ele>854</ele>
        <time>2021-08-02T12:16:04.352Z</time>
      </trkpt>
      <trkpt lat="47.02349" lon="8.94575">
        <ele>854</ele>
        <time>2021-08-02T12:16:05.353Z</time>
      </trkpt>
      <trkpt lat="47.02349" lon="8.94575">
        <ele>855</ele>
        <time>2021-08-02T12:16:06.353Z</time>
      </trkpt>
      <trkpt lat="47.02349" lon="8.94575">
        <ele>855</ele>
        <time>2021-08-02T12:16:07.353Z</time>
      </trkpt>
      <trkpt lat="47.0235" lon="8.94575">
        <ele>855</ele>
        <time>2021-08-02T12:16:08.353Z</time>
      </trkpt>
      <trkpt lat="47.02351" lon="8.94577">
        <ele>855</ele>
        <time>2021-08-02T12:16:09.353Z</time>
      </trkpt>
      <trkpt lat="47.02352" lon="8.94577">
        <ele>856</ele>
        <time>2021-08-02T12:16:10.352Z</time>
      </trkpt>
      <trkpt lat="47.02353" lon="8.94578">
        <ele>856</ele>
        <time>2021-08-02T12:16:11.352Z</time>
      </trkpt>
      <trkpt lat="47.02353" lon="8.94578">
        <ele>856</ele>
        <time>2021-08-02T12:16:12.353Z</time>
      </trkpt>
      <trkpt lat="47.02357" lon="8.94579">
        <ele>859</ele>
        <time>2021-08-02T12:16:13.354Z</time>
      </trkpt>
      <trkpt lat="47.02357" lon="8.94578">
        <ele>859</ele>
        <time>2021-08-02T12:16:14.353Z</time>
      </trkpt>
      <trkpt lat="47.02356" lon="8.94577">
        <ele>860</ele>
        <time>2021-08-02T12:16:15.353Z</time>
      </trkpt>
      <trkpt lat="47.02353" lon="8.94576">
        <ele>866</ele>
        <time>2021-08-02T12:16:16.355Z</time>
      </trkpt>
      <trkpt lat="47.02353" lon="8.94577">
        <ele>866</ele>
        <time>2021-08-02T12:16:17.354Z</time>
      </trkpt>
      <trkpt lat="47.02353" lon="8.94576">
        <ele>867</ele>
        <time>2021-08-02T12:16:18.354Z</time>
      </trkpt>
      <trkpt lat="47.02353" lon="8.94576">
        <ele>868</ele>
        <time>2021-08-02T12:16:19.354Z</time>
      </trkpt>
      <trkpt lat="47.02355" lon="8.94572">
        <ele>873</ele>
        <time>2021-08-02T12:16:20.355Z</time>
      </trkpt>
      <trkpt lat="47.02356" lon="8.94571">
        <ele>874</ele>
        <time>2021-08-02T12:16:21.354Z</time>
      </trkpt>
      <trkpt lat="47.02355" lon="8.94571">
        <ele>875</ele>
        <time>2021-08-02T12:16:24.431Z</time>
      </trkpt>
      <trkpt lat="47.02355" lon="8.94573">
        <ele>875</ele>
        <time>2021-08-02T12:16:25.430Z</time>
      </trkpt>
      <trkpt lat="47.02355" lon="8.94572">
        <ele>876</ele>
        <time>2021-08-02T12:16:26.430Z</time>
      </trkpt>
      <trkpt lat="47.02351" lon="8.94578">
        <ele>876</ele>
        <time>2021-08-02T12:16:27.432Z</time>
      </trkpt>
      <trkpt lat="47.02351" lon="8.94577">
        <ele>876</ele>
        <time>2021-08-02T12:16:28.432Z</time>
      </trkpt>
      <trkpt lat="47.02351" lon="8.94575">
        <ele>876</ele>
        <time>2021-08-02T12:16:29.431Z</time>
      </trkpt>
      <trkpt lat="47.02351" lon="8.9457">
        <ele>871</ele>
        <time>2021-08-02T12:16:30.432Z</time>
      </trkpt>
      <trkpt lat="47.02351" lon="8.9457">
        <ele>871</ele>
        <time>2021-08-02T12:16:31.432Z</time>
      </trkpt>
      <trkpt lat="47.02351" lon="8.9457">
        <ele>870</ele>
        <time>2021-08-02T12:16:32.431Z</time>
      </trkpt>
      <trkpt lat="47.02352" lon="8.9457">
        <ele>870</ele>
        <time>2021-08-02T12:16:33.431Z</time>
      </trkpt>
      <trkpt lat="47.02352" lon="8.94569">
        <ele>869</ele>
        <time>2021-08-02T12:16:34.432Z</time>
      </trkpt>
      <trkpt lat="47.02351" lon="8.94567">
        <ele>869</ele>
        <time>2021-08-02T12:16:35.432Z</time>
      </trkpt>
      <trkpt lat="47.0235" lon="8.94565">
        <ele>869</ele>
        <time>2021-08-02T12:16:36.431Z</time>
      </trkpt>
      <trkpt lat="47.0235" lon="8.94565">
        <ele>869</ele>
        <time>2021-08-02T12:16:37.432Z</time>
      </trkpt>
      <trkpt lat="47.02349" lon="8.94565">
        <ele>869</ele>
        <time>2021-08-02T12:16:38.431Z</time>
      </trkpt>
      <trkpt lat="47.02347" lon="8.94565">
        <ele>868</ele>
        <time>2021-08-02T12:16:39.432Z</time>
      </trkpt>
      <trkpt lat="47.02345" lon="8.94565">
        <ele>868</ele>
        <time>2021-08-02T12:16:40.432Z</time>
      </trkpt>
      <trkpt lat="47.02344" lon="8.94566">
        <ele>868</ele>
        <time>2021-08-02T12:16:41.432Z</time>
      </trkpt>
      <trkpt lat="47.02344" lon="8.94567">
        <ele>867</ele>
        <time>2021-08-02T12:16:42.431Z</time>
      </trkpt>
      <trkpt lat="47.02343" lon="8.94566">
        <ele>867</ele>
        <time>2021-08-02T12:16:43.432Z</time>
      </trkpt>
      <trkpt lat="47.02343" lon="8.94566">
        <ele>867</ele>
        <time>2021-08-02T12:16:44.431Z</time>
      </trkpt>
      <trkpt lat="47.02343" lon="8.94567">
        <ele>866</ele>
        <time>2021-08-02T12:16:45.432Z</time>
      </trkpt>
      <trkpt lat="47.02344" lon="8.94568">
        <ele>866</ele>
        <time>2021-08-02T12:16:46.432Z</time>
      </trkpt>
      <trkpt lat="47.02348" lon="8.94579">
        <ele>860</ele>
        <time>2021-08-02T12:16:47.431Z</time>
      </trkpt>
      <trkpt lat="47.02347" lon="8.9458">
        <ele>860</ele>
        <time>2021-08-02T12:16:48.432Z</time>
      </trkpt>
      <trkpt lat="47.02346" lon="8.9458">
        <ele>860</ele>
        <time>2021-08-02T12:16:49.431Z</time>
      </trkpt>
      <trkpt lat="47.02347" lon="8.94581">
        <ele>861</ele>
        <time>2021-08-02T12:16:50.431Z</time>
      </trkpt>
      <trkpt lat="47.02347" lon="8.94583">
        <ele>861</ele>
        <time>2021-08-02T12:16:51.431Z</time>
      </trkpt>
      <trkpt lat="47.02347" lon="8.94584">
        <ele>862</ele>
        <time>2021-08-02T12:16:52.432Z</time>
      </trkpt>
      <trkpt lat="47.02348" lon="8.94585">
        <ele>862</ele>
        <time>2021-08-02T12:16:53.432Z</time>
      </trkpt>
      <trkpt lat="47.0235" lon="8.94586">
        <ele>862</ele>
        <time>2021-08-02T12:16:54.432Z</time>
      </trkpt>
      <trkpt lat="47.02352" lon="8.94585">
        <ele>862</ele>
        <time>2021-08-02T12:16:55.432Z</time>
      </trkpt>
      <trkpt lat="47.02353" lon="8.94584">
        <ele>863</ele>
        <time>2021-08-02T12:16:56.432Z</time>
      </trkpt>
      <trkpt lat="47.02354" lon="8.94582">
        <ele>863</ele>
        <time>2021-08-02T12:16:57.431Z</time>
      </trkpt>
      <trkpt lat="47.02354" lon="8.9458">
        <ele>864</ele>
        <time>2021-08-02T12:16:58.432Z</time>
      </trkpt>
      <trkpt lat="47.02354" lon="8.94577">
        <ele>867</ele>
        <time>2021-08-02T12:16:59.431Z</time>
      </trkpt>
      <trkpt lat="47.02355" lon="8.94577">
        <ele>867</ele>
        <time>2021-08-02T12:17:00.432Z</time>
      </trkpt>
      <trkpt lat="47.02355" lon="8.94576">
        <ele>867</ele>
        <time>2021-08-02T12:17:01.431Z</time>
      </trkpt>
      <trkpt lat="47.02354" lon="8.94576">
        <ele>866</ele>
        <time>2021-08-02T12:17:02.432Z</time>
      </trkpt>
      <trkpt lat="47.02353" lon="8.94575">
        <ele>867</ele>
        <time>2021-08-02T12:17:03.431Z</time>
      </trkpt>
      <trkpt lat="47.02353" lon="8.94574">
        <ele>867</ele>
        <time>2021-08-02T12:17:04.432Z</time>
      </trkpt>
      <trkpt lat="47.02353" lon="8.94574">
        <ele>867</ele>
        <time>2021-08-02T12:17:05.431Z</time>
      </trkpt>
      <trkpt lat="47.02352" lon="8.94577">
        <ele>865</ele>
        <time>2021-08-02T12:17:06.431Z</time>
      </trkpt>
      <trkpt lat="47.02352" lon="8.94577">
        <ele>864</ele>
        <time>2021-08-02T12:17:07.431Z</time>
      </trkpt>
      <trkpt lat="47.02352" lon="8.94576">
        <ele>864</ele>
        <time>2021-08-02T12:17:08.431Z</time>
      </trkpt>
      <trkpt lat="47.02353" lon="8.94576">
        <ele>864</ele>
        <time>2021-08-02T12:17:09.431Z</time>
      </trkpt>
      <trkpt lat="47.02353" lon="8.94576">
        <ele>864</ele>
        <time>2021-08-02T12:17:10.431Z</time>
      </trkpt>
      <trkpt lat="47.02352" lon="8.94574">
        <ele>862</ele>
        <time>2021-08-02T12:17:11.432Z</time>
      </trkpt>
      <trkpt lat="47.02352" lon="8.94576">
        <ele>862</ele>
        <time>2021-08-02T12:17:12.432Z</time>
      </trkpt>
      <trkpt lat="47.02352" lon="8.94576">
        <ele>863</ele>
        <time>2021-08-02T12:17:13.432Z</time>
      </trkpt>
      <trkpt lat="47.02354" lon="8.94577">
        <ele>869</ele>
        <time>2021-08-02T12:17:14.432Z</time>
      </trkpt>
      <trkpt lat="47.02354" lon="8.94579">
        <ele>869</ele>
        <time>2021-08-02T12:17:15.432Z</time>
      </trkpt>
      <trkpt lat="47.02355" lon="8.94579">
        <ele>869</ele>
        <time>2021-08-02T12:17:16.433Z</time>
      </trkpt>
      <trkpt lat="47.02353" lon="8.94578">
        <ele>868</ele>
        <time>2021-08-02T12:17:17.432Z</time>
      </trkpt>
      <trkpt lat="47.02352" lon="8.94578">
        <ele>868</ele>
        <time>2021-08-02T12:17:18.432Z</time>
      </trkpt>
      <trkpt lat="47.02354" lon="8.94574">
        <ele>869</ele>
        <time>2021-08-02T12:17:19.433Z</time>
      </trkpt>
      <trkpt lat="47.02354" lon="8.94574">
        <ele>869</ele>
        <time>2021-08-02T12:17:20.434Z</time>
      </trkpt>
      <trkpt lat="47.02354" lon="8.94573">
        <ele>869</ele>
        <time>2021-08-02T12:17:21.433Z</time>
      </trkpt>
      <trkpt lat="47.02353" lon="8.94574">
        <ele>869</ele>
        <time>2021-08-02T12:17:22.434Z</time>
      </trkpt>
      <trkpt lat="47.02352" lon="8.94573">
        <ele>869</ele>
        <time>2021-08-02T12:17:23.435Z</time>
      </trkpt>
      <trkpt lat="47.02352" lon="8.94572">
        <ele>867</ele>
        <time>2021-08-02T12:17:24.435Z</time>
      </trkpt>
      <trkpt lat="47.02353" lon="8.94572">
        <ele>867</ele>
        <time>2021-08-02T12:17:25.435Z</time>
      </trkpt>
      <trkpt lat="47.02353" lon="8.94572">
        <ele>867</ele>
        <time>2021-08-02T12:17:26.434Z</time>
      </trkpt>
      <trkpt lat="47.02351" lon="8.94578">
        <ele>851</ele>
        <time>2021-08-02T12:17:27.435Z</time>
      </trkpt>
      <trkpt lat="47.02351" lon="8.94579">
        <ele>850</ele>
        <time>2021-08-02T12:17:28.435Z</time>
      </trkpt>
      <trkpt lat="47.02351" lon="8.94579">
        <ele>850</ele>
        <time>2021-08-02T12:17:29.434Z</time>
      </trkpt>
      <trkpt lat="47.02351" lon="8.94578">
        <ele>850</ele>
        <time>2021-08-02T12:17:30.435Z</time>
      </trkpt>
      <trkpt lat="47.02352" lon="8.94578">
        <ele>849</ele>
        <time>2021-08-02T12:17:31.435Z</time>
      </trkpt>
      <trkpt lat="47.02353" lon="8.94583">
        <ele>848</ele>
        <time>2021-08-02T12:17:32.437Z</time>
      </trkpt>
      <trkpt lat="47.02353" lon="8.94585">
        <ele>848</ele>
        <time>2021-08-02T12:17:33.437Z</time>
      </trkpt>
      <trkpt lat="47.02353" lon="8.94586">
        <ele>848</ele>
        <time>2021-08-02T12:17:34.436Z</time>
      </trkpt>
      <trkpt lat="47.02353" lon="8.94585">
        <ele>848</ele>
        <time>2021-08-02T12:17:35.436Z</time>
      </trkpt>
      <trkpt lat="47.02352" lon="8.94586">
        <ele>848</ele>
        <time>2021-08-02T12:17:36.436Z</time>
      </trkpt>
      <trkpt lat="47.02352" lon="8.94587">
        <ele>849</ele>
        <time>2021-08-02T12:17:37.436Z</time>
      </trkpt>
      <trkpt lat="47.02352" lon="8.94588">
        <ele>849</ele>
        <time>2021-08-02T12:17:38.436Z</time>
      </trkpt>
      <trkpt lat="47.02352" lon="8.9459">
        <ele>850</ele>
        <time>2021-08-02T12:17:39.436Z</time>
      </trkpt>
      <trkpt lat="47.02353" lon="8.94591">
        <ele>850</ele>
        <time>2021-08-02T12:17:40.436Z</time>
      </trkpt>
      <trkpt lat="47.02353" lon="8.94592">
        <ele>850</ele>
        <time>2021-08-02T12:17:41.436Z</time>
      </trkpt>
      <trkpt lat="47.02352" lon="8.9459">
        <ele>850</ele>
        <time>2021-08-02T12:17:42.437Z</time>
      </trkpt>
      <trkpt lat="47.02353" lon="8.9459">
        <ele>850</ele>
        <time>2021-08-02T12:17:43.437Z</time>
      </trkpt>
      <trkpt lat="47.02353" lon="8.9459">
        <ele>850</ele>
        <time>2021-08-02T12:17:44.436Z</time>
      </trkpt>
      <trkpt lat="47.02354" lon="8.9459">
        <ele>850</ele>
        <time>2021-08-02T12:17:45.437Z</time>
      </trkpt>
      <trkpt lat="47.02354" lon="8.94591">
        <ele>850</ele>
        <time>2021-08-02T12:17:46.437Z</time>
      </trkpt>
      <trkpt lat="47.02355" lon="8.94591">
        <ele>850</ele>
        <time>2021-08-02T12:17:47.437Z</time>
      </trkpt>
      <trkpt lat="47.02355" lon="8.94591">
        <ele>850</ele>
        <time>2021-08-02T12:17:48.436Z</time>
      </trkpt>
      <trkpt lat="47.02356" lon="8.94591">
        <ele>851</ele>
        <time>2021-08-02T12:17:49.436Z</time>
      </trkpt>
      <trkpt lat="47.02362" lon="8.9459">
        <ele>868</ele>
        <time>2021-08-02T12:17:50.437Z</time>
      </trkpt>
      <trkpt lat="47.02362" lon="8.94591">
        <ele>869</ele>
        <time>2021-08-02T12:17:51.437Z</time>
      </trkpt>
      <trkpt lat="47.02361" lon="8.94583">
        <ele>874</ele>
        <time>2021-08-02T12:17:52.437Z</time>
      </trkpt>
      <trkpt lat="47.02361" lon="8.94583">
        <ele>874</ele>
        <time>2021-08-02T12:17:53.437Z</time>
      </trkpt>
      <trkpt lat="47.0236" lon="8.94583">
        <ele>875</ele>
        <time>2021-08-02T12:17:54.438Z</time>
      </trkpt>
      <trkpt lat="47.02361" lon="8.94583">
        <ele>875</ele>
        <time>2021-08-02T12:17:55.438Z</time>
      </trkpt>
      <trkpt lat="47.02361" lon="8.94583">
        <ele>876</ele>
        <time>2021-08-02T12:18:02.569Z</time>
      </trkpt>
      <trkpt lat="47.0236" lon="8.94581">
        <ele>878</ele>
        <time>2021-08-02T12:18:03.569Z</time>
      </trkpt>
      <trkpt lat="47.0236" lon="8.9458">
        <ele>879</ele>
        <time>2021-08-02T12:18:04.569Z</time>
      </trkpt>
      <trkpt lat="47.0236" lon="8.9458">
        <ele>879</ele>
        <time>2021-08-02T12:18:05.569Z</time>
      </trkpt>
      <trkpt lat="47.0236" lon="8.9458">
        <ele>880</ele>
        <time>2021-08-02T12:18:06.569Z</time>
      </trkpt>
      <trkpt lat="47.0236" lon="8.94579">
        <ele>880</ele>
        <time>2021-08-02T12:18:07.569Z</time>
      </trkpt>
      <trkpt lat="47.0236" lon="8.94579">
        <ele>880</ele>
        <time>2021-08-02T12:18:08.569Z</time>
      </trkpt>
      <trkpt lat="47.0236" lon="8.94578">
        <ele>881</ele>
        <time>2021-08-02T12:18:09.569Z</time>
      </trkpt>
      <trkpt lat="47.02359" lon="8.94578">
        <ele>881</ele>
        <time>2021-08-02T12:18:10.569Z</time>
      </trkpt>
      <trkpt lat="47.02358" lon="8.94577">
        <ele>882</ele>
        <time>2021-08-02T13:07:33.374Z</time>
      </trkpt>
      <trkpt lat="47.02358" lon="8.94576">
        <ele>883</ele>
        <time>2021-08-02T13:07:34.374Z</time>
      </trkpt>
      <trkpt lat="47.02358" lon="8.94576">
        <ele>883</ele>
        <time>2021-08-02T13:07:35.374Z</time>
      </trkpt>
      <trkpt lat="47.02358" lon="8.94574">
        <ele>884</ele>
        <time>2021-08-02T13:07:36.374Z</time>
      </trkpt>
      <trkpt lat="47.02358" lon="8.94573">
        <ele>885</ele>
        <time>2021-08-02T13:07:37.374Z</time>
      </trkpt>
      <trkpt lat="47.02358" lon="8.94572">
        <ele>885</ele>
        <time>2021-08-02T13:07:38.374Z</time>
      </trkpt>
      <trkpt lat="47.02357" lon="8.94571">
        <ele>886</ele>
        <time>2021-08-02T13:07:39.374Z</time>
      </trkpt>
      <trkpt lat="47.02358" lon="8.9457">
        <ele>886</ele>
        <time>2021-08-02T13:07:40.374Z</time>
      </trkpt>
      <trkpt lat="47.02357" lon="8.94569">
        <ele>887</ele>
        <time>2021-08-02T13:07:41.374Z</time>
      </trkpt>
      <trkpt lat="47.02357" lon="8.94567">
        <ele>887</ele>
        <time>2021-08-02T13:07:42.374Z</time>
      </trkpt>
      <trkpt lat="47.02356" lon="8.94566">
        <ele>888</ele>
        <time>2021-08-02T13:07:43.374Z</time>
      </trkpt>
      <trkpt lat="47.02356" lon="8.94564">
        <ele>888</ele>
        <time>2021-08-02T13:07:44.374Z</time>
      </trkpt>
      <trkpt lat="47.02355" lon="8.94562">
        <ele>889</ele>
        <time>2021-08-02T13:07:45.374Z</time>
      </trkpt>
      <trkpt lat="47.02355" lon="8.94561">
        <ele>889</ele>
        <time>2021-08-02T13:07:46.374Z</time>
      </trkpt>
      <trkpt lat="47.02355" lon="8.9456">
        <ele>890</ele>
        <time>2021-08-02T13:07:47.374Z</time>
      </trkpt>
      <trkpt lat="47.02355" lon="8.94559">
        <ele>890</ele>
        <time>2021-08-02T13:07:48.374Z</time>
      </trkpt>
      <trkpt lat="47.02355" lon="8.94559">
        <ele>891</ele>
        <time>2021-08-02T13:07:49.374Z</time>
      </trkpt>
      <trkpt lat="47.02355" lon="8.94558">
        <ele>893</ele>
        <time>2021-08-02T13:07:50.374Z</time>
      </trkpt>
      <trkpt lat="47.02356" lon="8.94549">
        <ele>901</ele>
        <time>2021-08-02T13:07:51.375Z</time>
      </trkpt>
      <trkpt lat="47.02356" lon="8.94549">
        <ele>901</ele>
        <time>2021-08-02T13:07:52.374Z</time>
      </trkpt>
      <trkpt lat="47.02357" lon="8.94548">
        <ele>901</ele>
        <time>2021-08-02T13:07:53.375Z</time>
      </trkpt>
      <trkpt lat="47.02357" lon="8.94548">
        <ele>901</ele>
        <time>2021-08-02T13:07:54.375Z</time>
      </trkpt>
      <trkpt lat="47.02356" lon="8.94548">
        <ele>901</ele>
        <time>2021-08-02T13:07:55.374Z</time>
      </trkpt>
      <trkpt lat="47.02356" lon="8.94547">
        <ele>901</ele>
        <time>2021-08-02T13:07:56.374Z</time>
      </trkpt>
      <trkpt lat="47.02359" lon="8.94549">
        <ele>902</ele>
        <time>2021-08-02T13:07:57.375Z</time>
      </trkpt>
      <trkpt lat="47.02361" lon="8.9455">
        <ele>903</ele>
        <time>2021-08-02T13:07:58.375Z</time>
      </trkpt>
      <trkpt lat="47.0236" lon="8.94549">
        <ele>904</ele>
        <time>2021-08-02T13:07:59.376Z</time>
      </trkpt>
      <trkpt lat="47.0236" lon="8.94548">
        <ele>904</ele>
        <time>2021-08-02T13:08:00.375Z</time>
      </trkpt>
      <trkpt lat="47.02361" lon="8.94549">
        <ele>904</ele>
        <time>2021-08-02T13:08:01.375Z</time>
      </trkpt>
      <trkpt lat="47.02361" lon="8.94549">
        <ele>904</ele>
        <time>2021-08-02T13:08:02.375Z</time>
      </trkpt>
      <trkpt lat="47.02361" lon="8.94549">
        <ele>904</ele>
        <time>2021-08-02T13:08:03.375Z</time>
      </trkpt>
      <trkpt lat="47.02361" lon="8.94549">
        <ele>905</ele>
        <time>2021-08-02T13:08:04.375Z</time>
      </trkpt>
      <trkpt lat="47.02361" lon="8.94549">
        <ele>905</ele>
        <time>2021-08-02T13:08:05.375Z</time>
      </trkpt>
      <trkpt lat="47.02361" lon="8.94549">
        <ele>906</ele>
        <time>2021-08-02T13:08:06.377Z</time>
      </trkpt>
      <trkpt lat="47.02361" lon="8.94549">
        <ele>907</ele>
        <time>2021-08-02T13:08:07.376Z</time>
      </trkpt>
      <trkpt lat="47.02362" lon="8.94551">
        <ele>907</ele>
        <time>2021-08-02T13:08:10.461Z</time>
      </trkpt>
      <trkpt lat="47.02362" lon="8.94552">
        <ele>906</ele>
        <time>2021-08-02T13:08:11.461Z</time>
      </trkpt>
      <trkpt lat="47.02363" lon="8.94555">
        <ele>902</ele>
        <time>2021-08-02T13:08:12.461Z</time>
      </trkpt>
      <trkpt lat="47.02364" lon="8.94556">
        <ele>901</ele>
        <time>2021-08-02T13:08:20.492Z</time>
      </trkpt>
      <trkpt lat="47.02364" lon="8.94556">
        <ele>900</ele>
        <time>2021-08-02T13:08:21.492Z</time>
      </trkpt>
      <trkpt lat="47.02364" lon="8.94556">
        <ele>899</ele>
        <time>2021-08-02T13:08:22.493Z</time>
      </trkpt>
      <trkpt lat="47.02364" lon="8.94557">
        <ele>898</ele>
        <time>2021-08-02T13:08:23.492Z</time>
      </trkpt>
      <trkpt lat="47.02363" lon="8.94558">
        <ele>896</ele>
        <time>2021-08-02T13:08:24.493Z</time>
      </trkpt>
      <trkpt lat="47.02363" lon="8.94557">
        <ele>895</ele>
        <time>2021-08-02T13:08:25.493Z</time>
      </trkpt>
      <trkpt lat="47.02362" lon="8.94556">
        <ele>895</ele>
        <time>2021-08-02T13:08:29.573Z</time>
      </trkpt>
      <trkpt lat="47.02361" lon="8.94556">
        <ele>894</ele>
        <time>2021-08-02T13:08:30.573Z</time>
      </trkpt>
      <trkpt lat="47.02361" lon="8.94556">
        <ele>894</ele>
        <time>2021-08-02T13:08:31.573Z</time>
      </trkpt>
      <trkpt lat="47.0236" lon="8.94556">
        <ele>893</ele>
        <time>2021-08-02T13:08:32.574Z</time>
      </trkpt>
      <trkpt lat="47.0236" lon="8.9456">
        <ele>893</ele>
        <time>2021-08-02T13:08:33.574Z</time>
      </trkpt>
      <trkpt lat="47.02361" lon="8.94564">
        <ele>893</ele>
        <time>2021-08-02T13:08:34.574Z</time>
      </trkpt>
      <trkpt lat="47.02359" lon="8.94578">
        <ele>890</ele>
        <time>2021-08-02T13:08:35.574Z</time>
      </trkpt>
      <trkpt lat="47.02358" lon="8.94577">
        <ele>889</ele>
        <time>2021-08-02T13:08:36.574Z</time>
      </trkpt>
      <trkpt lat="47.02357" lon="8.94574">
        <ele>888</ele>
        <time>2021-08-02T13:08:37.574Z</time>
      </trkpt>
      <trkpt lat="47.02356" lon="8.94573">
        <ele>887</ele>
        <time>2021-08-02T13:08:38.574Z</time>
      </trkpt>
      <trkpt lat="47.02356" lon="8.94572">
        <ele>885</ele>
        <time>2021-08-02T13:08:39.574Z</time>
      </trkpt>
      <trkpt lat="47.02356" lon="8.94573">
        <ele>880</ele>
        <time>2021-08-02T13:08:40.574Z</time>
      </trkpt>
      <trkpt lat="47.02357" lon="8.94573">
        <ele>872</ele>
        <time>2021-08-02T13:08:41.573Z</time>
      </trkpt>
      <trkpt lat="47.02356" lon="8.94573">
        <ele>872</ele>
        <time>2021-08-02T13:08:42.575Z</time>
      </trkpt>
      <trkpt lat="47.02355" lon="8.94572">
        <ele>872</ele>
        <time>2021-08-02T13:08:43.575Z</time>
      </trkpt>
      <trkpt lat="47.02355" lon="8.94573">
        <ele>872</ele>
        <time>2021-08-02T13:08:44.574Z</time>
      </trkpt>
      <trkpt lat="47.02355" lon="8.94572">
        <ele>872</ele>
        <time>2021-08-02T13:08:45.574Z</time>
      </trkpt>
      <trkpt lat="47.02355" lon="8.94572">
        <ele>872</ele>
        <time>2021-08-02T13:08:46.575Z</time>
      </trkpt>
      <trkpt lat="47.02356" lon="8.94572">
        <ele>872</ele>
        <time>2021-08-02T13:08:47.575Z</time>
      </trkpt>
      <trkpt lat="47.02356" lon="8.94572">
        <ele>872</ele>
        <time>2021-08-02T13:08:48.575Z</time>
      </trkpt>
      <trkpt lat="47.02355" lon="8.9458">
        <ele>855</ele>
        <time>2021-08-02T13:08:49.576Z</time>
      </trkpt>
      <trkpt lat="47.02349" lon="8.94582">
        <ele>850</ele>
        <time>2021-08-02T13:08:50.576Z</time>
      </trkpt>
      <trkpt lat="47.0235" lon="8.94582">
        <ele>851</ele>
        <time>2021-08-02T13:08:51.575Z</time>
      </trkpt>
      <trkpt lat="47.02351" lon="8.9458">
        <ele>851</ele>
        <time>2021-08-02T13:08:52.575Z</time>
      </trkpt>
      <trkpt lat="47.02351" lon="8.94578">
        <ele>852</ele>
        <time>2021-08-02T13:08:53.576Z</time>
      </trkpt>
      <trkpt lat="47.02351" lon="8.94577">
        <ele>853</ele>
        <time>2021-08-02T13:08:58.616Z</time>
      </trkpt>
      <trkpt lat="47.02352" lon="8.94576">
        <ele>854</ele>
        <time>2021-08-02T13:08:59.617Z</time>
      </trkpt>
      <trkpt lat="47.02352" lon="8.94575">
        <ele>855</ele>
        <time>2021-08-02T13:09:00.616Z</time>
      </trkpt>
      <trkpt lat="47.02352" lon="8.94575">
        <ele>856</ele>
        <time>2021-08-02T13:09:01.617Z</time>
      </trkpt>
      <trkpt lat="47.02353" lon="8.94574">
        <ele>857</ele>
        <time>2021-08-02T13:09:02.616Z</time>
      </trkpt>
      <trkpt lat="47.02352" lon="8.94572">
        <ele>857</ele>
        <time>2021-08-02T13:09:03.616Z</time>
      </trkpt>
      <trkpt lat="47.02353" lon="8.94572">
        <ele>858</ele>
        <time>2021-08-02T13:09:04.617Z</time>
      </trkpt>
      <trkpt lat="47.02353" lon="8.94572">
        <ele>859</ele>
        <time>2021-08-02T13:09:05.617Z</time>
      </trkpt>
      <trkpt lat="47.02353" lon="8.94572">
        <ele>859</ele>
        <time>2021-08-02T13:09:06.617Z</time>
      </trkpt>
      <trkpt lat="47.02353" lon="8.94573">
        <ele>860</ele>
        <time>2021-08-02T13:09:07.617Z</time>
      </trkpt>
      <trkpt lat="47.02352" lon="8.94573">
        <ele>861</ele>
        <time>2021-08-02T13:09:08.617Z</time>
      </trkpt>
      <trkpt lat="47.02352" lon="8.94575">
        <ele>860</ele>
        <time>2021-08-02T13:09:09.617Z</time>
      </trkpt>
      <trkpt lat="47.02352" lon="8.94575">
        <ele>860</ele>
        <time>2021-08-02T13:09:10.617Z</time>
      </trkpt>
      <trkpt lat="47.02352" lon="8.94576">
        <ele>860</ele>
        <time>2021-08-02T13:09:11.616Z</time>
      </trkpt>
      <trkpt lat="47.02347" lon="8.94576">
        <ele>859</ele>
        <time>2021-08-02T13:09:12.616Z</time>
      </trkpt>
      <trkpt lat="47.02347" lon="8.94577">
        <ele>859</ele>
        <time>2021-08-02T13:09:13.617Z</time>
      </trkpt>
      <trkpt lat="47.02347" lon="8.94577">
        <ele>859</ele>
        <time>2021-08-02T13:09:14.617Z</time>
      </trkpt>
      <trkpt lat="47.02347" lon="8.94577">
        <ele>859</ele>
        <time>2021-08-02T13:09:15.617Z</time>
      </trkpt>
      <trkpt lat="47.02351" lon="8.94584">
        <ele>863</ele>
        <time>2021-08-02T13:09:16.617Z</time>
      </trkpt>
      <trkpt lat="47.0235" lon="8.94584">
        <ele>863</ele>
        <time>2021-08-02T13:09:17.617Z</time>
      </trkpt>
      <trkpt lat="47.02351" lon="8.94584">
        <ele>863</ele>
        <time>2021-08-02T13:09:18.618Z</time>
      </trkpt>
      <trkpt lat="47.0235" lon="8.9458">
        <ele>861</ele>
        <time>2021-08-02T13:09:19.617Z</time>
      </trkpt>
      <trkpt lat="47.0235" lon="8.9458">
        <ele>860</ele>
        <time>2021-08-02T13:09:20.618Z</time>
      </trkpt>
      <trkpt lat="47.0235" lon="8.9458">
        <ele>859</ele>
        <time>2021-08-02T13:09:21.617Z</time>
      </trkpt>
      <trkpt lat="47.0235" lon="8.94579">
        <ele>859</ele>
        <time>2021-08-02T13:09:22.617Z</time>
      </trkpt>
      <trkpt lat="47.0235" lon="8.94579">
        <ele>859</ele>
        <time>2021-08-02T13:09:23.618Z</time>
      </trkpt>
      <trkpt lat="47.0235" lon="8.9458">
        <ele>858</ele>
        <time>2021-08-02T13:09:24.618Z</time>
      </trkpt>
      <trkpt lat="47.02351" lon="8.9458">
        <ele>857</ele>
        <time>2021-08-02T13:09:35.715Z</time>
      </trkpt>
      <trkpt lat="47.02351" lon="8.94581">
        <ele>856</ele>
        <time>2021-08-02T13:09:36.714Z</time>
      </trkpt>
      <trkpt lat="47.02353" lon="8.94584">
        <ele>852</ele>
        <time>2021-08-02T13:09:58.616Z</time>
      </trkpt>
      <trkpt lat="47.02353" lon="8.94583">
        <ele>852</ele>
        <time>2021-08-02T13:09:59.616Z</time>
      </trkpt>
      <trkpt lat="47.02353" lon="8.94582">
        <ele>853</ele>
        <time>2021-08-02T13:10:00.615Z</time>
      </trkpt>
      <trkpt lat="47.02351" lon="8.94581">
        <ele>853</ele>
        <time>2021-08-02T13:10:01.615Z</time>
      </trkpt>
      <trkpt lat="47.0235" lon="8.94582">
        <ele>853</ele>
        <time>2021-08-02T13:10:02.615Z</time>
      </trkpt>
      <trkpt lat="47.0235" lon="8.94583">
        <ele>853</ele>
        <time>2021-08-02T13:10:03.616Z</time>
      </trkpt>
      <trkpt lat="47.02349" lon="8.94584">
        <ele>853</ele>
        <time>2021-08-02T13:10:04.616Z</time>
      </trkpt>
      <trkpt lat="47.02349" lon="8.94585">
        <ele>853</ele>
        <time>2021-08-02T13:10:05.616Z</time>
      </trkpt>
      <trkpt lat="47.02349" lon="8.94585">
        <ele>854</ele>
        <time>2021-08-02T13:10:06.616Z</time>
      </trkpt>
      <trkpt lat="47.0235" lon="8.94586">
        <ele>854</ele>
        <time>2021-08-02T13:10:07.616Z</time>
      </trkpt>
      <trkpt lat="47.0235" lon="8.94587">
        <ele>854</ele>
        <time>2021-08-02T13:10:08.616Z</time>
      </trkpt>
      <trkpt lat="47.02351" lon="8.94588">
        <ele>854</ele>
        <time>2021-08-02T13:10:09.616Z</time>
      </trkpt>
      <trkpt lat="47.02351" lon="8.94588">
        <ele>855</ele>
        <time>2021-08-02T13:10:10.615Z</time>
      </trkpt>
      <trkpt lat="47.02352" lon="8.94589">
        <ele>855</ele>
        <time>2021-08-02T13:10:11.616Z</time>
      </trkpt>
      <trkpt lat="47.02352" lon="8.94589">
        <ele>855</ele>
        <time>2021-08-02T13:10:12.616Z</time>
      </trkpt>
      <trkpt lat="47.02353" lon="8.94589">
        <ele>856</ele>
        <time>2021-08-02T13:10:13.616Z</time>
      </trkpt>
      <trkpt lat="47.02354" lon="8.94589">
        <ele>860</ele>
        <time>2021-08-02T13:10:14.616Z</time>
      </trkpt>
      <trkpt lat="47.02354" lon="8.94589">
        <ele>860</ele>
        <time>2021-08-02T13:10:15.615Z</time>
      </trkpt>
      <trkpt lat="47.02354" lon="8.94589">
        <ele>861</ele>
        <time>2021-08-02T13:10:16.616Z</time>
      </trkpt>
      <trkpt lat="47.02352" lon="8.94587">
        <ele>861</ele>
        <time>2021-08-02T13:10:17.615Z</time>
      </trkpt>
      <trkpt lat="47.02351" lon="8.94587">
        <ele>862</ele>
        <time>2021-08-02T13:10:18.615Z</time>
      </trkpt>
      <trkpt lat="47.02352" lon="8.94587">
        <ele>862</ele>
        <time>2021-08-02T13:10:19.615Z</time>
      </trkpt>
      <trkpt lat="47.02352" lon="8.94587">
        <ele>862</ele>
        <time>2021-08-02T13:10:20.616Z</time>
      </trkpt>
      <trkpt lat="47.02352" lon="8.94586">
        <ele>863</ele>
        <time>2021-08-02T13:10:21.616Z</time>
      </trkpt>
      <trkpt lat="47.02351" lon="8.94585">
        <ele>864</ele>
        <time>2021-08-02T13:10:22.616Z</time>
      </trkpt>
      <trkpt lat="47.02351" lon="8.94584">
        <ele>865</ele>
        <time>2021-08-02T13:10:23.616Z</time>
      </trkpt>
      <trkpt lat="47.0235" lon="8.94583">
        <ele>866</ele>
        <time>2021-08-02T13:10:24.616Z</time>
      </trkpt>
      <trkpt lat="47.0235" lon="8.94583">
        <ele>867</ele>
        <time>2021-08-02T13:10:25.616Z</time>
      </trkpt>
      <trkpt lat="47.0235" lon="8.94582">
        <ele>867</ele>
        <time>2021-08-02T13:10:26.616Z</time>
      </trkpt>
      <trkpt lat="47.02349" lon="8.9458">
        <ele>869</ele>
        <time>2021-08-02T13:10:27.618Z</time>
      </trkpt>
      <trkpt lat="47.02349" lon="8.94579">
        <ele>869</ele>
        <time>2021-08-02T13:10:28.618Z</time>
      </trkpt>
      <trkpt lat="47.02349" lon="8.94578">
        <ele>870</ele>
        <time>2021-08-02T13:10:29.617Z</time>
      </trkpt>
      <trkpt lat="47.02348" lon="8.94578">
        <ele>871</ele>
        <time>2021-08-02T13:10:30.618Z</time>
      </trkpt>
      <trkpt lat="47.02348" lon="8.94577">
        <ele>872</ele>
        <time>2021-08-02T13:10:31.618Z</time>
      </trkpt>
      <trkpt lat="47.02348" lon="8.94576">
        <ele>872</ele>
        <time>2021-08-02T13:10:32.618Z</time>
      </trkpt>
      <trkpt lat="47.02347" lon="8.94575">
        <ele>873</ele>
        <time>2021-08-02T13:10:33.617Z</time>
      </trkpt>
      <trkpt lat="47.02347" lon="8.94573">
        <ele>873</ele>
        <time>2021-08-02T13:10:34.617Z</time>
      </trkpt>
      <trkpt lat="47.02347" lon="8.94571">
        <ele>874</ele>
        <time>2021-08-02T13:10:35.618Z</time>
      </trkpt>
      <trkpt lat="47.02347" lon="8.9457">
        <ele>874</ele>
        <time>2021-08-02T13:10:36.618Z</time>
      </trkpt>
      <trkpt lat="47.02348" lon="8.94568">
        <ele>874</ele>
        <time>2021-08-02T13:10:37.618Z</time>
      </trkpt>
      <trkpt lat="47.0235" lon="8.94572">
        <ele>873</ele>
        <time>2021-08-02T13:10:38.617Z</time>
      </trkpt>
      <trkpt lat="47.0235" lon="8.94572">
        <ele>872</ele>
        <time>2021-08-02T13:10:39.618Z</time>
      </trkpt>
      <trkpt lat="47.0235" lon="8.94575">
        <ele>861</ele>
        <time>2021-08-02T13:10:40.619Z</time>
      </trkpt>
      <trkpt lat="47.0235" lon="8.94575">
        <ele>860</ele>
        <time>2021-08-02T13:10:41.618Z</time>
      </trkpt>
      <trkpt lat="47.02354" lon="8.94582">
        <ele>858</ele>
        <time>2021-08-02T13:10:42.619Z</time>
      </trkpt>
      <trkpt lat="47.02355" lon="8.94583">
        <ele>858</ele>
        <time>2021-08-02T13:10:43.618Z</time>
      </trkpt>
      <trkpt lat="47.02355" lon="8.94581">
        <ele>857</ele>
        <time>2021-08-02T13:10:44.620Z</time>
      </trkpt>
      <trkpt lat="47.02355" lon="8.9458">
        <ele>857</ele>
        <time>2021-08-02T13:10:45.619Z</time>
      </trkpt>
      <trkpt lat="47.02354" lon="8.9458">
        <ele>857</ele>
        <time>2021-08-02T13:10:46.620Z</time>
      </trkpt>
      <trkpt lat="47.02351" lon="8.94577">
        <ele>866</ele>
        <time>2021-08-02T13:10:54.752Z</time>
      </trkpt>
      <trkpt lat="47.02351" lon="8.94577">
        <ele>866</ele>
        <time>2021-08-02T13:10:55.751Z</time>
      </trkpt>
      <trkpt lat="47.02351" lon="8.94577">
        <ele>866</ele>
        <time>2021-08-02T13:10:56.751Z</time>
      </trkpt>
      <trkpt lat="47.02351" lon="8.94578">
        <ele>865</ele>
        <time>2021-08-02T13:10:57.752Z</time>
      </trkpt>
      <trkpt lat="47.02351" lon="8.94579">
        <ele>864</ele>
        <time>2021-08-02T13:10:58.751Z</time>
      </trkpt>
      <trkpt lat="47.02351" lon="8.94579">
        <ele>864</ele>
        <time>2021-08-02T13:10:59.751Z</time>
      </trkpt>
      <trkpt lat="47.02354" lon="8.94579">
        <ele>866</ele>
        <time>2021-08-02T13:11:00.752Z</time>
      </trkpt>
      <trkpt lat="47.02354" lon="8.94579">
        <ele>867</ele>
        <time>2021-08-02T13:11:01.753Z</time>
      </trkpt>
      <trkpt lat="47.02355" lon="8.94578">
        <ele>869</ele>
        <time>2021-08-02T13:11:02.753Z</time>
      </trkpt>
      <trkpt lat="47.02355" lon="8.94578">
        <ele>870</ele>
        <time>2021-08-02T13:11:03.753Z</time>
      </trkpt>
      <trkpt lat="47.02355" lon="8.94578">
        <ele>870</ele>
        <time>2021-08-02T13:11:04.753Z</time>
      </trkpt>
      <trkpt lat="47.02354" lon="8.94578">
        <ele>870</ele>
        <time>2021-08-02T13:11:05.753Z</time>
      </trkpt>
      <trkpt lat="47.02354" lon="8.94578">
        <ele>871</ele>
        <time>2021-08-02T13:11:06.753Z</time>
      </trkpt>
      <trkpt lat="47.02353" lon="8.94578">
        <ele>871</ele>
        <time>2021-08-02T13:11:07.753Z</time>
      </trkpt>
      <trkpt lat="47.02353" lon="8.94578">
        <ele>871</ele>
        <time>2021-08-02T13:11:08.753Z</time>
      </trkpt>
      <trkpt lat="47.02354" lon="8.94581">
        <ele>869</ele>
        <time>2021-08-02T13:11:10.869Z</time>
      </trkpt>
      <trkpt lat="47.02354" lon="8.94582">
        <ele>867</ele>
        <time>2021-08-02T13:11:11.869Z</time>
      </trkpt>
      <trkpt lat="47.02353" lon="8.94582">
        <ele>867</ele>
        <time>2021-08-02T13:11:12.869Z</time>
      </trkpt>
      <trkpt lat="47.02354" lon="8.94582">
        <ele>866</ele>
        <time>2021-08-02T13:11:13.869Z</time>
      </trkpt>
      <trkpt lat="47.02353" lon="8.94582">
        <ele>866</ele>
        <time>2021-08-02T13:11:14.869Z</time>
      </trkpt>
      <trkpt lat="47.02353" lon="8.94581">
        <ele>865</ele>
        <time>2021-08-02T13:11:15.869Z</time>
      </trkpt>
      <trkpt lat="47.02354" lon="8.94581">
        <ele>865</ele>
        <time>2021-08-02T13:11:16.870Z</time>
      </trkpt>
      <trkpt lat="47.02355" lon="8.94582">
        <ele>864</ele>
        <time>2021-08-02T13:11:17.870Z</time>
      </trkpt>
      <trkpt lat="47.02355" lon="8.94582">
        <ele>864</ele>
        <time>2021-08-02T13:11:18.869Z</time>
      </trkpt>
      <trkpt lat="47.02354" lon="8.9458">
        <ele>864</ele>
        <time>2021-08-02T13:11:19.869Z</time>
      </trkpt>
      <trkpt lat="47.02353" lon="8.9458">
        <ele>864</ele>
        <time>2021-08-02T13:11:20.870Z</time>
      </trkpt>
      <trkpt lat="47.02353" lon="8.94581">
        <ele>863</ele>
        <time>2021-08-02T13:11:21.870Z</time>
      </trkpt>
      <trkpt lat="47.02352" lon="8.94579">
        <ele>861</ele>
        <time>2021-08-02T13:11:22.870Z</time>
      </trkpt>
      <trkpt lat="47.02351" lon="8.94579">
        <ele>860</ele>
        <time>2021-08-02T13:11:23.870Z</time>
      </trkpt>
      <trkpt lat="47.02352" lon="8.9458">
        <ele>860</ele>
        <time>2021-08-02T13:11:24.870Z</time>
      </trkpt>
      <trkpt lat="47.02354" lon="8.9458">
        <ele>855</ele>
        <time>2021-08-02T13:11:25.870Z</time>
      </trkpt>
      <trkpt lat="47.02353" lon="8.94579">
        <ele>854</ele>
        <time>2021-08-02T13:11:26.870Z</time>
      </trkpt>
      <trkpt lat="47.02353" lon="8.94579">
        <ele>853</ele>
        <time>2021-08-02T13:11:27.870Z</time>
      </trkpt>
      <trkpt lat="47.02354" lon="8.94579">
        <ele>852</ele>
        <time>2021-08-02T13:11:28.871Z</time>
      </trkpt>
      <trkpt lat="47.02355" lon="8.9458">
        <ele>851</ele>
        <time>2021-08-02T13:11:29.870Z</time>
      </trkpt>
      <trkpt lat="47.02355" lon="8.9458">
        <ele>850</ele>
        <time>2021-08-02T13:11:30.870Z</time>
      </trkpt>
      <trkpt lat="47.02355" lon="8.94581">
        <ele>850</ele>
        <time>2021-08-02T13:11:31.871Z</time>
      </trkpt>
      <trkpt lat="47.02358" lon="8.94583">
        <ele>847</ele>
        <time>2021-08-02T13:11:32.871Z</time>
      </trkpt>
      <trkpt lat="47.02358" lon="8.94583">
        <ele>847</ele>
        <time>2021-08-02T13:11:33.870Z</time>
      </trkpt>
      <trkpt lat="47.02357" lon="8.94584">
        <ele>846</ele>
        <time>2021-08-02T13:11:34.872Z</time>
      </trkpt>
      <trkpt lat="47.02357" lon="8.94584">
        <ele>846</ele>
        <time>2021-08-02T13:11:35.872Z</time>
      </trkpt>
      <trkpt lat="47.02354" lon="8.94584">
        <ele>846</ele>
        <time>2021-08-02T13:11:36.872Z</time>
      </trkpt>
      <trkpt lat="47.02353" lon="8.94583">
        <ele>846</ele>
        <time>2021-08-02T13:11:37.871Z</time>
      </trkpt>
      <trkpt lat="47.02353" lon="8.94583">
        <ele>846</ele>
        <time>2021-08-02T13:11:38.871Z</time>
      </trkpt>
      <trkpt lat="47.02353" lon="8.94583">
        <ele>846</ele>
        <time>2021-08-02T13:11:39.872Z</time>
      </trkpt>
      <trkpt lat="47.02352" lon="8.94583">
        <ele>846</ele>
        <time>2021-08-02T13:11:40.872Z</time>
      </trkpt>
      <trkpt lat="47.02348" lon="8.94584">
        <ele>853</ele>
        <time>2021-08-02T13:11:41.872Z</time>
      </trkpt>
      <trkpt lat="47.02347" lon="8.94584">
        <ele>854</ele>
        <time>2021-08-02T13:11:42.871Z</time>
      </trkpt>
      <trkpt lat="47.02346" lon="8.94584">
        <ele>855</ele>
        <time>2021-08-02T13:11:43.871Z</time>
      </trkpt>
      <trkpt lat="47.02346" lon="8.94584">
        <ele>855</ele>
        <time>2021-08-02T13:11:44.871Z</time>
      </trkpt>
      <trkpt lat="47.02345" lon="8.94584">
        <ele>854</ele>
        <time>2021-08-02T13:11:45.871Z</time>
      </trkpt>
      <trkpt lat="47.02346" lon="8.94583">
        <ele>854</ele>
        <time>2021-08-02T13:11:46.872Z</time>
      </trkpt>
      <trkpt lat="47.02347" lon="8.94584">
        <ele>854</ele>
        <time>2021-08-02T13:11:47.872Z</time>
      </trkpt>
      <trkpt lat="47.02347" lon="8.94584">
        <ele>854</ele>
        <time>2021-08-02T13:11:48.872Z</time>
      </trkpt>
      <trkpt lat="47.02347" lon="8.94584">
        <ele>854</ele>
        <time>2021-08-02T13:11:49.872Z</time>
      </trkpt>
      <trkpt lat="47.02347" lon="8.94585">
        <ele>853</ele>
        <time>2021-08-02T13:11:50.872Z</time>
      </trkpt>
      <trkpt lat="47.02347" lon="8.94586">
        <ele>853</ele>
        <time>2021-08-02T13:11:51.872Z</time>
      </trkpt>
      <trkpt lat="47.02348" lon="8.94586">
        <ele>852</ele>
        <time>2021-08-02T13:11:52.872Z</time>
      </trkpt>
      <trkpt lat="47.02348" lon="8.94585">
        <ele>850</ele>
        <time>2021-08-02T13:11:53.872Z</time>
      </trkpt>
      <trkpt lat="47.02348" lon="8.94584">
        <ele>850</ele>
        <time>2021-08-02T13:11:54.871Z</time>
      </trkpt>
      <trkpt lat="47.02348" lon="8.94585">
        <ele>850</ele>
        <time>2021-08-02T13:11:55.871Z</time>
      </trkpt>
      <trkpt lat="47.02348" lon="8.94586">
        <ele>849</ele>
        <time>2021-08-02T13:11:56.871Z</time>
      </trkpt>
      <trkpt lat="47.02347" lon="8.94586">
        <ele>849</ele>
        <time>2021-08-02T13:11:57.872Z</time>
      </trkpt>
      <trkpt lat="47.02348" lon="8.94587">
        <ele>849</ele>
        <time>2021-08-02T13:11:58.871Z</time>
      </trkpt>
      <trkpt lat="47.02348" lon="8.94588">
        <ele>849</ele>
        <time>2021-08-02T13:11:59.872Z</time>
      </trkpt>
      <trkpt lat="47.02348" lon="8.94588">
        <ele>849</ele>
        <time>2021-08-02T13:12:00.872Z</time>
      </trkpt>
      <trkpt lat="47.02348" lon="8.94589">
        <ele>849</ele>
        <time>2021-08-02T13:12:01.872Z</time>
      </trkpt>
      <trkpt lat="47.02347" lon="8.94588">
        <ele>849</ele>
        <time>2021-08-02T13:12:02.872Z</time>
      </trkpt>
      <trkpt lat="47.02347" lon="8.94589">
        <ele>849</ele>
        <time>2021-08-02T13:12:03.871Z</time>
      </trkpt>
      <trkpt lat="47.02347" lon="8.94589">
        <ele>849</ele>
        <time>2021-08-02T13:12:04.871Z</time>
      </trkpt>
      <trkpt lat="47.02347" lon="8.94589">
        <ele>849</ele>
        <time>2021-08-02T13:12:05.872Z</time>
      </trkpt>
      <trkpt lat="47.02347" lon="8.94589">
        <ele>848</ele>
        <time>2021-08-02T13:12:06.872Z</time>
      </trkpt>
      <trkpt lat="47.02346" lon="8.94589">
        <ele>848</ele>
        <time>2021-08-02T13:12:07.872Z</time>
      </trkpt>
      <trkpt lat="47.02349" lon="8.94592">
        <ele>842</ele>
        <time>2021-08-02T13:12:08.871Z</time>
      </trkpt>
      <trkpt lat="47.02349" lon="8.94592">
        <ele>842</ele>
        <time>2021-08-02T13:12:09.871Z</time>
      </trkpt>
      <trkpt lat="47.0235" lon="8.94593">
        <ele>842</ele>
        <time>2021-08-02T13:12:10.871Z</time>
      </trkpt>
      <trkpt lat="47.02351" lon="8.94593">
        <ele>842</ele>
        <time>2021-08-02T13:12:11.872Z</time>
      </trkpt>
      <trkpt lat="47.02351" lon="8.94594">
        <ele>842</ele>
        <time>2021-08-02T13:12:12.871Z</time>
      </trkpt>
      <trkpt lat="47.02352" lon="8.94594">
        <ele>843</ele>
        <time>2021-08-02T13:12:13.872Z</time>
      </trkpt>
      <trkpt lat="47.02352" lon="8.94595">
        <ele>843</ele>
        <time>2021-08-02T13:12:14.871Z</time>
      </trkpt>
      <trkpt lat="47.02351" lon="8.94595">
        <ele>843</ele>
        <time>2021-08-02T13:12:15.871Z</time>
      </trkpt>
      <trkpt lat="47.0235" lon="8.94595">
        <ele>844</ele>
        <time>2021-08-02T13:12:16.872Z</time>
      </trkpt>
      <trkpt lat="47.02349" lon="8.94599">
        <ele>850</ele>
        <time>2021-08-02T13:12:17.873Z</time>
      </trkpt>
      <trkpt lat="47.02349" lon="8.94599">
        <ele>851</ele>
        <time>2021-08-02T13:12:18.873Z</time>
      </trkpt>
      <trkpt lat="47.02349" lon="8.94597">
        <ele>851</ele>
        <time>2021-08-02T13:12:19.873Z</time>
      </trkpt>
      <trkpt lat="47.02349" lon="8.94597">
        <ele>851</ele>
        <time>2021-08-02T13:12:20.873Z</time>
      </trkpt>
      <trkpt lat="47.02352" lon="8.94591">
        <ele>853</ele>
        <time>2021-08-02T13:12:21.872Z</time>
      </trkpt>
      <trkpt lat="47.02354" lon="8.94591">
        <ele>853</ele>
        <time>2021-08-02T13:12:22.872Z</time>
      </trkpt>
      <trkpt lat="47.02349" lon="8.94591">
        <ele>854</ele>
        <time>2021-08-02T13:12:23.873Z</time>
      </trkpt>
      <trkpt lat="47.02349" lon="8.94591">
        <ele>854</ele>
        <time>2021-08-02T13:12:24.872Z</time>
      </trkpt>
      <trkpt lat="47.02348" lon="8.94591">
        <ele>854</ele>
        <time>2021-08-02T13:12:25.872Z</time>
      </trkpt>
      <trkpt lat="47.02343" lon="8.94586">
        <ele>850</ele>
        <time>2021-08-02T13:12:26.873Z</time>
      </trkpt>
      <trkpt lat="47.02343" lon="8.94586">
        <ele>850</ele>
        <time>2021-08-02T13:12:27.872Z</time>
      </trkpt>
      <trkpt lat="47.02344" lon="8.94586">
        <ele>850</ele>
        <time>2021-08-02T13:12:28.873Z</time>
      </trkpt>
      <trkpt lat="47.02344" lon="8.94586">
        <ele>850</ele>
        <time>2021-08-02T13:12:29.873Z</time>
      </trkpt>
      <trkpt lat="47.02345" lon="8.94586">
        <ele>849</ele>
        <time>2021-08-02T13:12:30.872Z</time>
      </trkpt>
      <trkpt lat="47.02348" lon="8.94587">
        <ele>848</ele>
        <time>2021-08-02T13:12:31.873Z</time>
      </trkpt>
      <trkpt lat="47.02348" lon="8.94587">
        <ele>848</ele>
        <time>2021-08-02T13:12:32.873Z</time>
      </trkpt>
      <trkpt lat="47.02348" lon="8.94587">
        <ele>848</ele>
        <time>2021-08-02T13:12:33.873Z</time>
      </trkpt>
      <trkpt lat="47.02348" lon="8.94588">
        <ele>847</ele>
        <time>2021-08-02T13:12:34.872Z</time>
      </trkpt>
      <trkpt lat="47.02348" lon="8.94588">
        <ele>847</ele>
        <time>2021-08-02T13:12:35.873Z</time>
      </trkpt>
      <trkpt lat="47.02347" lon="8.94589">
        <ele>841</ele>
        <time>2021-08-02T13:12:36.872Z</time>
      </trkpt>
      <trkpt lat="47.02347" lon="8.94588">
        <ele>841</ele>
        <time>2021-08-02T13:12:37.872Z</time>
      </trkpt>
      <trkpt lat="47.02347" lon="8.94588">
        <ele>841</ele>
        <time>2021-08-02T13:12:38.872Z</time>
      </trkpt>
      <trkpt lat="47.02346" lon="8.94587">
        <ele>841</ele>
        <time>2021-08-02T13:12:39.872Z</time>
      </trkpt>
      <trkpt lat="47.02347" lon="8.94587">
        <ele>841</ele>
        <time>2021-08-02T13:12:40.872Z</time>
      </trkpt>
      <trkpt lat="47.02347" lon="8.94588">
        <ele>841</ele>
        <time>2021-08-02T13:12:41.872Z</time>
      </trkpt>
      <trkpt lat="47.02348" lon="8.94589">
        <ele>841</ele>
        <time>2021-08-02T13:12:42.872Z</time>
      </trkpt>
      <trkpt lat="47.02348" lon="8.94589">
        <ele>841</ele>
        <time>2021-08-02T13:12:43.872Z</time>
      </trkpt>
      <trkpt lat="47.02348" lon="8.94589">
        <ele>841</ele>
        <time>2021-08-02T13:12:44.872Z</time>
      </trkpt>
      <trkpt lat="47.02348" lon="8.94588">
        <ele>841</ele>
        <time>2021-08-02T13:12:45.872Z</time>
      </trkpt>
      <trkpt lat="47.02349" lon="8.94589">
        <ele>841</ele>
        <time>2021-08-02T13:12:46.872Z</time>
      </trkpt>
      <trkpt lat="47.0235" lon="8.9459">
        <ele>842</ele>
        <time>2021-08-02T13:12:47.872Z</time>
      </trkpt>
      <trkpt lat="47.0235" lon="8.94591">
        <ele>842</ele>
        <time>2021-08-02T13:12:48.872Z</time>
      </trkpt>
      <trkpt lat="47.0235" lon="8.94591">
        <ele>842</ele>
        <time>2021-08-02T13:12:49.872Z</time>
      </trkpt>
      <trkpt lat="47.02349" lon="8.9459">
        <ele>843</ele>
        <time>2021-08-02T13:12:50.872Z</time>
      </trkpt>
      <trkpt lat="47.02349" lon="8.9459">
        <ele>843</ele>
        <time>2021-08-02T13:12:51.872Z</time>
      </trkpt>
      <trkpt lat="47.02349" lon="8.94591">
        <ele>843</ele>
        <time>2021-08-02T13:12:52.872Z</time>
      </trkpt>
      <trkpt lat="47.02349" lon="8.94591">
        <ele>843</ele>
        <time>2021-08-02T13:12:53.872Z</time>
      </trkpt>
      <trkpt lat="47.02349" lon="8.9459">
        <ele>843</ele>
        <time>2021-08-02T13:12:54.872Z</time>
      </trkpt>
      <trkpt lat="47.02346" lon="8.94589">
        <ele>851</ele>
        <time>2021-08-02T13:12:55.874Z</time>
      </trkpt>
      <trkpt lat="47.02346" lon="8.94588">
        <ele>851</ele>
        <time>2021-08-02T13:12:56.874Z</time>
      </trkpt>
      <trkpt lat="47.02346" lon="8.94589">
        <ele>851</ele>
        <time>2021-08-02T13:12:57.874Z</time>
      </trkpt>
      <trkpt lat="47.02346" lon="8.94591">
        <ele>851</ele>
        <time>2021-08-02T13:12:58.874Z</time>
      </trkpt>
      <trkpt lat="47.02346" lon="8.9459">
        <ele>852</ele>
        <time>2021-08-02T13:12:59.874Z</time>
      </trkpt>
      <trkpt lat="47.02345" lon="8.94589">
        <ele>852</ele>
        <time>2021-08-02T13:13:00.874Z</time>
      </trkpt>
      <trkpt lat="47.02345" lon="8.94589">
        <ele>851</ele>
        <time>2021-08-02T13:13:01.873Z</time>
      </trkpt>
      <trkpt lat="47.02344" lon="8.94589">
        <ele>851</ele>
        <time>2021-08-02T13:13:02.874Z</time>
      </trkpt>
      <trkpt lat="47.02344" lon="8.94589">
        <ele>851</ele>
        <time>2021-08-02T13:13:03.873Z</time>
      </trkpt>
      <trkpt lat="47.02345" lon="8.9459">
        <ele>851</ele>
        <time>2021-08-02T13:13:04.874Z</time>
      </trkpt>
      <trkpt lat="47.02346" lon="8.94591">
        <ele>851</ele>
        <time>2021-08-02T13:13:05.873Z</time>
      </trkpt>
      <trkpt lat="47.02347" lon="8.94591">
        <ele>852</ele>
        <time>2021-08-02T13:13:06.874Z</time>
      </trkpt>
      <trkpt lat="47.02347" lon="8.9459">
        <ele>852</ele>
        <time>2021-08-02T13:13:07.874Z</time>
      </trkpt>
      <trkpt lat="47.02347" lon="8.9459">
        <ele>852</ele>
        <time>2021-08-02T13:13:08.874Z</time>
      </trkpt>
      <trkpt lat="47.02346" lon="8.94589">
        <ele>852</ele>
        <time>2021-08-02T13:13:09.874Z</time>
      </trkpt>
      <trkpt lat="47.02346" lon="8.9459">
        <ele>851</ele>
        <time>2021-08-02T13:13:10.874Z</time>
      </trkpt>
      <trkpt lat="47.02346" lon="8.94589">
        <ele>851</ele>
        <time>2021-08-02T13:13:11.874Z</time>
      </trkpt>
      <trkpt lat="47.02345" lon="8.94588">
        <ele>851</ele>
        <time>2021-08-02T13:13:12.873Z</time>
      </trkpt>
      <trkpt lat="47.02347" lon="8.94588">
        <ele>845</ele>
        <time>2021-08-02T13:13:13.873Z</time>
      </trkpt>
      <trkpt lat="47.02349" lon="8.9459">
        <ele>845</ele>
        <time>2021-08-02T13:13:14.873Z</time>
      </trkpt>
      <trkpt lat="47.02351" lon="8.94591">
        <ele>845</ele>
        <time>2021-08-02T13:13:15.873Z</time>
      </trkpt>
      <trkpt lat="47.02352" lon="8.94591">
        <ele>845</ele>
        <time>2021-08-02T13:13:16.873Z</time>
      </trkpt>
      <trkpt lat="47.02351" lon="8.9459">
        <ele>845</ele>
        <time>2021-08-02T13:13:17.873Z</time>
      </trkpt>
      <trkpt lat="47.02351" lon="8.9459">
        <ele>845</ele>
        <time>2021-08-02T13:13:18.874Z</time>
      </trkpt>
      <trkpt lat="47.02349" lon="8.9459">
        <ele>851</ele>
        <time>2021-08-02T13:13:19.874Z</time>
      </trkpt>
      <trkpt lat="47.02347" lon="8.94588">
        <ele>854</ele>
        <time>2021-08-02T13:13:20.875Z</time>
      </trkpt>
      <trkpt lat="47.02347" lon="8.94588">
        <ele>854</ele>
        <time>2021-08-02T13:13:21.874Z</time>
      </trkpt>
      <trkpt lat="47.02347" lon="8.94588">
        <ele>853</ele>
        <time>2021-08-02T13:13:22.874Z</time>
      </trkpt>
      <trkpt lat="47.02347" lon="8.94588">
        <ele>852</ele>
        <time>2021-08-02T13:13:23.874Z</time>
      </trkpt>
      <trkpt lat="47.02348" lon="8.94588">
        <ele>852</ele>
        <time>2021-08-02T13:13:24.875Z</time>
      </trkpt>
      <trkpt lat="47.02348" lon="8.94588">
        <ele>851</ele>
        <time>2021-08-02T13:13:25.875Z</time>
      </trkpt>
      <trkpt lat="47.02349" lon="8.94587">
        <ele>855</ele>
        <time>2021-08-02T13:13:26.876Z</time>
      </trkpt>
      <trkpt lat="47.02349" lon="8.94586">
        <ele>855</ele>
        <time>2021-08-02T13:13:27.875Z</time>
      </trkpt>
      <trkpt lat="47.02348" lon="8.94586">
        <ele>856</ele>
        <time>2021-08-02T13:13:28.876Z</time>
      </trkpt>
      <trkpt lat="47.02348" lon="8.94586">
        <ele>856</ele>
        <time>2021-08-02T13:13:29.876Z</time>
      </trkpt>
      <trkpt lat="47.02348" lon="8.94582">
        <ele>856</ele>
        <time>2021-08-02T13:13:30.875Z</time>
      </trkpt>
      <trkpt lat="47.02348" lon="8.94582">
        <ele>856</ele>
        <time>2021-08-02T13:13:31.875Z</time>
      </trkpt>
      <trkpt lat="47.02349" lon="8.94583">
        <ele>856</ele>
        <time>2021-08-02T13:13:32.875Z</time>
      </trkpt>
      <trkpt lat="47.0235" lon="8.94583">
        <ele>856</ele>
        <time>2021-08-02T13:13:33.875Z</time>
      </trkpt>
      <trkpt lat="47.0235" lon="8.94583">
        <ele>856</ele>
        <time>2021-08-02T13:13:34.875Z</time>
      </trkpt>
      <trkpt lat="47.0235" lon="8.94584">
        <ele>856</ele>
        <time>2021-08-02T13:13:35.876Z</time>
      </trkpt>
      <trkpt lat="47.0235" lon="8.94584">
        <ele>856</ele>
        <time>2021-08-02T13:13:36.876Z</time>
      </trkpt>
      <trkpt lat="47.0235" lon="8.94585">
        <ele>855</ele>
        <time>2021-08-02T13:13:37.876Z</time>
      </trkpt>
      <trkpt lat="47.02349" lon="8.94584">
        <ele>855</ele>
        <time>2021-08-02T13:13:38.875Z</time>
      </trkpt>
      <trkpt lat="47.02349" lon="8.94584">
        <ele>855</ele>
        <time>2021-08-02T13:13:39.876Z</time>
      </trkpt>
      <trkpt lat="47.0235" lon="8.94583">
        <ele>853</ele>
        <time>2021-08-02T13:13:40.876Z</time>
      </trkpt>
      <trkpt lat="47.02351" lon="8.94583">
        <ele>853</ele>
        <time>2021-08-02T13:13:41.876Z</time>
      </trkpt>
      <trkpt lat="47.02351" lon="8.94584">
        <ele>853</ele>
        <time>2021-08-02T13:13:42.876Z</time>
      </trkpt>
      <trkpt lat="47.02351" lon="8.94584">
        <ele>853</ele>
        <time>2021-08-02T13:13:43.875Z</time>
      </trkpt>
      <trkpt lat="47.02353" lon="8.94585">
        <ele>853</ele>
        <time>2021-08-02T13:13:44.877Z</time>
      </trkpt>
      <trkpt lat="47.02353" lon="8.94585">
        <ele>853</ele>
        <time>2021-08-02T13:13:45.877Z</time>
      </trkpt>
      <trkpt lat="47.02354" lon="8.94585">
        <ele>854</ele>
        <time>2021-08-02T13:13:46.876Z</time>
      </trkpt>
      <trkpt lat="47.02354" lon="8.94584">
        <ele>854</ele>
        <time>2021-08-02T13:13:47.877Z</time>
      </trkpt>
      <trkpt lat="47.02352" lon="8.94581">
        <ele>852</ele>
        <time>2021-08-02T13:13:48.876Z</time>
      </trkpt>
      <trkpt lat="47.02352" lon="8.94581">
        <ele>852</ele>
        <time>2021-08-02T13:13:49.876Z</time>
      </trkpt>
      <trkpt lat="47.02352" lon="8.94581">
        <ele>852</ele>
        <time>2021-08-02T13:13:50.876Z</time>
      </trkpt>
      <trkpt lat="47.02353" lon="8.9458">
        <ele>852</ele>
        <time>2021-08-02T13:13:51.876Z</time>
      </trkpt>
      <trkpt lat="47.02353" lon="8.9458">
        <ele>852</ele>
        <time>2021-08-02T13:13:52.876Z</time>
      </trkpt>
      <trkpt lat="47.02353" lon="8.9458">
        <ele>852</ele>
        <time>2021-08-02T13:13:53.877Z</time>
      </trkpt>
      <trkpt lat="47.02353" lon="8.9458">
        <ele>852</ele>
        <time>2021-08-02T13:13:54.877Z</time>
      </trkpt>
      <trkpt lat="47.02353" lon="8.9458">
        <ele>851</ele>
        <time>2021-08-02T13:13:55.877Z</time>
      </trkpt>
      <trkpt lat="47.02351" lon="8.9458">
        <ele>849</ele>
        <time>2021-08-02T13:13:56.878Z</time>
      </trkpt>
      <trkpt lat="47.02351" lon="8.9458">
        <ele>849</ele>
        <time>2021-08-02T13:13:57.878Z</time>
      </trkpt>
      <trkpt lat="47.02347" lon="8.9458">
        <ele>848</ele>
        <time>2021-08-02T13:13:58.878Z</time>
      </trkpt>
      <trkpt lat="47.02347" lon="8.94581">
        <ele>848</ele>
        <time>2021-08-02T13:13:59.877Z</time>
      </trkpt>
      <trkpt lat="47.02348" lon="8.94582">
        <ele>849</ele>
        <time>2021-08-02T13:14:00.877Z</time>
      </trkpt>
      <trkpt lat="47.0235" lon="8.94583">
        <ele>849</ele>
        <time>2021-08-02T13:14:01.878Z</time>
      </trkpt>
      <trkpt lat="47.02351" lon="8.94584">
        <ele>849</ele>
        <time>2021-08-02T13:14:02.877Z</time>
      </trkpt>
      <trkpt lat="47.02352" lon="8.94585">
        <ele>850</ele>
        <time>2021-08-02T13:14:03.877Z</time>
      </trkpt>
      <trkpt lat="47.02352" lon="8.94585">
        <ele>851</ele>
        <time>2021-08-02T13:14:04.878Z</time>
      </trkpt>
      <trkpt lat="47.02353" lon="8.94585">
        <ele>851</ele>
        <time>2021-08-02T13:14:05.878Z</time>
      </trkpt>
      <trkpt lat="47.02353" lon="8.94585">
        <ele>852</ele>
        <time>2021-08-02T13:14:06.877Z</time>
      </trkpt>
      <trkpt lat="47.02353" lon="8.94585">
        <ele>853</ele>
        <time>2021-08-02T13:14:07.878Z</time>
      </trkpt>
      <trkpt lat="47.02354" lon="8.94586">
        <ele>854</ele>
        <time>2021-08-02T13:14:08.878Z</time>
      </trkpt>
      <trkpt lat="47.02355" lon="8.94586">
        <ele>855</ele>
        <time>2021-08-02T13:14:09.878Z</time>
      </trkpt>
      <trkpt lat="47.02354" lon="8.94583">
        <ele>855</ele>
        <time>2021-08-02T13:14:10.879Z</time>
      </trkpt>
      <trkpt lat="47.02354" lon="8.94582">
        <ele>855</ele>
        <time>2021-08-02T13:14:11.879Z</time>
      </trkpt>
      <trkpt lat="47.02353" lon="8.94581">
        <ele>855</ele>
        <time>2021-08-02T13:14:12.878Z</time>
      </trkpt>
      <trkpt lat="47.02352" lon="8.9458">
        <ele>855</ele>
        <time>2021-08-02T13:14:13.879Z</time>
      </trkpt>
      <trkpt lat="47.02351" lon="8.94578">
        <ele>855</ele>
        <time>2021-08-02T13:14:14.879Z</time>
      </trkpt>
      <trkpt lat="47.0235" lon="8.94577">
        <ele>856</ele>
        <time>2021-08-02T13:14:15.879Z</time>
      </trkpt>
      <trkpt lat="47.0235" lon="8.94577">
        <ele>856</ele>
        <time>2021-08-02T13:14:16.878Z</time>
      </trkpt>
      <trkpt lat="47.02354" lon="8.9458">
        <ele>852</ele>
        <time>2021-08-02T13:14:17.881Z</time>
      </trkpt>
      <trkpt lat="47.02355" lon="8.9458">
        <ele>851</ele>
        <time>2021-08-02T13:14:18.880Z</time>
      </trkpt>
      <trkpt lat="47.02356" lon="8.94581">
        <ele>851</ele>
        <time>2021-08-02T13:14:19.880Z</time>
      </trkpt>
      <trkpt lat="47.02356" lon="8.94582">
        <ele>850</ele>
        <time>2021-08-02T13:14:20.881Z</time>
      </trkpt>
      <trkpt lat="47.02359" lon="8.94585">
        <ele>847</ele>
        <time>2021-08-02T13:14:21.880Z</time>
      </trkpt>
      <trkpt lat="47.02359" lon="8.94586">
        <ele>846</ele>
        <time>2021-08-02T13:14:22.880Z</time>
      </trkpt>
      <trkpt lat="47.02359" lon="8.94586">
        <ele>845</ele>
        <time>2021-08-02T13:14:23.880Z</time>
      </trkpt>
      <trkpt lat="47.02356" lon="8.94587">
        <ele>843</ele>
        <time>2021-08-02T13:14:24.881Z</time>
      </trkpt>
      <trkpt lat="47.02356" lon="8.94587">
        <ele>843</ele>
        <time>2021-08-02T13:14:25.881Z</time>
      </trkpt>
      <trkpt lat="47.02355" lon="8.94588">
        <ele>844</ele>
        <time>2021-08-02T13:14:26.880Z</time>
      </trkpt>
      <trkpt lat="47.02355" lon="8.94588">
        <ele>844</ele>
        <time>2021-08-02T13:14:27.881Z</time>
      </trkpt>
      <trkpt lat="47.02355" lon="8.94589">
        <ele>844</ele>
        <time>2021-08-02T13:14:28.880Z</time>
      </trkpt>
      <trkpt lat="47.02357" lon="8.94587">
        <ele>845</ele>
        <time>2021-08-02T13:14:29.881Z</time>
      </trkpt>
      <trkpt lat="47.02357" lon="8.94587">
        <ele>845</ele>
        <time>2021-08-02T13:14:33.906Z</time>
      </trkpt>
      <trkpt lat="47.02353" lon="8.94586">
        <ele>851</ele>
        <time>2021-08-02T13:14:34.905Z</time>
      </trkpt>
      <trkpt lat="47.02352" lon="8.94585">
        <ele>851</ele>
        <time>2021-08-02T13:14:35.906Z</time>
      </trkpt>
      <trkpt lat="47.02351" lon="8.94585">
        <ele>851</ele>
        <time>2021-08-02T13:14:36.905Z</time>
      </trkpt>
      <trkpt lat="47.02352" lon="8.94586">
        <ele>851</ele>
        <time>2021-08-02T13:14:37.906Z</time>
      </trkpt>
      <trkpt lat="47.02352" lon="8.94585">
        <ele>851</ele>
        <time>2021-08-02T13:14:38.905Z</time>
      </trkpt>
      <trkpt lat="47.02351" lon="8.94584">
        <ele>851</ele>
        <time>2021-08-02T13:14:39.906Z</time>
      </trkpt>
      <trkpt lat="47.02351" lon="8.94584">
        <ele>852</ele>
        <time>2021-08-02T13:14:40.905Z</time>
      </trkpt>
      <trkpt lat="47.02351" lon="8.94583">
        <ele>851</ele>
        <time>2021-08-02T13:14:41.906Z</time>
      </trkpt>
      <trkpt lat="47.02351" lon="8.94583">
        <ele>851</ele>
        <time>2021-08-02T13:14:42.906Z</time>
      </trkpt>
      <trkpt lat="47.0235" lon="8.94581">
        <ele>852</ele>
        <time>2021-08-02T13:14:43.905Z</time>
      </trkpt>
      <trkpt lat="47.0235" lon="8.94582">
        <ele>851</ele>
        <time>2021-08-02T13:14:44.906Z</time>
      </trkpt>
      <trkpt lat="47.02351" lon="8.94583">
        <ele>850</ele>
        <time>2021-08-02T13:14:45.905Z</time>
      </trkpt>
      <trkpt lat="47.02352" lon="8.94584">
        <ele>849</ele>
        <time>2021-08-02T13:14:46.906Z</time>
      </trkpt>
      <trkpt lat="47.02352" lon="8.94584">
        <ele>849</ele>
        <time>2021-08-02T13:14:47.906Z</time>
      </trkpt>
      <trkpt lat="47.02353" lon="8.94583">
        <ele>848</ele>
        <time>2021-08-02T13:14:48.906Z</time>
      </trkpt>
      <trkpt lat="47.02353" lon="8.94583">
        <ele>848</ele>
        <time>2021-08-02T13:14:49.905Z</time>
      </trkpt>
      <trkpt lat="47.02354" lon="8.94582">
        <ele>848</ele>
        <time>2021-08-02T13:14:50.906Z</time>
      </trkpt>
      <trkpt lat="47.02354" lon="8.94582">
        <ele>848</ele>
        <time>2021-08-02T13:14:51.905Z</time>
      </trkpt>
      <trkpt lat="47.02353" lon="8.94582">
        <ele>848</ele>
        <time>2021-08-02T13:14:52.905Z</time>
      </trkpt>
      <trkpt lat="47.02353" lon="8.9458">
        <ele>848</ele>
        <time>2021-08-02T13:14:53.907Z</time>
      </trkpt>
      <trkpt lat="47.02353" lon="8.94579">
        <ele>848</ele>
        <time>2021-08-02T13:14:54.906Z</time>
      </trkpt>
      <trkpt lat="47.02353" lon="8.9458">
        <ele>847</ele>
        <time>2021-08-02T13:14:55.906Z</time>
      </trkpt>
      <trkpt lat="47.02353" lon="8.9458">
        <ele>847</ele>
        <time>2021-08-02T13:14:56.906Z</time>
      </trkpt>
      <trkpt lat="47.02352" lon="8.94582">
        <ele>849</ele>
        <time>2021-08-02T13:14:57.907Z</time>
      </trkpt>
      <trkpt lat="47.02352" lon="8.94583">
        <ele>849</ele>
        <time>2021-08-02T13:14:58.907Z</time>
      </trkpt>
      <trkpt lat="47.02352" lon="8.94583">
        <ele>850</ele>
        <time>2021-08-02T13:14:59.906Z</time>
      </trkpt>
      <trkpt lat="47.02352" lon="8.94584">
        <ele>850</ele>
        <time>2021-08-02T13:15:00.907Z</time>
      </trkpt>
      <trkpt lat="47.02352" lon="8.94584">
        <ele>850</ele>
        <time>2021-08-02T13:15:01.907Z</time>
      </trkpt>
      <trkpt lat="47.02352" lon="8.94584">
        <ele>850</ele>
        <time>2021-08-02T13:15:02.907Z</time>
      </trkpt>
      <trkpt lat="47.02352" lon="8.94583">
        <ele>850</ele>
        <time>2021-08-02T13:15:03.907Z</time>
      </trkpt>
      <trkpt lat="47.02352" lon="8.94583">
        <ele>850</ele>
        <time>2021-08-02T13:15:04.906Z</time>
      </trkpt>
      <trkpt lat="47.02352" lon="8.94582">
        <ele>850</ele>
        <time>2021-08-02T13:15:05.906Z</time>
      </trkpt>
      <trkpt lat="47.02352" lon="8.94582">
        <ele>850</ele>
        <time>2021-08-02T13:15:06.907Z</time>
      </trkpt>
      <trkpt lat="47.02351" lon="8.94582">
        <ele>851</ele>
        <time>2021-08-02T13:15:07.906Z</time>
      </trkpt>
      <trkpt lat="47.02352" lon="8.94582">
        <ele>851</ele>
        <time>2021-08-02T13:15:08.907Z</time>
      </trkpt>
      <trkpt lat="47.02353" lon="8.94583">
        <ele>853</ele>
        <time>2021-08-02T13:15:09.906Z</time>
      </trkpt>
      <trkpt lat="47.02353" lon="8.94583">
        <ele>853</ele>
        <time>2021-08-02T13:15:10.906Z</time>
      </trkpt>
      <trkpt lat="47.0235" lon="8.94582">
        <ele>857</ele>
        <time>2021-08-02T13:15:11.908Z</time>
      </trkpt>
      <trkpt lat="47.0235" lon="8.94582">
        <ele>858</ele>
        <time>2021-08-02T13:15:12.909Z</time>
      </trkpt>
      <trkpt lat="47.0235" lon="8.94584">
        <ele>858</ele>
        <time>2021-08-02T13:15:13.910Z</time>
      </trkpt>
      <trkpt lat="47.02351" lon="8.94584">
        <ele>858</ele>
        <time>2021-08-02T13:15:14.910Z</time>
      </trkpt>
      <trkpt lat="47.0235" lon="8.94583">
        <ele>858</ele>
        <time>2021-08-02T13:15:15.910Z</time>
      </trkpt>
      <trkpt lat="47.0235" lon="8.94582">
        <ele>858</ele>
        <time>2021-08-02T13:15:16.910Z</time>
      </trkpt>
      <trkpt lat="47.0235" lon="8.94583">
        <ele>858</ele>
        <time>2021-08-02T13:15:17.911Z</time>
      </trkpt>
      <trkpt lat="47.02349" lon="8.94583">
        <ele>858</ele>
        <time>2021-08-02T13:15:18.911Z</time>
      </trkpt>
      <trkpt lat="47.02349" lon="8.94583">
        <ele>858</ele>
        <time>2021-08-02T13:15:19.911Z</time>
      </trkpt>
      <trkpt lat="47.02348" lon="8.94583">
        <ele>858</ele>
        <time>2021-08-02T13:15:20.911Z</time>
      </trkpt>
      <trkpt lat="47.02348" lon="8.94583">
        <ele>858</ele>
        <time>2021-08-02T13:15:21.910Z</time>
      </trkpt>
      <trkpt lat="47.02348" lon="8.94584">
        <ele>858</ele>
        <time>2021-08-02T13:15:22.911Z</time>
      </trkpt>
      <trkpt lat="47.02348" lon="8.94584">
        <ele>858</ele>
        <time>2021-08-02T13:15:23.910Z</time>
      </trkpt>
      <trkpt lat="47.02348" lon="8.94583">
        <ele>859</ele>
        <time>2021-08-02T13:15:24.911Z</time>
      </trkpt>
      <trkpt lat="47.02347" lon="8.94584">
        <ele>859</ele>
        <time>2021-08-02T13:15:25.910Z</time>
      </trkpt>
      <trkpt lat="47.02348" lon="8.94583">
        <ele>859</ele>
        <time>2021-08-02T13:15:26.910Z</time>
      </trkpt>
      <trkpt lat="47.02347" lon="8.94583">
        <ele>859</ele>
        <time>2021-08-02T13:15:27.910Z</time>
      </trkpt>
      <trkpt lat="47.02347" lon="8.94583">
        <ele>860</ele>
        <time>2021-08-02T13:15:28.911Z</time>
      </trkpt>
      <trkpt lat="47.02347" lon="8.94583">
        <ele>860</ele>
        <time>2021-08-02T13:15:29.911Z</time>
      </trkpt>
      <trkpt lat="47.02347" lon="8.94583">
        <ele>860</ele>
        <time>2021-08-02T13:15:30.910Z</time>
      </trkpt>
      <trkpt lat="47.02346" lon="8.94582">
        <ele>860</ele>
        <time>2021-08-02T13:15:31.910Z</time>
      </trkpt>
      <trkpt lat="47.02346" lon="8.94582">
        <ele>861</ele>
        <time>2021-08-02T13:15:32.910Z</time>
      </trkpt>
      <trkpt lat="47.02346" lon="8.94581">
        <ele>861</ele>
        <time>2021-08-02T13:15:33.910Z</time>
      </trkpt>
      <trkpt lat="47.02346" lon="8.9458">
        <ele>861</ele>
        <time>2021-08-02T13:15:34.910Z</time>
      </trkpt>
      <trkpt lat="47.02347" lon="8.9458">
        <ele>861</ele>
        <time>2021-08-02T13:15:35.910Z</time>
      </trkpt>
      <trkpt lat="47.02347" lon="8.9458">
        <ele>861</ele>
        <time>2021-08-02T13:15:36.911Z</time>
      </trkpt>
      <trkpt lat="47.02347" lon="8.94581">
        <ele>861</ele>
        <time>2021-08-02T13:15:37.911Z</time>
      </trkpt>
      <trkpt lat="47.02351" lon="8.94584">
        <ele>864</ele>
        <time>2021-08-02T13:15:38.911Z</time>
      </trkpt>
      <trkpt lat="47.02351" lon="8.94584">
        <ele>864</ele>
        <time>2021-08-02T13:15:39.912Z</time>
      </trkpt>
      <trkpt lat="47.02352" lon="8.94585">
        <ele>864</ele>
        <time>2021-08-02T13:15:40.912Z</time>
      </trkpt>
      <trkpt lat="47.02352" lon="8.94585">
        <ele>864</ele>
        <time>2021-08-02T13:15:41.912Z</time>
      </trkpt>
      <trkpt lat="47.02352" lon="8.94585">
        <ele>864</ele>
        <time>2021-08-02T13:15:42.911Z</time>
      </trkpt>
      <trkpt lat="47.02352" lon="8.94585">
        <ele>864</ele>
        <time>2021-08-02T13:15:43.911Z</time>
      </trkpt>
      <trkpt lat="47.02353" lon="8.94587">
        <ele>864</ele>
        <time>2021-08-02T13:15:44.911Z</time>
      </trkpt>
      <trkpt lat="47.02353" lon="8.94586">
        <ele>864</ele>
        <time>2021-08-02T13:15:45.912Z</time>
      </trkpt>
      <trkpt lat="47.02354" lon="8.94585">
        <ele>864</ele>
        <time>2021-08-02T13:15:46.911Z</time>
      </trkpt>
      <trkpt lat="47.02354" lon="8.94584">
        <ele>864</ele>
        <time>2021-08-02T13:15:47.911Z</time>
      </trkpt>
      <trkpt lat="47.02354" lon="8.94583">
        <ele>864</ele>
        <time>2021-08-02T13:15:48.912Z</time>
      </trkpt>
      <trkpt lat="47.02354" lon="8.94583">
        <ele>864</ele>
        <time>2021-08-02T13:15:49.912Z</time>
      </trkpt>
      <trkpt lat="47.02354" lon="8.94582">
        <ele>864</ele>
        <time>2021-08-02T13:15:50.912Z</time>
      </trkpt>
      <trkpt lat="47.02354" lon="8.94582">
        <ele>864</ele>
        <time>2021-08-02T13:15:51.911Z</time>
      </trkpt>
      <trkpt lat="47.02353" lon="8.94581">
        <ele>864</ele>
        <time>2021-08-02T13:15:52.912Z</time>
      </trkpt>
      <trkpt lat="47.02352" lon="8.94581">
        <ele>864</ele>
        <time>2021-08-02T13:15:53.912Z</time>
      </trkpt>
      <trkpt lat="47.02352" lon="8.94582">
        <ele>863</ele>
        <time>2021-08-02T13:15:54.911Z</time>
      </trkpt>
      <trkpt lat="47.02352" lon="8.94582">
        <ele>862</ele>
        <time>2021-08-02T13:15:55.912Z</time>
      </trkpt>
      <trkpt lat="47.02353" lon="8.94582">
        <ele>862</ele>
        <time>2021-08-02T13:15:56.912Z</time>
      </trkpt>
      <trkpt lat="47.02352" lon="8.94581">
        <ele>861</ele>
        <time>2021-08-02T13:15:57.912Z</time>
      </trkpt>
      <trkpt lat="47.02507" lon="8.94343">
        <ele>817</ele>
        <time>2021-08-03T08:17:10.635Z</time>
      </trkpt>
      <trkpt lat="47.02507" lon="8.94343">
        <ele>817</ele>
        <time>2021-08-03T08:17:10.635Z</time>
      </trkpt>
      <trkpt lat="47.02507" lon="8.94343">
        <ele>817</ele>
        <time>2021-08-03T08:17:10.635Z</time>
      </trkpt>
      <trkpt lat="47.02507" lon="8.94342">
        <ele>817</ele>
        <time>2021-08-03T08:17:11.635Z</time>
      </trkpt>
      <trkpt lat="47.02507" lon="8.94341">
        <ele>818</ele>
        <time>2021-08-03T08:17:12.635Z</time>
      </trkpt>
      <trkpt lat="47.02506" lon="8.9434">
        <ele>819</ele>
        <time>2021-08-03T08:17:13.635Z</time>
      </trkpt>
      <trkpt lat="47.02506" lon="8.94338">
        <ele>820</ele>
        <time>2021-08-03T08:17:14.636Z</time>
      </trkpt>
      <trkpt lat="47.02505" lon="8.94337">
        <ele>820</ele>
        <time>2021-08-03T08:17:15.635Z</time>
      </trkpt>
      <trkpt lat="47.02505" lon="8.94336">
        <ele>821</ele>
        <time>2021-08-03T08:17:16.636Z</time>
      </trkpt>
      <trkpt lat="47.02504" lon="8.94335">
        <ele>821</ele>
        <time>2021-08-03T08:17:17.635Z</time>
      </trkpt>
      <trkpt lat="47.02503" lon="8.94334">
        <ele>822</ele>
        <time>2021-08-03T08:17:18.635Z</time>
      </trkpt>
      <trkpt lat="47.02503" lon="8.94333">
        <ele>823</ele>
        <time>2021-08-03T08:17:19.635Z</time>
      </trkpt>
      <trkpt lat="47.02502" lon="8.94331">
        <ele>823</ele>
        <time>2021-08-03T08:17:20.635Z</time>
      </trkpt>
      <trkpt lat="47.02502" lon="8.94329">
        <ele>824</ele>
        <time>2021-08-03T08:17:21.635Z</time>
      </trkpt>
      <trkpt lat="47.02501" lon="8.94329">
        <ele>824</ele>
        <time>2021-08-03T08:17:22.635Z</time>
      </trkpt>
      <trkpt lat="47.02502" lon="8.94328">
        <ele>824</ele>
        <time>2021-08-03T08:17:23.635Z</time>
      </trkpt>
      <trkpt lat="47.02502" lon="8.94328">
        <ele>825</ele>
        <time>2021-08-03T08:17:24.636Z</time>
      </trkpt>
      <trkpt lat="47.02503" lon="8.94328">
        <ele>825</ele>
        <time>2021-08-03T08:17:25.635Z</time>
      </trkpt>
      <trkpt lat="47.02503" lon="8.94327">
        <ele>825</ele>
        <time>2021-08-03T08:17:26.635Z</time>
      </trkpt>
      <trkpt lat="47.02503" lon="8.94327">
        <ele>826</ele>
        <time>2021-08-03T08:17:27.635Z</time>
      </trkpt>
      <trkpt lat="47.02503" lon="8.94327">
        <ele>826</ele>
        <time>2021-08-03T08:17:28.635Z</time>
      </trkpt>
      <trkpt lat="47.02503" lon="8.94326">
        <ele>826</ele>
        <time>2021-08-03T08:17:29.635Z</time>
      </trkpt>
      <trkpt lat="47.02503" lon="8.94325">
        <ele>827</ele>
        <time>2021-08-03T08:17:30.635Z</time>
      </trkpt>
      <trkpt lat="47.02503" lon="8.94324">
        <ele>827</ele>
        <time>2021-08-03T08:17:31.635Z</time>
      </trkpt>
      <trkpt lat="47.02503" lon="8.94324">
        <ele>827</ele>
        <time>2021-08-03T08:17:32.636Z</time>
      </trkpt>
      <trkpt lat="47.02503" lon="8.94324">
        <ele>827</ele>
        <time>2021-08-03T08:17:33.636Z</time>
      </trkpt>
      <trkpt lat="47.02502" lon="8.94323">
        <ele>828</ele>
        <time>2021-08-03T08:17:34.635Z</time>
      </trkpt>
      <trkpt lat="47.02501" lon="8.94321">
        <ele>828</ele>
        <time>2021-08-03T08:17:35.635Z</time>
      </trkpt>
      <trkpt lat="47.025" lon="8.9432">
        <ele>828</ele>
        <time>2021-08-03T08:17:36.635Z</time>
      </trkpt>
      <trkpt lat="47.025" lon="8.94319">
        <ele>828</ele>
        <time>2021-08-03T08:17:37.635Z</time>
      </trkpt>
      <trkpt lat="47.02499" lon="8.94317">
        <ele>828</ele>
        <time>2021-08-03T08:17:38.635Z</time>
      </trkpt>
      <trkpt lat="47.02499" lon="8.94317">
        <ele>829</ele>
        <time>2021-08-03T08:17:39.636Z</time>
      </trkpt>
      <trkpt lat="47.025" lon="8.94318">
        <ele>829</ele>
        <time>2021-08-03T08:17:40.635Z</time>
      </trkpt>
      <trkpt lat="47.02501" lon="8.94321">
        <ele>829</ele>
        <time>2021-08-03T08:17:41.635Z</time>
      </trkpt>
      <trkpt lat="47.02502" lon="8.94323">
        <ele>829</ele>
        <time>2021-08-03T08:17:42.635Z</time>
      </trkpt>
      <trkpt lat="47.02504" lon="8.94325">
        <ele>830</ele>
        <time>2021-08-03T08:17:43.635Z</time>
      </trkpt>
      <trkpt lat="47.02504" lon="8.94327">
        <ele>830</ele>
        <time>2021-08-03T08:17:44.635Z</time>
      </trkpt>
      <trkpt lat="47.02505" lon="8.94329">
        <ele>830</ele>
        <time>2021-08-03T08:17:45.635Z</time>
      </trkpt>
      <trkpt lat="47.02504" lon="8.94329">
        <ele>830</ele>
        <time>2021-08-03T08:17:46.636Z</time>
      </trkpt>
      <trkpt lat="47.02504" lon="8.9433">
        <ele>830</ele>
        <time>2021-08-03T08:17:47.636Z</time>
      </trkpt>
      <trkpt lat="47.02504" lon="8.9433">
        <ele>830</ele>
        <time>2021-08-03T08:17:48.635Z</time>
      </trkpt>
      <trkpt lat="47.02504" lon="8.94331">
        <ele>830</ele>
        <time>2021-08-03T08:17:49.635Z</time>
      </trkpt>
      <trkpt lat="47.02503" lon="8.94331">
        <ele>830</ele>
        <time>2021-08-03T08:17:50.635Z</time>
      </trkpt>
      <trkpt lat="47.02503" lon="8.94331">
        <ele>830</ele>
        <time>2021-08-03T08:17:51.636Z</time>
      </trkpt>
      <trkpt lat="47.02503" lon="8.9433">
        <ele>831</ele>
        <time>2021-08-03T08:17:52.635Z</time>
      </trkpt>
      <trkpt lat="47.02503" lon="8.94331">
        <ele>831</ele>
        <time>2021-08-03T08:17:53.635Z</time>
      </trkpt>
      <trkpt lat="47.02503" lon="8.94331">
        <ele>831</ele>
        <time>2021-08-03T08:17:54.635Z</time>
      </trkpt>
      <trkpt lat="47.02503" lon="8.94332">
        <ele>832</ele>
        <time>2021-08-03T08:17:55.635Z</time>
      </trkpt>
      <trkpt lat="47.02504" lon="8.94332">
        <ele>832</ele>
        <time>2021-08-03T08:17:56.635Z</time>
      </trkpt>
      <trkpt lat="47.02504" lon="8.94333">
        <ele>832</ele>
        <time>2021-08-03T08:17:57.635Z</time>
      </trkpt>
      <trkpt lat="47.02504" lon="8.94334">
        <ele>832</ele>
        <time>2021-08-03T08:17:58.635Z</time>
      </trkpt>
      <trkpt lat="47.02505" lon="8.94335">
        <ele>833</ele>
        <time>2021-08-03T08:17:59.636Z</time>
      </trkpt>
      <trkpt lat="47.02505" lon="8.94336">
        <ele>833</ele>
        <time>2021-08-03T08:18:00.635Z</time>
      </trkpt>
      <trkpt lat="47.02505" lon="8.94337">
        <ele>833</ele>
        <time>2021-08-03T08:18:01.635Z</time>
      </trkpt>
      <trkpt lat="47.02505" lon="8.94338">
        <ele>833</ele>
        <time>2021-08-03T08:18:02.636Z</time>
      </trkpt>
      <trkpt lat="47.02505" lon="8.94339">
        <ele>834</ele>
        <time>2021-08-03T08:18:03.635Z</time>
      </trkpt>
      <trkpt lat="47.02506" lon="8.94339">
        <ele>834</ele>
        <time>2021-08-03T08:18:04.635Z</time>
      </trkpt>
      <trkpt lat="47.02506" lon="8.9434">
        <ele>834</ele>
        <time>2021-08-03T08:18:05.635Z</time>
      </trkpt>
      <trkpt lat="47.02508" lon="8.9434">
        <ele>834</ele>
        <time>2021-08-03T08:18:06.635Z</time>
      </trkpt>
      <trkpt lat="47.02509" lon="8.9434">
        <ele>835</ele>
        <time>2021-08-03T08:18:07.635Z</time>
      </trkpt>
      <trkpt lat="47.02509" lon="8.94339">
        <ele>835</ele>
        <time>2021-08-03T08:18:08.635Z</time>
      </trkpt>
      <trkpt lat="47.0251" lon="8.94338">
        <ele>835</ele>
        <time>2021-08-03T08:18:09.635Z</time>
      </trkpt>
      <trkpt lat="47.02509" lon="8.94337">
        <ele>835</ele>
        <time>2021-08-03T08:18:10.635Z</time>
      </trkpt>
      <trkpt lat="47.02509" lon="8.94336">
        <ele>835</ele>
        <time>2021-08-03T08:18:11.635Z</time>
      </trkpt>
      <trkpt lat="47.02509" lon="8.94336">
        <ele>835</ele>
        <time>2021-08-03T08:18:12.635Z</time>
      </trkpt>
      <trkpt lat="47.02509" lon="8.94335">
        <ele>835</ele>
        <time>2021-08-03T08:18:13.635Z</time>
      </trkpt>
      <trkpt lat="47.0251" lon="8.94334">
        <ele>836</ele>
        <time>2021-08-03T08:18:14.635Z</time>
      </trkpt>
      <trkpt lat="47.0251" lon="8.94333">
        <ele>836</ele>
        <time>2021-08-03T08:18:15.635Z</time>
      </trkpt>
      <trkpt lat="47.02511" lon="8.94333">
        <ele>836</ele>
        <time>2021-08-03T08:18:16.636Z</time>
      </trkpt>
      <trkpt lat="47.02511" lon="8.94333">
        <ele>836</ele>
        <time>2021-08-03T08:18:17.635Z</time>
      </trkpt>
      <trkpt lat="47.02511" lon="8.94331">
        <ele>836</ele>
        <time>2021-08-03T08:18:18.636Z</time>
      </trkpt>
      <trkpt lat="47.02511" lon="8.9433">
        <ele>836</ele>
        <time>2021-08-03T08:18:19.635Z</time>
      </trkpt>
      <trkpt lat="47.02511" lon="8.94329">
        <ele>836</ele>
        <time>2021-08-03T08:18:20.635Z</time>
      </trkpt>
      <trkpt lat="47.0251" lon="8.94328">
        <ele>836</ele>
        <time>2021-08-03T08:18:21.635Z</time>
      </trkpt>
      <trkpt lat="47.0251" lon="8.94327">
        <ele>836</ele>
        <time>2021-08-03T08:18:22.635Z</time>
      </trkpt>
      <trkpt lat="47.02509" lon="8.94325">
        <ele>836</ele>
        <time>2021-08-03T08:18:23.635Z</time>
      </trkpt>
      <trkpt lat="47.02509" lon="8.94324">
        <ele>837</ele>
        <time>2021-08-03T08:18:24.635Z</time>
      </trkpt>
      <trkpt lat="47.02509" lon="8.94322">
        <ele>837</ele>
        <time>2021-08-03T08:18:25.635Z</time>
      </trkpt>
      <trkpt lat="47.02509" lon="8.94321">
        <ele>837</ele>
        <time>2021-08-03T08:18:26.635Z</time>
      </trkpt>
      <trkpt lat="47.02509" lon="8.94319">
        <ele>837</ele>
        <time>2021-08-03T08:18:27.635Z</time>
      </trkpt>
      <trkpt lat="47.02509" lon="8.94318">
        <ele>837</ele>
        <time>2021-08-03T08:18:28.635Z</time>
      </trkpt>
      <trkpt lat="47.02509" lon="8.94316">
        <ele>837</ele>
        <time>2021-08-03T08:18:29.635Z</time>
      </trkpt>
      <trkpt lat="47.0251" lon="8.94315">
        <ele>837</ele>
        <time>2021-08-03T08:18:30.635Z</time>
      </trkpt>
      <trkpt lat="47.02511" lon="8.94314">
        <ele>837</ele>
        <time>2021-08-03T08:18:31.635Z</time>
      </trkpt>
      <trkpt lat="47.02511" lon="8.94312">
        <ele>837</ele>
        <time>2021-08-03T08:18:32.635Z</time>
      </trkpt>
      <trkpt lat="47.02511" lon="8.94312">
        <ele>837</ele>
        <time>2021-08-03T08:18:33.635Z</time>
      </trkpt>
      <trkpt lat="47.02512" lon="8.94309">
        <ele>838</ele>
        <time>2021-08-03T08:18:34.635Z</time>
      </trkpt>
      <trkpt lat="47.02512" lon="8.94308">
        <ele>838</ele>
        <time>2021-08-03T08:18:35.635Z</time>
      </trkpt>
      <trkpt lat="47.02513" lon="8.94307">
        <ele>838</ele>
        <time>2021-08-03T08:18:36.635Z</time>
      </trkpt>
      <trkpt lat="47.02513" lon="8.94307">
        <ele>838</ele>
        <time>2021-08-03T08:18:37.635Z</time>
      </trkpt>
      <trkpt lat="47.02513" lon="8.94306">
        <ele>838</ele>
        <time>2021-08-03T08:18:38.635Z</time>
      </trkpt>
      <trkpt lat="47.02515" lon="8.94304">
        <ele>838</ele>
        <time>2021-08-03T08:18:39.635Z</time>
      </trkpt>
      <trkpt lat="47.02515" lon="8.94302">
        <ele>838</ele>
        <time>2021-08-03T08:18:40.635Z</time>
      </trkpt>
      <trkpt lat="47.02515" lon="8.94301">
        <ele>839</ele>
        <time>2021-08-03T08:18:41.635Z</time>
      </trkpt>
      <trkpt lat="47.02515" lon="8.943">
        <ele>839</ele>
        <time>2021-08-03T08:18:42.635Z</time>
      </trkpt>
      <trkpt lat="47.02515" lon="8.94299">
        <ele>839</ele>
        <time>2021-08-03T08:18:43.636Z</time>
      </trkpt>
      <trkpt lat="47.02515" lon="8.94298">
        <ele>839</ele>
        <time>2021-08-03T08:18:44.635Z</time>
      </trkpt>
      <trkpt lat="47.02516" lon="8.94297">
        <ele>839</ele>
        <time>2021-08-03T08:18:45.635Z</time>
      </trkpt>
      <trkpt lat="47.02516" lon="8.94295">
        <ele>839</ele>
        <time>2021-08-03T08:18:46.635Z</time>
      </trkpt>
      <trkpt lat="47.02515" lon="8.94293">
        <ele>839</ele>
        <time>2021-08-03T08:18:47.635Z</time>
      </trkpt>
      <trkpt lat="47.02515" lon="8.94293">
        <ele>839</ele>
        <time>2021-08-03T08:18:48.635Z</time>
      </trkpt>
      <trkpt lat="47.02516" lon="8.94292">
        <ele>840</ele>
        <time>2021-08-03T08:18:49.635Z</time>
      </trkpt>
      <trkpt lat="47.02517" lon="8.94292">
        <ele>840</ele>
        <time>2021-08-03T08:18:50.635Z</time>
      </trkpt>
      <trkpt lat="47.02516" lon="8.94292">
        <ele>840</ele>
        <time>2021-08-03T08:18:51.635Z</time>
      </trkpt>
      <trkpt lat="47.02516" lon="8.94291">
        <ele>841</ele>
        <time>2021-08-03T08:18:52.636Z</time>
      </trkpt>
      <trkpt lat="47.02515" lon="8.9429">
        <ele>841</ele>
        <time>2021-08-03T08:18:53.635Z</time>
      </trkpt>
      <trkpt lat="47.02515" lon="8.94288">
        <ele>841</ele>
        <time>2021-08-03T08:18:54.635Z</time>
      </trkpt>
      <trkpt lat="47.02514" lon="8.94286">
        <ele>841</ele>
        <time>2021-08-03T08:18:55.635Z</time>
      </trkpt>
      <trkpt lat="47.02513" lon="8.94284">
        <ele>841</ele>
        <time>2021-08-03T08:18:56.635Z</time>
      </trkpt>
      <trkpt lat="47.02513" lon="8.94281">
        <ele>841</ele>
        <time>2021-08-03T08:18:57.635Z</time>
      </trkpt>
      <trkpt lat="47.02512" lon="8.94279">
        <ele>842</ele>
        <time>2021-08-03T08:18:58.635Z</time>
      </trkpt>
      <trkpt lat="47.02511" lon="8.94277">
        <ele>842</ele>
        <time>2021-08-03T08:18:59.635Z</time>
      </trkpt>
      <trkpt lat="47.02511" lon="8.94275">
        <ele>842</ele>
        <time>2021-08-03T08:19:00.635Z</time>
      </trkpt>
      <trkpt lat="47.02511" lon="8.94273">
        <ele>842</ele>
        <time>2021-08-03T08:19:01.635Z</time>
      </trkpt>
      <trkpt lat="47.02511" lon="8.94273">
        <ele>842</ele>
        <time>2021-08-03T08:19:02.635Z</time>
      </trkpt>
      <trkpt lat="47.02511" lon="8.94272">
        <ele>842</ele>
        <time>2021-08-03T08:19:03.635Z</time>
      </trkpt>
      <trkpt lat="47.02512" lon="8.9427">
        <ele>842</ele>
        <time>2021-08-03T08:19:04.636Z</time>
      </trkpt>
      <trkpt lat="47.02514" lon="8.94271">
        <ele>842</ele>
        <time>2021-08-03T08:19:05.635Z</time>
      </trkpt>
      <trkpt lat="47.02514" lon="8.94271">
        <ele>842</ele>
        <time>2021-08-03T08:19:06.635Z</time>
      </trkpt>
      <trkpt lat="47.02514" lon="8.94271">
        <ele>842</ele>
        <time>2021-08-03T08:19:07.635Z</time>
      </trkpt>
      <trkpt lat="47.02515" lon="8.94271">
        <ele>843</ele>
        <time>2021-08-03T08:19:08.635Z</time>
      </trkpt>
      <trkpt lat="47.02515" lon="8.9427">
        <ele>843</ele>
        <time>2021-08-03T08:19:09.635Z</time>
      </trkpt>
      <trkpt lat="47.02515" lon="8.94268">
        <ele>843</ele>
        <time>2021-08-03T08:19:10.635Z</time>
      </trkpt>
      <trkpt lat="47.02515" lon="8.94265">
        <ele>843</ele>
        <time>2021-08-03T08:19:11.635Z</time>
      </trkpt>
      <trkpt lat="47.02514" lon="8.94263">
        <ele>843</ele>
        <time>2021-08-03T08:19:12.635Z</time>
      </trkpt>
      <trkpt lat="47.02513" lon="8.9426">
        <ele>844</ele>
        <time>2021-08-03T08:19:13.636Z</time>
      </trkpt>
      <trkpt lat="47.02513" lon="8.94257">
        <ele>844</ele>
        <time>2021-08-03T08:19:14.635Z</time>
      </trkpt>
      <trkpt lat="47.02513" lon="8.94253">
        <ele>844</ele>
        <time>2021-08-03T08:19:15.635Z</time>
      </trkpt>
      <trkpt lat="47.02513" lon="8.94253">
        <ele>845</ele>
        <time>2021-08-03T08:19:16.635Z</time>
      </trkpt>
      <trkpt lat="47.02512" lon="8.94251">
        <ele>845</ele>
        <time>2021-08-03T08:19:17.635Z</time>
      </trkpt>
      <trkpt lat="47.02512" lon="8.94248">
        <ele>845</ele>
        <time>2021-08-03T08:19:18.635Z</time>
      </trkpt>
      <trkpt lat="47.02512" lon="8.94246">
        <ele>846</ele>
        <time>2021-08-03T08:19:19.635Z</time>
      </trkpt>
      <trkpt lat="47.02512" lon="8.94243">
        <ele>847</ele>
        <time>2021-08-03T08:19:20.635Z</time>
      </trkpt>
      <trkpt lat="47.02513" lon="8.94239">
        <ele>848</ele>
        <time>2021-08-03T08:19:21.635Z</time>
      </trkpt>
      <trkpt lat="47.02513" lon="8.94239">
        <ele>848</ele>
        <time>2021-08-03T08:19:22.635Z</time>
      </trkpt>
      <trkpt lat="47.02513" lon="8.94238">
        <ele>848</ele>
        <time>2021-08-03T08:19:23.635Z</time>
      </trkpt>
      <trkpt lat="47.02513" lon="8.94236">
        <ele>849</ele>
        <time>2021-08-03T08:19:24.635Z</time>
      </trkpt>
      <trkpt lat="47.02514" lon="8.94233">
        <ele>850</ele>
        <time>2021-08-03T08:19:25.635Z</time>
      </trkpt>
      <trkpt lat="47.02514" lon="8.94233">
        <ele>850</ele>
        <time>2021-08-03T08:19:26.636Z</time>
      </trkpt>
      <trkpt lat="47.02514" lon="8.94231">
        <ele>850</ele>
        <time>2021-08-03T08:19:27.635Z</time>
      </trkpt>
      <trkpt lat="47.02515" lon="8.9423">
        <ele>851</ele>
        <time>2021-08-03T08:19:28.635Z</time>
      </trkpt>
      <trkpt lat="47.02515" lon="8.94226">
        <ele>852</ele>
        <time>2021-08-03T08:19:29.635Z</time>
      </trkpt>
      <trkpt lat="47.02515" lon="8.94224">
        <ele>852</ele>
        <time>2021-08-03T08:19:30.635Z</time>
      </trkpt>
      <trkpt lat="47.02515" lon="8.9422">
        <ele>853</ele>
        <time>2021-08-03T08:19:31.636Z</time>
      </trkpt>
      <trkpt lat="47.02515" lon="8.9422">
        <ele>853</ele>
        <time>2021-08-03T08:19:32.635Z</time>
      </trkpt>
      <trkpt lat="47.02514" lon="8.94214">
        <ele>853</ele>
        <time>2021-08-03T08:19:33.635Z</time>
      </trkpt>
      <trkpt lat="47.02514" lon="8.94214">
        <ele>853</ele>
        <time>2021-08-03T08:19:34.636Z</time>
      </trkpt>
      <trkpt lat="47.02514" lon="8.9421">
        <ele>854</ele>
        <time>2021-08-03T08:19:35.635Z</time>
      </trkpt>
      <trkpt lat="47.02514" lon="8.9421">
        <ele>854</ele>
        <time>2021-08-03T08:19:36.635Z</time>
      </trkpt>
      <trkpt lat="47.02514" lon="8.94207">
        <ele>855</ele>
        <time>2021-08-03T08:19:37.635Z</time>
      </trkpt>
      <trkpt lat="47.02514" lon="8.94207">
        <ele>855</ele>
        <time>2021-08-03T08:19:38.635Z</time>
      </trkpt>
      <trkpt lat="47.02516" lon="8.94206">
        <ele>855</ele>
        <time>2021-08-03T08:19:39.636Z</time>
      </trkpt>
      <trkpt lat="47.02516" lon="8.94206">
        <ele>855</ele>
        <time>2021-08-03T08:19:40.636Z</time>
      </trkpt>
      <trkpt lat="47.02516" lon="8.94203">
        <ele>856</ele>
        <time>2021-08-03T08:19:41.635Z</time>
      </trkpt>
      <trkpt lat="47.02516" lon="8.94203">
        <ele>856</ele>
        <time>2021-08-03T08:19:42.635Z</time>
      </trkpt>
      <trkpt lat="47.02516" lon="8.942">
        <ele>856</ele>
        <time>2021-08-03T08:19:43.635Z</time>
      </trkpt>
      <trkpt lat="47.02516" lon="8.94197">
        <ele>857</ele>
        <time>2021-08-03T08:19:44.636Z</time>
      </trkpt>
      <trkpt lat="47.02515" lon="8.94191">
        <ele>857</ele>
        <time>2021-08-03T08:19:45.635Z</time>
      </trkpt>
      <trkpt lat="47.02515" lon="8.94191">
        <ele>857</ele>
        <time>2021-08-03T08:19:46.635Z</time>
      </trkpt>
      <trkpt lat="47.02515" lon="8.94189">
        <ele>858</ele>
        <time>2021-08-03T08:19:47.635Z</time>
      </trkpt>
      <trkpt lat="47.02515" lon="8.94183">
        <ele>858</ele>
        <time>2021-08-03T08:19:48.635Z</time>
      </trkpt>
      <trkpt lat="47.02515" lon="8.94183">
        <ele>858</ele>
        <time>2021-08-03T08:19:49.635Z</time>
      </trkpt>
      <trkpt lat="47.02517" lon="8.9418">
        <ele>859</ele>
        <time>2021-08-03T08:19:50.635Z</time>
      </trkpt>
      <trkpt lat="47.02517" lon="8.94179">
        <ele>859</ele>
        <time>2021-08-03T08:19:51.635Z</time>
      </trkpt>
      <trkpt lat="47.02518" lon="8.94177">
        <ele>859</ele>
        <time>2021-08-03T08:19:52.635Z</time>
      </trkpt>
      <trkpt lat="47.02518" lon="8.94175">
        <ele>859</ele>
        <time>2021-08-03T08:19:53.635Z</time>
      </trkpt>
      <trkpt lat="47.02518" lon="8.94173">
        <ele>859</ele>
        <time>2021-08-03T08:19:54.635Z</time>
      </trkpt>
      <trkpt lat="47.02518" lon="8.94173">
        <ele>859</ele>
        <time>2021-08-03T08:19:55.635Z</time>
      </trkpt>
      <trkpt lat="47.02517" lon="8.94169">
        <ele>860</ele>
        <time>2021-08-03T08:19:56.635Z</time>
      </trkpt>
      <trkpt lat="47.02517" lon="8.94167">
        <ele>860</ele>
        <time>2021-08-03T08:19:57.635Z</time>
      </trkpt>
      <trkpt lat="47.02517" lon="8.94167">
        <ele>860</ele>
        <time>2021-08-03T08:19:58.636Z</time>
      </trkpt>
      <trkpt lat="47.02517" lon="8.94165">
        <ele>861</ele>
        <time>2021-08-03T08:19:59.636Z</time>
      </trkpt>
      <trkpt lat="47.02517" lon="8.94164">
        <ele>861</ele>
        <time>2021-08-03T08:20:00.635Z</time>
      </trkpt>
      <trkpt lat="47.02517" lon="8.94163">
        <ele>862</ele>
        <time>2021-08-03T08:20:01.635Z</time>
      </trkpt>
      <trkpt lat="47.02517" lon="8.94161">
        <ele>862</ele>
        <time>2021-08-03T08:20:02.635Z</time>
      </trkpt>
      <trkpt lat="47.02516" lon="8.9416">
        <ele>862</ele>
        <time>2021-08-03T08:20:03.635Z</time>
      </trkpt>
      <trkpt lat="47.02518" lon="8.94157">
        <ele>863</ele>
        <time>2021-08-03T08:20:04.635Z</time>
      </trkpt>
      <trkpt lat="47.02518" lon="8.94155">
        <ele>863</ele>
        <time>2021-08-03T08:20:05.635Z</time>
      </trkpt>
      <trkpt lat="47.02518" lon="8.94155">
        <ele>863</ele>
        <time>2021-08-03T08:20:06.635Z</time>
      </trkpt>
      <trkpt lat="47.02519" lon="8.94153">
        <ele>863</ele>
        <time>2021-08-03T08:20:07.635Z</time>
      </trkpt>
      <trkpt lat="47.0252" lon="8.94152">
        <ele>863</ele>
        <time>2021-08-03T08:20:08.635Z</time>
      </trkpt>
      <trkpt lat="47.02522" lon="8.94151">
        <ele>863</ele>
        <time>2021-08-03T08:20:09.636Z</time>
      </trkpt>
      <trkpt lat="47.02523" lon="8.94151">
        <ele>863</ele>
        <time>2021-08-03T08:20:10.636Z</time>
      </trkpt>
      <trkpt lat="47.02524" lon="8.94149">
        <ele>864</ele>
        <time>2021-08-03T08:20:11.635Z</time>
      </trkpt>
      <trkpt lat="47.02524" lon="8.94148">
        <ele>864</ele>
        <time>2021-08-03T08:20:12.635Z</time>
      </trkpt>
      <trkpt lat="47.02524" lon="8.94148">
        <ele>864</ele>
        <time>2021-08-03T08:20:13.636Z</time>
      </trkpt>
      <trkpt lat="47.02525" lon="8.94148">
        <ele>864</ele>
        <time>2021-08-03T08:20:14.636Z</time>
      </trkpt>
      <trkpt lat="47.02526" lon="8.94147">
        <ele>864</ele>
        <time>2021-08-03T08:20:15.635Z</time>
      </trkpt>
      <trkpt lat="47.02527" lon="8.94145">
        <ele>864</ele>
        <time>2021-08-03T08:20:16.635Z</time>
      </trkpt>
      <trkpt lat="47.02527" lon="8.94145">
        <ele>865</ele>
        <time>2021-08-03T08:20:17.635Z</time>
      </trkpt>
      <trkpt lat="47.02527" lon="8.94144">
        <ele>865</ele>
        <time>2021-08-03T08:20:18.635Z</time>
      </trkpt>
      <trkpt lat="47.02528" lon="8.94144">
        <ele>865</ele>
        <time>2021-08-03T08:20:19.635Z</time>
      </trkpt>
      <trkpt lat="47.02529" lon="8.94143">
        <ele>865</ele>
        <time>2021-08-03T08:20:20.635Z</time>
      </trkpt>
      <trkpt lat="47.02529" lon="8.94143">
        <ele>865</ele>
        <time>2021-08-03T08:20:21.635Z</time>
      </trkpt>
      <trkpt lat="47.02531" lon="8.94141">
        <ele>864</ele>
        <time>2021-08-03T08:20:22.635Z</time>
      </trkpt>
      <trkpt lat="47.02531" lon="8.94139">
        <ele>864</ele>
        <time>2021-08-03T08:20:23.635Z</time>
      </trkpt>
      <trkpt lat="47.02531" lon="8.94139">
        <ele>864</ele>
        <time>2021-08-03T08:20:24.635Z</time>
      </trkpt>
      <trkpt lat="47.02531" lon="8.94138">
        <ele>865</ele>
        <time>2021-08-03T08:20:25.635Z</time>
      </trkpt>
      <trkpt lat="47.02531" lon="8.94136">
        <ele>865</ele>
        <time>2021-08-03T08:20:26.635Z</time>
      </trkpt>
      <trkpt lat="47.02531" lon="8.94134">
        <ele>865</ele>
        <time>2021-08-03T08:20:27.635Z</time>
      </trkpt>
      <trkpt lat="47.02531" lon="8.94133">
        <ele>865</ele>
        <time>2021-08-03T08:20:28.636Z</time>
      </trkpt>
      <trkpt lat="47.0253" lon="8.94132">
        <ele>865</ele>
        <time>2021-08-03T08:20:29.635Z</time>
      </trkpt>
      <trkpt lat="47.02531" lon="8.9413">
        <ele>865</ele>
        <time>2021-08-03T08:20:30.635Z</time>
      </trkpt>
      <trkpt lat="47.02532" lon="8.94129">
        <ele>865</ele>
        <time>2021-08-03T08:20:31.635Z</time>
      </trkpt>
      <trkpt lat="47.02533" lon="8.94128">
        <ele>864</ele>
        <time>2021-08-03T08:20:32.635Z</time>
      </trkpt>
      <trkpt lat="47.02534" lon="8.94126">
        <ele>864</ele>
        <time>2021-08-03T08:20:33.635Z</time>
      </trkpt>
      <trkpt lat="47.02534" lon="8.94126">
        <ele>864</ele>
        <time>2021-08-03T08:20:34.635Z</time>
      </trkpt>
      <trkpt lat="47.02536" lon="8.94124">
        <ele>863</ele>
        <time>2021-08-03T08:20:35.635Z</time>
      </trkpt>
      <trkpt lat="47.02536" lon="8.94124">
        <ele>863</ele>
        <time>2021-08-03T08:20:36.635Z</time>
      </trkpt>
      <trkpt lat="47.02536" lon="8.94123">
        <ele>863</ele>
        <time>2021-08-03T08:20:37.635Z</time>
      </trkpt>
      <trkpt lat="47.02538" lon="8.94122">
        <ele>863</ele>
        <time>2021-08-03T08:20:38.635Z</time>
      </trkpt>
      <trkpt lat="47.02539" lon="8.94121">
        <ele>863</ele>
        <time>2021-08-03T08:20:39.635Z</time>
      </trkpt>
      <trkpt lat="47.0254" lon="8.9412">
        <ele>863</ele>
        <time>2021-08-03T08:20:40.635Z</time>
      </trkpt>
      <trkpt lat="47.02541" lon="8.94117">
        <ele>863</ele>
        <time>2021-08-03T08:20:41.635Z</time>
      </trkpt>
      <trkpt lat="47.02541" lon="8.94117">
        <ele>863</ele>
        <time>2021-08-03T08:20:42.635Z</time>
      </trkpt>
      <trkpt lat="47.02541" lon="8.94117">
        <ele>862</ele>
        <time>2021-08-03T08:20:43.635Z</time>
      </trkpt>
      <trkpt lat="47.02542" lon="8.94116">
        <ele>862</ele>
        <time>2021-08-03T08:20:44.636Z</time>
      </trkpt>
      <trkpt lat="47.02543" lon="8.94115">
        <ele>862</ele>
        <time>2021-08-03T08:20:45.635Z</time>
      </trkpt>
      <trkpt lat="47.02543" lon="8.94114">
        <ele>862</ele>
        <time>2021-08-03T08:20:46.635Z</time>
      </trkpt>
      <trkpt lat="47.02544" lon="8.94111">
        <ele>862</ele>
        <time>2021-08-03T08:20:47.636Z</time>
      </trkpt>
      <trkpt lat="47.02544" lon="8.94109">
        <ele>862</ele>
        <time>2021-08-03T08:20:48.636Z</time>
      </trkpt>
      <trkpt lat="47.02543" lon="8.94106">
        <ele>862</ele>
        <time>2021-08-03T08:20:49.635Z</time>
      </trkpt>
      <trkpt lat="47.02543" lon="8.94106">
        <ele>862</ele>
        <time>2021-08-03T08:20:50.636Z</time>
      </trkpt>
      <trkpt lat="47.02544" lon="8.94105">
        <ele>862</ele>
        <time>2021-08-03T08:20:51.635Z</time>
      </trkpt>
      <trkpt lat="47.02544" lon="8.94103">
        <ele>862</ele>
        <time>2021-08-03T08:20:52.635Z</time>
      </trkpt>
      <trkpt lat="47.02544" lon="8.94103">
        <ele>862</ele>
        <time>2021-08-03T08:20:53.635Z</time>
      </trkpt>
      <trkpt lat="47.02545" lon="8.94101">
        <ele>862</ele>
        <time>2021-08-03T08:20:54.635Z</time>
      </trkpt>
      <trkpt lat="47.02545" lon="8.94099">
        <ele>862</ele>
        <time>2021-08-03T08:20:55.635Z</time>
      </trkpt>
      <trkpt lat="47.02545" lon="8.94096">
        <ele>863</ele>
        <time>2021-08-03T08:20:56.636Z</time>
      </trkpt>
      <trkpt lat="47.02545" lon="8.94096">
        <ele>863</ele>
        <time>2021-08-03T08:20:57.636Z</time>
      </trkpt>
      <trkpt lat="47.02546" lon="8.94093">
        <ele>863</ele>
        <time>2021-08-03T08:20:58.635Z</time>
      </trkpt>
      <trkpt lat="47.02546" lon="8.94093">
        <ele>863</ele>
        <time>2021-08-03T08:20:59.635Z</time>
      </trkpt>
      <trkpt lat="47.02546" lon="8.94092">
        <ele>863</ele>
        <time>2021-08-03T08:21:00.635Z</time>
      </trkpt>
      <trkpt lat="47.02546" lon="8.9409">
        <ele>863</ele>
        <time>2021-08-03T08:21:01.635Z</time>
      </trkpt>
      <trkpt lat="47.02545" lon="8.94087">
        <ele>864</ele>
        <time>2021-08-03T08:21:02.636Z</time>
      </trkpt>
      <trkpt lat="47.02545" lon="8.94085">
        <ele>864</ele>
        <time>2021-08-03T08:21:03.635Z</time>
      </trkpt>
      <trkpt lat="47.02545" lon="8.94083">
        <ele>864</ele>
        <time>2021-08-03T08:21:04.635Z</time>
      </trkpt>
      <trkpt lat="47.02546" lon="8.94082">
        <ele>864</ele>
        <time>2021-08-03T08:21:05.635Z</time>
      </trkpt>
      <trkpt lat="47.02546" lon="8.9408">
        <ele>865</ele>
        <time>2021-08-03T08:21:06.635Z</time>
      </trkpt>
      <trkpt lat="47.02547" lon="8.94079">
        <ele>865</ele>
        <time>2021-08-03T08:21:07.636Z</time>
      </trkpt>
      <trkpt lat="47.02547" lon="8.94077">
        <ele>865</ele>
        <time>2021-08-03T08:21:08.636Z</time>
      </trkpt>
      <trkpt lat="47.02547" lon="8.94076">
        <ele>865</ele>
        <time>2021-08-03T08:21:09.636Z</time>
      </trkpt>
      <trkpt lat="47.02548" lon="8.94074">
        <ele>865</ele>
        <time>2021-08-03T08:21:10.635Z</time>
      </trkpt>
      <trkpt lat="47.02548" lon="8.94071">
        <ele>865</ele>
        <time>2021-08-03T08:21:11.635Z</time>
      </trkpt>
      <trkpt lat="47.02548" lon="8.94069">
        <ele>865</ele>
        <time>2021-08-03T08:21:12.635Z</time>
      </trkpt>
      <trkpt lat="47.02548" lon="8.94066">
        <ele>864</ele>
        <time>2021-08-03T08:21:13.635Z</time>
      </trkpt>
      <trkpt lat="47.02548" lon="8.94064">
        <ele>864</ele>
        <time>2021-08-03T08:21:14.635Z</time>
      </trkpt>
      <trkpt lat="47.02549" lon="8.94063">
        <ele>863</ele>
        <time>2021-08-03T08:21:15.636Z</time>
      </trkpt>
      <trkpt lat="47.02549" lon="8.94061">
        <ele>863</ele>
        <time>2021-08-03T08:21:16.635Z</time>
      </trkpt>
      <trkpt lat="47.0255" lon="8.94061">
        <ele>862</ele>
        <time>2021-08-03T08:21:17.635Z</time>
      </trkpt>
      <trkpt lat="47.0255" lon="8.9406">
        <ele>862</ele>
        <time>2021-08-03T08:21:18.635Z</time>
      </trkpt>
      <trkpt lat="47.0255" lon="8.94058">
        <ele>862</ele>
        <time>2021-08-03T08:21:19.635Z</time>
      </trkpt>
      <trkpt lat="47.02551" lon="8.94057">
        <ele>862</ele>
        <time>2021-08-03T08:21:20.635Z</time>
      </trkpt>
      <trkpt lat="47.02551" lon="8.94056">
        <ele>861</ele>
        <time>2021-08-03T08:21:21.635Z</time>
      </trkpt>
      <trkpt lat="47.02551" lon="8.94055">
        <ele>861</ele>
        <time>2021-08-03T08:21:22.636Z</time>
      </trkpt>
      <trkpt lat="47.02552" lon="8.94054">
        <ele>861</ele>
        <time>2021-08-03T08:21:23.636Z</time>
      </trkpt>
      <trkpt lat="47.02552" lon="8.94053">
        <ele>860</ele>
        <time>2021-08-03T08:21:24.635Z</time>
      </trkpt>
      <trkpt lat="47.02553" lon="8.94051">
        <ele>860</ele>
        <time>2021-08-03T08:21:25.635Z</time>
      </trkpt>
      <trkpt lat="47.02553" lon="8.9405">
        <ele>860</ele>
        <time>2021-08-03T08:21:26.636Z</time>
      </trkpt>
      <trkpt lat="47.02554" lon="8.94048">
        <ele>860</ele>
        <time>2021-08-03T08:21:27.635Z</time>
      </trkpt>
      <trkpt lat="47.02554" lon="8.94047">
        <ele>859</ele>
        <time>2021-08-03T08:21:28.635Z</time>
      </trkpt>
      <trkpt lat="47.02555" lon="8.94046">
        <ele>859</ele>
        <time>2021-08-03T08:21:29.635Z</time>
      </trkpt>
      <trkpt lat="47.02555" lon="8.94045">
        <ele>859</ele>
        <time>2021-08-03T08:21:30.635Z</time>
      </trkpt>
      <trkpt lat="47.02555" lon="8.94044">
        <ele>859</ele>
        <time>2021-08-03T08:21:31.636Z</time>
      </trkpt>
      <trkpt lat="47.02555" lon="8.94043">
        <ele>859</ele>
        <time>2021-08-03T08:21:32.635Z</time>
      </trkpt>
      <trkpt lat="47.02556" lon="8.94041">
        <ele>858</ele>
        <time>2021-08-03T08:21:33.635Z</time>
      </trkpt>
      <trkpt lat="47.02556" lon="8.94039">
        <ele>858</ele>
        <time>2021-08-03T08:21:34.635Z</time>
      </trkpt>
      <trkpt lat="47.02556" lon="8.94038">
        <ele>858</ele>
        <time>2021-08-03T08:21:35.636Z</time>
      </trkpt>
      <trkpt lat="47.02556" lon="8.94036">
        <ele>858</ele>
        <time>2021-08-03T08:21:36.636Z</time>
      </trkpt>
      <trkpt lat="47.02556" lon="8.94035">
        <ele>858</ele>
        <time>2021-08-03T08:21:37.635Z</time>
      </trkpt>
      <trkpt lat="47.02556" lon="8.94034">
        <ele>858</ele>
        <time>2021-08-03T08:21:38.636Z</time>
      </trkpt>
      <trkpt lat="47.02556" lon="8.94033">
        <ele>857</ele>
        <time>2021-08-03T08:21:39.635Z</time>
      </trkpt>
      <trkpt lat="47.02557" lon="8.94032">
        <ele>857</ele>
        <time>2021-08-03T08:21:40.635Z</time>
      </trkpt>
      <trkpt lat="47.02557" lon="8.94031">
        <ele>857</ele>
        <time>2021-08-03T08:21:41.636Z</time>
      </trkpt>
      <trkpt lat="47.02557" lon="8.9403">
        <ele>857</ele>
        <time>2021-08-03T08:21:42.635Z</time>
      </trkpt>
      <trkpt lat="47.02558" lon="8.94029">
        <ele>857</ele>
        <time>2021-08-03T08:21:43.635Z</time>
      </trkpt>
      <trkpt lat="47.02558" lon="8.94027">
        <ele>857</ele>
        <time>2021-08-03T08:21:44.636Z</time>
      </trkpt>
      <trkpt lat="47.02559" lon="8.94026">
        <ele>857</ele>
        <time>2021-08-03T08:21:45.635Z</time>
      </trkpt>
      <trkpt lat="47.02559" lon="8.94025">
        <ele>857</ele>
        <time>2021-08-03T08:21:46.635Z</time>
      </trkpt>
      <trkpt lat="47.02559" lon="8.94024">
        <ele>857</ele>
        <time>2021-08-03T08:21:47.636Z</time>
      </trkpt>
      <trkpt lat="47.0256" lon="8.94022">
        <ele>857</ele>
        <time>2021-08-03T08:21:48.635Z</time>
      </trkpt>
      <trkpt lat="47.0256" lon="8.9402">
        <ele>857</ele>
        <time>2021-08-03T08:21:49.635Z</time>
      </trkpt>
      <trkpt lat="47.02561" lon="8.94019">
        <ele>857</ele>
        <time>2021-08-03T08:21:50.635Z</time>
      </trkpt>
      <trkpt lat="47.02562" lon="8.94017">
        <ele>857</ele>
        <time>2021-08-03T08:21:51.636Z</time>
      </trkpt>
      <trkpt lat="47.02562" lon="8.94016">
        <ele>857</ele>
        <time>2021-08-03T08:21:52.635Z</time>
      </trkpt>
      <trkpt lat="47.02562" lon="8.94015">
        <ele>857</ele>
        <time>2021-08-03T08:21:53.635Z</time>
      </trkpt>
      <trkpt lat="47.02563" lon="8.94014">
        <ele>857</ele>
        <time>2021-08-03T08:21:54.635Z</time>
      </trkpt>
      <trkpt lat="47.02563" lon="8.94013">
        <ele>857</ele>
        <time>2021-08-03T08:21:55.636Z</time>
      </trkpt>
      <trkpt lat="47.02564" lon="8.94012">
        <ele>857</ele>
        <time>2021-08-03T08:21:56.636Z</time>
      </trkpt>
      <trkpt lat="47.02564" lon="8.94011">
        <ele>857</ele>
        <time>2021-08-03T08:21:57.635Z</time>
      </trkpt>
      <trkpt lat="47.02565" lon="8.94009">
        <ele>858</ele>
        <time>2021-08-03T08:21:58.636Z</time>
      </trkpt>
      <trkpt lat="47.02566" lon="8.94008">
        <ele>858</ele>
        <time>2021-08-03T08:21:59.636Z</time>
      </trkpt>
      <trkpt lat="47.02566" lon="8.94007">
        <ele>858</ele>
        <time>2021-08-03T08:22:00.636Z</time>
      </trkpt>
      <trkpt lat="47.02567" lon="8.94005">
        <ele>859</ele>
        <time>2021-08-03T08:22:01.635Z</time>
      </trkpt>
      <trkpt lat="47.02567" lon="8.94004">
        <ele>859</ele>
        <time>2021-08-03T08:22:02.635Z</time>
      </trkpt>
      <trkpt lat="47.02567" lon="8.94003">
        <ele>860</ele>
        <time>2021-08-03T08:22:03.635Z</time>
      </trkpt>
      <trkpt lat="47.02567" lon="8.94002">
        <ele>860</ele>
        <time>2021-08-03T08:22:04.635Z</time>
      </trkpt>
      <trkpt lat="47.02568" lon="8.94">
        <ele>860</ele>
        <time>2021-08-03T08:22:05.636Z</time>
      </trkpt>
      <trkpt lat="47.02569" lon="8.93999">
        <ele>861</ele>
        <time>2021-08-03T08:22:06.635Z</time>
      </trkpt>
      <trkpt lat="47.0257" lon="8.93998">
        <ele>861</ele>
        <time>2021-08-03T08:22:07.636Z</time>
      </trkpt>
      <trkpt lat="47.0257" lon="8.93996">
        <ele>861</ele>
        <time>2021-08-03T08:22:08.635Z</time>
      </trkpt>
      <trkpt lat="47.0257" lon="8.93995">
        <ele>862</ele>
        <time>2021-08-03T08:22:09.636Z</time>
      </trkpt>
      <trkpt lat="47.02571" lon="8.93995">
        <ele>862</ele>
        <time>2021-08-03T08:22:10.636Z</time>
      </trkpt>
      <trkpt lat="47.02571" lon="8.93993">
        <ele>862</ele>
        <time>2021-08-03T08:22:11.636Z</time>
      </trkpt>
      <trkpt lat="47.02572" lon="8.93991">
        <ele>863</ele>
        <time>2021-08-03T08:22:12.636Z</time>
      </trkpt>
      <trkpt lat="47.02572" lon="8.93989">
        <ele>863</ele>
        <time>2021-08-03T08:22:13.636Z</time>
      </trkpt>
      <trkpt lat="47.02572" lon="8.93987">
        <ele>863</ele>
        <time>2021-08-03T08:22:14.635Z</time>
      </trkpt>
      <trkpt lat="47.02573" lon="8.93985">
        <ele>863</ele>
        <time>2021-08-03T08:22:15.635Z</time>
      </trkpt>
      <trkpt lat="47.02573" lon="8.93983">
        <ele>863</ele>
        <time>2021-08-03T08:22:16.635Z</time>
      </trkpt>
      <trkpt lat="47.02573" lon="8.93982">
        <ele>864</ele>
        <time>2021-08-03T08:22:17.636Z</time>
      </trkpt>
      <trkpt lat="47.02573" lon="8.93982">
        <ele>864</ele>
        <time>2021-08-03T08:22:18.635Z</time>
      </trkpt>
      <trkpt lat="47.02574" lon="8.93981">
        <ele>864</ele>
        <time>2021-08-03T08:22:19.635Z</time>
      </trkpt>
      <trkpt lat="47.02574" lon="8.9398">
        <ele>865</ele>
        <time>2021-08-03T08:22:20.636Z</time>
      </trkpt>
      <trkpt lat="47.02575" lon="8.93978">
        <ele>865</ele>
        <time>2021-08-03T08:22:21.636Z</time>
      </trkpt>
      <trkpt lat="47.02575" lon="8.93977">
        <ele>865</ele>
        <time>2021-08-03T08:22:22.636Z</time>
      </trkpt>
      <trkpt lat="47.02575" lon="8.93976">
        <ele>865</ele>
        <time>2021-08-03T08:22:23.636Z</time>
      </trkpt>
      <trkpt lat="47.02576" lon="8.93975">
        <ele>866</ele>
        <time>2021-08-03T08:22:24.636Z</time>
      </trkpt>
      <trkpt lat="47.02577" lon="8.93974">
        <ele>866</ele>
        <time>2021-08-03T08:22:25.636Z</time>
      </trkpt>
      <trkpt lat="47.02577" lon="8.93972">
        <ele>866</ele>
        <time>2021-08-03T08:22:26.635Z</time>
      </trkpt>
      <trkpt lat="47.02577" lon="8.93972">
        <ele>866</ele>
        <time>2021-08-03T08:22:27.635Z</time>
      </trkpt>
      <trkpt lat="47.02577" lon="8.93971">
        <ele>866</ele>
        <time>2021-08-03T08:22:28.635Z</time>
      </trkpt>
      <trkpt lat="47.02578" lon="8.9397">
        <ele>867</ele>
        <time>2021-08-03T08:22:29.635Z</time>
      </trkpt>
      <trkpt lat="47.02578" lon="8.93969">
        <ele>867</ele>
        <time>2021-08-03T08:22:30.635Z</time>
      </trkpt>
      <trkpt lat="47.02578" lon="8.93968">
        <ele>867</ele>
        <time>2021-08-03T08:22:31.636Z</time>
      </trkpt>
      <trkpt lat="47.02578" lon="8.93967">
        <ele>867</ele>
        <time>2021-08-03T08:22:32.636Z</time>
      </trkpt>
      <trkpt lat="47.02578" lon="8.93967">
        <ele>867</ele>
        <time>2021-08-03T08:22:33.635Z</time>
      </trkpt>
      <trkpt lat="47.02578" lon="8.93966">
        <ele>867</ele>
        <time>2021-08-03T08:22:34.635Z</time>
      </trkpt>
      <trkpt lat="47.02578" lon="8.93965">
        <ele>867</ele>
        <time>2021-08-03T08:22:35.635Z</time>
      </trkpt>
      <trkpt lat="47.02578" lon="8.93963">
        <ele>867</ele>
        <time>2021-08-03T08:22:36.635Z</time>
      </trkpt>
      <trkpt lat="47.02579" lon="8.93962">
        <ele>867</ele>
        <time>2021-08-03T08:22:37.635Z</time>
      </trkpt>
      <trkpt lat="47.02579" lon="8.93961">
        <ele>867</ele>
        <time>2021-08-03T08:22:38.635Z</time>
      </trkpt>
      <trkpt lat="47.0258" lon="8.93961">
        <ele>866</ele>
        <time>2021-08-03T08:22:39.635Z</time>
      </trkpt>
      <trkpt lat="47.0258" lon="8.9396">
        <ele>866</ele>
        <time>2021-08-03T08:22:40.635Z</time>
      </trkpt>
      <trkpt lat="47.0258" lon="8.93959">
        <ele>866</ele>
        <time>2021-08-03T08:22:41.635Z</time>
      </trkpt>
      <trkpt lat="47.02581" lon="8.93958">
        <ele>866</ele>
        <time>2021-08-03T08:22:42.635Z</time>
      </trkpt>
      <trkpt lat="47.02581" lon="8.93957">
        <ele>866</ele>
        <time>2021-08-03T08:22:43.635Z</time>
      </trkpt>
      <trkpt lat="47.02581" lon="8.93956">
        <ele>866</ele>
        <time>2021-08-03T08:22:44.635Z</time>
      </trkpt>
      <trkpt lat="47.02581" lon="8.93955">
        <ele>866</ele>
        <time>2021-08-03T08:22:45.635Z</time>
      </trkpt>
      <trkpt lat="47.02582" lon="8.93954">
        <ele>866</ele>
        <time>2021-08-03T08:22:46.635Z</time>
      </trkpt>
      <trkpt lat="47.02582" lon="8.93953">
        <ele>866</ele>
        <time>2021-08-03T08:22:47.635Z</time>
      </trkpt>
      <trkpt lat="47.02583" lon="8.93952">
        <ele>866</ele>
        <time>2021-08-03T08:22:48.636Z</time>
      </trkpt>
      <trkpt lat="47.02583" lon="8.93951">
        <ele>865</ele>
        <time>2021-08-03T08:22:49.635Z</time>
      </trkpt>
      <trkpt lat="47.02584" lon="8.9395">
        <ele>865</ele>
        <time>2021-08-03T08:22:50.636Z</time>
      </trkpt>
      <trkpt lat="47.02584" lon="8.93949">
        <ele>865</ele>
        <time>2021-08-03T08:22:51.636Z</time>
      </trkpt>
      <trkpt lat="47.02584" lon="8.93948">
        <ele>864</ele>
        <time>2021-08-03T08:22:52.636Z</time>
      </trkpt>
      <trkpt lat="47.02584" lon="8.93947">
        <ele>864</ele>
        <time>2021-08-03T08:22:53.636Z</time>
      </trkpt>
      <trkpt lat="47.02584" lon="8.93946">
        <ele>864</ele>
        <time>2021-08-03T08:22:54.636Z</time>
      </trkpt>
      <trkpt lat="47.02584" lon="8.93945">
        <ele>864</ele>
        <time>2021-08-03T08:22:55.636Z</time>
      </trkpt>
      <trkpt lat="47.02584" lon="8.93945">
        <ele>863</ele>
        <time>2021-08-03T08:22:56.635Z</time>
      </trkpt>
      <trkpt lat="47.02585" lon="8.93943">
        <ele>863</ele>
        <time>2021-08-03T08:22:57.635Z</time>
      </trkpt>
      <trkpt lat="47.02585" lon="8.93942">
        <ele>863</ele>
        <time>2021-08-03T08:22:58.636Z</time>
      </trkpt>
      <trkpt lat="47.02585" lon="8.93941">
        <ele>863</ele>
        <time>2021-08-03T08:22:59.635Z</time>
      </trkpt>
      <trkpt lat="47.02586" lon="8.9394">
        <ele>863</ele>
        <time>2021-08-03T08:23:00.636Z</time>
      </trkpt>
      <trkpt lat="47.02586" lon="8.93939">
        <ele>863</ele>
        <time>2021-08-03T08:23:01.636Z</time>
      </trkpt>
      <trkpt lat="47.02586" lon="8.93937">
        <ele>863</ele>
        <time>2021-08-03T08:23:02.636Z</time>
      </trkpt>
      <trkpt lat="47.02586" lon="8.93936">
        <ele>863</ele>
        <time>2021-08-03T08:23:03.635Z</time>
      </trkpt>
      <trkpt lat="47.02587" lon="8.93934">
        <ele>864</ele>
        <time>2021-08-03T08:23:04.636Z</time>
      </trkpt>
      <trkpt lat="47.02588" lon="8.93933">
        <ele>864</ele>
        <time>2021-08-03T08:23:05.635Z</time>
      </trkpt>
      <trkpt lat="47.02588" lon="8.93931">
        <ele>864</ele>
        <time>2021-08-03T08:23:06.635Z</time>
      </trkpt>
      <trkpt lat="47.02588" lon="8.9393">
        <ele>865</ele>
        <time>2021-08-03T08:23:07.635Z</time>
      </trkpt>
      <trkpt lat="47.02589" lon="8.93929">
        <ele>865</ele>
        <time>2021-08-03T08:23:08.636Z</time>
      </trkpt>
      <trkpt lat="47.02589" lon="8.93928">
        <ele>865</ele>
        <time>2021-08-03T08:23:09.636Z</time>
      </trkpt>
      <trkpt lat="47.0259" lon="8.93927">
        <ele>865</ele>
        <time>2021-08-03T08:23:10.635Z</time>
      </trkpt>
      <trkpt lat="47.0259" lon="8.93926">
        <ele>865</ele>
        <time>2021-08-03T08:23:11.636Z</time>
      </trkpt>
      <trkpt lat="47.0259" lon="8.93925">
        <ele>865</ele>
        <time>2021-08-03T08:23:12.636Z</time>
      </trkpt>
      <trkpt lat="47.0259" lon="8.93924">
        <ele>866</ele>
        <time>2021-08-03T08:23:13.636Z</time>
      </trkpt>
      <trkpt lat="47.0259" lon="8.93923">
        <ele>866</ele>
        <time>2021-08-03T08:23:14.636Z</time>
      </trkpt>
      <trkpt lat="47.0259" lon="8.93922">
        <ele>866</ele>
        <time>2021-08-03T08:23:15.636Z</time>
      </trkpt>
      <trkpt lat="47.02591" lon="8.93921">
        <ele>866</ele>
        <time>2021-08-03T08:23:16.635Z</time>
      </trkpt>
      <trkpt lat="47.02591" lon="8.93921">
        <ele>866</ele>
        <time>2021-08-03T08:23:17.636Z</time>
      </trkpt>
      <trkpt lat="47.02592" lon="8.9392">
        <ele>866</ele>
        <time>2021-08-03T08:23:18.635Z</time>
      </trkpt>
      <trkpt lat="47.02592" lon="8.93919">
        <ele>867</ele>
        <time>2021-08-03T08:23:19.636Z</time>
      </trkpt>
      <trkpt lat="47.02592" lon="8.93917">
        <ele>867</ele>
        <time>2021-08-03T08:23:20.635Z</time>
      </trkpt>
      <trkpt lat="47.02592" lon="8.93916">
        <ele>867</ele>
        <time>2021-08-03T08:23:21.636Z</time>
      </trkpt>
      <trkpt lat="47.02592" lon="8.93915">
        <ele>867</ele>
        <time>2021-08-03T08:23:22.636Z</time>
      </trkpt>
      <trkpt lat="47.02593" lon="8.93914">
        <ele>867</ele>
        <time>2021-08-03T08:23:23.635Z</time>
      </trkpt>
      <trkpt lat="47.02594" lon="8.93913">
        <ele>867</ele>
        <time>2021-08-03T08:23:24.636Z</time>
      </trkpt>
      <trkpt lat="47.02594" lon="8.93911">
        <ele>867</ele>
        <time>2021-08-03T08:23:25.635Z</time>
      </trkpt>
      <trkpt lat="47.02595" lon="8.9391">
        <ele>867</ele>
        <time>2021-08-03T08:23:26.636Z</time>
      </trkpt>
      <trkpt lat="47.02596" lon="8.93909">
        <ele>868</ele>
        <time>2021-08-03T08:23:27.636Z</time>
      </trkpt>
      <trkpt lat="47.02597" lon="8.93907">
        <ele>868</ele>
        <time>2021-08-03T08:23:28.636Z</time>
      </trkpt>
      <trkpt lat="47.02598" lon="8.93907">
        <ele>868</ele>
        <time>2021-08-03T08:23:29.635Z</time>
      </trkpt>
      <trkpt lat="47.02599" lon="8.93906">
        <ele>868</ele>
        <time>2021-08-03T08:23:30.636Z</time>
      </trkpt>
      <trkpt lat="47.02599" lon="8.93905">
        <ele>868</ele>
        <time>2021-08-03T08:23:31.636Z</time>
      </trkpt>
      <trkpt lat="47.026" lon="8.93904">
        <ele>868</ele>
        <time>2021-08-03T08:23:32.635Z</time>
      </trkpt>
      <trkpt lat="47.026" lon="8.93903">
        <ele>868</ele>
        <time>2021-08-03T08:23:33.635Z</time>
      </trkpt>
      <trkpt lat="47.02601" lon="8.93902">
        <ele>868</ele>
        <time>2021-08-03T08:23:34.636Z</time>
      </trkpt>
      <trkpt lat="47.02601" lon="8.93901">
        <ele>868</ele>
        <time>2021-08-03T08:23:35.636Z</time>
      </trkpt>
      <trkpt lat="47.02601" lon="8.939">
        <ele>869</ele>
        <time>2021-08-03T08:23:36.635Z</time>
      </trkpt>
      <trkpt lat="47.02602" lon="8.93899">
        <ele>869</ele>
        <time>2021-08-03T08:23:37.635Z</time>
      </trkpt>
      <trkpt lat="47.02602" lon="8.93897">
        <ele>869</ele>
        <time>2021-08-03T08:23:38.636Z</time>
      </trkpt>
      <trkpt lat="47.02603" lon="8.93895">
        <ele>869</ele>
        <time>2021-08-03T08:23:39.636Z</time>
      </trkpt>
      <trkpt lat="47.02603" lon="8.93894">
        <ele>869</ele>
        <time>2021-08-03T08:23:40.636Z</time>
      </trkpt>
      <trkpt lat="47.02603" lon="8.93893">
        <ele>869</ele>
        <time>2021-08-03T08:23:41.636Z</time>
      </trkpt>
      <trkpt lat="47.02603" lon="8.93892">
        <ele>869</ele>
        <time>2021-08-03T08:23:42.635Z</time>
      </trkpt>
      <trkpt lat="47.02603" lon="8.93891">
        <ele>869</ele>
        <time>2021-08-03T08:23:43.636Z</time>
      </trkpt>
      <trkpt lat="47.02604" lon="8.9389">
        <ele>870</ele>
        <time>2021-08-03T08:23:44.636Z</time>
      </trkpt>
      <trkpt lat="47.02604" lon="8.93889">
        <ele>870</ele>
        <time>2021-08-03T08:23:45.636Z</time>
      </trkpt>
      <trkpt lat="47.02604" lon="8.93887">
        <ele>869</ele>
        <time>2021-08-03T08:23:46.635Z</time>
      </trkpt>
      <trkpt lat="47.02604" lon="8.93886">
        <ele>869</ele>
        <time>2021-08-03T08:23:47.636Z</time>
      </trkpt>
      <trkpt lat="47.02605" lon="8.93885">
        <ele>869</ele>
        <time>2021-08-03T08:23:48.635Z</time>
      </trkpt>
      <trkpt lat="47.02605" lon="8.93885">
        <ele>869</ele>
        <time>2021-08-03T08:23:49.636Z</time>
      </trkpt>
      <trkpt lat="47.02606" lon="8.93884">
        <ele>869</ele>
        <time>2021-08-03T08:23:50.635Z</time>
      </trkpt>
      <trkpt lat="47.02606" lon="8.93883">
        <ele>869</ele>
        <time>2021-08-03T08:23:51.636Z</time>
      </trkpt>
      <trkpt lat="47.02607" lon="8.93882">
        <ele>869</ele>
        <time>2021-08-03T08:23:52.636Z</time>
      </trkpt>
      <trkpt lat="47.02608" lon="8.93882">
        <ele>870</ele>
        <time>2021-08-03T08:23:53.635Z</time>
      </trkpt>
      <trkpt lat="47.02609" lon="8.93881">
        <ele>870</ele>
        <time>2021-08-03T08:23:54.635Z</time>
      </trkpt>
      <trkpt lat="47.0261" lon="8.9388">
        <ele>870</ele>
        <time>2021-08-03T08:23:55.635Z</time>
      </trkpt>
      <trkpt lat="47.02611" lon="8.9388">
        <ele>870</ele>
        <time>2021-08-03T08:23:56.635Z</time>
      </trkpt>
      <trkpt lat="47.02612" lon="8.9388">
        <ele>870</ele>
        <time>2021-08-03T08:23:57.635Z</time>
      </trkpt>
      <trkpt lat="47.02613" lon="8.9388">
        <ele>871</ele>
        <time>2021-08-03T08:23:58.636Z</time>
      </trkpt>
      <trkpt lat="47.02615" lon="8.93879">
        <ele>872</ele>
        <time>2021-08-03T08:23:59.635Z</time>
      </trkpt>
      <trkpt lat="47.02616" lon="8.93878">
        <ele>872</ele>
        <time>2021-08-03T08:24:00.635Z</time>
      </trkpt>
      <trkpt lat="47.02616" lon="8.93878">
        <ele>873</ele>
        <time>2021-08-03T08:24:01.635Z</time>
      </trkpt>
      <trkpt lat="47.02617" lon="8.93877">
        <ele>874</ele>
        <time>2021-08-03T08:24:02.636Z</time>
      </trkpt>
      <trkpt lat="47.02618" lon="8.93876">
        <ele>875</ele>
        <time>2021-08-03T08:24:03.635Z</time>
      </trkpt>
      <trkpt lat="47.02619" lon="8.93876">
        <ele>875</ele>
        <time>2021-08-03T08:24:04.635Z</time>
      </trkpt>
      <trkpt lat="47.0262" lon="8.93875">
        <ele>876</ele>
        <time>2021-08-03T08:24:05.636Z</time>
      </trkpt>
      <trkpt lat="47.0262" lon="8.93875">
        <ele>877</ele>
        <time>2021-08-03T08:24:06.635Z</time>
      </trkpt>
      <trkpt lat="47.02621" lon="8.93874">
        <ele>877</ele>
        <time>2021-08-03T08:24:07.636Z</time>
      </trkpt>
      <trkpt lat="47.02622" lon="8.93873">
        <ele>878</ele>
        <time>2021-08-03T08:24:08.636Z</time>
      </trkpt>
      <trkpt lat="47.02623" lon="8.93872">
        <ele>878</ele>
        <time>2021-08-03T08:24:09.636Z</time>
      </trkpt>
      <trkpt lat="47.02623" lon="8.93871">
        <ele>878</ele>
        <time>2021-08-03T08:24:10.636Z</time>
      </trkpt>
      <trkpt lat="47.02624" lon="8.9387">
        <ele>878</ele>
        <time>2021-08-03T08:24:11.636Z</time>
      </trkpt>
      <trkpt lat="47.02624" lon="8.9387">
        <ele>879</ele>
        <time>2021-08-03T08:24:12.636Z</time>
      </trkpt>
      <trkpt lat="47.02624" lon="8.93868">
        <ele>880</ele>
        <time>2021-08-03T08:24:13.636Z</time>
      </trkpt>
      <trkpt lat="47.02625" lon="8.93867">
        <ele>881</ele>
        <time>2021-08-03T08:24:14.636Z</time>
      </trkpt>
      <trkpt lat="47.02626" lon="8.93866">
        <ele>881</ele>
        <time>2021-08-03T08:24:15.635Z</time>
      </trkpt>
      <trkpt lat="47.02627" lon="8.93866">
        <ele>882</ele>
        <time>2021-08-03T08:24:16.635Z</time>
      </trkpt>
      <trkpt lat="47.02628" lon="8.93865">
        <ele>882</ele>
        <time>2021-08-03T08:24:17.636Z</time>
      </trkpt>
      <trkpt lat="47.02628" lon="8.93865">
        <ele>882</ele>
        <time>2021-08-03T08:24:18.635Z</time>
      </trkpt>
      <trkpt lat="47.02629" lon="8.93864">
        <ele>883</ele>
        <time>2021-08-03T08:24:19.636Z</time>
      </trkpt>
      <trkpt lat="47.0263" lon="8.93862">
        <ele>883</ele>
        <time>2021-08-03T08:24:20.635Z</time>
      </trkpt>
      <trkpt lat="47.02631" lon="8.93861">
        <ele>883</ele>
        <time>2021-08-03T08:24:21.636Z</time>
      </trkpt>
      <trkpt lat="47.02631" lon="8.93861">
        <ele>883</ele>
        <time>2021-08-03T08:24:22.635Z</time>
      </trkpt>
      <trkpt lat="47.02632" lon="8.9386">
        <ele>883</ele>
        <time>2021-08-03T08:24:23.635Z</time>
      </trkpt>
      <trkpt lat="47.02633" lon="8.93858">
        <ele>883</ele>
        <time>2021-08-03T08:24:24.636Z</time>
      </trkpt>
      <trkpt lat="47.02633" lon="8.93857">
        <ele>883</ele>
        <time>2021-08-03T08:24:25.636Z</time>
      </trkpt>
      <trkpt lat="47.02632" lon="8.93855">
        <ele>883</ele>
        <time>2021-08-03T08:24:26.636Z</time>
      </trkpt>
      <trkpt lat="47.02632" lon="8.93853">
        <ele>883</ele>
        <time>2021-08-03T08:24:27.636Z</time>
      </trkpt>
      <trkpt lat="47.02631" lon="8.93852">
        <ele>883</ele>
        <time>2021-08-03T08:24:28.635Z</time>
      </trkpt>
      <trkpt lat="47.02631" lon="8.93852">
        <ele>883</ele>
        <time>2021-08-03T08:24:29.635Z</time>
      </trkpt>
      <trkpt lat="47.02631" lon="8.9385">
        <ele>883</ele>
        <time>2021-08-03T08:24:30.636Z</time>
      </trkpt>
      <trkpt lat="47.0263" lon="8.93849">
        <ele>883</ele>
        <time>2021-08-03T08:24:31.636Z</time>
      </trkpt>
      <trkpt lat="47.0263" lon="8.93847">
        <ele>884</ele>
        <time>2021-08-03T08:24:32.636Z</time>
      </trkpt>
      <trkpt lat="47.0263" lon="8.93846">
        <ele>884</ele>
        <time>2021-08-03T08:24:33.636Z</time>
      </trkpt>
      <trkpt lat="47.0263" lon="8.93845">
        <ele>884</ele>
        <time>2021-08-03T08:24:34.635Z</time>
      </trkpt>
      <trkpt lat="47.02629" lon="8.93844">
        <ele>884</ele>
        <time>2021-08-03T08:24:35.635Z</time>
      </trkpt>
      <trkpt lat="47.02629" lon="8.93843">
        <ele>885</ele>
        <time>2021-08-03T08:24:36.636Z</time>
      </trkpt>
      <trkpt lat="47.02629" lon="8.93842">
        <ele>885</ele>
        <time>2021-08-03T08:24:37.635Z</time>
      </trkpt>
      <trkpt lat="47.02629" lon="8.93841">
        <ele>885</ele>
        <time>2021-08-03T08:24:38.636Z</time>
      </trkpt>
      <trkpt lat="47.02629" lon="8.9384">
        <ele>884</ele>
        <time>2021-08-03T08:24:39.635Z</time>
      </trkpt>
      <trkpt lat="47.02628" lon="8.9384">
        <ele>884</ele>
        <time>2021-08-03T08:24:40.636Z</time>
      </trkpt>
      <trkpt lat="47.02628" lon="8.9384">
        <ele>884</ele>
        <time>2021-08-03T08:24:41.636Z</time>
      </trkpt>
      <trkpt lat="47.02629" lon="8.93839">
        <ele>883</ele>
        <time>2021-08-03T08:24:42.635Z</time>
      </trkpt>
      <trkpt lat="47.0263" lon="8.93838">
        <ele>882</ele>
        <time>2021-08-03T08:24:43.636Z</time>
      </trkpt>
      <trkpt lat="47.02628" lon="8.93836">
        <ele>881</ele>
        <time>2021-08-03T08:24:44.637Z</time>
      </trkpt>
      <trkpt lat="47.02628" lon="8.93836">
        <ele>881</ele>
        <time>2021-08-03T08:24:45.637Z</time>
      </trkpt>
      <trkpt lat="47.02628" lon="8.93837">
        <ele>881</ele>
        <time>2021-08-03T08:24:46.636Z</time>
      </trkpt>
      <trkpt lat="47.02628" lon="8.93837">
        <ele>881</ele>
        <time>2021-08-03T08:24:47.637Z</time>
      </trkpt>
      <trkpt lat="47.02629" lon="8.93838">
        <ele>881</ele>
        <time>2021-08-03T08:24:48.637Z</time>
      </trkpt>
      <trkpt lat="47.02629" lon="8.93839">
        <ele>881</ele>
        <time>2021-08-03T08:24:49.637Z</time>
      </trkpt>
      <trkpt lat="47.02629" lon="8.93839">
        <ele>881</ele>
        <time>2021-08-03T08:24:50.637Z</time>
      </trkpt>
      <trkpt lat="47.02629" lon="8.93839">
        <ele>880</ele>
        <time>2021-08-03T08:24:51.637Z</time>
      </trkpt>
      <trkpt lat="47.02629" lon="8.93839">
        <ele>880</ele>
        <time>2021-08-03T08:24:52.636Z</time>
      </trkpt>
      <trkpt lat="47.02629" lon="8.93839">
        <ele>880</ele>
        <time>2021-08-03T08:24:53.636Z</time>
      </trkpt>
      <trkpt lat="47.02629" lon="8.93839">
        <ele>880</ele>
        <time>2021-08-03T08:24:54.637Z</time>
      </trkpt>
      <trkpt lat="47.02629" lon="8.93838">
        <ele>880</ele>
        <time>2021-08-03T08:24:55.636Z</time>
      </trkpt>
      <trkpt lat="47.02629" lon="8.93837">
        <ele>880</ele>
        <time>2021-08-03T08:24:56.637Z</time>
      </trkpt>
      <trkpt lat="47.02629" lon="8.93836">
        <ele>880</ele>
        <time>2021-08-03T08:24:57.638Z</time>
      </trkpt>
      <trkpt lat="47.02628" lon="8.93835">
        <ele>881</ele>
        <time>2021-08-03T08:24:58.637Z</time>
      </trkpt>
      <trkpt lat="47.02627" lon="8.93834">
        <ele>881</ele>
        <time>2021-08-03T08:24:59.638Z</time>
      </trkpt>
      <trkpt lat="47.02626" lon="8.93833">
        <ele>882</ele>
        <time>2021-08-03T08:25:00.638Z</time>
      </trkpt>
      <trkpt lat="47.02626" lon="8.93832">
        <ele>882</ele>
        <time>2021-08-03T08:25:01.638Z</time>
      </trkpt>
      <trkpt lat="47.02625" lon="8.93831">
        <ele>883</ele>
        <time>2021-08-03T08:25:02.638Z</time>
      </trkpt>
      <trkpt lat="47.02625" lon="8.93829">
        <ele>884</ele>
        <time>2021-08-03T08:25:03.637Z</time>
      </trkpt>
      <trkpt lat="47.02625" lon="8.93828">
        <ele>884</ele>
        <time>2021-08-03T08:25:04.637Z</time>
      </trkpt>
      <trkpt lat="47.02624" lon="8.93827">
        <ele>884</ele>
        <time>2021-08-03T08:25:05.637Z</time>
      </trkpt>
      <trkpt lat="47.02624" lon="8.93826">
        <ele>885</ele>
        <time>2021-08-03T08:25:06.638Z</time>
      </trkpt>
      <trkpt lat="47.02623" lon="8.93825">
        <ele>885</ele>
        <time>2021-08-03T08:25:07.638Z</time>
      </trkpt>
      <trkpt lat="47.02623" lon="8.93823">
        <ele>885</ele>
        <time>2021-08-03T08:25:08.638Z</time>
      </trkpt>
      <trkpt lat="47.02623" lon="8.93822">
        <ele>886</ele>
        <time>2021-08-03T08:25:09.638Z</time>
      </trkpt>
      <trkpt lat="47.02623" lon="8.93821">
        <ele>886</ele>
        <time>2021-08-03T08:25:10.638Z</time>
      </trkpt>
      <trkpt lat="47.02622" lon="8.9382">
        <ele>886</ele>
        <time>2021-08-03T08:25:11.638Z</time>
      </trkpt>
      <trkpt lat="47.02623" lon="8.93819">
        <ele>886</ele>
        <time>2021-08-03T08:25:12.638Z</time>
      </trkpt>
      <trkpt lat="47.02623" lon="8.93818">
        <ele>886</ele>
        <time>2021-08-03T08:25:13.637Z</time>
      </trkpt>
      <trkpt lat="47.02623" lon="8.93817">
        <ele>887</ele>
        <time>2021-08-03T08:25:14.638Z</time>
      </trkpt>
      <trkpt lat="47.02623" lon="8.93816">
        <ele>887</ele>
        <time>2021-08-03T08:25:15.638Z</time>
      </trkpt>
      <trkpt lat="47.02622" lon="8.93815">
        <ele>887</ele>
        <time>2021-08-03T08:25:16.638Z</time>
      </trkpt>
      <trkpt lat="47.02622" lon="8.93814">
        <ele>886</ele>
        <time>2021-08-03T08:25:17.638Z</time>
      </trkpt>
      <trkpt lat="47.02622" lon="8.93812">
        <ele>886</ele>
        <time>2021-08-03T08:25:18.637Z</time>
      </trkpt>
      <trkpt lat="47.02622" lon="8.93811">
        <ele>886</ele>
        <time>2021-08-03T08:25:19.637Z</time>
      </trkpt>
      <trkpt lat="47.02621" lon="8.9381">
        <ele>885</ele>
        <time>2021-08-03T08:25:20.638Z</time>
      </trkpt>
      <trkpt lat="47.0262" lon="8.93809">
        <ele>885</ele>
        <time>2021-08-03T08:25:21.637Z</time>
      </trkpt>
      <trkpt lat="47.0262" lon="8.93807">
        <ele>885</ele>
        <time>2021-08-03T08:25:22.637Z</time>
      </trkpt>
      <trkpt lat="47.0262" lon="8.93805">
        <ele>885</ele>
        <time>2021-08-03T08:25:23.638Z</time>
      </trkpt>
      <trkpt lat="47.0262" lon="8.93803">
        <ele>885</ele>
        <time>2021-08-03T08:25:24.637Z</time>
      </trkpt>
      <trkpt lat="47.02619" lon="8.93802">
        <ele>885</ele>
        <time>2021-08-03T08:25:25.638Z</time>
      </trkpt>
      <trkpt lat="47.02619" lon="8.93801">
        <ele>886</ele>
        <time>2021-08-03T08:25:26.638Z</time>
      </trkpt>
      <trkpt lat="47.02618" lon="8.93801">
        <ele>886</ele>
        <time>2021-08-03T08:25:27.638Z</time>
      </trkpt>
      <trkpt lat="47.02617" lon="8.93799">
        <ele>886</ele>
        <time>2021-08-03T08:25:28.637Z</time>
      </trkpt>
      <trkpt lat="47.02617" lon="8.93797">
        <ele>886</ele>
        <time>2021-08-03T08:25:29.637Z</time>
      </trkpt>
      <trkpt lat="47.02617" lon="8.93796">
        <ele>886</ele>
        <time>2021-08-03T08:25:30.638Z</time>
      </trkpt>
      <trkpt lat="47.02616" lon="8.93795">
        <ele>886</ele>
        <time>2021-08-03T08:25:31.638Z</time>
      </trkpt>
      <trkpt lat="47.02615" lon="8.93793">
        <ele>886</ele>
        <time>2021-08-03T08:25:32.638Z</time>
      </trkpt>
      <trkpt lat="47.02615" lon="8.93792">
        <ele>886</ele>
        <time>2021-08-03T08:25:33.637Z</time>
      </trkpt>
      <trkpt lat="47.02614" lon="8.9379">
        <ele>886</ele>
        <time>2021-08-03T08:25:34.638Z</time>
      </trkpt>
      <trkpt lat="47.02614" lon="8.93788">
        <ele>886</ele>
        <time>2021-08-03T08:25:35.638Z</time>
      </trkpt>
      <trkpt lat="47.02614" lon="8.93787">
        <ele>887</ele>
        <time>2021-08-03T08:25:36.637Z</time>
      </trkpt>
      <trkpt lat="47.02614" lon="8.93785">
        <ele>887</ele>
        <time>2021-08-03T08:25:37.638Z</time>
      </trkpt>
      <trkpt lat="47.02614" lon="8.93783">
        <ele>886</ele>
        <time>2021-08-03T08:25:38.638Z</time>
      </trkpt>
      <trkpt lat="47.02614" lon="8.93782">
        <ele>886</ele>
        <time>2021-08-03T08:25:39.638Z</time>
      </trkpt>
      <trkpt lat="47.02614" lon="8.9378">
        <ele>886</ele>
        <time>2021-08-03T08:25:40.638Z</time>
      </trkpt>
      <trkpt lat="47.02614" lon="8.93779">
        <ele>886</ele>
        <time>2021-08-03T08:25:41.638Z</time>
      </trkpt>
      <trkpt lat="47.02613" lon="8.93777">
        <ele>886</ele>
        <time>2021-08-03T08:25:42.638Z</time>
      </trkpt>
      <trkpt lat="47.02613" lon="8.93776">
        <ele>887</ele>
        <time>2021-08-03T08:25:43.638Z</time>
      </trkpt>
      <trkpt lat="47.02613" lon="8.93775">
        <ele>887</ele>
        <time>2021-08-03T08:25:44.637Z</time>
      </trkpt>
      <trkpt lat="47.02613" lon="8.93773">
        <ele>887</ele>
        <time>2021-08-03T08:25:45.637Z</time>
      </trkpt>
      <trkpt lat="47.02614" lon="8.93772">
        <ele>887</ele>
        <time>2021-08-03T08:25:46.638Z</time>
      </trkpt>
      <trkpt lat="47.02614" lon="8.93771">
        <ele>887</ele>
        <time>2021-08-03T08:25:47.638Z</time>
      </trkpt>
      <trkpt lat="47.02614" lon="8.93769">
        <ele>887</ele>
        <time>2021-08-03T08:25:48.638Z</time>
      </trkpt>
      <trkpt lat="47.02613" lon="8.93768">
        <ele>888</ele>
        <time>2021-08-03T08:25:49.638Z</time>
      </trkpt>
      <trkpt lat="47.02613" lon="8.93767">
        <ele>888</ele>
        <time>2021-08-03T08:25:50.638Z</time>
      </trkpt>
      <trkpt lat="47.02613" lon="8.93766">
        <ele>888</ele>
        <time>2021-08-03T08:25:51.638Z</time>
      </trkpt>
      <trkpt lat="47.02613" lon="8.93764">
        <ele>888</ele>
        <time>2021-08-03T08:25:52.638Z</time>
      </trkpt>
      <trkpt lat="47.02613" lon="8.93762">
        <ele>888</ele>
        <time>2021-08-03T08:25:53.638Z</time>
      </trkpt>
      <trkpt lat="47.02612" lon="8.9376">
        <ele>888</ele>
        <time>2021-08-03T08:25:54.638Z</time>
      </trkpt>
      <trkpt lat="47.02612" lon="8.93758">
        <ele>888</ele>
        <time>2021-08-03T08:25:55.637Z</time>
      </trkpt>
      <trkpt lat="47.02612" lon="8.93756">
        <ele>889</ele>
        <time>2021-08-03T08:25:56.638Z</time>
      </trkpt>
      <trkpt lat="47.02612" lon="8.93755">
        <ele>889</ele>
        <time>2021-08-03T08:25:57.637Z</time>
      </trkpt>
      <trkpt lat="47.02612" lon="8.93754">
        <ele>889</ele>
        <time>2021-08-03T08:25:58.638Z</time>
      </trkpt>
      <trkpt lat="47.02612" lon="8.93752">
        <ele>889</ele>
        <time>2021-08-03T08:25:59.638Z</time>
      </trkpt>
      <trkpt lat="47.02611" lon="8.93751">
        <ele>889</ele>
        <time>2021-08-03T08:26:00.638Z</time>
      </trkpt>
      <trkpt lat="47.02611" lon="8.93661">
        <ele>899</ele>
        <time>2021-08-03T08:27:28.236Z</time>
      </trkpt>
      <trkpt lat="47.02611" lon="8.93661">
        <ele>899</ele>
        <time>2021-08-03T08:27:28.236Z</time>
      </trkpt>
      <trkpt lat="47.02611" lon="8.93661">
        <ele>899</ele>
        <time>2021-08-03T08:27:28.236Z</time>
      </trkpt>
      <trkpt lat="47.02611" lon="8.93659">
        <ele>899</ele>
        <time>2021-08-03T08:27:29.236Z</time>
      </trkpt>
      <trkpt lat="47.02611" lon="8.93658">
        <ele>899</ele>
        <time>2021-08-03T08:27:30.236Z</time>
      </trkpt>
      <trkpt lat="47.02611" lon="8.93656">
        <ele>899</ele>
        <time>2021-08-03T08:27:31.236Z</time>
      </trkpt>
      <trkpt lat="47.02611" lon="8.93655">
        <ele>899</ele>
        <time>2021-08-03T08:27:32.236Z</time>
      </trkpt>
      <trkpt lat="47.02611" lon="8.93654">
        <ele>899</ele>
        <time>2021-08-03T08:27:33.236Z</time>
      </trkpt>
      <trkpt lat="47.02611" lon="8.93653">
        <ele>899</ele>
        <time>2021-08-03T08:27:34.236Z</time>
      </trkpt>
      <trkpt lat="47.02611" lon="8.93653">
        <ele>899</ele>
        <time>2021-08-03T08:27:35.236Z</time>
      </trkpt>
      <trkpt lat="47.02611" lon="8.93653">
        <ele>898</ele>
        <time>2021-08-03T08:27:36.236Z</time>
      </trkpt>
      <trkpt lat="47.02611" lon="8.93654">
        <ele>898</ele>
        <time>2021-08-03T08:27:37.236Z</time>
      </trkpt>
      <trkpt lat="47.02611" lon="8.93656">
        <ele>898</ele>
        <time>2021-08-03T08:27:38.236Z</time>
      </trkpt>
      <trkpt lat="47.02611" lon="8.93658">
        <ele>898</ele>
        <time>2021-08-03T08:27:39.236Z</time>
      </trkpt>
      <trkpt lat="47.02612" lon="8.93659">
        <ele>899</ele>
        <time>2021-08-03T08:27:40.236Z</time>
      </trkpt>
      <trkpt lat="47.02612" lon="8.93661">
        <ele>899</ele>
        <time>2021-08-03T08:27:41.236Z</time>
      </trkpt>
      <trkpt lat="47.02613" lon="8.93663">
        <ele>899</ele>
        <time>2021-08-03T08:27:42.236Z</time>
      </trkpt>
      <trkpt lat="47.02613" lon="8.93664">
        <ele>900</ele>
        <time>2021-08-03T08:27:43.236Z</time>
      </trkpt>
      <trkpt lat="47.02613" lon="8.93666">
        <ele>900</ele>
        <time>2021-08-03T08:27:44.236Z</time>
      </trkpt>
      <trkpt lat="47.02614" lon="8.93668">
        <ele>900</ele>
        <time>2021-08-03T08:27:45.236Z</time>
      </trkpt>
      <trkpt lat="47.02614" lon="8.93669">
        <ele>901</ele>
        <time>2021-08-03T08:27:46.236Z</time>
      </trkpt>
      <trkpt lat="47.02614" lon="8.93671">
        <ele>901</ele>
        <time>2021-08-03T08:27:47.236Z</time>
      </trkpt>
      <trkpt lat="47.02614" lon="8.93673">
        <ele>901</ele>
        <time>2021-08-03T08:27:48.236Z</time>
      </trkpt>
      <trkpt lat="47.02615" lon="8.93675">
        <ele>901</ele>
        <time>2021-08-03T08:27:49.236Z</time>
      </trkpt>
      <trkpt lat="47.02615" lon="8.93677">
        <ele>901</ele>
        <time>2021-08-03T08:27:50.236Z</time>
      </trkpt>
      <trkpt lat="47.02615" lon="8.93679">
        <ele>901</ele>
        <time>2021-08-03T08:27:51.236Z</time>
      </trkpt>
      <trkpt lat="47.02615" lon="8.93681">
        <ele>901</ele>
        <time>2021-08-03T08:27:52.236Z</time>
      </trkpt>
      <trkpt lat="47.02615" lon="8.93683">
        <ele>900</ele>
        <time>2021-08-03T08:27:53.236Z</time>
      </trkpt>
      <trkpt lat="47.02615" lon="8.93684">
        <ele>900</ele>
        <time>2021-08-03T08:27:54.236Z</time>
      </trkpt>
      <trkpt lat="47.02615" lon="8.93686">
        <ele>900</ele>
        <time>2021-08-03T08:27:55.236Z</time>
      </trkpt>
      <trkpt lat="47.02615" lon="8.93687">
        <ele>900</ele>
        <time>2021-08-03T08:27:56.236Z</time>
      </trkpt>
      <trkpt lat="47.02615" lon="8.93689">
        <ele>900</ele>
        <time>2021-08-03T08:27:57.236Z</time>
      </trkpt>
      <trkpt lat="47.02615" lon="8.9369">
        <ele>900</ele>
        <time>2021-08-03T08:27:58.236Z</time>
      </trkpt>
      <trkpt lat="47.02615" lon="8.93692">
        <ele>899</ele>
        <time>2021-08-03T08:27:59.236Z</time>
      </trkpt>
      <trkpt lat="47.02615" lon="8.93693">
        <ele>899</ele>
        <time>2021-08-03T08:28:00.236Z</time>
      </trkpt>
      <trkpt lat="47.02615" lon="8.93695">
        <ele>899</ele>
        <time>2021-08-03T08:28:01.236Z</time>
      </trkpt>
      <trkpt lat="47.02615" lon="8.93697">
        <ele>898</ele>
        <time>2021-08-03T08:28:02.236Z</time>
      </trkpt>
      <trkpt lat="47.02616" lon="8.93698">
        <ele>898</ele>
        <time>2021-08-03T08:28:03.236Z</time>
      </trkpt>
      <trkpt lat="47.02616" lon="8.937">
        <ele>898</ele>
        <time>2021-08-03T08:28:04.236Z</time>
      </trkpt>
      <trkpt lat="47.02616" lon="8.93702">
        <ele>898</ele>
        <time>2021-08-03T08:28:05.236Z</time>
      </trkpt>
      <trkpt lat="47.02616" lon="8.93703">
        <ele>898</ele>
        <time>2021-08-03T08:28:06.236Z</time>
      </trkpt>
      <trkpt lat="47.02616" lon="8.93705">
        <ele>898</ele>
        <time>2021-08-03T08:28:07.236Z</time>
      </trkpt>
      <trkpt lat="47.02615" lon="8.93706">
        <ele>898</ele>
        <time>2021-08-03T08:28:08.236Z</time>
      </trkpt>
      <trkpt lat="47.02615" lon="8.93708">
        <ele>897</ele>
        <time>2021-08-03T08:28:09.236Z</time>
      </trkpt>
      <trkpt lat="47.02615" lon="8.9371">
        <ele>897</ele>
        <time>2021-08-03T08:28:10.236Z</time>
      </trkpt>
      <trkpt lat="47.02615" lon="8.93712">
        <ele>897</ele>
        <time>2021-08-03T08:28:11.236Z</time>
      </trkpt>
      <trkpt lat="47.02615" lon="8.93714">
        <ele>897</ele>
        <time>2021-08-03T08:28:12.236Z</time>
      </trkpt>
      <trkpt lat="47.02615" lon="8.93716">
        <ele>897</ele>
        <time>2021-08-03T08:28:13.236Z</time>
      </trkpt>
      <trkpt lat="47.02615" lon="8.93717">
        <ele>897</ele>
        <time>2021-08-03T08:28:14.236Z</time>
      </trkpt>
      <trkpt lat="47.02615" lon="8.93719">
        <ele>897</ele>
        <time>2021-08-03T08:28:15.236Z</time>
      </trkpt>
      <trkpt lat="47.02614" lon="8.9372">
        <ele>897</ele>
        <time>2021-08-03T08:28:16.236Z</time>
      </trkpt>
      <trkpt lat="47.02614" lon="8.93722">
        <ele>897</ele>
        <time>2021-08-03T08:28:17.236Z</time>
      </trkpt>
      <trkpt lat="47.02614" lon="8.93725">
        <ele>898</ele>
        <time>2021-08-03T08:28:18.236Z</time>
      </trkpt>
      <trkpt lat="47.02614" lon="8.93726">
        <ele>898</ele>
        <time>2021-08-03T08:28:19.236Z</time>
      </trkpt>
      <trkpt lat="47.02614" lon="8.93728">
        <ele>898</ele>
        <time>2021-08-03T08:28:20.236Z</time>
      </trkpt>
      <trkpt lat="47.02613" lon="8.9373">
        <ele>899</ele>
        <time>2021-08-03T08:28:21.236Z</time>
      </trkpt>
      <trkpt lat="47.02613" lon="8.93732">
        <ele>899</ele>
        <time>2021-08-03T08:28:22.236Z</time>
      </trkpt>
      <trkpt lat="47.02613" lon="8.93734">
        <ele>900</ele>
        <time>2021-08-03T08:28:23.236Z</time>
      </trkpt>
      <trkpt lat="47.02613" lon="8.93736">
        <ele>900</ele>
        <time>2021-08-03T08:28:24.236Z</time>
      </trkpt>
      <trkpt lat="47.02613" lon="8.93737">
        <ele>901</ele>
        <time>2021-08-03T08:28:25.236Z</time>
      </trkpt>
      <trkpt lat="47.02612" lon="8.93739">
        <ele>900</ele>
        <time>2021-08-03T08:28:26.236Z</time>
      </trkpt>
      <trkpt lat="47.02612" lon="8.93741">
        <ele>900</ele>
        <time>2021-08-03T08:28:27.236Z</time>
      </trkpt>
      <trkpt lat="47.02612" lon="8.93743">
        <ele>899</ele>
        <time>2021-08-03T08:28:28.236Z</time>
      </trkpt>
      <trkpt lat="47.02612" lon="8.93745">
        <ele>899</ele>
        <time>2021-08-03T08:28:29.236Z</time>
      </trkpt>
      <trkpt lat="47.02612" lon="8.93746">
        <ele>898</ele>
        <time>2021-08-03T08:28:30.236Z</time>
      </trkpt>
      <trkpt lat="47.02612" lon="8.93748">
        <ele>897</ele>
        <time>2021-08-03T08:28:31.236Z</time>
      </trkpt>
      <trkpt lat="47.02611" lon="8.9375">
        <ele>896</ele>
        <time>2021-08-03T08:28:32.236Z</time>
      </trkpt>
      <trkpt lat="47.02611" lon="8.93751">
        <ele>895</ele>
        <time>2021-08-03T08:28:33.236Z</time>
      </trkpt>
      <trkpt lat="47.02611" lon="8.93752">
        <ele>894</ele>
        <time>2021-08-03T08:28:34.236Z</time>
      </trkpt>
      <trkpt lat="47.02611" lon="8.93751">
        <ele>893</ele>
        <time>2021-08-03T08:28:35.236Z</time>
      </trkpt>
      <trkpt lat="47.02612" lon="8.9375">
        <ele>892</ele>
        <time>2021-08-03T08:28:36.236Z</time>
      </trkpt>
      <trkpt lat="47.02612" lon="8.93748">
        <ele>892</ele>
        <time>2021-08-03T08:28:37.236Z</time>
      </trkpt>
      <trkpt lat="47.02612" lon="8.93746">
        <ele>891</ele>
        <time>2021-08-03T08:28:38.236Z</time>
      </trkpt>
      <trkpt lat="47.02612" lon="8.93744">
        <ele>891</ele>
        <time>2021-08-03T08:28:39.236Z</time>
      </trkpt>
      <trkpt lat="47.02613" lon="8.93742">
        <ele>891</ele>
        <time>2021-08-03T08:28:40.236Z</time>
      </trkpt>
      <trkpt lat="47.02613" lon="8.9374">
        <ele>890</ele>
        <time>2021-08-03T08:28:41.236Z</time>
      </trkpt>
      <trkpt lat="47.02613" lon="8.93738">
        <ele>890</ele>
        <time>2021-08-03T08:28:42.236Z</time>
      </trkpt>
      <trkpt lat="47.02613" lon="8.93736">
        <ele>891</ele>
        <time>2021-08-03T08:28:43.236Z</time>
      </trkpt>
      <trkpt lat="47.02613" lon="8.93734">
        <ele>891</ele>
        <time>2021-08-03T08:28:44.236Z</time>
      </trkpt>
      <trkpt lat="47.02614" lon="8.93732">
        <ele>891</ele>
        <time>2021-08-03T08:28:45.236Z</time>
      </trkpt>
      <trkpt lat="47.02614" lon="8.9373">
        <ele>890</ele>
        <time>2021-08-03T08:28:46.236Z</time>
      </trkpt>
      <trkpt lat="47.02614" lon="8.93728">
        <ele>890</ele>
        <time>2021-08-03T08:28:47.236Z</time>
      </trkpt>
      <trkpt lat="47.02615" lon="8.93726">
        <ele>889</ele>
        <time>2021-08-03T08:28:48.236Z</time>
      </trkpt>
      <trkpt lat="47.02615" lon="8.93724">
        <ele>889</ele>
        <time>2021-08-03T08:28:49.236Z</time>
      </trkpt>
      <trkpt lat="47.02615" lon="8.93722">
        <ele>889</ele>
        <time>2021-08-03T08:28:50.236Z</time>
      </trkpt>
      <trkpt lat="47.02615" lon="8.9372">
        <ele>888</ele>
        <time>2021-08-03T08:28:51.236Z</time>
      </trkpt>
      <trkpt lat="47.02615" lon="8.93718">
        <ele>888</ele>
        <time>2021-08-03T08:28:52.236Z</time>
      </trkpt>
      <trkpt lat="47.02616" lon="8.93716">
        <ele>888</ele>
        <time>2021-08-03T08:28:53.236Z</time>
      </trkpt>
      <trkpt lat="47.02616" lon="8.93714">
        <ele>888</ele>
        <time>2021-08-03T08:28:54.236Z</time>
      </trkpt>
      <trkpt lat="47.02617" lon="8.93713">
        <ele>888</ele>
        <time>2021-08-03T08:28:55.236Z</time>
      </trkpt>
      <trkpt lat="47.02616" lon="8.93711">
        <ele>889</ele>
        <time>2021-08-03T08:28:56.236Z</time>
      </trkpt>
      <trkpt lat="47.02616" lon="8.93709">
        <ele>889</ele>
        <time>2021-08-03T08:28:57.236Z</time>
      </trkpt>
      <trkpt lat="47.02616" lon="8.93707">
        <ele>889</ele>
        <time>2021-08-03T08:28:58.236Z</time>
      </trkpt>
      <trkpt lat="47.02616" lon="8.93706">
        <ele>890</ele>
        <time>2021-08-03T08:28:59.236Z</time>
      </trkpt>
      <trkpt lat="47.02617" lon="8.93704">
        <ele>890</ele>
        <time>2021-08-03T08:29:00.236Z</time>
      </trkpt>
      <trkpt lat="47.02617" lon="8.93702">
        <ele>891</ele>
        <time>2021-08-03T08:29:01.236Z</time>
      </trkpt>
      <trkpt lat="47.02617" lon="8.937">
        <ele>892</ele>
        <time>2021-08-03T08:29:02.236Z</time>
      </trkpt>
      <trkpt lat="47.02617" lon="8.93699">
        <ele>893</ele>
        <time>2021-08-03T08:29:03.236Z</time>
      </trkpt>
      <trkpt lat="47.02618" lon="8.93697">
        <ele>893</ele>
        <time>2021-08-03T08:29:04.236Z</time>
      </trkpt>
      <trkpt lat="47.02618" lon="8.93695">
        <ele>894</ele>
        <time>2021-08-03T08:29:05.236Z</time>
      </trkpt>
      <trkpt lat="47.02619" lon="8.93694">
        <ele>894</ele>
        <time>2021-08-03T08:29:06.236Z</time>
      </trkpt>
      <trkpt lat="47.02619" lon="8.93691">
        <ele>895</ele>
        <time>2021-08-03T08:29:07.236Z</time>
      </trkpt>
      <trkpt lat="47.02619" lon="8.9369">
        <ele>896</ele>
        <time>2021-08-03T08:29:08.236Z</time>
      </trkpt>
      <trkpt lat="47.02619" lon="8.93688">
        <ele>896</ele>
        <time>2021-08-03T08:29:09.236Z</time>
      </trkpt>
      <trkpt lat="47.0262" lon="8.93686">
        <ele>897</ele>
        <time>2021-08-03T08:29:10.236Z</time>
      </trkpt>
      <trkpt lat="47.02619" lon="8.93685">
        <ele>897</ele>
        <time>2021-08-03T08:29:11.236Z</time>
      </trkpt>
      <trkpt lat="47.02619" lon="8.93683">
        <ele>897</ele>
        <time>2021-08-03T08:29:12.236Z</time>
      </trkpt>
      <trkpt lat="47.02619" lon="8.93681">
        <ele>897</ele>
        <time>2021-08-03T08:29:13.236Z</time>
      </trkpt>
      <trkpt lat="47.02619" lon="8.93679">
        <ele>897</ele>
        <time>2021-08-03T08:29:14.236Z</time>
      </trkpt>
      <trkpt lat="47.02619" lon="8.93678">
        <ele>898</ele>
        <time>2021-08-03T08:29:15.236Z</time>
      </trkpt>
      <trkpt lat="47.02619" lon="8.93676">
        <ele>898</ele>
        <time>2021-08-03T08:29:16.236Z</time>
      </trkpt>
      <trkpt lat="47.02619" lon="8.93674">
        <ele>898</ele>
        <time>2021-08-03T08:29:17.236Z</time>
      </trkpt>
      <trkpt lat="47.02619" lon="8.93672">
        <ele>898</ele>
        <time>2021-08-03T08:29:18.236Z</time>
      </trkpt>
      <trkpt lat="47.02619" lon="8.9367">
        <ele>898</ele>
        <time>2021-08-03T08:29:19.236Z</time>
      </trkpt>
      <trkpt lat="47.02619" lon="8.93668">
        <ele>898</ele>
        <time>2021-08-03T08:29:20.236Z</time>
      </trkpt>
      <trkpt lat="47.02619" lon="8.93667">
        <ele>898</ele>
        <time>2021-08-03T08:29:21.236Z</time>
      </trkpt>
      <trkpt lat="47.02618" lon="8.93665">
        <ele>897</ele>
        <time>2021-08-03T08:29:22.236Z</time>
      </trkpt>
      <trkpt lat="47.02618" lon="8.93663">
        <ele>897</ele>
        <time>2021-08-03T08:29:23.236Z</time>
      </trkpt>
      <trkpt lat="47.02617" lon="8.9366">
        <ele>897</ele>
        <time>2021-08-03T08:29:24.236Z</time>
      </trkpt>
      <trkpt lat="47.02617" lon="8.93658">
        <ele>897</ele>
        <time>2021-08-03T08:29:25.236Z</time>
      </trkpt>
      <trkpt lat="47.02616" lon="8.93656">
        <ele>897</ele>
        <time>2021-08-03T08:29:26.236Z</time>
      </trkpt>
      <trkpt lat="47.02616" lon="8.93654">
        <ele>897</ele>
        <time>2021-08-03T08:29:27.236Z</time>
      </trkpt>
      <trkpt lat="47.02615" lon="8.93652">
        <ele>897</ele>
        <time>2021-08-03T08:29:28.236Z</time>
      </trkpt>
      <trkpt lat="47.02615" lon="8.9365">
        <ele>897</ele>
        <time>2021-08-03T08:29:29.236Z</time>
      </trkpt>
      <trkpt lat="47.02615" lon="8.93648">
        <ele>897</ele>
        <time>2021-08-03T08:29:30.236Z</time>
      </trkpt>
      <trkpt lat="47.02614" lon="8.93646">
        <ele>897</ele>
        <time>2021-08-03T08:29:31.236Z</time>
      </trkpt>
      <trkpt lat="47.02614" lon="8.93644">
        <ele>897</ele>
        <time>2021-08-03T08:29:32.236Z</time>
      </trkpt>
      <trkpt lat="47.02614" lon="8.93642">
        <ele>897</ele>
        <time>2021-08-03T08:29:33.236Z</time>
      </trkpt>
      <trkpt lat="47.02613" lon="8.93641">
        <ele>897</ele>
        <time>2021-08-03T08:29:34.236Z</time>
      </trkpt>
      <trkpt lat="47.02613" lon="8.93639">
        <ele>897</ele>
        <time>2021-08-03T08:29:35.236Z</time>
      </trkpt>
      <trkpt lat="47.02613" lon="8.93638">
        <ele>897</ele>
        <time>2021-08-03T08:29:36.236Z</time>
      </trkpt>
      <trkpt lat="47.02613" lon="8.93637">
        <ele>897</ele>
        <time>2021-08-03T08:29:37.236Z</time>
      </trkpt>
      <trkpt lat="47.02612" lon="8.93636">
        <ele>897</ele>
        <time>2021-08-03T08:29:38.236Z</time>
      </trkpt>
      <trkpt lat="47.02612" lon="8.93634">
        <ele>897</ele>
        <time>2021-08-03T08:29:39.236Z</time>
      </trkpt>
      <trkpt lat="47.02613" lon="8.93632">
        <ele>897</ele>
        <time>2021-08-03T08:29:40.236Z</time>
      </trkpt>
      <trkpt lat="47.02613" lon="8.9363">
        <ele>897</ele>
        <time>2021-08-03T08:29:41.236Z</time>
      </trkpt>
      <trkpt lat="47.02613" lon="8.93628">
        <ele>898</ele>
        <time>2021-08-03T08:29:42.236Z</time>
      </trkpt>
      <trkpt lat="47.02613" lon="8.93627">
        <ele>898</ele>
        <time>2021-08-03T08:29:43.236Z</time>
      </trkpt>
      <trkpt lat="47.02613" lon="8.93625">
        <ele>899</ele>
        <time>2021-08-03T08:29:44.236Z</time>
      </trkpt>
      <trkpt lat="47.02613" lon="8.93624">
        <ele>899</ele>
        <time>2021-08-03T08:29:45.236Z</time>
      </trkpt>
      <trkpt lat="47.02613" lon="8.93623">
        <ele>900</ele>
        <time>2021-08-03T08:29:46.236Z</time>
      </trkpt>
      <trkpt lat="47.02613" lon="8.93621">
        <ele>900</ele>
        <time>2021-08-03T08:29:47.236Z</time>
      </trkpt>
      <trkpt lat="47.02612" lon="8.93619">
        <ele>901</ele>
        <time>2021-08-03T08:29:48.236Z</time>
      </trkpt>
      <trkpt lat="47.02612" lon="8.93618">
        <ele>901</ele>
        <time>2021-08-03T08:29:49.236Z</time>
      </trkpt>
      <trkpt lat="47.02612" lon="8.93617">
        <ele>901</ele>
        <time>2021-08-03T08:29:50.236Z</time>
      </trkpt>
      <trkpt lat="47.02612" lon="8.93616">
        <ele>902</ele>
        <time>2021-08-03T08:29:51.236Z</time>
      </trkpt>
      <trkpt lat="47.02612" lon="8.93615">
        <ele>902</ele>
        <time>2021-08-03T08:29:52.236Z</time>
      </trkpt>
      <trkpt lat="47.02611" lon="8.93614">
        <ele>902</ele>
        <time>2021-08-03T08:29:53.236Z</time>
      </trkpt>
      <trkpt lat="47.0261" lon="8.93613">
        <ele>902</ele>
        <time>2021-08-03T08:29:54.236Z</time>
      </trkpt>
      <trkpt lat="47.0261" lon="8.93613">
        <ele>902</ele>
        <time>2021-08-03T08:29:55.236Z</time>
      </trkpt>
      <trkpt lat="47.02609" lon="8.93612">
        <ele>901</ele>
        <time>2021-08-03T08:29:56.236Z</time>
      </trkpt>
      <trkpt lat="47.02609" lon="8.93612">
        <ele>901</ele>
        <time>2021-08-03T08:29:57.236Z</time>
      </trkpt>
      <trkpt lat="47.02609" lon="8.93611">
        <ele>901</ele>
        <time>2021-08-03T08:29:58.236Z</time>
      </trkpt>
      <trkpt lat="47.0261" lon="8.93611">
        <ele>901</ele>
        <time>2021-08-03T08:29:59.236Z</time>
      </trkpt>
      <trkpt lat="47.0261" lon="8.9361">
        <ele>901</ele>
        <time>2021-08-03T08:30:00.236Z</time>
      </trkpt>
      <trkpt lat="47.0261" lon="8.9361">
        <ele>901</ele>
        <time>2021-08-03T08:30:01.236Z</time>
      </trkpt>
      <trkpt lat="47.0261" lon="8.93609">
        <ele>900</ele>
        <time>2021-08-03T08:30:02.236Z</time>
      </trkpt>
      <trkpt lat="47.02611" lon="8.93607">
        <ele>900</ele>
        <time>2021-08-03T08:30:03.236Z</time>
      </trkpt>
      <trkpt lat="47.02611" lon="8.93607">
        <ele>900</ele>
        <time>2021-08-03T08:30:04.236Z</time>
      </trkpt>
      <trkpt lat="47.02611" lon="8.93607">
        <ele>900</ele>
        <time>2021-08-03T08:30:05.236Z</time>
      </trkpt>
      <trkpt lat="47.02611" lon="8.93605">
        <ele>900</ele>
        <time>2021-08-03T08:30:06.236Z</time>
      </trkpt>
      <trkpt lat="47.02611" lon="8.93605">
        <ele>900</ele>
        <time>2021-08-03T08:30:07.236Z</time>
      </trkpt>
      <trkpt lat="47.02611" lon="8.93603">
        <ele>900</ele>
        <time>2021-08-03T08:30:08.236Z</time>
      </trkpt>
      <trkpt lat="47.02612" lon="8.93602">
        <ele>901</ele>
        <time>2021-08-03T08:30:09.236Z</time>
      </trkpt>
      <trkpt lat="47.02612" lon="8.93601">
        <ele>901</ele>
        <time>2021-08-03T08:30:10.236Z</time>
      </trkpt>
      <trkpt lat="47.02612" lon="8.93599">
        <ele>902</ele>
        <time>2021-08-03T08:30:11.236Z</time>
      </trkpt>
      <trkpt lat="47.02612" lon="8.93598">
        <ele>902</ele>
        <time>2021-08-03T08:30:12.236Z</time>
      </trkpt>
      <trkpt lat="47.02612" lon="8.93597">
        <ele>902</ele>
        <time>2021-08-03T08:30:13.236Z</time>
      </trkpt>
      <trkpt lat="47.02612" lon="8.93596">
        <ele>902</ele>
        <time>2021-08-03T08:30:14.236Z</time>
      </trkpt>
      <trkpt lat="47.02613" lon="8.93594">
        <ele>902</ele>
        <time>2021-08-03T08:30:15.236Z</time>
      </trkpt>
      <trkpt lat="47.02612" lon="8.93593">
        <ele>902</ele>
        <time>2021-08-03T08:30:16.236Z</time>
      </trkpt>
      <trkpt lat="47.02613" lon="8.93592">
        <ele>901</ele>
        <time>2021-08-03T08:30:17.236Z</time>
      </trkpt>
      <trkpt lat="47.02613" lon="8.93591">
        <ele>901</ele>
        <time>2021-08-03T08:30:18.236Z</time>
      </trkpt>
      <trkpt lat="47.02614" lon="8.9359">
        <ele>901</ele>
        <time>2021-08-03T08:30:19.236Z</time>
      </trkpt>
      <trkpt lat="47.02614" lon="8.93589">
        <ele>901</ele>
        <time>2021-08-03T08:30:20.236Z</time>
      </trkpt>
      <trkpt lat="47.02615" lon="8.93589">
        <ele>901</ele>
        <time>2021-08-03T08:30:21.236Z</time>
      </trkpt>
      <trkpt lat="47.02616" lon="8.93589">
        <ele>900</ele>
        <time>2021-08-03T08:30:22.236Z</time>
      </trkpt>
      <trkpt lat="47.02616" lon="8.93589">
        <ele>900</ele>
        <time>2021-08-03T08:30:23.236Z</time>
      </trkpt>
      <trkpt lat="47.02616" lon="8.93589">
        <ele>899</ele>
        <time>2021-08-03T08:30:24.236Z</time>
      </trkpt>
      <trkpt lat="47.02616" lon="8.93589">
        <ele>900</ele>
        <time>2021-08-03T08:30:25.237Z</time>
      </trkpt>
      <trkpt lat="47.02616" lon="8.93589">
        <ele>900</ele>
        <time>2021-08-03T08:30:26.237Z</time>
      </trkpt>
      <trkpt lat="47.02616" lon="8.93588">
        <ele>901</ele>
        <time>2021-08-03T08:30:27.237Z</time>
      </trkpt>
      <trkpt lat="47.02617" lon="8.93588">
        <ele>901</ele>
        <time>2021-08-03T08:30:28.238Z</time>
      </trkpt>
      <trkpt lat="47.02617" lon="8.93587">
        <ele>901</ele>
        <time>2021-08-03T08:30:29.238Z</time>
      </trkpt>
      <trkpt lat="47.02616" lon="8.93586">
        <ele>901</ele>
        <time>2021-08-03T08:30:30.238Z</time>
      </trkpt>
      <trkpt lat="47.02616" lon="8.93586">
        <ele>902</ele>
        <time>2021-08-03T08:30:31.237Z</time>
      </trkpt>
      <trkpt lat="47.02615" lon="8.93586">
        <ele>902</ele>
        <time>2021-08-03T08:30:32.237Z</time>
      </trkpt>
      <trkpt lat="47.02615" lon="8.93586">
        <ele>902</ele>
        <time>2021-08-03T08:30:33.238Z</time>
      </trkpt>
      <trkpt lat="47.02615" lon="8.93586">
        <ele>902</ele>
        <time>2021-08-03T08:30:34.238Z</time>
      </trkpt>
      <trkpt lat="47.02615" lon="8.93586">
        <ele>903</ele>
        <time>2021-08-03T08:30:35.238Z</time>
      </trkpt>
      <trkpt lat="47.02615" lon="8.93584">
        <ele>906</ele>
        <time>2021-08-03T08:30:36.238Z</time>
      </trkpt>
      <trkpt lat="47.02615" lon="8.93584">
        <ele>907</ele>
        <time>2021-08-03T08:30:37.239Z</time>
      </trkpt>
      <trkpt lat="47.02616" lon="8.93584">
        <ele>907</ele>
        <time>2021-08-03T08:30:38.238Z</time>
      </trkpt>
      <trkpt lat="47.02616" lon="8.93584">
        <ele>907</ele>
        <time>2021-08-03T08:30:39.239Z</time>
      </trkpt>
      <trkpt lat="47.02617" lon="8.93584">
        <ele>907</ele>
        <time>2021-08-03T08:30:40.239Z</time>
      </trkpt>
      <trkpt lat="47.02617" lon="8.93585">
        <ele>908</ele>
        <time>2021-08-03T08:30:41.238Z</time>
      </trkpt>
      <trkpt lat="47.02617" lon="8.93584">
        <ele>907</ele>
        <time>2021-08-03T08:30:42.238Z</time>
      </trkpt>
      <trkpt lat="47.02617" lon="8.93583">
        <ele>908</ele>
        <time>2021-08-03T08:30:43.238Z</time>
      </trkpt>
      <trkpt lat="47.02617" lon="8.93582">
        <ele>908</ele>
        <time>2021-08-03T08:30:44.238Z</time>
      </trkpt>
      <trkpt lat="47.02618" lon="8.93581">
        <ele>908</ele>
        <time>2021-08-03T08:30:45.239Z</time>
      </trkpt>
      <trkpt lat="47.02618" lon="8.9358">
        <ele>908</ele>
        <time>2021-08-03T08:30:46.238Z</time>
      </trkpt>
      <trkpt lat="47.02617" lon="8.93578">
        <ele>908</ele>
        <time>2021-08-03T08:30:47.238Z</time>
      </trkpt>
      <trkpt lat="47.02618" lon="8.93577">
        <ele>908</ele>
        <time>2021-08-03T08:30:48.238Z</time>
      </trkpt>
      <trkpt lat="47.02618" lon="8.93576">
        <ele>908</ele>
        <time>2021-08-03T08:30:49.238Z</time>
      </trkpt>
      <trkpt lat="47.02618" lon="8.93574">
        <ele>908</ele>
        <time>2021-08-03T08:30:50.238Z</time>
      </trkpt>
      <trkpt lat="47.02618" lon="8.93573">
        <ele>907</ele>
        <time>2021-08-03T08:30:51.238Z</time>
      </trkpt>
      <trkpt lat="47.02618" lon="8.93572">
        <ele>907</ele>
        <time>2021-08-03T08:30:52.238Z</time>
      </trkpt>
      <trkpt lat="47.02618" lon="8.9357">
        <ele>907</ele>
        <time>2021-08-03T08:30:53.238Z</time>
      </trkpt>
      <trkpt lat="47.02619" lon="8.93569">
        <ele>906</ele>
        <time>2021-08-03T08:30:54.238Z</time>
      </trkpt>
      <trkpt lat="47.02619" lon="8.93567">
        <ele>906</ele>
        <time>2021-08-03T08:30:55.239Z</time>
      </trkpt>
      <trkpt lat="47.02619" lon="8.93566">
        <ele>906</ele>
        <time>2021-08-03T08:30:56.239Z</time>
      </trkpt>
      <trkpt lat="47.0262" lon="8.93565">
        <ele>906</ele>
        <time>2021-08-03T08:30:57.239Z</time>
      </trkpt>
      <trkpt lat="47.0262" lon="8.93563">
        <ele>906</ele>
        <time>2021-08-03T08:30:58.238Z</time>
      </trkpt>
      <trkpt lat="47.0262" lon="8.93562">
        <ele>906</ele>
        <time>2021-08-03T08:30:59.239Z</time>
      </trkpt>
      <trkpt lat="47.0262" lon="8.9356">
        <ele>906</ele>
        <time>2021-08-03T08:31:00.239Z</time>
      </trkpt>
      <trkpt lat="47.02621" lon="8.93559">
        <ele>907</ele>
        <time>2021-08-03T08:31:01.239Z</time>
      </trkpt>
      <trkpt lat="47.02621" lon="8.93558">
        <ele>907</ele>
        <time>2021-08-03T08:31:02.239Z</time>
      </trkpt>
      <trkpt lat="47.02621" lon="8.93557">
        <ele>908</ele>
        <time>2021-08-03T08:31:03.239Z</time>
      </trkpt>
      <trkpt lat="47.02621" lon="8.93555">
        <ele>908</ele>
        <time>2021-08-03T08:31:04.239Z</time>
      </trkpt>
      <trkpt lat="47.02622" lon="8.93554">
        <ele>909</ele>
        <time>2021-08-03T08:31:05.239Z</time>
      </trkpt>
      <trkpt lat="47.02622" lon="8.93553">
        <ele>909</ele>
        <time>2021-08-03T08:31:06.239Z</time>
      </trkpt>
      <trkpt lat="47.02622" lon="8.93551">
        <ele>909</ele>
        <time>2021-08-03T08:31:07.239Z</time>
      </trkpt>
      <trkpt lat="47.02622" lon="8.9355">
        <ele>909</ele>
        <time>2021-08-03T08:31:08.238Z</time>
      </trkpt>
      <trkpt lat="47.02623" lon="8.93549">
        <ele>908</ele>
        <time>2021-08-03T08:31:09.239Z</time>
      </trkpt>
      <trkpt lat="47.02623" lon="8.93548">
        <ele>908</ele>
        <time>2021-08-03T08:31:10.239Z</time>
      </trkpt>
      <trkpt lat="47.02624" lon="8.93547">
        <ele>907</ele>
        <time>2021-08-03T08:31:11.239Z</time>
      </trkpt>
      <trkpt lat="47.02624" lon="8.93545">
        <ele>907</ele>
        <time>2021-08-03T08:31:12.239Z</time>
      </trkpt>
      <trkpt lat="47.02625" lon="8.93544">
        <ele>906</ele>
        <time>2021-08-03T08:31:13.239Z</time>
      </trkpt>
      <trkpt lat="47.02625" lon="8.93543">
        <ele>906</ele>
        <time>2021-08-03T08:31:14.238Z</time>
      </trkpt>
      <trkpt lat="47.02626" lon="8.9354">
        <ele>906</ele>
        <time>2021-08-03T08:31:15.239Z</time>
      </trkpt>
      <trkpt lat="47.02625" lon="8.93538">
        <ele>906</ele>
        <time>2021-08-03T08:31:16.238Z</time>
      </trkpt>
      <trkpt lat="47.02625" lon="8.93537">
        <ele>907</ele>
        <time>2021-08-03T08:31:17.238Z</time>
      </trkpt>
      <trkpt lat="47.02625" lon="8.93536">
        <ele>908</ele>
        <time>2021-08-03T08:31:18.238Z</time>
      </trkpt>
      <trkpt lat="47.02625" lon="8.93535">
        <ele>908</ele>
        <time>2021-08-03T08:31:19.238Z</time>
      </trkpt>
      <trkpt lat="47.02625" lon="8.93534">
        <ele>909</ele>
        <time>2021-08-03T08:31:20.238Z</time>
      </trkpt>
      <trkpt lat="47.02626" lon="8.93533">
        <ele>909</ele>
        <time>2021-08-03T08:31:21.238Z</time>
      </trkpt>
      <trkpt lat="47.02626" lon="8.93532">
        <ele>909</ele>
        <time>2021-08-03T08:31:22.239Z</time>
      </trkpt>
      <trkpt lat="47.02627" lon="8.93531">
        <ele>909</ele>
        <time>2021-08-03T08:31:23.238Z</time>
      </trkpt>
      <trkpt lat="47.02627" lon="8.9353">
        <ele>909</ele>
        <time>2021-08-03T08:31:24.239Z</time>
      </trkpt>
      <trkpt lat="47.02628" lon="8.93528">
        <ele>909</ele>
        <time>2021-08-03T08:31:25.239Z</time>
      </trkpt>
      <trkpt lat="47.02628" lon="8.93527">
        <ele>910</ele>
        <time>2021-08-03T08:31:26.238Z</time>
      </trkpt>
      <trkpt lat="47.02628" lon="8.93526">
        <ele>910</ele>
        <time>2021-08-03T08:31:27.238Z</time>
      </trkpt>
      <trkpt lat="47.02629" lon="8.93525">
        <ele>911</ele>
        <time>2021-08-03T08:31:28.238Z</time>
      </trkpt>
      <trkpt lat="47.02629" lon="8.93524">
        <ele>911</ele>
        <time>2021-08-03T08:31:29.239Z</time>
      </trkpt>
      <trkpt lat="47.02629" lon="8.93522">
        <ele>912</ele>
        <time>2021-08-03T08:31:30.239Z</time>
      </trkpt>
      <trkpt lat="47.0263" lon="8.93521">
        <ele>912</ele>
        <time>2021-08-03T08:31:31.239Z</time>
      </trkpt>
      <trkpt lat="47.0263" lon="8.9352">
        <ele>912</ele>
        <time>2021-08-03T08:31:32.238Z</time>
      </trkpt>
      <trkpt lat="47.0263" lon="8.93518">
        <ele>912</ele>
        <time>2021-08-03T08:31:33.238Z</time>
      </trkpt>
      <trkpt lat="47.0263" lon="8.93517">
        <ele>912</ele>
        <time>2021-08-03T08:31:34.239Z</time>
      </trkpt>
      <trkpt lat="47.0263" lon="8.93516">
        <ele>912</ele>
        <time>2021-08-03T08:31:35.239Z</time>
      </trkpt>
      <trkpt lat="47.02631" lon="8.93516">
        <ele>912</ele>
        <time>2021-08-03T08:31:36.238Z</time>
      </trkpt>
      <trkpt lat="47.02631" lon="8.93516">
        <ele>912</ele>
        <time>2021-08-03T08:31:37.238Z</time>
      </trkpt>
      <trkpt lat="47.02631" lon="8.93515">
        <ele>911</ele>
        <time>2021-08-03T08:31:38.239Z</time>
      </trkpt>
      <trkpt lat="47.02631" lon="8.93515">
        <ele>911</ele>
        <time>2021-08-03T08:31:39.238Z</time>
      </trkpt>
      <trkpt lat="47.02632" lon="8.93513">
        <ele>913</ele>
        <time>2021-08-03T08:31:40.239Z</time>
      </trkpt>
      <trkpt lat="47.02632" lon="8.93512">
        <ele>913</ele>
        <time>2021-08-03T08:31:41.240Z</time>
      </trkpt>
      <trkpt lat="47.02633" lon="8.9351">
        <ele>914</ele>
        <time>2021-08-03T08:31:42.239Z</time>
      </trkpt>
      <trkpt lat="47.02633" lon="8.93509">
        <ele>914</ele>
        <time>2021-08-03T08:31:43.239Z</time>
      </trkpt>
      <trkpt lat="47.02633" lon="8.93508">
        <ele>913</ele>
        <time>2021-08-03T08:31:44.240Z</time>
      </trkpt>
      <trkpt lat="47.02633" lon="8.93506">
        <ele>913</ele>
        <time>2021-08-03T08:31:45.240Z</time>
      </trkpt>
      <trkpt lat="47.02632" lon="8.93505">
        <ele>913</ele>
        <time>2021-08-03T08:31:46.240Z</time>
      </trkpt>
      <trkpt lat="47.02632" lon="8.93503">
        <ele>913</ele>
        <time>2021-08-03T08:31:47.239Z</time>
      </trkpt>
      <trkpt lat="47.02632" lon="8.93501">
        <ele>913</ele>
        <time>2021-08-03T08:31:48.240Z</time>
      </trkpt>
      <trkpt lat="47.02632" lon="8.935">
        <ele>913</ele>
        <time>2021-08-03T08:31:49.239Z</time>
      </trkpt>
      <trkpt lat="47.02632" lon="8.93499">
        <ele>913</ele>
        <time>2021-08-03T08:31:50.240Z</time>
      </trkpt>
      <trkpt lat="47.02632" lon="8.93497">
        <ele>913</ele>
        <time>2021-08-03T08:31:51.239Z</time>
      </trkpt>
      <trkpt lat="47.02632" lon="8.93496">
        <ele>913</ele>
        <time>2021-08-03T08:31:52.239Z</time>
      </trkpt>
      <trkpt lat="47.02632" lon="8.93494">
        <ele>912</ele>
        <time>2021-08-03T08:31:53.240Z</time>
      </trkpt>
      <trkpt lat="47.02633" lon="8.93493">
        <ele>913</ele>
        <time>2021-08-03T08:31:54.240Z</time>
      </trkpt>
      <trkpt lat="47.02633" lon="8.93491">
        <ele>913</ele>
        <time>2021-08-03T08:31:55.239Z</time>
      </trkpt>
      <trkpt lat="47.02634" lon="8.93489">
        <ele>913</ele>
        <time>2021-08-03T08:31:56.240Z</time>
      </trkpt>
      <trkpt lat="47.02634" lon="8.93488">
        <ele>914</ele>
        <time>2021-08-03T08:31:57.239Z</time>
      </trkpt>
      <trkpt lat="47.02634" lon="8.93487">
        <ele>914</ele>
        <time>2021-08-03T08:31:58.240Z</time>
      </trkpt>
      <trkpt lat="47.02634" lon="8.93485">
        <ele>914</ele>
        <time>2021-08-03T08:31:59.239Z</time>
      </trkpt>
      <trkpt lat="47.02634" lon="8.93484">
        <ele>914</ele>
        <time>2021-08-03T08:32:00.239Z</time>
      </trkpt>
      <trkpt lat="47.02635" lon="8.93483">
        <ele>914</ele>
        <time>2021-08-03T08:32:01.239Z</time>
      </trkpt>
      <trkpt lat="47.02635" lon="8.93481">
        <ele>914</ele>
        <time>2021-08-03T08:32:02.239Z</time>
      </trkpt>
      <trkpt lat="47.02634" lon="8.9348">
        <ele>914</ele>
        <time>2021-08-03T08:32:03.239Z</time>
      </trkpt>
      <trkpt lat="47.02634" lon="8.93479">
        <ele>914</ele>
        <time>2021-08-03T08:32:04.239Z</time>
      </trkpt>
      <trkpt lat="47.02633" lon="8.93478">
        <ele>914</ele>
        <time>2021-08-03T08:32:05.239Z</time>
      </trkpt>
      <trkpt lat="47.02633" lon="8.93477">
        <ele>914</ele>
        <time>2021-08-03T08:32:06.240Z</time>
      </trkpt>
      <trkpt lat="47.02633" lon="8.93477">
        <ele>914</ele>
        <time>2021-08-03T08:32:07.240Z</time>
      </trkpt>
      <trkpt lat="47.02633" lon="8.93477">
        <ele>914</ele>
        <time>2021-08-03T08:32:08.239Z</time>
      </trkpt>
      <trkpt lat="47.02632" lon="8.93476">
        <ele>915</ele>
        <time>2021-08-03T08:32:09.239Z</time>
      </trkpt>
      <trkpt lat="47.02632" lon="8.93476">
        <ele>915</ele>
        <time>2021-08-03T08:32:10.240Z</time>
      </trkpt>
      <trkpt lat="47.02632" lon="8.93475">
        <ele>915</ele>
        <time>2021-08-03T08:32:11.240Z</time>
      </trkpt>
      <trkpt lat="47.02632" lon="8.93474">
        <ele>915</ele>
        <time>2021-08-03T08:32:12.239Z</time>
      </trkpt>
      <trkpt lat="47.02632" lon="8.93474">
        <ele>915</ele>
        <time>2021-08-03T08:32:13.240Z</time>
      </trkpt>
      <trkpt lat="47.02632" lon="8.93473">
        <ele>915</ele>
        <time>2021-08-03T08:32:14.240Z</time>
      </trkpt>
      <trkpt lat="47.02632" lon="8.93473">
        <ele>915</ele>
        <time>2021-08-03T08:32:15.240Z</time>
      </trkpt>
      <trkpt lat="47.02632" lon="8.93473">
        <ele>915</ele>
        <time>2021-08-03T08:32:16.239Z</time>
      </trkpt>
      <trkpt lat="47.02631" lon="8.93472">
        <ele>915</ele>
        <time>2021-08-03T08:32:17.239Z</time>
      </trkpt>
      <trkpt lat="47.02631" lon="8.9347">
        <ele>915</ele>
        <time>2021-08-03T08:32:18.240Z</time>
      </trkpt>
      <trkpt lat="47.02631" lon="8.93469">
        <ele>915</ele>
        <time>2021-08-03T08:32:19.240Z</time>
      </trkpt>
      <trkpt lat="47.02631" lon="8.93468">
        <ele>915</ele>
        <time>2021-08-03T08:32:20.240Z</time>
      </trkpt>
      <trkpt lat="47.02632" lon="8.93467">
        <ele>915</ele>
        <time>2021-08-03T08:32:21.240Z</time>
      </trkpt>
      <trkpt lat="47.02632" lon="8.93466">
        <ele>914</ele>
        <time>2021-08-03T08:32:22.240Z</time>
      </trkpt>
      <trkpt lat="47.02632" lon="8.93464">
        <ele>914</ele>
        <time>2021-08-03T08:32:23.240Z</time>
      </trkpt>
      <trkpt lat="47.02632" lon="8.93463">
        <ele>914</ele>
        <time>2021-08-03T08:32:24.240Z</time>
      </trkpt>
      <trkpt lat="47.02632" lon="8.93462">
        <ele>914</ele>
        <time>2021-08-03T08:32:25.240Z</time>
      </trkpt>
      <trkpt lat="47.02632" lon="8.93461">
        <ele>914</ele>
        <time>2021-08-03T08:32:26.239Z</time>
      </trkpt>
      <trkpt lat="47.02631" lon="8.93461">
        <ele>914</ele>
        <time>2021-08-03T08:32:27.240Z</time>
      </trkpt>
      <trkpt lat="47.02631" lon="8.93461">
        <ele>913</ele>
        <time>2021-08-03T08:32:28.241Z</time>
      </trkpt>
      <trkpt lat="47.02631" lon="8.93461">
        <ele>913</ele>
        <time>2021-08-03T08:32:29.241Z</time>
      </trkpt>
      <trkpt lat="47.02631" lon="8.93461">
        <ele>913</ele>
        <time>2021-08-03T08:32:30.241Z</time>
      </trkpt>
      <trkpt lat="47.02631" lon="8.9346">
        <ele>914</ele>
        <time>2021-08-03T08:32:31.241Z</time>
      </trkpt>
      <trkpt lat="47.02631" lon="8.9346">
        <ele>914</ele>
        <time>2021-08-03T08:32:32.241Z</time>
      </trkpt>
      <trkpt lat="47.02631" lon="8.9346">
        <ele>914</ele>
        <time>2021-08-03T08:32:33.241Z</time>
      </trkpt>
      <trkpt lat="47.02631" lon="8.9346">
        <ele>914</ele>
        <time>2021-08-03T08:32:34.242Z</time>
      </trkpt>
      <trkpt lat="47.02631" lon="8.9346">
        <ele>914</ele>
        <time>2021-08-03T08:32:35.242Z</time>
      </trkpt>
      <trkpt lat="47.02631" lon="8.93459">
        <ele>914</ele>
        <time>2021-08-03T08:32:36.242Z</time>
      </trkpt>
      <trkpt lat="47.02631" lon="8.93459">
        <ele>914</ele>
        <time>2021-08-03T08:32:37.242Z</time>
      </trkpt>
      <trkpt lat="47.02631" lon="8.93457">
        <ele>914</ele>
        <time>2021-08-03T08:32:38.242Z</time>
      </trkpt>
      <trkpt lat="47.02631" lon="8.93456">
        <ele>913</ele>
        <time>2021-08-03T08:32:39.241Z</time>
      </trkpt>
      <trkpt lat="47.02631" lon="8.93455">
        <ele>914</ele>
        <time>2021-08-03T08:32:40.241Z</time>
      </trkpt>
      <trkpt lat="47.02631" lon="8.93454">
        <ele>914</ele>
        <time>2021-08-03T08:32:41.241Z</time>
      </trkpt>
      <trkpt lat="47.02632" lon="8.93453">
        <ele>914</ele>
        <time>2021-08-03T08:32:42.241Z</time>
      </trkpt>
      <trkpt lat="47.02632" lon="8.93451">
        <ele>914</ele>
        <time>2021-08-03T08:32:43.242Z</time>
      </trkpt>
      <trkpt lat="47.02632" lon="8.9345">
        <ele>913</ele>
        <time>2021-08-03T08:32:44.242Z</time>
      </trkpt>
      <trkpt lat="47.02632" lon="8.93449">
        <ele>913</ele>
        <time>2021-08-03T08:32:45.241Z</time>
      </trkpt>
      <trkpt lat="47.02632" lon="8.93447">
        <ele>913</ele>
        <time>2021-08-03T08:32:46.242Z</time>
      </trkpt>
      <trkpt lat="47.02632" lon="8.93447">
        <ele>914</ele>
        <time>2021-08-03T08:32:47.241Z</time>
      </trkpt>
      <trkpt lat="47.02632" lon="8.93446">
        <ele>914</ele>
        <time>2021-08-03T08:32:48.242Z</time>
      </trkpt>
      <trkpt lat="47.02632" lon="8.93446">
        <ele>914</ele>
        <time>2021-08-03T08:32:49.241Z</time>
      </trkpt>
      <trkpt lat="47.02632" lon="8.93444">
        <ele>914</ele>
        <time>2021-08-03T08:32:50.241Z</time>
      </trkpt>
      <trkpt lat="47.02632" lon="8.93443">
        <ele>915</ele>
        <time>2021-08-03T08:32:51.242Z</time>
      </trkpt>
      <trkpt lat="47.02632" lon="8.93442">
        <ele>916</ele>
        <time>2021-08-03T08:32:52.241Z</time>
      </trkpt>
      <trkpt lat="47.02632" lon="8.93441">
        <ele>916</ele>
        <time>2021-08-03T08:32:53.242Z</time>
      </trkpt>
      <trkpt lat="47.02632" lon="8.9344">
        <ele>916</ele>
        <time>2021-08-03T08:32:54.241Z</time>
      </trkpt>
      <trkpt lat="47.02632" lon="8.93439">
        <ele>916</ele>
        <time>2021-08-03T08:32:55.242Z</time>
      </trkpt>
      <trkpt lat="47.02632" lon="8.93438">
        <ele>917</ele>
        <time>2021-08-03T08:32:56.242Z</time>
      </trkpt>
      <trkpt lat="47.02632" lon="8.93437">
        <ele>917</ele>
        <time>2021-08-03T08:32:57.241Z</time>
      </trkpt>
      <trkpt lat="47.02632" lon="8.93436">
        <ele>917</ele>
        <time>2021-08-03T08:32:58.242Z</time>
      </trkpt>
      <trkpt lat="47.02632" lon="8.93435">
        <ele>916</ele>
        <time>2021-08-03T08:32:59.242Z</time>
      </trkpt>
      <trkpt lat="47.02632" lon="8.93434">
        <ele>916</ele>
        <time>2021-08-03T08:33:00.242Z</time>
      </trkpt>
      <trkpt lat="47.02632" lon="8.93433">
        <ele>916</ele>
        <time>2021-08-03T08:33:01.241Z</time>
      </trkpt>
      <trkpt lat="47.02632" lon="8.93431">
        <ele>916</ele>
        <time>2021-08-03T08:33:02.241Z</time>
      </trkpt>
      <trkpt lat="47.02632" lon="8.9343">
        <ele>916</ele>
        <time>2021-08-03T08:33:03.241Z</time>
      </trkpt>
      <trkpt lat="47.02632" lon="8.93429">
        <ele>915</ele>
        <time>2021-08-03T08:33:04.242Z</time>
      </trkpt>
      <trkpt lat="47.02633" lon="8.93428">
        <ele>915</ele>
        <time>2021-08-03T08:33:05.242Z</time>
      </trkpt>
      <trkpt lat="47.02633" lon="8.93427">
        <ele>914</ele>
        <time>2021-08-03T08:33:06.241Z</time>
      </trkpt>
      <trkpt lat="47.02633" lon="8.93425">
        <ele>914</ele>
        <time>2021-08-03T08:33:07.242Z</time>
      </trkpt>
      <trkpt lat="47.02633" lon="8.93424">
        <ele>914</ele>
        <time>2021-08-03T08:33:08.241Z</time>
      </trkpt>
      <trkpt lat="47.02633" lon="8.93422">
        <ele>914</ele>
        <time>2021-08-03T08:33:09.242Z</time>
      </trkpt>
      <trkpt lat="47.02633" lon="8.93421">
        <ele>914</ele>
        <time>2021-08-03T08:33:10.242Z</time>
      </trkpt>
      <trkpt lat="47.02633" lon="8.9342">
        <ele>914</ele>
        <time>2021-08-03T08:33:11.242Z</time>
      </trkpt>
      <trkpt lat="47.02633" lon="8.93419">
        <ele>914</ele>
        <time>2021-08-03T08:33:12.241Z</time>
      </trkpt>
      <trkpt lat="47.02633" lon="8.93418">
        <ele>914</ele>
        <time>2021-08-03T08:33:13.242Z</time>
      </trkpt>
      <trkpt lat="47.02633" lon="8.93416">
        <ele>914</ele>
        <time>2021-08-03T08:33:14.242Z</time>
      </trkpt>
      <trkpt lat="47.02633" lon="8.93415">
        <ele>915</ele>
        <time>2021-08-03T08:33:15.242Z</time>
      </trkpt>
      <trkpt lat="47.02632" lon="8.93414">
        <ele>915</ele>
        <time>2021-08-03T08:33:16.242Z</time>
      </trkpt>
      <trkpt lat="47.02632" lon="8.93413">
        <ele>915</ele>
        <time>2021-08-03T08:33:17.241Z</time>
      </trkpt>
      <trkpt lat="47.02632" lon="8.93411">
        <ele>916</ele>
        <time>2021-08-03T08:33:18.242Z</time>
      </trkpt>
      <trkpt lat="47.02632" lon="8.9341">
        <ele>916</ele>
        <time>2021-08-03T08:33:19.242Z</time>
      </trkpt>
      <trkpt lat="47.02632" lon="8.93409">
        <ele>917</ele>
        <time>2021-08-03T08:33:20.242Z</time>
      </trkpt>
      <trkpt lat="47.02632" lon="8.93407">
        <ele>917</ele>
        <time>2021-08-03T08:33:21.241Z</time>
      </trkpt>
      <trkpt lat="47.02632" lon="8.93406">
        <ele>918</ele>
        <time>2021-08-03T08:33:22.241Z</time>
      </trkpt>
      <trkpt lat="47.02632" lon="8.93405">
        <ele>918</ele>
        <time>2021-08-03T08:33:23.241Z</time>
      </trkpt>
      <trkpt lat="47.02632" lon="8.93403">
        <ele>919</ele>
        <time>2021-08-03T08:33:24.242Z</time>
      </trkpt>
      <trkpt lat="47.02632" lon="8.93402">
        <ele>919</ele>
        <time>2021-08-03T08:33:25.241Z</time>
      </trkpt>
      <trkpt lat="47.02632" lon="8.934">
        <ele>920</ele>
        <time>2021-08-03T08:33:26.241Z</time>
      </trkpt>
      <trkpt lat="47.02631" lon="8.93398">
        <ele>920</ele>
        <time>2021-08-03T08:33:27.241Z</time>
      </trkpt>
      <trkpt lat="47.02632" lon="8.93397">
        <ele>920</ele>
        <time>2021-08-03T08:33:28.242Z</time>
      </trkpt>
      <trkpt lat="47.02632" lon="8.93396">
        <ele>921</ele>
        <time>2021-08-03T08:33:29.241Z</time>
      </trkpt>
      <trkpt lat="47.02632" lon="8.93395">
        <ele>921</ele>
        <time>2021-08-03T08:33:30.241Z</time>
      </trkpt>
      <trkpt lat="47.02633" lon="8.93394">
        <ele>922</ele>
        <time>2021-08-03T08:33:31.241Z</time>
      </trkpt>
      <trkpt lat="47.02633" lon="8.93393">
        <ele>922</ele>
        <time>2021-08-03T08:33:32.242Z</time>
      </trkpt>
      <trkpt lat="47.02634" lon="8.93392">
        <ele>923</ele>
        <time>2021-08-03T08:33:33.241Z</time>
      </trkpt>
      <trkpt lat="47.02634" lon="8.93392">
        <ele>923</ele>
        <time>2021-08-03T08:33:34.242Z</time>
      </trkpt>
      <trkpt lat="47.02634" lon="8.93392">
        <ele>924</ele>
        <time>2021-08-03T08:33:35.242Z</time>
      </trkpt>
      <trkpt lat="47.02634" lon="8.93393">
        <ele>924</ele>
        <time>2021-08-03T08:33:36.242Z</time>
      </trkpt>
      <trkpt lat="47.02634" lon="8.93392">
        <ele>925</ele>
        <time>2021-08-03T08:33:37.241Z</time>
      </trkpt>
      <trkpt lat="47.02633" lon="8.9339">
        <ele>925</ele>
        <time>2021-08-03T08:33:38.241Z</time>
      </trkpt>
      <trkpt lat="47.02633" lon="8.93389">
        <ele>924</ele>
        <time>2021-08-03T08:33:39.241Z</time>
      </trkpt>
      <trkpt lat="47.02633" lon="8.93387">
        <ele>924</ele>
        <time>2021-08-03T08:33:40.241Z</time>
      </trkpt>
      <trkpt lat="47.02634" lon="8.93386">
        <ele>924</ele>
        <time>2021-08-03T08:33:41.242Z</time>
      </trkpt>
      <trkpt lat="47.02634" lon="8.93384">
        <ele>924</ele>
        <time>2021-08-03T08:33:42.241Z</time>
      </trkpt>
      <trkpt lat="47.02634" lon="8.93383">
        <ele>924</ele>
        <time>2021-08-03T08:33:43.241Z</time>
      </trkpt>
      <trkpt lat="47.02634" lon="8.93382">
        <ele>924</ele>
        <time>2021-08-03T08:33:44.242Z</time>
      </trkpt>
      <trkpt lat="47.02634" lon="8.93381">
        <ele>924</ele>
        <time>2021-08-03T08:33:45.241Z</time>
      </trkpt>
      <trkpt lat="47.02634" lon="8.9338">
        <ele>924</ele>
        <time>2021-08-03T08:33:46.242Z</time>
      </trkpt>
      <trkpt lat="47.02634" lon="8.93378">
        <ele>924</ele>
        <time>2021-08-03T08:33:47.241Z</time>
      </trkpt>
      <trkpt lat="47.02634" lon="8.93377">
        <ele>924</ele>
        <time>2021-08-03T08:33:48.242Z</time>
      </trkpt>
      <trkpt lat="47.02634" lon="8.93375">
        <ele>925</ele>
        <time>2021-08-03T08:33:49.241Z</time>
      </trkpt>
      <trkpt lat="47.02634" lon="8.93374">
        <ele>925</ele>
        <time>2021-08-03T08:33:50.242Z</time>
      </trkpt>
      <trkpt lat="47.02634" lon="8.93372">
        <ele>925</ele>
        <time>2021-08-03T08:33:51.241Z</time>
      </trkpt>
      <trkpt lat="47.02634" lon="8.93371">
        <ele>926</ele>
        <time>2021-08-03T08:33:52.241Z</time>
      </trkpt>
      <trkpt lat="47.02634" lon="8.9337">
        <ele>926</ele>
        <time>2021-08-03T08:33:53.241Z</time>
      </trkpt>
      <trkpt lat="47.02634" lon="8.93368">
        <ele>926</ele>
        <time>2021-08-03T08:33:54.241Z</time>
      </trkpt>
      <trkpt lat="47.02634" lon="8.93366">
        <ele>926</ele>
        <time>2021-08-03T08:33:55.242Z</time>
      </trkpt>
      <trkpt lat="47.02634" lon="8.93364">
        <ele>927</ele>
        <time>2021-08-03T08:33:56.242Z</time>
      </trkpt>
      <trkpt lat="47.02634" lon="8.93363">
        <ele>927</ele>
        <time>2021-08-03T08:33:57.241Z</time>
      </trkpt>
      <trkpt lat="47.02634" lon="8.93361">
        <ele>927</ele>
        <time>2021-08-03T08:33:58.242Z</time>
      </trkpt>
      <trkpt lat="47.02635" lon="8.9336">
        <ele>928</ele>
        <time>2021-08-03T08:33:59.241Z</time>
      </trkpt>
      <trkpt lat="47.02635" lon="8.93358">
        <ele>928</ele>
        <time>2021-08-03T08:34:00.242Z</time>
      </trkpt>
      <trkpt lat="47.02635" lon="8.93357">
        <ele>928</ele>
        <time>2021-08-03T08:34:01.241Z</time>
      </trkpt>
      <trkpt lat="47.02635" lon="8.93355">
        <ele>928</ele>
        <time>2021-08-03T08:34:02.241Z</time>
      </trkpt>
      <trkpt lat="47.02635" lon="8.93354">
        <ele>928</ele>
        <time>2021-08-03T08:34:03.242Z</time>
      </trkpt>
      <trkpt lat="47.02635" lon="8.93352">
        <ele>928</ele>
        <time>2021-08-03T08:34:04.242Z</time>
      </trkpt>
      <trkpt lat="47.02635" lon="8.93351">
        <ele>927</ele>
        <time>2021-08-03T08:34:05.241Z</time>
      </trkpt>
      <trkpt lat="47.02635" lon="8.93349">
        <ele>927</ele>
        <time>2021-08-03T08:34:06.242Z</time>
      </trkpt>
      <trkpt lat="47.02635" lon="8.93348">
        <ele>926</ele>
        <time>2021-08-03T08:34:07.242Z</time>
      </trkpt>
      <trkpt lat="47.02635" lon="8.93346">
        <ele>926</ele>
        <time>2021-08-03T08:34:08.242Z</time>
      </trkpt>
      <trkpt lat="47.02635" lon="8.93345">
        <ele>926</ele>
        <time>2021-08-03T08:34:09.241Z</time>
      </trkpt>
      <trkpt lat="47.02634" lon="8.93343">
        <ele>926</ele>
        <time>2021-08-03T08:34:10.242Z</time>
      </trkpt>
      <trkpt lat="47.02635" lon="8.93341">
        <ele>926</ele>
        <time>2021-08-03T08:34:11.242Z</time>
      </trkpt>
      <trkpt lat="47.02635" lon="8.9334">
        <ele>926</ele>
        <time>2021-08-03T08:34:12.242Z</time>
      </trkpt>
      <trkpt lat="47.02635" lon="8.93338">
        <ele>926</ele>
        <time>2021-08-03T08:34:13.242Z</time>
      </trkpt>
      <trkpt lat="47.02636" lon="8.93337">
        <ele>926</ele>
        <time>2021-08-03T08:34:14.242Z</time>
      </trkpt>
      <trkpt lat="47.02637" lon="8.93336">
        <ele>926</ele>
        <time>2021-08-03T08:34:15.242Z</time>
      </trkpt>
      <trkpt lat="47.02637" lon="8.93335">
        <ele>926</ele>
        <time>2021-08-03T08:34:16.242Z</time>
      </trkpt>
      <trkpt lat="47.02637" lon="8.93333">
        <ele>927</ele>
        <time>2021-08-03T08:34:17.241Z</time>
      </trkpt>
      <trkpt lat="47.02637" lon="8.93331">
        <ele>927</ele>
        <time>2021-08-03T08:34:18.242Z</time>
      </trkpt>
      <trkpt lat="47.02638" lon="8.9333">
        <ele>927</ele>
        <time>2021-08-03T08:34:19.241Z</time>
      </trkpt>
      <trkpt lat="47.02638" lon="8.93328">
        <ele>928</ele>
        <time>2021-08-03T08:34:20.241Z</time>
      </trkpt>
      <trkpt lat="47.02639" lon="8.93327">
        <ele>928</ele>
        <time>2021-08-03T08:34:21.241Z</time>
      </trkpt>
      <trkpt lat="47.02639" lon="8.93325">
        <ele>929</ele>
        <time>2021-08-03T08:34:22.242Z</time>
      </trkpt>
      <trkpt lat="47.02639" lon="8.93324">
        <ele>929</ele>
        <time>2021-08-03T08:34:23.242Z</time>
      </trkpt>
      <trkpt lat="47.02639" lon="8.93322">
        <ele>929</ele>
        <time>2021-08-03T08:34:24.241Z</time>
      </trkpt>
      <trkpt lat="47.02639" lon="8.9332">
        <ele>929</ele>
        <time>2021-08-03T08:34:25.241Z</time>
      </trkpt>
      <trkpt lat="47.02639" lon="8.93318">
        <ele>930</ele>
        <time>2021-08-03T08:34:26.241Z</time>
      </trkpt>
      <trkpt lat="47.02639" lon="8.93316">
        <ele>930</ele>
        <time>2021-08-03T08:34:27.241Z</time>
      </trkpt>
      <trkpt lat="47.02639" lon="8.93315">
        <ele>930</ele>
        <time>2021-08-03T08:34:28.242Z</time>
      </trkpt>
      <trkpt lat="47.02639" lon="8.93314">
        <ele>930</ele>
        <time>2021-08-03T08:34:29.242Z</time>
      </trkpt>
      <trkpt lat="47.02639" lon="8.93312">
        <ele>930</ele>
        <time>2021-08-03T08:34:30.242Z</time>
      </trkpt>
      <trkpt lat="47.0264" lon="8.93311">
        <ele>930</ele>
        <time>2021-08-03T08:34:31.242Z</time>
      </trkpt>
      <trkpt lat="47.02641" lon="8.9331">
        <ele>929</ele>
        <time>2021-08-03T08:34:32.242Z</time>
      </trkpt>
      <trkpt lat="47.02641" lon="8.93309">
        <ele>929</ele>
        <time>2021-08-03T08:34:33.242Z</time>
      </trkpt>
      <trkpt lat="47.02641" lon="8.93307">
        <ele>929</ele>
        <time>2021-08-03T08:34:34.241Z</time>
      </trkpt>
      <trkpt lat="47.02642" lon="8.93306">
        <ele>928</ele>
        <time>2021-08-03T08:34:35.242Z</time>
      </trkpt>
      <trkpt lat="47.02642" lon="8.93305">
        <ele>928</ele>
        <time>2021-08-03T08:34:36.241Z</time>
      </trkpt>
      <trkpt lat="47.02642" lon="8.93304">
        <ele>928</ele>
        <time>2021-08-03T08:34:37.242Z</time>
      </trkpt>
      <trkpt lat="47.02642" lon="8.93302">
        <ele>928</ele>
        <time>2021-08-03T08:34:38.242Z</time>
      </trkpt>
      <trkpt lat="47.02642" lon="8.93301">
        <ele>927</ele>
        <time>2021-08-03T08:34:39.242Z</time>
      </trkpt>
      <trkpt lat="47.02642" lon="8.933">
        <ele>927</ele>
        <time>2021-08-03T08:34:40.241Z</time>
      </trkpt>
      <trkpt lat="47.02642" lon="8.93298">
        <ele>927</ele>
        <time>2021-08-03T08:34:41.241Z</time>
      </trkpt>
      <trkpt lat="47.02642" lon="8.93297">
        <ele>927</ele>
        <time>2021-08-03T08:34:42.241Z</time>
      </trkpt>
      <trkpt lat="47.02642" lon="8.93295">
        <ele>927</ele>
        <time>2021-08-03T08:34:43.242Z</time>
      </trkpt>
      <trkpt lat="47.02642" lon="8.93294">
        <ele>928</ele>
        <time>2021-08-03T08:34:44.242Z</time>
      </trkpt>
      <trkpt lat="47.02642" lon="8.93292">
        <ele>928</ele>
        <time>2021-08-03T08:34:45.242Z</time>
      </trkpt>
      <trkpt lat="47.02642" lon="8.93291">
        <ele>928</ele>
        <time>2021-08-03T08:34:46.242Z</time>
      </trkpt>
      <trkpt lat="47.02642" lon="8.9329">
        <ele>928</ele>
        <time>2021-08-03T08:34:47.242Z</time>
      </trkpt>
      <trkpt lat="47.02642" lon="8.93288">
        <ele>928</ele>
        <time>2021-08-03T08:34:48.242Z</time>
      </trkpt>
      <trkpt lat="47.02642" lon="8.93286">
        <ele>928</ele>
        <time>2021-08-03T08:34:49.242Z</time>
      </trkpt>
      <trkpt lat="47.02643" lon="8.93285">
        <ele>929</ele>
        <time>2021-08-03T08:34:50.242Z</time>
      </trkpt>
      <trkpt lat="47.02643" lon="8.93284">
        <ele>929</ele>
        <time>2021-08-03T08:34:51.242Z</time>
      </trkpt>
      <trkpt lat="47.02643" lon="8.93282">
        <ele>929</ele>
        <time>2021-08-03T08:34:52.241Z</time>
      </trkpt>
      <trkpt lat="47.02643" lon="8.93281">
        <ele>929</ele>
        <time>2021-08-03T08:34:53.242Z</time>
      </trkpt>
      <trkpt lat="47.02644" lon="8.93279">
        <ele>929</ele>
        <time>2021-08-03T08:34:54.242Z</time>
      </trkpt>
      <trkpt lat="47.02644" lon="8.93278">
        <ele>929</ele>
        <time>2021-08-03T08:34:55.241Z</time>
      </trkpt>
      <trkpt lat="47.02644" lon="8.93277">
        <ele>929</ele>
        <time>2021-08-03T08:34:56.241Z</time>
      </trkpt>
      <trkpt lat="47.02644" lon="8.93275">
        <ele>930</ele>
        <time>2021-08-03T08:34:57.242Z</time>
      </trkpt>
      <trkpt lat="47.02644" lon="8.93274">
        <ele>930</ele>
        <time>2021-08-03T08:34:58.241Z</time>
      </trkpt>
      <trkpt lat="47.02644" lon="8.93272">
        <ele>930</ele>
        <time>2021-08-03T08:34:59.242Z</time>
      </trkpt>
      <trkpt lat="47.02644" lon="8.93271">
        <ele>931</ele>
        <time>2021-08-03T08:35:00.242Z</time>
      </trkpt>
      <trkpt lat="47.02644" lon="8.93269">
        <ele>931</ele>
        <time>2021-08-03T08:35:01.242Z</time>
      </trkpt>
      <trkpt lat="47.02644" lon="8.93268">
        <ele>931</ele>
        <time>2021-08-03T08:35:02.242Z</time>
      </trkpt>
      <trkpt lat="47.02644" lon="8.93266">
        <ele>931</ele>
        <time>2021-08-03T08:35:03.242Z</time>
      </trkpt>
      <trkpt lat="47.02644" lon="8.93265">
        <ele>932</ele>
        <time>2021-08-03T08:35:04.242Z</time>
      </trkpt>
      <trkpt lat="47.02644" lon="8.93264">
        <ele>932</ele>
        <time>2021-08-03T08:35:05.242Z</time>
      </trkpt>
      <trkpt lat="47.02644" lon="8.93262">
        <ele>932</ele>
        <time>2021-08-03T08:35:06.242Z</time>
      </trkpt>
      <trkpt lat="47.02643" lon="8.9326">
        <ele>932</ele>
        <time>2021-08-03T08:35:07.242Z</time>
      </trkpt>
      <trkpt lat="47.02642" lon="8.93258">
        <ele>933</ele>
        <time>2021-08-03T08:35:08.242Z</time>
      </trkpt>
      <trkpt lat="47.02641" lon="8.93256">
        <ele>933</ele>
        <time>2021-08-03T08:35:09.242Z</time>
      </trkpt>
      <trkpt lat="47.02641" lon="8.93254">
        <ele>933</ele>
        <time>2021-08-03T08:35:10.242Z</time>
      </trkpt>
      <trkpt lat="47.02641" lon="8.93253">
        <ele>933</ele>
        <time>2021-08-03T08:35:11.241Z</time>
      </trkpt>
      <trkpt lat="47.0264" lon="8.93252">
        <ele>934</ele>
        <time>2021-08-03T08:35:12.242Z</time>
      </trkpt>
      <trkpt lat="47.0264" lon="8.93251">
        <ele>934</ele>
        <time>2021-08-03T08:35:13.242Z</time>
      </trkpt>
      <trkpt lat="47.02641" lon="8.93251">
        <ele>934</ele>
        <time>2021-08-03T08:35:14.242Z</time>
      </trkpt>
      <trkpt lat="47.02641" lon="8.93251">
        <ele>934</ele>
        <time>2021-08-03T08:35:15.242Z</time>
      </trkpt>
      <trkpt lat="47.0264" lon="8.9325">
        <ele>934</ele>
        <time>2021-08-03T08:35:16.241Z</time>
      </trkpt>
      <trkpt lat="47.0264" lon="8.93248">
        <ele>934</ele>
        <time>2021-08-03T08:35:17.242Z</time>
      </trkpt>
      <trkpt lat="47.0264" lon="8.93247">
        <ele>935</ele>
        <time>2021-08-03T08:35:18.241Z</time>
      </trkpt>
      <trkpt lat="47.0264" lon="8.93246">
        <ele>935</ele>
        <time>2021-08-03T08:35:19.241Z</time>
      </trkpt>
      <trkpt lat="47.0264" lon="8.93245">
        <ele>935</ele>
        <time>2021-08-03T08:35:20.241Z</time>
      </trkpt>
      <trkpt lat="47.0264" lon="8.93244">
        <ele>935</ele>
        <time>2021-08-03T08:35:21.241Z</time>
      </trkpt>
      <trkpt lat="47.0264" lon="8.93243">
        <ele>935</ele>
        <time>2021-08-03T08:35:22.241Z</time>
      </trkpt>
      <trkpt lat="47.0264" lon="8.93242">
        <ele>935</ele>
        <time>2021-08-03T08:35:23.242Z</time>
      </trkpt>
      <trkpt lat="47.0264" lon="8.9324">
        <ele>935</ele>
        <time>2021-08-03T08:35:24.242Z</time>
      </trkpt>
      <trkpt lat="47.02639" lon="8.93239">
        <ele>935</ele>
        <time>2021-08-03T08:35:25.242Z</time>
      </trkpt>
      <trkpt lat="47.02639" lon="8.93237">
        <ele>935</ele>
        <time>2021-08-03T08:35:26.241Z</time>
      </trkpt>
      <trkpt lat="47.02638" lon="8.93236">
        <ele>934</ele>
        <time>2021-08-03T08:35:27.242Z</time>
      </trkpt>
      <trkpt lat="47.02638" lon="8.93235">
        <ele>934</ele>
        <time>2021-08-03T08:35:28.241Z</time>
      </trkpt>
      <trkpt lat="47.02638" lon="8.93234">
        <ele>934</ele>
        <time>2021-08-03T08:35:29.241Z</time>
      </trkpt>
      <trkpt lat="47.02638" lon="8.93233">
        <ele>935</ele>
        <time>2021-08-03T08:35:30.241Z</time>
      </trkpt>
      <trkpt lat="47.02637" lon="8.93232">
        <ele>935</ele>
        <time>2021-08-03T08:35:31.242Z</time>
      </trkpt>
      <trkpt lat="47.02637" lon="8.93231">
        <ele>935</ele>
        <time>2021-08-03T08:35:32.241Z</time>
      </trkpt>
      <trkpt lat="47.02637" lon="8.93229">
        <ele>935</ele>
        <time>2021-08-03T08:35:33.242Z</time>
      </trkpt>
      <trkpt lat="47.02636" lon="8.93228">
        <ele>935</ele>
        <time>2021-08-03T08:35:34.242Z</time>
      </trkpt>
      <trkpt lat="47.02636" lon="8.93226">
        <ele>935</ele>
        <time>2021-08-03T08:35:35.242Z</time>
      </trkpt>
      <trkpt lat="47.02635" lon="8.93225">
        <ele>935</ele>
        <time>2021-08-03T08:35:36.242Z</time>
      </trkpt>
      <trkpt lat="47.02635" lon="8.93223">
        <ele>935</ele>
        <time>2021-08-03T08:35:37.242Z</time>
      </trkpt>
      <trkpt lat="47.02634" lon="8.93221">
        <ele>936</ele>
        <time>2021-08-03T08:35:38.242Z</time>
      </trkpt>
      <trkpt lat="47.02634" lon="8.93219">
        <ele>936</ele>
        <time>2021-08-03T08:35:39.241Z</time>
      </trkpt>
      <trkpt lat="47.02633" lon="8.93218">
        <ele>935</ele>
        <time>2021-08-03T08:35:40.242Z</time>
      </trkpt>
      <trkpt lat="47.02633" lon="8.93217">
        <ele>935</ele>
        <time>2021-08-03T08:35:41.241Z</time>
      </trkpt>
      <trkpt lat="47.02633" lon="8.93215">
        <ele>935</ele>
        <time>2021-08-03T08:35:42.241Z</time>
      </trkpt>
      <trkpt lat="47.02633" lon="8.93214">
        <ele>935</ele>
        <time>2021-08-03T08:35:43.242Z</time>
      </trkpt>
      <trkpt lat="47.02633" lon="8.93213">
        <ele>935</ele>
        <time>2021-08-03T08:35:44.242Z</time>
      </trkpt>
      <trkpt lat="47.02632" lon="8.93211">
        <ele>935</ele>
        <time>2021-08-03T08:35:45.242Z</time>
      </trkpt>
      <trkpt lat="47.02632" lon="8.93209">
        <ele>935</ele>
        <time>2021-08-03T08:35:46.242Z</time>
      </trkpt>
      <trkpt lat="47.02631" lon="8.93208">
        <ele>936</ele>
        <time>2021-08-03T08:35:47.241Z</time>
      </trkpt>
      <trkpt lat="47.02631" lon="8.93206">
        <ele>936</ele>
        <time>2021-08-03T08:35:48.241Z</time>
      </trkpt>
      <trkpt lat="47.0263" lon="8.93204">
        <ele>937</ele>
        <time>2021-08-03T08:35:49.242Z</time>
      </trkpt>
      <trkpt lat="47.02629" lon="8.93202">
        <ele>937</ele>
        <time>2021-08-03T08:35:50.241Z</time>
      </trkpt>
      <trkpt lat="47.02629" lon="8.93201">
        <ele>937</ele>
        <time>2021-08-03T08:35:51.242Z</time>
      </trkpt>
      <trkpt lat="47.02629" lon="8.93199">
        <ele>937</ele>
        <time>2021-08-03T08:35:52.242Z</time>
      </trkpt>
      <trkpt lat="47.02628" lon="8.93198">
        <ele>937</ele>
        <time>2021-08-03T08:35:53.242Z</time>
      </trkpt>
      <trkpt lat="47.02628" lon="8.93196">
        <ele>937</ele>
        <time>2021-08-03T08:35:54.242Z</time>
      </trkpt>
      <trkpt lat="47.02628" lon="8.93195">
        <ele>937</ele>
        <time>2021-08-03T08:35:55.242Z</time>
      </trkpt>
      <trkpt lat="47.02627" lon="8.93193">
        <ele>937</ele>
        <time>2021-08-03T08:35:56.241Z</time>
      </trkpt>
      <trkpt lat="47.02626" lon="8.93191">
        <ele>938</ele>
        <time>2021-08-03T08:35:57.242Z</time>
      </trkpt>
      <trkpt lat="47.02626" lon="8.9319">
        <ele>938</ele>
        <time>2021-08-03T08:35:58.241Z</time>
      </trkpt>
      <trkpt lat="47.02625" lon="8.93189">
        <ele>938</ele>
        <time>2021-08-03T08:35:59.242Z</time>
      </trkpt>
      <trkpt lat="47.02625" lon="8.93188">
        <ele>938</ele>
        <time>2021-08-03T08:36:00.241Z</time>
      </trkpt>
      <trkpt lat="47.02625" lon="8.93187">
        <ele>938</ele>
        <time>2021-08-03T08:36:01.242Z</time>
      </trkpt>
      <trkpt lat="47.02624" lon="8.93185">
        <ele>938</ele>
        <time>2021-08-03T08:36:02.241Z</time>
      </trkpt>
      <trkpt lat="47.02623" lon="8.93183">
        <ele>939</ele>
        <time>2021-08-03T08:36:03.241Z</time>
      </trkpt>
      <trkpt lat="47.02623" lon="8.93182">
        <ele>939</ele>
        <time>2021-08-03T08:36:04.242Z</time>
      </trkpt>
      <trkpt lat="47.02622" lon="8.9318">
        <ele>939</ele>
        <time>2021-08-03T08:36:05.242Z</time>
      </trkpt>
      <trkpt lat="47.02622" lon="8.93179">
        <ele>940</ele>
        <time>2021-08-03T08:36:06.241Z</time>
      </trkpt>
      <trkpt lat="47.02622" lon="8.93178">
        <ele>940</ele>
        <time>2021-08-03T08:36:07.242Z</time>
      </trkpt>
      <trkpt lat="47.02622" lon="8.93177">
        <ele>940</ele>
        <time>2021-08-03T08:36:08.241Z</time>
      </trkpt>
      <trkpt lat="47.02622" lon="8.93176">
        <ele>940</ele>
        <time>2021-08-03T08:36:09.242Z</time>
      </trkpt>
      <trkpt lat="47.02622" lon="8.93175">
        <ele>940</ele>
        <time>2021-08-03T08:36:10.242Z</time>
      </trkpt>
      <trkpt lat="47.02621" lon="8.93173">
        <ele>940</ele>
        <time>2021-08-03T08:36:11.242Z</time>
      </trkpt>
      <trkpt lat="47.02621" lon="8.93172">
        <ele>940</ele>
        <time>2021-08-03T08:36:12.241Z</time>
      </trkpt>
      <trkpt lat="47.0262" lon="8.93171">
        <ele>940</ele>
        <time>2021-08-03T08:36:13.241Z</time>
      </trkpt>
      <trkpt lat="47.02621" lon="8.93171">
        <ele>940</ele>
        <time>2021-08-03T08:36:14.241Z</time>
      </trkpt>
      <trkpt lat="47.02621" lon="8.9317">
        <ele>940</ele>
        <time>2021-08-03T08:36:15.242Z</time>
      </trkpt>
      <trkpt lat="47.02621" lon="8.93169">
        <ele>939</ele>
        <time>2021-08-03T08:36:16.242Z</time>
      </trkpt>
      <trkpt lat="47.0262" lon="8.93168">
        <ele>939</ele>
        <time>2021-08-03T08:36:17.242Z</time>
      </trkpt>
      <trkpt lat="47.0262" lon="8.93166">
        <ele>939</ele>
        <time>2021-08-03T08:36:18.242Z</time>
      </trkpt>
      <trkpt lat="47.0262" lon="8.93165">
        <ele>939</ele>
        <time>2021-08-03T08:36:19.242Z</time>
      </trkpt>
      <trkpt lat="47.02619" lon="8.93163">
        <ele>938</ele>
        <time>2021-08-03T08:36:20.242Z</time>
      </trkpt>
      <trkpt lat="47.02618" lon="8.93162">
        <ele>938</ele>
        <time>2021-08-03T08:36:21.241Z</time>
      </trkpt>
      <trkpt lat="47.02618" lon="8.9316">
        <ele>938</ele>
        <time>2021-08-03T08:36:22.242Z</time>
      </trkpt>
      <trkpt lat="47.02617" lon="8.93158">
        <ele>938</ele>
        <time>2021-08-03T08:36:23.241Z</time>
      </trkpt>
      <trkpt lat="47.02617" lon="8.93156">
        <ele>938</ele>
        <time>2021-08-03T08:36:24.242Z</time>
      </trkpt>
      <trkpt lat="47.02617" lon="8.93155">
        <ele>938</ele>
        <time>2021-08-03T08:36:25.242Z</time>
      </trkpt>
      <trkpt lat="47.02617" lon="8.93154">
        <ele>938</ele>
        <time>2021-08-03T08:36:26.242Z</time>
      </trkpt>
      <trkpt lat="47.02617" lon="8.93153">
        <ele>937</ele>
        <time>2021-08-03T08:36:27.242Z</time>
      </trkpt>
      <trkpt lat="47.02617" lon="8.93151">
        <ele>938</ele>
        <time>2021-08-03T08:36:28.242Z</time>
      </trkpt>
      <trkpt lat="47.02617" lon="8.9315">
        <ele>938</ele>
        <time>2021-08-03T08:36:29.242Z</time>
      </trkpt>
      <trkpt lat="47.02617" lon="8.93149">
        <ele>939</ele>
        <time>2021-08-03T08:36:30.242Z</time>
      </trkpt>
      <trkpt lat="47.02617" lon="8.93148">
        <ele>939</ele>
        <time>2021-08-03T08:36:31.242Z</time>
      </trkpt>
      <trkpt lat="47.02617" lon="8.93146">
        <ele>939</ele>
        <time>2021-08-03T08:36:32.242Z</time>
      </trkpt>
      <trkpt lat="47.02617" lon="8.93145">
        <ele>939</ele>
        <time>2021-08-03T08:36:33.241Z</time>
      </trkpt>
      <trkpt lat="47.02617" lon="8.93144">
        <ele>939</ele>
        <time>2021-08-03T08:36:34.241Z</time>
      </trkpt>
      <trkpt lat="47.02617" lon="8.93143">
        <ele>940</ele>
        <time>2021-08-03T08:36:35.241Z</time>
      </trkpt>
      <trkpt lat="47.02616" lon="8.93142">
        <ele>940</ele>
        <time>2021-08-03T08:36:36.242Z</time>
      </trkpt>
      <trkpt lat="47.02616" lon="8.9314">
        <ele>941</ele>
        <time>2021-08-03T08:36:37.242Z</time>
      </trkpt>
      <trkpt lat="47.02616" lon="8.93139">
        <ele>941</ele>
        <time>2021-08-03T08:36:38.241Z</time>
      </trkpt>
      <trkpt lat="47.02615" lon="8.93137">
        <ele>942</ele>
        <time>2021-08-03T08:36:39.242Z</time>
      </trkpt>
      <trkpt lat="47.02615" lon="8.93136">
        <ele>942</ele>
        <time>2021-08-03T08:36:40.242Z</time>
      </trkpt>
      <trkpt lat="47.02614" lon="8.93134">
        <ele>942</ele>
        <time>2021-08-03T08:36:41.242Z</time>
      </trkpt>
      <trkpt lat="47.02614" lon="8.93133">
        <ele>943</ele>
        <time>2021-08-03T08:36:42.241Z</time>
      </trkpt>
      <trkpt lat="47.02615" lon="8.93132">
        <ele>943</ele>
        <time>2021-08-03T08:36:43.242Z</time>
      </trkpt>
      <trkpt lat="47.02615" lon="8.9313">
        <ele>943</ele>
        <time>2021-08-03T08:36:44.241Z</time>
      </trkpt>
      <trkpt lat="47.02615" lon="8.93128">
        <ele>943</ele>
        <time>2021-08-03T08:36:45.242Z</time>
      </trkpt>
      <trkpt lat="47.02615" lon="8.93127">
        <ele>943</ele>
        <time>2021-08-03T08:36:46.241Z</time>
      </trkpt>
      <trkpt lat="47.02615" lon="8.93125">
        <ele>944</ele>
        <time>2021-08-03T08:36:47.242Z</time>
      </trkpt>
      <trkpt lat="47.02615" lon="8.93123">
        <ele>944</ele>
        <time>2021-08-03T08:36:48.241Z</time>
      </trkpt>
      <trkpt lat="47.02615" lon="8.93121">
        <ele>944</ele>
        <time>2021-08-03T08:36:49.242Z</time>
      </trkpt>
      <trkpt lat="47.02615" lon="8.93119">
        <ele>944</ele>
        <time>2021-08-03T08:36:50.242Z</time>
      </trkpt>
      <trkpt lat="47.02615" lon="8.93118">
        <ele>945</ele>
        <time>2021-08-03T08:36:51.242Z</time>
      </trkpt>
      <trkpt lat="47.02614" lon="8.93116">
        <ele>945</ele>
        <time>2021-08-03T08:36:52.241Z</time>
      </trkpt>
      <trkpt lat="47.02614" lon="8.93114">
        <ele>945</ele>
        <time>2021-08-03T08:36:53.242Z</time>
      </trkpt>
      <trkpt lat="47.02614" lon="8.93112">
        <ele>945</ele>
        <time>2021-08-03T08:36:54.242Z</time>
      </trkpt>
      <trkpt lat="47.02614" lon="8.93111">
        <ele>945</ele>
        <time>2021-08-03T08:36:55.241Z</time>
      </trkpt>
      <trkpt lat="47.02614" lon="8.93109">
        <ele>945</ele>
        <time>2021-08-03T08:36:56.242Z</time>
      </trkpt>
      <trkpt lat="47.02614" lon="8.93107">
        <ele>945</ele>
        <time>2021-08-03T08:36:57.241Z</time>
      </trkpt>
      <trkpt lat="47.02614" lon="8.93106">
        <ele>945</ele>
        <time>2021-08-03T08:36:58.242Z</time>
      </trkpt>
      <trkpt lat="47.02615" lon="8.93105">
        <ele>945</ele>
        <time>2021-08-03T08:36:59.242Z</time>
      </trkpt>
      <trkpt lat="47.02615" lon="8.93103">
        <ele>945</ele>
        <time>2021-08-03T08:37:00.241Z</time>
      </trkpt>
      <trkpt lat="47.02616" lon="8.93102">
        <ele>944</ele>
        <time>2021-08-03T08:37:01.242Z</time>
      </trkpt>
      <trkpt lat="47.02616" lon="8.931">
        <ele>944</ele>
        <time>2021-08-03T08:37:02.242Z</time>
      </trkpt>
      <trkpt lat="47.02616" lon="8.93099">
        <ele>944</ele>
        <time>2021-08-03T08:37:03.241Z</time>
      </trkpt>
      <trkpt lat="47.02616" lon="8.93097">
        <ele>944</ele>
        <time>2021-08-03T08:37:04.242Z</time>
      </trkpt>
      <trkpt lat="47.02616" lon="8.93096">
        <ele>943</ele>
        <time>2021-08-03T08:37:05.241Z</time>
      </trkpt>
      <trkpt lat="47.02616" lon="8.93094">
        <ele>943</ele>
        <time>2021-08-03T08:37:06.242Z</time>
      </trkpt>
      <trkpt lat="47.02616" lon="8.93092">
        <ele>944</ele>
        <time>2021-08-03T08:37:07.242Z</time>
      </trkpt>
      <trkpt lat="47.02616" lon="8.93091">
        <ele>944</ele>
        <time>2021-08-03T08:37:08.242Z</time>
      </trkpt>
      <trkpt lat="47.02616" lon="8.9309">
        <ele>944</ele>
        <time>2021-08-03T08:37:09.242Z</time>
      </trkpt>
      <trkpt lat="47.02617" lon="8.93088">
        <ele>945</ele>
        <time>2021-08-03T08:37:10.241Z</time>
      </trkpt>
      <trkpt lat="47.02617" lon="8.93087">
        <ele>945</ele>
        <time>2021-08-03T08:37:11.242Z</time>
      </trkpt>
      <trkpt lat="47.02617" lon="8.93085">
        <ele>945</ele>
        <time>2021-08-03T08:37:12.242Z</time>
      </trkpt>
      <trkpt lat="47.02616" lon="8.93084">
        <ele>946</ele>
        <time>2021-08-03T08:37:13.242Z</time>
      </trkpt>
      <trkpt lat="47.02616" lon="8.93082">
        <ele>946</ele>
        <time>2021-08-03T08:37:14.242Z</time>
      </trkpt>
      <trkpt lat="47.02616" lon="8.93081">
        <ele>946</ele>
        <time>2021-08-03T08:37:15.242Z</time>
      </trkpt>
      <trkpt lat="47.02616" lon="8.9308">
        <ele>945</ele>
        <time>2021-08-03T08:37:16.242Z</time>
      </trkpt>
      <trkpt lat="47.02616" lon="8.93079">
        <ele>945</ele>
        <time>2021-08-03T08:37:17.242Z</time>
      </trkpt>
      <trkpt lat="47.02617" lon="8.93078">
        <ele>946</ele>
        <time>2021-08-03T08:37:18.241Z</time>
      </trkpt>
      <trkpt lat="47.02618" lon="8.93076">
        <ele>946</ele>
        <time>2021-08-03T08:37:19.241Z</time>
      </trkpt>
      <trkpt lat="47.02618" lon="8.93075">
        <ele>946</ele>
        <time>2021-08-03T08:37:20.242Z</time>
      </trkpt>
      <trkpt lat="47.02618" lon="8.93074">
        <ele>946</ele>
        <time>2021-08-03T08:37:21.241Z</time>
      </trkpt>
      <trkpt lat="47.02618" lon="8.93073">
        <ele>946</ele>
        <time>2021-08-03T08:37:22.242Z</time>
      </trkpt>
      <trkpt lat="47.02619" lon="8.93073">
        <ele>946</ele>
        <time>2021-08-03T08:37:23.242Z</time>
      </trkpt>
      <trkpt lat="47.02619" lon="8.93072">
        <ele>946</ele>
        <time>2021-08-03T08:37:24.242Z</time>
      </trkpt>
      <trkpt lat="47.02619" lon="8.93071">
        <ele>945</ele>
        <time>2021-08-03T08:37:25.241Z</time>
      </trkpt>
      <trkpt lat="47.02619" lon="8.9307">
        <ele>945</ele>
        <time>2021-08-03T08:37:26.242Z</time>
      </trkpt>
      <trkpt lat="47.02619" lon="8.93069">
        <ele>945</ele>
        <time>2021-08-03T08:37:27.242Z</time>
      </trkpt>
      <trkpt lat="47.02619" lon="8.93068">
        <ele>945</ele>
        <time>2021-08-03T08:37:28.241Z</time>
      </trkpt>
      <trkpt lat="47.02619" lon="8.93067">
        <ele>946</ele>
        <time>2021-08-03T08:37:29.241Z</time>
      </trkpt>
      <trkpt lat="47.02619" lon="8.93066">
        <ele>946</ele>
        <time>2021-08-03T08:37:30.242Z</time>
      </trkpt>
      <trkpt lat="47.0262" lon="8.93064">
        <ele>947</ele>
        <time>2021-08-03T08:37:31.241Z</time>
      </trkpt>
      <trkpt lat="47.0262" lon="8.93063">
        <ele>947</ele>
        <time>2021-08-03T08:37:32.241Z</time>
      </trkpt>
      <trkpt lat="47.0262" lon="8.93062">
        <ele>947</ele>
        <time>2021-08-03T08:37:33.242Z</time>
      </trkpt>
      <trkpt lat="47.0262" lon="8.9306">
        <ele>947</ele>
        <time>2021-08-03T08:37:34.242Z</time>
      </trkpt>
      <trkpt lat="47.02621" lon="8.93059">
        <ele>947</ele>
        <time>2021-08-03T08:37:35.241Z</time>
      </trkpt>
      <trkpt lat="47.02621" lon="8.93057">
        <ele>947</ele>
        <time>2021-08-03T08:37:36.242Z</time>
      </trkpt>
      <trkpt lat="47.02621" lon="8.93056">
        <ele>947</ele>
        <time>2021-08-03T08:37:37.242Z</time>
      </trkpt>
      <trkpt lat="47.02621" lon="8.93054">
        <ele>947</ele>
        <time>2021-08-03T08:37:38.242Z</time>
      </trkpt>
      <trkpt lat="47.02621" lon="8.93053">
        <ele>947</ele>
        <time>2021-08-03T08:37:39.242Z</time>
      </trkpt>
      <trkpt lat="47.02621" lon="8.93051">
        <ele>947</ele>
        <time>2021-08-03T08:37:40.241Z</time>
      </trkpt>
      <trkpt lat="47.02622" lon="8.9305">
        <ele>947</ele>
        <time>2021-08-03T08:37:41.242Z</time>
      </trkpt>
      <trkpt lat="47.02622" lon="8.93049">
        <ele>947</ele>
        <time>2021-08-03T08:37:42.242Z</time>
      </trkpt>
      <trkpt lat="47.02622" lon="8.93047">
        <ele>947</ele>
        <time>2021-08-03T08:37:43.242Z</time>
      </trkpt>
      <trkpt lat="47.02622" lon="8.93045">
        <ele>947</ele>
        <time>2021-08-03T08:37:44.242Z</time>
      </trkpt>
      <trkpt lat="47.02622" lon="8.93044">
        <ele>947</ele>
        <time>2021-08-03T08:37:45.241Z</time>
      </trkpt>
      <trkpt lat="47.02622" lon="8.93043">
        <ele>947</ele>
        <time>2021-08-03T08:37:46.242Z</time>
      </trkpt>
      <trkpt lat="47.02623" lon="8.93041">
        <ele>947</ele>
        <time>2021-08-03T08:37:47.242Z</time>
      </trkpt>
      <trkpt lat="47.02623" lon="8.9304">
        <ele>948</ele>
        <time>2021-08-03T08:37:48.242Z</time>
      </trkpt>
      <trkpt lat="47.02623" lon="8.93038">
        <ele>948</ele>
        <time>2021-08-03T08:37:49.241Z</time>
      </trkpt>
      <trkpt lat="47.02623" lon="8.93037">
        <ele>948</ele>
        <time>2021-08-03T08:37:50.242Z</time>
      </trkpt>
      <trkpt lat="47.02623" lon="8.93035">
        <ele>949</ele>
        <time>2021-08-03T08:37:51.242Z</time>
      </trkpt>
      <trkpt lat="47.02623" lon="8.93034">
        <ele>949</ele>
        <time>2021-08-03T08:37:52.242Z</time>
      </trkpt>
      <trkpt lat="47.02622" lon="8.93034">
        <ele>949</ele>
        <time>2021-08-03T08:37:53.242Z</time>
      </trkpt>
      <trkpt lat="47.02622" lon="8.93033">
        <ele>950</ele>
        <time>2021-08-03T08:37:54.242Z</time>
      </trkpt>
      <trkpt lat="47.02621" lon="8.93032">
        <ele>950</ele>
        <time>2021-08-03T08:37:55.242Z</time>
      </trkpt>
      <trkpt lat="47.0262" lon="8.9303">
        <ele>950</ele>
        <time>2021-08-03T08:37:56.242Z</time>
      </trkpt>
      <trkpt lat="47.0262" lon="8.93029">
        <ele>951</ele>
        <time>2021-08-03T08:37:57.242Z</time>
      </trkpt>
      <trkpt lat="47.02619" lon="8.93028">
        <ele>951</ele>
        <time>2021-08-03T08:37:58.242Z</time>
      </trkpt>
      <trkpt lat="47.02619" lon="8.93027">
        <ele>951</ele>
        <time>2021-08-03T08:37:59.241Z</time>
      </trkpt>
      <trkpt lat="47.02618" lon="8.93026">
        <ele>951</ele>
        <time>2021-08-03T08:38:00.241Z</time>
      </trkpt>
      <trkpt lat="47.02618" lon="8.93026">
        <ele>951</ele>
        <time>2021-08-03T08:38:01.242Z</time>
      </trkpt>
      <trkpt lat="47.02618" lon="8.93026">
        <ele>951</ele>
        <time>2021-08-03T08:38:02.242Z</time>
      </trkpt>
      <trkpt lat="47.02618" lon="8.93026">
        <ele>951</ele>
        <time>2021-08-03T08:38:03.242Z</time>
      </trkpt>
      <trkpt lat="47.02618" lon="8.93025">
        <ele>955</ele>
        <time>2021-08-03T08:38:04.242Z</time>
      </trkpt>
      <trkpt lat="47.02619" lon="8.93024">
        <ele>954</ele>
        <time>2021-08-03T08:38:05.242Z</time>
      </trkpt>
      <trkpt lat="47.0262" lon="8.93023">
        <ele>954</ele>
        <time>2021-08-03T08:38:06.243Z</time>
      </trkpt>
      <trkpt lat="47.0262" lon="8.93021">
        <ele>954</ele>
        <time>2021-08-03T08:38:07.242Z</time>
      </trkpt>
      <trkpt lat="47.02621" lon="8.9302">
        <ele>953</ele>
        <time>2021-08-03T08:38:08.242Z</time>
      </trkpt>
      <trkpt lat="47.02622" lon="8.93019">
        <ele>952</ele>
        <time>2021-08-03T08:38:09.243Z</time>
      </trkpt>
      <trkpt lat="47.02623" lon="8.93018">
        <ele>952</ele>
        <time>2021-08-03T08:38:10.243Z</time>
      </trkpt>
      <trkpt lat="47.02623" lon="8.93017">
        <ele>952</ele>
        <time>2021-08-03T08:38:11.243Z</time>
      </trkpt>
      <trkpt lat="47.02623" lon="8.93015">
        <ele>952</ele>
        <time>2021-08-03T08:38:12.243Z</time>
      </trkpt>
      <trkpt lat="47.02623" lon="8.93012">
        <ele>952</ele>
        <time>2021-08-03T08:38:13.242Z</time>
      </trkpt>
      <trkpt lat="47.02623" lon="8.9301">
        <ele>952</ele>
        <time>2021-08-03T08:38:14.243Z</time>
      </trkpt>
      <trkpt lat="47.02624" lon="8.93008">
        <ele>952</ele>
        <time>2021-08-03T08:38:15.242Z</time>
      </trkpt>
      <trkpt lat="47.02624" lon="8.93006">
        <ele>951</ele>
        <time>2021-08-03T08:38:16.242Z</time>
      </trkpt>
      <trkpt lat="47.02624" lon="8.93004">
        <ele>952</ele>
        <time>2021-08-03T08:38:17.243Z</time>
      </trkpt>
      <trkpt lat="47.02624" lon="8.93003">
        <ele>952</ele>
        <time>2021-08-03T08:38:18.243Z</time>
      </trkpt>
      <trkpt lat="47.02625" lon="8.93001">
        <ele>952</ele>
        <time>2021-08-03T08:38:19.243Z</time>
      </trkpt>
      <trkpt lat="47.02625" lon="8.92999">
        <ele>952</ele>
        <time>2021-08-03T08:38:20.242Z</time>
      </trkpt>
      <trkpt lat="47.02625" lon="8.92997">
        <ele>953</ele>
        <time>2021-08-03T08:38:21.243Z</time>
      </trkpt>
      <trkpt lat="47.02626" lon="8.92995">
        <ele>953</ele>
        <time>2021-08-03T08:38:22.243Z</time>
      </trkpt>
      <trkpt lat="47.02626" lon="8.92994">
        <ele>953</ele>
        <time>2021-08-03T08:38:23.243Z</time>
      </trkpt>
      <trkpt lat="47.02626" lon="8.92992">
        <ele>953</ele>
        <time>2021-08-03T08:38:24.243Z</time>
      </trkpt>
      <trkpt lat="47.02626" lon="8.9299">
        <ele>953</ele>
        <time>2021-08-03T08:38:25.242Z</time>
      </trkpt>
      <trkpt lat="47.02626" lon="8.92987">
        <ele>953</ele>
        <time>2021-08-03T08:38:26.242Z</time>
      </trkpt>
      <trkpt lat="47.02627" lon="8.92986">
        <ele>952</ele>
        <time>2021-08-03T08:38:27.242Z</time>
      </trkpt>
      <trkpt lat="47.02627" lon="8.92984">
        <ele>952</ele>
        <time>2021-08-03T08:38:28.242Z</time>
      </trkpt>
      <trkpt lat="47.02628" lon="8.92983">
        <ele>952</ele>
        <time>2021-08-03T08:38:29.242Z</time>
      </trkpt>
      <trkpt lat="47.02628" lon="8.92981">
        <ele>952</ele>
        <time>2021-08-03T08:38:30.242Z</time>
      </trkpt>
      <trkpt lat="47.02628" lon="8.9298">
        <ele>952</ele>
        <time>2021-08-03T08:38:31.243Z</time>
      </trkpt>
      <trkpt lat="47.02629" lon="8.92979">
        <ele>952</ele>
        <time>2021-08-03T08:38:32.242Z</time>
      </trkpt>
      <trkpt lat="47.02629" lon="8.92977">
        <ele>952</ele>
        <time>2021-08-03T08:38:33.242Z</time>
      </trkpt>
      <trkpt lat="47.0263" lon="8.92976">
        <ele>953</ele>
        <time>2021-08-03T08:38:34.243Z</time>
      </trkpt>
      <trkpt lat="47.0263" lon="8.92974">
        <ele>953</ele>
        <time>2021-08-03T08:38:35.242Z</time>
      </trkpt>
      <trkpt lat="47.0263" lon="8.92973">
        <ele>953</ele>
        <time>2021-08-03T08:38:36.242Z</time>
      </trkpt>
      <trkpt lat="47.02629" lon="8.92971">
        <ele>953</ele>
        <time>2021-08-03T08:38:37.242Z</time>
      </trkpt>
      <trkpt lat="47.02629" lon="8.92969">
        <ele>954</ele>
        <time>2021-08-03T08:38:38.242Z</time>
      </trkpt>
      <trkpt lat="47.02629" lon="8.92968">
        <ele>954</ele>
        <time>2021-08-03T08:38:39.242Z</time>
      </trkpt>
      <trkpt lat="47.02629" lon="8.92967">
        <ele>955</ele>
        <time>2021-08-03T08:38:40.243Z</time>
      </trkpt>
      <trkpt lat="47.0263" lon="8.92966">
        <ele>955</ele>
        <time>2021-08-03T08:38:41.242Z</time>
      </trkpt>
      <trkpt lat="47.02629" lon="8.92965">
        <ele>955</ele>
        <time>2021-08-03T08:38:42.242Z</time>
      </trkpt>
      <trkpt lat="47.0263" lon="8.92963">
        <ele>956</ele>
        <time>2021-08-03T08:38:43.242Z</time>
      </trkpt>
      <trkpt lat="47.0263" lon="8.92962">
        <ele>956</ele>
        <time>2021-08-03T08:38:44.242Z</time>
      </trkpt>
      <trkpt lat="47.0263" lon="8.92961">
        <ele>956</ele>
        <time>2021-08-03T08:38:45.242Z</time>
      </trkpt>
      <trkpt lat="47.02629" lon="8.92959">
        <ele>957</ele>
        <time>2021-08-03T08:38:46.243Z</time>
      </trkpt>
      <trkpt lat="47.02629" lon="8.92957">
        <ele>957</ele>
        <time>2021-08-03T08:38:47.243Z</time>
      </trkpt>
      <trkpt lat="47.02629" lon="8.92956">
        <ele>957</ele>
        <time>2021-08-03T08:38:48.242Z</time>
      </trkpt>
      <trkpt lat="47.0263" lon="8.92954">
        <ele>957</ele>
        <time>2021-08-03T08:38:49.242Z</time>
      </trkpt>
      <trkpt lat="47.0263" lon="8.92954">
        <ele>957</ele>
        <time>2021-08-03T08:38:50.243Z</time>
      </trkpt>
      <trkpt lat="47.0263" lon="8.92953">
        <ele>957</ele>
        <time>2021-08-03T08:38:51.243Z</time>
      </trkpt>
      <trkpt lat="47.0263" lon="8.92952">
        <ele>957</ele>
        <time>2021-08-03T08:38:52.243Z</time>
      </trkpt>
      <trkpt lat="47.0263" lon="8.92951">
        <ele>957</ele>
        <time>2021-08-03T08:38:53.242Z</time>
      </trkpt>
      <trkpt lat="47.0263" lon="8.92949">
        <ele>957</ele>
        <time>2021-08-03T08:38:54.243Z</time>
      </trkpt>
      <trkpt lat="47.02631" lon="8.92947">
        <ele>957</ele>
        <time>2021-08-03T08:38:55.243Z</time>
      </trkpt>
      <trkpt lat="47.02631" lon="8.92946">
        <ele>957</ele>
        <time>2021-08-03T08:38:56.242Z</time>
      </trkpt>
      <trkpt lat="47.02631" lon="8.92945">
        <ele>957</ele>
        <time>2021-08-03T08:38:57.243Z</time>
      </trkpt>
      <trkpt lat="47.02632" lon="8.92944">
        <ele>957</ele>
        <time>2021-08-03T08:38:58.242Z</time>
      </trkpt>
      <trkpt lat="47.02631" lon="8.92942">
        <ele>957</ele>
        <time>2021-08-03T08:38:59.243Z</time>
      </trkpt>
      <trkpt lat="47.02631" lon="8.92941">
        <ele>957</ele>
        <time>2021-08-03T08:39:00.243Z</time>
      </trkpt>
      <trkpt lat="47.02632" lon="8.9294">
        <ele>957</ele>
        <time>2021-08-03T08:39:01.243Z</time>
      </trkpt>
      <trkpt lat="47.02632" lon="8.92938">
        <ele>958</ele>
        <time>2021-08-03T08:39:02.243Z</time>
      </trkpt>
      <trkpt lat="47.02632" lon="8.92937">
        <ele>958</ele>
        <time>2021-08-03T08:39:03.242Z</time>
      </trkpt>
      <trkpt lat="47.02632" lon="8.92936">
        <ele>958</ele>
        <time>2021-08-03T08:39:04.243Z</time>
      </trkpt>
      <trkpt lat="47.02632" lon="8.92934">
        <ele>957</ele>
        <time>2021-08-03T08:39:05.243Z</time>
      </trkpt>
      <trkpt lat="47.02632" lon="8.92933">
        <ele>957</ele>
        <time>2021-08-03T08:39:06.243Z</time>
      </trkpt>
      <trkpt lat="47.02632" lon="8.92931">
        <ele>956</ele>
        <time>2021-08-03T08:39:07.243Z</time>
      </trkpt>
      <trkpt lat="47.02633" lon="8.9293">
        <ele>956</ele>
        <time>2021-08-03T08:39:08.243Z</time>
      </trkpt>
      <trkpt lat="47.02633" lon="8.92929">
        <ele>956</ele>
        <time>2021-08-03T08:39:09.243Z</time>
      </trkpt>
      <trkpt lat="47.02634" lon="8.92928">
        <ele>956</ele>
        <time>2021-08-03T08:39:10.242Z</time>
      </trkpt>
      <trkpt lat="47.02633" lon="8.92926">
        <ele>957</ele>
        <time>2021-08-03T08:39:11.242Z</time>
      </trkpt>
      <trkpt lat="47.02633" lon="8.92924">
        <ele>957</ele>
        <time>2021-08-03T08:39:12.242Z</time>
      </trkpt>
      <trkpt lat="47.02633" lon="8.92923">
        <ele>957</ele>
        <time>2021-08-03T08:39:13.243Z</time>
      </trkpt>
      <trkpt lat="47.02633" lon="8.92921">
        <ele>957</ele>
        <time>2021-08-03T08:39:14.243Z</time>
      </trkpt>
      <trkpt lat="47.02633" lon="8.9292">
        <ele>957</ele>
        <time>2021-08-03T08:39:15.243Z</time>
      </trkpt>
      <trkpt lat="47.02633" lon="8.92919">
        <ele>957</ele>
        <time>2021-08-03T08:39:16.242Z</time>
      </trkpt>
      <trkpt lat="47.02633" lon="8.92917">
        <ele>957</ele>
        <time>2021-08-03T08:39:17.242Z</time>
      </trkpt>
      <trkpt lat="47.02633" lon="8.92915">
        <ele>957</ele>
        <time>2021-08-03T08:39:18.242Z</time>
      </trkpt>
      <trkpt lat="47.02633" lon="8.92913">
        <ele>957</ele>
        <time>2021-08-03T08:39:19.243Z</time>
      </trkpt>
      <trkpt lat="47.02632" lon="8.92912">
        <ele>958</ele>
        <time>2021-08-03T08:39:20.243Z</time>
      </trkpt>
      <trkpt lat="47.02632" lon="8.9291">
        <ele>958</ele>
        <time>2021-08-03T08:39:21.242Z</time>
      </trkpt>
      <trkpt lat="47.02632" lon="8.92909">
        <ele>957</ele>
        <time>2021-08-03T08:39:22.243Z</time>
      </trkpt>
      <trkpt lat="47.02632" lon="8.92908">
        <ele>957</ele>
        <time>2021-08-03T08:39:23.242Z</time>
      </trkpt>
      <trkpt lat="47.02632" lon="8.92906">
        <ele>957</ele>
        <time>2021-08-03T08:39:24.242Z</time>
      </trkpt>
      <trkpt lat="47.02632" lon="8.92905">
        <ele>957</ele>
        <time>2021-08-03T08:39:25.242Z</time>
      </trkpt>
      <trkpt lat="47.02632" lon="8.92903">
        <ele>957</ele>
        <time>2021-08-03T08:39:26.243Z</time>
      </trkpt>
      <trkpt lat="47.02632" lon="8.92901">
        <ele>957</ele>
        <time>2021-08-03T08:39:27.242Z</time>
      </trkpt>
      <trkpt lat="47.02632" lon="8.929">
        <ele>957</ele>
        <time>2021-08-03T08:39:28.243Z</time>
      </trkpt>
      <trkpt lat="47.02633" lon="8.92899">
        <ele>958</ele>
        <time>2021-08-03T08:39:29.243Z</time>
      </trkpt>
      <trkpt lat="47.02633" lon="8.92897">
        <ele>958</ele>
        <time>2021-08-03T08:39:30.243Z</time>
      </trkpt>
      <trkpt lat="47.02633" lon="8.92896">
        <ele>959</ele>
        <time>2021-08-03T08:39:31.243Z</time>
      </trkpt>
      <trkpt lat="47.02634" lon="8.92895">
        <ele>959</ele>
        <time>2021-08-03T08:39:32.243Z</time>
      </trkpt>
      <trkpt lat="47.02634" lon="8.92893">
        <ele>959</ele>
        <time>2021-08-03T08:39:33.243Z</time>
      </trkpt>
      <trkpt lat="47.02634" lon="8.92892">
        <ele>959</ele>
        <time>2021-08-03T08:39:34.242Z</time>
      </trkpt>
      <trkpt lat="47.02634" lon="8.92891">
        <ele>959</ele>
        <time>2021-08-03T08:39:35.242Z</time>
      </trkpt>
      <trkpt lat="47.02634" lon="8.92889">
        <ele>958</ele>
        <time>2021-08-03T08:39:36.242Z</time>
      </trkpt>
      <trkpt lat="47.02634" lon="8.92888">
        <ele>958</ele>
        <time>2021-08-03T08:39:37.242Z</time>
      </trkpt>
      <trkpt lat="47.02634" lon="8.92887">
        <ele>959</ele>
        <time>2021-08-03T08:39:38.242Z</time>
      </trkpt>
      <trkpt lat="47.02634" lon="8.92885">
        <ele>959</ele>
        <time>2021-08-03T08:39:39.242Z</time>
      </trkpt>
      <trkpt lat="47.02634" lon="8.92884">
        <ele>959</ele>
        <time>2021-08-03T08:39:40.243Z</time>
      </trkpt>
      <trkpt lat="47.02633" lon="8.92884">
        <ele>959</ele>
        <time>2021-08-03T08:39:41.242Z</time>
      </trkpt>
      <trkpt lat="47.02633" lon="8.92884">
        <ele>959</ele>
        <time>2021-08-03T08:39:42.243Z</time>
      </trkpt>
      <trkpt lat="47.02633" lon="8.92885">
        <ele>967</ele>
        <time>2021-08-03T08:39:43.244Z</time>
      </trkpt>
      <trkpt lat="47.02632" lon="8.92887">
        <ele>965</ele>
        <time>2021-08-03T08:39:44.244Z</time>
      </trkpt>
      <trkpt lat="47.02632" lon="8.92887">
        <ele>965</ele>
        <time>2021-08-03T08:39:45.244Z</time>
      </trkpt>
      <trkpt lat="47.02632" lon="8.92887">
        <ele>964</ele>
        <time>2021-08-03T08:39:46.244Z</time>
      </trkpt>
      <trkpt lat="47.0263" lon="8.92891">
        <ele>964</ele>
        <time>2021-08-03T08:39:47.244Z</time>
      </trkpt>
      <trkpt lat="47.0263" lon="8.92893">
        <ele>963</ele>
        <time>2021-08-03T08:39:48.243Z</time>
      </trkpt>
      <trkpt lat="47.02629" lon="8.92895">
        <ele>963</ele>
        <time>2021-08-03T08:39:49.243Z</time>
      </trkpt>
      <trkpt lat="47.02629" lon="8.92896">
        <ele>962</ele>
        <time>2021-08-03T08:39:50.244Z</time>
      </trkpt>
      <trkpt lat="47.02629" lon="8.92898">
        <ele>962</ele>
        <time>2021-08-03T08:39:51.244Z</time>
      </trkpt>
      <trkpt lat="47.02629" lon="8.92899">
        <ele>961</ele>
        <time>2021-08-03T08:39:52.243Z</time>
      </trkpt>
      <trkpt lat="47.02629" lon="8.929">
        <ele>961</ele>
        <time>2021-08-03T08:39:53.243Z</time>
      </trkpt>
      <trkpt lat="47.02629" lon="8.929">
        <ele>961</ele>
        <time>2021-08-03T08:39:54.244Z</time>
      </trkpt>
      <trkpt lat="47.0263" lon="8.92901">
        <ele>961</ele>
        <time>2021-08-03T08:39:55.244Z</time>
      </trkpt>
      <trkpt lat="47.0263" lon="8.92903">
        <ele>961</ele>
        <time>2021-08-03T08:39:56.243Z</time>
      </trkpt>
      <trkpt lat="47.0263" lon="8.92905">
        <ele>961</ele>
        <time>2021-08-03T08:39:57.244Z</time>
      </trkpt>
      <trkpt lat="47.0263" lon="8.92906">
        <ele>961</ele>
        <time>2021-08-03T08:39:58.243Z</time>
      </trkpt>
      <trkpt lat="47.0263" lon="8.92907">
        <ele>961</ele>
        <time>2021-08-03T08:39:59.244Z</time>
      </trkpt>
      <trkpt lat="47.0263" lon="8.92909">
        <ele>961</ele>
        <time>2021-08-03T08:40:00.243Z</time>
      </trkpt>
      <trkpt lat="47.0263" lon="8.9291">
        <ele>961</ele>
        <time>2021-08-03T08:40:01.243Z</time>
      </trkpt>
      <trkpt lat="47.0263" lon="8.92912">
        <ele>961</ele>
        <time>2021-08-03T08:40:02.243Z</time>
      </trkpt>
      <trkpt lat="47.0263" lon="8.92913">
        <ele>961</ele>
        <time>2021-08-03T08:40:03.244Z</time>
      </trkpt>
      <trkpt lat="47.0263" lon="8.92914">
        <ele>961</ele>
        <time>2021-08-03T08:40:04.244Z</time>
      </trkpt>
      <trkpt lat="47.0263" lon="8.92916">
        <ele>962</ele>
        <time>2021-08-03T08:40:05.243Z</time>
      </trkpt>
      <trkpt lat="47.0263" lon="8.92917">
        <ele>962</ele>
        <time>2021-08-03T08:40:06.243Z</time>
      </trkpt>
      <trkpt lat="47.0263" lon="8.92918">
        <ele>962</ele>
        <time>2021-08-03T08:40:07.243Z</time>
      </trkpt>
      <trkpt lat="47.0263" lon="8.9292">
        <ele>962</ele>
        <time>2021-08-03T08:40:08.243Z</time>
      </trkpt>
      <trkpt lat="47.0263" lon="8.92921">
        <ele>962</ele>
        <time>2021-08-03T08:40:09.243Z</time>
      </trkpt>
      <trkpt lat="47.02629" lon="8.92922">
        <ele>961</ele>
        <time>2021-08-03T08:40:10.244Z</time>
      </trkpt>
      <trkpt lat="47.02629" lon="8.92923">
        <ele>961</ele>
        <time>2021-08-03T08:40:11.243Z</time>
      </trkpt>
      <trkpt lat="47.02629" lon="8.92925">
        <ele>961</ele>
        <time>2021-08-03T08:40:12.244Z</time>
      </trkpt>
      <trkpt lat="47.02629" lon="8.92927">
        <ele>961</ele>
        <time>2021-08-03T08:40:13.244Z</time>
      </trkpt>
      <trkpt lat="47.02629" lon="8.92928">
        <ele>961</ele>
        <time>2021-08-03T08:40:14.244Z</time>
      </trkpt>
      <trkpt lat="47.02629" lon="8.9293">
        <ele>960</ele>
        <time>2021-08-03T08:40:15.243Z</time>
      </trkpt>
      <trkpt lat="47.02629" lon="8.92931">
        <ele>960</ele>
        <time>2021-08-03T08:40:16.243Z</time>
      </trkpt>
      <trkpt lat="47.02629" lon="8.92933">
        <ele>959</ele>
        <time>2021-08-03T08:40:17.243Z</time>
      </trkpt>
      <trkpt lat="47.02629" lon="8.92935">
        <ele>958</ele>
        <time>2021-08-03T08:40:18.243Z</time>
      </trkpt>
      <trkpt lat="47.02629" lon="8.92937">
        <ele>957</ele>
        <time>2021-08-03T08:40:19.243Z</time>
      </trkpt>
      <trkpt lat="47.02629" lon="8.92938">
        <ele>957</ele>
        <time>2021-08-03T08:40:20.243Z</time>
      </trkpt>
      <trkpt lat="47.02628" lon="8.92939">
        <ele>956</ele>
        <time>2021-08-03T08:40:21.243Z</time>
      </trkpt>
      <trkpt lat="47.02628" lon="8.92941">
        <ele>955</ele>
        <time>2021-08-03T08:40:22.243Z</time>
      </trkpt>
      <trkpt lat="47.02628" lon="8.92943">
        <ele>955</ele>
        <time>2021-08-03T08:40:23.243Z</time>
      </trkpt>
      <trkpt lat="47.02628" lon="8.92944">
        <ele>955</ele>
        <time>2021-08-03T08:40:24.243Z</time>
      </trkpt>
      <trkpt lat="47.02627" lon="8.92946">
        <ele>955</ele>
        <time>2021-08-03T08:40:25.243Z</time>
      </trkpt>
      <trkpt lat="47.02627" lon="8.92948">
        <ele>955</ele>
        <time>2021-08-03T08:40:26.243Z</time>
      </trkpt>
      <trkpt lat="47.02627" lon="8.9295">
        <ele>955</ele>
        <time>2021-08-03T08:40:27.244Z</time>
      </trkpt>
      <trkpt lat="47.02627" lon="8.92953">
        <ele>956</ele>
        <time>2021-08-03T08:40:28.243Z</time>
      </trkpt>
      <trkpt lat="47.02627" lon="8.92954">
        <ele>956</ele>
        <time>2021-08-03T08:40:29.244Z</time>
      </trkpt>
      <trkpt lat="47.02627" lon="8.92956">
        <ele>956</ele>
        <time>2021-08-03T08:40:30.243Z</time>
      </trkpt>
      <trkpt lat="47.02627" lon="8.92957">
        <ele>956</ele>
        <time>2021-08-03T08:40:31.244Z</time>
      </trkpt>
      <trkpt lat="47.02626" lon="8.92958">
        <ele>955</ele>
        <time>2021-08-03T08:40:32.244Z</time>
      </trkpt>
      <trkpt lat="47.02626" lon="8.9296">
        <ele>955</ele>
        <time>2021-08-03T08:40:33.244Z</time>
      </trkpt>
      <trkpt lat="47.02626" lon="8.92961">
        <ele>955</ele>
        <time>2021-08-03T08:40:34.244Z</time>
      </trkpt>
      <trkpt lat="47.02626" lon="8.92963">
        <ele>955</ele>
        <time>2021-08-03T08:40:35.244Z</time>
      </trkpt>
      <trkpt lat="47.02625" lon="8.92965">
        <ele>955</ele>
        <time>2021-08-03T08:40:36.244Z</time>
      </trkpt>
      <trkpt lat="47.02625" lon="8.92966">
        <ele>954</ele>
        <time>2021-08-03T08:40:37.243Z</time>
      </trkpt>
      <trkpt lat="47.02625" lon="8.92967">
        <ele>954</ele>
        <time>2021-08-03T08:40:38.244Z</time>
      </trkpt>
      <trkpt lat="47.02625" lon="8.92969">
        <ele>953</ele>
        <time>2021-08-03T08:40:39.244Z</time>
      </trkpt>
      <trkpt lat="47.02625" lon="8.92971">
        <ele>952</ele>
        <time>2021-08-03T08:40:40.244Z</time>
      </trkpt>
      <trkpt lat="47.02625" lon="8.92972">
        <ele>951</ele>
        <time>2021-08-03T08:40:41.244Z</time>
      </trkpt>
      <trkpt lat="47.02625" lon="8.92974">
        <ele>951</ele>
        <time>2021-08-03T08:40:42.244Z</time>
      </trkpt>
      <trkpt lat="47.02625" lon="8.92975">
        <ele>950</ele>
        <time>2021-08-03T08:40:43.244Z</time>
      </trkpt>
      <trkpt lat="47.02625" lon="8.92977">
        <ele>949</ele>
        <time>2021-08-03T08:40:44.243Z</time>
      </trkpt>
      <trkpt lat="47.02625" lon="8.92978">
        <ele>949</ele>
        <time>2021-08-03T08:40:45.244Z</time>
      </trkpt>
      <trkpt lat="47.02625" lon="8.9298">
        <ele>948</ele>
        <time>2021-08-03T08:40:46.244Z</time>
      </trkpt>
      <trkpt lat="47.02624" lon="8.92982">
        <ele>948</ele>
        <time>2021-08-03T08:40:47.243Z</time>
      </trkpt>
      <trkpt lat="47.02624" lon="8.92984">
        <ele>948</ele>
        <time>2021-08-03T08:40:48.244Z</time>
      </trkpt>
      <trkpt lat="47.02624" lon="8.92986">
        <ele>948</ele>
        <time>2021-08-03T08:40:49.243Z</time>
      </trkpt>
      <trkpt lat="47.02624" lon="8.92988">
        <ele>948</ele>
        <time>2021-08-03T08:40:50.244Z</time>
      </trkpt>
      <trkpt lat="47.02624" lon="8.9299">
        <ele>948</ele>
        <time>2021-08-03T08:40:51.243Z</time>
      </trkpt>
      <trkpt lat="47.02624" lon="8.92991">
        <ele>948</ele>
        <time>2021-08-03T08:40:52.244Z</time>
      </trkpt>
      <trkpt lat="47.02623" lon="8.92994">
        <ele>947</ele>
        <time>2021-08-03T08:40:53.243Z</time>
      </trkpt>
      <trkpt lat="47.02623" lon="8.92996">
        <ele>947</ele>
        <time>2021-08-03T08:40:54.244Z</time>
      </trkpt>
      <trkpt lat="47.02623" lon="8.92998">
        <ele>947</ele>
        <time>2021-08-03T08:40:55.244Z</time>
      </trkpt>
      <trkpt lat="47.02623" lon="8.93">
        <ele>947</ele>
        <time>2021-08-03T08:40:56.244Z</time>
      </trkpt>
      <trkpt lat="47.02622" lon="8.93002">
        <ele>947</ele>
        <time>2021-08-03T08:40:57.243Z</time>
      </trkpt>
      <trkpt lat="47.02622" lon="8.93003">
        <ele>947</ele>
        <time>2021-08-03T08:40:58.243Z</time>
      </trkpt>
      <trkpt lat="47.02622" lon="8.93005">
        <ele>947</ele>
        <time>2021-08-03T08:40:59.243Z</time>
      </trkpt>
      <trkpt lat="47.02622" lon="8.93008">
        <ele>946</ele>
        <time>2021-08-03T08:41:00.244Z</time>
      </trkpt>
      <trkpt lat="47.02622" lon="8.93009">
        <ele>946</ele>
        <time>2021-08-03T08:41:01.244Z</time>
      </trkpt>
      <trkpt lat="47.02622" lon="8.93011">
        <ele>946</ele>
        <time>2021-08-03T08:41:02.244Z</time>
      </trkpt>
      <trkpt lat="47.02622" lon="8.93013">
        <ele>946</ele>
        <time>2021-08-03T08:41:03.243Z</time>
      </trkpt>
      <trkpt lat="47.02622" lon="8.93015">
        <ele>947</ele>
        <time>2021-08-03T08:41:04.244Z</time>
      </trkpt>
      <trkpt lat="47.02622" lon="8.93016">
        <ele>947</ele>
        <time>2021-08-03T08:41:05.244Z</time>
      </trkpt>
      <trkpt lat="47.02622" lon="8.93018">
        <ele>947</ele>
        <time>2021-08-03T08:41:06.244Z</time>
      </trkpt>
      <trkpt lat="47.02622" lon="8.93019">
        <ele>948</ele>
        <time>2021-08-03T08:41:07.244Z</time>
      </trkpt>
      <trkpt lat="47.02622" lon="8.93021">
        <ele>948</ele>
        <time>2021-08-03T08:41:08.244Z</time>
      </trkpt>
      <trkpt lat="47.02622" lon="8.93023">
        <ele>948</ele>
        <time>2021-08-03T08:41:09.243Z</time>
      </trkpt>
      <trkpt lat="47.02622" lon="8.93025">
        <ele>948</ele>
        <time>2021-08-03T08:41:10.243Z</time>
      </trkpt>
      <trkpt lat="47.02622" lon="8.93026">
        <ele>948</ele>
        <time>2021-08-03T08:41:11.244Z</time>
      </trkpt>
      <trkpt lat="47.02621" lon="8.93028">
        <ele>949</ele>
        <time>2021-08-03T08:41:12.244Z</time>
      </trkpt>
      <trkpt lat="47.02622" lon="8.93029">
        <ele>949</ele>
        <time>2021-08-03T08:41:13.244Z</time>
      </trkpt>
      <trkpt lat="47.02622" lon="8.93031">
        <ele>950</ele>
        <time>2021-08-03T08:41:14.244Z</time>
      </trkpt>
      <trkpt lat="47.02623" lon="8.93032">
        <ele>950</ele>
        <time>2021-08-03T08:41:15.244Z</time>
      </trkpt>
      <trkpt lat="47.02623" lon="8.93034">
        <ele>951</ele>
        <time>2021-08-03T08:41:16.243Z</time>
      </trkpt>
      <trkpt lat="47.02624" lon="8.93035">
        <ele>951</ele>
        <time>2021-08-03T08:41:17.244Z</time>
      </trkpt>
      <trkpt lat="47.02625" lon="8.93036">
        <ele>952</ele>
        <time>2021-08-03T08:41:18.243Z</time>
      </trkpt>
      <trkpt lat="47.02626" lon="8.93037">
        <ele>952</ele>
        <time>2021-08-03T08:41:19.244Z</time>
      </trkpt>
      <trkpt lat="47.02626" lon="8.93038">
        <ele>953</ele>
        <time>2021-08-03T08:41:20.243Z</time>
      </trkpt>
      <trkpt lat="47.02627" lon="8.93038">
        <ele>953</ele>
        <time>2021-08-03T08:41:21.244Z</time>
      </trkpt>
      <trkpt lat="47.02628" lon="8.93038">
        <ele>953</ele>
        <time>2021-08-03T08:41:22.244Z</time>
      </trkpt>
      <trkpt lat="47.02629" lon="8.93038">
        <ele>953</ele>
        <time>2021-08-03T08:41:23.244Z</time>
      </trkpt>
      <trkpt lat="47.0263" lon="8.93038">
        <ele>953</ele>
        <time>2021-08-03T08:41:24.243Z</time>
      </trkpt>
      <trkpt lat="47.02631" lon="8.93039">
        <ele>953</ele>
        <time>2021-08-03T08:41:25.244Z</time>
      </trkpt>
      <trkpt lat="47.02631" lon="8.93039">
        <ele>953</ele>
        <time>2021-08-03T08:41:26.244Z</time>
      </trkpt>
      <trkpt lat="47.02632" lon="8.93039">
        <ele>954</ele>
        <time>2021-08-03T08:41:27.243Z</time>
      </trkpt>
      <trkpt lat="47.02633" lon="8.93038">
        <ele>954</ele>
        <time>2021-08-03T08:41:28.244Z</time>
      </trkpt>
      <trkpt lat="47.02633" lon="8.93036">
        <ele>954</ele>
        <time>2021-08-03T08:41:29.244Z</time>
      </trkpt>
      <trkpt lat="47.02634" lon="8.93036">
        <ele>953</ele>
        <time>2021-08-03T08:41:30.244Z</time>
      </trkpt>
      <trkpt lat="47.02633" lon="8.93035">
        <ele>953</ele>
        <time>2021-08-03T08:41:31.243Z</time>
      </trkpt>
      <trkpt lat="47.02633" lon="8.93034">
        <ele>953</ele>
        <time>2021-08-03T08:41:32.244Z</time>
      </trkpt>
      <trkpt lat="47.02632" lon="8.93032">
        <ele>952</ele>
        <time>2021-08-03T08:41:33.244Z</time>
      </trkpt>
      <trkpt lat="47.02632" lon="8.93032">
        <ele>952</ele>
        <time>2021-08-03T08:41:34.244Z</time>
      </trkpt>
      <trkpt lat="47.02632" lon="8.93032">
        <ele>953</ele>
        <time>2021-08-03T08:41:35.244Z</time>
      </trkpt>
      <trkpt lat="47.02632" lon="8.93031">
        <ele>954</ele>
        <time>2021-08-03T08:41:36.243Z</time>
      </trkpt>
      <trkpt lat="47.02632" lon="8.93031">
        <ele>956</ele>
        <time>2021-08-03T08:41:37.243Z</time>
      </trkpt>
      <trkpt lat="47.02633" lon="8.93031">
        <ele>962</ele>
        <time>2021-08-03T08:41:38.244Z</time>
      </trkpt>
      <trkpt lat="47.02634" lon="8.93031">
        <ele>963</ele>
        <time>2021-08-03T08:41:39.245Z</time>
      </trkpt>
      <trkpt lat="47.02634" lon="8.93031">
        <ele>963</ele>
        <time>2021-08-03T08:41:40.245Z</time>
      </trkpt>
      <trkpt lat="47.02634" lon="8.93031">
        <ele>963</ele>
        <time>2021-08-03T08:41:41.244Z</time>
      </trkpt>
      <trkpt lat="47.02635" lon="8.93032">
        <ele>963</ele>
        <time>2021-08-03T08:41:42.245Z</time>
      </trkpt>
      <trkpt lat="47.02635" lon="8.93032">
        <ele>957</ele>
        <time>2021-08-03T08:41:43.245Z</time>
      </trkpt>
      <trkpt lat="47.02636" lon="8.93033">
        <ele>957</ele>
        <time>2021-08-03T08:41:44.246Z</time>
      </trkpt>
      <trkpt lat="47.02636" lon="8.93032">
        <ele>956</ele>
        <time>2021-08-03T08:41:45.246Z</time>
      </trkpt>
      <trkpt lat="47.02636" lon="8.93031">
        <ele>956</ele>
        <time>2021-08-03T08:41:46.246Z</time>
      </trkpt>
      <trkpt lat="47.02636" lon="8.93031">
        <ele>955</ele>
        <time>2021-08-03T08:41:47.245Z</time>
      </trkpt>
      <trkpt lat="47.02637" lon="8.9303">
        <ele>954</ele>
        <time>2021-08-03T08:41:48.245Z</time>
      </trkpt>
      <trkpt lat="47.02637" lon="8.93029">
        <ele>954</ele>
        <time>2021-08-03T08:41:49.246Z</time>
      </trkpt>
      <trkpt lat="47.02637" lon="8.93028">
        <ele>954</ele>
        <time>2021-08-03T08:41:50.246Z</time>
      </trkpt>
      <trkpt lat="47.02637" lon="8.93027">
        <ele>953</ele>
        <time>2021-08-03T08:41:51.245Z</time>
      </trkpt>
      <trkpt lat="47.02637" lon="8.93026">
        <ele>953</ele>
        <time>2021-08-03T08:41:52.245Z</time>
      </trkpt>
      <trkpt lat="47.02637" lon="8.93026">
        <ele>953</ele>
        <time>2021-08-03T08:41:53.246Z</time>
      </trkpt>
      <trkpt lat="47.02638" lon="8.93024">
        <ele>953</ele>
        <time>2021-08-03T08:41:54.245Z</time>
      </trkpt>
      <trkpt lat="47.02638" lon="8.93024">
        <ele>953</ele>
        <time>2021-08-03T08:41:55.246Z</time>
      </trkpt>
      <trkpt lat="47.02639" lon="8.93023">
        <ele>953</ele>
        <time>2021-08-03T08:41:56.246Z</time>
      </trkpt>
      <trkpt lat="47.02639" lon="8.93022">
        <ele>953</ele>
        <time>2021-08-03T08:41:57.246Z</time>
      </trkpt>
      <trkpt lat="47.02639" lon="8.93021">
        <ele>953</ele>
        <time>2021-08-03T08:41:58.245Z</time>
      </trkpt>
      <trkpt lat="47.02639" lon="8.93021">
        <ele>953</ele>
        <time>2021-08-03T08:41:59.246Z</time>
      </trkpt>
      <trkpt lat="47.02639" lon="8.93021">
        <ele>953</ele>
        <time>2021-08-03T08:42:00.246Z</time>
      </trkpt>
      <trkpt lat="47.02639" lon="8.93019">
        <ele>956</ele>
        <time>2021-08-03T08:42:01.245Z</time>
      </trkpt>
      <trkpt lat="47.0264" lon="8.93018">
        <ele>956</ele>
        <time>2021-08-03T08:42:02.245Z</time>
      </trkpt>
      <trkpt lat="47.0264" lon="8.93019">
        <ele>956</ele>
        <time>2021-08-03T08:42:03.245Z</time>
      </trkpt>
      <trkpt lat="47.0264" lon="8.93019">
        <ele>955</ele>
        <time>2021-08-03T08:42:04.245Z</time>
      </trkpt>
      <trkpt lat="47.0264" lon="8.93019">
        <ele>954</ele>
        <time>2021-08-03T08:42:05.245Z</time>
      </trkpt>
      <trkpt lat="47.0264" lon="8.93018">
        <ele>954</ele>
        <time>2021-08-03T08:42:06.245Z</time>
      </trkpt>
      <trkpt lat="47.0264" lon="8.93017">
        <ele>953</ele>
        <time>2021-08-03T08:42:07.246Z</time>
      </trkpt>
      <trkpt lat="47.0264" lon="8.93016">
        <ele>953</ele>
        <time>2021-08-03T08:42:08.245Z</time>
      </trkpt>
      <trkpt lat="47.0264" lon="8.93015">
        <ele>953</ele>
        <time>2021-08-03T08:42:09.246Z</time>
      </trkpt>
      <trkpt lat="47.0264" lon="8.93014">
        <ele>953</ele>
        <time>2021-08-03T08:42:10.245Z</time>
      </trkpt>
      <trkpt lat="47.02641" lon="8.93012">
        <ele>953</ele>
        <time>2021-08-03T08:42:11.245Z</time>
      </trkpt>
      <trkpt lat="47.02641" lon="8.93011">
        <ele>953</ele>
        <time>2021-08-03T08:42:12.245Z</time>
      </trkpt>
      <trkpt lat="47.02641" lon="8.9301">
        <ele>953</ele>
        <time>2021-08-03T08:42:13.245Z</time>
      </trkpt>
      <trkpt lat="47.02641" lon="8.93009">
        <ele>953</ele>
        <time>2021-08-03T08:42:14.245Z</time>
      </trkpt>
      <trkpt lat="47.02641" lon="8.93008">
        <ele>953</ele>
        <time>2021-08-03T08:42:15.245Z</time>
      </trkpt>
      <trkpt lat="47.02642" lon="8.93007">
        <ele>954</ele>
        <time>2021-08-03T08:42:16.246Z</time>
      </trkpt>
      <trkpt lat="47.02642" lon="8.93005">
        <ele>954</ele>
        <time>2021-08-03T08:42:17.245Z</time>
      </trkpt>
      <trkpt lat="47.02643" lon="8.93004">
        <ele>954</ele>
        <time>2021-08-03T08:42:18.245Z</time>
      </trkpt>
      <trkpt lat="47.02643" lon="8.93003">
        <ele>954</ele>
        <time>2021-08-03T08:42:19.245Z</time>
      </trkpt>
      <trkpt lat="47.02644" lon="8.93002">
        <ele>954</ele>
        <time>2021-08-03T08:42:20.246Z</time>
      </trkpt>
      <trkpt lat="47.02644" lon="8.93001">
        <ele>954</ele>
        <time>2021-08-03T08:42:21.245Z</time>
      </trkpt>
      <trkpt lat="47.02644" lon="8.93">
        <ele>954</ele>
        <time>2021-08-03T08:42:22.245Z</time>
      </trkpt>
      <trkpt lat="47.02644" lon="8.92999">
        <ele>955</ele>
        <time>2021-08-03T08:42:23.245Z</time>
      </trkpt>
      <trkpt lat="47.02644" lon="8.92997">
        <ele>955</ele>
        <time>2021-08-03T08:42:24.245Z</time>
      </trkpt>
      <trkpt lat="47.02644" lon="8.92996">
        <ele>955</ele>
        <time>2021-08-03T08:42:25.245Z</time>
      </trkpt>
      <trkpt lat="47.02644" lon="8.92995">
        <ele>955</ele>
        <time>2021-08-03T08:42:26.245Z</time>
      </trkpt>
      <trkpt lat="47.02644" lon="8.92994">
        <ele>955</ele>
        <time>2021-08-03T08:42:27.245Z</time>
      </trkpt>
      <trkpt lat="47.02644" lon="8.92993">
        <ele>955</ele>
        <time>2021-08-03T08:42:28.245Z</time>
      </trkpt>
      <trkpt lat="47.02644" lon="8.92992">
        <ele>955</ele>
        <time>2021-08-03T08:42:29.245Z</time>
      </trkpt>
      <trkpt lat="47.02644" lon="8.92991">
        <ele>955</ele>
        <time>2021-08-03T08:42:30.245Z</time>
      </trkpt>
      <trkpt lat="47.02645" lon="8.9299">
        <ele>955</ele>
        <time>2021-08-03T08:42:31.246Z</time>
      </trkpt>
      <trkpt lat="47.02645" lon="8.92989">
        <ele>955</ele>
        <time>2021-08-03T08:42:32.246Z</time>
      </trkpt>
      <trkpt lat="47.02645" lon="8.92987">
        <ele>955</ele>
        <time>2021-08-03T08:42:33.245Z</time>
      </trkpt>
      <trkpt lat="47.02645" lon="8.92987">
        <ele>955</ele>
        <time>2021-08-03T08:42:34.245Z</time>
      </trkpt>
      <trkpt lat="47.02645" lon="8.92985">
        <ele>955</ele>
        <time>2021-08-03T08:42:35.245Z</time>
      </trkpt>
      <trkpt lat="47.02646" lon="8.92984">
        <ele>954</ele>
        <time>2021-08-03T08:42:36.245Z</time>
      </trkpt>
      <trkpt lat="47.02646" lon="8.92983">
        <ele>954</ele>
        <time>2021-08-03T08:42:37.245Z</time>
      </trkpt>
      <trkpt lat="47.02647" lon="8.92982">
        <ele>955</ele>
        <time>2021-08-03T08:42:38.245Z</time>
      </trkpt>
      <trkpt lat="47.02647" lon="8.92981">
        <ele>955</ele>
        <time>2021-08-03T08:42:39.245Z</time>
      </trkpt>
      <trkpt lat="47.02647" lon="8.9298">
        <ele>955</ele>
        <time>2021-08-03T08:42:40.245Z</time>
      </trkpt>
      <trkpt lat="47.02647" lon="8.92979">
        <ele>955</ele>
        <time>2021-08-03T08:42:41.245Z</time>
      </trkpt>
      <trkpt lat="47.02648" lon="8.92977">
        <ele>955</ele>
        <time>2021-08-03T08:42:42.246Z</time>
      </trkpt>
      <trkpt lat="47.02648" lon="8.92977">
        <ele>955</ele>
        <time>2021-08-03T08:42:43.246Z</time>
      </trkpt>
      <trkpt lat="47.02649" lon="8.92975">
        <ele>955</ele>
        <time>2021-08-03T08:42:44.245Z</time>
      </trkpt>
      <trkpt lat="47.02649" lon="8.92974">
        <ele>955</ele>
        <time>2021-08-03T08:42:45.245Z</time>
      </trkpt>
      <trkpt lat="47.02649" lon="8.92973">
        <ele>955</ele>
        <time>2021-08-03T08:42:46.245Z</time>
      </trkpt>
      <trkpt lat="47.02649" lon="8.92972">
        <ele>955</ele>
        <time>2021-08-03T08:42:47.245Z</time>
      </trkpt>
      <trkpt lat="47.02649" lon="8.92971">
        <ele>955</ele>
        <time>2021-08-03T08:42:48.245Z</time>
      </trkpt>
      <trkpt lat="47.0265" lon="8.9297">
        <ele>955</ele>
        <time>2021-08-03T08:42:49.245Z</time>
      </trkpt>
      <trkpt lat="47.0265" lon="8.92969">
        <ele>955</ele>
        <time>2021-08-03T08:42:50.245Z</time>
      </trkpt>
      <trkpt lat="47.02651" lon="8.92968">
        <ele>955</ele>
        <time>2021-08-03T08:42:51.245Z</time>
      </trkpt>
      <trkpt lat="47.02651" lon="8.92968">
        <ele>954</ele>
        <time>2021-08-03T08:42:52.245Z</time>
      </trkpt>
      <trkpt lat="47.02652" lon="8.92966">
        <ele>954</ele>
        <time>2021-08-03T08:42:53.246Z</time>
      </trkpt>
      <trkpt lat="47.02652" lon="8.92965">
        <ele>954</ele>
        <time>2021-08-03T08:42:54.245Z</time>
      </trkpt>
      <trkpt lat="47.02652" lon="8.92964">
        <ele>955</ele>
        <time>2021-08-03T08:42:55.245Z</time>
      </trkpt>
      <trkpt lat="47.02653" lon="8.92963">
        <ele>955</ele>
        <time>2021-08-03T08:42:56.246Z</time>
      </trkpt>
      <trkpt lat="47.02653" lon="8.92962">
        <ele>955</ele>
        <time>2021-08-03T08:42:57.245Z</time>
      </trkpt>
      <trkpt lat="47.02654" lon="8.92961">
        <ele>955</ele>
        <time>2021-08-03T08:42:58.245Z</time>
      </trkpt>
      <trkpt lat="47.02655" lon="8.9296">
        <ele>956</ele>
        <time>2021-08-03T08:42:59.246Z</time>
      </trkpt>
      <trkpt lat="47.02655" lon="8.92959">
        <ele>957</ele>
        <time>2021-08-03T08:43:00.245Z</time>
      </trkpt>
      <trkpt lat="47.02656" lon="8.92958">
        <ele>957</ele>
        <time>2021-08-03T08:43:01.245Z</time>
      </trkpt>
      <trkpt lat="47.02657" lon="8.92957">
        <ele>958</ele>
        <time>2021-08-03T08:43:02.245Z</time>
      </trkpt>
      <trkpt lat="47.02657" lon="8.92955">
        <ele>958</ele>
        <time>2021-08-03T08:43:03.245Z</time>
      </trkpt>
      <trkpt lat="47.02657" lon="8.92954">
        <ele>958</ele>
        <time>2021-08-03T08:43:04.245Z</time>
      </trkpt>
      <trkpt lat="47.02658" lon="8.92953">
        <ele>958</ele>
        <time>2021-08-03T08:43:05.245Z</time>
      </trkpt>
      <trkpt lat="47.02658" lon="8.92952">
        <ele>958</ele>
        <time>2021-08-03T08:43:06.245Z</time>
      </trkpt>
      <trkpt lat="47.02658" lon="8.92951">
        <ele>958</ele>
        <time>2021-08-03T08:43:07.246Z</time>
      </trkpt>
      <trkpt lat="47.02659" lon="8.9295">
        <ele>958</ele>
        <time>2021-08-03T08:43:08.245Z</time>
      </trkpt>
      <trkpt lat="47.02659" lon="8.92948">
        <ele>958</ele>
        <time>2021-08-03T08:43:09.245Z</time>
      </trkpt>
      <trkpt lat="47.02659" lon="8.92947">
        <ele>958</ele>
        <time>2021-08-03T08:43:10.245Z</time>
      </trkpt>
      <trkpt lat="47.02659" lon="8.92946">
        <ele>959</ele>
        <time>2021-08-03T08:43:11.245Z</time>
      </trkpt>
      <trkpt lat="47.0266" lon="8.92945">
        <ele>959</ele>
        <time>2021-08-03T08:43:12.246Z</time>
      </trkpt>
      <trkpt lat="47.0266" lon="8.92944">
        <ele>960</ele>
        <time>2021-08-03T08:43:13.245Z</time>
      </trkpt>
      <trkpt lat="47.0266" lon="8.92943">
        <ele>960</ele>
        <time>2021-08-03T08:43:14.246Z</time>
      </trkpt>
      <trkpt lat="47.0266" lon="8.92942">
        <ele>961</ele>
        <time>2021-08-03T08:43:15.245Z</time>
      </trkpt>
      <trkpt lat="47.0266" lon="8.92941">
        <ele>962</ele>
        <time>2021-08-03T08:43:16.246Z</time>
      </trkpt>
      <trkpt lat="47.0266" lon="8.9294">
        <ele>962</ele>
        <time>2021-08-03T08:43:17.245Z</time>
      </trkpt>
      <trkpt lat="47.0266" lon="8.92939">
        <ele>963</ele>
        <time>2021-08-03T08:43:18.245Z</time>
      </trkpt>
      <trkpt lat="47.02659" lon="8.92938">
        <ele>963</ele>
        <time>2021-08-03T08:43:19.246Z</time>
      </trkpt>
      <trkpt lat="47.02659" lon="8.92938">
        <ele>963</ele>
        <time>2021-08-03T08:43:20.245Z</time>
      </trkpt>
      <trkpt lat="47.02659" lon="8.92937">
        <ele>964</ele>
        <time>2021-08-03T08:43:21.245Z</time>
      </trkpt>
      <trkpt lat="47.02659" lon="8.92936">
        <ele>964</ele>
        <time>2021-08-03T08:43:22.245Z</time>
      </trkpt>
      <trkpt lat="47.02659" lon="8.92935">
        <ele>964</ele>
        <time>2021-08-03T08:43:23.245Z</time>
      </trkpt>
      <trkpt lat="47.02659" lon="8.92934">
        <ele>965</ele>
        <time>2021-08-03T08:43:24.245Z</time>
      </trkpt>
      <trkpt lat="47.02659" lon="8.92933">
        <ele>964</ele>
        <time>2021-08-03T08:43:25.245Z</time>
      </trkpt>
      <trkpt lat="47.02659" lon="8.92933">
        <ele>964</ele>
        <time>2021-08-03T08:43:26.245Z</time>
      </trkpt>
      <trkpt lat="47.02659" lon="8.92932">
        <ele>964</ele>
        <time>2021-08-03T08:43:27.245Z</time>
      </trkpt>
      <trkpt lat="47.02659" lon="8.92931">
        <ele>963</ele>
        <time>2021-08-03T08:43:28.245Z</time>
      </trkpt>
      <trkpt lat="47.02659" lon="8.92931">
        <ele>964</ele>
        <time>2021-08-03T08:43:29.245Z</time>
      </trkpt>
      <trkpt lat="47.02659" lon="8.92929">
        <ele>963</ele>
        <time>2021-08-03T08:43:30.245Z</time>
      </trkpt>
      <trkpt lat="47.02658" lon="8.92928">
        <ele>963</ele>
        <time>2021-08-03T08:43:31.246Z</time>
      </trkpt>
      <trkpt lat="47.02658" lon="8.92928">
        <ele>963</ele>
        <time>2021-08-03T08:43:32.245Z</time>
      </trkpt>
      <trkpt lat="47.02658" lon="8.92927">
        <ele>962</ele>
        <time>2021-08-03T08:43:33.245Z</time>
      </trkpt>
      <trkpt lat="47.02658" lon="8.92927">
        <ele>962</ele>
        <time>2021-08-03T08:43:34.246Z</time>
      </trkpt>
      <trkpt lat="47.02658" lon="8.92926">
        <ele>962</ele>
        <time>2021-08-03T08:43:35.245Z</time>
      </trkpt>
      <trkpt lat="47.02658" lon="8.92925">
        <ele>962</ele>
        <time>2021-08-03T08:43:36.246Z</time>
      </trkpt>
      <trkpt lat="47.02658" lon="8.92924">
        <ele>962</ele>
        <time>2021-08-03T08:43:37.246Z</time>
      </trkpt>
      <trkpt lat="47.02657" lon="8.92923">
        <ele>962</ele>
        <time>2021-08-03T08:43:38.246Z</time>
      </trkpt>
      <trkpt lat="47.02657" lon="8.92922">
        <ele>962</ele>
        <time>2021-08-03T08:43:39.246Z</time>
      </trkpt>
      <trkpt lat="47.02657" lon="8.92922">
        <ele>962</ele>
        <time>2021-08-03T08:43:40.245Z</time>
      </trkpt>
      <trkpt lat="47.02658" lon="8.92921">
        <ele>962</ele>
        <time>2021-08-03T08:43:41.246Z</time>
      </trkpt>
      <trkpt lat="47.02658" lon="8.9292">
        <ele>962</ele>
        <time>2021-08-03T08:43:42.245Z</time>
      </trkpt>
      <trkpt lat="47.02658" lon="8.92919">
        <ele>962</ele>
        <time>2021-08-03T08:43:43.245Z</time>
      </trkpt>
      <trkpt lat="47.02657" lon="8.92919">
        <ele>963</ele>
        <time>2021-08-03T08:43:44.245Z</time>
      </trkpt>
      <trkpt lat="47.02657" lon="8.92917">
        <ele>963</ele>
        <time>2021-08-03T08:43:45.245Z</time>
      </trkpt>
      <trkpt lat="47.02657" lon="8.92917">
        <ele>964</ele>
        <time>2021-08-03T08:43:46.245Z</time>
      </trkpt>
      <trkpt lat="47.02657" lon="8.92916">
        <ele>964</ele>
        <time>2021-08-03T08:43:47.245Z</time>
      </trkpt>
      <trkpt lat="47.02657" lon="8.92915">
        <ele>964</ele>
        <time>2021-08-03T08:43:48.245Z</time>
      </trkpt>
      <trkpt lat="47.02656" lon="8.92914">
        <ele>964</ele>
        <time>2021-08-03T08:43:49.245Z</time>
      </trkpt>
      <trkpt lat="47.02656" lon="8.92914">
        <ele>964</ele>
        <time>2021-08-03T08:43:50.245Z</time>
      </trkpt>
      <trkpt lat="47.02656" lon="8.92912">
        <ele>964</ele>
        <time>2021-08-03T08:43:51.245Z</time>
      </trkpt>
      <trkpt lat="47.02657" lon="8.92912">
        <ele>965</ele>
        <time>2021-08-03T08:43:52.245Z</time>
      </trkpt>
      <trkpt lat="47.02657" lon="8.92911">
        <ele>965</ele>
        <time>2021-08-03T08:43:53.245Z</time>
      </trkpt>
      <trkpt lat="47.02657" lon="8.9291">
        <ele>965</ele>
        <time>2021-08-03T08:43:54.245Z</time>
      </trkpt>
      <trkpt lat="47.02657" lon="8.92909">
        <ele>965</ele>
        <time>2021-08-03T08:43:55.246Z</time>
      </trkpt>
      <trkpt lat="47.02657" lon="8.92909">
        <ele>965</ele>
        <time>2021-08-03T08:43:56.245Z</time>
      </trkpt>
      <trkpt lat="47.02657" lon="8.92908">
        <ele>966</ele>
        <time>2021-08-03T08:43:57.245Z</time>
      </trkpt>
      <trkpt lat="47.02657" lon="8.92908">
        <ele>966</ele>
        <time>2021-08-03T08:43:58.245Z</time>
      </trkpt>
      <trkpt lat="47.02657" lon="8.92906">
        <ele>967</ele>
        <time>2021-08-03T08:43:59.247Z</time>
      </trkpt>
      <trkpt lat="47.02657" lon="8.92905">
        <ele>967</ele>
        <time>2021-08-03T08:44:00.246Z</time>
      </trkpt>
      <trkpt lat="47.02657" lon="8.92903">
        <ele>968</ele>
        <time>2021-08-03T08:44:01.247Z</time>
      </trkpt>
      <trkpt lat="47.02658" lon="8.92902">
        <ele>968</ele>
        <time>2021-08-03T08:44:02.246Z</time>
      </trkpt>
      <trkpt lat="47.02658" lon="8.92902">
        <ele>968</ele>
        <time>2021-08-03T08:44:03.246Z</time>
      </trkpt>
      <trkpt lat="47.02659" lon="8.92901">
        <ele>968</ele>
        <time>2021-08-03T08:44:04.247Z</time>
      </trkpt>
      <trkpt lat="47.0266" lon="8.929">
        <ele>969</ele>
        <time>2021-08-03T08:44:05.247Z</time>
      </trkpt>
      <trkpt lat="47.0266" lon="8.92899">
        <ele>969</ele>
        <time>2021-08-03T08:44:06.247Z</time>
      </trkpt>
      <trkpt lat="47.0266" lon="8.92899">
        <ele>969</ele>
        <time>2021-08-03T08:44:07.247Z</time>
      </trkpt>
      <trkpt lat="47.02661" lon="8.92899">
        <ele>970</ele>
        <time>2021-08-03T08:44:08.246Z</time>
      </trkpt>
      <trkpt lat="47.02661" lon="8.92899">
        <ele>970</ele>
        <time>2021-08-03T08:44:09.246Z</time>
      </trkpt>
      <trkpt lat="47.02661" lon="8.92899">
        <ele>970</ele>
        <time>2021-08-03T08:44:10.247Z</time>
      </trkpt>
      <trkpt lat="47.02661" lon="8.92898">
        <ele>970</ele>
        <time>2021-08-03T08:44:11.247Z</time>
      </trkpt>
      <trkpt lat="47.02661" lon="8.92898">
        <ele>970</ele>
        <time>2021-08-03T08:44:12.247Z</time>
      </trkpt>
      <trkpt lat="47.02662" lon="8.92897">
        <ele>970</ele>
        <time>2021-08-03T08:44:13.246Z</time>
      </trkpt>
      <trkpt lat="47.02662" lon="8.92897">
        <ele>970</ele>
        <time>2021-08-03T08:44:14.247Z</time>
      </trkpt>
      <trkpt lat="47.02662" lon="8.92896">
        <ele>970</ele>
        <time>2021-08-03T08:44:15.247Z</time>
      </trkpt>
      <trkpt lat="47.02663" lon="8.92895">
        <ele>969</ele>
        <time>2021-08-03T08:44:16.246Z</time>
      </trkpt>
      <trkpt lat="47.02664" lon="8.92895">
        <ele>969</ele>
        <time>2021-08-03T08:44:17.247Z</time>
      </trkpt>
      <trkpt lat="47.02664" lon="8.92894">
        <ele>968</ele>
        <time>2021-08-03T08:44:18.246Z</time>
      </trkpt>
      <trkpt lat="47.02665" lon="8.92893">
        <ele>968</ele>
        <time>2021-08-03T08:44:19.247Z</time>
      </trkpt>
      <trkpt lat="47.02665" lon="8.92893">
        <ele>968</ele>
        <time>2021-08-03T08:44:20.246Z</time>
      </trkpt>
      <trkpt lat="47.02666" lon="8.92892">
        <ele>967</ele>
        <time>2021-08-03T08:44:21.246Z</time>
      </trkpt>
      <trkpt lat="47.02666" lon="8.92891">
        <ele>968</ele>
        <time>2021-08-03T08:44:22.247Z</time>
      </trkpt>
      <trkpt lat="47.02666" lon="8.92891">
        <ele>967</ele>
        <time>2021-08-03T08:44:23.247Z</time>
      </trkpt>
      <trkpt lat="47.02667" lon="8.92891">
        <ele>967</ele>
        <time>2021-08-03T08:44:24.247Z</time>
      </trkpt>
      <trkpt lat="47.02668" lon="8.9289">
        <ele>968</ele>
        <time>2021-08-03T08:44:25.247Z</time>
      </trkpt>
      <trkpt lat="47.02668" lon="8.92889">
        <ele>968</ele>
        <time>2021-08-03T08:44:26.247Z</time>
      </trkpt>
      <trkpt lat="47.02669" lon="8.92888">
        <ele>969</ele>
        <time>2021-08-03T08:44:27.247Z</time>
      </trkpt>
      <trkpt lat="47.02669" lon="8.92887">
        <ele>969</ele>
        <time>2021-08-03T08:44:28.246Z</time>
      </trkpt>
      <trkpt lat="47.0267" lon="8.92886">
        <ele>969</ele>
        <time>2021-08-03T08:44:29.247Z</time>
      </trkpt>
      <trkpt lat="47.0267" lon="8.92885">
        <ele>969</ele>
        <time>2021-08-03T08:44:30.247Z</time>
      </trkpt>
      <trkpt lat="47.02671" lon="8.92884">
        <ele>969</ele>
        <time>2021-08-03T08:44:31.247Z</time>
      </trkpt>
      <trkpt lat="47.02672" lon="8.92884">
        <ele>970</ele>
        <time>2021-08-03T08:44:32.247Z</time>
      </trkpt>
      <trkpt lat="47.02673" lon="8.92884">
        <ele>970</ele>
        <time>2021-08-03T08:44:33.246Z</time>
      </trkpt>
      <trkpt lat="47.02674" lon="8.92883">
        <ele>971</ele>
        <time>2021-08-03T08:44:34.247Z</time>
      </trkpt>
      <trkpt lat="47.02675" lon="8.92882">
        <ele>972</ele>
        <time>2021-08-03T08:44:35.247Z</time>
      </trkpt>
      <trkpt lat="47.02676" lon="8.92881">
        <ele>972</ele>
        <time>2021-08-03T08:44:36.247Z</time>
      </trkpt>
      <trkpt lat="47.02676" lon="8.9288">
        <ele>973</ele>
        <time>2021-08-03T08:44:37.247Z</time>
      </trkpt>
      <trkpt lat="47.02677" lon="8.92879">
        <ele>973</ele>
        <time>2021-08-03T08:44:38.247Z</time>
      </trkpt>
      <trkpt lat="47.02678" lon="8.92878">
        <ele>973</ele>
        <time>2021-08-03T08:44:39.247Z</time>
      </trkpt>
      <trkpt lat="47.02679" lon="8.92877">
        <ele>974</ele>
        <time>2021-08-03T08:44:40.247Z</time>
      </trkpt>
      <trkpt lat="47.0268" lon="8.92875">
        <ele>974</ele>
        <time>2021-08-03T08:44:41.246Z</time>
      </trkpt>
      <trkpt lat="47.02681" lon="8.92874">
        <ele>975</ele>
        <time>2021-08-03T08:44:42.247Z</time>
      </trkpt>
      <trkpt lat="47.02682" lon="8.92873">
        <ele>975</ele>
        <time>2021-08-03T08:44:43.247Z</time>
      </trkpt>
      <trkpt lat="47.02683" lon="8.92872">
        <ele>975</ele>
        <time>2021-08-03T08:44:44.247Z</time>
      </trkpt>
      <trkpt lat="47.02683" lon="8.92871">
        <ele>975</ele>
        <time>2021-08-03T08:44:45.247Z</time>
      </trkpt>
      <trkpt lat="47.02684" lon="8.9287">
        <ele>975</ele>
        <time>2021-08-03T08:44:46.246Z</time>
      </trkpt>
      <trkpt lat="47.02685" lon="8.92868">
        <ele>975</ele>
        <time>2021-08-03T08:44:47.247Z</time>
      </trkpt>
      <trkpt lat="47.02686" lon="8.92867">
        <ele>975</ele>
        <time>2021-08-03T08:44:48.247Z</time>
      </trkpt>
      <trkpt lat="47.02686" lon="8.92866">
        <ele>976</ele>
        <time>2021-08-03T08:44:49.247Z</time>
      </trkpt>
      <trkpt lat="47.02686" lon="8.92864">
        <ele>976</ele>
        <time>2021-08-03T08:44:50.246Z</time>
      </trkpt>
      <trkpt lat="47.02686" lon="8.92863">
        <ele>976</ele>
        <time>2021-08-03T08:44:51.247Z</time>
      </trkpt>
      <trkpt lat="47.02687" lon="8.92862">
        <ele>976</ele>
        <time>2021-08-03T08:44:52.246Z</time>
      </trkpt>
      <trkpt lat="47.02688" lon="8.92861">
        <ele>976</ele>
        <time>2021-08-03T08:44:53.247Z</time>
      </trkpt>
      <trkpt lat="47.02689" lon="8.9286">
        <ele>976</ele>
        <time>2021-08-03T08:44:54.247Z</time>
      </trkpt>
      <trkpt lat="47.0269" lon="8.92859">
        <ele>976</ele>
        <time>2021-08-03T08:44:55.247Z</time>
      </trkpt>
      <trkpt lat="47.02691" lon="8.92858">
        <ele>976</ele>
        <time>2021-08-03T08:44:56.246Z</time>
      </trkpt>
      <trkpt lat="47.02691" lon="8.92857">
        <ele>976</ele>
        <time>2021-08-03T08:44:57.247Z</time>
      </trkpt>
      <trkpt lat="47.02692" lon="8.92856">
        <ele>977</ele>
        <time>2021-08-03T08:44:58.246Z</time>
      </trkpt>
      <trkpt lat="47.02693" lon="8.92854">
        <ele>977</ele>
        <time>2021-08-03T08:44:59.247Z</time>
      </trkpt>
      <trkpt lat="47.02693" lon="8.92853">
        <ele>977</ele>
        <time>2021-08-03T08:45:00.247Z</time>
      </trkpt>
      <trkpt lat="47.02694" lon="8.92852">
        <ele>976</ele>
        <time>2021-08-03T08:45:01.246Z</time>
      </trkpt>
      <trkpt lat="47.02694" lon="8.92851">
        <ele>976</ele>
        <time>2021-08-03T08:45:02.247Z</time>
      </trkpt>
      <trkpt lat="47.02695" lon="8.9285">
        <ele>976</ele>
        <time>2021-08-03T08:45:03.247Z</time>
      </trkpt>
      <trkpt lat="47.02695" lon="8.92848">
        <ele>976</ele>
        <time>2021-08-03T08:45:04.247Z</time>
      </trkpt>
      <trkpt lat="47.02695" lon="8.92847">
        <ele>976</ele>
        <time>2021-08-03T08:45:05.247Z</time>
      </trkpt>
      <trkpt lat="47.02696" lon="8.92846">
        <ele>976</ele>
        <time>2021-08-03T08:45:06.247Z</time>
      </trkpt>
      <trkpt lat="47.02697" lon="8.92845">
        <ele>976</ele>
        <time>2021-08-03T08:45:07.247Z</time>
      </trkpt>
      <trkpt lat="47.02697" lon="8.92844">
        <ele>977</ele>
        <time>2021-08-03T08:45:08.247Z</time>
      </trkpt>
      <trkpt lat="47.02697" lon="8.92843">
        <ele>977</ele>
        <time>2021-08-03T08:45:09.247Z</time>
      </trkpt>
      <trkpt lat="47.02697" lon="8.92841">
        <ele>977</ele>
        <time>2021-08-03T08:45:10.247Z</time>
      </trkpt>
      <trkpt lat="47.02698" lon="8.9284">
        <ele>977</ele>
        <time>2021-08-03T08:45:11.246Z</time>
      </trkpt>
      <trkpt lat="47.02698" lon="8.92839">
        <ele>977</ele>
        <time>2021-08-03T08:45:12.247Z</time>
      </trkpt>
      <trkpt lat="47.02699" lon="8.92838">
        <ele>976</ele>
        <time>2021-08-03T08:45:13.247Z</time>
      </trkpt>
      <trkpt lat="47.02699" lon="8.92836">
        <ele>976</ele>
        <time>2021-08-03T08:45:14.247Z</time>
      </trkpt>
      <trkpt lat="47.027" lon="8.92835">
        <ele>976</ele>
        <time>2021-08-03T08:45:15.247Z</time>
      </trkpt>
      <trkpt lat="47.02701" lon="8.92834">
        <ele>976</ele>
        <time>2021-08-03T08:45:16.247Z</time>
      </trkpt>
      <trkpt lat="47.02701" lon="8.92833">
        <ele>976</ele>
        <time>2021-08-03T08:45:17.247Z</time>
      </trkpt>
      <trkpt lat="47.02701" lon="8.92831">
        <ele>977</ele>
        <time>2021-08-03T08:45:18.246Z</time>
      </trkpt>
      <trkpt lat="47.02702" lon="8.9283">
        <ele>978</ele>
        <time>2021-08-03T08:45:19.247Z</time>
      </trkpt>
      <trkpt lat="47.02702" lon="8.92829">
        <ele>979</ele>
        <time>2021-08-03T08:45:20.247Z</time>
      </trkpt>
      <trkpt lat="47.02703" lon="8.92828">
        <ele>980</ele>
        <time>2021-08-03T08:45:21.246Z</time>
      </trkpt>
      <trkpt lat="47.02703" lon="8.92827">
        <ele>981</ele>
        <time>2021-08-03T08:45:22.246Z</time>
      </trkpt>
      <trkpt lat="47.02703" lon="8.92826">
        <ele>982</ele>
        <time>2021-08-03T08:45:23.247Z</time>
      </trkpt>
      <trkpt lat="47.02704" lon="8.92825">
        <ele>983</ele>
        <time>2021-08-03T08:45:24.247Z</time>
      </trkpt>
      <trkpt lat="47.02704" lon="8.92824">
        <ele>983</ele>
        <time>2021-08-03T08:45:25.246Z</time>
      </trkpt>
      <trkpt lat="47.02704" lon="8.92823">
        <ele>983</ele>
        <time>2021-08-03T08:45:26.247Z</time>
      </trkpt>
      <trkpt lat="47.02704" lon="8.92822">
        <ele>983</ele>
        <time>2021-08-03T08:45:27.247Z</time>
      </trkpt>
      <trkpt lat="47.02704" lon="8.92821">
        <ele>984</ele>
        <time>2021-08-03T08:45:28.247Z</time>
      </trkpt>
      <trkpt lat="47.02705" lon="8.9282">
        <ele>984</ele>
        <time>2021-08-03T08:45:29.247Z</time>
      </trkpt>
      <trkpt lat="47.02706" lon="8.92819">
        <ele>984</ele>
        <time>2021-08-03T08:45:30.247Z</time>
      </trkpt>
      <trkpt lat="47.02707" lon="8.92818">
        <ele>984</ele>
        <time>2021-08-03T08:45:31.247Z</time>
      </trkpt>
      <trkpt lat="47.02707" lon="8.92817">
        <ele>984</ele>
        <time>2021-08-03T08:45:32.246Z</time>
      </trkpt>
      <trkpt lat="47.02708" lon="8.92816">
        <ele>984</ele>
        <time>2021-08-03T08:45:33.247Z</time>
      </trkpt>
      <trkpt lat="47.02708" lon="8.92815">
        <ele>984</ele>
        <time>2021-08-03T08:45:34.246Z</time>
      </trkpt>
      <trkpt lat="47.02708" lon="8.92814">
        <ele>984</ele>
        <time>2021-08-03T08:45:35.247Z</time>
      </trkpt>
      <trkpt lat="47.02709" lon="8.92813">
        <ele>984</ele>
        <time>2021-08-03T08:45:36.247Z</time>
      </trkpt>
      <trkpt lat="47.02709" lon="8.92813">
        <ele>984</ele>
        <time>2021-08-03T08:45:37.247Z</time>
      </trkpt>
      <trkpt lat="47.0271" lon="8.92812">
        <ele>984</ele>
        <time>2021-08-03T08:45:38.246Z</time>
      </trkpt>
      <trkpt lat="47.02709" lon="8.9281">
        <ele>984</ele>
        <time>2021-08-03T08:45:39.247Z</time>
      </trkpt>
      <trkpt lat="47.02709" lon="8.92809">
        <ele>983</ele>
        <time>2021-08-03T08:45:40.246Z</time>
      </trkpt>
      <trkpt lat="47.02709" lon="8.92808">
        <ele>983</ele>
        <time>2021-08-03T08:45:41.247Z</time>
      </trkpt>
      <trkpt lat="47.0271" lon="8.92807">
        <ele>982</ele>
        <time>2021-08-03T08:45:42.247Z</time>
      </trkpt>
      <trkpt lat="47.0271" lon="8.92806">
        <ele>982</ele>
        <time>2021-08-03T08:45:43.247Z</time>
      </trkpt>
      <trkpt lat="47.02711" lon="8.92804">
        <ele>981</ele>
        <time>2021-08-03T08:45:44.246Z</time>
      </trkpt>
      <trkpt lat="47.02711" lon="8.92803">
        <ele>981</ele>
        <time>2021-08-03T08:45:45.247Z</time>
      </trkpt>
      <trkpt lat="47.02712" lon="8.92802">
        <ele>980</ele>
        <time>2021-08-03T08:45:46.246Z</time>
      </trkpt>
      <trkpt lat="47.02713" lon="8.92802">
        <ele>979</ele>
        <time>2021-08-03T08:45:47.247Z</time>
      </trkpt>
      <trkpt lat="47.02713" lon="8.928">
        <ele>979</ele>
        <time>2021-08-03T08:45:48.246Z</time>
      </trkpt>
      <trkpt lat="47.02714" lon="8.92799">
        <ele>979</ele>
        <time>2021-08-03T08:45:49.246Z</time>
      </trkpt>
      <trkpt lat="47.02714" lon="8.92798">
        <ele>979</ele>
        <time>2021-08-03T08:45:50.246Z</time>
      </trkpt>
      <trkpt lat="47.02714" lon="8.92797">
        <ele>979</ele>
        <time>2021-08-03T08:45:51.246Z</time>
      </trkpt>
      <trkpt lat="47.02714" lon="8.92795">
        <ele>980</ele>
        <time>2021-08-03T08:45:52.247Z</time>
      </trkpt>
      <trkpt lat="47.02714" lon="8.92795">
        <ele>980</ele>
        <time>2021-08-03T08:45:53.246Z</time>
      </trkpt>
      <trkpt lat="47.02714" lon="8.92793">
        <ele>980</ele>
        <time>2021-08-03T08:45:54.246Z</time>
      </trkpt>
      <trkpt lat="47.02715" lon="8.92792">
        <ele>980</ele>
        <time>2021-08-03T08:45:55.247Z</time>
      </trkpt>
      <trkpt lat="47.02715" lon="8.92791">
        <ele>980</ele>
        <time>2021-08-03T08:45:56.247Z</time>
      </trkpt>
      <trkpt lat="47.02716" lon="8.9279">
        <ele>980</ele>
        <time>2021-08-03T08:45:57.246Z</time>
      </trkpt>
      <trkpt lat="47.02717" lon="8.92789">
        <ele>980</ele>
        <time>2021-08-03T08:45:58.247Z</time>
      </trkpt>
      <trkpt lat="47.02718" lon="8.92788">
        <ele>980</ele>
        <time>2021-08-03T08:45:59.247Z</time>
      </trkpt>
      <trkpt lat="47.02718" lon="8.92787">
        <ele>980</ele>
        <time>2021-08-03T08:46:00.247Z</time>
      </trkpt>
      <trkpt lat="47.02719" lon="8.92787">
        <ele>980</ele>
        <time>2021-08-03T08:46:01.246Z</time>
      </trkpt>
      <trkpt lat="47.0272" lon="8.92786">
        <ele>981</ele>
        <time>2021-08-03T08:46:02.246Z</time>
      </trkpt>
      <trkpt lat="47.02721" lon="8.92785">
        <ele>981</ele>
        <time>2021-08-03T08:46:03.246Z</time>
      </trkpt>
      <trkpt lat="47.02722" lon="8.92784">
        <ele>981</ele>
        <time>2021-08-03T08:46:04.246Z</time>
      </trkpt>
      <trkpt lat="47.02723" lon="8.92784">
        <ele>981</ele>
        <time>2021-08-03T08:46:05.246Z</time>
      </trkpt>
      <trkpt lat="47.02723" lon="8.92783">
        <ele>981</ele>
        <time>2021-08-03T08:46:06.246Z</time>
      </trkpt>
      <trkpt lat="47.02724" lon="8.92783">
        <ele>981</ele>
        <time>2021-08-03T08:46:07.247Z</time>
      </trkpt>
      <trkpt lat="47.02725" lon="8.92782">
        <ele>981</ele>
        <time>2021-08-03T08:46:08.247Z</time>
      </trkpt>
      <trkpt lat="47.02726" lon="8.92782">
        <ele>982</ele>
        <time>2021-08-03T08:46:09.246Z</time>
      </trkpt>
      <trkpt lat="47.02726" lon="8.92781">
        <ele>982</ele>
        <time>2021-08-03T08:46:10.246Z</time>
      </trkpt>
      <trkpt lat="47.02727" lon="8.92781">
        <ele>982</ele>
        <time>2021-08-03T08:46:11.246Z</time>
      </trkpt>
      <trkpt lat="47.02727" lon="8.92781">
        <ele>982</ele>
        <time>2021-08-03T08:46:12.247Z</time>
      </trkpt>
      <trkpt lat="47.02727" lon="8.9278">
        <ele>983</ele>
        <time>2021-08-03T08:46:13.246Z</time>
      </trkpt>
      <trkpt lat="47.02728" lon="8.9278">
        <ele>983</ele>
        <time>2021-08-03T08:46:14.247Z</time>
      </trkpt>
      <trkpt lat="47.02728" lon="8.92779">
        <ele>983</ele>
        <time>2021-08-03T08:46:15.247Z</time>
      </trkpt>
      <trkpt lat="47.02729" lon="8.92779">
        <ele>984</ele>
        <time>2021-08-03T08:46:16.247Z</time>
      </trkpt>
      <trkpt lat="47.0273" lon="8.92778">
        <ele>985</ele>
        <time>2021-08-03T08:46:17.247Z</time>
      </trkpt>
      <trkpt lat="47.02731" lon="8.92778">
        <ele>986</ele>
        <time>2021-08-03T08:46:18.247Z</time>
      </trkpt>
      <trkpt lat="47.02732" lon="8.92777">
        <ele>986</ele>
        <time>2021-08-03T08:46:19.246Z</time>
      </trkpt>
      <trkpt lat="47.02732" lon="8.92777">
        <ele>987</ele>
        <time>2021-08-03T08:46:20.247Z</time>
      </trkpt>
      <trkpt lat="47.02733" lon="8.92778">
        <ele>987</ele>
        <time>2021-08-03T08:46:21.247Z</time>
      </trkpt>
      <trkpt lat="47.02734" lon="8.92778">
        <ele>988</ele>
        <time>2021-08-03T08:46:22.247Z</time>
      </trkpt>
      <trkpt lat="47.02734" lon="8.92778">
        <ele>988</ele>
        <time>2021-08-03T08:46:23.246Z</time>
      </trkpt>
      <trkpt lat="47.02735" lon="8.92777">
        <ele>988</ele>
        <time>2021-08-03T08:46:24.247Z</time>
      </trkpt>
      <trkpt lat="47.02736" lon="8.92777">
        <ele>988</ele>
        <time>2021-08-03T08:46:25.247Z</time>
      </trkpt>
      <trkpt lat="47.02737" lon="8.92777">
        <ele>988</ele>
        <time>2021-08-03T08:46:26.246Z</time>
      </trkpt>
      <trkpt lat="47.02738" lon="8.92776">
        <ele>988</ele>
        <time>2021-08-03T08:46:27.246Z</time>
      </trkpt>
      <trkpt lat="47.02739" lon="8.92776">
        <ele>988</ele>
        <time>2021-08-03T08:46:28.247Z</time>
      </trkpt>
      <trkpt lat="47.0274" lon="8.92776">
        <ele>988</ele>
        <time>2021-08-03T08:46:29.247Z</time>
      </trkpt>
      <trkpt lat="47.0274" lon="8.92776">
        <ele>987</ele>
        <time>2021-08-03T08:46:30.247Z</time>
      </trkpt>
      <trkpt lat="47.02741" lon="8.92777">
        <ele>987</ele>
        <time>2021-08-03T08:46:31.246Z</time>
      </trkpt>
      <trkpt lat="47.02742" lon="8.92777">
        <ele>987</ele>
        <time>2021-08-03T08:46:32.247Z</time>
      </trkpt>
      <trkpt lat="47.02743" lon="8.92777">
        <ele>987</ele>
        <time>2021-08-03T08:46:33.246Z</time>
      </trkpt>
      <trkpt lat="47.02743" lon="8.92776">
        <ele>987</ele>
        <time>2021-08-03T08:46:34.247Z</time>
      </trkpt>
      <trkpt lat="47.02743" lon="8.92775">
        <ele>987</ele>
        <time>2021-08-03T08:46:35.246Z</time>
      </trkpt>
      <trkpt lat="47.02743" lon="8.92774">
        <ele>987</ele>
        <time>2021-08-03T08:46:36.246Z</time>
      </trkpt>
      <trkpt lat="47.02744" lon="8.92773">
        <ele>988</ele>
        <time>2021-08-03T08:46:37.247Z</time>
      </trkpt>
      <trkpt lat="47.02744" lon="8.92772">
        <ele>988</ele>
        <time>2021-08-03T08:46:38.246Z</time>
      </trkpt>
      <trkpt lat="47.02744" lon="8.92771">
        <ele>989</ele>
        <time>2021-08-03T08:46:39.247Z</time>
      </trkpt>
      <trkpt lat="47.02744" lon="8.9277">
        <ele>989</ele>
        <time>2021-08-03T08:46:40.247Z</time>
      </trkpt>
      <trkpt lat="47.02744" lon="8.92769">
        <ele>990</ele>
        <time>2021-08-03T08:46:41.247Z</time>
      </trkpt>
      <trkpt lat="47.02745" lon="8.92768">
        <ele>991</ele>
        <time>2021-08-03T08:46:42.246Z</time>
      </trkpt>
      <trkpt lat="47.02746" lon="8.92768">
        <ele>991</ele>
        <time>2021-08-03T08:46:43.247Z</time>
      </trkpt>
      <trkpt lat="47.02747" lon="8.92767">
        <ele>992</ele>
        <time>2021-08-03T08:46:44.247Z</time>
      </trkpt>
      <trkpt lat="47.02747" lon="8.92766">
        <ele>992</ele>
        <time>2021-08-03T08:46:45.246Z</time>
      </trkpt>
      <trkpt lat="47.02747" lon="8.92765">
        <ele>992</ele>
        <time>2021-08-03T08:46:46.247Z</time>
      </trkpt>
      <trkpt lat="47.02748" lon="8.92764">
        <ele>993</ele>
        <time>2021-08-03T08:46:47.247Z</time>
      </trkpt>
      <trkpt lat="47.02748" lon="8.92763">
        <ele>993</ele>
        <time>2021-08-03T08:46:48.247Z</time>
      </trkpt>
      <trkpt lat="47.02748" lon="8.92761">
        <ele>994</ele>
        <time>2021-08-03T08:46:49.247Z</time>
      </trkpt>
      <trkpt lat="47.02747" lon="8.9276">
        <ele>993</ele>
        <time>2021-08-03T08:46:50.246Z</time>
      </trkpt>
      <trkpt lat="47.02747" lon="8.92759">
        <ele>993</ele>
        <time>2021-08-03T08:46:51.246Z</time>
      </trkpt>
      <trkpt lat="47.02747" lon="8.92757">
        <ele>993</ele>
        <time>2021-08-03T08:46:52.247Z</time>
      </trkpt>
      <trkpt lat="47.02748" lon="8.92756">
        <ele>994</ele>
        <time>2021-08-03T08:46:53.247Z</time>
      </trkpt>
      <trkpt lat="47.02748" lon="8.92754">
        <ele>994</ele>
        <time>2021-08-03T08:46:54.246Z</time>
      </trkpt>
      <trkpt lat="47.02748" lon="8.92753">
        <ele>995</ele>
        <time>2021-08-03T08:46:55.247Z</time>
      </trkpt>
      <trkpt lat="47.02748" lon="8.92752">
        <ele>995</ele>
        <time>2021-08-03T08:46:56.247Z</time>
      </trkpt>
      <trkpt lat="47.02749" lon="8.92751">
        <ele>995</ele>
        <time>2021-08-03T08:46:57.246Z</time>
      </trkpt>
      <trkpt lat="47.02749" lon="8.92751">
        <ele>996</ele>
        <time>2021-08-03T08:46:58.247Z</time>
      </trkpt>
      <trkpt lat="47.02749" lon="8.9275">
        <ele>995</ele>
        <time>2021-08-03T08:46:59.247Z</time>
      </trkpt>
      <trkpt lat="47.0275" lon="8.92749">
        <ele>995</ele>
        <time>2021-08-03T08:47:00.246Z</time>
      </trkpt>
      <trkpt lat="47.0275" lon="8.92748">
        <ele>995</ele>
        <time>2021-08-03T08:47:01.247Z</time>
      </trkpt>
      <trkpt lat="47.02751" lon="8.92747">
        <ele>995</ele>
        <time>2021-08-03T08:47:02.246Z</time>
      </trkpt>
      <trkpt lat="47.02751" lon="8.92746">
        <ele>995</ele>
        <time>2021-08-03T08:47:03.247Z</time>
      </trkpt>
      <trkpt lat="47.02751" lon="8.92745">
        <ele>995</ele>
        <time>2021-08-03T08:47:04.246Z</time>
      </trkpt>
      <trkpt lat="47.02752" lon="8.92744">
        <ele>996</ele>
        <time>2021-08-03T08:47:05.247Z</time>
      </trkpt>
      <trkpt lat="47.02753" lon="8.92743">
        <ele>996</ele>
        <time>2021-08-03T08:47:06.246Z</time>
      </trkpt>
      <trkpt lat="47.02753" lon="8.92743">
        <ele>996</ele>
        <time>2021-08-03T08:47:07.247Z</time>
      </trkpt>
      <trkpt lat="47.02754" lon="8.92742">
        <ele>996</ele>
        <time>2021-08-03T08:47:08.247Z</time>
      </trkpt>
      <trkpt lat="47.02755" lon="8.92741">
        <ele>996</ele>
        <time>2021-08-03T08:47:09.247Z</time>
      </trkpt>
      <trkpt lat="47.02755" lon="8.9274">
        <ele>996</ele>
        <time>2021-08-03T08:47:10.247Z</time>
      </trkpt>
      <trkpt lat="47.02756" lon="8.92739">
        <ele>996</ele>
        <time>2021-08-03T08:47:11.247Z</time>
      </trkpt>
      <trkpt lat="47.02757" lon="8.92739">
        <ele>996</ele>
        <time>2021-08-03T08:47:12.247Z</time>
      </trkpt>
      <trkpt lat="47.02758" lon="8.92738">
        <ele>996</ele>
        <time>2021-08-03T08:47:13.247Z</time>
      </trkpt>
      <trkpt lat="47.02758" lon="8.92737">
        <ele>996</ele>
        <time>2021-08-03T08:47:14.246Z</time>
      </trkpt>
      <trkpt lat="47.02759" lon="8.92737">
        <ele>995</ele>
        <time>2021-08-03T08:47:15.246Z</time>
      </trkpt>
      <trkpt lat="47.02759" lon="8.92736">
        <ele>995</ele>
        <time>2021-08-03T08:47:16.246Z</time>
      </trkpt>
      <trkpt lat="47.02761" lon="8.92736">
        <ele>996</ele>
        <time>2021-08-03T08:47:17.246Z</time>
      </trkpt>
      <trkpt lat="47.02761" lon="8.92735">
        <ele>996</ele>
        <time>2021-08-03T08:47:18.246Z</time>
      </trkpt>
      <trkpt lat="47.02762" lon="8.92734">
        <ele>996</ele>
        <time>2021-08-03T08:47:19.247Z</time>
      </trkpt>
      <trkpt lat="47.02763" lon="8.92733">
        <ele>996</ele>
        <time>2021-08-03T08:47:20.247Z</time>
      </trkpt>
      <trkpt lat="47.02763" lon="8.92732">
        <ele>996</ele>
        <time>2021-08-03T08:47:21.246Z</time>
      </trkpt>
      <trkpt lat="47.02764" lon="8.92732">
        <ele>995</ele>
        <time>2021-08-03T08:47:22.247Z</time>
      </trkpt>
      <trkpt lat="47.02765" lon="8.92731">
        <ele>995</ele>
        <time>2021-08-03T08:47:23.247Z</time>
      </trkpt>
      <trkpt lat="47.02766" lon="8.92731">
        <ele>995</ele>
        <time>2021-08-03T08:47:24.247Z</time>
      </trkpt>
      <trkpt lat="47.02766" lon="8.9273">
        <ele>995</ele>
        <time>2021-08-03T08:47:25.247Z</time>
      </trkpt>
      <trkpt lat="47.02767" lon="8.92728">
        <ele>995</ele>
        <time>2021-08-03T08:47:26.246Z</time>
      </trkpt>
      <trkpt lat="47.02767" lon="8.92728">
        <ele>996</ele>
        <time>2021-08-03T08:47:27.246Z</time>
      </trkpt>
      <trkpt lat="47.02768" lon="8.92727">
        <ele>996</ele>
        <time>2021-08-03T08:47:28.247Z</time>
      </trkpt>
      <trkpt lat="47.02768" lon="8.92726">
        <ele>997</ele>
        <time>2021-08-03T08:47:29.247Z</time>
      </trkpt>
      <trkpt lat="47.02769" lon="8.92725">
        <ele>998</ele>
        <time>2021-08-03T08:47:30.247Z</time>
      </trkpt>
      <trkpt lat="47.02769" lon="8.92724">
        <ele>998</ele>
        <time>2021-08-03T08:47:31.246Z</time>
      </trkpt>
      <trkpt lat="47.02768" lon="8.92724">
        <ele>998</ele>
        <time>2021-08-03T08:47:32.246Z</time>
      </trkpt>
      <trkpt lat="47.02766" lon="8.9272">
        <ele>997</ele>
        <time>2021-08-03T08:47:33.246Z</time>
      </trkpt>
      <trkpt lat="47.02765" lon="8.9272">
        <ele>998</ele>
        <time>2021-08-03T08:47:34.247Z</time>
      </trkpt>
      <trkpt lat="47.02765" lon="8.92719">
        <ele>998</ele>
        <time>2021-08-03T08:47:35.246Z</time>
      </trkpt>
      <trkpt lat="47.02765" lon="8.92719">
        <ele>998</ele>
        <time>2021-08-03T08:47:36.247Z</time>
      </trkpt>
      <trkpt lat="47.02766" lon="8.9272">
        <ele>999</ele>
        <time>2021-08-03T08:47:37.247Z</time>
      </trkpt>
      <trkpt lat="47.02766" lon="8.9272">
        <ele>999</ele>
        <time>2021-08-03T08:47:38.246Z</time>
      </trkpt>
      <trkpt lat="47.02766" lon="8.9272">
        <ele>999</ele>
        <time>2021-08-03T08:47:39.247Z</time>
      </trkpt>
      <trkpt lat="47.02767" lon="8.9272">
        <ele>999</ele>
        <time>2021-08-03T08:47:40.246Z</time>
      </trkpt>
      <trkpt lat="47.02768" lon="8.9272">
        <ele>998</ele>
        <time>2021-08-03T08:47:41.247Z</time>
      </trkpt>
      <trkpt lat="47.02769" lon="8.92719">
        <ele>998</ele>
        <time>2021-08-03T08:47:42.246Z</time>
      </trkpt>
      <trkpt lat="47.02769" lon="8.92719">
        <ele>999</ele>
        <time>2021-08-03T08:47:43.247Z</time>
      </trkpt>
      <trkpt lat="47.0277" lon="8.92718">
        <ele>999</ele>
        <time>2021-08-03T08:47:44.247Z</time>
      </trkpt>
      <trkpt lat="47.0277" lon="8.92717">
        <ele>998</ele>
        <time>2021-08-03T08:47:45.247Z</time>
      </trkpt>
      <trkpt lat="47.02771" lon="8.92717">
        <ele>998</ele>
        <time>2021-08-03T08:47:46.246Z</time>
      </trkpt>
      <trkpt lat="47.02772" lon="8.92716">
        <ele>998</ele>
        <time>2021-08-03T08:47:47.247Z</time>
      </trkpt>
      <trkpt lat="47.02772" lon="8.92715">
        <ele>997</ele>
        <time>2021-08-03T08:47:48.246Z</time>
      </trkpt>
      <trkpt lat="47.02773" lon="8.92714">
        <ele>997</ele>
        <time>2021-08-03T08:47:49.247Z</time>
      </trkpt>
      <trkpt lat="47.02774" lon="8.92714">
        <ele>997</ele>
        <time>2021-08-03T08:47:50.246Z</time>
      </trkpt>
      <trkpt lat="47.02775" lon="8.92712">
        <ele>998</ele>
        <time>2021-08-03T08:47:51.246Z</time>
      </trkpt>
      <trkpt lat="47.02776" lon="8.92711">
        <ele>999</ele>
        <time>2021-08-03T08:47:52.247Z</time>
      </trkpt>
      <trkpt lat="47.02776" lon="8.9271">
        <ele>1000</ele>
        <time>2021-08-03T08:47:53.247Z</time>
      </trkpt>
      <trkpt lat="47.02777" lon="8.9271">
        <ele>1000</ele>
        <time>2021-08-03T08:47:54.247Z</time>
      </trkpt>
      <trkpt lat="47.02778" lon="8.92708">
        <ele>1001</ele>
        <time>2021-08-03T08:47:55.247Z</time>
      </trkpt>
      <trkpt lat="47.02779" lon="8.92708">
        <ele>1001</ele>
        <time>2021-08-03T08:47:56.247Z</time>
      </trkpt>
      <trkpt lat="47.02779" lon="8.92707">
        <ele>1002</ele>
        <time>2021-08-03T08:47:57.246Z</time>
      </trkpt>
      <trkpt lat="47.0278" lon="8.92706">
        <ele>1002</ele>
        <time>2021-08-03T08:47:58.247Z</time>
      </trkpt>
      <trkpt lat="47.02781" lon="8.92705">
        <ele>1003</ele>
        <time>2021-08-03T08:47:59.247Z</time>
      </trkpt>
      <trkpt lat="47.02781" lon="8.92704">
        <ele>1003</ele>
        <time>2021-08-03T08:48:00.247Z</time>
      </trkpt>
      <trkpt lat="47.02782" lon="8.92704">
        <ele>1003</ele>
        <time>2021-08-03T08:48:01.246Z</time>
      </trkpt>
      <trkpt lat="47.02782" lon="8.92703">
        <ele>1004</ele>
        <time>2021-08-03T08:48:02.246Z</time>
      </trkpt>
      <trkpt lat="47.02783" lon="8.92702">
        <ele>1004</ele>
        <time>2021-08-03T08:48:03.247Z</time>
      </trkpt>
      <trkpt lat="47.02783" lon="8.92701">
        <ele>1004</ele>
        <time>2021-08-03T08:48:04.247Z</time>
      </trkpt>
      <trkpt lat="47.02784" lon="8.92701">
        <ele>1005</ele>
        <time>2021-08-03T08:48:05.247Z</time>
      </trkpt>
      <trkpt lat="47.02784" lon="8.927">
        <ele>1005</ele>
        <time>2021-08-03T08:48:06.247Z</time>
      </trkpt>
      <trkpt lat="47.02785" lon="8.92699">
        <ele>1005</ele>
        <time>2021-08-03T08:48:07.246Z</time>
      </trkpt>
      <trkpt lat="47.02786" lon="8.92698">
        <ele>1005</ele>
        <time>2021-08-03T08:48:08.247Z</time>
      </trkpt>
      <trkpt lat="47.02786" lon="8.92697">
        <ele>1004</ele>
        <time>2021-08-03T08:48:09.247Z</time>
      </trkpt>
      <trkpt lat="47.02787" lon="8.92696">
        <ele>1004</ele>
        <time>2021-08-03T08:48:10.247Z</time>
      </trkpt>
      <trkpt lat="47.02787" lon="8.92694">
        <ele>1004</ele>
        <time>2021-08-03T08:48:11.247Z</time>
      </trkpt>
      <trkpt lat="47.02788" lon="8.92693">
        <ele>1004</ele>
        <time>2021-08-03T08:48:12.247Z</time>
      </trkpt>
      <trkpt lat="47.02789" lon="8.92692">
        <ele>1004</ele>
        <time>2021-08-03T08:48:13.247Z</time>
      </trkpt>
      <trkpt lat="47.02789" lon="8.92691">
        <ele>1004</ele>
        <time>2021-08-03T08:48:14.247Z</time>
      </trkpt>
      <trkpt lat="47.02789" lon="8.9269">
        <ele>1004</ele>
        <time>2021-08-03T08:48:15.246Z</time>
      </trkpt>
      <trkpt lat="47.02788" lon="8.92688">
        <ele>1003</ele>
        <time>2021-08-03T08:48:16.247Z</time>
      </trkpt>
      <trkpt lat="47.02788" lon="8.92687">
        <ele>1003</ele>
        <time>2021-08-03T08:48:17.247Z</time>
      </trkpt>
      <trkpt lat="47.02789" lon="8.92685">
        <ele>1003</ele>
        <time>2021-08-03T08:48:18.247Z</time>
      </trkpt>
      <trkpt lat="47.0279" lon="8.92683">
        <ele>1003</ele>
        <time>2021-08-03T08:48:19.247Z</time>
      </trkpt>
      <trkpt lat="47.0279" lon="8.92682">
        <ele>1003</ele>
        <time>2021-08-03T08:48:20.247Z</time>
      </trkpt>
      <trkpt lat="47.0279" lon="8.9268">
        <ele>1004</ele>
        <time>2021-08-03T08:48:21.247Z</time>
      </trkpt>
      <trkpt lat="47.0279" lon="8.92679">
        <ele>1004</ele>
        <time>2021-08-03T08:48:22.247Z</time>
      </trkpt>
      <trkpt lat="47.02789" lon="8.92677">
        <ele>1004</ele>
        <time>2021-08-03T08:48:23.247Z</time>
      </trkpt>
      <trkpt lat="47.02789" lon="8.92676">
        <ele>1004</ele>
        <time>2021-08-03T08:48:24.247Z</time>
      </trkpt>
      <trkpt lat="47.0279" lon="8.92674">
        <ele>1004</ele>
        <time>2021-08-03T08:48:25.247Z</time>
      </trkpt>
      <trkpt lat="47.0279" lon="8.92673">
        <ele>1004</ele>
        <time>2021-08-03T08:48:26.246Z</time>
      </trkpt>
      <trkpt lat="47.0279" lon="8.92672">
        <ele>1004</ele>
        <time>2021-08-03T08:48:27.247Z</time>
      </trkpt>
      <trkpt lat="47.0279" lon="8.92671">
        <ele>1004</ele>
        <time>2021-08-03T08:48:28.247Z</time>
      </trkpt>
      <trkpt lat="47.02791" lon="8.9267">
        <ele>1004</ele>
        <time>2021-08-03T08:48:29.246Z</time>
      </trkpt>
      <trkpt lat="47.02791" lon="8.92669">
        <ele>1004</ele>
        <time>2021-08-03T08:48:30.246Z</time>
      </trkpt>
      <trkpt lat="47.02791" lon="8.92669">
        <ele>1004</ele>
        <time>2021-08-03T08:48:31.246Z</time>
      </trkpt>
      <trkpt lat="47.02792" lon="8.92668">
        <ele>1003</ele>
        <time>2021-08-03T08:48:32.247Z</time>
      </trkpt>
      <trkpt lat="47.02791" lon="8.92668">
        <ele>1003</ele>
        <time>2021-08-03T08:48:33.246Z</time>
      </trkpt>
      <trkpt lat="47.0279" lon="8.92667">
        <ele>1002</ele>
        <time>2021-08-03T08:48:34.247Z</time>
      </trkpt>
      <trkpt lat="47.0279" lon="8.92667">
        <ele>1002</ele>
        <time>2021-08-03T08:48:35.247Z</time>
      </trkpt>
      <trkpt lat="47.0279" lon="8.92667">
        <ele>1001</ele>
        <time>2021-08-03T08:48:36.246Z</time>
      </trkpt>
      <trkpt lat="47.02789" lon="8.92667">
        <ele>1001</ele>
        <time>2021-08-03T08:48:37.246Z</time>
      </trkpt>
      <trkpt lat="47.02789" lon="8.92666">
        <ele>1001</ele>
        <time>2021-08-03T08:48:38.247Z</time>
      </trkpt>
      <trkpt lat="47.0279" lon="8.92666">
        <ele>1001</ele>
        <time>2021-08-03T08:48:39.248Z</time>
      </trkpt>
      <trkpt lat="47.02791" lon="8.92665">
        <ele>1001</ele>
        <time>2021-08-03T08:48:40.248Z</time>
      </trkpt>
      <trkpt lat="47.0279" lon="8.92665">
        <ele>1002</ele>
        <time>2021-08-03T08:48:41.248Z</time>
      </trkpt>
      <trkpt lat="47.0279" lon="8.92665">
        <ele>1002</ele>
        <time>2021-08-03T08:48:42.247Z</time>
      </trkpt>
      <trkpt lat="47.02789" lon="8.92666">
        <ele>1005</ele>
        <time>2021-08-03T08:48:43.248Z</time>
      </trkpt>
      <trkpt lat="47.02789" lon="8.92666">
        <ele>1005</ele>
        <time>2021-08-03T08:48:44.247Z</time>
      </trkpt>
      <trkpt lat="47.02789" lon="8.92666">
        <ele>1006</ele>
        <time>2021-08-03T08:48:45.247Z</time>
      </trkpt>
      <trkpt lat="47.02788" lon="8.92665">
        <ele>1014</ele>
        <time>2021-08-03T08:48:46.248Z</time>
      </trkpt>
      <trkpt lat="47.02788" lon="8.92664">
        <ele>1013</ele>
        <time>2021-08-03T08:48:47.249Z</time>
      </trkpt>
      <trkpt lat="47.02787" lon="8.92663">
        <ele>1013</ele>
        <time>2021-08-03T08:48:48.249Z</time>
      </trkpt>
      <trkpt lat="47.02787" lon="8.92662">
        <ele>1013</ele>
        <time>2021-08-03T08:48:49.249Z</time>
      </trkpt>
      <trkpt lat="47.02787" lon="8.92662">
        <ele>1013</ele>
        <time>2021-08-03T08:48:50.248Z</time>
      </trkpt>
      <trkpt lat="47.02787" lon="8.92661">
        <ele>1013</ele>
        <time>2021-08-03T08:48:51.249Z</time>
      </trkpt>
      <trkpt lat="47.02786" lon="8.92659">
        <ele>1007</ele>
        <time>2021-08-03T08:48:52.251Z</time>
      </trkpt>
      <trkpt lat="47.02788" lon="8.9266">
        <ele>1007</ele>
        <time>2021-08-03T08:48:53.251Z</time>
      </trkpt>
      <trkpt lat="47.0279" lon="8.9266">
        <ele>1007</ele>
        <time>2021-08-03T08:48:54.250Z</time>
      </trkpt>
      <trkpt lat="47.02791" lon="8.9266">
        <ele>1007</ele>
        <time>2021-08-03T08:48:55.250Z</time>
      </trkpt>
      <trkpt lat="47.02791" lon="8.92659">
        <ele>1007</ele>
        <time>2021-08-03T08:48:56.250Z</time>
      </trkpt>
      <trkpt lat="47.02791" lon="8.92659">
        <ele>1007</ele>
        <time>2021-08-03T08:48:57.250Z</time>
      </trkpt>
      <trkpt lat="47.02792" lon="8.92657">
        <ele>1006</ele>
        <time>2021-08-03T08:48:58.251Z</time>
      </trkpt>
      <trkpt lat="47.02792" lon="8.92656">
        <ele>1006</ele>
        <time>2021-08-03T08:48:59.251Z</time>
      </trkpt>
      <trkpt lat="47.02791" lon="8.92655">
        <ele>1006</ele>
        <time>2021-08-03T08:49:00.250Z</time>
      </trkpt>
      <trkpt lat="47.02791" lon="8.92654">
        <ele>1007</ele>
        <time>2021-08-03T08:49:01.250Z</time>
      </trkpt>
      <trkpt lat="47.02791" lon="8.92653">
        <ele>1007</ele>
        <time>2021-08-03T08:49:02.251Z</time>
      </trkpt>
      <trkpt lat="47.02791" lon="8.92652">
        <ele>1007</ele>
        <time>2021-08-03T08:49:03.251Z</time>
      </trkpt>
      <trkpt lat="47.0279" lon="8.92651">
        <ele>1008</ele>
        <time>2021-08-03T08:49:04.250Z</time>
      </trkpt>
      <trkpt lat="47.0279" lon="8.92651">
        <ele>1008</ele>
        <time>2021-08-03T08:49:05.250Z</time>
      </trkpt>
      <trkpt lat="47.0279" lon="8.9265">
        <ele>1008</ele>
        <time>2021-08-03T08:49:06.251Z</time>
      </trkpt>
      <trkpt lat="47.02789" lon="8.92649">
        <ele>1009</ele>
        <time>2021-08-03T08:49:07.250Z</time>
      </trkpt>
      <trkpt lat="47.02789" lon="8.92648">
        <ele>1010</ele>
        <time>2021-08-03T08:49:08.250Z</time>
      </trkpt>
      <trkpt lat="47.02789" lon="8.92647">
        <ele>1010</ele>
        <time>2021-08-03T08:49:09.250Z</time>
      </trkpt>
      <trkpt lat="47.02789" lon="8.92647">
        <ele>1011</ele>
        <time>2021-08-03T08:49:10.251Z</time>
      </trkpt>
      <trkpt lat="47.02789" lon="8.92646">
        <ele>1011</ele>
        <time>2021-08-03T08:49:11.250Z</time>
      </trkpt>
      <trkpt lat="47.02789" lon="8.92646">
        <ele>1012</ele>
        <time>2021-08-03T08:49:12.250Z</time>
      </trkpt>
      <trkpt lat="47.02788" lon="8.92646">
        <ele>1012</ele>
        <time>2021-08-03T08:49:13.251Z</time>
      </trkpt>
      <trkpt lat="47.02788" lon="8.92645">
        <ele>1012</ele>
        <time>2021-08-03T08:49:14.251Z</time>
      </trkpt>
      <trkpt lat="47.02788" lon="8.92644">
        <ele>1012</ele>
        <time>2021-08-03T08:49:15.251Z</time>
      </trkpt>
      <trkpt lat="47.02787" lon="8.92643">
        <ele>1013</ele>
        <time>2021-08-03T08:49:16.251Z</time>
      </trkpt>
      <trkpt lat="47.02787" lon="8.92643">
        <ele>1013</ele>
        <time>2021-08-03T08:49:17.251Z</time>
      </trkpt>
      <trkpt lat="47.02787" lon="8.92643">
        <ele>1013</ele>
        <time>2021-08-03T08:49:18.251Z</time>
      </trkpt>
      <trkpt lat="47.02787" lon="8.92641">
        <ele>1015</ele>
        <time>2021-08-03T08:49:19.251Z</time>
      </trkpt>
      <trkpt lat="47.02787" lon="8.9264">
        <ele>1015</ele>
        <time>2021-08-03T08:49:20.251Z</time>
      </trkpt>
      <trkpt lat="47.02786" lon="8.92639">
        <ele>1015</ele>
        <time>2021-08-03T08:49:21.250Z</time>
      </trkpt>
      <trkpt lat="47.02786" lon="8.92639">
        <ele>1015</ele>
        <time>2021-08-03T08:49:22.251Z</time>
      </trkpt>
      <trkpt lat="47.02786" lon="8.92638">
        <ele>1015</ele>
        <time>2021-08-03T08:49:23.251Z</time>
      </trkpt>
      <trkpt lat="47.02785" lon="8.92637">
        <ele>1015</ele>
        <time>2021-08-03T08:49:24.251Z</time>
      </trkpt>
      <trkpt lat="47.02785" lon="8.92637">
        <ele>1015</ele>
        <time>2021-08-03T08:49:25.251Z</time>
      </trkpt>
      <trkpt lat="47.02785" lon="8.92637">
        <ele>1014</ele>
        <time>2021-08-03T08:49:26.251Z</time>
      </trkpt>
      <trkpt lat="47.02785" lon="8.92636">
        <ele>1014</ele>
        <time>2021-08-03T08:49:27.251Z</time>
      </trkpt>
      <trkpt lat="47.02784" lon="8.92635">
        <ele>1013</ele>
        <time>2021-08-03T08:49:28.251Z</time>
      </trkpt>
      <trkpt lat="47.02784" lon="8.92633">
        <ele>1013</ele>
        <time>2021-08-03T08:49:29.251Z</time>
      </trkpt>
      <trkpt lat="47.02783" lon="8.92632">
        <ele>1012</ele>
        <time>2021-08-03T08:49:30.250Z</time>
      </trkpt>
      <trkpt lat="47.02783" lon="8.92631">
        <ele>1011</ele>
        <time>2021-08-03T08:49:31.251Z</time>
      </trkpt>
      <trkpt lat="47.02783" lon="8.9263">
        <ele>1011</ele>
        <time>2021-08-03T08:49:32.251Z</time>
      </trkpt>
      <trkpt lat="47.02782" lon="8.92628">
        <ele>1012</ele>
        <time>2021-08-03T08:49:33.251Z</time>
      </trkpt>
      <trkpt lat="47.02781" lon="8.92627">
        <ele>1012</ele>
        <time>2021-08-03T08:49:34.251Z</time>
      </trkpt>
      <trkpt lat="47.02781" lon="8.92626">
        <ele>1013</ele>
        <time>2021-08-03T08:49:35.251Z</time>
      </trkpt>
      <trkpt lat="47.02781" lon="8.92625">
        <ele>1013</ele>
        <time>2021-08-03T08:49:36.251Z</time>
      </trkpt>
      <trkpt lat="47.02782" lon="8.92624">
        <ele>1013</ele>
        <time>2021-08-03T08:49:37.251Z</time>
      </trkpt>
      <trkpt lat="47.02782" lon="8.92624">
        <ele>1014</ele>
        <time>2021-08-03T08:49:38.251Z</time>
      </trkpt>
      <trkpt lat="47.02782" lon="8.92623">
        <ele>1015</ele>
        <time>2021-08-03T08:49:39.251Z</time>
      </trkpt>
      <trkpt lat="47.02781" lon="8.92622">
        <ele>1015</ele>
        <time>2021-08-03T08:49:40.251Z</time>
      </trkpt>
      <trkpt lat="47.02781" lon="8.92621">
        <ele>1015</ele>
        <time>2021-08-03T08:49:41.251Z</time>
      </trkpt>
      <trkpt lat="47.0278" lon="8.9262">
        <ele>1015</ele>
        <time>2021-08-03T08:49:42.250Z</time>
      </trkpt>
      <trkpt lat="47.0278" lon="8.92619">
        <ele>1015</ele>
        <time>2021-08-03T08:49:43.251Z</time>
      </trkpt>
      <trkpt lat="47.0278" lon="8.92617">
        <ele>1015</ele>
        <time>2021-08-03T08:49:44.251Z</time>
      </trkpt>
      <trkpt lat="47.0278" lon="8.92616">
        <ele>1015</ele>
        <time>2021-08-03T08:49:45.251Z</time>
      </trkpt>
      <trkpt lat="47.02779" lon="8.92617">
        <ele>1015</ele>
        <time>2021-08-03T08:49:46.250Z</time>
      </trkpt>
      <trkpt lat="47.0278" lon="8.92617">
        <ele>1015</ele>
        <time>2021-08-03T08:49:47.250Z</time>
      </trkpt>
      <trkpt lat="47.0278" lon="8.92616">
        <ele>1016</ele>
        <time>2021-08-03T08:49:48.251Z</time>
      </trkpt>
      <trkpt lat="47.0278" lon="8.92616">
        <ele>1016</ele>
        <time>2021-08-03T08:49:49.251Z</time>
      </trkpt>
      <trkpt lat="47.02779" lon="8.92612">
        <ele>1018</ele>
        <time>2021-08-03T08:49:50.250Z</time>
      </trkpt>
      <trkpt lat="47.02779" lon="8.92612">
        <ele>1018</ele>
        <time>2021-08-03T08:49:51.250Z</time>
      </trkpt>
      <trkpt lat="47.02778" lon="8.92611">
        <ele>1018</ele>
        <time>2021-08-03T08:49:52.250Z</time>
      </trkpt>
      <trkpt lat="47.02778" lon="8.9261">
        <ele>1018</ele>
        <time>2021-08-03T08:49:53.251Z</time>
      </trkpt>
      <trkpt lat="47.02778" lon="8.92609">
        <ele>1018</ele>
        <time>2021-08-03T08:49:54.250Z</time>
      </trkpt>
      <trkpt lat="47.02777" lon="8.92608">
        <ele>1019</ele>
        <time>2021-08-03T08:49:55.251Z</time>
      </trkpt>
      <trkpt lat="47.02777" lon="8.92608">
        <ele>1019</ele>
        <time>2021-08-03T08:49:56.251Z</time>
      </trkpt>
      <trkpt lat="47.02777" lon="8.92607">
        <ele>1019</ele>
        <time>2021-08-03T08:49:57.251Z</time>
      </trkpt>
      <trkpt lat="47.02777" lon="8.92606">
        <ele>1019</ele>
        <time>2021-08-03T08:49:58.250Z</time>
      </trkpt>
      <trkpt lat="47.02777" lon="8.92606">
        <ele>1019</ele>
        <time>2021-08-03T08:49:59.251Z</time>
      </trkpt>
      <trkpt lat="47.02777" lon="8.92605">
        <ele>1019</ele>
        <time>2021-08-03T08:50:00.250Z</time>
      </trkpt>
      <trkpt lat="47.02777" lon="8.92604">
        <ele>1020</ele>
        <time>2021-08-03T08:50:01.251Z</time>
      </trkpt>
      <trkpt lat="47.02777" lon="8.92603">
        <ele>1021</ele>
        <time>2021-08-03T08:50:02.250Z</time>
      </trkpt>
      <trkpt lat="47.02778" lon="8.92603">
        <ele>1021</ele>
        <time>2021-08-03T08:50:03.250Z</time>
      </trkpt>
      <trkpt lat="47.02778" lon="8.92602">
        <ele>1021</ele>
        <time>2021-08-03T08:50:04.251Z</time>
      </trkpt>
      <trkpt lat="47.02779" lon="8.92601">
        <ele>1022</ele>
        <time>2021-08-03T08:50:05.251Z</time>
      </trkpt>
      <trkpt lat="47.02779" lon="8.926">
        <ele>1022</ele>
        <time>2021-08-03T08:50:06.251Z</time>
      </trkpt>
      <trkpt lat="47.02779" lon="8.92599">
        <ele>1022</ele>
        <time>2021-08-03T08:50:07.251Z</time>
      </trkpt>
      <trkpt lat="47.02779" lon="8.92599">
        <ele>1023</ele>
        <time>2021-08-03T08:50:08.250Z</time>
      </trkpt>
      <trkpt lat="47.02779" lon="8.92598">
        <ele>1023</ele>
        <time>2021-08-03T08:50:09.251Z</time>
      </trkpt>
      <trkpt lat="47.02779" lon="8.92596">
        <ele>1023</ele>
        <time>2021-08-03T08:50:10.251Z</time>
      </trkpt>
      <trkpt lat="47.02779" lon="8.92595">
        <ele>1023</ele>
        <time>2021-08-03T08:50:11.251Z</time>
      </trkpt>
      <trkpt lat="47.02779" lon="8.92595">
        <ele>1023</ele>
        <time>2021-08-03T08:50:12.251Z</time>
      </trkpt>
      <trkpt lat="47.02779" lon="8.92594">
        <ele>1024</ele>
        <time>2021-08-03T08:50:13.251Z</time>
      </trkpt>
      <trkpt lat="47.02779" lon="8.92593">
        <ele>1024</ele>
        <time>2021-08-03T08:50:14.251Z</time>
      </trkpt>
      <trkpt lat="47.02779" lon="8.92592">
        <ele>1024</ele>
        <time>2021-08-03T08:50:15.251Z</time>
      </trkpt>
      <trkpt lat="47.02778" lon="8.92591">
        <ele>1024</ele>
        <time>2021-08-03T08:50:16.250Z</time>
      </trkpt>
      <trkpt lat="47.02778" lon="8.9259">
        <ele>1025</ele>
        <time>2021-08-03T08:50:17.251Z</time>
      </trkpt>
      <trkpt lat="47.02778" lon="8.92589">
        <ele>1025</ele>
        <time>2021-08-03T08:50:18.250Z</time>
      </trkpt>
      <trkpt lat="47.02778" lon="8.92588">
        <ele>1025</ele>
        <time>2021-08-03T08:50:19.251Z</time>
      </trkpt>
      <trkpt lat="47.02778" lon="8.92587">
        <ele>1025</ele>
        <time>2021-08-03T08:50:20.250Z</time>
      </trkpt>
      <trkpt lat="47.02777" lon="8.92586">
        <ele>1025</ele>
        <time>2021-08-03T08:50:21.251Z</time>
      </trkpt>
      <trkpt lat="47.02777" lon="8.92585">
        <ele>1024</ele>
        <time>2021-08-03T08:50:22.251Z</time>
      </trkpt>
      <trkpt lat="47.02777" lon="8.92584">
        <ele>1024</ele>
        <time>2021-08-03T08:50:23.251Z</time>
      </trkpt>
      <trkpt lat="47.02776" lon="8.92583">
        <ele>1024</ele>
        <time>2021-08-03T08:50:24.251Z</time>
      </trkpt>
      <trkpt lat="47.02775" lon="8.92582">
        <ele>1024</ele>
        <time>2021-08-03T08:50:25.251Z</time>
      </trkpt>
      <trkpt lat="47.02775" lon="8.92581">
        <ele>1024</ele>
        <time>2021-08-03T08:50:26.250Z</time>
      </trkpt>
      <trkpt lat="47.02775" lon="8.9258">
        <ele>1024</ele>
        <time>2021-08-03T08:50:27.251Z</time>
      </trkpt>
      <trkpt lat="47.02775" lon="8.92579">
        <ele>1024</ele>
        <time>2021-08-03T08:50:28.251Z</time>
      </trkpt>
      <trkpt lat="47.02774" lon="8.92578">
        <ele>1023</ele>
        <time>2021-08-03T08:50:29.250Z</time>
      </trkpt>
      <trkpt lat="47.02774" lon="8.92577">
        <ele>1023</ele>
        <time>2021-08-03T08:50:30.251Z</time>
      </trkpt>
      <trkpt lat="47.02774" lon="8.92577">
        <ele>1023</ele>
        <time>2021-08-03T08:50:31.251Z</time>
      </trkpt>
      <trkpt lat="47.02774" lon="8.92576">
        <ele>1023</ele>
        <time>2021-08-03T08:50:32.250Z</time>
      </trkpt>
      <trkpt lat="47.02774" lon="8.92575">
        <ele>1024</ele>
        <time>2021-08-03T08:50:33.251Z</time>
      </trkpt>
      <trkpt lat="47.02773" lon="8.92574">
        <ele>1024</ele>
        <time>2021-08-03T08:50:34.250Z</time>
      </trkpt>
      <trkpt lat="47.02773" lon="8.92573">
        <ele>1024</ele>
        <time>2021-08-03T08:50:35.251Z</time>
      </trkpt>
      <trkpt lat="47.02773" lon="8.92573">
        <ele>1024</ele>
        <time>2021-08-03T08:50:36.250Z</time>
      </trkpt>
      <trkpt lat="47.02772" lon="8.92573">
        <ele>1024</ele>
        <time>2021-08-03T08:50:37.251Z</time>
      </trkpt>
      <trkpt lat="47.02772" lon="8.92572">
        <ele>1024</ele>
        <time>2021-08-03T08:50:38.251Z</time>
      </trkpt>
      <trkpt lat="47.02772" lon="8.92571">
        <ele>1024</ele>
        <time>2021-08-03T08:50:39.251Z</time>
      </trkpt>
      <trkpt lat="47.02772" lon="8.9257">
        <ele>1024</ele>
        <time>2021-08-03T08:50:40.251Z</time>
      </trkpt>
      <trkpt lat="47.02771" lon="8.9257">
        <ele>1024</ele>
        <time>2021-08-03T08:50:41.250Z</time>
      </trkpt>
      <trkpt lat="47.02771" lon="8.92569">
        <ele>1024</ele>
        <time>2021-08-03T08:50:42.250Z</time>
      </trkpt>
      <trkpt lat="47.02771" lon="8.92568">
        <ele>1024</ele>
        <time>2021-08-03T08:50:43.250Z</time>
      </trkpt>
      <trkpt lat="47.02771" lon="8.92567">
        <ele>1024</ele>
        <time>2021-08-03T08:50:44.250Z</time>
      </trkpt>
      <trkpt lat="47.02771" lon="8.92566">
        <ele>1024</ele>
        <time>2021-08-03T08:50:45.251Z</time>
      </trkpt>
      <trkpt lat="47.02771" lon="8.92566">
        <ele>1024</ele>
        <time>2021-08-03T08:50:46.250Z</time>
      </trkpt>
      <trkpt lat="47.0277" lon="8.92565">
        <ele>1024</ele>
        <time>2021-08-03T08:50:47.250Z</time>
      </trkpt>
      <trkpt lat="47.0277" lon="8.92564">
        <ele>1024</ele>
        <time>2021-08-03T08:50:48.250Z</time>
      </trkpt>
      <trkpt lat="47.02769" lon="8.92563">
        <ele>1024</ele>
        <time>2021-08-03T08:50:49.250Z</time>
      </trkpt>
      <trkpt lat="47.02769" lon="8.92562">
        <ele>1025</ele>
        <time>2021-08-03T08:50:50.250Z</time>
      </trkpt>
      <trkpt lat="47.02769" lon="8.92561">
        <ele>1025</ele>
        <time>2021-08-03T08:50:51.251Z</time>
      </trkpt>
      <trkpt lat="47.02769" lon="8.92561">
        <ele>1024</ele>
        <time>2021-08-03T08:50:52.251Z</time>
      </trkpt>
      <trkpt lat="47.02768" lon="8.9256">
        <ele>1024</ele>
        <time>2021-08-03T08:50:53.251Z</time>
      </trkpt>
      <trkpt lat="47.02768" lon="8.92559">
        <ele>1024</ele>
        <time>2021-08-03T08:50:54.251Z</time>
      </trkpt>
      <trkpt lat="47.02768" lon="8.92558">
        <ele>1024</ele>
        <time>2021-08-03T08:50:55.251Z</time>
      </trkpt>
      <trkpt lat="47.02768" lon="8.92557">
        <ele>1024</ele>
        <time>2021-08-03T08:50:56.251Z</time>
      </trkpt>
      <trkpt lat="47.02768" lon="8.92556">
        <ele>1024</ele>
        <time>2021-08-03T08:50:57.250Z</time>
      </trkpt>
      <trkpt lat="47.02768" lon="8.92555">
        <ele>1024</ele>
        <time>2021-08-03T08:50:58.250Z</time>
      </trkpt>
      <trkpt lat="47.02768" lon="8.92555">
        <ele>1024</ele>
        <time>2021-08-03T08:50:59.250Z</time>
      </trkpt>
      <trkpt lat="47.02768" lon="8.92554">
        <ele>1024</ele>
        <time>2021-08-03T08:51:00.251Z</time>
      </trkpt>
      <trkpt lat="47.02767" lon="8.92553">
        <ele>1024</ele>
        <time>2021-08-03T08:51:01.251Z</time>
      </trkpt>
      <trkpt lat="47.02767" lon="8.92552">
        <ele>1024</ele>
        <time>2021-08-03T08:51:02.251Z</time>
      </trkpt>
      <trkpt lat="47.02766" lon="8.92551">
        <ele>1024</ele>
        <time>2021-08-03T08:51:03.251Z</time>
      </trkpt>
      <trkpt lat="47.02766" lon="8.9255">
        <ele>1023</ele>
        <time>2021-08-03T08:51:04.251Z</time>
      </trkpt>
      <trkpt lat="47.02766" lon="8.92548">
        <ele>1024</ele>
        <time>2021-08-03T08:51:05.250Z</time>
      </trkpt>
      <trkpt lat="47.02766" lon="8.92547">
        <ele>1024</ele>
        <time>2021-08-03T08:51:06.250Z</time>
      </trkpt>
      <trkpt lat="47.02766" lon="8.92546">
        <ele>1024</ele>
        <time>2021-08-03T08:51:07.251Z</time>
      </trkpt>
      <trkpt lat="47.02766" lon="8.92546">
        <ele>1025</ele>
        <time>2021-08-03T08:51:08.251Z</time>
      </trkpt>
      <trkpt lat="47.02766" lon="8.92545">
        <ele>1025</ele>
        <time>2021-08-03T08:51:09.251Z</time>
      </trkpt>
      <trkpt lat="47.02766" lon="8.92544">
        <ele>1026</ele>
        <time>2021-08-03T08:51:10.251Z</time>
      </trkpt>
      <trkpt lat="47.02766" lon="8.92542">
        <ele>1026</ele>
        <time>2021-08-03T08:51:11.251Z</time>
      </trkpt>
      <trkpt lat="47.02766" lon="8.92541">
        <ele>1027</ele>
        <time>2021-08-03T08:51:12.250Z</time>
      </trkpt>
      <trkpt lat="47.02767" lon="8.92541">
        <ele>1027</ele>
        <time>2021-08-03T08:51:13.251Z</time>
      </trkpt>
      <trkpt lat="47.02767" lon="8.9254">
        <ele>1028</ele>
        <time>2021-08-03T08:51:14.251Z</time>
      </trkpt>
      <trkpt lat="47.02767" lon="8.9254">
        <ele>1028</ele>
        <time>2021-08-03T08:51:15.251Z</time>
      </trkpt>
      <trkpt lat="47.02767" lon="8.92539">
        <ele>1028</ele>
        <time>2021-08-03T08:51:16.251Z</time>
      </trkpt>
      <trkpt lat="47.02767" lon="8.92538">
        <ele>1028</ele>
        <time>2021-08-03T08:51:17.251Z</time>
      </trkpt>
      <trkpt lat="47.02768" lon="8.92538">
        <ele>1028</ele>
        <time>2021-08-03T08:51:18.251Z</time>
      </trkpt>
      <trkpt lat="47.02768" lon="8.92537">
        <ele>1028</ele>
        <time>2021-08-03T08:51:19.250Z</time>
      </trkpt>
      <trkpt lat="47.02768" lon="8.92537">
        <ele>1028</ele>
        <time>2021-08-03T08:51:20.250Z</time>
      </trkpt>
      <trkpt lat="47.02768" lon="8.92536">
        <ele>1027</ele>
        <time>2021-08-03T08:51:21.250Z</time>
      </trkpt>
      <trkpt lat="47.02769" lon="8.92536">
        <ele>1027</ele>
        <time>2021-08-03T08:51:22.250Z</time>
      </trkpt>
      <trkpt lat="47.02769" lon="8.92535">
        <ele>1026</ele>
        <time>2021-08-03T08:51:23.251Z</time>
      </trkpt>
      <trkpt lat="47.02769" lon="8.92534">
        <ele>1025</ele>
        <time>2021-08-03T08:51:24.251Z</time>
      </trkpt>
      <trkpt lat="47.0277" lon="8.92534">
        <ele>1025</ele>
        <time>2021-08-03T08:51:25.250Z</time>
      </trkpt>
      <trkpt lat="47.0277" lon="8.92533">
        <ele>1025</ele>
        <time>2021-08-03T08:51:26.251Z</time>
      </trkpt>
      <trkpt lat="47.0277" lon="8.92532">
        <ele>1025</ele>
        <time>2021-08-03T08:51:27.251Z</time>
      </trkpt>
      <trkpt lat="47.02771" lon="8.92532">
        <ele>1025</ele>
        <time>2021-08-03T08:51:28.250Z</time>
      </trkpt>
      <trkpt lat="47.02771" lon="8.92532">
        <ele>1025</ele>
        <time>2021-08-03T08:51:29.251Z</time>
      </trkpt>
      <trkpt lat="47.02777" lon="8.92533">
        <ele>1029</ele>
        <time>2021-08-03T08:51:30.251Z</time>
      </trkpt>
      <trkpt lat="47.02777" lon="8.92534">
        <ele>1029</ele>
        <time>2021-08-03T08:51:31.252Z</time>
      </trkpt>
      <trkpt lat="47.02776" lon="8.92534">
        <ele>1035</ele>
        <time>2021-08-03T08:51:32.252Z</time>
      </trkpt>
      <trkpt lat="47.02776" lon="8.92533">
        <ele>1035</ele>
        <time>2021-08-03T08:51:33.252Z</time>
      </trkpt>
      <trkpt lat="47.02776" lon="8.92532">
        <ele>1035</ele>
        <time>2021-08-03T08:51:34.251Z</time>
      </trkpt>
      <trkpt lat="47.02774" lon="8.92531">
        <ele>1035</ele>
        <time>2021-08-03T08:51:35.251Z</time>
      </trkpt>
      <trkpt lat="47.02773" lon="8.92529">
        <ele>1035</ele>
        <time>2021-08-03T08:51:36.251Z</time>
      </trkpt>
      <trkpt lat="47.02773" lon="8.92528">
        <ele>1034</ele>
        <time>2021-08-03T08:51:37.251Z</time>
      </trkpt>
      <trkpt lat="47.02773" lon="8.92527">
        <ele>1034</ele>
        <time>2021-08-03T08:51:38.251Z</time>
      </trkpt>
      <trkpt lat="47.02772" lon="8.92525">
        <ele>1034</ele>
        <time>2021-08-03T08:51:39.252Z</time>
      </trkpt>
      <trkpt lat="47.02772" lon="8.92524">
        <ele>1034</ele>
        <time>2021-08-03T08:51:40.252Z</time>
      </trkpt>
      <trkpt lat="47.02771" lon="8.92522">
        <ele>1034</ele>
        <time>2021-08-03T08:51:41.252Z</time>
      </trkpt>
      <trkpt lat="47.02771" lon="8.92521">
        <ele>1034</ele>
        <time>2021-08-03T08:51:42.252Z</time>
      </trkpt>
      <trkpt lat="47.02771" lon="8.92519">
        <ele>1034</ele>
        <time>2021-08-03T08:51:43.252Z</time>
      </trkpt>
      <trkpt lat="47.02771" lon="8.92518">
        <ele>1034</ele>
        <time>2021-08-03T08:51:44.252Z</time>
      </trkpt>
      <trkpt lat="47.02771" lon="8.92517">
        <ele>1034</ele>
        <time>2021-08-03T08:51:45.252Z</time>
      </trkpt>
      <trkpt lat="47.02771" lon="8.92515">
        <ele>1035</ele>
        <time>2021-08-03T08:51:46.251Z</time>
      </trkpt>
      <trkpt lat="47.02772" lon="8.92513">
        <ele>1035</ele>
        <time>2021-08-03T08:51:47.252Z</time>
      </trkpt>
      <trkpt lat="47.02771" lon="8.92512">
        <ele>1035</ele>
        <time>2021-08-03T08:51:48.251Z</time>
      </trkpt>
      <trkpt lat="47.02771" lon="8.9251">
        <ele>1035</ele>
        <time>2021-08-03T08:51:49.252Z</time>
      </trkpt>
      <trkpt lat="47.02772" lon="8.92509">
        <ele>1035</ele>
        <time>2021-08-03T08:51:50.252Z</time>
      </trkpt>
      <trkpt lat="47.02772" lon="8.92508">
        <ele>1035</ele>
        <time>2021-08-03T08:51:51.251Z</time>
      </trkpt>
      <trkpt lat="47.02772" lon="8.92507">
        <ele>1035</ele>
        <time>2021-08-03T08:51:52.252Z</time>
      </trkpt>
      <trkpt lat="47.02772" lon="8.92505">
        <ele>1036</ele>
        <time>2021-08-03T08:51:53.252Z</time>
      </trkpt>
      <trkpt lat="47.02772" lon="8.92504">
        <ele>1036</ele>
        <time>2021-08-03T08:51:54.251Z</time>
      </trkpt>
      <trkpt lat="47.02772" lon="8.92503">
        <ele>1037</ele>
        <time>2021-08-03T08:51:55.252Z</time>
      </trkpt>
      <trkpt lat="47.02772" lon="8.92503">
        <ele>1037</ele>
        <time>2021-08-03T08:51:56.251Z</time>
      </trkpt>
      <trkpt lat="47.02772" lon="8.92502">
        <ele>1037</ele>
        <time>2021-08-03T08:51:57.252Z</time>
      </trkpt>
      <trkpt lat="47.02772" lon="8.92501">
        <ele>1037</ele>
        <time>2021-08-03T08:51:58.252Z</time>
      </trkpt>
      <trkpt lat="47.02773" lon="8.925">
        <ele>1037</ele>
        <time>2021-08-03T08:51:59.251Z</time>
      </trkpt>
      <trkpt lat="47.02773" lon="8.92499">
        <ele>1037</ele>
        <time>2021-08-03T08:52:00.252Z</time>
      </trkpt>
      <trkpt lat="47.02773" lon="8.92498">
        <ele>1037</ele>
        <time>2021-08-03T08:52:01.252Z</time>
      </trkpt>
      <trkpt lat="47.02773" lon="8.92497">
        <ele>1037</ele>
        <time>2021-08-03T08:52:02.251Z</time>
      </trkpt>
      <trkpt lat="47.02774" lon="8.92496">
        <ele>1037</ele>
        <time>2021-08-03T08:52:03.251Z</time>
      </trkpt>
      <trkpt lat="47.02775" lon="8.92494">
        <ele>1037</ele>
        <time>2021-08-03T08:52:04.252Z</time>
      </trkpt>
      <trkpt lat="47.02775" lon="8.92493">
        <ele>1037</ele>
        <time>2021-08-03T08:52:05.251Z</time>
      </trkpt>
      <trkpt lat="47.02775" lon="8.92492">
        <ele>1037</ele>
        <time>2021-08-03T08:52:06.252Z</time>
      </trkpt>
      <trkpt lat="47.02776" lon="8.92491">
        <ele>1036</ele>
        <time>2021-08-03T08:52:07.252Z</time>
      </trkpt>
      <trkpt lat="47.02776" lon="8.9249">
        <ele>1036</ele>
        <time>2021-08-03T08:52:08.251Z</time>
      </trkpt>
      <trkpt lat="47.02777" lon="8.92489">
        <ele>1035</ele>
        <time>2021-08-03T08:52:09.252Z</time>
      </trkpt>
      <trkpt lat="47.02777" lon="8.92489">
        <ele>1035</ele>
        <time>2021-08-03T08:52:10.252Z</time>
      </trkpt>
      <trkpt lat="47.02777" lon="8.92488">
        <ele>1035</ele>
        <time>2021-08-03T08:52:11.252Z</time>
      </trkpt>
      <trkpt lat="47.02775" lon="8.92494">
        <ele>1033</ele>
        <time>2021-08-03T08:52:12.253Z</time>
      </trkpt>
      <trkpt lat="47.02775" lon="8.92493">
        <ele>1033</ele>
        <time>2021-08-03T08:52:13.255Z</time>
      </trkpt>
      <trkpt lat="47.02775" lon="8.92492">
        <ele>1033</ele>
        <time>2021-08-03T08:52:14.254Z</time>
      </trkpt>
      <trkpt lat="47.02776" lon="8.92492">
        <ele>1033</ele>
        <time>2021-08-03T08:52:15.254Z</time>
      </trkpt>
      <trkpt lat="47.02777" lon="8.9249">
        <ele>1034</ele>
        <time>2021-08-03T08:52:16.255Z</time>
      </trkpt>
      <trkpt lat="47.02781" lon="8.92486">
        <ele>1034</ele>
        <time>2021-08-03T08:52:17.256Z</time>
      </trkpt>
      <trkpt lat="47.02781" lon="8.92486">
        <ele>1034</ele>
        <time>2021-08-03T08:52:18.255Z</time>
      </trkpt>
      <trkpt lat="47.02781" lon="8.92487">
        <ele>1033</ele>
        <time>2021-08-03T08:52:19.255Z</time>
      </trkpt>
      <trkpt lat="47.02782" lon="8.92488">
        <ele>1033</ele>
        <time>2021-08-03T08:52:20.255Z</time>
      </trkpt>
      <trkpt lat="47.02782" lon="8.92489">
        <ele>1032</ele>
        <time>2021-08-03T08:52:21.255Z</time>
      </trkpt>
      <trkpt lat="47.02782" lon="8.9249">
        <ele>1031</ele>
        <time>2021-08-03T08:52:22.256Z</time>
      </trkpt>
      <trkpt lat="47.02783" lon="8.92492">
        <ele>1031</ele>
        <time>2021-08-03T08:52:23.256Z</time>
      </trkpt>
      <trkpt lat="47.02783" lon="8.92494">
        <ele>1030</ele>
        <time>2021-08-03T08:52:24.256Z</time>
      </trkpt>
      <trkpt lat="47.02783" lon="8.92495">
        <ele>1030</ele>
        <time>2021-08-03T08:52:25.255Z</time>
      </trkpt>
      <trkpt lat="47.02784" lon="8.92496">
        <ele>1030</ele>
        <time>2021-08-03T08:52:26.256Z</time>
      </trkpt>
      <trkpt lat="47.02784" lon="8.92497">
        <ele>1029</ele>
        <time>2021-08-03T08:52:27.256Z</time>
      </trkpt>
      <trkpt lat="47.02785" lon="8.92499">
        <ele>1029</ele>
        <time>2021-08-03T08:52:28.255Z</time>
      </trkpt>
      <trkpt lat="47.02785" lon="8.925">
        <ele>1028</ele>
        <time>2021-08-03T08:52:29.256Z</time>
      </trkpt>
      <trkpt lat="47.02786" lon="8.92501">
        <ele>1028</ele>
        <time>2021-08-03T08:52:30.256Z</time>
      </trkpt>
      <trkpt lat="47.02787" lon="8.92502">
        <ele>1028</ele>
        <time>2021-08-03T08:52:31.256Z</time>
      </trkpt>
      <trkpt lat="47.02788" lon="8.92504">
        <ele>1028</ele>
        <time>2021-08-03T08:52:32.256Z</time>
      </trkpt>
      <trkpt lat="47.02788" lon="8.92505">
        <ele>1028</ele>
        <time>2021-08-03T08:52:33.256Z</time>
      </trkpt>
      <trkpt lat="47.02789" lon="8.92505">
        <ele>1028</ele>
        <time>2021-08-03T08:52:34.256Z</time>
      </trkpt>
      <trkpt lat="47.02789" lon="8.92506">
        <ele>1028</ele>
        <time>2021-08-03T08:52:35.256Z</time>
      </trkpt>
      <trkpt lat="47.02789" lon="8.92505">
        <ele>1028</ele>
        <time>2021-08-03T08:52:36.255Z</time>
      </trkpt>
      <trkpt lat="47.02789" lon="8.92501">
        <ele>1031</ele>
        <time>2021-08-03T08:52:37.257Z</time>
      </trkpt>
      <trkpt lat="47.02789" lon="8.92501">
        <ele>1032</ele>
        <time>2021-08-03T08:52:38.256Z</time>
      </trkpt>
      <trkpt lat="47.02789" lon="8.92501">
        <ele>1033</ele>
        <time>2021-08-03T08:52:39.256Z</time>
      </trkpt>
      <trkpt lat="47.02789" lon="8.92501">
        <ele>1033</ele>
        <time>2021-08-03T08:52:40.257Z</time>
      </trkpt>
      <trkpt lat="47.02789" lon="8.925">
        <ele>1034</ele>
        <time>2021-08-03T08:52:41.257Z</time>
      </trkpt>
      <trkpt lat="47.02786" lon="8.92503">
        <ele>1034</ele>
        <time>2021-08-03T08:52:42.258Z</time>
      </trkpt>
      <trkpt lat="47.02786" lon="8.92502">
        <ele>1034</ele>
        <time>2021-08-03T08:52:43.258Z</time>
      </trkpt>
      <trkpt lat="47.02786" lon="8.92502">
        <ele>1035</ele>
        <time>2021-08-03T08:52:44.258Z</time>
      </trkpt>
      <trkpt lat="47.02786" lon="8.92502">
        <ele>1035</ele>
        <time>2021-08-03T08:52:45.257Z</time>
      </trkpt>
      <trkpt lat="47.02786" lon="8.92503">
        <ele>1036</ele>
        <time>2021-08-03T08:52:46.257Z</time>
      </trkpt>
      <trkpt lat="47.02786" lon="8.92503">
        <ele>1037</ele>
        <time>2021-08-03T08:52:47.257Z</time>
      </trkpt>
      <trkpt lat="47.02786" lon="8.92501">
        <ele>1041</ele>
        <time>2021-08-03T08:52:48.259Z</time>
      </trkpt>
      <trkpt lat="47.02786" lon="8.92502">
        <ele>1041</ele>
        <time>2021-08-03T08:52:49.259Z</time>
      </trkpt>
      <trkpt lat="47.02786" lon="8.92503">
        <ele>1041</ele>
        <time>2021-08-03T08:52:50.259Z</time>
      </trkpt>
      <trkpt lat="47.02786" lon="8.92505">
        <ele>1041</ele>
        <time>2021-08-03T08:52:51.259Z</time>
      </trkpt>
      <trkpt lat="47.02786" lon="8.92507">
        <ele>1040</ele>
        <time>2021-08-03T08:52:52.259Z</time>
      </trkpt>
      <trkpt lat="47.02786" lon="8.92509">
        <ele>1040</ele>
        <time>2021-08-03T08:52:53.259Z</time>
      </trkpt>
      <trkpt lat="47.02786" lon="8.9251">
        <ele>1039</ele>
        <time>2021-08-03T08:52:54.258Z</time>
      </trkpt>
      <trkpt lat="47.02787" lon="8.9251">
        <ele>1039</ele>
        <time>2021-08-03T08:52:55.259Z</time>
      </trkpt>
      <trkpt lat="47.02788" lon="8.92511">
        <ele>1038</ele>
        <time>2021-08-03T08:52:56.259Z</time>
      </trkpt>
      <trkpt lat="47.02788" lon="8.92511">
        <ele>1038</ele>
        <time>2021-08-03T08:52:57.258Z</time>
      </trkpt>
      <trkpt lat="47.02788" lon="8.92513">
        <ele>1037</ele>
        <time>2021-08-03T08:52:58.258Z</time>
      </trkpt>
      <trkpt lat="47.02788" lon="8.92515">
        <ele>1037</ele>
        <time>2021-08-03T08:52:59.258Z</time>
      </trkpt>
      <trkpt lat="47.02788" lon="8.92516">
        <ele>1037</ele>
        <time>2021-08-03T08:53:00.259Z</time>
      </trkpt>
      <trkpt lat="47.02788" lon="8.92518">
        <ele>1036</ele>
        <time>2021-08-03T08:53:01.259Z</time>
      </trkpt>
      <trkpt lat="47.02788" lon="8.92519">
        <ele>1036</ele>
        <time>2021-08-03T08:53:02.258Z</time>
      </trkpt>
      <trkpt lat="47.02788" lon="8.9252">
        <ele>1035</ele>
        <time>2021-08-03T08:53:03.258Z</time>
      </trkpt>
      <trkpt lat="47.02789" lon="8.92521">
        <ele>1035</ele>
        <time>2021-08-03T08:53:04.258Z</time>
      </trkpt>
      <trkpt lat="47.02789" lon="8.92523">
        <ele>1035</ele>
        <time>2021-08-03T08:53:05.259Z</time>
      </trkpt>
      <trkpt lat="47.02789" lon="8.92524">
        <ele>1034</ele>
        <time>2021-08-03T08:53:06.259Z</time>
      </trkpt>
      <trkpt lat="47.0279" lon="8.92525">
        <ele>1034</ele>
        <time>2021-08-03T08:53:07.258Z</time>
      </trkpt>
      <trkpt lat="47.0279" lon="8.92526">
        <ele>1034</ele>
        <time>2021-08-03T08:53:08.259Z</time>
      </trkpt>
      <trkpt lat="47.0279" lon="8.92527">
        <ele>1034</ele>
        <time>2021-08-03T08:53:09.259Z</time>
      </trkpt>
      <trkpt lat="47.02791" lon="8.92529">
        <ele>1034</ele>
        <time>2021-08-03T08:53:10.259Z</time>
      </trkpt>
      <trkpt lat="47.02792" lon="8.9253">
        <ele>1034</ele>
        <time>2021-08-03T08:53:11.259Z</time>
      </trkpt>
      <trkpt lat="47.02792" lon="8.9253">
        <ele>1034</ele>
        <time>2021-08-03T08:53:12.259Z</time>
      </trkpt>
      <trkpt lat="47.02793" lon="8.92531">
        <ele>1033</ele>
        <time>2021-08-03T08:53:13.258Z</time>
      </trkpt>
      <trkpt lat="47.02793" lon="8.92532">
        <ele>1033</ele>
        <time>2021-08-03T08:53:14.258Z</time>
      </trkpt>
      <trkpt lat="47.02793" lon="8.92533">
        <ele>1033</ele>
        <time>2021-08-03T08:53:15.259Z</time>
      </trkpt>
      <trkpt lat="47.02794" lon="8.92534">
        <ele>1033</ele>
        <time>2021-08-03T08:53:16.259Z</time>
      </trkpt>
      <trkpt lat="47.02795" lon="8.92534">
        <ele>1034</ele>
        <time>2021-08-03T08:53:17.259Z</time>
      </trkpt>
      <trkpt lat="47.02795" lon="8.92534">
        <ele>1034</ele>
        <time>2021-08-03T08:53:18.259Z</time>
      </trkpt>
      <trkpt lat="47.02795" lon="8.92535">
        <ele>1034</ele>
        <time>2021-08-03T08:53:19.259Z</time>
      </trkpt>
      <trkpt lat="47.02796" lon="8.92536">
        <ele>1034</ele>
        <time>2021-08-03T08:53:20.259Z</time>
      </trkpt>
      <trkpt lat="47.02796" lon="8.92537">
        <ele>1034</ele>
        <time>2021-08-03T08:53:21.259Z</time>
      </trkpt>
      <trkpt lat="47.02797" lon="8.92538">
        <ele>1034</ele>
        <time>2021-08-03T08:53:22.259Z</time>
      </trkpt>
      <trkpt lat="47.02797" lon="8.92538">
        <ele>1034</ele>
        <time>2021-08-03T08:53:23.259Z</time>
      </trkpt>
      <trkpt lat="47.02798" lon="8.92539">
        <ele>1034</ele>
        <time>2021-08-03T08:53:24.258Z</time>
      </trkpt>
      <trkpt lat="47.02798" lon="8.92539">
        <ele>1034</ele>
        <time>2021-08-03T08:53:25.258Z</time>
      </trkpt>
      <trkpt lat="47.02798" lon="8.9254">
        <ele>1034</ele>
        <time>2021-08-03T08:53:26.259Z</time>
      </trkpt>
      <trkpt lat="47.02799" lon="8.92541">
        <ele>1034</ele>
        <time>2021-08-03T08:53:27.258Z</time>
      </trkpt>
      <trkpt lat="47.028" lon="8.92543">
        <ele>1034</ele>
        <time>2021-08-03T08:53:28.259Z</time>
      </trkpt>
      <trkpt lat="47.028" lon="8.92544">
        <ele>1034</ele>
        <time>2021-08-03T08:53:29.258Z</time>
      </trkpt>
      <trkpt lat="47.02801" lon="8.92545">
        <ele>1035</ele>
        <time>2021-08-03T08:53:30.258Z</time>
      </trkpt>
      <trkpt lat="47.02802" lon="8.92546">
        <ele>1035</ele>
        <time>2021-08-03T08:53:31.258Z</time>
      </trkpt>
      <trkpt lat="47.02803" lon="8.92546">
        <ele>1035</ele>
        <time>2021-08-03T08:53:32.258Z</time>
      </trkpt>
      <trkpt lat="47.02804" lon="8.92547">
        <ele>1035</ele>
        <time>2021-08-03T08:53:33.258Z</time>
      </trkpt>
      <trkpt lat="47.02805" lon="8.92548">
        <ele>1036</ele>
        <time>2021-08-03T08:53:34.259Z</time>
      </trkpt>
      <trkpt lat="47.02806" lon="8.92549">
        <ele>1036</ele>
        <time>2021-08-03T08:53:35.258Z</time>
      </trkpt>
      <trkpt lat="47.02806" lon="8.92549">
        <ele>1036</ele>
        <time>2021-08-03T08:53:36.259Z</time>
      </trkpt>
      <trkpt lat="47.02807" lon="8.92551">
        <ele>1036</ele>
        <time>2021-08-03T08:53:37.258Z</time>
      </trkpt>
      <trkpt lat="47.02808" lon="8.92552">
        <ele>1036</ele>
        <time>2021-08-03T08:53:38.258Z</time>
      </trkpt>
      <trkpt lat="47.02808" lon="8.92553">
        <ele>1036</ele>
        <time>2021-08-03T08:53:39.259Z</time>
      </trkpt>
      <trkpt lat="47.02809" lon="8.92554">
        <ele>1036</ele>
        <time>2021-08-03T08:53:40.258Z</time>
      </trkpt>
      <trkpt lat="47.02809" lon="8.92555">
        <ele>1036</ele>
        <time>2021-08-03T08:53:41.258Z</time>
      </trkpt>
      <trkpt lat="47.0281" lon="8.92556">
        <ele>1036</ele>
        <time>2021-08-03T08:53:42.258Z</time>
      </trkpt>
      <trkpt lat="47.02811" lon="8.92557">
        <ele>1035</ele>
        <time>2021-08-03T08:53:43.259Z</time>
      </trkpt>
      <trkpt lat="47.02812" lon="8.92558">
        <ele>1035</ele>
        <time>2021-08-03T08:53:44.258Z</time>
      </trkpt>
      <trkpt lat="47.02812" lon="8.92559">
        <ele>1034</ele>
        <time>2021-08-03T08:53:45.259Z</time>
      </trkpt>
      <trkpt lat="47.02813" lon="8.9256">
        <ele>1035</ele>
        <time>2021-08-03T08:53:46.258Z</time>
      </trkpt>
      <trkpt lat="47.02813" lon="8.92561">
        <ele>1035</ele>
        <time>2021-08-03T08:53:47.258Z</time>
      </trkpt>
      <trkpt lat="47.02813" lon="8.92563">
        <ele>1035</ele>
        <time>2021-08-03T08:53:48.259Z</time>
      </trkpt>
      <trkpt lat="47.02814" lon="8.92564">
        <ele>1035</ele>
        <time>2021-08-03T08:53:49.258Z</time>
      </trkpt>
      <trkpt lat="47.02815" lon="8.92565">
        <ele>1035</ele>
        <time>2021-08-03T08:53:50.258Z</time>
      </trkpt>
      <trkpt lat="47.02816" lon="8.92566">
        <ele>1034</ele>
        <time>2021-08-03T08:53:51.258Z</time>
      </trkpt>
      <trkpt lat="47.02816" lon="8.92567">
        <ele>1034</ele>
        <time>2021-08-03T08:53:52.259Z</time>
      </trkpt>
      <trkpt lat="47.02817" lon="8.92568">
        <ele>1034</ele>
        <time>2021-08-03T08:53:53.259Z</time>
      </trkpt>
      <trkpt lat="47.02818" lon="8.92569">
        <ele>1034</ele>
        <time>2021-08-03T08:53:54.258Z</time>
      </trkpt>
      <trkpt lat="47.02818" lon="8.92569">
        <ele>1035</ele>
        <time>2021-08-03T08:53:55.258Z</time>
      </trkpt>
      <trkpt lat="47.02819" lon="8.9257">
        <ele>1035</ele>
        <time>2021-08-03T08:53:56.258Z</time>
      </trkpt>
      <trkpt lat="47.0282" lon="8.92571">
        <ele>1035</ele>
        <time>2021-08-03T08:53:57.258Z</time>
      </trkpt>
      <trkpt lat="47.0282" lon="8.92571">
        <ele>1035</ele>
        <time>2021-08-03T08:53:58.258Z</time>
      </trkpt>
      <trkpt lat="47.02821" lon="8.92572">
        <ele>1035</ele>
        <time>2021-08-03T08:53:59.258Z</time>
      </trkpt>
      <trkpt lat="47.02822" lon="8.92572">
        <ele>1035</ele>
        <time>2021-08-03T08:54:00.258Z</time>
      </trkpt>
      <trkpt lat="47.02822" lon="8.92573">
        <ele>1035</ele>
        <time>2021-08-03T08:54:01.258Z</time>
      </trkpt>
      <trkpt lat="47.02823" lon="8.92573">
        <ele>1036</ele>
        <time>2021-08-03T08:54:02.258Z</time>
      </trkpt>
      <trkpt lat="47.02824" lon="8.92574">
        <ele>1036</ele>
        <time>2021-08-03T08:54:03.258Z</time>
      </trkpt>
      <trkpt lat="47.02825" lon="8.92575">
        <ele>1036</ele>
        <time>2021-08-03T08:54:04.258Z</time>
      </trkpt>
      <trkpt lat="47.02825" lon="8.92575">
        <ele>1036</ele>
        <time>2021-08-03T08:54:05.258Z</time>
      </trkpt>
      <trkpt lat="47.02826" lon="8.92575">
        <ele>1037</ele>
        <time>2021-08-03T08:54:06.258Z</time>
      </trkpt>
      <trkpt lat="47.02827" lon="8.92575">
        <ele>1038</ele>
        <time>2021-08-03T08:54:07.259Z</time>
      </trkpt>
      <trkpt lat="47.02828" lon="8.92575">
        <ele>1038</ele>
        <time>2021-08-03T08:54:08.259Z</time>
      </trkpt>
      <trkpt lat="47.02829" lon="8.92575">
        <ele>1038</ele>
        <time>2021-08-03T08:54:09.259Z</time>
      </trkpt>
      <trkpt lat="47.0283" lon="8.92574">
        <ele>1038</ele>
        <time>2021-08-03T08:54:10.258Z</time>
      </trkpt>
      <trkpt lat="47.02831" lon="8.92573">
        <ele>1038</ele>
        <time>2021-08-03T08:54:11.259Z</time>
      </trkpt>
      <trkpt lat="47.02832" lon="8.92573">
        <ele>1038</ele>
        <time>2021-08-03T08:54:12.259Z</time>
      </trkpt>
      <trkpt lat="47.02833" lon="8.92572">
        <ele>1038</ele>
        <time>2021-08-03T08:54:13.258Z</time>
      </trkpt>
      <trkpt lat="47.02833" lon="8.92571">
        <ele>1038</ele>
        <time>2021-08-03T08:54:14.259Z</time>
      </trkpt>
      <trkpt lat="47.02833" lon="8.92569">
        <ele>1039</ele>
        <time>2021-08-03T08:54:15.259Z</time>
      </trkpt>
      <trkpt lat="47.02834" lon="8.92568">
        <ele>1039</ele>
        <time>2021-08-03T08:54:16.258Z</time>
      </trkpt>
      <trkpt lat="47.02834" lon="8.92567">
        <ele>1039</ele>
        <time>2021-08-03T08:54:17.258Z</time>
      </trkpt>
      <trkpt lat="47.02835" lon="8.92565">
        <ele>1040</ele>
        <time>2021-08-03T08:54:18.259Z</time>
      </trkpt>
      <trkpt lat="47.02836" lon="8.92564">
        <ele>1040</ele>
        <time>2021-08-03T08:54:19.258Z</time>
      </trkpt>
      <trkpt lat="47.02836" lon="8.92563">
        <ele>1041</ele>
        <time>2021-08-03T08:54:20.258Z</time>
      </trkpt>
      <trkpt lat="47.02836" lon="8.92561">
        <ele>1041</ele>
        <time>2021-08-03T08:54:21.259Z</time>
      </trkpt>
      <trkpt lat="47.02835" lon="8.92559">
        <ele>1041</ele>
        <time>2021-08-03T08:54:22.259Z</time>
      </trkpt>
      <trkpt lat="47.02836" lon="8.92557">
        <ele>1041</ele>
        <time>2021-08-03T08:54:23.259Z</time>
      </trkpt>
      <trkpt lat="47.02835" lon="8.92555">
        <ele>1042</ele>
        <time>2021-08-03T08:54:24.259Z</time>
      </trkpt>
      <trkpt lat="47.02835" lon="8.92553">
        <ele>1042</ele>
        <time>2021-08-03T08:54:25.259Z</time>
      </trkpt>
      <trkpt lat="47.02835" lon="8.92551">
        <ele>1043</ele>
        <time>2021-08-03T08:54:26.259Z</time>
      </trkpt>
      <trkpt lat="47.02834" lon="8.92549">
        <ele>1043</ele>
        <time>2021-08-03T08:54:27.258Z</time>
      </trkpt>
      <trkpt lat="47.02834" lon="8.92547">
        <ele>1043</ele>
        <time>2021-08-03T08:54:28.259Z</time>
      </trkpt>
      <trkpt lat="47.02835" lon="8.92546">
        <ele>1044</ele>
        <time>2021-08-03T08:54:29.259Z</time>
      </trkpt>
      <trkpt lat="47.02834" lon="8.92545">
        <ele>1044</ele>
        <time>2021-08-03T08:54:30.258Z</time>
      </trkpt>
      <trkpt lat="47.02834" lon="8.92544">
        <ele>1045</ele>
        <time>2021-08-03T08:54:31.258Z</time>
      </trkpt>
      <trkpt lat="47.02833" lon="8.92544">
        <ele>1046</ele>
        <time>2021-08-03T08:54:32.258Z</time>
      </trkpt>
      <trkpt lat="47.02833" lon="8.92544">
        <ele>1046</ele>
        <time>2021-08-03T08:54:33.258Z</time>
      </trkpt>
      <trkpt lat="47.02832" lon="8.92544">
        <ele>1046</ele>
        <time>2021-08-03T08:54:34.258Z</time>
      </trkpt>
      <trkpt lat="47.02832" lon="8.92544">
        <ele>1044</ele>
        <time>2021-08-03T08:54:35.258Z</time>
      </trkpt>
      <trkpt lat="47.02832" lon="8.92544">
        <ele>1044</ele>
        <time>2021-08-03T08:54:36.258Z</time>
      </trkpt>
      <trkpt lat="47.02832" lon="8.92543">
        <ele>1044</ele>
        <time>2021-08-03T08:54:37.258Z</time>
      </trkpt>
      <trkpt lat="47.02832" lon="8.92542">
        <ele>1044</ele>
        <time>2021-08-03T08:54:38.259Z</time>
      </trkpt>
      <trkpt lat="47.02832" lon="8.9254">
        <ele>1044</ele>
        <time>2021-08-03T08:54:39.258Z</time>
      </trkpt>
      <trkpt lat="47.02832" lon="8.92539">
        <ele>1044</ele>
        <time>2021-08-03T08:54:40.259Z</time>
      </trkpt>
      <trkpt lat="47.02832" lon="8.92539">
        <ele>1044</ele>
        <time>2021-08-03T08:54:41.259Z</time>
      </trkpt>
      <trkpt lat="47.02832" lon="8.92538">
        <ele>1044</ele>
        <time>2021-08-03T08:54:42.258Z</time>
      </trkpt>
      <trkpt lat="47.02831" lon="8.92538">
        <ele>1044</ele>
        <time>2021-08-03T08:54:43.259Z</time>
      </trkpt>
      <trkpt lat="47.02831" lon="8.92537">
        <ele>1043</ele>
        <time>2021-08-03T08:54:44.259Z</time>
      </trkpt>
      <trkpt lat="47.02831" lon="8.92536">
        <ele>1043</ele>
        <time>2021-08-03T08:54:45.259Z</time>
      </trkpt>
      <trkpt lat="47.02831" lon="8.92535">
        <ele>1043</ele>
        <time>2021-08-03T08:54:46.259Z</time>
      </trkpt>
      <trkpt lat="47.0283" lon="8.92534">
        <ele>1043</ele>
        <time>2021-08-03T08:54:47.258Z</time>
      </trkpt>
      <trkpt lat="47.0283" lon="8.92533">
        <ele>1043</ele>
        <time>2021-08-03T08:54:48.259Z</time>
      </trkpt>
      <trkpt lat="47.0283" lon="8.92532">
        <ele>1043</ele>
        <time>2021-08-03T08:54:49.259Z</time>
      </trkpt>
      <trkpt lat="47.02829" lon="8.92531">
        <ele>1044</ele>
        <time>2021-08-03T08:54:50.259Z</time>
      </trkpt>
      <trkpt lat="47.0283" lon="8.92529">
        <ele>1044</ele>
        <time>2021-08-03T08:54:51.258Z</time>
      </trkpt>
      <trkpt lat="47.0283" lon="8.92528">
        <ele>1045</ele>
        <time>2021-08-03T08:54:52.259Z</time>
      </trkpt>
      <trkpt lat="47.0283" lon="8.92526">
        <ele>1045</ele>
        <time>2021-08-03T08:54:53.259Z</time>
      </trkpt>
      <trkpt lat="47.02831" lon="8.92525">
        <ele>1045</ele>
        <time>2021-08-03T08:54:54.259Z</time>
      </trkpt>
      <trkpt lat="47.0283" lon="8.92523">
        <ele>1045</ele>
        <time>2021-08-03T08:54:55.259Z</time>
      </trkpt>
      <trkpt lat="47.02829" lon="8.92522">
        <ele>1045</ele>
        <time>2021-08-03T08:54:56.259Z</time>
      </trkpt>
      <trkpt lat="47.02829" lon="8.9252">
        <ele>1044</ele>
        <time>2021-08-03T08:54:57.259Z</time>
      </trkpt>
      <trkpt lat="47.02829" lon="8.92519">
        <ele>1044</ele>
        <time>2021-08-03T08:54:58.259Z</time>
      </trkpt>
      <trkpt lat="47.02829" lon="8.92518">
        <ele>1044</ele>
        <time>2021-08-03T08:54:59.259Z</time>
      </trkpt>
      <trkpt lat="47.02829" lon="8.92518">
        <ele>1044</ele>
        <time>2021-08-03T08:55:00.259Z</time>
      </trkpt>
      <trkpt lat="47.02829" lon="8.92517">
        <ele>1044</ele>
        <time>2021-08-03T08:55:01.258Z</time>
      </trkpt>
      <trkpt lat="47.02829" lon="8.92515">
        <ele>1044</ele>
        <time>2021-08-03T08:55:02.259Z</time>
      </trkpt>
      <trkpt lat="47.02829" lon="8.92514">
        <ele>1044</ele>
        <time>2021-08-03T08:55:03.258Z</time>
      </trkpt>
      <trkpt lat="47.02829" lon="8.92513">
        <ele>1044</ele>
        <time>2021-08-03T08:55:04.258Z</time>
      </trkpt>
      <trkpt lat="47.02829" lon="8.92512">
        <ele>1044</ele>
        <time>2021-08-03T08:55:05.259Z</time>
      </trkpt>
      <trkpt lat="47.02829" lon="8.92511">
        <ele>1044</ele>
        <time>2021-08-03T08:55:06.258Z</time>
      </trkpt>
      <trkpt lat="47.02828" lon="8.92511">
        <ele>1045</ele>
        <time>2021-08-03T08:55:07.258Z</time>
      </trkpt>
      <trkpt lat="47.02828" lon="8.9251">
        <ele>1045</ele>
        <time>2021-08-03T08:55:08.258Z</time>
      </trkpt>
      <trkpt lat="47.02827" lon="8.92509">
        <ele>1045</ele>
        <time>2021-08-03T08:55:09.258Z</time>
      </trkpt>
      <trkpt lat="47.02827" lon="8.92507">
        <ele>1045</ele>
        <time>2021-08-03T08:55:10.259Z</time>
      </trkpt>
      <trkpt lat="47.02827" lon="8.92505">
        <ele>1046</ele>
        <time>2021-08-03T08:55:11.259Z</time>
      </trkpt>
      <trkpt lat="47.02827" lon="8.92504">
        <ele>1046</ele>
        <time>2021-08-03T08:55:12.258Z</time>
      </trkpt>
      <trkpt lat="47.02827" lon="8.92502">
        <ele>1046</ele>
        <time>2021-08-03T08:55:13.259Z</time>
      </trkpt>
      <trkpt lat="47.02827" lon="8.925">
        <ele>1046</ele>
        <time>2021-08-03T08:55:14.259Z</time>
      </trkpt>
      <trkpt lat="47.02827" lon="8.92499">
        <ele>1046</ele>
        <time>2021-08-03T08:55:15.259Z</time>
      </trkpt>
      <trkpt lat="47.02827" lon="8.92497">
        <ele>1046</ele>
        <time>2021-08-03T08:55:16.259Z</time>
      </trkpt>
      <trkpt lat="47.02828" lon="8.92495">
        <ele>1046</ele>
        <time>2021-08-03T08:55:17.259Z</time>
      </trkpt>
      <trkpt lat="47.02828" lon="8.92494">
        <ele>1047</ele>
        <time>2021-08-03T08:55:18.259Z</time>
      </trkpt>
      <trkpt lat="47.02828" lon="8.92493">
        <ele>1047</ele>
        <time>2021-08-03T08:55:19.259Z</time>
      </trkpt>
      <trkpt lat="47.02828" lon="8.92491">
        <ele>1048</ele>
        <time>2021-08-03T08:55:20.259Z</time>
      </trkpt>
      <trkpt lat="47.02828" lon="8.9249">
        <ele>1048</ele>
        <time>2021-08-03T08:55:21.259Z</time>
      </trkpt>
      <trkpt lat="47.02827" lon="8.92489">
        <ele>1048</ele>
        <time>2021-08-03T08:55:22.259Z</time>
      </trkpt>
      <trkpt lat="47.02827" lon="8.92489">
        <ele>1049</ele>
        <time>2021-08-03T08:55:23.259Z</time>
      </trkpt>
      <trkpt lat="47.02826" lon="8.92488">
        <ele>1049</ele>
        <time>2021-08-03T08:55:24.259Z</time>
      </trkpt>
      <trkpt lat="47.02826" lon="8.92486">
        <ele>1050</ele>
        <time>2021-08-03T08:55:25.258Z</time>
      </trkpt>
      <trkpt lat="47.02826" lon="8.92485">
        <ele>1050</ele>
        <time>2021-08-03T08:55:26.258Z</time>
      </trkpt>
      <trkpt lat="47.02826" lon="8.92485">
        <ele>1050</ele>
        <time>2021-08-03T08:55:27.258Z</time>
      </trkpt>
      <trkpt lat="47.02826" lon="8.92484">
        <ele>1049</ele>
        <time>2021-08-03T08:55:28.258Z</time>
      </trkpt>
      <trkpt lat="47.02826" lon="8.92483">
        <ele>1049</ele>
        <time>2021-08-03T08:55:29.258Z</time>
      </trkpt>
      <trkpt lat="47.02825" lon="8.92482">
        <ele>1049</ele>
        <time>2021-08-03T08:55:30.259Z</time>
      </trkpt>
      <trkpt lat="47.02825" lon="8.92481">
        <ele>1049</ele>
        <time>2021-08-03T08:55:31.258Z</time>
      </trkpt>
      <trkpt lat="47.02825" lon="8.9248">
        <ele>1048</ele>
        <time>2021-08-03T08:55:32.258Z</time>
      </trkpt>
      <trkpt lat="47.02826" lon="8.92479">
        <ele>1048</ele>
        <time>2021-08-03T08:55:33.259Z</time>
      </trkpt>
      <trkpt lat="47.02826" lon="8.92478">
        <ele>1049</ele>
        <time>2021-08-03T08:55:34.258Z</time>
      </trkpt>
      <trkpt lat="47.02826" lon="8.92478">
        <ele>1049</ele>
        <time>2021-08-03T08:55:35.258Z</time>
      </trkpt>
      <trkpt lat="47.02826" lon="8.92477">
        <ele>1049</ele>
        <time>2021-08-03T08:55:36.259Z</time>
      </trkpt>
      <trkpt lat="47.02825" lon="8.92477">
        <ele>1049</ele>
        <time>2021-08-03T08:55:37.258Z</time>
      </trkpt>
      <trkpt lat="47.02825" lon="8.92477">
        <ele>1049</ele>
        <time>2021-08-03T08:55:38.258Z</time>
      </trkpt>
      <trkpt lat="47.02828" lon="8.9248">
        <ele>1051</ele>
        <time>2021-08-03T08:55:39.259Z</time>
      </trkpt>
      <trkpt lat="47.02829" lon="8.9248">
        <ele>1051</ele>
        <time>2021-08-03T08:55:40.259Z</time>
      </trkpt>
      <trkpt lat="47.02828" lon="8.92479">
        <ele>1051</ele>
        <time>2021-08-03T08:55:41.259Z</time>
      </trkpt>
      <trkpt lat="47.02828" lon="8.92478">
        <ele>1051</ele>
        <time>2021-08-03T08:55:42.260Z</time>
      </trkpt>
      <trkpt lat="47.02827" lon="8.92477">
        <ele>1051</ele>
        <time>2021-08-03T08:55:43.259Z</time>
      </trkpt>
      <trkpt lat="47.02826" lon="8.92475">
        <ele>1051</ele>
        <time>2021-08-03T08:55:44.259Z</time>
      </trkpt>
      <trkpt lat="47.02826" lon="8.92474">
        <ele>1052</ele>
        <time>2021-08-03T08:55:45.259Z</time>
      </trkpt>
      <trkpt lat="47.02826" lon="8.92473">
        <ele>1052</ele>
        <time>2021-08-03T08:55:46.259Z</time>
      </trkpt>
      <trkpt lat="47.02826" lon="8.92473">
        <ele>1051</ele>
        <time>2021-08-03T08:55:47.260Z</time>
      </trkpt>
      <trkpt lat="47.02826" lon="8.92473">
        <ele>1051</ele>
        <time>2021-08-03T08:55:48.260Z</time>
      </trkpt>
      <trkpt lat="47.02825" lon="8.92471">
        <ele>1050</ele>
        <time>2021-08-03T08:55:49.262Z</time>
      </trkpt>
      <trkpt lat="47.02825" lon="8.9247">
        <ele>1050</ele>
        <time>2021-08-03T08:55:50.261Z</time>
      </trkpt>
      <trkpt lat="47.02825" lon="8.92469">
        <ele>1051</ele>
        <time>2021-08-03T08:55:51.262Z</time>
      </trkpt>
      <trkpt lat="47.02825" lon="8.92468">
        <ele>1051</ele>
        <time>2021-08-03T08:55:52.262Z</time>
      </trkpt>
      <trkpt lat="47.02825" lon="8.92467">
        <ele>1052</ele>
        <time>2021-08-03T08:55:53.262Z</time>
      </trkpt>
      <trkpt lat="47.02825" lon="8.92466">
        <ele>1052</ele>
        <time>2021-08-03T08:55:54.262Z</time>
      </trkpt>
      <trkpt lat="47.02825" lon="8.92464">
        <ele>1053</ele>
        <time>2021-08-03T08:55:55.261Z</time>
      </trkpt>
      <trkpt lat="47.02825" lon="8.92464">
        <ele>1053</ele>
        <time>2021-08-03T08:55:56.261Z</time>
      </trkpt>
      <trkpt lat="47.02825" lon="8.92462">
        <ele>1053</ele>
        <time>2021-08-03T08:55:57.262Z</time>
      </trkpt>
      <trkpt lat="47.02824" lon="8.92461">
        <ele>1054</ele>
        <time>2021-08-03T08:55:58.261Z</time>
      </trkpt>
      <trkpt lat="47.02823" lon="8.9246">
        <ele>1054</ele>
        <time>2021-08-03T08:55:59.262Z</time>
      </trkpt>
      <trkpt lat="47.02822" lon="8.92458">
        <ele>1055</ele>
        <time>2021-08-03T08:56:00.261Z</time>
      </trkpt>
      <trkpt lat="47.02822" lon="8.92457">
        <ele>1055</ele>
        <time>2021-08-03T08:56:01.261Z</time>
      </trkpt>
      <trkpt lat="47.02822" lon="8.92456">
        <ele>1056</ele>
        <time>2021-08-03T08:56:02.261Z</time>
      </trkpt>
      <trkpt lat="47.02822" lon="8.92455">
        <ele>1056</ele>
        <time>2021-08-03T08:56:03.261Z</time>
      </trkpt>
      <trkpt lat="47.02822" lon="8.92453">
        <ele>1057</ele>
        <time>2021-08-03T08:56:04.262Z</time>
      </trkpt>
      <trkpt lat="47.02821" lon="8.92452">
        <ele>1057</ele>
        <time>2021-08-03T08:56:05.262Z</time>
      </trkpt>
      <trkpt lat="47.02822" lon="8.92451">
        <ele>1057</ele>
        <time>2021-08-03T08:56:06.261Z</time>
      </trkpt>
      <trkpt lat="47.02822" lon="8.9245">
        <ele>1057</ele>
        <time>2021-08-03T08:56:07.261Z</time>
      </trkpt>
      <trkpt lat="47.02822" lon="8.92449">
        <ele>1056</ele>
        <time>2021-08-03T08:56:08.261Z</time>
      </trkpt>
      <trkpt lat="47.02822" lon="8.92448">
        <ele>1056</ele>
        <time>2021-08-03T08:56:09.261Z</time>
      </trkpt>
      <trkpt lat="47.02822" lon="8.92446">
        <ele>1056</ele>
        <time>2021-08-03T08:56:10.261Z</time>
      </trkpt>
      <trkpt lat="47.02822" lon="8.92444">
        <ele>1056</ele>
        <time>2021-08-03T08:56:11.262Z</time>
      </trkpt>
      <trkpt lat="47.02821" lon="8.92443">
        <ele>1055</ele>
        <time>2021-08-03T08:56:12.261Z</time>
      </trkpt>
      <trkpt lat="47.02821" lon="8.92442">
        <ele>1056</ele>
        <time>2021-08-03T08:56:13.261Z</time>
      </trkpt>
      <trkpt lat="47.02821" lon="8.9244">
        <ele>1056</ele>
        <time>2021-08-03T08:56:14.261Z</time>
      </trkpt>
      <trkpt lat="47.02821" lon="8.92439">
        <ele>1056</ele>
        <time>2021-08-03T08:56:15.261Z</time>
      </trkpt>
      <trkpt lat="47.02821" lon="8.92438">
        <ele>1056</ele>
        <time>2021-08-03T08:56:16.261Z</time>
      </trkpt>
      <trkpt lat="47.02821" lon="8.92437">
        <ele>1056</ele>
        <time>2021-08-03T08:56:17.262Z</time>
      </trkpt>
      <trkpt lat="47.02821" lon="8.92436">
        <ele>1057</ele>
        <time>2021-08-03T08:56:18.261Z</time>
      </trkpt>
      <trkpt lat="47.02821" lon="8.92435">
        <ele>1057</ele>
        <time>2021-08-03T08:56:19.261Z</time>
      </trkpt>
      <trkpt lat="47.02821" lon="8.92435">
        <ele>1057</ele>
        <time>2021-08-03T08:56:20.261Z</time>
      </trkpt>
      <trkpt lat="47.02821" lon="8.92434">
        <ele>1057</ele>
        <time>2021-08-03T08:56:21.261Z</time>
      </trkpt>
      <trkpt lat="47.02821" lon="8.92433">
        <ele>1057</ele>
        <time>2021-08-03T08:56:22.261Z</time>
      </trkpt>
      <trkpt lat="47.0282" lon="8.92433">
        <ele>1057</ele>
        <time>2021-08-03T08:56:23.261Z</time>
      </trkpt>
      <trkpt lat="47.0282" lon="8.92432">
        <ele>1057</ele>
        <time>2021-08-03T08:56:24.261Z</time>
      </trkpt>
      <trkpt lat="47.0282" lon="8.92431">
        <ele>1058</ele>
        <time>2021-08-03T08:56:25.262Z</time>
      </trkpt>
      <trkpt lat="47.0282" lon="8.92431">
        <ele>1057</ele>
        <time>2021-08-03T08:56:26.262Z</time>
      </trkpt>
      <trkpt lat="47.0282" lon="8.9243">
        <ele>1057</ele>
        <time>2021-08-03T08:56:27.262Z</time>
      </trkpt>
      <trkpt lat="47.02821" lon="8.92429">
        <ele>1057</ele>
        <time>2021-08-03T08:56:28.261Z</time>
      </trkpt>
      <trkpt lat="47.02821" lon="8.92428">
        <ele>1057</ele>
        <time>2021-08-03T08:56:29.261Z</time>
      </trkpt>
      <trkpt lat="47.02821" lon="8.92427">
        <ele>1057</ele>
        <time>2021-08-03T08:56:30.262Z</time>
      </trkpt>
      <trkpt lat="47.02821" lon="8.92426">
        <ele>1057</ele>
        <time>2021-08-03T08:56:31.262Z</time>
      </trkpt>
      <trkpt lat="47.0282" lon="8.92425">
        <ele>1056</ele>
        <time>2021-08-03T08:56:32.261Z</time>
      </trkpt>
      <trkpt lat="47.0282" lon="8.92424">
        <ele>1056</ele>
        <time>2021-08-03T08:56:33.261Z</time>
      </trkpt>
      <trkpt lat="47.0282" lon="8.92424">
        <ele>1056</ele>
        <time>2021-08-03T08:56:34.261Z</time>
      </trkpt>
      <trkpt lat="47.02819" lon="8.92423">
        <ele>1056</ele>
        <time>2021-08-03T08:56:35.261Z</time>
      </trkpt>
      <trkpt lat="47.02819" lon="8.92422">
        <ele>1057</ele>
        <time>2021-08-03T08:56:36.262Z</time>
      </trkpt>
      <trkpt lat="47.02819" lon="8.92422">
        <ele>1057</ele>
        <time>2021-08-03T08:56:37.262Z</time>
      </trkpt>
      <trkpt lat="47.02819" lon="8.92421">
        <ele>1057</ele>
        <time>2021-08-03T08:56:38.261Z</time>
      </trkpt>
      <trkpt lat="47.02819" lon="8.92419">
        <ele>1057</ele>
        <time>2021-08-03T08:56:39.261Z</time>
      </trkpt>
      <trkpt lat="47.02819" lon="8.92418">
        <ele>1057</ele>
        <time>2021-08-03T08:56:40.261Z</time>
      </trkpt>
      <trkpt lat="47.02819" lon="8.92418">
        <ele>1057</ele>
        <time>2021-08-03T08:56:41.262Z</time>
      </trkpt>
      <trkpt lat="47.02819" lon="8.92417">
        <ele>1057</ele>
        <time>2021-08-03T08:56:42.262Z</time>
      </trkpt>
      <trkpt lat="47.02819" lon="8.92416">
        <ele>1057</ele>
        <time>2021-08-03T08:56:43.262Z</time>
      </trkpt>
      <trkpt lat="47.02819" lon="8.92415">
        <ele>1056</ele>
        <time>2021-08-03T08:56:44.261Z</time>
      </trkpt>
      <trkpt lat="47.02819" lon="8.92414">
        <ele>1056</ele>
        <time>2021-08-03T08:56:45.261Z</time>
      </trkpt>
      <trkpt lat="47.0282" lon="8.92414">
        <ele>1056</ele>
        <time>2021-08-03T08:56:46.261Z</time>
      </trkpt>
      <trkpt lat="47.0282" lon="8.92413">
        <ele>1056</ele>
        <time>2021-08-03T08:56:47.261Z</time>
      </trkpt>
      <trkpt lat="47.0282" lon="8.92412">
        <ele>1056</ele>
        <time>2021-08-03T08:56:48.261Z</time>
      </trkpt>
      <trkpt lat="47.0282" lon="8.92411">
        <ele>1056</ele>
        <time>2021-08-03T08:56:49.262Z</time>
      </trkpt>
      <trkpt lat="47.0282" lon="8.9241">
        <ele>1056</ele>
        <time>2021-08-03T08:56:50.261Z</time>
      </trkpt>
      <trkpt lat="47.0282" lon="8.92409">
        <ele>1056</ele>
        <time>2021-08-03T08:56:51.261Z</time>
      </trkpt>
      <trkpt lat="47.0282" lon="8.92408">
        <ele>1056</ele>
        <time>2021-08-03T08:56:52.261Z</time>
      </trkpt>
      <trkpt lat="47.0282" lon="8.92406">
        <ele>1057</ele>
        <time>2021-08-03T08:56:53.263Z</time>
      </trkpt>
      <trkpt lat="47.0282" lon="8.92404">
        <ele>1057</ele>
        <time>2021-08-03T08:56:54.262Z</time>
      </trkpt>
      <trkpt lat="47.0282" lon="8.92403">
        <ele>1058</ele>
        <time>2021-08-03T08:56:55.262Z</time>
      </trkpt>
      <trkpt lat="47.0282" lon="8.92402">
        <ele>1059</ele>
        <time>2021-08-03T08:56:56.262Z</time>
      </trkpt>
      <trkpt lat="47.0282" lon="8.92401">
        <ele>1059</ele>
        <time>2021-08-03T08:56:57.262Z</time>
      </trkpt>
      <trkpt lat="47.0282" lon="8.92401">
        <ele>1060</ele>
        <time>2021-08-03T08:56:58.262Z</time>
      </trkpt>
      <trkpt lat="47.02819" lon="8.92402">
        <ele>1060</ele>
        <time>2021-08-03T08:56:59.262Z</time>
      </trkpt>
      <trkpt lat="47.02818" lon="8.92402">
        <ele>1061</ele>
        <time>2021-08-03T08:57:00.262Z</time>
      </trkpt>
      <trkpt lat="47.02818" lon="8.92402">
        <ele>1062</ele>
        <time>2021-08-03T08:57:01.263Z</time>
      </trkpt>
      <trkpt lat="47.02818" lon="8.92401">
        <ele>1062</ele>
        <time>2021-08-03T08:57:02.262Z</time>
      </trkpt>
      <trkpt lat="47.02818" lon="8.92402">
        <ele>1063</ele>
        <time>2021-08-03T08:57:03.263Z</time>
      </trkpt>
      <trkpt lat="47.02819" lon="8.92402">
        <ele>1063</ele>
        <time>2021-08-03T08:57:04.262Z</time>
      </trkpt>
      <trkpt lat="47.0282" lon="8.92401">
        <ele>1063</ele>
        <time>2021-08-03T08:57:05.263Z</time>
      </trkpt>
      <trkpt lat="47.0282" lon="8.924">
        <ele>1063</ele>
        <time>2021-08-03T08:57:06.262Z</time>
      </trkpt>
      <trkpt lat="47.02819" lon="8.92399">
        <ele>1063</ele>
        <time>2021-08-03T08:57:07.263Z</time>
      </trkpt>
      <trkpt lat="47.0282" lon="8.92399">
        <ele>1063</ele>
        <time>2021-08-03T08:57:08.263Z</time>
      </trkpt>
      <trkpt lat="47.0282" lon="8.92398">
        <ele>1063</ele>
        <time>2021-08-03T08:57:09.262Z</time>
      </trkpt>
      <trkpt lat="47.02819" lon="8.92396">
        <ele>1062</ele>
        <time>2021-08-03T08:57:10.262Z</time>
      </trkpt>
      <trkpt lat="47.02819" lon="8.92396">
        <ele>1062</ele>
        <time>2021-08-03T08:57:11.263Z</time>
      </trkpt>
      <trkpt lat="47.02819" lon="8.92394">
        <ele>1062</ele>
        <time>2021-08-03T08:57:12.262Z</time>
      </trkpt>
      <trkpt lat="47.0282" lon="8.92393">
        <ele>1062</ele>
        <time>2021-08-03T08:57:13.263Z</time>
      </trkpt>
      <trkpt lat="47.0282" lon="8.92392">
        <ele>1062</ele>
        <time>2021-08-03T08:57:14.263Z</time>
      </trkpt>
      <trkpt lat="47.0282" lon="8.92391">
        <ele>1062</ele>
        <time>2021-08-03T08:57:15.262Z</time>
      </trkpt>
      <trkpt lat="47.0282" lon="8.92389">
        <ele>1062</ele>
        <time>2021-08-03T08:57:16.262Z</time>
      </trkpt>
      <trkpt lat="47.0282" lon="8.92388">
        <ele>1062</ele>
        <time>2021-08-03T08:57:17.262Z</time>
      </trkpt>
      <trkpt lat="47.0282" lon="8.92387">
        <ele>1062</ele>
        <time>2021-08-03T08:57:18.263Z</time>
      </trkpt>
      <trkpt lat="47.0282" lon="8.92385">
        <ele>1062</ele>
        <time>2021-08-03T08:57:19.262Z</time>
      </trkpt>
      <trkpt lat="47.0282" lon="8.92384">
        <ele>1062</ele>
        <time>2021-08-03T08:57:20.262Z</time>
      </trkpt>
      <trkpt lat="47.0282" lon="8.92384">
        <ele>1062</ele>
        <time>2021-08-03T08:57:21.263Z</time>
      </trkpt>
      <trkpt lat="47.0282" lon="8.92383">
        <ele>1062</ele>
        <time>2021-08-03T08:57:22.262Z</time>
      </trkpt>
      <trkpt lat="47.0282" lon="8.92383">
        <ele>1063</ele>
        <time>2021-08-03T08:57:23.262Z</time>
      </trkpt>
      <trkpt lat="47.0282" lon="8.92382">
        <ele>1063</ele>
        <time>2021-08-03T08:57:24.262Z</time>
      </trkpt>
      <trkpt lat="47.0282" lon="8.92382">
        <ele>1064</ele>
        <time>2021-08-03T08:57:25.262Z</time>
      </trkpt>
      <trkpt lat="47.0282" lon="8.9238">
        <ele>1064</ele>
        <time>2021-08-03T08:57:26.262Z</time>
      </trkpt>
      <trkpt lat="47.0282" lon="8.92378">
        <ele>1065</ele>
        <time>2021-08-03T08:57:27.263Z</time>
      </trkpt>
      <trkpt lat="47.02819" lon="8.92377">
        <ele>1065</ele>
        <time>2021-08-03T08:57:28.262Z</time>
      </trkpt>
      <trkpt lat="47.02818" lon="8.92375">
        <ele>1065</ele>
        <time>2021-08-03T08:57:29.262Z</time>
      </trkpt>
      <trkpt lat="47.02818" lon="8.92375">
        <ele>1066</ele>
        <time>2021-08-03T08:57:30.262Z</time>
      </trkpt>
      <trkpt lat="47.02817" lon="8.92374">
        <ele>1065</ele>
        <time>2021-08-03T08:57:31.262Z</time>
      </trkpt>
      <trkpt lat="47.02817" lon="8.92372">
        <ele>1065</ele>
        <time>2021-08-03T08:57:32.263Z</time>
      </trkpt>
      <trkpt lat="47.02817" lon="8.92372">
        <ele>1065</ele>
        <time>2021-08-03T08:57:33.262Z</time>
      </trkpt>
      <trkpt lat="47.02817" lon="8.92371">
        <ele>1065</ele>
        <time>2021-08-03T08:57:34.263Z</time>
      </trkpt>
      <trkpt lat="47.02817" lon="8.9237">
        <ele>1065</ele>
        <time>2021-08-03T08:57:35.263Z</time>
      </trkpt>
      <trkpt lat="47.02817" lon="8.92369">
        <ele>1066</ele>
        <time>2021-08-03T08:57:36.262Z</time>
      </trkpt>
      <trkpt lat="47.02817" lon="8.92368">
        <ele>1066</ele>
        <time>2021-08-03T08:57:37.262Z</time>
      </trkpt>
      <trkpt lat="47.02816" lon="8.92367">
        <ele>1066</ele>
        <time>2021-08-03T08:57:38.263Z</time>
      </trkpt>
      <trkpt lat="47.02816" lon="8.92367">
        <ele>1066</ele>
        <time>2021-08-03T08:57:39.262Z</time>
      </trkpt>
      <trkpt lat="47.02816" lon="8.92365">
        <ele>1066</ele>
        <time>2021-08-03T08:57:40.263Z</time>
      </trkpt>
      <trkpt lat="47.02816" lon="8.92364">
        <ele>1066</ele>
        <time>2021-08-03T08:57:41.262Z</time>
      </trkpt>
      <trkpt lat="47.02815" lon="8.92363">
        <ele>1066</ele>
        <time>2021-08-03T08:57:42.262Z</time>
      </trkpt>
      <trkpt lat="47.02815" lon="8.92362">
        <ele>1066</ele>
        <time>2021-08-03T08:57:43.262Z</time>
      </trkpt>
      <trkpt lat="47.02815" lon="8.92362">
        <ele>1065</ele>
        <time>2021-08-03T08:57:44.262Z</time>
      </trkpt>
      <trkpt lat="47.02814" lon="8.92361">
        <ele>1065</ele>
        <time>2021-08-03T08:57:45.262Z</time>
      </trkpt>
      <trkpt lat="47.02814" lon="8.92361">
        <ele>1064</ele>
        <time>2021-08-03T08:57:46.263Z</time>
      </trkpt>
      <trkpt lat="47.02813" lon="8.9236">
        <ele>1064</ele>
        <time>2021-08-03T08:57:47.262Z</time>
      </trkpt>
      <trkpt lat="47.02813" lon="8.92358">
        <ele>1064</ele>
        <time>2021-08-03T08:57:48.263Z</time>
      </trkpt>
      <trkpt lat="47.02813" lon="8.92357">
        <ele>1064</ele>
        <time>2021-08-03T08:57:49.262Z</time>
      </trkpt>
      <trkpt lat="47.02813" lon="8.92356">
        <ele>1064</ele>
        <time>2021-08-03T08:57:50.262Z</time>
      </trkpt>
      <trkpt lat="47.02812" lon="8.92355">
        <ele>1064</ele>
        <time>2021-08-03T08:57:51.262Z</time>
      </trkpt>
      <trkpt lat="47.02812" lon="8.92354">
        <ele>1064</ele>
        <time>2021-08-03T08:57:52.262Z</time>
      </trkpt>
      <trkpt lat="47.02812" lon="8.92353">
        <ele>1064</ele>
        <time>2021-08-03T08:57:53.262Z</time>
      </trkpt>
      <trkpt lat="47.02812" lon="8.92352">
        <ele>1064</ele>
        <time>2021-08-03T08:57:54.263Z</time>
      </trkpt>
      <trkpt lat="47.02812" lon="8.92351">
        <ele>1065</ele>
        <time>2021-08-03T08:57:55.263Z</time>
      </trkpt>
      <trkpt lat="47.02812" lon="8.9235">
        <ele>1065</ele>
        <time>2021-08-03T08:57:56.262Z</time>
      </trkpt>
      <trkpt lat="47.02812" lon="8.92349">
        <ele>1066</ele>
        <time>2021-08-03T08:57:57.263Z</time>
      </trkpt>
      <trkpt lat="47.02812" lon="8.92348">
        <ele>1066</ele>
        <time>2021-08-03T08:57:58.262Z</time>
      </trkpt>
      <trkpt lat="47.02812" lon="8.92346">
        <ele>1067</ele>
        <time>2021-08-03T08:57:59.262Z</time>
      </trkpt>
      <trkpt lat="47.02812" lon="8.92345">
        <ele>1067</ele>
        <time>2021-08-03T08:58:00.263Z</time>
      </trkpt>
      <trkpt lat="47.02812" lon="8.92343">
        <ele>1067</ele>
        <time>2021-08-03T08:58:01.262Z</time>
      </trkpt>
      <trkpt lat="47.02812" lon="8.92341">
        <ele>1067</ele>
        <time>2021-08-03T08:58:02.262Z</time>
      </trkpt>
      <trkpt lat="47.02812" lon="8.9234">
        <ele>1067</ele>
        <time>2021-08-03T08:58:03.262Z</time>
      </trkpt>
      <trkpt lat="47.02811" lon="8.92339">
        <ele>1067</ele>
        <time>2021-08-03T08:58:04.262Z</time>
      </trkpt>
      <trkpt lat="47.02811" lon="8.92338">
        <ele>1067</ele>
        <time>2021-08-03T08:58:05.262Z</time>
      </trkpt>
      <trkpt lat="47.02811" lon="8.92337">
        <ele>1067</ele>
        <time>2021-08-03T08:58:06.262Z</time>
      </trkpt>
      <trkpt lat="47.02811" lon="8.92336">
        <ele>1067</ele>
        <time>2021-08-03T08:58:07.263Z</time>
      </trkpt>
      <trkpt lat="47.0281" lon="8.92334">
        <ele>1067</ele>
        <time>2021-08-03T08:58:08.263Z</time>
      </trkpt>
      <trkpt lat="47.0281" lon="8.92332">
        <ele>1068</ele>
        <time>2021-08-03T08:58:09.262Z</time>
      </trkpt>
      <trkpt lat="47.02809" lon="8.92331">
        <ele>1068</ele>
        <time>2021-08-03T08:58:10.263Z</time>
      </trkpt>
      <trkpt lat="47.02808" lon="8.9233">
        <ele>1068</ele>
        <time>2021-08-03T08:58:11.262Z</time>
      </trkpt>
      <trkpt lat="47.02808" lon="8.9233">
        <ele>1069</ele>
        <time>2021-08-03T08:58:12.262Z</time>
      </trkpt>
      <trkpt lat="47.02807" lon="8.92328">
        <ele>1069</ele>
        <time>2021-08-03T08:58:13.262Z</time>
      </trkpt>
      <trkpt lat="47.02807" lon="8.92327">
        <ele>1069</ele>
        <time>2021-08-03T08:58:14.263Z</time>
      </trkpt>
      <trkpt lat="47.02807" lon="8.92326">
        <ele>1069</ele>
        <time>2021-08-03T08:58:15.262Z</time>
      </trkpt>
      <trkpt lat="47.02807" lon="8.92325">
        <ele>1069</ele>
        <time>2021-08-03T08:58:16.263Z</time>
      </trkpt>
      <trkpt lat="47.02806" lon="8.92324">
        <ele>1069</ele>
        <time>2021-08-03T08:58:17.262Z</time>
      </trkpt>
      <trkpt lat="47.02805" lon="8.92323">
        <ele>1069</ele>
        <time>2021-08-03T08:58:18.263Z</time>
      </trkpt>
      <trkpt lat="47.02805" lon="8.92322">
        <ele>1069</ele>
        <time>2021-08-03T08:58:19.262Z</time>
      </trkpt>
      <trkpt lat="47.02805" lon="8.92321">
        <ele>1069</ele>
        <time>2021-08-03T08:58:20.263Z</time>
      </trkpt>
      <trkpt lat="47.02805" lon="8.9232">
        <ele>1069</ele>
        <time>2021-08-03T08:58:21.262Z</time>
      </trkpt>
      <trkpt lat="47.02804" lon="8.92319">
        <ele>1069</ele>
        <time>2021-08-03T08:58:22.262Z</time>
      </trkpt>
      <trkpt lat="47.02804" lon="8.92317">
        <ele>1069</ele>
        <time>2021-08-03T08:58:23.263Z</time>
      </trkpt>
      <trkpt lat="47.02803" lon="8.92316">
        <ele>1069</ele>
        <time>2021-08-03T08:58:24.263Z</time>
      </trkpt>
      <trkpt lat="47.02802" lon="8.92315">
        <ele>1069</ele>
        <time>2021-08-03T08:58:25.262Z</time>
      </trkpt>
      <trkpt lat="47.02802" lon="8.92314">
        <ele>1068</ele>
        <time>2021-08-03T08:58:26.262Z</time>
      </trkpt>
      <trkpt lat="47.02802" lon="8.92313">
        <ele>1068</ele>
        <time>2021-08-03T08:58:27.262Z</time>
      </trkpt>
      <trkpt lat="47.02801" lon="8.92312">
        <ele>1068</ele>
        <time>2021-08-03T08:58:28.262Z</time>
      </trkpt>
      <trkpt lat="47.028" lon="8.92311">
        <ele>1067</ele>
        <time>2021-08-03T08:58:29.262Z</time>
      </trkpt>
      <trkpt lat="47.028" lon="8.9231">
        <ele>1067</ele>
        <time>2021-08-03T08:58:30.263Z</time>
      </trkpt>
      <trkpt lat="47.02799" lon="8.92309">
        <ele>1066</ele>
        <time>2021-08-03T08:58:31.262Z</time>
      </trkpt>
      <trkpt lat="47.02799" lon="8.92308">
        <ele>1066</ele>
        <time>2021-08-03T08:58:32.262Z</time>
      </trkpt>
      <trkpt lat="47.02798" lon="8.92307">
        <ele>1066</ele>
        <time>2021-08-03T08:58:33.263Z</time>
      </trkpt>
      <trkpt lat="47.02798" lon="8.92307">
        <ele>1066</ele>
        <time>2021-08-03T08:58:34.262Z</time>
      </trkpt>
      <trkpt lat="47.02797" lon="8.92306">
        <ele>1066</ele>
        <time>2021-08-03T08:58:35.263Z</time>
      </trkpt>
      <trkpt lat="47.02797" lon="8.92306">
        <ele>1066</ele>
        <time>2021-08-03T08:58:36.262Z</time>
      </trkpt>
      <trkpt lat="47.02797" lon="8.92305">
        <ele>1066</ele>
        <time>2021-08-03T08:58:37.262Z</time>
      </trkpt>
      <trkpt lat="47.02796" lon="8.92304">
        <ele>1067</ele>
        <time>2021-08-03T08:58:38.262Z</time>
      </trkpt>
      <trkpt lat="47.02796" lon="8.92303">
        <ele>1067</ele>
        <time>2021-08-03T08:58:39.263Z</time>
      </trkpt>
      <trkpt lat="47.02795" lon="8.92302">
        <ele>1067</ele>
        <time>2021-08-03T08:58:40.263Z</time>
      </trkpt>
      <trkpt lat="47.02794" lon="8.92301">
        <ele>1068</ele>
        <time>2021-08-03T08:58:41.263Z</time>
      </trkpt>
      <trkpt lat="47.02794" lon="8.923">
        <ele>1068</ele>
        <time>2021-08-03T08:58:42.262Z</time>
      </trkpt>
      <trkpt lat="47.02793" lon="8.92299">
        <ele>1069</ele>
        <time>2021-08-03T08:58:43.262Z</time>
      </trkpt>
      <trkpt lat="47.02792" lon="8.92298">
        <ele>1070</ele>
        <time>2021-08-03T08:58:44.263Z</time>
      </trkpt>
      <trkpt lat="47.02792" lon="8.92297">
        <ele>1070</ele>
        <time>2021-08-03T08:58:45.263Z</time>
      </trkpt>
      <trkpt lat="47.02791" lon="8.92295">
        <ele>1071</ele>
        <time>2021-08-03T08:58:46.262Z</time>
      </trkpt>
      <trkpt lat="47.02791" lon="8.92294">
        <ele>1072</ele>
        <time>2021-08-03T08:58:47.262Z</time>
      </trkpt>
      <trkpt lat="47.0279" lon="8.92293">
        <ele>1072</ele>
        <time>2021-08-03T08:58:48.262Z</time>
      </trkpt>
      <trkpt lat="47.02789" lon="8.92293">
        <ele>1073</ele>
        <time>2021-08-03T08:58:49.263Z</time>
      </trkpt>
      <trkpt lat="47.02789" lon="8.92293">
        <ele>1073</ele>
        <time>2021-08-03T08:58:50.263Z</time>
      </trkpt>
      <trkpt lat="47.02788" lon="8.92293">
        <ele>1074</ele>
        <time>2021-08-03T08:58:51.262Z</time>
      </trkpt>
      <trkpt lat="47.02788" lon="8.92292">
        <ele>1075</ele>
        <time>2021-08-03T08:58:52.262Z</time>
      </trkpt>
      <trkpt lat="47.02787" lon="8.92291">
        <ele>1076</ele>
        <time>2021-08-03T08:58:53.262Z</time>
      </trkpt>
      <trkpt lat="47.02787" lon="8.9229">
        <ele>1076</ele>
        <time>2021-08-03T08:58:54.262Z</time>
      </trkpt>
      <trkpt lat="47.02786" lon="8.92289">
        <ele>1076</ele>
        <time>2021-08-03T08:58:55.263Z</time>
      </trkpt>
      <trkpt lat="47.02784" lon="8.92288">
        <ele>1076</ele>
        <time>2021-08-03T08:58:56.263Z</time>
      </trkpt>
      <trkpt lat="47.02784" lon="8.92288">
        <ele>1076</ele>
        <time>2021-08-03T08:58:57.263Z</time>
      </trkpt>
      <trkpt lat="47.02783" lon="8.92289">
        <ele>1076</ele>
        <time>2021-08-03T08:58:58.262Z</time>
      </trkpt>
      <trkpt lat="47.02783" lon="8.9229">
        <ele>1075</ele>
        <time>2021-08-03T08:58:59.263Z</time>
      </trkpt>
      <trkpt lat="47.02783" lon="8.92288">
        <ele>1075</ele>
        <time>2021-08-03T08:59:00.262Z</time>
      </trkpt>
      <trkpt lat="47.02782" lon="8.92286">
        <ele>1075</ele>
        <time>2021-08-03T08:59:01.262Z</time>
      </trkpt>
      <trkpt lat="47.02781" lon="8.92284">
        <ele>1075</ele>
        <time>2021-08-03T08:59:02.262Z</time>
      </trkpt>
      <trkpt lat="47.02781" lon="8.92283">
        <ele>1075</ele>
        <time>2021-08-03T08:59:03.262Z</time>
      </trkpt>
      <trkpt lat="47.0278" lon="8.92281">
        <ele>1075</ele>
        <time>2021-08-03T08:59:04.262Z</time>
      </trkpt>
      <trkpt lat="47.0278" lon="8.9228">
        <ele>1075</ele>
        <time>2021-08-03T08:59:05.262Z</time>
      </trkpt>
      <trkpt lat="47.0278" lon="8.92278">
        <ele>1075</ele>
        <time>2021-08-03T08:59:06.262Z</time>
      </trkpt>
      <trkpt lat="47.0278" lon="8.92277">
        <ele>1076</ele>
        <time>2021-08-03T08:59:07.262Z</time>
      </trkpt>
      <trkpt lat="47.0278" lon="8.92276">
        <ele>1076</ele>
        <time>2021-08-03T08:59:08.262Z</time>
      </trkpt>
      <trkpt lat="47.02779" lon="8.92275">
        <ele>1076</ele>
        <time>2021-08-03T08:59:09.263Z</time>
      </trkpt>
      <trkpt lat="47.02779" lon="8.92274">
        <ele>1077</ele>
        <time>2021-08-03T08:59:10.262Z</time>
      </trkpt>
      <trkpt lat="47.02778" lon="8.92273">
        <ele>1077</ele>
        <time>2021-08-03T08:59:11.263Z</time>
      </trkpt>
      <trkpt lat="47.02778" lon="8.92272">
        <ele>1077</ele>
        <time>2021-08-03T08:59:12.262Z</time>
      </trkpt>
      <trkpt lat="47.02778" lon="8.9227">
        <ele>1077</ele>
        <time>2021-08-03T08:59:13.262Z</time>
      </trkpt>
      <trkpt lat="47.02778" lon="8.92269">
        <ele>1078</ele>
        <time>2021-08-03T08:59:14.262Z</time>
      </trkpt>
      <trkpt lat="47.02778" lon="8.92268">
        <ele>1078</ele>
        <time>2021-08-03T08:59:15.262Z</time>
      </trkpt>
      <trkpt lat="47.02778" lon="8.92267">
        <ele>1078</ele>
        <time>2021-08-03T08:59:16.262Z</time>
      </trkpt>
      <trkpt lat="47.02778" lon="8.92266">
        <ele>1078</ele>
        <time>2021-08-03T08:59:17.262Z</time>
      </trkpt>
      <trkpt lat="47.02778" lon="8.92265">
        <ele>1078</ele>
        <time>2021-08-03T08:59:18.262Z</time>
      </trkpt>
      <trkpt lat="47.02778" lon="8.92264">
        <ele>1078</ele>
        <time>2021-08-03T08:59:19.263Z</time>
      </trkpt>
      <trkpt lat="47.02779" lon="8.92262">
        <ele>1078</ele>
        <time>2021-08-03T08:59:20.263Z</time>
      </trkpt>
      <trkpt lat="47.02779" lon="8.92261">
        <ele>1078</ele>
        <time>2021-08-03T08:59:21.263Z</time>
      </trkpt>
      <trkpt lat="47.0278" lon="8.92259">
        <ele>1078</ele>
        <time>2021-08-03T08:59:22.262Z</time>
      </trkpt>
      <trkpt lat="47.0278" lon="8.92255">
        <ele>1078</ele>
        <time>2021-08-03T08:59:23.262Z</time>
      </trkpt>
      <trkpt lat="47.0278" lon="8.92254">
        <ele>1077</ele>
        <time>2021-08-03T08:59:24.263Z</time>
      </trkpt>
      <trkpt lat="47.0278" lon="8.92253">
        <ele>1077</ele>
        <time>2021-08-03T08:59:25.263Z</time>
      </trkpt>
      <trkpt lat="47.0278" lon="8.92252">
        <ele>1078</ele>
        <time>2021-08-03T08:59:26.262Z</time>
      </trkpt>
      <trkpt lat="47.0278" lon="8.92251">
        <ele>1078</ele>
        <time>2021-08-03T08:59:27.263Z</time>
      </trkpt>
      <trkpt lat="47.02779" lon="8.92251">
        <ele>1078</ele>
        <time>2021-08-03T08:59:28.262Z</time>
      </trkpt>
      <trkpt lat="47.02779" lon="8.9225">
        <ele>1078</ele>
        <time>2021-08-03T08:59:29.263Z</time>
      </trkpt>
      <trkpt lat="47.02779" lon="8.92249">
        <ele>1078</ele>
        <time>2021-08-03T08:59:30.262Z</time>
      </trkpt>
      <trkpt lat="47.02779" lon="8.92248">
        <ele>1078</ele>
        <time>2021-08-03T08:59:31.262Z</time>
      </trkpt>
      <trkpt lat="47.02779" lon="8.92246">
        <ele>1079</ele>
        <time>2021-08-03T08:59:32.263Z</time>
      </trkpt>
      <trkpt lat="47.02779" lon="8.92245">
        <ele>1079</ele>
        <time>2021-08-03T08:59:33.262Z</time>
      </trkpt>
      <trkpt lat="47.02779" lon="8.92244">
        <ele>1079</ele>
        <time>2021-08-03T08:59:34.262Z</time>
      </trkpt>
      <trkpt lat="47.02779" lon="8.92242">
        <ele>1080</ele>
        <time>2021-08-03T08:59:35.262Z</time>
      </trkpt>
      <trkpt lat="47.02779" lon="8.92241">
        <ele>1080</ele>
        <time>2021-08-03T08:59:36.263Z</time>
      </trkpt>
      <trkpt lat="47.02779" lon="8.9224">
        <ele>1081</ele>
        <time>2021-08-03T08:59:37.263Z</time>
      </trkpt>
      <trkpt lat="47.02779" lon="8.92239">
        <ele>1081</ele>
        <time>2021-08-03T08:59:38.263Z</time>
      </trkpt>
      <trkpt lat="47.0278" lon="8.92238">
        <ele>1082</ele>
        <time>2021-08-03T08:59:39.262Z</time>
      </trkpt>
      <trkpt lat="47.0278" lon="8.92237">
        <ele>1082</ele>
        <time>2021-08-03T08:59:40.262Z</time>
      </trkpt>
      <trkpt lat="47.0278" lon="8.92236">
        <ele>1083</ele>
        <time>2021-08-03T08:59:41.263Z</time>
      </trkpt>
      <trkpt lat="47.0278" lon="8.92235">
        <ele>1083</ele>
        <time>2021-08-03T08:59:42.263Z</time>
      </trkpt>
      <trkpt lat="47.02781" lon="8.92234">
        <ele>1083</ele>
        <time>2021-08-03T08:59:43.262Z</time>
      </trkpt>
      <trkpt lat="47.02782" lon="8.92233">
        <ele>1084</ele>
        <time>2021-08-03T08:59:44.263Z</time>
      </trkpt>
      <trkpt lat="47.02782" lon="8.92232">
        <ele>1084</ele>
        <time>2021-08-03T08:59:45.263Z</time>
      </trkpt>
      <trkpt lat="47.02782" lon="8.92232">
        <ele>1084</ele>
        <time>2021-08-03T08:59:46.262Z</time>
      </trkpt>
      <trkpt lat="47.02782" lon="8.92231">
        <ele>1084</ele>
        <time>2021-08-03T08:59:47.262Z</time>
      </trkpt>
      <trkpt lat="47.02782" lon="8.92231">
        <ele>1083</ele>
        <time>2021-08-03T08:59:48.263Z</time>
      </trkpt>
      <trkpt lat="47.02781" lon="8.9223">
        <ele>1083</ele>
        <time>2021-08-03T08:59:49.263Z</time>
      </trkpt>
      <trkpt lat="47.02782" lon="8.92229">
        <ele>1083</ele>
        <time>2021-08-03T08:59:50.262Z</time>
      </trkpt>
      <trkpt lat="47.02781" lon="8.92227">
        <ele>1083</ele>
        <time>2021-08-03T08:59:51.263Z</time>
      </trkpt>
      <trkpt lat="47.02781" lon="8.92226">
        <ele>1083</ele>
        <time>2021-08-03T08:59:52.263Z</time>
      </trkpt>
      <trkpt lat="47.02781" lon="8.92224">
        <ele>1083</ele>
        <time>2021-08-03T08:59:53.262Z</time>
      </trkpt>
      <trkpt lat="47.02781" lon="8.92224">
        <ele>1083</ele>
        <time>2021-08-03T08:59:54.262Z</time>
      </trkpt>
      <trkpt lat="47.02781" lon="8.92223">
        <ele>1083</ele>
        <time>2021-08-03T08:59:55.263Z</time>
      </trkpt>
      <trkpt lat="47.02781" lon="8.92222">
        <ele>1083</ele>
        <time>2021-08-03T08:59:56.262Z</time>
      </trkpt>
      <trkpt lat="47.02781" lon="8.92221">
        <ele>1083</ele>
        <time>2021-08-03T08:59:57.263Z</time>
      </trkpt>
      <trkpt lat="47.02781" lon="8.92221">
        <ele>1083</ele>
        <time>2021-08-03T08:59:58.263Z</time>
      </trkpt>
      <trkpt lat="47.02782" lon="8.92222">
        <ele>1083</ele>
        <time>2021-08-03T08:59:59.263Z</time>
      </trkpt>
      <trkpt lat="47.02782" lon="8.92222">
        <ele>1083</ele>
        <time>2021-08-03T09:00:00.262Z</time>
      </trkpt>
      <trkpt lat="47.02781" lon="8.92221">
        <ele>1083</ele>
        <time>2021-08-03T09:00:01.263Z</time>
      </trkpt>
      <trkpt lat="47.02781" lon="8.9222">
        <ele>1083</ele>
        <time>2021-08-03T09:00:02.263Z</time>
      </trkpt>
      <trkpt lat="47.02781" lon="8.92219">
        <ele>1082</ele>
        <time>2021-08-03T09:00:03.262Z</time>
      </trkpt>
      <trkpt lat="47.02781" lon="8.92217">
        <ele>1082</ele>
        <time>2021-08-03T09:00:04.262Z</time>
      </trkpt>
      <trkpt lat="47.0278" lon="8.92216">
        <ele>1081</ele>
        <time>2021-08-03T09:00:05.263Z</time>
      </trkpt>
      <trkpt lat="47.0278" lon="8.92215">
        <ele>1081</ele>
        <time>2021-08-03T09:00:06.263Z</time>
      </trkpt>
      <trkpt lat="47.0278" lon="8.92214">
        <ele>1081</ele>
        <time>2021-08-03T09:00:07.262Z</time>
      </trkpt>
      <trkpt lat="47.0278" lon="8.92213">
        <ele>1081</ele>
        <time>2021-08-03T09:00:08.262Z</time>
      </trkpt>
      <trkpt lat="47.0278" lon="8.92212">
        <ele>1081</ele>
        <time>2021-08-03T09:00:09.263Z</time>
      </trkpt>
      <trkpt lat="47.0278" lon="8.92211">
        <ele>1081</ele>
        <time>2021-08-03T09:00:10.262Z</time>
      </trkpt>
      <trkpt lat="47.02779" lon="8.9221">
        <ele>1081</ele>
        <time>2021-08-03T09:00:11.263Z</time>
      </trkpt>
      <trkpt lat="47.02779" lon="8.92208">
        <ele>1081</ele>
        <time>2021-08-03T09:00:12.262Z</time>
      </trkpt>
      <trkpt lat="47.02778" lon="8.92206">
        <ele>1081</ele>
        <time>2021-08-03T09:00:13.262Z</time>
      </trkpt>
      <trkpt lat="47.02777" lon="8.92205">
        <ele>1080</ele>
        <time>2021-08-03T09:00:14.263Z</time>
      </trkpt>
      <trkpt lat="47.02777" lon="8.92204">
        <ele>1080</ele>
        <time>2021-08-03T09:00:15.262Z</time>
      </trkpt>
      <trkpt lat="47.02777" lon="8.92203">
        <ele>1079</ele>
        <time>2021-08-03T09:00:16.262Z</time>
      </trkpt>
      <trkpt lat="47.02776" lon="8.92203">
        <ele>1079</ele>
        <time>2021-08-03T09:00:17.263Z</time>
      </trkpt>
      <trkpt lat="47.02776" lon="8.92203">
        <ele>1079</ele>
        <time>2021-08-03T09:00:18.263Z</time>
      </trkpt>
      <trkpt lat="47.02776" lon="8.92203">
        <ele>1079</ele>
        <time>2021-08-03T09:00:19.263Z</time>
      </trkpt>
      <trkpt lat="47.02776" lon="8.92203">
        <ele>1079</ele>
        <time>2021-08-03T09:00:20.262Z</time>
      </trkpt>
      <trkpt lat="47.02775" lon="8.92201">
        <ele>1080</ele>
        <time>2021-08-03T09:00:21.262Z</time>
      </trkpt>
      <trkpt lat="47.02775" lon="8.922">
        <ele>1080</ele>
        <time>2021-08-03T09:00:22.262Z</time>
      </trkpt>
      <trkpt lat="47.02775" lon="8.92198">
        <ele>1080</ele>
        <time>2021-08-03T09:00:23.263Z</time>
      </trkpt>
      <trkpt lat="47.02774" lon="8.92197">
        <ele>1080</ele>
        <time>2021-08-03T09:00:24.262Z</time>
      </trkpt>
      <trkpt lat="47.02774" lon="8.92197">
        <ele>1080</ele>
        <time>2021-08-03T09:00:25.262Z</time>
      </trkpt>
      <trkpt lat="47.02772" lon="8.92196">
        <ele>1080</ele>
        <time>2021-08-03T09:00:26.262Z</time>
      </trkpt>
      <trkpt lat="47.02771" lon="8.92196">
        <ele>1080</ele>
        <time>2021-08-03T09:00:27.262Z</time>
      </trkpt>
      <trkpt lat="47.0277" lon="8.92195">
        <ele>1080</ele>
        <time>2021-08-03T09:00:28.262Z</time>
      </trkpt>
      <trkpt lat="47.0277" lon="8.92194">
        <ele>1079</ele>
        <time>2021-08-03T09:00:29.263Z</time>
      </trkpt>
      <trkpt lat="47.02769" lon="8.92194">
        <ele>1079</ele>
        <time>2021-08-03T09:00:30.262Z</time>
      </trkpt>
      <trkpt lat="47.02768" lon="8.92193">
        <ele>1078</ele>
        <time>2021-08-03T09:00:31.263Z</time>
      </trkpt>
      <trkpt lat="47.02767" lon="8.92192">
        <ele>1078</ele>
        <time>2021-08-03T09:00:32.262Z</time>
      </trkpt>
      <trkpt lat="47.02766" lon="8.92191">
        <ele>1077</ele>
        <time>2021-08-03T09:00:33.262Z</time>
      </trkpt>
      <trkpt lat="47.02765" lon="8.9219">
        <ele>1077</ele>
        <time>2021-08-03T09:00:34.263Z</time>
      </trkpt>
      <trkpt lat="47.02764" lon="8.92189">
        <ele>1077</ele>
        <time>2021-08-03T09:00:35.263Z</time>
      </trkpt>
      <trkpt lat="47.02763" lon="8.92188">
        <ele>1076</ele>
        <time>2021-08-03T09:00:36.263Z</time>
      </trkpt>
      <trkpt lat="47.02762" lon="8.92188">
        <ele>1076</ele>
        <time>2021-08-03T09:00:37.262Z</time>
      </trkpt>
      <trkpt lat="47.02762" lon="8.92187">
        <ele>1076</ele>
        <time>2021-08-03T09:00:38.263Z</time>
      </trkpt>
      <trkpt lat="47.02761" lon="8.92185">
        <ele>1076</ele>
        <time>2021-08-03T09:00:39.263Z</time>
      </trkpt>
      <trkpt lat="47.02761" lon="8.92183">
        <ele>1075</ele>
        <time>2021-08-03T09:00:40.262Z</time>
      </trkpt>
      <trkpt lat="47.02761" lon="8.92182">
        <ele>1075</ele>
        <time>2021-08-03T09:00:41.263Z</time>
      </trkpt>
      <trkpt lat="47.0276" lon="8.92181">
        <ele>1076</ele>
        <time>2021-08-03T09:00:42.263Z</time>
      </trkpt>
      <trkpt lat="47.0276" lon="8.92179">
        <ele>1076</ele>
        <time>2021-08-03T09:00:43.262Z</time>
      </trkpt>
      <trkpt lat="47.0276" lon="8.92178">
        <ele>1076</ele>
        <time>2021-08-03T09:00:44.262Z</time>
      </trkpt>
      <trkpt lat="47.02759" lon="8.92176">
        <ele>1076</ele>
        <time>2021-08-03T09:00:45.263Z</time>
      </trkpt>
      <trkpt lat="47.02759" lon="8.92175">
        <ele>1076</ele>
        <time>2021-08-03T09:00:46.262Z</time>
      </trkpt>
      <trkpt lat="47.02759" lon="8.92174">
        <ele>1076</ele>
        <time>2021-08-03T09:00:47.262Z</time>
      </trkpt>
      <trkpt lat="47.02759" lon="8.92173">
        <ele>1076</ele>
        <time>2021-08-03T09:00:48.262Z</time>
      </trkpt>
      <trkpt lat="47.02759" lon="8.92173">
        <ele>1077</ele>
        <time>2021-08-03T09:00:49.263Z</time>
      </trkpt>
      <trkpt lat="47.02758" lon="8.92172">
        <ele>1077</ele>
        <time>2021-08-03T09:00:50.263Z</time>
      </trkpt>
      <trkpt lat="47.02758" lon="8.9217">
        <ele>1078</ele>
        <time>2021-08-03T09:00:51.262Z</time>
      </trkpt>
      <trkpt lat="47.02758" lon="8.92169">
        <ele>1078</ele>
        <time>2021-08-03T09:00:52.262Z</time>
      </trkpt>
      <trkpt lat="47.02758" lon="8.92167">
        <ele>1079</ele>
        <time>2021-08-03T09:00:53.262Z</time>
      </trkpt>
      <trkpt lat="47.02758" lon="8.92165">
        <ele>1079</ele>
        <time>2021-08-03T09:00:54.263Z</time>
      </trkpt>
      <trkpt lat="47.02758" lon="8.92164">
        <ele>1080</ele>
        <time>2021-08-03T09:00:55.262Z</time>
      </trkpt>
      <trkpt lat="47.02757" lon="8.92163">
        <ele>1081</ele>
        <time>2021-08-03T09:00:56.263Z</time>
      </trkpt>
      <trkpt lat="47.02757" lon="8.92162">
        <ele>1081</ele>
        <time>2021-08-03T09:00:57.263Z</time>
      </trkpt>
      <trkpt lat="47.02757" lon="8.92162">
        <ele>1082</ele>
        <time>2021-08-03T09:00:58.263Z</time>
      </trkpt>
      <trkpt lat="47.02756" lon="8.92161">
        <ele>1082</ele>
        <time>2021-08-03T09:00:59.263Z</time>
      </trkpt>
      <trkpt lat="47.02756" lon="8.92161">
        <ele>1083</ele>
        <time>2021-08-03T09:01:00.263Z</time>
      </trkpt>
      <trkpt lat="47.02756" lon="8.92161">
        <ele>1083</ele>
        <time>2021-08-03T09:01:01.263Z</time>
      </trkpt>
      <trkpt lat="47.02755" lon="8.9216">
        <ele>1084</ele>
        <time>2021-08-03T09:01:02.262Z</time>
      </trkpt>
      <trkpt lat="47.02754" lon="8.92159">
        <ele>1085</ele>
        <time>2021-08-03T09:01:03.263Z</time>
      </trkpt>
      <trkpt lat="47.02753" lon="8.92159">
        <ele>1085</ele>
        <time>2021-08-03T09:01:04.263Z</time>
      </trkpt>
      <trkpt lat="47.02752" lon="8.92157">
        <ele>1086</ele>
        <time>2021-08-03T09:01:05.262Z</time>
      </trkpt>
      <trkpt lat="47.02752" lon="8.92156">
        <ele>1087</ele>
        <time>2021-08-03T09:01:06.262Z</time>
      </trkpt>
      <trkpt lat="47.02752" lon="8.92154">
        <ele>1088</ele>
        <time>2021-08-03T09:01:07.263Z</time>
      </trkpt>
      <trkpt lat="47.02751" lon="8.92153">
        <ele>1089</ele>
        <time>2021-08-03T09:01:08.262Z</time>
      </trkpt>
      <trkpt lat="47.0275" lon="8.92152">
        <ele>1090</ele>
        <time>2021-08-03T09:01:09.263Z</time>
      </trkpt>
      <trkpt lat="47.02749" lon="8.92151">
        <ele>1090</ele>
        <time>2021-08-03T09:01:10.263Z</time>
      </trkpt>
      <trkpt lat="47.02748" lon="8.9215">
        <ele>1091</ele>
        <time>2021-08-03T09:01:11.263Z</time>
      </trkpt>
      <trkpt lat="47.02748" lon="8.92149">
        <ele>1091</ele>
        <time>2021-08-03T09:01:12.262Z</time>
      </trkpt>
      <trkpt lat="47.02748" lon="8.92148">
        <ele>1091</ele>
        <time>2021-08-03T09:01:13.263Z</time>
      </trkpt>
      <trkpt lat="47.02748" lon="8.92147">
        <ele>1091</ele>
        <time>2021-08-03T09:01:14.262Z</time>
      </trkpt>
      <trkpt lat="47.02747" lon="8.92147">
        <ele>1091</ele>
        <time>2021-08-03T09:01:15.263Z</time>
      </trkpt>
      <trkpt lat="47.02745" lon="8.92146">
        <ele>1092</ele>
        <time>2021-08-03T09:01:16.263Z</time>
      </trkpt>
      <trkpt lat="47.02744" lon="8.92146">
        <ele>1093</ele>
        <time>2021-08-03T09:01:17.263Z</time>
      </trkpt>
      <trkpt lat="47.02743" lon="8.92145">
        <ele>1093</ele>
        <time>2021-08-03T09:01:18.263Z</time>
      </trkpt>
      <trkpt lat="47.02742" lon="8.92145">
        <ele>1094</ele>
        <time>2021-08-03T09:01:19.263Z</time>
      </trkpt>
      <trkpt lat="47.0274" lon="8.92144">
        <ele>1094</ele>
        <time>2021-08-03T09:01:20.263Z</time>
      </trkpt>
      <trkpt lat="47.02739" lon="8.92143">
        <ele>1095</ele>
        <time>2021-08-03T09:01:21.263Z</time>
      </trkpt>
      <trkpt lat="47.02737" lon="8.92144">
        <ele>1095</ele>
        <time>2021-08-03T09:01:22.263Z</time>
      </trkpt>
      <trkpt lat="47.02736" lon="8.92143">
        <ele>1096</ele>
        <time>2021-08-03T09:01:23.262Z</time>
      </trkpt>
      <trkpt lat="47.02735" lon="8.92143">
        <ele>1096</ele>
        <time>2021-08-03T09:01:24.263Z</time>
      </trkpt>
      <trkpt lat="47.02734" lon="8.92142">
        <ele>1096</ele>
        <time>2021-08-03T09:01:25.262Z</time>
      </trkpt>
      <trkpt lat="47.02733" lon="8.9214">
        <ele>1096</ele>
        <time>2021-08-03T09:01:26.263Z</time>
      </trkpt>
      <trkpt lat="47.02732" lon="8.92139">
        <ele>1096</ele>
        <time>2021-08-03T09:01:27.263Z</time>
      </trkpt>
      <trkpt lat="47.02732" lon="8.92138">
        <ele>1096</ele>
        <time>2021-08-03T09:01:28.262Z</time>
      </trkpt>
      <trkpt lat="47.02731" lon="8.92137">
        <ele>1097</ele>
        <time>2021-08-03T09:01:29.262Z</time>
      </trkpt>
      <trkpt lat="47.02731" lon="8.92135">
        <ele>1097</ele>
        <time>2021-08-03T09:01:30.262Z</time>
      </trkpt>
      <trkpt lat="47.0273" lon="8.92133">
        <ele>1097</ele>
        <time>2021-08-03T09:01:31.263Z</time>
      </trkpt>
      <trkpt lat="47.02729" lon="8.92131">
        <ele>1097</ele>
        <time>2021-08-03T09:01:32.263Z</time>
      </trkpt>
      <trkpt lat="47.02728" lon="8.92129">
        <ele>1097</ele>
        <time>2021-08-03T09:01:33.263Z</time>
      </trkpt>
      <trkpt lat="47.02728" lon="8.92128">
        <ele>1098</ele>
        <time>2021-08-03T09:01:34.263Z</time>
      </trkpt>
      <trkpt lat="47.02728" lon="8.92126">
        <ele>1098</ele>
        <time>2021-08-03T09:01:35.263Z</time>
      </trkpt>
      <trkpt lat="47.02728" lon="8.92124">
        <ele>1098</ele>
        <time>2021-08-03T09:01:36.263Z</time>
      </trkpt>
      <trkpt lat="47.02728" lon="8.92124">
        <ele>1098</ele>
        <time>2021-08-03T09:01:37.263Z</time>
      </trkpt>
      <trkpt lat="47.02728" lon="8.92124">
        <ele>1098</ele>
        <time>2021-08-03T09:01:38.263Z</time>
      </trkpt>
      <trkpt lat="47.02727" lon="8.92124">
        <ele>1098</ele>
        <time>2021-08-03T09:01:39.263Z</time>
      </trkpt>
      <trkpt lat="47.02727" lon="8.92125">
        <ele>1098</ele>
        <time>2021-08-03T09:01:40.262Z</time>
      </trkpt>
      <trkpt lat="47.02727" lon="8.92124">
        <ele>1099</ele>
        <time>2021-08-03T09:01:41.263Z</time>
      </trkpt>
      <trkpt lat="47.02727" lon="8.92124">
        <ele>1099</ele>
        <time>2021-08-03T09:01:42.263Z</time>
      </trkpt>
      <trkpt lat="47.02728" lon="8.92124">
        <ele>1099</ele>
        <time>2021-08-03T09:01:43.263Z</time>
      </trkpt>
      <trkpt lat="47.02728" lon="8.92125">
        <ele>1099</ele>
        <time>2021-08-03T09:01:44.262Z</time>
      </trkpt>
      <trkpt lat="47.02726" lon="8.92124">
        <ele>1098</ele>
        <time>2021-08-03T09:01:45.262Z</time>
      </trkpt>
      <trkpt lat="47.02725" lon="8.92124">
        <ele>1098</ele>
        <time>2021-08-03T09:01:46.262Z</time>
      </trkpt>
      <trkpt lat="47.02724" lon="8.92124">
        <ele>1098</ele>
        <time>2021-08-03T09:01:47.262Z</time>
      </trkpt>
      <trkpt lat="47.02723" lon="8.92123">
        <ele>1098</ele>
        <time>2021-08-03T09:01:48.263Z</time>
      </trkpt>
      <trkpt lat="47.02723" lon="8.92123">
        <ele>1097</ele>
        <time>2021-08-03T09:01:49.263Z</time>
      </trkpt>
      <trkpt lat="47.02722" lon="8.92123">
        <ele>1097</ele>
        <time>2021-08-03T09:01:50.262Z</time>
      </trkpt>
      <trkpt lat="47.0272" lon="8.92124">
        <ele>1101</ele>
        <time>2021-08-03T09:01:51.262Z</time>
      </trkpt>
      <trkpt lat="47.0272" lon="8.92124">
        <ele>1102</ele>
        <time>2021-08-03T09:01:52.263Z</time>
      </trkpt>
      <trkpt lat="47.0272" lon="8.92123">
        <ele>1102</ele>
        <time>2021-08-03T09:01:53.262Z</time>
      </trkpt>
      <trkpt lat="47.0272" lon="8.92122">
        <ele>1102</ele>
        <time>2021-08-03T09:01:54.263Z</time>
      </trkpt>
      <trkpt lat="47.0272" lon="8.92121">
        <ele>1102</ele>
        <time>2021-08-03T09:01:55.263Z</time>
      </trkpt>
      <trkpt lat="47.0272" lon="8.9212">
        <ele>1102</ele>
        <time>2021-08-03T09:01:56.263Z</time>
      </trkpt>
      <trkpt lat="47.0272" lon="8.9212">
        <ele>1101</ele>
        <time>2021-08-03T09:01:57.263Z</time>
      </trkpt>
      <trkpt lat="47.0272" lon="8.9212">
        <ele>1101</ele>
        <time>2021-08-03T09:01:58.263Z</time>
      </trkpt>
      <trkpt lat="47.0272" lon="8.92118">
        <ele>1100</ele>
        <time>2021-08-03T09:01:59.263Z</time>
      </trkpt>
      <trkpt lat="47.02719" lon="8.92116">
        <ele>1100</ele>
        <time>2021-08-03T09:02:00.263Z</time>
      </trkpt>
      <trkpt lat="47.02719" lon="8.92114">
        <ele>1100</ele>
        <time>2021-08-03T09:02:01.262Z</time>
      </trkpt>
      <trkpt lat="47.02718" lon="8.92113">
        <ele>1100</ele>
        <time>2021-08-03T09:02:02.262Z</time>
      </trkpt>
      <trkpt lat="47.02717" lon="8.92111">
        <ele>1100</ele>
        <time>2021-08-03T09:02:03.262Z</time>
      </trkpt>
      <trkpt lat="47.02716" lon="8.92111">
        <ele>1100</ele>
        <time>2021-08-03T09:02:04.262Z</time>
      </trkpt>
      <trkpt lat="47.02715" lon="8.9211">
        <ele>1100</ele>
        <time>2021-08-03T09:02:05.263Z</time>
      </trkpt>
      <trkpt lat="47.02715" lon="8.92111">
        <ele>1099</ele>
        <time>2021-08-03T09:02:06.263Z</time>
      </trkpt>
      <trkpt lat="47.02714" lon="8.92111">
        <ele>1099</ele>
        <time>2021-08-03T09:02:07.262Z</time>
      </trkpt>
      <trkpt lat="47.02714" lon="8.92111">
        <ele>1099</ele>
        <time>2021-08-03T09:02:08.262Z</time>
      </trkpt>
      <trkpt lat="47.02713" lon="8.92111">
        <ele>1099</ele>
        <time>2021-08-03T09:02:09.262Z</time>
      </trkpt>
      <trkpt lat="47.02713" lon="8.92111">
        <ele>1099</ele>
        <time>2021-08-03T09:02:10.262Z</time>
      </trkpt>
      <trkpt lat="47.02713" lon="8.92111">
        <ele>1099</ele>
        <time>2021-08-03T09:02:11.263Z</time>
      </trkpt>
      <trkpt lat="47.02713" lon="8.9211">
        <ele>1099</ele>
        <time>2021-08-03T09:02:12.265Z</time>
      </trkpt>
      <trkpt lat="47.02714" lon="8.92109">
        <ele>1099</ele>
        <time>2021-08-03T09:02:13.265Z</time>
      </trkpt>
      <trkpt lat="47.02714" lon="8.92107">
        <ele>1099</ele>
        <time>2021-08-03T09:02:14.264Z</time>
      </trkpt>
      <trkpt lat="47.02714" lon="8.92106">
        <ele>1098</ele>
        <time>2021-08-03T09:02:15.265Z</time>
      </trkpt>
      <trkpt lat="47.02711" lon="8.92099">
        <ele>1097</ele>
        <time>2021-08-03T09:02:16.265Z</time>
      </trkpt>
      <trkpt lat="47.02711" lon="8.92098">
        <ele>1097</ele>
        <time>2021-08-03T09:02:17.264Z</time>
      </trkpt>
      <trkpt lat="47.0271" lon="8.92097">
        <ele>1097</ele>
        <time>2021-08-03T09:02:18.264Z</time>
      </trkpt>
      <trkpt lat="47.0271" lon="8.92097">
        <ele>1097</ele>
        <time>2021-08-03T09:02:19.265Z</time>
      </trkpt>
      <trkpt lat="47.02709" lon="8.92096">
        <ele>1096</ele>
        <time>2021-08-03T09:02:20.265Z</time>
      </trkpt>
      <trkpt lat="47.02708" lon="8.92095">
        <ele>1096</ele>
        <time>2021-08-03T09:02:21.266Z</time>
      </trkpt>
      <trkpt lat="47.02707" lon="8.92095">
        <ele>1096</ele>
        <time>2021-08-03T09:02:22.266Z</time>
      </trkpt>
      <trkpt lat="47.02706" lon="8.92095">
        <ele>1096</ele>
        <time>2021-08-03T09:02:23.265Z</time>
      </trkpt>
      <trkpt lat="47.02705" lon="8.92094">
        <ele>1096</ele>
        <time>2021-08-03T09:02:24.266Z</time>
      </trkpt>
      <trkpt lat="47.02705" lon="8.92094">
        <ele>1096</ele>
        <time>2021-08-03T09:02:25.266Z</time>
      </trkpt>
      <trkpt lat="47.02705" lon="8.92093">
        <ele>1096</ele>
        <time>2021-08-03T09:02:26.265Z</time>
      </trkpt>
      <trkpt lat="47.02705" lon="8.92092">
        <ele>1096</ele>
        <time>2021-08-03T09:02:27.266Z</time>
      </trkpt>
      <trkpt lat="47.02704" lon="8.92091">
        <ele>1096</ele>
        <time>2021-08-03T09:02:28.266Z</time>
      </trkpt>
      <trkpt lat="47.02704" lon="8.9209">
        <ele>1096</ele>
        <time>2021-08-03T09:02:29.266Z</time>
      </trkpt>
      <trkpt lat="47.02704" lon="8.9209">
        <ele>1096</ele>
        <time>2021-08-03T09:02:30.265Z</time>
      </trkpt>
      <trkpt lat="47.02703" lon="8.9209">
        <ele>1096</ele>
        <time>2021-08-03T09:02:31.266Z</time>
      </trkpt>
      <trkpt lat="47.02702" lon="8.92089">
        <ele>1096</ele>
        <time>2021-08-03T09:02:32.266Z</time>
      </trkpt>
      <trkpt lat="47.02701" lon="8.92088">
        <ele>1097</ele>
        <time>2021-08-03T09:02:33.266Z</time>
      </trkpt>
      <trkpt lat="47.02701" lon="8.92087">
        <ele>1097</ele>
        <time>2021-08-03T09:02:34.266Z</time>
      </trkpt>
      <trkpt lat="47.027" lon="8.92086">
        <ele>1098</ele>
        <time>2021-08-03T09:02:35.265Z</time>
      </trkpt>
      <trkpt lat="47.027" lon="8.92085">
        <ele>1098</ele>
        <time>2021-08-03T09:02:36.265Z</time>
      </trkpt>
      <trkpt lat="47.027" lon="8.92085">
        <ele>1098</ele>
        <time>2021-08-03T09:02:37.265Z</time>
      </trkpt>
      <trkpt lat="47.02699" lon="8.92085">
        <ele>1099</ele>
        <time>2021-08-03T09:02:38.266Z</time>
      </trkpt>
      <trkpt lat="47.02699" lon="8.92085">
        <ele>1099</ele>
        <time>2021-08-03T09:02:39.266Z</time>
      </trkpt>
      <trkpt lat="47.02699" lon="8.92084">
        <ele>1100</ele>
        <time>2021-08-03T09:02:40.265Z</time>
      </trkpt>
      <trkpt lat="47.02699" lon="8.92083">
        <ele>1100</ele>
        <time>2021-08-03T09:02:41.266Z</time>
      </trkpt>
      <trkpt lat="47.02698" lon="8.92081">
        <ele>1100</ele>
        <time>2021-08-03T09:02:42.266Z</time>
      </trkpt>
      <trkpt lat="47.02698" lon="8.92079">
        <ele>1101</ele>
        <time>2021-08-03T09:02:43.266Z</time>
      </trkpt>
      <trkpt lat="47.02699" lon="8.92079">
        <ele>1101</ele>
        <time>2021-08-03T09:02:44.266Z</time>
      </trkpt>
      <trkpt lat="47.02698" lon="8.92079">
        <ele>1101</ele>
        <time>2021-08-03T09:02:45.266Z</time>
      </trkpt>
      <trkpt lat="47.02697" lon="8.92078">
        <ele>1101</ele>
        <time>2021-08-03T09:02:46.266Z</time>
      </trkpt>
      <trkpt lat="47.02696" lon="8.92078">
        <ele>1101</ele>
        <time>2021-08-03T09:02:47.265Z</time>
      </trkpt>
      <trkpt lat="47.02695" lon="8.92077">
        <ele>1101</ele>
        <time>2021-08-03T09:02:48.266Z</time>
      </trkpt>
      <trkpt lat="47.02695" lon="8.92076">
        <ele>1101</ele>
        <time>2021-08-03T09:02:49.265Z</time>
      </trkpt>
      <trkpt lat="47.02695" lon="8.92075">
        <ele>1101</ele>
        <time>2021-08-03T09:02:50.265Z</time>
      </trkpt>
      <trkpt lat="47.02695" lon="8.92074">
        <ele>1102</ele>
        <time>2021-08-03T09:02:51.265Z</time>
      </trkpt>
      <trkpt lat="47.02694" lon="8.92073">
        <ele>1102</ele>
        <time>2021-08-03T09:02:52.266Z</time>
      </trkpt>
      <trkpt lat="47.02694" lon="8.92072">
        <ele>1102</ele>
        <time>2021-08-03T09:02:53.266Z</time>
      </trkpt>
      <trkpt lat="47.02693" lon="8.92072">
        <ele>1103</ele>
        <time>2021-08-03T09:02:54.265Z</time>
      </trkpt>
      <trkpt lat="47.02693" lon="8.92071">
        <ele>1103</ele>
        <time>2021-08-03T09:02:55.266Z</time>
      </trkpt>
      <trkpt lat="47.02692" lon="8.9207">
        <ele>1104</ele>
        <time>2021-08-03T09:02:56.265Z</time>
      </trkpt>
      <trkpt lat="47.02691" lon="8.92069">
        <ele>1104</ele>
        <time>2021-08-03T09:02:57.266Z</time>
      </trkpt>
      <trkpt lat="47.02691" lon="8.92069">
        <ele>1105</ele>
        <time>2021-08-03T09:02:58.266Z</time>
      </trkpt>
      <trkpt lat="47.02689" lon="8.92068">
        <ele>1105</ele>
        <time>2021-08-03T09:02:59.266Z</time>
      </trkpt>
      <trkpt lat="47.02688" lon="8.92068">
        <ele>1105</ele>
        <time>2021-08-03T09:03:00.265Z</time>
      </trkpt>
      <trkpt lat="47.02688" lon="8.92069">
        <ele>1105</ele>
        <time>2021-08-03T09:03:01.266Z</time>
      </trkpt>
      <trkpt lat="47.02687" lon="8.92068">
        <ele>1105</ele>
        <time>2021-08-03T09:03:02.265Z</time>
      </trkpt>
      <trkpt lat="47.02686" lon="8.92067">
        <ele>1105</ele>
        <time>2021-08-03T09:03:03.266Z</time>
      </trkpt>
      <trkpt lat="47.02686" lon="8.92066">
        <ele>1105</ele>
        <time>2021-08-03T09:03:04.265Z</time>
      </trkpt>
      <trkpt lat="47.02685" lon="8.92065">
        <ele>1106</ele>
        <time>2021-08-03T09:03:05.266Z</time>
      </trkpt>
      <trkpt lat="47.02684" lon="8.92065">
        <ele>1106</ele>
        <time>2021-08-03T09:03:06.265Z</time>
      </trkpt>
      <trkpt lat="47.02684" lon="8.92064">
        <ele>1107</ele>
        <time>2021-08-03T09:03:07.266Z</time>
      </trkpt>
      <trkpt lat="47.02684" lon="8.92063">
        <ele>1107</ele>
        <time>2021-08-03T09:03:08.266Z</time>
      </trkpt>
      <trkpt lat="47.02684" lon="8.92061">
        <ele>1107</ele>
        <time>2021-08-03T09:03:09.265Z</time>
      </trkpt>
      <trkpt lat="47.02683" lon="8.9206">
        <ele>1108</ele>
        <time>2021-08-03T09:03:10.266Z</time>
      </trkpt>
      <trkpt lat="47.02683" lon="8.9206">
        <ele>1108</ele>
        <time>2021-08-03T09:03:11.265Z</time>
      </trkpt>
      <trkpt lat="47.02682" lon="8.92059">
        <ele>1108</ele>
        <time>2021-08-03T09:03:12.266Z</time>
      </trkpt>
      <trkpt lat="47.02682" lon="8.92058">
        <ele>1108</ele>
        <time>2021-08-03T09:03:13.266Z</time>
      </trkpt>
      <trkpt lat="47.02682" lon="8.92058">
        <ele>1108</ele>
        <time>2021-08-03T09:03:14.265Z</time>
      </trkpt>
      <trkpt lat="47.02682" lon="8.92056">
        <ele>1108</ele>
        <time>2021-08-03T09:03:15.266Z</time>
      </trkpt>
      <trkpt lat="47.02683" lon="8.92055">
        <ele>1108</ele>
        <time>2021-08-03T09:03:16.266Z</time>
      </trkpt>
      <trkpt lat="47.02684" lon="8.92053">
        <ele>1108</ele>
        <time>2021-08-03T09:03:17.265Z</time>
      </trkpt>
      <trkpt lat="47.02684" lon="8.92052">
        <ele>1108</ele>
        <time>2021-08-03T09:03:18.266Z</time>
      </trkpt>
      <trkpt lat="47.02684" lon="8.92051">
        <ele>1108</ele>
        <time>2021-08-03T09:03:19.266Z</time>
      </trkpt>
      <trkpt lat="47.02685" lon="8.92051">
        <ele>1108</ele>
        <time>2021-08-03T09:03:20.266Z</time>
      </trkpt>
      <trkpt lat="47.02685" lon="8.92051">
        <ele>1108</ele>
        <time>2021-08-03T09:03:21.265Z</time>
      </trkpt>
      <trkpt lat="47.02684" lon="8.92051">
        <ele>1108</ele>
        <time>2021-08-03T09:03:22.266Z</time>
      </trkpt>
      <trkpt lat="47.02683" lon="8.9205">
        <ele>1109</ele>
        <time>2021-08-03T09:03:23.265Z</time>
      </trkpt>
      <trkpt lat="47.02683" lon="8.92049">
        <ele>1109</ele>
        <time>2021-08-03T09:03:24.265Z</time>
      </trkpt>
      <trkpt lat="47.02682" lon="8.92047">
        <ele>1108</ele>
        <time>2021-08-03T09:03:25.266Z</time>
      </trkpt>
      <trkpt lat="47.02681" lon="8.92046">
        <ele>1108</ele>
        <time>2021-08-03T09:03:26.266Z</time>
      </trkpt>
      <trkpt lat="47.02681" lon="8.92045">
        <ele>1108</ele>
        <time>2021-08-03T09:03:27.266Z</time>
      </trkpt>
      <trkpt lat="47.0268" lon="8.92044">
        <ele>1107</ele>
        <time>2021-08-03T09:03:28.265Z</time>
      </trkpt>
      <trkpt lat="47.0268" lon="8.92043">
        <ele>1107</ele>
        <time>2021-08-03T09:03:29.266Z</time>
      </trkpt>
      <trkpt lat="47.02679" lon="8.92043">
        <ele>1107</ele>
        <time>2021-08-03T09:03:30.265Z</time>
      </trkpt>
      <trkpt lat="47.02678" lon="8.92042">
        <ele>1107</ele>
        <time>2021-08-03T09:03:31.266Z</time>
      </trkpt>
      <trkpt lat="47.02678" lon="8.92042">
        <ele>1106</ele>
        <time>2021-08-03T09:03:32.266Z</time>
      </trkpt>
      <trkpt lat="47.02677" lon="8.92041">
        <ele>1106</ele>
        <time>2021-08-03T09:03:33.266Z</time>
      </trkpt>
      <trkpt lat="47.02676" lon="8.92041">
        <ele>1106</ele>
        <time>2021-08-03T09:03:34.266Z</time>
      </trkpt>
      <trkpt lat="47.02676" lon="8.9204">
        <ele>1106</ele>
        <time>2021-08-03T09:03:35.265Z</time>
      </trkpt>
      <trkpt lat="47.02675" lon="8.92038">
        <ele>1106</ele>
        <time>2021-08-03T09:03:36.265Z</time>
      </trkpt>
      <trkpt lat="47.02675" lon="8.92036">
        <ele>1106</ele>
        <time>2021-08-03T09:03:37.266Z</time>
      </trkpt>
      <trkpt lat="47.02674" lon="8.92034">
        <ele>1105</ele>
        <time>2021-08-03T09:03:38.266Z</time>
      </trkpt>
      <trkpt lat="47.02674" lon="8.92033">
        <ele>1105</ele>
        <time>2021-08-03T09:03:39.266Z</time>
      </trkpt>
      <trkpt lat="47.02674" lon="8.92032">
        <ele>1104</ele>
        <time>2021-08-03T09:03:40.266Z</time>
      </trkpt>
      <trkpt lat="47.02673" lon="8.92028">
        <ele>1101</ele>
        <time>2021-08-03T09:03:41.266Z</time>
      </trkpt>
      <trkpt lat="47.02673" lon="8.92028">
        <ele>1101</ele>
        <time>2021-08-03T09:03:42.266Z</time>
      </trkpt>
      <trkpt lat="47.02673" lon="8.92026">
        <ele>1100</ele>
        <time>2021-08-03T09:03:43.266Z</time>
      </trkpt>
      <trkpt lat="47.02673" lon="8.92025">
        <ele>1099</ele>
        <time>2021-08-03T09:03:44.266Z</time>
      </trkpt>
      <trkpt lat="47.02673" lon="8.92023">
        <ele>1099</ele>
        <time>2021-08-03T09:03:45.266Z</time>
      </trkpt>
      <trkpt lat="47.02672" lon="8.92021">
        <ele>1098</ele>
        <time>2021-08-03T09:03:46.266Z</time>
      </trkpt>
      <trkpt lat="47.02672" lon="8.92019">
        <ele>1098</ele>
        <time>2021-08-03T09:03:47.266Z</time>
      </trkpt>
      <trkpt lat="47.02671" lon="8.92018">
        <ele>1098</ele>
        <time>2021-08-03T09:03:48.266Z</time>
      </trkpt>
      <trkpt lat="47.02671" lon="8.92018">
        <ele>1097</ele>
        <time>2021-08-03T09:03:49.266Z</time>
      </trkpt>
      <trkpt lat="47.0267" lon="8.92018">
        <ele>1098</ele>
        <time>2021-08-03T09:03:50.266Z</time>
      </trkpt>
      <trkpt lat="47.0267" lon="8.92017">
        <ele>1098</ele>
        <time>2021-08-03T09:03:51.266Z</time>
      </trkpt>
      <trkpt lat="47.02671" lon="8.92017">
        <ele>1098</ele>
        <time>2021-08-03T09:03:52.266Z</time>
      </trkpt>
      <trkpt lat="47.02671" lon="8.92017">
        <ele>1098</ele>
        <time>2021-08-03T09:03:53.266Z</time>
      </trkpt>
      <trkpt lat="47.02671" lon="8.92016">
        <ele>1099</ele>
        <time>2021-08-03T09:03:54.266Z</time>
      </trkpt>
      <trkpt lat="47.02672" lon="8.92015">
        <ele>1100</ele>
        <time>2021-08-03T09:03:55.266Z</time>
      </trkpt>
      <trkpt lat="47.02671" lon="8.92014">
        <ele>1100</ele>
        <time>2021-08-03T09:03:56.267Z</time>
      </trkpt>
      <trkpt lat="47.0267" lon="8.92013">
        <ele>1100</ele>
        <time>2021-08-03T09:03:57.267Z</time>
      </trkpt>
      <trkpt lat="47.0267" lon="8.92012">
        <ele>1100</ele>
        <time>2021-08-03T09:03:58.267Z</time>
      </trkpt>
      <trkpt lat="47.0267" lon="8.92011">
        <ele>1100</ele>
        <time>2021-08-03T09:03:59.267Z</time>
      </trkpt>
      <trkpt lat="47.0267" lon="8.92011">
        <ele>1100</ele>
        <time>2021-08-03T09:04:00.266Z</time>
      </trkpt>
      <trkpt lat="47.02669" lon="8.92009">
        <ele>1100</ele>
        <time>2021-08-03T09:04:01.266Z</time>
      </trkpt>
      <trkpt lat="47.02669" lon="8.92007">
        <ele>1100</ele>
        <time>2021-08-03T09:04:02.266Z</time>
      </trkpt>
      <trkpt lat="47.02669" lon="8.92005">
        <ele>1100</ele>
        <time>2021-08-03T09:04:03.266Z</time>
      </trkpt>
      <trkpt lat="47.02669" lon="8.92004">
        <ele>1100</ele>
        <time>2021-08-03T09:04:04.266Z</time>
      </trkpt>
      <trkpt lat="47.02669" lon="8.92003">
        <ele>1101</ele>
        <time>2021-08-03T09:04:05.266Z</time>
      </trkpt>
      <trkpt lat="47.0267" lon="8.92002">
        <ele>1101</ele>
        <time>2021-08-03T09:04:06.266Z</time>
      </trkpt>
      <trkpt lat="47.0267" lon="8.92">
        <ele>1101</ele>
        <time>2021-08-03T09:04:07.267Z</time>
      </trkpt>
      <trkpt lat="47.02671" lon="8.91999">
        <ele>1101</ele>
        <time>2021-08-03T09:04:08.267Z</time>
      </trkpt>
      <trkpt lat="47.02671" lon="8.91998">
        <ele>1101</ele>
        <time>2021-08-03T09:04:09.266Z</time>
      </trkpt>
      <trkpt lat="47.02671" lon="8.91997">
        <ele>1101</ele>
        <time>2021-08-03T09:04:10.267Z</time>
      </trkpt>
      <trkpt lat="47.02671" lon="8.91997">
        <ele>1101</ele>
        <time>2021-08-03T09:04:11.267Z</time>
      </trkpt>
      <trkpt lat="47.0267" lon="8.91996">
        <ele>1101</ele>
        <time>2021-08-03T09:04:12.267Z</time>
      </trkpt>
      <trkpt lat="47.0267" lon="8.91994">
        <ele>1101</ele>
        <time>2021-08-03T09:04:13.266Z</time>
      </trkpt>
      <trkpt lat="47.0267" lon="8.91993">
        <ele>1101</ele>
        <time>2021-08-03T09:04:14.267Z</time>
      </trkpt>
      <trkpt lat="47.0267" lon="8.91992">
        <ele>1102</ele>
        <time>2021-08-03T09:04:15.266Z</time>
      </trkpt>
      <trkpt lat="47.0267" lon="8.91991">
        <ele>1102</ele>
        <time>2021-08-03T09:04:16.266Z</time>
      </trkpt>
      <trkpt lat="47.02669" lon="8.9199">
        <ele>1102</ele>
        <time>2021-08-03T09:04:17.267Z</time>
      </trkpt>
      <trkpt lat="47.02669" lon="8.91989">
        <ele>1103</ele>
        <time>2021-08-03T09:04:18.266Z</time>
      </trkpt>
      <trkpt lat="47.02669" lon="8.91988">
        <ele>1103</ele>
        <time>2021-08-03T09:04:19.267Z</time>
      </trkpt>
      <trkpt lat="47.0267" lon="8.91988">
        <ele>1104</ele>
        <time>2021-08-03T09:04:20.266Z</time>
      </trkpt>
      <trkpt lat="47.0267" lon="8.91987">
        <ele>1104</ele>
        <time>2021-08-03T09:04:21.267Z</time>
      </trkpt>
      <trkpt lat="47.02671" lon="8.91986">
        <ele>1105</ele>
        <time>2021-08-03T09:04:22.267Z</time>
      </trkpt>
      <trkpt lat="47.02671" lon="8.91985">
        <ele>1105</ele>
        <time>2021-08-03T09:04:23.267Z</time>
      </trkpt>
      <trkpt lat="47.02671" lon="8.91985">
        <ele>1106</ele>
        <time>2021-08-03T09:04:24.266Z</time>
      </trkpt>
      <trkpt lat="47.02669" lon="8.91983">
        <ele>1108</ele>
        <time>2021-08-03T09:04:25.268Z</time>
      </trkpt>
      <trkpt lat="47.02669" lon="8.91982">
        <ele>1109</ele>
        <time>2021-08-03T09:04:26.267Z</time>
      </trkpt>
      <trkpt lat="47.02669" lon="8.91982">
        <ele>1110</ele>
        <time>2021-08-03T09:04:27.268Z</time>
      </trkpt>
      <trkpt lat="47.02668" lon="8.91981">
        <ele>1110</ele>
        <time>2021-08-03T09:04:28.268Z</time>
      </trkpt>
      <trkpt lat="47.02666" lon="8.9198">
        <ele>1112</ele>
        <time>2021-08-03T09:04:29.269Z</time>
      </trkpt>
      <trkpt lat="47.02665" lon="8.91981">
        <ele>1112</ele>
        <time>2021-08-03T09:04:30.268Z</time>
      </trkpt>
      <trkpt lat="47.02665" lon="8.91979">
        <ele>1113</ele>
        <time>2021-08-03T09:04:31.269Z</time>
      </trkpt>
      <trkpt lat="47.02664" lon="8.91978">
        <ele>1113</ele>
        <time>2021-08-03T09:04:32.268Z</time>
      </trkpt>
      <trkpt lat="47.02664" lon="8.91975">
        <ele>1113</ele>
        <time>2021-08-03T09:04:33.268Z</time>
      </trkpt>
      <trkpt lat="47.02664" lon="8.91974">
        <ele>1113</ele>
        <time>2021-08-03T09:04:34.269Z</time>
      </trkpt>
      <trkpt lat="47.02665" lon="8.91973">
        <ele>1113</ele>
        <time>2021-08-03T09:04:35.269Z</time>
      </trkpt>
      <trkpt lat="47.02666" lon="8.91972">
        <ele>1113</ele>
        <time>2021-08-03T09:04:36.268Z</time>
      </trkpt>
      <trkpt lat="47.02666" lon="8.91972">
        <ele>1113</ele>
        <time>2021-08-03T09:04:37.269Z</time>
      </trkpt>
      <trkpt lat="47.02667" lon="8.91971">
        <ele>1113</ele>
        <time>2021-08-03T09:04:38.269Z</time>
      </trkpt>
      <trkpt lat="47.02667" lon="8.91967">
        <ele>1113</ele>
        <time>2021-08-03T09:04:39.269Z</time>
      </trkpt>
      <trkpt lat="47.02668" lon="8.91966">
        <ele>1113</ele>
        <time>2021-08-03T09:04:40.268Z</time>
      </trkpt>
      <trkpt lat="47.02668" lon="8.91965">
        <ele>1114</ele>
        <time>2021-08-03T09:04:41.268Z</time>
      </trkpt>
      <trkpt lat="47.02667" lon="8.91964">
        <ele>1114</ele>
        <time>2021-08-03T09:04:42.268Z</time>
      </trkpt>
      <trkpt lat="47.02667" lon="8.91963">
        <ele>1114</ele>
        <time>2021-08-03T09:04:43.269Z</time>
      </trkpt>
      <trkpt lat="47.02666" lon="8.91962">
        <ele>1115</ele>
        <time>2021-08-03T09:04:44.268Z</time>
      </trkpt>
      <trkpt lat="47.02665" lon="8.91961">
        <ele>1115</ele>
        <time>2021-08-03T09:04:45.268Z</time>
      </trkpt>
      <trkpt lat="47.02664" lon="8.91959">
        <ele>1115</ele>
        <time>2021-08-03T09:04:46.268Z</time>
      </trkpt>
      <trkpt lat="47.02663" lon="8.91957">
        <ele>1114</ele>
        <time>2021-08-03T09:04:47.268Z</time>
      </trkpt>
      <trkpt lat="47.02662" lon="8.91956">
        <ele>1114</ele>
        <time>2021-08-03T09:04:48.269Z</time>
      </trkpt>
      <trkpt lat="47.0266" lon="8.91954">
        <ele>1114</ele>
        <time>2021-08-03T09:04:49.268Z</time>
      </trkpt>
      <trkpt lat="47.02659" lon="8.91952">
        <ele>1113</ele>
        <time>2021-08-03T09:04:50.268Z</time>
      </trkpt>
      <trkpt lat="47.02658" lon="8.91951">
        <ele>1112</ele>
        <time>2021-08-03T09:04:51.268Z</time>
      </trkpt>
      <trkpt lat="47.02658" lon="8.9195">
        <ele>1111</ele>
        <time>2021-08-03T09:04:52.268Z</time>
      </trkpt>
      <trkpt lat="47.02658" lon="8.91948">
        <ele>1111</ele>
        <time>2021-08-03T09:04:53.268Z</time>
      </trkpt>
      <trkpt lat="47.02658" lon="8.91947">
        <ele>1110</ele>
        <time>2021-08-03T09:04:54.268Z</time>
      </trkpt>
      <trkpt lat="47.02657" lon="8.91946">
        <ele>1110</ele>
        <time>2021-08-03T09:04:55.268Z</time>
      </trkpt>
      <trkpt lat="47.02657" lon="8.91945">
        <ele>1109</ele>
        <time>2021-08-03T09:04:56.269Z</time>
      </trkpt>
      <trkpt lat="47.02656" lon="8.91943">
        <ele>1109</ele>
        <time>2021-08-03T09:04:57.268Z</time>
      </trkpt>
      <trkpt lat="47.02656" lon="8.91942">
        <ele>1108</ele>
        <time>2021-08-03T09:04:58.268Z</time>
      </trkpt>
      <trkpt lat="47.02657" lon="8.9194">
        <ele>1107</ele>
        <time>2021-08-03T09:04:59.268Z</time>
      </trkpt>
      <trkpt lat="47.02657" lon="8.91938">
        <ele>1106</ele>
        <time>2021-08-03T09:05:00.269Z</time>
      </trkpt>
      <trkpt lat="47.02657" lon="8.91936">
        <ele>1106</ele>
        <time>2021-08-03T09:05:01.269Z</time>
      </trkpt>
      <trkpt lat="47.02658" lon="8.91934">
        <ele>1106</ele>
        <time>2021-08-03T09:05:02.269Z</time>
      </trkpt>
      <trkpt lat="47.02658" lon="8.91933">
        <ele>1106</ele>
        <time>2021-08-03T09:05:03.268Z</time>
      </trkpt>
      <trkpt lat="47.02658" lon="8.9193">
        <ele>1105</ele>
        <time>2021-08-03T09:05:04.268Z</time>
      </trkpt>
      <trkpt lat="47.02658" lon="8.91929">
        <ele>1105</ele>
        <time>2021-08-03T09:05:05.268Z</time>
      </trkpt>
      <trkpt lat="47.02659" lon="8.91926">
        <ele>1105</ele>
        <time>2021-08-03T09:05:06.269Z</time>
      </trkpt>
      <trkpt lat="47.02659" lon="8.91924">
        <ele>1105</ele>
        <time>2021-08-03T09:05:07.268Z</time>
      </trkpt>
      <trkpt lat="47.02659" lon="8.91923">
        <ele>1104</ele>
        <time>2021-08-03T09:05:08.268Z</time>
      </trkpt>
      <trkpt lat="47.0266" lon="8.91922">
        <ele>1104</ele>
        <time>2021-08-03T09:05:09.268Z</time>
      </trkpt>
      <trkpt lat="47.0266" lon="8.9192">
        <ele>1104</ele>
        <time>2021-08-03T09:05:10.269Z</time>
      </trkpt>
      <trkpt lat="47.02663" lon="8.91912">
        <ele>1103</ele>
        <time>2021-08-03T09:05:11.270Z</time>
      </trkpt>
      <trkpt lat="47.02662" lon="8.91912">
        <ele>1104</ele>
        <time>2021-08-03T09:05:12.269Z</time>
      </trkpt>
      <trkpt lat="47.02662" lon="8.91911">
        <ele>1104</ele>
        <time>2021-08-03T09:05:13.269Z</time>
      </trkpt>
      <trkpt lat="47.02662" lon="8.91907">
        <ele>1105</ele>
        <time>2021-08-03T09:05:14.271Z</time>
      </trkpt>
      <trkpt lat="47.02662" lon="8.91906">
        <ele>1106</ele>
        <time>2021-08-03T09:05:15.270Z</time>
      </trkpt>
      <trkpt lat="47.02661" lon="8.91905">
        <ele>1107</ele>
        <time>2021-08-03T09:05:16.271Z</time>
      </trkpt>
      <trkpt lat="47.0266" lon="8.91904">
        <ele>1107</ele>
        <time>2021-08-03T09:05:17.271Z</time>
      </trkpt>
      <trkpt lat="47.0266" lon="8.91903">
        <ele>1108</ele>
        <time>2021-08-03T09:05:18.271Z</time>
      </trkpt>
      <trkpt lat="47.0266" lon="8.91902">
        <ele>1109</ele>
        <time>2021-08-03T09:05:19.271Z</time>
      </trkpt>
      <trkpt lat="47.02661" lon="8.91901">
        <ele>1109</ele>
        <time>2021-08-03T09:05:20.271Z</time>
      </trkpt>
      <trkpt lat="47.02661" lon="8.919">
        <ele>1109</ele>
        <time>2021-08-03T09:05:21.270Z</time>
      </trkpt>
      <trkpt lat="47.02661" lon="8.91899">
        <ele>1109</ele>
        <time>2021-08-03T09:05:22.271Z</time>
      </trkpt>
      <trkpt lat="47.02661" lon="8.91898">
        <ele>1109</ele>
        <time>2021-08-03T09:05:23.270Z</time>
      </trkpt>
      <trkpt lat="47.02661" lon="8.91898">
        <ele>1110</ele>
        <time>2021-08-03T09:05:24.271Z</time>
      </trkpt>
      <trkpt lat="47.02662" lon="8.91899">
        <ele>1110</ele>
        <time>2021-08-03T09:05:25.270Z</time>
      </trkpt>
      <trkpt lat="47.02662" lon="8.919">
        <ele>1110</ele>
        <time>2021-08-03T09:05:26.271Z</time>
      </trkpt>
      <trkpt lat="47.02663" lon="8.919">
        <ele>1114</ele>
        <time>2021-08-03T09:05:27.272Z</time>
      </trkpt>
      <trkpt lat="47.02663" lon="8.91899">
        <ele>1115</ele>
        <time>2021-08-03T09:05:28.272Z</time>
      </trkpt>
      <trkpt lat="47.02662" lon="8.91898">
        <ele>1116</ele>
        <time>2021-08-03T09:05:29.271Z</time>
      </trkpt>
      <trkpt lat="47.02656" lon="8.91898">
        <ele>1117</ele>
        <time>2021-08-03T09:05:30.273Z</time>
      </trkpt>
      <trkpt lat="47.02656" lon="8.91898">
        <ele>1117</ele>
        <time>2021-08-03T09:05:31.272Z</time>
      </trkpt>
      <trkpt lat="47.02655" lon="8.91898">
        <ele>1117</ele>
        <time>2021-08-03T09:05:32.272Z</time>
      </trkpt>
      <trkpt lat="47.02655" lon="8.91897">
        <ele>1117</ele>
        <time>2021-08-03T09:05:33.272Z</time>
      </trkpt>
      <trkpt lat="47.02655" lon="8.91896">
        <ele>1117</ele>
        <time>2021-08-03T09:05:34.272Z</time>
      </trkpt>
      <trkpt lat="47.02655" lon="8.91895">
        <ele>1116</ele>
        <time>2021-08-03T09:05:35.273Z</time>
      </trkpt>
      <trkpt lat="47.02654" lon="8.91893">
        <ele>1116</ele>
        <time>2021-08-03T09:05:36.273Z</time>
      </trkpt>
      <trkpt lat="47.02654" lon="8.91892">
        <ele>1115</ele>
        <time>2021-08-03T09:05:37.272Z</time>
      </trkpt>
      <trkpt lat="47.02653" lon="8.91891">
        <ele>1115</ele>
        <time>2021-08-03T09:05:38.272Z</time>
      </trkpt>
      <trkpt lat="47.02652" lon="8.91891">
        <ele>1114</ele>
        <time>2021-08-03T09:05:39.272Z</time>
      </trkpt>
      <trkpt lat="47.02653" lon="8.91891">
        <ele>1114</ele>
        <time>2021-08-03T09:05:40.273Z</time>
      </trkpt>
      <trkpt lat="47.02654" lon="8.9189">
        <ele>1114</ele>
        <time>2021-08-03T09:05:41.272Z</time>
      </trkpt>
      <trkpt lat="47.02654" lon="8.91889">
        <ele>1113</ele>
        <time>2021-08-03T09:05:42.272Z</time>
      </trkpt>
      <trkpt lat="47.02655" lon="8.91888">
        <ele>1113</ele>
        <time>2021-08-03T09:05:43.272Z</time>
      </trkpt>
      <trkpt lat="47.02654" lon="8.91887">
        <ele>1113</ele>
        <time>2021-08-03T09:05:44.272Z</time>
      </trkpt>
      <trkpt lat="47.02654" lon="8.91886">
        <ele>1113</ele>
        <time>2021-08-03T09:05:45.272Z</time>
      </trkpt>
      <trkpt lat="47.02653" lon="8.91886">
        <ele>1113</ele>
        <time>2021-08-03T09:05:46.273Z</time>
      </trkpt>
      <trkpt lat="47.02653" lon="8.91885">
        <ele>1113</ele>
        <time>2021-08-03T09:05:47.272Z</time>
      </trkpt>
      <trkpt lat="47.02653" lon="8.91885">
        <ele>1113</ele>
        <time>2021-08-03T09:05:48.273Z</time>
      </trkpt>
      <trkpt lat="47.02652" lon="8.91885">
        <ele>1113</ele>
        <time>2021-08-03T09:05:49.272Z</time>
      </trkpt>
      <trkpt lat="47.02652" lon="8.91884">
        <ele>1112</ele>
        <time>2021-08-03T09:05:50.273Z</time>
      </trkpt>
      <trkpt lat="47.02652" lon="8.91884">
        <ele>1111</ele>
        <time>2021-08-03T09:05:51.273Z</time>
      </trkpt>
      <trkpt lat="47.02652" lon="8.91883">
        <ele>1111</ele>
        <time>2021-08-03T09:05:52.273Z</time>
      </trkpt>
      <trkpt lat="47.02652" lon="8.91882">
        <ele>1111</ele>
        <time>2021-08-03T09:05:53.272Z</time>
      </trkpt>
      <trkpt lat="47.02652" lon="8.91881">
        <ele>1111</ele>
        <time>2021-08-03T09:05:54.272Z</time>
      </trkpt>
      <trkpt lat="47.02653" lon="8.9188">
        <ele>1112</ele>
        <time>2021-08-03T09:05:55.273Z</time>
      </trkpt>
      <trkpt lat="47.02652" lon="8.9188">
        <ele>1112</ele>
        <time>2021-08-03T09:05:56.273Z</time>
      </trkpt>
      <trkpt lat="47.02652" lon="8.91879">
        <ele>1112</ele>
        <time>2021-08-03T09:05:57.273Z</time>
      </trkpt>
      <trkpt lat="47.0265" lon="8.91878">
        <ele>1112</ele>
        <time>2021-08-03T09:05:58.272Z</time>
      </trkpt>
      <trkpt lat="47.02649" lon="8.91877">
        <ele>1112</ele>
        <time>2021-08-03T09:05:59.273Z</time>
      </trkpt>
      <trkpt lat="47.02648" lon="8.91877">
        <ele>1112</ele>
        <time>2021-08-03T09:06:00.272Z</time>
      </trkpt>
      <trkpt lat="47.02648" lon="8.91877">
        <ele>1105</ele>
        <time>2021-08-03T09:06:01.272Z</time>
      </trkpt>
      <trkpt lat="47.02648" lon="8.91876">
        <ele>1104</ele>
        <time>2021-08-03T09:06:02.272Z</time>
      </trkpt>
      <trkpt lat="47.02649" lon="8.91875">
        <ele>1104</ele>
        <time>2021-08-03T09:06:03.272Z</time>
      </trkpt>
      <trkpt lat="47.02649" lon="8.91874">
        <ele>1104</ele>
        <time>2021-08-03T09:06:04.273Z</time>
      </trkpt>
      <trkpt lat="47.02649" lon="8.91873">
        <ele>1104</ele>
        <time>2021-08-03T09:06:05.273Z</time>
      </trkpt>
      <trkpt lat="47.02649" lon="8.91872">
        <ele>1104</ele>
        <time>2021-08-03T09:06:06.273Z</time>
      </trkpt>
      <trkpt lat="47.02649" lon="8.91871">
        <ele>1104</ele>
        <time>2021-08-03T09:06:07.273Z</time>
      </trkpt>
      <trkpt lat="47.0265" lon="8.9187">
        <ele>1105</ele>
        <time>2021-08-03T09:06:08.273Z</time>
      </trkpt>
      <trkpt lat="47.0265" lon="8.91869">
        <ele>1105</ele>
        <time>2021-08-03T09:06:09.273Z</time>
      </trkpt>
      <trkpt lat="47.02651" lon="8.91868">
        <ele>1105</ele>
        <time>2021-08-03T09:06:10.273Z</time>
      </trkpt>
      <trkpt lat="47.02651" lon="8.91867">
        <ele>1105</ele>
        <time>2021-08-03T09:06:11.273Z</time>
      </trkpt>
      <trkpt lat="47.02651" lon="8.91866">
        <ele>1106</ele>
        <time>2021-08-03T09:06:12.273Z</time>
      </trkpt>
      <trkpt lat="47.02652" lon="8.91864">
        <ele>1106</ele>
        <time>2021-08-03T09:06:13.273Z</time>
      </trkpt>
      <trkpt lat="47.02652" lon="8.91863">
        <ele>1106</ele>
        <time>2021-08-03T09:06:14.273Z</time>
      </trkpt>
      <trkpt lat="47.02652" lon="8.91863">
        <ele>1107</ele>
        <time>2021-08-03T09:06:15.273Z</time>
      </trkpt>
      <trkpt lat="47.02653" lon="8.91863">
        <ele>1107</ele>
        <time>2021-08-03T09:06:16.273Z</time>
      </trkpt>
      <trkpt lat="47.02653" lon="8.91864">
        <ele>1108</ele>
        <time>2021-08-03T09:06:17.273Z</time>
      </trkpt>
      <trkpt lat="47.02654" lon="8.91864">
        <ele>1108</ele>
        <time>2021-08-03T09:06:18.273Z</time>
      </trkpt>
      <trkpt lat="47.02654" lon="8.91864">
        <ele>1109</ele>
        <time>2021-08-03T09:06:19.272Z</time>
      </trkpt>
      <trkpt lat="47.02655" lon="8.91863">
        <ele>1109</ele>
        <time>2021-08-03T09:06:20.273Z</time>
      </trkpt>
      <trkpt lat="47.02655" lon="8.91863">
        <ele>1109</ele>
        <time>2021-08-03T09:06:21.272Z</time>
      </trkpt>
      <trkpt lat="47.02655" lon="8.91862">
        <ele>1109</ele>
        <time>2021-08-03T09:06:22.273Z</time>
      </trkpt>
      <trkpt lat="47.02655" lon="8.91862">
        <ele>1109</ele>
        <time>2021-08-03T09:06:23.272Z</time>
      </trkpt>
      <trkpt lat="47.02656" lon="8.91861">
        <ele>1109</ele>
        <time>2021-08-03T09:06:24.273Z</time>
      </trkpt>
      <trkpt lat="47.02656" lon="8.9186">
        <ele>1109</ele>
        <time>2021-08-03T09:06:25.272Z</time>
      </trkpt>
      <trkpt lat="47.02657" lon="8.91859">
        <ele>1109</ele>
        <time>2021-08-03T09:06:26.273Z</time>
      </trkpt>
      <trkpt lat="47.02657" lon="8.91859">
        <ele>1109</ele>
        <time>2021-08-03T09:06:27.273Z</time>
      </trkpt>
      <trkpt lat="47.02658" lon="8.91858">
        <ele>1110</ele>
        <time>2021-08-03T09:06:28.273Z</time>
      </trkpt>
      <trkpt lat="47.02658" lon="8.91857">
        <ele>1110</ele>
        <time>2021-08-03T09:06:29.273Z</time>
      </trkpt>
      <trkpt lat="47.02658" lon="8.91856">
        <ele>1110</ele>
        <time>2021-08-03T09:06:30.272Z</time>
      </trkpt>
      <trkpt lat="47.02658" lon="8.91854">
        <ele>1110</ele>
        <time>2021-08-03T09:06:31.272Z</time>
      </trkpt>
      <trkpt lat="47.02658" lon="8.91853">
        <ele>1110</ele>
        <time>2021-08-03T09:06:32.273Z</time>
      </trkpt>
      <trkpt lat="47.02659" lon="8.91852">
        <ele>1110</ele>
        <time>2021-08-03T09:06:33.273Z</time>
      </trkpt>
      <trkpt lat="47.02659" lon="8.91851">
        <ele>1110</ele>
        <time>2021-08-03T09:06:34.273Z</time>
      </trkpt>
      <trkpt lat="47.0266" lon="8.9185">
        <ele>1110</ele>
        <time>2021-08-03T09:06:35.273Z</time>
      </trkpt>
      <trkpt lat="47.0266" lon="8.91849">
        <ele>1111</ele>
        <time>2021-08-03T09:06:36.273Z</time>
      </trkpt>
      <trkpt lat="47.02661" lon="8.91849">
        <ele>1111</ele>
        <time>2021-08-03T09:06:37.272Z</time>
      </trkpt>
      <trkpt lat="47.02661" lon="8.91848">
        <ele>1111</ele>
        <time>2021-08-03T09:06:38.273Z</time>
      </trkpt>
      <trkpt lat="47.02662" lon="8.91847">
        <ele>1111</ele>
        <time>2021-08-03T09:06:39.273Z</time>
      </trkpt>
      <trkpt lat="47.02663" lon="8.91847">
        <ele>1112</ele>
        <time>2021-08-03T09:06:40.272Z</time>
      </trkpt>
      <trkpt lat="47.02663" lon="8.91846">
        <ele>1112</ele>
        <time>2021-08-03T09:06:41.273Z</time>
      </trkpt>
      <trkpt lat="47.02665" lon="8.91845">
        <ele>1112</ele>
        <time>2021-08-03T09:06:42.272Z</time>
      </trkpt>
      <trkpt lat="47.02666" lon="8.91844">
        <ele>1112</ele>
        <time>2021-08-03T09:06:43.272Z</time>
      </trkpt>
      <trkpt lat="47.02666" lon="8.91844">
        <ele>1113</ele>
        <time>2021-08-03T09:06:44.273Z</time>
      </trkpt>
      <trkpt lat="47.02666" lon="8.91842">
        <ele>1114</ele>
        <time>2021-08-03T09:06:45.273Z</time>
      </trkpt>
      <trkpt lat="47.02666" lon="8.91842">
        <ele>1115</ele>
        <time>2021-08-03T09:06:46.273Z</time>
      </trkpt>
      <trkpt lat="47.02666" lon="8.91842">
        <ele>1116</ele>
        <time>2021-08-03T09:06:47.272Z</time>
      </trkpt>
      <trkpt lat="47.02667" lon="8.91842">
        <ele>1117</ele>
        <time>2021-08-03T09:06:48.273Z</time>
      </trkpt>
      <trkpt lat="47.02667" lon="8.91842">
        <ele>1118</ele>
        <time>2021-08-03T09:06:49.273Z</time>
      </trkpt>
      <trkpt lat="47.02668" lon="8.91842">
        <ele>1118</ele>
        <time>2021-08-03T09:06:50.273Z</time>
      </trkpt>
      <trkpt lat="47.02668" lon="8.91842">
        <ele>1119</ele>
        <time>2021-08-03T09:06:51.273Z</time>
      </trkpt>
      <trkpt lat="47.02668" lon="8.91841">
        <ele>1120</ele>
        <time>2021-08-03T09:06:52.272Z</time>
      </trkpt>
      <trkpt lat="47.02668" lon="8.91841">
        <ele>1121</ele>
        <time>2021-08-03T09:06:53.272Z</time>
      </trkpt>
      <trkpt lat="47.02669" lon="8.91841">
        <ele>1121</ele>
        <time>2021-08-03T09:06:54.273Z</time>
      </trkpt>
      <trkpt lat="47.02669" lon="8.91841">
        <ele>1121</ele>
        <time>2021-08-03T09:06:55.272Z</time>
      </trkpt>
      <trkpt lat="47.0267" lon="8.91841">
        <ele>1122</ele>
        <time>2021-08-03T09:06:56.273Z</time>
      </trkpt>
      <trkpt lat="47.02671" lon="8.91841">
        <ele>1121</ele>
        <time>2021-08-03T09:06:57.273Z</time>
      </trkpt>
      <trkpt lat="47.02672" lon="8.91841">
        <ele>1121</ele>
        <time>2021-08-03T09:06:58.272Z</time>
      </trkpt>
      <trkpt lat="47.02673" lon="8.91841">
        <ele>1121</ele>
        <time>2021-08-03T09:06:59.273Z</time>
      </trkpt>
      <trkpt lat="47.02673" lon="8.91841">
        <ele>1120</ele>
        <time>2021-08-03T09:07:00.273Z</time>
      </trkpt>
      <trkpt lat="47.02674" lon="8.9184">
        <ele>1120</ele>
        <time>2021-08-03T09:07:01.273Z</time>
      </trkpt>
      <trkpt lat="47.02674" lon="8.91839">
        <ele>1120</ele>
        <time>2021-08-03T09:07:02.273Z</time>
      </trkpt>
      <trkpt lat="47.02675" lon="8.91838">
        <ele>1120</ele>
        <time>2021-08-03T09:07:03.273Z</time>
      </trkpt>
      <trkpt lat="47.02675" lon="8.91837">
        <ele>1119</ele>
        <time>2021-08-03T09:07:04.272Z</time>
      </trkpt>
      <trkpt lat="47.02676" lon="8.91837">
        <ele>1119</ele>
        <time>2021-08-03T09:07:05.273Z</time>
      </trkpt>
      <trkpt lat="47.02676" lon="8.91837">
        <ele>1119</ele>
        <time>2021-08-03T09:07:06.272Z</time>
      </trkpt>
      <trkpt lat="47.02677" lon="8.91837">
        <ele>1119</ele>
        <time>2021-08-03T09:07:07.272Z</time>
      </trkpt>
      <trkpt lat="47.02678" lon="8.91837">
        <ele>1118</ele>
        <time>2021-08-03T09:07:08.273Z</time>
      </trkpt>
      <trkpt lat="47.02678" lon="8.91836">
        <ele>1118</ele>
        <time>2021-08-03T09:07:09.272Z</time>
      </trkpt>
      <trkpt lat="47.02679" lon="8.91834">
        <ele>1118</ele>
        <time>2021-08-03T09:07:10.272Z</time>
      </trkpt>
      <trkpt lat="47.02679" lon="8.91833">
        <ele>1118</ele>
        <time>2021-08-03T09:07:11.273Z</time>
      </trkpt>
      <trkpt lat="47.02679" lon="8.91832">
        <ele>1118</ele>
        <time>2021-08-03T09:07:12.273Z</time>
      </trkpt>
      <trkpt lat="47.0268" lon="8.91831">
        <ele>1118</ele>
        <time>2021-08-03T09:07:13.273Z</time>
      </trkpt>
      <trkpt lat="47.0268" lon="8.91829">
        <ele>1118</ele>
        <time>2021-08-03T09:07:14.273Z</time>
      </trkpt>
      <trkpt lat="47.02681" lon="8.91827">
        <ele>1118</ele>
        <time>2021-08-03T09:07:15.273Z</time>
      </trkpt>
      <trkpt lat="47.02681" lon="8.91826">
        <ele>1118</ele>
        <time>2021-08-03T09:07:16.272Z</time>
      </trkpt>
      <trkpt lat="47.02682" lon="8.91826">
        <ele>1118</ele>
        <time>2021-08-03T09:07:17.272Z</time>
      </trkpt>
      <trkpt lat="47.02682" lon="8.91827">
        <ele>1119</ele>
        <time>2021-08-03T09:07:18.273Z</time>
      </trkpt>
      <trkpt lat="47.02683" lon="8.91827">
        <ele>1119</ele>
        <time>2021-08-03T09:07:19.273Z</time>
      </trkpt>
      <trkpt lat="47.02683" lon="8.91827">
        <ele>1119</ele>
        <time>2021-08-03T09:07:20.272Z</time>
      </trkpt>
      <trkpt lat="47.02683" lon="8.91828">
        <ele>1119</ele>
        <time>2021-08-03T09:07:21.273Z</time>
      </trkpt>
      <trkpt lat="47.02683" lon="8.91828">
        <ele>1119</ele>
        <time>2021-08-03T09:07:22.272Z</time>
      </trkpt>
      <trkpt lat="47.02684" lon="8.91827">
        <ele>1120</ele>
        <time>2021-08-03T09:07:23.273Z</time>
      </trkpt>
      <trkpt lat="47.02684" lon="8.91827">
        <ele>1120</ele>
        <time>2021-08-03T09:07:24.273Z</time>
      </trkpt>
      <trkpt lat="47.02685" lon="8.91826">
        <ele>1120</ele>
        <time>2021-08-03T09:07:25.272Z</time>
      </trkpt>
      <trkpt lat="47.02685" lon="8.91827">
        <ele>1120</ele>
        <time>2021-08-03T09:07:26.273Z</time>
      </trkpt>
      <trkpt lat="47.02686" lon="8.91827">
        <ele>1121</ele>
        <time>2021-08-03T09:07:27.273Z</time>
      </trkpt>
      <trkpt lat="47.02686" lon="8.91828">
        <ele>1121</ele>
        <time>2021-08-03T09:07:28.272Z</time>
      </trkpt>
      <trkpt lat="47.02686" lon="8.91828">
        <ele>1122</ele>
        <time>2021-08-03T09:07:29.273Z</time>
      </trkpt>
      <trkpt lat="47.02687" lon="8.91828">
        <ele>1122</ele>
        <time>2021-08-03T09:07:30.273Z</time>
      </trkpt>
      <trkpt lat="47.02687" lon="8.91828">
        <ele>1123</ele>
        <time>2021-08-03T09:07:31.273Z</time>
      </trkpt>
      <trkpt lat="47.02688" lon="8.91828">
        <ele>1123</ele>
        <time>2021-08-03T09:07:32.272Z</time>
      </trkpt>
      <trkpt lat="47.02689" lon="8.91829">
        <ele>1123</ele>
        <time>2021-08-03T09:07:33.273Z</time>
      </trkpt>
      <trkpt lat="47.0269" lon="8.9183">
        <ele>1123</ele>
        <time>2021-08-03T09:07:34.273Z</time>
      </trkpt>
      <trkpt lat="47.0269" lon="8.9183">
        <ele>1124</ele>
        <time>2021-08-03T09:07:35.273Z</time>
      </trkpt>
      <trkpt lat="47.0269" lon="8.91831">
        <ele>1124</ele>
        <time>2021-08-03T09:07:36.273Z</time>
      </trkpt>
      <trkpt lat="47.0269" lon="8.91832">
        <ele>1124</ele>
        <time>2021-08-03T09:07:37.273Z</time>
      </trkpt>
      <trkpt lat="47.02691" lon="8.91833">
        <ele>1124</ele>
        <time>2021-08-03T09:07:38.273Z</time>
      </trkpt>
      <trkpt lat="47.02692" lon="8.91833">
        <ele>1125</ele>
        <time>2021-08-03T09:07:39.273Z</time>
      </trkpt>
      <trkpt lat="47.02692" lon="8.91834">
        <ele>1125</ele>
        <time>2021-08-03T09:07:40.273Z</time>
      </trkpt>
      <trkpt lat="47.02693" lon="8.91835">
        <ele>1125</ele>
        <time>2021-08-03T09:07:41.272Z</time>
      </trkpt>
      <trkpt lat="47.02693" lon="8.91836">
        <ele>1126</ele>
        <time>2021-08-03T09:07:42.273Z</time>
      </trkpt>
      <trkpt lat="47.02694" lon="8.91837">
        <ele>1126</ele>
        <time>2021-08-03T09:07:43.273Z</time>
      </trkpt>
      <trkpt lat="47.02694" lon="8.91837">
        <ele>1127</ele>
        <time>2021-08-03T09:07:44.273Z</time>
      </trkpt>
      <trkpt lat="47.02695" lon="8.91837">
        <ele>1127</ele>
        <time>2021-08-03T09:07:45.273Z</time>
      </trkpt>
      <trkpt lat="47.02696" lon="8.91837">
        <ele>1127</ele>
        <time>2021-08-03T09:07:46.273Z</time>
      </trkpt>
      <trkpt lat="47.02697" lon="8.91837">
        <ele>1128</ele>
        <time>2021-08-03T09:07:47.273Z</time>
      </trkpt>
      <trkpt lat="47.02698" lon="8.91838">
        <ele>1128</ele>
        <time>2021-08-03T09:07:48.272Z</time>
      </trkpt>
      <trkpt lat="47.02699" lon="8.91838">
        <ele>1129</ele>
        <time>2021-08-03T09:07:49.273Z</time>
      </trkpt>
      <trkpt lat="47.027" lon="8.91838">
        <ele>1129</ele>
        <time>2021-08-03T09:07:50.272Z</time>
      </trkpt>
      <trkpt lat="47.02701" lon="8.91839">
        <ele>1129</ele>
        <time>2021-08-03T09:07:51.273Z</time>
      </trkpt>
      <trkpt lat="47.02701" lon="8.91838">
        <ele>1129</ele>
        <time>2021-08-03T09:07:52.273Z</time>
      </trkpt>
      <trkpt lat="47.02703" lon="8.91838">
        <ele>1129</ele>
        <time>2021-08-03T09:07:53.273Z</time>
      </trkpt>
      <trkpt lat="47.02703" lon="8.91837">
        <ele>1129</ele>
        <time>2021-08-03T09:07:54.273Z</time>
      </trkpt>
      <trkpt lat="47.02704" lon="8.91837">
        <ele>1129</ele>
        <time>2021-08-03T09:07:55.272Z</time>
      </trkpt>
      <trkpt lat="47.02705" lon="8.91836">
        <ele>1129</ele>
        <time>2021-08-03T09:07:56.272Z</time>
      </trkpt>
      <trkpt lat="47.02706" lon="8.91835">
        <ele>1128</ele>
        <time>2021-08-03T09:07:57.272Z</time>
      </trkpt>
      <trkpt lat="47.02706" lon="8.91834">
        <ele>1128</ele>
        <time>2021-08-03T09:07:58.273Z</time>
      </trkpt>
      <trkpt lat="47.02706" lon="8.91833">
        <ele>1128</ele>
        <time>2021-08-03T09:07:59.273Z</time>
      </trkpt>
      <trkpt lat="47.02706" lon="8.91832">
        <ele>1128</ele>
        <time>2021-08-03T09:08:00.273Z</time>
      </trkpt>
      <trkpt lat="47.02706" lon="8.91831">
        <ele>1129</ele>
        <time>2021-08-03T09:08:01.273Z</time>
      </trkpt>
      <trkpt lat="47.02706" lon="8.91831">
        <ele>1129</ele>
        <time>2021-08-03T09:08:02.273Z</time>
      </trkpt>
      <trkpt lat="47.02706" lon="8.9183">
        <ele>1130</ele>
        <time>2021-08-03T09:08:03.272Z</time>
      </trkpt>
      <trkpt lat="47.02706" lon="8.91829">
        <ele>1130</ele>
        <time>2021-08-03T09:08:04.272Z</time>
      </trkpt>
      <trkpt lat="47.02706" lon="8.91828">
        <ele>1130</ele>
        <time>2021-08-03T09:08:05.272Z</time>
      </trkpt>
      <trkpt lat="47.02706" lon="8.91826">
        <ele>1130</ele>
        <time>2021-08-03T09:08:06.272Z</time>
      </trkpt>
      <trkpt lat="47.02706" lon="8.91825">
        <ele>1130</ele>
        <time>2021-08-03T09:08:07.272Z</time>
      </trkpt>
      <trkpt lat="47.02706" lon="8.91824">
        <ele>1130</ele>
        <time>2021-08-03T09:08:08.273Z</time>
      </trkpt>
      <trkpt lat="47.02707" lon="8.91822">
        <ele>1130</ele>
        <time>2021-08-03T09:08:09.272Z</time>
      </trkpt>
      <trkpt lat="47.02707" lon="8.91821">
        <ele>1130</ele>
        <time>2021-08-03T09:08:10.272Z</time>
      </trkpt>
      <trkpt lat="47.02708" lon="8.91819">
        <ele>1130</ele>
        <time>2021-08-03T09:08:11.272Z</time>
      </trkpt>
      <trkpt lat="47.02709" lon="8.91818">
        <ele>1130</ele>
        <time>2021-08-03T09:08:12.272Z</time>
      </trkpt>
      <trkpt lat="47.0271" lon="8.91817">
        <ele>1131</ele>
        <time>2021-08-03T09:08:13.272Z</time>
      </trkpt>
      <trkpt lat="47.0271" lon="8.91817">
        <ele>1131</ele>
        <time>2021-08-03T09:08:14.273Z</time>
      </trkpt>
      <trkpt lat="47.0271" lon="8.91816">
        <ele>1131</ele>
        <time>2021-08-03T09:08:15.273Z</time>
      </trkpt>
      <trkpt lat="47.0271" lon="8.91815">
        <ele>1131</ele>
        <time>2021-08-03T09:08:16.273Z</time>
      </trkpt>
      <trkpt lat="47.0271" lon="8.91814">
        <ele>1131</ele>
        <time>2021-08-03T09:08:17.273Z</time>
      </trkpt>
      <trkpt lat="47.02711" lon="8.91812">
        <ele>1131</ele>
        <time>2021-08-03T09:08:18.272Z</time>
      </trkpt>
      <trkpt lat="47.02711" lon="8.91811">
        <ele>1132</ele>
        <time>2021-08-03T09:08:19.273Z</time>
      </trkpt>
      <trkpt lat="47.02711" lon="8.91811">
        <ele>1132</ele>
        <time>2021-08-03T09:08:20.273Z</time>
      </trkpt>
      <trkpt lat="47.02712" lon="8.9181">
        <ele>1132</ele>
        <time>2021-08-03T09:08:21.273Z</time>
      </trkpt>
      <trkpt lat="47.02712" lon="8.91809">
        <ele>1133</ele>
        <time>2021-08-03T09:08:22.273Z</time>
      </trkpt>
      <trkpt lat="47.02713" lon="8.91808">
        <ele>1133</ele>
        <time>2021-08-03T09:08:23.273Z</time>
      </trkpt>
      <trkpt lat="47.02714" lon="8.91807">
        <ele>1133</ele>
        <time>2021-08-03T09:08:24.273Z</time>
      </trkpt>
      <trkpt lat="47.02715" lon="8.91807">
        <ele>1134</ele>
        <time>2021-08-03T09:08:25.273Z</time>
      </trkpt>
      <trkpt lat="47.02715" lon="8.91807">
        <ele>1134</ele>
        <time>2021-08-03T09:08:26.273Z</time>
      </trkpt>
      <trkpt lat="47.02716" lon="8.91807">
        <ele>1134</ele>
        <time>2021-08-03T09:08:27.272Z</time>
      </trkpt>
      <trkpt lat="47.02717" lon="8.91808">
        <ele>1134</ele>
        <time>2021-08-03T09:08:28.272Z</time>
      </trkpt>
      <trkpt lat="47.02718" lon="8.91808">
        <ele>1133</ele>
        <time>2021-08-03T09:08:29.273Z</time>
      </trkpt>
      <trkpt lat="47.02719" lon="8.91807">
        <ele>1133</ele>
        <time>2021-08-03T09:08:30.273Z</time>
      </trkpt>
      <trkpt lat="47.02719" lon="8.91807">
        <ele>1133</ele>
        <time>2021-08-03T09:08:31.272Z</time>
      </trkpt>
      <trkpt lat="47.0272" lon="8.91806">
        <ele>1133</ele>
        <time>2021-08-03T09:08:32.273Z</time>
      </trkpt>
      <trkpt lat="47.0272" lon="8.91805">
        <ele>1133</ele>
        <time>2021-08-03T09:08:33.273Z</time>
      </trkpt>
      <trkpt lat="47.02721" lon="8.91806">
        <ele>1132</ele>
        <time>2021-08-03T09:08:34.273Z</time>
      </trkpt>
      <trkpt lat="47.02721" lon="8.91806">
        <ele>1132</ele>
        <time>2021-08-03T09:08:35.273Z</time>
      </trkpt>
      <trkpt lat="47.02721" lon="8.91806">
        <ele>1132</ele>
        <time>2021-08-03T09:08:36.273Z</time>
      </trkpt>
      <trkpt lat="47.0272" lon="8.91806">
        <ele>1132</ele>
        <time>2021-08-03T09:08:37.273Z</time>
      </trkpt>
      <trkpt lat="47.02719" lon="8.91807">
        <ele>1132</ele>
        <time>2021-08-03T09:08:38.272Z</time>
      </trkpt>
      <trkpt lat="47.02719" lon="8.91806">
        <ele>1131</ele>
        <time>2021-08-03T09:08:39.273Z</time>
      </trkpt>
      <trkpt lat="47.02719" lon="8.91806">
        <ele>1131</ele>
        <time>2021-08-03T09:08:40.273Z</time>
      </trkpt>
      <trkpt lat="47.02719" lon="8.91805">
        <ele>1131</ele>
        <time>2021-08-03T09:08:41.272Z</time>
      </trkpt>
      <trkpt lat="47.02719" lon="8.91804">
        <ele>1130</ele>
        <time>2021-08-03T09:08:42.273Z</time>
      </trkpt>
      <trkpt lat="47.0272" lon="8.91805">
        <ele>1130</ele>
        <time>2021-08-03T09:08:43.274Z</time>
      </trkpt>
      <trkpt lat="47.0272" lon="8.91805">
        <ele>1129</ele>
        <time>2021-08-03T09:08:44.274Z</time>
      </trkpt>
      <trkpt lat="47.0272" lon="8.91806">
        <ele>1129</ele>
        <time>2021-08-03T09:08:45.273Z</time>
      </trkpt>
      <trkpt lat="47.0272" lon="8.91806">
        <ele>1128</ele>
        <time>2021-08-03T09:08:46.274Z</time>
      </trkpt>
      <trkpt lat="47.02722" lon="8.91806">
        <ele>1124</ele>
        <time>2021-08-03T09:08:47.275Z</time>
      </trkpt>
      <trkpt lat="47.02722" lon="8.91805">
        <ele>1124</ele>
        <time>2021-08-03T09:08:48.274Z</time>
      </trkpt>
      <trkpt lat="47.02722" lon="8.91805">
        <ele>1124</ele>
        <time>2021-08-03T09:08:49.274Z</time>
      </trkpt>
      <trkpt lat="47.02722" lon="8.91805">
        <ele>1124</ele>
        <time>2021-08-03T09:08:50.275Z</time>
      </trkpt>
      <trkpt lat="47.02722" lon="8.91804">
        <ele>1124</ele>
        <time>2021-08-03T09:08:51.275Z</time>
      </trkpt>
      <trkpt lat="47.02722" lon="8.91804">
        <ele>1124</ele>
        <time>2021-08-03T09:08:52.274Z</time>
      </trkpt>
      <trkpt lat="47.02724" lon="8.91806">
        <ele>1124</ele>
        <time>2021-08-03T09:08:53.274Z</time>
      </trkpt>
      <trkpt lat="47.02725" lon="8.91808">
        <ele>1124</ele>
        <time>2021-08-03T09:08:54.275Z</time>
      </trkpt>
      <trkpt lat="47.02726" lon="8.91809">
        <ele>1123</ele>
        <time>2021-08-03T09:08:55.274Z</time>
      </trkpt>
      <trkpt lat="47.02726" lon="8.91811">
        <ele>1123</ele>
        <time>2021-08-03T09:08:56.274Z</time>
      </trkpt>
      <trkpt lat="47.02726" lon="8.91812">
        <ele>1123</ele>
        <time>2021-08-03T09:08:57.275Z</time>
      </trkpt>
      <trkpt lat="47.02725" lon="8.91813">
        <ele>1122</ele>
        <time>2021-08-03T09:08:58.274Z</time>
      </trkpt>
      <trkpt lat="47.02725" lon="8.91813">
        <ele>1122</ele>
        <time>2021-08-03T09:08:59.274Z</time>
      </trkpt>
      <trkpt lat="47.02724" lon="8.91814">
        <ele>1122</ele>
        <time>2021-08-03T09:09:00.274Z</time>
      </trkpt>
      <trkpt lat="47.02725" lon="8.91814">
        <ele>1122</ele>
        <time>2021-08-03T09:09:01.274Z</time>
      </trkpt>
      <trkpt lat="47.02726" lon="8.91814">
        <ele>1122</ele>
        <time>2021-08-03T09:09:02.274Z</time>
      </trkpt>
      <trkpt lat="47.02727" lon="8.91814">
        <ele>1122</ele>
        <time>2021-08-03T09:09:03.274Z</time>
      </trkpt>
      <trkpt lat="47.02728" lon="8.91813">
        <ele>1123</ele>
        <time>2021-08-03T09:09:04.274Z</time>
      </trkpt>
      <trkpt lat="47.02728" lon="8.91811">
        <ele>1123</ele>
        <time>2021-08-03T09:09:05.274Z</time>
      </trkpt>
      <trkpt lat="47.02728" lon="8.91811">
        <ele>1124</ele>
        <time>2021-08-03T09:09:06.274Z</time>
      </trkpt>
      <trkpt lat="47.02728" lon="8.9181">
        <ele>1125</ele>
        <time>2021-08-03T09:09:07.275Z</time>
      </trkpt>
      <trkpt lat="47.02729" lon="8.91809">
        <ele>1125</ele>
        <time>2021-08-03T09:09:08.274Z</time>
      </trkpt>
      <trkpt lat="47.02729" lon="8.91809">
        <ele>1126</ele>
        <time>2021-08-03T09:09:09.274Z</time>
      </trkpt>
      <trkpt lat="47.02729" lon="8.91809">
        <ele>1127</ele>
        <time>2021-08-03T09:09:10.274Z</time>
      </trkpt>
      <trkpt lat="47.02729" lon="8.91808">
        <ele>1128</ele>
        <time>2021-08-03T09:09:11.274Z</time>
      </trkpt>
      <trkpt lat="47.0273" lon="8.91807">
        <ele>1128</ele>
        <time>2021-08-03T09:09:12.275Z</time>
      </trkpt>
      <trkpt lat="47.02731" lon="8.91806">
        <ele>1128</ele>
        <time>2021-08-03T09:09:13.274Z</time>
      </trkpt>
      <trkpt lat="47.02731" lon="8.91805">
        <ele>1129</ele>
        <time>2021-08-03T09:09:14.274Z</time>
      </trkpt>
      <trkpt lat="47.02732" lon="8.91804">
        <ele>1129</ele>
        <time>2021-08-03T09:09:15.274Z</time>
      </trkpt>
      <trkpt lat="47.02732" lon="8.91804">
        <ele>1129</ele>
        <time>2021-08-03T09:09:16.275Z</time>
      </trkpt>
      <trkpt lat="47.02732" lon="8.91804">
        <ele>1130</ele>
        <time>2021-08-03T09:09:17.274Z</time>
      </trkpt>
      <trkpt lat="47.02733" lon="8.91804">
        <ele>1130</ele>
        <time>2021-08-03T09:09:18.274Z</time>
      </trkpt>
      <trkpt lat="47.02733" lon="8.91805">
        <ele>1130</ele>
        <time>2021-08-03T09:09:19.274Z</time>
      </trkpt>
      <trkpt lat="47.02733" lon="8.91806">
        <ele>1130</ele>
        <time>2021-08-03T09:09:20.274Z</time>
      </trkpt>
      <trkpt lat="47.02734" lon="8.91807">
        <ele>1130</ele>
        <time>2021-08-03T09:09:21.274Z</time>
      </trkpt>
      <trkpt lat="47.02734" lon="8.91807">
        <ele>1130</ele>
        <time>2021-08-03T09:09:22.274Z</time>
      </trkpt>
      <trkpt lat="47.02735" lon="8.91806">
        <ele>1130</ele>
        <time>2021-08-03T09:09:23.274Z</time>
      </trkpt>
      <trkpt lat="47.02736" lon="8.91805">
        <ele>1130</ele>
        <time>2021-08-03T09:09:24.274Z</time>
      </trkpt>
      <trkpt lat="47.02736" lon="8.91805">
        <ele>1131</ele>
        <time>2021-08-03T09:09:25.274Z</time>
      </trkpt>
      <trkpt lat="47.02737" lon="8.91804">
        <ele>1131</ele>
        <time>2021-08-03T09:09:26.274Z</time>
      </trkpt>
      <trkpt lat="47.02738" lon="8.91803">
        <ele>1131</ele>
        <time>2021-08-03T09:09:27.274Z</time>
      </trkpt>
      <trkpt lat="47.02738" lon="8.91802">
        <ele>1132</ele>
        <time>2021-08-03T09:09:28.274Z</time>
      </trkpt>
      <trkpt lat="47.02739" lon="8.91802">
        <ele>1132</ele>
        <time>2021-08-03T09:09:29.274Z</time>
      </trkpt>
      <trkpt lat="47.0274" lon="8.91803">
        <ele>1132</ele>
        <time>2021-08-03T09:09:30.275Z</time>
      </trkpt>
      <trkpt lat="47.02741" lon="8.91803">
        <ele>1132</ele>
        <time>2021-08-03T09:09:31.275Z</time>
      </trkpt>
      <trkpt lat="47.02741" lon="8.91803">
        <ele>1132</ele>
        <time>2021-08-03T09:09:32.274Z</time>
      </trkpt>
      <trkpt lat="47.02741" lon="8.91803">
        <ele>1132</ele>
        <time>2021-08-03T09:09:33.274Z</time>
      </trkpt>
      <trkpt lat="47.02742" lon="8.91801">
        <ele>1133</ele>
        <time>2021-08-03T09:09:34.274Z</time>
      </trkpt>
      <trkpt lat="47.02742" lon="8.91801">
        <ele>1133</ele>
        <time>2021-08-03T09:09:35.274Z</time>
      </trkpt>
      <trkpt lat="47.02742" lon="8.918">
        <ele>1133</ele>
        <time>2021-08-03T09:09:36.275Z</time>
      </trkpt>
      <trkpt lat="47.02742" lon="8.91799">
        <ele>1134</ele>
        <time>2021-08-03T09:09:37.275Z</time>
      </trkpt>
      <trkpt lat="47.02742" lon="8.91797">
        <ele>1134</ele>
        <time>2021-08-03T09:09:38.274Z</time>
      </trkpt>
      <trkpt lat="47.02742" lon="8.91795">
        <ele>1134</ele>
        <time>2021-08-03T09:09:39.274Z</time>
      </trkpt>
      <trkpt lat="47.02741" lon="8.91794">
        <ele>1134</ele>
        <time>2021-08-03T09:09:40.275Z</time>
      </trkpt>
      <trkpt lat="47.02742" lon="8.91793">
        <ele>1135</ele>
        <time>2021-08-03T09:09:41.275Z</time>
      </trkpt>
      <trkpt lat="47.02742" lon="8.91792">
        <ele>1135</ele>
        <time>2021-08-03T09:09:42.274Z</time>
      </trkpt>
      <trkpt lat="47.02741" lon="8.91791">
        <ele>1135</ele>
        <time>2021-08-03T09:09:43.275Z</time>
      </trkpt>
      <trkpt lat="47.02741" lon="8.9179">
        <ele>1135</ele>
        <time>2021-08-03T09:09:44.275Z</time>
      </trkpt>
      <trkpt lat="47.02741" lon="8.91788">
        <ele>1135</ele>
        <time>2021-08-03T09:09:45.275Z</time>
      </trkpt>
      <trkpt lat="47.02741" lon="8.91786">
        <ele>1136</ele>
        <time>2021-08-03T09:09:46.275Z</time>
      </trkpt>
      <trkpt lat="47.02741" lon="8.91784">
        <ele>1136</ele>
        <time>2021-08-03T09:09:47.274Z</time>
      </trkpt>
      <trkpt lat="47.0274" lon="8.91782">
        <ele>1136</ele>
        <time>2021-08-03T09:09:48.274Z</time>
      </trkpt>
      <trkpt lat="47.0274" lon="8.91781">
        <ele>1137</ele>
        <time>2021-08-03T09:09:49.275Z</time>
      </trkpt>
      <trkpt lat="47.0274" lon="8.9178">
        <ele>1137</ele>
        <time>2021-08-03T09:09:50.275Z</time>
      </trkpt>
      <trkpt lat="47.02741" lon="8.91778">
        <ele>1137</ele>
        <time>2021-08-03T09:09:51.275Z</time>
      </trkpt>
      <trkpt lat="47.02742" lon="8.91776">
        <ele>1138</ele>
        <time>2021-08-03T09:09:52.274Z</time>
      </trkpt>
      <trkpt lat="47.02743" lon="8.91775">
        <ele>1139</ele>
        <time>2021-08-03T09:09:53.275Z</time>
      </trkpt>
      <trkpt lat="47.02744" lon="8.91774">
        <ele>1139</ele>
        <time>2021-08-03T09:09:54.275Z</time>
      </trkpt>
      <trkpt lat="47.02745" lon="8.91772">
        <ele>1140</ele>
        <time>2021-08-03T09:09:55.274Z</time>
      </trkpt>
      <trkpt lat="47.02747" lon="8.91771">
        <ele>1141</ele>
        <time>2021-08-03T09:09:56.274Z</time>
      </trkpt>
      <trkpt lat="47.02748" lon="8.9177">
        <ele>1141</ele>
        <time>2021-08-03T09:09:57.274Z</time>
      </trkpt>
      <trkpt lat="47.02748" lon="8.91768">
        <ele>1141</ele>
        <time>2021-08-03T09:09:58.274Z</time>
      </trkpt>
      <trkpt lat="47.02749" lon="8.91767">
        <ele>1142</ele>
        <time>2021-08-03T09:09:59.275Z</time>
      </trkpt>
      <trkpt lat="47.02749" lon="8.91767">
        <ele>1142</ele>
        <time>2021-08-03T09:10:00.275Z</time>
      </trkpt>
      <trkpt lat="47.02749" lon="8.91766">
        <ele>1142</ele>
        <time>2021-08-03T09:10:01.274Z</time>
      </trkpt>
      <trkpt lat="47.02749" lon="8.91765">
        <ele>1142</ele>
        <time>2021-08-03T09:10:02.275Z</time>
      </trkpt>
      <trkpt lat="47.02749" lon="8.91763">
        <ele>1143</ele>
        <time>2021-08-03T09:10:03.274Z</time>
      </trkpt>
      <trkpt lat="47.02749" lon="8.91762">
        <ele>1143</ele>
        <time>2021-08-03T09:10:04.274Z</time>
      </trkpt>
      <trkpt lat="47.0275" lon="8.91761">
        <ele>1143</ele>
        <time>2021-08-03T09:10:05.275Z</time>
      </trkpt>
      <trkpt lat="47.02751" lon="8.9176">
        <ele>1143</ele>
        <time>2021-08-03T09:10:06.274Z</time>
      </trkpt>
      <trkpt lat="47.02752" lon="8.9176">
        <ele>1144</ele>
        <time>2021-08-03T09:10:07.274Z</time>
      </trkpt>
      <trkpt lat="47.02753" lon="8.91763">
        <ele>1144</ele>
        <time>2021-08-03T09:10:08.274Z</time>
      </trkpt>
      <trkpt lat="47.02753" lon="8.91764">
        <ele>1145</ele>
        <time>2021-08-03T09:10:09.274Z</time>
      </trkpt>
      <trkpt lat="47.02753" lon="8.91765">
        <ele>1145</ele>
        <time>2021-08-03T09:10:10.275Z</time>
      </trkpt>
      <trkpt lat="47.02753" lon="8.91765">
        <ele>1146</ele>
        <time>2021-08-03T09:10:11.274Z</time>
      </trkpt>
      <trkpt lat="47.02753" lon="8.91766">
        <ele>1146</ele>
        <time>2021-08-03T09:10:12.274Z</time>
      </trkpt>
      <trkpt lat="47.02753" lon="8.91765">
        <ele>1146</ele>
        <time>2021-08-03T09:10:13.275Z</time>
      </trkpt>
      <trkpt lat="47.02754" lon="8.91763">
        <ele>1147</ele>
        <time>2021-08-03T09:10:14.274Z</time>
      </trkpt>
      <trkpt lat="47.02754" lon="8.91762">
        <ele>1147</ele>
        <time>2021-08-03T09:10:15.274Z</time>
      </trkpt>
      <trkpt lat="47.02754" lon="8.91761">
        <ele>1147</ele>
        <time>2021-08-03T09:10:16.275Z</time>
      </trkpt>
      <trkpt lat="47.02754" lon="8.9176">
        <ele>1147</ele>
        <time>2021-08-03T09:10:17.274Z</time>
      </trkpt>
      <trkpt lat="47.02753" lon="8.9176">
        <ele>1147</ele>
        <time>2021-08-03T09:10:18.275Z</time>
      </trkpt>
      <trkpt lat="47.02753" lon="8.9176">
        <ele>1147</ele>
        <time>2021-08-03T09:10:19.274Z</time>
      </trkpt>
      <trkpt lat="47.02752" lon="8.9176">
        <ele>1147</ele>
        <time>2021-08-03T09:10:20.275Z</time>
      </trkpt>
      <trkpt lat="47.02752" lon="8.9176">
        <ele>1146</ele>
        <time>2021-08-03T09:10:21.274Z</time>
      </trkpt>
      <trkpt lat="47.02752" lon="8.9176">
        <ele>1146</ele>
        <time>2021-08-03T09:10:22.274Z</time>
      </trkpt>
      <trkpt lat="47.02751" lon="8.9176">
        <ele>1146</ele>
        <time>2021-08-03T09:10:23.274Z</time>
      </trkpt>
      <trkpt lat="47.0275" lon="8.91761">
        <ele>1146</ele>
        <time>2021-08-03T09:10:24.275Z</time>
      </trkpt>
      <trkpt lat="47.02749" lon="8.91761">
        <ele>1145</ele>
        <time>2021-08-03T09:10:25.274Z</time>
      </trkpt>
      <trkpt lat="47.02749" lon="8.91762">
        <ele>1145</ele>
        <time>2021-08-03T09:10:26.275Z</time>
      </trkpt>
      <trkpt lat="47.02748" lon="8.91763">
        <ele>1144</ele>
        <time>2021-08-03T09:10:27.274Z</time>
      </trkpt>
      <trkpt lat="47.02749" lon="8.91764">
        <ele>1144</ele>
        <time>2021-08-03T09:10:28.274Z</time>
      </trkpt>
      <trkpt lat="47.0275" lon="8.91766">
        <ele>1143</ele>
        <time>2021-08-03T09:10:29.274Z</time>
      </trkpt>
      <trkpt lat="47.02751" lon="8.91767">
        <ele>1140</ele>
        <time>2021-08-03T09:10:30.276Z</time>
      </trkpt>
      <trkpt lat="47.0275" lon="8.91767">
        <ele>1140</ele>
        <time>2021-08-03T09:10:31.275Z</time>
      </trkpt>
      <trkpt lat="47.0275" lon="8.91767">
        <ele>1140</ele>
        <time>2021-08-03T09:10:32.276Z</time>
      </trkpt>
      <trkpt lat="47.0275" lon="8.91766">
        <ele>1139</ele>
        <time>2021-08-03T09:10:33.276Z</time>
      </trkpt>
      <trkpt lat="47.0275" lon="8.91766">
        <ele>1139</ele>
        <time>2021-08-03T09:10:34.275Z</time>
      </trkpt>
      <trkpt lat="47.0275" lon="8.91768">
        <ele>1138</ele>
        <time>2021-08-03T09:10:35.278Z</time>
      </trkpt>
      <trkpt lat="47.0275" lon="8.9177">
        <ele>1137</ele>
        <time>2021-08-03T09:10:36.278Z</time>
      </trkpt>
      <trkpt lat="47.0275" lon="8.91771">
        <ele>1136</ele>
        <time>2021-08-03T09:10:37.277Z</time>
      </trkpt>
      <trkpt lat="47.0275" lon="8.91771">
        <ele>1135</ele>
        <time>2021-08-03T09:10:38.277Z</time>
      </trkpt>
      <trkpt lat="47.02751" lon="8.91771">
        <ele>1136</ele>
        <time>2021-08-03T09:10:39.278Z</time>
      </trkpt>
      <trkpt lat="47.02752" lon="8.9177">
        <ele>1137</ele>
        <time>2021-08-03T09:10:40.278Z</time>
      </trkpt>
      <trkpt lat="47.02752" lon="8.9177">
        <ele>1137</ele>
        <time>2021-08-03T09:10:41.278Z</time>
      </trkpt>
      <trkpt lat="47.02753" lon="8.9177">
        <ele>1138</ele>
        <time>2021-08-03T09:10:42.278Z</time>
      </trkpt>
      <trkpt lat="47.02753" lon="8.91771">
        <ele>1138</ele>
        <time>2021-08-03T09:10:43.278Z</time>
      </trkpt>
      <trkpt lat="47.02753" lon="8.91771">
        <ele>1139</ele>
        <time>2021-08-03T09:10:44.277Z</time>
      </trkpt>
      <trkpt lat="47.02753" lon="8.91771">
        <ele>1139</ele>
        <time>2021-08-03T09:10:45.278Z</time>
      </trkpt>
      <trkpt lat="47.02752" lon="8.9177">
        <ele>1139</ele>
        <time>2021-08-03T09:10:46.280Z</time>
      </trkpt>
      <trkpt lat="47.02753" lon="8.91771">
        <ele>1139</ele>
        <time>2021-08-03T09:10:47.280Z</time>
      </trkpt>
      <trkpt lat="47.02753" lon="8.91771">
        <ele>1139</ele>
        <time>2021-08-03T09:10:48.280Z</time>
      </trkpt>
      <trkpt lat="47.02752" lon="8.91772">
        <ele>1139</ele>
        <time>2021-08-03T09:10:49.279Z</time>
      </trkpt>
      <trkpt lat="47.02752" lon="8.91772">
        <ele>1139</ele>
        <time>2021-08-03T09:10:50.280Z</time>
      </trkpt>
      <trkpt lat="47.02751" lon="8.91772">
        <ele>1140</ele>
        <time>2021-08-03T09:10:51.279Z</time>
      </trkpt>
      <trkpt lat="47.02751" lon="8.91772">
        <ele>1140</ele>
        <time>2021-08-03T09:10:52.280Z</time>
      </trkpt>
      <trkpt lat="47.0275" lon="8.91771">
        <ele>1139</ele>
        <time>2021-08-03T09:10:53.281Z</time>
      </trkpt>
      <trkpt lat="47.02749" lon="8.91771">
        <ele>1139</ele>
        <time>2021-08-03T09:10:54.281Z</time>
      </trkpt>
      <trkpt lat="47.02749" lon="8.9177">
        <ele>1139</ele>
        <time>2021-08-03T09:10:55.281Z</time>
      </trkpt>
      <trkpt lat="47.02748" lon="8.9177">
        <ele>1139</ele>
        <time>2021-08-03T09:10:56.280Z</time>
      </trkpt>
      <trkpt lat="47.02747" lon="8.9177">
        <ele>1139</ele>
        <time>2021-08-03T09:10:57.280Z</time>
      </trkpt>
      <trkpt lat="47.02746" lon="8.9177">
        <ele>1139</ele>
        <time>2021-08-03T09:10:58.281Z</time>
      </trkpt>
      <trkpt lat="47.02745" lon="8.91769">
        <ele>1138</ele>
        <time>2021-08-03T09:10:59.281Z</time>
      </trkpt>
      <trkpt lat="47.02745" lon="8.91769">
        <ele>1138</ele>
        <time>2021-08-03T09:11:00.280Z</time>
      </trkpt>
      <trkpt lat="47.02744" lon="8.91767">
        <ele>1139</ele>
        <time>2021-08-03T09:11:01.281Z</time>
      </trkpt>
      <trkpt lat="47.02743" lon="8.91766">
        <ele>1139</ele>
        <time>2021-08-03T09:11:02.280Z</time>
      </trkpt>
      <trkpt lat="47.02742" lon="8.91765">
        <ele>1140</ele>
        <time>2021-08-03T09:11:03.281Z</time>
      </trkpt>
      <trkpt lat="47.0274" lon="8.91765">
        <ele>1140</ele>
        <time>2021-08-03T09:11:04.281Z</time>
      </trkpt>
      <trkpt lat="47.0274" lon="8.91764">
        <ele>1140</ele>
        <time>2021-08-03T09:11:05.281Z</time>
      </trkpt>
      <trkpt lat="47.02739" lon="8.91763">
        <ele>1140</ele>
        <time>2021-08-03T09:11:06.280Z</time>
      </trkpt>
      <trkpt lat="47.02738" lon="8.91763">
        <ele>1140</ele>
        <time>2021-08-03T09:11:07.281Z</time>
      </trkpt>
      <trkpt lat="47.02738" lon="8.91762">
        <ele>1140</ele>
        <time>2021-08-03T09:11:08.281Z</time>
      </trkpt>
      <trkpt lat="47.02737" lon="8.91763">
        <ele>1139</ele>
        <time>2021-08-03T09:11:09.280Z</time>
      </trkpt>
      <trkpt lat="47.02737" lon="8.91763">
        <ele>1139</ele>
        <time>2021-08-03T09:11:10.280Z</time>
      </trkpt>
      <trkpt lat="47.02736" lon="8.91763">
        <ele>1137</ele>
        <time>2021-08-03T09:11:11.281Z</time>
      </trkpt>
      <trkpt lat="47.02735" lon="8.91763">
        <ele>1137</ele>
        <time>2021-08-03T09:11:12.281Z</time>
      </trkpt>
      <trkpt lat="47.02735" lon="8.91762">
        <ele>1136</ele>
        <time>2021-08-03T09:11:13.281Z</time>
      </trkpt>
      <trkpt lat="47.02734" lon="8.91761">
        <ele>1136</ele>
        <time>2021-08-03T09:11:14.281Z</time>
      </trkpt>
      <trkpt lat="47.02733" lon="8.9176">
        <ele>1137</ele>
        <time>2021-08-03T09:11:15.280Z</time>
      </trkpt>
      <trkpt lat="47.02731" lon="8.9176">
        <ele>1137</ele>
        <time>2021-08-03T09:11:16.281Z</time>
      </trkpt>
      <trkpt lat="47.02729" lon="8.9176">
        <ele>1137</ele>
        <time>2021-08-03T09:11:17.281Z</time>
      </trkpt>
      <trkpt lat="47.02727" lon="8.91759">
        <ele>1137</ele>
        <time>2021-08-03T09:11:18.281Z</time>
      </trkpt>
      <trkpt lat="47.02726" lon="8.91759">
        <ele>1137</ele>
        <time>2021-08-03T09:11:19.280Z</time>
      </trkpt>
      <trkpt lat="47.02726" lon="8.91759">
        <ele>1137</ele>
        <time>2021-08-03T09:11:20.281Z</time>
      </trkpt>
      <trkpt lat="47.02725" lon="8.9176">
        <ele>1136</ele>
        <time>2021-08-03T09:11:21.281Z</time>
      </trkpt>
      <trkpt lat="47.02725" lon="8.91759">
        <ele>1136</ele>
        <time>2021-08-03T09:11:22.281Z</time>
      </trkpt>
      <trkpt lat="47.02725" lon="8.91759">
        <ele>1136</ele>
        <time>2021-08-03T09:11:23.281Z</time>
      </trkpt>
      <trkpt lat="47.02724" lon="8.91759">
        <ele>1135</ele>
        <time>2021-08-03T09:11:24.280Z</time>
      </trkpt>
      <trkpt lat="47.02723" lon="8.91759">
        <ele>1135</ele>
        <time>2021-08-03T09:11:25.280Z</time>
      </trkpt>
      <trkpt lat="47.02722" lon="8.91759">
        <ele>1134</ele>
        <time>2021-08-03T09:11:26.280Z</time>
      </trkpt>
      <trkpt lat="47.02722" lon="8.91759">
        <ele>1134</ele>
        <time>2021-08-03T09:11:27.280Z</time>
      </trkpt>
      <trkpt lat="47.0272" lon="8.9176">
        <ele>1134</ele>
        <time>2021-08-03T09:11:28.281Z</time>
      </trkpt>
      <trkpt lat="47.0272" lon="8.91759">
        <ele>1133</ele>
        <time>2021-08-03T09:11:29.281Z</time>
      </trkpt>
      <trkpt lat="47.02719" lon="8.91758">
        <ele>1133</ele>
        <time>2021-08-03T09:11:30.281Z</time>
      </trkpt>
      <trkpt lat="47.02718" lon="8.91757">
        <ele>1132</ele>
        <time>2021-08-03T09:11:31.281Z</time>
      </trkpt>
      <trkpt lat="47.02718" lon="8.91757">
        <ele>1132</ele>
        <time>2021-08-03T09:11:32.281Z</time>
      </trkpt>
      <trkpt lat="47.02717" lon="8.91755">
        <ele>1132</ele>
        <time>2021-08-03T09:11:33.280Z</time>
      </trkpt>
      <trkpt lat="47.02717" lon="8.91754">
        <ele>1131</ele>
        <time>2021-08-03T09:11:34.280Z</time>
      </trkpt>
      <trkpt lat="47.02716" lon="8.91753">
        <ele>1131</ele>
        <time>2021-08-03T09:11:35.281Z</time>
      </trkpt>
      <trkpt lat="47.02716" lon="8.91751">
        <ele>1131</ele>
        <time>2021-08-03T09:11:36.281Z</time>
      </trkpt>
      <trkpt lat="47.02716" lon="8.91749">
        <ele>1130</ele>
        <time>2021-08-03T09:11:37.280Z</time>
      </trkpt>
      <trkpt lat="47.02716" lon="8.91747">
        <ele>1130</ele>
        <time>2021-08-03T09:11:38.281Z</time>
      </trkpt>
      <trkpt lat="47.02716" lon="8.91747">
        <ele>1130</ele>
        <time>2021-08-03T09:11:39.281Z</time>
      </trkpt>
      <trkpt lat="47.02715" lon="8.91746">
        <ele>1130</ele>
        <time>2021-08-03T09:11:40.280Z</time>
      </trkpt>
      <trkpt lat="47.02715" lon="8.91745">
        <ele>1130</ele>
        <time>2021-08-03T09:11:41.281Z</time>
      </trkpt>
      <trkpt lat="47.02714" lon="8.91745">
        <ele>1130</ele>
        <time>2021-08-03T09:11:42.281Z</time>
      </trkpt>
      <trkpt lat="47.02712" lon="8.91746">
        <ele>1130</ele>
        <time>2021-08-03T09:11:43.280Z</time>
      </trkpt>
      <trkpt lat="47.02712" lon="8.91744">
        <ele>1131</ele>
        <time>2021-08-03T09:11:44.280Z</time>
      </trkpt>
      <trkpt lat="47.0271" lon="8.91744">
        <ele>1132</ele>
        <time>2021-08-03T09:11:45.281Z</time>
      </trkpt>
      <trkpt lat="47.02709" lon="8.91742">
        <ele>1132</ele>
        <time>2021-08-03T09:11:46.281Z</time>
      </trkpt>
      <trkpt lat="47.02708" lon="8.91742">
        <ele>1133</ele>
        <time>2021-08-03T09:11:47.280Z</time>
      </trkpt>
      <trkpt lat="47.02707" lon="8.91742">
        <ele>1133</ele>
        <time>2021-08-03T09:11:48.281Z</time>
      </trkpt>
      <trkpt lat="47.02707" lon="8.91742">
        <ele>1134</ele>
        <time>2021-08-03T09:11:49.281Z</time>
      </trkpt>
      <trkpt lat="47.02707" lon="8.91742">
        <ele>1134</ele>
        <time>2021-08-03T09:11:50.281Z</time>
      </trkpt>
      <trkpt lat="47.02707" lon="8.91742">
        <ele>1135</ele>
        <time>2021-08-03T09:11:51.281Z</time>
      </trkpt>
      <trkpt lat="47.02707" lon="8.91743">
        <ele>1135</ele>
        <time>2021-08-03T09:11:52.281Z</time>
      </trkpt>
      <trkpt lat="47.02707" lon="8.91743">
        <ele>1136</ele>
        <time>2021-08-03T09:11:53.280Z</time>
      </trkpt>
      <trkpt lat="47.02708" lon="8.91743">
        <ele>1136</ele>
        <time>2021-08-03T09:11:54.281Z</time>
      </trkpt>
      <trkpt lat="47.02708" lon="8.91741">
        <ele>1137</ele>
        <time>2021-08-03T09:11:55.281Z</time>
      </trkpt>
      <trkpt lat="47.02708" lon="8.91741">
        <ele>1137</ele>
        <time>2021-08-03T09:11:56.282Z</time>
      </trkpt>
      <trkpt lat="47.02708" lon="8.91741">
        <ele>1136</ele>
        <time>2021-08-03T09:11:57.281Z</time>
      </trkpt>
      <trkpt lat="47.02708" lon="8.9174">
        <ele>1136</ele>
        <time>2021-08-03T09:11:58.281Z</time>
      </trkpt>
      <trkpt lat="47.02709" lon="8.9174">
        <ele>1135</ele>
        <time>2021-08-03T09:11:59.282Z</time>
      </trkpt>
      <trkpt lat="47.02709" lon="8.91742">
        <ele>1133</ele>
        <time>2021-08-03T09:12:00.282Z</time>
      </trkpt>
      <trkpt lat="47.02709" lon="8.91742">
        <ele>1133</ele>
        <time>2021-08-03T09:12:01.282Z</time>
      </trkpt>
      <trkpt lat="47.02709" lon="8.9174">
        <ele>1132</ele>
        <time>2021-08-03T09:12:02.281Z</time>
      </trkpt>
      <trkpt lat="47.02708" lon="8.91739">
        <ele>1132</ele>
        <time>2021-08-03T09:12:03.281Z</time>
      </trkpt>
      <trkpt lat="47.02708" lon="8.9174">
        <ele>1131</ele>
        <time>2021-08-03T09:12:04.281Z</time>
      </trkpt>
      <trkpt lat="47.02708" lon="8.9174">
        <ele>1131</ele>
        <time>2021-08-03T09:12:05.282Z</time>
      </trkpt>
      <trkpt lat="47.02708" lon="8.9174">
        <ele>1131</ele>
        <time>2021-08-03T09:12:06.282Z</time>
      </trkpt>
      <trkpt lat="47.02707" lon="8.9174">
        <ele>1132</ele>
        <time>2021-08-03T09:12:07.282Z</time>
      </trkpt>
      <trkpt lat="47.02706" lon="8.91745">
        <ele>1133</ele>
        <time>2021-08-03T09:12:08.282Z</time>
      </trkpt>
      <trkpt lat="47.02705" lon="8.91746">
        <ele>1133</ele>
        <time>2021-08-03T09:12:09.282Z</time>
      </trkpt>
      <trkpt lat="47.02705" lon="8.91746">
        <ele>1133</ele>
        <time>2021-08-03T09:12:10.282Z</time>
      </trkpt>
      <trkpt lat="47.02704" lon="8.91747">
        <ele>1133</ele>
        <time>2021-08-03T09:12:11.282Z</time>
      </trkpt>
      <trkpt lat="47.02704" lon="8.91748">
        <ele>1133</ele>
        <time>2021-08-03T09:12:12.282Z</time>
      </trkpt>
      <trkpt lat="47.02704" lon="8.91747">
        <ele>1132</ele>
        <time>2021-08-03T09:12:13.282Z</time>
      </trkpt>
      <trkpt lat="47.02704" lon="8.91747">
        <ele>1132</ele>
        <time>2021-08-03T09:12:14.282Z</time>
      </trkpt>
      <trkpt lat="47.02704" lon="8.91746">
        <ele>1132</ele>
        <time>2021-08-03T09:12:15.283Z</time>
      </trkpt>
      <trkpt lat="47.02705" lon="8.91745">
        <ele>1131</ele>
        <time>2021-08-03T09:12:16.282Z</time>
      </trkpt>
      <trkpt lat="47.02705" lon="8.91745">
        <ele>1131</ele>
        <time>2021-08-03T09:12:17.282Z</time>
      </trkpt>
      <trkpt lat="47.02704" lon="8.91745">
        <ele>1131</ele>
        <time>2021-08-03T09:12:18.282Z</time>
      </trkpt>
      <trkpt lat="47.02704" lon="8.91745">
        <ele>1131</ele>
        <time>2021-08-03T09:12:19.282Z</time>
      </trkpt>
      <trkpt lat="47.02703" lon="8.91746">
        <ele>1131</ele>
        <time>2021-08-03T09:12:20.282Z</time>
      </trkpt>
      <trkpt lat="47.02703" lon="8.91747">
        <ele>1131</ele>
        <time>2021-08-03T09:12:21.282Z</time>
      </trkpt>
      <trkpt lat="47.02702" lon="8.91746">
        <ele>1131</ele>
        <time>2021-08-03T09:12:22.282Z</time>
      </trkpt>
      <trkpt lat="47.02701" lon="8.91745">
        <ele>1131</ele>
        <time>2021-08-03T09:12:23.282Z</time>
      </trkpt>
      <trkpt lat="47.027" lon="8.91744">
        <ele>1131</ele>
        <time>2021-08-03T09:12:24.283Z</time>
      </trkpt>
      <trkpt lat="47.027" lon="8.91742">
        <ele>1130</ele>
        <time>2021-08-03T09:12:25.282Z</time>
      </trkpt>
      <trkpt lat="47.02699" lon="8.91741">
        <ele>1130</ele>
        <time>2021-08-03T09:12:26.282Z</time>
      </trkpt>
      <trkpt lat="47.02699" lon="8.9174">
        <ele>1130</ele>
        <time>2021-08-03T09:12:27.282Z</time>
      </trkpt>
      <trkpt lat="47.02699" lon="8.91739">
        <ele>1129</ele>
        <time>2021-08-03T09:12:28.283Z</time>
      </trkpt>
      <trkpt lat="47.02699" lon="8.91738">
        <ele>1129</ele>
        <time>2021-08-03T09:12:29.282Z</time>
      </trkpt>
      <trkpt lat="47.02699" lon="8.91737">
        <ele>1129</ele>
        <time>2021-08-03T09:12:30.282Z</time>
      </trkpt>
      <trkpt lat="47.02698" lon="8.91737">
        <ele>1130</ele>
        <time>2021-08-03T09:12:31.282Z</time>
      </trkpt>
      <trkpt lat="47.02698" lon="8.91736">
        <ele>1130</ele>
        <time>2021-08-03T09:12:32.282Z</time>
      </trkpt>
      <trkpt lat="47.02699" lon="8.91734">
        <ele>1129</ele>
        <time>2021-08-03T09:12:33.283Z</time>
      </trkpt>
      <trkpt lat="47.02698" lon="8.91733">
        <ele>1129</ele>
        <time>2021-08-03T09:12:34.282Z</time>
      </trkpt>
      <trkpt lat="47.02698" lon="8.91733">
        <ele>1128</ele>
        <time>2021-08-03T09:12:35.283Z</time>
      </trkpt>
      <trkpt lat="47.02698" lon="8.91732">
        <ele>1128</ele>
        <time>2021-08-03T09:12:36.282Z</time>
      </trkpt>
      <trkpt lat="47.02699" lon="8.91731">
        <ele>1128</ele>
        <time>2021-08-03T09:12:37.282Z</time>
      </trkpt>
      <trkpt lat="47.02699" lon="8.9173">
        <ele>1128</ele>
        <time>2021-08-03T09:12:38.282Z</time>
      </trkpt>
      <trkpt lat="47.02699" lon="8.9173">
        <ele>1128</ele>
        <time>2021-08-03T09:12:39.283Z</time>
      </trkpt>
      <trkpt lat="47.02699" lon="8.91734">
        <ele>1128</ele>
        <time>2021-08-03T09:12:40.283Z</time>
      </trkpt>
      <trkpt lat="47.02699" lon="8.91734">
        <ele>1127</ele>
        <time>2021-08-03T09:12:41.283Z</time>
      </trkpt>
      <trkpt lat="47.02695" lon="8.91736">
        <ele>1127</ele>
        <time>2021-08-03T09:12:42.283Z</time>
      </trkpt>
      <trkpt lat="47.02694" lon="8.91736">
        <ele>1127</ele>
        <time>2021-08-03T09:12:43.284Z</time>
      </trkpt>
      <trkpt lat="47.02694" lon="8.91735">
        <ele>1127</ele>
        <time>2021-08-03T09:12:44.283Z</time>
      </trkpt>
      <trkpt lat="47.02693" lon="8.91733">
        <ele>1127</ele>
        <time>2021-08-03T09:12:45.283Z</time>
      </trkpt>
      <trkpt lat="47.02692" lon="8.91733">
        <ele>1127</ele>
        <time>2021-08-03T09:12:46.283Z</time>
      </trkpt>
      <trkpt lat="47.02691" lon="8.91733">
        <ele>1127</ele>
        <time>2021-08-03T09:12:47.283Z</time>
      </trkpt>
      <trkpt lat="47.0269" lon="8.91734">
        <ele>1126</ele>
        <time>2021-08-03T09:12:48.284Z</time>
      </trkpt>
      <trkpt lat="47.02689" lon="8.91733">
        <ele>1126</ele>
        <time>2021-08-03T09:12:49.283Z</time>
      </trkpt>
      <trkpt lat="47.02688" lon="8.91732">
        <ele>1126</ele>
        <time>2021-08-03T09:12:50.283Z</time>
      </trkpt>
      <trkpt lat="47.02687" lon="8.91731">
        <ele>1126</ele>
        <time>2021-08-03T09:12:51.283Z</time>
      </trkpt>
      <trkpt lat="47.02686" lon="8.9173">
        <ele>1126</ele>
        <time>2021-08-03T09:12:52.283Z</time>
      </trkpt>
      <trkpt lat="47.02685" lon="8.91729">
        <ele>1126</ele>
        <time>2021-08-03T09:12:53.283Z</time>
      </trkpt>
      <trkpt lat="47.02684" lon="8.91728">
        <ele>1126</ele>
        <time>2021-08-03T09:12:54.283Z</time>
      </trkpt>
      <trkpt lat="47.02683" lon="8.91726">
        <ele>1125</ele>
        <time>2021-08-03T09:12:55.283Z</time>
      </trkpt>
      <trkpt lat="47.02683" lon="8.91725">
        <ele>1125</ele>
        <time>2021-08-03T09:12:56.283Z</time>
      </trkpt>
      <trkpt lat="47.02682" lon="8.91723">
        <ele>1126</ele>
        <time>2021-08-03T09:12:57.283Z</time>
      </trkpt>
      <trkpt lat="47.02682" lon="8.91722">
        <ele>1126</ele>
        <time>2021-08-03T09:12:58.283Z</time>
      </trkpt>
      <trkpt lat="47.02681" lon="8.91722">
        <ele>1126</ele>
        <time>2021-08-03T09:12:59.283Z</time>
      </trkpt>
      <trkpt lat="47.02682" lon="8.91721">
        <ele>1126</ele>
        <time>2021-08-03T09:13:00.283Z</time>
      </trkpt>
      <trkpt lat="47.02682" lon="8.91719">
        <ele>1126</ele>
        <time>2021-08-03T09:13:01.283Z</time>
      </trkpt>
      <trkpt lat="47.02681" lon="8.91719">
        <ele>1126</ele>
        <time>2021-08-03T09:13:02.283Z</time>
      </trkpt>
      <trkpt lat="47.02681" lon="8.91719">
        <ele>1126</ele>
        <time>2021-08-03T09:13:03.283Z</time>
      </trkpt>
      <trkpt lat="47.0268" lon="8.91718">
        <ele>1125</ele>
        <time>2021-08-03T09:13:04.283Z</time>
      </trkpt>
      <trkpt lat="47.0268" lon="8.91718">
        <ele>1125</ele>
        <time>2021-08-03T09:13:05.283Z</time>
      </trkpt>
      <trkpt lat="47.02679" lon="8.91718">
        <ele>1124</ele>
        <time>2021-08-03T09:13:06.283Z</time>
      </trkpt>
      <trkpt lat="47.02679" lon="8.91719">
        <ele>1124</ele>
        <time>2021-08-03T09:13:07.283Z</time>
      </trkpt>
      <trkpt lat="47.02679" lon="8.91719">
        <ele>1123</ele>
        <time>2021-08-03T09:13:08.283Z</time>
      </trkpt>
      <trkpt lat="47.02678" lon="8.9172">
        <ele>1123</ele>
        <time>2021-08-03T09:13:09.284Z</time>
      </trkpt>
      <trkpt lat="47.02678" lon="8.9172">
        <ele>1122</ele>
        <time>2021-08-03T09:13:10.284Z</time>
      </trkpt>
      <trkpt lat="47.02678" lon="8.9172">
        <ele>1122</ele>
        <time>2021-08-03T09:13:11.283Z</time>
      </trkpt>
      <trkpt lat="47.02678" lon="8.9172">
        <ele>1122</ele>
        <time>2021-08-03T09:13:12.284Z</time>
      </trkpt>
      <trkpt lat="47.02678" lon="8.91719">
        <ele>1121</ele>
        <time>2021-08-03T09:13:13.285Z</time>
      </trkpt>
      <trkpt lat="47.02677" lon="8.91718">
        <ele>1121</ele>
        <time>2021-08-03T09:13:14.285Z</time>
      </trkpt>
      <trkpt lat="47.02676" lon="8.91717">
        <ele>1120</ele>
        <time>2021-08-03T09:13:15.284Z</time>
      </trkpt>
      <trkpt lat="47.02675" lon="8.91717">
        <ele>1120</ele>
        <time>2021-08-03T09:13:16.285Z</time>
      </trkpt>
      <trkpt lat="47.02674" lon="8.91717">
        <ele>1120</ele>
        <time>2021-08-03T09:13:17.284Z</time>
      </trkpt>
      <trkpt lat="47.02674" lon="8.91717">
        <ele>1120</ele>
        <time>2021-08-03T09:13:18.284Z</time>
      </trkpt>
      <trkpt lat="47.02673" lon="8.91716">
        <ele>1120</ele>
        <time>2021-08-03T09:13:19.284Z</time>
      </trkpt>
      <trkpt lat="47.02673" lon="8.91716">
        <ele>1120</ele>
        <time>2021-08-03T09:13:20.284Z</time>
      </trkpt>
      <trkpt lat="47.02672" lon="8.91715">
        <ele>1120</ele>
        <time>2021-08-03T09:13:21.284Z</time>
      </trkpt>
      <trkpt lat="47.02671" lon="8.91714">
        <ele>1120</ele>
        <time>2021-08-03T09:13:22.284Z</time>
      </trkpt>
      <trkpt lat="47.0267" lon="8.91714">
        <ele>1120</ele>
        <time>2021-08-03T09:13:23.284Z</time>
      </trkpt>
      <trkpt lat="47.0267" lon="8.91714">
        <ele>1121</ele>
        <time>2021-08-03T09:13:24.284Z</time>
      </trkpt>
      <trkpt lat="47.02669" lon="8.91713">
        <ele>1121</ele>
        <time>2021-08-03T09:13:25.284Z</time>
      </trkpt>
      <trkpt lat="47.0267" lon="8.91711">
        <ele>1121</ele>
        <time>2021-08-03T09:13:26.284Z</time>
      </trkpt>
      <trkpt lat="47.0267" lon="8.9171">
        <ele>1121</ele>
        <time>2021-08-03T09:13:27.285Z</time>
      </trkpt>
      <trkpt lat="47.02669" lon="8.9171">
        <ele>1120</ele>
        <time>2021-08-03T09:13:28.284Z</time>
      </trkpt>
      <trkpt lat="47.02668" lon="8.91711">
        <ele>1120</ele>
        <time>2021-08-03T09:13:29.284Z</time>
      </trkpt>
      <trkpt lat="47.02667" lon="8.91713">
        <ele>1120</ele>
        <time>2021-08-03T09:13:30.285Z</time>
      </trkpt>
      <trkpt lat="47.02667" lon="8.91713">
        <ele>1120</ele>
        <time>2021-08-03T09:13:31.285Z</time>
      </trkpt>
      <trkpt lat="47.02665" lon="8.91713">
        <ele>1121</ele>
        <time>2021-08-03T09:13:32.284Z</time>
      </trkpt>
      <trkpt lat="47.02664" lon="8.91713">
        <ele>1121</ele>
        <time>2021-08-03T09:13:33.285Z</time>
      </trkpt>
      <trkpt lat="47.02663" lon="8.91714">
        <ele>1121</ele>
        <time>2021-08-03T09:13:34.285Z</time>
      </trkpt>
      <trkpt lat="47.02662" lon="8.91714">
        <ele>1122</ele>
        <time>2021-08-03T09:13:35.285Z</time>
      </trkpt>
      <trkpt lat="47.02662" lon="8.91715">
        <ele>1122</ele>
        <time>2021-08-03T09:13:36.285Z</time>
      </trkpt>
      <trkpt lat="47.02664" lon="8.91716">
        <ele>1122</ele>
        <time>2021-08-03T09:13:37.285Z</time>
      </trkpt>
      <trkpt lat="47.02664" lon="8.91717">
        <ele>1122</ele>
        <time>2021-08-03T09:13:38.285Z</time>
      </trkpt>
      <trkpt lat="47.02662" lon="8.91718">
        <ele>1123</ele>
        <time>2021-08-03T09:13:39.285Z</time>
      </trkpt>
      <trkpt lat="47.02662" lon="8.91718">
        <ele>1123</ele>
        <time>2021-08-03T09:13:40.284Z</time>
      </trkpt>
      <trkpt lat="47.02661" lon="8.91718">
        <ele>1123</ele>
        <time>2021-08-03T09:13:41.285Z</time>
      </trkpt>
      <trkpt lat="47.0266" lon="8.91717">
        <ele>1124</ele>
        <time>2021-08-03T09:13:42.284Z</time>
      </trkpt>
      <trkpt lat="47.0266" lon="8.91717">
        <ele>1124</ele>
        <time>2021-08-03T09:13:43.285Z</time>
      </trkpt>
      <trkpt lat="47.02659" lon="8.91716">
        <ele>1124</ele>
        <time>2021-08-03T09:13:44.285Z</time>
      </trkpt>
      <trkpt lat="47.02657" lon="8.91715">
        <ele>1124</ele>
        <time>2021-08-03T09:13:45.285Z</time>
      </trkpt>
      <trkpt lat="47.02657" lon="8.91715">
        <ele>1125</ele>
        <time>2021-08-03T09:13:46.285Z</time>
      </trkpt>
      <trkpt lat="47.02657" lon="8.91714">
        <ele>1125</ele>
        <time>2021-08-03T09:13:47.285Z</time>
      </trkpt>
      <trkpt lat="47.02657" lon="8.91714">
        <ele>1125</ele>
        <time>2021-08-03T09:13:48.285Z</time>
      </trkpt>
      <trkpt lat="47.02657" lon="8.91713">
        <ele>1125</ele>
        <time>2021-08-03T09:13:49.285Z</time>
      </trkpt>
      <trkpt lat="47.02657" lon="8.91712">
        <ele>1125</ele>
        <time>2021-08-03T09:13:50.284Z</time>
      </trkpt>
      <trkpt lat="47.02657" lon="8.91712">
        <ele>1126</ele>
        <time>2021-08-03T09:13:51.285Z</time>
      </trkpt>
      <trkpt lat="47.02656" lon="8.91712">
        <ele>1126</ele>
        <time>2021-08-03T09:13:52.285Z</time>
      </trkpt>
      <trkpt lat="47.02655" lon="8.91708">
        <ele>1126</ele>
        <time>2021-08-03T09:13:53.285Z</time>
      </trkpt>
      <trkpt lat="47.02654" lon="8.91706">
        <ele>1125</ele>
        <time>2021-08-03T09:13:54.285Z</time>
      </trkpt>
      <trkpt lat="47.02652" lon="8.91705">
        <ele>1125</ele>
        <time>2021-08-03T09:13:55.285Z</time>
      </trkpt>
      <trkpt lat="47.02651" lon="8.91704">
        <ele>1125</ele>
        <time>2021-08-03T09:13:56.284Z</time>
      </trkpt>
      <trkpt lat="47.02651" lon="8.91704">
        <ele>1125</ele>
        <time>2021-08-03T09:13:57.285Z</time>
      </trkpt>
      <trkpt lat="47.02651" lon="8.91703">
        <ele>1124</ele>
        <time>2021-08-03T09:13:58.284Z</time>
      </trkpt>
      <trkpt lat="47.0265" lon="8.91702">
        <ele>1124</ele>
        <time>2021-08-03T09:13:59.285Z</time>
      </trkpt>
      <trkpt lat="47.02648" lon="8.91702">
        <ele>1123</ele>
        <time>2021-08-03T09:14:00.284Z</time>
      </trkpt>
      <trkpt lat="47.02647" lon="8.91701">
        <ele>1123</ele>
        <time>2021-08-03T09:14:01.284Z</time>
      </trkpt>
      <trkpt lat="47.02647" lon="8.917">
        <ele>1123</ele>
        <time>2021-08-03T09:14:02.284Z</time>
      </trkpt>
      <trkpt lat="47.02646" lon="8.91699">
        <ele>1122</ele>
        <time>2021-08-03T09:14:03.284Z</time>
      </trkpt>
      <trkpt lat="47.02645" lon="8.91697">
        <ele>1122</ele>
        <time>2021-08-03T09:14:04.284Z</time>
      </trkpt>
      <trkpt lat="47.02645" lon="8.91695">
        <ele>1121</ele>
        <time>2021-08-03T09:14:05.284Z</time>
      </trkpt>
      <trkpt lat="47.02645" lon="8.91693">
        <ele>1121</ele>
        <time>2021-08-03T09:14:06.284Z</time>
      </trkpt>
      <trkpt lat="47.02644" lon="8.91692">
        <ele>1120</ele>
        <time>2021-08-03T09:14:07.284Z</time>
      </trkpt>
      <trkpt lat="47.02642" lon="8.91692">
        <ele>1120</ele>
        <time>2021-08-03T09:14:08.284Z</time>
      </trkpt>
      <trkpt lat="47.02641" lon="8.91692">
        <ele>1119</ele>
        <time>2021-08-03T09:14:09.284Z</time>
      </trkpt>
      <trkpt lat="47.0264" lon="8.91692">
        <ele>1119</ele>
        <time>2021-08-03T09:14:10.284Z</time>
      </trkpt>
      <trkpt lat="47.02639" lon="8.91693">
        <ele>1119</ele>
        <time>2021-08-03T09:14:11.284Z</time>
      </trkpt>
      <trkpt lat="47.02638" lon="8.91694">
        <ele>1119</ele>
        <time>2021-08-03T09:14:12.284Z</time>
      </trkpt>
      <trkpt lat="47.02639" lon="8.91694">
        <ele>1118</ele>
        <time>2021-08-03T09:14:13.284Z</time>
      </trkpt>
      <trkpt lat="47.0264" lon="8.91693">
        <ele>1118</ele>
        <time>2021-08-03T09:14:14.284Z</time>
      </trkpt>
      <trkpt lat="47.0264" lon="8.91691">
        <ele>1118</ele>
        <time>2021-08-03T09:14:15.284Z</time>
      </trkpt>
      <trkpt lat="47.02641" lon="8.91689">
        <ele>1118</ele>
        <time>2021-08-03T09:14:16.284Z</time>
      </trkpt>
      <trkpt lat="47.02641" lon="8.91688">
        <ele>1118</ele>
        <time>2021-08-03T09:14:17.284Z</time>
      </trkpt>
      <trkpt lat="47.02642" lon="8.91685">
        <ele>1117</ele>
        <time>2021-08-03T09:14:18.284Z</time>
      </trkpt>
      <trkpt lat="47.02642" lon="8.91683">
        <ele>1117</ele>
        <time>2021-08-03T09:14:19.284Z</time>
      </trkpt>
      <trkpt lat="47.02642" lon="8.91683">
        <ele>1117</ele>
        <time>2021-08-03T09:14:20.285Z</time>
      </trkpt>
      <trkpt lat="47.02643" lon="8.91683">
        <ele>1116</ele>
        <time>2021-08-03T09:14:21.284Z</time>
      </trkpt>
      <trkpt lat="47.02643" lon="8.91683">
        <ele>1116</ele>
        <time>2021-08-03T09:14:22.285Z</time>
      </trkpt>
      <trkpt lat="47.02643" lon="8.91683">
        <ele>1116</ele>
        <time>2021-08-03T09:14:23.285Z</time>
      </trkpt>
      <trkpt lat="47.02643" lon="8.91682">
        <ele>1115</ele>
        <time>2021-08-03T09:14:24.286Z</time>
      </trkpt>
      <trkpt lat="47.02643" lon="8.91681">
        <ele>1114</ele>
        <time>2021-08-03T09:14:25.286Z</time>
      </trkpt>
      <trkpt lat="47.02642" lon="8.91682">
        <ele>1114</ele>
        <time>2021-08-03T09:14:26.285Z</time>
      </trkpt>
      <trkpt lat="47.0264" lon="8.91682">
        <ele>1114</ele>
        <time>2021-08-03T09:14:27.286Z</time>
      </trkpt>
      <trkpt lat="47.02638" lon="8.91683">
        <ele>1113</ele>
        <time>2021-08-03T09:14:28.286Z</time>
      </trkpt>
      <trkpt lat="47.02637" lon="8.91684">
        <ele>1113</ele>
        <time>2021-08-03T09:14:29.286Z</time>
      </trkpt>
      <trkpt lat="47.02635" lon="8.91684">
        <ele>1113</ele>
        <time>2021-08-03T09:14:30.286Z</time>
      </trkpt>
      <trkpt lat="47.02634" lon="8.91683">
        <ele>1112</ele>
        <time>2021-08-03T09:14:31.285Z</time>
      </trkpt>
      <trkpt lat="47.02633" lon="8.91682">
        <ele>1112</ele>
        <time>2021-08-03T09:14:32.286Z</time>
      </trkpt>
      <trkpt lat="47.02633" lon="8.91681">
        <ele>1112</ele>
        <time>2021-08-03T09:14:33.286Z</time>
      </trkpt>
      <trkpt lat="47.02631" lon="8.91679">
        <ele>1112</ele>
        <time>2021-08-03T09:14:34.286Z</time>
      </trkpt>
      <trkpt lat="47.0263" lon="8.91678">
        <ele>1112</ele>
        <time>2021-08-03T09:14:35.285Z</time>
      </trkpt>
      <trkpt lat="47.02629" lon="8.91677">
        <ele>1112</ele>
        <time>2021-08-03T09:14:36.285Z</time>
      </trkpt>
      <trkpt lat="47.02629" lon="8.91677">
        <ele>1112</ele>
        <time>2021-08-03T09:14:37.285Z</time>
      </trkpt>
      <trkpt lat="47.02628" lon="8.91675">
        <ele>1112</ele>
        <time>2021-08-03T09:14:38.286Z</time>
      </trkpt>
      <trkpt lat="47.02628" lon="8.91674">
        <ele>1112</ele>
        <time>2021-08-03T09:14:39.286Z</time>
      </trkpt>
      <trkpt lat="47.02627" lon="8.91674">
        <ele>1112</ele>
        <time>2021-08-03T09:14:40.286Z</time>
      </trkpt>
      <trkpt lat="47.02626" lon="8.91675">
        <ele>1112</ele>
        <time>2021-08-03T09:14:41.286Z</time>
      </trkpt>
      <trkpt lat="47.02625" lon="8.91676">
        <ele>1112</ele>
        <time>2021-08-03T09:14:42.286Z</time>
      </trkpt>
      <trkpt lat="47.02624" lon="8.91676">
        <ele>1111</ele>
        <time>2021-08-03T09:14:43.286Z</time>
      </trkpt>
      <trkpt lat="47.02623" lon="8.91677">
        <ele>1111</ele>
        <time>2021-08-03T09:14:44.286Z</time>
      </trkpt>
      <trkpt lat="47.02623" lon="8.91678">
        <ele>1110</ele>
        <time>2021-08-03T09:14:45.286Z</time>
      </trkpt>
      <trkpt lat="47.02622" lon="8.91679">
        <ele>1110</ele>
        <time>2021-08-03T09:14:46.286Z</time>
      </trkpt>
      <trkpt lat="47.02622" lon="8.9168">
        <ele>1109</ele>
        <time>2021-08-03T09:14:47.285Z</time>
      </trkpt>
      <trkpt lat="47.02622" lon="8.91681">
        <ele>1109</ele>
        <time>2021-08-03T09:14:48.286Z</time>
      </trkpt>
      <trkpt lat="47.02622" lon="8.91681">
        <ele>1109</ele>
        <time>2021-08-03T09:14:49.285Z</time>
      </trkpt>
      <trkpt lat="47.02622" lon="8.91681">
        <ele>1108</ele>
        <time>2021-08-03T09:14:50.286Z</time>
      </trkpt>
      <trkpt lat="47.02622" lon="8.91681">
        <ele>1108</ele>
        <time>2021-08-03T09:14:51.287Z</time>
      </trkpt>
      <trkpt lat="47.02622" lon="8.9168">
        <ele>1108</ele>
        <time>2021-08-03T09:14:52.286Z</time>
      </trkpt>
      <trkpt lat="47.02621" lon="8.9168">
        <ele>1108</ele>
        <time>2021-08-03T09:14:53.286Z</time>
      </trkpt>
      <trkpt lat="47.02621" lon="8.9168">
        <ele>1108</ele>
        <time>2021-08-03T09:14:54.287Z</time>
      </trkpt>
      <trkpt lat="47.02621" lon="8.9168">
        <ele>1108</ele>
        <time>2021-08-03T09:14:55.287Z</time>
      </trkpt>
      <trkpt lat="47.02621" lon="8.9168">
        <ele>1108</ele>
        <time>2021-08-03T09:14:56.287Z</time>
      </trkpt>
      <trkpt lat="47.0262" lon="8.91678">
        <ele>1108</ele>
        <time>2021-08-03T09:14:57.287Z</time>
      </trkpt>
      <trkpt lat="47.02618" lon="8.91677">
        <ele>1107</ele>
        <time>2021-08-03T09:14:58.287Z</time>
      </trkpt>
      <trkpt lat="47.02618" lon="8.91677">
        <ele>1107</ele>
        <time>2021-08-03T09:14:59.287Z</time>
      </trkpt>
      <trkpt lat="47.02617" lon="8.91677">
        <ele>1107</ele>
        <time>2021-08-03T09:15:00.288Z</time>
      </trkpt>
      <trkpt lat="47.02617" lon="8.91677">
        <ele>1107</ele>
        <time>2021-08-03T09:15:01.288Z</time>
      </trkpt>
      <trkpt lat="47.02617" lon="8.91677">
        <ele>1108</ele>
        <time>2021-08-03T09:15:02.287Z</time>
      </trkpt>
      <trkpt lat="47.02617" lon="8.91677">
        <ele>1108</ele>
        <time>2021-08-03T09:15:03.288Z</time>
      </trkpt>
      <trkpt lat="47.02615" lon="8.91676">
        <ele>1108</ele>
        <time>2021-08-03T09:15:04.289Z</time>
      </trkpt>
      <trkpt lat="47.02612" lon="8.91674">
        <ele>1109</ele>
        <time>2021-08-03T09:15:05.288Z</time>
      </trkpt>
      <trkpt lat="47.02611" lon="8.91673">
        <ele>1109</ele>
        <time>2021-08-03T09:15:06.288Z</time>
      </trkpt>
      <trkpt lat="47.0261" lon="8.91672">
        <ele>1109</ele>
        <time>2021-08-03T09:15:07.288Z</time>
      </trkpt>
      <trkpt lat="47.02609" lon="8.91671">
        <ele>1109</ele>
        <time>2021-08-03T09:15:08.289Z</time>
      </trkpt>
      <trkpt lat="47.02609" lon="8.9167">
        <ele>1109</ele>
        <time>2021-08-03T09:15:09.288Z</time>
      </trkpt>
      <trkpt lat="47.02609" lon="8.9167">
        <ele>1109</ele>
        <time>2021-08-03T09:15:10.288Z</time>
      </trkpt>
      <trkpt lat="47.02608" lon="8.91668">
        <ele>1109</ele>
        <time>2021-08-03T09:15:11.289Z</time>
      </trkpt>
      <trkpt lat="47.02608" lon="8.91668">
        <ele>1109</ele>
        <time>2021-08-03T09:15:12.288Z</time>
      </trkpt>
      <trkpt lat="47.02608" lon="8.91667">
        <ele>1109</ele>
        <time>2021-08-03T09:15:13.289Z</time>
      </trkpt>
      <trkpt lat="47.02608" lon="8.91666">
        <ele>1109</ele>
        <time>2021-08-03T09:15:14.289Z</time>
      </trkpt>
      <trkpt lat="47.02607" lon="8.91665">
        <ele>1110</ele>
        <time>2021-08-03T09:15:15.288Z</time>
      </trkpt>
      <trkpt lat="47.02606" lon="8.91663">
        <ele>1110</ele>
        <time>2021-08-03T09:15:16.289Z</time>
      </trkpt>
      <trkpt lat="47.02606" lon="8.91662">
        <ele>1110</ele>
        <time>2021-08-03T09:15:17.289Z</time>
      </trkpt>
      <trkpt lat="47.02605" lon="8.91661">
        <ele>1111</ele>
        <time>2021-08-03T09:15:18.289Z</time>
      </trkpt>
      <trkpt lat="47.02607" lon="8.9166">
        <ele>1111</ele>
        <time>2021-08-03T09:15:19.289Z</time>
      </trkpt>
      <trkpt lat="47.02607" lon="8.91659">
        <ele>1111</ele>
        <time>2021-08-03T09:15:20.288Z</time>
      </trkpt>
      <trkpt lat="47.02607" lon="8.91659">
        <ele>1111</ele>
        <time>2021-08-03T09:15:21.288Z</time>
      </trkpt>
      <trkpt lat="47.02606" lon="8.91658">
        <ele>1111</ele>
        <time>2021-08-03T09:15:22.288Z</time>
      </trkpt>
      <trkpt lat="47.02605" lon="8.91658">
        <ele>1111</ele>
        <time>2021-08-03T09:15:23.288Z</time>
      </trkpt>
      <trkpt lat="47.02603" lon="8.91657">
        <ele>1111</ele>
        <time>2021-08-03T09:15:24.289Z</time>
      </trkpt>
      <trkpt lat="47.02602" lon="8.91657">
        <ele>1111</ele>
        <time>2021-08-03T09:15:25.289Z</time>
      </trkpt>
      <trkpt lat="47.02603" lon="8.91658">
        <ele>1111</ele>
        <time>2021-08-03T09:15:26.289Z</time>
      </trkpt>
      <trkpt lat="47.02605" lon="8.91659">
        <ele>1111</ele>
        <time>2021-08-03T09:15:27.289Z</time>
      </trkpt>
      <trkpt lat="47.02607" lon="8.91661">
        <ele>1111</ele>
        <time>2021-08-03T09:15:28.289Z</time>
      </trkpt>
      <trkpt lat="47.02608" lon="8.91661">
        <ele>1111</ele>
        <time>2021-08-03T09:15:29.289Z</time>
      </trkpt>
      <trkpt lat="47.02609" lon="8.9166">
        <ele>1111</ele>
        <time>2021-08-03T09:15:30.289Z</time>
      </trkpt>
      <trkpt lat="47.02611" lon="8.9166">
        <ele>1111</ele>
        <time>2021-08-03T09:15:31.289Z</time>
      </trkpt>
      <trkpt lat="47.02611" lon="8.91658">
        <ele>1111</ele>
        <time>2021-08-03T09:15:32.289Z</time>
      </trkpt>
      <trkpt lat="47.02611" lon="8.91658">
        <ele>1111</ele>
        <time>2021-08-03T09:15:33.289Z</time>
      </trkpt>
      <trkpt lat="47.0261" lon="8.91658">
        <ele>1112</ele>
        <time>2021-08-03T09:15:34.289Z</time>
      </trkpt>
      <trkpt lat="47.02609" lon="8.91658">
        <ele>1112</ele>
        <time>2021-08-03T09:15:35.288Z</time>
      </trkpt>
      <trkpt lat="47.02608" lon="8.91657">
        <ele>1112</ele>
        <time>2021-08-03T09:15:36.289Z</time>
      </trkpt>
      <trkpt lat="47.02607" lon="8.91656">
        <ele>1112</ele>
        <time>2021-08-03T09:15:37.289Z</time>
      </trkpt>
      <trkpt lat="47.02605" lon="8.91654">
        <ele>1112</ele>
        <time>2021-08-03T09:15:38.289Z</time>
      </trkpt>
      <trkpt lat="47.02603" lon="8.91653">
        <ele>1112</ele>
        <time>2021-08-03T09:15:39.288Z</time>
      </trkpt>
      <trkpt lat="47.02601" lon="8.91652">
        <ele>1112</ele>
        <time>2021-08-03T09:15:40.288Z</time>
      </trkpt>
      <trkpt lat="47.02599" lon="8.91652">
        <ele>1112</ele>
        <time>2021-08-03T09:15:41.288Z</time>
      </trkpt>
      <trkpt lat="47.02596" lon="8.91652">
        <ele>1111</ele>
        <time>2021-08-03T09:15:42.288Z</time>
      </trkpt>
      <trkpt lat="47.02594" lon="8.91652">
        <ele>1111</ele>
        <time>2021-08-03T09:15:43.289Z</time>
      </trkpt>
      <trkpt lat="47.02592" lon="8.9165">
        <ele>1111</ele>
        <time>2021-08-03T09:15:44.288Z</time>
      </trkpt>
      <trkpt lat="47.02591" lon="8.91647">
        <ele>1111</ele>
        <time>2021-08-03T09:15:45.288Z</time>
      </trkpt>
      <trkpt lat="47.0259" lon="8.91644">
        <ele>1111</ele>
        <time>2021-08-03T09:15:46.289Z</time>
      </trkpt>
      <trkpt lat="47.0259" lon="8.91641">
        <ele>1111</ele>
        <time>2021-08-03T09:15:47.289Z</time>
      </trkpt>
      <trkpt lat="47.0259" lon="8.91639">
        <ele>1111</ele>
        <time>2021-08-03T09:15:48.289Z</time>
      </trkpt>
      <trkpt lat="47.02591" lon="8.91638">
        <ele>1112</ele>
        <time>2021-08-03T09:15:49.289Z</time>
      </trkpt>
      <trkpt lat="47.02592" lon="8.91637">
        <ele>1112</ele>
        <time>2021-08-03T09:15:50.289Z</time>
      </trkpt>
      <trkpt lat="47.02591" lon="8.91636">
        <ele>1112</ele>
        <time>2021-08-03T09:15:51.289Z</time>
      </trkpt>
      <trkpt lat="47.02591" lon="8.91636">
        <ele>1111</ele>
        <time>2021-08-03T09:15:52.288Z</time>
      </trkpt>
      <trkpt lat="47.02591" lon="8.91637">
        <ele>1111</ele>
        <time>2021-08-03T09:15:53.289Z</time>
      </trkpt>
      <trkpt lat="47.02591" lon="8.91637">
        <ele>1111</ele>
        <time>2021-08-03T09:15:54.289Z</time>
      </trkpt>
      <trkpt lat="47.02591" lon="8.91636">
        <ele>1111</ele>
        <time>2021-08-03T09:15:55.289Z</time>
      </trkpt>
      <trkpt lat="47.02591" lon="8.91635">
        <ele>1111</ele>
        <time>2021-08-03T09:15:56.289Z</time>
      </trkpt>
      <trkpt lat="47.0259" lon="8.91633">
        <ele>1111</ele>
        <time>2021-08-03T09:15:57.288Z</time>
      </trkpt>
      <trkpt lat="47.02589" lon="8.91631">
        <ele>1112</ele>
        <time>2021-08-03T09:15:58.289Z</time>
      </trkpt>
      <trkpt lat="47.02588" lon="8.91631">
        <ele>1112</ele>
        <time>2021-08-03T09:15:59.288Z</time>
      </trkpt>
      <trkpt lat="47.02588" lon="8.91631">
        <ele>1112</ele>
        <time>2021-08-03T09:16:00.289Z</time>
      </trkpt>
      <trkpt lat="47.02588" lon="8.91631">
        <ele>1112</ele>
        <time>2021-08-03T09:16:01.288Z</time>
      </trkpt>
      <trkpt lat="47.02589" lon="8.91632">
        <ele>1113</ele>
        <time>2021-08-03T09:16:02.289Z</time>
      </trkpt>
      <trkpt lat="47.02588" lon="8.91631">
        <ele>1113</ele>
        <time>2021-08-03T09:16:03.289Z</time>
      </trkpt>
      <trkpt lat="47.02588" lon="8.9163">
        <ele>1113</ele>
        <time>2021-08-03T09:16:04.289Z</time>
      </trkpt>
      <trkpt lat="47.02586" lon="8.91629">
        <ele>1113</ele>
        <time>2021-08-03T09:16:05.288Z</time>
      </trkpt>
      <trkpt lat="47.02583" lon="8.91628">
        <ele>1113</ele>
        <time>2021-08-03T09:16:06.288Z</time>
      </trkpt>
      <trkpt lat="47.02581" lon="8.91628">
        <ele>1112</ele>
        <time>2021-08-03T09:16:07.289Z</time>
      </trkpt>
      <trkpt lat="47.0258" lon="8.91628">
        <ele>1112</ele>
        <time>2021-08-03T09:16:08.289Z</time>
      </trkpt>
      <trkpt lat="47.02579" lon="8.91628">
        <ele>1112</ele>
        <time>2021-08-03T09:16:09.289Z</time>
      </trkpt>
      <trkpt lat="47.0258" lon="8.91627">
        <ele>1112</ele>
        <time>2021-08-03T09:16:10.289Z</time>
      </trkpt>
      <trkpt lat="47.0258" lon="8.91627">
        <ele>1112</ele>
        <time>2021-08-03T09:16:11.289Z</time>
      </trkpt>
      <trkpt lat="47.0258" lon="8.91626">
        <ele>1112</ele>
        <time>2021-08-03T09:16:12.289Z</time>
      </trkpt>
      <trkpt lat="47.02579" lon="8.91625">
        <ele>1112</ele>
        <time>2021-08-03T09:16:13.289Z</time>
      </trkpt>
      <trkpt lat="47.0258" lon="8.91625">
        <ele>1112</ele>
        <time>2021-08-03T09:16:14.289Z</time>
      </trkpt>
      <trkpt lat="47.0258" lon="8.91624">
        <ele>1112</ele>
        <time>2021-08-03T09:16:15.288Z</time>
      </trkpt>
      <trkpt lat="47.02578" lon="8.91625">
        <ele>1112</ele>
        <time>2021-08-03T09:16:16.289Z</time>
      </trkpt>
      <trkpt lat="47.02575" lon="8.91626">
        <ele>1112</ele>
        <time>2021-08-03T09:16:17.289Z</time>
      </trkpt>
      <trkpt lat="47.02574" lon="8.91624">
        <ele>1112</ele>
        <time>2021-08-03T09:16:18.288Z</time>
      </trkpt>
      <trkpt lat="47.02574" lon="8.91623">
        <ele>1112</ele>
        <time>2021-08-03T09:16:19.289Z</time>
      </trkpt>
      <trkpt lat="47.02574" lon="8.91621">
        <ele>1112</ele>
        <time>2021-08-03T09:16:20.289Z</time>
      </trkpt>
      <trkpt lat="47.02573" lon="8.91619">
        <ele>1111</ele>
        <time>2021-08-03T09:16:21.288Z</time>
      </trkpt>
      <trkpt lat="47.02573" lon="8.91618">
        <ele>1111</ele>
        <time>2021-08-03T09:16:22.288Z</time>
      </trkpt>
      <trkpt lat="47.02574" lon="8.91616">
        <ele>1111</ele>
        <time>2021-08-03T09:16:23.289Z</time>
      </trkpt>
      <trkpt lat="47.02575" lon="8.91614">
        <ele>1111</ele>
        <time>2021-08-03T09:16:24.289Z</time>
      </trkpt>
      <trkpt lat="47.02574" lon="8.91614">
        <ele>1111</ele>
        <time>2021-08-03T09:16:25.289Z</time>
      </trkpt>
      <trkpt lat="47.02573" lon="8.91616">
        <ele>1112</ele>
        <time>2021-08-03T09:16:26.289Z</time>
      </trkpt>
      <trkpt lat="47.02573" lon="8.91615">
        <ele>1112</ele>
        <time>2021-08-03T09:16:27.288Z</time>
      </trkpt>
      <trkpt lat="47.02573" lon="8.91616">
        <ele>1112</ele>
        <time>2021-08-03T09:16:28.289Z</time>
      </trkpt>
      <trkpt lat="47.02572" lon="8.91615">
        <ele>1112</ele>
        <time>2021-08-03T09:16:29.289Z</time>
      </trkpt>
      <trkpt lat="47.02572" lon="8.91613">
        <ele>1112</ele>
        <time>2021-08-03T09:16:30.289Z</time>
      </trkpt>
      <trkpt lat="47.02572" lon="8.91613">
        <ele>1112</ele>
        <time>2021-08-03T09:16:31.289Z</time>
      </trkpt>
      <trkpt lat="47.02571" lon="8.91612">
        <ele>1112</ele>
        <time>2021-08-03T09:16:32.289Z</time>
      </trkpt>
      <trkpt lat="47.02571" lon="8.91612">
        <ele>1112</ele>
        <time>2021-08-03T09:16:33.289Z</time>
      </trkpt>
      <trkpt lat="47.0257" lon="8.91611">
        <ele>1112</ele>
        <time>2021-08-03T09:16:34.289Z</time>
      </trkpt>
      <trkpt lat="47.0257" lon="8.91611">
        <ele>1112</ele>
        <time>2021-08-03T09:16:35.288Z</time>
      </trkpt>
      <trkpt lat="47.02571" lon="8.91609">
        <ele>1112</ele>
        <time>2021-08-03T09:16:36.289Z</time>
      </trkpt>
      <trkpt lat="47.02571" lon="8.91607">
        <ele>1113</ele>
        <time>2021-08-03T09:16:37.288Z</time>
      </trkpt>
      <trkpt lat="47.02572" lon="8.91605">
        <ele>1113</ele>
        <time>2021-08-03T09:16:38.288Z</time>
      </trkpt>
      <trkpt lat="47.02571" lon="8.91603">
        <ele>1113</ele>
        <time>2021-08-03T09:16:39.288Z</time>
      </trkpt>
      <trkpt lat="47.0257" lon="8.91601">
        <ele>1113</ele>
        <time>2021-08-03T09:16:40.289Z</time>
      </trkpt>
      <trkpt lat="47.02568" lon="8.91599">
        <ele>1113</ele>
        <time>2021-08-03T09:16:41.289Z</time>
      </trkpt>
      <trkpt lat="47.02568" lon="8.91597">
        <ele>1113</ele>
        <time>2021-08-03T09:16:42.289Z</time>
      </trkpt>
      <trkpt lat="47.02567" lon="8.91597">
        <ele>1113</ele>
        <time>2021-08-03T09:16:43.289Z</time>
      </trkpt>
      <trkpt lat="47.02567" lon="8.91598">
        <ele>1113</ele>
        <time>2021-08-03T09:16:44.289Z</time>
      </trkpt>
      <trkpt lat="47.02566" lon="8.91599">
        <ele>1113</ele>
        <time>2021-08-03T09:16:45.289Z</time>
      </trkpt>
      <trkpt lat="47.02566" lon="8.91599">
        <ele>1113</ele>
        <time>2021-08-03T09:16:46.289Z</time>
      </trkpt>
      <trkpt lat="47.02567" lon="8.91599">
        <ele>1113</ele>
        <time>2021-08-03T09:16:47.288Z</time>
      </trkpt>
      <trkpt lat="47.02567" lon="8.91599">
        <ele>1112</ele>
        <time>2021-08-03T09:16:48.288Z</time>
      </trkpt>
      <trkpt lat="47.02567" lon="8.91599">
        <ele>1112</ele>
        <time>2021-08-03T09:16:49.289Z</time>
      </trkpt>
      <trkpt lat="47.02566" lon="8.91599">
        <ele>1112</ele>
        <time>2021-08-03T09:16:50.288Z</time>
      </trkpt>
      <trkpt lat="47.02566" lon="8.91598">
        <ele>1112</ele>
        <time>2021-08-03T09:16:51.289Z</time>
      </trkpt>
      <trkpt lat="47.02566" lon="8.91597">
        <ele>1111</ele>
        <time>2021-08-03T09:16:52.289Z</time>
      </trkpt>
      <trkpt lat="47.02565" lon="8.91596">
        <ele>1111</ele>
        <time>2021-08-03T09:16:53.289Z</time>
      </trkpt>
      <trkpt lat="47.02564" lon="8.91596">
        <ele>1111</ele>
        <time>2021-08-03T09:16:54.288Z</time>
      </trkpt>
      <trkpt lat="47.02564" lon="8.91596">
        <ele>1111</ele>
        <time>2021-08-03T09:16:55.289Z</time>
      </trkpt>
      <trkpt lat="47.02559" lon="8.91593">
        <ele>1113</ele>
        <time>2021-08-03T09:16:56.290Z</time>
      </trkpt>
      <trkpt lat="47.02559" lon="8.91593">
        <ele>1113</ele>
        <time>2021-08-03T09:16:57.289Z</time>
      </trkpt>
      <trkpt lat="47.02558" lon="8.91593">
        <ele>1113</ele>
        <time>2021-08-03T09:16:58.289Z</time>
      </trkpt>
      <trkpt lat="47.02558" lon="8.91591">
        <ele>1112</ele>
        <time>2021-08-03T09:16:59.290Z</time>
      </trkpt>
      <trkpt lat="47.02558" lon="8.9159">
        <ele>1112</ele>
        <time>2021-08-03T09:17:00.290Z</time>
      </trkpt>
      <trkpt lat="47.02559" lon="8.91589">
        <ele>1112</ele>
        <time>2021-08-03T09:17:01.290Z</time>
      </trkpt>
      <trkpt lat="47.0256" lon="8.91591">
        <ele>1118</ele>
        <time>2021-08-03T09:17:02.291Z</time>
      </trkpt>
      <trkpt lat="47.02559" lon="8.91589">
        <ele>1119</ele>
        <time>2021-08-03T09:17:03.291Z</time>
      </trkpt>
      <trkpt lat="47.02558" lon="8.91587">
        <ele>1120</ele>
        <time>2021-08-03T09:17:04.291Z</time>
      </trkpt>
      <trkpt lat="47.02557" lon="8.91586">
        <ele>1123</ele>
        <time>2021-08-03T09:17:05.291Z</time>
      </trkpt>
      <trkpt lat="47.02557" lon="8.91586">
        <ele>1123</ele>
        <time>2021-08-03T09:17:06.291Z</time>
      </trkpt>
      <trkpt lat="47.02558" lon="8.91586">
        <ele>1124</ele>
        <time>2021-08-03T09:17:07.291Z</time>
      </trkpt>
      <trkpt lat="47.02557" lon="8.91587">
        <ele>1125</ele>
        <time>2021-08-03T09:17:08.292Z</time>
      </trkpt>
      <trkpt lat="47.02557" lon="8.91587">
        <ele>1125</ele>
        <time>2021-08-03T09:17:09.292Z</time>
      </trkpt>
      <trkpt lat="47.02557" lon="8.91589">
        <ele>1126</ele>
        <time>2021-08-03T09:17:10.291Z</time>
      </trkpt>
      <trkpt lat="47.02558" lon="8.91588">
        <ele>1126</ele>
        <time>2021-08-03T09:17:11.291Z</time>
      </trkpt>
      <trkpt lat="47.02558" lon="8.91588">
        <ele>1127</ele>
        <time>2021-08-03T09:17:12.292Z</time>
      </trkpt>
      <trkpt lat="47.02558" lon="8.91589">
        <ele>1127</ele>
        <time>2021-08-03T09:17:13.292Z</time>
      </trkpt>
      <trkpt lat="47.02558" lon="8.91588">
        <ele>1127</ele>
        <time>2021-08-03T09:17:14.292Z</time>
      </trkpt>
      <trkpt lat="47.02558" lon="8.91588">
        <ele>1127</ele>
        <time>2021-08-03T09:17:15.292Z</time>
      </trkpt>
      <trkpt lat="47.02557" lon="8.91588">
        <ele>1126</ele>
        <time>2021-08-03T09:17:16.293Z</time>
      </trkpt>
      <trkpt lat="47.02557" lon="8.91588">
        <ele>1126</ele>
        <time>2021-08-03T09:17:17.292Z</time>
      </trkpt>
      <trkpt lat="47.02556" lon="8.91584">
        <ele>1123</ele>
        <time>2021-08-03T09:17:18.292Z</time>
      </trkpt>
      <trkpt lat="47.02556" lon="8.91584">
        <ele>1123</ele>
        <time>2021-08-03T09:17:19.292Z</time>
      </trkpt>
      <trkpt lat="47.02555" lon="8.91584">
        <ele>1123</ele>
        <time>2021-08-03T09:17:20.293Z</time>
      </trkpt>
      <trkpt lat="47.02555" lon="8.91585">
        <ele>1123</ele>
        <time>2021-08-03T09:17:21.293Z</time>
      </trkpt>
      <trkpt lat="47.02555" lon="8.91585">
        <ele>1123</ele>
        <time>2021-08-03T09:17:22.292Z</time>
      </trkpt>
      <trkpt lat="47.02555" lon="8.91586">
        <ele>1123</ele>
        <time>2021-08-03T09:17:23.292Z</time>
      </trkpt>
      <trkpt lat="47.02555" lon="8.9159">
        <ele>1123</ele>
        <time>2021-08-03T09:17:24.292Z</time>
      </trkpt>
      <trkpt lat="47.02556" lon="8.9159">
        <ele>1123</ele>
        <time>2021-08-03T09:17:25.292Z</time>
      </trkpt>
      <trkpt lat="47.02555" lon="8.91591">
        <ele>1123</ele>
        <time>2021-08-03T09:17:26.293Z</time>
      </trkpt>
      <trkpt lat="47.02555" lon="8.91591">
        <ele>1122</ele>
        <time>2021-08-03T09:17:27.292Z</time>
      </trkpt>
      <trkpt lat="47.02555" lon="8.91591">
        <ele>1122</ele>
        <time>2021-08-03T09:17:28.293Z</time>
      </trkpt>
      <trkpt lat="47.02555" lon="8.9159">
        <ele>1121</ele>
        <time>2021-08-03T09:17:29.293Z</time>
      </trkpt>
      <trkpt lat="47.02554" lon="8.9159">
        <ele>1121</ele>
        <time>2021-08-03T09:17:30.293Z</time>
      </trkpt>
      <trkpt lat="47.02558" lon="8.91588">
        <ele>1121</ele>
        <time>2021-08-03T09:17:31.293Z</time>
      </trkpt>
      <trkpt lat="47.02558" lon="8.91588">
        <ele>1121</ele>
        <time>2021-08-03T09:17:32.294Z</time>
      </trkpt>
      <trkpt lat="47.02558" lon="8.91588">
        <ele>1121</ele>
        <time>2021-08-03T09:17:33.293Z</time>
      </trkpt>
      <trkpt lat="47.02558" lon="8.91588">
        <ele>1121</ele>
        <time>2021-08-03T09:17:34.295Z</time>
      </trkpt>
      <trkpt lat="47.02557" lon="8.91587">
        <ele>1121</ele>
        <time>2021-08-03T09:17:35.294Z</time>
      </trkpt>
      <trkpt lat="47.02557" lon="8.91586">
        <ele>1121</ele>
        <time>2021-08-03T09:17:36.294Z</time>
      </trkpt>
      <trkpt lat="47.02556" lon="8.91586">
        <ele>1121</ele>
        <time>2021-08-03T09:17:37.296Z</time>
      </trkpt>
      <trkpt lat="47.02555" lon="8.91586">
        <ele>1121</ele>
        <time>2021-08-03T09:17:38.295Z</time>
      </trkpt>
      <trkpt lat="47.02554" lon="8.91586">
        <ele>1121</ele>
        <time>2021-08-03T09:17:39.295Z</time>
      </trkpt>
      <trkpt lat="47.02554" lon="8.91587">
        <ele>1121</ele>
        <time>2021-08-03T09:17:40.296Z</time>
      </trkpt>
      <trkpt lat="47.02553" lon="8.91587">
        <ele>1121</ele>
        <time>2021-08-03T09:17:41.295Z</time>
      </trkpt>
      <trkpt lat="47.02553" lon="8.91587">
        <ele>1121</ele>
        <time>2021-08-03T09:17:42.295Z</time>
      </trkpt>
      <trkpt lat="47.02553" lon="8.91586">
        <ele>1120</ele>
        <time>2021-08-03T09:17:43.295Z</time>
      </trkpt>
      <trkpt lat="47.02553" lon="8.91586">
        <ele>1120</ele>
        <time>2021-08-03T09:17:44.295Z</time>
      </trkpt>
      <trkpt lat="47.02553" lon="8.91585">
        <ele>1120</ele>
        <time>2021-08-03T09:17:45.295Z</time>
      </trkpt>
      <trkpt lat="47.02553" lon="8.91585">
        <ele>1121</ele>
        <time>2021-08-03T09:17:46.296Z</time>
      </trkpt>
      <trkpt lat="47.02553" lon="8.91583">
        <ele>1121</ele>
        <time>2021-08-03T09:17:47.296Z</time>
      </trkpt>
      <trkpt lat="47.02552" lon="8.91582">
        <ele>1121</ele>
        <time>2021-08-03T09:17:48.296Z</time>
      </trkpt>
      <trkpt lat="47.02552" lon="8.91582">
        <ele>1122</ele>
        <time>2021-08-03T09:17:49.296Z</time>
      </trkpt>
      <trkpt lat="47.02551" lon="8.91581">
        <ele>1122</ele>
        <time>2021-08-03T09:17:50.296Z</time>
      </trkpt>
      <trkpt lat="47.0255" lon="8.91581">
        <ele>1122</ele>
        <time>2021-08-03T09:17:51.296Z</time>
      </trkpt>
      <trkpt lat="47.02549" lon="8.9158">
        <ele>1123</ele>
        <time>2021-08-03T09:17:52.296Z</time>
      </trkpt>
      <trkpt lat="47.02549" lon="8.9158">
        <ele>1123</ele>
        <time>2021-08-03T09:17:53.296Z</time>
      </trkpt>
      <trkpt lat="47.02549" lon="8.91579">
        <ele>1123</ele>
        <time>2021-08-03T09:17:54.296Z</time>
      </trkpt>
      <trkpt lat="47.02549" lon="8.91579">
        <ele>1122</ele>
        <time>2021-08-03T09:17:55.295Z</time>
      </trkpt>
      <trkpt lat="47.02549" lon="8.91579">
        <ele>1121</ele>
        <time>2021-08-03T09:17:56.296Z</time>
      </trkpt>
      <trkpt lat="47.02548" lon="8.91579">
        <ele>1120</ele>
        <time>2021-08-03T09:17:57.296Z</time>
      </trkpt>
      <trkpt lat="47.02547" lon="8.91579">
        <ele>1120</ele>
        <time>2021-08-03T09:17:58.296Z</time>
      </trkpt>
      <trkpt lat="47.02546" lon="8.9158">
        <ele>1119</ele>
        <time>2021-08-03T09:17:59.295Z</time>
      </trkpt>
      <trkpt lat="47.02545" lon="8.9158">
        <ele>1118</ele>
        <time>2021-08-03T09:18:00.295Z</time>
      </trkpt>
      <trkpt lat="47.02544" lon="8.9158">
        <ele>1118</ele>
        <time>2021-08-03T09:18:01.296Z</time>
      </trkpt>
      <trkpt lat="47.02543" lon="8.91581">
        <ele>1118</ele>
        <time>2021-08-03T09:18:02.296Z</time>
      </trkpt>
      <trkpt lat="47.02541" lon="8.9158">
        <ele>1117</ele>
        <time>2021-08-03T09:18:03.296Z</time>
      </trkpt>
      <trkpt lat="47.0254" lon="8.91579">
        <ele>1117</ele>
        <time>2021-08-03T09:18:04.295Z</time>
      </trkpt>
      <trkpt lat="47.02539" lon="8.91577">
        <ele>1116</ele>
        <time>2021-08-03T09:18:05.296Z</time>
      </trkpt>
      <trkpt lat="47.02537" lon="8.91577">
        <ele>1116</ele>
        <time>2021-08-03T09:18:06.295Z</time>
      </trkpt>
      <trkpt lat="47.02536" lon="8.91577">
        <ele>1116</ele>
        <time>2021-08-03T09:18:07.296Z</time>
      </trkpt>
      <trkpt lat="47.02535" lon="8.91576">
        <ele>1116</ele>
        <time>2021-08-03T09:18:08.295Z</time>
      </trkpt>
      <trkpt lat="47.02534" lon="8.91575">
        <ele>1115</ele>
        <time>2021-08-03T09:18:09.296Z</time>
      </trkpt>
      <trkpt lat="47.02532" lon="8.91574">
        <ele>1115</ele>
        <time>2021-08-03T09:18:10.295Z</time>
      </trkpt>
      <trkpt lat="47.02531" lon="8.91574">
        <ele>1114</ele>
        <time>2021-08-03T09:18:11.295Z</time>
      </trkpt>
      <trkpt lat="47.02531" lon="8.91574">
        <ele>1114</ele>
        <time>2021-08-03T09:18:12.295Z</time>
      </trkpt>
      <trkpt lat="47.0253" lon="8.91573">
        <ele>1113</ele>
        <time>2021-08-03T09:18:13.296Z</time>
      </trkpt>
      <trkpt lat="47.02529" lon="8.91573">
        <ele>1113</ele>
        <time>2021-08-03T09:18:14.296Z</time>
      </trkpt>
      <trkpt lat="47.02528" lon="8.91573">
        <ele>1112</ele>
        <time>2021-08-03T09:18:15.296Z</time>
      </trkpt>
      <trkpt lat="47.02527" lon="8.91572">
        <ele>1112</ele>
        <time>2021-08-03T09:18:16.296Z</time>
      </trkpt>
      <trkpt lat="47.02527" lon="8.91571">
        <ele>1111</ele>
        <time>2021-08-03T09:18:17.296Z</time>
      </trkpt>
      <trkpt lat="47.02527" lon="8.91571">
        <ele>1111</ele>
        <time>2021-08-03T09:18:18.296Z</time>
      </trkpt>
      <trkpt lat="47.02526" lon="8.91571">
        <ele>1111</ele>
        <time>2021-08-03T09:18:19.296Z</time>
      </trkpt>
      <trkpt lat="47.02525" lon="8.91573">
        <ele>1111</ele>
        <time>2021-08-03T09:18:20.295Z</time>
      </trkpt>
      <trkpt lat="47.02524" lon="8.91574">
        <ele>1111</ele>
        <time>2021-08-03T09:18:21.296Z</time>
      </trkpt>
      <trkpt lat="47.02523" lon="8.91574">
        <ele>1112</ele>
        <time>2021-08-03T09:18:22.296Z</time>
      </trkpt>
      <trkpt lat="47.02522" lon="8.91574">
        <ele>1112</ele>
        <time>2021-08-03T09:18:23.295Z</time>
      </trkpt>
      <trkpt lat="47.02521" lon="8.91575">
        <ele>1112</ele>
        <time>2021-08-03T09:18:24.296Z</time>
      </trkpt>
      <trkpt lat="47.0252" lon="8.91576">
        <ele>1112</ele>
        <time>2021-08-03T09:18:25.296Z</time>
      </trkpt>
      <trkpt lat="47.02519" lon="8.91576">
        <ele>1111</ele>
        <time>2021-08-03T09:18:26.296Z</time>
      </trkpt>
      <trkpt lat="47.02518" lon="8.91576">
        <ele>1111</ele>
        <time>2021-08-03T09:18:27.296Z</time>
      </trkpt>
      <trkpt lat="47.02518" lon="8.91576">
        <ele>1111</ele>
        <time>2021-08-03T09:18:28.296Z</time>
      </trkpt>
      <trkpt lat="47.02517" lon="8.91576">
        <ele>1111</ele>
        <time>2021-08-03T09:18:29.296Z</time>
      </trkpt>
      <trkpt lat="47.02517" lon="8.91576">
        <ele>1111</ele>
        <time>2021-08-03T09:18:30.295Z</time>
      </trkpt>
      <trkpt lat="47.02517" lon="8.91576">
        <ele>1111</ele>
        <time>2021-08-03T09:18:31.296Z</time>
      </trkpt>
      <trkpt lat="47.02515" lon="8.91574">
        <ele>1111</ele>
        <time>2021-08-03T09:18:32.296Z</time>
      </trkpt>
      <trkpt lat="47.02515" lon="8.91573">
        <ele>1111</ele>
        <time>2021-08-03T09:18:33.297Z</time>
      </trkpt>
      <trkpt lat="47.02516" lon="8.91572">
        <ele>1111</ele>
        <time>2021-08-03T09:18:34.297Z</time>
      </trkpt>
      <trkpt lat="47.02516" lon="8.91572">
        <ele>1111</ele>
        <time>2021-08-03T09:18:35.296Z</time>
      </trkpt>
      <trkpt lat="47.02516" lon="8.91572">
        <ele>1111</ele>
        <time>2021-08-03T09:18:36.296Z</time>
      </trkpt>
      <trkpt lat="47.02516" lon="8.91573">
        <ele>1111</ele>
        <time>2021-08-03T09:18:37.296Z</time>
      </trkpt>
      <trkpt lat="47.02517" lon="8.91572">
        <ele>1112</ele>
        <time>2021-08-03T09:18:38.297Z</time>
      </trkpt>
      <trkpt lat="47.02516" lon="8.91572">
        <ele>1112</ele>
        <time>2021-08-03T09:18:39.297Z</time>
      </trkpt>
      <trkpt lat="47.02515" lon="8.91571">
        <ele>1112</ele>
        <time>2021-08-03T09:18:40.297Z</time>
      </trkpt>
      <trkpt lat="47.02515" lon="8.91571">
        <ele>1112</ele>
        <time>2021-08-03T09:18:41.297Z</time>
      </trkpt>
      <trkpt lat="47.02514" lon="8.91571">
        <ele>1112</ele>
        <time>2021-08-03T09:18:42.297Z</time>
      </trkpt>
      <trkpt lat="47.02514" lon="8.91571">
        <ele>1112</ele>
        <time>2021-08-03T09:18:43.298Z</time>
      </trkpt>
      <trkpt lat="47.02513" lon="8.91571">
        <ele>1112</ele>
        <time>2021-08-03T09:18:44.297Z</time>
      </trkpt>
      <trkpt lat="47.02513" lon="8.91572">
        <ele>1113</ele>
        <time>2021-08-03T09:18:45.297Z</time>
      </trkpt>
      <trkpt lat="47.02512" lon="8.91572">
        <ele>1113</ele>
        <time>2021-08-03T09:18:46.298Z</time>
      </trkpt>
      <trkpt lat="47.0251" lon="8.91572">
        <ele>1113</ele>
        <time>2021-08-03T09:18:47.298Z</time>
      </trkpt>
      <trkpt lat="47.02509" lon="8.91572">
        <ele>1113</ele>
        <time>2021-08-03T09:18:48.298Z</time>
      </trkpt>
      <trkpt lat="47.02504" lon="8.91571">
        <ele>1114</ele>
        <time>2021-08-03T09:18:49.299Z</time>
      </trkpt>
      <trkpt lat="47.02504" lon="8.9157">
        <ele>1115</ele>
        <time>2021-08-03T09:18:50.299Z</time>
      </trkpt>
      <trkpt lat="47.02504" lon="8.91568">
        <ele>1115</ele>
        <time>2021-08-03T09:18:51.299Z</time>
      </trkpt>
      <trkpt lat="47.02504" lon="8.91567">
        <ele>1115</ele>
        <time>2021-08-03T09:18:52.299Z</time>
      </trkpt>
      <trkpt lat="47.02503" lon="8.91567">
        <ele>1116</ele>
        <time>2021-08-03T09:18:53.299Z</time>
      </trkpt>
      <trkpt lat="47.02502" lon="8.91567">
        <ele>1116</ele>
        <time>2021-08-03T09:18:54.299Z</time>
      </trkpt>
      <trkpt lat="47.02502" lon="8.91566">
        <ele>1117</ele>
        <time>2021-08-03T09:18:55.299Z</time>
      </trkpt>
      <trkpt lat="47.02501" lon="8.91565">
        <ele>1117</ele>
        <time>2021-08-03T09:18:56.298Z</time>
      </trkpt>
      <trkpt lat="47.02501" lon="8.91565">
        <ele>1117</ele>
        <time>2021-08-03T09:18:57.299Z</time>
      </trkpt>
      <trkpt lat="47.02501" lon="8.91564">
        <ele>1117</ele>
        <time>2021-08-03T09:18:58.299Z</time>
      </trkpt>
      <trkpt lat="47.025" lon="8.91563">
        <ele>1117</ele>
        <time>2021-08-03T09:18:59.299Z</time>
      </trkpt>
      <trkpt lat="47.025" lon="8.91563">
        <ele>1117</ele>
        <time>2021-08-03T09:19:00.298Z</time>
      </trkpt>
      <trkpt lat="47.025" lon="8.91562">
        <ele>1117</ele>
        <time>2021-08-03T09:19:01.299Z</time>
      </trkpt>
      <trkpt lat="47.025" lon="8.91561">
        <ele>1117</ele>
        <time>2021-08-03T09:19:02.298Z</time>
      </trkpt>
      <trkpt lat="47.02499" lon="8.9156">
        <ele>1117</ele>
        <time>2021-08-03T09:19:03.298Z</time>
      </trkpt>
      <trkpt lat="47.02498" lon="8.9156">
        <ele>1116</ele>
        <time>2021-08-03T09:19:04.299Z</time>
      </trkpt>
      <trkpt lat="47.02498" lon="8.91558">
        <ele>1116</ele>
        <time>2021-08-03T09:19:05.299Z</time>
      </trkpt>
      <trkpt lat="47.02497" lon="8.91557">
        <ele>1115</ele>
        <time>2021-08-03T09:19:06.299Z</time>
      </trkpt>
      <trkpt lat="47.02497" lon="8.91556">
        <ele>1115</ele>
        <time>2021-08-03T09:19:07.299Z</time>
      </trkpt>
      <trkpt lat="47.02496" lon="8.91555">
        <ele>1114</ele>
        <time>2021-08-03T09:19:08.298Z</time>
      </trkpt>
      <trkpt lat="47.02495" lon="8.91555">
        <ele>1114</ele>
        <time>2021-08-03T09:19:09.299Z</time>
      </trkpt>
      <trkpt lat="47.02495" lon="8.91554">
        <ele>1114</ele>
        <time>2021-08-03T09:19:10.299Z</time>
      </trkpt>
      <trkpt lat="47.02495" lon="8.91553">
        <ele>1113</ele>
        <time>2021-08-03T09:19:11.299Z</time>
      </trkpt>
      <trkpt lat="47.02495" lon="8.91552">
        <ele>1113</ele>
        <time>2021-08-03T09:19:12.299Z</time>
      </trkpt>
      <trkpt lat="47.02494" lon="8.91551">
        <ele>1113</ele>
        <time>2021-08-03T09:19:13.299Z</time>
      </trkpt>
      <trkpt lat="47.02494" lon="8.9155">
        <ele>1113</ele>
        <time>2021-08-03T09:19:14.299Z</time>
      </trkpt>
      <trkpt lat="47.02494" lon="8.91549">
        <ele>1112</ele>
        <time>2021-08-03T09:19:15.299Z</time>
      </trkpt>
      <trkpt lat="47.02493" lon="8.91548">
        <ele>1112</ele>
        <time>2021-08-03T09:19:16.299Z</time>
      </trkpt>
      <trkpt lat="47.02492" lon="8.91548">
        <ele>1111</ele>
        <time>2021-08-03T09:19:17.299Z</time>
      </trkpt>
      <trkpt lat="47.02491" lon="8.91548">
        <ele>1110</ele>
        <time>2021-08-03T09:19:18.298Z</time>
      </trkpt>
      <trkpt lat="47.02491" lon="8.91548">
        <ele>1110</ele>
        <time>2021-08-03T09:19:19.299Z</time>
      </trkpt>
      <trkpt lat="47.0249" lon="8.91547">
        <ele>1109</ele>
        <time>2021-08-03T09:19:20.299Z</time>
      </trkpt>
      <trkpt lat="47.02489" lon="8.91546">
        <ele>1108</ele>
        <time>2021-08-03T09:19:21.299Z</time>
      </trkpt>
      <trkpt lat="47.02489" lon="8.91546">
        <ele>1108</ele>
        <time>2021-08-03T09:19:22.298Z</time>
      </trkpt>
      <trkpt lat="47.02489" lon="8.91545">
        <ele>1107</ele>
        <time>2021-08-03T09:19:23.298Z</time>
      </trkpt>
      <trkpt lat="47.02488" lon="8.91545">
        <ele>1107</ele>
        <time>2021-08-03T09:19:24.298Z</time>
      </trkpt>
      <trkpt lat="47.02488" lon="8.91544">
        <ele>1106</ele>
        <time>2021-08-03T09:19:25.298Z</time>
      </trkpt>
      <trkpt lat="47.02487" lon="8.91544">
        <ele>1106</ele>
        <time>2021-08-03T09:19:26.298Z</time>
      </trkpt>
      <trkpt lat="47.02487" lon="8.91544">
        <ele>1106</ele>
        <time>2021-08-03T09:19:27.298Z</time>
      </trkpt>
      <trkpt lat="47.02486" lon="8.91543">
        <ele>1105</ele>
        <time>2021-08-03T09:19:28.299Z</time>
      </trkpt>
      <trkpt lat="47.02485" lon="8.91542">
        <ele>1105</ele>
        <time>2021-08-03T09:19:29.298Z</time>
      </trkpt>
      <trkpt lat="47.02484" lon="8.91541">
        <ele>1105</ele>
        <time>2021-08-03T09:19:30.298Z</time>
      </trkpt>
      <trkpt lat="47.02483" lon="8.9154">
        <ele>1104</ele>
        <time>2021-08-03T09:19:31.298Z</time>
      </trkpt>
      <trkpt lat="47.02483" lon="8.9154">
        <ele>1104</ele>
        <time>2021-08-03T09:19:32.298Z</time>
      </trkpt>
      <trkpt lat="47.02483" lon="8.91539">
        <ele>1104</ele>
        <time>2021-08-03T09:19:33.298Z</time>
      </trkpt>
      <trkpt lat="47.02483" lon="8.91539">
        <ele>1104</ele>
        <time>2021-08-03T09:19:34.299Z</time>
      </trkpt>
      <trkpt lat="47.02482" lon="8.91539">
        <ele>1104</ele>
        <time>2021-08-03T09:19:35.299Z</time>
      </trkpt>
      <trkpt lat="47.02481" lon="8.91539">
        <ele>1104</ele>
        <time>2021-08-03T09:19:36.299Z</time>
      </trkpt>
      <trkpt lat="47.02481" lon="8.91539">
        <ele>1104</ele>
        <time>2021-08-03T09:19:37.298Z</time>
      </trkpt>
      <trkpt lat="47.02481" lon="8.91538">
        <ele>1104</ele>
        <time>2021-08-03T09:19:38.298Z</time>
      </trkpt>
      <trkpt lat="47.02481" lon="8.91537">
        <ele>1104</ele>
        <time>2021-08-03T09:19:39.298Z</time>
      </trkpt>
      <trkpt lat="47.02481" lon="8.91536">
        <ele>1104</ele>
        <time>2021-08-03T09:19:40.299Z</time>
      </trkpt>
      <trkpt lat="47.0248" lon="8.91534">
        <ele>1104</ele>
        <time>2021-08-03T09:19:41.298Z</time>
      </trkpt>
      <trkpt lat="47.0248" lon="8.91533">
        <ele>1103</ele>
        <time>2021-08-03T09:19:42.299Z</time>
      </trkpt>
      <trkpt lat="47.02479" lon="8.91532">
        <ele>1103</ele>
        <time>2021-08-03T09:19:43.299Z</time>
      </trkpt>
      <trkpt lat="47.02479" lon="8.91531">
        <ele>1103</ele>
        <time>2021-08-03T09:19:44.298Z</time>
      </trkpt>
      <trkpt lat="47.02478" lon="8.9153">
        <ele>1103</ele>
        <time>2021-08-03T09:19:45.299Z</time>
      </trkpt>
      <trkpt lat="47.02478" lon="8.91529">
        <ele>1103</ele>
        <time>2021-08-03T09:19:46.298Z</time>
      </trkpt>
      <trkpt lat="47.02478" lon="8.91527">
        <ele>1102</ele>
        <time>2021-08-03T09:19:47.298Z</time>
      </trkpt>
      <trkpt lat="47.02478" lon="8.91525">
        <ele>1102</ele>
        <time>2021-08-03T09:19:48.299Z</time>
      </trkpt>
      <trkpt lat="47.02478" lon="8.91524">
        <ele>1102</ele>
        <time>2021-08-03T09:19:49.299Z</time>
      </trkpt>
      <trkpt lat="47.02478" lon="8.91523">
        <ele>1102</ele>
        <time>2021-08-03T09:19:50.298Z</time>
      </trkpt>
      <trkpt lat="47.02478" lon="8.91522">
        <ele>1102</ele>
        <time>2021-08-03T09:19:51.298Z</time>
      </trkpt>
      <trkpt lat="47.02478" lon="8.91521">
        <ele>1102</ele>
        <time>2021-08-03T09:19:52.298Z</time>
      </trkpt>
      <trkpt lat="47.02477" lon="8.9152">
        <ele>1101</ele>
        <time>2021-08-03T09:19:53.298Z</time>
      </trkpt>
      <trkpt lat="47.02476" lon="8.91518">
        <ele>1101</ele>
        <time>2021-08-03T09:19:54.298Z</time>
      </trkpt>
      <trkpt lat="47.02475" lon="8.91518">
        <ele>1101</ele>
        <time>2021-08-03T09:19:55.299Z</time>
      </trkpt>
      <trkpt lat="47.02474" lon="8.91517">
        <ele>1100</ele>
        <time>2021-08-03T09:19:56.299Z</time>
      </trkpt>
      <trkpt lat="47.02474" lon="8.91516">
        <ele>1100</ele>
        <time>2021-08-03T09:19:57.299Z</time>
      </trkpt>
      <trkpt lat="47.02474" lon="8.91516">
        <ele>1099</ele>
        <time>2021-08-03T09:19:58.298Z</time>
      </trkpt>
      <trkpt lat="47.02473" lon="8.91515">
        <ele>1099</ele>
        <time>2021-08-03T09:19:59.298Z</time>
      </trkpt>
      <trkpt lat="47.02473" lon="8.91514">
        <ele>1098</ele>
        <time>2021-08-03T09:20:00.299Z</time>
      </trkpt>
      <trkpt lat="47.02473" lon="8.91514">
        <ele>1098</ele>
        <time>2021-08-03T09:20:01.299Z</time>
      </trkpt>
      <trkpt lat="47.02473" lon="8.91512">
        <ele>1098</ele>
        <time>2021-08-03T09:20:02.299Z</time>
      </trkpt>
      <trkpt lat="47.02472" lon="8.91511">
        <ele>1097</ele>
        <time>2021-08-03T09:20:03.298Z</time>
      </trkpt>
      <trkpt lat="47.02471" lon="8.9151">
        <ele>1097</ele>
        <time>2021-08-03T09:20:04.299Z</time>
      </trkpt>
      <trkpt lat="47.02471" lon="8.91509">
        <ele>1097</ele>
        <time>2021-08-03T09:20:05.298Z</time>
      </trkpt>
      <trkpt lat="47.02471" lon="8.91509">
        <ele>1097</ele>
        <time>2021-08-03T09:20:06.298Z</time>
      </trkpt>
      <trkpt lat="47.02471" lon="8.91508">
        <ele>1096</ele>
        <time>2021-08-03T09:20:07.299Z</time>
      </trkpt>
      <trkpt lat="47.0247" lon="8.91507">
        <ele>1096</ele>
        <time>2021-08-03T09:20:08.299Z</time>
      </trkpt>
      <trkpt lat="47.0247" lon="8.91506">
        <ele>1096</ele>
        <time>2021-08-03T09:20:09.298Z</time>
      </trkpt>
      <trkpt lat="47.02469" lon="8.91506">
        <ele>1096</ele>
        <time>2021-08-03T09:20:10.298Z</time>
      </trkpt>
      <trkpt lat="47.02468" lon="8.91507">
        <ele>1096</ele>
        <time>2021-08-03T09:20:11.298Z</time>
      </trkpt>
      <trkpt lat="47.02467" lon="8.91506">
        <ele>1095</ele>
        <time>2021-08-03T09:20:12.298Z</time>
      </trkpt>
      <trkpt lat="47.02467" lon="8.91505">
        <ele>1095</ele>
        <time>2021-08-03T09:20:13.298Z</time>
      </trkpt>
      <trkpt lat="47.02465" lon="8.91504">
        <ele>1095</ele>
        <time>2021-08-03T09:20:14.298Z</time>
      </trkpt>
      <trkpt lat="47.02464" lon="8.91504">
        <ele>1095</ele>
        <time>2021-08-03T09:20:15.298Z</time>
      </trkpt>
      <trkpt lat="47.02463" lon="8.91504">
        <ele>1095</ele>
        <time>2021-08-03T09:20:16.299Z</time>
      </trkpt>
      <trkpt lat="47.02462" lon="8.91504">
        <ele>1095</ele>
        <time>2021-08-03T09:20:17.298Z</time>
      </trkpt>
      <trkpt lat="47.02461" lon="8.91503">
        <ele>1096</ele>
        <time>2021-08-03T09:20:18.298Z</time>
      </trkpt>
      <trkpt lat="47.0246" lon="8.91503">
        <ele>1096</ele>
        <time>2021-08-03T09:20:19.299Z</time>
      </trkpt>
      <trkpt lat="47.0246" lon="8.91501">
        <ele>1096</ele>
        <time>2021-08-03T09:20:20.298Z</time>
      </trkpt>
      <trkpt lat="47.02459" lon="8.91499">
        <ele>1097</ele>
        <time>2021-08-03T09:20:21.298Z</time>
      </trkpt>
      <trkpt lat="47.02458" lon="8.91497">
        <ele>1097</ele>
        <time>2021-08-03T09:20:22.298Z</time>
      </trkpt>
      <trkpt lat="47.02456" lon="8.91496">
        <ele>1098</ele>
        <time>2021-08-03T09:20:23.299Z</time>
      </trkpt>
      <trkpt lat="47.02455" lon="8.91496">
        <ele>1098</ele>
        <time>2021-08-03T09:20:24.298Z</time>
      </trkpt>
      <trkpt lat="47.02455" lon="8.91495">
        <ele>1099</ele>
        <time>2021-08-03T09:20:25.298Z</time>
      </trkpt>
      <trkpt lat="47.02454" lon="8.91496">
        <ele>1099</ele>
        <time>2021-08-03T09:20:26.299Z</time>
      </trkpt>
      <trkpt lat="47.02453" lon="8.91496">
        <ele>1099</ele>
        <time>2021-08-03T09:20:27.299Z</time>
      </trkpt>
      <trkpt lat="47.02452" lon="8.91496">
        <ele>1099</ele>
        <time>2021-08-03T09:20:28.298Z</time>
      </trkpt>
      <trkpt lat="47.02451" lon="8.91495">
        <ele>1099</ele>
        <time>2021-08-03T09:20:29.299Z</time>
      </trkpt>
      <trkpt lat="47.0245" lon="8.91493">
        <ele>1100</ele>
        <time>2021-08-03T09:20:30.298Z</time>
      </trkpt>
      <trkpt lat="47.0245" lon="8.91492">
        <ele>1100</ele>
        <time>2021-08-03T09:20:31.298Z</time>
      </trkpt>
      <trkpt lat="47.0245" lon="8.9149">
        <ele>1100</ele>
        <time>2021-08-03T09:20:32.298Z</time>
      </trkpt>
      <trkpt lat="47.0245" lon="8.91489">
        <ele>1100</ele>
        <time>2021-08-03T09:20:33.299Z</time>
      </trkpt>
      <trkpt lat="47.0245" lon="8.91489">
        <ele>1100</ele>
        <time>2021-08-03T09:20:34.298Z</time>
      </trkpt>
      <trkpt lat="47.02449" lon="8.91489">
        <ele>1100</ele>
        <time>2021-08-03T09:20:35.299Z</time>
      </trkpt>
      <trkpt lat="47.02449" lon="8.91489">
        <ele>1101</ele>
        <time>2021-08-03T09:20:36.298Z</time>
      </trkpt>
      <trkpt lat="47.02448" lon="8.91489">
        <ele>1101</ele>
        <time>2021-08-03T09:20:37.298Z</time>
      </trkpt>
      <trkpt lat="47.02448" lon="8.91488">
        <ele>1101</ele>
        <time>2021-08-03T09:20:38.298Z</time>
      </trkpt>
      <trkpt lat="47.02448" lon="8.91487">
        <ele>1101</ele>
        <time>2021-08-03T09:20:39.298Z</time>
      </trkpt>
      <trkpt lat="47.02448" lon="8.91487">
        <ele>1101</ele>
        <time>2021-08-03T09:20:40.298Z</time>
      </trkpt>
      <trkpt lat="47.02448" lon="8.91486">
        <ele>1101</ele>
        <time>2021-08-03T09:20:41.298Z</time>
      </trkpt>
      <trkpt lat="47.02448" lon="8.91484">
        <ele>1101</ele>
        <time>2021-08-03T09:20:42.298Z</time>
      </trkpt>
      <trkpt lat="47.02448" lon="8.91483">
        <ele>1101</ele>
        <time>2021-08-03T09:20:43.298Z</time>
      </trkpt>
      <trkpt lat="47.02448" lon="8.91482">
        <ele>1101</ele>
        <time>2021-08-03T09:20:44.298Z</time>
      </trkpt>
      <trkpt lat="47.02447" lon="8.91481">
        <ele>1100</ele>
        <time>2021-08-03T09:20:45.298Z</time>
      </trkpt>
      <trkpt lat="47.02447" lon="8.91481">
        <ele>1100</ele>
        <time>2021-08-03T09:20:46.298Z</time>
      </trkpt>
      <trkpt lat="47.02447" lon="8.9148">
        <ele>1099</ele>
        <time>2021-08-03T09:20:47.299Z</time>
      </trkpt>
      <trkpt lat="47.02446" lon="8.91479">
        <ele>1099</ele>
        <time>2021-08-03T09:20:48.298Z</time>
      </trkpt>
      <trkpt lat="47.02445" lon="8.91478">
        <ele>1099</ele>
        <time>2021-08-03T09:20:49.299Z</time>
      </trkpt>
      <trkpt lat="47.02445" lon="8.91478">
        <ele>1098</ele>
        <time>2021-08-03T09:20:50.298Z</time>
      </trkpt>
      <trkpt lat="47.02444" lon="8.91476">
        <ele>1098</ele>
        <time>2021-08-03T09:20:51.298Z</time>
      </trkpt>
      <trkpt lat="47.02444" lon="8.91475">
        <ele>1098</ele>
        <time>2021-08-03T09:20:52.298Z</time>
      </trkpt>
      <trkpt lat="47.02443" lon="8.91474">
        <ele>1097</ele>
        <time>2021-08-03T09:20:53.299Z</time>
      </trkpt>
      <trkpt lat="47.02442" lon="8.91472">
        <ele>1097</ele>
        <time>2021-08-03T09:20:54.298Z</time>
      </trkpt>
      <trkpt lat="47.0244" lon="8.91471">
        <ele>1097</ele>
        <time>2021-08-03T09:20:55.298Z</time>
      </trkpt>
      <trkpt lat="47.02438" lon="8.91469">
        <ele>1097</ele>
        <time>2021-08-03T09:20:56.298Z</time>
      </trkpt>
      <trkpt lat="47.02437" lon="8.91469">
        <ele>1097</ele>
        <time>2021-08-03T09:20:57.299Z</time>
      </trkpt>
      <trkpt lat="47.02437" lon="8.91468">
        <ele>1096</ele>
        <time>2021-08-03T09:20:58.298Z</time>
      </trkpt>
      <trkpt lat="47.02437" lon="8.91467">
        <ele>1096</ele>
        <time>2021-08-03T09:20:59.298Z</time>
      </trkpt>
      <trkpt lat="47.02436" lon="8.91466">
        <ele>1096</ele>
        <time>2021-08-03T09:21:00.299Z</time>
      </trkpt>
      <trkpt lat="47.02436" lon="8.91465">
        <ele>1095</ele>
        <time>2021-08-03T09:21:01.298Z</time>
      </trkpt>
      <trkpt lat="47.02434" lon="8.91464">
        <ele>1095</ele>
        <time>2021-08-03T09:21:02.299Z</time>
      </trkpt>
      <trkpt lat="47.02433" lon="8.91462">
        <ele>1095</ele>
        <time>2021-08-03T09:21:03.298Z</time>
      </trkpt>
      <trkpt lat="47.02432" lon="8.91461">
        <ele>1095</ele>
        <time>2021-08-03T09:21:04.298Z</time>
      </trkpt>
      <trkpt lat="47.02431" lon="8.9146">
        <ele>1095</ele>
        <time>2021-08-03T09:21:05.298Z</time>
      </trkpt>
      <trkpt lat="47.02431" lon="8.91459">
        <ele>1095</ele>
        <time>2021-08-03T09:21:06.298Z</time>
      </trkpt>
      <trkpt lat="47.02429" lon="8.91458">
        <ele>1095</ele>
        <time>2021-08-03T09:21:07.298Z</time>
      </trkpt>
      <trkpt lat="47.02429" lon="8.91457">
        <ele>1095</ele>
        <time>2021-08-03T09:21:08.298Z</time>
      </trkpt>
      <trkpt lat="47.02429" lon="8.91456">
        <ele>1094</ele>
        <time>2021-08-03T09:21:09.298Z</time>
      </trkpt>
      <trkpt lat="47.02428" lon="8.91456">
        <ele>1094</ele>
        <time>2021-08-03T09:21:10.298Z</time>
      </trkpt>
      <trkpt lat="47.02427" lon="8.91456">
        <ele>1094</ele>
        <time>2021-08-03T09:21:11.299Z</time>
      </trkpt>
      <trkpt lat="47.02427" lon="8.91456">
        <ele>1094</ele>
        <time>2021-08-03T09:21:12.298Z</time>
      </trkpt>
      <trkpt lat="47.02426" lon="8.91455">
        <ele>1094</ele>
        <time>2021-08-03T09:21:13.298Z</time>
      </trkpt>
      <trkpt lat="47.02426" lon="8.91456">
        <ele>1094</ele>
        <time>2021-08-03T09:21:14.299Z</time>
      </trkpt>
      <trkpt lat="47.02426" lon="8.91456">
        <ele>1094</ele>
        <time>2021-08-03T09:21:15.298Z</time>
      </trkpt>
      <trkpt lat="47.02426" lon="8.91455">
        <ele>1094</ele>
        <time>2021-08-03T09:21:16.298Z</time>
      </trkpt>
      <trkpt lat="47.02426" lon="8.91454">
        <ele>1094</ele>
        <time>2021-08-03T09:21:17.298Z</time>
      </trkpt>
      <trkpt lat="47.02425" lon="8.91452">
        <ele>1093</ele>
        <time>2021-08-03T09:21:18.298Z</time>
      </trkpt>
      <trkpt lat="47.02424" lon="8.91451">
        <ele>1093</ele>
        <time>2021-08-03T09:21:19.299Z</time>
      </trkpt>
      <trkpt lat="47.02424" lon="8.91449">
        <ele>1093</ele>
        <time>2021-08-03T09:21:20.298Z</time>
      </trkpt>
      <trkpt lat="47.02423" lon="8.91448">
        <ele>1093</ele>
        <time>2021-08-03T09:21:21.298Z</time>
      </trkpt>
      <trkpt lat="47.02422" lon="8.91447">
        <ele>1093</ele>
        <time>2021-08-03T09:21:22.299Z</time>
      </trkpt>
      <trkpt lat="47.02421" lon="8.91446">
        <ele>1093</ele>
        <time>2021-08-03T09:21:23.298Z</time>
      </trkpt>
      <trkpt lat="47.0242" lon="8.91445">
        <ele>1093</ele>
        <time>2021-08-03T09:21:24.298Z</time>
      </trkpt>
      <trkpt lat="47.02419" lon="8.91444">
        <ele>1093</ele>
        <time>2021-08-03T09:21:25.299Z</time>
      </trkpt>
      <trkpt lat="47.02418" lon="8.91443">
        <ele>1093</ele>
        <time>2021-08-03T09:21:26.298Z</time>
      </trkpt>
      <trkpt lat="47.02417" lon="8.91442">
        <ele>1093</ele>
        <time>2021-08-03T09:21:27.298Z</time>
      </trkpt>
      <trkpt lat="47.02417" lon="8.91442">
        <ele>1094</ele>
        <time>2021-08-03T09:21:28.298Z</time>
      </trkpt>
      <trkpt lat="47.02417" lon="8.9144">
        <ele>1093</ele>
        <time>2021-08-03T09:21:29.298Z</time>
      </trkpt>
      <trkpt lat="47.02415" lon="8.9144">
        <ele>1093</ele>
        <time>2021-08-03T09:21:30.299Z</time>
      </trkpt>
      <trkpt lat="47.02413" lon="8.91438">
        <ele>1093</ele>
        <time>2021-08-03T09:21:31.298Z</time>
      </trkpt>
      <trkpt lat="47.02412" lon="8.91437">
        <ele>1094</ele>
        <time>2021-08-03T09:21:32.298Z</time>
      </trkpt>
      <trkpt lat="47.02411" lon="8.91437">
        <ele>1094</ele>
        <time>2021-08-03T09:21:33.298Z</time>
      </trkpt>
      <trkpt lat="47.0241" lon="8.91436">
        <ele>1095</ele>
        <time>2021-08-03T09:21:34.298Z</time>
      </trkpt>
      <trkpt lat="47.02408" lon="8.91434">
        <ele>1095</ele>
        <time>2021-08-03T09:21:35.299Z</time>
      </trkpt>
      <trkpt lat="47.02407" lon="8.91432">
        <ele>1096</ele>
        <time>2021-08-03T09:21:36.298Z</time>
      </trkpt>
      <trkpt lat="47.02406" lon="8.91431">
        <ele>1097</ele>
        <time>2021-08-03T09:21:37.299Z</time>
      </trkpt>
      <trkpt lat="47.02405" lon="8.9143">
        <ele>1098</ele>
        <time>2021-08-03T09:21:38.298Z</time>
      </trkpt>
      <trkpt lat="47.02404" lon="8.91429">
        <ele>1098</ele>
        <time>2021-08-03T09:21:39.299Z</time>
      </trkpt>
      <trkpt lat="47.02403" lon="8.91428">
        <ele>1099</ele>
        <time>2021-08-03T09:21:40.298Z</time>
      </trkpt>
      <trkpt lat="47.02402" lon="8.91427">
        <ele>1099</ele>
        <time>2021-08-03T09:21:41.298Z</time>
      </trkpt>
      <trkpt lat="47.02401" lon="8.91425">
        <ele>1099</ele>
        <time>2021-08-03T09:21:42.298Z</time>
      </trkpt>
      <trkpt lat="47.024" lon="8.91424">
        <ele>1099</ele>
        <time>2021-08-03T09:21:43.298Z</time>
      </trkpt>
      <trkpt lat="47.02399" lon="8.91424">
        <ele>1099</ele>
        <time>2021-08-03T09:21:44.299Z</time>
      </trkpt>
      <trkpt lat="47.02397" lon="8.91423">
        <ele>1098</ele>
        <time>2021-08-03T09:21:45.298Z</time>
      </trkpt>
      <trkpt lat="47.02396" lon="8.91422">
        <ele>1098</ele>
        <time>2021-08-03T09:21:46.299Z</time>
      </trkpt>
      <trkpt lat="47.02396" lon="8.91422">
        <ele>1098</ele>
        <time>2021-08-03T09:21:47.298Z</time>
      </trkpt>
      <trkpt lat="47.02395" lon="8.91422">
        <ele>1098</ele>
        <time>2021-08-03T09:21:48.298Z</time>
      </trkpt>
      <trkpt lat="47.02394" lon="8.91421">
        <ele>1098</ele>
        <time>2021-08-03T09:21:49.298Z</time>
      </trkpt>
      <trkpt lat="47.02393" lon="8.9142">
        <ele>1098</ele>
        <time>2021-08-03T09:21:50.298Z</time>
      </trkpt>
      <trkpt lat="47.02392" lon="8.91419">
        <ele>1097</ele>
        <time>2021-08-03T09:21:51.298Z</time>
      </trkpt>
      <trkpt lat="47.0239" lon="8.91417">
        <ele>1097</ele>
        <time>2021-08-03T09:21:52.298Z</time>
      </trkpt>
      <trkpt lat="47.02389" lon="8.91416">
        <ele>1097</ele>
        <time>2021-08-03T09:21:53.298Z</time>
      </trkpt>
      <trkpt lat="47.02388" lon="8.91415">
        <ele>1097</ele>
        <time>2021-08-03T09:21:54.298Z</time>
      </trkpt>
      <trkpt lat="47.02388" lon="8.91414">
        <ele>1097</ele>
        <time>2021-08-03T09:21:55.299Z</time>
      </trkpt>
      <trkpt lat="47.02387" lon="8.91413">
        <ele>1096</ele>
        <time>2021-08-03T09:21:56.298Z</time>
      </trkpt>
      <trkpt lat="47.02387" lon="8.91413">
        <ele>1096</ele>
        <time>2021-08-03T09:21:57.299Z</time>
      </trkpt>
      <trkpt lat="47.02387" lon="8.91412">
        <ele>1096</ele>
        <time>2021-08-03T09:21:58.298Z</time>
      </trkpt>
      <trkpt lat="47.02385" lon="8.91411">
        <ele>1096</ele>
        <time>2021-08-03T09:21:59.299Z</time>
      </trkpt>
      <trkpt lat="47.02384" lon="8.91411">
        <ele>1095</ele>
        <time>2021-08-03T09:22:00.298Z</time>
      </trkpt>
      <trkpt lat="47.02383" lon="8.9141">
        <ele>1095</ele>
        <time>2021-08-03T09:22:01.298Z</time>
      </trkpt>
      <trkpt lat="47.02383" lon="8.9141">
        <ele>1095</ele>
        <time>2021-08-03T09:22:02.298Z</time>
      </trkpt>
      <trkpt lat="47.02382" lon="8.9141">
        <ele>1094</ele>
        <time>2021-08-03T09:22:03.298Z</time>
      </trkpt>
      <trkpt lat="47.02381" lon="8.9141">
        <ele>1093</ele>
        <time>2021-08-03T09:22:04.298Z</time>
      </trkpt>
      <trkpt lat="47.0238" lon="8.91409">
        <ele>1093</ele>
        <time>2021-08-03T09:22:05.298Z</time>
      </trkpt>
      <trkpt lat="47.0238" lon="8.91408">
        <ele>1092</ele>
        <time>2021-08-03T09:22:06.298Z</time>
      </trkpt>
      <trkpt lat="47.02379" lon="8.91407">
        <ele>1092</ele>
        <time>2021-08-03T09:22:07.298Z</time>
      </trkpt>
      <trkpt lat="47.02378" lon="8.91407">
        <ele>1092</ele>
        <time>2021-08-03T09:22:08.299Z</time>
      </trkpt>
      <trkpt lat="47.02377" lon="8.91406">
        <ele>1092</ele>
        <time>2021-08-03T09:22:09.299Z</time>
      </trkpt>
      <trkpt lat="47.02376" lon="8.91405">
        <ele>1092</ele>
        <time>2021-08-03T09:22:10.298Z</time>
      </trkpt>
      <trkpt lat="47.02375" lon="8.91405">
        <ele>1091</ele>
        <time>2021-08-03T09:22:11.298Z</time>
      </trkpt>
      <trkpt lat="47.02374" lon="8.91403">
        <ele>1091</ele>
        <time>2021-08-03T09:22:12.298Z</time>
      </trkpt>
      <trkpt lat="47.02372" lon="8.91402">
        <ele>1091</ele>
        <time>2021-08-03T09:22:13.299Z</time>
      </trkpt>
      <trkpt lat="47.02371" lon="8.914">
        <ele>1091</ele>
        <time>2021-08-03T09:22:14.298Z</time>
      </trkpt>
      <trkpt lat="47.0237" lon="8.91398">
        <ele>1091</ele>
        <time>2021-08-03T09:22:15.298Z</time>
      </trkpt>
      <trkpt lat="47.02369" lon="8.91398">
        <ele>1091</ele>
        <time>2021-08-03T09:22:16.298Z</time>
      </trkpt>
      <trkpt lat="47.02368" lon="8.91397">
        <ele>1091</ele>
        <time>2021-08-03T09:22:17.299Z</time>
      </trkpt>
      <trkpt lat="47.02367" lon="8.91395">
        <ele>1091</ele>
        <time>2021-08-03T09:22:18.298Z</time>
      </trkpt>
      <trkpt lat="47.02366" lon="8.91394">
        <ele>1092</ele>
        <time>2021-08-03T09:22:19.298Z</time>
      </trkpt>
      <trkpt lat="47.02365" lon="8.91393">
        <ele>1092</ele>
        <time>2021-08-03T09:22:20.298Z</time>
      </trkpt>
      <trkpt lat="47.02364" lon="8.91393">
        <ele>1092</ele>
        <time>2021-08-03T09:22:21.299Z</time>
      </trkpt>
      <trkpt lat="47.02363" lon="8.91392">
        <ele>1093</ele>
        <time>2021-08-03T09:22:22.298Z</time>
      </trkpt>
      <trkpt lat="47.02362" lon="8.91391">
        <ele>1093</ele>
        <time>2021-08-03T09:22:23.298Z</time>
      </trkpt>
      <trkpt lat="47.02361" lon="8.9139">
        <ele>1093</ele>
        <time>2021-08-03T09:22:24.299Z</time>
      </trkpt>
      <trkpt lat="47.0236" lon="8.91389">
        <ele>1093</ele>
        <time>2021-08-03T09:22:25.298Z</time>
      </trkpt>
      <trkpt lat="47.02359" lon="8.91389">
        <ele>1093</ele>
        <time>2021-08-03T09:22:26.298Z</time>
      </trkpt>
      <trkpt lat="47.02358" lon="8.91388">
        <ele>1093</ele>
        <time>2021-08-03T09:22:27.298Z</time>
      </trkpt>
      <trkpt lat="47.02358" lon="8.91387">
        <ele>1094</ele>
        <time>2021-08-03T09:22:28.298Z</time>
      </trkpt>
      <trkpt lat="47.02358" lon="8.91386">
        <ele>1094</ele>
        <time>2021-08-03T09:22:29.298Z</time>
      </trkpt>
      <trkpt lat="47.02357" lon="8.91385">
        <ele>1094</ele>
        <time>2021-08-03T09:22:30.298Z</time>
      </trkpt>
      <trkpt lat="47.02356" lon="8.91385">
        <ele>1094</ele>
        <time>2021-08-03T09:22:31.298Z</time>
      </trkpt>
      <trkpt lat="47.02355" lon="8.91384">
        <ele>1095</ele>
        <time>2021-08-03T09:22:32.299Z</time>
      </trkpt>
      <trkpt lat="47.02354" lon="8.91384">
        <ele>1095</ele>
        <time>2021-08-03T09:22:33.299Z</time>
      </trkpt>
      <trkpt lat="47.02353" lon="8.91383">
        <ele>1095</ele>
        <time>2021-08-03T09:22:34.298Z</time>
      </trkpt>
      <trkpt lat="47.02353" lon="8.91382">
        <ele>1096</ele>
        <time>2021-08-03T09:22:35.298Z</time>
      </trkpt>
      <trkpt lat="47.02352" lon="8.91381">
        <ele>1096</ele>
        <time>2021-08-03T09:22:36.298Z</time>
      </trkpt>
      <trkpt lat="47.02351" lon="8.91379">
        <ele>1096</ele>
        <time>2021-08-03T09:22:37.298Z</time>
      </trkpt>
      <trkpt lat="47.0235" lon="8.91377">
        <ele>1097</ele>
        <time>2021-08-03T09:22:38.299Z</time>
      </trkpt>
      <trkpt lat="47.02349" lon="8.91376">
        <ele>1097</ele>
        <time>2021-08-03T09:22:39.299Z</time>
      </trkpt>
      <trkpt lat="47.02349" lon="8.91375">
        <ele>1098</ele>
        <time>2021-08-03T09:22:40.298Z</time>
      </trkpt>
      <trkpt lat="47.02348" lon="8.91374">
        <ele>1098</ele>
        <time>2021-08-03T09:22:41.298Z</time>
      </trkpt>
      <trkpt lat="47.02347" lon="8.91372">
        <ele>1098</ele>
        <time>2021-08-03T09:22:42.298Z</time>
      </trkpt>
      <trkpt lat="47.02346" lon="8.91371">
        <ele>1099</ele>
        <time>2021-08-03T09:22:43.298Z</time>
      </trkpt>
      <trkpt lat="47.02345" lon="8.9137">
        <ele>1099</ele>
        <time>2021-08-03T09:22:44.299Z</time>
      </trkpt>
      <trkpt lat="47.02344" lon="8.91368">
        <ele>1100</ele>
        <time>2021-08-03T09:22:45.298Z</time>
      </trkpt>
      <trkpt lat="47.02343" lon="8.91367">
        <ele>1101</ele>
        <time>2021-08-03T09:22:46.298Z</time>
      </trkpt>
      <trkpt lat="47.02342" lon="8.91366">
        <ele>1102</ele>
        <time>2021-08-03T09:22:47.299Z</time>
      </trkpt>
      <trkpt lat="47.02341" lon="8.91364">
        <ele>1103</ele>
        <time>2021-08-03T09:22:48.298Z</time>
      </trkpt>
      <trkpt lat="47.0234" lon="8.91364">
        <ele>1104</ele>
        <time>2021-08-03T09:22:49.298Z</time>
      </trkpt>
      <trkpt lat="47.02339" lon="8.91363">
        <ele>1104</ele>
        <time>2021-08-03T09:22:50.298Z</time>
      </trkpt>
      <trkpt lat="47.02337" lon="8.91362">
        <ele>1105</ele>
        <time>2021-08-03T09:22:51.298Z</time>
      </trkpt>
      <trkpt lat="47.02336" lon="8.9136">
        <ele>1105</ele>
        <time>2021-08-03T09:22:52.298Z</time>
      </trkpt>
      <trkpt lat="47.02336" lon="8.91359">
        <ele>1106</ele>
        <time>2021-08-03T09:22:53.298Z</time>
      </trkpt>
      <trkpt lat="47.02335" lon="8.91358">
        <ele>1106</ele>
        <time>2021-08-03T09:22:54.298Z</time>
      </trkpt>
      <trkpt lat="47.02334" lon="8.91357">
        <ele>1106</ele>
        <time>2021-08-03T09:22:55.299Z</time>
      </trkpt>
      <trkpt lat="47.02333" lon="8.91356">
        <ele>1106</ele>
        <time>2021-08-03T09:22:56.298Z</time>
      </trkpt>
      <trkpt lat="47.02332" lon="8.91355">
        <ele>1106</ele>
        <time>2021-08-03T09:22:57.298Z</time>
      </trkpt>
      <trkpt lat="47.02332" lon="8.91354">
        <ele>1106</ele>
        <time>2021-08-03T09:22:58.299Z</time>
      </trkpt>
      <trkpt lat="47.02331" lon="8.91353">
        <ele>1106</ele>
        <time>2021-08-03T09:22:59.298Z</time>
      </trkpt>
      <trkpt lat="47.02331" lon="8.91351">
        <ele>1105</ele>
        <time>2021-08-03T09:23:00.298Z</time>
      </trkpt>
      <trkpt lat="47.02331" lon="8.9135">
        <ele>1105</ele>
        <time>2021-08-03T09:23:01.299Z</time>
      </trkpt>
      <trkpt lat="47.0233" lon="8.91349">
        <ele>1105</ele>
        <time>2021-08-03T09:23:02.298Z</time>
      </trkpt>
      <trkpt lat="47.02329" lon="8.91347">
        <ele>1105</ele>
        <time>2021-08-03T09:23:03.298Z</time>
      </trkpt>
      <trkpt lat="47.02328" lon="8.91346">
        <ele>1105</ele>
        <time>2021-08-03T09:23:04.299Z</time>
      </trkpt>
      <trkpt lat="47.02328" lon="8.91345">
        <ele>1105</ele>
        <time>2021-08-03T09:23:05.299Z</time>
      </trkpt>
      <trkpt lat="47.02327" lon="8.91343">
        <ele>1104</ele>
        <time>2021-08-03T09:23:06.299Z</time>
      </trkpt>
      <trkpt lat="47.02327" lon="8.91342">
        <ele>1104</ele>
        <time>2021-08-03T09:23:07.298Z</time>
      </trkpt>
      <trkpt lat="47.02327" lon="8.91341">
        <ele>1103</ele>
        <time>2021-08-03T09:23:08.298Z</time>
      </trkpt>
      <trkpt lat="47.02326" lon="8.91339">
        <ele>1103</ele>
        <time>2021-08-03T09:23:09.298Z</time>
      </trkpt>
      <trkpt lat="47.02327" lon="8.91337">
        <ele>1103</ele>
        <time>2021-08-03T09:23:10.298Z</time>
      </trkpt>
      <trkpt lat="47.02326" lon="8.91335">
        <ele>1103</ele>
        <time>2021-08-03T09:23:11.298Z</time>
      </trkpt>
      <trkpt lat="47.02326" lon="8.91334">
        <ele>1103</ele>
        <time>2021-08-03T09:23:12.298Z</time>
      </trkpt>
      <trkpt lat="47.02325" lon="8.91332">
        <ele>1103</ele>
        <time>2021-08-03T09:23:13.299Z</time>
      </trkpt>
      <trkpt lat="47.02324" lon="8.9133">
        <ele>1103</ele>
        <time>2021-08-03T09:23:14.298Z</time>
      </trkpt>
      <trkpt lat="47.02323" lon="8.91329">
        <ele>1104</ele>
        <time>2021-08-03T09:23:15.299Z</time>
      </trkpt>
      <trkpt lat="47.02323" lon="8.91329">
        <ele>1104</ele>
        <time>2021-08-03T09:23:16.298Z</time>
      </trkpt>
      <trkpt lat="47.02321" lon="8.91327">
        <ele>1104</ele>
        <time>2021-08-03T09:23:17.298Z</time>
      </trkpt>
      <trkpt lat="47.0232" lon="8.91326">
        <ele>1105</ele>
        <time>2021-08-03T09:23:18.298Z</time>
      </trkpt>
      <trkpt lat="47.02319" lon="8.91325">
        <ele>1105</ele>
        <time>2021-08-03T09:23:19.298Z</time>
      </trkpt>
      <trkpt lat="47.02319" lon="8.91323">
        <ele>1105</ele>
        <time>2021-08-03T09:23:20.299Z</time>
      </trkpt>
      <trkpt lat="47.02318" lon="8.91321">
        <ele>1105</ele>
        <time>2021-08-03T09:23:21.299Z</time>
      </trkpt>
      <trkpt lat="47.02318" lon="8.9132">
        <ele>1106</ele>
        <time>2021-08-03T09:23:22.299Z</time>
      </trkpt>
      <trkpt lat="47.02317" lon="8.91319">
        <ele>1106</ele>
        <time>2021-08-03T09:23:23.299Z</time>
      </trkpt>
      <trkpt lat="47.02316" lon="8.91317">
        <ele>1107</ele>
        <time>2021-08-03T09:23:24.299Z</time>
      </trkpt>
      <trkpt lat="47.02316" lon="8.91316">
        <ele>1107</ele>
        <time>2021-08-03T09:23:25.298Z</time>
      </trkpt>
      <trkpt lat="47.02315" lon="8.91315">
        <ele>1107</ele>
        <time>2021-08-03T09:23:26.299Z</time>
      </trkpt>
      <trkpt lat="47.02315" lon="8.91313">
        <ele>1107</ele>
        <time>2021-08-03T09:23:27.298Z</time>
      </trkpt>
      <trkpt lat="47.02315" lon="8.91313">
        <ele>1107</ele>
        <time>2021-08-03T09:23:28.299Z</time>
      </trkpt>
      <trkpt lat="47.02315" lon="8.91311">
        <ele>1106</ele>
        <time>2021-08-03T09:23:29.298Z</time>
      </trkpt>
      <trkpt lat="47.02316" lon="8.9131">
        <ele>1106</ele>
        <time>2021-08-03T09:23:30.298Z</time>
      </trkpt>
      <trkpt lat="47.02315" lon="8.91309">
        <ele>1105</ele>
        <time>2021-08-03T09:23:31.299Z</time>
      </trkpt>
      <trkpt lat="47.02315" lon="8.91307">
        <ele>1105</ele>
        <time>2021-08-03T09:23:32.298Z</time>
      </trkpt>
      <trkpt lat="47.02314" lon="8.91304">
        <ele>1105</ele>
        <time>2021-08-03T09:23:33.299Z</time>
      </trkpt>
      <trkpt lat="47.02313" lon="8.91303">
        <ele>1105</ele>
        <time>2021-08-03T09:23:34.298Z</time>
      </trkpt>
      <trkpt lat="47.02313" lon="8.91302">
        <ele>1104</ele>
        <time>2021-08-03T09:23:35.298Z</time>
      </trkpt>
      <trkpt lat="47.02312" lon="8.913">
        <ele>1104</ele>
        <time>2021-08-03T09:23:36.298Z</time>
      </trkpt>
      <trkpt lat="47.02312" lon="8.91299">
        <ele>1103</ele>
        <time>2021-08-03T09:23:37.298Z</time>
      </trkpt>
      <trkpt lat="47.02312" lon="8.91298">
        <ele>1103</ele>
        <time>2021-08-03T09:23:38.298Z</time>
      </trkpt>
      <trkpt lat="47.02312" lon="8.91296">
        <ele>1102</ele>
        <time>2021-08-03T09:23:39.298Z</time>
      </trkpt>
      <trkpt lat="47.02311" lon="8.91295">
        <ele>1101</ele>
        <time>2021-08-03T09:23:40.299Z</time>
      </trkpt>
      <trkpt lat="47.02311" lon="8.91293">
        <ele>1101</ele>
        <time>2021-08-03T09:23:41.298Z</time>
      </trkpt>
      <trkpt lat="47.02311" lon="8.91292">
        <ele>1100</ele>
        <time>2021-08-03T09:23:42.298Z</time>
      </trkpt>
      <trkpt lat="47.0231" lon="8.91291">
        <ele>1100</ele>
        <time>2021-08-03T09:23:43.298Z</time>
      </trkpt>
      <trkpt lat="47.0231" lon="8.9129">
        <ele>1099</ele>
        <time>2021-08-03T09:23:44.298Z</time>
      </trkpt>
      <trkpt lat="47.02309" lon="8.91288">
        <ele>1100</ele>
        <time>2021-08-03T09:23:45.298Z</time>
      </trkpt>
      <trkpt lat="47.02308" lon="8.91287">
        <ele>1100</ele>
        <time>2021-08-03T09:23:46.298Z</time>
      </trkpt>
      <trkpt lat="47.02307" lon="8.91286">
        <ele>1100</ele>
        <time>2021-08-03T09:23:47.298Z</time>
      </trkpt>
      <trkpt lat="47.02306" lon="8.91284">
        <ele>1100</ele>
        <time>2021-08-03T09:23:48.298Z</time>
      </trkpt>
      <trkpt lat="47.02306" lon="8.91283">
        <ele>1100</ele>
        <time>2021-08-03T09:23:49.299Z</time>
      </trkpt>
      <trkpt lat="47.02306" lon="8.91281">
        <ele>1100</ele>
        <time>2021-08-03T09:23:50.299Z</time>
      </trkpt>
      <trkpt lat="47.02306" lon="8.9128">
        <ele>1100</ele>
        <time>2021-08-03T09:23:51.298Z</time>
      </trkpt>
      <trkpt lat="47.02306" lon="8.91278">
        <ele>1099</ele>
        <time>2021-08-03T09:23:52.298Z</time>
      </trkpt>
      <trkpt lat="47.02305" lon="8.91277">
        <ele>1099</ele>
        <time>2021-08-03T09:23:53.298Z</time>
      </trkpt>
      <trkpt lat="47.02305" lon="8.91275">
        <ele>1100</ele>
        <time>2021-08-03T09:23:54.299Z</time>
      </trkpt>
      <trkpt lat="47.02305" lon="8.91274">
        <ele>1100</ele>
        <time>2021-08-03T09:23:55.298Z</time>
      </trkpt>
      <trkpt lat="47.02304" lon="8.91272">
        <ele>1101</ele>
        <time>2021-08-03T09:23:56.299Z</time>
      </trkpt>
      <trkpt lat="47.02303" lon="8.91271">
        <ele>1101</ele>
        <time>2021-08-03T09:23:57.298Z</time>
      </trkpt>
      <trkpt lat="47.02302" lon="8.9127">
        <ele>1101</ele>
        <time>2021-08-03T09:23:58.298Z</time>
      </trkpt>
      <trkpt lat="47.02302" lon="8.91269">
        <ele>1102</ele>
        <time>2021-08-03T09:23:59.299Z</time>
      </trkpt>
      <trkpt lat="47.02301" lon="8.91267">
        <ele>1102</ele>
        <time>2021-08-03T09:24:00.298Z</time>
      </trkpt>
      <trkpt lat="47.02301" lon="8.91265">
        <ele>1103</ele>
        <time>2021-08-03T09:24:01.299Z</time>
      </trkpt>
      <trkpt lat="47.023" lon="8.91263">
        <ele>1103</ele>
        <time>2021-08-03T09:24:02.299Z</time>
      </trkpt>
      <trkpt lat="47.023" lon="8.91261">
        <ele>1104</ele>
        <time>2021-08-03T09:24:03.299Z</time>
      </trkpt>
      <trkpt lat="47.023" lon="8.91259">
        <ele>1104</ele>
        <time>2021-08-03T09:24:04.298Z</time>
      </trkpt>
      <trkpt lat="47.023" lon="8.91257">
        <ele>1105</ele>
        <time>2021-08-03T09:24:05.299Z</time>
      </trkpt>
      <trkpt lat="47.023" lon="8.91256">
        <ele>1105</ele>
        <time>2021-08-03T09:24:06.299Z</time>
      </trkpt>
      <trkpt lat="47.02299" lon="8.91253">
        <ele>1105</ele>
        <time>2021-08-03T09:24:07.299Z</time>
      </trkpt>
      <trkpt lat="47.02299" lon="8.91252">
        <ele>1105</ele>
        <time>2021-08-03T09:24:08.298Z</time>
      </trkpt>
      <trkpt lat="47.02298" lon="8.9125">
        <ele>1104</ele>
        <time>2021-08-03T09:24:09.298Z</time>
      </trkpt>
      <trkpt lat="47.02297" lon="8.91249">
        <ele>1104</ele>
        <time>2021-08-03T09:24:10.298Z</time>
      </trkpt>
      <trkpt lat="47.02296" lon="8.91247">
        <ele>1103</ele>
        <time>2021-08-03T09:24:11.298Z</time>
      </trkpt>
      <trkpt lat="47.02294" lon="8.91245">
        <ele>1103</ele>
        <time>2021-08-03T09:24:12.298Z</time>
      </trkpt>
      <trkpt lat="47.02294" lon="8.91243">
        <ele>1102</ele>
        <time>2021-08-03T09:24:13.298Z</time>
      </trkpt>
      <trkpt lat="47.02294" lon="8.91241">
        <ele>1102</ele>
        <time>2021-08-03T09:24:14.298Z</time>
      </trkpt>
      <trkpt lat="47.02294" lon="8.91239">
        <ele>1102</ele>
        <time>2021-08-03T09:24:15.299Z</time>
      </trkpt>
      <trkpt lat="47.02294" lon="8.91237">
        <ele>1102</ele>
        <time>2021-08-03T09:24:16.298Z</time>
      </trkpt>
      <trkpt lat="47.02294" lon="8.91237">
        <ele>1102</ele>
        <time>2021-08-03T09:24:17.299Z</time>
      </trkpt>
      <trkpt lat="47.02294" lon="8.91235">
        <ele>1103</ele>
        <time>2021-08-03T09:24:18.298Z</time>
      </trkpt>
      <trkpt lat="47.02294" lon="8.91233">
        <ele>1103</ele>
        <time>2021-08-03T09:24:19.298Z</time>
      </trkpt>
      <trkpt lat="47.02294" lon="8.91232">
        <ele>1104</ele>
        <time>2021-08-03T09:24:20.298Z</time>
      </trkpt>
      <trkpt lat="47.02294" lon="8.9123">
        <ele>1105</ele>
        <time>2021-08-03T09:24:21.298Z</time>
      </trkpt>
      <trkpt lat="47.02294" lon="8.91227">
        <ele>1105</ele>
        <time>2021-08-03T09:24:22.298Z</time>
      </trkpt>
      <trkpt lat="47.02295" lon="8.91225">
        <ele>1106</ele>
        <time>2021-08-03T09:24:23.298Z</time>
      </trkpt>
      <trkpt lat="47.02295" lon="8.91223">
        <ele>1106</ele>
        <time>2021-08-03T09:24:24.298Z</time>
      </trkpt>
      <trkpt lat="47.02296" lon="8.91222">
        <ele>1107</ele>
        <time>2021-08-03T09:24:25.298Z</time>
      </trkpt>
      <trkpt lat="47.02296" lon="8.9122">
        <ele>1107</ele>
        <time>2021-08-03T09:24:26.298Z</time>
      </trkpt>
      <trkpt lat="47.02295" lon="8.91218">
        <ele>1107</ele>
        <time>2021-08-03T09:24:27.299Z</time>
      </trkpt>
      <trkpt lat="47.02293" lon="8.91215">
        <ele>1107</ele>
        <time>2021-08-03T09:24:28.299Z</time>
      </trkpt>
      <trkpt lat="47.02292" lon="8.91213">
        <ele>1107</ele>
        <time>2021-08-03T09:24:29.298Z</time>
      </trkpt>
      <trkpt lat="47.02292" lon="8.91211">
        <ele>1107</ele>
        <time>2021-08-03T09:24:30.298Z</time>
      </trkpt>
      <trkpt lat="47.02291" lon="8.9121">
        <ele>1107</ele>
        <time>2021-08-03T09:24:31.299Z</time>
      </trkpt>
      <trkpt lat="47.0229" lon="8.91208">
        <ele>1108</ele>
        <time>2021-08-03T09:24:32.299Z</time>
      </trkpt>
      <trkpt lat="47.02289" lon="8.91207">
        <ele>1108</ele>
        <time>2021-08-03T09:24:33.298Z</time>
      </trkpt>
      <trkpt lat="47.02289" lon="8.91205">
        <ele>1108</ele>
        <time>2021-08-03T09:24:34.298Z</time>
      </trkpt>
      <trkpt lat="47.02289" lon="8.91203">
        <ele>1108</ele>
        <time>2021-08-03T09:24:35.299Z</time>
      </trkpt>
      <trkpt lat="47.02289" lon="8.91201">
        <ele>1107</ele>
        <time>2021-08-03T09:24:36.298Z</time>
      </trkpt>
      <trkpt lat="47.02289" lon="8.91199">
        <ele>1108</ele>
        <time>2021-08-03T09:24:37.298Z</time>
      </trkpt>
      <trkpt lat="47.02288" lon="8.91197">
        <ele>1108</ele>
        <time>2021-08-03T09:24:38.299Z</time>
      </trkpt>
      <trkpt lat="47.02288" lon="8.91195">
        <ele>1108</ele>
        <time>2021-08-03T09:24:39.298Z</time>
      </trkpt>
      <trkpt lat="47.02288" lon="8.91193">
        <ele>1108</ele>
        <time>2021-08-03T09:24:40.299Z</time>
      </trkpt>
      <trkpt lat="47.02287" lon="8.9119">
        <ele>1107</ele>
        <time>2021-08-03T09:24:41.298Z</time>
      </trkpt>
      <trkpt lat="47.02286" lon="8.91187">
        <ele>1107</ele>
        <time>2021-08-03T09:24:42.298Z</time>
      </trkpt>
      <trkpt lat="47.02284" lon="8.91185">
        <ele>1107</ele>
        <time>2021-08-03T09:24:43.299Z</time>
      </trkpt>
      <trkpt lat="47.02283" lon="8.91182">
        <ele>1107</ele>
        <time>2021-08-03T09:24:44.298Z</time>
      </trkpt>
      <trkpt lat="47.02283" lon="8.9118">
        <ele>1107</ele>
        <time>2021-08-03T09:24:45.299Z</time>
      </trkpt>
      <trkpt lat="47.02283" lon="8.91179">
        <ele>1108</ele>
        <time>2021-08-03T09:24:46.298Z</time>
      </trkpt>
      <trkpt lat="47.02283" lon="8.91177">
        <ele>1108</ele>
        <time>2021-08-03T09:24:47.298Z</time>
      </trkpt>
      <trkpt lat="47.02284" lon="8.91176">
        <ele>1108</ele>
        <time>2021-08-03T09:24:48.298Z</time>
      </trkpt>
      <trkpt lat="47.02284" lon="8.91175">
        <ele>1109</ele>
        <time>2021-08-03T09:24:49.298Z</time>
      </trkpt>
      <trkpt lat="47.02284" lon="8.91173">
        <ele>1109</ele>
        <time>2021-08-03T09:24:50.298Z</time>
      </trkpt>
      <trkpt lat="47.02284" lon="8.91172">
        <ele>1109</ele>
        <time>2021-08-03T09:24:51.299Z</time>
      </trkpt>
      <trkpt lat="47.02284" lon="8.91172">
        <ele>1109</ele>
        <time>2021-08-03T09:24:52.298Z</time>
      </trkpt>
      <trkpt lat="47.02284" lon="8.91171">
        <ele>1109</ele>
        <time>2021-08-03T09:24:53.298Z</time>
      </trkpt>
      <trkpt lat="47.02284" lon="8.91171">
        <ele>1109</ele>
        <time>2021-08-03T09:24:54.298Z</time>
      </trkpt>
      <trkpt lat="47.02284" lon="8.9117">
        <ele>1109</ele>
        <time>2021-08-03T09:24:55.298Z</time>
      </trkpt>
      <trkpt lat="47.02284" lon="8.9117">
        <ele>1109</ele>
        <time>2021-08-03T09:24:56.299Z</time>
      </trkpt>
      <trkpt lat="47.02284" lon="8.91169">
        <ele>1110</ele>
        <time>2021-08-03T09:24:57.298Z</time>
      </trkpt>
      <trkpt lat="47.02284" lon="8.91168">
        <ele>1110</ele>
        <time>2021-08-03T09:24:58.298Z</time>
      </trkpt>
      <trkpt lat="47.0228" lon="8.91167">
        <ele>1111</ele>
        <time>2021-08-03T09:24:59.298Z</time>
      </trkpt>
      <trkpt lat="47.02278" lon="8.91167">
        <ele>1111</ele>
        <time>2021-08-03T09:25:00.298Z</time>
      </trkpt>
      <trkpt lat="47.02277" lon="8.91167">
        <ele>1112</ele>
        <time>2021-08-03T09:25:01.298Z</time>
      </trkpt>
      <trkpt lat="47.02279" lon="8.91158">
        <ele>1099</ele>
        <time>2021-08-03T09:25:02.298Z</time>
      </trkpt>
      <trkpt lat="47.02267" lon="8.91158">
        <ele>1090</ele>
        <time>2021-08-03T09:25:03.300Z</time>
      </trkpt>
      <trkpt lat="47.02267" lon="8.91158">
        <ele>1090</ele>
        <time>2021-08-03T09:25:04.299Z</time>
      </trkpt>
      <trkpt lat="47.0227" lon="8.91159">
        <ele>1094</ele>
        <time>2021-08-03T09:25:05.301Z</time>
      </trkpt>
      <trkpt lat="47.02269" lon="8.9116">
        <ele>1094</ele>
        <time>2021-08-03T09:25:06.301Z</time>
      </trkpt>
      <trkpt lat="47.02269" lon="8.9116">
        <ele>1093</ele>
        <time>2021-08-03T09:25:07.301Z</time>
      </trkpt>
      <trkpt lat="47.02269" lon="8.9116">
        <ele>1093</ele>
        <time>2021-08-03T09:25:08.301Z</time>
      </trkpt>
      <trkpt lat="47.02269" lon="8.9116">
        <ele>1092</ele>
        <time>2021-08-03T09:25:09.301Z</time>
      </trkpt>
      <trkpt lat="47.02269" lon="8.91161">
        <ele>1092</ele>
        <time>2021-08-03T09:25:10.300Z</time>
      </trkpt>
      <trkpt lat="47.0227" lon="8.91161">
        <ele>1091</ele>
        <time>2021-08-03T09:25:11.300Z</time>
      </trkpt>
      <trkpt lat="47.02271" lon="8.91163">
        <ele>1088</ele>
        <time>2021-08-03T09:25:12.301Z</time>
      </trkpt>
      <trkpt lat="47.02271" lon="8.91164">
        <ele>1088</ele>
        <time>2021-08-03T09:25:13.301Z</time>
      </trkpt>
      <trkpt lat="47.02271" lon="8.91164">
        <ele>1087</ele>
        <time>2021-08-03T09:25:14.301Z</time>
      </trkpt>
      <trkpt lat="47.02271" lon="8.91165">
        <ele>1087</ele>
        <time>2021-08-03T09:25:15.301Z</time>
      </trkpt>
      <trkpt lat="47.02271" lon="8.91167">
        <ele>1087</ele>
        <time>2021-08-03T09:25:16.300Z</time>
      </trkpt>
      <trkpt lat="47.02272" lon="8.91168">
        <ele>1086</ele>
        <time>2021-08-03T09:25:17.301Z</time>
      </trkpt>
      <trkpt lat="47.02272" lon="8.91169">
        <ele>1086</ele>
        <time>2021-08-03T09:25:18.301Z</time>
      </trkpt>
      <trkpt lat="47.02271" lon="8.91169">
        <ele>1087</ele>
        <time>2021-08-03T09:25:19.301Z</time>
      </trkpt>
      <trkpt lat="47.02273" lon="8.91165">
        <ele>1093</ele>
        <time>2021-08-03T09:25:20.301Z</time>
      </trkpt>
      <trkpt lat="47.02273" lon="8.91165">
        <ele>1093</ele>
        <time>2021-08-03T09:25:21.301Z</time>
      </trkpt>
      <trkpt lat="47.02273" lon="8.91165">
        <ele>1094</ele>
        <time>2021-08-03T09:25:22.301Z</time>
      </trkpt>
      <trkpt lat="47.02273" lon="8.91164">
        <ele>1095</ele>
        <time>2021-08-03T09:25:23.302Z</time>
      </trkpt>
      <trkpt lat="47.02273" lon="8.91163">
        <ele>1095</ele>
        <time>2021-08-03T09:25:24.302Z</time>
      </trkpt>
      <trkpt lat="47.02272" lon="8.91162">
        <ele>1095</ele>
        <time>2021-08-03T09:25:25.303Z</time>
      </trkpt>
      <trkpt lat="47.02272" lon="8.9116">
        <ele>1096</ele>
        <time>2021-08-03T09:25:26.302Z</time>
      </trkpt>
      <trkpt lat="47.02272" lon="8.91158">
        <ele>1096</ele>
        <time>2021-08-03T09:25:27.302Z</time>
      </trkpt>
      <trkpt lat="47.02272" lon="8.91156">
        <ele>1096</ele>
        <time>2021-08-03T09:25:28.303Z</time>
      </trkpt>
      <trkpt lat="47.02273" lon="8.91155">
        <ele>1096</ele>
        <time>2021-08-03T09:25:29.302Z</time>
      </trkpt>
      <trkpt lat="47.02273" lon="8.91153">
        <ele>1096</ele>
        <time>2021-08-03T09:25:30.302Z</time>
      </trkpt>
      <trkpt lat="47.02273" lon="8.91152">
        <ele>1096</ele>
        <time>2021-08-03T09:25:31.302Z</time>
      </trkpt>
      <trkpt lat="47.02274" lon="8.9115">
        <ele>1096</ele>
        <time>2021-08-03T09:25:32.303Z</time>
      </trkpt>
      <trkpt lat="47.02274" lon="8.91149">
        <ele>1096</ele>
        <time>2021-08-03T09:25:33.302Z</time>
      </trkpt>
      <trkpt lat="47.02274" lon="8.91147">
        <ele>1095</ele>
        <time>2021-08-03T09:25:34.302Z</time>
      </trkpt>
      <trkpt lat="47.02273" lon="8.91145">
        <ele>1095</ele>
        <time>2021-08-03T09:25:35.302Z</time>
      </trkpt>
      <trkpt lat="47.02274" lon="8.91144">
        <ele>1095</ele>
        <time>2021-08-03T09:25:36.302Z</time>
      </trkpt>
      <trkpt lat="47.02275" lon="8.91143">
        <ele>1095</ele>
        <time>2021-08-03T09:25:37.303Z</time>
      </trkpt>
      <trkpt lat="47.02275" lon="8.91142">
        <ele>1095</ele>
        <time>2021-08-03T09:25:38.302Z</time>
      </trkpt>
      <trkpt lat="47.02276" lon="8.9114">
        <ele>1095</ele>
        <time>2021-08-03T09:25:39.302Z</time>
      </trkpt>
      <trkpt lat="47.02277" lon="8.91138">
        <ele>1095</ele>
        <time>2021-08-03T09:25:40.302Z</time>
      </trkpt>
      <trkpt lat="47.02276" lon="8.91136">
        <ele>1094</ele>
        <time>2021-08-03T09:25:41.303Z</time>
      </trkpt>
      <trkpt lat="47.02276" lon="8.91133">
        <ele>1094</ele>
        <time>2021-08-03T09:25:42.302Z</time>
      </trkpt>
      <trkpt lat="47.02276" lon="8.91131">
        <ele>1094</ele>
        <time>2021-08-03T09:25:43.302Z</time>
      </trkpt>
      <trkpt lat="47.02277" lon="8.91129">
        <ele>1093</ele>
        <time>2021-08-03T09:25:44.302Z</time>
      </trkpt>
      <trkpt lat="47.02278" lon="8.91127">
        <ele>1093</ele>
        <time>2021-08-03T09:25:45.302Z</time>
      </trkpt>
      <trkpt lat="47.02278" lon="8.91126">
        <ele>1093</ele>
        <time>2021-08-03T09:25:46.302Z</time>
      </trkpt>
      <trkpt lat="47.02278" lon="8.91126">
        <ele>1093</ele>
        <time>2021-08-03T09:25:47.302Z</time>
      </trkpt>
      <trkpt lat="47.02279" lon="8.91124">
        <ele>1094</ele>
        <time>2021-08-03T09:25:48.302Z</time>
      </trkpt>
      <trkpt lat="47.02279" lon="8.91123">
        <ele>1094</ele>
        <time>2021-08-03T09:25:49.302Z</time>
      </trkpt>
      <trkpt lat="47.0228" lon="8.91122">
        <ele>1094</ele>
        <time>2021-08-03T09:25:50.302Z</time>
      </trkpt>
      <trkpt lat="47.02281" lon="8.91121">
        <ele>1094</ele>
        <time>2021-08-03T09:25:51.302Z</time>
      </trkpt>
      <trkpt lat="47.02282" lon="8.91119">
        <ele>1094</ele>
        <time>2021-08-03T09:25:52.302Z</time>
      </trkpt>
      <trkpt lat="47.02283" lon="8.91118">
        <ele>1094</ele>
        <time>2021-08-03T09:25:53.302Z</time>
      </trkpt>
      <trkpt lat="47.02283" lon="8.91116">
        <ele>1094</ele>
        <time>2021-08-03T09:25:54.302Z</time>
      </trkpt>
      <trkpt lat="47.02284" lon="8.91115">
        <ele>1093</ele>
        <time>2021-08-03T09:25:55.302Z</time>
      </trkpt>
      <trkpt lat="47.02284" lon="8.91114">
        <ele>1093</ele>
        <time>2021-08-03T09:25:56.302Z</time>
      </trkpt>
      <trkpt lat="47.02284" lon="8.91113">
        <ele>1092</ele>
        <time>2021-08-03T09:25:57.302Z</time>
      </trkpt>
      <trkpt lat="47.02283" lon="8.91112">
        <ele>1092</ele>
        <time>2021-08-03T09:25:58.302Z</time>
      </trkpt>
      <trkpt lat="47.02283" lon="8.91111">
        <ele>1093</ele>
        <time>2021-08-03T09:25:59.302Z</time>
      </trkpt>
      <trkpt lat="47.02283" lon="8.91111">
        <ele>1093</ele>
        <time>2021-08-03T09:26:00.302Z</time>
      </trkpt>
      <trkpt lat="47.02281" lon="8.9111">
        <ele>1093</ele>
        <time>2021-08-03T09:26:01.302Z</time>
      </trkpt>
      <trkpt lat="47.02281" lon="8.9111">
        <ele>1094</ele>
        <time>2021-08-03T09:26:02.302Z</time>
      </trkpt>
      <trkpt lat="47.02282" lon="8.91108">
        <ele>1096</ele>
        <time>2021-08-03T09:26:03.303Z</time>
      </trkpt>
      <trkpt lat="47.02282" lon="8.91108">
        <ele>1096</ele>
        <time>2021-08-03T09:26:04.303Z</time>
      </trkpt>
      <trkpt lat="47.02282" lon="8.91108">
        <ele>1096</ele>
        <time>2021-08-03T09:26:05.302Z</time>
      </trkpt>
      <trkpt lat="47.02281" lon="8.9111">
        <ele>1099</ele>
        <time>2021-08-03T09:26:06.302Z</time>
      </trkpt>
      <trkpt lat="47.02281" lon="8.9111">
        <ele>1100</ele>
        <time>2021-08-03T09:26:07.302Z</time>
      </trkpt>
      <trkpt lat="47.02281" lon="8.9111">
        <ele>1100</ele>
        <time>2021-08-03T09:26:08.302Z</time>
      </trkpt>
      <trkpt lat="47.02283" lon="8.91109">
        <ele>1101</ele>
        <time>2021-08-03T09:26:09.303Z</time>
      </trkpt>
      <trkpt lat="47.02284" lon="8.91108">
        <ele>1101</ele>
        <time>2021-08-03T09:26:10.302Z</time>
      </trkpt>
      <trkpt lat="47.02285" lon="8.91108">
        <ele>1101</ele>
        <time>2021-08-03T09:26:11.303Z</time>
      </trkpt>
      <trkpt lat="47.02285" lon="8.91107">
        <ele>1102</ele>
        <time>2021-08-03T09:26:12.302Z</time>
      </trkpt>
      <trkpt lat="47.02286" lon="8.91107">
        <ele>1103</ele>
        <time>2021-08-03T09:26:13.302Z</time>
      </trkpt>
      <trkpt lat="47.02287" lon="8.91106">
        <ele>1104</ele>
        <time>2021-08-03T09:26:14.302Z</time>
      </trkpt>
      <trkpt lat="47.02287" lon="8.91106">
        <ele>1105</ele>
        <time>2021-08-03T09:26:15.302Z</time>
      </trkpt>
      <trkpt lat="47.02288" lon="8.91105">
        <ele>1106</ele>
        <time>2021-08-03T09:26:16.302Z</time>
      </trkpt>
      <trkpt lat="47.02289" lon="8.91104">
        <ele>1106</ele>
        <time>2021-08-03T09:26:17.302Z</time>
      </trkpt>
      <trkpt lat="47.02289" lon="8.91103">
        <ele>1107</ele>
        <time>2021-08-03T09:26:18.302Z</time>
      </trkpt>
      <trkpt lat="47.0229" lon="8.91103">
        <ele>1107</ele>
        <time>2021-08-03T09:26:19.302Z</time>
      </trkpt>
      <trkpt lat="47.0229" lon="8.91103">
        <ele>1108</ele>
        <time>2021-08-03T09:26:20.303Z</time>
      </trkpt>
      <trkpt lat="47.02291" lon="8.91103">
        <ele>1108</ele>
        <time>2021-08-03T09:26:21.303Z</time>
      </trkpt>
      <trkpt lat="47.02292" lon="8.91103">
        <ele>1109</ele>
        <time>2021-08-03T09:26:22.303Z</time>
      </trkpt>
      <trkpt lat="47.02292" lon="8.91104">
        <ele>1110</ele>
        <time>2021-08-03T09:26:23.302Z</time>
      </trkpt>
      <trkpt lat="47.02292" lon="8.91104">
        <ele>1111</ele>
        <time>2021-08-03T09:26:24.302Z</time>
      </trkpt>
      <trkpt lat="47.02289" lon="8.911">
        <ele>1116</ele>
        <time>2021-08-03T09:26:25.303Z</time>
      </trkpt>
      <trkpt lat="47.02289" lon="8.91099">
        <ele>1116</ele>
        <time>2021-08-03T09:26:26.302Z</time>
      </trkpt>
      <trkpt lat="47.02289" lon="8.91099">
        <ele>1116</ele>
        <time>2021-08-03T09:26:27.302Z</time>
      </trkpt>
      <trkpt lat="47.02289" lon="8.911">
        <ele>1116</ele>
        <time>2021-08-03T09:26:28.303Z</time>
      </trkpt>
      <trkpt lat="47.02288" lon="8.911">
        <ele>1117</ele>
        <time>2021-08-03T09:26:29.303Z</time>
      </trkpt>
      <trkpt lat="47.02286" lon="8.911">
        <ele>1117</ele>
        <time>2021-08-03T09:26:30.304Z</time>
      </trkpt>
      <trkpt lat="47.02286" lon="8.911">
        <ele>1117</ele>
        <time>2021-08-03T09:26:31.303Z</time>
      </trkpt>
      <trkpt lat="47.02287" lon="8.91102">
        <ele>1117</ele>
        <time>2021-08-03T09:26:32.303Z</time>
      </trkpt>
      <trkpt lat="47.02285" lon="8.91102">
        <ele>1118</ele>
        <time>2021-08-03T09:26:33.303Z</time>
      </trkpt>
      <trkpt lat="47.02285" lon="8.91102">
        <ele>1118</ele>
        <time>2021-08-03T09:26:34.303Z</time>
      </trkpt>
      <trkpt lat="47.02285" lon="8.91102">
        <ele>1118</ele>
        <time>2021-08-03T09:26:35.303Z</time>
      </trkpt>
      <trkpt lat="47.02286" lon="8.91102">
        <ele>1118</ele>
        <time>2021-08-03T09:26:36.304Z</time>
      </trkpt>
      <trkpt lat="47.02286" lon="8.91102">
        <ele>1117</ele>
        <time>2021-08-03T09:26:37.304Z</time>
      </trkpt>
      <trkpt lat="47.02287" lon="8.91103">
        <ele>1116</ele>
        <time>2021-08-03T09:26:38.304Z</time>
      </trkpt>
      <trkpt lat="47.02287" lon="8.91104">
        <ele>1116</ele>
        <time>2021-08-03T09:26:39.304Z</time>
      </trkpt>
      <trkpt lat="47.02288" lon="8.91103">
        <ele>1116</ele>
        <time>2021-08-03T09:26:40.303Z</time>
      </trkpt>
      <trkpt lat="47.02288" lon="8.91103">
        <ele>1115</ele>
        <time>2021-08-03T09:26:41.304Z</time>
      </trkpt>
      <trkpt lat="47.02288" lon="8.91104">
        <ele>1114</ele>
        <time>2021-08-03T09:26:42.304Z</time>
      </trkpt>
      <trkpt lat="47.02288" lon="8.91104">
        <ele>1114</ele>
        <time>2021-08-03T09:26:43.303Z</time>
      </trkpt>
      <trkpt lat="47.02289" lon="8.91104">
        <ele>1113</ele>
        <time>2021-08-03T09:26:44.304Z</time>
      </trkpt>
      <trkpt lat="47.0229" lon="8.91104">
        <ele>1113</ele>
        <time>2021-08-03T09:26:45.304Z</time>
      </trkpt>
      <trkpt lat="47.02291" lon="8.91103">
        <ele>1112</ele>
        <time>2021-08-03T09:26:46.304Z</time>
      </trkpt>
      <trkpt lat="47.0229" lon="8.91104">
        <ele>1112</ele>
        <time>2021-08-03T09:26:47.305Z</time>
      </trkpt>
      <trkpt lat="47.02289" lon="8.91104">
        <ele>1112</ele>
        <time>2021-08-03T09:26:48.305Z</time>
      </trkpt>
      <trkpt lat="47.02288" lon="8.91104">
        <ele>1112</ele>
        <time>2021-08-03T09:26:49.304Z</time>
      </trkpt>
      <trkpt lat="47.02288" lon="8.91104">
        <ele>1112</ele>
        <time>2021-08-03T09:26:50.305Z</time>
      </trkpt>
      <trkpt lat="47.02287" lon="8.91104">
        <ele>1112</ele>
        <time>2021-08-03T09:26:51.305Z</time>
      </trkpt>
      <trkpt lat="47.02287" lon="8.91104">
        <ele>1112</ele>
        <time>2021-08-03T09:26:52.304Z</time>
      </trkpt>
      <trkpt lat="47.02287" lon="8.91105">
        <ele>1112</ele>
        <time>2021-08-03T09:26:53.305Z</time>
      </trkpt>
      <trkpt lat="47.02287" lon="8.91105">
        <ele>1112</ele>
        <time>2021-08-03T09:26:54.305Z</time>
      </trkpt>
      <trkpt lat="47.02287" lon="8.91105">
        <ele>1112</ele>
        <time>2021-08-03T09:26:55.304Z</time>
      </trkpt>
      <trkpt lat="47.02288" lon="8.91105">
        <ele>1112</ele>
        <time>2021-08-03T09:26:56.305Z</time>
      </trkpt>
      <trkpt lat="47.02289" lon="8.91105">
        <ele>1112</ele>
        <time>2021-08-03T09:26:57.305Z</time>
      </trkpt>
      <trkpt lat="47.02289" lon="8.91105">
        <ele>1112</ele>
        <time>2021-08-03T09:26:58.305Z</time>
      </trkpt>
      <trkpt lat="47.0229" lon="8.91103">
        <ele>1112</ele>
        <time>2021-08-03T09:26:59.305Z</time>
      </trkpt>
      <trkpt lat="47.02289" lon="8.91103">
        <ele>1112</ele>
        <time>2021-08-03T09:27:00.305Z</time>
      </trkpt>
      <trkpt lat="47.02289" lon="8.91104">
        <ele>1112</ele>
        <time>2021-08-03T09:27:01.304Z</time>
      </trkpt>
      <trkpt lat="47.02289" lon="8.91103">
        <ele>1112</ele>
        <time>2021-08-03T09:27:02.304Z</time>
      </trkpt>
      <trkpt lat="47.0229" lon="8.91103">
        <ele>1111</ele>
        <time>2021-08-03T09:27:03.304Z</time>
      </trkpt>
      <trkpt lat="47.0229" lon="8.91102">
        <ele>1111</ele>
        <time>2021-08-03T09:27:04.304Z</time>
      </trkpt>
      <trkpt lat="47.0229" lon="8.91102">
        <ele>1111</ele>
        <time>2021-08-03T09:27:05.305Z</time>
      </trkpt>
      <trkpt lat="47.02287" lon="8.91107">
        <ele>1110</ele>
        <time>2021-08-03T09:27:06.305Z</time>
      </trkpt>
      <trkpt lat="47.02287" lon="8.91107">
        <ele>1110</ele>
        <time>2021-08-03T09:27:07.305Z</time>
      </trkpt>
      <trkpt lat="47.02286" lon="8.91108">
        <ele>1110</ele>
        <time>2021-08-03T09:27:08.304Z</time>
      </trkpt>
      <trkpt lat="47.02287" lon="8.91109">
        <ele>1099</ele>
        <time>2021-08-03T09:27:09.305Z</time>
      </trkpt>
      <trkpt lat="47.02289" lon="8.91109">
        <ele>1096</ele>
        <time>2021-08-03T09:27:10.306Z</time>
      </trkpt>
      <trkpt lat="47.0229" lon="8.91108">
        <ele>1096</ele>
        <time>2021-08-03T09:27:11.305Z</time>
      </trkpt>
      <trkpt lat="47.0229" lon="8.91108">
        <ele>1096</ele>
        <time>2021-08-03T09:27:12.306Z</time>
      </trkpt>
      <trkpt lat="47.0229" lon="8.91108">
        <ele>1096</ele>
        <time>2021-08-03T09:27:13.306Z</time>
      </trkpt>
      <trkpt lat="47.02291" lon="8.91106">
        <ele>1097</ele>
        <time>2021-08-03T09:27:14.306Z</time>
      </trkpt>
      <trkpt lat="47.02291" lon="8.91106">
        <ele>1097</ele>
        <time>2021-08-03T09:27:15.306Z</time>
      </trkpt>
      <trkpt lat="47.02291" lon="8.91107">
        <ele>1097</ele>
        <time>2021-08-03T09:27:16.307Z</time>
      </trkpt>
      <trkpt lat="47.02291" lon="8.91109">
        <ele>1100</ele>
        <time>2021-08-03T09:27:17.309Z</time>
      </trkpt>
      <trkpt lat="47.02291" lon="8.9111">
        <ele>1101</ele>
        <time>2021-08-03T09:27:18.309Z</time>
      </trkpt>
      <trkpt lat="47.0229" lon="8.9111">
        <ele>1102</ele>
        <time>2021-08-03T09:27:19.308Z</time>
      </trkpt>
      <trkpt lat="47.0229" lon="8.9111">
        <ele>1103</ele>
        <time>2021-08-03T09:27:20.308Z</time>
      </trkpt>
      <trkpt lat="47.02288" lon="8.9111">
        <ele>1104</ele>
        <time>2021-08-03T09:27:21.308Z</time>
      </trkpt>
      <trkpt lat="47.02288" lon="8.91111">
        <ele>1104</ele>
        <time>2021-08-03T09:27:22.308Z</time>
      </trkpt>
      <trkpt lat="47.02287" lon="8.91112">
        <ele>1100</ele>
        <time>2021-08-03T09:27:23.308Z</time>
      </trkpt>
      <trkpt lat="47.02289" lon="8.91108">
        <ele>1105</ele>
        <time>2021-08-03T09:27:24.309Z</time>
      </trkpt>
      <trkpt lat="47.02288" lon="8.91108">
        <ele>1105</ele>
        <time>2021-08-03T09:27:25.309Z</time>
      </trkpt>
      <trkpt lat="47.02288" lon="8.91108">
        <ele>1105</ele>
        <time>2021-08-03T09:27:26.308Z</time>
      </trkpt>
      <trkpt lat="47.02288" lon="8.91107">
        <ele>1104</ele>
        <time>2021-08-03T09:27:27.309Z</time>
      </trkpt>
      <trkpt lat="47.02288" lon="8.91107">
        <ele>1104</ele>
        <time>2021-08-03T09:27:28.309Z</time>
      </trkpt>
      <trkpt lat="47.0229" lon="8.91099">
        <ele>1100</ele>
        <time>2021-08-03T09:27:29.308Z</time>
      </trkpt>
      <trkpt lat="47.02289" lon="8.91099">
        <ele>1100</ele>
        <time>2021-08-03T09:27:30.309Z</time>
      </trkpt>
      <trkpt lat="47.02284" lon="8.91097">
        <ele>1104</ele>
        <time>2021-08-03T09:27:31.310Z</time>
      </trkpt>
      <trkpt lat="47.02284" lon="8.91097">
        <ele>1104</ele>
        <time>2021-08-03T09:27:32.309Z</time>
      </trkpt>
      <trkpt lat="47.02284" lon="8.91097">
        <ele>1103</ele>
        <time>2021-08-03T09:27:33.309Z</time>
      </trkpt>
      <trkpt lat="47.02283" lon="8.91097">
        <ele>1103</ele>
        <time>2021-08-03T09:27:34.309Z</time>
      </trkpt>
      <trkpt lat="47.02279" lon="8.91095">
        <ele>1113</ele>
        <time>2021-08-03T09:27:35.310Z</time>
      </trkpt>
      <trkpt lat="47.02279" lon="8.91094">
        <ele>1114</ele>
        <time>2021-08-03T09:27:36.310Z</time>
      </trkpt>
      <trkpt lat="47.02279" lon="8.91095">
        <ele>1114</ele>
        <time>2021-08-03T09:27:37.309Z</time>
      </trkpt>
      <trkpt lat="47.02279" lon="8.91096">
        <ele>1115</ele>
        <time>2021-08-03T09:27:38.310Z</time>
      </trkpt>
      <trkpt lat="47.02279" lon="8.91095">
        <ele>1110</ele>
        <time>2021-08-03T09:27:39.310Z</time>
      </trkpt>
      <trkpt lat="47.02279" lon="8.91096">
        <ele>1110</ele>
        <time>2021-08-03T09:27:40.309Z</time>
      </trkpt>
      <trkpt lat="47.02279" lon="8.91095">
        <ele>1109</ele>
        <time>2021-08-03T09:27:41.310Z</time>
      </trkpt>
      <trkpt lat="47.02279" lon="8.91095">
        <ele>1107</ele>
        <time>2021-08-03T09:27:42.309Z</time>
      </trkpt>
      <trkpt lat="47.02279" lon="8.91096">
        <ele>1107</ele>
        <time>2021-08-03T09:27:43.309Z</time>
      </trkpt>
      <trkpt lat="47.02279" lon="8.91096">
        <ele>1107</ele>
        <time>2021-08-03T09:27:44.309Z</time>
      </trkpt>
      <trkpt lat="47.02279" lon="8.91095">
        <ele>1107</ele>
        <time>2021-08-03T09:27:45.310Z</time>
      </trkpt>
      <trkpt lat="47.02279" lon="8.91094">
        <ele>1107</ele>
        <time>2021-08-03T09:27:46.309Z</time>
      </trkpt>
      <trkpt lat="47.02279" lon="8.91094">
        <ele>1107</ele>
        <time>2021-08-03T09:27:47.309Z</time>
      </trkpt>
      <trkpt lat="47.02279" lon="8.91094">
        <ele>1107</ele>
        <time>2021-08-03T09:27:48.309Z</time>
      </trkpt>
      <trkpt lat="47.0228" lon="8.91094">
        <ele>1107</ele>
        <time>2021-08-03T09:27:49.309Z</time>
      </trkpt>
      <trkpt lat="47.0228" lon="8.91094">
        <ele>1106</ele>
        <time>2021-08-03T09:27:50.309Z</time>
      </trkpt>
      <trkpt lat="47.02281" lon="8.91096">
        <ele>1105</ele>
        <time>2021-08-03T09:27:51.310Z</time>
      </trkpt>
      <trkpt lat="47.02282" lon="8.91098">
        <ele>1104</ele>
        <time>2021-08-03T09:27:52.309Z</time>
      </trkpt>
      <trkpt lat="47.02282" lon="8.911">
        <ele>1104</ele>
        <time>2021-08-03T09:27:53.310Z</time>
      </trkpt>
      <trkpt lat="47.02283" lon="8.91101">
        <ele>1103</ele>
        <time>2021-08-03T09:27:54.310Z</time>
      </trkpt>
      <trkpt lat="47.02283" lon="8.91103">
        <ele>1103</ele>
        <time>2021-08-03T09:27:55.309Z</time>
      </trkpt>
      <trkpt lat="47.02283" lon="8.91104">
        <ele>1102</ele>
        <time>2021-08-03T09:27:56.310Z</time>
      </trkpt>
      <trkpt lat="47.02283" lon="8.91103">
        <ele>1101</ele>
        <time>2021-08-03T09:27:57.310Z</time>
      </trkpt>
      <trkpt lat="47.02284" lon="8.91104">
        <ele>1101</ele>
        <time>2021-08-03T09:27:58.309Z</time>
      </trkpt>
      <trkpt lat="47.02284" lon="8.91104">
        <ele>1100</ele>
        <time>2021-08-03T09:27:59.310Z</time>
      </trkpt>
      <trkpt lat="47.02285" lon="8.91104">
        <ele>1099</ele>
        <time>2021-08-03T09:28:00.309Z</time>
      </trkpt>
      <trkpt lat="47.02285" lon="8.91104">
        <ele>1098</ele>
        <time>2021-08-03T09:28:01.311Z</time>
      </trkpt>
      <trkpt lat="47.02285" lon="8.91104">
        <ele>1098</ele>
        <time>2021-08-03T09:28:02.312Z</time>
      </trkpt>
      <trkpt lat="47.02285" lon="8.91104">
        <ele>1098</ele>
        <time>2021-08-03T09:28:03.312Z</time>
      </trkpt>
      <trkpt lat="47.02286" lon="8.91104">
        <ele>1098</ele>
        <time>2021-08-03T09:28:04.312Z</time>
      </trkpt>
      <trkpt lat="47.02286" lon="8.91104">
        <ele>1098</ele>
        <time>2021-08-03T09:28:05.312Z</time>
      </trkpt>
      <trkpt lat="47.02286" lon="8.91097">
        <ele>1101</ele>
        <time>2021-08-03T09:28:06.312Z</time>
      </trkpt>
      <trkpt lat="47.02286" lon="8.91097">
        <ele>1101</ele>
        <time>2021-08-03T09:28:07.312Z</time>
      </trkpt>
      <trkpt lat="47.02286" lon="8.91097">
        <ele>1102</ele>
        <time>2021-08-03T09:28:08.312Z</time>
      </trkpt>
      <trkpt lat="47.02286" lon="8.91096">
        <ele>1102</ele>
        <time>2021-08-03T09:28:09.312Z</time>
      </trkpt>
      <trkpt lat="47.02286" lon="8.91095">
        <ele>1106</ele>
        <time>2021-08-03T09:28:10.312Z</time>
      </trkpt>
      <trkpt lat="47.02286" lon="8.91097">
        <ele>1102</ele>
        <time>2021-08-03T09:28:11.313Z</time>
      </trkpt>
      <trkpt lat="47.02286" lon="8.91098">
        <ele>1101</ele>
        <time>2021-08-03T09:28:12.312Z</time>
      </trkpt>
      <trkpt lat="47.02285" lon="8.91099">
        <ele>1099</ele>
        <time>2021-08-03T09:28:13.312Z</time>
      </trkpt>
      <trkpt lat="47.02287" lon="8.91103">
        <ele>1101</ele>
        <time>2021-08-03T09:28:14.313Z</time>
      </trkpt>
      <trkpt lat="47.02287" lon="8.91106">
        <ele>1102</ele>
        <time>2021-08-03T09:28:15.313Z</time>
      </trkpt>
      <trkpt lat="47.02286" lon="8.91109">
        <ele>1103</ele>
        <time>2021-08-03T09:28:16.313Z</time>
      </trkpt>
      <trkpt lat="47.02289" lon="8.91102">
        <ele>1100</ele>
        <time>2021-08-03T09:28:17.315Z</time>
      </trkpt>
      <trkpt lat="47.02289" lon="8.91103">
        <ele>1100</ele>
        <time>2021-08-03T09:28:18.316Z</time>
      </trkpt>
      <trkpt lat="47.02284" lon="8.911">
        <ele>1097</ele>
        <time>2021-08-03T09:28:19.316Z</time>
      </trkpt>
      <trkpt lat="47.02284" lon="8.911">
        <ele>1097</ele>
        <time>2021-08-03T09:28:20.316Z</time>
      </trkpt>
      <trkpt lat="47.02285" lon="8.91099">
        <ele>1098</ele>
        <time>2021-08-03T09:28:21.315Z</time>
      </trkpt>
      <trkpt lat="47.02285" lon="8.91098">
        <ele>1098</ele>
        <time>2021-08-03T09:28:22.315Z</time>
      </trkpt>
      <trkpt lat="47.02284" lon="8.91098">
        <ele>1099</ele>
        <time>2021-08-03T09:28:23.315Z</time>
      </trkpt>
      <trkpt lat="47.02287" lon="8.91098">
        <ele>1098</ele>
        <time>2021-08-03T09:28:24.315Z</time>
      </trkpt>
      <trkpt lat="47.0229" lon="8.91096">
        <ele>1106</ele>
        <time>2021-08-03T09:28:25.316Z</time>
      </trkpt>
      <trkpt lat="47.02291" lon="8.91095">
        <ele>1107</ele>
        <time>2021-08-03T09:28:26.316Z</time>
      </trkpt>
      <trkpt lat="47.02292" lon="8.91095">
        <ele>1107</ele>
        <time>2021-08-03T09:28:27.315Z</time>
      </trkpt>
      <trkpt lat="47.02293" lon="8.91095">
        <ele>1108</ele>
        <time>2021-08-03T09:28:28.316Z</time>
      </trkpt>
      <trkpt lat="47.02294" lon="8.91094">
        <ele>1108</ele>
        <time>2021-08-03T09:28:29.315Z</time>
      </trkpt>
      <trkpt lat="47.02295" lon="8.91093">
        <ele>1108</ele>
        <time>2021-08-03T09:28:30.315Z</time>
      </trkpt>
      <trkpt lat="47.02295" lon="8.91092">
        <ele>1109</ele>
        <time>2021-08-03T09:28:31.315Z</time>
      </trkpt>
      <trkpt lat="47.02296" lon="8.91091">
        <ele>1109</ele>
        <time>2021-08-03T09:28:32.315Z</time>
      </trkpt>
      <trkpt lat="47.02296" lon="8.9109">
        <ele>1109</ele>
        <time>2021-08-03T09:28:33.316Z</time>
      </trkpt>
      <trkpt lat="47.02296" lon="8.91089">
        <ele>1110</ele>
        <time>2021-08-03T09:28:34.315Z</time>
      </trkpt>
      <trkpt lat="47.02297" lon="8.91088">
        <ele>1110</ele>
        <time>2021-08-03T09:28:35.316Z</time>
      </trkpt>
      <trkpt lat="47.02297" lon="8.91087">
        <ele>1110</ele>
        <time>2021-08-03T09:28:36.316Z</time>
      </trkpt>
      <trkpt lat="47.02297" lon="8.91085">
        <ele>1110</ele>
        <time>2021-08-03T09:28:37.316Z</time>
      </trkpt>
      <trkpt lat="47.02297" lon="8.91084">
        <ele>1110</ele>
        <time>2021-08-03T09:28:38.315Z</time>
      </trkpt>
      <trkpt lat="47.02297" lon="8.91083">
        <ele>1110</ele>
        <time>2021-08-03T09:28:39.315Z</time>
      </trkpt>
      <trkpt lat="47.02298" lon="8.91082">
        <ele>1111</ele>
        <time>2021-08-03T09:28:40.316Z</time>
      </trkpt>
      <trkpt lat="47.02299" lon="8.91081">
        <ele>1111</ele>
        <time>2021-08-03T09:28:41.316Z</time>
      </trkpt>
      <trkpt lat="47.023" lon="8.9108">
        <ele>1111</ele>
        <time>2021-08-03T09:28:42.315Z</time>
      </trkpt>
      <trkpt lat="47.02301" lon="8.91079">
        <ele>1112</ele>
        <time>2021-08-03T09:28:43.315Z</time>
      </trkpt>
      <trkpt lat="47.02302" lon="8.91079">
        <ele>1112</ele>
        <time>2021-08-03T09:28:44.316Z</time>
      </trkpt>
      <trkpt lat="47.02302" lon="8.91078">
        <ele>1112</ele>
        <time>2021-08-03T09:28:45.316Z</time>
      </trkpt>
      <trkpt lat="47.02302" lon="8.91078">
        <ele>1112</ele>
        <time>2021-08-03T09:28:46.316Z</time>
      </trkpt>
      <trkpt lat="47.02302" lon="8.91077">
        <ele>1112</ele>
        <time>2021-08-03T09:28:47.315Z</time>
      </trkpt>
      <trkpt lat="47.02302" lon="8.91077">
        <ele>1112</ele>
        <time>2021-08-03T09:28:48.316Z</time>
      </trkpt>
      <trkpt lat="47.02303" lon="8.91077">
        <ele>1112</ele>
        <time>2021-08-03T09:28:49.315Z</time>
      </trkpt>
      <trkpt lat="47.02303" lon="8.91077">
        <ele>1112</ele>
        <time>2021-08-03T09:28:50.316Z</time>
      </trkpt>
      <trkpt lat="47.02304" lon="8.91076">
        <ele>1112</ele>
        <time>2021-08-03T09:28:51.316Z</time>
      </trkpt>
      <trkpt lat="47.02304" lon="8.91076">
        <ele>1113</ele>
        <time>2021-08-03T09:28:52.316Z</time>
      </trkpt>
      <trkpt lat="47.02305" lon="8.91076">
        <ele>1113</ele>
        <time>2021-08-03T09:28:53.316Z</time>
      </trkpt>
      <trkpt lat="47.02307" lon="8.91075">
        <ele>1114</ele>
        <time>2021-08-03T09:28:54.315Z</time>
      </trkpt>
      <trkpt lat="47.02309" lon="8.91076">
        <ele>1114</ele>
        <time>2021-08-03T09:28:55.315Z</time>
      </trkpt>
      <trkpt lat="47.0231" lon="8.91076">
        <ele>1115</ele>
        <time>2021-08-03T09:28:56.316Z</time>
      </trkpt>
      <trkpt lat="47.0231" lon="8.91075">
        <ele>1116</ele>
        <time>2021-08-03T09:28:57.315Z</time>
      </trkpt>
      <trkpt lat="47.02311" lon="8.91074">
        <ele>1117</ele>
        <time>2021-08-03T09:28:58.315Z</time>
      </trkpt>
      <trkpt lat="47.02312" lon="8.91073">
        <ele>1118</ele>
        <time>2021-08-03T09:28:59.315Z</time>
      </trkpt>
      <trkpt lat="47.02313" lon="8.91071">
        <ele>1118</ele>
        <time>2021-08-03T09:29:00.316Z</time>
      </trkpt>
      <trkpt lat="47.02313" lon="8.9107">
        <ele>1119</ele>
        <time>2021-08-03T09:29:01.316Z</time>
      </trkpt>
      <trkpt lat="47.02313" lon="8.91069">
        <ele>1119</ele>
        <time>2021-08-03T09:29:02.316Z</time>
      </trkpt>
      <trkpt lat="47.02314" lon="8.91068">
        <ele>1119</ele>
        <time>2021-08-03T09:29:03.315Z</time>
      </trkpt>
      <trkpt lat="47.02315" lon="8.91066">
        <ele>1119</ele>
        <time>2021-08-03T09:29:04.315Z</time>
      </trkpt>
      <trkpt lat="47.02316" lon="8.91065">
        <ele>1119</ele>
        <time>2021-08-03T09:29:05.315Z</time>
      </trkpt>
      <trkpt lat="47.02316" lon="8.91064">
        <ele>1119</ele>
        <time>2021-08-03T09:29:06.316Z</time>
      </trkpt>
      <trkpt lat="47.02317" lon="8.91063">
        <ele>1119</ele>
        <time>2021-08-03T09:29:07.316Z</time>
      </trkpt>
      <trkpt lat="47.02318" lon="8.91062">
        <ele>1118</ele>
        <time>2021-08-03T09:29:08.316Z</time>
      </trkpt>
      <trkpt lat="47.02318" lon="8.91061">
        <ele>1118</ele>
        <time>2021-08-03T09:29:09.315Z</time>
      </trkpt>
      <trkpt lat="47.02318" lon="8.91061">
        <ele>1118</ele>
        <time>2021-08-03T09:29:10.316Z</time>
      </trkpt>
      <trkpt lat="47.02319" lon="8.9106">
        <ele>1119</ele>
        <time>2021-08-03T09:29:11.315Z</time>
      </trkpt>
      <trkpt lat="47.0232" lon="8.9106">
        <ele>1119</ele>
        <time>2021-08-03T09:29:12.315Z</time>
      </trkpt>
      <trkpt lat="47.02321" lon="8.91059">
        <ele>1119</ele>
        <time>2021-08-03T09:29:13.315Z</time>
      </trkpt>
      <trkpt lat="47.02323" lon="8.91059">
        <ele>1119</ele>
        <time>2021-08-03T09:29:14.316Z</time>
      </trkpt>
      <trkpt lat="47.02324" lon="8.91059">
        <ele>1119</ele>
        <time>2021-08-03T09:29:15.315Z</time>
      </trkpt>
      <trkpt lat="47.02325" lon="8.91058">
        <ele>1120</ele>
        <time>2021-08-03T09:29:16.315Z</time>
      </trkpt>
      <trkpt lat="47.02326" lon="8.91056">
        <ele>1120</ele>
        <time>2021-08-03T09:29:17.315Z</time>
      </trkpt>
      <trkpt lat="47.02326" lon="8.91055">
        <ele>1120</ele>
        <time>2021-08-03T09:29:18.316Z</time>
      </trkpt>
      <trkpt lat="47.02326" lon="8.91055">
        <ele>1120</ele>
        <time>2021-08-03T09:29:19.316Z</time>
      </trkpt>
      <trkpt lat="47.02327" lon="8.91053">
        <ele>1119</ele>
        <time>2021-08-03T09:29:20.316Z</time>
      </trkpt>
      <trkpt lat="47.02327" lon="8.91052">
        <ele>1119</ele>
        <time>2021-08-03T09:29:21.316Z</time>
      </trkpt>
      <trkpt lat="47.02327" lon="8.91051">
        <ele>1119</ele>
        <time>2021-08-03T09:29:22.316Z</time>
      </trkpt>
      <trkpt lat="47.02327" lon="8.91051">
        <ele>1118</ele>
        <time>2021-08-03T09:29:23.316Z</time>
      </trkpt>
      <trkpt lat="47.02328" lon="8.9105">
        <ele>1117</ele>
        <time>2021-08-03T09:29:24.315Z</time>
      </trkpt>
      <trkpt lat="47.02328" lon="8.91048">
        <ele>1117</ele>
        <time>2021-08-03T09:29:25.316Z</time>
      </trkpt>
      <trkpt lat="47.02328" lon="8.91047">
        <ele>1117</ele>
        <time>2021-08-03T09:29:26.316Z</time>
      </trkpt>
      <trkpt lat="47.02328" lon="8.91045">
        <ele>1116</ele>
        <time>2021-08-03T09:29:27.316Z</time>
      </trkpt>
      <trkpt lat="47.02327" lon="8.91044">
        <ele>1116</ele>
        <time>2021-08-03T09:29:28.315Z</time>
      </trkpt>
      <trkpt lat="47.02328" lon="8.91043">
        <ele>1115</ele>
        <time>2021-08-03T09:29:29.316Z</time>
      </trkpt>
      <trkpt lat="47.02328" lon="8.91043">
        <ele>1115</ele>
        <time>2021-08-03T09:29:30.315Z</time>
      </trkpt>
      <trkpt lat="47.02328" lon="8.91043">
        <ele>1114</ele>
        <time>2021-08-03T09:29:31.316Z</time>
      </trkpt>
      <trkpt lat="47.02328" lon="8.91042">
        <ele>1114</ele>
        <time>2021-08-03T09:29:32.316Z</time>
      </trkpt>
      <trkpt lat="47.02327" lon="8.91041">
        <ele>1113</ele>
        <time>2021-08-03T09:29:33.315Z</time>
      </trkpt>
      <trkpt lat="47.0233" lon="8.91042">
        <ele>1108</ele>
        <time>2021-08-03T09:29:34.315Z</time>
      </trkpt>
      <trkpt lat="47.02331" lon="8.91041">
        <ele>1107</ele>
        <time>2021-08-03T09:29:35.315Z</time>
      </trkpt>
      <trkpt lat="47.02332" lon="8.91043">
        <ele>1105</ele>
        <time>2021-08-03T09:29:36.315Z</time>
      </trkpt>
      <trkpt lat="47.02333" lon="8.91042">
        <ele>1105</ele>
        <time>2021-08-03T09:29:37.316Z</time>
      </trkpt>
      <trkpt lat="47.02334" lon="8.91042">
        <ele>1105</ele>
        <time>2021-08-03T09:29:38.315Z</time>
      </trkpt>
      <trkpt lat="47.02334" lon="8.9104">
        <ele>1105</ele>
        <time>2021-08-03T09:29:39.316Z</time>
      </trkpt>
      <trkpt lat="47.02335" lon="8.91039">
        <ele>1105</ele>
        <time>2021-08-03T09:29:40.316Z</time>
      </trkpt>
      <trkpt lat="47.02335" lon="8.91039">
        <ele>1105</ele>
        <time>2021-08-03T09:29:41.315Z</time>
      </trkpt>
      <trkpt lat="47.02335" lon="8.91038">
        <ele>1105</ele>
        <time>2021-08-03T09:29:42.316Z</time>
      </trkpt>
      <trkpt lat="47.02336" lon="8.91037">
        <ele>1105</ele>
        <time>2021-08-03T09:29:43.315Z</time>
      </trkpt>
      <trkpt lat="47.02337" lon="8.91037">
        <ele>1105</ele>
        <time>2021-08-03T09:29:44.315Z</time>
      </trkpt>
      <trkpt lat="47.02338" lon="8.91035">
        <ele>1105</ele>
        <time>2021-08-03T09:29:45.316Z</time>
      </trkpt>
      <trkpt lat="47.02338" lon="8.91034">
        <ele>1104</ele>
        <time>2021-08-03T09:29:46.315Z</time>
      </trkpt>
      <trkpt lat="47.02339" lon="8.91033">
        <ele>1104</ele>
        <time>2021-08-03T09:29:47.316Z</time>
      </trkpt>
      <trkpt lat="47.0234" lon="8.91032">
        <ele>1104</ele>
        <time>2021-08-03T09:29:48.316Z</time>
      </trkpt>
      <trkpt lat="47.0234" lon="8.91032">
        <ele>1104</ele>
        <time>2021-08-03T09:29:49.315Z</time>
      </trkpt>
      <trkpt lat="47.02341" lon="8.9103">
        <ele>1104</ele>
        <time>2021-08-03T09:29:50.316Z</time>
      </trkpt>
      <trkpt lat="47.02341" lon="8.91029">
        <ele>1104</ele>
        <time>2021-08-03T09:29:51.316Z</time>
      </trkpt>
      <trkpt lat="47.02342" lon="8.91028">
        <ele>1103</ele>
        <time>2021-08-03T09:29:52.316Z</time>
      </trkpt>
      <trkpt lat="47.02343" lon="8.91026">
        <ele>1103</ele>
        <time>2021-08-03T09:29:53.315Z</time>
      </trkpt>
      <trkpt lat="47.02343" lon="8.91025">
        <ele>1102</ele>
        <time>2021-08-03T09:29:54.316Z</time>
      </trkpt>
      <trkpt lat="47.02344" lon="8.91024">
        <ele>1102</ele>
        <time>2021-08-03T09:29:55.316Z</time>
      </trkpt>
      <trkpt lat="47.02344" lon="8.91023">
        <ele>1101</ele>
        <time>2021-08-03T09:29:56.316Z</time>
      </trkpt>
      <trkpt lat="47.02345" lon="8.91022">
        <ele>1100</ele>
        <time>2021-08-03T09:29:57.316Z</time>
      </trkpt>
      <trkpt lat="47.02345" lon="8.91021">
        <ele>1100</ele>
        <time>2021-08-03T09:29:58.316Z</time>
      </trkpt>
      <trkpt lat="47.02346" lon="8.9102">
        <ele>1099</ele>
        <time>2021-08-03T09:29:59.315Z</time>
      </trkpt>
      <trkpt lat="47.02347" lon="8.91019">
        <ele>1099</ele>
        <time>2021-08-03T09:30:00.316Z</time>
      </trkpt>
      <trkpt lat="47.02347" lon="8.91018">
        <ele>1099</ele>
        <time>2021-08-03T09:30:01.315Z</time>
      </trkpt>
      <trkpt lat="47.02348" lon="8.91017">
        <ele>1099</ele>
        <time>2021-08-03T09:30:02.316Z</time>
      </trkpt>
      <trkpt lat="47.02348" lon="8.91016">
        <ele>1100</ele>
        <time>2021-08-03T09:30:03.316Z</time>
      </trkpt>
      <trkpt lat="47.02349" lon="8.91016">
        <ele>1100</ele>
        <time>2021-08-03T09:30:04.316Z</time>
      </trkpt>
      <trkpt lat="47.02349" lon="8.91015">
        <ele>1100</ele>
        <time>2021-08-03T09:30:05.315Z</time>
      </trkpt>
      <trkpt lat="47.02349" lon="8.91014">
        <ele>1100</ele>
        <time>2021-08-03T09:30:06.316Z</time>
      </trkpt>
      <trkpt lat="47.02348" lon="8.91012">
        <ele>1100</ele>
        <time>2021-08-03T09:30:07.316Z</time>
      </trkpt>
      <trkpt lat="47.02348" lon="8.91011">
        <ele>1100</ele>
        <time>2021-08-03T09:30:08.316Z</time>
      </trkpt>
      <trkpt lat="47.02349" lon="8.91011">
        <ele>1100</ele>
        <time>2021-08-03T09:30:09.315Z</time>
      </trkpt>
      <trkpt lat="47.02349" lon="8.9101">
        <ele>1100</ele>
        <time>2021-08-03T09:30:10.315Z</time>
      </trkpt>
      <trkpt lat="47.02349" lon="8.91009">
        <ele>1100</ele>
        <time>2021-08-03T09:30:11.316Z</time>
      </trkpt>
      <trkpt lat="47.0235" lon="8.91009">
        <ele>1101</ele>
        <time>2021-08-03T09:30:12.315Z</time>
      </trkpt>
      <trkpt lat="47.0235" lon="8.91009">
        <ele>1101</ele>
        <time>2021-08-03T09:30:13.315Z</time>
      </trkpt>
      <trkpt lat="47.02351" lon="8.91008">
        <ele>1102</ele>
        <time>2021-08-03T09:30:14.316Z</time>
      </trkpt>
      <trkpt lat="47.02352" lon="8.91008">
        <ele>1103</ele>
        <time>2021-08-03T09:30:15.315Z</time>
      </trkpt>
      <trkpt lat="47.02352" lon="8.91007">
        <ele>1104</ele>
        <time>2021-08-03T09:30:16.315Z</time>
      </trkpt>
      <trkpt lat="47.02352" lon="8.91007">
        <ele>1105</ele>
        <time>2021-08-03T09:30:17.315Z</time>
      </trkpt>
      <trkpt lat="47.02353" lon="8.91005">
        <ele>1106</ele>
        <time>2021-08-03T09:30:18.316Z</time>
      </trkpt>
      <trkpt lat="47.02353" lon="8.91005">
        <ele>1107</ele>
        <time>2021-08-03T09:30:19.315Z</time>
      </trkpt>
      <trkpt lat="47.02353" lon="8.91004">
        <ele>1107</ele>
        <time>2021-08-03T09:30:20.316Z</time>
      </trkpt>
      <trkpt lat="47.02355" lon="8.91003">
        <ele>1107</ele>
        <time>2021-08-03T09:30:21.316Z</time>
      </trkpt>
      <trkpt lat="47.02355" lon="8.91001">
        <ele>1108</ele>
        <time>2021-08-03T09:30:22.316Z</time>
      </trkpt>
      <trkpt lat="47.02356" lon="8.91">
        <ele>1108</ele>
        <time>2021-08-03T09:30:23.316Z</time>
      </trkpt>
      <trkpt lat="47.02356" lon="8.90998">
        <ele>1108</ele>
        <time>2021-08-03T09:30:24.315Z</time>
      </trkpt>
      <trkpt lat="47.02357" lon="8.90997">
        <ele>1109</ele>
        <time>2021-08-03T09:30:25.316Z</time>
      </trkpt>
      <trkpt lat="47.02357" lon="8.90996">
        <ele>1109</ele>
        <time>2021-08-03T09:30:26.316Z</time>
      </trkpt>
      <trkpt lat="47.02358" lon="8.90995">
        <ele>1110</ele>
        <time>2021-08-03T09:30:27.316Z</time>
      </trkpt>
      <trkpt lat="47.02358" lon="8.90994">
        <ele>1110</ele>
        <time>2021-08-03T09:30:28.316Z</time>
      </trkpt>
      <trkpt lat="47.02358" lon="8.90992">
        <ele>1109</ele>
        <time>2021-08-03T09:30:29.315Z</time>
      </trkpt>
      <trkpt lat="47.02359" lon="8.90991">
        <ele>1109</ele>
        <time>2021-08-03T09:30:30.316Z</time>
      </trkpt>
      <trkpt lat="47.02359" lon="8.90989">
        <ele>1109</ele>
        <time>2021-08-03T09:30:31.315Z</time>
      </trkpt>
      <trkpt lat="47.02359" lon="8.90988">
        <ele>1109</ele>
        <time>2021-08-03T09:30:32.316Z</time>
      </trkpt>
      <trkpt lat="47.0236" lon="8.90987">
        <ele>1109</ele>
        <time>2021-08-03T09:30:33.315Z</time>
      </trkpt>
      <trkpt lat="47.02359" lon="8.90985">
        <ele>1108</ele>
        <time>2021-08-03T09:30:34.315Z</time>
      </trkpt>
      <trkpt lat="47.02359" lon="8.90984">
        <ele>1108</ele>
        <time>2021-08-03T09:30:35.315Z</time>
      </trkpt>
      <trkpt lat="47.02359" lon="8.90983">
        <ele>1108</ele>
        <time>2021-08-03T09:30:36.315Z</time>
      </trkpt>
      <trkpt lat="47.02359" lon="8.90982">
        <ele>1109</ele>
        <time>2021-08-03T09:30:37.316Z</time>
      </trkpt>
      <trkpt lat="47.0236" lon="8.90982">
        <ele>1109</ele>
        <time>2021-08-03T09:30:38.315Z</time>
      </trkpt>
      <trkpt lat="47.02359" lon="8.90981">
        <ele>1109</ele>
        <time>2021-08-03T09:30:39.315Z</time>
      </trkpt>
      <trkpt lat="47.02359" lon="8.90981">
        <ele>1109</ele>
        <time>2021-08-03T09:30:40.316Z</time>
      </trkpt>
      <trkpt lat="47.02359" lon="8.9098">
        <ele>1110</ele>
        <time>2021-08-03T09:30:41.316Z</time>
      </trkpt>
      <trkpt lat="47.0236" lon="8.90979">
        <ele>1110</ele>
        <time>2021-08-03T09:30:42.316Z</time>
      </trkpt>
      <trkpt lat="47.0236" lon="8.90978">
        <ele>1110</ele>
        <time>2021-08-03T09:30:43.316Z</time>
      </trkpt>
      <trkpt lat="47.0236" lon="8.90977">
        <ele>1111</ele>
        <time>2021-08-03T09:30:44.316Z</time>
      </trkpt>
      <trkpt lat="47.0236" lon="8.90976">
        <ele>1111</ele>
        <time>2021-08-03T09:30:45.315Z</time>
      </trkpt>
      <trkpt lat="47.02361" lon="8.90975">
        <ele>1111</ele>
        <time>2021-08-03T09:30:46.315Z</time>
      </trkpt>
      <trkpt lat="47.02361" lon="8.90973">
        <ele>1112</ele>
        <time>2021-08-03T09:30:47.315Z</time>
      </trkpt>
      <trkpt lat="47.02362" lon="8.90972">
        <ele>1111</ele>
        <time>2021-08-03T09:30:48.316Z</time>
      </trkpt>
      <trkpt lat="47.02362" lon="8.9097">
        <ele>1111</ele>
        <time>2021-08-03T09:30:49.316Z</time>
      </trkpt>
      <trkpt lat="47.02362" lon="8.90969">
        <ele>1111</ele>
        <time>2021-08-03T09:30:50.316Z</time>
      </trkpt>
      <trkpt lat="47.02363" lon="8.90967">
        <ele>1110</ele>
        <time>2021-08-03T09:30:51.316Z</time>
      </trkpt>
      <trkpt lat="47.02363" lon="8.90965">
        <ele>1110</ele>
        <time>2021-08-03T09:30:52.316Z</time>
      </trkpt>
      <trkpt lat="47.02363" lon="8.90963">
        <ele>1109</ele>
        <time>2021-08-03T09:30:53.316Z</time>
      </trkpt>
      <trkpt lat="47.02362" lon="8.90961">
        <ele>1109</ele>
        <time>2021-08-03T09:30:54.316Z</time>
      </trkpt>
      <trkpt lat="47.02362" lon="8.9096">
        <ele>1109</ele>
        <time>2021-08-03T09:30:55.315Z</time>
      </trkpt>
      <trkpt lat="47.02362" lon="8.90958">
        <ele>1108</ele>
        <time>2021-08-03T09:30:56.316Z</time>
      </trkpt>
      <trkpt lat="47.02362" lon="8.90956">
        <ele>1107</ele>
        <time>2021-08-03T09:30:57.315Z</time>
      </trkpt>
      <trkpt lat="47.02362" lon="8.90955">
        <ele>1106</ele>
        <time>2021-08-03T09:30:58.316Z</time>
      </trkpt>
      <trkpt lat="47.02362" lon="8.90953">
        <ele>1106</ele>
        <time>2021-08-03T09:30:59.316Z</time>
      </trkpt>
      <trkpt lat="47.02362" lon="8.90952">
        <ele>1106</ele>
        <time>2021-08-03T09:31:00.316Z</time>
      </trkpt>
      <trkpt lat="47.02362" lon="8.9095">
        <ele>1106</ele>
        <time>2021-08-03T09:31:01.316Z</time>
      </trkpt>
      <trkpt lat="47.02362" lon="8.90949">
        <ele>1106</ele>
        <time>2021-08-03T09:31:02.316Z</time>
      </trkpt>
      <trkpt lat="47.02362" lon="8.90947">
        <ele>1106</ele>
        <time>2021-08-03T09:31:03.315Z</time>
      </trkpt>
      <trkpt lat="47.02362" lon="8.90946">
        <ele>1106</ele>
        <time>2021-08-03T09:31:04.316Z</time>
      </trkpt>
      <trkpt lat="47.02362" lon="8.90945">
        <ele>1106</ele>
        <time>2021-08-03T09:31:05.316Z</time>
      </trkpt>
      <trkpt lat="47.02362" lon="8.90943">
        <ele>1106</ele>
        <time>2021-08-03T09:31:06.316Z</time>
      </trkpt>
      <trkpt lat="47.02362" lon="8.90941">
        <ele>1107</ele>
        <time>2021-08-03T09:31:07.315Z</time>
      </trkpt>
      <trkpt lat="47.02362" lon="8.9094">
        <ele>1107</ele>
        <time>2021-08-03T09:31:08.315Z</time>
      </trkpt>
      <trkpt lat="47.02362" lon="8.90939">
        <ele>1107</ele>
        <time>2021-08-03T09:31:09.316Z</time>
      </trkpt>
      <trkpt lat="47.02362" lon="8.90937">
        <ele>1107</ele>
        <time>2021-08-03T09:31:10.315Z</time>
      </trkpt>
      <trkpt lat="47.02363" lon="8.90934">
        <ele>1107</ele>
        <time>2021-08-03T09:31:11.316Z</time>
      </trkpt>
      <trkpt lat="47.02363" lon="8.90933">
        <ele>1107</ele>
        <time>2021-08-03T09:31:12.316Z</time>
      </trkpt>
      <trkpt lat="47.02363" lon="8.90931">
        <ele>1108</ele>
        <time>2021-08-03T09:31:13.315Z</time>
      </trkpt>
      <trkpt lat="47.02363" lon="8.9093">
        <ele>1108</ele>
        <time>2021-08-03T09:31:14.315Z</time>
      </trkpt>
      <trkpt lat="47.02363" lon="8.90929">
        <ele>1108</ele>
        <time>2021-08-03T09:31:15.316Z</time>
      </trkpt>
      <trkpt lat="47.02363" lon="8.90927">
        <ele>1107</ele>
        <time>2021-08-03T09:31:16.315Z</time>
      </trkpt>
      <trkpt lat="47.02363" lon="8.90925">
        <ele>1107</ele>
        <time>2021-08-03T09:31:17.316Z</time>
      </trkpt>
      <trkpt lat="47.02363" lon="8.90923">
        <ele>1106</ele>
        <time>2021-08-03T09:31:18.316Z</time>
      </trkpt>
      <trkpt lat="47.02363" lon="8.90921">
        <ele>1106</ele>
        <time>2021-08-03T09:31:19.316Z</time>
      </trkpt>
      <trkpt lat="47.02363" lon="8.9092">
        <ele>1106</ele>
        <time>2021-08-03T09:31:20.316Z</time>
      </trkpt>
      <trkpt lat="47.02363" lon="8.90919">
        <ele>1106</ele>
        <time>2021-08-03T09:31:21.316Z</time>
      </trkpt>
      <trkpt lat="47.02363" lon="8.90917">
        <ele>1105</ele>
        <time>2021-08-03T09:31:22.316Z</time>
      </trkpt>
      <trkpt lat="47.02363" lon="8.90916">
        <ele>1106</ele>
        <time>2021-08-03T09:31:23.316Z</time>
      </trkpt>
      <trkpt lat="47.02363" lon="8.90914">
        <ele>1106</ele>
        <time>2021-08-03T09:31:24.316Z</time>
      </trkpt>
      <trkpt lat="47.02363" lon="8.90913">
        <ele>1106</ele>
        <time>2021-08-03T09:31:25.316Z</time>
      </trkpt>
      <trkpt lat="47.02363" lon="8.90911">
        <ele>1106</ele>
        <time>2021-08-03T09:31:26.316Z</time>
      </trkpt>
      <trkpt lat="47.02363" lon="8.90909">
        <ele>1106</ele>
        <time>2021-08-03T09:31:27.315Z</time>
      </trkpt>
      <trkpt lat="47.02363" lon="8.90907">
        <ele>1106</ele>
        <time>2021-08-03T09:31:28.315Z</time>
      </trkpt>
      <trkpt lat="47.02364" lon="8.90905">
        <ele>1106</ele>
        <time>2021-08-03T09:31:29.316Z</time>
      </trkpt>
      <trkpt lat="47.02364" lon="8.90903">
        <ele>1106</ele>
        <time>2021-08-03T09:31:30.316Z</time>
      </trkpt>
      <trkpt lat="47.02362" lon="8.90902">
        <ele>1106</ele>
        <time>2021-08-03T09:31:31.316Z</time>
      </trkpt>
      <trkpt lat="47.02362" lon="8.909">
        <ele>1106</ele>
        <time>2021-08-03T09:31:32.316Z</time>
      </trkpt>
      <trkpt lat="47.02362" lon="8.90898">
        <ele>1106</ele>
        <time>2021-08-03T09:31:33.316Z</time>
      </trkpt>
      <trkpt lat="47.02362" lon="8.90897">
        <ele>1106</ele>
        <time>2021-08-03T09:31:34.316Z</time>
      </trkpt>
      <trkpt lat="47.02361" lon="8.90895">
        <ele>1107</ele>
        <time>2021-08-03T09:31:35.315Z</time>
      </trkpt>
      <trkpt lat="47.02361" lon="8.90894">
        <ele>1107</ele>
        <time>2021-08-03T09:31:36.315Z</time>
      </trkpt>
      <trkpt lat="47.02361" lon="8.90892">
        <ele>1107</ele>
        <time>2021-08-03T09:31:37.316Z</time>
      </trkpt>
      <trkpt lat="47.02361" lon="8.9089">
        <ele>1107</ele>
        <time>2021-08-03T09:31:38.316Z</time>
      </trkpt>
      <trkpt lat="47.02361" lon="8.90888">
        <ele>1108</ele>
        <time>2021-08-03T09:31:39.316Z</time>
      </trkpt>
      <trkpt lat="47.02361" lon="8.90886">
        <ele>1108</ele>
        <time>2021-08-03T09:31:40.316Z</time>
      </trkpt>
      <trkpt lat="47.02361" lon="8.90884">
        <ele>1109</ele>
        <time>2021-08-03T09:31:41.315Z</time>
      </trkpt>
      <trkpt lat="47.02361" lon="8.90883">
        <ele>1109</ele>
        <time>2021-08-03T09:31:42.316Z</time>
      </trkpt>
      <trkpt lat="47.02361" lon="8.90881">
        <ele>1109</ele>
        <time>2021-08-03T09:31:43.316Z</time>
      </trkpt>
      <trkpt lat="47.02361" lon="8.9088">
        <ele>1109</ele>
        <time>2021-08-03T09:31:44.315Z</time>
      </trkpt>
      <trkpt lat="47.02361" lon="8.90879">
        <ele>1109</ele>
        <time>2021-08-03T09:31:45.316Z</time>
      </trkpt>
      <trkpt lat="47.02361" lon="8.90877">
        <ele>1109</ele>
        <time>2021-08-03T09:31:46.315Z</time>
      </trkpt>
      <trkpt lat="47.02361" lon="8.90876">
        <ele>1109</ele>
        <time>2021-08-03T09:31:47.315Z</time>
      </trkpt>
      <trkpt lat="47.0236" lon="8.90874">
        <ele>1109</ele>
        <time>2021-08-03T09:31:48.315Z</time>
      </trkpt>
      <trkpt lat="47.0236" lon="8.90873">
        <ele>1109</ele>
        <time>2021-08-03T09:31:49.316Z</time>
      </trkpt>
      <trkpt lat="47.0236" lon="8.90871">
        <ele>1109</ele>
        <time>2021-08-03T09:31:50.315Z</time>
      </trkpt>
      <trkpt lat="47.02359" lon="8.90869">
        <ele>1110</ele>
        <time>2021-08-03T09:31:51.316Z</time>
      </trkpt>
      <trkpt lat="47.02359" lon="8.90867">
        <ele>1111</ele>
        <time>2021-08-03T09:31:52.316Z</time>
      </trkpt>
      <trkpt lat="47.02359" lon="8.90866">
        <ele>1111</ele>
        <time>2021-08-03T09:31:53.316Z</time>
      </trkpt>
      <trkpt lat="47.02359" lon="8.90864">
        <ele>1112</ele>
        <time>2021-08-03T09:31:54.316Z</time>
      </trkpt>
      <trkpt lat="47.02358" lon="8.90863">
        <ele>1112</ele>
        <time>2021-08-03T09:31:55.315Z</time>
      </trkpt>
      <trkpt lat="47.02359" lon="8.90862">
        <ele>1112</ele>
        <time>2021-08-03T09:31:56.316Z</time>
      </trkpt>
      <trkpt lat="47.02359" lon="8.9086">
        <ele>1112</ele>
        <time>2021-08-03T09:31:57.316Z</time>
      </trkpt>
      <trkpt lat="47.0236" lon="8.90859">
        <ele>1112</ele>
        <time>2021-08-03T09:31:58.315Z</time>
      </trkpt>
      <trkpt lat="47.0236" lon="8.90857">
        <ele>1111</ele>
        <time>2021-08-03T09:31:59.316Z</time>
      </trkpt>
      <trkpt lat="47.0236" lon="8.90856">
        <ele>1111</ele>
        <time>2021-08-03T09:32:00.315Z</time>
      </trkpt>
      <trkpt lat="47.0236" lon="8.90855">
        <ele>1111</ele>
        <time>2021-08-03T09:32:01.316Z</time>
      </trkpt>
      <trkpt lat="47.0236" lon="8.90854">
        <ele>1111</ele>
        <time>2021-08-03T09:32:02.316Z</time>
      </trkpt>
      <trkpt lat="47.0236" lon="8.90854">
        <ele>1111</ele>
        <time>2021-08-03T09:32:03.316Z</time>
      </trkpt>
      <trkpt lat="47.02359" lon="8.90853">
        <ele>1111</ele>
        <time>2021-08-03T09:32:04.316Z</time>
      </trkpt>
      <trkpt lat="47.02359" lon="8.90853">
        <ele>1111</ele>
        <time>2021-08-03T09:32:05.315Z</time>
      </trkpt>
      <trkpt lat="47.02358" lon="8.90853">
        <ele>1110</ele>
        <time>2021-08-03T09:32:06.315Z</time>
      </trkpt>
      <trkpt lat="47.02359" lon="8.90852">
        <ele>1110</ele>
        <time>2021-08-03T09:32:07.315Z</time>
      </trkpt>
      <trkpt lat="47.02359" lon="8.90851">
        <ele>1110</ele>
        <time>2021-08-03T09:32:08.316Z</time>
      </trkpt>
      <trkpt lat="47.02359" lon="8.90849">
        <ele>1110</ele>
        <time>2021-08-03T09:32:09.316Z</time>
      </trkpt>
      <trkpt lat="47.02359" lon="8.90848">
        <ele>1111</ele>
        <time>2021-08-03T09:32:10.315Z</time>
      </trkpt>
      <trkpt lat="47.02359" lon="8.90847">
        <ele>1111</ele>
        <time>2021-08-03T09:32:11.316Z</time>
      </trkpt>
      <trkpt lat="47.02359" lon="8.90845">
        <ele>1111</ele>
        <time>2021-08-03T09:32:12.316Z</time>
      </trkpt>
      <trkpt lat="47.02359" lon="8.90844">
        <ele>1112</ele>
        <time>2021-08-03T09:32:13.315Z</time>
      </trkpt>
      <trkpt lat="47.02359" lon="8.90843">
        <ele>1113</ele>
        <time>2021-08-03T09:32:14.316Z</time>
      </trkpt>
      <trkpt lat="47.02358" lon="8.90842">
        <ele>1113</ele>
        <time>2021-08-03T09:32:15.316Z</time>
      </trkpt>
      <trkpt lat="47.02358" lon="8.90841">
        <ele>1114</ele>
        <time>2021-08-03T09:32:16.316Z</time>
      </trkpt>
      <trkpt lat="47.02358" lon="8.9084">
        <ele>1114</ele>
        <time>2021-08-03T09:32:17.315Z</time>
      </trkpt>
      <trkpt lat="47.02358" lon="8.90838">
        <ele>1114</ele>
        <time>2021-08-03T09:32:18.315Z</time>
      </trkpt>
      <trkpt lat="47.02358" lon="8.90836">
        <ele>1115</ele>
        <time>2021-08-03T09:32:19.315Z</time>
      </trkpt>
      <trkpt lat="47.02358" lon="8.90835">
        <ele>1115</ele>
        <time>2021-08-03T09:32:20.316Z</time>
      </trkpt>
      <trkpt lat="47.02358" lon="8.90833">
        <ele>1114</ele>
        <time>2021-08-03T09:32:21.315Z</time>
      </trkpt>
      <trkpt lat="47.02358" lon="8.90832">
        <ele>1114</ele>
        <time>2021-08-03T09:32:22.316Z</time>
      </trkpt>
      <trkpt lat="47.02357" lon="8.90831">
        <ele>1114</ele>
        <time>2021-08-03T09:32:23.316Z</time>
      </trkpt>
      <trkpt lat="47.02357" lon="8.9083">
        <ele>1114</ele>
        <time>2021-08-03T09:32:24.315Z</time>
      </trkpt>
      <trkpt lat="47.02357" lon="8.90829">
        <ele>1114</ele>
        <time>2021-08-03T09:32:25.315Z</time>
      </trkpt>
      <trkpt lat="47.02356" lon="8.90827">
        <ele>1114</ele>
        <time>2021-08-03T09:32:26.315Z</time>
      </trkpt>
      <trkpt lat="47.02356" lon="8.90826">
        <ele>1114</ele>
        <time>2021-08-03T09:32:27.315Z</time>
      </trkpt>
      <trkpt lat="47.02356" lon="8.90826">
        <ele>1113</ele>
        <time>2021-08-03T09:32:28.316Z</time>
      </trkpt>
      <trkpt lat="47.02356" lon="8.90824">
        <ele>1113</ele>
        <time>2021-08-03T09:32:29.316Z</time>
      </trkpt>
      <trkpt lat="47.02355" lon="8.90823">
        <ele>1112</ele>
        <time>2021-08-03T09:32:30.315Z</time>
      </trkpt>
      <trkpt lat="47.02355" lon="8.90822">
        <ele>1111</ele>
        <time>2021-08-03T09:32:31.315Z</time>
      </trkpt>
      <trkpt lat="47.02354" lon="8.9082">
        <ele>1111</ele>
        <time>2021-08-03T09:32:32.315Z</time>
      </trkpt>
      <trkpt lat="47.02354" lon="8.90819">
        <ele>1111</ele>
        <time>2021-08-03T09:32:33.315Z</time>
      </trkpt>
      <trkpt lat="47.02353" lon="8.90817">
        <ele>1111</ele>
        <time>2021-08-03T09:32:34.315Z</time>
      </trkpt>
      <trkpt lat="47.02352" lon="8.90814">
        <ele>1112</ele>
        <time>2021-08-03T09:32:35.316Z</time>
      </trkpt>
      <trkpt lat="47.02351" lon="8.90812">
        <ele>1112</ele>
        <time>2021-08-03T09:32:36.315Z</time>
      </trkpt>
      <trkpt lat="47.02351" lon="8.90811">
        <ele>1113</ele>
        <time>2021-08-03T09:32:37.315Z</time>
      </trkpt>
      <trkpt lat="47.0235" lon="8.9081">
        <ele>1114</ele>
        <time>2021-08-03T09:32:38.315Z</time>
      </trkpt>
      <trkpt lat="47.0235" lon="8.90809">
        <ele>1115</ele>
        <time>2021-08-03T09:32:39.316Z</time>
      </trkpt>
      <trkpt lat="47.0235" lon="8.90807">
        <ele>1116</ele>
        <time>2021-08-03T09:32:40.316Z</time>
      </trkpt>
      <trkpt lat="47.02349" lon="8.90806">
        <ele>1116</ele>
        <time>2021-08-03T09:32:41.316Z</time>
      </trkpt>
      <trkpt lat="47.02349" lon="8.90804">
        <ele>1116</ele>
        <time>2021-08-03T09:32:42.315Z</time>
      </trkpt>
      <trkpt lat="47.02348" lon="8.90803">
        <ele>1116</ele>
        <time>2021-08-03T09:32:43.315Z</time>
      </trkpt>
      <trkpt lat="47.02348" lon="8.90801">
        <ele>1116</ele>
        <time>2021-08-03T09:32:44.316Z</time>
      </trkpt>
      <trkpt lat="47.02348" lon="8.908">
        <ele>1115</ele>
        <time>2021-08-03T09:32:45.315Z</time>
      </trkpt>
      <trkpt lat="47.02347" lon="8.90799">
        <ele>1114</ele>
        <time>2021-08-03T09:32:46.315Z</time>
      </trkpt>
      <trkpt lat="47.02347" lon="8.90797">
        <ele>1114</ele>
        <time>2021-08-03T09:32:47.315Z</time>
      </trkpt>
      <trkpt lat="47.02347" lon="8.90796">
        <ele>1114</ele>
        <time>2021-08-03T09:32:48.315Z</time>
      </trkpt>
      <trkpt lat="47.02346" lon="8.90795">
        <ele>1114</ele>
        <time>2021-08-03T09:32:49.316Z</time>
      </trkpt>
      <trkpt lat="47.02345" lon="8.90794">
        <ele>1114</ele>
        <time>2021-08-03T09:32:50.316Z</time>
      </trkpt>
      <trkpt lat="47.02345" lon="8.90792">
        <ele>1114</ele>
        <time>2021-08-03T09:32:51.315Z</time>
      </trkpt>
      <trkpt lat="47.02345" lon="8.9079">
        <ele>1114</ele>
        <time>2021-08-03T09:32:52.315Z</time>
      </trkpt>
      <trkpt lat="47.02344" lon="8.90788">
        <ele>1115</ele>
        <time>2021-08-03T09:32:53.315Z</time>
      </trkpt>
      <trkpt lat="47.02344" lon="8.90786">
        <ele>1115</ele>
        <time>2021-08-03T09:32:54.316Z</time>
      </trkpt>
      <trkpt lat="47.02343" lon="8.90785">
        <ele>1115</ele>
        <time>2021-08-03T09:32:55.315Z</time>
      </trkpt>
      <trkpt lat="47.02343" lon="8.90783">
        <ele>1116</ele>
        <time>2021-08-03T09:32:56.316Z</time>
      </trkpt>
      <trkpt lat="47.02342" lon="8.90782">
        <ele>1116</ele>
        <time>2021-08-03T09:32:57.316Z</time>
      </trkpt>
      <trkpt lat="47.02342" lon="8.9078">
        <ele>1116</ele>
        <time>2021-08-03T09:32:58.316Z</time>
      </trkpt>
      <trkpt lat="47.02341" lon="8.90779">
        <ele>1116</ele>
        <time>2021-08-03T09:32:59.315Z</time>
      </trkpt>
      <trkpt lat="47.0234" lon="8.90778">
        <ele>1117</ele>
        <time>2021-08-03T09:33:00.316Z</time>
      </trkpt>
      <trkpt lat="47.0234" lon="8.90776">
        <ele>1117</ele>
        <time>2021-08-03T09:33:01.316Z</time>
      </trkpt>
      <trkpt lat="47.02339" lon="8.90775">
        <ele>1118</ele>
        <time>2021-08-03T09:33:02.316Z</time>
      </trkpt>
      <trkpt lat="47.02338" lon="8.90774">
        <ele>1118</ele>
        <time>2021-08-03T09:33:03.315Z</time>
      </trkpt>
      <trkpt lat="47.02337" lon="8.90773">
        <ele>1119</ele>
        <time>2021-08-03T09:33:04.316Z</time>
      </trkpt>
      <trkpt lat="47.02337" lon="8.90772">
        <ele>1119</ele>
        <time>2021-08-03T09:33:05.316Z</time>
      </trkpt>
      <trkpt lat="47.02336" lon="8.9077">
        <ele>1120</ele>
        <time>2021-08-03T09:33:06.316Z</time>
      </trkpt>
      <trkpt lat="47.02335" lon="8.90769">
        <ele>1120</ele>
        <time>2021-08-03T09:33:07.316Z</time>
      </trkpt>
      <trkpt lat="47.02333" lon="8.90767">
        <ele>1121</ele>
        <time>2021-08-03T09:33:08.316Z</time>
      </trkpt>
      <trkpt lat="47.02332" lon="8.90766">
        <ele>1121</ele>
        <time>2021-08-03T09:33:09.315Z</time>
      </trkpt>
      <trkpt lat="47.02332" lon="8.90766">
        <ele>1121</ele>
        <time>2021-08-03T09:33:10.316Z</time>
      </trkpt>
      <trkpt lat="47.02331" lon="8.90765">
        <ele>1122</ele>
        <time>2021-08-03T09:33:11.316Z</time>
      </trkpt>
      <trkpt lat="47.0233" lon="8.90764">
        <ele>1122</ele>
        <time>2021-08-03T09:33:12.315Z</time>
      </trkpt>
      <trkpt lat="47.02329" lon="8.90763">
        <ele>1123</ele>
        <time>2021-08-03T09:33:13.316Z</time>
      </trkpt>
      <trkpt lat="47.02329" lon="8.90762">
        <ele>1122</ele>
        <time>2021-08-03T09:33:14.316Z</time>
      </trkpt>
      <trkpt lat="47.02329" lon="8.90761">
        <ele>1122</ele>
        <time>2021-08-03T09:33:15.316Z</time>
      </trkpt>
      <trkpt lat="47.02328" lon="8.9076">
        <ele>1122</ele>
        <time>2021-08-03T09:33:16.315Z</time>
      </trkpt>
      <trkpt lat="47.02327" lon="8.90759">
        <ele>1123</ele>
        <time>2021-08-03T09:33:17.315Z</time>
      </trkpt>
      <trkpt lat="47.02326" lon="8.90758">
        <ele>1123</ele>
        <time>2021-08-03T09:33:18.315Z</time>
      </trkpt>
      <trkpt lat="47.02324" lon="8.90756">
        <ele>1122</ele>
        <time>2021-08-03T09:33:19.316Z</time>
      </trkpt>
      <trkpt lat="47.02324" lon="8.90755">
        <ele>1121</ele>
        <time>2021-08-03T09:33:20.316Z</time>
      </trkpt>
      <trkpt lat="47.02323" lon="8.90754">
        <ele>1120</ele>
        <time>2021-08-03T09:33:21.315Z</time>
      </trkpt>
      <trkpt lat="47.02323" lon="8.90754">
        <ele>1119</ele>
        <time>2021-08-03T09:33:22.315Z</time>
      </trkpt>
      <trkpt lat="47.02322" lon="8.90753">
        <ele>1119</ele>
        <time>2021-08-03T09:33:23.316Z</time>
      </trkpt>
      <trkpt lat="47.02322" lon="8.90751">
        <ele>1119</ele>
        <time>2021-08-03T09:33:24.316Z</time>
      </trkpt>
      <trkpt lat="47.02322" lon="8.9075">
        <ele>1119</ele>
        <time>2021-08-03T09:33:25.315Z</time>
      </trkpt>
      <trkpt lat="47.02321" lon="8.90748">
        <ele>1119</ele>
        <time>2021-08-03T09:33:26.316Z</time>
      </trkpt>
      <trkpt lat="47.0232" lon="8.90747">
        <ele>1119</ele>
        <time>2021-08-03T09:33:27.315Z</time>
      </trkpt>
      <trkpt lat="47.02319" lon="8.90746">
        <ele>1119</ele>
        <time>2021-08-03T09:33:28.315Z</time>
      </trkpt>
      <trkpt lat="47.02317" lon="8.90744">
        <ele>1119</ele>
        <time>2021-08-03T09:33:29.316Z</time>
      </trkpt>
      <trkpt lat="47.02316" lon="8.90741">
        <ele>1120</ele>
        <time>2021-08-03T09:33:30.316Z</time>
      </trkpt>
      <trkpt lat="47.02316" lon="8.90739">
        <ele>1120</ele>
        <time>2021-08-03T09:33:31.316Z</time>
      </trkpt>
      <trkpt lat="47.02315" lon="8.90737">
        <ele>1120</ele>
        <time>2021-08-03T09:33:32.316Z</time>
      </trkpt>
      <trkpt lat="47.02314" lon="8.90735">
        <ele>1120</ele>
        <time>2021-08-03T09:33:33.316Z</time>
      </trkpt>
      <trkpt lat="47.02313" lon="8.90734">
        <ele>1121</ele>
        <time>2021-08-03T09:33:34.316Z</time>
      </trkpt>
      <trkpt lat="47.02313" lon="8.90733">
        <ele>1121</ele>
        <time>2021-08-03T09:33:35.316Z</time>
      </trkpt>
      <trkpt lat="47.02312" lon="8.90731">
        <ele>1122</ele>
        <time>2021-08-03T09:33:36.316Z</time>
      </trkpt>
      <trkpt lat="47.02311" lon="8.9073">
        <ele>1122</ele>
        <time>2021-08-03T09:33:37.316Z</time>
      </trkpt>
      <trkpt lat="47.0231" lon="8.90729">
        <ele>1122</ele>
        <time>2021-08-03T09:33:38.316Z</time>
      </trkpt>
      <trkpt lat="47.02309" lon="8.90728">
        <ele>1122</ele>
        <time>2021-08-03T09:33:39.315Z</time>
      </trkpt>
      <trkpt lat="47.02309" lon="8.90727">
        <ele>1121</ele>
        <time>2021-08-03T09:33:40.316Z</time>
      </trkpt>
      <trkpt lat="47.02308" lon="8.90726">
        <ele>1121</ele>
        <time>2021-08-03T09:33:41.316Z</time>
      </trkpt>
      <trkpt lat="47.02308" lon="8.90725">
        <ele>1120</ele>
        <time>2021-08-03T09:33:42.316Z</time>
      </trkpt>
      <trkpt lat="47.02307" lon="8.90724">
        <ele>1120</ele>
        <time>2021-08-03T09:33:43.315Z</time>
      </trkpt>
      <trkpt lat="47.02306" lon="8.90723">
        <ele>1120</ele>
        <time>2021-08-03T09:33:44.315Z</time>
      </trkpt>
      <trkpt lat="47.02306" lon="8.90721">
        <ele>1121</ele>
        <time>2021-08-03T09:33:45.315Z</time>
      </trkpt>
      <trkpt lat="47.02305" lon="8.9072">
        <ele>1121</ele>
        <time>2021-08-03T09:33:46.315Z</time>
      </trkpt>
      <trkpt lat="47.02304" lon="8.90719">
        <ele>1122</ele>
        <time>2021-08-03T09:33:47.316Z</time>
      </trkpt>
      <trkpt lat="47.02303" lon="8.90718">
        <ele>1122</ele>
        <time>2021-08-03T09:33:48.316Z</time>
      </trkpt>
      <trkpt lat="47.02302" lon="8.90717">
        <ele>1122</ele>
        <time>2021-08-03T09:33:49.316Z</time>
      </trkpt>
      <trkpt lat="47.02301" lon="8.90717">
        <ele>1122</ele>
        <time>2021-08-03T09:33:50.316Z</time>
      </trkpt>
      <trkpt lat="47.02301" lon="8.90716">
        <ele>1122</ele>
        <time>2021-08-03T09:33:51.316Z</time>
      </trkpt>
      <trkpt lat="47.023" lon="8.90715">
        <ele>1123</ele>
        <time>2021-08-03T09:33:52.315Z</time>
      </trkpt>
      <trkpt lat="47.02299" lon="8.90715">
        <ele>1123</ele>
        <time>2021-08-03T09:33:53.316Z</time>
      </trkpt>
      <trkpt lat="47.02299" lon="8.90714">
        <ele>1124</ele>
        <time>2021-08-03T09:33:54.316Z</time>
      </trkpt>
      <trkpt lat="47.02299" lon="8.90713">
        <ele>1125</ele>
        <time>2021-08-03T09:33:55.315Z</time>
      </trkpt>
      <trkpt lat="47.02298" lon="8.90713">
        <ele>1125</ele>
        <time>2021-08-03T09:33:56.316Z</time>
      </trkpt>
      <trkpt lat="47.02297" lon="8.90711">
        <ele>1125</ele>
        <time>2021-08-03T09:33:57.315Z</time>
      </trkpt>
      <trkpt lat="47.02296" lon="8.90711">
        <ele>1126</ele>
        <time>2021-08-03T09:33:58.315Z</time>
      </trkpt>
      <trkpt lat="47.02296" lon="8.90712">
        <ele>1126</ele>
        <time>2021-08-03T09:33:59.315Z</time>
      </trkpt>
      <trkpt lat="47.02295" lon="8.90713">
        <ele>1126</ele>
        <time>2021-08-03T09:34:00.316Z</time>
      </trkpt>
      <trkpt lat="47.0229" lon="8.90721">
        <ele>1121</ele>
        <time>2021-08-03T09:34:01.317Z</time>
      </trkpt>
      <trkpt lat="47.0229" lon="8.90718">
        <ele>1121</ele>
        <time>2021-08-03T09:34:02.317Z</time>
      </trkpt>
      <trkpt lat="47.0229" lon="8.90716">
        <ele>1121</ele>
        <time>2021-08-03T09:34:03.318Z</time>
      </trkpt>
      <trkpt lat="47.0229" lon="8.90714">
        <ele>1120</ele>
        <time>2021-08-03T09:34:04.317Z</time>
      </trkpt>
      <trkpt lat="47.02289" lon="8.90713">
        <ele>1120</ele>
        <time>2021-08-03T09:34:05.318Z</time>
      </trkpt>
      <trkpt lat="47.02289" lon="8.90711">
        <ele>1120</ele>
        <time>2021-08-03T09:34:06.317Z</time>
      </trkpt>
      <trkpt lat="47.02288" lon="8.9071">
        <ele>1120</ele>
        <time>2021-08-03T09:34:07.317Z</time>
      </trkpt>
      <trkpt lat="47.02288" lon="8.90709">
        <ele>1120</ele>
        <time>2021-08-03T09:34:08.317Z</time>
      </trkpt>
      <trkpt lat="47.02288" lon="8.90707">
        <ele>1119</ele>
        <time>2021-08-03T09:34:09.318Z</time>
      </trkpt>
      <trkpt lat="47.02288" lon="8.90706">
        <ele>1119</ele>
        <time>2021-08-03T09:34:10.317Z</time>
      </trkpt>
      <trkpt lat="47.02287" lon="8.90705">
        <ele>1118</ele>
        <time>2021-08-03T09:34:11.318Z</time>
      </trkpt>
      <trkpt lat="47.02287" lon="8.90704">
        <ele>1118</ele>
        <time>2021-08-03T09:34:12.318Z</time>
      </trkpt>
      <trkpt lat="47.02286" lon="8.90702">
        <ele>1118</ele>
        <time>2021-08-03T09:34:13.318Z</time>
      </trkpt>
      <trkpt lat="47.02286" lon="8.90701">
        <ele>1118</ele>
        <time>2021-08-03T09:34:14.317Z</time>
      </trkpt>
      <trkpt lat="47.02285" lon="8.90699">
        <ele>1118</ele>
        <time>2021-08-03T09:34:15.317Z</time>
      </trkpt>
      <trkpt lat="47.02284" lon="8.90697">
        <ele>1118</ele>
        <time>2021-08-03T09:34:16.318Z</time>
      </trkpt>
      <trkpt lat="47.02284" lon="8.90694">
        <ele>1117</ele>
        <time>2021-08-03T09:34:17.318Z</time>
      </trkpt>
      <trkpt lat="47.02284" lon="8.90692">
        <ele>1117</ele>
        <time>2021-08-03T09:34:18.318Z</time>
      </trkpt>
      <trkpt lat="47.02284" lon="8.9069">
        <ele>1116</ele>
        <time>2021-08-03T09:34:19.317Z</time>
      </trkpt>
      <trkpt lat="47.02285" lon="8.90687">
        <ele>1116</ele>
        <time>2021-08-03T09:34:20.317Z</time>
      </trkpt>
      <trkpt lat="47.02285" lon="8.90685">
        <ele>1116</ele>
        <time>2021-08-03T09:34:21.318Z</time>
      </trkpt>
      <trkpt lat="47.02284" lon="8.90683">
        <ele>1117</ele>
        <time>2021-08-03T09:34:22.318Z</time>
      </trkpt>
      <trkpt lat="47.02284" lon="8.90682">
        <ele>1117</ele>
        <time>2021-08-03T09:34:23.317Z</time>
      </trkpt>
      <trkpt lat="47.02284" lon="8.9068">
        <ele>1118</ele>
        <time>2021-08-03T09:34:24.318Z</time>
      </trkpt>
      <trkpt lat="47.02284" lon="8.90678">
        <ele>1118</ele>
        <time>2021-08-03T09:34:25.317Z</time>
      </trkpt>
      <trkpt lat="47.02283" lon="8.90676">
        <ele>1119</ele>
        <time>2021-08-03T09:34:26.317Z</time>
      </trkpt>
      <trkpt lat="47.02283" lon="8.90674">
        <ele>1119</ele>
        <time>2021-08-03T09:34:27.318Z</time>
      </trkpt>
      <trkpt lat="47.02283" lon="8.90672">
        <ele>1120</ele>
        <time>2021-08-03T09:34:28.318Z</time>
      </trkpt>
      <trkpt lat="47.02283" lon="8.90669">
        <ele>1120</ele>
        <time>2021-08-03T09:34:29.318Z</time>
      </trkpt>
      <trkpt lat="47.02283" lon="8.90665">
        <ele>1121</ele>
        <time>2021-08-03T09:34:30.318Z</time>
      </trkpt>
      <trkpt lat="47.02283" lon="8.90663">
        <ele>1122</ele>
        <time>2021-08-03T09:34:31.318Z</time>
      </trkpt>
      <trkpt lat="47.02283" lon="8.90661">
        <ele>1122</ele>
        <time>2021-08-03T09:34:32.318Z</time>
      </trkpt>
      <trkpt lat="47.02283" lon="8.9066">
        <ele>1123</ele>
        <time>2021-08-03T09:34:33.317Z</time>
      </trkpt>
      <trkpt lat="47.02284" lon="8.90657">
        <ele>1123</ele>
        <time>2021-08-03T09:34:34.317Z</time>
      </trkpt>
      <trkpt lat="47.02285" lon="8.90655">
        <ele>1123</ele>
        <time>2021-08-03T09:34:35.317Z</time>
      </trkpt>
      <trkpt lat="47.02285" lon="8.90653">
        <ele>1123</ele>
        <time>2021-08-03T09:34:36.318Z</time>
      </trkpt>
      <trkpt lat="47.02285" lon="8.90652">
        <ele>1123</ele>
        <time>2021-08-03T09:34:37.318Z</time>
      </trkpt>
      <trkpt lat="47.02285" lon="8.9065">
        <ele>1123</ele>
        <time>2021-08-03T09:34:38.318Z</time>
      </trkpt>
      <trkpt lat="47.02285" lon="8.90649">
        <ele>1122</ele>
        <time>2021-08-03T09:34:39.317Z</time>
      </trkpt>
      <trkpt lat="47.02286" lon="8.90648">
        <ele>1122</ele>
        <time>2021-08-03T09:34:40.317Z</time>
      </trkpt>
      <trkpt lat="47.02286" lon="8.90646">
        <ele>1121</ele>
        <time>2021-08-03T09:34:41.318Z</time>
      </trkpt>
      <trkpt lat="47.02286" lon="8.90645">
        <ele>1121</ele>
        <time>2021-08-03T09:34:42.318Z</time>
      </trkpt>
      <trkpt lat="47.02286" lon="8.90644">
        <ele>1121</ele>
        <time>2021-08-03T09:34:43.317Z</time>
      </trkpt>
      <trkpt lat="47.02286" lon="8.90642">
        <ele>1120</ele>
        <time>2021-08-03T09:34:44.318Z</time>
      </trkpt>
      <trkpt lat="47.02287" lon="8.90641">
        <ele>1120</ele>
        <time>2021-08-03T09:34:45.317Z</time>
      </trkpt>
      <trkpt lat="47.02287" lon="8.90639">
        <ele>1119</ele>
        <time>2021-08-03T09:34:46.317Z</time>
      </trkpt>
      <trkpt lat="47.02288" lon="8.90637">
        <ele>1119</ele>
        <time>2021-08-03T09:34:47.318Z</time>
      </trkpt>
      <trkpt lat="47.02288" lon="8.90635">
        <ele>1119</ele>
        <time>2021-08-03T09:34:48.317Z</time>
      </trkpt>
      <trkpt lat="47.02289" lon="8.90633">
        <ele>1118</ele>
        <time>2021-08-03T09:34:49.317Z</time>
      </trkpt>
      <trkpt lat="47.02289" lon="8.90632">
        <ele>1117</ele>
        <time>2021-08-03T09:34:50.317Z</time>
      </trkpt>
      <trkpt lat="47.0229" lon="8.90631">
        <ele>1117</ele>
        <time>2021-08-03T09:34:51.317Z</time>
      </trkpt>
      <trkpt lat="47.0229" lon="8.90629">
        <ele>1117</ele>
        <time>2021-08-03T09:34:52.317Z</time>
      </trkpt>
      <trkpt lat="47.0229" lon="8.90627">
        <ele>1117</ele>
        <time>2021-08-03T09:34:53.317Z</time>
      </trkpt>
      <trkpt lat="47.0229" lon="8.90626">
        <ele>1117</ele>
        <time>2021-08-03T09:34:54.317Z</time>
      </trkpt>
      <trkpt lat="47.02292" lon="8.90624">
        <ele>1117</ele>
        <time>2021-08-03T09:34:55.317Z</time>
      </trkpt>
      <trkpt lat="47.02292" lon="8.90622">
        <ele>1117</ele>
        <time>2021-08-03T09:34:56.317Z</time>
      </trkpt>
      <trkpt lat="47.02292" lon="8.90621">
        <ele>1117</ele>
        <time>2021-08-03T09:34:57.317Z</time>
      </trkpt>
      <trkpt lat="47.02291" lon="8.9062">
        <ele>1118</ele>
        <time>2021-08-03T09:34:58.317Z</time>
      </trkpt>
      <trkpt lat="47.02291" lon="8.90618">
        <ele>1118</ele>
        <time>2021-08-03T09:34:59.317Z</time>
      </trkpt>
      <trkpt lat="47.02292" lon="8.90617">
        <ele>1117</ele>
        <time>2021-08-03T09:35:00.317Z</time>
      </trkpt>
      <trkpt lat="47.02292" lon="8.90616">
        <ele>1117</ele>
        <time>2021-08-03T09:35:01.317Z</time>
      </trkpt>
      <trkpt lat="47.02293" lon="8.90614">
        <ele>1117</ele>
        <time>2021-08-03T09:35:02.317Z</time>
      </trkpt>
      <trkpt lat="47.02293" lon="8.90612">
        <ele>1118</ele>
        <time>2021-08-03T09:35:03.317Z</time>
      </trkpt>
      <trkpt lat="47.02294" lon="8.9061">
        <ele>1118</ele>
        <time>2021-08-03T09:35:04.317Z</time>
      </trkpt>
      <trkpt lat="47.02294" lon="8.90608">
        <ele>1119</ele>
        <time>2021-08-03T09:35:05.317Z</time>
      </trkpt>
      <trkpt lat="47.02295" lon="8.90607">
        <ele>1119</ele>
        <time>2021-08-03T09:35:06.317Z</time>
      </trkpt>
      <trkpt lat="47.02295" lon="8.90605">
        <ele>1119</ele>
        <time>2021-08-03T09:35:07.317Z</time>
      </trkpt>
      <trkpt lat="47.02296" lon="8.90604">
        <ele>1119</ele>
        <time>2021-08-03T09:35:08.318Z</time>
      </trkpt>
      <trkpt lat="47.02296" lon="8.90602">
        <ele>1119</ele>
        <time>2021-08-03T09:35:09.317Z</time>
      </trkpt>
      <trkpt lat="47.02297" lon="8.90601">
        <ele>1118</ele>
        <time>2021-08-03T09:35:10.318Z</time>
      </trkpt>
      <trkpt lat="47.02297" lon="8.90599">
        <ele>1118</ele>
        <time>2021-08-03T09:35:11.317Z</time>
      </trkpt>
      <trkpt lat="47.02298" lon="8.90597">
        <ele>1118</ele>
        <time>2021-08-03T09:35:12.318Z</time>
      </trkpt>
      <trkpt lat="47.02298" lon="8.90596">
        <ele>1118</ele>
        <time>2021-08-03T09:35:13.318Z</time>
      </trkpt>
      <trkpt lat="47.02298" lon="8.90594">
        <ele>1119</ele>
        <time>2021-08-03T09:35:14.318Z</time>
      </trkpt>
      <trkpt lat="47.02298" lon="8.90593">
        <ele>1119</ele>
        <time>2021-08-03T09:35:15.318Z</time>
      </trkpt>
      <trkpt lat="47.02297" lon="8.90592">
        <ele>1119</ele>
        <time>2021-08-03T09:35:16.317Z</time>
      </trkpt>
      <trkpt lat="47.02297" lon="8.90591">
        <ele>1119</ele>
        <time>2021-08-03T09:35:17.317Z</time>
      </trkpt>
      <trkpt lat="47.02297" lon="8.90589">
        <ele>1119</ele>
        <time>2021-08-03T09:35:18.318Z</time>
      </trkpt>
      <trkpt lat="47.02297" lon="8.90587">
        <ele>1119</ele>
        <time>2021-08-03T09:35:19.318Z</time>
      </trkpt>
      <trkpt lat="47.02297" lon="8.90585">
        <ele>1119</ele>
        <time>2021-08-03T09:35:20.317Z</time>
      </trkpt>
      <trkpt lat="47.02297" lon="8.90584">
        <ele>1118</ele>
        <time>2021-08-03T09:35:21.317Z</time>
      </trkpt>
      <trkpt lat="47.02297" lon="8.90582">
        <ele>1119</ele>
        <time>2021-08-03T09:35:22.318Z</time>
      </trkpt>
      <trkpt lat="47.02298" lon="8.9058">
        <ele>1119</ele>
        <time>2021-08-03T09:35:23.317Z</time>
      </trkpt>
      <trkpt lat="47.02298" lon="8.90579">
        <ele>1119</ele>
        <time>2021-08-03T09:35:24.318Z</time>
      </trkpt>
      <trkpt lat="47.02298" lon="8.90578">
        <ele>1118</ele>
        <time>2021-08-03T09:35:25.318Z</time>
      </trkpt>
      <trkpt lat="47.02298" lon="8.90576">
        <ele>1118</ele>
        <time>2021-08-03T09:35:26.318Z</time>
      </trkpt>
      <trkpt lat="47.02298" lon="8.90574">
        <ele>1118</ele>
        <time>2021-08-03T09:35:27.317Z</time>
      </trkpt>
      <trkpt lat="47.02298" lon="8.90572">
        <ele>1117</ele>
        <time>2021-08-03T09:35:28.318Z</time>
      </trkpt>
      <trkpt lat="47.02298" lon="8.90571">
        <ele>1117</ele>
        <time>2021-08-03T09:35:29.317Z</time>
      </trkpt>
      <trkpt lat="47.02298" lon="8.90568">
        <ele>1117</ele>
        <time>2021-08-03T09:35:30.318Z</time>
      </trkpt>
      <trkpt lat="47.02298" lon="8.90566">
        <ele>1117</ele>
        <time>2021-08-03T09:35:31.318Z</time>
      </trkpt>
      <trkpt lat="47.02298" lon="8.90565">
        <ele>1118</ele>
        <time>2021-08-03T09:35:32.317Z</time>
      </trkpt>
      <trkpt lat="47.02298" lon="8.90563">
        <ele>1118</ele>
        <time>2021-08-03T09:35:33.318Z</time>
      </trkpt>
      <trkpt lat="47.02298" lon="8.90561">
        <ele>1119</ele>
        <time>2021-08-03T09:35:34.318Z</time>
      </trkpt>
      <trkpt lat="47.02298" lon="8.9056">
        <ele>1119</ele>
        <time>2021-08-03T09:35:35.318Z</time>
      </trkpt>
      <trkpt lat="47.02298" lon="8.90558">
        <ele>1119</ele>
        <time>2021-08-03T09:35:36.318Z</time>
      </trkpt>
      <trkpt lat="47.02298" lon="8.90557">
        <ele>1119</ele>
        <time>2021-08-03T09:35:37.318Z</time>
      </trkpt>
      <trkpt lat="47.02298" lon="8.90555">
        <ele>1119</ele>
        <time>2021-08-03T09:35:38.318Z</time>
      </trkpt>
      <trkpt lat="47.02298" lon="8.90554">
        <ele>1119</ele>
        <time>2021-08-03T09:35:39.318Z</time>
      </trkpt>
      <trkpt lat="47.02298" lon="8.90552">
        <ele>1119</ele>
        <time>2021-08-03T09:35:40.317Z</time>
      </trkpt>
      <trkpt lat="47.02298" lon="8.9055">
        <ele>1119</ele>
        <time>2021-08-03T09:35:41.318Z</time>
      </trkpt>
      <trkpt lat="47.02298" lon="8.90549">
        <ele>1120</ele>
        <time>2021-08-03T09:35:42.318Z</time>
      </trkpt>
      <trkpt lat="47.02298" lon="8.90547">
        <ele>1120</ele>
        <time>2021-08-03T09:35:43.317Z</time>
      </trkpt>
      <trkpt lat="47.02298" lon="8.90545">
        <ele>1121</ele>
        <time>2021-08-03T09:35:44.318Z</time>
      </trkpt>
      <trkpt lat="47.02298" lon="8.90543">
        <ele>1121</ele>
        <time>2021-08-03T09:35:45.318Z</time>
      </trkpt>
      <trkpt lat="47.02298" lon="8.90541">
        <ele>1122</ele>
        <time>2021-08-03T09:35:46.318Z</time>
      </trkpt>
      <trkpt lat="47.02297" lon="8.90539">
        <ele>1122</ele>
        <time>2021-08-03T09:35:47.318Z</time>
      </trkpt>
      <trkpt lat="47.02297" lon="8.90537">
        <ele>1122</ele>
        <time>2021-08-03T09:35:48.318Z</time>
      </trkpt>
      <trkpt lat="47.02297" lon="8.90536">
        <ele>1122</ele>
        <time>2021-08-03T09:35:49.318Z</time>
      </trkpt>
      <trkpt lat="47.02297" lon="8.90535">
        <ele>1122</ele>
        <time>2021-08-03T09:35:50.318Z</time>
      </trkpt>
      <trkpt lat="47.02297" lon="8.90533">
        <ele>1122</ele>
        <time>2021-08-03T09:35:51.317Z</time>
      </trkpt>
      <trkpt lat="47.02297" lon="8.90531">
        <ele>1122</ele>
        <time>2021-08-03T09:35:52.317Z</time>
      </trkpt>
      <trkpt lat="47.02296" lon="8.9053">
        <ele>1122</ele>
        <time>2021-08-03T09:35:53.318Z</time>
      </trkpt>
      <trkpt lat="47.02296" lon="8.90528">
        <ele>1122</ele>
        <time>2021-08-03T09:35:54.318Z</time>
      </trkpt>
      <trkpt lat="47.02296" lon="8.90526">
        <ele>1122</ele>
        <time>2021-08-03T09:35:55.318Z</time>
      </trkpt>
      <trkpt lat="47.02295" lon="8.90525">
        <ele>1122</ele>
        <time>2021-08-03T09:35:56.317Z</time>
      </trkpt>
      <trkpt lat="47.02295" lon="8.90523">
        <ele>1123</ele>
        <time>2021-08-03T09:35:57.317Z</time>
      </trkpt>
      <trkpt lat="47.02294" lon="8.90522">
        <ele>1123</ele>
        <time>2021-08-03T09:35:58.318Z</time>
      </trkpt>
      <trkpt lat="47.02294" lon="8.9052">
        <ele>1123</ele>
        <time>2021-08-03T09:35:59.318Z</time>
      </trkpt>
      <trkpt lat="47.02294" lon="8.90518">
        <ele>1124</ele>
        <time>2021-08-03T09:36:00.317Z</time>
      </trkpt>
      <trkpt lat="47.02293" lon="8.90516">
        <ele>1124</ele>
        <time>2021-08-03T09:36:01.318Z</time>
      </trkpt>
      <trkpt lat="47.02293" lon="8.90514">
        <ele>1124</ele>
        <time>2021-08-03T09:36:02.317Z</time>
      </trkpt>
      <trkpt lat="47.02293" lon="8.90513">
        <ele>1124</ele>
        <time>2021-08-03T09:36:03.317Z</time>
      </trkpt>
      <trkpt lat="47.02293" lon="8.90511">
        <ele>1124</ele>
        <time>2021-08-03T09:36:04.318Z</time>
      </trkpt>
      <trkpt lat="47.02293" lon="8.9051">
        <ele>1124</ele>
        <time>2021-08-03T09:36:05.318Z</time>
      </trkpt>
      <trkpt lat="47.02293" lon="8.90508">
        <ele>1124</ele>
        <time>2021-08-03T09:36:06.317Z</time>
      </trkpt>
      <trkpt lat="47.02292" lon="8.90506">
        <ele>1123</ele>
        <time>2021-08-03T09:36:07.318Z</time>
      </trkpt>
      <trkpt lat="47.02292" lon="8.90505">
        <ele>1123</ele>
        <time>2021-08-03T09:36:08.318Z</time>
      </trkpt>
      <trkpt lat="47.02291" lon="8.90503">
        <ele>1122</ele>
        <time>2021-08-03T09:36:09.318Z</time>
      </trkpt>
      <trkpt lat="47.02291" lon="8.90502">
        <ele>1122</ele>
        <time>2021-08-03T09:36:10.317Z</time>
      </trkpt>
      <trkpt lat="47.02291" lon="8.905">
        <ele>1122</ele>
        <time>2021-08-03T09:36:11.317Z</time>
      </trkpt>
      <trkpt lat="47.02291" lon="8.90499">
        <ele>1122</ele>
        <time>2021-08-03T09:36:12.317Z</time>
      </trkpt>
      <trkpt lat="47.0229" lon="8.90498">
        <ele>1122</ele>
        <time>2021-08-03T09:36:13.318Z</time>
      </trkpt>
      <trkpt lat="47.0229" lon="8.90496">
        <ele>1122</ele>
        <time>2021-08-03T09:36:14.318Z</time>
      </trkpt>
      <trkpt lat="47.02289" lon="8.90494">
        <ele>1122</ele>
        <time>2021-08-03T09:36:15.318Z</time>
      </trkpt>
      <trkpt lat="47.02289" lon="8.90492">
        <ele>1122</ele>
        <time>2021-08-03T09:36:16.318Z</time>
      </trkpt>
      <trkpt lat="47.02289" lon="8.90491">
        <ele>1123</ele>
        <time>2021-08-03T09:36:17.318Z</time>
      </trkpt>
      <trkpt lat="47.02289" lon="8.90489">
        <ele>1122</ele>
        <time>2021-08-03T09:36:18.318Z</time>
      </trkpt>
      <trkpt lat="47.02289" lon="8.90488">
        <ele>1122</ele>
        <time>2021-08-03T09:36:19.318Z</time>
      </trkpt>
      <trkpt lat="47.02289" lon="8.90486">
        <ele>1123</ele>
        <time>2021-08-03T09:36:20.318Z</time>
      </trkpt>
      <trkpt lat="47.02288" lon="8.90485">
        <ele>1123</ele>
        <time>2021-08-03T09:36:21.318Z</time>
      </trkpt>
      <trkpt lat="47.02288" lon="8.90483">
        <ele>1123</ele>
        <time>2021-08-03T09:36:22.318Z</time>
      </trkpt>
      <trkpt lat="47.02288" lon="8.90482">
        <ele>1122</ele>
        <time>2021-08-03T09:36:23.318Z</time>
      </trkpt>
      <trkpt lat="47.02288" lon="8.9048">
        <ele>1122</ele>
        <time>2021-08-03T09:36:24.318Z</time>
      </trkpt>
      <trkpt lat="47.02288" lon="8.90478">
        <ele>1122</ele>
        <time>2021-08-03T09:36:25.317Z</time>
      </trkpt>
      <trkpt lat="47.02288" lon="8.90477">
        <ele>1122</ele>
        <time>2021-08-03T09:36:26.318Z</time>
      </trkpt>
      <trkpt lat="47.02287" lon="8.90475">
        <ele>1122</ele>
        <time>2021-08-03T09:36:27.318Z</time>
      </trkpt>
      <trkpt lat="47.02286" lon="8.90474">
        <ele>1121</ele>
        <time>2021-08-03T09:36:28.318Z</time>
      </trkpt>
      <trkpt lat="47.02286" lon="8.90473">
        <ele>1121</ele>
        <time>2021-08-03T09:36:29.318Z</time>
      </trkpt>
      <trkpt lat="47.02285" lon="8.90471">
        <ele>1121</ele>
        <time>2021-08-03T09:36:30.318Z</time>
      </trkpt>
      <trkpt lat="47.02284" lon="8.9047">
        <ele>1121</ele>
        <time>2021-08-03T09:36:31.318Z</time>
      </trkpt>
      <trkpt lat="47.02284" lon="8.90468">
        <ele>1122</ele>
        <time>2021-08-03T09:36:32.318Z</time>
      </trkpt>
      <trkpt lat="47.02284" lon="8.90467">
        <ele>1122</ele>
        <time>2021-08-03T09:36:33.318Z</time>
      </trkpt>
      <trkpt lat="47.02283" lon="8.90466">
        <ele>1122</ele>
        <time>2021-08-03T09:36:34.317Z</time>
      </trkpt>
      <trkpt lat="47.02282" lon="8.90464">
        <ele>1123</ele>
        <time>2021-08-03T09:36:35.318Z</time>
      </trkpt>
      <trkpt lat="47.02282" lon="8.90463">
        <ele>1123</ele>
        <time>2021-08-03T09:36:36.318Z</time>
      </trkpt>
      <trkpt lat="47.02281" lon="8.90462">
        <ele>1124</ele>
        <time>2021-08-03T09:36:37.318Z</time>
      </trkpt>
      <trkpt lat="47.0228" lon="8.90461">
        <ele>1123</ele>
        <time>2021-08-03T09:36:38.317Z</time>
      </trkpt>
      <trkpt lat="47.02279" lon="8.90459">
        <ele>1123</ele>
        <time>2021-08-03T09:36:39.317Z</time>
      </trkpt>
      <trkpt lat="47.02279" lon="8.90458">
        <ele>1123</ele>
        <time>2021-08-03T09:36:40.318Z</time>
      </trkpt>
      <trkpt lat="47.02278" lon="8.90457">
        <ele>1123</ele>
        <time>2021-08-03T09:36:41.317Z</time>
      </trkpt>
      <trkpt lat="47.02277" lon="8.90456">
        <ele>1124</ele>
        <time>2021-08-03T09:36:42.317Z</time>
      </trkpt>
      <trkpt lat="47.02277" lon="8.90454">
        <ele>1124</ele>
        <time>2021-08-03T09:36:43.318Z</time>
      </trkpt>
      <trkpt lat="47.02276" lon="8.90452">
        <ele>1125</ele>
        <time>2021-08-03T09:36:44.318Z</time>
      </trkpt>
      <trkpt lat="47.02275" lon="8.90451">
        <ele>1126</ele>
        <time>2021-08-03T09:36:45.318Z</time>
      </trkpt>
      <trkpt lat="47.02274" lon="8.90449">
        <ele>1127</ele>
        <time>2021-08-03T09:36:46.318Z</time>
      </trkpt>
      <trkpt lat="47.02273" lon="8.90447">
        <ele>1128</ele>
        <time>2021-08-03T09:36:47.318Z</time>
      </trkpt>
      <trkpt lat="47.02273" lon="8.90446">
        <ele>1129</ele>
        <time>2021-08-03T09:36:48.318Z</time>
      </trkpt>
      <trkpt lat="47.02272" lon="8.90444">
        <ele>1130</ele>
        <time>2021-08-03T09:36:49.318Z</time>
      </trkpt>
      <trkpt lat="47.02272" lon="8.90443">
        <ele>1130</ele>
        <time>2021-08-03T09:36:50.318Z</time>
      </trkpt>
      <trkpt lat="47.02272" lon="8.90441">
        <ele>1131</ele>
        <time>2021-08-03T09:36:51.318Z</time>
      </trkpt>
      <trkpt lat="47.02272" lon="8.90438">
        <ele>1131</ele>
        <time>2021-08-03T09:36:52.317Z</time>
      </trkpt>
      <trkpt lat="47.02272" lon="8.90436">
        <ele>1131</ele>
        <time>2021-08-03T09:36:53.317Z</time>
      </trkpt>
      <trkpt lat="47.02271" lon="8.90434">
        <ele>1131</ele>
        <time>2021-08-03T09:36:54.318Z</time>
      </trkpt>
      <trkpt lat="47.0227" lon="8.90433">
        <ele>1131</ele>
        <time>2021-08-03T09:36:55.317Z</time>
      </trkpt>
      <trkpt lat="47.0227" lon="8.90432">
        <ele>1131</ele>
        <time>2021-08-03T09:36:56.317Z</time>
      </trkpt>
      <trkpt lat="47.02269" lon="8.9043">
        <ele>1132</ele>
        <time>2021-08-03T09:36:57.317Z</time>
      </trkpt>
      <trkpt lat="47.02269" lon="8.90429">
        <ele>1132</ele>
        <time>2021-08-03T09:36:58.317Z</time>
      </trkpt>
      <trkpt lat="47.02268" lon="8.90427">
        <ele>1133</ele>
        <time>2021-08-03T09:36:59.317Z</time>
      </trkpt>
      <trkpt lat="47.02267" lon="8.90426">
        <ele>1133</ele>
        <time>2021-08-03T09:37:00.317Z</time>
      </trkpt>
      <trkpt lat="47.02267" lon="8.90425">
        <ele>1133</ele>
        <time>2021-08-03T09:37:01.318Z</time>
      </trkpt>
      <trkpt lat="47.02266" lon="8.90425">
        <ele>1133</ele>
        <time>2021-08-03T09:37:02.318Z</time>
      </trkpt>
      <trkpt lat="47.02266" lon="8.90424">
        <ele>1133</ele>
        <time>2021-08-03T09:37:03.317Z</time>
      </trkpt>
      <trkpt lat="47.02265" lon="8.90423">
        <ele>1133</ele>
        <time>2021-08-03T09:37:04.318Z</time>
      </trkpt>
      <trkpt lat="47.02265" lon="8.90423">
        <ele>1134</ele>
        <time>2021-08-03T09:37:05.318Z</time>
      </trkpt>
      <trkpt lat="47.02265" lon="8.90422">
        <ele>1134</ele>
        <time>2021-08-03T09:37:06.318Z</time>
      </trkpt>
      <trkpt lat="47.02264" lon="8.90421">
        <ele>1134</ele>
        <time>2021-08-03T09:37:07.317Z</time>
      </trkpt>
      <trkpt lat="47.02263" lon="8.9042">
        <ele>1134</ele>
        <time>2021-08-03T09:37:08.318Z</time>
      </trkpt>
      <trkpt lat="47.02263" lon="8.90419">
        <ele>1134</ele>
        <time>2021-08-03T09:37:09.318Z</time>
      </trkpt>
      <trkpt lat="47.02263" lon="8.90418">
        <ele>1134</ele>
        <time>2021-08-03T09:37:10.318Z</time>
      </trkpt>
      <trkpt lat="47.02263" lon="8.90417">
        <ele>1133</ele>
        <time>2021-08-03T09:37:11.317Z</time>
      </trkpt>
      <trkpt lat="47.02263" lon="8.90416">
        <ele>1133</ele>
        <time>2021-08-03T09:37:12.318Z</time>
      </trkpt>
      <trkpt lat="47.02262" lon="8.90416">
        <ele>1133</ele>
        <time>2021-08-03T09:37:13.318Z</time>
      </trkpt>
      <trkpt lat="47.02262" lon="8.90415">
        <ele>1133</ele>
        <time>2021-08-03T09:37:14.318Z</time>
      </trkpt>
      <trkpt lat="47.02261" lon="8.90414">
        <ele>1133</ele>
        <time>2021-08-03T09:37:15.317Z</time>
      </trkpt>
      <trkpt lat="47.02261" lon="8.90412">
        <ele>1133</ele>
        <time>2021-08-03T09:37:16.318Z</time>
      </trkpt>
      <trkpt lat="47.0226" lon="8.90411">
        <ele>1133</ele>
        <time>2021-08-03T09:37:17.318Z</time>
      </trkpt>
      <trkpt lat="47.0226" lon="8.9041">
        <ele>1133</ele>
        <time>2021-08-03T09:37:18.317Z</time>
      </trkpt>
      <trkpt lat="47.0226" lon="8.90407">
        <ele>1133</ele>
        <time>2021-08-03T09:37:19.317Z</time>
      </trkpt>
      <trkpt lat="47.02259" lon="8.90406">
        <ele>1133</ele>
        <time>2021-08-03T09:37:20.317Z</time>
      </trkpt>
      <trkpt lat="47.02259" lon="8.90405">
        <ele>1133</ele>
        <time>2021-08-03T09:37:21.317Z</time>
      </trkpt>
      <trkpt lat="47.02258" lon="8.90404">
        <ele>1133</ele>
        <time>2021-08-03T09:37:22.318Z</time>
      </trkpt>
      <trkpt lat="47.02257" lon="8.90403">
        <ele>1133</ele>
        <time>2021-08-03T09:37:23.317Z</time>
      </trkpt>
      <trkpt lat="47.02257" lon="8.90402">
        <ele>1133</ele>
        <time>2021-08-03T09:37:24.318Z</time>
      </trkpt>
      <trkpt lat="47.02256" lon="8.90401">
        <ele>1133</ele>
        <time>2021-08-03T09:37:25.317Z</time>
      </trkpt>
      <trkpt lat="47.02256" lon="8.904">
        <ele>1133</ele>
        <time>2021-08-03T09:37:26.318Z</time>
      </trkpt>
      <trkpt lat="47.02256" lon="8.90398">
        <ele>1132</ele>
        <time>2021-08-03T09:37:27.318Z</time>
      </trkpt>
      <trkpt lat="47.02255" lon="8.90397">
        <ele>1132</ele>
        <time>2021-08-03T09:37:28.318Z</time>
      </trkpt>
      <trkpt lat="47.02255" lon="8.90395">
        <ele>1131</ele>
        <time>2021-08-03T09:37:29.318Z</time>
      </trkpt>
      <trkpt lat="47.02255" lon="8.90394">
        <ele>1131</ele>
        <time>2021-08-03T09:37:30.318Z</time>
      </trkpt>
      <trkpt lat="47.02254" lon="8.90392">
        <ele>1131</ele>
        <time>2021-08-03T09:37:31.317Z</time>
      </trkpt>
      <trkpt lat="47.02254" lon="8.90391">
        <ele>1131</ele>
        <time>2021-08-03T09:37:32.318Z</time>
      </trkpt>
      <trkpt lat="47.02254" lon="8.90389">
        <ele>1131</ele>
        <time>2021-08-03T09:37:33.318Z</time>
      </trkpt>
      <trkpt lat="47.02254" lon="8.90388">
        <ele>1130</ele>
        <time>2021-08-03T09:37:34.317Z</time>
      </trkpt>
      <trkpt lat="47.02254" lon="8.90387">
        <ele>1130</ele>
        <time>2021-08-03T09:37:35.317Z</time>
      </trkpt>
      <trkpt lat="47.02253" lon="8.90385">
        <ele>1130</ele>
        <time>2021-08-03T09:37:36.318Z</time>
      </trkpt>
      <trkpt lat="47.02253" lon="8.90384">
        <ele>1130</ele>
        <time>2021-08-03T09:37:37.317Z</time>
      </trkpt>
      <trkpt lat="47.02252" lon="8.90383">
        <ele>1131</ele>
        <time>2021-08-03T09:37:38.317Z</time>
      </trkpt>
      <trkpt lat="47.02251" lon="8.90379">
        <ele>1130</ele>
        <time>2021-08-03T09:37:39.317Z</time>
      </trkpt>
      <trkpt lat="47.02249" lon="8.90378">
        <ele>1131</ele>
        <time>2021-08-03T09:37:40.318Z</time>
      </trkpt>
      <trkpt lat="47.02248" lon="8.90377">
        <ele>1131</ele>
        <time>2021-08-03T09:37:41.318Z</time>
      </trkpt>
      <trkpt lat="47.02248" lon="8.90375">
        <ele>1131</ele>
        <time>2021-08-03T09:37:42.317Z</time>
      </trkpt>
      <trkpt lat="47.02248" lon="8.90373">
        <ele>1131</ele>
        <time>2021-08-03T09:37:43.317Z</time>
      </trkpt>
      <trkpt lat="47.02248" lon="8.90371">
        <ele>1131</ele>
        <time>2021-08-03T09:37:44.318Z</time>
      </trkpt>
      <trkpt lat="47.02247" lon="8.90369">
        <ele>1131</ele>
        <time>2021-08-03T09:37:45.317Z</time>
      </trkpt>
      <trkpt lat="47.02247" lon="8.90368">
        <ele>1131</ele>
        <time>2021-08-03T09:37:46.318Z</time>
      </trkpt>
      <trkpt lat="47.02246" lon="8.90366">
        <ele>1132</ele>
        <time>2021-08-03T09:37:47.318Z</time>
      </trkpt>
      <trkpt lat="47.02245" lon="8.90365">
        <ele>1132</ele>
        <time>2021-08-03T09:37:48.318Z</time>
      </trkpt>
      <trkpt lat="47.02244" lon="8.90364">
        <ele>1133</ele>
        <time>2021-08-03T09:37:49.318Z</time>
      </trkpt>
      <trkpt lat="47.02244" lon="8.90363">
        <ele>1133</ele>
        <time>2021-08-03T09:37:50.318Z</time>
      </trkpt>
      <trkpt lat="47.02243" lon="8.90363">
        <ele>1133</ele>
        <time>2021-08-03T09:37:51.318Z</time>
      </trkpt>
      <trkpt lat="47.02243" lon="8.90362">
        <ele>1133</ele>
        <time>2021-08-03T09:37:52.318Z</time>
      </trkpt>
      <trkpt lat="47.02242" lon="8.9036">
        <ele>1133</ele>
        <time>2021-08-03T09:37:53.318Z</time>
      </trkpt>
      <trkpt lat="47.02242" lon="8.90359">
        <ele>1134</ele>
        <time>2021-08-03T09:37:54.317Z</time>
      </trkpt>
      <trkpt lat="47.02241" lon="8.90357">
        <ele>1134</ele>
        <time>2021-08-03T09:37:55.318Z</time>
      </trkpt>
      <trkpt lat="47.02241" lon="8.90356">
        <ele>1134</ele>
        <time>2021-08-03T09:37:56.318Z</time>
      </trkpt>
      <trkpt lat="47.0224" lon="8.90355">
        <ele>1134</ele>
        <time>2021-08-03T09:37:57.318Z</time>
      </trkpt>
      <trkpt lat="47.02239" lon="8.90353">
        <ele>1134</ele>
        <time>2021-08-03T09:37:58.318Z</time>
      </trkpt>
      <trkpt lat="47.02239" lon="8.90352">
        <ele>1134</ele>
        <time>2021-08-03T09:37:59.318Z</time>
      </trkpt>
      <trkpt lat="47.02238" lon="8.90351">
        <ele>1133</ele>
        <time>2021-08-03T09:38:00.318Z</time>
      </trkpt>
      <trkpt lat="47.02238" lon="8.9035">
        <ele>1133</ele>
        <time>2021-08-03T09:38:01.317Z</time>
      </trkpt>
      <trkpt lat="47.02237" lon="8.90348">
        <ele>1132</ele>
        <time>2021-08-03T09:38:02.317Z</time>
      </trkpt>
      <trkpt lat="47.02236" lon="8.90346">
        <ele>1132</ele>
        <time>2021-08-03T09:38:03.317Z</time>
      </trkpt>
      <trkpt lat="47.02235" lon="8.90344">
        <ele>1132</ele>
        <time>2021-08-03T09:38:04.318Z</time>
      </trkpt>
      <trkpt lat="47.02235" lon="8.90342">
        <ele>1133</ele>
        <time>2021-08-03T09:38:05.318Z</time>
      </trkpt>
      <trkpt lat="47.02234" lon="8.9034">
        <ele>1133</ele>
        <time>2021-08-03T09:38:06.318Z</time>
      </trkpt>
      <trkpt lat="47.02234" lon="8.90339">
        <ele>1134</ele>
        <time>2021-08-03T09:38:07.318Z</time>
      </trkpt>
      <trkpt lat="47.02233" lon="8.90337">
        <ele>1134</ele>
        <time>2021-08-03T09:38:08.318Z</time>
      </trkpt>
      <trkpt lat="47.02233" lon="8.90336">
        <ele>1133</ele>
        <time>2021-08-03T09:38:09.318Z</time>
      </trkpt>
      <trkpt lat="47.02233" lon="8.90335">
        <ele>1132</ele>
        <time>2021-08-03T09:38:10.318Z</time>
      </trkpt>
      <trkpt lat="47.02233" lon="8.90334">
        <ele>1131</ele>
        <time>2021-08-03T09:38:11.317Z</time>
      </trkpt>
      <trkpt lat="47.02233" lon="8.90332">
        <ele>1130</ele>
        <time>2021-08-03T09:38:12.318Z</time>
      </trkpt>
      <trkpt lat="47.02234" lon="8.9033">
        <ele>1130</ele>
        <time>2021-08-03T09:38:13.318Z</time>
      </trkpt>
      <trkpt lat="47.02234" lon="8.90328">
        <ele>1130</ele>
        <time>2021-08-03T09:38:14.318Z</time>
      </trkpt>
      <trkpt lat="47.02234" lon="8.90327">
        <ele>1130</ele>
        <time>2021-08-03T09:38:15.318Z</time>
      </trkpt>
      <trkpt lat="47.02234" lon="8.90325">
        <ele>1130</ele>
        <time>2021-08-03T09:38:16.318Z</time>
      </trkpt>
      <trkpt lat="47.02234" lon="8.90324">
        <ele>1130</ele>
        <time>2021-08-03T09:38:17.318Z</time>
      </trkpt>
      <trkpt lat="47.02233" lon="8.90323">
        <ele>1130</ele>
        <time>2021-08-03T09:38:18.318Z</time>
      </trkpt>
      <trkpt lat="47.02233" lon="8.90321">
        <ele>1130</ele>
        <time>2021-08-03T09:38:19.318Z</time>
      </trkpt>
      <trkpt lat="47.02233" lon="8.9032">
        <ele>1130</ele>
        <time>2021-08-03T09:38:20.317Z</time>
      </trkpt>
      <trkpt lat="47.02233" lon="8.90318">
        <ele>1130</ele>
        <time>2021-08-03T09:38:21.317Z</time>
      </trkpt>
      <trkpt lat="47.02232" lon="8.90317">
        <ele>1130</ele>
        <time>2021-08-03T09:38:22.317Z</time>
      </trkpt>
      <trkpt lat="47.02231" lon="8.90318">
        <ele>1131</ele>
        <time>2021-08-03T09:38:23.318Z</time>
      </trkpt>
      <trkpt lat="47.02231" lon="8.90317">
        <ele>1131</ele>
        <time>2021-08-03T09:38:24.318Z</time>
      </trkpt>
      <trkpt lat="47.02231" lon="8.90315">
        <ele>1131</ele>
        <time>2021-08-03T09:38:25.318Z</time>
      </trkpt>
      <trkpt lat="47.02231" lon="8.90314">
        <ele>1131</ele>
        <time>2021-08-03T09:38:26.317Z</time>
      </trkpt>
      <trkpt lat="47.02231" lon="8.90312">
        <ele>1131</ele>
        <time>2021-08-03T09:38:27.318Z</time>
      </trkpt>
      <trkpt lat="47.02231" lon="8.9031">
        <ele>1130</ele>
        <time>2021-08-03T09:38:28.318Z</time>
      </trkpt>
      <trkpt lat="47.02231" lon="8.9031">
        <ele>1130</ele>
        <time>2021-08-03T09:38:29.318Z</time>
      </trkpt>
      <trkpt lat="47.02231" lon="8.9031">
        <ele>1129</ele>
        <time>2021-08-03T09:38:30.317Z</time>
      </trkpt>
      <trkpt lat="47.02231" lon="8.90309">
        <ele>1129</ele>
        <time>2021-08-03T09:38:31.318Z</time>
      </trkpt>
      <trkpt lat="47.02231" lon="8.90309">
        <ele>1128</ele>
        <time>2021-08-03T09:38:32.318Z</time>
      </trkpt>
      <trkpt lat="47.02229" lon="8.90306">
        <ele>1128</ele>
        <time>2021-08-03T09:38:33.317Z</time>
      </trkpt>
      <trkpt lat="47.02229" lon="8.90304">
        <ele>1128</ele>
        <time>2021-08-03T09:38:34.317Z</time>
      </trkpt>
      <trkpt lat="47.02229" lon="8.90303">
        <ele>1127</ele>
        <time>2021-08-03T09:38:35.317Z</time>
      </trkpt>
      <trkpt lat="47.02229" lon="8.90301">
        <ele>1127</ele>
        <time>2021-08-03T09:38:36.318Z</time>
      </trkpt>
      <trkpt lat="47.02229" lon="8.90299">
        <ele>1127</ele>
        <time>2021-08-03T09:38:37.317Z</time>
      </trkpt>
      <trkpt lat="47.02229" lon="8.90298">
        <ele>1126</ele>
        <time>2021-08-03T09:38:38.317Z</time>
      </trkpt>
      <trkpt lat="47.02229" lon="8.90296">
        <ele>1126</ele>
        <time>2021-08-03T09:38:39.317Z</time>
      </trkpt>
      <trkpt lat="47.02229" lon="8.90294">
        <ele>1126</ele>
        <time>2021-08-03T09:38:40.317Z</time>
      </trkpt>
      <trkpt lat="47.02229" lon="8.90293">
        <ele>1126</ele>
        <time>2021-08-03T09:38:41.317Z</time>
      </trkpt>
      <trkpt lat="47.02229" lon="8.90291">
        <ele>1125</ele>
        <time>2021-08-03T09:38:42.317Z</time>
      </trkpt>
      <trkpt lat="47.02228" lon="8.9029">
        <ele>1125</ele>
        <time>2021-08-03T09:38:43.318Z</time>
      </trkpt>
      <trkpt lat="47.02227" lon="8.90289">
        <ele>1125</ele>
        <time>2021-08-03T09:38:44.317Z</time>
      </trkpt>
      <trkpt lat="47.02227" lon="8.90287">
        <ele>1125</ele>
        <time>2021-08-03T09:38:45.318Z</time>
      </trkpt>
      <trkpt lat="47.02227" lon="8.90285">
        <ele>1125</ele>
        <time>2021-08-03T09:38:46.317Z</time>
      </trkpt>
      <trkpt lat="47.02227" lon="8.90283">
        <ele>1126</ele>
        <time>2021-08-03T09:38:47.317Z</time>
      </trkpt>
      <trkpt lat="47.02227" lon="8.90281">
        <ele>1126</ele>
        <time>2021-08-03T09:38:48.317Z</time>
      </trkpt>
      <trkpt lat="47.02226" lon="8.9028">
        <ele>1127</ele>
        <time>2021-08-03T09:38:49.317Z</time>
      </trkpt>
      <trkpt lat="47.02226" lon="8.90278">
        <ele>1127</ele>
        <time>2021-08-03T09:38:50.317Z</time>
      </trkpt>
      <trkpt lat="47.02226" lon="8.90277">
        <ele>1127</ele>
        <time>2021-08-03T09:38:51.318Z</time>
      </trkpt>
      <trkpt lat="47.02226" lon="8.90275">
        <ele>1127</ele>
        <time>2021-08-03T09:38:52.318Z</time>
      </trkpt>
      <trkpt lat="47.02226" lon="8.90273">
        <ele>1127</ele>
        <time>2021-08-03T09:38:53.317Z</time>
      </trkpt>
      <trkpt lat="47.02226" lon="8.90271">
        <ele>1127</ele>
        <time>2021-08-03T09:38:54.318Z</time>
      </trkpt>
      <trkpt lat="47.02226" lon="8.90269">
        <ele>1127</ele>
        <time>2021-08-03T09:38:55.318Z</time>
      </trkpt>
      <trkpt lat="47.02226" lon="8.90267">
        <ele>1126</ele>
        <time>2021-08-03T09:38:56.317Z</time>
      </trkpt>
      <trkpt lat="47.02226" lon="8.90265">
        <ele>1126</ele>
        <time>2021-08-03T09:38:57.318Z</time>
      </trkpt>
      <trkpt lat="47.02226" lon="8.90263">
        <ele>1126</ele>
        <time>2021-08-03T09:38:58.317Z</time>
      </trkpt>
      <trkpt lat="47.02226" lon="8.90261">
        <ele>1126</ele>
        <time>2021-08-03T09:38:59.317Z</time>
      </trkpt>
      <trkpt lat="47.02226" lon="8.9026">
        <ele>1126</ele>
        <time>2021-08-03T09:39:00.317Z</time>
      </trkpt>
      <trkpt lat="47.02226" lon="8.90258">
        <ele>1126</ele>
        <time>2021-08-03T09:39:01.317Z</time>
      </trkpt>
      <trkpt lat="47.02227" lon="8.90257">
        <ele>1126</ele>
        <time>2021-08-03T09:39:02.317Z</time>
      </trkpt>
      <trkpt lat="47.02226" lon="8.90255">
        <ele>1126</ele>
        <time>2021-08-03T09:39:03.317Z</time>
      </trkpt>
      <trkpt lat="47.02226" lon="8.90253">
        <ele>1126</ele>
        <time>2021-08-03T09:39:04.317Z</time>
      </trkpt>
      <trkpt lat="47.02226" lon="8.90251">
        <ele>1126</ele>
        <time>2021-08-03T09:39:05.317Z</time>
      </trkpt>
      <trkpt lat="47.02226" lon="8.9025">
        <ele>1126</ele>
        <time>2021-08-03T09:39:06.317Z</time>
      </trkpt>
      <trkpt lat="47.02225" lon="8.90248">
        <ele>1126</ele>
        <time>2021-08-03T09:39:07.317Z</time>
      </trkpt>
      <trkpt lat="47.02225" lon="8.90246">
        <ele>1126</ele>
        <time>2021-08-03T09:39:08.318Z</time>
      </trkpt>
      <trkpt lat="47.02225" lon="8.90244">
        <ele>1126</ele>
        <time>2021-08-03T09:39:09.318Z</time>
      </trkpt>
      <trkpt lat="47.02224" lon="8.90242">
        <ele>1126</ele>
        <time>2021-08-03T09:39:10.318Z</time>
      </trkpt>
      <trkpt lat="47.02224" lon="8.9024">
        <ele>1126</ele>
        <time>2021-08-03T09:39:11.317Z</time>
      </trkpt>
      <trkpt lat="47.02224" lon="8.90239">
        <ele>1126</ele>
        <time>2021-08-03T09:39:12.317Z</time>
      </trkpt>
      <trkpt lat="47.02223" lon="8.90237">
        <ele>1126</ele>
        <time>2021-08-03T09:39:13.317Z</time>
      </trkpt>
      <trkpt lat="47.02223" lon="8.90236">
        <ele>1126</ele>
        <time>2021-08-03T09:39:14.317Z</time>
      </trkpt>
      <trkpt lat="47.02223" lon="8.90234">
        <ele>1126</ele>
        <time>2021-08-03T09:39:15.317Z</time>
      </trkpt>
      <trkpt lat="47.02223" lon="8.90232">
        <ele>1126</ele>
        <time>2021-08-03T09:39:16.318Z</time>
      </trkpt>
      <trkpt lat="47.02222" lon="8.90231">
        <ele>1125</ele>
        <time>2021-08-03T09:39:17.318Z</time>
      </trkpt>
      <trkpt lat="47.02222" lon="8.90229">
        <ele>1125</ele>
        <time>2021-08-03T09:39:18.318Z</time>
      </trkpt>
      <trkpt lat="47.02222" lon="8.90227">
        <ele>1125</ele>
        <time>2021-08-03T09:39:19.317Z</time>
      </trkpt>
      <trkpt lat="47.02222" lon="8.90225">
        <ele>1126</ele>
        <time>2021-08-03T09:39:20.317Z</time>
      </trkpt>
      <trkpt lat="47.02222" lon="8.90224">
        <ele>1126</ele>
        <time>2021-08-03T09:39:21.318Z</time>
      </trkpt>
      <trkpt lat="47.02221" lon="8.90222">
        <ele>1126</ele>
        <time>2021-08-03T09:39:22.317Z</time>
      </trkpt>
      <trkpt lat="47.02221" lon="8.9022">
        <ele>1126</ele>
        <time>2021-08-03T09:39:23.317Z</time>
      </trkpt>
      <trkpt lat="47.02221" lon="8.90219">
        <ele>1126</ele>
        <time>2021-08-03T09:39:24.317Z</time>
      </trkpt>
      <trkpt lat="47.02221" lon="8.90217">
        <ele>1126</ele>
        <time>2021-08-03T09:39:25.317Z</time>
      </trkpt>
      <trkpt lat="47.02221" lon="8.90216">
        <ele>1126</ele>
        <time>2021-08-03T09:39:26.317Z</time>
      </trkpt>
      <trkpt lat="47.02221" lon="8.90214">
        <ele>1125</ele>
        <time>2021-08-03T09:39:27.317Z</time>
      </trkpt>
      <trkpt lat="47.02221" lon="8.90212">
        <ele>1126</ele>
        <time>2021-08-03T09:39:28.317Z</time>
      </trkpt>
      <trkpt lat="47.0222" lon="8.9021">
        <ele>1126</ele>
        <time>2021-08-03T09:39:29.318Z</time>
      </trkpt>
      <trkpt lat="47.0222" lon="8.90209">
        <ele>1126</ele>
        <time>2021-08-03T09:39:30.317Z</time>
      </trkpt>
      <trkpt lat="47.0222" lon="8.90208">
        <ele>1125</ele>
        <time>2021-08-03T09:39:31.317Z</time>
      </trkpt>
      <trkpt lat="47.0222" lon="8.90206">
        <ele>1125</ele>
        <time>2021-08-03T09:39:32.318Z</time>
      </trkpt>
      <trkpt lat="47.0222" lon="8.90204">
        <ele>1124</ele>
        <time>2021-08-03T09:39:33.317Z</time>
      </trkpt>
      <trkpt lat="47.0222" lon="8.90202">
        <ele>1124</ele>
        <time>2021-08-03T09:39:34.317Z</time>
      </trkpt>
      <trkpt lat="47.02219" lon="8.90201">
        <ele>1124</ele>
        <time>2021-08-03T09:39:35.317Z</time>
      </trkpt>
      <trkpt lat="47.02218" lon="8.90199">
        <ele>1124</ele>
        <time>2021-08-03T09:39:36.317Z</time>
      </trkpt>
      <trkpt lat="47.02217" lon="8.90198">
        <ele>1124</ele>
        <time>2021-08-03T09:39:37.317Z</time>
      </trkpt>
      <trkpt lat="47.02216" lon="8.90196">
        <ele>1124</ele>
        <time>2021-08-03T09:39:38.317Z</time>
      </trkpt>
      <trkpt lat="47.02216" lon="8.90195">
        <ele>1125</ele>
        <time>2021-08-03T09:39:39.318Z</time>
      </trkpt>
      <trkpt lat="47.02215" lon="8.90192">
        <ele>1125</ele>
        <time>2021-08-03T09:39:40.317Z</time>
      </trkpt>
      <trkpt lat="47.02214" lon="8.90191">
        <ele>1125</ele>
        <time>2021-08-03T09:39:41.317Z</time>
      </trkpt>
      <trkpt lat="47.02213" lon="8.9019">
        <ele>1126</ele>
        <time>2021-08-03T09:39:42.317Z</time>
      </trkpt>
      <trkpt lat="47.02212" lon="8.90188">
        <ele>1126</ele>
        <time>2021-08-03T09:39:43.317Z</time>
      </trkpt>
      <trkpt lat="47.02211" lon="8.90186">
        <ele>1127</ele>
        <time>2021-08-03T09:39:44.318Z</time>
      </trkpt>
      <trkpt lat="47.0221" lon="8.90184">
        <ele>1128</ele>
        <time>2021-08-03T09:39:45.317Z</time>
      </trkpt>
      <trkpt lat="47.02209" lon="8.90182">
        <ele>1128</ele>
        <time>2021-08-03T09:39:46.318Z</time>
      </trkpt>
      <trkpt lat="47.02209" lon="8.90181">
        <ele>1129</ele>
        <time>2021-08-03T09:39:47.317Z</time>
      </trkpt>
      <trkpt lat="47.02209" lon="8.9018">
        <ele>1128</ele>
        <time>2021-08-03T09:39:48.317Z</time>
      </trkpt>
      <trkpt lat="47.02208" lon="8.90178">
        <ele>1128</ele>
        <time>2021-08-03T09:39:49.317Z</time>
      </trkpt>
      <trkpt lat="47.02207" lon="8.90177">
        <ele>1128</ele>
        <time>2021-08-03T09:39:50.318Z</time>
      </trkpt>
      <trkpt lat="47.02206" lon="8.90176">
        <ele>1128</ele>
        <time>2021-08-03T09:39:51.317Z</time>
      </trkpt>
      <trkpt lat="47.02205" lon="8.90175">
        <ele>1129</ele>
        <time>2021-08-03T09:39:52.317Z</time>
      </trkpt>
      <trkpt lat="47.02204" lon="8.90173">
        <ele>1129</ele>
        <time>2021-08-03T09:39:53.318Z</time>
      </trkpt>
      <trkpt lat="47.02203" lon="8.90172">
        <ele>1129</ele>
        <time>2021-08-03T09:39:54.317Z</time>
      </trkpt>
      <trkpt lat="47.02202" lon="8.9017">
        <ele>1129</ele>
        <time>2021-08-03T09:39:55.317Z</time>
      </trkpt>
      <trkpt lat="47.02201" lon="8.90169">
        <ele>1129</ele>
        <time>2021-08-03T09:39:56.317Z</time>
      </trkpt>
      <trkpt lat="47.02199" lon="8.90168">
        <ele>1129</ele>
        <time>2021-08-03T09:39:57.318Z</time>
      </trkpt>
      <trkpt lat="47.02198" lon="8.90166">
        <ele>1129</ele>
        <time>2021-08-03T09:39:58.318Z</time>
      </trkpt>
      <trkpt lat="47.02197" lon="8.90164">
        <ele>1129</ele>
        <time>2021-08-03T09:39:59.318Z</time>
      </trkpt>
      <trkpt lat="47.02196" lon="8.90163">
        <ele>1129</ele>
        <time>2021-08-03T09:40:00.317Z</time>
      </trkpt>
      <trkpt lat="47.02195" lon="8.90162">
        <ele>1129</ele>
        <time>2021-08-03T09:40:01.317Z</time>
      </trkpt>
      <trkpt lat="47.02194" lon="8.9016">
        <ele>1130</ele>
        <time>2021-08-03T09:40:02.318Z</time>
      </trkpt>
      <trkpt lat="47.02193" lon="8.90159">
        <ele>1130</ele>
        <time>2021-08-03T09:40:03.317Z</time>
      </trkpt>
      <trkpt lat="47.02192" lon="8.90158">
        <ele>1131</ele>
        <time>2021-08-03T09:40:04.317Z</time>
      </trkpt>
      <trkpt lat="47.0219" lon="8.90157">
        <ele>1132</ele>
        <time>2021-08-03T09:40:05.318Z</time>
      </trkpt>
      <trkpt lat="47.02189" lon="8.90156">
        <ele>1133</ele>
        <time>2021-08-03T09:40:06.318Z</time>
      </trkpt>
      <trkpt lat="47.02188" lon="8.90155">
        <ele>1133</ele>
        <time>2021-08-03T09:40:07.317Z</time>
      </trkpt>
      <trkpt lat="47.02188" lon="8.90154">
        <ele>1134</ele>
        <time>2021-08-03T09:40:08.317Z</time>
      </trkpt>
      <trkpt lat="47.02187" lon="8.90153">
        <ele>1135</ele>
        <time>2021-08-03T09:40:09.317Z</time>
      </trkpt>
      <trkpt lat="47.02186" lon="8.90152">
        <ele>1136</ele>
        <time>2021-08-03T09:40:10.318Z</time>
      </trkpt>
      <trkpt lat="47.02184" lon="8.90151">
        <ele>1138</ele>
        <time>2021-08-03T09:40:11.318Z</time>
      </trkpt>
      <trkpt lat="47.02183" lon="8.9015">
        <ele>1139</ele>
        <time>2021-08-03T09:40:12.317Z</time>
      </trkpt>
      <trkpt lat="47.02182" lon="8.90149">
        <ele>1140</ele>
        <time>2021-08-03T09:40:13.317Z</time>
      </trkpt>
      <trkpt lat="47.02181" lon="8.90148">
        <ele>1140</ele>
        <time>2021-08-03T09:40:14.317Z</time>
      </trkpt>
      <trkpt lat="47.0218" lon="8.90147">
        <ele>1140</ele>
        <time>2021-08-03T09:40:15.318Z</time>
      </trkpt>
      <trkpt lat="47.02179" lon="8.90147">
        <ele>1140</ele>
        <time>2021-08-03T09:40:16.317Z</time>
      </trkpt>
      <trkpt lat="47.02178" lon="8.90146">
        <ele>1140</ele>
        <time>2021-08-03T09:40:17.318Z</time>
      </trkpt>
      <trkpt lat="47.02177" lon="8.90145">
        <ele>1140</ele>
        <time>2021-08-03T09:40:18.318Z</time>
      </trkpt>
      <trkpt lat="47.02175" lon="8.90144">
        <ele>1140</ele>
        <time>2021-08-03T09:40:19.318Z</time>
      </trkpt>
      <trkpt lat="47.02173" lon="8.90143">
        <ele>1140</ele>
        <time>2021-08-03T09:40:20.318Z</time>
      </trkpt>
      <trkpt lat="47.02172" lon="8.90142">
        <ele>1140</ele>
        <time>2021-08-03T09:40:21.317Z</time>
      </trkpt>
      <trkpt lat="47.0217" lon="8.90141">
        <ele>1140</ele>
        <time>2021-08-03T09:40:22.317Z</time>
      </trkpt>
      <trkpt lat="47.02169" lon="8.9014">
        <ele>1140</ele>
        <time>2021-08-03T09:40:23.318Z</time>
      </trkpt>
      <trkpt lat="47.02168" lon="8.90139">
        <ele>1141</ele>
        <time>2021-08-03T09:40:24.317Z</time>
      </trkpt>
      <trkpt lat="47.02166" lon="8.90138">
        <ele>1141</ele>
        <time>2021-08-03T09:40:25.317Z</time>
      </trkpt>
      <trkpt lat="47.02165" lon="8.90138">
        <ele>1141</ele>
        <time>2021-08-03T09:40:26.317Z</time>
      </trkpt>
      <trkpt lat="47.02164" lon="8.90137">
        <ele>1141</ele>
        <time>2021-08-03T09:40:27.317Z</time>
      </trkpt>
      <trkpt lat="47.02163" lon="8.90137">
        <ele>1140</ele>
        <time>2021-08-03T09:40:28.317Z</time>
      </trkpt>
      <trkpt lat="47.02162" lon="8.90136">
        <ele>1140</ele>
        <time>2021-08-03T09:40:29.318Z</time>
      </trkpt>
      <trkpt lat="47.02161" lon="8.90135">
        <ele>1139</ele>
        <time>2021-08-03T09:40:30.317Z</time>
      </trkpt>
      <trkpt lat="47.0216" lon="8.90134">
        <ele>1139</ele>
        <time>2021-08-03T09:40:31.317Z</time>
      </trkpt>
      <trkpt lat="47.02158" lon="8.90133">
        <ele>1140</ele>
        <time>2021-08-03T09:40:32.317Z</time>
      </trkpt>
      <trkpt lat="47.02156" lon="8.90132">
        <ele>1140</ele>
        <time>2021-08-03T09:40:33.317Z</time>
      </trkpt>
      <trkpt lat="47.02155" lon="8.90131">
        <ele>1141</ele>
        <time>2021-08-03T09:40:34.317Z</time>
      </trkpt>
      <trkpt lat="47.02153" lon="8.9013">
        <ele>1142</ele>
        <time>2021-08-03T09:40:35.317Z</time>
      </trkpt>
      <trkpt lat="47.02151" lon="8.90129">
        <ele>1142</ele>
        <time>2021-08-03T09:40:36.318Z</time>
      </trkpt>
      <trkpt lat="47.02149" lon="8.90128">
        <ele>1143</ele>
        <time>2021-08-03T09:40:37.317Z</time>
      </trkpt>
      <trkpt lat="47.02148" lon="8.90127">
        <ele>1142</ele>
        <time>2021-08-03T09:40:38.317Z</time>
      </trkpt>
      <trkpt lat="47.02147" lon="8.90127">
        <ele>1142</ele>
        <time>2021-08-03T09:40:39.317Z</time>
      </trkpt>
      <trkpt lat="47.02146" lon="8.90127">
        <ele>1141</ele>
        <time>2021-08-03T09:40:40.317Z</time>
      </trkpt>
      <trkpt lat="47.02145" lon="8.90126">
        <ele>1140</ele>
        <time>2021-08-03T09:40:41.317Z</time>
      </trkpt>
      <trkpt lat="47.02143" lon="8.90126">
        <ele>1140</ele>
        <time>2021-08-03T09:40:42.317Z</time>
      </trkpt>
      <trkpt lat="47.02143" lon="8.90125">
        <ele>1140</ele>
        <time>2021-08-03T09:40:43.317Z</time>
      </trkpt>
      <trkpt lat="47.02142" lon="8.90124">
        <ele>1139</ele>
        <time>2021-08-03T09:40:44.317Z</time>
      </trkpt>
      <trkpt lat="47.02141" lon="8.90124">
        <ele>1139</ele>
        <time>2021-08-03T09:40:45.317Z</time>
      </trkpt>
      <trkpt lat="47.0214" lon="8.90123">
        <ele>1140</ele>
        <time>2021-08-03T09:40:46.318Z</time>
      </trkpt>
      <trkpt lat="47.02139" lon="8.90123">
        <ele>1140</ele>
        <time>2021-08-03T09:40:47.317Z</time>
      </trkpt>
      <trkpt lat="47.02138" lon="8.90122">
        <ele>1140</ele>
        <time>2021-08-03T09:40:48.317Z</time>
      </trkpt>
      <trkpt lat="47.02137" lon="8.90121">
        <ele>1140</ele>
        <time>2021-08-03T09:40:49.317Z</time>
      </trkpt>
      <trkpt lat="47.02136" lon="8.90121">
        <ele>1140</ele>
        <time>2021-08-03T09:40:50.318Z</time>
      </trkpt>
      <trkpt lat="47.02134" lon="8.9012">
        <ele>1140</ele>
        <time>2021-08-03T09:40:51.318Z</time>
      </trkpt>
      <trkpt lat="47.02133" lon="8.9012">
        <ele>1141</ele>
        <time>2021-08-03T09:40:52.317Z</time>
      </trkpt>
      <trkpt lat="47.02132" lon="8.9012">
        <ele>1141</ele>
        <time>2021-08-03T09:40:53.317Z</time>
      </trkpt>
      <trkpt lat="47.02131" lon="8.90119">
        <ele>1141</ele>
        <time>2021-08-03T09:40:54.317Z</time>
      </trkpt>
      <trkpt lat="47.02129" lon="8.90118">
        <ele>1142</ele>
        <time>2021-08-03T09:40:55.317Z</time>
      </trkpt>
      <trkpt lat="47.02129" lon="8.90118">
        <ele>1142</ele>
        <time>2021-08-03T09:40:56.317Z</time>
      </trkpt>
      <trkpt lat="47.02127" lon="8.90118">
        <ele>1142</ele>
        <time>2021-08-03T09:40:57.317Z</time>
      </trkpt>
      <trkpt lat="47.02126" lon="8.90117">
        <ele>1142</ele>
        <time>2021-08-03T09:40:58.317Z</time>
      </trkpt>
      <trkpt lat="47.02126" lon="8.90117">
        <ele>1142</ele>
        <time>2021-08-03T09:40:59.318Z</time>
      </trkpt>
      <trkpt lat="47.02125" lon="8.90117">
        <ele>1142</ele>
        <time>2021-08-03T09:41:00.317Z</time>
      </trkpt>
      <trkpt lat="47.02124" lon="8.90117">
        <ele>1142</ele>
        <time>2021-08-03T09:41:01.317Z</time>
      </trkpt>
      <trkpt lat="47.02123" lon="8.90118">
        <ele>1141</ele>
        <time>2021-08-03T09:41:02.317Z</time>
      </trkpt>
      <trkpt lat="47.02122" lon="8.90118">
        <ele>1141</ele>
        <time>2021-08-03T09:41:03.317Z</time>
      </trkpt>
      <trkpt lat="47.02121" lon="8.90118">
        <ele>1141</ele>
        <time>2021-08-03T09:41:04.317Z</time>
      </trkpt>
      <trkpt lat="47.02119" lon="8.90117">
        <ele>1140</ele>
        <time>2021-08-03T09:41:05.317Z</time>
      </trkpt>
      <trkpt lat="47.02118" lon="8.90117">
        <ele>1140</ele>
        <time>2021-08-03T09:41:06.317Z</time>
      </trkpt>
      <trkpt lat="47.02117" lon="8.90117">
        <ele>1141</ele>
        <time>2021-08-03T09:41:07.317Z</time>
      </trkpt>
      <trkpt lat="47.02116" lon="8.90116">
        <ele>1141</ele>
        <time>2021-08-03T09:41:08.317Z</time>
      </trkpt>
      <trkpt lat="47.02115" lon="8.90115">
        <ele>1141</ele>
        <time>2021-08-03T09:41:09.317Z</time>
      </trkpt>
      <trkpt lat="47.02114" lon="8.90114">
        <ele>1142</ele>
        <time>2021-08-03T09:41:10.317Z</time>
      </trkpt>
      <trkpt lat="47.02113" lon="8.90113">
        <ele>1143</ele>
        <time>2021-08-03T09:41:11.317Z</time>
      </trkpt>
      <trkpt lat="47.02112" lon="8.90112">
        <ele>1144</ele>
        <time>2021-08-03T09:41:12.317Z</time>
      </trkpt>
      <trkpt lat="47.02111" lon="8.90112">
        <ele>1144</ele>
        <time>2021-08-03T09:41:13.317Z</time>
      </trkpt>
      <trkpt lat="47.02109" lon="8.90111">
        <ele>1145</ele>
        <time>2021-08-03T09:41:14.317Z</time>
      </trkpt>
      <trkpt lat="47.02108" lon="8.9011">
        <ele>1145</ele>
        <time>2021-08-03T09:41:15.317Z</time>
      </trkpt>
      <trkpt lat="47.02107" lon="8.9011">
        <ele>1146</ele>
        <time>2021-08-03T09:41:16.317Z</time>
      </trkpt>
      <trkpt lat="47.02106" lon="8.9011">
        <ele>1146</ele>
        <time>2021-08-03T09:41:17.317Z</time>
      </trkpt>
      <trkpt lat="47.02105" lon="8.90109">
        <ele>1146</ele>
        <time>2021-08-03T09:41:18.317Z</time>
      </trkpt>
      <trkpt lat="47.02104" lon="8.90108">
        <ele>1146</ele>
        <time>2021-08-03T09:41:19.317Z</time>
      </trkpt>
      <trkpt lat="47.02103" lon="8.90107">
        <ele>1146</ele>
        <time>2021-08-03T09:41:20.317Z</time>
      </trkpt>
      <trkpt lat="47.02102" lon="8.90106">
        <ele>1146</ele>
        <time>2021-08-03T09:41:21.317Z</time>
      </trkpt>
      <trkpt lat="47.02101" lon="8.90106">
        <ele>1146</ele>
        <time>2021-08-03T09:41:22.317Z</time>
      </trkpt>
      <trkpt lat="47.02101" lon="8.90106">
        <ele>1146</ele>
        <time>2021-08-03T09:41:23.317Z</time>
      </trkpt>
      <trkpt lat="47.02102" lon="8.90107">
        <ele>1146</ele>
        <time>2021-08-03T09:41:24.318Z</time>
      </trkpt>
      <trkpt lat="47.02101" lon="8.90105">
        <ele>1146</ele>
        <time>2021-08-03T09:41:25.318Z</time>
      </trkpt>
      <trkpt lat="47.02101" lon="8.90106">
        <ele>1144</ele>
        <time>2021-08-03T09:41:26.320Z</time>
      </trkpt>
      <trkpt lat="47.02102" lon="8.90107">
        <ele>1140</ele>
        <time>2021-08-03T09:41:27.319Z</time>
      </trkpt>
      <trkpt lat="47.02102" lon="8.90108">
        <ele>1139</ele>
        <time>2021-08-03T09:41:28.319Z</time>
      </trkpt>
      <trkpt lat="47.02102" lon="8.90109">
        <ele>1139</ele>
        <time>2021-08-03T09:41:29.319Z</time>
      </trkpt>
      <trkpt lat="47.02102" lon="8.9011">
        <ele>1138</ele>
        <time>2021-08-03T09:41:30.320Z</time>
      </trkpt>
      <trkpt lat="47.02102" lon="8.90111">
        <ele>1137</ele>
        <time>2021-08-03T09:41:31.320Z</time>
      </trkpt>
      <trkpt lat="47.02101" lon="8.90112">
        <ele>1137</ele>
        <time>2021-08-03T09:41:32.320Z</time>
      </trkpt>
      <trkpt lat="47.02101" lon="8.90113">
        <ele>1137</ele>
        <time>2021-08-03T09:41:33.320Z</time>
      </trkpt>
      <trkpt lat="47.02101" lon="8.90114">
        <ele>1137</ele>
        <time>2021-08-03T09:41:34.319Z</time>
      </trkpt>
      <trkpt lat="47.021" lon="8.90115">
        <ele>1136</ele>
        <time>2021-08-03T09:41:35.319Z</time>
      </trkpt>
      <trkpt lat="47.02101" lon="8.90116">
        <ele>1136</ele>
        <time>2021-08-03T09:41:36.319Z</time>
      </trkpt>
      <trkpt lat="47.02101" lon="8.90117">
        <ele>1136</ele>
        <time>2021-08-03T09:41:37.319Z</time>
      </trkpt>
      <trkpt lat="47.02101" lon="8.90118">
        <ele>1136</ele>
        <time>2021-08-03T09:41:38.319Z</time>
      </trkpt>
      <trkpt lat="47.02101" lon="8.90119">
        <ele>1136</ele>
        <time>2021-08-03T09:41:39.319Z</time>
      </trkpt>
      <trkpt lat="47.02101" lon="8.90119">
        <ele>1136</ele>
        <time>2021-08-03T09:41:40.320Z</time>
      </trkpt>
      <trkpt lat="47.02101" lon="8.9012">
        <ele>1137</ele>
        <time>2021-08-03T09:41:41.319Z</time>
      </trkpt>
      <trkpt lat="47.021" lon="8.9012">
        <ele>1137</ele>
        <time>2021-08-03T09:41:42.320Z</time>
      </trkpt>
      <trkpt lat="47.021" lon="8.90119">
        <ele>1137</ele>
        <time>2021-08-03T09:41:43.320Z</time>
      </trkpt>
      <trkpt lat="47.021" lon="8.90118">
        <ele>1137</ele>
        <time>2021-08-03T09:41:44.320Z</time>
      </trkpt>
      <trkpt lat="47.02101" lon="8.90117">
        <ele>1137</ele>
        <time>2021-08-03T09:41:45.320Z</time>
      </trkpt>
      <trkpt lat="47.02101" lon="8.90116">
        <ele>1136</ele>
        <time>2021-08-03T09:41:46.320Z</time>
      </trkpt>
      <trkpt lat="47.02101" lon="8.90116">
        <ele>1136</ele>
        <time>2021-08-03T09:41:47.319Z</time>
      </trkpt>
      <trkpt lat="47.021" lon="8.90111">
        <ele>1133</ele>
        <time>2021-08-03T09:41:48.321Z</time>
      </trkpt>
      <trkpt lat="47.02099" lon="8.90111">
        <ele>1133</ele>
        <time>2021-08-03T09:41:49.320Z</time>
      </trkpt>
      <trkpt lat="47.02098" lon="8.90111">
        <ele>1134</ele>
        <time>2021-08-03T09:41:50.320Z</time>
      </trkpt>
      <trkpt lat="47.02097" lon="8.90111">
        <ele>1134</ele>
        <time>2021-08-03T09:41:51.320Z</time>
      </trkpt>
      <trkpt lat="47.02096" lon="8.90111">
        <ele>1135</ele>
        <time>2021-08-03T09:41:52.321Z</time>
      </trkpt>
      <trkpt lat="47.02094" lon="8.90111">
        <ele>1135</ele>
        <time>2021-08-03T09:41:53.320Z</time>
      </trkpt>
      <trkpt lat="47.02092" lon="8.9011">
        <ele>1136</ele>
        <time>2021-08-03T09:41:54.320Z</time>
      </trkpt>
      <trkpt lat="47.02091" lon="8.90109">
        <ele>1136</ele>
        <time>2021-08-03T09:41:55.320Z</time>
      </trkpt>
      <trkpt lat="47.0209" lon="8.90108">
        <ele>1137</ele>
        <time>2021-08-03T09:41:56.320Z</time>
      </trkpt>
      <trkpt lat="47.02089" lon="8.90107">
        <ele>1138</ele>
        <time>2021-08-03T09:41:57.320Z</time>
      </trkpt>
      <trkpt lat="47.02088" lon="8.90107">
        <ele>1138</ele>
        <time>2021-08-03T09:41:58.320Z</time>
      </trkpt>
      <trkpt lat="47.02086" lon="8.90107">
        <ele>1139</ele>
        <time>2021-08-03T09:41:59.320Z</time>
      </trkpt>
      <trkpt lat="47.02084" lon="8.90106">
        <ele>1139</ele>
        <time>2021-08-03T09:42:00.320Z</time>
      </trkpt>
      <trkpt lat="47.02083" lon="8.90106">
        <ele>1140</ele>
        <time>2021-08-03T09:42:01.320Z</time>
      </trkpt>
      <trkpt lat="47.02082" lon="8.90105">
        <ele>1141</ele>
        <time>2021-08-03T09:42:02.321Z</time>
      </trkpt>
      <trkpt lat="47.02081" lon="8.90105">
        <ele>1141</ele>
        <time>2021-08-03T09:42:03.320Z</time>
      </trkpt>
      <trkpt lat="47.0208" lon="8.90106">
        <ele>1142</ele>
        <time>2021-08-03T09:42:04.321Z</time>
      </trkpt>
      <trkpt lat="47.02079" lon="8.90106">
        <ele>1144</ele>
        <time>2021-08-03T09:42:05.320Z</time>
      </trkpt>
      <trkpt lat="47.02078" lon="8.90106">
        <ele>1144</ele>
        <time>2021-08-03T09:42:06.320Z</time>
      </trkpt>
      <trkpt lat="47.02077" lon="8.90106">
        <ele>1144</ele>
        <time>2021-08-03T09:42:07.321Z</time>
      </trkpt>
      <trkpt lat="47.02076" lon="8.90107">
        <ele>1144</ele>
        <time>2021-08-03T09:42:08.320Z</time>
      </trkpt>
      <trkpt lat="47.02075" lon="8.90107">
        <ele>1145</ele>
        <time>2021-08-03T09:42:09.320Z</time>
      </trkpt>
      <trkpt lat="47.02074" lon="8.90107">
        <ele>1144</ele>
        <time>2021-08-03T09:42:10.320Z</time>
      </trkpt>
      <trkpt lat="47.02073" lon="8.90107">
        <ele>1144</ele>
        <time>2021-08-03T09:42:11.320Z</time>
      </trkpt>
      <trkpt lat="47.02072" lon="8.90108">
        <ele>1144</ele>
        <time>2021-08-03T09:42:12.320Z</time>
      </trkpt>
      <trkpt lat="47.02071" lon="8.90108">
        <ele>1144</ele>
        <time>2021-08-03T09:42:13.320Z</time>
      </trkpt>
      <trkpt lat="47.0207" lon="8.90108">
        <ele>1143</ele>
        <time>2021-08-03T09:42:14.321Z</time>
      </trkpt>
      <trkpt lat="47.02069" lon="8.90108">
        <ele>1143</ele>
        <time>2021-08-03T09:42:15.321Z</time>
      </trkpt>
      <trkpt lat="47.02068" lon="8.90108">
        <ele>1143</ele>
        <time>2021-08-03T09:42:16.321Z</time>
      </trkpt>
      <trkpt lat="47.02066" lon="8.90109">
        <ele>1143</ele>
        <time>2021-08-03T09:42:17.320Z</time>
      </trkpt>
      <trkpt lat="47.02065" lon="8.9011">
        <ele>1143</ele>
        <time>2021-08-03T09:42:18.321Z</time>
      </trkpt>
      <trkpt lat="47.02065" lon="8.90111">
        <ele>1143</ele>
        <time>2021-08-03T09:42:19.321Z</time>
      </trkpt>
      <trkpt lat="47.02064" lon="8.90111">
        <ele>1142</ele>
        <time>2021-08-03T09:42:20.320Z</time>
      </trkpt>
      <trkpt lat="47.02064" lon="8.90112">
        <ele>1142</ele>
        <time>2021-08-03T09:42:21.321Z</time>
      </trkpt>
      <trkpt lat="47.02063" lon="8.90112">
        <ele>1141</ele>
        <time>2021-08-03T09:42:22.320Z</time>
      </trkpt>
      <trkpt lat="47.02062" lon="8.90112">
        <ele>1140</ele>
        <time>2021-08-03T09:42:23.321Z</time>
      </trkpt>
      <trkpt lat="47.02061" lon="8.90112">
        <ele>1140</ele>
        <time>2021-08-03T09:42:24.320Z</time>
      </trkpt>
      <trkpt lat="47.0206" lon="8.90111">
        <ele>1139</ele>
        <time>2021-08-03T09:42:25.320Z</time>
      </trkpt>
      <trkpt lat="47.02058" lon="8.90111">
        <ele>1139</ele>
        <time>2021-08-03T09:42:26.320Z</time>
      </trkpt>
      <trkpt lat="47.02057" lon="8.90112">
        <ele>1139</ele>
        <time>2021-08-03T09:42:27.320Z</time>
      </trkpt>
      <trkpt lat="47.02056" lon="8.90112">
        <ele>1138</ele>
        <time>2021-08-03T09:42:28.321Z</time>
      </trkpt>
      <trkpt lat="47.02055" lon="8.90113">
        <ele>1138</ele>
        <time>2021-08-03T09:42:29.320Z</time>
      </trkpt>
      <trkpt lat="47.02055" lon="8.90113">
        <ele>1137</ele>
        <time>2021-08-03T09:42:30.321Z</time>
      </trkpt>
      <trkpt lat="47.02054" lon="8.90113">
        <ele>1137</ele>
        <time>2021-08-03T09:42:31.320Z</time>
      </trkpt>
      <trkpt lat="47.02053" lon="8.90113">
        <ele>1136</ele>
        <time>2021-08-03T09:42:32.321Z</time>
      </trkpt>
      <trkpt lat="47.02052" lon="8.90113">
        <ele>1136</ele>
        <time>2021-08-03T09:42:33.321Z</time>
      </trkpt>
      <trkpt lat="47.02051" lon="8.90113">
        <ele>1135</ele>
        <time>2021-08-03T09:42:34.320Z</time>
      </trkpt>
      <trkpt lat="47.0205" lon="8.90113">
        <ele>1135</ele>
        <time>2021-08-03T09:42:35.320Z</time>
      </trkpt>
      <trkpt lat="47.0205" lon="8.90113">
        <ele>1135</ele>
        <time>2021-08-03T09:42:36.320Z</time>
      </trkpt>
      <trkpt lat="47.0205" lon="8.90113">
        <ele>1135</ele>
        <time>2021-08-03T09:42:37.321Z</time>
      </trkpt>
      <trkpt lat="47.02049" lon="8.90114">
        <ele>1134</ele>
        <time>2021-08-03T09:42:38.321Z</time>
      </trkpt>
      <trkpt lat="47.02049" lon="8.90113">
        <ele>1134</ele>
        <time>2021-08-03T09:42:39.320Z</time>
      </trkpt>
      <trkpt lat="47.02049" lon="8.90112">
        <ele>1134</ele>
        <time>2021-08-03T09:42:40.320Z</time>
      </trkpt>
      <trkpt lat="47.02048" lon="8.90112">
        <ele>1134</ele>
        <time>2021-08-03T09:42:41.321Z</time>
      </trkpt>
      <trkpt lat="47.02047" lon="8.90111">
        <ele>1134</ele>
        <time>2021-08-03T09:42:42.320Z</time>
      </trkpt>
      <trkpt lat="47.02047" lon="8.9011">
        <ele>1134</ele>
        <time>2021-08-03T09:42:43.320Z</time>
      </trkpt>
      <trkpt lat="47.02046" lon="8.9011">
        <ele>1135</ele>
        <time>2021-08-03T09:42:44.321Z</time>
      </trkpt>
      <trkpt lat="47.02046" lon="8.90109">
        <ele>1135</ele>
        <time>2021-08-03T09:42:45.320Z</time>
      </trkpt>
      <trkpt lat="47.02046" lon="8.90108">
        <ele>1135</ele>
        <time>2021-08-03T09:42:46.321Z</time>
      </trkpt>
      <trkpt lat="47.02045" lon="8.90107">
        <ele>1136</ele>
        <time>2021-08-03T09:42:47.320Z</time>
      </trkpt>
      <trkpt lat="47.02045" lon="8.90107">
        <ele>1136</ele>
        <time>2021-08-03T09:42:48.320Z</time>
      </trkpt>
      <trkpt lat="47.02044" lon="8.90107">
        <ele>1136</ele>
        <time>2021-08-03T09:42:49.321Z</time>
      </trkpt>
      <trkpt lat="47.02044" lon="8.90107">
        <ele>1136</ele>
        <time>2021-08-03T09:42:50.320Z</time>
      </trkpt>
      <trkpt lat="47.02043" lon="8.90112">
        <ele>1136</ele>
        <time>2021-08-03T09:42:51.320Z</time>
      </trkpt>
      <trkpt lat="47.02042" lon="8.90113">
        <ele>1137</ele>
        <time>2021-08-03T09:42:52.320Z</time>
      </trkpt>
      <trkpt lat="47.02042" lon="8.90113">
        <ele>1137</ele>
        <time>2021-08-03T09:42:53.321Z</time>
      </trkpt>
      <trkpt lat="47.02042" lon="8.90114">
        <ele>1137</ele>
        <time>2021-08-03T09:42:54.320Z</time>
      </trkpt>
      <trkpt lat="47.02041" lon="8.90115">
        <ele>1137</ele>
        <time>2021-08-03T09:42:55.321Z</time>
      </trkpt>
      <trkpt lat="47.02041" lon="8.90115">
        <ele>1137</ele>
        <time>2021-08-03T09:42:56.321Z</time>
      </trkpt>
      <trkpt lat="47.02041" lon="8.90115">
        <ele>1137</ele>
        <time>2021-08-03T09:42:57.321Z</time>
      </trkpt>
      <trkpt lat="47.02041" lon="8.90117">
        <ele>1137</ele>
        <time>2021-08-03T09:42:58.322Z</time>
      </trkpt>
      <trkpt lat="47.02041" lon="8.90116">
        <ele>1137</ele>
        <time>2021-08-03T09:42:59.321Z</time>
      </trkpt>
      <trkpt lat="47.02041" lon="8.90115">
        <ele>1137</ele>
        <time>2021-08-03T09:43:00.321Z</time>
      </trkpt>
      <trkpt lat="47.02041" lon="8.90114">
        <ele>1137</ele>
        <time>2021-08-03T09:43:01.322Z</time>
      </trkpt>
      <trkpt lat="47.0204" lon="8.90113">
        <ele>1138</ele>
        <time>2021-08-03T09:43:02.321Z</time>
      </trkpt>
      <trkpt lat="47.0204" lon="8.90112">
        <ele>1138</ele>
        <time>2021-08-03T09:43:03.321Z</time>
      </trkpt>
      <trkpt lat="47.02039" lon="8.90111">
        <ele>1138</ele>
        <time>2021-08-03T09:43:04.322Z</time>
      </trkpt>
      <trkpt lat="47.0204" lon="8.9011">
        <ele>1139</ele>
        <time>2021-08-03T09:43:05.322Z</time>
      </trkpt>
      <trkpt lat="47.0204" lon="8.9011">
        <ele>1139</ele>
        <time>2021-08-03T09:43:06.322Z</time>
      </trkpt>
      <trkpt lat="47.0204" lon="8.90109">
        <ele>1139</ele>
        <time>2021-08-03T09:43:07.321Z</time>
      </trkpt>
      <trkpt lat="47.02039" lon="8.90108">
        <ele>1139</ele>
        <time>2021-08-03T09:43:08.321Z</time>
      </trkpt>
      <trkpt lat="47.02039" lon="8.90108">
        <ele>1139</ele>
        <time>2021-08-03T09:43:09.322Z</time>
      </trkpt>
      <trkpt lat="47.02039" lon="8.90108">
        <ele>1139</ele>
        <time>2021-08-03T09:43:10.322Z</time>
      </trkpt>
      <trkpt lat="47.0204" lon="8.90107">
        <ele>1140</ele>
        <time>2021-08-03T09:43:11.321Z</time>
      </trkpt>
      <trkpt lat="47.02041" lon="8.90105">
        <ele>1140</ele>
        <time>2021-08-03T09:43:12.322Z</time>
      </trkpt>
      <trkpt lat="47.02042" lon="8.90104">
        <ele>1140</ele>
        <time>2021-08-03T09:43:13.322Z</time>
      </trkpt>
      <trkpt lat="47.02042" lon="8.90102">
        <ele>1140</ele>
        <time>2021-08-03T09:43:14.322Z</time>
      </trkpt>
      <trkpt lat="47.02042" lon="8.901">
        <ele>1139</ele>
        <time>2021-08-03T09:43:15.321Z</time>
      </trkpt>
      <trkpt lat="47.02041" lon="8.90098">
        <ele>1139</ele>
        <time>2021-08-03T09:43:16.321Z</time>
      </trkpt>
      <trkpt lat="47.02041" lon="8.90097">
        <ele>1139</ele>
        <time>2021-08-03T09:43:17.321Z</time>
      </trkpt>
      <trkpt lat="47.02041" lon="8.90095">
        <ele>1138</ele>
        <time>2021-08-03T09:43:18.321Z</time>
      </trkpt>
      <trkpt lat="47.0204" lon="8.90094">
        <ele>1138</ele>
        <time>2021-08-03T09:43:19.321Z</time>
      </trkpt>
      <trkpt lat="47.02039" lon="8.90094">
        <ele>1138</ele>
        <time>2021-08-03T09:43:20.321Z</time>
      </trkpt>
      <trkpt lat="47.02039" lon="8.90094">
        <ele>1138</ele>
        <time>2021-08-03T09:43:21.321Z</time>
      </trkpt>
      <trkpt lat="47.02039" lon="8.90091">
        <ele>1138</ele>
        <time>2021-08-03T09:43:22.321Z</time>
      </trkpt>
      <trkpt lat="47.02039" lon="8.90089">
        <ele>1138</ele>
        <time>2021-08-03T09:43:23.321Z</time>
      </trkpt>
      <trkpt lat="47.02039" lon="8.90088">
        <ele>1138</ele>
        <time>2021-08-03T09:43:24.322Z</time>
      </trkpt>
      <trkpt lat="47.02039" lon="8.90087">
        <ele>1138</ele>
        <time>2021-08-03T09:43:25.322Z</time>
      </trkpt>
      <trkpt lat="47.02038" lon="8.90087">
        <ele>1138</ele>
        <time>2021-08-03T09:43:26.322Z</time>
      </trkpt>
      <trkpt lat="47.02038" lon="8.90086">
        <ele>1138</ele>
        <time>2021-08-03T09:43:27.321Z</time>
      </trkpt>
      <trkpt lat="47.02037" lon="8.90086">
        <ele>1138</ele>
        <time>2021-08-03T09:43:28.321Z</time>
      </trkpt>
      <trkpt lat="47.02037" lon="8.90086">
        <ele>1139</ele>
        <time>2021-08-03T09:43:29.321Z</time>
      </trkpt>
      <trkpt lat="47.02036" lon="8.90085">
        <ele>1140</ele>
        <time>2021-08-03T09:43:30.322Z</time>
      </trkpt>
      <trkpt lat="47.02036" lon="8.90083">
        <ele>1140</ele>
        <time>2021-08-03T09:43:31.321Z</time>
      </trkpt>
      <trkpt lat="47.02037" lon="8.90082">
        <ele>1141</ele>
        <time>2021-08-03T09:43:32.321Z</time>
      </trkpt>
      <trkpt lat="47.02037" lon="8.90081">
        <ele>1142</ele>
        <time>2021-08-03T09:43:33.321Z</time>
      </trkpt>
      <trkpt lat="47.02038" lon="8.9008">
        <ele>1142</ele>
        <time>2021-08-03T09:43:34.321Z</time>
      </trkpt>
      <trkpt lat="47.0204" lon="8.90079">
        <ele>1143</ele>
        <time>2021-08-03T09:43:35.322Z</time>
      </trkpt>
      <trkpt lat="47.02041" lon="8.90079">
        <ele>1143</ele>
        <time>2021-08-03T09:43:36.322Z</time>
      </trkpt>
      <trkpt lat="47.02041" lon="8.90078">
        <ele>1143</ele>
        <time>2021-08-03T09:43:37.321Z</time>
      </trkpt>
      <trkpt lat="47.02041" lon="8.90077">
        <ele>1144</ele>
        <time>2021-08-03T09:43:38.322Z</time>
      </trkpt>
      <trkpt lat="47.02041" lon="8.90077">
        <ele>1144</ele>
        <time>2021-08-03T09:43:39.321Z</time>
      </trkpt>
      <trkpt lat="47.0204" lon="8.90076">
        <ele>1145</ele>
        <time>2021-08-03T09:43:40.322Z</time>
      </trkpt>
      <trkpt lat="47.02039" lon="8.90074">
        <ele>1146</ele>
        <time>2021-08-03T09:43:41.322Z</time>
      </trkpt>
      <trkpt lat="47.02039" lon="8.90072">
        <ele>1146</ele>
        <time>2021-08-03T09:43:42.322Z</time>
      </trkpt>
      <trkpt lat="47.02039" lon="8.90071">
        <ele>1147</ele>
        <time>2021-08-03T09:43:43.321Z</time>
      </trkpt>
      <trkpt lat="47.0204" lon="8.90069">
        <ele>1147</ele>
        <time>2021-08-03T09:43:44.321Z</time>
      </trkpt>
      <trkpt lat="47.0204" lon="8.90068">
        <ele>1148</ele>
        <time>2021-08-03T09:43:45.321Z</time>
      </trkpt>
      <trkpt lat="47.0204" lon="8.90067">
        <ele>1148</ele>
        <time>2021-08-03T09:43:46.321Z</time>
      </trkpt>
      <trkpt lat="47.0204" lon="8.90065">
        <ele>1149</ele>
        <time>2021-08-03T09:43:47.321Z</time>
      </trkpt>
      <trkpt lat="47.02039" lon="8.90065">
        <ele>1149</ele>
        <time>2021-08-03T09:43:48.321Z</time>
      </trkpt>
      <trkpt lat="47.02039" lon="8.90064">
        <ele>1148</ele>
        <time>2021-08-03T09:43:49.321Z</time>
      </trkpt>
      <trkpt lat="47.02039" lon="8.90062">
        <ele>1148</ele>
        <time>2021-08-03T09:43:50.322Z</time>
      </trkpt>
      <trkpt lat="47.02039" lon="8.90061">
        <ele>1148</ele>
        <time>2021-08-03T09:43:51.321Z</time>
      </trkpt>
      <trkpt lat="47.0204" lon="8.9006">
        <ele>1148</ele>
        <time>2021-08-03T09:43:52.321Z</time>
      </trkpt>
      <trkpt lat="47.02041" lon="8.90059">
        <ele>1148</ele>
        <time>2021-08-03T09:43:53.322Z</time>
      </trkpt>
      <trkpt lat="47.02041" lon="8.90057">
        <ele>1148</ele>
        <time>2021-08-03T09:43:54.321Z</time>
      </trkpt>
      <trkpt lat="47.02042" lon="8.90055">
        <ele>1148</ele>
        <time>2021-08-03T09:43:55.321Z</time>
      </trkpt>
      <trkpt lat="47.02044" lon="8.90054">
        <ele>1148</ele>
        <time>2021-08-03T09:43:56.322Z</time>
      </trkpt>
      <trkpt lat="47.02046" lon="8.90053">
        <ele>1148</ele>
        <time>2021-08-03T09:43:57.322Z</time>
      </trkpt>
      <trkpt lat="47.02047" lon="8.90052">
        <ele>1148</ele>
        <time>2021-08-03T09:43:58.322Z</time>
      </trkpt>
      <trkpt lat="47.02046" lon="8.90052">
        <ele>1149</ele>
        <time>2021-08-03T09:43:59.322Z</time>
      </trkpt>
      <trkpt lat="47.02044" lon="8.90052">
        <ele>1149</ele>
        <time>2021-08-03T09:44:00.321Z</time>
      </trkpt>
      <trkpt lat="47.02043" lon="8.90052">
        <ele>1149</ele>
        <time>2021-08-03T09:44:01.322Z</time>
      </trkpt>
      <trkpt lat="47.02043" lon="8.90051">
        <ele>1149</ele>
        <time>2021-08-03T09:44:02.322Z</time>
      </trkpt>
      <trkpt lat="47.02043" lon="8.9005">
        <ele>1150</ele>
        <time>2021-08-03T09:44:03.322Z</time>
      </trkpt>
      <trkpt lat="47.02043" lon="8.90049">
        <ele>1150</ele>
        <time>2021-08-03T09:44:04.322Z</time>
      </trkpt>
      <trkpt lat="47.02043" lon="8.90048">
        <ele>1150</ele>
        <time>2021-08-03T09:44:05.322Z</time>
      </trkpt>
      <trkpt lat="47.02042" lon="8.90048">
        <ele>1150</ele>
        <time>2021-08-03T09:44:06.322Z</time>
      </trkpt>
      <trkpt lat="47.02042" lon="8.90047">
        <ele>1150</ele>
        <time>2021-08-03T09:44:07.322Z</time>
      </trkpt>
      <trkpt lat="47.02042" lon="8.90046">
        <ele>1150</ele>
        <time>2021-08-03T09:44:08.321Z</time>
      </trkpt>
      <trkpt lat="47.02041" lon="8.90046">
        <ele>1151</ele>
        <time>2021-08-03T09:44:09.322Z</time>
      </trkpt>
      <trkpt lat="47.0204" lon="8.90046">
        <ele>1151</ele>
        <time>2021-08-03T09:44:10.322Z</time>
      </trkpt>
      <trkpt lat="47.02039" lon="8.90045">
        <ele>1151</ele>
        <time>2021-08-03T09:44:11.322Z</time>
      </trkpt>
      <trkpt lat="47.02038" lon="8.90045">
        <ele>1151</ele>
        <time>2021-08-03T09:44:12.322Z</time>
      </trkpt>
      <trkpt lat="47.02037" lon="8.90045">
        <ele>1151</ele>
        <time>2021-08-03T09:44:13.321Z</time>
      </trkpt>
      <trkpt lat="47.02037" lon="8.90044">
        <ele>1151</ele>
        <time>2021-08-03T09:44:14.322Z</time>
      </trkpt>
      <trkpt lat="47.02036" lon="8.90044">
        <ele>1151</ele>
        <time>2021-08-03T09:44:15.321Z</time>
      </trkpt>
      <trkpt lat="47.02036" lon="8.90043">
        <ele>1151</ele>
        <time>2021-08-03T09:44:16.322Z</time>
      </trkpt>
      <trkpt lat="47.02035" lon="8.90043">
        <ele>1151</ele>
        <time>2021-08-03T09:44:17.322Z</time>
      </trkpt>
      <trkpt lat="47.02034" lon="8.90043">
        <ele>1151</ele>
        <time>2021-08-03T09:44:18.321Z</time>
      </trkpt>
      <trkpt lat="47.02034" lon="8.90042">
        <ele>1151</ele>
        <time>2021-08-03T09:44:19.321Z</time>
      </trkpt>
      <trkpt lat="47.02033" lon="8.90041">
        <ele>1151</ele>
        <time>2021-08-03T09:44:20.322Z</time>
      </trkpt>
      <trkpt lat="47.02032" lon="8.90041">
        <ele>1151</ele>
        <time>2021-08-03T09:44:21.322Z</time>
      </trkpt>
      <trkpt lat="47.02032" lon="8.90039">
        <ele>1151</ele>
        <time>2021-08-03T09:44:22.322Z</time>
      </trkpt>
      <trkpt lat="47.02032" lon="8.90038">
        <ele>1151</ele>
        <time>2021-08-03T09:44:23.322Z</time>
      </trkpt>
      <trkpt lat="47.02032" lon="8.90036">
        <ele>1151</ele>
        <time>2021-08-03T09:44:24.322Z</time>
      </trkpt>
      <trkpt lat="47.02032" lon="8.90035">
        <ele>1151</ele>
        <time>2021-08-03T09:44:25.321Z</time>
      </trkpt>
      <trkpt lat="47.02032" lon="8.90033">
        <ele>1150</ele>
        <time>2021-08-03T09:44:26.322Z</time>
      </trkpt>
      <trkpt lat="47.02032" lon="8.90032">
        <ele>1150</ele>
        <time>2021-08-03T09:44:27.321Z</time>
      </trkpt>
      <trkpt lat="47.02032" lon="8.9003">
        <ele>1150</ele>
        <time>2021-08-03T09:44:28.322Z</time>
      </trkpt>
      <trkpt lat="47.02032" lon="8.90029">
        <ele>1150</ele>
        <time>2021-08-03T09:44:29.322Z</time>
      </trkpt>
      <trkpt lat="47.02031" lon="8.90028">
        <ele>1150</ele>
        <time>2021-08-03T09:44:30.321Z</time>
      </trkpt>
      <trkpt lat="47.02031" lon="8.90025">
        <ele>1151</ele>
        <time>2021-08-03T09:44:31.322Z</time>
      </trkpt>
      <trkpt lat="47.02031" lon="8.90024">
        <ele>1151</ele>
        <time>2021-08-03T09:44:32.321Z</time>
      </trkpt>
      <trkpt lat="47.02031" lon="8.90023">
        <ele>1151</ele>
        <time>2021-08-03T09:44:33.322Z</time>
      </trkpt>
      <trkpt lat="47.0203" lon="8.90021">
        <ele>1152</ele>
        <time>2021-08-03T09:44:34.322Z</time>
      </trkpt>
      <trkpt lat="47.0203" lon="8.9002">
        <ele>1152</ele>
        <time>2021-08-03T09:44:35.322Z</time>
      </trkpt>
      <trkpt lat="47.02029" lon="8.90019">
        <ele>1153</ele>
        <time>2021-08-03T09:44:36.321Z</time>
      </trkpt>
      <trkpt lat="47.02029" lon="8.90019">
        <ele>1154</ele>
        <time>2021-08-03T09:44:37.322Z</time>
      </trkpt>
      <trkpt lat="47.02029" lon="8.90019">
        <ele>1155</ele>
        <time>2021-08-03T09:44:38.322Z</time>
      </trkpt>
      <trkpt lat="47.0203" lon="8.90019">
        <ele>1155</ele>
        <time>2021-08-03T09:44:39.322Z</time>
      </trkpt>
      <trkpt lat="47.0203" lon="8.90018">
        <ele>1156</ele>
        <time>2021-08-03T09:44:40.322Z</time>
      </trkpt>
      <trkpt lat="47.02031" lon="8.90017">
        <ele>1156</ele>
        <time>2021-08-03T09:44:41.321Z</time>
      </trkpt>
      <trkpt lat="47.02032" lon="8.90016">
        <ele>1157</ele>
        <time>2021-08-03T09:44:42.321Z</time>
      </trkpt>
      <trkpt lat="47.02032" lon="8.90016">
        <ele>1158</ele>
        <time>2021-08-03T09:44:43.321Z</time>
      </trkpt>
      <trkpt lat="47.02031" lon="8.90015">
        <ele>1159</ele>
        <time>2021-08-03T09:44:44.322Z</time>
      </trkpt>
      <trkpt lat="47.02031" lon="8.90016">
        <ele>1160</ele>
        <time>2021-08-03T09:44:45.322Z</time>
      </trkpt>
      <trkpt lat="47.02032" lon="8.90015">
        <ele>1161</ele>
        <time>2021-08-03T09:44:46.322Z</time>
      </trkpt>
      <trkpt lat="47.02032" lon="8.90015">
        <ele>1161</ele>
        <time>2021-08-03T09:44:47.322Z</time>
      </trkpt>
      <trkpt lat="47.02033" lon="8.90015">
        <ele>1162</ele>
        <time>2021-08-03T09:44:48.322Z</time>
      </trkpt>
      <trkpt lat="47.02033" lon="8.90014">
        <ele>1163</ele>
        <time>2021-08-03T09:44:49.322Z</time>
      </trkpt>
      <trkpt lat="47.02033" lon="8.90014">
        <ele>1163</ele>
        <time>2021-08-03T09:44:50.322Z</time>
      </trkpt>
      <trkpt lat="47.02033" lon="8.90013">
        <ele>1163</ele>
        <time>2021-08-03T09:44:51.322Z</time>
      </trkpt>
      <trkpt lat="47.02033" lon="8.90012">
        <ele>1163</ele>
        <time>2021-08-03T09:44:52.321Z</time>
      </trkpt>
      <trkpt lat="47.02033" lon="8.90011">
        <ele>1163</ele>
        <time>2021-08-03T09:44:53.321Z</time>
      </trkpt>
      <trkpt lat="47.02033" lon="8.9001">
        <ele>1164</ele>
        <time>2021-08-03T09:44:54.322Z</time>
      </trkpt>
      <trkpt lat="47.02034" lon="8.9001">
        <ele>1164</ele>
        <time>2021-08-03T09:44:55.321Z</time>
      </trkpt>
      <trkpt lat="47.02034" lon="8.90009">
        <ele>1165</ele>
        <time>2021-08-03T09:44:56.322Z</time>
      </trkpt>
      <trkpt lat="47.02034" lon="8.90008">
        <ele>1165</ele>
        <time>2021-08-03T09:44:57.321Z</time>
      </trkpt>
      <trkpt lat="47.02033" lon="8.90007">
        <ele>1166</ele>
        <time>2021-08-03T09:44:58.321Z</time>
      </trkpt>
      <trkpt lat="47.02032" lon="8.90007">
        <ele>1166</ele>
        <time>2021-08-03T09:44:59.322Z</time>
      </trkpt>
      <trkpt lat="47.02031" lon="8.90006">
        <ele>1166</ele>
        <time>2021-08-03T09:45:00.321Z</time>
      </trkpt>
      <trkpt lat="47.0203" lon="8.90004">
        <ele>1167</ele>
        <time>2021-08-03T09:45:01.321Z</time>
      </trkpt>
      <trkpt lat="47.02029" lon="8.90004">
        <ele>1168</ele>
        <time>2021-08-03T09:45:02.321Z</time>
      </trkpt>
      <trkpt lat="47.02029" lon="8.90004">
        <ele>1168</ele>
        <time>2021-08-03T09:45:03.322Z</time>
      </trkpt>
      <trkpt lat="47.02029" lon="8.90005">
        <ele>1169</ele>
        <time>2021-08-03T09:45:04.322Z</time>
      </trkpt>
      <trkpt lat="47.02027" lon="8.90008">
        <ele>1169</ele>
        <time>2021-08-03T09:45:05.322Z</time>
      </trkpt>
      <trkpt lat="47.02026" lon="8.90007">
        <ele>1169</ele>
        <time>2021-08-03T09:45:06.322Z</time>
      </trkpt>
      <trkpt lat="47.02026" lon="8.90008">
        <ele>1169</ele>
        <time>2021-08-03T09:45:07.322Z</time>
      </trkpt>
      <trkpt lat="47.02025" lon="8.90009">
        <ele>1169</ele>
        <time>2021-08-03T09:45:08.321Z</time>
      </trkpt>
      <trkpt lat="47.02024" lon="8.9001">
        <ele>1173</ele>
        <time>2021-08-03T09:45:09.321Z</time>
      </trkpt>
      <trkpt lat="47.02024" lon="8.90009">
        <ele>1175</ele>
        <time>2021-08-03T09:45:10.322Z</time>
      </trkpt>
      <trkpt lat="47.02024" lon="8.90009">
        <ele>1176</ele>
        <time>2021-08-03T09:45:11.322Z</time>
      </trkpt>
      <trkpt lat="47.02024" lon="8.90008">
        <ele>1178</ele>
        <time>2021-08-03T09:45:12.322Z</time>
      </trkpt>
      <trkpt lat="47.02024" lon="8.90007">
        <ele>1179</ele>
        <time>2021-08-03T09:45:13.321Z</time>
      </trkpt>
      <trkpt lat="47.02024" lon="8.90007">
        <ele>1180</ele>
        <time>2021-08-03T09:45:14.322Z</time>
      </trkpt>
      <trkpt lat="47.02024" lon="8.90006">
        <ele>1181</ele>
        <time>2021-08-03T09:45:15.322Z</time>
      </trkpt>
      <trkpt lat="47.02024" lon="8.90005">
        <ele>1182</ele>
        <time>2021-08-03T09:45:16.322Z</time>
      </trkpt>
      <trkpt lat="47.02023" lon="8.90004">
        <ele>1182</ele>
        <time>2021-08-03T09:45:17.321Z</time>
      </trkpt>
      <trkpt lat="47.02023" lon="8.90003">
        <ele>1183</ele>
        <time>2021-08-03T09:45:18.322Z</time>
      </trkpt>
      <trkpt lat="47.02023" lon="8.90003">
        <ele>1183</ele>
        <time>2021-08-03T09:45:19.322Z</time>
      </trkpt>
      <trkpt lat="47.02023" lon="8.90002">
        <ele>1184</ele>
        <time>2021-08-03T09:45:20.322Z</time>
      </trkpt>
      <trkpt lat="47.02024" lon="8.90002">
        <ele>1184</ele>
        <time>2021-08-03T09:45:21.321Z</time>
      </trkpt>
      <trkpt lat="47.02024" lon="8.90001">
        <ele>1184</ele>
        <time>2021-08-03T09:45:22.322Z</time>
      </trkpt>
      <trkpt lat="47.02024" lon="8.9">
        <ele>1183</ele>
        <time>2021-08-03T09:45:23.322Z</time>
      </trkpt>
      <trkpt lat="47.02024" lon="8.89998">
        <ele>1183</ele>
        <time>2021-08-03T09:45:24.322Z</time>
      </trkpt>
      <trkpt lat="47.02023" lon="8.89997">
        <ele>1182</ele>
        <time>2021-08-03T09:45:25.322Z</time>
      </trkpt>
      <trkpt lat="47.02023" lon="8.89996">
        <ele>1182</ele>
        <time>2021-08-03T09:45:26.322Z</time>
      </trkpt>
      <trkpt lat="47.02022" lon="8.89995">
        <ele>1181</ele>
        <time>2021-08-03T09:45:27.323Z</time>
      </trkpt>
      <trkpt lat="47.02022" lon="8.89995">
        <ele>1181</ele>
        <time>2021-08-03T09:45:28.323Z</time>
      </trkpt>
      <trkpt lat="47.02021" lon="8.89994">
        <ele>1180</ele>
        <time>2021-08-03T09:45:29.323Z</time>
      </trkpt>
      <trkpt lat="47.02021" lon="8.89993">
        <ele>1180</ele>
        <time>2021-08-03T09:45:30.323Z</time>
      </trkpt>
      <trkpt lat="47.0202" lon="8.89993">
        <ele>1179</ele>
        <time>2021-08-03T09:45:31.322Z</time>
      </trkpt>
      <trkpt lat="47.02019" lon="8.89994">
        <ele>1179</ele>
        <time>2021-08-03T09:45:32.322Z</time>
      </trkpt>
      <trkpt lat="47.0202" lon="8.89993">
        <ele>1179</ele>
        <time>2021-08-03T09:45:33.323Z</time>
      </trkpt>
      <trkpt lat="47.02019" lon="8.89993">
        <ele>1178</ele>
        <time>2021-08-03T09:45:34.323Z</time>
      </trkpt>
      <trkpt lat="47.02019" lon="8.89992">
        <ele>1178</ele>
        <time>2021-08-03T09:45:35.323Z</time>
      </trkpt>
      <trkpt lat="47.02019" lon="8.89991">
        <ele>1177</ele>
        <time>2021-08-03T09:45:36.322Z</time>
      </trkpt>
      <trkpt lat="47.02019" lon="8.8999">
        <ele>1177</ele>
        <time>2021-08-03T09:45:37.323Z</time>
      </trkpt>
      <trkpt lat="47.02019" lon="8.89989">
        <ele>1177</ele>
        <time>2021-08-03T09:45:38.323Z</time>
      </trkpt>
      <trkpt lat="47.02019" lon="8.89988">
        <ele>1177</ele>
        <time>2021-08-03T09:45:39.323Z</time>
      </trkpt>
      <trkpt lat="47.02019" lon="8.89987">
        <ele>1176</ele>
        <time>2021-08-03T09:45:40.323Z</time>
      </trkpt>
      <trkpt lat="47.02019" lon="8.89986">
        <ele>1176</ele>
        <time>2021-08-03T09:45:41.322Z</time>
      </trkpt>
      <trkpt lat="47.02019" lon="8.89985">
        <ele>1176</ele>
        <time>2021-08-03T09:45:42.323Z</time>
      </trkpt>
      <trkpt lat="47.02018" lon="8.89985">
        <ele>1176</ele>
        <time>2021-08-03T09:45:43.323Z</time>
      </trkpt>
      <trkpt lat="47.02018" lon="8.89985">
        <ele>1175</ele>
        <time>2021-08-03T09:45:44.323Z</time>
      </trkpt>
      <trkpt lat="47.02018" lon="8.89985">
        <ele>1174</ele>
        <time>2021-08-03T09:45:45.323Z</time>
      </trkpt>
      <trkpt lat="47.02017" lon="8.89984">
        <ele>1174</ele>
        <time>2021-08-03T09:45:46.323Z</time>
      </trkpt>
      <trkpt lat="47.02017" lon="8.89983">
        <ele>1173</ele>
        <time>2021-08-03T09:45:47.323Z</time>
      </trkpt>
      <trkpt lat="47.02016" lon="8.89982">
        <ele>1172</ele>
        <time>2021-08-03T09:45:48.323Z</time>
      </trkpt>
      <trkpt lat="47.02016" lon="8.89981">
        <ele>1171</ele>
        <time>2021-08-03T09:45:49.323Z</time>
      </trkpt>
      <trkpt lat="47.02016" lon="8.89981">
        <ele>1171</ele>
        <time>2021-08-03T09:45:50.323Z</time>
      </trkpt>
      <trkpt lat="47.02015" lon="8.8998">
        <ele>1170</ele>
        <time>2021-08-03T09:45:51.323Z</time>
      </trkpt>
      <trkpt lat="47.02015" lon="8.89978">
        <ele>1170</ele>
        <time>2021-08-03T09:45:52.323Z</time>
      </trkpt>
      <trkpt lat="47.02015" lon="8.89977">
        <ele>1170</ele>
        <time>2021-08-03T09:45:53.323Z</time>
      </trkpt>
      <trkpt lat="47.02014" lon="8.89976">
        <ele>1169</ele>
        <time>2021-08-03T09:45:54.323Z</time>
      </trkpt>
      <trkpt lat="47.02014" lon="8.89975">
        <ele>1169</ele>
        <time>2021-08-03T09:45:55.323Z</time>
      </trkpt>
      <trkpt lat="47.02014" lon="8.89973">
        <ele>1169</ele>
        <time>2021-08-03T09:45:56.323Z</time>
      </trkpt>
      <trkpt lat="47.02014" lon="8.89972">
        <ele>1169</ele>
        <time>2021-08-03T09:45:57.323Z</time>
      </trkpt>
      <trkpt lat="47.02014" lon="8.8997">
        <ele>1169</ele>
        <time>2021-08-03T09:45:58.323Z</time>
      </trkpt>
      <trkpt lat="47.02014" lon="8.89968">
        <ele>1169</ele>
        <time>2021-08-03T09:45:59.323Z</time>
      </trkpt>
      <trkpt lat="47.02015" lon="8.89967">
        <ele>1169</ele>
        <time>2021-08-03T09:46:00.323Z</time>
      </trkpt>
      <trkpt lat="47.02015" lon="8.89966">
        <ele>1169</ele>
        <time>2021-08-03T09:46:01.323Z</time>
      </trkpt>
      <trkpt lat="47.02014" lon="8.89966">
        <ele>1169</ele>
        <time>2021-08-03T09:46:02.323Z</time>
      </trkpt>
      <trkpt lat="47.02014" lon="8.89964">
        <ele>1169</ele>
        <time>2021-08-03T09:46:03.323Z</time>
      </trkpt>
      <trkpt lat="47.02013" lon="8.89963">
        <ele>1169</ele>
        <time>2021-08-03T09:46:04.323Z</time>
      </trkpt>
      <trkpt lat="47.02012" lon="8.89963">
        <ele>1169</ele>
        <time>2021-08-03T09:46:05.323Z</time>
      </trkpt>
      <trkpt lat="47.02012" lon="8.89962">
        <ele>1169</ele>
        <time>2021-08-03T09:46:06.322Z</time>
      </trkpt>
      <trkpt lat="47.02012" lon="8.8996">
        <ele>1168</ele>
        <time>2021-08-03T09:46:07.322Z</time>
      </trkpt>
      <trkpt lat="47.02012" lon="8.89959">
        <ele>1168</ele>
        <time>2021-08-03T09:46:08.323Z</time>
      </trkpt>
      <trkpt lat="47.02012" lon="8.89958">
        <ele>1168</ele>
        <time>2021-08-03T09:46:09.322Z</time>
      </trkpt>
      <trkpt lat="47.02012" lon="8.89957">
        <ele>1168</ele>
        <time>2021-08-03T09:46:10.323Z</time>
      </trkpt>
      <trkpt lat="47.02012" lon="8.89956">
        <ele>1168</ele>
        <time>2021-08-03T09:46:11.322Z</time>
      </trkpt>
      <trkpt lat="47.02012" lon="8.89955">
        <ele>1168</ele>
        <time>2021-08-03T09:46:12.323Z</time>
      </trkpt>
      <trkpt lat="47.02011" lon="8.89954">
        <ele>1168</ele>
        <time>2021-08-03T09:46:13.322Z</time>
      </trkpt>
      <trkpt lat="47.02011" lon="8.89952">
        <ele>1168</ele>
        <time>2021-08-03T09:46:14.323Z</time>
      </trkpt>
      <trkpt lat="47.0201" lon="8.89951">
        <ele>1168</ele>
        <time>2021-08-03T09:46:15.322Z</time>
      </trkpt>
      <trkpt lat="47.0201" lon="8.89949">
        <ele>1167</ele>
        <time>2021-08-03T09:46:16.322Z</time>
      </trkpt>
      <trkpt lat="47.0201" lon="8.89948">
        <ele>1166</ele>
        <time>2021-08-03T09:46:17.323Z</time>
      </trkpt>
      <trkpt lat="47.0201" lon="8.89946">
        <ele>1166</ele>
        <time>2021-08-03T09:46:18.323Z</time>
      </trkpt>
      <trkpt lat="47.0201" lon="8.89944">
        <ele>1165</ele>
        <time>2021-08-03T09:46:19.322Z</time>
      </trkpt>
      <trkpt lat="47.02011" lon="8.89943">
        <ele>1165</ele>
        <time>2021-08-03T09:46:20.322Z</time>
      </trkpt>
      <trkpt lat="47.02012" lon="8.89941">
        <ele>1165</ele>
        <time>2021-08-03T09:46:21.323Z</time>
      </trkpt>
      <trkpt lat="47.02012" lon="8.8994">
        <ele>1165</ele>
        <time>2021-08-03T09:46:22.323Z</time>
      </trkpt>
      <trkpt lat="47.02012" lon="8.89938">
        <ele>1166</ele>
        <time>2021-08-03T09:46:23.323Z</time>
      </trkpt>
      <trkpt lat="47.02012" lon="8.89937">
        <ele>1166</ele>
        <time>2021-08-03T09:46:24.323Z</time>
      </trkpt>
      <trkpt lat="47.02012" lon="8.89935">
        <ele>1167</ele>
        <time>2021-08-03T09:46:25.322Z</time>
      </trkpt>
      <trkpt lat="47.02012" lon="8.89934">
        <ele>1168</ele>
        <time>2021-08-03T09:46:26.322Z</time>
      </trkpt>
      <trkpt lat="47.02012" lon="8.89934">
        <ele>1168</ele>
        <time>2021-08-03T09:46:27.323Z</time>
      </trkpt>
      <trkpt lat="47.02012" lon="8.89933">
        <ele>1169</ele>
        <time>2021-08-03T09:46:28.323Z</time>
      </trkpt>
      <trkpt lat="47.02013" lon="8.89933">
        <ele>1170</ele>
        <time>2021-08-03T09:46:29.322Z</time>
      </trkpt>
      <trkpt lat="47.02013" lon="8.89932">
        <ele>1170</ele>
        <time>2021-08-03T09:46:30.323Z</time>
      </trkpt>
      <trkpt lat="47.02014" lon="8.89931">
        <ele>1171</ele>
        <time>2021-08-03T09:46:31.322Z</time>
      </trkpt>
      <trkpt lat="47.02014" lon="8.89931">
        <ele>1172</ele>
        <time>2021-08-03T09:46:32.322Z</time>
      </trkpt>
      <trkpt lat="47.02013" lon="8.89931">
        <ele>1173</ele>
        <time>2021-08-03T09:46:33.323Z</time>
      </trkpt>
      <trkpt lat="47.02014" lon="8.8993">
        <ele>1174</ele>
        <time>2021-08-03T09:46:34.322Z</time>
      </trkpt>
      <trkpt lat="47.02014" lon="8.89929">
        <ele>1174</ele>
        <time>2021-08-03T09:46:35.323Z</time>
      </trkpt>
      <trkpt lat="47.02013" lon="8.89926">
        <ele>1175</ele>
        <time>2021-08-03T09:46:36.323Z</time>
      </trkpt>
      <trkpt lat="47.02013" lon="8.89924">
        <ele>1175</ele>
        <time>2021-08-03T09:46:37.323Z</time>
      </trkpt>
      <trkpt lat="47.02013" lon="8.89923">
        <ele>1174</ele>
        <time>2021-08-03T09:46:38.323Z</time>
      </trkpt>
      <trkpt lat="47.02013" lon="8.89922">
        <ele>1173</ele>
        <time>2021-08-03T09:46:39.323Z</time>
      </trkpt>
      <trkpt lat="47.02013" lon="8.89921">
        <ele>1173</ele>
        <time>2021-08-03T09:46:40.323Z</time>
      </trkpt>
      <trkpt lat="47.02013" lon="8.89919">
        <ele>1172</ele>
        <time>2021-08-03T09:46:41.323Z</time>
      </trkpt>
      <trkpt lat="47.02012" lon="8.89918">
        <ele>1172</ele>
        <time>2021-08-03T09:46:42.322Z</time>
      </trkpt>
      <trkpt lat="47.02012" lon="8.89916">
        <ele>1171</ele>
        <time>2021-08-03T09:46:43.322Z</time>
      </trkpt>
      <trkpt lat="47.02012" lon="8.89914">
        <ele>1170</ele>
        <time>2021-08-03T09:46:44.322Z</time>
      </trkpt>
      <trkpt lat="47.02012" lon="8.89913">
        <ele>1169</ele>
        <time>2021-08-03T09:46:45.323Z</time>
      </trkpt>
      <trkpt lat="47.02012" lon="8.8991">
        <ele>1168</ele>
        <time>2021-08-03T09:46:46.323Z</time>
      </trkpt>
      <trkpt lat="47.02011" lon="8.89908">
        <ele>1167</ele>
        <time>2021-08-03T09:46:47.323Z</time>
      </trkpt>
      <trkpt lat="47.0201" lon="8.89907">
        <ele>1167</ele>
        <time>2021-08-03T09:46:48.323Z</time>
      </trkpt>
      <trkpt lat="47.0201" lon="8.89904">
        <ele>1167</ele>
        <time>2021-08-03T09:46:49.323Z</time>
      </trkpt>
      <trkpt lat="47.02009" lon="8.89902">
        <ele>1167</ele>
        <time>2021-08-03T09:46:50.323Z</time>
      </trkpt>
      <trkpt lat="47.02008" lon="8.899">
        <ele>1167</ele>
        <time>2021-08-03T09:46:51.323Z</time>
      </trkpt>
      <trkpt lat="47.02008" lon="8.89898">
        <ele>1167</ele>
        <time>2021-08-03T09:46:52.322Z</time>
      </trkpt>
      <trkpt lat="47.02008" lon="8.89896">
        <ele>1167</ele>
        <time>2021-08-03T09:46:53.322Z</time>
      </trkpt>
      <trkpt lat="47.02008" lon="8.89893">
        <ele>1168</ele>
        <time>2021-08-03T09:46:54.322Z</time>
      </trkpt>
      <trkpt lat="47.02009" lon="8.89891">
        <ele>1168</ele>
        <time>2021-08-03T09:46:55.323Z</time>
      </trkpt>
      <trkpt lat="47.02009" lon="8.89889">
        <ele>1168</ele>
        <time>2021-08-03T09:46:56.323Z</time>
      </trkpt>
      <trkpt lat="47.02009" lon="8.89888">
        <ele>1169</ele>
        <time>2021-08-03T09:46:57.322Z</time>
      </trkpt>
      <trkpt lat="47.02009" lon="8.89887">
        <ele>1169</ele>
        <time>2021-08-03T09:46:58.323Z</time>
      </trkpt>
      <trkpt lat="47.02009" lon="8.89884">
        <ele>1169</ele>
        <time>2021-08-03T09:46:59.323Z</time>
      </trkpt>
      <trkpt lat="47.02009" lon="8.89882">
        <ele>1169</ele>
        <time>2021-08-03T09:47:00.323Z</time>
      </trkpt>
      <trkpt lat="47.02009" lon="8.8988">
        <ele>1170</ele>
        <time>2021-08-03T09:47:01.323Z</time>
      </trkpt>
      <trkpt lat="47.02009" lon="8.89878">
        <ele>1170</ele>
        <time>2021-08-03T09:47:02.322Z</time>
      </trkpt>
      <trkpt lat="47.02008" lon="8.89877">
        <ele>1170</ele>
        <time>2021-08-03T09:47:03.323Z</time>
      </trkpt>
      <trkpt lat="47.02008" lon="8.89875">
        <ele>1170</ele>
        <time>2021-08-03T09:47:04.323Z</time>
      </trkpt>
      <trkpt lat="47.02008" lon="8.89874">
        <ele>1170</ele>
        <time>2021-08-03T09:47:05.322Z</time>
      </trkpt>
      <trkpt lat="47.02009" lon="8.89873">
        <ele>1169</ele>
        <time>2021-08-03T09:47:06.323Z</time>
      </trkpt>
      <trkpt lat="47.02009" lon="8.89872">
        <ele>1168</ele>
        <time>2021-08-03T09:47:07.323Z</time>
      </trkpt>
      <trkpt lat="47.02008" lon="8.89872">
        <ele>1167</ele>
        <time>2021-08-03T09:47:08.322Z</time>
      </trkpt>
      <trkpt lat="47.02006" lon="8.89871">
        <ele>1162</ele>
        <time>2021-08-03T09:47:09.322Z</time>
      </trkpt>
      <trkpt lat="47.02006" lon="8.89871">
        <ele>1162</ele>
        <time>2021-08-03T09:47:10.323Z</time>
      </trkpt>
      <trkpt lat="47.02006" lon="8.89872">
        <ele>1161</ele>
        <time>2021-08-03T09:47:11.322Z</time>
      </trkpt>
      <trkpt lat="47.02004" lon="8.89875">
        <ele>1160</ele>
        <time>2021-08-03T09:47:12.322Z</time>
      </trkpt>
      <trkpt lat="47.02004" lon="8.89874">
        <ele>1160</ele>
        <time>2021-08-03T09:47:13.323Z</time>
      </trkpt>
      <trkpt lat="47.02003" lon="8.89874">
        <ele>1159</ele>
        <time>2021-08-03T09:47:14.322Z</time>
      </trkpt>
      <trkpt lat="47.02003" lon="8.89873">
        <ele>1159</ele>
        <time>2021-08-03T09:47:15.323Z</time>
      </trkpt>
      <trkpt lat="47.02004" lon="8.89871">
        <ele>1158</ele>
        <time>2021-08-03T09:47:19.323Z</time>
      </trkpt>
      <trkpt lat="47.02003" lon="8.89871">
        <ele>1158</ele>
        <time>2021-08-03T09:47:20.323Z</time>
      </trkpt>
      <trkpt lat="47.02004" lon="8.89872">
        <ele>1157</ele>
        <time>2021-08-03T09:47:21.322Z</time>
      </trkpt>
      <trkpt lat="47.02003" lon="8.89873">
        <ele>1157</ele>
        <time>2021-08-03T09:47:22.323Z</time>
      </trkpt>
      <trkpt lat="47.02003" lon="8.89873">
        <ele>1157</ele>
        <time>2021-08-03T09:47:23.323Z</time>
      </trkpt>
      <trkpt lat="47.02003" lon="8.89875">
        <ele>1157</ele>
        <time>2021-08-03T09:47:24.324Z</time>
      </trkpt>
      <trkpt lat="47.02003" lon="8.89876">
        <ele>1157</ele>
        <time>2021-08-03T09:47:25.324Z</time>
      </trkpt>
      <trkpt lat="47.02002" lon="8.89877">
        <ele>1158</ele>
        <time>2021-08-03T09:47:26.323Z</time>
      </trkpt>
      <trkpt lat="47.02002" lon="8.89878">
        <ele>1158</ele>
        <time>2021-08-03T09:47:27.324Z</time>
      </trkpt>
      <trkpt lat="47.02003" lon="8.89877">
        <ele>1158</ele>
        <time>2021-08-03T09:47:28.323Z</time>
      </trkpt>
      <trkpt lat="47.02003" lon="8.89875">
        <ele>1158</ele>
        <time>2021-08-03T09:47:29.324Z</time>
      </trkpt>
      <trkpt lat="47.02004" lon="8.89874">
        <ele>1158</ele>
        <time>2021-08-03T09:47:30.324Z</time>
      </trkpt>
      <trkpt lat="47.02004" lon="8.89874">
        <ele>1159</ele>
        <time>2021-08-03T09:47:31.323Z</time>
      </trkpt>
      <trkpt lat="47.02003" lon="8.89872">
        <ele>1158</ele>
        <time>2021-08-03T09:47:32.323Z</time>
      </trkpt>
      <trkpt lat="47.02003" lon="8.89871">
        <ele>1158</ele>
        <time>2021-08-03T09:47:33.324Z</time>
      </trkpt>
      <trkpt lat="47.02007" lon="8.89864">
        <ele>1162</ele>
        <time>2021-08-03T09:47:34.325Z</time>
      </trkpt>
      <trkpt lat="47.02008" lon="8.89863">
        <ele>1163</ele>
        <time>2021-08-03T09:47:35.326Z</time>
      </trkpt>
      <trkpt lat="47.02005" lon="8.89859">
        <ele>1168</ele>
        <time>2021-08-03T09:47:36.326Z</time>
      </trkpt>
      <trkpt lat="47.02005" lon="8.89858">
        <ele>1168</ele>
        <time>2021-08-03T09:47:37.326Z</time>
      </trkpt>
      <trkpt lat="47.02005" lon="8.89857">
        <ele>1169</ele>
        <time>2021-08-03T09:47:38.325Z</time>
      </trkpt>
      <trkpt lat="47.02002" lon="8.89847">
        <ele>1176</ele>
        <time>2021-08-03T09:47:39.326Z</time>
      </trkpt>
      <trkpt lat="47.02002" lon="8.89846">
        <ele>1177</ele>
        <time>2021-08-03T09:47:40.327Z</time>
      </trkpt>
      <trkpt lat="47.02003" lon="8.89847">
        <ele>1177</ele>
        <time>2021-08-03T09:47:41.326Z</time>
      </trkpt>
      <trkpt lat="47.02004" lon="8.89847">
        <ele>1176</ele>
        <time>2021-08-03T09:47:42.326Z</time>
      </trkpt>
      <trkpt lat="47.02005" lon="8.89848">
        <ele>1176</ele>
        <time>2021-08-03T09:47:43.327Z</time>
      </trkpt>
      <trkpt lat="47.02005" lon="8.89848">
        <ele>1175</ele>
        <time>2021-08-03T09:47:44.326Z</time>
      </trkpt>
      <trkpt lat="47.02005" lon="8.89848">
        <ele>1175</ele>
        <time>2021-08-03T09:47:45.326Z</time>
      </trkpt>
      <trkpt lat="47.02005" lon="8.89847">
        <ele>1174</ele>
        <time>2021-08-03T09:47:46.326Z</time>
      </trkpt>
      <trkpt lat="47.02005" lon="8.89847">
        <ele>1174</ele>
        <time>2021-08-03T09:47:47.326Z</time>
      </trkpt>
      <trkpt lat="47.02005" lon="8.89846">
        <ele>1174</ele>
        <time>2021-08-03T09:47:48.326Z</time>
      </trkpt>
      <trkpt lat="47.02005" lon="8.89845">
        <ele>1173</ele>
        <time>2021-08-03T09:47:49.327Z</time>
      </trkpt>
      <trkpt lat="47.02006" lon="8.89844">
        <ele>1173</ele>
        <time>2021-08-03T09:47:50.326Z</time>
      </trkpt>
      <trkpt lat="47.02007" lon="8.89843">
        <ele>1173</ele>
        <time>2021-08-03T09:47:51.326Z</time>
      </trkpt>
      <trkpt lat="47.02007" lon="8.89843">
        <ele>1173</ele>
        <time>2021-08-03T09:47:52.326Z</time>
      </trkpt>
      <trkpt lat="47.02007" lon="8.89843">
        <ele>1173</ele>
        <time>2021-08-03T09:47:53.326Z</time>
      </trkpt>
      <trkpt lat="47.02007" lon="8.89843">
        <ele>1173</ele>
        <time>2021-08-03T09:47:54.326Z</time>
      </trkpt>
      <trkpt lat="47.02007" lon="8.89843">
        <ele>1173</ele>
        <time>2021-08-03T09:47:55.327Z</time>
      </trkpt>
      <trkpt lat="47.02006" lon="8.89843">
        <ele>1173</ele>
        <time>2021-08-03T09:47:56.326Z</time>
      </trkpt>
      <trkpt lat="47.02006" lon="8.89844">
        <ele>1173</ele>
        <time>2021-08-03T09:47:57.327Z</time>
      </trkpt>
      <trkpt lat="47.02006" lon="8.89844">
        <ele>1173</ele>
        <time>2021-08-03T09:47:58.326Z</time>
      </trkpt>
      <trkpt lat="47.02005" lon="8.89843">
        <ele>1173</ele>
        <time>2021-08-03T09:47:59.327Z</time>
      </trkpt>
      <trkpt lat="47.02005" lon="8.89842">
        <ele>1173</ele>
        <time>2021-08-03T09:48:00.327Z</time>
      </trkpt>
      <trkpt lat="47.02005" lon="8.8984">
        <ele>1172</ele>
        <time>2021-08-03T09:48:01.327Z</time>
      </trkpt>
      <trkpt lat="47.02005" lon="8.8984">
        <ele>1172</ele>
        <time>2021-08-03T09:48:02.326Z</time>
      </trkpt>
      <trkpt lat="47.02005" lon="8.89839">
        <ele>1172</ele>
        <time>2021-08-03T09:48:03.326Z</time>
      </trkpt>
      <trkpt lat="47.02004" lon="8.89839">
        <ele>1171</ele>
        <time>2021-08-03T09:48:04.327Z</time>
      </trkpt>
      <trkpt lat="47.02004" lon="8.89838">
        <ele>1171</ele>
        <time>2021-08-03T09:48:05.327Z</time>
      </trkpt>
      <trkpt lat="47.02004" lon="8.89838">
        <ele>1171</ele>
        <time>2021-08-03T09:48:06.327Z</time>
      </trkpt>
      <trkpt lat="47.02003" lon="8.89838">
        <ele>1171</ele>
        <time>2021-08-03T09:48:07.326Z</time>
      </trkpt>
      <trkpt lat="47.02002" lon="8.89838">
        <ele>1172</ele>
        <time>2021-08-03T09:48:08.327Z</time>
      </trkpt>
      <trkpt lat="47.02002" lon="8.89838">
        <ele>1172</ele>
        <time>2021-08-03T09:48:09.326Z</time>
      </trkpt>
      <trkpt lat="47.02002" lon="8.89837">
        <ele>1172</ele>
        <time>2021-08-03T09:48:10.327Z</time>
      </trkpt>
      <trkpt lat="47.02002" lon="8.89837">
        <ele>1172</ele>
        <time>2021-08-03T09:48:11.327Z</time>
      </trkpt>
      <trkpt lat="47.02002" lon="8.89837">
        <ele>1173</ele>
        <time>2021-08-03T09:48:12.326Z</time>
      </trkpt>
      <trkpt lat="47.02002" lon="8.89836">
        <ele>1173</ele>
        <time>2021-08-03T09:48:13.326Z</time>
      </trkpt>
      <trkpt lat="47.02002" lon="8.89836">
        <ele>1173</ele>
        <time>2021-08-03T09:48:14.326Z</time>
      </trkpt>
      <trkpt lat="47.02001" lon="8.89835">
        <ele>1173</ele>
        <time>2021-08-03T09:48:15.326Z</time>
      </trkpt>
      <trkpt lat="47.02001" lon="8.89835">
        <ele>1174</ele>
        <time>2021-08-03T09:48:16.327Z</time>
      </trkpt>
      <trkpt lat="47.02001" lon="8.89835">
        <ele>1174</ele>
        <time>2021-08-03T09:48:17.326Z</time>
      </trkpt>
      <trkpt lat="47.02" lon="8.89834">
        <ele>1174</ele>
        <time>2021-08-03T09:48:18.327Z</time>
      </trkpt>
      <trkpt lat="47.02001" lon="8.89833">
        <ele>1174</ele>
        <time>2021-08-03T09:48:19.326Z</time>
      </trkpt>
      <trkpt lat="47.02001" lon="8.89832">
        <ele>1174</ele>
        <time>2021-08-03T09:48:20.327Z</time>
      </trkpt>
      <trkpt lat="47.02002" lon="8.89831">
        <ele>1175</ele>
        <time>2021-08-03T09:48:21.326Z</time>
      </trkpt>
      <trkpt lat="47.02002" lon="8.8983">
        <ele>1175</ele>
        <time>2021-08-03T09:48:22.327Z</time>
      </trkpt>
      <trkpt lat="47.02003" lon="8.89828">
        <ele>1175</ele>
        <time>2021-08-03T09:48:23.326Z</time>
      </trkpt>
      <trkpt lat="47.02003" lon="8.89826">
        <ele>1176</ele>
        <time>2021-08-03T09:48:24.327Z</time>
      </trkpt>
      <trkpt lat="47.02003" lon="8.89824">
        <ele>1176</ele>
        <time>2021-08-03T09:48:25.327Z</time>
      </trkpt>
      <trkpt lat="47.02003" lon="8.89823">
        <ele>1177</ele>
        <time>2021-08-03T09:48:26.327Z</time>
      </trkpt>
      <trkpt lat="47.02003" lon="8.89822">
        <ele>1178</ele>
        <time>2021-08-03T09:48:27.327Z</time>
      </trkpt>
      <trkpt lat="47.02003" lon="8.89822">
        <ele>1179</ele>
        <time>2021-08-03T09:48:28.326Z</time>
      </trkpt>
      <trkpt lat="47.02003" lon="8.8982">
        <ele>1179</ele>
        <time>2021-08-03T09:48:29.326Z</time>
      </trkpt>
      <trkpt lat="47.02002" lon="8.89818">
        <ele>1179</ele>
        <time>2021-08-03T09:48:30.327Z</time>
      </trkpt>
      <trkpt lat="47.02002" lon="8.89816">
        <ele>1180</ele>
        <time>2021-08-03T09:48:31.327Z</time>
      </trkpt>
      <trkpt lat="47.02002" lon="8.89814">
        <ele>1180</ele>
        <time>2021-08-03T09:48:32.327Z</time>
      </trkpt>
      <trkpt lat="47.02002" lon="8.89813">
        <ele>1179</ele>
        <time>2021-08-03T09:48:33.327Z</time>
      </trkpt>
      <trkpt lat="47.02003" lon="8.89811">
        <ele>1179</ele>
        <time>2021-08-03T09:48:34.327Z</time>
      </trkpt>
      <trkpt lat="47.02002" lon="8.8981">
        <ele>1178</ele>
        <time>2021-08-03T09:48:35.327Z</time>
      </trkpt>
      <trkpt lat="47.02003" lon="8.89808">
        <ele>1178</ele>
        <time>2021-08-03T09:48:36.327Z</time>
      </trkpt>
      <trkpt lat="47.02003" lon="8.89807">
        <ele>1178</ele>
        <time>2021-08-03T09:48:37.327Z</time>
      </trkpt>
      <trkpt lat="47.02003" lon="8.89806">
        <ele>1178</ele>
        <time>2021-08-03T09:48:38.327Z</time>
      </trkpt>
      <trkpt lat="47.02003" lon="8.89805">
        <ele>1178</ele>
        <time>2021-08-03T09:48:39.327Z</time>
      </trkpt>
      <trkpt lat="47.01998" lon="8.89796">
        <ele>1183</ele>
        <time>2021-08-03T09:48:40.327Z</time>
      </trkpt>
      <trkpt lat="47.01998" lon="8.89794">
        <ele>1183</ele>
        <time>2021-08-03T09:48:41.326Z</time>
      </trkpt>
      <trkpt lat="47.01999" lon="8.89792">
        <ele>1183</ele>
        <time>2021-08-03T09:48:42.326Z</time>
      </trkpt>
      <trkpt lat="47.01999" lon="8.89791">
        <ele>1183</ele>
        <time>2021-08-03T09:48:43.327Z</time>
      </trkpt>
      <trkpt lat="47.01999" lon="8.8979">
        <ele>1183</ele>
        <time>2021-08-03T09:48:44.327Z</time>
      </trkpt>
      <trkpt lat="47.01999" lon="8.89789">
        <ele>1183</ele>
        <time>2021-08-03T09:48:45.326Z</time>
      </trkpt>
      <trkpt lat="47.01999" lon="8.89788">
        <ele>1182</ele>
        <time>2021-08-03T09:48:46.326Z</time>
      </trkpt>
      <trkpt lat="47.01999" lon="8.89787">
        <ele>1182</ele>
        <time>2021-08-03T09:48:47.327Z</time>
      </trkpt>
      <trkpt lat="47.01999" lon="8.89786">
        <ele>1182</ele>
        <time>2021-08-03T09:48:48.327Z</time>
      </trkpt>
      <trkpt lat="47.01999" lon="8.89785">
        <ele>1181</ele>
        <time>2021-08-03T09:48:49.326Z</time>
      </trkpt>
      <trkpt lat="47.01998" lon="8.89783">
        <ele>1181</ele>
        <time>2021-08-03T09:48:50.327Z</time>
      </trkpt>
      <trkpt lat="47.01999" lon="8.89782">
        <ele>1180</ele>
        <time>2021-08-03T09:48:51.326Z</time>
      </trkpt>
      <trkpt lat="47.01999" lon="8.89781">
        <ele>1180</ele>
        <time>2021-08-03T09:48:52.327Z</time>
      </trkpt>
      <trkpt lat="47.01999" lon="8.8978">
        <ele>1179</ele>
        <time>2021-08-03T09:48:53.327Z</time>
      </trkpt>
      <trkpt lat="47.01999" lon="8.89779">
        <ele>1179</ele>
        <time>2021-08-03T09:48:54.327Z</time>
      </trkpt>
      <trkpt lat="47.01999" lon="8.89778">
        <ele>1179</ele>
        <time>2021-08-03T09:48:55.326Z</time>
      </trkpt>
      <trkpt lat="47.01999" lon="8.89777">
        <ele>1178</ele>
        <time>2021-08-03T09:48:56.326Z</time>
      </trkpt>
      <trkpt lat="47.01999" lon="8.89776">
        <ele>1178</ele>
        <time>2021-08-03T09:48:57.327Z</time>
      </trkpt>
      <trkpt lat="47.01999" lon="8.89774">
        <ele>1178</ele>
        <time>2021-08-03T09:48:58.326Z</time>
      </trkpt>
      <trkpt lat="47.01999" lon="8.89773">
        <ele>1178</ele>
        <time>2021-08-03T09:48:59.326Z</time>
      </trkpt>
      <trkpt lat="47.01999" lon="8.89771">
        <ele>1177</ele>
        <time>2021-08-03T09:49:00.327Z</time>
      </trkpt>
      <trkpt lat="47.01999" lon="8.8977">
        <ele>1177</ele>
        <time>2021-08-03T09:49:01.326Z</time>
      </trkpt>
      <trkpt lat="47.02" lon="8.89769">
        <ele>1177</ele>
        <time>2021-08-03T09:49:02.327Z</time>
      </trkpt>
      <trkpt lat="47.02" lon="8.89767">
        <ele>1178</ele>
        <time>2021-08-03T09:49:03.326Z</time>
      </trkpt>
      <trkpt lat="47.02" lon="8.89766">
        <ele>1178</ele>
        <time>2021-08-03T09:49:04.326Z</time>
      </trkpt>
      <trkpt lat="47.02001" lon="8.89764">
        <ele>1178</ele>
        <time>2021-08-03T09:49:05.326Z</time>
      </trkpt>
      <trkpt lat="47.02001" lon="8.89762">
        <ele>1178</ele>
        <time>2021-08-03T09:49:06.326Z</time>
      </trkpt>
      <trkpt lat="47.02001" lon="8.89761">
        <ele>1178</ele>
        <time>2021-08-03T09:49:07.327Z</time>
      </trkpt>
      <trkpt lat="47.02002" lon="8.8976">
        <ele>1178</ele>
        <time>2021-08-03T09:49:08.326Z</time>
      </trkpt>
      <trkpt lat="47.02002" lon="8.89759">
        <ele>1178</ele>
        <time>2021-08-03T09:49:09.326Z</time>
      </trkpt>
      <trkpt lat="47.02002" lon="8.89757">
        <ele>1178</ele>
        <time>2021-08-03T09:49:10.326Z</time>
      </trkpt>
      <trkpt lat="47.02002" lon="8.89756">
        <ele>1178</ele>
        <time>2021-08-03T09:49:11.326Z</time>
      </trkpt>
      <trkpt lat="47.02002" lon="8.89755">
        <ele>1177</ele>
        <time>2021-08-03T09:49:12.326Z</time>
      </trkpt>
      <trkpt lat="47.02001" lon="8.89754">
        <ele>1177</ele>
        <time>2021-08-03T09:49:13.326Z</time>
      </trkpt>
      <trkpt lat="47.02" lon="8.89753">
        <ele>1177</ele>
        <time>2021-08-03T09:49:14.326Z</time>
      </trkpt>
      <trkpt lat="47.02" lon="8.89752">
        <ele>1177</ele>
        <time>2021-08-03T09:49:15.326Z</time>
      </trkpt>
      <trkpt lat="47.01999" lon="8.89751">
        <ele>1176</ele>
        <time>2021-08-03T09:49:16.326Z</time>
      </trkpt>
      <trkpt lat="47.01999" lon="8.89749">
        <ele>1176</ele>
        <time>2021-08-03T09:49:17.326Z</time>
      </trkpt>
      <trkpt lat="47.01999" lon="8.89746">
        <ele>1176</ele>
        <time>2021-08-03T09:49:18.326Z</time>
      </trkpt>
      <trkpt lat="47.02" lon="8.89744">
        <ele>1176</ele>
        <time>2021-08-03T09:49:19.327Z</time>
      </trkpt>
      <trkpt lat="47.02" lon="8.89743">
        <ele>1177</ele>
        <time>2021-08-03T09:49:20.326Z</time>
      </trkpt>
      <trkpt lat="47.02" lon="8.89742">
        <ele>1177</ele>
        <time>2021-08-03T09:49:21.326Z</time>
      </trkpt>
      <trkpt lat="47.02" lon="8.89741">
        <ele>1177</ele>
        <time>2021-08-03T09:49:22.326Z</time>
      </trkpt>
      <trkpt lat="47.02001" lon="8.8974">
        <ele>1177</ele>
        <time>2021-08-03T09:49:23.326Z</time>
      </trkpt>
      <trkpt lat="47.02001" lon="8.89739">
        <ele>1177</ele>
        <time>2021-08-03T09:49:24.326Z</time>
      </trkpt>
      <trkpt lat="47.02001" lon="8.89738">
        <ele>1177</ele>
        <time>2021-08-03T09:49:25.326Z</time>
      </trkpt>
      <trkpt lat="47.02" lon="8.89736">
        <ele>1178</ele>
        <time>2021-08-03T09:49:26.327Z</time>
      </trkpt>
      <trkpt lat="47.02" lon="8.89735">
        <ele>1179</ele>
        <time>2021-08-03T09:49:27.327Z</time>
      </trkpt>
      <trkpt lat="47.01999" lon="8.89734">
        <ele>1180</ele>
        <time>2021-08-03T09:49:28.327Z</time>
      </trkpt>
      <trkpt lat="47.01999" lon="8.89733">
        <ele>1181</ele>
        <time>2021-08-03T09:49:29.327Z</time>
      </trkpt>
      <trkpt lat="47.01999" lon="8.89732">
        <ele>1182</ele>
        <time>2021-08-03T09:49:30.327Z</time>
      </trkpt>
      <trkpt lat="47.01998" lon="8.89732">
        <ele>1183</ele>
        <time>2021-08-03T09:49:31.326Z</time>
      </trkpt>
      <trkpt lat="47.01998" lon="8.89731">
        <ele>1184</ele>
        <time>2021-08-03T09:49:32.326Z</time>
      </trkpt>
      <trkpt lat="47.01998" lon="8.8973">
        <ele>1185</ele>
        <time>2021-08-03T09:49:33.326Z</time>
      </trkpt>
      <trkpt lat="47.01998" lon="8.8973">
        <ele>1186</ele>
        <time>2021-08-03T09:49:34.327Z</time>
      </trkpt>
      <trkpt lat="47.01997" lon="8.89729">
        <ele>1186</ele>
        <time>2021-08-03T09:49:35.327Z</time>
      </trkpt>
      <trkpt lat="47.01997" lon="8.89728">
        <ele>1186</ele>
        <time>2021-08-03T09:49:36.326Z</time>
      </trkpt>
      <trkpt lat="47.01997" lon="8.89727">
        <ele>1185</ele>
        <time>2021-08-03T09:49:37.326Z</time>
      </trkpt>
      <trkpt lat="47.01997" lon="8.89727">
        <ele>1185</ele>
        <time>2021-08-03T09:49:38.326Z</time>
      </trkpt>
      <trkpt lat="47.01997" lon="8.89726">
        <ele>1185</ele>
        <time>2021-08-03T09:49:39.326Z</time>
      </trkpt>
      <trkpt lat="47.01997" lon="8.89725">
        <ele>1185</ele>
        <time>2021-08-03T09:49:40.327Z</time>
      </trkpt>
      <trkpt lat="47.01998" lon="8.89724">
        <ele>1186</ele>
        <time>2021-08-03T09:49:41.327Z</time>
      </trkpt>
      <trkpt lat="47.01998" lon="8.89723">
        <ele>1185</ele>
        <time>2021-08-03T09:49:42.326Z</time>
      </trkpt>
      <trkpt lat="47.01998" lon="8.89721">
        <ele>1185</ele>
        <time>2021-08-03T09:49:43.327Z</time>
      </trkpt>
      <trkpt lat="47.01998" lon="8.8972">
        <ele>1185</ele>
        <time>2021-08-03T09:49:44.327Z</time>
      </trkpt>
      <trkpt lat="47.01998" lon="8.8972">
        <ele>1185</ele>
        <time>2021-08-03T09:49:45.327Z</time>
      </trkpt>
      <trkpt lat="47.01997" lon="8.89718">
        <ele>1185</ele>
        <time>2021-08-03T09:49:46.327Z</time>
      </trkpt>
      <trkpt lat="47.01997" lon="8.89717">
        <ele>1185</ele>
        <time>2021-08-03T09:49:47.326Z</time>
      </trkpt>
      <trkpt lat="47.01997" lon="8.89716">
        <ele>1184</ele>
        <time>2021-08-03T09:49:48.327Z</time>
      </trkpt>
      <trkpt lat="47.01997" lon="8.89715">
        <ele>1184</ele>
        <time>2021-08-03T09:49:49.327Z</time>
      </trkpt>
      <trkpt lat="47.01997" lon="8.89714">
        <ele>1184</ele>
        <time>2021-08-03T09:49:50.327Z</time>
      </trkpt>
      <trkpt lat="47.01997" lon="8.89713">
        <ele>1184</ele>
        <time>2021-08-03T09:49:51.327Z</time>
      </trkpt>
      <trkpt lat="47.01997" lon="8.89712">
        <ele>1183</ele>
        <time>2021-08-03T09:49:52.327Z</time>
      </trkpt>
      <trkpt lat="47.01997" lon="8.89711">
        <ele>1183</ele>
        <time>2021-08-03T09:49:53.327Z</time>
      </trkpt>
      <trkpt lat="47.01997" lon="8.89711">
        <ele>1183</ele>
        <time>2021-08-03T09:49:54.327Z</time>
      </trkpt>
      <trkpt lat="47.01997" lon="8.89709">
        <ele>1182</ele>
        <time>2021-08-03T09:49:55.327Z</time>
      </trkpt>
      <trkpt lat="47.01997" lon="8.89707">
        <ele>1182</ele>
        <time>2021-08-03T09:49:56.326Z</time>
      </trkpt>
      <trkpt lat="47.01997" lon="8.89706">
        <ele>1182</ele>
        <time>2021-08-03T09:49:57.327Z</time>
      </trkpt>
      <trkpt lat="47.01996" lon="8.89705">
        <ele>1182</ele>
        <time>2021-08-03T09:49:58.327Z</time>
      </trkpt>
      <trkpt lat="47.01996" lon="8.89705">
        <ele>1182</ele>
        <time>2021-08-03T09:49:59.327Z</time>
      </trkpt>
      <trkpt lat="47.01996" lon="8.89704">
        <ele>1182</ele>
        <time>2021-08-03T09:50:00.327Z</time>
      </trkpt>
      <trkpt lat="47.01995" lon="8.89703">
        <ele>1183</ele>
        <time>2021-08-03T09:50:01.327Z</time>
      </trkpt>
      <trkpt lat="47.01995" lon="8.89702">
        <ele>1183</ele>
        <time>2021-08-03T09:50:02.327Z</time>
      </trkpt>
      <trkpt lat="47.01995" lon="8.897">
        <ele>1184</ele>
        <time>2021-08-03T09:50:03.326Z</time>
      </trkpt>
      <trkpt lat="47.01994" lon="8.89699">
        <ele>1184</ele>
        <time>2021-08-03T09:50:04.327Z</time>
      </trkpt>
      <trkpt lat="47.01994" lon="8.89698">
        <ele>1184</ele>
        <time>2021-08-03T09:50:05.327Z</time>
      </trkpt>
      <trkpt lat="47.01993" lon="8.89697">
        <ele>1184</ele>
        <time>2021-08-03T09:50:06.327Z</time>
      </trkpt>
      <trkpt lat="47.01992" lon="8.89697">
        <ele>1184</ele>
        <time>2021-08-03T09:50:07.327Z</time>
      </trkpt>
      <trkpt lat="47.01992" lon="8.89696">
        <ele>1184</ele>
        <time>2021-08-03T09:50:08.327Z</time>
      </trkpt>
      <trkpt lat="47.01992" lon="8.89695">
        <ele>1184</ele>
        <time>2021-08-03T09:50:09.327Z</time>
      </trkpt>
      <trkpt lat="47.01992" lon="8.89695">
        <ele>1185</ele>
        <time>2021-08-03T09:50:10.327Z</time>
      </trkpt>
      <trkpt lat="47.01992" lon="8.89694">
        <ele>1185</ele>
        <time>2021-08-03T09:50:11.326Z</time>
      </trkpt>
      <trkpt lat="47.01993" lon="8.89692">
        <ele>1185</ele>
        <time>2021-08-03T09:50:12.327Z</time>
      </trkpt>
      <trkpt lat="47.01993" lon="8.89691">
        <ele>1185</ele>
        <time>2021-08-03T09:50:13.327Z</time>
      </trkpt>
      <trkpt lat="47.01993" lon="8.89691">
        <ele>1184</ele>
        <time>2021-08-03T09:50:14.327Z</time>
      </trkpt>
      <trkpt lat="47.01994" lon="8.8969">
        <ele>1184</ele>
        <time>2021-08-03T09:50:15.327Z</time>
      </trkpt>
      <trkpt lat="47.01993" lon="8.89689">
        <ele>1184</ele>
        <time>2021-08-03T09:50:16.327Z</time>
      </trkpt>
      <trkpt lat="47.01993" lon="8.89688">
        <ele>1183</ele>
        <time>2021-08-03T09:50:17.327Z</time>
      </trkpt>
      <trkpt lat="47.01992" lon="8.89688">
        <ele>1183</ele>
        <time>2021-08-03T09:50:18.327Z</time>
      </trkpt>
      <trkpt lat="47.01993" lon="8.89687">
        <ele>1183</ele>
        <time>2021-08-03T09:50:19.327Z</time>
      </trkpt>
      <trkpt lat="47.01993" lon="8.89686">
        <ele>1183</ele>
        <time>2021-08-03T09:50:20.327Z</time>
      </trkpt>
      <trkpt lat="47.01994" lon="8.89685">
        <ele>1182</ele>
        <time>2021-08-03T09:50:21.326Z</time>
      </trkpt>
      <trkpt lat="47.01995" lon="8.89683">
        <ele>1181</ele>
        <time>2021-08-03T09:50:22.326Z</time>
      </trkpt>
      <trkpt lat="47.01995" lon="8.89681">
        <ele>1180</ele>
        <time>2021-08-03T09:50:23.327Z</time>
      </trkpt>
      <trkpt lat="47.01996" lon="8.8968">
        <ele>1180</ele>
        <time>2021-08-03T09:50:24.327Z</time>
      </trkpt>
      <trkpt lat="47.01995" lon="8.89679">
        <ele>1179</ele>
        <time>2021-08-03T09:50:25.327Z</time>
      </trkpt>
      <trkpt lat="47.01995" lon="8.89678">
        <ele>1178</ele>
        <time>2021-08-03T09:50:26.326Z</time>
      </trkpt>
      <trkpt lat="47.01995" lon="8.89677">
        <ele>1177</ele>
        <time>2021-08-03T09:50:27.327Z</time>
      </trkpt>
      <trkpt lat="47.01996" lon="8.89674">
        <ele>1177</ele>
        <time>2021-08-03T09:50:28.327Z</time>
      </trkpt>
      <trkpt lat="47.01997" lon="8.89671">
        <ele>1176</ele>
        <time>2021-08-03T09:50:29.327Z</time>
      </trkpt>
      <trkpt lat="47.01998" lon="8.8967">
        <ele>1175</ele>
        <time>2021-08-03T09:50:30.326Z</time>
      </trkpt>
      <trkpt lat="47.01998" lon="8.89668">
        <ele>1175</ele>
        <time>2021-08-03T09:50:31.326Z</time>
      </trkpt>
      <trkpt lat="47.01998" lon="8.89667">
        <ele>1175</ele>
        <time>2021-08-03T09:50:32.327Z</time>
      </trkpt>
      <trkpt lat="47.01998" lon="8.89666">
        <ele>1175</ele>
        <time>2021-08-03T09:50:33.327Z</time>
      </trkpt>
      <trkpt lat="47.01998" lon="8.89665">
        <ele>1175</ele>
        <time>2021-08-03T09:50:34.327Z</time>
      </trkpt>
      <trkpt lat="47.01998" lon="8.89664">
        <ele>1175</ele>
        <time>2021-08-03T09:50:35.326Z</time>
      </trkpt>
      <trkpt lat="47.01998" lon="8.89663">
        <ele>1175</ele>
        <time>2021-08-03T09:50:36.326Z</time>
      </trkpt>
      <trkpt lat="47.01998" lon="8.89662">
        <ele>1175</ele>
        <time>2021-08-03T09:50:37.326Z</time>
      </trkpt>
      <trkpt lat="47.01998" lon="8.89661">
        <ele>1176</ele>
        <time>2021-08-03T09:50:38.326Z</time>
      </trkpt>
      <trkpt lat="47.01998" lon="8.8966">
        <ele>1176</ele>
        <time>2021-08-03T09:50:39.326Z</time>
      </trkpt>
      <trkpt lat="47.01997" lon="8.89659">
        <ele>1177</ele>
        <time>2021-08-03T09:50:40.326Z</time>
      </trkpt>
      <trkpt lat="47.01997" lon="8.89658">
        <ele>1178</ele>
        <time>2021-08-03T09:50:41.327Z</time>
      </trkpt>
      <trkpt lat="47.01996" lon="8.89658">
        <ele>1179</ele>
        <time>2021-08-03T09:50:42.327Z</time>
      </trkpt>
      <trkpt lat="47.01995" lon="8.89656">
        <ele>1180</ele>
        <time>2021-08-03T09:50:43.326Z</time>
      </trkpt>
      <trkpt lat="47.01994" lon="8.89656">
        <ele>1181</ele>
        <time>2021-08-03T09:50:44.326Z</time>
      </trkpt>
      <trkpt lat="47.01994" lon="8.89655">
        <ele>1182</ele>
        <time>2021-08-03T09:50:45.327Z</time>
      </trkpt>
      <trkpt lat="47.01994" lon="8.89655">
        <ele>1182</ele>
        <time>2021-08-03T09:50:46.327Z</time>
      </trkpt>
      <trkpt lat="47.01994" lon="8.89654">
        <ele>1182</ele>
        <time>2021-08-03T09:50:47.327Z</time>
      </trkpt>
      <trkpt lat="47.01993" lon="8.89653">
        <ele>1182</ele>
        <time>2021-08-03T09:50:48.327Z</time>
      </trkpt>
      <trkpt lat="47.01992" lon="8.89653">
        <ele>1182</ele>
        <time>2021-08-03T09:50:49.327Z</time>
      </trkpt>
      <trkpt lat="47.01991" lon="8.89652">
        <ele>1182</ele>
        <time>2021-08-03T09:50:50.327Z</time>
      </trkpt>
      <trkpt lat="47.01991" lon="8.8965">
        <ele>1183</ele>
        <time>2021-08-03T09:50:51.326Z</time>
      </trkpt>
      <trkpt lat="47.01992" lon="8.89649">
        <ele>1183</ele>
        <time>2021-08-03T09:50:52.327Z</time>
      </trkpt>
      <trkpt lat="47.01993" lon="8.89647">
        <ele>1183</ele>
        <time>2021-08-03T09:50:53.327Z</time>
      </trkpt>
      <trkpt lat="47.01993" lon="8.89646">
        <ele>1183</ele>
        <time>2021-08-03T09:50:54.327Z</time>
      </trkpt>
      <trkpt lat="47.01994" lon="8.89645">
        <ele>1183</ele>
        <time>2021-08-03T09:50:55.326Z</time>
      </trkpt>
      <trkpt lat="47.01994" lon="8.89644">
        <ele>1183</ele>
        <time>2021-08-03T09:50:56.326Z</time>
      </trkpt>
      <trkpt lat="47.01993" lon="8.89643">
        <ele>1184</ele>
        <time>2021-08-03T09:50:57.326Z</time>
      </trkpt>
      <trkpt lat="47.01993" lon="8.89642">
        <ele>1184</ele>
        <time>2021-08-03T09:50:58.326Z</time>
      </trkpt>
      <trkpt lat="47.01993" lon="8.89641">
        <ele>1185</ele>
        <time>2021-08-03T09:50:59.326Z</time>
      </trkpt>
      <trkpt lat="47.01993" lon="8.8964">
        <ele>1186</ele>
        <time>2021-08-03T09:51:00.327Z</time>
      </trkpt>
      <trkpt lat="47.01992" lon="8.89639">
        <ele>1186</ele>
        <time>2021-08-03T09:51:01.326Z</time>
      </trkpt>
      <trkpt lat="47.01992" lon="8.89638">
        <ele>1186</ele>
        <time>2021-08-03T09:51:02.327Z</time>
      </trkpt>
      <trkpt lat="47.01992" lon="8.89637">
        <ele>1186</ele>
        <time>2021-08-03T09:51:03.326Z</time>
      </trkpt>
      <trkpt lat="47.01992" lon="8.89636">
        <ele>1186</ele>
        <time>2021-08-03T09:51:04.327Z</time>
      </trkpt>
      <trkpt lat="47.01992" lon="8.89635">
        <ele>1187</ele>
        <time>2021-08-03T09:51:05.326Z</time>
      </trkpt>
      <trkpt lat="47.01992" lon="8.89634">
        <ele>1187</ele>
        <time>2021-08-03T09:51:06.327Z</time>
      </trkpt>
      <trkpt lat="47.01992" lon="8.89633">
        <ele>1188</ele>
        <time>2021-08-03T09:51:07.327Z</time>
      </trkpt>
      <trkpt lat="47.01992" lon="8.89631">
        <ele>1188</ele>
        <time>2021-08-03T09:51:08.326Z</time>
      </trkpt>
      <trkpt lat="47.01991" lon="8.8963">
        <ele>1188</ele>
        <time>2021-08-03T09:51:09.327Z</time>
      </trkpt>
      <trkpt lat="47.01991" lon="8.89628">
        <ele>1189</ele>
        <time>2021-08-03T09:51:10.327Z</time>
      </trkpt>
      <trkpt lat="47.01991" lon="8.89628">
        <ele>1189</ele>
        <time>2021-08-03T09:51:11.327Z</time>
      </trkpt>
      <trkpt lat="47.01991" lon="8.89626">
        <ele>1190</ele>
        <time>2021-08-03T09:51:12.327Z</time>
      </trkpt>
      <trkpt lat="47.0199" lon="8.89625">
        <ele>1190</ele>
        <time>2021-08-03T09:51:13.327Z</time>
      </trkpt>
      <trkpt lat="47.0199" lon="8.89624">
        <ele>1191</ele>
        <time>2021-08-03T09:51:14.326Z</time>
      </trkpt>
      <trkpt lat="47.01991" lon="8.89621">
        <ele>1191</ele>
        <time>2021-08-03T09:51:15.327Z</time>
      </trkpt>
      <trkpt lat="47.01991" lon="8.89619">
        <ele>1192</ele>
        <time>2021-08-03T09:51:16.327Z</time>
      </trkpt>
      <trkpt lat="47.01991" lon="8.89618">
        <ele>1192</ele>
        <time>2021-08-03T09:51:17.327Z</time>
      </trkpt>
      <trkpt lat="47.01991" lon="8.89617">
        <ele>1193</ele>
        <time>2021-08-03T09:51:18.326Z</time>
      </trkpt>
      <trkpt lat="47.0199" lon="8.89615">
        <ele>1193</ele>
        <time>2021-08-03T09:51:19.326Z</time>
      </trkpt>
      <trkpt lat="47.0199" lon="8.89614">
        <ele>1194</ele>
        <time>2021-08-03T09:51:20.327Z</time>
      </trkpt>
      <trkpt lat="47.0199" lon="8.89613">
        <ele>1195</ele>
        <time>2021-08-03T09:51:21.326Z</time>
      </trkpt>
      <trkpt lat="47.01989" lon="8.89612">
        <ele>1195</ele>
        <time>2021-08-03T09:51:22.326Z</time>
      </trkpt>
      <trkpt lat="47.01989" lon="8.89611">
        <ele>1196</ele>
        <time>2021-08-03T09:51:23.327Z</time>
      </trkpt>
      <trkpt lat="47.01988" lon="8.89609">
        <ele>1197</ele>
        <time>2021-08-03T09:51:24.327Z</time>
      </trkpt>
      <trkpt lat="47.01988" lon="8.89607">
        <ele>1197</ele>
        <time>2021-08-03T09:51:25.326Z</time>
      </trkpt>
      <trkpt lat="47.01987" lon="8.89607">
        <ele>1198</ele>
        <time>2021-08-03T09:51:26.326Z</time>
      </trkpt>
      <trkpt lat="47.01987" lon="8.89605">
        <ele>1199</ele>
        <time>2021-08-03T09:51:27.327Z</time>
      </trkpt>
      <trkpt lat="47.01987" lon="8.89603">
        <ele>1199</ele>
        <time>2021-08-03T09:51:28.327Z</time>
      </trkpt>
      <trkpt lat="47.01987" lon="8.89602">
        <ele>1200</ele>
        <time>2021-08-03T09:51:29.327Z</time>
      </trkpt>
      <trkpt lat="47.01986" lon="8.89601">
        <ele>1200</ele>
        <time>2021-08-03T09:51:30.327Z</time>
      </trkpt>
      <trkpt lat="47.01986" lon="8.896">
        <ele>1201</ele>
        <time>2021-08-03T09:51:31.326Z</time>
      </trkpt>
      <trkpt lat="47.01985" lon="8.89598">
        <ele>1201</ele>
        <time>2021-08-03T09:51:32.327Z</time>
      </trkpt>
      <trkpt lat="47.01984" lon="8.89598">
        <ele>1200</ele>
        <time>2021-08-03T09:51:33.327Z</time>
      </trkpt>
      <trkpt lat="47.01984" lon="8.89598">
        <ele>1200</ele>
        <time>2021-08-03T09:51:34.327Z</time>
      </trkpt>
      <trkpt lat="47.01985" lon="8.89597">
        <ele>1200</ele>
        <time>2021-08-03T09:51:35.326Z</time>
      </trkpt>
      <trkpt lat="47.01985" lon="8.89597">
        <ele>1199</ele>
        <time>2021-08-03T09:51:36.327Z</time>
      </trkpt>
      <trkpt lat="47.01985" lon="8.89596">
        <ele>1199</ele>
        <time>2021-08-03T09:51:37.327Z</time>
      </trkpt>
      <trkpt lat="47.01985" lon="8.89594">
        <ele>1199</ele>
        <time>2021-08-03T09:51:38.327Z</time>
      </trkpt>
      <trkpt lat="47.01985" lon="8.89593">
        <ele>1198</ele>
        <time>2021-08-03T09:51:39.327Z</time>
      </trkpt>
      <trkpt lat="47.01985" lon="8.89592">
        <ele>1198</ele>
        <time>2021-08-03T09:51:40.326Z</time>
      </trkpt>
      <trkpt lat="47.01985" lon="8.89592">
        <ele>1197</ele>
        <time>2021-08-03T09:51:41.326Z</time>
      </trkpt>
      <trkpt lat="47.01984" lon="8.89591">
        <ele>1197</ele>
        <time>2021-08-03T09:51:42.326Z</time>
      </trkpt>
      <trkpt lat="47.01984" lon="8.8959">
        <ele>1196</ele>
        <time>2021-08-03T09:51:43.326Z</time>
      </trkpt>
      <trkpt lat="47.01983" lon="8.89589">
        <ele>1195</ele>
        <time>2021-08-03T09:51:44.327Z</time>
      </trkpt>
      <trkpt lat="47.01983" lon="8.89588">
        <ele>1195</ele>
        <time>2021-08-03T09:51:45.327Z</time>
      </trkpt>
      <trkpt lat="47.01982" lon="8.89587">
        <ele>1195</ele>
        <time>2021-08-03T09:51:46.327Z</time>
      </trkpt>
      <trkpt lat="47.01982" lon="8.89586">
        <ele>1195</ele>
        <time>2021-08-03T09:51:47.327Z</time>
      </trkpt>
      <trkpt lat="47.01982" lon="8.89585">
        <ele>1195</ele>
        <time>2021-08-03T09:51:48.327Z</time>
      </trkpt>
      <trkpt lat="47.01981" lon="8.89583">
        <ele>1195</ele>
        <time>2021-08-03T09:51:49.326Z</time>
      </trkpt>
      <trkpt lat="47.01981" lon="8.89581">
        <ele>1195</ele>
        <time>2021-08-03T09:51:50.327Z</time>
      </trkpt>
      <trkpt lat="47.01981" lon="8.89581">
        <ele>1195</ele>
        <time>2021-08-03T09:51:51.327Z</time>
      </trkpt>
      <trkpt lat="47.0198" lon="8.8958">
        <ele>1195</ele>
        <time>2021-08-03T09:51:52.327Z</time>
      </trkpt>
      <trkpt lat="47.0198" lon="8.89579">
        <ele>1195</ele>
        <time>2021-08-03T09:51:53.327Z</time>
      </trkpt>
      <trkpt lat="47.0198" lon="8.89579">
        <ele>1195</ele>
        <time>2021-08-03T09:51:54.327Z</time>
      </trkpt>
      <trkpt lat="47.01979" lon="8.89579">
        <ele>1195</ele>
        <time>2021-08-03T09:51:55.327Z</time>
      </trkpt>
      <trkpt lat="47.01979" lon="8.89579">
        <ele>1196</ele>
        <time>2021-08-03T09:51:56.326Z</time>
      </trkpt>
      <trkpt lat="47.01979" lon="8.8958">
        <ele>1196</ele>
        <time>2021-08-03T09:51:57.327Z</time>
      </trkpt>
      <trkpt lat="47.01977" lon="8.89582">
        <ele>1197</ele>
        <time>2021-08-03T09:51:58.326Z</time>
      </trkpt>
      <trkpt lat="47.01976" lon="8.89584">
        <ele>1197</ele>
        <time>2021-08-03T09:51:59.326Z</time>
      </trkpt>
      <trkpt lat="47.01975" lon="8.89586">
        <ele>1197</ele>
        <time>2021-08-03T09:52:00.326Z</time>
      </trkpt>
      <trkpt lat="47.01974" lon="8.8959">
        <ele>1198</ele>
        <time>2021-08-03T09:52:01.328Z</time>
      </trkpt>
      <trkpt lat="47.01973" lon="8.89591">
        <ele>1200</ele>
        <time>2021-08-03T09:52:02.327Z</time>
      </trkpt>
      <trkpt lat="47.01975" lon="8.89591">
        <ele>1201</ele>
        <time>2021-08-03T09:52:03.328Z</time>
      </trkpt>
      <trkpt lat="47.01975" lon="8.89591">
        <ele>1202</ele>
        <time>2021-08-03T09:52:04.327Z</time>
      </trkpt>
      <trkpt lat="47.01975" lon="8.89592">
        <ele>1202</ele>
        <time>2021-08-03T09:52:05.328Z</time>
      </trkpt>
      <trkpt lat="47.01975" lon="8.89592">
        <ele>1202</ele>
        <time>2021-08-03T09:52:06.328Z</time>
      </trkpt>
      <trkpt lat="47.01975" lon="8.89591">
        <ele>1203</ele>
        <time>2021-08-03T09:52:07.327Z</time>
      </trkpt>
      <trkpt lat="47.01975" lon="8.8959">
        <ele>1203</ele>
        <time>2021-08-03T09:52:08.327Z</time>
      </trkpt>
      <trkpt lat="47.01975" lon="8.8959">
        <ele>1204</ele>
        <time>2021-08-03T09:52:09.328Z</time>
      </trkpt>
      <trkpt lat="47.01975" lon="8.89591">
        <ele>1204</ele>
        <time>2021-08-03T09:52:10.328Z</time>
      </trkpt>
      <trkpt lat="47.01975" lon="8.89592">
        <ele>1204</ele>
        <time>2021-08-03T09:52:11.327Z</time>
      </trkpt>
      <trkpt lat="47.01976" lon="8.89591">
        <ele>1205</ele>
        <time>2021-08-03T09:52:12.328Z</time>
      </trkpt>
      <trkpt lat="47.01976" lon="8.89591">
        <ele>1205</ele>
        <time>2021-08-03T09:52:13.328Z</time>
      </trkpt>
      <trkpt lat="47.01976" lon="8.8959">
        <ele>1206</ele>
        <time>2021-08-03T09:52:14.328Z</time>
      </trkpt>
      <trkpt lat="47.01976" lon="8.89588">
        <ele>1206</ele>
        <time>2021-08-03T09:52:15.328Z</time>
      </trkpt>
      <trkpt lat="47.01976" lon="8.89586">
        <ele>1206</ele>
        <time>2021-08-03T09:52:16.327Z</time>
      </trkpt>
      <trkpt lat="47.01976" lon="8.89585">
        <ele>1207</ele>
        <time>2021-08-03T09:52:17.327Z</time>
      </trkpt>
      <trkpt lat="47.01976" lon="8.89585">
        <ele>1207</ele>
        <time>2021-08-03T09:52:18.328Z</time>
      </trkpt>
      <trkpt lat="47.01976" lon="8.89584">
        <ele>1208</ele>
        <time>2021-08-03T09:52:19.328Z</time>
      </trkpt>
      <trkpt lat="47.01976" lon="8.89582">
        <ele>1208</ele>
        <time>2021-08-03T09:52:20.328Z</time>
      </trkpt>
      <trkpt lat="47.01975" lon="8.89581">
        <ele>1208</ele>
        <time>2021-08-03T09:52:21.327Z</time>
      </trkpt>
      <trkpt lat="47.01974" lon="8.8958">
        <ele>1208</ele>
        <time>2021-08-03T09:52:22.327Z</time>
      </trkpt>
      <trkpt lat="47.01973" lon="8.8958">
        <ele>1208</ele>
        <time>2021-08-03T09:52:23.328Z</time>
      </trkpt>
      <trkpt lat="47.01973" lon="8.89578">
        <ele>1208</ele>
        <time>2021-08-03T09:52:24.327Z</time>
      </trkpt>
      <trkpt lat="47.01972" lon="8.89577">
        <ele>1208</ele>
        <time>2021-08-03T09:52:25.328Z</time>
      </trkpt>
      <trkpt lat="47.01972" lon="8.89576">
        <ele>1209</ele>
        <time>2021-08-03T09:52:26.328Z</time>
      </trkpt>
      <trkpt lat="47.01973" lon="8.89577">
        <ele>1209</ele>
        <time>2021-08-03T09:52:27.328Z</time>
      </trkpt>
      <trkpt lat="47.01973" lon="8.89577">
        <ele>1210</ele>
        <time>2021-08-03T09:52:28.328Z</time>
      </trkpt>
      <trkpt lat="47.01973" lon="8.89578">
        <ele>1210</ele>
        <time>2021-08-03T09:52:29.328Z</time>
      </trkpt>
      <trkpt lat="47.01973" lon="8.89578">
        <ele>1211</ele>
        <time>2021-08-03T09:52:30.328Z</time>
      </trkpt>
      <trkpt lat="47.01974" lon="8.89579">
        <ele>1212</ele>
        <time>2021-08-03T09:52:31.328Z</time>
      </trkpt>
      <trkpt lat="47.01973" lon="8.8958">
        <ele>1213</ele>
        <time>2021-08-03T09:52:32.328Z</time>
      </trkpt>
      <trkpt lat="47.01973" lon="8.8958">
        <ele>1214</ele>
        <time>2021-08-03T09:52:33.327Z</time>
      </trkpt>
      <trkpt lat="47.01973" lon="8.89581">
        <ele>1214</ele>
        <time>2021-08-03T09:52:34.328Z</time>
      </trkpt>
      <trkpt lat="47.01972" lon="8.89581">
        <ele>1215</ele>
        <time>2021-08-03T09:52:35.327Z</time>
      </trkpt>
      <trkpt lat="47.01972" lon="8.89581">
        <ele>1216</ele>
        <time>2021-08-03T09:52:36.327Z</time>
      </trkpt>
      <trkpt lat="47.01972" lon="8.89581">
        <ele>1216</ele>
        <time>2021-08-03T09:52:37.328Z</time>
      </trkpt>
      <trkpt lat="47.01971" lon="8.89581">
        <ele>1217</ele>
        <time>2021-08-03T09:52:38.327Z</time>
      </trkpt>
      <trkpt lat="47.01971" lon="8.89581">
        <ele>1218</ele>
        <time>2021-08-03T09:52:39.328Z</time>
      </trkpt>
      <trkpt lat="47.0197" lon="8.89582">
        <ele>1219</ele>
        <time>2021-08-03T09:52:40.328Z</time>
      </trkpt>
      <trkpt lat="47.0197" lon="8.89583">
        <ele>1219</ele>
        <time>2021-08-03T09:52:41.328Z</time>
      </trkpt>
      <trkpt lat="47.0197" lon="8.89584">
        <ele>1220</ele>
        <time>2021-08-03T09:52:42.328Z</time>
      </trkpt>
      <trkpt lat="47.01971" lon="8.89584">
        <ele>1220</ele>
        <time>2021-08-03T09:52:43.328Z</time>
      </trkpt>
      <trkpt lat="47.01971" lon="8.89584">
        <ele>1220</ele>
        <time>2021-08-03T09:52:44.328Z</time>
      </trkpt>
      <trkpt lat="47.01971" lon="8.89584">
        <ele>1220</ele>
        <time>2021-08-03T09:52:45.328Z</time>
      </trkpt>
      <trkpt lat="47.01971" lon="8.89584">
        <ele>1220</ele>
        <time>2021-08-03T09:52:46.328Z</time>
      </trkpt>
      <trkpt lat="47.01972" lon="8.89583">
        <ele>1220</ele>
        <time>2021-08-03T09:52:47.327Z</time>
      </trkpt>
      <trkpt lat="47.01972" lon="8.89582">
        <ele>1220</ele>
        <time>2021-08-03T09:52:48.328Z</time>
      </trkpt>
      <trkpt lat="47.01972" lon="8.89582">
        <ele>1220</ele>
        <time>2021-08-03T09:52:49.327Z</time>
      </trkpt>
      <trkpt lat="47.01971" lon="8.89582">
        <ele>1220</ele>
        <time>2021-08-03T09:52:50.327Z</time>
      </trkpt>
      <trkpt lat="47.01971" lon="8.89582">
        <ele>1220</ele>
        <time>2021-08-03T09:52:51.327Z</time>
      </trkpt>
      <trkpt lat="47.01971" lon="8.89581">
        <ele>1220</ele>
        <time>2021-08-03T09:52:52.328Z</time>
      </trkpt>
      <trkpt lat="47.0197" lon="8.8958">
        <ele>1220</ele>
        <time>2021-08-03T09:52:53.327Z</time>
      </trkpt>
      <trkpt lat="47.0197" lon="8.8958">
        <ele>1220</ele>
        <time>2021-08-03T09:52:54.328Z</time>
      </trkpt>
      <trkpt lat="47.0197" lon="8.8958">
        <ele>1219</ele>
        <time>2021-08-03T09:52:55.327Z</time>
      </trkpt>
      <trkpt lat="47.01969" lon="8.89581">
        <ele>1219</ele>
        <time>2021-08-03T09:52:56.328Z</time>
      </trkpt>
      <trkpt lat="47.01968" lon="8.89581">
        <ele>1219</ele>
        <time>2021-08-03T09:52:57.327Z</time>
      </trkpt>
      <trkpt lat="47.01968" lon="8.89581">
        <ele>1219</ele>
        <time>2021-08-03T09:52:58.327Z</time>
      </trkpt>
      <trkpt lat="47.01967" lon="8.8958">
        <ele>1220</ele>
        <time>2021-08-03T09:52:59.328Z</time>
      </trkpt>
      <trkpt lat="47.01967" lon="8.8958">
        <ele>1220</ele>
        <time>2021-08-03T09:53:00.327Z</time>
      </trkpt>
      <trkpt lat="47.01967" lon="8.89579">
        <ele>1219</ele>
        <time>2021-08-03T09:53:01.327Z</time>
      </trkpt>
      <trkpt lat="47.01967" lon="8.89579">
        <ele>1219</ele>
        <time>2021-08-03T09:53:02.327Z</time>
      </trkpt>
      <trkpt lat="47.01967" lon="8.89578">
        <ele>1219</ele>
        <time>2021-08-03T09:53:03.328Z</time>
      </trkpt>
      <trkpt lat="47.01967" lon="8.89578">
        <ele>1218</ele>
        <time>2021-08-03T09:53:04.328Z</time>
      </trkpt>
      <trkpt lat="47.01967" lon="8.89577">
        <ele>1216</ele>
        <time>2021-08-03T09:53:05.328Z</time>
      </trkpt>
      <trkpt lat="47.01967" lon="8.89577">
        <ele>1216</ele>
        <time>2021-08-03T09:53:06.328Z</time>
      </trkpt>
      <trkpt lat="47.01968" lon="8.89578">
        <ele>1215</ele>
        <time>2021-08-03T09:53:07.328Z</time>
      </trkpt>
      <trkpt lat="47.01969" lon="8.89579">
        <ele>1215</ele>
        <time>2021-08-03T09:53:08.328Z</time>
      </trkpt>
      <trkpt lat="47.0197" lon="8.89578">
        <ele>1214</ele>
        <time>2021-08-03T09:53:09.328Z</time>
      </trkpt>
      <trkpt lat="47.0197" lon="8.89579">
        <ele>1214</ele>
        <time>2021-08-03T09:53:10.328Z</time>
      </trkpt>
      <trkpt lat="47.0197" lon="8.8958">
        <ele>1214</ele>
        <time>2021-08-03T09:53:11.327Z</time>
      </trkpt>
      <trkpt lat="47.0197" lon="8.89581">
        <ele>1213</ele>
        <time>2021-08-03T09:53:12.327Z</time>
      </trkpt>
      <trkpt lat="47.0197" lon="8.89582">
        <ele>1213</ele>
        <time>2021-08-03T09:53:13.328Z</time>
      </trkpt>
      <trkpt lat="47.0197" lon="8.89583">
        <ele>1212</ele>
        <time>2021-08-03T09:53:14.328Z</time>
      </trkpt>
      <trkpt lat="47.01971" lon="8.89583">
        <ele>1212</ele>
        <time>2021-08-03T09:53:15.327Z</time>
      </trkpt>
      <trkpt lat="47.01971" lon="8.89583">
        <ele>1211</ele>
        <time>2021-08-03T09:53:16.328Z</time>
      </trkpt>
      <trkpt lat="47.01971" lon="8.89582">
        <ele>1210</ele>
        <time>2021-08-03T09:53:17.328Z</time>
      </trkpt>
      <trkpt lat="47.0197" lon="8.89583">
        <ele>1209</ele>
        <time>2021-08-03T09:53:18.327Z</time>
      </trkpt>
      <trkpt lat="47.0197" lon="8.89583">
        <ele>1208</ele>
        <time>2021-08-03T09:53:19.327Z</time>
      </trkpt>
      <trkpt lat="47.0197" lon="8.89582">
        <ele>1208</ele>
        <time>2021-08-03T09:53:20.328Z</time>
      </trkpt>
      <trkpt lat="47.01971" lon="8.89582">
        <ele>1207</ele>
        <time>2021-08-03T09:53:21.327Z</time>
      </trkpt>
      <trkpt lat="47.01972" lon="8.89582">
        <ele>1206</ele>
        <time>2021-08-03T09:53:22.327Z</time>
      </trkpt>
      <trkpt lat="47.01975" lon="8.89579">
        <ele>1204</ele>
        <time>2021-08-03T09:53:23.329Z</time>
      </trkpt>
      <trkpt lat="47.01976" lon="8.89579">
        <ele>1205</ele>
        <time>2021-08-03T09:53:24.328Z</time>
      </trkpt>
      <trkpt lat="47.01977" lon="8.89579">
        <ele>1205</ele>
        <time>2021-08-03T09:53:25.329Z</time>
      </trkpt>
      <trkpt lat="47.01976" lon="8.89579">
        <ele>1206</ele>
        <time>2021-08-03T09:53:26.329Z</time>
      </trkpt>
      <trkpt lat="47.01976" lon="8.89578">
        <ele>1206</ele>
        <time>2021-08-03T09:53:27.329Z</time>
      </trkpt>
      <trkpt lat="47.01975" lon="8.89578">
        <ele>1206</ele>
        <time>2021-08-03T09:53:28.328Z</time>
      </trkpt>
      <trkpt lat="47.01974" lon="8.89578">
        <ele>1207</ele>
        <time>2021-08-03T09:53:29.329Z</time>
      </trkpt>
      <trkpt lat="47.01974" lon="8.89579">
        <ele>1206</ele>
        <time>2021-08-03T09:53:30.330Z</time>
      </trkpt>
      <trkpt lat="47.01975" lon="8.89576">
        <ele>1203</ele>
        <time>2021-08-03T09:53:31.330Z</time>
      </trkpt>
      <trkpt lat="47.01976" lon="8.89575">
        <ele>1202</ele>
        <time>2021-08-03T09:53:32.330Z</time>
      </trkpt>
      <trkpt lat="47.01976" lon="8.89574">
        <ele>1202</ele>
        <time>2021-08-03T09:53:33.330Z</time>
      </trkpt>
      <trkpt lat="47.01977" lon="8.89573">
        <ele>1202</ele>
        <time>2021-08-03T09:53:34.329Z</time>
      </trkpt>
      <trkpt lat="47.01977" lon="8.89572">
        <ele>1202</ele>
        <time>2021-08-03T09:53:35.330Z</time>
      </trkpt>
      <trkpt lat="47.01977" lon="8.89571">
        <ele>1202</ele>
        <time>2021-08-03T09:53:36.329Z</time>
      </trkpt>
      <trkpt lat="47.01976" lon="8.8957">
        <ele>1202</ele>
        <time>2021-08-03T09:53:37.330Z</time>
      </trkpt>
      <trkpt lat="47.01976" lon="8.89569">
        <ele>1202</ele>
        <time>2021-08-03T09:53:38.330Z</time>
      </trkpt>
      <trkpt lat="47.01977" lon="8.89568">
        <ele>1202</ele>
        <time>2021-08-03T09:53:39.329Z</time>
      </trkpt>
      <trkpt lat="47.01976" lon="8.89568">
        <ele>1202</ele>
        <time>2021-08-03T09:53:40.329Z</time>
      </trkpt>
      <trkpt lat="47.01976" lon="8.89568">
        <ele>1203</ele>
        <time>2021-08-03T09:53:41.330Z</time>
      </trkpt>
      <trkpt lat="47.01977" lon="8.89566">
        <ele>1203</ele>
        <time>2021-08-03T09:53:42.331Z</time>
      </trkpt>
      <trkpt lat="47.01977" lon="8.89565">
        <ele>1204</ele>
        <time>2021-08-03T09:53:43.331Z</time>
      </trkpt>
      <trkpt lat="47.01977" lon="8.89564">
        <ele>1204</ele>
        <time>2021-08-03T09:53:44.330Z</time>
      </trkpt>
      <trkpt lat="47.01976" lon="8.89562">
        <ele>1204</ele>
        <time>2021-08-03T09:53:45.330Z</time>
      </trkpt>
      <trkpt lat="47.01976" lon="8.89561">
        <ele>1204</ele>
        <time>2021-08-03T09:53:46.331Z</time>
      </trkpt>
      <trkpt lat="47.01977" lon="8.89559">
        <ele>1204</ele>
        <time>2021-08-03T09:53:47.330Z</time>
      </trkpt>
      <trkpt lat="47.01977" lon="8.89558">
        <ele>1205</ele>
        <time>2021-08-03T09:53:48.331Z</time>
      </trkpt>
      <trkpt lat="47.01976" lon="8.89556">
        <ele>1205</ele>
        <time>2021-08-03T09:53:49.330Z</time>
      </trkpt>
      <trkpt lat="47.01976" lon="8.89555">
        <ele>1205</ele>
        <time>2021-08-03T09:53:50.331Z</time>
      </trkpt>
      <trkpt lat="47.01975" lon="8.89553">
        <ele>1206</ele>
        <time>2021-08-03T09:53:51.331Z</time>
      </trkpt>
      <trkpt lat="47.01975" lon="8.89552">
        <ele>1206</ele>
        <time>2021-08-03T09:53:52.331Z</time>
      </trkpt>
      <trkpt lat="47.01974" lon="8.8955">
        <ele>1207</ele>
        <time>2021-08-03T09:53:53.330Z</time>
      </trkpt>
      <trkpt lat="47.01975" lon="8.89549">
        <ele>1207</ele>
        <time>2021-08-03T09:53:54.330Z</time>
      </trkpt>
      <trkpt lat="47.01974" lon="8.89548">
        <ele>1207</ele>
        <time>2021-08-03T09:53:55.331Z</time>
      </trkpt>
      <trkpt lat="47.01974" lon="8.89547">
        <ele>1207</ele>
        <time>2021-08-03T09:53:56.331Z</time>
      </trkpt>
      <trkpt lat="47.01974" lon="8.89547">
        <ele>1207</ele>
        <time>2021-08-03T09:53:57.330Z</time>
      </trkpt>
      <trkpt lat="47.01969" lon="8.8954">
        <ele>1206</ele>
        <time>2021-08-03T09:53:58.331Z</time>
      </trkpt>
      <trkpt lat="47.0197" lon="8.8954">
        <ele>1205</ele>
        <time>2021-08-03T09:53:59.330Z</time>
      </trkpt>
      <trkpt lat="47.01969" lon="8.8954">
        <ele>1205</ele>
        <time>2021-08-03T09:54:00.330Z</time>
      </trkpt>
      <trkpt lat="47.01968" lon="8.89539">
        <ele>1205</ele>
        <time>2021-08-03T09:54:01.333Z</time>
      </trkpt>
      <trkpt lat="47.01967" lon="8.89538">
        <ele>1206</ele>
        <time>2021-08-03T09:54:02.333Z</time>
      </trkpt>
      <trkpt lat="47.01967" lon="8.89538">
        <ele>1206</ele>
        <time>2021-08-03T09:54:03.333Z</time>
      </trkpt>
      <trkpt lat="47.01967" lon="8.89538">
        <ele>1206</ele>
        <time>2021-08-03T09:54:04.333Z</time>
      </trkpt>
      <trkpt lat="47.01966" lon="8.89539">
        <ele>1207</ele>
        <time>2021-08-03T09:54:05.334Z</time>
      </trkpt>
      <trkpt lat="47.01966" lon="8.89538">
        <ele>1207</ele>
        <time>2021-08-03T09:54:06.335Z</time>
      </trkpt>
      <trkpt lat="47.01966" lon="8.89538">
        <ele>1206</ele>
        <time>2021-08-03T09:54:07.335Z</time>
      </trkpt>
      <trkpt lat="47.01967" lon="8.89537">
        <ele>1206</ele>
        <time>2021-08-03T09:54:08.336Z</time>
      </trkpt>
      <trkpt lat="47.01967" lon="8.89536">
        <ele>1206</ele>
        <time>2021-08-03T09:54:09.336Z</time>
      </trkpt>
      <trkpt lat="47.01966" lon="8.89536">
        <ele>1206</ele>
        <time>2021-08-03T09:54:10.335Z</time>
      </trkpt>
      <trkpt lat="47.01966" lon="8.89535">
        <ele>1207</ele>
        <time>2021-08-03T09:54:11.336Z</time>
      </trkpt>
      <trkpt lat="47.01967" lon="8.89534">
        <ele>1207</ele>
        <time>2021-08-03T09:54:12.336Z</time>
      </trkpt>
      <trkpt lat="47.01967" lon="8.89532">
        <ele>1208</ele>
        <time>2021-08-03T09:54:13.336Z</time>
      </trkpt>
      <trkpt lat="47.01967" lon="8.89531">
        <ele>1208</ele>
        <time>2021-08-03T09:54:14.335Z</time>
      </trkpt>
      <trkpt lat="47.01967" lon="8.8953">
        <ele>1208</ele>
        <time>2021-08-03T09:54:15.335Z</time>
      </trkpt>
      <trkpt lat="47.01966" lon="8.89529">
        <ele>1209</ele>
        <time>2021-08-03T09:54:16.336Z</time>
      </trkpt>
      <trkpt lat="47.01966" lon="8.89528">
        <ele>1209</ele>
        <time>2021-08-03T09:54:17.335Z</time>
      </trkpt>
      <trkpt lat="47.01965" lon="8.89527">
        <ele>1210</ele>
        <time>2021-08-03T09:54:18.335Z</time>
      </trkpt>
      <trkpt lat="47.01965" lon="8.89527">
        <ele>1210</ele>
        <time>2021-08-03T09:54:19.335Z</time>
      </trkpt>
      <trkpt lat="47.01965" lon="8.89525">
        <ele>1211</ele>
        <time>2021-08-03T09:54:20.335Z</time>
      </trkpt>
      <trkpt lat="47.01964" lon="8.89524">
        <ele>1211</ele>
        <time>2021-08-03T09:54:21.335Z</time>
      </trkpt>
      <trkpt lat="47.01964" lon="8.89523">
        <ele>1211</ele>
        <time>2021-08-03T09:54:22.335Z</time>
      </trkpt>
      <trkpt lat="47.01964" lon="8.89522">
        <ele>1211</ele>
        <time>2021-08-03T09:54:23.335Z</time>
      </trkpt>
      <trkpt lat="47.01964" lon="8.89521">
        <ele>1211</ele>
        <time>2021-08-03T09:54:24.335Z</time>
      </trkpt>
      <trkpt lat="47.01964" lon="8.8952">
        <ele>1210</ele>
        <time>2021-08-03T09:54:25.336Z</time>
      </trkpt>
      <trkpt lat="47.01964" lon="8.89519">
        <ele>1210</ele>
        <time>2021-08-03T09:54:26.335Z</time>
      </trkpt>
      <trkpt lat="47.01964" lon="8.89517">
        <ele>1210</ele>
        <time>2021-08-03T09:54:27.336Z</time>
      </trkpt>
      <trkpt lat="47.01964" lon="8.89516">
        <ele>1210</ele>
        <time>2021-08-03T09:54:28.335Z</time>
      </trkpt>
      <trkpt lat="47.01963" lon="8.89515">
        <ele>1209</ele>
        <time>2021-08-03T09:54:29.335Z</time>
      </trkpt>
      <trkpt lat="47.01963" lon="8.89513">
        <ele>1209</ele>
        <time>2021-08-03T09:54:30.336Z</time>
      </trkpt>
      <trkpt lat="47.01962" lon="8.89512">
        <ele>1209</ele>
        <time>2021-08-03T09:54:31.335Z</time>
      </trkpt>
      <trkpt lat="47.01963" lon="8.89512">
        <ele>1208</ele>
        <time>2021-08-03T09:54:32.336Z</time>
      </trkpt>
      <trkpt lat="47.01963" lon="8.89511">
        <ele>1208</ele>
        <time>2021-08-03T09:54:33.335Z</time>
      </trkpt>
      <trkpt lat="47.01963" lon="8.8951">
        <ele>1208</ele>
        <time>2021-08-03T09:54:34.335Z</time>
      </trkpt>
      <trkpt lat="47.01963" lon="8.89509">
        <ele>1207</ele>
        <time>2021-08-03T09:54:35.335Z</time>
      </trkpt>
      <trkpt lat="47.01963" lon="8.89507">
        <ele>1207</ele>
        <time>2021-08-03T09:54:36.335Z</time>
      </trkpt>
      <trkpt lat="47.01963" lon="8.89506">
        <ele>1207</ele>
        <time>2021-08-03T09:54:37.336Z</time>
      </trkpt>
      <trkpt lat="47.01963" lon="8.89504">
        <ele>1206</ele>
        <time>2021-08-03T09:54:38.336Z</time>
      </trkpt>
      <trkpt lat="47.01963" lon="8.89503">
        <ele>1206</ele>
        <time>2021-08-03T09:54:39.336Z</time>
      </trkpt>
      <trkpt lat="47.01963" lon="8.89502">
        <ele>1205</ele>
        <time>2021-08-03T09:54:40.336Z</time>
      </trkpt>
      <trkpt lat="47.01963" lon="8.895">
        <ele>1205</ele>
        <time>2021-08-03T09:54:41.335Z</time>
      </trkpt>
      <trkpt lat="47.01963" lon="8.89498">
        <ele>1205</ele>
        <time>2021-08-03T09:54:42.335Z</time>
      </trkpt>
      <trkpt lat="47.01963" lon="8.89496">
        <ele>1205</ele>
        <time>2021-08-03T09:54:43.336Z</time>
      </trkpt>
      <trkpt lat="47.01963" lon="8.89495">
        <ele>1205</ele>
        <time>2021-08-03T09:54:44.336Z</time>
      </trkpt>
      <trkpt lat="47.01962" lon="8.89493">
        <ele>1205</ele>
        <time>2021-08-03T09:54:45.335Z</time>
      </trkpt>
      <trkpt lat="47.01961" lon="8.89491">
        <ele>1205</ele>
        <time>2021-08-03T09:54:46.336Z</time>
      </trkpt>
      <trkpt lat="47.01961" lon="8.8949">
        <ele>1205</ele>
        <time>2021-08-03T09:54:47.336Z</time>
      </trkpt>
      <trkpt lat="47.01961" lon="8.8949">
        <ele>1204</ele>
        <time>2021-08-03T09:54:48.336Z</time>
      </trkpt>
      <trkpt lat="47.0196" lon="8.89489">
        <ele>1204</ele>
        <time>2021-08-03T09:54:49.335Z</time>
      </trkpt>
      <trkpt lat="47.0196" lon="8.89488">
        <ele>1203</ele>
        <time>2021-08-03T09:54:50.335Z</time>
      </trkpt>
      <trkpt lat="47.0196" lon="8.89486">
        <ele>1203</ele>
        <time>2021-08-03T09:54:51.336Z</time>
      </trkpt>
      <trkpt lat="47.0196" lon="8.89485">
        <ele>1202</ele>
        <time>2021-08-03T09:54:52.335Z</time>
      </trkpt>
      <trkpt lat="47.0196" lon="8.89484">
        <ele>1202</ele>
        <time>2021-08-03T09:54:53.336Z</time>
      </trkpt>
      <trkpt lat="47.01959" lon="8.89482">
        <ele>1202</ele>
        <time>2021-08-03T09:54:54.335Z</time>
      </trkpt>
      <trkpt lat="47.01959" lon="8.89482">
        <ele>1201</ele>
        <time>2021-08-03T09:54:55.336Z</time>
      </trkpt>
      <trkpt lat="47.01959" lon="8.8948">
        <ele>1201</ele>
        <time>2021-08-03T09:54:56.336Z</time>
      </trkpt>
      <trkpt lat="47.01959" lon="8.89478">
        <ele>1201</ele>
        <time>2021-08-03T09:54:57.336Z</time>
      </trkpt>
      <trkpt lat="47.01959" lon="8.89477">
        <ele>1201</ele>
        <time>2021-08-03T09:54:58.336Z</time>
      </trkpt>
      <trkpt lat="47.01959" lon="8.89476">
        <ele>1201</ele>
        <time>2021-08-03T09:54:59.336Z</time>
      </trkpt>
      <trkpt lat="47.01958" lon="8.89475">
        <ele>1201</ele>
        <time>2021-08-03T09:55:00.336Z</time>
      </trkpt>
      <trkpt lat="47.01959" lon="8.89473">
        <ele>1201</ele>
        <time>2021-08-03T09:55:01.336Z</time>
      </trkpt>
      <trkpt lat="47.01959" lon="8.89472">
        <ele>1201</ele>
        <time>2021-08-03T09:55:02.335Z</time>
      </trkpt>
      <trkpt lat="47.01959" lon="8.8947">
        <ele>1201</ele>
        <time>2021-08-03T09:55:03.335Z</time>
      </trkpt>
      <trkpt lat="47.01959" lon="8.89468">
        <ele>1201</ele>
        <time>2021-08-03T09:55:04.335Z</time>
      </trkpt>
      <trkpt lat="47.01959" lon="8.89467">
        <ele>1201</ele>
        <time>2021-08-03T09:55:05.335Z</time>
      </trkpt>
      <trkpt lat="47.01959" lon="8.89465">
        <ele>1201</ele>
        <time>2021-08-03T09:55:06.336Z</time>
      </trkpt>
      <trkpt lat="47.01959" lon="8.89463">
        <ele>1201</ele>
        <time>2021-08-03T09:55:07.336Z</time>
      </trkpt>
      <trkpt lat="47.0196" lon="8.89461">
        <ele>1201</ele>
        <time>2021-08-03T09:55:08.335Z</time>
      </trkpt>
      <trkpt lat="47.0196" lon="8.8946">
        <ele>1201</ele>
        <time>2021-08-03T09:55:09.335Z</time>
      </trkpt>
      <trkpt lat="47.0196" lon="8.89458">
        <ele>1201</ele>
        <time>2021-08-03T09:55:10.336Z</time>
      </trkpt>
      <trkpt lat="47.01959" lon="8.89457">
        <ele>1201</ele>
        <time>2021-08-03T09:55:11.336Z</time>
      </trkpt>
      <trkpt lat="47.01958" lon="8.89457">
        <ele>1201</ele>
        <time>2021-08-03T09:55:12.336Z</time>
      </trkpt>
      <trkpt lat="47.01958" lon="8.89456">
        <ele>1201</ele>
        <time>2021-08-03T09:55:13.335Z</time>
      </trkpt>
      <trkpt lat="47.01959" lon="8.89457">
        <ele>1201</ele>
        <time>2021-08-03T09:55:14.336Z</time>
      </trkpt>
      <trkpt lat="47.01959" lon="8.89456">
        <ele>1202</ele>
        <time>2021-08-03T09:55:15.336Z</time>
      </trkpt>
      <trkpt lat="47.01961" lon="8.89454">
        <ele>1202</ele>
        <time>2021-08-03T09:55:16.337Z</time>
      </trkpt>
      <trkpt lat="47.01961" lon="8.89454">
        <ele>1201</ele>
        <time>2021-08-03T09:55:17.336Z</time>
      </trkpt>
      <trkpt lat="47.0196" lon="8.89455">
        <ele>1201</ele>
        <time>2021-08-03T09:55:18.337Z</time>
      </trkpt>
      <trkpt lat="47.0196" lon="8.89456">
        <ele>1201</ele>
        <time>2021-08-03T09:55:19.336Z</time>
      </trkpt>
      <trkpt lat="47.01961" lon="8.89455">
        <ele>1203</ele>
        <time>2021-08-03T09:55:20.339Z</time>
      </trkpt>
      <trkpt lat="47.01961" lon="8.89455">
        <ele>1203</ele>
        <time>2021-08-03T09:55:21.338Z</time>
      </trkpt>
      <trkpt lat="47.01961" lon="8.89454">
        <ele>1203</ele>
        <time>2021-08-03T09:55:22.338Z</time>
      </trkpt>
      <trkpt lat="47.01961" lon="8.89453">
        <ele>1204</ele>
        <time>2021-08-03T09:55:23.339Z</time>
      </trkpt>
      <trkpt lat="47.01961" lon="8.89452">
        <ele>1204</ele>
        <time>2021-08-03T09:55:24.338Z</time>
      </trkpt>
      <trkpt lat="47.01961" lon="8.8945">
        <ele>1203</ele>
        <time>2021-08-03T09:55:25.338Z</time>
      </trkpt>
      <trkpt lat="47.01961" lon="8.89449">
        <ele>1203</ele>
        <time>2021-08-03T09:55:26.339Z</time>
      </trkpt>
      <trkpt lat="47.01962" lon="8.89448">
        <ele>1203</ele>
        <time>2021-08-03T09:55:27.339Z</time>
      </trkpt>
      <trkpt lat="47.01961" lon="8.89448">
        <ele>1203</ele>
        <time>2021-08-03T09:55:28.338Z</time>
      </trkpt>
      <trkpt lat="47.0196" lon="8.89447">
        <ele>1203</ele>
        <time>2021-08-03T09:55:29.338Z</time>
      </trkpt>
      <trkpt lat="47.0196" lon="8.89446">
        <ele>1204</ele>
        <time>2021-08-03T09:55:30.338Z</time>
      </trkpt>
      <trkpt lat="47.01961" lon="8.89444">
        <ele>1204</ele>
        <time>2021-08-03T09:55:31.338Z</time>
      </trkpt>
      <trkpt lat="47.01961" lon="8.89443">
        <ele>1204</ele>
        <time>2021-08-03T09:55:32.339Z</time>
      </trkpt>
      <trkpt lat="47.0196" lon="8.89442">
        <ele>1204</ele>
        <time>2021-08-03T09:55:33.339Z</time>
      </trkpt>
      <trkpt lat="47.0196" lon="8.89441">
        <ele>1204</ele>
        <time>2021-08-03T09:55:34.338Z</time>
      </trkpt>
      <trkpt lat="47.01959" lon="8.8944">
        <ele>1205</ele>
        <time>2021-08-03T09:55:35.339Z</time>
      </trkpt>
      <trkpt lat="47.01959" lon="8.89439">
        <ele>1205</ele>
        <time>2021-08-03T09:55:36.339Z</time>
      </trkpt>
      <trkpt lat="47.01959" lon="8.89437">
        <ele>1205</ele>
        <time>2021-08-03T09:55:37.338Z</time>
      </trkpt>
      <trkpt lat="47.01959" lon="8.89436">
        <ele>1205</ele>
        <time>2021-08-03T09:55:38.338Z</time>
      </trkpt>
      <trkpt lat="47.01959" lon="8.89435">
        <ele>1204</ele>
        <time>2021-08-03T09:55:39.339Z</time>
      </trkpt>
      <trkpt lat="47.01959" lon="8.89434">
        <ele>1204</ele>
        <time>2021-08-03T09:55:40.339Z</time>
      </trkpt>
      <trkpt lat="47.01958" lon="8.89433">
        <ele>1204</ele>
        <time>2021-08-03T09:55:41.338Z</time>
      </trkpt>
      <trkpt lat="47.01958" lon="8.89432">
        <ele>1204</ele>
        <time>2021-08-03T09:55:42.339Z</time>
      </trkpt>
      <trkpt lat="47.01958" lon="8.8943">
        <ele>1205</ele>
        <time>2021-08-03T09:55:43.338Z</time>
      </trkpt>
      <trkpt lat="47.01958" lon="8.89428">
        <ele>1205</ele>
        <time>2021-08-03T09:55:44.339Z</time>
      </trkpt>
      <trkpt lat="47.0196" lon="8.89428">
        <ele>1205</ele>
        <time>2021-08-03T09:55:45.339Z</time>
      </trkpt>
      <trkpt lat="47.0196" lon="8.89427">
        <ele>1205</ele>
        <time>2021-08-03T09:55:46.339Z</time>
      </trkpt>
      <trkpt lat="47.0196" lon="8.89425">
        <ele>1205</ele>
        <time>2021-08-03T09:55:47.339Z</time>
      </trkpt>
      <trkpt lat="47.01959" lon="8.89424">
        <ele>1205</ele>
        <time>2021-08-03T09:55:48.339Z</time>
      </trkpt>
      <trkpt lat="47.01959" lon="8.89423">
        <ele>1206</ele>
        <time>2021-08-03T09:55:49.338Z</time>
      </trkpt>
      <trkpt lat="47.01958" lon="8.89422">
        <ele>1206</ele>
        <time>2021-08-03T09:55:50.339Z</time>
      </trkpt>
      <trkpt lat="47.01958" lon="8.89421">
        <ele>1206</ele>
        <time>2021-08-03T09:55:51.339Z</time>
      </trkpt>
      <trkpt lat="47.01959" lon="8.8942">
        <ele>1206</ele>
        <time>2021-08-03T09:55:52.339Z</time>
      </trkpt>
      <trkpt lat="47.01959" lon="8.89419">
        <ele>1207</ele>
        <time>2021-08-03T09:55:53.339Z</time>
      </trkpt>
      <trkpt lat="47.01959" lon="8.89418">
        <ele>1207</ele>
        <time>2021-08-03T09:55:54.338Z</time>
      </trkpt>
      <trkpt lat="47.0196" lon="8.89417">
        <ele>1207</ele>
        <time>2021-08-03T09:55:55.339Z</time>
      </trkpt>
      <trkpt lat="47.0196" lon="8.89415">
        <ele>1207</ele>
        <time>2021-08-03T09:55:56.338Z</time>
      </trkpt>
      <trkpt lat="47.0196" lon="8.89414">
        <ele>1207</ele>
        <time>2021-08-03T09:55:57.339Z</time>
      </trkpt>
      <trkpt lat="47.0196" lon="8.89413">
        <ele>1206</ele>
        <time>2021-08-03T09:55:58.338Z</time>
      </trkpt>
      <trkpt lat="47.0196" lon="8.89411">
        <ele>1206</ele>
        <time>2021-08-03T09:55:59.339Z</time>
      </trkpt>
      <trkpt lat="47.0196" lon="8.8941">
        <ele>1207</ele>
        <time>2021-08-03T09:56:00.339Z</time>
      </trkpt>
      <trkpt lat="47.01959" lon="8.89408">
        <ele>1207</ele>
        <time>2021-08-03T09:56:01.338Z</time>
      </trkpt>
      <trkpt lat="47.01959" lon="8.89407">
        <ele>1207</ele>
        <time>2021-08-03T09:56:02.339Z</time>
      </trkpt>
      <trkpt lat="47.0196" lon="8.89405">
        <ele>1207</ele>
        <time>2021-08-03T09:56:03.338Z</time>
      </trkpt>
      <trkpt lat="47.0196" lon="8.89404">
        <ele>1208</ele>
        <time>2021-08-03T09:56:04.339Z</time>
      </trkpt>
      <trkpt lat="47.01959" lon="8.89404">
        <ele>1208</ele>
        <time>2021-08-03T09:56:05.338Z</time>
      </trkpt>
      <trkpt lat="47.01959" lon="8.89402">
        <ele>1208</ele>
        <time>2021-08-03T09:56:06.339Z</time>
      </trkpt>
      <trkpt lat="47.0196" lon="8.89401">
        <ele>1208</ele>
        <time>2021-08-03T09:56:07.339Z</time>
      </trkpt>
      <trkpt lat="47.01959" lon="8.89401">
        <ele>1209</ele>
        <time>2021-08-03T09:56:08.339Z</time>
      </trkpt>
      <trkpt lat="47.0196" lon="8.89402">
        <ele>1209</ele>
        <time>2021-08-03T09:56:09.339Z</time>
      </trkpt>
      <trkpt lat="47.0196" lon="8.89402">
        <ele>1210</ele>
        <time>2021-08-03T09:56:10.339Z</time>
      </trkpt>
      <trkpt lat="47.01961" lon="8.89402">
        <ele>1210</ele>
        <time>2021-08-03T09:56:11.339Z</time>
      </trkpt>
      <trkpt lat="47.01961" lon="8.89401">
        <ele>1211</ele>
        <time>2021-08-03T09:56:12.340Z</time>
      </trkpt>
      <trkpt lat="47.0196" lon="8.89401">
        <ele>1212</ele>
        <time>2021-08-03T09:56:13.339Z</time>
      </trkpt>
      <trkpt lat="47.01957" lon="8.89394">
        <ele>1218</ele>
        <time>2021-08-03T09:56:14.340Z</time>
      </trkpt>
      <trkpt lat="47.01957" lon="8.89393">
        <ele>1218</ele>
        <time>2021-08-03T09:56:15.339Z</time>
      </trkpt>
      <trkpt lat="47.01958" lon="8.89392">
        <ele>1217</ele>
        <time>2021-08-03T09:56:16.339Z</time>
      </trkpt>
      <trkpt lat="47.01958" lon="8.8939">
        <ele>1216</ele>
        <time>2021-08-03T09:56:17.340Z</time>
      </trkpt>
      <trkpt lat="47.01958" lon="8.89389">
        <ele>1215</ele>
        <time>2021-08-03T09:56:18.339Z</time>
      </trkpt>
      <trkpt lat="47.01957" lon="8.89388">
        <ele>1215</ele>
        <time>2021-08-03T09:56:19.339Z</time>
      </trkpt>
      <trkpt lat="47.01957" lon="8.89387">
        <ele>1214</ele>
        <time>2021-08-03T09:56:20.339Z</time>
      </trkpt>
      <trkpt lat="47.01957" lon="8.89386">
        <ele>1214</ele>
        <time>2021-08-03T09:56:21.340Z</time>
      </trkpt>
      <trkpt lat="47.01956" lon="8.89385">
        <ele>1213</ele>
        <time>2021-08-03T09:56:22.339Z</time>
      </trkpt>
      <trkpt lat="47.01956" lon="8.89384">
        <ele>1213</ele>
        <time>2021-08-03T09:56:23.339Z</time>
      </trkpt>
      <trkpt lat="47.01956" lon="8.89383">
        <ele>1213</ele>
        <time>2021-08-03T09:56:24.339Z</time>
      </trkpt>
      <trkpt lat="47.01955" lon="8.89382">
        <ele>1212</ele>
        <time>2021-08-03T09:56:25.339Z</time>
      </trkpt>
      <trkpt lat="47.01955" lon="8.89382">
        <ele>1212</ele>
        <time>2021-08-03T09:56:26.340Z</time>
      </trkpt>
      <trkpt lat="47.01955" lon="8.89381">
        <ele>1211</ele>
        <time>2021-08-03T09:56:27.339Z</time>
      </trkpt>
      <trkpt lat="47.01955" lon="8.8938">
        <ele>1210</ele>
        <time>2021-08-03T09:56:28.339Z</time>
      </trkpt>
      <trkpt lat="47.01954" lon="8.89379">
        <ele>1210</ele>
        <time>2021-08-03T09:56:29.339Z</time>
      </trkpt>
      <trkpt lat="47.01954" lon="8.89378">
        <ele>1209</ele>
        <time>2021-08-03T09:56:30.339Z</time>
      </trkpt>
      <trkpt lat="47.01953" lon="8.89376">
        <ele>1209</ele>
        <time>2021-08-03T09:56:31.339Z</time>
      </trkpt>
      <trkpt lat="47.01952" lon="8.89375">
        <ele>1209</ele>
        <time>2021-08-03T09:56:32.339Z</time>
      </trkpt>
      <trkpt lat="47.01951" lon="8.89373">
        <ele>1209</ele>
        <time>2021-08-03T09:56:33.339Z</time>
      </trkpt>
      <trkpt lat="47.01951" lon="8.89372">
        <ele>1209</ele>
        <time>2021-08-03T09:56:34.339Z</time>
      </trkpt>
      <trkpt lat="47.0195" lon="8.8937">
        <ele>1209</ele>
        <time>2021-08-03T09:56:35.339Z</time>
      </trkpt>
      <trkpt lat="47.0195" lon="8.89369">
        <ele>1209</ele>
        <time>2021-08-03T09:56:36.339Z</time>
      </trkpt>
      <trkpt lat="47.01949" lon="8.89368">
        <ele>1209</ele>
        <time>2021-08-03T09:56:37.339Z</time>
      </trkpt>
      <trkpt lat="47.01949" lon="8.89367">
        <ele>1209</ele>
        <time>2021-08-03T09:56:38.339Z</time>
      </trkpt>
      <trkpt lat="47.01949" lon="8.89366">
        <ele>1209</ele>
        <time>2021-08-03T09:56:39.339Z</time>
      </trkpt>
      <trkpt lat="47.01949" lon="8.89366">
        <ele>1208</ele>
        <time>2021-08-03T09:56:40.339Z</time>
      </trkpt>
      <trkpt lat="47.01949" lon="8.89365">
        <ele>1207</ele>
        <time>2021-08-03T09:56:41.339Z</time>
      </trkpt>
      <trkpt lat="47.01949" lon="8.89363">
        <ele>1207</ele>
        <time>2021-08-03T09:56:42.339Z</time>
      </trkpt>
      <trkpt lat="47.01949" lon="8.89363">
        <ele>1206</ele>
        <time>2021-08-03T09:56:43.340Z</time>
      </trkpt>
      <trkpt lat="47.01949" lon="8.89362">
        <ele>1205</ele>
        <time>2021-08-03T09:56:44.340Z</time>
      </trkpt>
      <trkpt lat="47.01948" lon="8.8936">
        <ele>1205</ele>
        <time>2021-08-03T09:56:45.339Z</time>
      </trkpt>
      <trkpt lat="47.01948" lon="8.89359">
        <ele>1205</ele>
        <time>2021-08-03T09:56:46.339Z</time>
      </trkpt>
      <trkpt lat="47.01948" lon="8.89358">
        <ele>1204</ele>
        <time>2021-08-03T09:56:47.340Z</time>
      </trkpt>
      <trkpt lat="47.01947" lon="8.89357">
        <ele>1203</ele>
        <time>2021-08-03T09:56:48.339Z</time>
      </trkpt>
      <trkpt lat="47.01947" lon="8.89356">
        <ele>1202</ele>
        <time>2021-08-03T09:56:49.339Z</time>
      </trkpt>
      <trkpt lat="47.01946" lon="8.89354">
        <ele>1202</ele>
        <time>2021-08-03T09:56:50.339Z</time>
      </trkpt>
      <trkpt lat="47.01946" lon="8.89353">
        <ele>1202</ele>
        <time>2021-08-03T09:56:51.340Z</time>
      </trkpt>
      <trkpt lat="47.01945" lon="8.89352">
        <ele>1202</ele>
        <time>2021-08-03T09:56:52.339Z</time>
      </trkpt>
      <trkpt lat="47.01945" lon="8.89351">
        <ele>1202</ele>
        <time>2021-08-03T09:56:53.339Z</time>
      </trkpt>
      <trkpt lat="47.01945" lon="8.8935">
        <ele>1203</ele>
        <time>2021-08-03T09:56:54.339Z</time>
      </trkpt>
      <trkpt lat="47.01945" lon="8.89349">
        <ele>1203</ele>
        <time>2021-08-03T09:56:55.339Z</time>
      </trkpt>
      <trkpt lat="47.01944" lon="8.89347">
        <ele>1204</ele>
        <time>2021-08-03T09:56:56.339Z</time>
      </trkpt>
      <trkpt lat="47.01943" lon="8.89346">
        <ele>1204</ele>
        <time>2021-08-03T09:56:57.339Z</time>
      </trkpt>
      <trkpt lat="47.01943" lon="8.89345">
        <ele>1204</ele>
        <time>2021-08-03T09:56:58.339Z</time>
      </trkpt>
      <trkpt lat="47.01942" lon="8.89344">
        <ele>1204</ele>
        <time>2021-08-03T09:56:59.339Z</time>
      </trkpt>
      <trkpt lat="47.01942" lon="8.89343">
        <ele>1203</ele>
        <time>2021-08-03T09:57:00.340Z</time>
      </trkpt>
      <trkpt lat="47.01942" lon="8.89342">
        <ele>1202</ele>
        <time>2021-08-03T09:57:01.339Z</time>
      </trkpt>
      <trkpt lat="47.01942" lon="8.8934">
        <ele>1202</ele>
        <time>2021-08-03T09:57:02.339Z</time>
      </trkpt>
      <trkpt lat="47.01941" lon="8.89339">
        <ele>1201</ele>
        <time>2021-08-03T09:57:03.339Z</time>
      </trkpt>
      <trkpt lat="47.01941" lon="8.89338">
        <ele>1201</ele>
        <time>2021-08-03T09:57:04.339Z</time>
      </trkpt>
      <trkpt lat="47.0194" lon="8.89336">
        <ele>1201</ele>
        <time>2021-08-03T09:57:05.339Z</time>
      </trkpt>
      <trkpt lat="47.01939" lon="8.89336">
        <ele>1201</ele>
        <time>2021-08-03T09:57:06.339Z</time>
      </trkpt>
      <trkpt lat="47.01939" lon="8.89334">
        <ele>1201</ele>
        <time>2021-08-03T09:57:07.339Z</time>
      </trkpt>
      <trkpt lat="47.01939" lon="8.89333">
        <ele>1201</ele>
        <time>2021-08-03T09:57:08.339Z</time>
      </trkpt>
      <trkpt lat="47.01939" lon="8.89332">
        <ele>1201</ele>
        <time>2021-08-03T09:57:09.339Z</time>
      </trkpt>
      <trkpt lat="47.01938" lon="8.89331">
        <ele>1201</ele>
        <time>2021-08-03T09:57:10.339Z</time>
      </trkpt>
      <trkpt lat="47.01938" lon="8.8933">
        <ele>1201</ele>
        <time>2021-08-03T09:57:11.339Z</time>
      </trkpt>
      <trkpt lat="47.01938" lon="8.89328">
        <ele>1201</ele>
        <time>2021-08-03T09:57:12.340Z</time>
      </trkpt>
      <trkpt lat="47.01938" lon="8.89327">
        <ele>1201</ele>
        <time>2021-08-03T09:57:13.339Z</time>
      </trkpt>
      <trkpt lat="47.01938" lon="8.89325">
        <ele>1201</ele>
        <time>2021-08-03T09:57:14.339Z</time>
      </trkpt>
      <trkpt lat="47.01937" lon="8.89324">
        <ele>1201</ele>
        <time>2021-08-03T09:57:15.339Z</time>
      </trkpt>
      <trkpt lat="47.01936" lon="8.89323">
        <ele>1201</ele>
        <time>2021-08-03T09:57:16.339Z</time>
      </trkpt>
      <trkpt lat="47.01936" lon="8.89323">
        <ele>1201</ele>
        <time>2021-08-03T09:57:17.340Z</time>
      </trkpt>
      <trkpt lat="47.01935" lon="8.89322">
        <ele>1201</ele>
        <time>2021-08-03T09:57:18.339Z</time>
      </trkpt>
      <trkpt lat="47.01935" lon="8.89321">
        <ele>1201</ele>
        <time>2021-08-03T09:57:19.339Z</time>
      </trkpt>
      <trkpt lat="47.01935" lon="8.8932">
        <ele>1201</ele>
        <time>2021-08-03T09:57:20.339Z</time>
      </trkpt>
      <trkpt lat="47.01934" lon="8.89319">
        <ele>1201</ele>
        <time>2021-08-03T09:57:21.339Z</time>
      </trkpt>
      <trkpt lat="47.01934" lon="8.89318">
        <ele>1201</ele>
        <time>2021-08-03T09:57:22.339Z</time>
      </trkpt>
      <trkpt lat="47.01934" lon="8.89317">
        <ele>1200</ele>
        <time>2021-08-03T09:57:23.340Z</time>
      </trkpt>
      <trkpt lat="47.01934" lon="8.89315">
        <ele>1200</ele>
        <time>2021-08-03T09:57:24.339Z</time>
      </trkpt>
      <trkpt lat="47.01934" lon="8.89314">
        <ele>1200</ele>
        <time>2021-08-03T09:57:25.339Z</time>
      </trkpt>
      <trkpt lat="47.01933" lon="8.89313">
        <ele>1200</ele>
        <time>2021-08-03T09:57:26.339Z</time>
      </trkpt>
      <trkpt lat="47.01932" lon="8.89312">
        <ele>1200</ele>
        <time>2021-08-03T09:57:27.340Z</time>
      </trkpt>
      <trkpt lat="47.01932" lon="8.89311">
        <ele>1200</ele>
        <time>2021-08-03T09:57:28.339Z</time>
      </trkpt>
      <trkpt lat="47.01932" lon="8.8931">
        <ele>1201</ele>
        <time>2021-08-03T09:57:29.339Z</time>
      </trkpt>
      <trkpt lat="47.01932" lon="8.89308">
        <ele>1201</ele>
        <time>2021-08-03T09:57:30.339Z</time>
      </trkpt>
      <trkpt lat="47.01931" lon="8.89306">
        <ele>1202</ele>
        <time>2021-08-03T09:57:31.339Z</time>
      </trkpt>
      <trkpt lat="47.01931" lon="8.89304">
        <ele>1203</ele>
        <time>2021-08-03T09:57:32.339Z</time>
      </trkpt>
      <trkpt lat="47.01932" lon="8.89302">
        <ele>1203</ele>
        <time>2021-08-03T09:57:33.339Z</time>
      </trkpt>
      <trkpt lat="47.01931" lon="8.893">
        <ele>1203</ele>
        <time>2021-08-03T09:57:34.339Z</time>
      </trkpt>
      <trkpt lat="47.01931" lon="8.89299">
        <ele>1203</ele>
        <time>2021-08-03T09:57:35.339Z</time>
      </trkpt>
      <trkpt lat="47.01931" lon="8.89298">
        <ele>1203</ele>
        <time>2021-08-03T09:57:36.339Z</time>
      </trkpt>
      <trkpt lat="47.0193" lon="8.89297">
        <ele>1204</ele>
        <time>2021-08-03T09:57:37.340Z</time>
      </trkpt>
      <trkpt lat="47.0193" lon="8.89296">
        <ele>1205</ele>
        <time>2021-08-03T09:57:38.340Z</time>
      </trkpt>
      <trkpt lat="47.01929" lon="8.89295">
        <ele>1205</ele>
        <time>2021-08-03T09:57:39.339Z</time>
      </trkpt>
      <trkpt lat="47.01928" lon="8.89294">
        <ele>1206</ele>
        <time>2021-08-03T09:57:40.339Z</time>
      </trkpt>
      <trkpt lat="47.01927" lon="8.89293">
        <ele>1206</ele>
        <time>2021-08-03T09:57:41.339Z</time>
      </trkpt>
      <trkpt lat="47.01926" lon="8.89292">
        <ele>1207</ele>
        <time>2021-08-03T09:57:42.339Z</time>
      </trkpt>
      <trkpt lat="47.01926" lon="8.8929">
        <ele>1207</ele>
        <time>2021-08-03T09:57:43.339Z</time>
      </trkpt>
      <trkpt lat="47.01926" lon="8.89289">
        <ele>1208</ele>
        <time>2021-08-03T09:57:44.339Z</time>
      </trkpt>
      <trkpt lat="47.01925" lon="8.89288">
        <ele>1209</ele>
        <time>2021-08-03T09:57:45.339Z</time>
      </trkpt>
      <trkpt lat="47.01925" lon="8.89287">
        <ele>1209</ele>
        <time>2021-08-03T09:57:46.339Z</time>
      </trkpt>
      <trkpt lat="47.01925" lon="8.89286">
        <ele>1209</ele>
        <time>2021-08-03T09:57:47.340Z</time>
      </trkpt>
      <trkpt lat="47.01925" lon="8.89285">
        <ele>1210</ele>
        <time>2021-08-03T09:57:48.339Z</time>
      </trkpt>
      <trkpt lat="47.01925" lon="8.89284">
        <ele>1210</ele>
        <time>2021-08-03T09:57:49.339Z</time>
      </trkpt>
      <trkpt lat="47.01924" lon="8.89283">
        <ele>1211</ele>
        <time>2021-08-03T09:57:50.340Z</time>
      </trkpt>
      <trkpt lat="47.01924" lon="8.89282">
        <ele>1211</ele>
        <time>2021-08-03T09:57:51.339Z</time>
      </trkpt>
      <trkpt lat="47.01924" lon="8.89281">
        <ele>1211</ele>
        <time>2021-08-03T09:57:52.339Z</time>
      </trkpt>
      <trkpt lat="47.01923" lon="8.89279">
        <ele>1211</ele>
        <time>2021-08-03T09:57:53.339Z</time>
      </trkpt>
      <trkpt lat="47.01923" lon="8.89278">
        <ele>1211</ele>
        <time>2021-08-03T09:57:54.340Z</time>
      </trkpt>
      <trkpt lat="47.01923" lon="8.89277">
        <ele>1211</ele>
        <time>2021-08-03T09:57:55.340Z</time>
      </trkpt>
      <trkpt lat="47.01922" lon="8.89277">
        <ele>1211</ele>
        <time>2021-08-03T09:57:56.339Z</time>
      </trkpt>
      <trkpt lat="47.01922" lon="8.89276">
        <ele>1211</ele>
        <time>2021-08-03T09:57:57.340Z</time>
      </trkpt>
      <trkpt lat="47.01922" lon="8.89276">
        <ele>1211</ele>
        <time>2021-08-03T09:57:58.339Z</time>
      </trkpt>
      <trkpt lat="47.01922" lon="8.89275">
        <ele>1210</ele>
        <time>2021-08-03T09:57:59.340Z</time>
      </trkpt>
      <trkpt lat="47.01922" lon="8.89275">
        <ele>1210</ele>
        <time>2021-08-03T09:58:00.340Z</time>
      </trkpt>
      <trkpt lat="47.01922" lon="8.89274">
        <ele>1210</ele>
        <time>2021-08-03T09:58:01.339Z</time>
      </trkpt>
      <trkpt lat="47.01922" lon="8.89273">
        <ele>1210</ele>
        <time>2021-08-03T09:58:02.340Z</time>
      </trkpt>
      <trkpt lat="47.01922" lon="8.89272">
        <ele>1209</ele>
        <time>2021-08-03T09:58:03.339Z</time>
      </trkpt>
      <trkpt lat="47.01922" lon="8.89271">
        <ele>1209</ele>
        <time>2021-08-03T09:58:04.339Z</time>
      </trkpt>
      <trkpt lat="47.01922" lon="8.8927">
        <ele>1210</ele>
        <time>2021-08-03T09:58:05.339Z</time>
      </trkpt>
      <trkpt lat="47.01922" lon="8.89269">
        <ele>1210</ele>
        <time>2021-08-03T09:58:06.339Z</time>
      </trkpt>
      <trkpt lat="47.01922" lon="8.89268">
        <ele>1210</ele>
        <time>2021-08-03T09:58:07.339Z</time>
      </trkpt>
      <trkpt lat="47.01922" lon="8.89265">
        <ele>1210</ele>
        <time>2021-08-03T09:58:08.339Z</time>
      </trkpt>
      <trkpt lat="47.01922" lon="8.89263">
        <ele>1210</ele>
        <time>2021-08-03T09:58:09.340Z</time>
      </trkpt>
      <trkpt lat="47.01922" lon="8.89263">
        <ele>1210</ele>
        <time>2021-08-03T09:58:10.339Z</time>
      </trkpt>
      <trkpt lat="47.01922" lon="8.89262">
        <ele>1210</ele>
        <time>2021-08-03T09:58:11.340Z</time>
      </trkpt>
      <trkpt lat="47.01921" lon="8.89261">
        <ele>1210</ele>
        <time>2021-08-03T09:58:12.339Z</time>
      </trkpt>
      <trkpt lat="47.01922" lon="8.89261">
        <ele>1209</ele>
        <time>2021-08-03T09:58:13.339Z</time>
      </trkpt>
      <trkpt lat="47.01922" lon="8.89261">
        <ele>1209</ele>
        <time>2021-08-03T09:58:14.339Z</time>
      </trkpt>
      <trkpt lat="47.01923" lon="8.8926">
        <ele>1209</ele>
        <time>2021-08-03T09:58:15.339Z</time>
      </trkpt>
      <trkpt lat="47.01923" lon="8.89259">
        <ele>1209</ele>
        <time>2021-08-03T09:58:16.340Z</time>
      </trkpt>
      <trkpt lat="47.01923" lon="8.89258">
        <ele>1209</ele>
        <time>2021-08-03T09:58:17.340Z</time>
      </trkpt>
      <trkpt lat="47.01923" lon="8.89257">
        <ele>1210</ele>
        <time>2021-08-03T09:58:18.339Z</time>
      </trkpt>
      <trkpt lat="47.01923" lon="8.89256">
        <ele>1210</ele>
        <time>2021-08-03T09:58:19.339Z</time>
      </trkpt>
      <trkpt lat="47.01923" lon="8.89255">
        <ele>1210</ele>
        <time>2021-08-03T09:58:20.340Z</time>
      </trkpt>
      <trkpt lat="47.01922" lon="8.89254">
        <ele>1210</ele>
        <time>2021-08-03T09:58:21.339Z</time>
      </trkpt>
      <trkpt lat="47.01922" lon="8.89254">
        <ele>1209</ele>
        <time>2021-08-03T09:58:22.339Z</time>
      </trkpt>
      <trkpt lat="47.01923" lon="8.89253">
        <ele>1209</ele>
        <time>2021-08-03T09:58:23.339Z</time>
      </trkpt>
      <trkpt lat="47.01923" lon="8.89253">
        <ele>1209</ele>
        <time>2021-08-03T09:58:24.340Z</time>
      </trkpt>
      <trkpt lat="47.01924" lon="8.89252">
        <ele>1209</ele>
        <time>2021-08-03T09:58:25.339Z</time>
      </trkpt>
      <trkpt lat="47.01923" lon="8.89251">
        <ele>1209</ele>
        <time>2021-08-03T09:58:26.340Z</time>
      </trkpt>
      <trkpt lat="47.01924" lon="8.8925">
        <ele>1209</ele>
        <time>2021-08-03T09:58:27.339Z</time>
      </trkpt>
      <trkpt lat="47.01923" lon="8.89249">
        <ele>1210</ele>
        <time>2021-08-03T09:58:28.339Z</time>
      </trkpt>
      <trkpt lat="47.01923" lon="8.89248">
        <ele>1210</ele>
        <time>2021-08-03T09:58:29.339Z</time>
      </trkpt>
      <trkpt lat="47.01924" lon="8.89247">
        <ele>1210</ele>
        <time>2021-08-03T09:58:30.340Z</time>
      </trkpt>
      <trkpt lat="47.01924" lon="8.89246">
        <ele>1210</ele>
        <time>2021-08-03T09:58:31.339Z</time>
      </trkpt>
      <trkpt lat="47.01924" lon="8.89245">
        <ele>1210</ele>
        <time>2021-08-03T09:58:32.339Z</time>
      </trkpt>
      <trkpt lat="47.01924" lon="8.89244">
        <ele>1210</ele>
        <time>2021-08-03T09:58:33.339Z</time>
      </trkpt>
      <trkpt lat="47.01925" lon="8.89243">
        <ele>1210</ele>
        <time>2021-08-03T09:58:34.340Z</time>
      </trkpt>
      <trkpt lat="47.01925" lon="8.89242">
        <ele>1210</ele>
        <time>2021-08-03T09:58:35.339Z</time>
      </trkpt>
      <trkpt lat="47.01925" lon="8.89242">
        <ele>1210</ele>
        <time>2021-08-03T09:58:36.339Z</time>
      </trkpt>
      <trkpt lat="47.01925" lon="8.89241">
        <ele>1210</ele>
        <time>2021-08-03T09:58:37.339Z</time>
      </trkpt>
      <trkpt lat="47.01924" lon="8.89241">
        <ele>1210</ele>
        <time>2021-08-03T09:58:38.339Z</time>
      </trkpt>
      <trkpt lat="47.01924" lon="8.8924">
        <ele>1210</ele>
        <time>2021-08-03T09:58:39.340Z</time>
      </trkpt>
      <trkpt lat="47.01923" lon="8.8924">
        <ele>1210</ele>
        <time>2021-08-03T09:58:40.339Z</time>
      </trkpt>
      <trkpt lat="47.01923" lon="8.89239">
        <ele>1211</ele>
        <time>2021-08-03T09:58:41.339Z</time>
      </trkpt>
      <trkpt lat="47.01923" lon="8.89238">
        <ele>1211</ele>
        <time>2021-08-03T09:58:42.340Z</time>
      </trkpt>
      <trkpt lat="47.01924" lon="8.89237">
        <ele>1211</ele>
        <time>2021-08-03T09:58:43.339Z</time>
      </trkpt>
      <trkpt lat="47.01924" lon="8.89235">
        <ele>1212</ele>
        <time>2021-08-03T09:58:44.339Z</time>
      </trkpt>
      <trkpt lat="47.01924" lon="8.89234">
        <ele>1213</ele>
        <time>2021-08-03T09:58:45.339Z</time>
      </trkpt>
      <trkpt lat="47.01924" lon="8.89233">
        <ele>1213</ele>
        <time>2021-08-03T09:58:46.339Z</time>
      </trkpt>
      <trkpt lat="47.01923" lon="8.89232">
        <ele>1214</ele>
        <time>2021-08-03T09:58:47.339Z</time>
      </trkpt>
      <trkpt lat="47.01923" lon="8.8923">
        <ele>1214</ele>
        <time>2021-08-03T09:58:48.339Z</time>
      </trkpt>
      <trkpt lat="47.01923" lon="8.89228">
        <ele>1215</ele>
        <time>2021-08-03T09:58:49.339Z</time>
      </trkpt>
      <trkpt lat="47.01922" lon="8.89227">
        <ele>1215</ele>
        <time>2021-08-03T09:58:50.339Z</time>
      </trkpt>
      <trkpt lat="47.01923" lon="8.89225">
        <ele>1216</ele>
        <time>2021-08-03T09:58:51.340Z</time>
      </trkpt>
      <trkpt lat="47.01923" lon="8.89223">
        <ele>1217</ele>
        <time>2021-08-03T09:58:52.339Z</time>
      </trkpt>
      <trkpt lat="47.01923" lon="8.89221">
        <ele>1217</ele>
        <time>2021-08-03T09:58:53.339Z</time>
      </trkpt>
      <trkpt lat="47.01922" lon="8.8922">
        <ele>1218</ele>
        <time>2021-08-03T09:58:54.339Z</time>
      </trkpt>
      <trkpt lat="47.01922" lon="8.89218">
        <ele>1218</ele>
        <time>2021-08-03T09:58:55.339Z</time>
      </trkpt>
      <trkpt lat="47.01923" lon="8.89217">
        <ele>1219</ele>
        <time>2021-08-03T09:58:56.339Z</time>
      </trkpt>
      <trkpt lat="47.01923" lon="8.89216">
        <ele>1219</ele>
        <time>2021-08-03T09:58:57.339Z</time>
      </trkpt>
      <trkpt lat="47.01924" lon="8.89215">
        <ele>1220</ele>
        <time>2021-08-03T09:58:58.339Z</time>
      </trkpt>
      <trkpt lat="47.01925" lon="8.89213">
        <ele>1220</ele>
        <time>2021-08-03T09:58:59.339Z</time>
      </trkpt>
      <trkpt lat="47.01925" lon="8.8921">
        <ele>1221</ele>
        <time>2021-08-03T09:59:00.339Z</time>
      </trkpt>
      <trkpt lat="47.01926" lon="8.89208">
        <ele>1221</ele>
        <time>2021-08-03T09:59:01.339Z</time>
      </trkpt>
      <trkpt lat="47.01926" lon="8.89206">
        <ele>1222</ele>
        <time>2021-08-03T09:59:02.339Z</time>
      </trkpt>
      <trkpt lat="47.01926" lon="8.89204">
        <ele>1223</ele>
        <time>2021-08-03T09:59:03.339Z</time>
      </trkpt>
      <trkpt lat="47.01926" lon="8.89202">
        <ele>1223</ele>
        <time>2021-08-03T09:59:04.340Z</time>
      </trkpt>
      <trkpt lat="47.01926" lon="8.89201">
        <ele>1224</ele>
        <time>2021-08-03T09:59:05.340Z</time>
      </trkpt>
      <trkpt lat="47.01926" lon="8.892">
        <ele>1224</ele>
        <time>2021-08-03T09:59:06.339Z</time>
      </trkpt>
      <trkpt lat="47.01925" lon="8.89199">
        <ele>1224</ele>
        <time>2021-08-03T09:59:07.339Z</time>
      </trkpt>
      <trkpt lat="47.01925" lon="8.89198">
        <ele>1225</ele>
        <time>2021-08-03T09:59:08.340Z</time>
      </trkpt>
      <trkpt lat="47.01925" lon="8.89197">
        <ele>1225</ele>
        <time>2021-08-03T09:59:09.339Z</time>
      </trkpt>
      <trkpt lat="47.01925" lon="8.89196">
        <ele>1225</ele>
        <time>2021-08-03T09:59:10.339Z</time>
      </trkpt>
      <trkpt lat="47.01926" lon="8.89196">
        <ele>1225</ele>
        <time>2021-08-03T09:59:11.339Z</time>
      </trkpt>
      <trkpt lat="47.01927" lon="8.89196">
        <ele>1225</ele>
        <time>2021-08-03T09:59:12.339Z</time>
      </trkpt>
      <trkpt lat="47.01928" lon="8.89195">
        <ele>1224</ele>
        <time>2021-08-03T09:59:13.339Z</time>
      </trkpt>
      <trkpt lat="47.01928" lon="8.89194">
        <ele>1224</ele>
        <time>2021-08-03T09:59:14.339Z</time>
      </trkpt>
      <trkpt lat="47.01929" lon="8.89193">
        <ele>1223</ele>
        <time>2021-08-03T09:59:15.339Z</time>
      </trkpt>
      <trkpt lat="47.01929" lon="8.89192">
        <ele>1222</ele>
        <time>2021-08-03T09:59:16.339Z</time>
      </trkpt>
      <trkpt lat="47.01929" lon="8.89191">
        <ele>1222</ele>
        <time>2021-08-03T09:59:17.339Z</time>
      </trkpt>
      <trkpt lat="47.01929" lon="8.8919">
        <ele>1221</ele>
        <time>2021-08-03T09:59:18.339Z</time>
      </trkpt>
      <trkpt lat="47.01929" lon="8.89189">
        <ele>1221</ele>
        <time>2021-08-03T09:59:19.339Z</time>
      </trkpt>
      <trkpt lat="47.01929" lon="8.89188">
        <ele>1220</ele>
        <time>2021-08-03T09:59:20.340Z</time>
      </trkpt>
      <trkpt lat="47.01929" lon="8.89187">
        <ele>1220</ele>
        <time>2021-08-03T09:59:21.339Z</time>
      </trkpt>
      <trkpt lat="47.01929" lon="8.89186">
        <ele>1220</ele>
        <time>2021-08-03T09:59:22.339Z</time>
      </trkpt>
      <trkpt lat="47.0193" lon="8.89185">
        <ele>1220</ele>
        <time>2021-08-03T09:59:23.339Z</time>
      </trkpt>
      <trkpt lat="47.0193" lon="8.89184">
        <ele>1219</ele>
        <time>2021-08-03T09:59:24.340Z</time>
      </trkpt>
      <trkpt lat="47.0193" lon="8.89183">
        <ele>1219</ele>
        <time>2021-08-03T09:59:25.339Z</time>
      </trkpt>
      <trkpt lat="47.0193" lon="8.89182">
        <ele>1218</ele>
        <time>2021-08-03T09:59:26.339Z</time>
      </trkpt>
      <trkpt lat="47.01931" lon="8.89181">
        <ele>1218</ele>
        <time>2021-08-03T09:59:27.340Z</time>
      </trkpt>
      <trkpt lat="47.01931" lon="8.89179">
        <ele>1218</ele>
        <time>2021-08-03T09:59:28.339Z</time>
      </trkpt>
      <trkpt lat="47.01932" lon="8.89178">
        <ele>1218</ele>
        <time>2021-08-03T09:59:29.339Z</time>
      </trkpt>
      <trkpt lat="47.01933" lon="8.89177">
        <ele>1218</ele>
        <time>2021-08-03T09:59:30.339Z</time>
      </trkpt>
      <trkpt lat="47.01933" lon="8.89175">
        <ele>1218</ele>
        <time>2021-08-03T09:59:31.340Z</time>
      </trkpt>
      <trkpt lat="47.01933" lon="8.89174">
        <ele>1218</ele>
        <time>2021-08-03T09:59:32.340Z</time>
      </trkpt>
      <trkpt lat="47.01934" lon="8.89172">
        <ele>1218</ele>
        <time>2021-08-03T09:59:33.339Z</time>
      </trkpt>
      <trkpt lat="47.01934" lon="8.89171">
        <ele>1217</ele>
        <time>2021-08-03T09:59:34.339Z</time>
      </trkpt>
      <trkpt lat="47.01933" lon="8.8917">
        <ele>1216</ele>
        <time>2021-08-03T09:59:35.339Z</time>
      </trkpt>
      <trkpt lat="47.01933" lon="8.89168">
        <ele>1216</ele>
        <time>2021-08-03T09:59:36.339Z</time>
      </trkpt>
      <trkpt lat="47.01932" lon="8.89167">
        <ele>1215</ele>
        <time>2021-08-03T09:59:37.339Z</time>
      </trkpt>
      <trkpt lat="47.01931" lon="8.89165">
        <ele>1216</ele>
        <time>2021-08-03T09:59:38.340Z</time>
      </trkpt>
      <trkpt lat="47.01931" lon="8.89164">
        <ele>1216</ele>
        <time>2021-08-03T09:59:39.339Z</time>
      </trkpt>
      <trkpt lat="47.01931" lon="8.89162">
        <ele>1216</ele>
        <time>2021-08-03T09:59:40.339Z</time>
      </trkpt>
      <trkpt lat="47.01931" lon="8.89161">
        <ele>1216</ele>
        <time>2021-08-03T09:59:41.339Z</time>
      </trkpt>
      <trkpt lat="47.01932" lon="8.8916">
        <ele>1216</ele>
        <time>2021-08-03T09:59:42.339Z</time>
      </trkpt>
      <trkpt lat="47.01932" lon="8.89159">
        <ele>1216</ele>
        <time>2021-08-03T09:59:43.339Z</time>
      </trkpt>
      <trkpt lat="47.01931" lon="8.89158">
        <ele>1216</ele>
        <time>2021-08-03T09:59:44.339Z</time>
      </trkpt>
      <trkpt lat="47.01931" lon="8.89157">
        <ele>1216</ele>
        <time>2021-08-03T09:59:45.339Z</time>
      </trkpt>
      <trkpt lat="47.0193" lon="8.89156">
        <ele>1216</ele>
        <time>2021-08-03T09:59:46.339Z</time>
      </trkpt>
      <trkpt lat="47.01929" lon="8.89155">
        <ele>1217</ele>
        <time>2021-08-03T09:59:47.339Z</time>
      </trkpt>
      <trkpt lat="47.01929" lon="8.89154">
        <ele>1217</ele>
        <time>2021-08-03T09:59:48.339Z</time>
      </trkpt>
      <trkpt lat="47.01929" lon="8.89153">
        <ele>1218</ele>
        <time>2021-08-03T09:59:49.339Z</time>
      </trkpt>
      <trkpt lat="47.01929" lon="8.89152">
        <ele>1218</ele>
        <time>2021-08-03T09:59:50.339Z</time>
      </trkpt>
      <trkpt lat="47.01928" lon="8.8915">
        <ele>1218</ele>
        <time>2021-08-03T09:59:51.339Z</time>
      </trkpt>
      <trkpt lat="47.01928" lon="8.89149">
        <ele>1218</ele>
        <time>2021-08-03T09:59:52.339Z</time>
      </trkpt>
      <trkpt lat="47.01928" lon="8.89147">
        <ele>1218</ele>
        <time>2021-08-03T09:59:53.339Z</time>
      </trkpt>
      <trkpt lat="47.01928" lon="8.89146">
        <ele>1218</ele>
        <time>2021-08-03T09:59:54.339Z</time>
      </trkpt>
      <trkpt lat="47.01928" lon="8.89145">
        <ele>1218</ele>
        <time>2021-08-03T09:59:55.339Z</time>
      </trkpt>
      <trkpt lat="47.01927" lon="8.89144">
        <ele>1218</ele>
        <time>2021-08-03T09:59:56.340Z</time>
      </trkpt>
      <trkpt lat="47.01927" lon="8.89143">
        <ele>1218</ele>
        <time>2021-08-03T09:59:57.339Z</time>
      </trkpt>
      <trkpt lat="47.01926" lon="8.89142">
        <ele>1218</ele>
        <time>2021-08-03T09:59:58.339Z</time>
      </trkpt>
      <trkpt lat="47.01926" lon="8.89141">
        <ele>1217</ele>
        <time>2021-08-03T09:59:59.340Z</time>
      </trkpt>
      <trkpt lat="47.01926" lon="8.8914">
        <ele>1217</ele>
        <time>2021-08-03T10:00:00.339Z</time>
      </trkpt>
      <trkpt lat="47.01926" lon="8.89139">
        <ele>1217</ele>
        <time>2021-08-03T10:00:01.339Z</time>
      </trkpt>
      <trkpt lat="47.01925" lon="8.89138">
        <ele>1217</ele>
        <time>2021-08-03T10:00:02.339Z</time>
      </trkpt>
      <trkpt lat="47.01925" lon="8.89136">
        <ele>1217</ele>
        <time>2021-08-03T10:00:03.339Z</time>
      </trkpt>
      <trkpt lat="47.01925" lon="8.89135">
        <ele>1217</ele>
        <time>2021-08-03T10:00:04.340Z</time>
      </trkpt>
      <trkpt lat="47.01925" lon="8.89134">
        <ele>1216</ele>
        <time>2021-08-03T10:00:05.339Z</time>
      </trkpt>
      <trkpt lat="47.01925" lon="8.89133">
        <ele>1216</ele>
        <time>2021-08-03T10:00:06.339Z</time>
      </trkpt>
      <trkpt lat="47.01924" lon="8.89132">
        <ele>1216</ele>
        <time>2021-08-03T10:00:07.340Z</time>
      </trkpt>
      <trkpt lat="47.01923" lon="8.89131">
        <ele>1216</ele>
        <time>2021-08-03T10:00:08.339Z</time>
      </trkpt>
      <trkpt lat="47.01923" lon="8.89129">
        <ele>1216</ele>
        <time>2021-08-03T10:00:09.339Z</time>
      </trkpt>
      <trkpt lat="47.01923" lon="8.89128">
        <ele>1216</ele>
        <time>2021-08-03T10:00:10.339Z</time>
      </trkpt>
      <trkpt lat="47.01923" lon="8.89127">
        <ele>1216</ele>
        <time>2021-08-03T10:00:11.340Z</time>
      </trkpt>
      <trkpt lat="47.01923" lon="8.89126">
        <ele>1216</ele>
        <time>2021-08-03T10:00:12.340Z</time>
      </trkpt>
      <trkpt lat="47.01923" lon="8.89125">
        <ele>1217</ele>
        <time>2021-08-03T10:00:13.339Z</time>
      </trkpt>
      <trkpt lat="47.01923" lon="8.89123">
        <ele>1217</ele>
        <time>2021-08-03T10:00:14.339Z</time>
      </trkpt>
      <trkpt lat="47.01923" lon="8.89123">
        <ele>1218</ele>
        <time>2021-08-03T10:00:15.340Z</time>
      </trkpt>
      <trkpt lat="47.01923" lon="8.89122">
        <ele>1218</ele>
        <time>2021-08-03T10:00:16.339Z</time>
      </trkpt>
      <trkpt lat="47.01923" lon="8.8912">
        <ele>1219</ele>
        <time>2021-08-03T10:00:17.339Z</time>
      </trkpt>
      <trkpt lat="47.01922" lon="8.89118">
        <ele>1220</ele>
        <time>2021-08-03T10:00:18.339Z</time>
      </trkpt>
      <trkpt lat="47.01921" lon="8.89117">
        <ele>1221</ele>
        <time>2021-08-03T10:00:19.339Z</time>
      </trkpt>
      <trkpt lat="47.0192" lon="8.89115">
        <ele>1221</ele>
        <time>2021-08-03T10:00:20.339Z</time>
      </trkpt>
      <trkpt lat="47.0192" lon="8.89114">
        <ele>1222</ele>
        <time>2021-08-03T10:00:21.339Z</time>
      </trkpt>
      <trkpt lat="47.0192" lon="8.89113">
        <ele>1223</ele>
        <time>2021-08-03T10:00:22.339Z</time>
      </trkpt>
      <trkpt lat="47.01921" lon="8.89112">
        <ele>1223</ele>
        <time>2021-08-03T10:00:23.340Z</time>
      </trkpt>
      <trkpt lat="47.01922" lon="8.89112">
        <ele>1223</ele>
        <time>2021-08-03T10:00:24.339Z</time>
      </trkpt>
      <trkpt lat="47.01922" lon="8.89111">
        <ele>1223</ele>
        <time>2021-08-03T10:00:25.340Z</time>
      </trkpt>
      <trkpt lat="47.01922" lon="8.89111">
        <ele>1223</ele>
        <time>2021-08-03T10:00:26.340Z</time>
      </trkpt>
      <trkpt lat="47.01921" lon="8.8911">
        <ele>1222</ele>
        <time>2021-08-03T10:00:27.340Z</time>
      </trkpt>
      <trkpt lat="47.01921" lon="8.89109">
        <ele>1223</ele>
        <time>2021-08-03T10:00:28.339Z</time>
      </trkpt>
      <trkpt lat="47.01921" lon="8.89108">
        <ele>1223</ele>
        <time>2021-08-03T10:00:29.339Z</time>
      </trkpt>
      <trkpt lat="47.01921" lon="8.89107">
        <ele>1223</ele>
        <time>2021-08-03T10:00:30.339Z</time>
      </trkpt>
      <trkpt lat="47.01921" lon="8.89106">
        <ele>1223</ele>
        <time>2021-08-03T10:00:31.339Z</time>
      </trkpt>
      <trkpt lat="47.01921" lon="8.89105">
        <ele>1223</ele>
        <time>2021-08-03T10:00:32.339Z</time>
      </trkpt>
      <trkpt lat="47.0192" lon="8.89104">
        <ele>1223</ele>
        <time>2021-08-03T10:00:33.339Z</time>
      </trkpt>
      <trkpt lat="47.0192" lon="8.89104">
        <ele>1223</ele>
        <time>2021-08-03T10:00:34.339Z</time>
      </trkpt>
      <trkpt lat="47.0192" lon="8.89103">
        <ele>1223</ele>
        <time>2021-08-03T10:00:35.339Z</time>
      </trkpt>
      <trkpt lat="47.0192" lon="8.89102">
        <ele>1224</ele>
        <time>2021-08-03T10:00:36.340Z</time>
      </trkpt>
      <trkpt lat="47.01919" lon="8.89101">
        <ele>1224</ele>
        <time>2021-08-03T10:00:37.339Z</time>
      </trkpt>
      <trkpt lat="47.01919" lon="8.891">
        <ele>1225</ele>
        <time>2021-08-03T10:00:38.340Z</time>
      </trkpt>
      <trkpt lat="47.01918" lon="8.89099">
        <ele>1226</ele>
        <time>2021-08-03T10:00:39.340Z</time>
      </trkpt>
      <trkpt lat="47.01918" lon="8.89099">
        <ele>1227</ele>
        <time>2021-08-03T10:00:40.339Z</time>
      </trkpt>
      <trkpt lat="47.01918" lon="8.89098">
        <ele>1227</ele>
        <time>2021-08-03T10:00:41.339Z</time>
      </trkpt>
      <trkpt lat="47.01918" lon="8.89096">
        <ele>1228</ele>
        <time>2021-08-03T10:00:42.339Z</time>
      </trkpt>
      <trkpt lat="47.01917" lon="8.89095">
        <ele>1228</ele>
        <time>2021-08-03T10:00:43.339Z</time>
      </trkpt>
      <trkpt lat="47.01917" lon="8.89094">
        <ele>1229</ele>
        <time>2021-08-03T10:00:44.340Z</time>
      </trkpt>
      <trkpt lat="47.01917" lon="8.89093">
        <ele>1229</ele>
        <time>2021-08-03T10:00:45.339Z</time>
      </trkpt>
      <trkpt lat="47.01916" lon="8.89092">
        <ele>1229</ele>
        <time>2021-08-03T10:00:46.339Z</time>
      </trkpt>
      <trkpt lat="47.01915" lon="8.89092">
        <ele>1230</ele>
        <time>2021-08-03T10:00:47.339Z</time>
      </trkpt>
      <trkpt lat="47.01914" lon="8.89091">
        <ele>1231</ele>
        <time>2021-08-03T10:00:48.340Z</time>
      </trkpt>
      <trkpt lat="47.01913" lon="8.89089">
        <ele>1232</ele>
        <time>2021-08-03T10:00:49.339Z</time>
      </trkpt>
      <trkpt lat="47.01912" lon="8.89087">
        <ele>1232</ele>
        <time>2021-08-03T10:00:50.339Z</time>
      </trkpt>
      <trkpt lat="47.01912" lon="8.89085">
        <ele>1233</ele>
        <time>2021-08-03T10:00:51.340Z</time>
      </trkpt>
      <trkpt lat="47.01912" lon="8.89084">
        <ele>1234</ele>
        <time>2021-08-03T10:00:52.339Z</time>
      </trkpt>
      <trkpt lat="47.01912" lon="8.89083">
        <ele>1234</ele>
        <time>2021-08-03T10:00:53.339Z</time>
      </trkpt>
      <trkpt lat="47.01912" lon="8.89082">
        <ele>1234</ele>
        <time>2021-08-03T10:00:54.340Z</time>
      </trkpt>
      <trkpt lat="47.01911" lon="8.89082">
        <ele>1234</ele>
        <time>2021-08-03T10:00:55.339Z</time>
      </trkpt>
      <trkpt lat="47.01911" lon="8.89082">
        <ele>1234</ele>
        <time>2021-08-03T10:00:56.339Z</time>
      </trkpt>
      <trkpt lat="47.0191" lon="8.89082">
        <ele>1234</ele>
        <time>2021-08-03T10:00:57.339Z</time>
      </trkpt>
      <trkpt lat="47.0191" lon="8.8908">
        <ele>1234</ele>
        <time>2021-08-03T10:00:58.339Z</time>
      </trkpt>
      <trkpt lat="47.01909" lon="8.89079">
        <ele>1234</ele>
        <time>2021-08-03T10:00:59.339Z</time>
      </trkpt>
      <trkpt lat="47.01909" lon="8.89077">
        <ele>1234</ele>
        <time>2021-08-03T10:01:00.339Z</time>
      </trkpt>
      <trkpt lat="47.01909" lon="8.89076">
        <ele>1234</ele>
        <time>2021-08-03T10:01:01.339Z</time>
      </trkpt>
      <trkpt lat="47.01908" lon="8.89074">
        <ele>1234</ele>
        <time>2021-08-03T10:01:02.339Z</time>
      </trkpt>
      <trkpt lat="47.01909" lon="8.89074">
        <ele>1233</ele>
        <time>2021-08-03T10:01:03.339Z</time>
      </trkpt>
      <trkpt lat="47.01909" lon="8.89074">
        <ele>1233</ele>
        <time>2021-08-03T10:01:04.339Z</time>
      </trkpt>
      <trkpt lat="47.01909" lon="8.89073">
        <ele>1233</ele>
        <time>2021-08-03T10:01:05.340Z</time>
      </trkpt>
      <trkpt lat="47.0191" lon="8.89073">
        <ele>1233</ele>
        <time>2021-08-03T10:01:06.339Z</time>
      </trkpt>
      <trkpt lat="47.0191" lon="8.89072">
        <ele>1233</ele>
        <time>2021-08-03T10:01:07.340Z</time>
      </trkpt>
      <trkpt lat="47.0191" lon="8.89071">
        <ele>1233</ele>
        <time>2021-08-03T10:01:08.340Z</time>
      </trkpt>
      <trkpt lat="47.0191" lon="8.8907">
        <ele>1233</ele>
        <time>2021-08-03T10:01:09.339Z</time>
      </trkpt>
      <trkpt lat="47.0191" lon="8.89069">
        <ele>1234</ele>
        <time>2021-08-03T10:01:10.339Z</time>
      </trkpt>
      <trkpt lat="47.01911" lon="8.89068">
        <ele>1234</ele>
        <time>2021-08-03T10:01:11.339Z</time>
      </trkpt>
      <trkpt lat="47.01911" lon="8.89067">
        <ele>1234</ele>
        <time>2021-08-03T10:01:12.339Z</time>
      </trkpt>
      <trkpt lat="47.01911" lon="8.89066">
        <ele>1234</ele>
        <time>2021-08-03T10:01:13.339Z</time>
      </trkpt>
      <trkpt lat="47.01911" lon="8.89066">
        <ele>1234</ele>
        <time>2021-08-03T10:01:14.340Z</time>
      </trkpt>
      <trkpt lat="47.0191" lon="8.89065">
        <ele>1234</ele>
        <time>2021-08-03T10:01:15.340Z</time>
      </trkpt>
      <trkpt lat="47.0191" lon="8.89065">
        <ele>1234</ele>
        <time>2021-08-03T10:01:16.339Z</time>
      </trkpt>
      <trkpt lat="47.0191" lon="8.89064">
        <ele>1234</ele>
        <time>2021-08-03T10:01:17.339Z</time>
      </trkpt>
      <trkpt lat="47.01911" lon="8.89062">
        <ele>1234</ele>
        <time>2021-08-03T10:01:18.339Z</time>
      </trkpt>
      <trkpt lat="47.01911" lon="8.89061">
        <ele>1234</ele>
        <time>2021-08-03T10:01:19.340Z</time>
      </trkpt>
      <trkpt lat="47.01912" lon="8.8906">
        <ele>1235</ele>
        <time>2021-08-03T10:01:20.340Z</time>
      </trkpt>
      <trkpt lat="47.01912" lon="8.89059">
        <ele>1235</ele>
        <time>2021-08-03T10:01:21.339Z</time>
      </trkpt>
      <trkpt lat="47.01912" lon="8.89058">
        <ele>1236</ele>
        <time>2021-08-03T10:01:22.339Z</time>
      </trkpt>
      <trkpt lat="47.01912" lon="8.89057">
        <ele>1236</ele>
        <time>2021-08-03T10:01:23.339Z</time>
      </trkpt>
      <trkpt lat="47.01912" lon="8.89056">
        <ele>1237</ele>
        <time>2021-08-03T10:01:24.339Z</time>
      </trkpt>
      <trkpt lat="47.01913" lon="8.89056">
        <ele>1237</ele>
        <time>2021-08-03T10:01:25.339Z</time>
      </trkpt>
      <trkpt lat="47.01913" lon="8.89056">
        <ele>1238</ele>
        <time>2021-08-03T10:01:26.339Z</time>
      </trkpt>
      <trkpt lat="47.01914" lon="8.89055">
        <ele>1238</ele>
        <time>2021-08-03T10:01:27.339Z</time>
      </trkpt>
      <trkpt lat="47.01915" lon="8.89052">
        <ele>1240</ele>
        <time>2021-08-03T10:01:28.339Z</time>
      </trkpt>
      <trkpt lat="47.01915" lon="8.89051">
        <ele>1241</ele>
        <time>2021-08-03T10:01:29.339Z</time>
      </trkpt>
      <trkpt lat="47.01915" lon="8.8905">
        <ele>1242</ele>
        <time>2021-08-03T10:01:30.340Z</time>
      </trkpt>
      <trkpt lat="47.01916" lon="8.89049">
        <ele>1243</ele>
        <time>2021-08-03T10:01:31.339Z</time>
      </trkpt>
      <trkpt lat="47.01916" lon="8.89048">
        <ele>1244</ele>
        <time>2021-08-03T10:01:32.339Z</time>
      </trkpt>
      <trkpt lat="47.01916" lon="8.89047">
        <ele>1245</ele>
        <time>2021-08-03T10:01:33.339Z</time>
      </trkpt>
      <trkpt lat="47.01917" lon="8.89046">
        <ele>1246</ele>
        <time>2021-08-03T10:01:34.339Z</time>
      </trkpt>
      <trkpt lat="47.01917" lon="8.89044">
        <ele>1247</ele>
        <time>2021-08-03T10:01:35.339Z</time>
      </trkpt>
      <trkpt lat="47.01917" lon="8.89043">
        <ele>1248</ele>
        <time>2021-08-03T10:01:36.340Z</time>
      </trkpt>
      <trkpt lat="47.01918" lon="8.89042">
        <ele>1249</ele>
        <time>2021-08-03T10:01:37.339Z</time>
      </trkpt>
      <trkpt lat="47.01918" lon="8.89041">
        <ele>1249</ele>
        <time>2021-08-03T10:01:38.339Z</time>
      </trkpt>
      <trkpt lat="47.01918" lon="8.8904">
        <ele>1250</ele>
        <time>2021-08-03T10:01:39.339Z</time>
      </trkpt>
      <trkpt lat="47.01918" lon="8.89039">
        <ele>1250</ele>
        <time>2021-08-03T10:01:40.339Z</time>
      </trkpt>
      <trkpt lat="47.01918" lon="8.89037">
        <ele>1250</ele>
        <time>2021-08-03T10:01:41.339Z</time>
      </trkpt>
      <trkpt lat="47.01918" lon="8.89036">
        <ele>1251</ele>
        <time>2021-08-03T10:01:42.339Z</time>
      </trkpt>
      <trkpt lat="47.01918" lon="8.89036">
        <ele>1251</ele>
        <time>2021-08-03T10:01:43.340Z</time>
      </trkpt>
      <trkpt lat="47.01917" lon="8.89035">
        <ele>1251</ele>
        <time>2021-08-03T10:01:44.339Z</time>
      </trkpt>
      <trkpt lat="47.01917" lon="8.89034">
        <ele>1252</ele>
        <time>2021-08-03T10:01:45.339Z</time>
      </trkpt>
      <trkpt lat="47.01916" lon="8.89032">
        <ele>1252</ele>
        <time>2021-08-03T10:01:46.339Z</time>
      </trkpt>
      <trkpt lat="47.01916" lon="8.89032">
        <ele>1253</ele>
        <time>2021-08-03T10:01:47.340Z</time>
      </trkpt>
      <trkpt lat="47.01916" lon="8.89031">
        <ele>1253</ele>
        <time>2021-08-03T10:01:48.339Z</time>
      </trkpt>
      <trkpt lat="47.01917" lon="8.8903">
        <ele>1254</ele>
        <time>2021-08-03T10:01:49.339Z</time>
      </trkpt>
      <trkpt lat="47.01917" lon="8.89029">
        <ele>1254</ele>
        <time>2021-08-03T10:01:50.339Z</time>
      </trkpt>
      <trkpt lat="47.01919" lon="8.89027">
        <ele>1255</ele>
        <time>2021-08-03T10:01:51.339Z</time>
      </trkpt>
      <trkpt lat="47.01919" lon="8.89026">
        <ele>1255</ele>
        <time>2021-08-03T10:01:52.339Z</time>
      </trkpt>
      <trkpt lat="47.0192" lon="8.89024">
        <ele>1255</ele>
        <time>2021-08-03T10:01:53.339Z</time>
      </trkpt>
      <trkpt lat="47.01921" lon="8.89023">
        <ele>1255</ele>
        <time>2021-08-03T10:01:54.339Z</time>
      </trkpt>
      <trkpt lat="47.01921" lon="8.89022">
        <ele>1255</ele>
        <time>2021-08-03T10:01:55.339Z</time>
      </trkpt>
      <trkpt lat="47.01921" lon="8.89021">
        <ele>1255</ele>
        <time>2021-08-03T10:01:56.339Z</time>
      </trkpt>
      <trkpt lat="47.01921" lon="8.8902">
        <ele>1254</ele>
        <time>2021-08-03T10:01:57.340Z</time>
      </trkpt>
      <trkpt lat="47.01921" lon="8.89019">
        <ele>1254</ele>
        <time>2021-08-03T10:01:58.339Z</time>
      </trkpt>
      <trkpt lat="47.01921" lon="8.89018">
        <ele>1254</ele>
        <time>2021-08-03T10:01:59.339Z</time>
      </trkpt>
      <trkpt lat="47.01921" lon="8.89017">
        <ele>1253</ele>
        <time>2021-08-03T10:02:00.339Z</time>
      </trkpt>
      <trkpt lat="47.01921" lon="8.89016">
        <ele>1253</ele>
        <time>2021-08-03T10:02:01.340Z</time>
      </trkpt>
      <trkpt lat="47.01921" lon="8.89016">
        <ele>1252</ele>
        <time>2021-08-03T10:02:02.340Z</time>
      </trkpt>
      <trkpt lat="47.0192" lon="8.89015">
        <ele>1252</ele>
        <time>2021-08-03T10:02:03.339Z</time>
      </trkpt>
      <trkpt lat="47.0192" lon="8.89014">
        <ele>1251</ele>
        <time>2021-08-03T10:02:04.339Z</time>
      </trkpt>
      <trkpt lat="47.0192" lon="8.89014">
        <ele>1251</ele>
        <time>2021-08-03T10:02:05.339Z</time>
      </trkpt>
      <trkpt lat="47.0192" lon="8.89013">
        <ele>1251</ele>
        <time>2021-08-03T10:02:06.339Z</time>
      </trkpt>
      <trkpt lat="47.0192" lon="8.89012">
        <ele>1251</ele>
        <time>2021-08-03T10:02:07.339Z</time>
      </trkpt>
      <trkpt lat="47.0192" lon="8.89011">
        <ele>1250</ele>
        <time>2021-08-03T10:02:08.340Z</time>
      </trkpt>
      <trkpt lat="47.0192" lon="8.89011">
        <ele>1250</ele>
        <time>2021-08-03T10:02:09.339Z</time>
      </trkpt>
      <trkpt lat="47.01921" lon="8.8901">
        <ele>1250</ele>
        <time>2021-08-03T10:02:10.339Z</time>
      </trkpt>
      <trkpt lat="47.01922" lon="8.89009">
        <ele>1250</ele>
        <time>2021-08-03T10:02:11.339Z</time>
      </trkpt>
      <trkpt lat="47.01923" lon="8.89009">
        <ele>1250</ele>
        <time>2021-08-03T10:02:12.340Z</time>
      </trkpt>
      <trkpt lat="47.01923" lon="8.89008">
        <ele>1250</ele>
        <time>2021-08-03T10:02:13.339Z</time>
      </trkpt>
      <trkpt lat="47.01923" lon="8.89007">
        <ele>1250</ele>
        <time>2021-08-03T10:02:14.340Z</time>
      </trkpt>
      <trkpt lat="47.01923" lon="8.89007">
        <ele>1250</ele>
        <time>2021-08-03T10:02:15.339Z</time>
      </trkpt>
      <trkpt lat="47.01924" lon="8.89006">
        <ele>1250</ele>
        <time>2021-08-03T10:02:16.339Z</time>
      </trkpt>
      <trkpt lat="47.01924" lon="8.89006">
        <ele>1251</ele>
        <time>2021-08-03T10:02:17.339Z</time>
      </trkpt>
      <trkpt lat="47.01924" lon="8.89005">
        <ele>1251</ele>
        <time>2021-08-03T10:02:18.340Z</time>
      </trkpt>
      <trkpt lat="47.01924" lon="8.89005">
        <ele>1251</ele>
        <time>2021-08-03T10:02:19.339Z</time>
      </trkpt>
      <trkpt lat="47.01924" lon="8.89005">
        <ele>1251</ele>
        <time>2021-08-03T10:02:20.340Z</time>
      </trkpt>
      <trkpt lat="47.01924" lon="8.89004">
        <ele>1251</ele>
        <time>2021-08-03T10:02:21.339Z</time>
      </trkpt>
      <trkpt lat="47.01924" lon="8.89003">
        <ele>1251</ele>
        <time>2021-08-03T10:02:22.339Z</time>
      </trkpt>
      <trkpt lat="47.01925" lon="8.89001">
        <ele>1251</ele>
        <time>2021-08-03T10:02:23.339Z</time>
      </trkpt>
      <trkpt lat="47.01926" lon="8.88999">
        <ele>1250</ele>
        <time>2021-08-03T10:02:24.339Z</time>
      </trkpt>
      <trkpt lat="47.01925" lon="8.88997">
        <ele>1250</ele>
        <time>2021-08-03T10:02:25.339Z</time>
      </trkpt>
      <trkpt lat="47.01925" lon="8.88996">
        <ele>1250</ele>
        <time>2021-08-03T10:02:26.339Z</time>
      </trkpt>
      <trkpt lat="47.01924" lon="8.88995">
        <ele>1250</ele>
        <time>2021-08-03T10:02:27.340Z</time>
      </trkpt>
      <trkpt lat="47.01924" lon="8.88994">
        <ele>1249</ele>
        <time>2021-08-03T10:02:28.339Z</time>
      </trkpt>
      <trkpt lat="47.01924" lon="8.88993">
        <ele>1248</ele>
        <time>2021-08-03T10:02:29.339Z</time>
      </trkpt>
      <trkpt lat="47.01923" lon="8.88993">
        <ele>1247</ele>
        <time>2021-08-03T10:02:30.339Z</time>
      </trkpt>
      <trkpt lat="47.01923" lon="8.88992">
        <ele>1247</ele>
        <time>2021-08-03T10:02:31.340Z</time>
      </trkpt>
      <trkpt lat="47.01922" lon="8.88991">
        <ele>1246</ele>
        <time>2021-08-03T10:02:32.339Z</time>
      </trkpt>
      <trkpt lat="47.01922" lon="8.8899">
        <ele>1246</ele>
        <time>2021-08-03T10:02:33.339Z</time>
      </trkpt>
      <trkpt lat="47.01922" lon="8.8899">
        <ele>1246</ele>
        <time>2021-08-03T10:02:34.339Z</time>
      </trkpt>
      <trkpt lat="47.01922" lon="8.88989">
        <ele>1246</ele>
        <time>2021-08-03T10:02:35.340Z</time>
      </trkpt>
      <trkpt lat="47.01922" lon="8.88989">
        <ele>1247</ele>
        <time>2021-08-03T10:02:36.340Z</time>
      </trkpt>
      <trkpt lat="47.01922" lon="8.88989">
        <ele>1247</ele>
        <time>2021-08-03T10:02:37.339Z</time>
      </trkpt>
      <trkpt lat="47.01923" lon="8.88986">
        <ele>1250</ele>
        <time>2021-08-03T10:02:38.341Z</time>
      </trkpt>
      <trkpt lat="47.01923" lon="8.88986">
        <ele>1250</ele>
        <time>2021-08-03T10:02:39.340Z</time>
      </trkpt>
      <trkpt lat="47.01922" lon="8.88986">
        <ele>1250</ele>
        <time>2021-08-03T10:02:40.340Z</time>
      </trkpt>
      <trkpt lat="47.01922" lon="8.88986">
        <ele>1250</ele>
        <time>2021-08-03T10:02:41.341Z</time>
      </trkpt>
      <trkpt lat="47.01921" lon="8.88985">
        <ele>1251</ele>
        <time>2021-08-03T10:02:42.341Z</time>
      </trkpt>
      <trkpt lat="47.01921" lon="8.88986">
        <ele>1251</ele>
        <time>2021-08-03T10:02:43.341Z</time>
      </trkpt>
      <trkpt lat="47.01921" lon="8.88986">
        <ele>1251</ele>
        <time>2021-08-03T10:02:44.341Z</time>
      </trkpt>
      <trkpt lat="47.01921" lon="8.88986">
        <ele>1252</ele>
        <time>2021-08-03T10:02:45.340Z</time>
      </trkpt>
      <trkpt lat="47.01921" lon="8.88986">
        <ele>1252</ele>
        <time>2021-08-03T10:02:46.340Z</time>
      </trkpt>
      <trkpt lat="47.01917" lon="8.88988">
        <ele>1252</ele>
        <time>2021-08-03T10:02:47.341Z</time>
      </trkpt>
      <trkpt lat="47.01918" lon="8.88987">
        <ele>1253</ele>
        <time>2021-08-03T10:02:48.341Z</time>
      </trkpt>
      <trkpt lat="47.01918" lon="8.88987">
        <ele>1253</ele>
        <time>2021-08-03T10:02:49.340Z</time>
      </trkpt>
      <trkpt lat="47.01919" lon="8.88985">
        <ele>1254</ele>
        <time>2021-08-03T10:02:50.341Z</time>
      </trkpt>
      <trkpt lat="47.0192" lon="8.88983">
        <ele>1255</ele>
        <time>2021-08-03T10:02:51.341Z</time>
      </trkpt>
      <trkpt lat="47.01921" lon="8.88982">
        <ele>1256</ele>
        <time>2021-08-03T10:02:52.341Z</time>
      </trkpt>
      <trkpt lat="47.01922" lon="8.8898">
        <ele>1257</ele>
        <time>2021-08-03T10:02:53.341Z</time>
      </trkpt>
      <trkpt lat="47.01922" lon="8.8898">
        <ele>1257</ele>
        <time>2021-08-03T10:02:54.340Z</time>
      </trkpt>
      <trkpt lat="47.01922" lon="8.88979">
        <ele>1258</ele>
        <time>2021-08-03T10:02:55.341Z</time>
      </trkpt>
      <trkpt lat="47.01922" lon="8.88979">
        <ele>1258</ele>
        <time>2021-08-03T10:02:56.341Z</time>
      </trkpt>
      <trkpt lat="47.01922" lon="8.88978">
        <ele>1259</ele>
        <time>2021-08-03T10:02:57.341Z</time>
      </trkpt>
      <trkpt lat="47.01922" lon="8.88978">
        <ele>1259</ele>
        <time>2021-08-03T10:02:58.340Z</time>
      </trkpt>
      <trkpt lat="47.01922" lon="8.88977">
        <ele>1260</ele>
        <time>2021-08-03T10:02:59.340Z</time>
      </trkpt>
      <trkpt lat="47.01922" lon="8.88975">
        <ele>1260</ele>
        <time>2021-08-03T10:03:00.342Z</time>
      </trkpt>
      <trkpt lat="47.01922" lon="8.88974">
        <ele>1260</ele>
        <time>2021-08-03T10:03:01.342Z</time>
      </trkpt>
      <trkpt lat="47.01922" lon="8.88974">
        <ele>1261</ele>
        <time>2021-08-03T10:03:02.341Z</time>
      </trkpt>
      <trkpt lat="47.01923" lon="8.88972">
        <ele>1261</ele>
        <time>2021-08-03T10:03:03.341Z</time>
      </trkpt>
      <trkpt lat="47.01924" lon="8.88971">
        <ele>1261</ele>
        <time>2021-08-03T10:03:04.342Z</time>
      </trkpt>
      <trkpt lat="47.01925" lon="8.88969">
        <ele>1261</ele>
        <time>2021-08-03T10:03:05.341Z</time>
      </trkpt>
      <trkpt lat="47.01925" lon="8.88966">
        <ele>1262</ele>
        <time>2021-08-03T10:03:06.342Z</time>
      </trkpt>
      <trkpt lat="47.01925" lon="8.88964">
        <ele>1262</ele>
        <time>2021-08-03T10:03:07.342Z</time>
      </trkpt>
      <trkpt lat="47.01926" lon="8.88962">
        <ele>1262</ele>
        <time>2021-08-03T10:03:08.341Z</time>
      </trkpt>
      <trkpt lat="47.01926" lon="8.88961">
        <ele>1262</ele>
        <time>2021-08-03T10:03:09.342Z</time>
      </trkpt>
      <trkpt lat="47.01925" lon="8.8896">
        <ele>1262</ele>
        <time>2021-08-03T10:03:10.341Z</time>
      </trkpt>
      <trkpt lat="47.01925" lon="8.88958">
        <ele>1262</ele>
        <time>2021-08-03T10:03:11.341Z</time>
      </trkpt>
      <trkpt lat="47.01924" lon="8.88956">
        <ele>1262</ele>
        <time>2021-08-03T10:03:12.341Z</time>
      </trkpt>
      <trkpt lat="47.01924" lon="8.88954">
        <ele>1261</ele>
        <time>2021-08-03T10:03:13.341Z</time>
      </trkpt>
      <trkpt lat="47.01924" lon="8.88952">
        <ele>1261</ele>
        <time>2021-08-03T10:03:14.342Z</time>
      </trkpt>
      <trkpt lat="47.01924" lon="8.88949">
        <ele>1261</ele>
        <time>2021-08-03T10:03:15.341Z</time>
      </trkpt>
      <trkpt lat="47.01925" lon="8.88947">
        <ele>1260</ele>
        <time>2021-08-03T10:03:16.342Z</time>
      </trkpt>
      <trkpt lat="47.01925" lon="8.88946">
        <ele>1260</ele>
        <time>2021-08-03T10:03:17.342Z</time>
      </trkpt>
      <trkpt lat="47.01925" lon="8.88945">
        <ele>1260</ele>
        <time>2021-08-03T10:03:18.342Z</time>
      </trkpt>
      <trkpt lat="47.01925" lon="8.88943">
        <ele>1260</ele>
        <time>2021-08-03T10:03:19.342Z</time>
      </trkpt>
      <trkpt lat="47.01925" lon="8.88942">
        <ele>1260</ele>
        <time>2021-08-03T10:03:20.342Z</time>
      </trkpt>
      <trkpt lat="47.01925" lon="8.88941">
        <ele>1260</ele>
        <time>2021-08-03T10:03:21.342Z</time>
      </trkpt>
      <trkpt lat="47.01925" lon="8.88939">
        <ele>1260</ele>
        <time>2021-08-03T10:03:22.342Z</time>
      </trkpt>
      <trkpt lat="47.01926" lon="8.88937">
        <ele>1259</ele>
        <time>2021-08-03T10:03:23.342Z</time>
      </trkpt>
      <trkpt lat="47.01927" lon="8.88935">
        <ele>1259</ele>
        <time>2021-08-03T10:03:24.342Z</time>
      </trkpt>
      <trkpt lat="47.01928" lon="8.88933">
        <ele>1259</ele>
        <time>2021-08-03T10:03:25.342Z</time>
      </trkpt>
      <trkpt lat="47.0193" lon="8.88931">
        <ele>1259</ele>
        <time>2021-08-03T10:03:26.342Z</time>
      </trkpt>
      <trkpt lat="47.0193" lon="8.88929">
        <ele>1259</ele>
        <time>2021-08-03T10:03:27.342Z</time>
      </trkpt>
      <trkpt lat="47.01931" lon="8.88928">
        <ele>1259</ele>
        <time>2021-08-03T10:03:28.341Z</time>
      </trkpt>
      <trkpt lat="47.01931" lon="8.88926">
        <ele>1259</ele>
        <time>2021-08-03T10:03:29.342Z</time>
      </trkpt>
      <trkpt lat="47.01931" lon="8.88925">
        <ele>1259</ele>
        <time>2021-08-03T10:03:30.342Z</time>
      </trkpt>
      <trkpt lat="47.01931" lon="8.88923">
        <ele>1258</ele>
        <time>2021-08-03T10:03:31.342Z</time>
      </trkpt>
      <trkpt lat="47.01931" lon="8.88922">
        <ele>1258</ele>
        <time>2021-08-03T10:03:32.342Z</time>
      </trkpt>
      <trkpt lat="47.01932" lon="8.88921">
        <ele>1257</ele>
        <time>2021-08-03T10:03:33.342Z</time>
      </trkpt>
      <trkpt lat="47.01932" lon="8.8892">
        <ele>1257</ele>
        <time>2021-08-03T10:03:34.342Z</time>
      </trkpt>
      <trkpt lat="47.01933" lon="8.88919">
        <ele>1256</ele>
        <time>2021-08-03T10:03:35.342Z</time>
      </trkpt>
      <trkpt lat="47.01934" lon="8.88918">
        <ele>1256</ele>
        <time>2021-08-03T10:03:36.342Z</time>
      </trkpt>
      <trkpt lat="47.01935" lon="8.88917">
        <ele>1256</ele>
        <time>2021-08-03T10:03:37.341Z</time>
      </trkpt>
      <trkpt lat="47.01936" lon="8.88915">
        <ele>1256</ele>
        <time>2021-08-03T10:03:38.341Z</time>
      </trkpt>
      <trkpt lat="47.01937" lon="8.88913">
        <ele>1255</ele>
        <time>2021-08-03T10:03:39.341Z</time>
      </trkpt>
      <trkpt lat="47.01937" lon="8.88912">
        <ele>1255</ele>
        <time>2021-08-03T10:03:40.341Z</time>
      </trkpt>
      <trkpt lat="47.01937" lon="8.8891">
        <ele>1254</ele>
        <time>2021-08-03T10:03:41.341Z</time>
      </trkpt>
      <trkpt lat="47.01937" lon="8.88909">
        <ele>1253</ele>
        <time>2021-08-03T10:03:42.341Z</time>
      </trkpt>
      <trkpt lat="47.01937" lon="8.88907">
        <ele>1253</ele>
        <time>2021-08-03T10:03:43.341Z</time>
      </trkpt>
      <trkpt lat="47.01938" lon="8.88906">
        <ele>1252</ele>
        <time>2021-08-03T10:03:44.341Z</time>
      </trkpt>
      <trkpt lat="47.01939" lon="8.88905">
        <ele>1252</ele>
        <time>2021-08-03T10:03:45.341Z</time>
      </trkpt>
      <trkpt lat="47.0194" lon="8.88904">
        <ele>1252</ele>
        <time>2021-08-03T10:03:46.341Z</time>
      </trkpt>
      <trkpt lat="47.0194" lon="8.88902">
        <ele>1252</ele>
        <time>2021-08-03T10:03:47.342Z</time>
      </trkpt>
      <trkpt lat="47.0194" lon="8.889">
        <ele>1252</ele>
        <time>2021-08-03T10:03:48.341Z</time>
      </trkpt>
      <trkpt lat="47.01941" lon="8.88898">
        <ele>1251</ele>
        <time>2021-08-03T10:03:49.341Z</time>
      </trkpt>
      <trkpt lat="47.01941" lon="8.88897">
        <ele>1251</ele>
        <time>2021-08-03T10:03:50.341Z</time>
      </trkpt>
      <trkpt lat="47.01941" lon="8.88896">
        <ele>1251</ele>
        <time>2021-08-03T10:03:51.341Z</time>
      </trkpt>
      <trkpt lat="47.0194" lon="8.88895">
        <ele>1251</ele>
        <time>2021-08-03T10:03:52.341Z</time>
      </trkpt>
      <trkpt lat="47.0194" lon="8.88893">
        <ele>1251</ele>
        <time>2021-08-03T10:03:53.341Z</time>
      </trkpt>
      <trkpt lat="47.0194" lon="8.88892">
        <ele>1251</ele>
        <time>2021-08-03T10:03:54.341Z</time>
      </trkpt>
      <trkpt lat="47.0194" lon="8.88891">
        <ele>1251</ele>
        <time>2021-08-03T10:03:55.341Z</time>
      </trkpt>
      <trkpt lat="47.0194" lon="8.88889">
        <ele>1251</ele>
        <time>2021-08-03T10:03:56.341Z</time>
      </trkpt>
      <trkpt lat="47.01939" lon="8.88888">
        <ele>1251</ele>
        <time>2021-08-03T10:03:57.341Z</time>
      </trkpt>
      <trkpt lat="47.01939" lon="8.88887">
        <ele>1251</ele>
        <time>2021-08-03T10:03:58.342Z</time>
      </trkpt>
      <trkpt lat="47.0194" lon="8.88886">
        <ele>1251</ele>
        <time>2021-08-03T10:03:59.342Z</time>
      </trkpt>
      <trkpt lat="47.01941" lon="8.88884">
        <ele>1251</ele>
        <time>2021-08-03T10:04:00.342Z</time>
      </trkpt>
      <trkpt lat="47.01941" lon="8.88882">
        <ele>1251</ele>
        <time>2021-08-03T10:04:01.342Z</time>
      </trkpt>
      <trkpt lat="47.01942" lon="8.88881">
        <ele>1251</ele>
        <time>2021-08-03T10:04:02.341Z</time>
      </trkpt>
      <trkpt lat="47.01942" lon="8.88879">
        <ele>1251</ele>
        <time>2021-08-03T10:04:03.342Z</time>
      </trkpt>
      <trkpt lat="47.01943" lon="8.88877">
        <ele>1251</ele>
        <time>2021-08-03T10:04:04.341Z</time>
      </trkpt>
      <trkpt lat="47.01944" lon="8.88876">
        <ele>1251</ele>
        <time>2021-08-03T10:04:05.341Z</time>
      </trkpt>
      <trkpt lat="47.01945" lon="8.88874">
        <ele>1252</ele>
        <time>2021-08-03T10:04:06.342Z</time>
      </trkpt>
      <trkpt lat="47.01945" lon="8.88873">
        <ele>1252</ele>
        <time>2021-08-03T10:04:07.342Z</time>
      </trkpt>
      <trkpt lat="47.01946" lon="8.88872">
        <ele>1252</ele>
        <time>2021-08-03T10:04:08.342Z</time>
      </trkpt>
      <trkpt lat="47.01946" lon="8.88871">
        <ele>1252</ele>
        <time>2021-08-03T10:04:09.342Z</time>
      </trkpt>
      <trkpt lat="47.01947" lon="8.8887">
        <ele>1252</ele>
        <time>2021-08-03T10:04:10.341Z</time>
      </trkpt>
      <trkpt lat="47.01946" lon="8.88869">
        <ele>1252</ele>
        <time>2021-08-03T10:04:11.341Z</time>
      </trkpt>
      <trkpt lat="47.01946" lon="8.88867">
        <ele>1252</ele>
        <time>2021-08-03T10:04:12.341Z</time>
      </trkpt>
      <trkpt lat="47.01946" lon="8.88866">
        <ele>1252</ele>
        <time>2021-08-03T10:04:13.342Z</time>
      </trkpt>
      <trkpt lat="47.01946" lon="8.88866">
        <ele>1253</ele>
        <time>2021-08-03T10:04:14.342Z</time>
      </trkpt>
      <trkpt lat="47.01947" lon="8.88865">
        <ele>1254</ele>
        <time>2021-08-03T10:04:15.341Z</time>
      </trkpt>
      <trkpt lat="47.01947" lon="8.88864">
        <ele>1254</ele>
        <time>2021-08-03T10:04:16.342Z</time>
      </trkpt>
      <trkpt lat="47.01948" lon="8.88863">
        <ele>1255</ele>
        <time>2021-08-03T10:04:17.341Z</time>
      </trkpt>
      <trkpt lat="47.01949" lon="8.88861">
        <ele>1255</ele>
        <time>2021-08-03T10:04:18.342Z</time>
      </trkpt>
      <trkpt lat="47.01949" lon="8.8886">
        <ele>1256</ele>
        <time>2021-08-03T10:04:19.342Z</time>
      </trkpt>
      <trkpt lat="47.01949" lon="8.88859">
        <ele>1256</ele>
        <time>2021-08-03T10:04:20.342Z</time>
      </trkpt>
      <trkpt lat="47.01949" lon="8.88858">
        <ele>1256</ele>
        <time>2021-08-03T10:04:21.342Z</time>
      </trkpt>
      <trkpt lat="47.01949" lon="8.88857">
        <ele>1257</ele>
        <time>2021-08-03T10:04:22.341Z</time>
      </trkpt>
      <trkpt lat="47.01949" lon="8.88857">
        <ele>1257</ele>
        <time>2021-08-03T10:04:23.342Z</time>
      </trkpt>
      <trkpt lat="47.01949" lon="8.88856">
        <ele>1257</ele>
        <time>2021-08-03T10:04:24.342Z</time>
      </trkpt>
      <trkpt lat="47.01949" lon="8.88856">
        <ele>1258</ele>
        <time>2021-08-03T10:04:25.341Z</time>
      </trkpt>
      <trkpt lat="47.01949" lon="8.88855">
        <ele>1258</ele>
        <time>2021-08-03T10:04:26.342Z</time>
      </trkpt>
      <trkpt lat="47.0195" lon="8.88854">
        <ele>1258</ele>
        <time>2021-08-03T10:04:27.342Z</time>
      </trkpt>
      <trkpt lat="47.0195" lon="8.88853">
        <ele>1258</ele>
        <time>2021-08-03T10:04:28.342Z</time>
      </trkpt>
      <trkpt lat="47.01951" lon="8.88852">
        <ele>1258</ele>
        <time>2021-08-03T10:04:29.342Z</time>
      </trkpt>
      <trkpt lat="47.01951" lon="8.8885">
        <ele>1258</ele>
        <time>2021-08-03T10:04:30.341Z</time>
      </trkpt>
      <trkpt lat="47.01952" lon="8.88848">
        <ele>1258</ele>
        <time>2021-08-03T10:04:31.341Z</time>
      </trkpt>
      <trkpt lat="47.01952" lon="8.88847">
        <ele>1258</ele>
        <time>2021-08-03T10:04:32.342Z</time>
      </trkpt>
      <trkpt lat="47.01952" lon="8.88846">
        <ele>1258</ele>
        <time>2021-08-03T10:04:33.341Z</time>
      </trkpt>
      <trkpt lat="47.01952" lon="8.88846">
        <ele>1258</ele>
        <time>2021-08-03T10:04:34.342Z</time>
      </trkpt>
      <trkpt lat="47.01952" lon="8.88845">
        <ele>1258</ele>
        <time>2021-08-03T10:04:35.341Z</time>
      </trkpt>
      <trkpt lat="47.01953" lon="8.88844">
        <ele>1258</ele>
        <time>2021-08-03T10:04:36.341Z</time>
      </trkpt>
      <trkpt lat="47.01953" lon="8.88843">
        <ele>1258</ele>
        <time>2021-08-03T10:04:37.342Z</time>
      </trkpt>
      <trkpt lat="47.01954" lon="8.88842">
        <ele>1258</ele>
        <time>2021-08-03T10:04:38.341Z</time>
      </trkpt>
      <trkpt lat="47.01954" lon="8.88841">
        <ele>1258</ele>
        <time>2021-08-03T10:04:39.341Z</time>
      </trkpt>
      <trkpt lat="47.01953" lon="8.88841">
        <ele>1258</ele>
        <time>2021-08-03T10:04:40.342Z</time>
      </trkpt>
      <trkpt lat="47.01953" lon="8.8884">
        <ele>1258</ele>
        <time>2021-08-03T10:04:41.341Z</time>
      </trkpt>
      <trkpt lat="47.01953" lon="8.88839">
        <ele>1258</ele>
        <time>2021-08-03T10:04:42.341Z</time>
      </trkpt>
      <trkpt lat="47.01954" lon="8.88838">
        <ele>1258</ele>
        <time>2021-08-03T10:04:43.342Z</time>
      </trkpt>
      <trkpt lat="47.01954" lon="8.88837">
        <ele>1257</ele>
        <time>2021-08-03T10:04:44.342Z</time>
      </trkpt>
      <trkpt lat="47.01954" lon="8.88837">
        <ele>1257</ele>
        <time>2021-08-03T10:04:45.342Z</time>
      </trkpt>
      <trkpt lat="47.01955" lon="8.88836">
        <ele>1257</ele>
        <time>2021-08-03T10:04:46.342Z</time>
      </trkpt>
      <trkpt lat="47.01955" lon="8.88835">
        <ele>1257</ele>
        <time>2021-08-03T10:04:47.341Z</time>
      </trkpt>
      <trkpt lat="47.01956" lon="8.88833">
        <ele>1257</ele>
        <time>2021-08-03T10:04:48.342Z</time>
      </trkpt>
      <trkpt lat="47.01956" lon="8.88832">
        <ele>1257</ele>
        <time>2021-08-03T10:04:49.342Z</time>
      </trkpt>
      <trkpt lat="47.01956" lon="8.88832">
        <ele>1257</ele>
        <time>2021-08-03T10:04:50.342Z</time>
      </trkpt>
      <trkpt lat="47.01956" lon="8.88831">
        <ele>1257</ele>
        <time>2021-08-03T10:04:51.342Z</time>
      </trkpt>
      <trkpt lat="47.01956" lon="8.8883">
        <ele>1257</ele>
        <time>2021-08-03T10:04:52.341Z</time>
      </trkpt>
      <trkpt lat="47.01957" lon="8.8883">
        <ele>1258</ele>
        <time>2021-08-03T10:04:53.342Z</time>
      </trkpt>
      <trkpt lat="47.01957" lon="8.88828">
        <ele>1258</ele>
        <time>2021-08-03T10:04:54.342Z</time>
      </trkpt>
      <trkpt lat="47.01958" lon="8.88827">
        <ele>1258</ele>
        <time>2021-08-03T10:04:55.341Z</time>
      </trkpt>
      <trkpt lat="47.01958" lon="8.88826">
        <ele>1259</ele>
        <time>2021-08-03T10:04:56.342Z</time>
      </trkpt>
      <trkpt lat="47.01958" lon="8.88825">
        <ele>1259</ele>
        <time>2021-08-03T10:04:57.342Z</time>
      </trkpt>
      <trkpt lat="47.01959" lon="8.88823">
        <ele>1259</ele>
        <time>2021-08-03T10:04:58.342Z</time>
      </trkpt>
      <trkpt lat="47.01959" lon="8.88823">
        <ele>1259</ele>
        <time>2021-08-03T10:04:59.342Z</time>
      </trkpt>
      <trkpt lat="47.01959" lon="8.88822">
        <ele>1259</ele>
        <time>2021-08-03T10:05:00.341Z</time>
      </trkpt>
      <trkpt lat="47.0196" lon="8.88821">
        <ele>1259</ele>
        <time>2021-08-03T10:05:01.342Z</time>
      </trkpt>
      <trkpt lat="47.0196" lon="8.88821">
        <ele>1259</ele>
        <time>2021-08-03T10:05:02.341Z</time>
      </trkpt>
      <trkpt lat="47.01959" lon="8.8882">
        <ele>1259</ele>
        <time>2021-08-03T10:05:03.343Z</time>
      </trkpt>
      <trkpt lat="47.01958" lon="8.8882">
        <ele>1259</ele>
        <time>2021-08-03T10:05:04.343Z</time>
      </trkpt>
      <trkpt lat="47.01958" lon="8.8882">
        <ele>1259</ele>
        <time>2021-08-03T10:05:05.343Z</time>
      </trkpt>
      <trkpt lat="47.01958" lon="8.8882">
        <ele>1259</ele>
        <time>2021-08-03T10:05:06.343Z</time>
      </trkpt>
      <trkpt lat="47.01958" lon="8.8882">
        <ele>1257</ele>
        <time>2021-08-03T10:05:07.344Z</time>
      </trkpt>
      <trkpt lat="47.01958" lon="8.8882">
        <ele>1258</ele>
        <time>2021-08-03T10:05:08.344Z</time>
      </trkpt>
      <trkpt lat="47.01958" lon="8.8882">
        <ele>1260</ele>
        <time>2021-08-03T10:05:09.343Z</time>
      </trkpt>
      <trkpt lat="47.01957" lon="8.8882">
        <ele>1260</ele>
        <time>2021-08-03T10:05:10.343Z</time>
      </trkpt>
      <trkpt lat="47.01957" lon="8.88823">
        <ele>1256</ele>
        <time>2021-08-03T10:05:11.343Z</time>
      </trkpt>
      <trkpt lat="47.01957" lon="8.88822">
        <ele>1255</ele>
        <time>2021-08-03T10:05:12.344Z</time>
      </trkpt>
      <trkpt lat="47.01957" lon="8.88821">
        <ele>1255</ele>
        <time>2021-08-03T10:05:13.343Z</time>
      </trkpt>
      <trkpt lat="47.01957" lon="8.88821">
        <ele>1255</ele>
        <time>2021-08-03T10:05:14.344Z</time>
      </trkpt>
      <trkpt lat="47.01958" lon="8.8882">
        <ele>1255</ele>
        <time>2021-08-03T10:05:15.343Z</time>
      </trkpt>
      <trkpt lat="47.01959" lon="8.88819">
        <ele>1255</ele>
        <time>2021-08-03T10:05:16.344Z</time>
      </trkpt>
      <trkpt lat="47.01959" lon="8.88817">
        <ele>1255</ele>
        <time>2021-08-03T10:05:17.343Z</time>
      </trkpt>
      <trkpt lat="47.01959" lon="8.88816">
        <ele>1255</ele>
        <time>2021-08-03T10:05:18.343Z</time>
      </trkpt>
      <trkpt lat="47.01959" lon="8.88815">
        <ele>1255</ele>
        <time>2021-08-03T10:05:19.343Z</time>
      </trkpt>
      <trkpt lat="47.01959" lon="8.88815">
        <ele>1255</ele>
        <time>2021-08-03T10:05:20.343Z</time>
      </trkpt>
      <trkpt lat="47.0196" lon="8.88814">
        <ele>1255</ele>
        <time>2021-08-03T10:05:21.343Z</time>
      </trkpt>
      <trkpt lat="47.01961" lon="8.88813">
        <ele>1256</ele>
        <time>2021-08-03T10:05:22.344Z</time>
      </trkpt>
      <trkpt lat="47.01962" lon="8.88812">
        <ele>1256</ele>
        <time>2021-08-03T10:05:23.343Z</time>
      </trkpt>
      <trkpt lat="47.01962" lon="8.88811">
        <ele>1256</ele>
        <time>2021-08-03T10:05:24.343Z</time>
      </trkpt>
      <trkpt lat="47.01963" lon="8.8881">
        <ele>1257</ele>
        <time>2021-08-03T10:05:25.343Z</time>
      </trkpt>
      <trkpt lat="47.01963" lon="8.88809">
        <ele>1258</ele>
        <time>2021-08-03T10:05:26.343Z</time>
      </trkpt>
      <trkpt lat="47.01963" lon="8.88808">
        <ele>1258</ele>
        <time>2021-08-03T10:05:27.344Z</time>
      </trkpt>
      <trkpt lat="47.01963" lon="8.88808">
        <ele>1259</ele>
        <time>2021-08-03T10:05:28.344Z</time>
      </trkpt>
      <trkpt lat="47.01964" lon="8.88807">
        <ele>1261</ele>
        <time>2021-08-03T10:05:29.343Z</time>
      </trkpt>
      <trkpt lat="47.01964" lon="8.88806">
        <ele>1262</ele>
        <time>2021-08-03T10:05:30.343Z</time>
      </trkpt>
      <trkpt lat="47.01964" lon="8.88805">
        <ele>1264</ele>
        <time>2021-08-03T10:05:31.344Z</time>
      </trkpt>
      <trkpt lat="47.01965" lon="8.88804">
        <ele>1265</ele>
        <time>2021-08-03T10:05:32.343Z</time>
      </trkpt>
      <trkpt lat="47.01966" lon="8.88804">
        <ele>1266</ele>
        <time>2021-08-03T10:05:33.344Z</time>
      </trkpt>
      <trkpt lat="47.01966" lon="8.88804">
        <ele>1267</ele>
        <time>2021-08-03T10:05:34.344Z</time>
      </trkpt>
      <trkpt lat="47.01967" lon="8.88803">
        <ele>1268</ele>
        <time>2021-08-03T10:05:35.344Z</time>
      </trkpt>
      <trkpt lat="47.01967" lon="8.88803">
        <ele>1270</ele>
        <time>2021-08-03T10:05:36.344Z</time>
      </trkpt>
      <trkpt lat="47.01968" lon="8.88804">
        <ele>1271</ele>
        <time>2021-08-03T10:05:37.343Z</time>
      </trkpt>
      <trkpt lat="47.01968" lon="8.88803">
        <ele>1272</ele>
        <time>2021-08-03T10:05:38.344Z</time>
      </trkpt>
      <trkpt lat="47.01969" lon="8.88802">
        <ele>1273</ele>
        <time>2021-08-03T10:05:39.344Z</time>
      </trkpt>
      <trkpt lat="47.01969" lon="8.88801">
        <ele>1274</ele>
        <time>2021-08-03T10:05:40.343Z</time>
      </trkpt>
      <trkpt lat="47.01969" lon="8.888">
        <ele>1274</ele>
        <time>2021-08-03T10:05:41.343Z</time>
      </trkpt>
      <trkpt lat="47.01969" lon="8.88799">
        <ele>1274</ele>
        <time>2021-08-03T10:05:42.344Z</time>
      </trkpt>
      <trkpt lat="47.0197" lon="8.88799">
        <ele>1274</ele>
        <time>2021-08-03T10:05:43.344Z</time>
      </trkpt>
      <trkpt lat="47.01971" lon="8.88799">
        <ele>1273</ele>
        <time>2021-08-03T10:05:44.344Z</time>
      </trkpt>
      <trkpt lat="47.01972" lon="8.88799">
        <ele>1273</ele>
        <time>2021-08-03T10:05:45.344Z</time>
      </trkpt>
      <trkpt lat="47.01972" lon="8.88798">
        <ele>1273</ele>
        <time>2021-08-03T10:05:46.344Z</time>
      </trkpt>
      <trkpt lat="47.01973" lon="8.88797">
        <ele>1272</ele>
        <time>2021-08-03T10:05:47.345Z</time>
      </trkpt>
      <trkpt lat="47.01973" lon="8.88797">
        <ele>1272</ele>
        <time>2021-08-03T10:05:48.345Z</time>
      </trkpt>
      <trkpt lat="47.01974" lon="8.88797">
        <ele>1271</ele>
        <time>2021-08-03T10:05:49.345Z</time>
      </trkpt>
      <trkpt lat="47.01974" lon="8.88796">
        <ele>1271</ele>
        <time>2021-08-03T10:05:50.344Z</time>
      </trkpt>
      <trkpt lat="47.01975" lon="8.88796">
        <ele>1270</ele>
        <time>2021-08-03T10:05:51.345Z</time>
      </trkpt>
      <trkpt lat="47.01975" lon="8.88795">
        <ele>1270</ele>
        <time>2021-08-03T10:05:52.344Z</time>
      </trkpt>
      <trkpt lat="47.01976" lon="8.88794">
        <ele>1270</ele>
        <time>2021-08-03T10:05:53.345Z</time>
      </trkpt>
      <trkpt lat="47.01977" lon="8.88793">
        <ele>1270</ele>
        <time>2021-08-03T10:05:54.344Z</time>
      </trkpt>
      <trkpt lat="47.01977" lon="8.88792">
        <ele>1270</ele>
        <time>2021-08-03T10:05:55.345Z</time>
      </trkpt>
      <trkpt lat="47.01977" lon="8.88791">
        <ele>1270</ele>
        <time>2021-08-03T10:05:56.344Z</time>
      </trkpt>
      <trkpt lat="47.01978" lon="8.8879">
        <ele>1270</ele>
        <time>2021-08-03T10:05:57.345Z</time>
      </trkpt>
      <trkpt lat="47.01978" lon="8.88789">
        <ele>1270</ele>
        <time>2021-08-03T10:05:58.344Z</time>
      </trkpt>
      <trkpt lat="47.01979" lon="8.88788">
        <ele>1270</ele>
        <time>2021-08-03T10:05:59.344Z</time>
      </trkpt>
      <trkpt lat="47.01979" lon="8.88786">
        <ele>1270</ele>
        <time>2021-08-03T10:06:00.344Z</time>
      </trkpt>
      <trkpt lat="47.0198" lon="8.88785">
        <ele>1271</ele>
        <time>2021-08-03T10:06:01.345Z</time>
      </trkpt>
      <trkpt lat="47.01981" lon="8.88783">
        <ele>1271</ele>
        <time>2021-08-03T10:06:02.344Z</time>
      </trkpt>
      <trkpt lat="47.01982" lon="8.88781">
        <ele>1271</ele>
        <time>2021-08-03T10:06:03.345Z</time>
      </trkpt>
      <trkpt lat="47.01983" lon="8.8878">
        <ele>1272</ele>
        <time>2021-08-03T10:06:04.345Z</time>
      </trkpt>
      <trkpt lat="47.01984" lon="8.8878">
        <ele>1272</ele>
        <time>2021-08-03T10:06:05.345Z</time>
      </trkpt>
      <trkpt lat="47.01985" lon="8.8878">
        <ele>1272</ele>
        <time>2021-08-03T10:06:06.344Z</time>
      </trkpt>
      <trkpt lat="47.01986" lon="8.88779">
        <ele>1273</ele>
        <time>2021-08-03T10:06:07.345Z</time>
      </trkpt>
      <trkpt lat="47.01987" lon="8.88778">
        <ele>1273</ele>
        <time>2021-08-03T10:06:08.345Z</time>
      </trkpt>
      <trkpt lat="47.01988" lon="8.88778">
        <ele>1274</ele>
        <time>2021-08-03T10:06:09.344Z</time>
      </trkpt>
      <trkpt lat="47.01989" lon="8.88777">
        <ele>1275</ele>
        <time>2021-08-03T10:06:10.345Z</time>
      </trkpt>
      <trkpt lat="47.01989" lon="8.88777">
        <ele>1275</ele>
        <time>2021-08-03T10:06:11.344Z</time>
      </trkpt>
      <trkpt lat="47.01989" lon="8.88776">
        <ele>1276</ele>
        <time>2021-08-03T10:06:12.344Z</time>
      </trkpt>
      <trkpt lat="47.01989" lon="8.88775">
        <ele>1276</ele>
        <time>2021-08-03T10:06:13.344Z</time>
      </trkpt>
      <trkpt lat="47.0199" lon="8.88774">
        <ele>1276</ele>
        <time>2021-08-03T10:06:14.344Z</time>
      </trkpt>
      <trkpt lat="47.01991" lon="8.88773">
        <ele>1276</ele>
        <time>2021-08-03T10:06:15.345Z</time>
      </trkpt>
      <trkpt lat="47.01991" lon="8.88772">
        <ele>1276</ele>
        <time>2021-08-03T10:06:16.345Z</time>
      </trkpt>
      <trkpt lat="47.01992" lon="8.88771">
        <ele>1276</ele>
        <time>2021-08-03T10:06:17.345Z</time>
      </trkpt>
      <trkpt lat="47.01993" lon="8.88771">
        <ele>1277</ele>
        <time>2021-08-03T10:06:18.344Z</time>
      </trkpt>
      <trkpt lat="47.01994" lon="8.88771">
        <ele>1277</ele>
        <time>2021-08-03T10:06:19.344Z</time>
      </trkpt>
      <trkpt lat="47.01994" lon="8.8877">
        <ele>1278</ele>
        <time>2021-08-03T10:06:20.344Z</time>
      </trkpt>
      <trkpt lat="47.01994" lon="8.88769">
        <ele>1278</ele>
        <time>2021-08-03T10:06:21.344Z</time>
      </trkpt>
      <trkpt lat="47.01994" lon="8.88767">
        <ele>1278</ele>
        <time>2021-08-03T10:06:22.344Z</time>
      </trkpt>
      <trkpt lat="47.01994" lon="8.88765">
        <ele>1278</ele>
        <time>2021-08-03T10:06:23.344Z</time>
      </trkpt>
      <trkpt lat="47.01993" lon="8.88764">
        <ele>1278</ele>
        <time>2021-08-03T10:06:24.344Z</time>
      </trkpt>
      <trkpt lat="47.01994" lon="8.88763">
        <ele>1278</ele>
        <time>2021-08-03T10:06:25.345Z</time>
      </trkpt>
      <trkpt lat="47.01994" lon="8.88762">
        <ele>1278</ele>
        <time>2021-08-03T10:06:26.344Z</time>
      </trkpt>
      <trkpt lat="47.01993" lon="8.88761">
        <ele>1278</ele>
        <time>2021-08-03T10:06:27.344Z</time>
      </trkpt>
      <trkpt lat="47.01993" lon="8.8876">
        <ele>1277</ele>
        <time>2021-08-03T10:06:28.344Z</time>
      </trkpt>
      <trkpt lat="47.01993" lon="8.88759">
        <ele>1277</ele>
        <time>2021-08-03T10:06:29.344Z</time>
      </trkpt>
      <trkpt lat="47.01992" lon="8.88759">
        <ele>1277</ele>
        <time>2021-08-03T10:06:30.344Z</time>
      </trkpt>
      <trkpt lat="47.01993" lon="8.88758">
        <ele>1277</ele>
        <time>2021-08-03T10:06:31.344Z</time>
      </trkpt>
      <trkpt lat="47.01994" lon="8.88757">
        <ele>1276</ele>
        <time>2021-08-03T10:06:32.344Z</time>
      </trkpt>
      <trkpt lat="47.01994" lon="8.88756">
        <ele>1276</ele>
        <time>2021-08-03T10:06:33.344Z</time>
      </trkpt>
      <trkpt lat="47.01994" lon="8.88755">
        <ele>1276</ele>
        <time>2021-08-03T10:06:34.345Z</time>
      </trkpt>
      <trkpt lat="47.01994" lon="8.88754">
        <ele>1276</ele>
        <time>2021-08-03T10:06:35.344Z</time>
      </trkpt>
      <trkpt lat="47.01994" lon="8.88753">
        <ele>1276</ele>
        <time>2021-08-03T10:06:36.344Z</time>
      </trkpt>
      <trkpt lat="47.01994" lon="8.88753">
        <ele>1276</ele>
        <time>2021-08-03T10:06:37.344Z</time>
      </trkpt>
      <trkpt lat="47.01994" lon="8.88752">
        <ele>1277</ele>
        <time>2021-08-03T10:06:38.345Z</time>
      </trkpt>
      <trkpt lat="47.01994" lon="8.88751">
        <ele>1277</ele>
        <time>2021-08-03T10:06:39.344Z</time>
      </trkpt>
      <trkpt lat="47.01994" lon="8.8875">
        <ele>1277</ele>
        <time>2021-08-03T10:06:40.345Z</time>
      </trkpt>
      <trkpt lat="47.01994" lon="8.88749">
        <ele>1277</ele>
        <time>2021-08-03T10:06:41.344Z</time>
      </trkpt>
      <trkpt lat="47.01994" lon="8.88747">
        <ele>1277</ele>
        <time>2021-08-03T10:06:42.345Z</time>
      </trkpt>
      <trkpt lat="47.01994" lon="8.88747">
        <ele>1277</ele>
        <time>2021-08-03T10:06:43.344Z</time>
      </trkpt>
      <trkpt lat="47.01994" lon="8.88746">
        <ele>1277</ele>
        <time>2021-08-03T10:06:44.345Z</time>
      </trkpt>
      <trkpt lat="47.01993" lon="8.88745">
        <ele>1277</ele>
        <time>2021-08-03T10:06:45.345Z</time>
      </trkpt>
      <trkpt lat="47.01992" lon="8.88743">
        <ele>1278</ele>
        <time>2021-08-03T10:06:46.344Z</time>
      </trkpt>
      <trkpt lat="47.01992" lon="8.88742">
        <ele>1278</ele>
        <time>2021-08-03T10:06:47.344Z</time>
      </trkpt>
      <trkpt lat="47.01992" lon="8.88741">
        <ele>1278</ele>
        <time>2021-08-03T10:06:48.345Z</time>
      </trkpt>
      <trkpt lat="47.01992" lon="8.88741">
        <ele>1278</ele>
        <time>2021-08-03T10:06:49.345Z</time>
      </trkpt>
      <trkpt lat="47.01992" lon="8.8874">
        <ele>1277</ele>
        <time>2021-08-03T10:06:50.344Z</time>
      </trkpt>
      <trkpt lat="47.01992" lon="8.88739">
        <ele>1277</ele>
        <time>2021-08-03T10:06:51.344Z</time>
      </trkpt>
      <trkpt lat="47.01992" lon="8.88739">
        <ele>1277</ele>
        <time>2021-08-03T10:06:52.345Z</time>
      </trkpt>
      <trkpt lat="47.01991" lon="8.88738">
        <ele>1277</ele>
        <time>2021-08-03T10:06:53.344Z</time>
      </trkpt>
      <trkpt lat="47.01991" lon="8.88738">
        <ele>1276</ele>
        <time>2021-08-03T10:06:54.344Z</time>
      </trkpt>
      <trkpt lat="47.01991" lon="8.88737">
        <ele>1277</ele>
        <time>2021-08-03T10:06:55.345Z</time>
      </trkpt>
      <trkpt lat="47.0199" lon="8.88737">
        <ele>1277</ele>
        <time>2021-08-03T10:06:56.344Z</time>
      </trkpt>
      <trkpt lat="47.0199" lon="8.88736">
        <ele>1277</ele>
        <time>2021-08-03T10:06:57.345Z</time>
      </trkpt>
      <trkpt lat="47.01991" lon="8.88735">
        <ele>1277</ele>
        <time>2021-08-03T10:06:58.344Z</time>
      </trkpt>
      <trkpt lat="47.01991" lon="8.88734">
        <ele>1277</ele>
        <time>2021-08-03T10:06:59.344Z</time>
      </trkpt>
      <trkpt lat="47.01991" lon="8.88733">
        <ele>1277</ele>
        <time>2021-08-03T10:07:00.344Z</time>
      </trkpt>
      <trkpt lat="47.01991" lon="8.88732">
        <ele>1277</ele>
        <time>2021-08-03T10:07:01.345Z</time>
      </trkpt>
      <trkpt lat="47.01991" lon="8.88732">
        <ele>1276</ele>
        <time>2021-08-03T10:07:02.345Z</time>
      </trkpt>
      <trkpt lat="47.01991" lon="8.88732">
        <ele>1276</ele>
        <time>2021-08-03T10:07:03.344Z</time>
      </trkpt>
      <trkpt lat="47.01992" lon="8.88732">
        <ele>1275</ele>
        <time>2021-08-03T10:07:04.344Z</time>
      </trkpt>
      <trkpt lat="47.01992" lon="8.88731">
        <ele>1275</ele>
        <time>2021-08-03T10:07:05.345Z</time>
      </trkpt>
      <trkpt lat="47.01993" lon="8.88731">
        <ele>1275</ele>
        <time>2021-08-03T10:07:06.344Z</time>
      </trkpt>
      <trkpt lat="47.01993" lon="8.8873">
        <ele>1275</ele>
        <time>2021-08-03T10:07:07.345Z</time>
      </trkpt>
      <trkpt lat="47.01993" lon="8.8873">
        <ele>1276</ele>
        <time>2021-08-03T10:07:08.345Z</time>
      </trkpt>
      <trkpt lat="47.01993" lon="8.88729">
        <ele>1276</ele>
        <time>2021-08-03T10:07:09.345Z</time>
      </trkpt>
      <trkpt lat="47.01994" lon="8.88728">
        <ele>1276</ele>
        <time>2021-08-03T10:07:10.344Z</time>
      </trkpt>
      <trkpt lat="47.01994" lon="8.88727">
        <ele>1276</ele>
        <time>2021-08-03T10:07:11.344Z</time>
      </trkpt>
      <trkpt lat="47.01994" lon="8.88726">
        <ele>1276</ele>
        <time>2021-08-03T10:07:12.344Z</time>
      </trkpt>
      <trkpt lat="47.01994" lon="8.88725">
        <ele>1276</ele>
        <time>2021-08-03T10:07:13.345Z</time>
      </trkpt>
      <trkpt lat="47.01994" lon="8.88724">
        <ele>1276</ele>
        <time>2021-08-03T10:07:14.345Z</time>
      </trkpt>
      <trkpt lat="47.01995" lon="8.88722">
        <ele>1276</ele>
        <time>2021-08-03T10:07:15.344Z</time>
      </trkpt>
      <trkpt lat="47.01994" lon="8.88721">
        <ele>1276</ele>
        <time>2021-08-03T10:07:16.345Z</time>
      </trkpt>
      <trkpt lat="47.01995" lon="8.88721">
        <ele>1276</ele>
        <time>2021-08-03T10:07:17.345Z</time>
      </trkpt>
      <trkpt lat="47.01995" lon="8.88719">
        <ele>1276</ele>
        <time>2021-08-03T10:07:18.344Z</time>
      </trkpt>
      <trkpt lat="47.01996" lon="8.88718">
        <ele>1276</ele>
        <time>2021-08-03T10:07:19.344Z</time>
      </trkpt>
      <trkpt lat="47.01996" lon="8.88716">
        <ele>1276</ele>
        <time>2021-08-03T10:07:20.345Z</time>
      </trkpt>
      <trkpt lat="47.01996" lon="8.88714">
        <ele>1277</ele>
        <time>2021-08-03T10:07:21.344Z</time>
      </trkpt>
      <trkpt lat="47.01996" lon="8.88712">
        <ele>1277</ele>
        <time>2021-08-03T10:07:22.345Z</time>
      </trkpt>
      <trkpt lat="47.01996" lon="8.8871">
        <ele>1277</ele>
        <time>2021-08-03T10:07:23.344Z</time>
      </trkpt>
      <trkpt lat="47.01997" lon="8.8871">
        <ele>1277</ele>
        <time>2021-08-03T10:07:24.344Z</time>
      </trkpt>
      <trkpt lat="47.01996" lon="8.88709">
        <ele>1277</ele>
        <time>2021-08-03T10:07:25.344Z</time>
      </trkpt>
      <trkpt lat="47.01999" lon="8.88705">
        <ele>1298</ele>
        <time>2021-08-03T10:07:26.347Z</time>
      </trkpt>
      <trkpt lat="47.01999" lon="8.88705">
        <ele>1299</ele>
        <time>2021-08-03T10:07:27.346Z</time>
      </trkpt>
      <trkpt lat="47.01999" lon="8.88705">
        <ele>1299</ele>
        <time>2021-08-03T10:07:28.347Z</time>
      </trkpt>
      <trkpt lat="47.01999" lon="8.88705">
        <ele>1300</ele>
        <time>2021-08-03T10:07:29.346Z</time>
      </trkpt>
      <trkpt lat="47.01999" lon="8.88705">
        <ele>1300</ele>
        <time>2021-08-03T10:07:30.347Z</time>
      </trkpt>
      <trkpt lat="47.01999" lon="8.88705">
        <ele>1301</ele>
        <time>2021-08-03T10:07:31.347Z</time>
      </trkpt>
      <trkpt lat="47.01999" lon="8.88705">
        <ele>1301</ele>
        <time>2021-08-03T10:07:32.347Z</time>
      </trkpt>
      <trkpt lat="47.01998" lon="8.88705">
        <ele>1302</ele>
        <time>2021-08-03T10:07:33.346Z</time>
      </trkpt>
      <trkpt lat="47.01995" lon="8.88706">
        <ele>1295</ele>
        <time>2021-08-03T10:07:34.348Z</time>
      </trkpt>
      <trkpt lat="47.01995" lon="8.88706">
        <ele>1294</ele>
        <time>2021-08-03T10:07:35.347Z</time>
      </trkpt>
      <trkpt lat="47.01995" lon="8.88706">
        <ele>1293</ele>
        <time>2021-08-03T10:07:36.348Z</time>
      </trkpt>
      <trkpt lat="47.01996" lon="8.88705">
        <ele>1290</ele>
        <time>2021-08-03T10:07:37.349Z</time>
      </trkpt>
      <trkpt lat="47.01992" lon="8.88702">
        <ele>1294</ele>
        <time>2021-08-03T10:07:38.349Z</time>
      </trkpt>
      <trkpt lat="47.01991" lon="8.88701">
        <ele>1294</ele>
        <time>2021-08-03T10:07:39.349Z</time>
      </trkpt>
      <trkpt lat="47.01991" lon="8.88701">
        <ele>1295</ele>
        <time>2021-08-03T10:07:40.348Z</time>
      </trkpt>
      <trkpt lat="47.01992" lon="8.88701">
        <ele>1295</ele>
        <time>2021-08-03T10:07:41.348Z</time>
      </trkpt>
      <trkpt lat="47.01992" lon="8.887">
        <ele>1295</ele>
        <time>2021-08-03T10:07:42.349Z</time>
      </trkpt>
      <trkpt lat="47.01992" lon="8.887">
        <ele>1295</ele>
        <time>2021-08-03T10:07:43.349Z</time>
      </trkpt>
      <trkpt lat="47.01992" lon="8.88699">
        <ele>1294</ele>
        <time>2021-08-03T10:07:44.348Z</time>
      </trkpt>
      <trkpt lat="47.01992" lon="8.88699">
        <ele>1294</ele>
        <time>2021-08-03T10:07:45.349Z</time>
      </trkpt>
      <trkpt lat="47.01992" lon="8.88699">
        <ele>1294</ele>
        <time>2021-08-03T10:07:46.349Z</time>
      </trkpt>
      <trkpt lat="47.01992" lon="8.88698">
        <ele>1294</ele>
        <time>2021-08-03T10:07:47.349Z</time>
      </trkpt>
      <trkpt lat="47.01992" lon="8.88698">
        <ele>1295</ele>
        <time>2021-08-03T10:07:48.348Z</time>
      </trkpt>
      <trkpt lat="47.01993" lon="8.88698">
        <ele>1295</ele>
        <time>2021-08-03T10:07:49.348Z</time>
      </trkpt>
      <trkpt lat="47.01993" lon="8.88697">
        <ele>1295</ele>
        <time>2021-08-03T10:07:50.348Z</time>
      </trkpt>
      <trkpt lat="47.01994" lon="8.88696">
        <ele>1296</ele>
        <time>2021-08-03T10:07:51.349Z</time>
      </trkpt>
      <trkpt lat="47.01995" lon="8.88696">
        <ele>1296</ele>
        <time>2021-08-03T10:07:52.348Z</time>
      </trkpt>
      <trkpt lat="47.01995" lon="8.88696">
        <ele>1296</ele>
        <time>2021-08-03T10:07:53.349Z</time>
      </trkpt>
      <trkpt lat="47.01995" lon="8.88696">
        <ele>1296</ele>
        <time>2021-08-03T10:07:54.349Z</time>
      </trkpt>
      <trkpt lat="47.01996" lon="8.88697">
        <ele>1296</ele>
        <time>2021-08-03T10:07:55.349Z</time>
      </trkpt>
      <trkpt lat="47.01996" lon="8.88698">
        <ele>1297</ele>
        <time>2021-08-03T10:07:56.349Z</time>
      </trkpt>
      <trkpt lat="47.01997" lon="8.88699">
        <ele>1297</ele>
        <time>2021-08-03T10:07:57.349Z</time>
      </trkpt>
      <trkpt lat="47.01998" lon="8.88698">
        <ele>1297</ele>
        <time>2021-08-03T10:07:58.349Z</time>
      </trkpt>
      <trkpt lat="47.02" lon="8.88697">
        <ele>1298</ele>
        <time>2021-08-03T10:07:59.348Z</time>
      </trkpt>
      <trkpt lat="47.02" lon="8.88695">
        <ele>1298</ele>
        <time>2021-08-03T10:08:00.348Z</time>
      </trkpt>
      <trkpt lat="47.02001" lon="8.88694">
        <ele>1298</ele>
        <time>2021-08-03T10:08:01.348Z</time>
      </trkpt>
      <trkpt lat="47.02001" lon="8.88692">
        <ele>1298</ele>
        <time>2021-08-03T10:08:02.349Z</time>
      </trkpt>
      <trkpt lat="47.02002" lon="8.8869">
        <ele>1298</ele>
        <time>2021-08-03T10:08:03.349Z</time>
      </trkpt>
      <trkpt lat="47.02003" lon="8.88689">
        <ele>1297</ele>
        <time>2021-08-03T10:08:04.349Z</time>
      </trkpt>
      <trkpt lat="47.02003" lon="8.88688">
        <ele>1297</ele>
        <time>2021-08-03T10:08:05.348Z</time>
      </trkpt>
      <trkpt lat="47.02004" lon="8.88687">
        <ele>1297</ele>
        <time>2021-08-03T10:08:06.349Z</time>
      </trkpt>
      <trkpt lat="47.02004" lon="8.88686">
        <ele>1297</ele>
        <time>2021-08-03T10:08:07.348Z</time>
      </trkpt>
      <trkpt lat="47.02005" lon="8.88686">
        <ele>1297</ele>
        <time>2021-08-03T10:08:08.349Z</time>
      </trkpt>
      <trkpt lat="47.02005" lon="8.88685">
        <ele>1297</ele>
        <time>2021-08-03T10:08:09.348Z</time>
      </trkpt>
      <trkpt lat="47.02005" lon="8.88684">
        <ele>1297</ele>
        <time>2021-08-03T10:08:10.349Z</time>
      </trkpt>
      <trkpt lat="47.02006" lon="8.88683">
        <ele>1297</ele>
        <time>2021-08-03T10:08:11.349Z</time>
      </trkpt>
      <trkpt lat="47.02006" lon="8.88682">
        <ele>1296</ele>
        <time>2021-08-03T10:08:12.348Z</time>
      </trkpt>
      <trkpt lat="47.02006" lon="8.88681">
        <ele>1296</ele>
        <time>2021-08-03T10:08:13.349Z</time>
      </trkpt>
      <trkpt lat="47.02006" lon="8.8868">
        <ele>1295</ele>
        <time>2021-08-03T10:08:14.349Z</time>
      </trkpt>
      <trkpt lat="47.02007" lon="8.88679">
        <ele>1294</ele>
        <time>2021-08-03T10:08:15.349Z</time>
      </trkpt>
      <trkpt lat="47.02008" lon="8.88678">
        <ele>1294</ele>
        <time>2021-08-03T10:08:16.348Z</time>
      </trkpt>
      <trkpt lat="47.02008" lon="8.88677">
        <ele>1293</ele>
        <time>2021-08-03T10:08:17.349Z</time>
      </trkpt>
      <trkpt lat="47.0201" lon="8.88676">
        <ele>1292</ele>
        <time>2021-08-03T10:08:18.349Z</time>
      </trkpt>
      <trkpt lat="47.02011" lon="8.88675">
        <ele>1292</ele>
        <time>2021-08-03T10:08:19.349Z</time>
      </trkpt>
      <trkpt lat="47.02013" lon="8.88674">
        <ele>1292</ele>
        <time>2021-08-03T10:08:20.349Z</time>
      </trkpt>
      <trkpt lat="47.02014" lon="8.88673">
        <ele>1292</ele>
        <time>2021-08-03T10:08:21.349Z</time>
      </trkpt>
      <trkpt lat="47.02016" lon="8.88673">
        <ele>1292</ele>
        <time>2021-08-03T10:08:22.348Z</time>
      </trkpt>
      <trkpt lat="47.02016" lon="8.88673">
        <ele>1292</ele>
        <time>2021-08-03T10:08:23.349Z</time>
      </trkpt>
      <trkpt lat="47.02017" lon="8.88673">
        <ele>1292</ele>
        <time>2021-08-03T10:08:24.349Z</time>
      </trkpt>
      <trkpt lat="47.02019" lon="8.88673">
        <ele>1292</ele>
        <time>2021-08-03T10:08:25.349Z</time>
      </trkpt>
      <trkpt lat="47.02019" lon="8.88673">
        <ele>1292</ele>
        <time>2021-08-03T10:08:26.349Z</time>
      </trkpt>
      <trkpt lat="47.0202" lon="8.88671">
        <ele>1293</ele>
        <time>2021-08-03T10:08:27.348Z</time>
      </trkpt>
      <trkpt lat="47.02021" lon="8.8867">
        <ele>1293</ele>
        <time>2021-08-03T10:08:28.348Z</time>
      </trkpt>
      <trkpt lat="47.02022" lon="8.88668">
        <ele>1293</ele>
        <time>2021-08-03T10:08:29.348Z</time>
      </trkpt>
      <trkpt lat="47.02022" lon="8.88667">
        <ele>1293</ele>
        <time>2021-08-03T10:08:30.348Z</time>
      </trkpt>
      <trkpt lat="47.02022" lon="8.88666">
        <ele>1292</ele>
        <time>2021-08-03T10:08:31.349Z</time>
      </trkpt>
      <trkpt lat="47.02023" lon="8.88664">
        <ele>1292</ele>
        <time>2021-08-03T10:08:32.349Z</time>
      </trkpt>
      <trkpt lat="47.02024" lon="8.88663">
        <ele>1292</ele>
        <time>2021-08-03T10:08:33.348Z</time>
      </trkpt>
      <trkpt lat="47.02025" lon="8.88662">
        <ele>1291</ele>
        <time>2021-08-03T10:08:34.349Z</time>
      </trkpt>
      <trkpt lat="47.02026" lon="8.88661">
        <ele>1291</ele>
        <time>2021-08-03T10:08:35.349Z</time>
      </trkpt>
      <trkpt lat="47.02027" lon="8.88659">
        <ele>1291</ele>
        <time>2021-08-03T10:08:36.349Z</time>
      </trkpt>
      <trkpt lat="47.02027" lon="8.88658">
        <ele>1290</ele>
        <time>2021-08-03T10:08:37.349Z</time>
      </trkpt>
      <trkpt lat="47.02028" lon="8.88657">
        <ele>1290</ele>
        <time>2021-08-03T10:08:38.349Z</time>
      </trkpt>
      <trkpt lat="47.02028" lon="8.88656">
        <ele>1289</ele>
        <time>2021-08-03T10:08:39.349Z</time>
      </trkpt>
      <trkpt lat="47.02029" lon="8.88655">
        <ele>1289</ele>
        <time>2021-08-03T10:08:40.348Z</time>
      </trkpt>
      <trkpt lat="47.02029" lon="8.88654">
        <ele>1289</ele>
        <time>2021-08-03T10:08:41.349Z</time>
      </trkpt>
      <trkpt lat="47.02031" lon="8.88652">
        <ele>1289</ele>
        <time>2021-08-03T10:08:42.349Z</time>
      </trkpt>
      <trkpt lat="47.02032" lon="8.8865">
        <ele>1289</ele>
        <time>2021-08-03T10:08:43.349Z</time>
      </trkpt>
      <trkpt lat="47.02032" lon="8.8865">
        <ele>1289</ele>
        <time>2021-08-03T10:08:44.348Z</time>
      </trkpt>
      <trkpt lat="47.02033" lon="8.88649">
        <ele>1289</ele>
        <time>2021-08-03T10:08:45.349Z</time>
      </trkpt>
      <trkpt lat="47.02034" lon="8.88649">
        <ele>1290</ele>
        <time>2021-08-03T10:08:46.349Z</time>
      </trkpt>
      <trkpt lat="47.02034" lon="8.88649">
        <ele>1290</ele>
        <time>2021-08-03T10:08:47.349Z</time>
      </trkpt>
      <trkpt lat="47.02034" lon="8.88648">
        <ele>1290</ele>
        <time>2021-08-03T10:08:48.348Z</time>
      </trkpt>
      <trkpt lat="47.02035" lon="8.88647">
        <ele>1290</ele>
        <time>2021-08-03T10:08:49.348Z</time>
      </trkpt>
      <trkpt lat="47.02036" lon="8.88645">
        <ele>1290</ele>
        <time>2021-08-03T10:08:50.348Z</time>
      </trkpt>
      <trkpt lat="47.02037" lon="8.88645">
        <ele>1290</ele>
        <time>2021-08-03T10:08:51.348Z</time>
      </trkpt>
      <trkpt lat="47.02037" lon="8.88645">
        <ele>1290</ele>
        <time>2021-08-03T10:08:52.348Z</time>
      </trkpt>
      <trkpt lat="47.02037" lon="8.88646">
        <ele>1291</ele>
        <time>2021-08-03T10:08:53.349Z</time>
      </trkpt>
      <trkpt lat="47.02038" lon="8.88647">
        <ele>1291</ele>
        <time>2021-08-03T10:08:54.348Z</time>
      </trkpt>
      <trkpt lat="47.02038" lon="8.88647">
        <ele>1291</ele>
        <time>2021-08-03T10:08:55.349Z</time>
      </trkpt>
      <trkpt lat="47.02039" lon="8.88646">
        <ele>1291</ele>
        <time>2021-08-03T10:08:56.349Z</time>
      </trkpt>
      <trkpt lat="47.0204" lon="8.88645">
        <ele>1291</ele>
        <time>2021-08-03T10:08:57.349Z</time>
      </trkpt>
      <trkpt lat="47.02041" lon="8.88645">
        <ele>1292</ele>
        <time>2021-08-03T10:08:58.349Z</time>
      </trkpt>
      <trkpt lat="47.02042" lon="8.88644">
        <ele>1292</ele>
        <time>2021-08-03T10:08:59.349Z</time>
      </trkpt>
      <trkpt lat="47.02042" lon="8.88643">
        <ele>1292</ele>
        <time>2021-08-03T10:09:00.349Z</time>
      </trkpt>
      <trkpt lat="47.02043" lon="8.88641">
        <ele>1291</ele>
        <time>2021-08-03T10:09:01.349Z</time>
      </trkpt>
      <trkpt lat="47.02043" lon="8.88641">
        <ele>1291</ele>
        <time>2021-08-03T10:09:02.348Z</time>
      </trkpt>
      <trkpt lat="47.02044" lon="8.8864">
        <ele>1292</ele>
        <time>2021-08-03T10:09:03.349Z</time>
      </trkpt>
      <trkpt lat="47.02045" lon="8.88639">
        <ele>1292</ele>
        <time>2021-08-03T10:09:04.349Z</time>
      </trkpt>
      <trkpt lat="47.02045" lon="8.88638">
        <ele>1292</ele>
        <time>2021-08-03T10:09:05.348Z</time>
      </trkpt>
      <trkpt lat="47.02046" lon="8.88637">
        <ele>1292</ele>
        <time>2021-08-03T10:09:06.349Z</time>
      </trkpt>
      <trkpt lat="47.02046" lon="8.88636">
        <ele>1293</ele>
        <time>2021-08-03T10:09:07.349Z</time>
      </trkpt>
      <trkpt lat="47.02047" lon="8.88634">
        <ele>1293</ele>
        <time>2021-08-03T10:09:08.349Z</time>
      </trkpt>
      <trkpt lat="47.02047" lon="8.88633">
        <ele>1293</ele>
        <time>2021-08-03T10:09:09.349Z</time>
      </trkpt>
      <trkpt lat="47.02047" lon="8.88632">
        <ele>1294</ele>
        <time>2021-08-03T10:09:10.349Z</time>
      </trkpt>
      <trkpt lat="47.02048" lon="8.88632">
        <ele>1294</ele>
        <time>2021-08-03T10:09:11.349Z</time>
      </trkpt>
      <trkpt lat="47.02048" lon="8.8863">
        <ele>1294</ele>
        <time>2021-08-03T10:09:12.349Z</time>
      </trkpt>
      <trkpt lat="47.02048" lon="8.88628">
        <ele>1293</ele>
        <time>2021-08-03T10:09:13.348Z</time>
      </trkpt>
      <trkpt lat="47.02048" lon="8.88626">
        <ele>1292</ele>
        <time>2021-08-03T10:09:14.348Z</time>
      </trkpt>
      <trkpt lat="47.02048" lon="8.88625">
        <ele>1291</ele>
        <time>2021-08-03T10:09:15.348Z</time>
      </trkpt>
      <trkpt lat="47.02048" lon="8.88625">
        <ele>1291</ele>
        <time>2021-08-03T10:09:16.348Z</time>
      </trkpt>
      <trkpt lat="47.02047" lon="8.88624">
        <ele>1290</ele>
        <time>2021-08-03T10:09:17.348Z</time>
      </trkpt>
      <trkpt lat="47.02048" lon="8.88623">
        <ele>1289</ele>
        <time>2021-08-03T10:09:18.348Z</time>
      </trkpt>
      <trkpt lat="47.02048" lon="8.88622">
        <ele>1289</ele>
        <time>2021-08-03T10:09:19.348Z</time>
      </trkpt>
      <trkpt lat="47.02049" lon="8.88621">
        <ele>1290</ele>
        <time>2021-08-03T10:09:20.348Z</time>
      </trkpt>
      <trkpt lat="47.02049" lon="8.88621">
        <ele>1290</ele>
        <time>2021-08-03T10:09:21.348Z</time>
      </trkpt>
      <trkpt lat="47.0205" lon="8.8862">
        <ele>1291</ele>
        <time>2021-08-03T10:09:22.349Z</time>
      </trkpt>
      <trkpt lat="47.0205" lon="8.88619">
        <ele>1291</ele>
        <time>2021-08-03T10:09:23.348Z</time>
      </trkpt>
      <trkpt lat="47.0205" lon="8.88619">
        <ele>1291</ele>
        <time>2021-08-03T10:09:24.348Z</time>
      </trkpt>
      <trkpt lat="47.0205" lon="8.88618">
        <ele>1291</ele>
        <time>2021-08-03T10:09:25.349Z</time>
      </trkpt>
      <trkpt lat="47.02051" lon="8.88617">
        <ele>1290</ele>
        <time>2021-08-03T10:09:26.348Z</time>
      </trkpt>
      <trkpt lat="47.02051" lon="8.88616">
        <ele>1290</ele>
        <time>2021-08-03T10:09:27.349Z</time>
      </trkpt>
      <trkpt lat="47.02051" lon="8.88616">
        <ele>1290</ele>
        <time>2021-08-03T10:09:28.349Z</time>
      </trkpt>
      <trkpt lat="47.02051" lon="8.88614">
        <ele>1290</ele>
        <time>2021-08-03T10:09:29.349Z</time>
      </trkpt>
      <trkpt lat="47.02051" lon="8.88613">
        <ele>1289</ele>
        <time>2021-08-03T10:09:30.348Z</time>
      </trkpt>
      <trkpt lat="47.0205" lon="8.88612">
        <ele>1289</ele>
        <time>2021-08-03T10:09:31.348Z</time>
      </trkpt>
      <trkpt lat="47.0205" lon="8.88611">
        <ele>1289</ele>
        <time>2021-08-03T10:09:32.349Z</time>
      </trkpt>
      <trkpt lat="47.0205" lon="8.88608">
        <ele>1289</ele>
        <time>2021-08-03T10:09:33.349Z</time>
      </trkpt>
      <trkpt lat="47.02051" lon="8.88606">
        <ele>1289</ele>
        <time>2021-08-03T10:09:34.349Z</time>
      </trkpt>
      <trkpt lat="47.0205" lon="8.88605">
        <ele>1289</ele>
        <time>2021-08-03T10:09:35.349Z</time>
      </trkpt>
      <trkpt lat="47.0205" lon="8.88603">
        <ele>1289</ele>
        <time>2021-08-03T10:09:36.348Z</time>
      </trkpt>
      <trkpt lat="47.02049" lon="8.88602">
        <ele>1289</ele>
        <time>2021-08-03T10:09:37.348Z</time>
      </trkpt>
      <trkpt lat="47.0205" lon="8.886">
        <ele>1289</ele>
        <time>2021-08-03T10:09:38.349Z</time>
      </trkpt>
      <trkpt lat="47.0205" lon="8.88598">
        <ele>1289</ele>
        <time>2021-08-03T10:09:39.349Z</time>
      </trkpt>
      <trkpt lat="47.02049" lon="8.88597">
        <ele>1289</ele>
        <time>2021-08-03T10:09:40.348Z</time>
      </trkpt>
      <trkpt lat="47.02049" lon="8.88596">
        <ele>1289</ele>
        <time>2021-08-03T10:09:41.349Z</time>
      </trkpt>
      <trkpt lat="47.02048" lon="8.88595">
        <ele>1288</ele>
        <time>2021-08-03T10:09:42.349Z</time>
      </trkpt>
      <trkpt lat="47.02048" lon="8.88594">
        <ele>1288</ele>
        <time>2021-08-03T10:09:43.349Z</time>
      </trkpt>
      <trkpt lat="47.02048" lon="8.88593">
        <ele>1288</ele>
        <time>2021-08-03T10:09:44.349Z</time>
      </trkpt>
      <trkpt lat="47.02048" lon="8.88592">
        <ele>1287</ele>
        <time>2021-08-03T10:09:45.349Z</time>
      </trkpt>
      <trkpt lat="47.02048" lon="8.88591">
        <ele>1287</ele>
        <time>2021-08-03T10:09:46.349Z</time>
      </trkpt>
      <trkpt lat="47.02048" lon="8.8859">
        <ele>1287</ele>
        <time>2021-08-03T10:09:47.348Z</time>
      </trkpt>
      <trkpt lat="47.02048" lon="8.8859">
        <ele>1287</ele>
        <time>2021-08-03T10:09:48.349Z</time>
      </trkpt>
      <trkpt lat="47.02047" lon="8.8859">
        <ele>1287</ele>
        <time>2021-08-03T10:09:49.348Z</time>
      </trkpt>
      <trkpt lat="47.02046" lon="8.88589">
        <ele>1287</ele>
        <time>2021-08-03T10:09:50.349Z</time>
      </trkpt>
      <trkpt lat="47.02045" lon="8.88589">
        <ele>1288</ele>
        <time>2021-08-03T10:09:51.349Z</time>
      </trkpt>
      <trkpt lat="47.02044" lon="8.88587">
        <ele>1289</ele>
        <time>2021-08-03T10:09:52.349Z</time>
      </trkpt>
      <trkpt lat="47.02044" lon="8.88587">
        <ele>1289</ele>
        <time>2021-08-03T10:09:53.349Z</time>
      </trkpt>
      <trkpt lat="47.02044" lon="8.88586">
        <ele>1289</ele>
        <time>2021-08-03T10:09:54.349Z</time>
      </trkpt>
      <trkpt lat="47.02044" lon="8.88585">
        <ele>1289</ele>
        <time>2021-08-03T10:09:55.349Z</time>
      </trkpt>
      <trkpt lat="47.02044" lon="8.88584">
        <ele>1289</ele>
        <time>2021-08-03T10:09:56.350Z</time>
      </trkpt>
      <trkpt lat="47.02044" lon="8.88583">
        <ele>1290</ele>
        <time>2021-08-03T10:09:57.349Z</time>
      </trkpt>
      <trkpt lat="47.02044" lon="8.88582">
        <ele>1290</ele>
        <time>2021-08-03T10:09:58.349Z</time>
      </trkpt>
      <trkpt lat="47.02043" lon="8.88582">
        <ele>1290</ele>
        <time>2021-08-03T10:09:59.349Z</time>
      </trkpt>
      <trkpt lat="47.02043" lon="8.88581">
        <ele>1290</ele>
        <time>2021-08-03T10:10:00.349Z</time>
      </trkpt>
      <trkpt lat="47.02043" lon="8.8858">
        <ele>1290</ele>
        <time>2021-08-03T10:10:01.349Z</time>
      </trkpt>
      <trkpt lat="47.02042" lon="8.88579">
        <ele>1290</ele>
        <time>2021-08-03T10:10:02.350Z</time>
      </trkpt>
      <trkpt lat="47.02042" lon="8.88578">
        <ele>1291</ele>
        <time>2021-08-03T10:10:03.350Z</time>
      </trkpt>
      <trkpt lat="47.02041" lon="8.88578">
        <ele>1291</ele>
        <time>2021-08-03T10:10:04.349Z</time>
      </trkpt>
      <trkpt lat="47.02041" lon="8.88577">
        <ele>1291</ele>
        <time>2021-08-03T10:10:05.349Z</time>
      </trkpt>
      <trkpt lat="47.02041" lon="8.88576">
        <ele>1292</ele>
        <time>2021-08-03T10:10:06.349Z</time>
      </trkpt>
      <trkpt lat="47.0204" lon="8.88575">
        <ele>1292</ele>
        <time>2021-08-03T10:10:07.349Z</time>
      </trkpt>
      <trkpt lat="47.0204" lon="8.88573">
        <ele>1292</ele>
        <time>2021-08-03T10:10:08.349Z</time>
      </trkpt>
      <trkpt lat="47.02041" lon="8.88572">
        <ele>1292</ele>
        <time>2021-08-03T10:10:09.350Z</time>
      </trkpt>
      <trkpt lat="47.0204" lon="8.88571">
        <ele>1293</ele>
        <time>2021-08-03T10:10:10.349Z</time>
      </trkpt>
      <trkpt lat="47.0204" lon="8.8857">
        <ele>1293</ele>
        <time>2021-08-03T10:10:11.350Z</time>
      </trkpt>
      <trkpt lat="47.02039" lon="8.88569">
        <ele>1293</ele>
        <time>2021-08-03T10:10:12.349Z</time>
      </trkpt>
      <trkpt lat="47.02039" lon="8.88567">
        <ele>1293</ele>
        <time>2021-08-03T10:10:13.350Z</time>
      </trkpt>
      <trkpt lat="47.0204" lon="8.88565">
        <ele>1293</ele>
        <time>2021-08-03T10:10:14.350Z</time>
      </trkpt>
      <trkpt lat="47.0204" lon="8.88564">
        <ele>1293</ele>
        <time>2021-08-03T10:10:15.350Z</time>
      </trkpt>
      <trkpt lat="47.0204" lon="8.88564">
        <ele>1293</ele>
        <time>2021-08-03T10:10:16.350Z</time>
      </trkpt>
      <trkpt lat="47.02041" lon="8.88563">
        <ele>1293</ele>
        <time>2021-08-03T10:10:17.350Z</time>
      </trkpt>
      <trkpt lat="47.02039" lon="8.88563">
        <ele>1293</ele>
        <time>2021-08-03T10:10:18.350Z</time>
      </trkpt>
      <trkpt lat="47.02038" lon="8.88562">
        <ele>1294</ele>
        <time>2021-08-03T10:10:19.350Z</time>
      </trkpt>
      <trkpt lat="47.02036" lon="8.88561">
        <ele>1295</ele>
        <time>2021-08-03T10:10:20.350Z</time>
      </trkpt>
      <trkpt lat="47.02034" lon="8.88561">
        <ele>1295</ele>
        <time>2021-08-03T10:10:21.350Z</time>
      </trkpt>
      <trkpt lat="47.02034" lon="8.88561">
        <ele>1295</ele>
        <time>2021-08-03T10:10:22.349Z</time>
      </trkpt>
      <trkpt lat="47.02033" lon="8.88561">
        <ele>1295</ele>
        <time>2021-08-03T10:10:23.349Z</time>
      </trkpt>
      <trkpt lat="47.02032" lon="8.88562">
        <ele>1296</ele>
        <time>2021-08-03T10:10:24.350Z</time>
      </trkpt>
      <trkpt lat="47.02031" lon="8.88563">
        <ele>1296</ele>
        <time>2021-08-03T10:10:25.350Z</time>
      </trkpt>
      <trkpt lat="47.0203" lon="8.88564">
        <ele>1296</ele>
        <time>2021-08-03T10:10:26.349Z</time>
      </trkpt>
      <trkpt lat="47.0203" lon="8.88564">
        <ele>1296</ele>
        <time>2021-08-03T10:10:27.350Z</time>
      </trkpt>
      <trkpt lat="47.02029" lon="8.88565">
        <ele>1297</ele>
        <time>2021-08-03T10:10:28.350Z</time>
      </trkpt>
      <trkpt lat="47.02028" lon="8.88566">
        <ele>1297</ele>
        <time>2021-08-03T10:10:29.349Z</time>
      </trkpt>
      <trkpt lat="47.02028" lon="8.88566">
        <ele>1297</ele>
        <time>2021-08-03T10:10:30.349Z</time>
      </trkpt>
      <trkpt lat="47.02027" lon="8.88567">
        <ele>1297</ele>
        <time>2021-08-03T10:10:31.349Z</time>
      </trkpt>
      <trkpt lat="47.02026" lon="8.88568">
        <ele>1298</ele>
        <time>2021-08-03T10:10:32.350Z</time>
      </trkpt>
      <trkpt lat="47.02025" lon="8.88569">
        <ele>1297</ele>
        <time>2021-08-03T10:10:33.350Z</time>
      </trkpt>
      <trkpt lat="47.02024" lon="8.8857">
        <ele>1297</ele>
        <time>2021-08-03T10:10:34.349Z</time>
      </trkpt>
      <trkpt lat="47.02022" lon="8.88568">
        <ele>1297</ele>
        <time>2021-08-03T10:10:35.349Z</time>
      </trkpt>
      <trkpt lat="47.02022" lon="8.88568">
        <ele>1297</ele>
        <time>2021-08-03T10:10:36.350Z</time>
      </trkpt>
      <trkpt lat="47.02022" lon="8.88569">
        <ele>1297</ele>
        <time>2021-08-03T10:10:37.350Z</time>
      </trkpt>
      <trkpt lat="47.02022" lon="8.88569">
        <ele>1297</ele>
        <time>2021-08-03T10:10:38.349Z</time>
      </trkpt>
      <trkpt lat="47.02021" lon="8.88569">
        <ele>1297</ele>
        <time>2021-08-03T10:10:39.350Z</time>
      </trkpt>
      <trkpt lat="47.0202" lon="8.8857">
        <ele>1297</ele>
        <time>2021-08-03T10:10:40.349Z</time>
      </trkpt>
      <trkpt lat="47.02019" lon="8.88571">
        <ele>1297</ele>
        <time>2021-08-03T10:10:41.350Z</time>
      </trkpt>
      <trkpt lat="47.02018" lon="8.88571">
        <ele>1297</ele>
        <time>2021-08-03T10:10:42.350Z</time>
      </trkpt>
      <trkpt lat="47.02017" lon="8.88571">
        <ele>1297</ele>
        <time>2021-08-03T10:10:43.349Z</time>
      </trkpt>
      <trkpt lat="47.02015" lon="8.88571">
        <ele>1297</ele>
        <time>2021-08-03T10:10:44.350Z</time>
      </trkpt>
      <trkpt lat="47.02015" lon="8.88571">
        <ele>1298</ele>
        <time>2021-08-03T10:10:45.349Z</time>
      </trkpt>
      <trkpt lat="47.02015" lon="8.88571">
        <ele>1298</ele>
        <time>2021-08-03T10:10:46.349Z</time>
      </trkpt>
      <trkpt lat="47.02014" lon="8.88571">
        <ele>1299</ele>
        <time>2021-08-03T10:10:47.349Z</time>
      </trkpt>
      <trkpt lat="47.02013" lon="8.88571">
        <ele>1299</ele>
        <time>2021-08-03T10:10:48.350Z</time>
      </trkpt>
      <trkpt lat="47.02012" lon="8.88571">
        <ele>1300</ele>
        <time>2021-08-03T10:10:49.350Z</time>
      </trkpt>
      <trkpt lat="47.02012" lon="8.88571">
        <ele>1300</ele>
        <time>2021-08-03T10:10:50.349Z</time>
      </trkpt>
      <trkpt lat="47.02013" lon="8.88571">
        <ele>1300</ele>
        <time>2021-08-03T10:10:51.349Z</time>
      </trkpt>
      <trkpt lat="47.02014" lon="8.88571">
        <ele>1300</ele>
        <time>2021-08-03T10:10:52.350Z</time>
      </trkpt>
      <trkpt lat="47.02014" lon="8.88571">
        <ele>1300</ele>
        <time>2021-08-03T10:10:53.349Z</time>
      </trkpt>
      <trkpt lat="47.02014" lon="8.88571">
        <ele>1300</ele>
        <time>2021-08-03T10:10:54.350Z</time>
      </trkpt>
      <trkpt lat="47.02013" lon="8.88571">
        <ele>1300</ele>
        <time>2021-08-03T10:10:55.350Z</time>
      </trkpt>
      <trkpt lat="47.02012" lon="8.8857">
        <ele>1300</ele>
        <time>2021-08-03T10:10:56.350Z</time>
      </trkpt>
      <trkpt lat="47.02012" lon="8.88571">
        <ele>1300</ele>
        <time>2021-08-03T10:10:57.349Z</time>
      </trkpt>
      <trkpt lat="47.02011" lon="8.88571">
        <ele>1300</ele>
        <time>2021-08-03T10:10:58.350Z</time>
      </trkpt>
      <trkpt lat="47.0201" lon="8.88572">
        <ele>1300</ele>
        <time>2021-08-03T10:10:59.350Z</time>
      </trkpt>
      <trkpt lat="47.02009" lon="8.88572">
        <ele>1300</ele>
        <time>2021-08-03T10:11:00.350Z</time>
      </trkpt>
      <trkpt lat="47.02008" lon="8.88572">
        <ele>1301</ele>
        <time>2021-08-03T10:11:01.350Z</time>
      </trkpt>
      <trkpt lat="47.02008" lon="8.88572">
        <ele>1301</ele>
        <time>2021-08-03T10:11:02.350Z</time>
      </trkpt>
      <trkpt lat="47.02007" lon="8.88572">
        <ele>1302</ele>
        <time>2021-08-03T10:11:03.350Z</time>
      </trkpt>
      <trkpt lat="47.02007" lon="8.88573">
        <ele>1302</ele>
        <time>2021-08-03T10:11:04.349Z</time>
      </trkpt>
      <trkpt lat="47.02007" lon="8.88574">
        <ele>1303</ele>
        <time>2021-08-03T10:11:05.349Z</time>
      </trkpt>
      <trkpt lat="47.02007" lon="8.88575">
        <ele>1303</ele>
        <time>2021-08-03T10:11:06.350Z</time>
      </trkpt>
      <trkpt lat="47.02007" lon="8.88575">
        <ele>1304</ele>
        <time>2021-08-03T10:11:07.350Z</time>
      </trkpt>
      <trkpt lat="47.02007" lon="8.88576">
        <ele>1304</ele>
        <time>2021-08-03T10:11:08.350Z</time>
      </trkpt>
      <trkpt lat="47.02006" lon="8.88576">
        <ele>1305</ele>
        <time>2021-08-03T10:11:09.350Z</time>
      </trkpt>
      <trkpt lat="47.02006" lon="8.88577">
        <ele>1306</ele>
        <time>2021-08-03T10:11:10.349Z</time>
      </trkpt>
      <trkpt lat="47.02005" lon="8.88578">
        <ele>1307</ele>
        <time>2021-08-03T10:11:11.350Z</time>
      </trkpt>
      <trkpt lat="47.02005" lon="8.88579">
        <ele>1307</ele>
        <time>2021-08-03T10:11:12.350Z</time>
      </trkpt>
      <trkpt lat="47.02004" lon="8.8858">
        <ele>1307</ele>
        <time>2021-08-03T10:11:13.349Z</time>
      </trkpt>
      <trkpt lat="47.02003" lon="8.88581">
        <ele>1307</ele>
        <time>2021-08-03T10:11:14.349Z</time>
      </trkpt>
      <trkpt lat="47.02002" lon="8.88582">
        <ele>1307</ele>
        <time>2021-08-03T10:11:15.349Z</time>
      </trkpt>
      <trkpt lat="47.02003" lon="8.88583">
        <ele>1308</ele>
        <time>2021-08-03T10:11:16.350Z</time>
      </trkpt>
      <trkpt lat="47.02002" lon="8.88584">
        <ele>1308</ele>
        <time>2021-08-03T10:11:17.350Z</time>
      </trkpt>
      <trkpt lat="47.02001" lon="8.88584">
        <ele>1309</ele>
        <time>2021-08-03T10:11:18.349Z</time>
      </trkpt>
      <trkpt lat="47.02001" lon="8.88584">
        <ele>1309</ele>
        <time>2021-08-03T10:11:19.349Z</time>
      </trkpt>
      <trkpt lat="47.02" lon="8.88584">
        <ele>1309</ele>
        <time>2021-08-03T10:11:20.349Z</time>
      </trkpt>
      <trkpt lat="47.01999" lon="8.88584">
        <ele>1310</ele>
        <time>2021-08-03T10:11:21.349Z</time>
      </trkpt>
      <trkpt lat="47.01999" lon="8.88584">
        <ele>1311</ele>
        <time>2021-08-03T10:11:22.349Z</time>
      </trkpt>
      <trkpt lat="47.02" lon="8.88582">
        <ele>1311</ele>
        <time>2021-08-03T10:11:23.351Z</time>
      </trkpt>
      <trkpt lat="47.02" lon="8.88582">
        <ele>1312</ele>
        <time>2021-08-03T10:11:24.351Z</time>
      </trkpt>
      <trkpt lat="47.02" lon="8.88582">
        <ele>1312</ele>
        <time>2021-08-03T10:11:25.350Z</time>
      </trkpt>
      <trkpt lat="47.01999" lon="8.88581">
        <ele>1312</ele>
        <time>2021-08-03T10:11:26.351Z</time>
      </trkpt>
      <trkpt lat="47.01995" lon="8.88577">
        <ele>1307</ele>
        <time>2021-08-03T10:11:27.350Z</time>
      </trkpt>
      <trkpt lat="47.01996" lon="8.88577">
        <ele>1307</ele>
        <time>2021-08-03T10:11:28.351Z</time>
      </trkpt>
      <trkpt lat="47.01996" lon="8.88577">
        <ele>1307</ele>
        <time>2021-08-03T10:11:29.351Z</time>
      </trkpt>
      <trkpt lat="47.01997" lon="8.88577">
        <ele>1307</ele>
        <time>2021-08-03T10:11:30.350Z</time>
      </trkpt>
      <trkpt lat="47.02002" lon="8.88582">
        <ele>1315</ele>
        <time>2021-08-03T10:11:31.352Z</time>
      </trkpt>
      <trkpt lat="47.02002" lon="8.88582">
        <ele>1316</ele>
        <time>2021-08-03T10:11:32.351Z</time>
      </trkpt>
      <trkpt lat="47.02002" lon="8.88582">
        <ele>1317</ele>
        <time>2021-08-03T10:11:33.351Z</time>
      </trkpt>
      <trkpt lat="47.01996" lon="8.88572">
        <ele>1317</ele>
        <time>2021-08-03T10:11:34.353Z</time>
      </trkpt>
      <trkpt lat="47.01996" lon="8.88571">
        <ele>1317</ele>
        <time>2021-08-03T10:11:35.353Z</time>
      </trkpt>
      <trkpt lat="47.01995" lon="8.88573">
        <ele>1316</ele>
        <time>2021-08-03T10:11:36.354Z</time>
      </trkpt>
      <trkpt lat="47.01995" lon="8.88573">
        <ele>1316</ele>
        <time>2021-08-03T10:11:37.354Z</time>
      </trkpt>
      <trkpt lat="47.01997" lon="8.88575">
        <ele>1319</ele>
        <time>2021-08-03T10:11:38.353Z</time>
      </trkpt>
      <trkpt lat="47.01997" lon="8.88575">
        <ele>1319</ele>
        <time>2021-08-03T10:11:39.354Z</time>
      </trkpt>
      <trkpt lat="47.01997" lon="8.88574">
        <ele>1319</ele>
        <time>2021-08-03T10:11:40.353Z</time>
      </trkpt>
      <trkpt lat="47.01997" lon="8.88573">
        <ele>1319</ele>
        <time>2021-08-03T10:11:41.354Z</time>
      </trkpt>
      <trkpt lat="47.01998" lon="8.88573">
        <ele>1320</ele>
        <time>2021-08-03T10:11:42.354Z</time>
      </trkpt>
      <trkpt lat="47.01998" lon="8.88573">
        <ele>1320</ele>
        <time>2021-08-03T10:11:43.353Z</time>
      </trkpt>
      <trkpt lat="47.01997" lon="8.88572">
        <ele>1321</ele>
        <time>2021-08-03T10:11:44.354Z</time>
      </trkpt>
      <trkpt lat="47.01996" lon="8.88571">
        <ele>1321</ele>
        <time>2021-08-03T10:11:45.354Z</time>
      </trkpt>
      <trkpt lat="47.01995" lon="8.8857">
        <ele>1321</ele>
        <time>2021-08-03T10:11:46.353Z</time>
      </trkpt>
      <trkpt lat="47.01993" lon="8.8857">
        <ele>1321</ele>
        <time>2021-08-03T10:11:47.354Z</time>
      </trkpt>
      <trkpt lat="47.01992" lon="8.8857">
        <ele>1321</ele>
        <time>2021-08-03T10:11:48.353Z</time>
      </trkpt>
      <trkpt lat="47.01991" lon="8.88569">
        <ele>1322</ele>
        <time>2021-08-03T10:11:49.354Z</time>
      </trkpt>
      <trkpt lat="47.0199" lon="8.88569">
        <ele>1322</ele>
        <time>2021-08-03T10:11:50.353Z</time>
      </trkpt>
      <trkpt lat="47.0199" lon="8.88569">
        <ele>1322</ele>
        <time>2021-08-03T10:11:51.354Z</time>
      </trkpt>
      <trkpt lat="47.01989" lon="8.88568">
        <ele>1322</ele>
        <time>2021-08-03T10:11:52.353Z</time>
      </trkpt>
      <trkpt lat="47.01988" lon="8.88568">
        <ele>1323</ele>
        <time>2021-08-03T10:11:53.354Z</time>
      </trkpt>
      <trkpt lat="47.01986" lon="8.88567">
        <ele>1323</ele>
        <time>2021-08-03T10:11:54.354Z</time>
      </trkpt>
      <trkpt lat="47.01985" lon="8.88567">
        <ele>1323</ele>
        <time>2021-08-03T10:11:55.354Z</time>
      </trkpt>
      <trkpt lat="47.01984" lon="8.88567">
        <ele>1323</ele>
        <time>2021-08-03T10:11:56.354Z</time>
      </trkpt>
      <trkpt lat="47.01984" lon="8.88567">
        <ele>1323</ele>
        <time>2021-08-03T10:11:57.353Z</time>
      </trkpt>
      <trkpt lat="47.01982" lon="8.88567">
        <ele>1323</ele>
        <time>2021-08-03T10:11:58.354Z</time>
      </trkpt>
      <trkpt lat="47.01981" lon="8.88568">
        <ele>1324</ele>
        <time>2021-08-03T10:11:59.354Z</time>
      </trkpt>
      <trkpt lat="47.01979" lon="8.88568">
        <ele>1324</ele>
        <time>2021-08-03T10:12:00.354Z</time>
      </trkpt>
      <trkpt lat="47.01979" lon="8.88567">
        <ele>1324</ele>
        <time>2021-08-03T10:12:01.353Z</time>
      </trkpt>
      <trkpt lat="47.01979" lon="8.88567">
        <ele>1325</ele>
        <time>2021-08-03T10:12:02.354Z</time>
      </trkpt>
      <trkpt lat="47.01978" lon="8.88566">
        <ele>1325</ele>
        <time>2021-08-03T10:12:03.353Z</time>
      </trkpt>
      <trkpt lat="47.01977" lon="8.88566">
        <ele>1326</ele>
        <time>2021-08-03T10:12:04.354Z</time>
      </trkpt>
      <trkpt lat="47.01976" lon="8.88567">
        <ele>1326</ele>
        <time>2021-08-03T10:12:05.354Z</time>
      </trkpt>
      <trkpt lat="47.01976" lon="8.88568">
        <ele>1327</ele>
        <time>2021-08-03T10:12:06.353Z</time>
      </trkpt>
      <trkpt lat="47.01975" lon="8.88568">
        <ele>1327</ele>
        <time>2021-08-03T10:12:07.354Z</time>
      </trkpt>
      <trkpt lat="47.01974" lon="8.88568">
        <ele>1328</ele>
        <time>2021-08-03T10:12:08.354Z</time>
      </trkpt>
      <trkpt lat="47.01973" lon="8.88569">
        <ele>1328</ele>
        <time>2021-08-03T10:12:09.354Z</time>
      </trkpt>
      <trkpt lat="47.01973" lon="8.8857">
        <ele>1329</ele>
        <time>2021-08-03T10:12:10.354Z</time>
      </trkpt>
      <trkpt lat="47.01972" lon="8.88571">
        <ele>1330</ele>
        <time>2021-08-03T10:12:11.354Z</time>
      </trkpt>
      <trkpt lat="47.01972" lon="8.88572">
        <ele>1330</ele>
        <time>2021-08-03T10:12:12.353Z</time>
      </trkpt>
      <trkpt lat="47.01972" lon="8.88573">
        <ele>1331</ele>
        <time>2021-08-03T10:12:13.354Z</time>
      </trkpt>
      <trkpt lat="47.01972" lon="8.88574">
        <ele>1332</ele>
        <time>2021-08-03T10:12:14.354Z</time>
      </trkpt>
      <trkpt lat="47.01971" lon="8.88575">
        <ele>1332</ele>
        <time>2021-08-03T10:12:15.353Z</time>
      </trkpt>
      <trkpt lat="47.01969" lon="8.88575">
        <ele>1333</ele>
        <time>2021-08-03T10:12:16.353Z</time>
      </trkpt>
      <trkpt lat="47.01968" lon="8.88576">
        <ele>1333</ele>
        <time>2021-08-03T10:12:17.354Z</time>
      </trkpt>
      <trkpt lat="47.01967" lon="8.88577">
        <ele>1333</ele>
        <time>2021-08-03T10:12:18.354Z</time>
      </trkpt>
      <trkpt lat="47.01966" lon="8.88578">
        <ele>1332</ele>
        <time>2021-08-03T10:12:19.354Z</time>
      </trkpt>
      <trkpt lat="47.01966" lon="8.88576">
        <ele>1332</ele>
        <time>2021-08-03T10:12:20.353Z</time>
      </trkpt>
      <trkpt lat="47.01966" lon="8.88574">
        <ele>1332</ele>
        <time>2021-08-03T10:12:21.354Z</time>
      </trkpt>
      <trkpt lat="47.01961" lon="8.88573">
        <ele>1333</ele>
        <time>2021-08-03T10:12:22.355Z</time>
      </trkpt>
      <trkpt lat="47.0196" lon="8.88574">
        <ele>1333</ele>
        <time>2021-08-03T10:12:23.356Z</time>
      </trkpt>
      <trkpt lat="47.01959" lon="8.88575">
        <ele>1334</ele>
        <time>2021-08-03T10:12:24.355Z</time>
      </trkpt>
      <trkpt lat="47.01958" lon="8.88576">
        <ele>1334</ele>
        <time>2021-08-03T10:12:25.356Z</time>
      </trkpt>
      <trkpt lat="47.01954" lon="8.88577">
        <ele>1336</ele>
        <time>2021-08-03T10:12:26.355Z</time>
      </trkpt>
      <trkpt lat="47.01954" lon="8.88576">
        <ele>1336</ele>
        <time>2021-08-03T10:12:27.356Z</time>
      </trkpt>
      <trkpt lat="47.01952" lon="8.88576">
        <ele>1335</ele>
        <time>2021-08-03T10:12:28.356Z</time>
      </trkpt>
      <trkpt lat="47.01951" lon="8.88577">
        <ele>1334</ele>
        <time>2021-08-03T10:12:29.355Z</time>
      </trkpt>
      <trkpt lat="47.01951" lon="8.88577">
        <ele>1334</ele>
        <time>2021-08-03T10:12:30.355Z</time>
      </trkpt>
      <trkpt lat="47.01951" lon="8.88577">
        <ele>1334</ele>
        <time>2021-08-03T10:12:31.356Z</time>
      </trkpt>
      <trkpt lat="47.0195" lon="8.88577">
        <ele>1335</ele>
        <time>2021-08-03T10:12:32.356Z</time>
      </trkpt>
      <trkpt lat="47.01949" lon="8.88577">
        <ele>1335</ele>
        <time>2021-08-03T10:12:33.356Z</time>
      </trkpt>
      <trkpt lat="47.01948" lon="8.88576">
        <ele>1335</ele>
        <time>2021-08-03T10:12:34.355Z</time>
      </trkpt>
      <trkpt lat="47.01948" lon="8.88576">
        <ele>1335</ele>
        <time>2021-08-03T10:12:35.356Z</time>
      </trkpt>
      <trkpt lat="47.01947" lon="8.88576">
        <ele>1335</ele>
        <time>2021-08-03T10:12:36.356Z</time>
      </trkpt>
      <trkpt lat="47.01945" lon="8.88576">
        <ele>1335</ele>
        <time>2021-08-03T10:12:37.356Z</time>
      </trkpt>
      <trkpt lat="47.01943" lon="8.88576">
        <ele>1335</ele>
        <time>2021-08-03T10:12:38.356Z</time>
      </trkpt>
      <trkpt lat="47.01941" lon="8.88575">
        <ele>1335</ele>
        <time>2021-08-03T10:12:39.355Z</time>
      </trkpt>
      <trkpt lat="47.01939" lon="8.88575">
        <ele>1335</ele>
        <time>2021-08-03T10:12:40.356Z</time>
      </trkpt>
      <trkpt lat="47.01938" lon="8.88575">
        <ele>1335</ele>
        <time>2021-08-03T10:12:41.355Z</time>
      </trkpt>
      <trkpt lat="47.01938" lon="8.88574">
        <ele>1335</ele>
        <time>2021-08-03T10:12:42.356Z</time>
      </trkpt>
      <trkpt lat="47.01938" lon="8.88574">
        <ele>1334</ele>
        <time>2021-08-03T10:12:43.355Z</time>
      </trkpt>
      <trkpt lat="47.01938" lon="8.88573">
        <ele>1334</ele>
        <time>2021-08-03T10:12:44.356Z</time>
      </trkpt>
      <trkpt lat="47.01937" lon="8.88573">
        <ele>1334</ele>
        <time>2021-08-03T10:12:45.355Z</time>
      </trkpt>
      <trkpt lat="47.01937" lon="8.88574">
        <ele>1333</ele>
        <time>2021-08-03T10:12:46.355Z</time>
      </trkpt>
      <trkpt lat="47.01937" lon="8.88574">
        <ele>1333</ele>
        <time>2021-08-03T10:12:47.356Z</time>
      </trkpt>
      <trkpt lat="47.01936" lon="8.88573">
        <ele>1332</ele>
        <time>2021-08-03T10:12:48.355Z</time>
      </trkpt>
      <trkpt lat="47.01936" lon="8.88574">
        <ele>1330</ele>
        <time>2021-08-03T10:12:49.355Z</time>
      </trkpt>
      <trkpt lat="47.01936" lon="8.88574">
        <ele>1330</ele>
        <time>2021-08-03T10:12:50.356Z</time>
      </trkpt>
      <trkpt lat="47.01935" lon="8.88573">
        <ele>1329</ele>
        <time>2021-08-03T10:12:51.356Z</time>
      </trkpt>
      <trkpt lat="47.01935" lon="8.88572">
        <ele>1328</ele>
        <time>2021-08-03T10:12:52.356Z</time>
      </trkpt>
      <trkpt lat="47.01935" lon="8.88571">
        <ele>1327</ele>
        <time>2021-08-03T10:12:53.356Z</time>
      </trkpt>
      <trkpt lat="47.01935" lon="8.88571">
        <ele>1326</ele>
        <time>2021-08-03T10:12:54.356Z</time>
      </trkpt>
      <trkpt lat="47.01936" lon="8.88571">
        <ele>1326</ele>
        <time>2021-08-03T10:12:55.355Z</time>
      </trkpt>
      <trkpt lat="47.01935" lon="8.88571">
        <ele>1325</ele>
        <time>2021-08-03T10:12:56.356Z</time>
      </trkpt>
      <trkpt lat="47.01935" lon="8.88572">
        <ele>1324</ele>
        <time>2021-08-03T10:12:57.355Z</time>
      </trkpt>
      <trkpt lat="47.01935" lon="8.88572">
        <ele>1324</ele>
        <time>2021-08-03T10:12:58.356Z</time>
      </trkpt>
      <trkpt lat="47.01936" lon="8.88572">
        <ele>1322</ele>
        <time>2021-08-03T10:12:59.356Z</time>
      </trkpt>
      <trkpt lat="47.01936" lon="8.88572">
        <ele>1322</ele>
        <time>2021-08-03T10:13:00.357Z</time>
      </trkpt>
      <trkpt lat="47.01936" lon="8.88571">
        <ele>1321</ele>
        <time>2021-08-03T10:13:01.357Z</time>
      </trkpt>
      <trkpt lat="47.01935" lon="8.88571">
        <ele>1321</ele>
        <time>2021-08-03T10:13:02.357Z</time>
      </trkpt>
      <trkpt lat="47.01934" lon="8.8857">
        <ele>1320</ele>
        <time>2021-08-03T10:13:03.357Z</time>
      </trkpt>
      <trkpt lat="47.01932" lon="8.8857">
        <ele>1320</ele>
        <time>2021-08-03T10:13:04.357Z</time>
      </trkpt>
      <trkpt lat="47.01932" lon="8.8857">
        <ele>1320</ele>
        <time>2021-08-03T10:13:05.357Z</time>
      </trkpt>
      <trkpt lat="47.01931" lon="8.8857">
        <ele>1320</ele>
        <time>2021-08-03T10:13:06.356Z</time>
      </trkpt>
      <trkpt lat="47.0193" lon="8.8857">
        <ele>1320</ele>
        <time>2021-08-03T10:13:07.357Z</time>
      </trkpt>
      <trkpt lat="47.0193" lon="8.8857">
        <ele>1321</ele>
        <time>2021-08-03T10:13:08.357Z</time>
      </trkpt>
      <trkpt lat="47.0193" lon="8.88569">
        <ele>1321</ele>
        <time>2021-08-03T10:13:09.357Z</time>
      </trkpt>
      <trkpt lat="47.01928" lon="8.88568">
        <ele>1322</ele>
        <time>2021-08-03T10:13:10.357Z</time>
      </trkpt>
      <trkpt lat="47.01927" lon="8.88567">
        <ele>1322</ele>
        <time>2021-08-03T10:13:11.357Z</time>
      </trkpt>
      <trkpt lat="47.01927" lon="8.88567">
        <ele>1323</ele>
        <time>2021-08-03T10:13:12.357Z</time>
      </trkpt>
      <trkpt lat="47.01927" lon="8.88566">
        <ele>1323</ele>
        <time>2021-08-03T10:13:13.356Z</time>
      </trkpt>
      <trkpt lat="47.01927" lon="8.88566">
        <ele>1323</ele>
        <time>2021-08-03T10:13:14.356Z</time>
      </trkpt>
      <trkpt lat="47.01928" lon="8.88568">
        <ele>1324</ele>
        <time>2021-08-03T10:13:15.357Z</time>
      </trkpt>
      <trkpt lat="47.01928" lon="8.88568">
        <ele>1324</ele>
        <time>2021-08-03T10:13:16.357Z</time>
      </trkpt>
      <trkpt lat="47.01929" lon="8.88566">
        <ele>1324</ele>
        <time>2021-08-03T10:13:17.357Z</time>
      </trkpt>
      <trkpt lat="47.01929" lon="8.88565">
        <ele>1325</ele>
        <time>2021-08-03T10:13:18.357Z</time>
      </trkpt>
      <trkpt lat="47.01928" lon="8.88564">
        <ele>1325</ele>
        <time>2021-08-03T10:13:19.357Z</time>
      </trkpt>
      <trkpt lat="47.01928" lon="8.88563">
        <ele>1325</ele>
        <time>2021-08-03T10:13:20.357Z</time>
      </trkpt>
      <trkpt lat="47.01927" lon="8.88563">
        <ele>1326</ele>
        <time>2021-08-03T10:13:21.357Z</time>
      </trkpt>
      <trkpt lat="47.01927" lon="8.88563">
        <ele>1326</ele>
        <time>2021-08-03T10:13:22.357Z</time>
      </trkpt>
      <trkpt lat="47.01926" lon="8.88563">
        <ele>1326</ele>
        <time>2021-08-03T10:13:23.356Z</time>
      </trkpt>
      <trkpt lat="47.01925" lon="8.88564">
        <ele>1327</ele>
        <time>2021-08-03T10:13:24.357Z</time>
      </trkpt>
      <trkpt lat="47.01925" lon="8.88565">
        <ele>1327</ele>
        <time>2021-08-03T10:13:25.357Z</time>
      </trkpt>
      <trkpt lat="47.01924" lon="8.88566">
        <ele>1327</ele>
        <time>2021-08-03T10:13:26.356Z</time>
      </trkpt>
      <trkpt lat="47.01924" lon="8.88567">
        <ele>1328</ele>
        <time>2021-08-03T10:13:27.357Z</time>
      </trkpt>
      <trkpt lat="47.01925" lon="8.88568">
        <ele>1328</ele>
        <time>2021-08-03T10:13:28.356Z</time>
      </trkpt>
      <trkpt lat="47.01926" lon="8.88569">
        <ele>1328</ele>
        <time>2021-08-03T10:13:29.357Z</time>
      </trkpt>
      <trkpt lat="47.01926" lon="8.8857">
        <ele>1328</ele>
        <time>2021-08-03T10:13:30.357Z</time>
      </trkpt>
      <trkpt lat="47.01927" lon="8.88571">
        <ele>1329</ele>
        <time>2021-08-03T10:13:31.357Z</time>
      </trkpt>
      <trkpt lat="47.01928" lon="8.88572">
        <ele>1329</ele>
        <time>2021-08-03T10:13:32.356Z</time>
      </trkpt>
      <trkpt lat="47.01929" lon="8.88574">
        <ele>1330</ele>
        <time>2021-08-03T10:13:33.357Z</time>
      </trkpt>
      <trkpt lat="47.01929" lon="8.88575">
        <ele>1330</ele>
        <time>2021-08-03T10:13:34.356Z</time>
      </trkpt>
      <trkpt lat="47.01929" lon="8.88576">
        <ele>1331</ele>
        <time>2021-08-03T10:13:35.357Z</time>
      </trkpt>
      <trkpt lat="47.01928" lon="8.88577">
        <ele>1331</ele>
        <time>2021-08-03T10:13:36.357Z</time>
      </trkpt>
      <trkpt lat="47.01928" lon="8.88579">
        <ele>1331</ele>
        <time>2021-08-03T10:13:37.357Z</time>
      </trkpt>
      <trkpt lat="47.01927" lon="8.8858">
        <ele>1332</ele>
        <time>2021-08-03T10:13:38.357Z</time>
      </trkpt>
      <trkpt lat="47.01926" lon="8.88582">
        <ele>1332</ele>
        <time>2021-08-03T10:13:39.357Z</time>
      </trkpt>
      <trkpt lat="47.01926" lon="8.88588">
        <ele>1332</ele>
        <time>2021-08-03T10:13:40.357Z</time>
      </trkpt>
      <trkpt lat="47.01932" lon="8.88599">
        <ele>1336</ele>
        <time>2021-08-03T10:13:41.359Z</time>
      </trkpt>
      <trkpt lat="47.01932" lon="8.886">
        <ele>1336</ele>
        <time>2021-08-03T10:13:42.358Z</time>
      </trkpt>
      <trkpt lat="47.01932" lon="8.88601">
        <ele>1336</ele>
        <time>2021-08-03T10:13:43.358Z</time>
      </trkpt>
      <trkpt lat="47.01932" lon="8.88599">
        <ele>1337</ele>
        <time>2021-08-03T10:13:44.359Z</time>
      </trkpt>
      <trkpt lat="47.01932" lon="8.88596">
        <ele>1337</ele>
        <time>2021-08-03T10:13:45.359Z</time>
      </trkpt>
      <trkpt lat="47.01931" lon="8.88595">
        <ele>1337</ele>
        <time>2021-08-03T10:13:46.359Z</time>
      </trkpt>
      <trkpt lat="47.01931" lon="8.88594">
        <ele>1337</ele>
        <time>2021-08-03T10:13:47.359Z</time>
      </trkpt>
      <trkpt lat="47.01931" lon="8.88593">
        <ele>1336</ele>
        <time>2021-08-03T10:13:48.359Z</time>
      </trkpt>
      <trkpt lat="47.0193" lon="8.88592">
        <ele>1336</ele>
        <time>2021-08-03T10:13:49.358Z</time>
      </trkpt>
      <trkpt lat="47.01929" lon="8.88592">
        <ele>1335</ele>
        <time>2021-08-03T10:13:50.359Z</time>
      </trkpt>
      <trkpt lat="47.01929" lon="8.88591">
        <ele>1335</ele>
        <time>2021-08-03T10:13:51.359Z</time>
      </trkpt>
      <trkpt lat="47.01928" lon="8.88592">
        <ele>1334</ele>
        <time>2021-08-03T10:13:52.358Z</time>
      </trkpt>
      <trkpt lat="47.01928" lon="8.88592">
        <ele>1333</ele>
        <time>2021-08-03T10:13:53.359Z</time>
      </trkpt>
      <trkpt lat="47.01927" lon="8.88592">
        <ele>1333</ele>
        <time>2021-08-03T10:13:54.359Z</time>
      </trkpt>
      <trkpt lat="47.01927" lon="8.88592">
        <ele>1333</ele>
        <time>2021-08-03T10:13:55.359Z</time>
      </trkpt>
      <trkpt lat="47.01926" lon="8.88591">
        <ele>1332</ele>
        <time>2021-08-03T10:13:56.359Z</time>
      </trkpt>
      <trkpt lat="47.01926" lon="8.88589">
        <ele>1332</ele>
        <time>2021-08-03T10:13:57.359Z</time>
      </trkpt>
      <trkpt lat="47.01925" lon="8.88588">
        <ele>1331</ele>
        <time>2021-08-03T10:13:58.359Z</time>
      </trkpt>
      <trkpt lat="47.01925" lon="8.88586">
        <ele>1331</ele>
        <time>2021-08-03T10:13:59.358Z</time>
      </trkpt>
      <trkpt lat="47.01924" lon="8.88585">
        <ele>1330</ele>
        <time>2021-08-03T10:14:00.359Z</time>
      </trkpt>
      <trkpt lat="47.01923" lon="8.88583">
        <ele>1329</ele>
        <time>2021-08-03T10:14:01.358Z</time>
      </trkpt>
      <trkpt lat="47.01923" lon="8.88582">
        <ele>1329</ele>
        <time>2021-08-03T10:14:02.358Z</time>
      </trkpt>
      <trkpt lat="47.01922" lon="8.8858">
        <ele>1329</ele>
        <time>2021-08-03T10:14:03.358Z</time>
      </trkpt>
      <trkpt lat="47.01921" lon="8.88578">
        <ele>1328</ele>
        <time>2021-08-03T10:14:04.358Z</time>
      </trkpt>
      <trkpt lat="47.01919" lon="8.88575">
        <ele>1328</ele>
        <time>2021-08-03T10:14:05.359Z</time>
      </trkpt>
      <trkpt lat="47.01919" lon="8.88573">
        <ele>1328</ele>
        <time>2021-08-03T10:14:06.358Z</time>
      </trkpt>
      <trkpt lat="47.0192" lon="8.88571">
        <ele>1328</ele>
        <time>2021-08-03T10:14:07.359Z</time>
      </trkpt>
      <trkpt lat="47.0192" lon="8.8857">
        <ele>1327</ele>
        <time>2021-08-03T10:14:08.358Z</time>
      </trkpt>
      <trkpt lat="47.0192" lon="8.88569">
        <ele>1327</ele>
        <time>2021-08-03T10:14:09.358Z</time>
      </trkpt>
      <trkpt lat="47.01919" lon="8.88569">
        <ele>1327</ele>
        <time>2021-08-03T10:14:10.358Z</time>
      </trkpt>
      <trkpt lat="47.01919" lon="8.88568">
        <ele>1327</ele>
        <time>2021-08-03T10:14:11.358Z</time>
      </trkpt>
      <trkpt lat="47.01919" lon="8.88566">
        <ele>1327</ele>
        <time>2021-08-03T10:14:12.359Z</time>
      </trkpt>
      <trkpt lat="47.01919" lon="8.88565">
        <ele>1327</ele>
        <time>2021-08-03T10:14:13.359Z</time>
      </trkpt>
      <trkpt lat="47.01919" lon="8.88563">
        <ele>1327</ele>
        <time>2021-08-03T10:14:14.359Z</time>
      </trkpt>
      <trkpt lat="47.01919" lon="8.88562">
        <ele>1327</ele>
        <time>2021-08-03T10:14:15.359Z</time>
      </trkpt>
      <trkpt lat="47.01918" lon="8.88561">
        <ele>1326</ele>
        <time>2021-08-03T10:14:16.359Z</time>
      </trkpt>
      <trkpt lat="47.01918" lon="8.8856">
        <ele>1326</ele>
        <time>2021-08-03T10:14:17.358Z</time>
      </trkpt>
      <trkpt lat="47.01917" lon="8.88558">
        <ele>1325</ele>
        <time>2021-08-03T10:14:18.359Z</time>
      </trkpt>
      <trkpt lat="47.01917" lon="8.88557">
        <ele>1325</ele>
        <time>2021-08-03T10:14:19.359Z</time>
      </trkpt>
      <trkpt lat="47.01916" lon="8.88555">
        <ele>1325</ele>
        <time>2021-08-03T10:14:20.359Z</time>
      </trkpt>
      <trkpt lat="47.01915" lon="8.88554">
        <ele>1325</ele>
        <time>2021-08-03T10:14:21.358Z</time>
      </trkpt>
      <trkpt lat="47.01913" lon="8.88553">
        <ele>1325</ele>
        <time>2021-08-03T10:14:22.358Z</time>
      </trkpt>
      <trkpt lat="47.01912" lon="8.88553">
        <ele>1325</ele>
        <time>2021-08-03T10:14:23.358Z</time>
      </trkpt>
      <trkpt lat="47.01912" lon="8.88552">
        <ele>1325</ele>
        <time>2021-08-03T10:14:24.359Z</time>
      </trkpt>
      <trkpt lat="47.01911" lon="8.88551">
        <ele>1326</ele>
        <time>2021-08-03T10:14:25.359Z</time>
      </trkpt>
      <trkpt lat="47.01911" lon="8.88551">
        <ele>1326</ele>
        <time>2021-08-03T10:14:26.359Z</time>
      </trkpt>
      <trkpt lat="47.01911" lon="8.8855">
        <ele>1327</ele>
        <time>2021-08-03T10:14:27.359Z</time>
      </trkpt>
      <trkpt lat="47.01909" lon="8.88551">
        <ele>1327</ele>
        <time>2021-08-03T10:14:28.359Z</time>
      </trkpt>
      <trkpt lat="47.01909" lon="8.88551">
        <ele>1327</ele>
        <time>2021-08-03T10:14:29.359Z</time>
      </trkpt>
      <trkpt lat="47.01908" lon="8.8855">
        <ele>1327</ele>
        <time>2021-08-03T10:14:30.358Z</time>
      </trkpt>
      <trkpt lat="47.01908" lon="8.88549">
        <ele>1326</ele>
        <time>2021-08-03T10:14:31.358Z</time>
      </trkpt>
      <trkpt lat="47.01908" lon="8.88549">
        <ele>1326</ele>
        <time>2021-08-03T10:14:32.358Z</time>
      </trkpt>
      <trkpt lat="47.01907" lon="8.88548">
        <ele>1326</ele>
        <time>2021-08-03T10:14:33.359Z</time>
      </trkpt>
      <trkpt lat="47.01907" lon="8.88547">
        <ele>1326</ele>
        <time>2021-08-03T10:14:34.359Z</time>
      </trkpt>
      <trkpt lat="47.01906" lon="8.88546">
        <ele>1326</ele>
        <time>2021-08-03T10:14:35.359Z</time>
      </trkpt>
      <trkpt lat="47.01906" lon="8.88545">
        <ele>1326</ele>
        <time>2021-08-03T10:14:36.359Z</time>
      </trkpt>
      <trkpt lat="47.01905" lon="8.88544">
        <ele>1325</ele>
        <time>2021-08-03T10:14:37.359Z</time>
      </trkpt>
      <trkpt lat="47.01905" lon="8.88543">
        <ele>1325</ele>
        <time>2021-08-03T10:14:38.359Z</time>
      </trkpt>
      <trkpt lat="47.01905" lon="8.88543">
        <ele>1325</ele>
        <time>2021-08-03T10:14:39.359Z</time>
      </trkpt>
      <trkpt lat="47.01904" lon="8.88542">
        <ele>1325</ele>
        <time>2021-08-03T10:14:40.359Z</time>
      </trkpt>
      <trkpt lat="47.01904" lon="8.88542">
        <ele>1325</ele>
        <time>2021-08-03T10:14:41.359Z</time>
      </trkpt>
      <trkpt lat="47.01903" lon="8.88541">
        <ele>1325</ele>
        <time>2021-08-03T10:14:42.359Z</time>
      </trkpt>
      <trkpt lat="47.01902" lon="8.8854">
        <ele>1325</ele>
        <time>2021-08-03T10:14:43.359Z</time>
      </trkpt>
      <trkpt lat="47.01902" lon="8.8854">
        <ele>1325</ele>
        <time>2021-08-03T10:14:44.359Z</time>
      </trkpt>
      <trkpt lat="47.01901" lon="8.88539">
        <ele>1325</ele>
        <time>2021-08-03T10:14:45.359Z</time>
      </trkpt>
      <trkpt lat="47.019" lon="8.88539">
        <ele>1325</ele>
        <time>2021-08-03T10:14:46.358Z</time>
      </trkpt>
      <trkpt lat="47.019" lon="8.88539">
        <ele>1325</ele>
        <time>2021-08-03T10:14:47.359Z</time>
      </trkpt>
      <trkpt lat="47.01899" lon="8.88538">
        <ele>1325</ele>
        <time>2021-08-03T10:14:48.358Z</time>
      </trkpt>
      <trkpt lat="47.01898" lon="8.88538">
        <ele>1325</ele>
        <time>2021-08-03T10:14:49.358Z</time>
      </trkpt>
      <trkpt lat="47.01896" lon="8.88537">
        <ele>1325</ele>
        <time>2021-08-03T10:14:50.359Z</time>
      </trkpt>
      <trkpt lat="47.01896" lon="8.88537">
        <ele>1325</ele>
        <time>2021-08-03T10:14:51.358Z</time>
      </trkpt>
      <trkpt lat="47.01895" lon="8.88537">
        <ele>1325</ele>
        <time>2021-08-03T10:14:52.359Z</time>
      </trkpt>
      <trkpt lat="47.01894" lon="8.88536">
        <ele>1325</ele>
        <time>2021-08-03T10:14:53.359Z</time>
      </trkpt>
      <trkpt lat="47.01893" lon="8.88536">
        <ele>1325</ele>
        <time>2021-08-03T10:14:54.358Z</time>
      </trkpt>
      <trkpt lat="47.01892" lon="8.88536">
        <ele>1325</ele>
        <time>2021-08-03T10:14:55.358Z</time>
      </trkpt>
      <trkpt lat="47.01891" lon="8.88536">
        <ele>1325</ele>
        <time>2021-08-03T10:14:56.358Z</time>
      </trkpt>
      <trkpt lat="47.01891" lon="8.88535">
        <ele>1325</ele>
        <time>2021-08-03T10:14:57.358Z</time>
      </trkpt>
      <trkpt lat="47.01891" lon="8.88534">
        <ele>1326</ele>
        <time>2021-08-03T10:14:58.358Z</time>
      </trkpt>
      <trkpt lat="47.01891" lon="8.88534">
        <ele>1326</ele>
        <time>2021-08-03T10:14:59.358Z</time>
      </trkpt>
      <trkpt lat="47.0189" lon="8.88533">
        <ele>1326</ele>
        <time>2021-08-03T10:15:00.358Z</time>
      </trkpt>
      <trkpt lat="47.0189" lon="8.88532">
        <ele>1326</ele>
        <time>2021-08-03T10:15:01.358Z</time>
      </trkpt>
      <trkpt lat="47.01889" lon="8.88532">
        <ele>1326</ele>
        <time>2021-08-03T10:15:02.358Z</time>
      </trkpt>
      <trkpt lat="47.01889" lon="8.88532">
        <ele>1326</ele>
        <time>2021-08-03T10:15:03.358Z</time>
      </trkpt>
      <trkpt lat="47.01888" lon="8.88531">
        <ele>1327</ele>
        <time>2021-08-03T10:15:04.358Z</time>
      </trkpt>
      <trkpt lat="47.01888" lon="8.88532">
        <ele>1327</ele>
        <time>2021-08-03T10:15:05.358Z</time>
      </trkpt>
      <trkpt lat="47.01888" lon="8.88532">
        <ele>1327</ele>
        <time>2021-08-03T10:15:06.358Z</time>
      </trkpt>
      <trkpt lat="47.01888" lon="8.88531">
        <ele>1327</ele>
        <time>2021-08-03T10:15:07.358Z</time>
      </trkpt>
      <trkpt lat="47.01889" lon="8.88532">
        <ele>1328</ele>
        <time>2021-08-03T10:15:08.359Z</time>
      </trkpt>
      <trkpt lat="47.01885" lon="8.88528">
        <ele>1329</ele>
        <time>2021-08-03T10:15:09.358Z</time>
      </trkpt>
      <trkpt lat="47.01884" lon="8.88528">
        <ele>1328</ele>
        <time>2021-08-03T10:15:10.358Z</time>
      </trkpt>
      <trkpt lat="47.01884" lon="8.88528">
        <ele>1328</ele>
        <time>2021-08-03T10:15:11.358Z</time>
      </trkpt>
      <trkpt lat="47.01883" lon="8.88527">
        <ele>1328</ele>
        <time>2021-08-03T10:15:12.359Z</time>
      </trkpt>
      <trkpt lat="47.01883" lon="8.88528">
        <ele>1328</ele>
        <time>2021-08-03T10:15:13.358Z</time>
      </trkpt>
      <trkpt lat="47.01882" lon="8.88528">
        <ele>1328</ele>
        <time>2021-08-03T10:15:14.358Z</time>
      </trkpt>
      <trkpt lat="47.01882" lon="8.88527">
        <ele>1328</ele>
        <time>2021-08-03T10:15:15.359Z</time>
      </trkpt>
      <trkpt lat="47.01882" lon="8.88527">
        <ele>1329</ele>
        <time>2021-08-03T10:15:16.359Z</time>
      </trkpt>
      <trkpt lat="47.01881" lon="8.88527">
        <ele>1329</ele>
        <time>2021-08-03T10:15:17.359Z</time>
      </trkpt>
      <trkpt lat="47.01881" lon="8.88527">
        <ele>1329</ele>
        <time>2021-08-03T10:15:18.358Z</time>
      </trkpt>
      <trkpt lat="47.0188" lon="8.88526">
        <ele>1329</ele>
        <time>2021-08-03T10:15:19.359Z</time>
      </trkpt>
      <trkpt lat="47.01879" lon="8.88525">
        <ele>1329</ele>
        <time>2021-08-03T10:15:20.358Z</time>
      </trkpt>
      <trkpt lat="47.01879" lon="8.88525">
        <ele>1330</ele>
        <time>2021-08-03T10:15:21.359Z</time>
      </trkpt>
      <trkpt lat="47.01878" lon="8.88523">
        <ele>1330</ele>
        <time>2021-08-03T10:15:22.359Z</time>
      </trkpt>
      <trkpt lat="47.01877" lon="8.88523">
        <ele>1331</ele>
        <time>2021-08-03T10:15:23.359Z</time>
      </trkpt>
      <trkpt lat="47.01877" lon="8.88523">
        <ele>1332</ele>
        <time>2021-08-03T10:15:24.359Z</time>
      </trkpt>
      <trkpt lat="47.01876" lon="8.88522">
        <ele>1333</ele>
        <time>2021-08-03T10:15:25.358Z</time>
      </trkpt>
      <trkpt lat="47.01875" lon="8.88522">
        <ele>1334</ele>
        <time>2021-08-03T10:15:26.358Z</time>
      </trkpt>
      <trkpt lat="47.01875" lon="8.88522">
        <ele>1334</ele>
        <time>2021-08-03T10:15:27.359Z</time>
      </trkpt>
      <trkpt lat="47.01874" lon="8.88521">
        <ele>1335</ele>
        <time>2021-08-03T10:15:28.359Z</time>
      </trkpt>
      <trkpt lat="47.01873" lon="8.88521">
        <ele>1336</ele>
        <time>2021-08-03T10:15:29.359Z</time>
      </trkpt>
      <trkpt lat="47.01873" lon="8.88521">
        <ele>1336</ele>
        <time>2021-08-03T10:15:30.358Z</time>
      </trkpt>
      <trkpt lat="47.01872" lon="8.88521">
        <ele>1337</ele>
        <time>2021-08-03T10:15:31.359Z</time>
      </trkpt>
      <trkpt lat="47.01871" lon="8.88521">
        <ele>1337</ele>
        <time>2021-08-03T10:15:32.358Z</time>
      </trkpt>
      <trkpt lat="47.01871" lon="8.8852">
        <ele>1337</ele>
        <time>2021-08-03T10:15:33.358Z</time>
      </trkpt>
      <trkpt lat="47.0187" lon="8.88519">
        <ele>1337</ele>
        <time>2021-08-03T10:15:34.359Z</time>
      </trkpt>
      <trkpt lat="47.01869" lon="8.8852">
        <ele>1338</ele>
        <time>2021-08-03T10:15:35.359Z</time>
      </trkpt>
      <trkpt lat="47.01868" lon="8.8852">
        <ele>1338</ele>
        <time>2021-08-03T10:15:36.359Z</time>
      </trkpt>
      <trkpt lat="47.01868" lon="8.88519">
        <ele>1338</ele>
        <time>2021-08-03T10:15:37.359Z</time>
      </trkpt>
      <trkpt lat="47.01867" lon="8.88519">
        <ele>1338</ele>
        <time>2021-08-03T10:15:38.359Z</time>
      </trkpt>
      <trkpt lat="47.01865" lon="8.88519">
        <ele>1338</ele>
        <time>2021-08-03T10:15:39.235Z</time>
      </trkpt>
      <trkpt lat="47.01865" lon="8.88519">
        <ele>1338</ele>
        <time>2021-08-03T10:15:40.235Z</time>
      </trkpt>
      <trkpt lat="47.01864" lon="8.88518">
        <ele>1338</ele>
        <time>2021-08-03T10:15:41.359Z</time>
      </trkpt>
      <trkpt lat="47.01862" lon="8.88517">
        <ele>1337</ele>
        <time>2021-08-03T10:15:42.359Z</time>
      </trkpt>
      <trkpt lat="47.01861" lon="8.88517">
        <ele>1337</ele>
        <time>2021-08-03T10:15:43.235Z</time>
      </trkpt>
      <trkpt lat="47.01861" lon="8.88516">
        <ele>1337</ele>
        <time>2021-08-03T10:15:44.360Z</time>
      </trkpt>
      <trkpt lat="47.0186" lon="8.88515">
        <ele>1337</ele>
        <time>2021-08-03T10:15:45.360Z</time>
      </trkpt>
      <trkpt lat="47.01859" lon="8.88516">
        <ele>1337</ele>
        <time>2021-08-03T10:15:46.359Z</time>
      </trkpt>
      <trkpt lat="47.01856" lon="8.88515">
        <ele>1336</ele>
        <time>2021-08-03T10:15:47.236Z</time>
      </trkpt>
      <trkpt lat="47.01855" lon="8.88515">
        <ele>1336</ele>
        <time>2021-08-03T10:15:48.236Z</time>
      </trkpt>
      <trkpt lat="47.01854" lon="8.88514">
        <ele>1336</ele>
        <time>2021-08-03T10:15:49.236Z</time>
      </trkpt>
      <trkpt lat="47.01854" lon="8.88514">
        <ele>1336</ele>
        <time>2021-08-03T10:15:50.236Z</time>
      </trkpt>
      <trkpt lat="47.01853" lon="8.88514">
        <ele>1336</ele>
        <time>2021-08-03T10:15:51.235Z</time>
      </trkpt>
      <trkpt lat="47.01852" lon="8.88514">
        <ele>1336</ele>
        <time>2021-08-03T10:15:52.236Z</time>
      </trkpt>
      <trkpt lat="47.01852" lon="8.88514">
        <ele>1336</ele>
        <time>2021-08-03T10:15:53.236Z</time>
      </trkpt>
      <trkpt lat="47.01851" lon="8.88513">
        <ele>1335</ele>
        <time>2021-08-03T10:15:54.236Z</time>
      </trkpt>
      <trkpt lat="47.0185" lon="8.88513">
        <ele>1335</ele>
        <time>2021-08-03T10:15:55.236Z</time>
      </trkpt>
      <trkpt lat="47.0185" lon="8.88513">
        <ele>1335</ele>
        <time>2021-08-03T10:15:56.236Z</time>
      </trkpt>
      <trkpt lat="47.01849" lon="8.88512">
        <ele>1335</ele>
        <time>2021-08-03T10:15:57.236Z</time>
      </trkpt>
      <trkpt lat="47.01848" lon="8.88512">
        <ele>1336</ele>
        <time>2021-08-03T10:15:58.236Z</time>
      </trkpt>
      <trkpt lat="47.01847" lon="8.88512">
        <ele>1336</ele>
        <time>2021-08-03T10:15:59.236Z</time>
      </trkpt>
      <trkpt lat="47.01846" lon="8.88511">
        <ele>1336</ele>
        <time>2021-08-03T10:16:00.236Z</time>
      </trkpt>
      <trkpt lat="47.01846" lon="8.88511">
        <ele>1336</ele>
        <time>2021-08-03T10:16:01.236Z</time>
      </trkpt>
      <trkpt lat="47.01846" lon="8.8851">
        <ele>1337</ele>
        <time>2021-08-03T10:16:02.235Z</time>
      </trkpt>
      <trkpt lat="47.01845" lon="8.88508">
        <ele>1338</ele>
        <time>2021-08-03T10:16:03.236Z</time>
      </trkpt>
      <trkpt lat="47.01844" lon="8.88507">
        <ele>1338</ele>
        <time>2021-08-03T10:16:04.236Z</time>
      </trkpt>
      <trkpt lat="47.01842" lon="8.88506">
        <ele>1339</ele>
        <time>2021-08-03T10:16:05.235Z</time>
      </trkpt>
      <trkpt lat="47.01842" lon="8.88505">
        <ele>1339</ele>
        <time>2021-08-03T10:16:06.235Z</time>
      </trkpt>
      <trkpt lat="47.01841" lon="8.88504">
        <ele>1340</ele>
        <time>2021-08-03T10:16:07.236Z</time>
      </trkpt>
      <trkpt lat="47.0184" lon="8.88504">
        <ele>1340</ele>
        <time>2021-08-03T10:16:08.236Z</time>
      </trkpt>
      <trkpt lat="47.01839" lon="8.88502">
        <ele>1341</ele>
        <time>2021-08-03T10:16:09.235Z</time>
      </trkpt>
      <trkpt lat="47.01838" lon="8.88502">
        <ele>1341</ele>
        <time>2021-08-03T10:16:10.235Z</time>
      </trkpt>
      <trkpt lat="47.01837" lon="8.88501">
        <ele>1342</ele>
        <time>2021-08-03T10:16:11.235Z</time>
      </trkpt>
      <trkpt lat="47.01836" lon="8.88502">
        <ele>1342</ele>
        <time>2021-08-03T10:16:12.236Z</time>
      </trkpt>
      <trkpt lat="47.01835" lon="8.88502">
        <ele>1342</ele>
        <time>2021-08-03T10:16:13.235Z</time>
      </trkpt>
      <trkpt lat="47.01834" lon="8.88502">
        <ele>1342</ele>
        <time>2021-08-03T10:16:14.235Z</time>
      </trkpt>
      <trkpt lat="47.01832" lon="8.88501">
        <ele>1342</ele>
        <time>2021-08-03T10:16:15.236Z</time>
      </trkpt>
      <trkpt lat="47.01831" lon="8.88501">
        <ele>1342</ele>
        <time>2021-08-03T10:16:16.236Z</time>
      </trkpt>
      <trkpt lat="47.01829" lon="8.88499">
        <ele>1344</ele>
        <time>2021-08-03T10:16:17.237Z</time>
      </trkpt>
      <trkpt lat="47.01828" lon="8.88498">
        <ele>1345</ele>
        <time>2021-08-03T10:16:18.237Z</time>
      </trkpt>
      <trkpt lat="47.01827" lon="8.88498">
        <ele>1345</ele>
        <time>2021-08-03T10:16:19.237Z</time>
      </trkpt>
      <trkpt lat="47.01827" lon="8.88496">
        <ele>1346</ele>
        <time>2021-08-03T10:16:20.237Z</time>
      </trkpt>
      <trkpt lat="47.01827" lon="8.88496">
        <ele>1346</ele>
        <time>2021-08-03T10:16:21.237Z</time>
      </trkpt>
      <trkpt lat="47.01827" lon="8.88495">
        <ele>1346</ele>
        <time>2021-08-03T10:16:22.236Z</time>
      </trkpt>
      <trkpt lat="47.01826" lon="8.88495">
        <ele>1347</ele>
        <time>2021-08-03T10:16:23.236Z</time>
      </trkpt>
      <trkpt lat="47.01826" lon="8.88495">
        <ele>1347</ele>
        <time>2021-08-03T10:16:24.237Z</time>
      </trkpt>
      <trkpt lat="47.01825" lon="8.88494">
        <ele>1347</ele>
        <time>2021-08-03T10:16:25.237Z</time>
      </trkpt>
      <trkpt lat="47.01825" lon="8.88493">
        <ele>1347</ele>
        <time>2021-08-03T10:16:26.237Z</time>
      </trkpt>
      <trkpt lat="47.01825" lon="8.88493">
        <ele>1347</ele>
        <time>2021-08-03T10:16:27.236Z</time>
      </trkpt>
      <trkpt lat="47.01825" lon="8.88492">
        <ele>1347</ele>
        <time>2021-08-03T10:16:28.237Z</time>
      </trkpt>
      <trkpt lat="47.01824" lon="8.88491">
        <ele>1346</ele>
        <time>2021-08-03T10:16:29.237Z</time>
      </trkpt>
      <trkpt lat="47.01824" lon="8.8849">
        <ele>1346</ele>
        <time>2021-08-03T10:16:30.237Z</time>
      </trkpt>
      <trkpt lat="47.01823" lon="8.8849">
        <ele>1346</ele>
        <time>2021-08-03T10:16:31.236Z</time>
      </trkpt>
      <trkpt lat="47.01823" lon="8.88489">
        <ele>1346</ele>
        <time>2021-08-03T10:16:32.237Z</time>
      </trkpt>
      <trkpt lat="47.01823" lon="8.88489">
        <ele>1346</ele>
        <time>2021-08-03T10:16:33.237Z</time>
      </trkpt>
      <trkpt lat="47.01822" lon="8.88488">
        <ele>1346</ele>
        <time>2021-08-03T10:16:34.237Z</time>
      </trkpt>
      <trkpt lat="47.01822" lon="8.88487">
        <ele>1346</ele>
        <time>2021-08-03T10:16:35.237Z</time>
      </trkpt>
      <trkpt lat="47.01821" lon="8.88485">
        <ele>1347</ele>
        <time>2021-08-03T10:16:36.237Z</time>
      </trkpt>
      <trkpt lat="47.0182" lon="8.88483">
        <ele>1347</ele>
        <time>2021-08-03T10:16:37.237Z</time>
      </trkpt>
      <trkpt lat="47.01819" lon="8.88481">
        <ele>1347</ele>
        <time>2021-08-03T10:16:38.237Z</time>
      </trkpt>
      <trkpt lat="47.01818" lon="8.8848">
        <ele>1347</ele>
        <time>2021-08-03T10:16:39.236Z</time>
      </trkpt>
      <trkpt lat="47.01817" lon="8.88478">
        <ele>1347</ele>
        <time>2021-08-03T10:16:40.236Z</time>
      </trkpt>
      <trkpt lat="47.01816" lon="8.88477">
        <ele>1347</ele>
        <time>2021-08-03T10:16:41.237Z</time>
      </trkpt>
      <trkpt lat="47.01815" lon="8.88475">
        <ele>1347</ele>
        <time>2021-08-03T10:16:42.237Z</time>
      </trkpt>
      <trkpt lat="47.01814" lon="8.88474">
        <ele>1348</ele>
        <time>2021-08-03T10:16:43.237Z</time>
      </trkpt>
      <trkpt lat="47.01813" lon="8.88473">
        <ele>1348</ele>
        <time>2021-08-03T10:16:44.237Z</time>
      </trkpt>
      <trkpt lat="47.01813" lon="8.88471">
        <ele>1348</ele>
        <time>2021-08-03T10:16:45.236Z</time>
      </trkpt>
      <trkpt lat="47.01812" lon="8.8847">
        <ele>1349</ele>
        <time>2021-08-03T10:16:46.237Z</time>
      </trkpt>
      <trkpt lat="47.01812" lon="8.88469">
        <ele>1349</ele>
        <time>2021-08-03T10:16:47.236Z</time>
      </trkpt>
      <trkpt lat="47.01811" lon="8.88469">
        <ele>1349</ele>
        <time>2021-08-03T10:16:48.237Z</time>
      </trkpt>
      <trkpt lat="47.0181" lon="8.88468">
        <ele>1349</ele>
        <time>2021-08-03T10:16:49.236Z</time>
      </trkpt>
      <trkpt lat="47.01809" lon="8.88468">
        <ele>1349</ele>
        <time>2021-08-03T10:16:50.237Z</time>
      </trkpt>
      <trkpt lat="47.01807" lon="8.88468">
        <ele>1350</ele>
        <time>2021-08-03T10:16:51.237Z</time>
      </trkpt>
      <trkpt lat="47.01806" lon="8.88468">
        <ele>1350</ele>
        <time>2021-08-03T10:16:52.236Z</time>
      </trkpt>
      <trkpt lat="47.01805" lon="8.88468">
        <ele>1350</ele>
        <time>2021-08-03T10:16:53.236Z</time>
      </trkpt>
      <trkpt lat="47.01804" lon="8.88469">
        <ele>1351</ele>
        <time>2021-08-03T10:16:54.236Z</time>
      </trkpt>
      <trkpt lat="47.01803" lon="8.88469">
        <ele>1351</ele>
        <time>2021-08-03T10:16:55.236Z</time>
      </trkpt>
      <trkpt lat="47.01802" lon="8.88469">
        <ele>1352</ele>
        <time>2021-08-03T10:16:56.236Z</time>
      </trkpt>
      <trkpt lat="47.018" lon="8.88469">
        <ele>1352</ele>
        <time>2021-08-03T10:16:57.236Z</time>
      </trkpt>
      <trkpt lat="47.01799" lon="8.88468">
        <ele>1353</ele>
        <time>2021-08-03T10:16:58.237Z</time>
      </trkpt>
      <trkpt lat="47.01798" lon="8.88468">
        <ele>1353</ele>
        <time>2021-08-03T10:16:59.236Z</time>
      </trkpt>
      <trkpt lat="47.01797" lon="8.88468">
        <ele>1354</ele>
        <time>2021-08-03T10:17:00.236Z</time>
      </trkpt>
      <trkpt lat="47.01796" lon="8.88467">
        <ele>1354</ele>
        <time>2021-08-03T10:17:01.236Z</time>
      </trkpt>
      <trkpt lat="47.01796" lon="8.88467">
        <ele>1355</ele>
        <time>2021-08-03T10:17:02.236Z</time>
      </trkpt>
      <trkpt lat="47.01793" lon="8.88465">
        <ele>1357</ele>
        <time>2021-08-03T10:17:03.238Z</time>
      </trkpt>
      <trkpt lat="47.01794" lon="8.88465">
        <ele>1357</ele>
        <time>2021-08-03T10:17:04.237Z</time>
      </trkpt>
      <trkpt lat="47.01794" lon="8.88464">
        <ele>1357</ele>
        <time>2021-08-03T10:17:05.238Z</time>
      </trkpt>
      <trkpt lat="47.01794" lon="8.88464">
        <ele>1357</ele>
        <time>2021-08-03T10:17:06.238Z</time>
      </trkpt>
      <trkpt lat="47.01793" lon="8.88463">
        <ele>1357</ele>
        <time>2021-08-03T10:17:07.238Z</time>
      </trkpt>
      <trkpt lat="47.01792" lon="8.88461">
        <ele>1357</ele>
        <time>2021-08-03T10:17:08.238Z</time>
      </trkpt>
      <trkpt lat="47.0179" lon="8.8846">
        <ele>1357</ele>
        <time>2021-08-03T10:17:09.238Z</time>
      </trkpt>
      <trkpt lat="47.01788" lon="8.88459">
        <ele>1356</ele>
        <time>2021-08-03T10:17:10.238Z</time>
      </trkpt>
      <trkpt lat="47.01785" lon="8.88458">
        <ele>1356</ele>
        <time>2021-08-03T10:17:11.237Z</time>
      </trkpt>
      <trkpt lat="47.01784" lon="8.88456">
        <ele>1354</ele>
        <time>2021-08-03T10:17:12.238Z</time>
      </trkpt>
      <trkpt lat="47.01784" lon="8.88454">
        <ele>1354</ele>
        <time>2021-08-03T10:17:13.237Z</time>
      </trkpt>
      <trkpt lat="47.01784" lon="8.88453">
        <ele>1354</ele>
        <time>2021-08-03T10:17:14.237Z</time>
      </trkpt>
      <trkpt lat="47.01783" lon="8.88453">
        <ele>1354</ele>
        <time>2021-08-03T10:17:15.237Z</time>
      </trkpt>
      <trkpt lat="47.01783" lon="8.88452">
        <ele>1354</ele>
        <time>2021-08-03T10:17:16.237Z</time>
      </trkpt>
      <trkpt lat="47.01782" lon="8.88451">
        <ele>1354</ele>
        <time>2021-08-03T10:17:17.238Z</time>
      </trkpt>
      <trkpt lat="47.01782" lon="8.88451">
        <ele>1354</ele>
        <time>2021-08-03T10:17:18.237Z</time>
      </trkpt>
      <trkpt lat="47.01781" lon="8.8845">
        <ele>1355</ele>
        <time>2021-08-03T10:17:19.237Z</time>
      </trkpt>
      <trkpt lat="47.01781" lon="8.8845">
        <ele>1356</ele>
        <time>2021-08-03T10:17:20.238Z</time>
      </trkpt>
      <trkpt lat="47.0178" lon="8.88449">
        <ele>1356</ele>
        <time>2021-08-03T10:17:21.238Z</time>
      </trkpt>
      <trkpt lat="47.01779" lon="8.88449">
        <ele>1357</ele>
        <time>2021-08-03T10:17:22.237Z</time>
      </trkpt>
      <trkpt lat="47.01777" lon="8.88448">
        <ele>1358</ele>
        <time>2021-08-03T10:17:23.238Z</time>
      </trkpt>
      <trkpt lat="47.01776" lon="8.88448">
        <ele>1359</ele>
        <time>2021-08-03T10:17:24.238Z</time>
      </trkpt>
      <trkpt lat="47.01775" lon="8.88448">
        <ele>1359</ele>
        <time>2021-08-03T10:17:25.237Z</time>
      </trkpt>
      <trkpt lat="47.01774" lon="8.88448">
        <ele>1360</ele>
        <time>2021-08-03T10:17:26.238Z</time>
      </trkpt>
      <trkpt lat="47.01774" lon="8.88447">
        <ele>1360</ele>
        <time>2021-08-03T10:17:27.238Z</time>
      </trkpt>
      <trkpt lat="47.01774" lon="8.88446">
        <ele>1361</ele>
        <time>2021-08-03T10:17:28.238Z</time>
      </trkpt>
      <trkpt lat="47.01773" lon="8.88445">
        <ele>1362</ele>
        <time>2021-08-03T10:17:29.237Z</time>
      </trkpt>
      <trkpt lat="47.01772" lon="8.88444">
        <ele>1362</ele>
        <time>2021-08-03T10:17:30.238Z</time>
      </trkpt>
      <trkpt lat="47.01771" lon="8.88443">
        <ele>1362</ele>
        <time>2021-08-03T10:17:31.237Z</time>
      </trkpt>
      <trkpt lat="47.0177" lon="8.88442">
        <ele>1363</ele>
        <time>2021-08-03T10:17:32.238Z</time>
      </trkpt>
      <trkpt lat="47.01769" lon="8.88441">
        <ele>1363</ele>
        <time>2021-08-03T10:17:33.238Z</time>
      </trkpt>
      <trkpt lat="47.01768" lon="8.88441">
        <ele>1364</ele>
        <time>2021-08-03T10:17:34.238Z</time>
      </trkpt>
      <trkpt lat="47.01768" lon="8.8844">
        <ele>1364</ele>
        <time>2021-08-03T10:17:35.238Z</time>
      </trkpt>
      <trkpt lat="47.01767" lon="8.88439">
        <ele>1364</ele>
        <time>2021-08-03T10:17:36.237Z</time>
      </trkpt>
      <trkpt lat="47.01766" lon="8.88439">
        <ele>1365</ele>
        <time>2021-08-03T10:17:37.238Z</time>
      </trkpt>
      <trkpt lat="47.01766" lon="8.88438">
        <ele>1365</ele>
        <time>2021-08-03T10:17:38.238Z</time>
      </trkpt>
      <trkpt lat="47.01765" lon="8.88438">
        <ele>1365</ele>
        <time>2021-08-03T10:17:39.238Z</time>
      </trkpt>
      <trkpt lat="47.01765" lon="8.88437">
        <ele>1365</ele>
        <time>2021-08-03T10:17:40.237Z</time>
      </trkpt>
      <trkpt lat="47.01765" lon="8.88437">
        <ele>1365</ele>
        <time>2021-08-03T10:17:41.237Z</time>
      </trkpt>
      <trkpt lat="47.01764" lon="8.88436">
        <ele>1365</ele>
        <time>2021-08-03T10:17:42.237Z</time>
      </trkpt>
      <trkpt lat="47.01764" lon="8.88435">
        <ele>1364</ele>
        <time>2021-08-03T10:17:43.238Z</time>
      </trkpt>
      <trkpt lat="47.01761" lon="8.88433">
        <ele>1363</ele>
        <time>2021-08-03T10:17:44.240Z</time>
      </trkpt>
      <trkpt lat="47.0176" lon="8.88432">
        <ele>1363</ele>
        <time>2021-08-03T10:17:45.240Z</time>
      </trkpt>
      <trkpt lat="47.01759" lon="8.88431">
        <ele>1362</ele>
        <time>2021-08-03T10:17:46.239Z</time>
      </trkpt>
      <trkpt lat="47.01758" lon="8.88432">
        <ele>1362</ele>
        <time>2021-08-03T10:17:47.239Z</time>
      </trkpt>
      <trkpt lat="47.01757" lon="8.88432">
        <ele>1362</ele>
        <time>2021-08-03T10:17:48.240Z</time>
      </trkpt>
      <trkpt lat="47.01756" lon="8.88433">
        <ele>1361</ele>
        <time>2021-08-03T10:17:49.240Z</time>
      </trkpt>
      <trkpt lat="47.01755" lon="8.88433">
        <ele>1361</ele>
        <time>2021-08-03T10:17:50.239Z</time>
      </trkpt>
      <trkpt lat="47.01754" lon="8.88432">
        <ele>1361</ele>
        <time>2021-08-03T10:17:51.240Z</time>
      </trkpt>
      <trkpt lat="47.01755" lon="8.88432">
        <ele>1361</ele>
        <time>2021-08-03T10:17:52.239Z</time>
      </trkpt>
      <trkpt lat="47.01753" lon="8.88431">
        <ele>1360</ele>
        <time>2021-08-03T10:17:53.240Z</time>
      </trkpt>
      <trkpt lat="47.01753" lon="8.88431">
        <ele>1359</ele>
        <time>2021-08-03T10:17:54.241Z</time>
      </trkpt>
      <trkpt lat="47.01752" lon="8.88431">
        <ele>1359</ele>
        <time>2021-08-03T10:17:55.240Z</time>
      </trkpt>
      <trkpt lat="47.01751" lon="8.8843">
        <ele>1359</ele>
        <time>2021-08-03T10:17:56.240Z</time>
      </trkpt>
      <trkpt lat="47.01751" lon="8.8843">
        <ele>1358</ele>
        <time>2021-08-03T10:17:57.241Z</time>
      </trkpt>
      <trkpt lat="47.01751" lon="8.88429">
        <ele>1358</ele>
        <time>2021-08-03T10:17:58.241Z</time>
      </trkpt>
      <trkpt lat="47.0175" lon="8.88429">
        <ele>1358</ele>
        <time>2021-08-03T10:17:59.240Z</time>
      </trkpt>
      <trkpt lat="47.0175" lon="8.8843">
        <ele>1357</ele>
        <time>2021-08-03T10:18:00.241Z</time>
      </trkpt>
      <trkpt lat="47.01749" lon="8.8843">
        <ele>1357</ele>
        <time>2021-08-03T10:18:01.240Z</time>
      </trkpt>
      <trkpt lat="47.01749" lon="8.88429">
        <ele>1358</ele>
        <time>2021-08-03T10:18:02.240Z</time>
      </trkpt>
      <trkpt lat="47.0175" lon="8.88428">
        <ele>1358</ele>
        <time>2021-08-03T10:18:03.241Z</time>
      </trkpt>
      <trkpt lat="47.0175" lon="8.88427">
        <ele>1358</ele>
        <time>2021-08-03T10:18:04.241Z</time>
      </trkpt>
      <trkpt lat="47.01749" lon="8.88426">
        <ele>1358</ele>
        <time>2021-08-03T10:18:05.241Z</time>
      </trkpt>
      <trkpt lat="47.01749" lon="8.88425">
        <ele>1358</ele>
        <time>2021-08-03T10:18:06.241Z</time>
      </trkpt>
      <trkpt lat="47.01749" lon="8.88425">
        <ele>1358</ele>
        <time>2021-08-03T10:18:07.241Z</time>
      </trkpt>
      <trkpt lat="47.01749" lon="8.88424">
        <ele>1358</ele>
        <time>2021-08-03T10:18:08.241Z</time>
      </trkpt>
      <trkpt lat="47.0175" lon="8.88424">
        <ele>1359</ele>
        <time>2021-08-03T10:18:09.240Z</time>
      </trkpt>
      <trkpt lat="47.01749" lon="8.88423">
        <ele>1359</ele>
        <time>2021-08-03T10:18:10.240Z</time>
      </trkpt>
      <trkpt lat="47.01747" lon="8.88423">
        <ele>1358</ele>
        <time>2021-08-03T10:18:11.240Z</time>
      </trkpt>
      <trkpt lat="47.01746" lon="8.88423">
        <ele>1358</ele>
        <time>2021-08-03T10:18:12.240Z</time>
      </trkpt>
      <trkpt lat="47.01744" lon="8.88423">
        <ele>1358</ele>
        <time>2021-08-03T10:18:13.241Z</time>
      </trkpt>
      <trkpt lat="47.01744" lon="8.88423">
        <ele>1358</ele>
        <time>2021-08-03T10:18:14.240Z</time>
      </trkpt>
      <trkpt lat="47.01743" lon="8.88424">
        <ele>1358</ele>
        <time>2021-08-03T10:18:15.240Z</time>
      </trkpt>
      <trkpt lat="47.01741" lon="8.88424">
        <ele>1359</ele>
        <time>2021-08-03T10:18:16.242Z</time>
      </trkpt>
      <trkpt lat="47.0174" lon="8.88424">
        <ele>1359</ele>
        <time>2021-08-03T10:18:17.242Z</time>
      </trkpt>
      <trkpt lat="47.01738" lon="8.88424">
        <ele>1360</ele>
        <time>2021-08-03T10:18:18.241Z</time>
      </trkpt>
      <trkpt lat="47.01737" lon="8.88423">
        <ele>1360</ele>
        <time>2021-08-03T10:18:19.241Z</time>
      </trkpt>
      <trkpt lat="47.01735" lon="8.88423">
        <ele>1360</ele>
        <time>2021-08-03T10:18:20.241Z</time>
      </trkpt>
      <trkpt lat="47.01734" lon="8.88424">
        <ele>1360</ele>
        <time>2021-08-03T10:18:21.242Z</time>
      </trkpt>
      <trkpt lat="47.0173" lon="8.88429">
        <ele>1356</ele>
        <time>2021-08-03T10:18:22.242Z</time>
      </trkpt>
      <trkpt lat="47.0173" lon="8.88428">
        <ele>1356</ele>
        <time>2021-08-03T10:18:23.242Z</time>
      </trkpt>
      <trkpt lat="47.01731" lon="8.88427">
        <ele>1356</ele>
        <time>2021-08-03T10:18:24.242Z</time>
      </trkpt>
      <trkpt lat="47.01731" lon="8.88428">
        <ele>1356</ele>
        <time>2021-08-03T10:18:25.241Z</time>
      </trkpt>
      <trkpt lat="47.01731" lon="8.88428">
        <ele>1356</ele>
        <time>2021-08-03T10:18:26.241Z</time>
      </trkpt>
      <trkpt lat="47.0173" lon="8.88429">
        <ele>1356</ele>
        <time>2021-08-03T10:18:27.242Z</time>
      </trkpt>
      <trkpt lat="47.01729" lon="8.88429">
        <ele>1356</ele>
        <time>2021-08-03T10:18:28.241Z</time>
      </trkpt>
      <trkpt lat="47.01726" lon="8.8843">
        <ele>1356</ele>
        <time>2021-08-03T10:18:29.242Z</time>
      </trkpt>
      <trkpt lat="47.01724" lon="8.88432">
        <ele>1356</ele>
        <time>2021-08-03T10:18:30.242Z</time>
      </trkpt>
      <trkpt lat="47.01722" lon="8.88433">
        <ele>1356</ele>
        <time>2021-08-03T10:18:31.241Z</time>
      </trkpt>
      <trkpt lat="47.01721" lon="8.88434">
        <ele>1357</ele>
        <time>2021-08-03T10:18:32.242Z</time>
      </trkpt>
      <trkpt lat="47.0172" lon="8.88433">
        <ele>1357</ele>
        <time>2021-08-03T10:18:33.242Z</time>
      </trkpt>
      <trkpt lat="47.01719" lon="8.88432">
        <ele>1357</ele>
        <time>2021-08-03T10:18:34.242Z</time>
      </trkpt>
      <trkpt lat="47.01718" lon="8.88431">
        <ele>1357</ele>
        <time>2021-08-03T10:18:35.241Z</time>
      </trkpt>
      <trkpt lat="47.01717" lon="8.88428">
        <ele>1357</ele>
        <time>2021-08-03T10:18:36.241Z</time>
      </trkpt>
      <trkpt lat="47.01716" lon="8.88426">
        <ele>1358</ele>
        <time>2021-08-03T10:18:37.241Z</time>
      </trkpt>
      <trkpt lat="47.01715" lon="8.88424">
        <ele>1358</ele>
        <time>2021-08-03T10:18:38.241Z</time>
      </trkpt>
      <trkpt lat="47.01714" lon="8.8842">
        <ele>1358</ele>
        <time>2021-08-03T10:18:39.242Z</time>
      </trkpt>
      <trkpt lat="47.01714" lon="8.88418">
        <ele>1358</ele>
        <time>2021-08-03T10:18:40.242Z</time>
      </trkpt>
      <trkpt lat="47.01713" lon="8.88416">
        <ele>1359</ele>
        <time>2021-08-03T10:18:41.242Z</time>
      </trkpt>
      <trkpt lat="47.01712" lon="8.88414">
        <ele>1359</ele>
        <time>2021-08-03T10:18:42.242Z</time>
      </trkpt>
      <trkpt lat="47.01711" lon="8.88413">
        <ele>1359</ele>
        <time>2021-08-03T10:18:43.241Z</time>
      </trkpt>
      <trkpt lat="47.0171" lon="8.88413">
        <ele>1359</ele>
        <time>2021-08-03T10:18:44.241Z</time>
      </trkpt>
      <trkpt lat="47.0171" lon="8.88414">
        <ele>1359</ele>
        <time>2021-08-03T10:18:45.241Z</time>
      </trkpt>
      <trkpt lat="47.01711" lon="8.88414">
        <ele>1359</ele>
        <time>2021-08-03T10:18:46.242Z</time>
      </trkpt>
      <trkpt lat="47.01711" lon="8.88416">
        <ele>1359</ele>
        <time>2021-08-03T10:18:47.241Z</time>
      </trkpt>
      <trkpt lat="47.01711" lon="8.88415">
        <ele>1359</ele>
        <time>2021-08-03T10:18:48.241Z</time>
      </trkpt>
      <trkpt lat="47.01711" lon="8.88414">
        <ele>1358</ele>
        <time>2021-08-03T10:18:49.242Z</time>
      </trkpt>
      <trkpt lat="47.0171" lon="8.88413">
        <ele>1358</ele>
        <time>2021-08-03T10:18:50.241Z</time>
      </trkpt>
      <trkpt lat="47.0171" lon="8.88411">
        <ele>1357</ele>
        <time>2021-08-03T10:18:51.242Z</time>
      </trkpt>
      <trkpt lat="47.01709" lon="8.88408">
        <ele>1357</ele>
        <time>2021-08-03T10:18:52.242Z</time>
      </trkpt>
      <trkpt lat="47.01709" lon="8.88407">
        <ele>1356</ele>
        <time>2021-08-03T10:18:53.242Z</time>
      </trkpt>
      <trkpt lat="47.01708" lon="8.88405">
        <ele>1356</ele>
        <time>2021-08-03T10:18:54.242Z</time>
      </trkpt>
      <trkpt lat="47.01709" lon="8.88404">
        <ele>1355</ele>
        <time>2021-08-03T10:18:55.242Z</time>
      </trkpt>
      <trkpt lat="47.01709" lon="8.88403">
        <ele>1355</ele>
        <time>2021-08-03T10:18:56.241Z</time>
      </trkpt>
      <trkpt lat="47.01709" lon="8.88403">
        <ele>1354</ele>
        <time>2021-08-03T10:18:57.241Z</time>
      </trkpt>
      <trkpt lat="47.01708" lon="8.88402">
        <ele>1354</ele>
        <time>2021-08-03T10:18:58.242Z</time>
      </trkpt>
      <trkpt lat="47.01706" lon="8.88403">
        <ele>1354</ele>
        <time>2021-08-03T10:18:59.241Z</time>
      </trkpt>
      <trkpt lat="47.01704" lon="8.88404">
        <ele>1353</ele>
        <time>2021-08-03T10:19:00.242Z</time>
      </trkpt>
      <trkpt lat="47.01702" lon="8.88404">
        <ele>1353</ele>
        <time>2021-08-03T10:19:01.242Z</time>
      </trkpt>
      <trkpt lat="47.01701" lon="8.88404">
        <ele>1353</ele>
        <time>2021-08-03T10:19:02.242Z</time>
      </trkpt>
      <trkpt lat="47.017" lon="8.88402">
        <ele>1353</ele>
        <time>2021-08-03T10:19:03.241Z</time>
      </trkpt>
      <trkpt lat="47.01698" lon="8.884">
        <ele>1353</ele>
        <time>2021-08-03T10:19:04.241Z</time>
      </trkpt>
      <trkpt lat="47.01697" lon="8.88399">
        <ele>1353</ele>
        <time>2021-08-03T10:19:05.242Z</time>
      </trkpt>
      <trkpt lat="47.01696" lon="8.88398">
        <ele>1353</ele>
        <time>2021-08-03T10:19:06.242Z</time>
      </trkpt>
      <trkpt lat="47.01695" lon="8.88397">
        <ele>1353</ele>
        <time>2021-08-03T10:19:07.242Z</time>
      </trkpt>
      <trkpt lat="47.01694" lon="8.88397">
        <ele>1353</ele>
        <time>2021-08-03T10:19:08.242Z</time>
      </trkpt>
      <trkpt lat="47.01694" lon="8.88397">
        <ele>1353</ele>
        <time>2021-08-03T10:19:09.242Z</time>
      </trkpt>
      <trkpt lat="47.01694" lon="8.88397">
        <ele>1353</ele>
        <time>2021-08-03T10:19:10.242Z</time>
      </trkpt>
      <trkpt lat="47.01695" lon="8.88397">
        <ele>1353</ele>
        <time>2021-08-03T10:19:11.241Z</time>
      </trkpt>
      <trkpt lat="47.01695" lon="8.88395">
        <ele>1353</ele>
        <time>2021-08-03T10:19:12.242Z</time>
      </trkpt>
      <trkpt lat="47.01696" lon="8.88395">
        <ele>1353</ele>
        <time>2021-08-03T10:19:13.242Z</time>
      </trkpt>
      <trkpt lat="47.01695" lon="8.88394">
        <ele>1353</ele>
        <time>2021-08-03T10:19:14.242Z</time>
      </trkpt>
      <trkpt lat="47.01694" lon="8.88394">
        <ele>1353</ele>
        <time>2021-08-03T10:19:15.242Z</time>
      </trkpt>
      <trkpt lat="47.01693" lon="8.88394">
        <ele>1353</ele>
        <time>2021-08-03T10:19:16.242Z</time>
      </trkpt>
      <trkpt lat="47.01692" lon="8.88393">
        <ele>1354</ele>
        <time>2021-08-03T10:19:17.242Z</time>
      </trkpt>
      <trkpt lat="47.01693" lon="8.88392">
        <ele>1354</ele>
        <time>2021-08-03T10:19:18.241Z</time>
      </trkpt>
      <trkpt lat="47.01694" lon="8.88391">
        <ele>1354</ele>
        <time>2021-08-03T10:19:19.242Z</time>
      </trkpt>
      <trkpt lat="47.01694" lon="8.88391">
        <ele>1354</ele>
        <time>2021-08-03T10:19:20.242Z</time>
      </trkpt>
      <trkpt lat="47.01694" lon="8.8839">
        <ele>1355</ele>
        <time>2021-08-03T10:19:21.242Z</time>
      </trkpt>
      <trkpt lat="47.01695" lon="8.88388">
        <ele>1355</ele>
        <time>2021-08-03T10:19:22.242Z</time>
      </trkpt>
      <trkpt lat="47.01694" lon="8.88387">
        <ele>1355</ele>
        <time>2021-08-03T10:19:23.242Z</time>
      </trkpt>
      <trkpt lat="47.01693" lon="8.88385">
        <ele>1356</ele>
        <time>2021-08-03T10:19:24.242Z</time>
      </trkpt>
      <trkpt lat="47.01692" lon="8.88384">
        <ele>1356</ele>
        <time>2021-08-03T10:19:25.241Z</time>
      </trkpt>
      <trkpt lat="47.0169" lon="8.88383">
        <ele>1356</ele>
        <time>2021-08-03T10:19:26.242Z</time>
      </trkpt>
      <trkpt lat="47.01689" lon="8.88382">
        <ele>1356</ele>
        <time>2021-08-03T10:19:27.241Z</time>
      </trkpt>
      <trkpt lat="47.01688" lon="8.8838">
        <ele>1356</ele>
        <time>2021-08-03T10:19:28.242Z</time>
      </trkpt>
      <trkpt lat="47.01687" lon="8.88379">
        <ele>1355</ele>
        <time>2021-08-03T10:19:29.241Z</time>
      </trkpt>
      <trkpt lat="47.01686" lon="8.88378">
        <ele>1355</ele>
        <time>2021-08-03T10:19:30.241Z</time>
      </trkpt>
      <trkpt lat="47.01685" lon="8.88377">
        <ele>1355</ele>
        <time>2021-08-03T10:19:31.242Z</time>
      </trkpt>
      <trkpt lat="47.01684" lon="8.88377">
        <ele>1355</ele>
        <time>2021-08-03T10:19:32.242Z</time>
      </trkpt>
      <trkpt lat="47.01684" lon="8.88377">
        <ele>1355</ele>
        <time>2021-08-03T10:19:33.242Z</time>
      </trkpt>
      <trkpt lat="47.01684" lon="8.88378">
        <ele>1354</ele>
        <time>2021-08-03T10:19:34.242Z</time>
      </trkpt>
      <trkpt lat="47.01684" lon="8.88378">
        <ele>1354</ele>
        <time>2021-08-03T10:19:35.242Z</time>
      </trkpt>
      <trkpt lat="47.01683" lon="8.88379">
        <ele>1354</ele>
        <time>2021-08-03T10:19:36.241Z</time>
      </trkpt>
      <trkpt lat="47.01682" lon="8.88378">
        <ele>1353</ele>
        <time>2021-08-03T10:19:37.241Z</time>
      </trkpt>
      <trkpt lat="47.01678" lon="8.88376">
        <ele>1352</ele>
        <time>2021-08-03T10:19:38.242Z</time>
      </trkpt>
      <trkpt lat="47.01677" lon="8.88375">
        <ele>1352</ele>
        <time>2021-08-03T10:19:39.242Z</time>
      </trkpt>
      <trkpt lat="47.01676" lon="8.88373">
        <ele>1351</ele>
        <time>2021-08-03T10:19:40.241Z</time>
      </trkpt>
      <trkpt lat="47.01675" lon="8.88371">
        <ele>1351</ele>
        <time>2021-08-03T10:19:41.242Z</time>
      </trkpt>
      <trkpt lat="47.01675" lon="8.88369">
        <ele>1350</ele>
        <time>2021-08-03T10:19:42.241Z</time>
      </trkpt>
      <trkpt lat="47.01674" lon="8.88367">
        <ele>1350</ele>
        <time>2021-08-03T10:19:43.242Z</time>
      </trkpt>
      <trkpt lat="47.01674" lon="8.88366">
        <ele>1349</ele>
        <time>2021-08-03T10:19:44.241Z</time>
      </trkpt>
      <trkpt lat="47.01674" lon="8.88366">
        <ele>1349</ele>
        <time>2021-08-03T10:19:45.242Z</time>
      </trkpt>
      <trkpt lat="47.01674" lon="8.88366">
        <ele>1348</ele>
        <time>2021-08-03T10:19:46.242Z</time>
      </trkpt>
      <trkpt lat="47.01674" lon="8.88367">
        <ele>1347</ele>
        <time>2021-08-03T10:19:47.242Z</time>
      </trkpt>
      <trkpt lat="47.01673" lon="8.88367">
        <ele>1347</ele>
        <time>2021-08-03T10:19:48.242Z</time>
      </trkpt>
      <trkpt lat="47.01672" lon="8.88368">
        <ele>1346</ele>
        <time>2021-08-03T10:19:49.242Z</time>
      </trkpt>
      <trkpt lat="47.01673" lon="8.88368">
        <ele>1346</ele>
        <time>2021-08-03T10:19:50.242Z</time>
      </trkpt>
      <trkpt lat="47.01674" lon="8.88367">
        <ele>1346</ele>
        <time>2021-08-03T10:19:51.242Z</time>
      </trkpt>
      <trkpt lat="47.01675" lon="8.88366">
        <ele>1345</ele>
        <time>2021-08-03T10:19:52.241Z</time>
      </trkpt>
      <trkpt lat="47.01676" lon="8.88364">
        <ele>1345</ele>
        <time>2021-08-03T10:19:53.241Z</time>
      </trkpt>
      <trkpt lat="47.01676" lon="8.88363">
        <ele>1345</ele>
        <time>2021-08-03T10:19:54.241Z</time>
      </trkpt>
      <trkpt lat="47.01675" lon="8.88363">
        <ele>1344</ele>
        <time>2021-08-03T10:19:55.241Z</time>
      </trkpt>
      <trkpt lat="47.01675" lon="8.88363">
        <ele>1344</ele>
        <time>2021-08-03T10:19:56.242Z</time>
      </trkpt>
      <trkpt lat="47.01674" lon="8.88362">
        <ele>1344</ele>
        <time>2021-08-03T10:19:57.242Z</time>
      </trkpt>
      <trkpt lat="47.01673" lon="8.88361">
        <ele>1344</ele>
        <time>2021-08-03T10:19:58.241Z</time>
      </trkpt>
      <trkpt lat="47.01669" lon="8.88359">
        <ele>1343</ele>
        <time>2021-08-03T10:19:59.242Z</time>
      </trkpt>
      <trkpt lat="47.01666" lon="8.88357">
        <ele>1343</ele>
        <time>2021-08-03T10:20:00.242Z</time>
      </trkpt>
      <trkpt lat="47.01663" lon="8.88355">
        <ele>1343</ele>
        <time>2021-08-03T10:20:01.242Z</time>
      </trkpt>
      <trkpt lat="47.01661" lon="8.88354">
        <ele>1343</ele>
        <time>2021-08-03T10:20:02.242Z</time>
      </trkpt>
      <trkpt lat="47.01659" lon="8.88353">
        <ele>1342</ele>
        <time>2021-08-03T10:20:03.241Z</time>
      </trkpt>
      <trkpt lat="47.01658" lon="8.88351">
        <ele>1342</ele>
        <time>2021-08-03T10:20:04.241Z</time>
      </trkpt>
      <trkpt lat="47.01656" lon="8.8835">
        <ele>1342</ele>
        <time>2021-08-03T10:20:05.242Z</time>
      </trkpt>
      <trkpt lat="47.01654" lon="8.88349">
        <ele>1342</ele>
        <time>2021-08-03T10:20:06.242Z</time>
      </trkpt>
      <trkpt lat="47.01652" lon="8.88348">
        <ele>1342</ele>
        <time>2021-08-03T10:20:07.242Z</time>
      </trkpt>
      <trkpt lat="47.01651" lon="8.88347">
        <ele>1343</ele>
        <time>2021-08-03T10:20:08.241Z</time>
      </trkpt>
      <trkpt lat="47.0165" lon="8.88346">
        <ele>1343</ele>
        <time>2021-08-03T10:20:09.242Z</time>
      </trkpt>
      <trkpt lat="47.0165" lon="8.88346">
        <ele>1343</ele>
        <time>2021-08-03T10:20:10.242Z</time>
      </trkpt>
      <trkpt lat="47.01649" lon="8.88345">
        <ele>1344</ele>
        <time>2021-08-03T10:20:11.242Z</time>
      </trkpt>
      <trkpt lat="47.01648" lon="8.88344">
        <ele>1344</ele>
        <time>2021-08-03T10:20:12.241Z</time>
      </trkpt>
      <trkpt lat="47.01642" lon="8.88341">
        <ele>1347</ele>
        <time>2021-08-03T10:20:13.241Z</time>
      </trkpt>
      <trkpt lat="47.01643" lon="8.88342">
        <ele>1347</ele>
        <time>2021-08-03T10:20:14.242Z</time>
      </trkpt>
      <trkpt lat="47.01643" lon="8.88343">
        <ele>1348</ele>
        <time>2021-08-03T10:20:15.241Z</time>
      </trkpt>
      <trkpt lat="47.01644" lon="8.88344">
        <ele>1349</ele>
        <time>2021-08-03T10:20:16.242Z</time>
      </trkpt>
      <trkpt lat="47.01643" lon="8.88344">
        <ele>1349</ele>
        <time>2021-08-03T10:20:17.242Z</time>
      </trkpt>
      <trkpt lat="47.01642" lon="8.88344">
        <ele>1349</ele>
        <time>2021-08-03T10:20:18.241Z</time>
      </trkpt>
      <trkpt lat="47.01642" lon="8.88344">
        <ele>1350</ele>
        <time>2021-08-03T10:20:19.242Z</time>
      </trkpt>
      <trkpt lat="47.01642" lon="8.88344">
        <ele>1350</ele>
        <time>2021-08-03T10:20:20.242Z</time>
      </trkpt>
      <trkpt lat="47.01642" lon="8.88344">
        <ele>1350</ele>
        <time>2021-08-03T10:20:21.242Z</time>
      </trkpt>
      <trkpt lat="47.01641" lon="8.88345">
        <ele>1350</ele>
        <time>2021-08-03T10:20:22.242Z</time>
      </trkpt>
      <trkpt lat="47.0164" lon="8.88344">
        <ele>1350</ele>
        <time>2021-08-03T10:20:23.241Z</time>
      </trkpt>
      <trkpt lat="47.0164" lon="8.88343">
        <ele>1350</ele>
        <time>2021-08-03T10:20:24.242Z</time>
      </trkpt>
      <trkpt lat="47.01641" lon="8.88343">
        <ele>1350</ele>
        <time>2021-08-03T10:20:25.242Z</time>
      </trkpt>
      <trkpt lat="47.01641" lon="8.88342">
        <ele>1350</ele>
        <time>2021-08-03T10:20:26.242Z</time>
      </trkpt>
      <trkpt lat="47.01641" lon="8.88342">
        <ele>1349</ele>
        <time>2021-08-03T10:20:27.241Z</time>
      </trkpt>
      <trkpt lat="47.0164" lon="8.88341">
        <ele>1349</ele>
        <time>2021-08-03T10:20:28.241Z</time>
      </trkpt>
      <trkpt lat="47.0164" lon="8.8834">
        <ele>1348</ele>
        <time>2021-08-03T10:20:29.242Z</time>
      </trkpt>
      <trkpt lat="47.0164" lon="8.88339">
        <ele>1347</ele>
        <time>2021-08-03T10:20:30.242Z</time>
      </trkpt>
      <trkpt lat="47.0164" lon="8.88339">
        <ele>1346</ele>
        <time>2021-08-03T10:20:31.242Z</time>
      </trkpt>
      <trkpt lat="47.0164" lon="8.88338">
        <ele>1346</ele>
        <time>2021-08-03T10:20:32.242Z</time>
      </trkpt>
      <trkpt lat="47.0164" lon="8.88337">
        <ele>1345</ele>
        <time>2021-08-03T10:20:33.242Z</time>
      </trkpt>
      <trkpt lat="47.01639" lon="8.88336">
        <ele>1345</ele>
        <time>2021-08-03T10:20:34.242Z</time>
      </trkpt>
      <trkpt lat="47.01639" lon="8.88335">
        <ele>1345</ele>
        <time>2021-08-03T10:20:35.242Z</time>
      </trkpt>
      <trkpt lat="47.01638" lon="8.88335">
        <ele>1344</ele>
        <time>2021-08-03T10:20:36.241Z</time>
      </trkpt>
      <trkpt lat="47.01637" lon="8.88335">
        <ele>1344</ele>
        <time>2021-08-03T10:20:37.242Z</time>
      </trkpt>
      <trkpt lat="47.01636" lon="8.88336">
        <ele>1344</ele>
        <time>2021-08-03T10:20:38.241Z</time>
      </trkpt>
      <trkpt lat="47.01635" lon="8.88336">
        <ele>1343</ele>
        <time>2021-08-03T10:20:39.242Z</time>
      </trkpt>
      <trkpt lat="47.01634" lon="8.88336">
        <ele>1343</ele>
        <time>2021-08-03T10:20:40.242Z</time>
      </trkpt>
      <trkpt lat="47.01634" lon="8.88335">
        <ele>1342</ele>
        <time>2021-08-03T10:20:41.241Z</time>
      </trkpt>
      <trkpt lat="47.01632" lon="8.88336">
        <ele>1342</ele>
        <time>2021-08-03T10:20:42.242Z</time>
      </trkpt>
      <trkpt lat="47.01632" lon="8.88336">
        <ele>1342</ele>
        <time>2021-08-03T10:20:43.241Z</time>
      </trkpt>
      <trkpt lat="47.01632" lon="8.88335">
        <ele>1342</ele>
        <time>2021-08-03T10:20:44.242Z</time>
      </trkpt>
      <trkpt lat="47.01631" lon="8.88334">
        <ele>1341</ele>
        <time>2021-08-03T10:20:45.241Z</time>
      </trkpt>
      <trkpt lat="47.0163" lon="8.88335">
        <ele>1341</ele>
        <time>2021-08-03T10:20:46.242Z</time>
      </trkpt>
      <trkpt lat="47.0163" lon="8.88335">
        <ele>1341</ele>
        <time>2021-08-03T10:20:47.242Z</time>
      </trkpt>
      <trkpt lat="47.01628" lon="8.88336">
        <ele>1341</ele>
        <time>2021-08-03T10:20:48.242Z</time>
      </trkpt>
      <trkpt lat="47.01627" lon="8.88337">
        <ele>1340</ele>
        <time>2021-08-03T10:20:49.242Z</time>
      </trkpt>
      <trkpt lat="47.01627" lon="8.88338">
        <ele>1340</ele>
        <time>2021-08-03T10:20:50.242Z</time>
      </trkpt>
      <trkpt lat="47.01626" lon="8.88339">
        <ele>1339</ele>
        <time>2021-08-03T10:20:51.242Z</time>
      </trkpt>
      <trkpt lat="47.01625" lon="8.88339">
        <ele>1339</ele>
        <time>2021-08-03T10:20:52.242Z</time>
      </trkpt>
      <trkpt lat="47.01624" lon="8.88339">
        <ele>1338</ele>
        <time>2021-08-03T10:20:53.241Z</time>
      </trkpt>
      <trkpt lat="47.01624" lon="8.88339">
        <ele>1338</ele>
        <time>2021-08-03T10:20:54.242Z</time>
      </trkpt>
      <trkpt lat="47.01623" lon="8.88338">
        <ele>1338</ele>
        <time>2021-08-03T10:20:55.242Z</time>
      </trkpt>
      <trkpt lat="47.01621" lon="8.88337">
        <ele>1338</ele>
        <time>2021-08-03T10:20:56.241Z</time>
      </trkpt>
      <trkpt lat="47.01619" lon="8.88336">
        <ele>1338</ele>
        <time>2021-08-03T10:20:57.242Z</time>
      </trkpt>
      <trkpt lat="47.01617" lon="8.88335">
        <ele>1337</ele>
        <time>2021-08-03T10:20:58.242Z</time>
      </trkpt>
      <trkpt lat="47.01617" lon="8.88335">
        <ele>1337</ele>
        <time>2021-08-03T10:20:59.241Z</time>
      </trkpt>
      <trkpt lat="47.01617" lon="8.88335">
        <ele>1337</ele>
        <time>2021-08-03T10:21:00.242Z</time>
      </trkpt>
      <trkpt lat="47.01616" lon="8.88335">
        <ele>1337</ele>
        <time>2021-08-03T10:21:01.242Z</time>
      </trkpt>
      <trkpt lat="47.01616" lon="8.88334">
        <ele>1337</ele>
        <time>2021-08-03T10:21:02.242Z</time>
      </trkpt>
      <trkpt lat="47.01617" lon="8.88333">
        <ele>1337</ele>
        <time>2021-08-03T10:21:03.241Z</time>
      </trkpt>
      <trkpt lat="47.01617" lon="8.88332">
        <ele>1337</ele>
        <time>2021-08-03T10:21:04.241Z</time>
      </trkpt>
      <trkpt lat="47.01617" lon="8.88331">
        <ele>1337</ele>
        <time>2021-08-03T10:21:05.241Z</time>
      </trkpt>
      <trkpt lat="47.01616" lon="8.88331">
        <ele>1337</ele>
        <time>2021-08-03T10:21:06.242Z</time>
      </trkpt>
      <trkpt lat="47.01616" lon="8.88331">
        <ele>1336</ele>
        <time>2021-08-03T10:21:07.242Z</time>
      </trkpt>
      <trkpt lat="47.01616" lon="8.8833">
        <ele>1336</ele>
        <time>2021-08-03T10:21:08.242Z</time>
      </trkpt>
      <trkpt lat="47.01617" lon="8.88329">
        <ele>1335</ele>
        <time>2021-08-03T10:21:09.242Z</time>
      </trkpt>
      <trkpt lat="47.01618" lon="8.88329">
        <ele>1335</ele>
        <time>2021-08-03T10:21:10.242Z</time>
      </trkpt>
      <trkpt lat="47.0162" lon="8.88328">
        <ele>1334</ele>
        <time>2021-08-03T10:21:11.242Z</time>
      </trkpt>
      <trkpt lat="47.0162" lon="8.88327">
        <ele>1334</ele>
        <time>2021-08-03T10:21:12.242Z</time>
      </trkpt>
      <trkpt lat="47.01622" lon="8.88326">
        <ele>1334</ele>
        <time>2021-08-03T10:21:13.242Z</time>
      </trkpt>
      <trkpt lat="47.01623" lon="8.88325">
        <ele>1333</ele>
        <time>2021-08-03T10:21:14.241Z</time>
      </trkpt>
      <trkpt lat="47.01623" lon="8.88325">
        <ele>1333</ele>
        <time>2021-08-03T10:21:15.241Z</time>
      </trkpt>
      <trkpt lat="47.01622" lon="8.88325">
        <ele>1333</ele>
        <time>2021-08-03T10:21:16.242Z</time>
      </trkpt>
      <trkpt lat="47.01622" lon="8.88324">
        <ele>1332</ele>
        <time>2021-08-03T10:21:17.242Z</time>
      </trkpt>
      <trkpt lat="47.01621" lon="8.88324">
        <ele>1332</ele>
        <time>2021-08-03T10:21:18.241Z</time>
      </trkpt>
      <trkpt lat="47.01619" lon="8.88324">
        <ele>1331</ele>
        <time>2021-08-03T10:21:19.241Z</time>
      </trkpt>
      <trkpt lat="47.01617" lon="8.88324">
        <ele>1331</ele>
        <time>2021-08-03T10:21:20.241Z</time>
      </trkpt>
      <trkpt lat="47.01616" lon="8.88324">
        <ele>1331</ele>
        <time>2021-08-03T10:21:21.242Z</time>
      </trkpt>
      <trkpt lat="47.01615" lon="8.88324">
        <ele>1331</ele>
        <time>2021-08-03T10:21:22.242Z</time>
      </trkpt>
      <trkpt lat="47.01614" lon="8.88324">
        <ele>1331</ele>
        <time>2021-08-03T10:21:23.241Z</time>
      </trkpt>
      <trkpt lat="47.01613" lon="8.88324">
        <ele>1331</ele>
        <time>2021-08-03T10:21:24.241Z</time>
      </trkpt>
      <trkpt lat="47.01611" lon="8.88324">
        <ele>1332</ele>
        <time>2021-08-03T10:21:25.241Z</time>
      </trkpt>
      <trkpt lat="47.0161" lon="8.88324">
        <ele>1332</ele>
        <time>2021-08-03T10:21:26.242Z</time>
      </trkpt>
      <trkpt lat="47.01608" lon="8.88324">
        <ele>1332</ele>
        <time>2021-08-03T10:21:27.242Z</time>
      </trkpt>
      <trkpt lat="47.01607" lon="8.88325">
        <ele>1333</ele>
        <time>2021-08-03T10:21:28.242Z</time>
      </trkpt>
      <trkpt lat="47.01606" lon="8.88325">
        <ele>1333</ele>
        <time>2021-08-03T10:21:29.241Z</time>
      </trkpt>
      <trkpt lat="47.01605" lon="8.88325">
        <ele>1333</ele>
        <time>2021-08-03T10:21:30.241Z</time>
      </trkpt>
      <trkpt lat="47.01604" lon="8.88325">
        <ele>1334</ele>
        <time>2021-08-03T10:21:31.241Z</time>
      </trkpt>
      <trkpt lat="47.01604" lon="8.88325">
        <ele>1335</ele>
        <time>2021-08-03T10:21:32.241Z</time>
      </trkpt>
      <trkpt lat="47.01603" lon="8.88324">
        <ele>1335</ele>
        <time>2021-08-03T10:21:33.242Z</time>
      </trkpt>
      <trkpt lat="47.01602" lon="8.88322">
        <ele>1336</ele>
        <time>2021-08-03T10:21:34.242Z</time>
      </trkpt>
      <trkpt lat="47.01601" lon="8.88321">
        <ele>1336</ele>
        <time>2021-08-03T10:21:35.242Z</time>
      </trkpt>
      <trkpt lat="47.016" lon="8.88321">
        <ele>1336</ele>
        <time>2021-08-03T10:21:36.241Z</time>
      </trkpt>
      <trkpt lat="47.01599" lon="8.8832">
        <ele>1337</ele>
        <time>2021-08-03T10:21:37.242Z</time>
      </trkpt>
      <trkpt lat="47.01598" lon="8.8832">
        <ele>1338</ele>
        <time>2021-08-03T10:21:38.242Z</time>
      </trkpt>
      <trkpt lat="47.01597" lon="8.88319">
        <ele>1338</ele>
        <time>2021-08-03T10:21:39.242Z</time>
      </trkpt>
      <trkpt lat="47.01596" lon="8.88318">
        <ele>1339</ele>
        <time>2021-08-03T10:21:40.241Z</time>
      </trkpt>
      <trkpt lat="47.01595" lon="8.88317">
        <ele>1339</ele>
        <time>2021-08-03T10:21:41.241Z</time>
      </trkpt>
      <trkpt lat="47.01594" lon="8.88316">
        <ele>1340</ele>
        <time>2021-08-03T10:21:42.242Z</time>
      </trkpt>
      <trkpt lat="47.01593" lon="8.88316">
        <ele>1340</ele>
        <time>2021-08-03T10:21:43.242Z</time>
      </trkpt>
      <trkpt lat="47.01591" lon="8.88315">
        <ele>1340</ele>
        <time>2021-08-03T10:21:44.242Z</time>
      </trkpt>
      <trkpt lat="47.0159" lon="8.88313">
        <ele>1340</ele>
        <time>2021-08-03T10:21:45.242Z</time>
      </trkpt>
      <trkpt lat="47.01589" lon="8.88312">
        <ele>1340</ele>
        <time>2021-08-03T10:21:46.242Z</time>
      </trkpt>
      <trkpt lat="47.01588" lon="8.8831">
        <ele>1340</ele>
        <time>2021-08-03T10:21:47.241Z</time>
      </trkpt>
      <trkpt lat="47.01587" lon="8.88309">
        <ele>1340</ele>
        <time>2021-08-03T10:21:48.241Z</time>
      </trkpt>
      <trkpt lat="47.01586" lon="8.88308">
        <ele>1340</ele>
        <time>2021-08-03T10:21:49.242Z</time>
      </trkpt>
      <trkpt lat="47.01586" lon="8.88307">
        <ele>1340</ele>
        <time>2021-08-03T10:21:50.242Z</time>
      </trkpt>
      <trkpt lat="47.01586" lon="8.88306">
        <ele>1340</ele>
        <time>2021-08-03T10:21:51.242Z</time>
      </trkpt>
      <trkpt lat="47.01587" lon="8.88305">
        <ele>1340</ele>
        <time>2021-08-03T10:21:52.242Z</time>
      </trkpt>
      <trkpt lat="47.01588" lon="8.88304">
        <ele>1340</ele>
        <time>2021-08-03T10:21:53.241Z</time>
      </trkpt>
      <trkpt lat="47.01588" lon="8.88304">
        <ele>1340</ele>
        <time>2021-08-03T10:21:54.242Z</time>
      </trkpt>
      <trkpt lat="47.01588" lon="8.88304">
        <ele>1340</ele>
        <time>2021-08-03T10:21:55.241Z</time>
      </trkpt>
      <trkpt lat="47.01587" lon="8.88303">
        <ele>1339</ele>
        <time>2021-08-03T10:21:56.241Z</time>
      </trkpt>
      <trkpt lat="47.01587" lon="8.88302">
        <ele>1338</ele>
        <time>2021-08-03T10:21:57.242Z</time>
      </trkpt>
      <trkpt lat="47.01586" lon="8.88301">
        <ele>1338</ele>
        <time>2021-08-03T10:21:58.242Z</time>
      </trkpt>
      <trkpt lat="47.01585" lon="8.88301">
        <ele>1337</ele>
        <time>2021-08-03T10:21:59.242Z</time>
      </trkpt>
      <trkpt lat="47.01584" lon="8.883">
        <ele>1337</ele>
        <time>2021-08-03T10:22:00.242Z</time>
      </trkpt>
      <trkpt lat="47.01583" lon="8.883">
        <ele>1336</ele>
        <time>2021-08-03T10:22:01.242Z</time>
      </trkpt>
      <trkpt lat="47.01582" lon="8.88299">
        <ele>1336</ele>
        <time>2021-08-03T10:22:02.242Z</time>
      </trkpt>
      <trkpt lat="47.01581" lon="8.88299">
        <ele>1336</ele>
        <time>2021-08-03T10:22:03.241Z</time>
      </trkpt>
      <trkpt lat="47.0158" lon="8.88298">
        <ele>1336</ele>
        <time>2021-08-03T10:22:04.242Z</time>
      </trkpt>
      <trkpt lat="47.01579" lon="8.88297">
        <ele>1336</ele>
        <time>2021-08-03T10:22:05.242Z</time>
      </trkpt>
      <trkpt lat="47.01577" lon="8.88297">
        <ele>1336</ele>
        <time>2021-08-03T10:22:06.241Z</time>
      </trkpt>
      <trkpt lat="47.01575" lon="8.88297">
        <ele>1336</ele>
        <time>2021-08-03T10:22:07.242Z</time>
      </trkpt>
      <trkpt lat="47.01574" lon="8.88297">
        <ele>1336</ele>
        <time>2021-08-03T10:22:08.241Z</time>
      </trkpt>
      <trkpt lat="47.01572" lon="8.88296">
        <ele>1336</ele>
        <time>2021-08-03T10:22:09.242Z</time>
      </trkpt>
      <trkpt lat="47.0157" lon="8.88296">
        <ele>1336</ele>
        <time>2021-08-03T10:22:10.242Z</time>
      </trkpt>
      <trkpt lat="47.01569" lon="8.88295">
        <ele>1336</ele>
        <time>2021-08-03T10:22:11.242Z</time>
      </trkpt>
      <trkpt lat="47.01569" lon="8.88294">
        <ele>1335</ele>
        <time>2021-08-03T10:22:12.242Z</time>
      </trkpt>
      <trkpt lat="47.01568" lon="8.88294">
        <ele>1335</ele>
        <time>2021-08-03T10:22:13.242Z</time>
      </trkpt>
      <trkpt lat="47.01568" lon="8.88293">
        <ele>1335</ele>
        <time>2021-08-03T10:22:14.242Z</time>
      </trkpt>
      <trkpt lat="47.01567" lon="8.88292">
        <ele>1335</ele>
        <time>2021-08-03T10:22:15.242Z</time>
      </trkpt>
      <trkpt lat="47.01566" lon="8.88291">
        <ele>1334</ele>
        <time>2021-08-03T10:22:16.241Z</time>
      </trkpt>
      <trkpt lat="47.01565" lon="8.88291">
        <ele>1334</ele>
        <time>2021-08-03T10:22:17.242Z</time>
      </trkpt>
      <trkpt lat="47.01564" lon="8.8829">
        <ele>1334</ele>
        <time>2021-08-03T10:22:18.241Z</time>
      </trkpt>
      <trkpt lat="47.01563" lon="8.8829">
        <ele>1335</ele>
        <time>2021-08-03T10:22:19.241Z</time>
      </trkpt>
      <trkpt lat="47.01561" lon="8.88289">
        <ele>1335</ele>
        <time>2021-08-03T10:22:20.242Z</time>
      </trkpt>
      <trkpt lat="47.0156" lon="8.88289">
        <ele>1335</ele>
        <time>2021-08-03T10:22:21.242Z</time>
      </trkpt>
      <trkpt lat="47.0156" lon="8.88288">
        <ele>1335</ele>
        <time>2021-08-03T10:22:22.242Z</time>
      </trkpt>
      <trkpt lat="47.01559" lon="8.88287">
        <ele>1336</ele>
        <time>2021-08-03T10:22:23.241Z</time>
      </trkpt>
      <trkpt lat="47.01559" lon="8.88286">
        <ele>1335</ele>
        <time>2021-08-03T10:22:24.242Z</time>
      </trkpt>
      <trkpt lat="47.01559" lon="8.88285">
        <ele>1335</ele>
        <time>2021-08-03T10:22:25.241Z</time>
      </trkpt>
      <trkpt lat="47.01557" lon="8.88284">
        <ele>1335</ele>
        <time>2021-08-03T10:22:26.242Z</time>
      </trkpt>
      <trkpt lat="47.01556" lon="8.88284">
        <ele>1335</ele>
        <time>2021-08-03T10:22:27.242Z</time>
      </trkpt>
      <trkpt lat="47.01555" lon="8.88283">
        <ele>1334</ele>
        <time>2021-08-03T10:22:28.242Z</time>
      </trkpt>
      <trkpt lat="47.01555" lon="8.88282">
        <ele>1334</ele>
        <time>2021-08-03T10:22:29.242Z</time>
      </trkpt>
      <trkpt lat="47.01555" lon="8.88282">
        <ele>1334</ele>
        <time>2021-08-03T10:22:30.242Z</time>
      </trkpt>
      <trkpt lat="47.01555" lon="8.88281">
        <ele>1333</ele>
        <time>2021-08-03T10:22:31.242Z</time>
      </trkpt>
      <trkpt lat="47.01555" lon="8.8828">
        <ele>1333</ele>
        <time>2021-08-03T10:22:32.242Z</time>
      </trkpt>
      <trkpt lat="47.01555" lon="8.8828">
        <ele>1333</ele>
        <time>2021-08-03T10:22:33.242Z</time>
      </trkpt>
      <trkpt lat="47.01555" lon="8.88279">
        <ele>1333</ele>
        <time>2021-08-03T10:22:34.242Z</time>
      </trkpt>
      <trkpt lat="47.01555" lon="8.88278">
        <ele>1333</ele>
        <time>2021-08-03T10:22:35.241Z</time>
      </trkpt>
      <trkpt lat="47.01554" lon="8.88277">
        <ele>1333</ele>
        <time>2021-08-03T10:22:36.242Z</time>
      </trkpt>
      <trkpt lat="47.01553" lon="8.88276">
        <ele>1333</ele>
        <time>2021-08-03T10:22:37.242Z</time>
      </trkpt>
      <trkpt lat="47.01553" lon="8.88275">
        <ele>1333</ele>
        <time>2021-08-03T10:22:38.242Z</time>
      </trkpt>
      <trkpt lat="47.01552" lon="8.88274">
        <ele>1333</ele>
        <time>2021-08-03T10:22:39.242Z</time>
      </trkpt>
      <trkpt lat="47.01551" lon="8.88273">
        <ele>1333</ele>
        <time>2021-08-03T10:22:40.241Z</time>
      </trkpt>
      <trkpt lat="47.0155" lon="8.88273">
        <ele>1333</ele>
        <time>2021-08-03T10:22:41.242Z</time>
      </trkpt>
      <trkpt lat="47.01549" lon="8.88272">
        <ele>1333</ele>
        <time>2021-08-03T10:22:42.241Z</time>
      </trkpt>
      <trkpt lat="47.01549" lon="8.88271">
        <ele>1333</ele>
        <time>2021-08-03T10:22:43.242Z</time>
      </trkpt>
      <trkpt lat="47.01548" lon="8.8827">
        <ele>1334</ele>
        <time>2021-08-03T10:22:44.241Z</time>
      </trkpt>
      <trkpt lat="47.01547" lon="8.88269">
        <ele>1334</ele>
        <time>2021-08-03T10:22:45.242Z</time>
      </trkpt>
      <trkpt lat="47.01548" lon="8.88269">
        <ele>1334</ele>
        <time>2021-08-03T10:22:46.242Z</time>
      </trkpt>
      <trkpt lat="47.01547" lon="8.88268">
        <ele>1333</ele>
        <time>2021-08-03T10:22:47.242Z</time>
      </trkpt>
      <trkpt lat="47.01546" lon="8.88267">
        <ele>1333</ele>
        <time>2021-08-03T10:22:48.242Z</time>
      </trkpt>
      <trkpt lat="47.01545" lon="8.88267">
        <ele>1333</ele>
        <time>2021-08-03T10:22:49.242Z</time>
      </trkpt>
      <trkpt lat="47.01545" lon="8.88266">
        <ele>1334</ele>
        <time>2021-08-03T10:22:50.242Z</time>
      </trkpt>
      <trkpt lat="47.01545" lon="8.88265">
        <ele>1334</ele>
        <time>2021-08-03T10:22:51.241Z</time>
      </trkpt>
      <trkpt lat="47.01544" lon="8.88265">
        <ele>1334</ele>
        <time>2021-08-03T10:22:52.241Z</time>
      </trkpt>
      <trkpt lat="47.01544" lon="8.88264">
        <ele>1335</ele>
        <time>2021-08-03T10:22:53.241Z</time>
      </trkpt>
      <trkpt lat="47.01543" lon="8.88263">
        <ele>1335</ele>
        <time>2021-08-03T10:22:54.241Z</time>
      </trkpt>
      <trkpt lat="47.01542" lon="8.88263">
        <ele>1335</ele>
        <time>2021-08-03T10:22:55.242Z</time>
      </trkpt>
      <trkpt lat="47.01542" lon="8.88263">
        <ele>1336</ele>
        <time>2021-08-03T10:22:56.242Z</time>
      </trkpt>
      <trkpt lat="47.01541" lon="8.88262">
        <ele>1336</ele>
        <time>2021-08-03T10:22:57.242Z</time>
      </trkpt>
      <trkpt lat="47.0154" lon="8.88262">
        <ele>1336</ele>
        <time>2021-08-03T10:22:58.241Z</time>
      </trkpt>
      <trkpt lat="47.0154" lon="8.88261">
        <ele>1335</ele>
        <time>2021-08-03T10:22:59.242Z</time>
      </trkpt>
      <trkpt lat="47.01539" lon="8.88261">
        <ele>1335</ele>
        <time>2021-08-03T10:23:00.242Z</time>
      </trkpt>
      <trkpt lat="47.01538" lon="8.88261">
        <ele>1335</ele>
        <time>2021-08-03T10:23:01.242Z</time>
      </trkpt>
      <trkpt lat="47.01538" lon="8.88261">
        <ele>1334</ele>
        <time>2021-08-03T10:23:02.241Z</time>
      </trkpt>
      <trkpt lat="47.01539" lon="8.88261">
        <ele>1334</ele>
        <time>2021-08-03T10:23:03.241Z</time>
      </trkpt>
      <trkpt lat="47.01539" lon="8.88261">
        <ele>1334</ele>
        <time>2021-08-03T10:23:04.242Z</time>
      </trkpt>
      <trkpt lat="47.01538" lon="8.88261">
        <ele>1334</ele>
        <time>2021-08-03T10:23:05.242Z</time>
      </trkpt>
      <trkpt lat="47.01537" lon="8.88259">
        <ele>1336</ele>
        <time>2021-08-03T10:23:06.243Z</time>
      </trkpt>
      <trkpt lat="47.01536" lon="8.88259">
        <ele>1336</ele>
        <time>2021-08-03T10:23:07.242Z</time>
      </trkpt>
      <trkpt lat="47.01535" lon="8.88259">
        <ele>1337</ele>
        <time>2021-08-03T10:23:08.242Z</time>
      </trkpt>
      <trkpt lat="47.01534" lon="8.8826">
        <ele>1337</ele>
        <time>2021-08-03T10:23:09.242Z</time>
      </trkpt>
      <trkpt lat="47.01534" lon="8.88259">
        <ele>1337</ele>
        <time>2021-08-03T10:23:10.243Z</time>
      </trkpt>
      <trkpt lat="47.01533" lon="8.88259">
        <ele>1337</ele>
        <time>2021-08-03T10:23:11.243Z</time>
      </trkpt>
      <trkpt lat="47.01533" lon="8.88258">
        <ele>1337</ele>
        <time>2021-08-03T10:23:12.243Z</time>
      </trkpt>
      <trkpt lat="47.01532" lon="8.88258">
        <ele>1337</ele>
        <time>2021-08-03T10:23:13.242Z</time>
      </trkpt>
      <trkpt lat="47.01531" lon="8.88258">
        <ele>1337</ele>
        <time>2021-08-03T10:23:14.243Z</time>
      </trkpt>
      <trkpt lat="47.01531" lon="8.88257">
        <ele>1337</ele>
        <time>2021-08-03T10:23:15.243Z</time>
      </trkpt>
      <trkpt lat="47.0153" lon="8.88257">
        <ele>1336</ele>
        <time>2021-08-03T10:23:16.243Z</time>
      </trkpt>
      <trkpt lat="47.01529" lon="8.88257">
        <ele>1336</ele>
        <time>2021-08-03T10:23:17.243Z</time>
      </trkpt>
      <trkpt lat="47.01529" lon="8.88257">
        <ele>1336</ele>
        <time>2021-08-03T10:23:18.243Z</time>
      </trkpt>
      <trkpt lat="47.01528" lon="8.88257">
        <ele>1336</ele>
        <time>2021-08-03T10:23:19.242Z</time>
      </trkpt>
      <trkpt lat="47.01528" lon="8.88256">
        <ele>1336</ele>
        <time>2021-08-03T10:23:20.243Z</time>
      </trkpt>
      <trkpt lat="47.01527" lon="8.88256">
        <ele>1337</ele>
        <time>2021-08-03T10:23:21.243Z</time>
      </trkpt>
      <trkpt lat="47.01526" lon="8.88255">
        <ele>1337</ele>
        <time>2021-08-03T10:23:22.243Z</time>
      </trkpt>
      <trkpt lat="47.01525" lon="8.88255">
        <ele>1337</ele>
        <time>2021-08-03T10:23:23.243Z</time>
      </trkpt>
      <trkpt lat="47.01525" lon="8.88254">
        <ele>1336</ele>
        <time>2021-08-03T10:23:24.242Z</time>
      </trkpt>
      <trkpt lat="47.01524" lon="8.88254">
        <ele>1336</ele>
        <time>2021-08-03T10:23:25.243Z</time>
      </trkpt>
      <trkpt lat="47.01523" lon="8.88253">
        <ele>1336</ele>
        <time>2021-08-03T10:23:26.242Z</time>
      </trkpt>
      <trkpt lat="47.01523" lon="8.88252">
        <ele>1336</ele>
        <time>2021-08-03T10:23:27.243Z</time>
      </trkpt>
      <trkpt lat="47.01522" lon="8.88252">
        <ele>1336</ele>
        <time>2021-08-03T10:23:28.243Z</time>
      </trkpt>
      <trkpt lat="47.01522" lon="8.88251">
        <ele>1336</ele>
        <time>2021-08-03T10:23:29.242Z</time>
      </trkpt>
      <trkpt lat="47.01521" lon="8.8825">
        <ele>1336</ele>
        <time>2021-08-03T10:23:30.243Z</time>
      </trkpt>
      <trkpt lat="47.0152" lon="8.88249">
        <ele>1335</ele>
        <time>2021-08-03T10:23:31.242Z</time>
      </trkpt>
      <trkpt lat="47.0152" lon="8.88248">
        <ele>1335</ele>
        <time>2021-08-03T10:23:32.242Z</time>
      </trkpt>
      <trkpt lat="47.01519" lon="8.88247">
        <ele>1335</ele>
        <time>2021-08-03T10:23:33.243Z</time>
      </trkpt>
      <trkpt lat="47.01518" lon="8.88246">
        <ele>1335</ele>
        <time>2021-08-03T10:23:34.243Z</time>
      </trkpt>
      <trkpt lat="47.01518" lon="8.88245">
        <ele>1335</ele>
        <time>2021-08-03T10:23:35.243Z</time>
      </trkpt>
      <trkpt lat="47.01517" lon="8.88243">
        <ele>1335</ele>
        <time>2021-08-03T10:23:36.243Z</time>
      </trkpt>
      <trkpt lat="47.01517" lon="8.88241">
        <ele>1335</ele>
        <time>2021-08-03T10:23:37.242Z</time>
      </trkpt>
      <trkpt lat="47.01517" lon="8.8824">
        <ele>1335</ele>
        <time>2021-08-03T10:23:38.243Z</time>
      </trkpt>
      <trkpt lat="47.01516" lon="8.88239">
        <ele>1335</ele>
        <time>2021-08-03T10:23:39.242Z</time>
      </trkpt>
      <trkpt lat="47.01516" lon="8.88238">
        <ele>1334</ele>
        <time>2021-08-03T10:23:40.243Z</time>
      </trkpt>
      <trkpt lat="47.01515" lon="8.88237">
        <ele>1334</ele>
        <time>2021-08-03T10:23:41.243Z</time>
      </trkpt>
      <trkpt lat="47.01515" lon="8.88236">
        <ele>1333</ele>
        <time>2021-08-03T10:23:42.243Z</time>
      </trkpt>
      <trkpt lat="47.01514" lon="8.88235">
        <ele>1333</ele>
        <time>2021-08-03T10:23:43.242Z</time>
      </trkpt>
      <trkpt lat="47.01514" lon="8.88234">
        <ele>1333</ele>
        <time>2021-08-03T10:23:44.242Z</time>
      </trkpt>
      <trkpt lat="47.01513" lon="8.88233">
        <ele>1333</ele>
        <time>2021-08-03T10:23:45.243Z</time>
      </trkpt>
      <trkpt lat="47.01513" lon="8.88232">
        <ele>1333</ele>
        <time>2021-08-03T10:23:46.243Z</time>
      </trkpt>
      <trkpt lat="47.01512" lon="8.88231">
        <ele>1333</ele>
        <time>2021-08-03T10:23:47.243Z</time>
      </trkpt>
      <trkpt lat="47.01511" lon="8.8823">
        <ele>1333</ele>
        <time>2021-08-03T10:23:48.243Z</time>
      </trkpt>
      <trkpt lat="47.0151" lon="8.88228">
        <ele>1334</ele>
        <time>2021-08-03T10:23:49.243Z</time>
      </trkpt>
      <trkpt lat="47.01509" lon="8.88226">
        <ele>1334</ele>
        <time>2021-08-03T10:23:50.242Z</time>
      </trkpt>
      <trkpt lat="47.01509" lon="8.88225">
        <ele>1334</ele>
        <time>2021-08-03T10:23:51.243Z</time>
      </trkpt>
      <trkpt lat="47.01508" lon="8.88224">
        <ele>1334</ele>
        <time>2021-08-03T10:23:52.243Z</time>
      </trkpt>
      <trkpt lat="47.01508" lon="8.88223">
        <ele>1334</ele>
        <time>2021-08-03T10:23:53.242Z</time>
      </trkpt>
      <trkpt lat="47.01508" lon="8.88221">
        <ele>1334</ele>
        <time>2021-08-03T10:23:54.243Z</time>
      </trkpt>
      <trkpt lat="47.01507" lon="8.8822">
        <ele>1335</ele>
        <time>2021-08-03T10:23:55.243Z</time>
      </trkpt>
      <trkpt lat="47.01506" lon="8.88219">
        <ele>1335</ele>
        <time>2021-08-03T10:23:56.243Z</time>
      </trkpt>
      <trkpt lat="47.01506" lon="8.88218">
        <ele>1336</ele>
        <time>2021-08-03T10:23:57.243Z</time>
      </trkpt>
      <trkpt lat="47.01505" lon="8.88217">
        <ele>1336</ele>
        <time>2021-08-03T10:23:58.242Z</time>
      </trkpt>
      <trkpt lat="47.01504" lon="8.88216">
        <ele>1337</ele>
        <time>2021-08-03T10:23:59.242Z</time>
      </trkpt>
      <trkpt lat="47.01503" lon="8.88215">
        <ele>1337</ele>
        <time>2021-08-03T10:24:00.243Z</time>
      </trkpt>
      <trkpt lat="47.01503" lon="8.88214">
        <ele>1338</ele>
        <time>2021-08-03T10:24:01.242Z</time>
      </trkpt>
      <trkpt lat="47.01501" lon="8.88213">
        <ele>1338</ele>
        <time>2021-08-03T10:24:02.243Z</time>
      </trkpt>
      <trkpt lat="47.01501" lon="8.88212">
        <ele>1339</ele>
        <time>2021-08-03T10:24:03.242Z</time>
      </trkpt>
      <trkpt lat="47.015" lon="8.88211">
        <ele>1339</ele>
        <time>2021-08-03T10:24:04.243Z</time>
      </trkpt>
      <trkpt lat="47.01499" lon="8.8821">
        <ele>1340</ele>
        <time>2021-08-03T10:24:05.243Z</time>
      </trkpt>
      <trkpt lat="47.01499" lon="8.88209">
        <ele>1341</ele>
        <time>2021-08-03T10:24:06.242Z</time>
      </trkpt>
      <trkpt lat="47.01498" lon="8.88207">
        <ele>1341</ele>
        <time>2021-08-03T10:24:07.242Z</time>
      </trkpt>
      <trkpt lat="47.01497" lon="8.88206">
        <ele>1341</ele>
        <time>2021-08-03T10:24:08.242Z</time>
      </trkpt>
      <trkpt lat="47.01497" lon="8.88206">
        <ele>1341</ele>
        <time>2021-08-03T10:24:09.243Z</time>
      </trkpt>
      <trkpt lat="47.01496" lon="8.88206">
        <ele>1341</ele>
        <time>2021-08-03T10:24:10.242Z</time>
      </trkpt>
      <trkpt lat="47.01495" lon="8.88205">
        <ele>1341</ele>
        <time>2021-08-03T10:24:11.242Z</time>
      </trkpt>
      <trkpt lat="47.01494" lon="8.88205">
        <ele>1340</ele>
        <time>2021-08-03T10:24:12.243Z</time>
      </trkpt>
      <trkpt lat="47.01494" lon="8.88204">
        <ele>1340</ele>
        <time>2021-08-03T10:24:13.243Z</time>
      </trkpt>
      <trkpt lat="47.01493" lon="8.88203">
        <ele>1340</ele>
        <time>2021-08-03T10:24:14.242Z</time>
      </trkpt>
      <trkpt lat="47.01492" lon="8.88202">
        <ele>1340</ele>
        <time>2021-08-03T10:24:15.242Z</time>
      </trkpt>
      <trkpt lat="47.01492" lon="8.88202">
        <ele>1339</ele>
        <time>2021-08-03T10:24:16.243Z</time>
      </trkpt>
      <trkpt lat="47.01491" lon="8.88201">
        <ele>1339</ele>
        <time>2021-08-03T10:24:17.243Z</time>
      </trkpt>
      <trkpt lat="47.0149" lon="8.882">
        <ele>1339</ele>
        <time>2021-08-03T10:24:18.242Z</time>
      </trkpt>
      <trkpt lat="47.0149" lon="8.882">
        <ele>1338</ele>
        <time>2021-08-03T10:24:19.242Z</time>
      </trkpt>
      <trkpt lat="47.01489" lon="8.882">
        <ele>1338</ele>
        <time>2021-08-03T10:24:20.243Z</time>
      </trkpt>
      <trkpt lat="47.01488" lon="8.882">
        <ele>1337</ele>
        <time>2021-08-03T10:24:21.242Z</time>
      </trkpt>
      <trkpt lat="47.01488" lon="8.882">
        <ele>1337</ele>
        <time>2021-08-03T10:24:22.243Z</time>
      </trkpt>
      <trkpt lat="47.01487" lon="8.88199">
        <ele>1337</ele>
        <time>2021-08-03T10:24:23.243Z</time>
      </trkpt>
      <trkpt lat="47.01486" lon="8.88199">
        <ele>1337</ele>
        <time>2021-08-03T10:24:24.243Z</time>
      </trkpt>
      <trkpt lat="47.01485" lon="8.88198">
        <ele>1338</ele>
        <time>2021-08-03T10:24:25.242Z</time>
      </trkpt>
      <trkpt lat="47.01485" lon="8.88197">
        <ele>1338</ele>
        <time>2021-08-03T10:24:26.242Z</time>
      </trkpt>
      <trkpt lat="47.01484" lon="8.88196">
        <ele>1338</ele>
        <time>2021-08-03T10:24:27.242Z</time>
      </trkpt>
      <trkpt lat="47.01483" lon="8.88196">
        <ele>1338</ele>
        <time>2021-08-03T10:24:28.242Z</time>
      </trkpt>
      <trkpt lat="47.01483" lon="8.88196">
        <ele>1338</ele>
        <time>2021-08-03T10:24:29.243Z</time>
      </trkpt>
      <trkpt lat="47.01483" lon="8.88195">
        <ele>1339</ele>
        <time>2021-08-03T10:24:30.243Z</time>
      </trkpt>
      <trkpt lat="47.01482" lon="8.88195">
        <ele>1338</ele>
        <time>2021-08-03T10:24:31.243Z</time>
      </trkpt>
      <trkpt lat="47.01482" lon="8.88194">
        <ele>1338</ele>
        <time>2021-08-03T10:24:32.242Z</time>
      </trkpt>
      <trkpt lat="47.0148" lon="8.88193">
        <ele>1338</ele>
        <time>2021-08-03T10:24:33.243Z</time>
      </trkpt>
      <trkpt lat="47.01479" lon="8.88193">
        <ele>1338</ele>
        <time>2021-08-03T10:24:34.243Z</time>
      </trkpt>
      <trkpt lat="47.01477" lon="8.88193">
        <ele>1339</ele>
        <time>2021-08-03T10:24:35.243Z</time>
      </trkpt>
      <trkpt lat="47.01476" lon="8.88193">
        <ele>1340</ele>
        <time>2021-08-03T10:24:36.243Z</time>
      </trkpt>
      <trkpt lat="47.01476" lon="8.88191">
        <ele>1341</ele>
        <time>2021-08-03T10:24:37.243Z</time>
      </trkpt>
      <trkpt lat="47.01476" lon="8.88191">
        <ele>1341</ele>
        <time>2021-08-03T10:24:38.243Z</time>
      </trkpt>
      <trkpt lat="47.01475" lon="8.8819">
        <ele>1342</ele>
        <time>2021-08-03T10:24:39.242Z</time>
      </trkpt>
      <trkpt lat="47.01474" lon="8.88189">
        <ele>1343</ele>
        <time>2021-08-03T10:24:40.243Z</time>
      </trkpt>
      <trkpt lat="47.01473" lon="8.88188">
        <ele>1343</ele>
        <time>2021-08-03T10:24:41.242Z</time>
      </trkpt>
      <trkpt lat="47.01472" lon="8.88187">
        <ele>1343</ele>
        <time>2021-08-03T10:24:42.243Z</time>
      </trkpt>
      <trkpt lat="47.01472" lon="8.88185">
        <ele>1344</ele>
        <time>2021-08-03T10:24:43.243Z</time>
      </trkpt>
      <trkpt lat="47.01471" lon="8.88184">
        <ele>1344</ele>
        <time>2021-08-03T10:24:44.242Z</time>
      </trkpt>
      <trkpt lat="47.01471" lon="8.88183">
        <ele>1344</ele>
        <time>2021-08-03T10:24:45.243Z</time>
      </trkpt>
      <trkpt lat="47.0147" lon="8.88183">
        <ele>1345</ele>
        <time>2021-08-03T10:24:46.242Z</time>
      </trkpt>
      <trkpt lat="47.0147" lon="8.88183">
        <ele>1345</ele>
        <time>2021-08-03T10:24:47.242Z</time>
      </trkpt>
      <trkpt lat="47.01469" lon="8.88183">
        <ele>1345</ele>
        <time>2021-08-03T10:24:48.243Z</time>
      </trkpt>
      <trkpt lat="47.01468" lon="8.88182">
        <ele>1345</ele>
        <time>2021-08-03T10:24:49.242Z</time>
      </trkpt>
      <trkpt lat="47.01468" lon="8.88182">
        <ele>1345</ele>
        <time>2021-08-03T10:24:50.242Z</time>
      </trkpt>
      <trkpt lat="47.01467" lon="8.88182">
        <ele>1344</ele>
        <time>2021-08-03T10:24:51.243Z</time>
      </trkpt>
      <trkpt lat="47.01467" lon="8.88181">
        <ele>1344</ele>
        <time>2021-08-03T10:24:52.242Z</time>
      </trkpt>
      <trkpt lat="47.01467" lon="8.8818">
        <ele>1343</ele>
        <time>2021-08-03T10:24:53.243Z</time>
      </trkpt>
      <trkpt lat="47.01466" lon="8.88179">
        <ele>1343</ele>
        <time>2021-08-03T10:24:54.242Z</time>
      </trkpt>
      <trkpt lat="47.01466" lon="8.88179">
        <ele>1342</ele>
        <time>2021-08-03T10:24:55.242Z</time>
      </trkpt>
      <trkpt lat="47.01466" lon="8.88178">
        <ele>1341</ele>
        <time>2021-08-03T10:24:56.242Z</time>
      </trkpt>
      <trkpt lat="47.01465" lon="8.88177">
        <ele>1341</ele>
        <time>2021-08-03T10:24:57.243Z</time>
      </trkpt>
      <trkpt lat="47.01465" lon="8.88177">
        <ele>1341</ele>
        <time>2021-08-03T10:24:58.242Z</time>
      </trkpt>
      <trkpt lat="47.01464" lon="8.88176">
        <ele>1341</ele>
        <time>2021-08-03T10:24:59.243Z</time>
      </trkpt>
      <trkpt lat="47.01464" lon="8.88176">
        <ele>1341</ele>
        <time>2021-08-03T10:25:00.243Z</time>
      </trkpt>
      <trkpt lat="47.01463" lon="8.88175">
        <ele>1341</ele>
        <time>2021-08-03T10:25:01.243Z</time>
      </trkpt>
      <trkpt lat="47.01463" lon="8.88175">
        <ele>1341</ele>
        <time>2021-08-03T10:25:02.243Z</time>
      </trkpt>
      <trkpt lat="47.01462" lon="8.88175">
        <ele>1341</ele>
        <time>2021-08-03T10:25:03.242Z</time>
      </trkpt>
      <trkpt lat="47.01462" lon="8.88175">
        <ele>1342</ele>
        <time>2021-08-03T10:25:04.243Z</time>
      </trkpt>
      <trkpt lat="47.01461" lon="8.88175">
        <ele>1342</ele>
        <time>2021-08-03T10:25:05.243Z</time>
      </trkpt>
      <trkpt lat="47.01461" lon="8.88175">
        <ele>1342</ele>
        <time>2021-08-03T10:25:06.243Z</time>
      </trkpt>
      <trkpt lat="47.01461" lon="8.88175">
        <ele>1342</ele>
        <time>2021-08-03T10:25:07.243Z</time>
      </trkpt>
      <trkpt lat="47.0146" lon="8.88175">
        <ele>1342</ele>
        <time>2021-08-03T10:25:08.242Z</time>
      </trkpt>
      <trkpt lat="47.01459" lon="8.88175">
        <ele>1342</ele>
        <time>2021-08-03T10:25:09.243Z</time>
      </trkpt>
      <trkpt lat="47.01459" lon="8.88175">
        <ele>1341</ele>
        <time>2021-08-03T10:25:10.243Z</time>
      </trkpt>
      <trkpt lat="47.01458" lon="8.88175">
        <ele>1341</ele>
        <time>2021-08-03T10:25:11.243Z</time>
      </trkpt>
      <trkpt lat="47.01458" lon="8.88175">
        <ele>1341</ele>
        <time>2021-08-03T10:25:12.243Z</time>
      </trkpt>
      <trkpt lat="47.01457" lon="8.88174">
        <ele>1341</ele>
        <time>2021-08-03T10:25:13.243Z</time>
      </trkpt>
      <trkpt lat="47.01455" lon="8.88174">
        <ele>1341</ele>
        <time>2021-08-03T10:25:14.243Z</time>
      </trkpt>
      <trkpt lat="47.01454" lon="8.88174">
        <ele>1340</ele>
        <time>2021-08-03T10:25:15.243Z</time>
      </trkpt>
      <trkpt lat="47.01453" lon="8.88174">
        <ele>1341</ele>
        <time>2021-08-03T10:25:16.242Z</time>
      </trkpt>
      <trkpt lat="47.01453" lon="8.88174">
        <ele>1341</ele>
        <time>2021-08-03T10:25:17.242Z</time>
      </trkpt>
      <trkpt lat="47.01453" lon="8.88173">
        <ele>1341</ele>
        <time>2021-08-03T10:25:18.242Z</time>
      </trkpt>
      <trkpt lat="47.01453" lon="8.88173">
        <ele>1342</ele>
        <time>2021-08-03T10:25:19.243Z</time>
      </trkpt>
      <trkpt lat="47.01453" lon="8.88172">
        <ele>1342</ele>
        <time>2021-08-03T10:25:20.243Z</time>
      </trkpt>
      <trkpt lat="47.01454" lon="8.88172">
        <ele>1343</ele>
        <time>2021-08-03T10:25:21.243Z</time>
      </trkpt>
      <trkpt lat="47.01453" lon="8.88172">
        <ele>1342</ele>
        <time>2021-08-03T10:25:22.243Z</time>
      </trkpt>
      <trkpt lat="47.01453" lon="8.88171">
        <ele>1341</ele>
        <time>2021-08-03T10:25:23.243Z</time>
      </trkpt>
      <trkpt lat="47.01452" lon="8.8817">
        <ele>1339</ele>
        <time>2021-08-03T10:25:24.244Z</time>
      </trkpt>
      <trkpt lat="47.01451" lon="8.88169">
        <ele>1338</ele>
        <time>2021-08-03T10:25:25.244Z</time>
      </trkpt>
      <trkpt lat="47.01451" lon="8.88169">
        <ele>1338</ele>
        <time>2021-08-03T10:25:26.244Z</time>
      </trkpt>
      <trkpt lat="47.01449" lon="8.88167">
        <ele>1337</ele>
        <time>2021-08-03T10:25:27.244Z</time>
      </trkpt>
      <trkpt lat="47.01448" lon="8.88167">
        <ele>1337</ele>
        <time>2021-08-03T10:25:28.243Z</time>
      </trkpt>
      <trkpt lat="47.01447" lon="8.88167">
        <ele>1337</ele>
        <time>2021-08-03T10:25:29.244Z</time>
      </trkpt>
      <trkpt lat="47.01446" lon="8.88166">
        <ele>1337</ele>
        <time>2021-08-03T10:25:30.243Z</time>
      </trkpt>
      <trkpt lat="47.01445" lon="8.88166">
        <ele>1338</ele>
        <time>2021-08-03T10:25:31.243Z</time>
      </trkpt>
      <trkpt lat="47.01443" lon="8.88165">
        <ele>1338</ele>
        <time>2021-08-03T10:25:32.244Z</time>
      </trkpt>
      <trkpt lat="47.01442" lon="8.88165">
        <ele>1338</ele>
        <time>2021-08-03T10:25:33.244Z</time>
      </trkpt>
      <trkpt lat="47.01441" lon="8.88165">
        <ele>1339</ele>
        <time>2021-08-03T10:25:34.244Z</time>
      </trkpt>
      <trkpt lat="47.0144" lon="8.88164">
        <ele>1339</ele>
        <time>2021-08-03T10:25:35.244Z</time>
      </trkpt>
      <trkpt lat="47.01439" lon="8.88164">
        <ele>1339</ele>
        <time>2021-08-03T10:25:36.243Z</time>
      </trkpt>
      <trkpt lat="47.01438" lon="8.88163">
        <ele>1340</ele>
        <time>2021-08-03T10:25:37.243Z</time>
      </trkpt>
      <trkpt lat="47.01437" lon="8.88162">
        <ele>1340</ele>
        <time>2021-08-03T10:25:38.243Z</time>
      </trkpt>
      <trkpt lat="47.01436" lon="8.88161">
        <ele>1340</ele>
        <time>2021-08-03T10:25:39.243Z</time>
      </trkpt>
      <trkpt lat="47.01435" lon="8.88161">
        <ele>1340</ele>
        <time>2021-08-03T10:25:40.244Z</time>
      </trkpt>
      <trkpt lat="47.01435" lon="8.88159">
        <ele>1340</ele>
        <time>2021-08-03T10:25:41.243Z</time>
      </trkpt>
      <trkpt lat="47.01434" lon="8.88159">
        <ele>1340</ele>
        <time>2021-08-03T10:25:42.244Z</time>
      </trkpt>
      <trkpt lat="47.01433" lon="8.88157">
        <ele>1340</ele>
        <time>2021-08-03T10:25:43.243Z</time>
      </trkpt>
      <trkpt lat="47.01433" lon="8.88156">
        <ele>1340</ele>
        <time>2021-08-03T10:25:44.244Z</time>
      </trkpt>
      <trkpt lat="47.01432" lon="8.88155">
        <ele>1341</ele>
        <time>2021-08-03T10:25:45.244Z</time>
      </trkpt>
      <trkpt lat="47.01432" lon="8.88154">
        <ele>1341</ele>
        <time>2021-08-03T10:25:46.243Z</time>
      </trkpt>
      <trkpt lat="47.01431" lon="8.88153">
        <ele>1341</ele>
        <time>2021-08-03T10:25:47.244Z</time>
      </trkpt>
      <trkpt lat="47.0143" lon="8.88152">
        <ele>1342</ele>
        <time>2021-08-03T10:25:48.244Z</time>
      </trkpt>
      <trkpt lat="47.01429" lon="8.88151">
        <ele>1342</ele>
        <time>2021-08-03T10:25:49.244Z</time>
      </trkpt>
      <trkpt lat="47.01427" lon="8.88151">
        <ele>1343</ele>
        <time>2021-08-03T10:25:50.244Z</time>
      </trkpt>
      <trkpt lat="47.01426" lon="8.8815">
        <ele>1344</ele>
        <time>2021-08-03T10:25:51.243Z</time>
      </trkpt>
      <trkpt lat="47.01426" lon="8.88149">
        <ele>1344</ele>
        <time>2021-08-03T10:25:52.243Z</time>
      </trkpt>
      <trkpt lat="47.01425" lon="8.88148">
        <ele>1344</ele>
        <time>2021-08-03T10:25:53.244Z</time>
      </trkpt>
      <trkpt lat="47.01424" lon="8.88147">
        <ele>1344</ele>
        <time>2021-08-03T10:25:54.244Z</time>
      </trkpt>
      <trkpt lat="47.01423" lon="8.88146">
        <ele>1344</ele>
        <time>2021-08-03T10:25:55.244Z</time>
      </trkpt>
      <trkpt lat="47.01422" lon="8.88145">
        <ele>1344</ele>
        <time>2021-08-03T10:25:56.243Z</time>
      </trkpt>
      <trkpt lat="47.01422" lon="8.88145">
        <ele>1343</ele>
        <time>2021-08-03T10:25:57.243Z</time>
      </trkpt>
      <trkpt lat="47.01421" lon="8.88144">
        <ele>1343</ele>
        <time>2021-08-03T10:25:58.244Z</time>
      </trkpt>
      <trkpt lat="47.0142" lon="8.88143">
        <ele>1344</ele>
        <time>2021-08-03T10:25:59.244Z</time>
      </trkpt>
      <trkpt lat="47.01419" lon="8.88142">
        <ele>1344</ele>
        <time>2021-08-03T10:26:00.244Z</time>
      </trkpt>
      <trkpt lat="47.01419" lon="8.8814">
        <ele>1344</ele>
        <time>2021-08-03T10:26:01.244Z</time>
      </trkpt>
      <trkpt lat="47.01418" lon="8.88139">
        <ele>1344</ele>
        <time>2021-08-03T10:26:02.244Z</time>
      </trkpt>
      <trkpt lat="47.01417" lon="8.88138">
        <ele>1344</ele>
        <time>2021-08-03T10:26:03.243Z</time>
      </trkpt>
      <trkpt lat="47.01416" lon="8.88137">
        <ele>1344</ele>
        <time>2021-08-03T10:26:04.243Z</time>
      </trkpt>
      <trkpt lat="47.01415" lon="8.88136">
        <ele>1345</ele>
        <time>2021-08-03T10:26:05.244Z</time>
      </trkpt>
      <trkpt lat="47.01413" lon="8.88135">
        <ele>1345</ele>
        <time>2021-08-03T10:26:06.243Z</time>
      </trkpt>
      <trkpt lat="47.01412" lon="8.88135">
        <ele>1345</ele>
        <time>2021-08-03T10:26:07.243Z</time>
      </trkpt>
      <trkpt lat="47.01411" lon="8.88134">
        <ele>1345</ele>
        <time>2021-08-03T10:26:08.244Z</time>
      </trkpt>
      <trkpt lat="47.0141" lon="8.88134">
        <ele>1344</ele>
        <time>2021-08-03T10:26:09.243Z</time>
      </trkpt>
      <trkpt lat="47.01409" lon="8.88133">
        <ele>1344</ele>
        <time>2021-08-03T10:26:10.244Z</time>
      </trkpt>
      <trkpt lat="47.01409" lon="8.88132">
        <ele>1344</ele>
        <time>2021-08-03T10:26:11.244Z</time>
      </trkpt>
      <trkpt lat="47.01407" lon="8.88131">
        <ele>1344</ele>
        <time>2021-08-03T10:26:12.244Z</time>
      </trkpt>
      <trkpt lat="47.01406" lon="8.88131">
        <ele>1344</ele>
        <time>2021-08-03T10:26:13.244Z</time>
      </trkpt>
      <trkpt lat="47.01405" lon="8.8813">
        <ele>1344</ele>
        <time>2021-08-03T10:26:14.243Z</time>
      </trkpt>
      <trkpt lat="47.01405" lon="8.88129">
        <ele>1344</ele>
        <time>2021-08-03T10:26:15.244Z</time>
      </trkpt>
      <trkpt lat="47.01404" lon="8.88128">
        <ele>1344</ele>
        <time>2021-08-03T10:26:16.243Z</time>
      </trkpt>
      <trkpt lat="47.01403" lon="8.88128">
        <ele>1345</ele>
        <time>2021-08-03T10:26:17.244Z</time>
      </trkpt>
      <trkpt lat="47.01402" lon="8.88127">
        <ele>1345</ele>
        <time>2021-08-03T10:26:18.243Z</time>
      </trkpt>
      <trkpt lat="47.01401" lon="8.88127">
        <ele>1345</ele>
        <time>2021-08-03T10:26:19.244Z</time>
      </trkpt>
      <trkpt lat="47.014" lon="8.88126">
        <ele>1345</ele>
        <time>2021-08-03T10:26:20.244Z</time>
      </trkpt>
      <trkpt lat="47.01399" lon="8.88126">
        <ele>1345</ele>
        <time>2021-08-03T10:26:21.243Z</time>
      </trkpt>
      <trkpt lat="47.01398" lon="8.88125">
        <ele>1345</ele>
        <time>2021-08-03T10:26:22.243Z</time>
      </trkpt>
      <trkpt lat="47.01397" lon="8.88125">
        <ele>1344</ele>
        <time>2021-08-03T10:26:23.243Z</time>
      </trkpt>
      <trkpt lat="47.01396" lon="8.88124">
        <ele>1344</ele>
        <time>2021-08-03T10:26:24.243Z</time>
      </trkpt>
      <trkpt lat="47.01395" lon="8.88123">
        <ele>1344</ele>
        <time>2021-08-03T10:26:25.244Z</time>
      </trkpt>
      <trkpt lat="47.01394" lon="8.88122">
        <ele>1344</ele>
        <time>2021-08-03T10:26:26.244Z</time>
      </trkpt>
      <trkpt lat="47.01393" lon="8.88121">
        <ele>1344</ele>
        <time>2021-08-03T10:26:27.243Z</time>
      </trkpt>
      <trkpt lat="47.01392" lon="8.8812">
        <ele>1344</ele>
        <time>2021-08-03T10:26:28.244Z</time>
      </trkpt>
      <trkpt lat="47.01391" lon="8.8812">
        <ele>1344</ele>
        <time>2021-08-03T10:26:29.244Z</time>
      </trkpt>
      <trkpt lat="47.0139" lon="8.8812">
        <ele>1345</ele>
        <time>2021-08-03T10:26:30.244Z</time>
      </trkpt>
      <trkpt lat="47.01389" lon="8.8812">
        <ele>1345</ele>
        <time>2021-08-03T10:26:31.244Z</time>
      </trkpt>
      <trkpt lat="47.01388" lon="8.88119">
        <ele>1345</ele>
        <time>2021-08-03T10:26:32.244Z</time>
      </trkpt>
      <trkpt lat="47.01387" lon="8.88119">
        <ele>1346</ele>
        <time>2021-08-03T10:26:33.244Z</time>
      </trkpt>
      <trkpt lat="47.01386" lon="8.88118">
        <ele>1346</ele>
        <time>2021-08-03T10:26:34.243Z</time>
      </trkpt>
      <trkpt lat="47.01385" lon="8.88118">
        <ele>1346</ele>
        <time>2021-08-03T10:26:35.243Z</time>
      </trkpt>
      <trkpt lat="47.01384" lon="8.88117">
        <ele>1346</ele>
        <time>2021-08-03T10:26:36.243Z</time>
      </trkpt>
      <trkpt lat="47.01383" lon="8.88117">
        <ele>1346</ele>
        <time>2021-08-03T10:26:37.244Z</time>
      </trkpt>
      <trkpt lat="47.01382" lon="8.88116">
        <ele>1345</ele>
        <time>2021-08-03T10:26:38.243Z</time>
      </trkpt>
      <trkpt lat="47.01382" lon="8.88115">
        <ele>1345</ele>
        <time>2021-08-03T10:26:39.243Z</time>
      </trkpt>
      <trkpt lat="47.01381" lon="8.88114">
        <ele>1345</ele>
        <time>2021-08-03T10:26:40.244Z</time>
      </trkpt>
      <trkpt lat="47.0138" lon="8.88113">
        <ele>1345</ele>
        <time>2021-08-03T10:26:41.244Z</time>
      </trkpt>
      <trkpt lat="47.01379" lon="8.88112">
        <ele>1345</ele>
        <time>2021-08-03T10:26:42.243Z</time>
      </trkpt>
      <trkpt lat="47.01378" lon="8.88111">
        <ele>1344</ele>
        <time>2021-08-03T10:26:43.243Z</time>
      </trkpt>
      <trkpt lat="47.01377" lon="8.88111">
        <ele>1344</ele>
        <time>2021-08-03T10:26:44.243Z</time>
      </trkpt>
      <trkpt lat="47.01376" lon="8.8811">
        <ele>1343</ele>
        <time>2021-08-03T10:26:45.243Z</time>
      </trkpt>
      <trkpt lat="47.01375" lon="8.8811">
        <ele>1343</ele>
        <time>2021-08-03T10:26:46.243Z</time>
      </trkpt>
      <trkpt lat="47.01374" lon="8.88109">
        <ele>1343</ele>
        <time>2021-08-03T10:26:47.244Z</time>
      </trkpt>
      <trkpt lat="47.01373" lon="8.88108">
        <ele>1343</ele>
        <time>2021-08-03T10:26:48.244Z</time>
      </trkpt>
      <trkpt lat="47.01372" lon="8.88107">
        <ele>1344</ele>
        <time>2021-08-03T10:26:49.244Z</time>
      </trkpt>
      <trkpt lat="47.0137" lon="8.88106">
        <ele>1344</ele>
        <time>2021-08-03T10:26:50.244Z</time>
      </trkpt>
      <trkpt lat="47.0137" lon="8.88105">
        <ele>1344</ele>
        <time>2021-08-03T10:26:51.244Z</time>
      </trkpt>
      <trkpt lat="47.01369" lon="8.88104">
        <ele>1344</ele>
        <time>2021-08-03T10:26:52.243Z</time>
      </trkpt>
      <trkpt lat="47.01368" lon="8.88102">
        <ele>1344</ele>
        <time>2021-08-03T10:26:53.243Z</time>
      </trkpt>
      <trkpt lat="47.01368" lon="8.881">
        <ele>1344</ele>
        <time>2021-08-03T10:26:54.244Z</time>
      </trkpt>
      <trkpt lat="47.01367" lon="8.88098">
        <ele>1344</ele>
        <time>2021-08-03T10:26:55.244Z</time>
      </trkpt>
      <trkpt lat="47.01367" lon="8.88097">
        <ele>1344</ele>
        <time>2021-08-03T10:26:56.244Z</time>
      </trkpt>
      <trkpt lat="47.01367" lon="8.88095">
        <ele>1344</ele>
        <time>2021-08-03T10:26:57.243Z</time>
      </trkpt>
      <trkpt lat="47.01366" lon="8.88093">
        <ele>1344</ele>
        <time>2021-08-03T10:26:58.244Z</time>
      </trkpt>
      <trkpt lat="47.01366" lon="8.88092">
        <ele>1344</ele>
        <time>2021-08-03T10:26:59.244Z</time>
      </trkpt>
      <trkpt lat="47.01365" lon="8.8809">
        <ele>1344</ele>
        <time>2021-08-03T10:27:00.243Z</time>
      </trkpt>
      <trkpt lat="47.01364" lon="8.88089">
        <ele>1344</ele>
        <time>2021-08-03T10:27:01.244Z</time>
      </trkpt>
      <trkpt lat="47.01363" lon="8.88088">
        <ele>1344</ele>
        <time>2021-08-03T10:27:02.243Z</time>
      </trkpt>
      <trkpt lat="47.01362" lon="8.88087">
        <ele>1344</ele>
        <time>2021-08-03T10:27:03.243Z</time>
      </trkpt>
      <trkpt lat="47.01361" lon="8.88086">
        <ele>1344</ele>
        <time>2021-08-03T10:27:04.244Z</time>
      </trkpt>
      <trkpt lat="47.01361" lon="8.88085">
        <ele>1345</ele>
        <time>2021-08-03T10:27:05.244Z</time>
      </trkpt>
      <trkpt lat="47.0136" lon="8.88084">
        <ele>1345</ele>
        <time>2021-08-03T10:27:06.244Z</time>
      </trkpt>
      <trkpt lat="47.01359" lon="8.88083">
        <ele>1345</ele>
        <time>2021-08-03T10:27:07.244Z</time>
      </trkpt>
      <trkpt lat="47.01358" lon="8.88083">
        <ele>1346</ele>
        <time>2021-08-03T10:27:08.243Z</time>
      </trkpt>
      <trkpt lat="47.01357" lon="8.88082">
        <ele>1346</ele>
        <time>2021-08-03T10:27:09.244Z</time>
      </trkpt>
      <trkpt lat="47.01356" lon="8.88082">
        <ele>1346</ele>
        <time>2021-08-03T10:27:10.244Z</time>
      </trkpt>
      <trkpt lat="47.01355" lon="8.88082">
        <ele>1347</ele>
        <time>2021-08-03T10:27:11.243Z</time>
      </trkpt>
      <trkpt lat="47.01354" lon="8.88082">
        <ele>1347</ele>
        <time>2021-08-03T10:27:12.244Z</time>
      </trkpt>
      <trkpt lat="47.01353" lon="8.88082">
        <ele>1347</ele>
        <time>2021-08-03T10:27:13.244Z</time>
      </trkpt>
      <trkpt lat="47.01352" lon="8.88082">
        <ele>1347</ele>
        <time>2021-08-03T10:27:14.244Z</time>
      </trkpt>
      <trkpt lat="47.01352" lon="8.88082">
        <ele>1347</ele>
        <time>2021-08-03T10:27:15.243Z</time>
      </trkpt>
      <trkpt lat="47.01351" lon="8.88082">
        <ele>1347</ele>
        <time>2021-08-03T10:27:16.244Z</time>
      </trkpt>
      <trkpt lat="47.0135" lon="8.88081">
        <ele>1347</ele>
        <time>2021-08-03T10:27:17.244Z</time>
      </trkpt>
      <trkpt lat="47.01349" lon="8.88081">
        <ele>1347</ele>
        <time>2021-08-03T10:27:18.244Z</time>
      </trkpt>
      <trkpt lat="47.01348" lon="8.8808">
        <ele>1347</ele>
        <time>2021-08-03T10:27:19.243Z</time>
      </trkpt>
      <trkpt lat="47.01347" lon="8.8808">
        <ele>1347</ele>
        <time>2021-08-03T10:27:20.244Z</time>
      </trkpt>
      <trkpt lat="47.01347" lon="8.8808">
        <ele>1346</ele>
        <time>2021-08-03T10:27:21.244Z</time>
      </trkpt>
      <trkpt lat="47.01346" lon="8.88079">
        <ele>1346</ele>
        <time>2021-08-03T10:27:22.244Z</time>
      </trkpt>
      <trkpt lat="47.01345" lon="8.88079">
        <ele>1345</ele>
        <time>2021-08-03T10:27:23.244Z</time>
      </trkpt>
      <trkpt lat="47.01344" lon="8.88079">
        <ele>1344</ele>
        <time>2021-08-03T10:27:24.243Z</time>
      </trkpt>
      <trkpt lat="47.01343" lon="8.88079">
        <ele>1344</ele>
        <time>2021-08-03T10:27:25.244Z</time>
      </trkpt>
      <trkpt lat="47.01342" lon="8.88078">
        <ele>1344</ele>
        <time>2021-08-03T10:27:26.244Z</time>
      </trkpt>
      <trkpt lat="47.01341" lon="8.88078">
        <ele>1344</ele>
        <time>2021-08-03T10:27:27.243Z</time>
      </trkpt>
      <trkpt lat="47.0134" lon="8.88079">
        <ele>1344</ele>
        <time>2021-08-03T10:27:28.244Z</time>
      </trkpt>
      <trkpt lat="47.01339" lon="8.88079">
        <ele>1343</ele>
        <time>2021-08-03T10:27:29.244Z</time>
      </trkpt>
      <trkpt lat="47.01338" lon="8.88079">
        <ele>1344</ele>
        <time>2021-08-03T10:27:30.244Z</time>
      </trkpt>
      <trkpt lat="47.01337" lon="8.88079">
        <ele>1344</ele>
        <time>2021-08-03T10:27:31.244Z</time>
      </trkpt>
      <trkpt lat="47.01336" lon="8.88079">
        <ele>1344</ele>
        <time>2021-08-03T10:27:32.244Z</time>
      </trkpt>
      <trkpt lat="47.01334" lon="8.8808">
        <ele>1345</ele>
        <time>2021-08-03T10:27:33.243Z</time>
      </trkpt>
      <trkpt lat="47.01333" lon="8.8808">
        <ele>1345</ele>
        <time>2021-08-03T10:27:34.244Z</time>
      </trkpt>
      <trkpt lat="47.01332" lon="8.8808">
        <ele>1345</ele>
        <time>2021-08-03T10:27:35.243Z</time>
      </trkpt>
      <trkpt lat="47.01331" lon="8.8808">
        <ele>1345</ele>
        <time>2021-08-03T10:27:36.244Z</time>
      </trkpt>
      <trkpt lat="47.0133" lon="8.8808">
        <ele>1345</ele>
        <time>2021-08-03T10:27:37.244Z</time>
      </trkpt>
      <trkpt lat="47.01329" lon="8.8808">
        <ele>1345</ele>
        <time>2021-08-03T10:27:38.244Z</time>
      </trkpt>
      <trkpt lat="47.01328" lon="8.88081">
        <ele>1345</ele>
        <time>2021-08-03T10:27:39.244Z</time>
      </trkpt>
      <trkpt lat="47.01326" lon="8.88082">
        <ele>1346</ele>
        <time>2021-08-03T10:27:40.244Z</time>
      </trkpt>
      <trkpt lat="47.01325" lon="8.88083">
        <ele>1346</ele>
        <time>2021-08-03T10:27:41.244Z</time>
      </trkpt>
      <trkpt lat="47.01324" lon="8.88083">
        <ele>1347</ele>
        <time>2021-08-03T10:27:42.244Z</time>
      </trkpt>
      <trkpt lat="47.01324" lon="8.88084">
        <ele>1347</ele>
        <time>2021-08-03T10:27:43.244Z</time>
      </trkpt>
      <trkpt lat="47.01324" lon="8.88084">
        <ele>1347</ele>
        <time>2021-08-03T10:27:44.244Z</time>
      </trkpt>
      <trkpt lat="47.01322" lon="8.88086">
        <ele>1347</ele>
        <time>2021-08-03T10:27:45.243Z</time>
      </trkpt>
      <trkpt lat="47.01321" lon="8.88087">
        <ele>1347</ele>
        <time>2021-08-03T10:27:46.244Z</time>
      </trkpt>
      <trkpt lat="47.01321" lon="8.88083">
        <ele>1349</ele>
        <time>2021-08-03T10:27:47.244Z</time>
      </trkpt>
      <trkpt lat="47.0132" lon="8.88082">
        <ele>1349</ele>
        <time>2021-08-03T10:27:48.244Z</time>
      </trkpt>
      <trkpt lat="47.01319" lon="8.88081">
        <ele>1349</ele>
        <time>2021-08-03T10:27:49.244Z</time>
      </trkpt>
      <trkpt lat="47.01319" lon="8.88081">
        <ele>1349</ele>
        <time>2021-08-03T10:27:50.245Z</time>
      </trkpt>
      <trkpt lat="47.01318" lon="8.8808">
        <ele>1349</ele>
        <time>2021-08-03T10:27:51.244Z</time>
      </trkpt>
      <trkpt lat="47.01318" lon="8.88081">
        <ele>1350</ele>
        <time>2021-08-03T10:27:52.244Z</time>
      </trkpt>
      <trkpt lat="47.01319" lon="8.88082">
        <ele>1350</ele>
        <time>2021-08-03T10:27:53.245Z</time>
      </trkpt>
      <trkpt lat="47.0132" lon="8.88082">
        <ele>1350</ele>
        <time>2021-08-03T10:27:54.245Z</time>
      </trkpt>
      <trkpt lat="47.01319" lon="8.88082">
        <ele>1350</ele>
        <time>2021-08-03T10:27:55.245Z</time>
      </trkpt>
      <trkpt lat="47.01319" lon="8.88083">
        <ele>1350</ele>
        <time>2021-08-03T10:27:56.246Z</time>
      </trkpt>
      <trkpt lat="47.0132" lon="8.88083">
        <ele>1351</ele>
        <time>2021-08-03T10:27:57.245Z</time>
      </trkpt>
      <trkpt lat="47.01319" lon="8.88084">
        <ele>1350</ele>
        <time>2021-08-03T10:27:58.247Z</time>
      </trkpt>
      <trkpt lat="47.01319" lon="8.88083">
        <ele>1350</ele>
        <time>2021-08-03T10:27:59.247Z</time>
      </trkpt>
      <trkpt lat="47.01319" lon="8.88083">
        <ele>1349</ele>
        <time>2021-08-03T10:28:00.246Z</time>
      </trkpt>
      <trkpt lat="47.01319" lon="8.88082">
        <ele>1348</ele>
        <time>2021-08-03T10:28:01.247Z</time>
      </trkpt>
      <trkpt lat="47.0132" lon="8.88082">
        <ele>1347</ele>
        <time>2021-08-03T10:28:02.246Z</time>
      </trkpt>
      <trkpt lat="47.0132" lon="8.88082">
        <ele>1347</ele>
        <time>2021-08-03T10:28:03.246Z</time>
      </trkpt>
      <trkpt lat="47.01321" lon="8.88083">
        <ele>1346</ele>
        <time>2021-08-03T10:28:04.249Z</time>
      </trkpt>
      <trkpt lat="47.0132" lon="8.88083">
        <ele>1347</ele>
        <time>2021-08-03T10:28:05.248Z</time>
      </trkpt>
      <trkpt lat="47.0132" lon="8.88082">
        <ele>1347</ele>
        <time>2021-08-03T10:28:06.249Z</time>
      </trkpt>
      <trkpt lat="47.01321" lon="8.88082">
        <ele>1352</ele>
        <time>2021-08-03T10:28:07.250Z</time>
      </trkpt>
      <trkpt lat="47.01321" lon="8.88083">
        <ele>1345</ele>
        <time>2021-08-03T10:28:08.250Z</time>
      </trkpt>
      <trkpt lat="47.01321" lon="8.88082">
        <ele>1344</ele>
        <time>2021-08-03T10:28:09.251Z</time>
      </trkpt>
      <trkpt lat="47.01321" lon="8.88081">
        <ele>1343</ele>
        <time>2021-08-03T10:28:10.251Z</time>
      </trkpt>
      <trkpt lat="47.01321" lon="8.88081">
        <ele>1342</ele>
        <time>2021-08-03T10:28:11.251Z</time>
      </trkpt>
      <trkpt lat="47.0132" lon="8.8808">
        <ele>1342</ele>
        <time>2021-08-03T10:28:12.251Z</time>
      </trkpt>
      <trkpt lat="47.0132" lon="8.8808">
        <ele>1341</ele>
        <time>2021-08-03T10:28:13.251Z</time>
      </trkpt>
      <trkpt lat="47.0132" lon="8.8808">
        <ele>1341</ele>
        <time>2021-08-03T10:28:14.251Z</time>
      </trkpt>
      <trkpt lat="47.0132" lon="8.88081">
        <ele>1340</ele>
        <time>2021-08-03T10:28:15.251Z</time>
      </trkpt>
      <trkpt lat="47.01319" lon="8.88082">
        <ele>1340</ele>
        <time>2021-08-03T10:28:16.251Z</time>
      </trkpt>
      <trkpt lat="47.0132" lon="8.88083">
        <ele>1340</ele>
        <time>2021-08-03T10:28:17.251Z</time>
      </trkpt>
      <trkpt lat="47.0132" lon="8.88084">
        <ele>1340</ele>
        <time>2021-08-03T10:28:18.251Z</time>
      </trkpt>
      <trkpt lat="47.0132" lon="8.88084">
        <ele>1340</ele>
        <time>2021-08-03T10:28:19.251Z</time>
      </trkpt>
      <trkpt lat="47.01319" lon="8.88082">
        <ele>1341</ele>
        <time>2021-08-03T10:28:20.252Z</time>
      </trkpt>
      <trkpt lat="47.01319" lon="8.88082">
        <ele>1341</ele>
        <time>2021-08-03T10:28:21.252Z</time>
      </trkpt>
      <trkpt lat="47.01319" lon="8.88081">
        <ele>1341</ele>
        <time>2021-08-03T10:28:22.251Z</time>
      </trkpt>
      <trkpt lat="47.01321" lon="8.88083">
        <ele>1353</ele>
        <time>2021-08-03T10:28:23.252Z</time>
      </trkpt>
      <trkpt lat="47.01321" lon="8.88082">
        <ele>1354</ele>
        <time>2021-08-03T10:28:24.252Z</time>
      </trkpt>
      <trkpt lat="47.0132" lon="8.88081">
        <ele>1354</ele>
        <time>2021-08-03T10:28:25.251Z</time>
      </trkpt>
      <trkpt lat="47.0132" lon="8.88079">
        <ele>1354</ele>
        <time>2021-08-03T10:28:26.252Z</time>
      </trkpt>
      <trkpt lat="47.0132" lon="8.88078">
        <ele>1354</ele>
        <time>2021-08-03T10:28:27.252Z</time>
      </trkpt>
      <trkpt lat="47.0132" lon="8.88076">
        <ele>1353</ele>
        <time>2021-08-03T10:28:28.252Z</time>
      </trkpt>
      <trkpt lat="47.0132" lon="8.88076">
        <ele>1353</ele>
        <time>2021-08-03T10:28:29.252Z</time>
      </trkpt>
      <trkpt lat="47.0132" lon="8.88076">
        <ele>1352</ele>
        <time>2021-08-03T10:28:30.252Z</time>
      </trkpt>
      <trkpt lat="47.0132" lon="8.88076">
        <ele>1352</ele>
        <time>2021-08-03T10:28:31.252Z</time>
      </trkpt>
      <trkpt lat="47.01324" lon="8.88069">
        <ele>1348</ele>
        <time>2021-08-03T10:28:32.253Z</time>
      </trkpt>
      <trkpt lat="47.01324" lon="8.88069">
        <ele>1347</ele>
        <time>2021-08-03T10:28:33.253Z</time>
      </trkpt>
      <trkpt lat="47.01324" lon="8.88069">
        <ele>1347</ele>
        <time>2021-08-03T10:28:34.252Z</time>
      </trkpt>
      <trkpt lat="47.01324" lon="8.88069">
        <ele>1345</ele>
        <time>2021-08-03T10:28:35.253Z</time>
      </trkpt>
      <trkpt lat="47.01325" lon="8.88068">
        <ele>1345</ele>
        <time>2021-08-03T10:28:36.254Z</time>
      </trkpt>
      <trkpt lat="47.01325" lon="8.88068">
        <ele>1345</ele>
        <time>2021-08-03T10:28:37.253Z</time>
      </trkpt>
      <trkpt lat="47.01325" lon="8.88068">
        <ele>1346</ele>
        <time>2021-08-03T10:28:38.254Z</time>
      </trkpt>
      <trkpt lat="47.01324" lon="8.88069">
        <ele>1346</ele>
        <time>2021-08-03T10:28:39.254Z</time>
      </trkpt>
      <trkpt lat="47.01323" lon="8.88068">
        <ele>1351</ele>
        <time>2021-08-03T10:28:40.254Z</time>
      </trkpt>
      <trkpt lat="47.01323" lon="8.88068">
        <ele>1352</ele>
        <time>2021-08-03T10:28:41.255Z</time>
      </trkpt>
      <trkpt lat="47.01323" lon="8.88067">
        <ele>1352</ele>
        <time>2021-08-03T10:28:42.254Z</time>
      </trkpt>
      <trkpt lat="47.01323" lon="8.88066">
        <ele>1353</ele>
        <time>2021-08-03T10:28:43.254Z</time>
      </trkpt>
      <trkpt lat="47.01323" lon="8.88065">
        <ele>1353</ele>
        <time>2021-08-03T10:28:44.255Z</time>
      </trkpt>
      <trkpt lat="47.01323" lon="8.88064">
        <ele>1353</ele>
        <time>2021-08-03T10:28:45.255Z</time>
      </trkpt>
      <trkpt lat="47.01323" lon="8.88063">
        <ele>1353</ele>
        <time>2021-08-03T10:28:46.255Z</time>
      </trkpt>
      <trkpt lat="47.01322" lon="8.88061">
        <ele>1352</ele>
        <time>2021-08-03T10:28:47.254Z</time>
      </trkpt>
      <trkpt lat="47.01322" lon="8.8806">
        <ele>1352</ele>
        <time>2021-08-03T10:28:48.255Z</time>
      </trkpt>
      <trkpt lat="47.01322" lon="8.88059">
        <ele>1352</ele>
        <time>2021-08-03T10:28:49.255Z</time>
      </trkpt>
      <trkpt lat="47.01322" lon="8.88059">
        <ele>1353</ele>
        <time>2021-08-03T10:28:50.255Z</time>
      </trkpt>
      <trkpt lat="47.01322" lon="8.88058">
        <ele>1353</ele>
        <time>2021-08-03T10:28:51.254Z</time>
      </trkpt>
      <trkpt lat="47.01319" lon="8.88057">
        <ele>1356</ele>
        <time>2021-08-03T10:28:52.255Z</time>
      </trkpt>
      <trkpt lat="47.01318" lon="8.88059">
        <ele>1356</ele>
        <time>2021-08-03T10:28:53.255Z</time>
      </trkpt>
      <trkpt lat="47.01318" lon="8.8806">
        <ele>1357</ele>
        <time>2021-08-03T10:28:54.255Z</time>
      </trkpt>
      <trkpt lat="47.01322" lon="8.8806">
        <ele>1353</ele>
        <time>2021-08-03T10:28:55.254Z</time>
      </trkpt>
      <trkpt lat="47.01321" lon="8.88059">
        <ele>1353</ele>
        <time>2021-08-03T10:28:56.254Z</time>
      </trkpt>
      <trkpt lat="47.01321" lon="8.88058">
        <ele>1352</ele>
        <time>2021-08-03T10:28:57.254Z</time>
      </trkpt>
      <trkpt lat="47.01321" lon="8.88058">
        <ele>1352</ele>
        <time>2021-08-03T10:28:58.255Z</time>
      </trkpt>
      <trkpt lat="47.01321" lon="8.88057">
        <ele>1351</ele>
        <time>2021-08-03T10:28:59.255Z</time>
      </trkpt>
      <trkpt lat="47.01321" lon="8.88058">
        <ele>1351</ele>
        <time>2021-08-03T10:29:00.254Z</time>
      </trkpt>
      <trkpt lat="47.01318" lon="8.88058">
        <ele>1352</ele>
        <time>2021-08-03T10:29:01.256Z</time>
      </trkpt>
      <trkpt lat="47.01318" lon="8.88058">
        <ele>1353</ele>
        <time>2021-08-03T10:29:02.256Z</time>
      </trkpt>
      <trkpt lat="47.01319" lon="8.88059">
        <ele>1354</ele>
        <time>2021-08-03T10:29:03.255Z</time>
      </trkpt>
      <trkpt lat="47.01317" lon="8.88057">
        <ele>1355</ele>
        <time>2021-08-03T10:29:04.255Z</time>
      </trkpt>
      <trkpt lat="47.01317" lon="8.88055">
        <ele>1354</ele>
        <time>2021-08-03T10:29:05.256Z</time>
      </trkpt>
      <trkpt lat="47.01317" lon="8.88053">
        <ele>1354</ele>
        <time>2021-08-03T10:29:06.256Z</time>
      </trkpt>
      <trkpt lat="47.01317" lon="8.88051">
        <ele>1353</ele>
        <time>2021-08-03T10:29:07.255Z</time>
      </trkpt>
      <trkpt lat="47.01316" lon="8.88049">
        <ele>1353</ele>
        <time>2021-08-03T10:29:08.256Z</time>
      </trkpt>
      <trkpt lat="47.01316" lon="8.88048">
        <ele>1353</ele>
        <time>2021-08-03T10:29:09.255Z</time>
      </trkpt>
      <trkpt lat="47.01316" lon="8.88046">
        <ele>1352</ele>
        <time>2021-08-03T10:29:10.256Z</time>
      </trkpt>
      <trkpt lat="47.01315" lon="8.88044">
        <ele>1351</ele>
        <time>2021-08-03T10:29:11.256Z</time>
      </trkpt>
      <trkpt lat="47.01316" lon="8.88042">
        <ele>1351</ele>
        <time>2021-08-03T10:29:12.255Z</time>
      </trkpt>
      <trkpt lat="47.01316" lon="8.88041">
        <ele>1350</ele>
        <time>2021-08-03T10:29:13.256Z</time>
      </trkpt>
      <trkpt lat="47.01315" lon="8.88039">
        <ele>1349</ele>
        <time>2021-08-03T10:29:14.256Z</time>
      </trkpt>
      <trkpt lat="47.01314" lon="8.88038">
        <ele>1349</ele>
        <time>2021-08-03T10:29:15.256Z</time>
      </trkpt>
      <trkpt lat="47.01314" lon="8.88036">
        <ele>1348</ele>
        <time>2021-08-03T10:29:16.256Z</time>
      </trkpt>
      <trkpt lat="47.01314" lon="8.88035">
        <ele>1348</ele>
        <time>2021-08-03T10:29:17.256Z</time>
      </trkpt>
      <trkpt lat="47.01313" lon="8.88033">
        <ele>1347</ele>
        <time>2021-08-03T10:29:18.255Z</time>
      </trkpt>
      <trkpt lat="47.01313" lon="8.88032">
        <ele>1347</ele>
        <time>2021-08-03T10:29:19.255Z</time>
      </trkpt>
      <trkpt lat="47.01312" lon="8.88031">
        <ele>1347</ele>
        <time>2021-08-03T10:29:20.256Z</time>
      </trkpt>
      <trkpt lat="47.01312" lon="8.88031">
        <ele>1348</ele>
        <time>2021-08-03T10:29:21.256Z</time>
      </trkpt>
      <trkpt lat="47.01312" lon="8.88031">
        <ele>1349</ele>
        <time>2021-08-03T10:29:22.256Z</time>
      </trkpt>
      <trkpt lat="47.01311" lon="8.88027">
        <ele>1350</ele>
        <time>2021-08-03T10:29:23.256Z</time>
      </trkpt>
      <trkpt lat="47.01311" lon="8.88026">
        <ele>1350</ele>
        <time>2021-08-03T10:29:24.256Z</time>
      </trkpt>
      <trkpt lat="47.01311" lon="8.88025">
        <ele>1350</ele>
        <time>2021-08-03T10:29:25.256Z</time>
      </trkpt>
      <trkpt lat="47.01311" lon="8.88024">
        <ele>1350</ele>
        <time>2021-08-03T10:29:26.256Z</time>
      </trkpt>
      <trkpt lat="47.01311" lon="8.88023">
        <ele>1350</ele>
        <time>2021-08-03T10:29:27.256Z</time>
      </trkpt>
      <trkpt lat="47.01311" lon="8.88022">
        <ele>1350</ele>
        <time>2021-08-03T10:29:28.256Z</time>
      </trkpt>
      <trkpt lat="47.01311" lon="8.8802">
        <ele>1349</ele>
        <time>2021-08-03T10:29:29.256Z</time>
      </trkpt>
      <trkpt lat="47.0131" lon="8.88019">
        <ele>1349</ele>
        <time>2021-08-03T10:29:30.256Z</time>
      </trkpt>
      <trkpt lat="47.0131" lon="8.88019">
        <ele>1349</ele>
        <time>2021-08-03T10:29:31.256Z</time>
      </trkpt>
      <trkpt lat="47.0131" lon="8.8802">
        <ele>1349</ele>
        <time>2021-08-03T10:29:32.256Z</time>
      </trkpt>
      <trkpt lat="47.01309" lon="8.8802">
        <ele>1349</ele>
        <time>2021-08-03T10:29:33.256Z</time>
      </trkpt>
      <trkpt lat="47.01309" lon="8.88019">
        <ele>1350</ele>
        <time>2021-08-03T10:29:34.257Z</time>
      </trkpt>
      <trkpt lat="47.01309" lon="8.88018">
        <ele>1350</ele>
        <time>2021-08-03T10:29:35.257Z</time>
      </trkpt>
      <trkpt lat="47.01309" lon="8.88017">
        <ele>1350</ele>
        <time>2021-08-03T10:29:36.257Z</time>
      </trkpt>
      <trkpt lat="47.01309" lon="8.88016">
        <ele>1350</ele>
        <time>2021-08-03T10:29:37.256Z</time>
      </trkpt>
      <trkpt lat="47.01309" lon="8.88015">
        <ele>1349</ele>
        <time>2021-08-03T10:29:38.256Z</time>
      </trkpt>
      <trkpt lat="47.01308" lon="8.88014">
        <ele>1349</ele>
        <time>2021-08-03T10:29:39.257Z</time>
      </trkpt>
      <trkpt lat="47.01308" lon="8.88012">
        <ele>1348</ele>
        <time>2021-08-03T10:29:40.257Z</time>
      </trkpt>
      <trkpt lat="47.01307" lon="8.88011">
        <ele>1348</ele>
        <time>2021-08-03T10:29:41.256Z</time>
      </trkpt>
      <trkpt lat="47.01307" lon="8.8801">
        <ele>1347</ele>
        <time>2021-08-03T10:29:42.257Z</time>
      </trkpt>
      <trkpt lat="47.01306" lon="8.88009">
        <ele>1347</ele>
        <time>2021-08-03T10:29:43.257Z</time>
      </trkpt>
      <trkpt lat="47.01305" lon="8.88008">
        <ele>1346</ele>
        <time>2021-08-03T10:29:44.257Z</time>
      </trkpt>
      <trkpt lat="47.01305" lon="8.88007">
        <ele>1346</ele>
        <time>2021-08-03T10:29:45.257Z</time>
      </trkpt>
      <trkpt lat="47.01305" lon="8.88005">
        <ele>1345</ele>
        <time>2021-08-03T10:29:46.256Z</time>
      </trkpt>
      <trkpt lat="47.01304" lon="8.88005">
        <ele>1345</ele>
        <time>2021-08-03T10:29:47.257Z</time>
      </trkpt>
      <trkpt lat="47.01304" lon="8.88004">
        <ele>1345</ele>
        <time>2021-08-03T10:29:48.257Z</time>
      </trkpt>
      <trkpt lat="47.01304" lon="8.88003">
        <ele>1345</ele>
        <time>2021-08-03T10:29:49.257Z</time>
      </trkpt>
      <trkpt lat="47.01303" lon="8.88001">
        <ele>1345</ele>
        <time>2021-08-03T10:29:50.256Z</time>
      </trkpt>
      <trkpt lat="47.01303" lon="8.88">
        <ele>1345</ele>
        <time>2021-08-03T10:29:51.256Z</time>
      </trkpt>
      <trkpt lat="47.01303" lon="8.87999">
        <ele>1345</ele>
        <time>2021-08-03T10:29:52.257Z</time>
      </trkpt>
      <trkpt lat="47.01302" lon="8.87997">
        <ele>1345</ele>
        <time>2021-08-03T10:29:53.257Z</time>
      </trkpt>
      <trkpt lat="47.01302" lon="8.87995">
        <ele>1345</ele>
        <time>2021-08-03T10:29:54.257Z</time>
      </trkpt>
      <trkpt lat="47.01301" lon="8.87993">
        <ele>1346</ele>
        <time>2021-08-03T10:29:55.257Z</time>
      </trkpt>
      <trkpt lat="47.01301" lon="8.87992">
        <ele>1346</ele>
        <time>2021-08-03T10:29:56.257Z</time>
      </trkpt>
      <trkpt lat="47.01301" lon="8.8799">
        <ele>1346</ele>
        <time>2021-08-03T10:29:57.257Z</time>
      </trkpt>
      <trkpt lat="47.01301" lon="8.87988">
        <ele>1346</ele>
        <time>2021-08-03T10:29:58.256Z</time>
      </trkpt>
      <trkpt lat="47.013" lon="8.87986">
        <ele>1346</ele>
        <time>2021-08-03T10:29:59.257Z</time>
      </trkpt>
      <trkpt lat="47.013" lon="8.87984">
        <ele>1346</ele>
        <time>2021-08-03T10:30:00.257Z</time>
      </trkpt>
      <trkpt lat="47.013" lon="8.87983">
        <ele>1345</ele>
        <time>2021-08-03T10:30:01.257Z</time>
      </trkpt>
      <trkpt lat="47.013" lon="8.87982">
        <ele>1345</ele>
        <time>2021-08-03T10:30:02.256Z</time>
      </trkpt>
      <trkpt lat="47.013" lon="8.87981">
        <ele>1345</ele>
        <time>2021-08-03T10:30:03.256Z</time>
      </trkpt>
      <trkpt lat="47.013" lon="8.8798">
        <ele>1345</ele>
        <time>2021-08-03T10:30:04.257Z</time>
      </trkpt>
      <trkpt lat="47.01299" lon="8.87979">
        <ele>1345</ele>
        <time>2021-08-03T10:30:05.257Z</time>
      </trkpt>
      <trkpt lat="47.01299" lon="8.87977">
        <ele>1346</ele>
        <time>2021-08-03T10:30:06.257Z</time>
      </trkpt>
      <trkpt lat="47.01299" lon="8.87975">
        <ele>1346</ele>
        <time>2021-08-03T10:30:07.257Z</time>
      </trkpt>
      <trkpt lat="47.01299" lon="8.87973">
        <ele>1346</ele>
        <time>2021-08-03T10:30:08.257Z</time>
      </trkpt>
      <trkpt lat="47.01298" lon="8.87971">
        <ele>1345</ele>
        <time>2021-08-03T10:30:09.257Z</time>
      </trkpt>
      <trkpt lat="47.01298" lon="8.87969">
        <ele>1345</ele>
        <time>2021-08-03T10:30:10.256Z</time>
      </trkpt>
      <trkpt lat="47.01298" lon="8.87968">
        <ele>1345</ele>
        <time>2021-08-03T10:30:11.257Z</time>
      </trkpt>
      <trkpt lat="47.01298" lon="8.87967">
        <ele>1345</ele>
        <time>2021-08-03T10:30:12.257Z</time>
      </trkpt>
      <trkpt lat="47.01298" lon="8.87964">
        <ele>1345</ele>
        <time>2021-08-03T10:30:13.256Z</time>
      </trkpt>
      <trkpt lat="47.01298" lon="8.87962">
        <ele>1345</ele>
        <time>2021-08-03T10:30:14.256Z</time>
      </trkpt>
      <trkpt lat="47.01298" lon="8.8796">
        <ele>1345</ele>
        <time>2021-08-03T10:30:15.257Z</time>
      </trkpt>
      <trkpt lat="47.01298" lon="8.87959">
        <ele>1345</ele>
        <time>2021-08-03T10:30:16.256Z</time>
      </trkpt>
      <trkpt lat="47.01298" lon="8.87958">
        <ele>1345</ele>
        <time>2021-08-03T10:30:17.256Z</time>
      </trkpt>
      <trkpt lat="47.01298" lon="8.87957">
        <ele>1345</ele>
        <time>2021-08-03T10:30:18.256Z</time>
      </trkpt>
      <trkpt lat="47.01298" lon="8.87955">
        <ele>1344</ele>
        <time>2021-08-03T10:30:19.257Z</time>
      </trkpt>
      <trkpt lat="47.01298" lon="8.87954">
        <ele>1344</ele>
        <time>2021-08-03T10:30:20.257Z</time>
      </trkpt>
      <trkpt lat="47.01298" lon="8.87953">
        <ele>1344</ele>
        <time>2021-08-03T10:30:21.256Z</time>
      </trkpt>
      <trkpt lat="47.01298" lon="8.87951">
        <ele>1344</ele>
        <time>2021-08-03T10:30:22.257Z</time>
      </trkpt>
      <trkpt lat="47.01299" lon="8.87949">
        <ele>1343</ele>
        <time>2021-08-03T10:30:23.257Z</time>
      </trkpt>
      <trkpt lat="47.01299" lon="8.87947">
        <ele>1343</ele>
        <time>2021-08-03T10:30:24.256Z</time>
      </trkpt>
      <trkpt lat="47.013" lon="8.87946">
        <ele>1343</ele>
        <time>2021-08-03T10:30:36.332Z</time>
      </trkpt>
      <trkpt lat="47.013" lon="8.87945">
        <ele>1343</ele>
        <time>2021-08-03T10:30:37.332Z</time>
      </trkpt>
      <trkpt lat="47.01301" lon="8.87942">
        <ele>1343</ele>
        <time>2021-08-03T10:30:38.331Z</time>
      </trkpt>
      <trkpt lat="47.01301" lon="8.87941">
        <ele>1343</ele>
        <time>2021-08-03T10:30:39.331Z</time>
      </trkpt>
      <trkpt lat="47.01302" lon="8.87939">
        <ele>1343</ele>
        <time>2021-08-03T10:30:40.332Z</time>
      </trkpt>
      <trkpt lat="47.01302" lon="8.87937">
        <ele>1343</ele>
        <time>2021-08-03T10:30:41.331Z</time>
      </trkpt>
      <trkpt lat="47.01302" lon="8.87936">
        <ele>1343</ele>
        <time>2021-08-03T10:30:42.332Z</time>
      </trkpt>
      <trkpt lat="47.01302" lon="8.87934">
        <ele>1343</ele>
        <time>2021-08-03T10:30:43.332Z</time>
      </trkpt>
      <trkpt lat="47.01303" lon="8.87933">
        <ele>1343</ele>
        <time>2021-08-03T10:30:44.332Z</time>
      </trkpt>
      <trkpt lat="47.01303" lon="8.87931">
        <ele>1343</ele>
        <time>2021-08-03T10:30:45.331Z</time>
      </trkpt>
      <trkpt lat="47.01303" lon="8.8793">
        <ele>1343</ele>
        <time>2021-08-03T10:30:46.332Z</time>
      </trkpt>
      <trkpt lat="47.01304" lon="8.87929">
        <ele>1342</ele>
        <time>2021-08-03T10:30:57.483Z</time>
      </trkpt>
      <trkpt lat="47.01304" lon="8.87928">
        <ele>1343</ele>
        <time>2021-08-03T10:30:58.483Z</time>
      </trkpt>
      <trkpt lat="47.01305" lon="8.87926">
        <ele>1343</ele>
        <time>2021-08-03T10:30:59.483Z</time>
      </trkpt>
      <trkpt lat="47.01305" lon="8.87925">
        <ele>1343</ele>
        <time>2021-08-03T10:31:00.482Z</time>
      </trkpt>
      <trkpt lat="47.01305" lon="8.87923">
        <ele>1344</ele>
        <time>2021-08-03T10:31:01.483Z</time>
      </trkpt>
      <trkpt lat="47.01305" lon="8.87921">
        <ele>1345</ele>
        <time>2021-08-03T10:31:02.483Z</time>
      </trkpt>
      <trkpt lat="47.01305" lon="8.87918">
        <ele>1345</ele>
        <time>2021-08-03T10:31:07.565Z</time>
      </trkpt>
      <trkpt lat="47.01306" lon="8.87916">
        <ele>1346</ele>
        <time>2021-08-03T10:31:08.565Z</time>
      </trkpt>
      <trkpt lat="47.01306" lon="8.87915">
        <ele>1346</ele>
        <time>2021-08-03T10:31:09.565Z</time>
      </trkpt>
      <trkpt lat="47.01306" lon="8.87914">
        <ele>1346</ele>
        <time>2021-08-03T10:31:10.566Z</time>
      </trkpt>
      <trkpt lat="47.01306" lon="8.87913">
        <ele>1346</ele>
        <time>2021-08-03T10:31:11.566Z</time>
      </trkpt>
      <trkpt lat="47.01306" lon="8.87912">
        <ele>1346</ele>
        <time>2021-08-03T10:31:12.565Z</time>
      </trkpt>
      <trkpt lat="47.01306" lon="8.8791">
        <ele>1345</ele>
        <time>2021-08-03T10:31:13.565Z</time>
      </trkpt>
      <trkpt lat="47.01305" lon="8.87909">
        <ele>1345</ele>
        <time>2021-08-03T10:31:14.565Z</time>
      </trkpt>
      <trkpt lat="47.01305" lon="8.87907">
        <ele>1345</ele>
        <time>2021-08-03T10:31:15.566Z</time>
      </trkpt>
      <trkpt lat="47.01305" lon="8.87905">
        <ele>1345</ele>
        <time>2021-08-03T10:31:16.566Z</time>
      </trkpt>
      <trkpt lat="47.01305" lon="8.87904">
        <ele>1345</ele>
        <time>2021-08-03T10:31:17.565Z</time>
      </trkpt>
      <trkpt lat="47.01304" lon="8.87903">
        <ele>1345</ele>
        <time>2021-08-03T10:31:18.565Z</time>
      </trkpt>
      <trkpt lat="47.01304" lon="8.87902">
        <ele>1345</ele>
        <time>2021-08-03T10:31:19.565Z</time>
      </trkpt>
      <trkpt lat="47.01303" lon="8.879">
        <ele>1346</ele>
        <time>2021-08-03T10:31:20.566Z</time>
      </trkpt>
      <trkpt lat="47.01302" lon="8.87899">
        <ele>1346</ele>
        <time>2021-08-03T10:31:21.565Z</time>
      </trkpt>
      <trkpt lat="47.01302" lon="8.87897">
        <ele>1347</ele>
        <time>2021-08-03T10:31:22.565Z</time>
      </trkpt>
      <trkpt lat="47.01302" lon="8.87894">
        <ele>1347</ele>
        <time>2021-08-03T10:31:23.565Z</time>
      </trkpt>
      <trkpt lat="47.01301" lon="8.87892">
        <ele>1348</ele>
        <time>2021-08-03T10:31:24.565Z</time>
      </trkpt>
      <trkpt lat="47.01301" lon="8.87891">
        <ele>1348</ele>
        <time>2021-08-03T10:31:25.566Z</time>
      </trkpt>
      <trkpt lat="47.01301" lon="8.8789">
        <ele>1348</ele>
        <time>2021-08-03T10:31:26.566Z</time>
      </trkpt>
      <trkpt lat="47.01302" lon="8.87888">
        <ele>1348</ele>
        <time>2021-08-03T10:31:27.565Z</time>
      </trkpt>
      <trkpt lat="47.01302" lon="8.87887">
        <ele>1348</ele>
        <time>2021-08-03T10:31:28.565Z</time>
      </trkpt>
      <trkpt lat="47.01301" lon="8.87885">
        <ele>1348</ele>
        <time>2021-08-03T10:31:29.565Z</time>
      </trkpt>
      <trkpt lat="47.01301" lon="8.87883">
        <ele>1349</ele>
        <time>2021-08-03T10:31:30.565Z</time>
      </trkpt>
      <trkpt lat="47.01301" lon="8.87882">
        <ele>1349</ele>
        <time>2021-08-03T10:31:31.566Z</time>
      </trkpt>
      <trkpt lat="47.013" lon="8.87881">
        <ele>1350</ele>
        <time>2021-08-03T10:31:32.565Z</time>
      </trkpt>
      <trkpt lat="47.013" lon="8.8788">
        <ele>1351</ele>
        <time>2021-08-03T10:31:33.565Z</time>
      </trkpt>
      <trkpt lat="47.013" lon="8.87879">
        <ele>1351</ele>
        <time>2021-08-03T10:31:34.565Z</time>
      </trkpt>
      <trkpt lat="47.01299" lon="8.87878">
        <ele>1352</ele>
        <time>2021-08-03T10:31:35.566Z</time>
      </trkpt>
      <trkpt lat="47.01298" lon="8.87877">
        <ele>1352</ele>
        <time>2021-08-03T10:31:36.565Z</time>
      </trkpt>
      <trkpt lat="47.01297" lon="8.87876">
        <ele>1352</ele>
        <time>2021-08-03T10:31:37.565Z</time>
      </trkpt>
      <trkpt lat="47.01296" lon="8.87875">
        <ele>1353</ele>
        <time>2021-08-03T10:31:38.565Z</time>
      </trkpt>
      <trkpt lat="47.01296" lon="8.87874">
        <ele>1353</ele>
        <time>2021-08-03T10:31:39.565Z</time>
      </trkpt>
      <trkpt lat="47.01295" lon="8.87873">
        <ele>1353</ele>
        <time>2021-08-03T10:31:40.566Z</time>
      </trkpt>
      <trkpt lat="47.01295" lon="8.87871">
        <ele>1353</ele>
        <time>2021-08-03T10:31:41.565Z</time>
      </trkpt>
      <trkpt lat="47.01294" lon="8.8787">
        <ele>1353</ele>
        <time>2021-08-03T10:31:42.566Z</time>
      </trkpt>
      <trkpt lat="47.01293" lon="8.87869">
        <ele>1354</ele>
        <time>2021-08-03T10:31:43.565Z</time>
      </trkpt>
      <trkpt lat="47.01292" lon="8.87868">
        <ele>1354</ele>
        <time>2021-08-03T10:31:44.565Z</time>
      </trkpt>
      <trkpt lat="47.01291" lon="8.87868">
        <ele>1354</ele>
        <time>2021-08-03T10:31:45.565Z</time>
      </trkpt>
      <trkpt lat="47.0129" lon="8.87868">
        <ele>1355</ele>
        <time>2021-08-03T10:31:46.565Z</time>
      </trkpt>
      <trkpt lat="47.01289" lon="8.87867">
        <ele>1355</ele>
        <time>2021-08-03T10:31:47.565Z</time>
      </trkpt>
      <trkpt lat="47.01289" lon="8.87866">
        <ele>1355</ele>
        <time>2021-08-03T10:31:48.565Z</time>
      </trkpt>
      <trkpt lat="47.01288" lon="8.87865">
        <ele>1356</ele>
        <time>2021-08-03T10:31:49.565Z</time>
      </trkpt>
      <trkpt lat="47.01288" lon="8.87865">
        <ele>1356</ele>
        <time>2021-08-03T10:31:50.565Z</time>
      </trkpt>
      <trkpt lat="47.01287" lon="8.87865">
        <ele>1356</ele>
        <time>2021-08-03T10:31:51.565Z</time>
      </trkpt>
      <trkpt lat="47.01287" lon="8.87866">
        <ele>1356</ele>
        <time>2021-08-03T10:31:52.565Z</time>
      </trkpt>
      <trkpt lat="47.01286" lon="8.87867">
        <ele>1355</ele>
        <time>2021-08-03T10:31:53.565Z</time>
      </trkpt>
      <trkpt lat="47.01284" lon="8.87868">
        <ele>1361</ele>
        <time>2021-08-03T10:31:54.566Z</time>
      </trkpt>
      <trkpt lat="47.01283" lon="8.87868">
        <ele>1362</ele>
        <time>2021-08-03T10:31:55.566Z</time>
      </trkpt>
      <trkpt lat="47.01282" lon="8.87867">
        <ele>1363</ele>
        <time>2021-08-03T10:31:56.566Z</time>
      </trkpt>
      <trkpt lat="47.01281" lon="8.87866">
        <ele>1364</ele>
        <time>2021-08-03T10:31:57.566Z</time>
      </trkpt>
      <trkpt lat="47.0128" lon="8.87863">
        <ele>1364</ele>
        <time>2021-08-03T10:31:58.566Z</time>
      </trkpt>
      <trkpt lat="47.01281" lon="8.87859">
        <ele>1365</ele>
        <time>2021-08-03T10:31:59.566Z</time>
      </trkpt>
      <trkpt lat="47.01281" lon="8.87856">
        <ele>1366</ele>
        <time>2021-08-03T10:32:00.567Z</time>
      </trkpt>
      <trkpt lat="47.01281" lon="8.87854">
        <ele>1366</ele>
        <time>2021-08-03T10:32:01.566Z</time>
      </trkpt>
      <trkpt lat="47.0128" lon="8.87853">
        <ele>1366</ele>
        <time>2021-08-03T10:32:02.566Z</time>
      </trkpt>
      <trkpt lat="47.01279" lon="8.87852">
        <ele>1365</ele>
        <time>2021-08-03T10:32:03.566Z</time>
      </trkpt>
      <trkpt lat="47.01279" lon="8.87852">
        <ele>1365</ele>
        <time>2021-08-03T10:32:04.566Z</time>
      </trkpt>
      <trkpt lat="47.01277" lon="8.87851">
        <ele>1365</ele>
        <time>2021-08-03T10:32:09.599Z</time>
      </trkpt>
      <trkpt lat="47.01277" lon="8.87851">
        <ele>1364</ele>
        <time>2021-08-03T10:32:10.599Z</time>
      </trkpt>
      <trkpt lat="47.01276" lon="8.8785">
        <ele>1364</ele>
        <time>2021-08-03T10:32:11.599Z</time>
      </trkpt>
      <trkpt lat="47.01275" lon="8.87849">
        <ele>1363</ele>
        <time>2021-08-03T10:32:12.600Z</time>
      </trkpt>
      <trkpt lat="47.01274" lon="8.87848">
        <ele>1363</ele>
        <time>2021-08-03T10:32:13.599Z</time>
      </trkpt>
      <trkpt lat="47.01273" lon="8.87848">
        <ele>1363</ele>
        <time>2021-08-03T10:32:14.600Z</time>
      </trkpt>
      <trkpt lat="47.01272" lon="8.87847">
        <ele>1362</ele>
        <time>2021-08-03T10:32:15.600Z</time>
      </trkpt>
      <trkpt lat="47.01271" lon="8.87847">
        <ele>1362</ele>
        <time>2021-08-03T10:32:16.599Z</time>
      </trkpt>
      <trkpt lat="47.01271" lon="8.87847">
        <ele>1362</ele>
        <time>2021-08-03T10:32:17.600Z</time>
      </trkpt>
      <trkpt lat="47.0127" lon="8.87846">
        <ele>1362</ele>
        <time>2021-08-03T10:32:18.599Z</time>
      </trkpt>
      <trkpt lat="47.01269" lon="8.87845">
        <ele>1362</ele>
        <time>2021-08-03T10:32:19.600Z</time>
      </trkpt>
      <trkpt lat="47.01269" lon="8.87844">
        <ele>1362</ele>
        <time>2021-08-03T10:32:20.600Z</time>
      </trkpt>
      <trkpt lat="47.01268" lon="8.87843">
        <ele>1363</ele>
        <time>2021-08-03T10:32:21.599Z</time>
      </trkpt>
      <trkpt lat="47.01268" lon="8.87842">
        <ele>1363</ele>
        <time>2021-08-03T10:32:22.599Z</time>
      </trkpt>
      <trkpt lat="47.01267" lon="8.87841">
        <ele>1363</ele>
        <time>2021-08-03T10:32:23.599Z</time>
      </trkpt>
      <trkpt lat="47.01266" lon="8.87839">
        <ele>1363</ele>
        <time>2021-08-03T10:32:24.600Z</time>
      </trkpt>
      <trkpt lat="47.01266" lon="8.87838">
        <ele>1363</ele>
        <time>2021-08-03T10:32:25.600Z</time>
      </trkpt>
      <trkpt lat="47.01265" lon="8.87837">
        <ele>1362</ele>
        <time>2021-08-03T10:32:26.599Z</time>
      </trkpt>
      <trkpt lat="47.01264" lon="8.87834">
        <ele>1362</ele>
        <time>2021-08-03T10:32:27.600Z</time>
      </trkpt>
      <trkpt lat="47.01263" lon="8.87832">
        <ele>1361</ele>
        <time>2021-08-03T10:32:28.600Z</time>
      </trkpt>
      <trkpt lat="47.01263" lon="8.87831">
        <ele>1361</ele>
        <time>2021-08-03T10:32:29.600Z</time>
      </trkpt>
      <trkpt lat="47.01263" lon="8.8783">
        <ele>1361</ele>
        <time>2021-08-03T10:32:30.600Z</time>
      </trkpt>
      <trkpt lat="47.01262" lon="8.87828">
        <ele>1360</ele>
        <time>2021-08-03T10:32:31.599Z</time>
      </trkpt>
      <trkpt lat="47.01262" lon="8.87826">
        <ele>1360</ele>
        <time>2021-08-03T10:32:32.600Z</time>
      </trkpt>
      <trkpt lat="47.01263" lon="8.87825">
        <ele>1359</ele>
        <time>2021-08-03T10:32:33.599Z</time>
      </trkpt>
      <trkpt lat="47.01262" lon="8.87823">
        <ele>1359</ele>
        <time>2021-08-03T10:32:34.600Z</time>
      </trkpt>
      <trkpt lat="47.01262" lon="8.8782">
        <ele>1358</ele>
        <time>2021-08-03T10:32:35.600Z</time>
      </trkpt>
      <trkpt lat="47.01262" lon="8.87818">
        <ele>1358</ele>
        <time>2021-08-03T10:32:36.600Z</time>
      </trkpt>
      <trkpt lat="47.01262" lon="8.87816">
        <ele>1357</ele>
        <time>2021-08-03T10:32:37.599Z</time>
      </trkpt>
      <trkpt lat="47.01261" lon="8.87815">
        <ele>1357</ele>
        <time>2021-08-03T10:32:38.600Z</time>
      </trkpt>
      <trkpt lat="47.0126" lon="8.87814">
        <ele>1356</ele>
        <time>2021-08-03T10:32:39.599Z</time>
      </trkpt>
      <trkpt lat="47.0126" lon="8.87812">
        <ele>1356</ele>
        <time>2021-08-03T10:32:40.599Z</time>
      </trkpt>
      <trkpt lat="47.01259" lon="8.87811">
        <ele>1355</ele>
        <time>2021-08-03T10:32:41.599Z</time>
      </trkpt>
      <trkpt lat="47.01258" lon="8.8781">
        <ele>1354</ele>
        <time>2021-08-03T10:32:42.600Z</time>
      </trkpt>
      <trkpt lat="47.01258" lon="8.87808">
        <ele>1354</ele>
        <time>2021-08-03T10:32:43.600Z</time>
      </trkpt>
      <trkpt lat="47.01257" lon="8.87807">
        <ele>1353</ele>
        <time>2021-08-03T10:32:44.600Z</time>
      </trkpt>
      <trkpt lat="47.01257" lon="8.87806">
        <ele>1353</ele>
        <time>2021-08-03T10:32:45.600Z</time>
      </trkpt>
      <trkpt lat="47.01256" lon="8.87804">
        <ele>1353</ele>
        <time>2021-08-03T10:32:46.600Z</time>
      </trkpt>
      <trkpt lat="47.01255" lon="8.87803">
        <ele>1353</ele>
        <time>2021-08-03T10:32:47.600Z</time>
      </trkpt>
      <trkpt lat="47.01255" lon="8.87802">
        <ele>1353</ele>
        <time>2021-08-03T10:32:48.600Z</time>
      </trkpt>
      <trkpt lat="47.01255" lon="8.878">
        <ele>1353</ele>
        <time>2021-08-03T10:32:49.600Z</time>
      </trkpt>
      <trkpt lat="47.01254" lon="8.87799">
        <ele>1353</ele>
        <time>2021-08-03T10:32:50.600Z</time>
      </trkpt>
      <trkpt lat="47.01253" lon="8.87798">
        <ele>1353</ele>
        <time>2021-08-03T10:32:51.600Z</time>
      </trkpt>
      <trkpt lat="47.01253" lon="8.87797">
        <ele>1353</ele>
        <time>2021-08-03T10:32:52.600Z</time>
      </trkpt>
      <trkpt lat="47.01253" lon="8.87796">
        <ele>1353</ele>
        <time>2021-08-03T10:32:53.600Z</time>
      </trkpt>
      <trkpt lat="47.01252" lon="8.87794">
        <ele>1353</ele>
        <time>2021-08-03T10:32:54.600Z</time>
      </trkpt>
      <trkpt lat="47.01252" lon="8.87793">
        <ele>1353</ele>
        <time>2021-08-03T10:32:55.599Z</time>
      </trkpt>
      <trkpt lat="47.01251" lon="8.87793">
        <ele>1353</ele>
        <time>2021-08-03T10:32:56.600Z</time>
      </trkpt>
      <trkpt lat="47.01251" lon="8.87793">
        <ele>1353</ele>
        <time>2021-08-03T10:33:05.692Z</time>
      </trkpt>
      <trkpt lat="47.0125" lon="8.87793">
        <ele>1354</ele>
        <time>2021-08-03T10:33:06.691Z</time>
      </trkpt>
      <trkpt lat="47.01249" lon="8.87793">
        <ele>1354</ele>
        <time>2021-08-03T10:33:08.552Z</time>
      </trkpt>
      <trkpt lat="47.01249" lon="8.87795">
        <ele>1354</ele>
        <time>2021-08-03T10:33:09.551Z</time>
      </trkpt>
      <trkpt lat="47.01248" lon="8.87793">
        <ele>1356</ele>
        <time>2021-08-03T10:33:10.551Z</time>
      </trkpt>
      <trkpt lat="47.01248" lon="8.87791">
        <ele>1356</ele>
        <time>2021-08-03T10:33:11.551Z</time>
      </trkpt>
      <trkpt lat="47.01248" lon="8.8779">
        <ele>1355</ele>
        <time>2021-08-03T10:33:12.551Z</time>
      </trkpt>
      <trkpt lat="47.01248" lon="8.87788">
        <ele>1354</ele>
        <time>2021-08-03T10:33:13.551Z</time>
      </trkpt>
      <trkpt lat="47.01248" lon="8.87787">
        <ele>1353</ele>
        <time>2021-08-03T10:33:14.552Z</time>
      </trkpt>
      <trkpt lat="47.01247" lon="8.87786">
        <ele>1352</ele>
        <time>2021-08-03T10:33:15.552Z</time>
      </trkpt>
      <trkpt lat="47.01247" lon="8.87784">
        <ele>1351</ele>
        <time>2021-08-03T10:33:16.552Z</time>
      </trkpt>
      <trkpt lat="47.01247" lon="8.87783">
        <ele>1350</ele>
        <time>2021-08-03T10:33:17.551Z</time>
      </trkpt>
      <trkpt lat="47.01247" lon="8.87782">
        <ele>1349</ele>
        <time>2021-08-03T10:33:18.552Z</time>
      </trkpt>
      <trkpt lat="47.01246" lon="8.87781">
        <ele>1348</ele>
        <time>2021-08-03T10:33:19.552Z</time>
      </trkpt>
      <trkpt lat="47.01245" lon="8.87779">
        <ele>1348</ele>
        <time>2021-08-03T10:33:20.552Z</time>
      </trkpt>
      <trkpt lat="47.01245" lon="8.87777">
        <ele>1348</ele>
        <time>2021-08-03T10:33:21.551Z</time>
      </trkpt>
      <trkpt lat="47.01244" lon="8.87776">
        <ele>1348</ele>
        <time>2021-08-03T10:33:22.551Z</time>
      </trkpt>
      <trkpt lat="47.01244" lon="8.87774">
        <ele>1349</ele>
        <time>2021-08-03T10:33:23.551Z</time>
      </trkpt>
      <trkpt lat="47.01244" lon="8.87772">
        <ele>1349</ele>
        <time>2021-08-03T10:33:24.552Z</time>
      </trkpt>
      <trkpt lat="47.01244" lon="8.8777">
        <ele>1350</ele>
        <time>2021-08-03T10:33:25.552Z</time>
      </trkpt>
      <trkpt lat="47.01244" lon="8.87769">
        <ele>1350</ele>
        <time>2021-08-03T10:33:26.552Z</time>
      </trkpt>
      <trkpt lat="47.01243" lon="8.87767">
        <ele>1350</ele>
        <time>2021-08-03T10:33:27.551Z</time>
      </trkpt>
      <trkpt lat="47.01243" lon="8.87766">
        <ele>1350</ele>
        <time>2021-08-03T10:33:31.723Z</time>
      </trkpt>
      <trkpt lat="47.01242" lon="8.87764">
        <ele>1350</ele>
        <time>2021-08-03T10:33:32.722Z</time>
      </trkpt>
      <trkpt lat="47.01242" lon="8.87763">
        <ele>1350</ele>
        <time>2021-08-03T10:33:33.722Z</time>
      </trkpt>
      <trkpt lat="47.01242" lon="8.87761">
        <ele>1349</ele>
        <time>2021-08-03T10:33:34.722Z</time>
      </trkpt>
      <trkpt lat="47.01241" lon="8.8776">
        <ele>1349</ele>
        <time>2021-08-03T10:33:35.723Z</time>
      </trkpt>
      <trkpt lat="47.01241" lon="8.87759">
        <ele>1349</ele>
        <time>2021-08-03T10:33:36.722Z</time>
      </trkpt>
      <trkpt lat="47.0124" lon="8.87757">
        <ele>1349</ele>
        <time>2021-08-03T10:33:37.723Z</time>
      </trkpt>
      <trkpt lat="47.0124" lon="8.87756">
        <ele>1348</ele>
        <time>2021-08-03T10:33:38.723Z</time>
      </trkpt>
      <trkpt lat="47.0124" lon="8.87755">
        <ele>1348</ele>
        <time>2021-08-03T10:33:39.723Z</time>
      </trkpt>
      <trkpt lat="47.0124" lon="8.87754">
        <ele>1348</ele>
        <time>2021-08-03T10:33:40.723Z</time>
      </trkpt>
      <trkpt lat="47.01239" lon="8.87753">
        <ele>1348</ele>
        <time>2021-08-03T10:33:41.722Z</time>
      </trkpt>
      <trkpt lat="47.01239" lon="8.87752">
        <ele>1348</ele>
        <time>2021-08-03T10:33:42.723Z</time>
      </trkpt>
      <trkpt lat="47.01239" lon="8.87751">
        <ele>1348</ele>
        <time>2021-08-03T10:33:43.722Z</time>
      </trkpt>
      <trkpt lat="47.01238" lon="8.87749">
        <ele>1348</ele>
        <time>2021-08-03T10:33:44.723Z</time>
      </trkpt>
      <trkpt lat="47.01238" lon="8.87748">
        <ele>1348</ele>
        <time>2021-08-03T10:33:45.722Z</time>
      </trkpt>
      <trkpt lat="47.01237" lon="8.87747">
        <ele>1348</ele>
        <time>2021-08-03T10:33:46.723Z</time>
      </trkpt>
      <trkpt lat="47.01236" lon="8.87745">
        <ele>1348</ele>
        <time>2021-08-03T10:33:47.723Z</time>
      </trkpt>
      <trkpt lat="47.01236" lon="8.87744">
        <ele>1348</ele>
        <time>2021-08-03T10:33:48.723Z</time>
      </trkpt>
      <trkpt lat="47.01236" lon="8.87744">
        <ele>1348</ele>
        <time>2021-08-03T10:33:49.723Z</time>
      </trkpt>
      <trkpt lat="47.01235" lon="8.87743">
        <ele>1348</ele>
        <time>2021-08-03T10:33:50.723Z</time>
      </trkpt>
      <trkpt lat="47.01235" lon="8.87741">
        <ele>1348</ele>
        <time>2021-08-03T10:33:51.723Z</time>
      </trkpt>
      <trkpt lat="47.01235" lon="8.8774">
        <ele>1348</ele>
        <time>2021-08-03T10:33:52.722Z</time>
      </trkpt>
      <trkpt lat="47.01234" lon="8.87738">
        <ele>1347</ele>
        <time>2021-08-03T10:33:53.723Z</time>
      </trkpt>
      <trkpt lat="47.01233" lon="8.87735">
        <ele>1347</ele>
        <time>2021-08-03T10:33:54.722Z</time>
      </trkpt>
      <trkpt lat="47.01232" lon="8.87733">
        <ele>1348</ele>
        <time>2021-08-03T10:33:55.722Z</time>
      </trkpt>
      <trkpt lat="47.01232" lon="8.87732">
        <ele>1348</ele>
        <time>2021-08-03T10:33:56.722Z</time>
      </trkpt>
      <trkpt lat="47.01232" lon="8.87731">
        <ele>1348</ele>
        <time>2021-08-03T10:33:57.722Z</time>
      </trkpt>
      <trkpt lat="47.01232" lon="8.8773">
        <ele>1349</ele>
        <time>2021-08-03T10:33:58.723Z</time>
      </trkpt>
      <trkpt lat="47.01231" lon="8.87729">
        <ele>1349</ele>
        <time>2021-08-03T10:33:59.722Z</time>
      </trkpt>
      <trkpt lat="47.01231" lon="8.87727">
        <ele>1350</ele>
        <time>2021-08-03T10:34:00.723Z</time>
      </trkpt>
      <trkpt lat="47.0123" lon="8.87725">
        <ele>1350</ele>
        <time>2021-08-03T10:34:01.723Z</time>
      </trkpt>
      <trkpt lat="47.0123" lon="8.87725">
        <ele>1351</ele>
        <time>2021-08-03T10:34:02.722Z</time>
      </trkpt>
      <trkpt lat="47.0123" lon="8.87724">
        <ele>1351</ele>
        <time>2021-08-03T10:34:03.723Z</time>
      </trkpt>
      <trkpt lat="47.01229" lon="8.87723">
        <ele>1352</ele>
        <time>2021-08-03T10:34:04.722Z</time>
      </trkpt>
      <trkpt lat="47.01229" lon="8.87722">
        <ele>1353</ele>
        <time>2021-08-03T10:34:05.722Z</time>
      </trkpt>
      <trkpt lat="47.01228" lon="8.87722">
        <ele>1354</ele>
        <time>2021-08-03T10:34:06.722Z</time>
      </trkpt>
      <trkpt lat="47.01228" lon="8.87721">
        <ele>1355</ele>
        <time>2021-08-03T10:34:07.723Z</time>
      </trkpt>
      <trkpt lat="47.01228" lon="8.8772">
        <ele>1356</ele>
        <time>2021-08-03T10:34:08.723Z</time>
      </trkpt>
      <trkpt lat="47.01227" lon="8.87718">
        <ele>1357</ele>
        <time>2021-08-03T10:34:09.722Z</time>
      </trkpt>
      <trkpt lat="47.01227" lon="8.87717">
        <ele>1358</ele>
        <time>2021-08-03T10:34:10.723Z</time>
      </trkpt>
      <trkpt lat="47.01226" lon="8.87716">
        <ele>1358</ele>
        <time>2021-08-03T10:34:11.723Z</time>
      </trkpt>
      <trkpt lat="47.01226" lon="8.87715">
        <ele>1358</ele>
        <time>2021-08-03T10:34:12.723Z</time>
      </trkpt>
      <trkpt lat="47.01225" lon="8.87713">
        <ele>1358</ele>
        <time>2021-08-03T10:34:13.723Z</time>
      </trkpt>
      <trkpt lat="47.01225" lon="8.87712">
        <ele>1358</ele>
        <time>2021-08-03T10:34:14.723Z</time>
      </trkpt>
      <trkpt lat="47.01224" lon="8.87711">
        <ele>1357</ele>
        <time>2021-08-03T10:34:15.722Z</time>
      </trkpt>
      <trkpt lat="47.01224" lon="8.87711">
        <ele>1358</ele>
        <time>2021-08-03T10:34:16.722Z</time>
      </trkpt>
      <trkpt lat="47.01223" lon="8.8771">
        <ele>1358</ele>
        <time>2021-08-03T10:34:17.722Z</time>
      </trkpt>
      <trkpt lat="47.01222" lon="8.87709">
        <ele>1358</ele>
        <time>2021-08-03T10:34:18.722Z</time>
      </trkpt>
      <trkpt lat="47.01221" lon="8.87708">
        <ele>1358</ele>
        <time>2021-08-03T10:34:19.722Z</time>
      </trkpt>
      <trkpt lat="47.0122" lon="8.87707">
        <ele>1359</ele>
        <time>2021-08-03T10:34:20.722Z</time>
      </trkpt>
      <trkpt lat="47.01219" lon="8.87706">
        <ele>1359</ele>
        <time>2021-08-03T10:34:21.722Z</time>
      </trkpt>
      <trkpt lat="47.01219" lon="8.87705">
        <ele>1359</ele>
        <time>2021-08-03T10:34:22.723Z</time>
      </trkpt>
      <trkpt lat="47.01218" lon="8.87704">
        <ele>1359</ele>
        <time>2021-08-03T10:34:23.723Z</time>
      </trkpt>
      <trkpt lat="47.01217" lon="8.87704">
        <ele>1359</ele>
        <time>2021-08-03T10:34:24.723Z</time>
      </trkpt>
      <trkpt lat="47.01217" lon="8.87703">
        <ele>1359</ele>
        <time>2021-08-03T10:34:25.722Z</time>
      </trkpt>
      <trkpt lat="47.01216" lon="8.87702">
        <ele>1359</ele>
        <time>2021-08-03T10:34:26.723Z</time>
      </trkpt>
      <trkpt lat="47.01215" lon="8.87701">
        <ele>1359</ele>
        <time>2021-08-03T10:34:27.723Z</time>
      </trkpt>
      <trkpt lat="47.01215" lon="8.87699">
        <ele>1359</ele>
        <time>2021-08-03T10:34:28.723Z</time>
      </trkpt>
      <trkpt lat="47.01215" lon="8.87698">
        <ele>1359</ele>
        <time>2021-08-03T10:34:29.723Z</time>
      </trkpt>
      <trkpt lat="47.01214" lon="8.87697">
        <ele>1359</ele>
        <time>2021-08-03T10:34:30.723Z</time>
      </trkpt>
      <trkpt lat="47.01214" lon="8.87696">
        <ele>1358</ele>
        <time>2021-08-03T10:34:31.723Z</time>
      </trkpt>
      <trkpt lat="47.01214" lon="8.87695">
        <ele>1358</ele>
        <time>2021-08-03T10:34:32.722Z</time>
      </trkpt>
      <trkpt lat="47.01214" lon="8.87694">
        <ele>1357</ele>
        <time>2021-08-03T10:34:33.722Z</time>
      </trkpt>
      <trkpt lat="47.01214" lon="8.87693">
        <ele>1356</ele>
        <time>2021-08-03T10:34:34.722Z</time>
      </trkpt>
      <trkpt lat="47.01214" lon="8.8769">
        <ele>1355</ele>
        <time>2021-08-03T10:34:35.722Z</time>
      </trkpt>
      <trkpt lat="47.01213" lon="8.87689">
        <ele>1354</ele>
        <time>2021-08-03T10:34:36.722Z</time>
      </trkpt>
      <trkpt lat="47.01212" lon="8.87688">
        <ele>1354</ele>
        <time>2021-08-03T10:34:37.723Z</time>
      </trkpt>
      <trkpt lat="47.01212" lon="8.87687">
        <ele>1354</ele>
        <time>2021-08-03T10:34:38.723Z</time>
      </trkpt>
      <trkpt lat="47.01211" lon="8.87685">
        <ele>1354</ele>
        <time>2021-08-03T10:34:39.723Z</time>
      </trkpt>
      <trkpt lat="47.0121" lon="8.87684">
        <ele>1354</ele>
        <time>2021-08-03T10:34:40.722Z</time>
      </trkpt>
      <trkpt lat="47.0121" lon="8.87682">
        <ele>1354</ele>
        <time>2021-08-03T10:34:41.722Z</time>
      </trkpt>
      <trkpt lat="47.0121" lon="8.8768">
        <ele>1353</ele>
        <time>2021-08-03T10:34:42.723Z</time>
      </trkpt>
      <trkpt lat="47.01209" lon="8.87678">
        <ele>1353</ele>
        <time>2021-08-03T10:34:43.723Z</time>
      </trkpt>
      <trkpt lat="47.01209" lon="8.87677">
        <ele>1353</ele>
        <time>2021-08-03T10:34:44.723Z</time>
      </trkpt>
      <trkpt lat="47.01208" lon="8.87676">
        <ele>1352</ele>
        <time>2021-08-03T10:34:45.722Z</time>
      </trkpt>
      <trkpt lat="47.01207" lon="8.87675">
        <ele>1352</ele>
        <time>2021-08-03T10:34:46.723Z</time>
      </trkpt>
      <trkpt lat="47.01206" lon="8.87674">
        <ele>1352</ele>
        <time>2021-08-03T10:34:47.723Z</time>
      </trkpt>
      <trkpt lat="47.01205" lon="8.87673">
        <ele>1352</ele>
        <time>2021-08-03T10:34:48.723Z</time>
      </trkpt>
      <trkpt lat="47.01204" lon="8.87673">
        <ele>1352</ele>
        <time>2021-08-03T10:34:49.723Z</time>
      </trkpt>
      <trkpt lat="47.01203" lon="8.87671">
        <ele>1353</ele>
        <time>2021-08-03T10:34:50.723Z</time>
      </trkpt>
      <trkpt lat="47.01201" lon="8.8767">
        <ele>1353</ele>
        <time>2021-08-03T10:34:51.723Z</time>
      </trkpt>
      <trkpt lat="47.012" lon="8.87669">
        <ele>1354</ele>
        <time>2021-08-03T10:34:52.723Z</time>
      </trkpt>
      <trkpt lat="47.01199" lon="8.87668">
        <ele>1355</ele>
        <time>2021-08-03T10:34:53.723Z</time>
      </trkpt>
      <trkpt lat="47.01198" lon="8.87667">
        <ele>1355</ele>
        <time>2021-08-03T10:34:54.722Z</time>
      </trkpt>
      <trkpt lat="47.01198" lon="8.87665">
        <ele>1356</ele>
        <time>2021-08-03T10:34:55.723Z</time>
      </trkpt>
      <trkpt lat="47.01197" lon="8.87665">
        <ele>1357</ele>
        <time>2021-08-03T10:34:56.723Z</time>
      </trkpt>
      <trkpt lat="47.01196" lon="8.87664">
        <ele>1359</ele>
        <time>2021-08-03T10:34:57.722Z</time>
      </trkpt>
      <trkpt lat="47.01196" lon="8.87663">
        <ele>1359</ele>
        <time>2021-08-03T10:34:58.723Z</time>
      </trkpt>
      <trkpt lat="47.01195" lon="8.87662">
        <ele>1360</ele>
        <time>2021-08-03T10:34:59.723Z</time>
      </trkpt>
      <trkpt lat="47.01194" lon="8.8766">
        <ele>1360</ele>
        <time>2021-08-03T10:35:00.723Z</time>
      </trkpt>
      <trkpt lat="47.01194" lon="8.87659">
        <ele>1361</ele>
        <time>2021-08-03T10:35:01.722Z</time>
      </trkpt>
      <trkpt lat="47.01193" lon="8.87658">
        <ele>1362</ele>
        <time>2021-08-03T10:35:02.723Z</time>
      </trkpt>
      <trkpt lat="47.01192" lon="8.87656">
        <ele>1363</ele>
        <time>2021-08-03T10:35:03.722Z</time>
      </trkpt>
      <trkpt lat="47.01191" lon="8.87654">
        <ele>1363</ele>
        <time>2021-08-03T10:35:04.723Z</time>
      </trkpt>
      <trkpt lat="47.0119" lon="8.87653">
        <ele>1364</ele>
        <time>2021-08-03T10:35:05.722Z</time>
      </trkpt>
      <trkpt lat="47.01189" lon="8.87653">
        <ele>1364</ele>
        <time>2021-08-03T10:35:06.722Z</time>
      </trkpt>
      <trkpt lat="47.01189" lon="8.87651">
        <ele>1365</ele>
        <time>2021-08-03T10:35:07.722Z</time>
      </trkpt>
      <trkpt lat="47.01188" lon="8.8765">
        <ele>1365</ele>
        <time>2021-08-03T10:35:08.722Z</time>
      </trkpt>
      <trkpt lat="47.01187" lon="8.87649">
        <ele>1365</ele>
        <time>2021-08-03T10:35:09.723Z</time>
      </trkpt>
      <trkpt lat="47.01186" lon="8.87648">
        <ele>1366</ele>
        <time>2021-08-03T10:35:10.722Z</time>
      </trkpt>
      <trkpt lat="47.01185" lon="8.87646">
        <ele>1366</ele>
        <time>2021-08-03T10:35:11.723Z</time>
      </trkpt>
      <trkpt lat="47.01184" lon="8.87645">
        <ele>1366</ele>
        <time>2021-08-03T10:35:12.722Z</time>
      </trkpt>
      <trkpt lat="47.01184" lon="8.87644">
        <ele>1366</ele>
        <time>2021-08-03T10:35:13.723Z</time>
      </trkpt>
      <trkpt lat="47.01183" lon="8.87644">
        <ele>1366</ele>
        <time>2021-08-03T10:35:14.722Z</time>
      </trkpt>
      <trkpt lat="47.01182" lon="8.87643">
        <ele>1366</ele>
        <time>2021-08-03T10:35:15.722Z</time>
      </trkpt>
      <trkpt lat="47.01182" lon="8.87642">
        <ele>1365</ele>
        <time>2021-08-03T10:35:16.723Z</time>
      </trkpt>
      <trkpt lat="47.01182" lon="8.87641">
        <ele>1365</ele>
        <time>2021-08-03T10:35:17.722Z</time>
      </trkpt>
      <trkpt lat="47.01182" lon="8.87639">
        <ele>1364</ele>
        <time>2021-08-03T10:35:18.722Z</time>
      </trkpt>
      <trkpt lat="47.01181" lon="8.87638">
        <ele>1364</ele>
        <time>2021-08-03T10:35:19.722Z</time>
      </trkpt>
      <trkpt lat="47.0118" lon="8.87637">
        <ele>1363</ele>
        <time>2021-08-03T10:35:20.722Z</time>
      </trkpt>
      <trkpt lat="47.0118" lon="8.87636">
        <ele>1363</ele>
        <time>2021-08-03T10:35:21.722Z</time>
      </trkpt>
      <trkpt lat="47.01179" lon="8.87635">
        <ele>1363</ele>
        <time>2021-08-03T10:35:22.722Z</time>
      </trkpt>
      <trkpt lat="47.01179" lon="8.87634">
        <ele>1362</ele>
        <time>2021-08-03T10:35:23.722Z</time>
      </trkpt>
      <trkpt lat="47.01178" lon="8.87633">
        <ele>1362</ele>
        <time>2021-08-03T10:35:24.723Z</time>
      </trkpt>
      <trkpt lat="47.01177" lon="8.87632">
        <ele>1362</ele>
        <time>2021-08-03T10:35:25.722Z</time>
      </trkpt>
      <trkpt lat="47.01177" lon="8.87631">
        <ele>1361</ele>
        <time>2021-08-03T10:35:26.722Z</time>
      </trkpt>
      <trkpt lat="47.01177" lon="8.87629">
        <ele>1361</ele>
        <time>2021-08-03T10:35:27.722Z</time>
      </trkpt>
      <trkpt lat="47.01177" lon="8.87628">
        <ele>1360</ele>
        <time>2021-08-03T10:35:28.722Z</time>
      </trkpt>
      <trkpt lat="47.01176" lon="8.87627">
        <ele>1359</ele>
        <time>2021-08-03T10:35:29.723Z</time>
      </trkpt>
      <trkpt lat="47.01176" lon="8.87626">
        <ele>1360</ele>
        <time>2021-08-03T10:35:30.722Z</time>
      </trkpt>
      <trkpt lat="47.01175" lon="8.87625">
        <ele>1360</ele>
        <time>2021-08-03T10:35:31.722Z</time>
      </trkpt>
      <trkpt lat="47.01175" lon="8.87624">
        <ele>1360</ele>
        <time>2021-08-03T10:35:32.722Z</time>
      </trkpt>
      <trkpt lat="47.01175" lon="8.87623">
        <ele>1360</ele>
        <time>2021-08-03T10:35:33.722Z</time>
      </trkpt>
      <trkpt lat="47.01174" lon="8.87622">
        <ele>1360</ele>
        <time>2021-08-03T10:35:34.722Z</time>
      </trkpt>
      <trkpt lat="47.01174" lon="8.87621">
        <ele>1360</ele>
        <time>2021-08-03T10:35:35.722Z</time>
      </trkpt>
      <trkpt lat="47.01172" lon="8.87621">
        <ele>1361</ele>
        <time>2021-08-03T10:35:36.722Z</time>
      </trkpt>
      <trkpt lat="47.01172" lon="8.8762">
        <ele>1362</ele>
        <time>2021-08-03T10:35:37.723Z</time>
      </trkpt>
      <trkpt lat="47.01171" lon="8.87619">
        <ele>1362</ele>
        <time>2021-08-03T10:35:38.723Z</time>
      </trkpt>
      <trkpt lat="47.0117" lon="8.87618">
        <ele>1363</ele>
        <time>2021-08-03T10:35:39.723Z</time>
      </trkpt>
      <trkpt lat="47.01169" lon="8.87617">
        <ele>1364</ele>
        <time>2021-08-03T10:35:40.722Z</time>
      </trkpt>
      <trkpt lat="47.01169" lon="8.87616">
        <ele>1364</ele>
        <time>2021-08-03T10:35:41.722Z</time>
      </trkpt>
      <trkpt lat="47.01169" lon="8.87615">
        <ele>1365</ele>
        <time>2021-08-03T10:35:42.722Z</time>
      </trkpt>
      <trkpt lat="47.01169" lon="8.87614">
        <ele>1365</ele>
        <time>2021-08-03T10:35:43.723Z</time>
      </trkpt>
      <trkpt lat="47.01168" lon="8.87613">
        <ele>1365</ele>
        <time>2021-08-03T10:35:44.723Z</time>
      </trkpt>
      <trkpt lat="47.01168" lon="8.87612">
        <ele>1366</ele>
        <time>2021-08-03T10:35:45.723Z</time>
      </trkpt>
      <trkpt lat="47.01167" lon="8.87611">
        <ele>1366</ele>
        <time>2021-08-03T10:35:46.723Z</time>
      </trkpt>
      <trkpt lat="47.01167" lon="8.8761">
        <ele>1366</ele>
        <time>2021-08-03T10:35:47.722Z</time>
      </trkpt>
      <trkpt lat="47.01167" lon="8.8761">
        <ele>1366</ele>
        <time>2021-08-03T10:35:48.722Z</time>
      </trkpt>
      <trkpt lat="47.01166" lon="8.87609">
        <ele>1366</ele>
        <time>2021-08-03T10:35:49.723Z</time>
      </trkpt>
      <trkpt lat="47.01166" lon="8.87609">
        <ele>1367</ele>
        <time>2021-08-03T10:35:50.723Z</time>
      </trkpt>
      <trkpt lat="47.01165" lon="8.87608">
        <ele>1367</ele>
        <time>2021-08-03T10:35:51.723Z</time>
      </trkpt>
      <trkpt lat="47.01164" lon="8.87607">
        <ele>1367</ele>
        <time>2021-08-03T10:35:52.723Z</time>
      </trkpt>
      <trkpt lat="47.01163" lon="8.87607">
        <ele>1367</ele>
        <time>2021-08-03T10:35:53.723Z</time>
      </trkpt>
      <trkpt lat="47.01162" lon="8.87606">
        <ele>1367</ele>
        <time>2021-08-03T10:35:54.723Z</time>
      </trkpt>
      <trkpt lat="47.01161" lon="8.87606">
        <ele>1367</ele>
        <time>2021-08-03T10:35:55.723Z</time>
      </trkpt>
      <trkpt lat="47.0116" lon="8.87605">
        <ele>1368</ele>
        <time>2021-08-03T10:35:56.722Z</time>
      </trkpt>
      <trkpt lat="47.0116" lon="8.87605">
        <ele>1368</ele>
        <time>2021-08-03T10:35:57.723Z</time>
      </trkpt>
      <trkpt lat="47.01159" lon="8.87603">
        <ele>1368</ele>
        <time>2021-08-03T10:35:58.723Z</time>
      </trkpt>
      <trkpt lat="47.01158" lon="8.87603">
        <ele>1367</ele>
        <time>2021-08-03T10:35:59.722Z</time>
      </trkpt>
      <trkpt lat="47.01157" lon="8.87601">
        <ele>1367</ele>
        <time>2021-08-03T10:36:00.722Z</time>
      </trkpt>
      <trkpt lat="47.01157" lon="8.876">
        <ele>1367</ele>
        <time>2021-08-03T10:36:01.722Z</time>
      </trkpt>
      <trkpt lat="47.01156" lon="8.87599">
        <ele>1367</ele>
        <time>2021-08-03T10:36:02.723Z</time>
      </trkpt>
      <trkpt lat="47.01156" lon="8.87598">
        <ele>1367</ele>
        <time>2021-08-03T10:36:03.722Z</time>
      </trkpt>
      <trkpt lat="47.01155" lon="8.87597">
        <ele>1368</ele>
        <time>2021-08-03T10:36:04.723Z</time>
      </trkpt>
      <trkpt lat="47.01155" lon="8.87596">
        <ele>1368</ele>
        <time>2021-08-03T10:36:05.722Z</time>
      </trkpt>
      <trkpt lat="47.01154" lon="8.87595">
        <ele>1369</ele>
        <time>2021-08-03T10:36:06.722Z</time>
      </trkpt>
      <trkpt lat="47.01153" lon="8.87595">
        <ele>1370</ele>
        <time>2021-08-03T10:36:07.722Z</time>
      </trkpt>
      <trkpt lat="47.01152" lon="8.87594">
        <ele>1370</ele>
        <time>2021-08-03T10:36:08.722Z</time>
      </trkpt>
      <trkpt lat="47.01151" lon="8.87593">
        <ele>1371</ele>
        <time>2021-08-03T10:36:09.723Z</time>
      </trkpt>
      <trkpt lat="47.0115" lon="8.87592">
        <ele>1372</ele>
        <time>2021-08-03T10:36:10.722Z</time>
      </trkpt>
      <trkpt lat="47.01149" lon="8.87591">
        <ele>1372</ele>
        <time>2021-08-03T10:36:11.722Z</time>
      </trkpt>
      <trkpt lat="47.01148" lon="8.8759">
        <ele>1373</ele>
        <time>2021-08-03T10:36:12.722Z</time>
      </trkpt>
      <trkpt lat="47.01148" lon="8.87589">
        <ele>1374</ele>
        <time>2021-08-03T10:36:13.723Z</time>
      </trkpt>
      <trkpt lat="47.01148" lon="8.87588">
        <ele>1374</ele>
        <time>2021-08-03T10:36:14.723Z</time>
      </trkpt>
      <trkpt lat="47.01147" lon="8.87586">
        <ele>1375</ele>
        <time>2021-08-03T10:36:15.723Z</time>
      </trkpt>
      <trkpt lat="47.01147" lon="8.87585">
        <ele>1375</ele>
        <time>2021-08-03T10:36:16.722Z</time>
      </trkpt>
      <trkpt lat="47.01147" lon="8.87584">
        <ele>1375</ele>
        <time>2021-08-03T10:36:17.722Z</time>
      </trkpt>
      <trkpt lat="47.01147" lon="8.87583">
        <ele>1374</ele>
        <time>2021-08-03T10:36:18.723Z</time>
      </trkpt>
      <trkpt lat="47.01146" lon="8.87582">
        <ele>1374</ele>
        <time>2021-08-03T10:36:19.723Z</time>
      </trkpt>
      <trkpt lat="47.01146" lon="8.87581">
        <ele>1373</ele>
        <time>2021-08-03T10:36:20.722Z</time>
      </trkpt>
      <trkpt lat="47.01145" lon="8.87578">
        <ele>1373</ele>
        <time>2021-08-03T10:36:21.722Z</time>
      </trkpt>
      <trkpt lat="47.01144" lon="8.87576">
        <ele>1374</ele>
        <time>2021-08-03T10:36:22.723Z</time>
      </trkpt>
      <trkpt lat="47.01143" lon="8.87575">
        <ele>1374</ele>
        <time>2021-08-03T10:36:23.723Z</time>
      </trkpt>
      <trkpt lat="47.01142" lon="8.87574">
        <ele>1374</ele>
        <time>2021-08-03T10:36:24.722Z</time>
      </trkpt>
      <trkpt lat="47.01141" lon="8.87573">
        <ele>1374</ele>
        <time>2021-08-03T10:36:25.723Z</time>
      </trkpt>
      <trkpt lat="47.01141" lon="8.87571">
        <ele>1374</ele>
        <time>2021-08-03T10:36:26.722Z</time>
      </trkpt>
      <trkpt lat="47.0114" lon="8.8757">
        <ele>1374</ele>
        <time>2021-08-03T10:36:27.723Z</time>
      </trkpt>
      <trkpt lat="47.01139" lon="8.87569">
        <ele>1374</ele>
        <time>2021-08-03T10:36:28.723Z</time>
      </trkpt>
      <trkpt lat="47.01139" lon="8.87568">
        <ele>1374</ele>
        <time>2021-08-03T10:36:29.723Z</time>
      </trkpt>
      <trkpt lat="47.01138" lon="8.87567">
        <ele>1374</ele>
        <time>2021-08-03T10:36:30.723Z</time>
      </trkpt>
      <trkpt lat="47.01138" lon="8.87566">
        <ele>1374</ele>
        <time>2021-08-03T10:36:31.723Z</time>
      </trkpt>
      <trkpt lat="47.01137" lon="8.87565">
        <ele>1374</ele>
        <time>2021-08-03T10:36:32.723Z</time>
      </trkpt>
      <trkpt lat="47.01137" lon="8.87564">
        <ele>1374</ele>
        <time>2021-08-03T10:36:33.723Z</time>
      </trkpt>
      <trkpt lat="47.01136" lon="8.87563">
        <ele>1373</ele>
        <time>2021-08-03T10:36:34.722Z</time>
      </trkpt>
      <trkpt lat="47.01135" lon="8.87563">
        <ele>1373</ele>
        <time>2021-08-03T10:36:35.723Z</time>
      </trkpt>
      <trkpt lat="47.01134" lon="8.87562">
        <ele>1373</ele>
        <time>2021-08-03T10:36:36.723Z</time>
      </trkpt>
      <trkpt lat="47.01134" lon="8.8756">
        <ele>1373</ele>
        <time>2021-08-03T10:36:37.723Z</time>
      </trkpt>
      <trkpt lat="47.01133" lon="8.87559">
        <ele>1373</ele>
        <time>2021-08-03T10:36:38.723Z</time>
      </trkpt>
      <trkpt lat="47.01132" lon="8.87559">
        <ele>1373</ele>
        <time>2021-08-03T10:36:39.722Z</time>
      </trkpt>
      <trkpt lat="47.01131" lon="8.87557">
        <ele>1373</ele>
        <time>2021-08-03T10:36:40.723Z</time>
      </trkpt>
      <trkpt lat="47.0113" lon="8.87556">
        <ele>1373</ele>
        <time>2021-08-03T10:36:41.722Z</time>
      </trkpt>
      <trkpt lat="47.01129" lon="8.87555">
        <ele>1372</ele>
        <time>2021-08-03T10:36:42.723Z</time>
      </trkpt>
      <trkpt lat="47.01129" lon="8.87555">
        <ele>1372</ele>
        <time>2021-08-03T10:36:43.722Z</time>
      </trkpt>
      <trkpt lat="47.01128" lon="8.87554">
        <ele>1372</ele>
        <time>2021-08-03T10:36:44.723Z</time>
      </trkpt>
      <trkpt lat="47.01127" lon="8.87553">
        <ele>1373</ele>
        <time>2021-08-03T10:36:45.723Z</time>
      </trkpt>
      <trkpt lat="47.01126" lon="8.87552">
        <ele>1373</ele>
        <time>2021-08-03T10:36:46.722Z</time>
      </trkpt>
      <trkpt lat="47.01125" lon="8.87549">
        <ele>1374</ele>
        <time>2021-08-03T10:36:47.722Z</time>
      </trkpt>
      <trkpt lat="47.01125" lon="8.87548">
        <ele>1374</ele>
        <time>2021-08-03T10:36:48.722Z</time>
      </trkpt>
      <trkpt lat="47.01125" lon="8.87547">
        <ele>1374</ele>
        <time>2021-08-03T10:36:49.722Z</time>
      </trkpt>
      <trkpt lat="47.01125" lon="8.87546">
        <ele>1373</ele>
        <time>2021-08-03T10:36:50.722Z</time>
      </trkpt>
      <trkpt lat="47.01124" lon="8.87545">
        <ele>1373</ele>
        <time>2021-08-03T10:36:51.723Z</time>
      </trkpt>
      <trkpt lat="47.01123" lon="8.87545">
        <ele>1373</ele>
        <time>2021-08-03T10:36:52.723Z</time>
      </trkpt>
      <trkpt lat="47.01122" lon="8.87545">
        <ele>1373</ele>
        <time>2021-08-03T10:36:53.722Z</time>
      </trkpt>
      <trkpt lat="47.01121" lon="8.87544">
        <ele>1373</ele>
        <time>2021-08-03T10:36:54.723Z</time>
      </trkpt>
      <trkpt lat="47.0112" lon="8.87542">
        <ele>1373</ele>
        <time>2021-08-03T10:36:55.723Z</time>
      </trkpt>
      <trkpt lat="47.01119" lon="8.87541">
        <ele>1374</ele>
        <time>2021-08-03T10:36:56.722Z</time>
      </trkpt>
      <trkpt lat="47.01118" lon="8.8754">
        <ele>1374</ele>
        <time>2021-08-03T10:36:57.722Z</time>
      </trkpt>
      <trkpt lat="47.01117" lon="8.87538">
        <ele>1374</ele>
        <time>2021-08-03T10:36:58.723Z</time>
      </trkpt>
      <trkpt lat="47.01116" lon="8.87537">
        <ele>1375</ele>
        <time>2021-08-03T10:36:59.723Z</time>
      </trkpt>
      <trkpt lat="47.01115" lon="8.87535">
        <ele>1375</ele>
        <time>2021-08-03T10:37:00.723Z</time>
      </trkpt>
      <trkpt lat="47.01114" lon="8.87533">
        <ele>1375</ele>
        <time>2021-08-03T10:37:01.723Z</time>
      </trkpt>
      <trkpt lat="47.01113" lon="8.87532">
        <ele>1376</ele>
        <time>2021-08-03T10:37:02.723Z</time>
      </trkpt>
      <trkpt lat="47.01113" lon="8.87531">
        <ele>1376</ele>
        <time>2021-08-03T10:37:03.723Z</time>
      </trkpt>
      <trkpt lat="47.01112" lon="8.87529">
        <ele>1377</ele>
        <time>2021-08-03T10:37:04.723Z</time>
      </trkpt>
      <trkpt lat="47.01111" lon="8.87528">
        <ele>1377</ele>
        <time>2021-08-03T10:37:05.722Z</time>
      </trkpt>
      <trkpt lat="47.0111" lon="8.87527">
        <ele>1378</ele>
        <time>2021-08-03T10:37:06.722Z</time>
      </trkpt>
      <trkpt lat="47.0111" lon="8.87526">
        <ele>1378</ele>
        <time>2021-08-03T10:37:07.723Z</time>
      </trkpt>
      <trkpt lat="47.01109" lon="8.87525">
        <ele>1378</ele>
        <time>2021-08-03T10:37:08.722Z</time>
      </trkpt>
      <trkpt lat="47.01109" lon="8.87523">
        <ele>1377</ele>
        <time>2021-08-03T10:37:09.723Z</time>
      </trkpt>
      <trkpt lat="47.01108" lon="8.87522">
        <ele>1376</ele>
        <time>2021-08-03T10:37:10.723Z</time>
      </trkpt>
      <trkpt lat="47.01107" lon="8.87521">
        <ele>1376</ele>
        <time>2021-08-03T10:37:11.723Z</time>
      </trkpt>
      <trkpt lat="47.01107" lon="8.8752">
        <ele>1376</ele>
        <time>2021-08-03T10:37:12.722Z</time>
      </trkpt>
      <trkpt lat="47.01106" lon="8.87519">
        <ele>1375</ele>
        <time>2021-08-03T10:37:13.723Z</time>
      </trkpt>
      <trkpt lat="47.01106" lon="8.87517">
        <ele>1375</ele>
        <time>2021-08-03T10:37:14.722Z</time>
      </trkpt>
      <trkpt lat="47.01105" lon="8.87515">
        <ele>1375</ele>
        <time>2021-08-03T10:37:15.723Z</time>
      </trkpt>
      <trkpt lat="47.01104" lon="8.87513">
        <ele>1375</ele>
        <time>2021-08-03T10:37:16.723Z</time>
      </trkpt>
      <trkpt lat="47.01103" lon="8.87512">
        <ele>1376</ele>
        <time>2021-08-03T10:37:17.723Z</time>
      </trkpt>
      <trkpt lat="47.01103" lon="8.87511">
        <ele>1376</ele>
        <time>2021-08-03T10:37:18.723Z</time>
      </trkpt>
      <trkpt lat="47.01102" lon="8.8751">
        <ele>1376</ele>
        <time>2021-08-03T10:37:19.723Z</time>
      </trkpt>
      <trkpt lat="47.01101" lon="8.87509">
        <ele>1377</ele>
        <time>2021-08-03T10:37:20.722Z</time>
      </trkpt>
      <trkpt lat="47.01101" lon="8.87509">
        <ele>1377</ele>
        <time>2021-08-03T10:37:21.723Z</time>
      </trkpt>
      <trkpt lat="47.011" lon="8.87508">
        <ele>1377</ele>
        <time>2021-08-03T10:37:22.723Z</time>
      </trkpt>
      <trkpt lat="47.01099" lon="8.87507">
        <ele>1378</ele>
        <time>2021-08-03T10:37:23.723Z</time>
      </trkpt>
      <trkpt lat="47.01098" lon="8.87506">
        <ele>1378</ele>
        <time>2021-08-03T10:37:24.723Z</time>
      </trkpt>
      <trkpt lat="47.01097" lon="8.87506">
        <ele>1379</ele>
        <time>2021-08-03T10:37:25.722Z</time>
      </trkpt>
      <trkpt lat="47.01096" lon="8.87506">
        <ele>1379</ele>
        <time>2021-08-03T10:37:26.723Z</time>
      </trkpt>
      <trkpt lat="47.01095" lon="8.87505">
        <ele>1379</ele>
        <time>2021-08-03T10:37:27.723Z</time>
      </trkpt>
      <trkpt lat="47.01094" lon="8.87505">
        <ele>1380</ele>
        <time>2021-08-03T10:37:28.723Z</time>
      </trkpt>
      <trkpt lat="47.01093" lon="8.87504">
        <ele>1380</ele>
        <time>2021-08-03T10:37:29.722Z</time>
      </trkpt>
      <trkpt lat="47.01092" lon="8.87503">
        <ele>1380</ele>
        <time>2021-08-03T10:37:30.723Z</time>
      </trkpt>
      <trkpt lat="47.01091" lon="8.87503">
        <ele>1380</ele>
        <time>2021-08-03T10:37:31.723Z</time>
      </trkpt>
      <trkpt lat="47.01089" lon="8.87502">
        <ele>1380</ele>
        <time>2021-08-03T10:37:32.723Z</time>
      </trkpt>
      <trkpt lat="47.01088" lon="8.87502">
        <ele>1380</ele>
        <time>2021-08-03T10:37:33.723Z</time>
      </trkpt>
      <trkpt lat="47.01087" lon="8.87501">
        <ele>1380</ele>
        <time>2021-08-03T10:37:34.723Z</time>
      </trkpt>
      <trkpt lat="47.01086" lon="8.87501">
        <ele>1380</ele>
        <time>2021-08-03T10:37:35.723Z</time>
      </trkpt>
      <trkpt lat="47.01085" lon="8.87501">
        <ele>1381</ele>
        <time>2021-08-03T10:37:36.722Z</time>
      </trkpt>
      <trkpt lat="47.01084" lon="8.875">
        <ele>1381</ele>
        <time>2021-08-03T10:37:37.723Z</time>
      </trkpt>
      <trkpt lat="47.01083" lon="8.87499">
        <ele>1381</ele>
        <time>2021-08-03T10:37:38.723Z</time>
      </trkpt>
      <trkpt lat="47.01082" lon="8.87499">
        <ele>1381</ele>
        <time>2021-08-03T10:37:39.723Z</time>
      </trkpt>
      <trkpt lat="47.01081" lon="8.87499">
        <ele>1381</ele>
        <time>2021-08-03T10:37:40.722Z</time>
      </trkpt>
      <trkpt lat="47.0108" lon="8.87499">
        <ele>1381</ele>
        <time>2021-08-03T10:37:41.723Z</time>
      </trkpt>
      <trkpt lat="47.01079" lon="8.87499">
        <ele>1380</ele>
        <time>2021-08-03T10:37:42.723Z</time>
      </trkpt>
      <trkpt lat="47.01077" lon="8.87499">
        <ele>1380</ele>
        <time>2021-08-03T10:37:43.723Z</time>
      </trkpt>
      <trkpt lat="47.01076" lon="8.87499">
        <ele>1380</ele>
        <time>2021-08-03T10:37:44.722Z</time>
      </trkpt>
      <trkpt lat="47.01075" lon="8.87499">
        <ele>1380</ele>
        <time>2021-08-03T10:37:45.723Z</time>
      </trkpt>
      <trkpt lat="47.01074" lon="8.87499">
        <ele>1380</ele>
        <time>2021-08-03T10:37:46.723Z</time>
      </trkpt>
      <trkpt lat="47.01073" lon="8.87498">
        <ele>1380</ele>
        <time>2021-08-03T10:37:47.722Z</time>
      </trkpt>
      <trkpt lat="47.01072" lon="8.87499">
        <ele>1381</ele>
        <time>2021-08-03T10:37:48.722Z</time>
      </trkpt>
      <trkpt lat="47.0107" lon="8.87499">
        <ele>1381</ele>
        <time>2021-08-03T10:37:49.722Z</time>
      </trkpt>
      <trkpt lat="47.0107" lon="8.87499">
        <ele>1382</ele>
        <time>2021-08-03T10:37:50.722Z</time>
      </trkpt>
      <trkpt lat="47.01069" lon="8.87498">
        <ele>1382</ele>
        <time>2021-08-03T10:37:51.723Z</time>
      </trkpt>
      <trkpt lat="47.01068" lon="8.87498">
        <ele>1383</ele>
        <time>2021-08-03T10:37:52.722Z</time>
      </trkpt>
      <trkpt lat="47.01067" lon="8.87497">
        <ele>1383</ele>
        <time>2021-08-03T10:37:53.723Z</time>
      </trkpt>
      <trkpt lat="47.01066" lon="8.87496">
        <ele>1383</ele>
        <time>2021-08-03T10:37:54.722Z</time>
      </trkpt>
      <trkpt lat="47.01065" lon="8.87496">
        <ele>1383</ele>
        <time>2021-08-03T10:37:55.722Z</time>
      </trkpt>
      <trkpt lat="47.01064" lon="8.87495">
        <ele>1383</ele>
        <time>2021-08-03T10:37:56.722Z</time>
      </trkpt>
      <trkpt lat="47.01063" lon="8.87494">
        <ele>1383</ele>
        <time>2021-08-03T10:37:57.723Z</time>
      </trkpt>
      <trkpt lat="47.01062" lon="8.87493">
        <ele>1383</ele>
        <time>2021-08-03T10:37:58.723Z</time>
      </trkpt>
      <trkpt lat="47.01061" lon="8.87492">
        <ele>1383</ele>
        <time>2021-08-03T10:37:59.722Z</time>
      </trkpt>
      <trkpt lat="47.0106" lon="8.87491">
        <ele>1382</ele>
        <time>2021-08-03T10:38:00.723Z</time>
      </trkpt>
      <trkpt lat="47.01059" lon="8.8749">
        <ele>1382</ele>
        <time>2021-08-03T10:38:01.723Z</time>
      </trkpt>
      <trkpt lat="47.01059" lon="8.87489">
        <ele>1382</ele>
        <time>2021-08-03T10:38:02.722Z</time>
      </trkpt>
      <trkpt lat="47.01058" lon="8.87488">
        <ele>1382</ele>
        <time>2021-08-03T10:38:03.723Z</time>
      </trkpt>
      <trkpt lat="47.01057" lon="8.87487">
        <ele>1381</ele>
        <time>2021-08-03T10:38:04.723Z</time>
      </trkpt>
      <trkpt lat="47.01057" lon="8.87485">
        <ele>1381</ele>
        <time>2021-08-03T10:38:05.723Z</time>
      </trkpt>
      <trkpt lat="47.01056" lon="8.87484">
        <ele>1381</ele>
        <time>2021-08-03T10:38:06.723Z</time>
      </trkpt>
      <trkpt lat="47.01055" lon="8.87483">
        <ele>1381</ele>
        <time>2021-08-03T10:38:07.723Z</time>
      </trkpt>
      <trkpt lat="47.01054" lon="8.87481">
        <ele>1381</ele>
        <time>2021-08-03T10:38:08.722Z</time>
      </trkpt>
      <trkpt lat="47.01053" lon="8.8748">
        <ele>1381</ele>
        <time>2021-08-03T10:38:09.722Z</time>
      </trkpt>
      <trkpt lat="47.01052" lon="8.87478">
        <ele>1381</ele>
        <time>2021-08-03T10:38:10.723Z</time>
      </trkpt>
      <trkpt lat="47.01051" lon="8.87475">
        <ele>1381</ele>
        <time>2021-08-03T10:38:11.723Z</time>
      </trkpt>
      <trkpt lat="47.01051" lon="8.87474">
        <ele>1381</ele>
        <time>2021-08-03T10:38:12.722Z</time>
      </trkpt>
      <trkpt lat="47.0105" lon="8.87473">
        <ele>1381</ele>
        <time>2021-08-03T10:38:13.723Z</time>
      </trkpt>
      <trkpt lat="47.01049" lon="8.87472">
        <ele>1381</ele>
        <time>2021-08-03T10:38:14.723Z</time>
      </trkpt>
      <trkpt lat="47.01049" lon="8.8747">
        <ele>1381</ele>
        <time>2021-08-03T10:38:15.722Z</time>
      </trkpt>
      <trkpt lat="47.01048" lon="8.87469">
        <ele>1382</ele>
        <time>2021-08-03T10:38:16.723Z</time>
      </trkpt>
      <trkpt lat="47.01048" lon="8.87467">
        <ele>1382</ele>
        <time>2021-08-03T10:38:17.723Z</time>
      </trkpt>
      <trkpt lat="47.01047" lon="8.87466">
        <ele>1382</ele>
        <time>2021-08-03T10:38:18.723Z</time>
      </trkpt>
      <trkpt lat="47.01047" lon="8.87464">
        <ele>1382</ele>
        <time>2021-08-03T10:38:19.723Z</time>
      </trkpt>
      <trkpt lat="47.01047" lon="8.87463">
        <ele>1382</ele>
        <time>2021-08-03T10:38:20.723Z</time>
      </trkpt>
      <trkpt lat="47.01046" lon="8.87461">
        <ele>1381</ele>
        <time>2021-08-03T10:38:21.723Z</time>
      </trkpt>
      <trkpt lat="47.01046" lon="8.87459">
        <ele>1381</ele>
        <time>2021-08-03T10:38:22.723Z</time>
      </trkpt>
      <trkpt lat="47.01046" lon="8.87457">
        <ele>1380</ele>
        <time>2021-08-03T10:38:23.723Z</time>
      </trkpt>
      <trkpt lat="47.01045" lon="8.87456">
        <ele>1381</ele>
        <time>2021-08-03T10:38:24.723Z</time>
      </trkpt>
      <trkpt lat="47.01044" lon="8.87454">
        <ele>1380</ele>
        <time>2021-08-03T10:38:25.723Z</time>
      </trkpt>
      <trkpt lat="47.01044" lon="8.87453">
        <ele>1380</ele>
        <time>2021-08-03T10:38:26.723Z</time>
      </trkpt>
      <trkpt lat="47.01043" lon="8.87451">
        <ele>1380</ele>
        <time>2021-08-03T10:38:27.722Z</time>
      </trkpt>
      <trkpt lat="47.01043" lon="8.87449">
        <ele>1380</ele>
        <time>2021-08-03T10:38:28.723Z</time>
      </trkpt>
      <trkpt lat="47.01042" lon="8.87447">
        <ele>1380</ele>
        <time>2021-08-03T10:38:29.722Z</time>
      </trkpt>
      <trkpt lat="47.01041" lon="8.87446">
        <ele>1380</ele>
        <time>2021-08-03T10:38:30.723Z</time>
      </trkpt>
      <trkpt lat="47.0104" lon="8.87445">
        <ele>1379</ele>
        <time>2021-08-03T10:38:31.723Z</time>
      </trkpt>
      <trkpt lat="47.0104" lon="8.87443">
        <ele>1379</ele>
        <time>2021-08-03T10:38:32.722Z</time>
      </trkpt>
      <trkpt lat="47.01039" lon="8.87442">
        <ele>1379</ele>
        <time>2021-08-03T10:38:33.723Z</time>
      </trkpt>
      <trkpt lat="47.01038" lon="8.87441">
        <ele>1379</ele>
        <time>2021-08-03T10:38:34.723Z</time>
      </trkpt>
      <trkpt lat="47.01038" lon="8.8744">
        <ele>1379</ele>
        <time>2021-08-03T10:38:35.722Z</time>
      </trkpt>
      <trkpt lat="47.01038" lon="8.87439">
        <ele>1379</ele>
        <time>2021-08-03T10:38:36.723Z</time>
      </trkpt>
      <trkpt lat="47.01037" lon="8.87438">
        <ele>1378</ele>
        <time>2021-08-03T10:38:37.723Z</time>
      </trkpt>
      <trkpt lat="47.01037" lon="8.87436">
        <ele>1378</ele>
        <time>2021-08-03T10:38:38.723Z</time>
      </trkpt>
      <trkpt lat="47.01038" lon="8.87435">
        <ele>1377</ele>
        <time>2021-08-03T10:38:39.723Z</time>
      </trkpt>
      <trkpt lat="47.01038" lon="8.87434">
        <ele>1377</ele>
        <time>2021-08-03T10:38:40.723Z</time>
      </trkpt>
      <trkpt lat="47.01038" lon="8.87434">
        <ele>1377</ele>
        <time>2021-08-03T10:38:41.723Z</time>
      </trkpt>
      <trkpt lat="47.01038" lon="8.87435">
        <ele>1378</ele>
        <time>2021-08-03T10:38:42.723Z</time>
      </trkpt>
      <trkpt lat="47.01038" lon="8.87436">
        <ele>1378</ele>
        <time>2021-08-03T10:38:43.722Z</time>
      </trkpt>
      <trkpt lat="47.01037" lon="8.87436">
        <ele>1378</ele>
        <time>2021-08-03T10:38:44.723Z</time>
      </trkpt>
      <trkpt lat="47.01037" lon="8.87435">
        <ele>1378</ele>
        <time>2021-08-03T10:38:58.824Z</time>
      </trkpt>
      <trkpt lat="47.01037" lon="8.87433">
        <ele>1379</ele>
        <time>2021-08-03T10:38:59.825Z</time>
      </trkpt>
      <trkpt lat="47.01037" lon="8.87433">
        <ele>1379</ele>
        <time>2021-08-03T10:39:00.824Z</time>
      </trkpt>
      <trkpt lat="47.01038" lon="8.87432">
        <ele>1378</ele>
        <time>2021-08-03T10:39:01.825Z</time>
      </trkpt>
      <trkpt lat="47.01038" lon="8.87431">
        <ele>1378</ele>
        <time>2021-08-03T10:39:02.824Z</time>
      </trkpt>
      <trkpt lat="47.01039" lon="8.87429">
        <ele>1377</ele>
        <time>2021-08-03T10:39:03.824Z</time>
      </trkpt>
      <trkpt lat="47.0104" lon="8.87427">
        <ele>1377</ele>
        <time>2021-08-03T10:39:04.825Z</time>
      </trkpt>
      <trkpt lat="47.0104" lon="8.87426">
        <ele>1376</ele>
        <time>2021-08-03T10:39:05.825Z</time>
      </trkpt>
      <trkpt lat="47.0104" lon="8.87425">
        <ele>1376</ele>
        <time>2021-08-03T10:39:06.824Z</time>
      </trkpt>
      <trkpt lat="47.0104" lon="8.87424">
        <ele>1376</ele>
        <time>2021-08-03T10:39:07.824Z</time>
      </trkpt>
      <trkpt lat="47.0104" lon="8.87423">
        <ele>1376</ele>
        <time>2021-08-03T10:39:08.825Z</time>
      </trkpt>
      <trkpt lat="47.0104" lon="8.87422">
        <ele>1376</ele>
        <time>2021-08-03T10:39:09.825Z</time>
      </trkpt>
      <trkpt lat="47.0104" lon="8.8742">
        <ele>1377</ele>
        <time>2021-08-03T10:39:10.824Z</time>
      </trkpt>
      <trkpt lat="47.01039" lon="8.87419">
        <ele>1378</ele>
        <time>2021-08-03T10:39:11.825Z</time>
      </trkpt>
      <trkpt lat="47.01039" lon="8.87418">
        <ele>1379</ele>
        <time>2021-08-03T10:39:12.825Z</time>
      </trkpt>
      <trkpt lat="47.01039" lon="8.87417">
        <ele>1379</ele>
        <time>2021-08-03T10:39:13.824Z</time>
      </trkpt>
      <trkpt lat="47.01039" lon="8.87416">
        <ele>1380</ele>
        <time>2021-08-03T10:39:14.825Z</time>
      </trkpt>
      <trkpt lat="47.01039" lon="8.87415">
        <ele>1380</ele>
        <time>2021-08-03T10:39:15.824Z</time>
      </trkpt>
      <trkpt lat="47.01039" lon="8.87414">
        <ele>1380</ele>
        <time>2021-08-03T10:39:16.825Z</time>
      </trkpt>
      <trkpt lat="47.01038" lon="8.87413">
        <ele>1380</ele>
        <time>2021-08-03T10:39:17.824Z</time>
      </trkpt>
      <trkpt lat="47.01038" lon="8.87413">
        <ele>1380</ele>
        <time>2021-08-03T10:39:18.824Z</time>
      </trkpt>
      <trkpt lat="47.01037" lon="8.87412">
        <ele>1381</ele>
        <time>2021-08-03T10:39:19.824Z</time>
      </trkpt>
      <trkpt lat="47.01036" lon="8.87411">
        <ele>1381</ele>
        <time>2021-08-03T10:39:20.824Z</time>
      </trkpt>
      <trkpt lat="47.01035" lon="8.8741">
        <ele>1381</ele>
        <time>2021-08-03T10:39:21.825Z</time>
      </trkpt>
      <trkpt lat="47.01035" lon="8.87409">
        <ele>1382</ele>
        <time>2021-08-03T10:39:22.825Z</time>
      </trkpt>
      <trkpt lat="47.01034" lon="8.87408">
        <ele>1382</ele>
        <time>2021-08-03T10:39:23.825Z</time>
      </trkpt>
      <trkpt lat="47.01033" lon="8.87407">
        <ele>1383</ele>
        <time>2021-08-03T10:39:24.824Z</time>
      </trkpt>
      <trkpt lat="47.01032" lon="8.87406">
        <ele>1383</ele>
        <time>2021-08-03T10:39:25.825Z</time>
      </trkpt>
      <trkpt lat="47.01032" lon="8.87406">
        <ele>1384</ele>
        <time>2021-08-03T10:39:26.824Z</time>
      </trkpt>
      <trkpt lat="47.01031" lon="8.87406">
        <ele>1384</ele>
        <time>2021-08-03T10:39:27.825Z</time>
      </trkpt>
      <trkpt lat="47.01031" lon="8.87405">
        <ele>1384</ele>
        <time>2021-08-03T10:39:28.824Z</time>
      </trkpt>
      <trkpt lat="47.0103" lon="8.87404">
        <ele>1384</ele>
        <time>2021-08-03T10:39:29.825Z</time>
      </trkpt>
      <trkpt lat="47.0103" lon="8.87404">
        <ele>1384</ele>
        <time>2021-08-03T10:39:30.824Z</time>
      </trkpt>
      <trkpt lat="47.01029" lon="8.87403">
        <ele>1385</ele>
        <time>2021-08-03T10:39:31.825Z</time>
      </trkpt>
      <trkpt lat="47.01029" lon="8.87402">
        <ele>1385</ele>
        <time>2021-08-03T10:39:32.824Z</time>
      </trkpt>
      <trkpt lat="47.01029" lon="8.87401">
        <ele>1385</ele>
        <time>2021-08-03T10:39:33.824Z</time>
      </trkpt>
      <trkpt lat="47.01029" lon="8.87401">
        <ele>1385</ele>
        <time>2021-08-03T10:39:34.825Z</time>
      </trkpt>
      <trkpt lat="47.01029" lon="8.87401">
        <ele>1385</ele>
        <time>2021-08-03T10:39:35.824Z</time>
      </trkpt>
      <trkpt lat="47.0103" lon="8.874">
        <ele>1385</ele>
        <time>2021-08-03T10:39:36.825Z</time>
      </trkpt>
      <trkpt lat="47.0103" lon="8.87401">
        <ele>1386</ele>
        <time>2021-08-03T10:39:37.824Z</time>
      </trkpt>
      <trkpt lat="47.0103" lon="8.87401">
        <ele>1386</ele>
        <time>2021-08-03T10:39:38.824Z</time>
      </trkpt>
      <trkpt lat="47.01031" lon="8.874">
        <ele>1386</ele>
        <time>2021-08-03T10:39:39.825Z</time>
      </trkpt>
      <trkpt lat="47.01031" lon="8.874">
        <ele>1387</ele>
        <time>2021-08-03T10:39:40.824Z</time>
      </trkpt>
      <trkpt lat="47.01031" lon="8.87399">
        <ele>1388</ele>
        <time>2021-08-03T10:39:41.824Z</time>
      </trkpt>
      <trkpt lat="47.0103" lon="8.87403">
        <ele>1401</ele>
        <time>2021-08-03T10:39:42.824Z</time>
      </trkpt>
      <trkpt lat="47.0103" lon="8.87403">
        <ele>1402</ele>
        <time>2021-08-03T10:39:43.824Z</time>
      </trkpt>
      <trkpt lat="47.01032" lon="8.87403">
        <ele>1403</ele>
        <time>2021-08-03T10:39:44.824Z</time>
      </trkpt>
      <trkpt lat="47.01034" lon="8.87404">
        <ele>1405</ele>
        <time>2021-08-03T10:39:45.825Z</time>
      </trkpt>
      <trkpt lat="47.01036" lon="8.87407">
        <ele>1414</ele>
        <time>2021-08-03T10:39:46.827Z</time>
      </trkpt>
      <trkpt lat="47.01035" lon="8.87407">
        <ele>1415</ele>
        <time>2021-08-03T10:39:47.827Z</time>
      </trkpt>
      <trkpt lat="47.01035" lon="8.87408">
        <ele>1416</ele>
        <time>2021-08-03T10:39:48.826Z</time>
      </trkpt>
      <trkpt lat="47.01035" lon="8.87408">
        <ele>1417</ele>
        <time>2021-08-03T10:39:49.826Z</time>
      </trkpt>
      <trkpt lat="47.01034" lon="8.87406">
        <ele>1410</ele>
        <time>2021-08-03T10:39:50.827Z</time>
      </trkpt>
      <trkpt lat="47.01034" lon="8.87405">
        <ele>1409</ele>
        <time>2021-08-03T10:39:51.826Z</time>
      </trkpt>
      <trkpt lat="47.01034" lon="8.87405">
        <ele>1408</ele>
        <time>2021-08-03T10:39:52.826Z</time>
      </trkpt>
      <trkpt lat="47.01034" lon="8.87406">
        <ele>1406</ele>
        <time>2021-08-03T10:39:53.826Z</time>
      </trkpt>
      <trkpt lat="47.01034" lon="8.87406">
        <ele>1405</ele>
        <time>2021-08-03T10:39:54.827Z</time>
      </trkpt>
      <trkpt lat="47.01033" lon="8.87407">
        <ele>1405</ele>
        <time>2021-08-03T10:39:55.826Z</time>
      </trkpt>
      <trkpt lat="47.01033" lon="8.87407">
        <ele>1404</ele>
        <time>2021-08-03T10:39:56.826Z</time>
      </trkpt>
      <trkpt lat="47.01033" lon="8.87407">
        <ele>1404</ele>
        <time>2021-08-03T10:39:57.827Z</time>
      </trkpt>
      <trkpt lat="47.0103" lon="8.8741">
        <ele>1401</ele>
        <time>2021-08-03T10:39:58.828Z</time>
      </trkpt>
      <trkpt lat="47.0103" lon="8.8741">
        <ele>1401</ele>
        <time>2021-08-03T10:39:59.828Z</time>
      </trkpt>
      <trkpt lat="47.01029" lon="8.87409">
        <ele>1406</ele>
        <time>2021-08-03T10:40:00.828Z</time>
      </trkpt>
      <trkpt lat="47.01029" lon="8.87409">
        <ele>1406</ele>
        <time>2021-08-03T10:40:01.828Z</time>
      </trkpt>
      <trkpt lat="47.0103" lon="8.87409">
        <ele>1407</ele>
        <time>2021-08-03T10:40:02.827Z</time>
      </trkpt>
      <trkpt lat="47.0103" lon="8.8741">
        <ele>1408</ele>
        <time>2021-08-03T10:40:03.828Z</time>
      </trkpt>
      <trkpt lat="47.0103" lon="8.87411">
        <ele>1408</ele>
        <time>2021-08-03T10:40:04.828Z</time>
      </trkpt>
      <trkpt lat="47.0103" lon="8.87411">
        <ele>1409</ele>
        <time>2021-08-03T10:40:05.828Z</time>
      </trkpt>
      <trkpt lat="47.0103" lon="8.87412">
        <ele>1409</ele>
        <time>2021-08-03T10:40:06.827Z</time>
      </trkpt>
      <trkpt lat="47.01028" lon="8.87411">
        <ele>1401</ele>
        <time>2021-08-03T10:40:07.828Z</time>
      </trkpt>
      <trkpt lat="47.01028" lon="8.87411">
        <ele>1400</ele>
        <time>2021-08-03T10:40:08.828Z</time>
      </trkpt>
      <trkpt lat="47.01027" lon="8.87406">
        <ele>1393</ele>
        <time>2021-08-03T10:40:09.828Z</time>
      </trkpt>
      <trkpt lat="47.01027" lon="8.87407">
        <ele>1393</ele>
        <time>2021-08-03T10:40:10.828Z</time>
      </trkpt>
      <trkpt lat="47.01026" lon="8.87408">
        <ele>1392</ele>
        <time>2021-08-03T10:40:11.828Z</time>
      </trkpt>
      <trkpt lat="47.01026" lon="8.87403">
        <ele>1402</ele>
        <time>2021-08-03T10:40:12.830Z</time>
      </trkpt>
      <trkpt lat="47.01026" lon="8.87402">
        <ele>1402</ele>
        <time>2021-08-03T10:40:13.830Z</time>
      </trkpt>
      <trkpt lat="47.01026" lon="8.87403">
        <ele>1402</ele>
        <time>2021-08-03T10:40:14.829Z</time>
      </trkpt>
      <trkpt lat="47.01026" lon="8.87403">
        <ele>1402</ele>
        <time>2021-08-03T10:40:15.830Z</time>
      </trkpt>
      <trkpt lat="47.01026" lon="8.87402">
        <ele>1402</ele>
        <time>2021-08-03T10:40:16.830Z</time>
      </trkpt>
      <trkpt lat="47.01027" lon="8.87402">
        <ele>1401</ele>
        <time>2021-08-03T10:40:17.830Z</time>
      </trkpt>
      <trkpt lat="47.01027" lon="8.87402">
        <ele>1400</ele>
        <time>2021-08-03T10:40:18.830Z</time>
      </trkpt>
      <trkpt lat="47.01026" lon="8.87401">
        <ele>1400</ele>
        <time>2021-08-03T10:40:19.830Z</time>
      </trkpt>
      <trkpt lat="47.01026" lon="8.874">
        <ele>1399</ele>
        <time>2021-08-03T10:40:20.829Z</time>
      </trkpt>
      <trkpt lat="47.01026" lon="8.874">
        <ele>1398</ele>
        <time>2021-08-03T10:40:21.829Z</time>
      </trkpt>
      <trkpt lat="47.01027" lon="8.874">
        <ele>1398</ele>
        <time>2021-08-03T10:40:22.830Z</time>
      </trkpt>
      <trkpt lat="47.01027" lon="8.874">
        <ele>1397</ele>
        <time>2021-08-03T10:40:23.830Z</time>
      </trkpt>
      <trkpt lat="47.01027" lon="8.874">
        <ele>1397</ele>
        <time>2021-08-03T10:40:24.830Z</time>
      </trkpt>
      <trkpt lat="47.01028" lon="8.87401">
        <ele>1396</ele>
        <time>2021-08-03T10:40:25.830Z</time>
      </trkpt>
      <trkpt lat="47.01028" lon="8.87401">
        <ele>1394</ele>
        <time>2021-08-03T10:40:26.832Z</time>
      </trkpt>
      <trkpt lat="47.0103" lon="8.87401">
        <ele>1393</ele>
        <time>2021-08-03T10:40:27.832Z</time>
      </trkpt>
      <trkpt lat="47.0103" lon="8.87402">
        <ele>1392</ele>
        <time>2021-08-03T10:40:28.831Z</time>
      </trkpt>
      <trkpt lat="47.01029" lon="8.87401">
        <ele>1398</ele>
        <time>2021-08-03T10:40:29.832Z</time>
      </trkpt>
      <trkpt lat="47.01029" lon="8.87402">
        <ele>1399</ele>
        <time>2021-08-03T10:40:30.831Z</time>
      </trkpt>
      <trkpt lat="47.01028" lon="8.874">
        <ele>1398</ele>
        <time>2021-08-03T10:40:31.831Z</time>
      </trkpt>
      <trkpt lat="47.01028" lon="8.87402">
        <ele>1401</ele>
        <time>2021-08-03T10:40:32.832Z</time>
      </trkpt>
      <trkpt lat="47.01028" lon="8.87404">
        <ele>1401</ele>
        <time>2021-08-03T10:40:33.831Z</time>
      </trkpt>
      <trkpt lat="47.01029" lon="8.87405">
        <ele>1402</ele>
        <time>2021-08-03T10:40:34.831Z</time>
      </trkpt>
      <trkpt lat="47.01029" lon="8.87406">
        <ele>1402</ele>
        <time>2021-08-03T10:40:35.832Z</time>
      </trkpt>
      <trkpt lat="47.01029" lon="8.87415">
        <ele>1405</ele>
        <time>2021-08-03T10:40:36.832Z</time>
      </trkpt>
      <trkpt lat="47.01029" lon="8.87417">
        <ele>1405</ele>
        <time>2021-08-03T10:40:54.834Z</time>
      </trkpt>
      <trkpt lat="47.01028" lon="8.87417">
        <ele>1406</ele>
        <time>2021-08-03T10:41:01.734Z</time>
      </trkpt>
      <trkpt lat="47.01028" lon="8.87418">
        <ele>1411</ele>
        <time>2021-08-03T10:41:02.735Z</time>
      </trkpt>
      <trkpt lat="47.01028" lon="8.87418">
        <ele>1411</ele>
        <time>2021-08-03T10:41:03.735Z</time>
      </trkpt>
      <trkpt lat="47.01028" lon="8.87418">
        <ele>1411</ele>
        <time>2021-08-03T10:41:07.863Z</time>
      </trkpt>
      <trkpt lat="47.01028" lon="8.87414">
        <ele>1412</ele>
        <time>2021-08-03T10:41:08.862Z</time>
      </trkpt>
      <trkpt lat="47.01028" lon="8.87415">
        <ele>1412</ele>
        <time>2021-08-03T10:41:09.863Z</time>
      </trkpt>
      <trkpt lat="47.01027" lon="8.87416">
        <ele>1413</ele>
        <time>2021-08-03T10:41:10.863Z</time>
      </trkpt>
      <trkpt lat="47.01027" lon="8.87415">
        <ele>1413</ele>
        <time>2021-08-03T10:41:11.863Z</time>
      </trkpt>
      <trkpt lat="47.01027" lon="8.87414">
        <ele>1411</ele>
        <time>2021-08-03T10:41:12.862Z</time>
      </trkpt>
      <trkpt lat="47.01027" lon="8.87413">
        <ele>1410</ele>
        <time>2021-08-03T10:41:13.862Z</time>
      </trkpt>
      <trkpt lat="47.01028" lon="8.87412">
        <ele>1404</ele>
        <time>2021-08-03T10:41:14.862Z</time>
      </trkpt>
      <trkpt lat="47.01028" lon="8.87413">
        <ele>1403</ele>
        <time>2021-08-03T10:41:15.862Z</time>
      </trkpt>
      <trkpt lat="47.01028" lon="8.87413">
        <ele>1403</ele>
        <time>2021-08-03T10:41:16.863Z</time>
      </trkpt>
      <trkpt lat="47.01028" lon="8.87414">
        <ele>1403</ele>
        <time>2021-08-03T10:41:17.863Z</time>
      </trkpt>
      <trkpt lat="47.01028" lon="8.87414">
        <ele>1402</ele>
        <time>2021-08-03T10:41:18.863Z</time>
      </trkpt>
      <trkpt lat="47.01027" lon="8.87415">
        <ele>1402</ele>
        <time>2021-08-03T10:41:19.862Z</time>
      </trkpt>
      <trkpt lat="47.01027" lon="8.87416">
        <ele>1402</ele>
        <time>2021-08-03T10:41:20.862Z</time>
      </trkpt>
      <trkpt lat="47.01026" lon="8.87417">
        <ele>1402</ele>
        <time>2021-08-03T10:41:21.863Z</time>
      </trkpt>
      <trkpt lat="47.01025" lon="8.87418">
        <ele>1404</ele>
        <time>2021-08-03T10:41:22.864Z</time>
      </trkpt>
      <trkpt lat="47.01026" lon="8.87417">
        <ele>1403</ele>
        <time>2021-08-03T10:41:23.864Z</time>
      </trkpt>
      <trkpt lat="47.01026" lon="8.87417">
        <ele>1403</ele>
        <time>2021-08-03T10:41:24.863Z</time>
      </trkpt>
      <trkpt lat="47.01026" lon="8.8741">
        <ele>1397</ele>
        <time>2021-08-03T10:41:25.864Z</time>
      </trkpt>
      <trkpt lat="47.01025" lon="8.87409">
        <ele>1397</ele>
        <time>2021-08-03T10:41:26.863Z</time>
      </trkpt>
      <trkpt lat="47.01025" lon="8.87406">
        <ele>1398</ele>
        <time>2021-08-03T10:41:27.864Z</time>
      </trkpt>
      <trkpt lat="47.01027" lon="8.87407">
        <ele>1398</ele>
        <time>2021-08-03T10:41:28.864Z</time>
      </trkpt>
      <trkpt lat="47.01026" lon="8.87404">
        <ele>1407</ele>
        <time>2021-08-03T10:41:29.864Z</time>
      </trkpt>
      <trkpt lat="47.01022" lon="8.87405">
        <ele>1400</ele>
        <time>2021-08-03T10:41:30.864Z</time>
      </trkpt>
      <trkpt lat="47.01022" lon="8.87405">
        <ele>1399</ele>
        <time>2021-08-03T10:41:31.864Z</time>
      </trkpt>
      <trkpt lat="47.01023" lon="8.87404">
        <ele>1399</ele>
        <time>2021-08-03T10:41:32.863Z</time>
      </trkpt>
      <trkpt lat="47.01024" lon="8.87404">
        <ele>1399</ele>
        <time>2021-08-03T10:41:33.863Z</time>
      </trkpt>
      <trkpt lat="47.01024" lon="8.87404">
        <ele>1400</ele>
        <time>2021-08-03T10:41:34.864Z</time>
      </trkpt>
      <trkpt lat="47.01025" lon="8.87404">
        <ele>1400</ele>
        <time>2021-08-03T10:41:35.863Z</time>
      </trkpt>
      <trkpt lat="47.01025" lon="8.87403">
        <ele>1400</ele>
        <time>2021-08-03T10:41:36.863Z</time>
      </trkpt>
      <trkpt lat="47.01024" lon="8.87403">
        <ele>1402</ele>
        <time>2021-08-03T10:41:37.865Z</time>
      </trkpt>
      <trkpt lat="47.01025" lon="8.87403">
        <ele>1402</ele>
        <time>2021-08-03T10:41:38.865Z</time>
      </trkpt>
      <trkpt lat="47.01025" lon="8.87402">
        <ele>1402</ele>
        <time>2021-08-03T10:41:39.865Z</time>
      </trkpt>
      <trkpt lat="47.01027" lon="8.87406">
        <ele>1401</ele>
        <time>2021-08-03T10:41:40.866Z</time>
      </trkpt>
      <trkpt lat="47.01026" lon="8.87407">
        <ele>1401</ele>
        <time>2021-08-03T10:41:41.866Z</time>
      </trkpt>
      <trkpt lat="47.01026" lon="8.87406">
        <ele>1402</ele>
        <time>2021-08-03T10:41:42.866Z</time>
      </trkpt>
      <trkpt lat="47.01025" lon="8.87406">
        <ele>1402</ele>
        <time>2021-08-03T10:41:43.866Z</time>
      </trkpt>
      <trkpt lat="47.01024" lon="8.87409">
        <ele>1411</ele>
        <time>2021-08-03T10:41:44.866Z</time>
      </trkpt>
      <trkpt lat="47.01024" lon="8.87409">
        <ele>1414</ele>
        <time>2021-08-03T10:41:45.866Z</time>
      </trkpt>
      <trkpt lat="47.01024" lon="8.8741">
        <ele>1416</ele>
        <time>2021-08-03T10:41:46.867Z</time>
      </trkpt>
      <trkpt lat="47.01024" lon="8.8741">
        <ele>1415</ele>
        <time>2021-08-03T10:41:47.867Z</time>
      </trkpt>
      <trkpt lat="47.01024" lon="8.87411">
        <ele>1415</ele>
        <time>2021-08-03T10:41:48.866Z</time>
      </trkpt>
      <trkpt lat="47.01024" lon="8.87411">
        <ele>1414</ele>
        <time>2021-08-03T10:41:49.867Z</time>
      </trkpt>
      <trkpt lat="47.01023" lon="8.87412">
        <ele>1414</ele>
        <time>2021-08-03T10:41:50.866Z</time>
      </trkpt>
      <trkpt lat="47.01022" lon="8.87413">
        <ele>1413</ele>
        <time>2021-08-03T10:41:51.867Z</time>
      </trkpt>
      <trkpt lat="47.01022" lon="8.87413">
        <ele>1412</ele>
        <time>2021-08-03T10:41:52.867Z</time>
      </trkpt>
      <trkpt lat="47.01023" lon="8.87412">
        <ele>1412</ele>
        <time>2021-08-03T10:41:53.866Z</time>
      </trkpt>
      <trkpt lat="47.01023" lon="8.87411">
        <ele>1411</ele>
        <time>2021-08-03T10:41:54.866Z</time>
      </trkpt>
      <trkpt lat="47.01023" lon="8.87409">
        <ele>1410</ele>
        <time>2021-08-03T10:41:55.867Z</time>
      </trkpt>
      <trkpt lat="47.01023" lon="8.87408">
        <ele>1410</ele>
        <time>2021-08-03T10:41:56.866Z</time>
      </trkpt>
      <trkpt lat="47.01024" lon="8.87408">
        <ele>1409</ele>
        <time>2021-08-03T10:41:57.866Z</time>
      </trkpt>
      <trkpt lat="47.01024" lon="8.87404">
        <ele>1395</ele>
        <time>2021-08-03T10:41:58.867Z</time>
      </trkpt>
      <trkpt lat="47.01023" lon="8.87404">
        <ele>1394</ele>
        <time>2021-08-03T10:41:59.866Z</time>
      </trkpt>
      <trkpt lat="47.01027" lon="8.87408">
        <ele>1407</ele>
        <time>2021-08-03T10:42:00.866Z</time>
      </trkpt>
      <trkpt lat="47.01026" lon="8.87408">
        <ele>1407</ele>
        <time>2021-08-03T10:42:01.866Z</time>
      </trkpt>
      <trkpt lat="47.01025" lon="8.87409">
        <ele>1406</ele>
        <time>2021-08-03T10:42:02.867Z</time>
      </trkpt>
      <trkpt lat="47.01025" lon="8.87409">
        <ele>1406</ele>
        <time>2021-08-03T10:42:03.867Z</time>
      </trkpt>
      <trkpt lat="47.01026" lon="8.87409">
        <ele>1406</ele>
        <time>2021-08-03T10:42:04.867Z</time>
      </trkpt>
      <trkpt lat="47.01026" lon="8.87402">
        <ele>1393</ele>
        <time>2021-08-03T10:42:05.868Z</time>
      </trkpt>
      <trkpt lat="47.01025" lon="8.87403">
        <ele>1393</ele>
        <time>2021-08-03T10:42:06.867Z</time>
      </trkpt>
      <trkpt lat="47.01026" lon="8.87404">
        <ele>1393</ele>
        <time>2021-08-03T10:42:07.868Z</time>
      </trkpt>
      <trkpt lat="47.01026" lon="8.87403">
        <ele>1393</ele>
        <time>2021-08-03T10:42:08.867Z</time>
      </trkpt>
      <trkpt lat="47.01029" lon="8.87398">
        <ele>1400</ele>
        <time>2021-08-03T10:42:09.868Z</time>
      </trkpt>
      <trkpt lat="47.01029" lon="8.87397">
        <ele>1397</ele>
        <time>2021-08-03T10:42:10.867Z</time>
      </trkpt>
      <trkpt lat="47.0103" lon="8.87398">
        <ele>1397</ele>
        <time>2021-08-03T10:42:11.867Z</time>
      </trkpt>
      <trkpt lat="47.01031" lon="8.874">
        <ele>1392</ele>
        <time>2021-08-03T10:42:12.867Z</time>
      </trkpt>
      <trkpt lat="47.01031" lon="8.874">
        <ele>1392</ele>
        <time>2021-08-03T10:42:13.868Z</time>
      </trkpt>
      <trkpt lat="47.0103" lon="8.874">
        <ele>1392</ele>
        <time>2021-08-03T10:42:14.868Z</time>
      </trkpt>
      <trkpt lat="47.01031" lon="8.87401">
        <ele>1392</ele>
        <time>2021-08-03T10:42:15.868Z</time>
      </trkpt>
      <trkpt lat="47.01031" lon="8.87402">
        <ele>1393</ele>
        <time>2021-08-03T10:42:16.868Z</time>
      </trkpt>
      <trkpt lat="47.01029" lon="8.87402">
        <ele>1394</ele>
        <time>2021-08-03T10:42:17.869Z</time>
      </trkpt>
      <trkpt lat="47.01029" lon="8.874">
        <ele>1398</ele>
        <time>2021-08-03T10:42:18.870Z</time>
      </trkpt>
      <trkpt lat="47.01028" lon="8.87398">
        <ele>1396</ele>
        <time>2021-08-03T10:42:19.871Z</time>
      </trkpt>
      <trkpt lat="47.01028" lon="8.87398">
        <ele>1396</ele>
        <time>2021-08-03T10:42:20.870Z</time>
      </trkpt>
      <trkpt lat="47.01028" lon="8.87397">
        <ele>1397</ele>
        <time>2021-08-03T10:42:21.870Z</time>
      </trkpt>
      <trkpt lat="47.01027" lon="8.87396">
        <ele>1398</ele>
        <time>2021-08-03T10:42:22.871Z</time>
      </trkpt>
      <trkpt lat="47.01027" lon="8.87396">
        <ele>1399</ele>
        <time>2021-08-03T10:42:23.872Z</time>
      </trkpt>
      <trkpt lat="47.01027" lon="8.87397">
        <ele>1400</ele>
        <time>2021-08-03T10:42:24.871Z</time>
      </trkpt>
      <trkpt lat="47.01027" lon="8.87397">
        <ele>1400</ele>
        <time>2021-08-03T10:42:25.871Z</time>
      </trkpt>
      <trkpt lat="47.01027" lon="8.87397">
        <ele>1401</ele>
        <time>2021-08-03T10:42:26.871Z</time>
      </trkpt>
      <trkpt lat="47.01026" lon="8.87397">
        <ele>1401</ele>
        <time>2021-08-03T10:42:27.872Z</time>
      </trkpt>
      <trkpt lat="47.01027" lon="8.87397">
        <ele>1400</ele>
        <time>2021-08-03T10:42:28.871Z</time>
      </trkpt>
      <trkpt lat="47.01026" lon="8.87397">
        <ele>1400</ele>
        <time>2021-08-03T10:42:29.872Z</time>
      </trkpt>
      <trkpt lat="47.01026" lon="8.87397">
        <ele>1400</ele>
        <time>2021-08-03T10:42:30.871Z</time>
      </trkpt>
      <trkpt lat="47.01026" lon="8.87398">
        <ele>1400</ele>
        <time>2021-08-03T10:42:31.872Z</time>
      </trkpt>
      <trkpt lat="47.01026" lon="8.87398">
        <ele>1400</ele>
        <time>2021-08-03T10:42:32.871Z</time>
      </trkpt>
      <trkpt lat="47.01026" lon="8.87398">
        <ele>1400</ele>
        <time>2021-08-03T10:42:33.872Z</time>
      </trkpt>
      <trkpt lat="47.01028" lon="8.87394">
        <ele>1397</ele>
        <time>2021-08-03T10:42:34.871Z</time>
      </trkpt>
      <trkpt lat="47.01028" lon="8.87395">
        <ele>1396</ele>
        <time>2021-08-03T10:42:35.871Z</time>
      </trkpt>
      <trkpt lat="47.01029" lon="8.87395">
        <ele>1396</ele>
        <time>2021-08-03T10:42:36.872Z</time>
      </trkpt>
      <trkpt lat="47.01029" lon="8.87396">
        <ele>1395</ele>
        <time>2021-08-03T10:42:37.871Z</time>
      </trkpt>
      <trkpt lat="47.0103" lon="8.87396">
        <ele>1395</ele>
        <time>2021-08-03T10:42:38.872Z</time>
      </trkpt>
      <trkpt lat="47.0103" lon="8.87396">
        <ele>1394</ele>
        <time>2021-08-03T10:42:39.871Z</time>
      </trkpt>
      <trkpt lat="47.01031" lon="8.87397">
        <ele>1393</ele>
        <time>2021-08-03T10:42:40.872Z</time>
      </trkpt>
      <trkpt lat="47.01031" lon="8.87397">
        <ele>1393</ele>
        <time>2021-08-03T10:42:41.872Z</time>
      </trkpt>
      <trkpt lat="47.0103" lon="8.87396">
        <ele>1392</ele>
        <time>2021-08-03T10:42:42.872Z</time>
      </trkpt>
      <trkpt lat="47.0103" lon="8.87396">
        <ele>1392</ele>
        <time>2021-08-03T10:42:43.871Z</time>
      </trkpt>
      <trkpt lat="47.01033" lon="8.874">
        <ele>1398</ele>
        <time>2021-08-03T10:42:44.871Z</time>
      </trkpt>
      <trkpt lat="47.01034" lon="8.87401">
        <ele>1400</ele>
        <time>2021-08-03T10:42:45.871Z</time>
      </trkpt>
      <trkpt lat="47.01035" lon="8.87401">
        <ele>1402</ele>
        <time>2021-08-03T10:42:46.871Z</time>
      </trkpt>
      <trkpt lat="47.01034" lon="8.87401">
        <ele>1404</ele>
        <time>2021-08-03T10:42:47.871Z</time>
      </trkpt>
      <trkpt lat="47.01034" lon="8.87401">
        <ele>1406</ele>
        <time>2021-08-03T10:42:48.871Z</time>
      </trkpt>
      <trkpt lat="47.01035" lon="8.87402">
        <ele>1413</ele>
        <time>2021-08-03T10:42:49.872Z</time>
      </trkpt>
      <trkpt lat="47.01035" lon="8.87402">
        <ele>1413</ele>
        <time>2021-08-03T10:42:50.871Z</time>
      </trkpt>
      <trkpt lat="47.01034" lon="8.87402">
        <ele>1413</ele>
        <time>2021-08-03T10:42:51.872Z</time>
      </trkpt>
      <trkpt lat="47.01029" lon="8.87402">
        <ele>1403</ele>
        <time>2021-08-03T10:42:52.871Z</time>
      </trkpt>
      <trkpt lat="47.01027" lon="8.87402">
        <ele>1403</ele>
        <time>2021-08-03T10:43:13.960Z</time>
      </trkpt>
      <trkpt lat="47.01026" lon="8.87401">
        <ele>1403</ele>
        <time>2021-08-03T10:43:14.959Z</time>
      </trkpt>
      <trkpt lat="47.01026" lon="8.87401">
        <ele>1403</ele>
        <time>2021-08-03T10:43:20.838Z</time>
      </trkpt>
      <trkpt lat="47.01025" lon="8.87401">
        <ele>1403</ele>
        <time>2021-08-03T10:43:21.839Z</time>
      </trkpt>
      <trkpt lat="47.01025" lon="8.87401">
        <ele>1402</ele>
        <time>2021-08-03T10:43:22.838Z</time>
      </trkpt>
      <trkpt lat="47.01024" lon="8.87402">
        <ele>1402</ele>
        <time>2021-08-03T10:43:27.989Z</time>
      </trkpt>
      <trkpt lat="47.01024" lon="8.87403">
        <ele>1402</ele>
        <time>2021-08-03T10:43:28.990Z</time>
      </trkpt>
      <trkpt lat="47.01021" lon="8.87401">
        <ele>1400</ele>
        <time>2021-08-03T10:43:29.990Z</time>
      </trkpt>
      <trkpt lat="47.01021" lon="8.874">
        <ele>1399</ele>
        <time>2021-08-03T10:43:30.990Z</time>
      </trkpt>
      <trkpt lat="47.0102" lon="8.874">
        <ele>1397</ele>
        <time>2021-08-03T10:43:43.117Z</time>
      </trkpt>
      <trkpt lat="47.0102" lon="8.87399">
        <ele>1397</ele>
        <time>2021-08-03T10:43:53.969Z</time>
      </trkpt>
      <trkpt lat="47.0102" lon="8.87398">
        <ele>1396</ele>
        <time>2021-08-03T10:43:54.968Z</time>
      </trkpt>
      <trkpt lat="47.0102" lon="8.87398">
        <ele>1395</ele>
        <time>2021-08-03T10:43:55.969Z</time>
      </trkpt>
      <trkpt lat="47.0102" lon="8.87397">
        <ele>1395</ele>
        <time>2021-08-03T10:43:56.969Z</time>
      </trkpt>
      <trkpt lat="47.0102" lon="8.87396">
        <ele>1394</ele>
        <time>2021-08-03T10:43:57.968Z</time>
      </trkpt>
      <trkpt lat="47.0102" lon="8.87396">
        <ele>1394</ele>
        <time>2021-08-03T10:44:02.989Z</time>
      </trkpt>
      <trkpt lat="47.0102" lon="8.87395">
        <ele>1393</ele>
        <time>2021-08-03T10:44:03.989Z</time>
      </trkpt>
      <trkpt lat="47.0102" lon="8.87394">
        <ele>1392</ele>
        <time>2021-08-03T10:44:04.989Z</time>
      </trkpt>
      <trkpt lat="47.0102" lon="8.87393">
        <ele>1392</ele>
        <time>2021-08-03T10:44:05.989Z</time>
      </trkpt>
      <trkpt lat="47.0102" lon="8.87392">
        <ele>1391</ele>
        <time>2021-08-03T10:44:06.989Z</time>
      </trkpt>
      <trkpt lat="47.0102" lon="8.87392">
        <ele>1391</ele>
        <time>2021-08-03T10:44:07.989Z</time>
      </trkpt>
      <trkpt lat="47.01019" lon="8.87391">
        <ele>1391</ele>
        <time>2021-08-03T10:44:08.990Z</time>
      </trkpt>
      <trkpt lat="47.01019" lon="8.87391">
        <ele>1391</ele>
        <time>2021-08-03T10:44:09.989Z</time>
      </trkpt>
      <trkpt lat="47.01018" lon="8.8739">
        <ele>1391</ele>
        <time>2021-08-03T10:44:10.990Z</time>
      </trkpt>
      <trkpt lat="47.01018" lon="8.8739">
        <ele>1390</ele>
        <time>2021-08-03T10:44:11.990Z</time>
      </trkpt>
      <trkpt lat="47.01017" lon="8.8739">
        <ele>1391</ele>
        <time>2021-08-03T10:44:12.990Z</time>
      </trkpt>
      <trkpt lat="47.01017" lon="8.87389">
        <ele>1391</ele>
        <time>2021-08-03T10:44:13.990Z</time>
      </trkpt>
      <trkpt lat="47.01016" lon="8.87389">
        <ele>1390</ele>
        <time>2021-08-03T10:44:14.990Z</time>
      </trkpt>
      <trkpt lat="47.01016" lon="8.87388">
        <ele>1390</ele>
        <time>2021-08-03T10:44:31.130Z</time>
      </trkpt>
      <trkpt lat="47.01016" lon="8.87388">
        <ele>1390</ele>
        <time>2021-08-03T10:44:32.130Z</time>
      </trkpt>
      <trkpt lat="47.01015" lon="8.87387">
        <ele>1391</ele>
        <time>2021-08-03T10:44:33.130Z</time>
      </trkpt>
      <trkpt lat="47.01015" lon="8.87386">
        <ele>1391</ele>
        <time>2021-08-03T10:44:34.130Z</time>
      </trkpt>
      <trkpt lat="47.01014" lon="8.87385">
        <ele>1391</ele>
        <time>2021-08-03T10:44:35.130Z</time>
      </trkpt>
      <trkpt lat="47.01013" lon="8.87384">
        <ele>1391</ele>
        <time>2021-08-03T10:44:36.130Z</time>
      </trkpt>
      <trkpt lat="47.01012" lon="8.87384">
        <ele>1392</ele>
        <time>2021-08-03T10:44:37.129Z</time>
      </trkpt>
      <trkpt lat="47.01011" lon="8.87384">
        <ele>1392</ele>
        <time>2021-08-03T10:44:38.129Z</time>
      </trkpt>
      <trkpt lat="47.01011" lon="8.87384">
        <ele>1392</ele>
        <time>2021-08-03T10:44:39.130Z</time>
      </trkpt>
      <trkpt lat="47.0101" lon="8.87384">
        <ele>1392</ele>
        <time>2021-08-03T10:44:40.129Z</time>
      </trkpt>
      <trkpt lat="47.0101" lon="8.87384">
        <ele>1393</ele>
        <time>2021-08-03T10:44:41.130Z</time>
      </trkpt>
      <trkpt lat="47.01009" lon="8.87383">
        <ele>1393</ele>
        <time>2021-08-03T10:44:42.130Z</time>
      </trkpt>
      <trkpt lat="47.01009" lon="8.87383">
        <ele>1393</ele>
        <time>2021-08-03T10:44:43.130Z</time>
      </trkpt>
      <trkpt lat="47.01009" lon="8.87383">
        <ele>1394</ele>
        <time>2021-08-03T10:44:44.129Z</time>
      </trkpt>
      <trkpt lat="47.01008" lon="8.87382">
        <ele>1394</ele>
        <time>2021-08-03T10:44:45.130Z</time>
      </trkpt>
      <trkpt lat="47.01008" lon="8.87381">
        <ele>1394</ele>
        <time>2021-08-03T10:44:46.130Z</time>
      </trkpt>
      <trkpt lat="47.01007" lon="8.87381">
        <ele>1394</ele>
        <time>2021-08-03T10:44:47.129Z</time>
      </trkpt>
      <trkpt lat="47.01007" lon="8.87381">
        <ele>1394</ele>
        <time>2021-08-03T10:44:48.130Z</time>
      </trkpt>
      <trkpt lat="47.01007" lon="8.87381">
        <ele>1394</ele>
        <time>2021-08-03T10:44:49.129Z</time>
      </trkpt>
      <trkpt lat="47.01006" lon="8.87381">
        <ele>1394</ele>
        <time>2021-08-03T10:44:50.130Z</time>
      </trkpt>
      <trkpt lat="47.01005" lon="8.87381">
        <ele>1394</ele>
        <time>2021-08-03T10:44:51.130Z</time>
      </trkpt>
      <trkpt lat="47.01005" lon="8.87381">
        <ele>1394</ele>
        <time>2021-08-03T10:44:52.130Z</time>
      </trkpt>
      <trkpt lat="47.01005" lon="8.87381">
        <ele>1395</ele>
        <time>2021-08-03T10:44:53.129Z</time>
      </trkpt>
      <trkpt lat="47.01005" lon="8.87381">
        <ele>1395</ele>
        <time>2021-08-03T10:44:54.130Z</time>
      </trkpt>
      <trkpt lat="47.01005" lon="8.87385">
        <ele>1394</ele>
        <time>2021-08-03T10:44:55.131Z</time>
      </trkpt>
      <trkpt lat="47.01005" lon="8.87384">
        <ele>1394</ele>
        <time>2021-08-03T10:44:56.130Z</time>
      </trkpt>
      <trkpt lat="47.01004" lon="8.87383">
        <ele>1395</ele>
        <time>2021-08-03T10:44:57.131Z</time>
      </trkpt>
      <trkpt lat="47.01004" lon="8.87383">
        <ele>1395</ele>
        <time>2021-08-03T10:44:58.131Z</time>
      </trkpt>
      <trkpt lat="47.01003" lon="8.87383">
        <ele>1396</ele>
        <time>2021-08-03T10:44:59.131Z</time>
      </trkpt>
      <trkpt lat="47.01003" lon="8.87382">
        <ele>1396</ele>
        <time>2021-08-03T10:45:00.131Z</time>
      </trkpt>
      <trkpt lat="47.01002" lon="8.87382">
        <ele>1396</ele>
        <time>2021-08-03T10:45:01.130Z</time>
      </trkpt>
      <trkpt lat="47.01002" lon="8.87381">
        <ele>1396</ele>
        <time>2021-08-03T10:45:02.130Z</time>
      </trkpt>
      <trkpt lat="47.01001" lon="8.8738">
        <ele>1397</ele>
        <time>2021-08-03T10:45:03.130Z</time>
      </trkpt>
      <trkpt lat="47.01" lon="8.8738">
        <ele>1397</ele>
        <time>2021-08-03T10:45:04.130Z</time>
      </trkpt>
      <trkpt lat="47.01" lon="8.8738">
        <ele>1398</ele>
        <time>2021-08-03T10:45:05.130Z</time>
      </trkpt>
      <trkpt lat="47.00999" lon="8.87379">
        <ele>1398</ele>
        <time>2021-08-03T10:45:06.130Z</time>
      </trkpt>
      <trkpt lat="47.00999" lon="8.87379">
        <ele>1399</ele>
        <time>2021-08-03T10:45:07.130Z</time>
      </trkpt>
      <trkpt lat="47.00998" lon="8.87378">
        <ele>1399</ele>
        <time>2021-08-03T10:45:08.130Z</time>
      </trkpt>
      <trkpt lat="47.00998" lon="8.87378">
        <ele>1399</ele>
        <time>2021-08-03T10:45:09.130Z</time>
      </trkpt>
      <trkpt lat="47.00997" lon="8.87378">
        <ele>1399</ele>
        <time>2021-08-03T10:45:10.130Z</time>
      </trkpt>
      <trkpt lat="47.00996" lon="8.87378">
        <ele>1399</ele>
        <time>2021-08-03T10:45:11.130Z</time>
      </trkpt>
      <trkpt lat="47.00996" lon="8.87378">
        <ele>1399</ele>
        <time>2021-08-03T10:45:12.131Z</time>
      </trkpt>
      <trkpt lat="47.00996" lon="8.87378">
        <ele>1399</ele>
        <time>2021-08-03T10:45:13.130Z</time>
      </trkpt>
      <trkpt lat="47.00995" lon="8.87376">
        <ele>1398</ele>
        <time>2021-08-03T10:45:14.131Z</time>
      </trkpt>
      <trkpt lat="47.00996" lon="8.87376">
        <ele>1397</ele>
        <time>2021-08-03T10:45:15.130Z</time>
      </trkpt>
      <trkpt lat="47.00997" lon="8.87375">
        <ele>1397</ele>
        <time>2021-08-03T10:45:16.130Z</time>
      </trkpt>
      <trkpt lat="47.00997" lon="8.87375">
        <ele>1396</ele>
        <time>2021-08-03T10:45:17.130Z</time>
      </trkpt>
      <trkpt lat="47.00997" lon="8.87375">
        <ele>1396</ele>
        <time>2021-08-03T10:45:18.131Z</time>
      </trkpt>
      <trkpt lat="47.00997" lon="8.87374">
        <ele>1395</ele>
        <time>2021-08-03T10:45:19.131Z</time>
      </trkpt>
      <trkpt lat="47.00997" lon="8.87372">
        <ele>1395</ele>
        <time>2021-08-03T10:45:20.131Z</time>
      </trkpt>
      <trkpt lat="47.00997" lon="8.87371">
        <ele>1394</ele>
        <time>2021-08-03T10:45:21.131Z</time>
      </trkpt>
      <trkpt lat="47.00997" lon="8.8737">
        <ele>1394</ele>
        <time>2021-08-03T10:45:22.131Z</time>
      </trkpt>
      <trkpt lat="47.00997" lon="8.87369">
        <ele>1394</ele>
        <time>2021-08-03T10:45:23.130Z</time>
      </trkpt>
      <trkpt lat="47.00996" lon="8.87369">
        <ele>1394</ele>
        <time>2021-08-03T10:45:24.131Z</time>
      </trkpt>
      <trkpt lat="47.00995" lon="8.87369">
        <ele>1395</ele>
        <time>2021-08-03T10:45:25.131Z</time>
      </trkpt>
      <trkpt lat="47.00994" lon="8.87369">
        <ele>1396</ele>
        <time>2021-08-03T10:45:26.131Z</time>
      </trkpt>
      <trkpt lat="47.00993" lon="8.87369">
        <ele>1396</ele>
        <time>2021-08-03T10:45:27.131Z</time>
      </trkpt>
      <trkpt lat="47.00992" lon="8.87369">
        <ele>1397</ele>
        <time>2021-08-03T10:45:28.130Z</time>
      </trkpt>
      <trkpt lat="47.00991" lon="8.87368">
        <ele>1398</ele>
        <time>2021-08-03T10:45:29.131Z</time>
      </trkpt>
      <trkpt lat="47.00991" lon="8.87367">
        <ele>1398</ele>
        <time>2021-08-03T10:45:30.130Z</time>
      </trkpt>
      <trkpt lat="47.00991" lon="8.87366">
        <ele>1398</ele>
        <time>2021-08-03T10:45:31.131Z</time>
      </trkpt>
      <trkpt lat="47.00991" lon="8.87366">
        <ele>1397</ele>
        <time>2021-08-03T10:45:32.130Z</time>
      </trkpt>
      <trkpt lat="47.0099" lon="8.87365">
        <ele>1397</ele>
        <time>2021-08-03T10:45:33.131Z</time>
      </trkpt>
      <trkpt lat="47.0099" lon="8.87364">
        <ele>1396</ele>
        <time>2021-08-03T10:45:34.131Z</time>
      </trkpt>
      <trkpt lat="47.0099" lon="8.87363">
        <ele>1396</ele>
        <time>2021-08-03T10:45:35.130Z</time>
      </trkpt>
      <trkpt lat="47.0099" lon="8.87362">
        <ele>1395</ele>
        <time>2021-08-03T10:45:36.130Z</time>
      </trkpt>
      <trkpt lat="47.0099" lon="8.87362">
        <ele>1394</ele>
        <time>2021-08-03T10:45:37.130Z</time>
      </trkpt>
      <trkpt lat="47.00989" lon="8.87361">
        <ele>1394</ele>
        <time>2021-08-03T10:45:38.131Z</time>
      </trkpt>
      <trkpt lat="47.00989" lon="8.8736">
        <ele>1394</ele>
        <time>2021-08-03T10:45:39.131Z</time>
      </trkpt>
      <trkpt lat="47.00988" lon="8.87359">
        <ele>1394</ele>
        <time>2021-08-03T10:45:40.131Z</time>
      </trkpt>
      <trkpt lat="47.00988" lon="8.87358">
        <ele>1394</ele>
        <time>2021-08-03T10:45:41.130Z</time>
      </trkpt>
      <trkpt lat="47.00987" lon="8.87357">
        <ele>1394</ele>
        <time>2021-08-03T10:45:42.131Z</time>
      </trkpt>
      <trkpt lat="47.00986" lon="8.87356">
        <ele>1394</ele>
        <time>2021-08-03T10:45:43.131Z</time>
      </trkpt>
      <trkpt lat="47.00985" lon="8.87356">
        <ele>1395</ele>
        <time>2021-08-03T10:45:44.131Z</time>
      </trkpt>
      <trkpt lat="47.00984" lon="8.87355">
        <ele>1395</ele>
        <time>2021-08-03T10:45:45.130Z</time>
      </trkpt>
      <trkpt lat="47.00984" lon="8.87355">
        <ele>1396</ele>
        <time>2021-08-03T10:45:46.131Z</time>
      </trkpt>
      <trkpt lat="47.00983" lon="8.87355">
        <ele>1397</ele>
        <time>2021-08-03T10:45:47.130Z</time>
      </trkpt>
      <trkpt lat="47.00982" lon="8.87355">
        <ele>1399</ele>
        <time>2021-08-03T10:45:48.130Z</time>
      </trkpt>
      <trkpt lat="47.00981" lon="8.87356">
        <ele>1400</ele>
        <time>2021-08-03T10:45:49.131Z</time>
      </trkpt>
      <trkpt lat="47.00981" lon="8.87356">
        <ele>1402</ele>
        <time>2021-08-03T10:45:50.131Z</time>
      </trkpt>
      <trkpt lat="47.00981" lon="8.87356">
        <ele>1403</ele>
        <time>2021-08-03T10:45:51.131Z</time>
      </trkpt>
      <trkpt lat="47.00981" lon="8.87355">
        <ele>1404</ele>
        <time>2021-08-03T10:45:52.131Z</time>
      </trkpt>
      <trkpt lat="47.00982" lon="8.87355">
        <ele>1405</ele>
        <time>2021-08-03T10:45:53.131Z</time>
      </trkpt>
      <trkpt lat="47.00982" lon="8.87355">
        <ele>1406</ele>
        <time>2021-08-03T10:45:54.131Z</time>
      </trkpt>
      <trkpt lat="47.00981" lon="8.87354">
        <ele>1406</ele>
        <time>2021-08-03T10:45:55.131Z</time>
      </trkpt>
      <trkpt lat="47.00981" lon="8.87353">
        <ele>1406</ele>
        <time>2021-08-03T10:45:56.130Z</time>
      </trkpt>
      <trkpt lat="47.00981" lon="8.87353">
        <ele>1406</ele>
        <time>2021-08-03T10:45:57.131Z</time>
      </trkpt>
      <trkpt lat="47.00981" lon="8.87353">
        <ele>1406</ele>
        <time>2021-08-03T10:45:58.131Z</time>
      </trkpt>
      <trkpt lat="47.00981" lon="8.87353">
        <ele>1406</ele>
        <time>2021-08-03T10:45:59.131Z</time>
      </trkpt>
      <trkpt lat="47.0098" lon="8.8735">
        <ele>1407</ele>
        <time>2021-08-03T10:46:00.132Z</time>
      </trkpt>
      <trkpt lat="47.00981" lon="8.8735">
        <ele>1408</ele>
        <time>2021-08-03T10:46:01.131Z</time>
      </trkpt>
      <trkpt lat="47.00981" lon="8.87349">
        <ele>1408</ele>
        <time>2021-08-03T10:46:02.132Z</time>
      </trkpt>
      <trkpt lat="47.00982" lon="8.87349">
        <ele>1407</ele>
        <time>2021-08-03T10:46:03.132Z</time>
      </trkpt>
      <trkpt lat="47.00982" lon="8.87348">
        <ele>1406</ele>
        <time>2021-08-03T10:46:04.132Z</time>
      </trkpt>
      <trkpt lat="47.00983" lon="8.87347">
        <ele>1405</ele>
        <time>2021-08-03T10:46:05.132Z</time>
      </trkpt>
      <trkpt lat="47.00982" lon="8.87346">
        <ele>1405</ele>
        <time>2021-08-03T10:46:06.132Z</time>
      </trkpt>
      <trkpt lat="47.00982" lon="8.87345">
        <ele>1404</ele>
        <time>2021-08-03T10:46:07.132Z</time>
      </trkpt>
      <trkpt lat="47.00982" lon="8.87345">
        <ele>1404</ele>
        <time>2021-08-03T10:46:08.132Z</time>
      </trkpt>
      <trkpt lat="47.00982" lon="8.87344">
        <ele>1403</ele>
        <time>2021-08-03T10:46:09.132Z</time>
      </trkpt>
      <trkpt lat="47.00981" lon="8.87343">
        <ele>1403</ele>
        <time>2021-08-03T10:46:10.131Z</time>
      </trkpt>
      <trkpt lat="47.0098" lon="8.87342">
        <ele>1403</ele>
        <time>2021-08-03T10:46:11.132Z</time>
      </trkpt>
      <trkpt lat="47.00979" lon="8.87342">
        <ele>1403</ele>
        <time>2021-08-03T10:46:12.132Z</time>
      </trkpt>
      <trkpt lat="47.00978" lon="8.87341">
        <ele>1404</ele>
        <time>2021-08-03T10:46:13.131Z</time>
      </trkpt>
      <trkpt lat="47.00977" lon="8.8734">
        <ele>1404</ele>
        <time>2021-08-03T10:46:14.132Z</time>
      </trkpt>
      <trkpt lat="47.00977" lon="8.8734">
        <ele>1405</ele>
        <time>2021-08-03T10:46:15.132Z</time>
      </trkpt>
      <trkpt lat="47.00977" lon="8.87339">
        <ele>1406</ele>
        <time>2021-08-03T10:46:16.132Z</time>
      </trkpt>
      <trkpt lat="47.00979" lon="8.87338">
        <ele>1410</ele>
        <time>2021-08-03T10:46:17.133Z</time>
      </trkpt>
      <trkpt lat="47.00976" lon="8.87338">
        <ele>1409</ele>
        <time>2021-08-03T10:46:18.133Z</time>
      </trkpt>
      <trkpt lat="47.00975" lon="8.87339">
        <ele>1409</ele>
        <time>2021-08-03T10:46:19.133Z</time>
      </trkpt>
      <trkpt lat="47.00974" lon="8.87338">
        <ele>1410</ele>
        <time>2021-08-03T10:46:21.134Z</time>
      </trkpt>
      <trkpt lat="47.00974" lon="8.87337">
        <ele>1411</ele>
        <time>2021-08-03T10:46:22.135Z</time>
      </trkpt>
      <trkpt lat="47.00974" lon="8.87336">
        <ele>1411</ele>
        <time>2021-08-03T10:46:23.134Z</time>
      </trkpt>
      <trkpt lat="47.00974" lon="8.87335">
        <ele>1412</ele>
        <time>2021-08-03T10:46:24.135Z</time>
      </trkpt>
      <trkpt lat="47.00973" lon="8.87334">
        <ele>1413</ele>
        <time>2021-08-03T10:46:25.135Z</time>
      </trkpt>
      <trkpt lat="47.00973" lon="8.87333">
        <ele>1413</ele>
        <time>2021-08-03T10:46:26.134Z</time>
      </trkpt>
      <trkpt lat="47.00973" lon="8.87332">
        <ele>1414</ele>
        <time>2021-08-03T10:46:27.135Z</time>
      </trkpt>
      <trkpt lat="47.00973" lon="8.87332">
        <ele>1414</ele>
        <time>2021-08-03T10:46:32.245Z</time>
      </trkpt>
      <trkpt lat="47.00973" lon="8.87332">
        <ele>1414</ele>
        <time>2021-08-03T10:46:33.245Z</time>
      </trkpt>
      <trkpt lat="47.00972" lon="8.87332">
        <ele>1413</ele>
        <time>2021-08-03T10:46:34.244Z</time>
      </trkpt>
      <trkpt lat="47.00972" lon="8.87331">
        <ele>1413</ele>
        <time>2021-08-03T10:46:43.376Z</time>
      </trkpt>
      <trkpt lat="47.00972" lon="8.87331">
        <ele>1413</ele>
        <time>2021-08-03T10:46:44.375Z</time>
      </trkpt>
      <trkpt lat="47.00972" lon="8.8733">
        <ele>1413</ele>
        <time>2021-08-03T10:46:45.376Z</time>
      </trkpt>
      <trkpt lat="47.00972" lon="8.8733">
        <ele>1413</ele>
        <time>2021-08-03T10:46:46.376Z</time>
      </trkpt>
      <trkpt lat="47.00972" lon="8.87329">
        <ele>1413</ele>
        <time>2021-08-03T10:46:47.376Z</time>
      </trkpt>
      <trkpt lat="47.00972" lon="8.87329">
        <ele>1413</ele>
        <time>2021-08-03T10:46:48.376Z</time>
      </trkpt>
      <trkpt lat="47.00971" lon="8.87328">
        <ele>1413</ele>
        <time>2021-08-03T10:46:49.376Z</time>
      </trkpt>
      <trkpt lat="47.00971" lon="8.87328">
        <ele>1413</ele>
        <time>2021-08-03T10:46:50.375Z</time>
      </trkpt>
      <trkpt lat="47.00971" lon="8.87328">
        <ele>1413</ele>
        <time>2021-08-03T10:46:51.375Z</time>
      </trkpt>
      <trkpt lat="47.00971" lon="8.87327">
        <ele>1412</ele>
        <time>2021-08-03T10:46:52.376Z</time>
      </trkpt>
      <trkpt lat="47.0097" lon="8.87327">
        <ele>1412</ele>
        <time>2021-08-03T10:46:53.376Z</time>
      </trkpt>
      <trkpt lat="47.0097" lon="8.87326">
        <ele>1412</ele>
        <time>2021-08-03T10:46:54.375Z</time>
      </trkpt>
      <trkpt lat="47.00969" lon="8.87326">
        <ele>1412</ele>
        <time>2021-08-03T10:46:55.376Z</time>
      </trkpt>
      <trkpt lat="47.00969" lon="8.87326">
        <ele>1411</ele>
        <time>2021-08-03T10:46:56.376Z</time>
      </trkpt>
      <trkpt lat="47.00969" lon="8.87325">
        <ele>1411</ele>
        <time>2021-08-03T10:46:57.375Z</time>
      </trkpt>
      <trkpt lat="47.00968" lon="8.87325">
        <ele>1411</ele>
        <time>2021-08-03T10:46:58.376Z</time>
      </trkpt>
      <trkpt lat="47.00968" lon="8.87324">
        <ele>1411</ele>
        <time>2021-08-03T10:46:59.375Z</time>
      </trkpt>
      <trkpt lat="47.00968" lon="8.87324">
        <ele>1412</ele>
        <time>2021-08-03T10:47:00.375Z</time>
      </trkpt>
      <trkpt lat="47.00968" lon="8.87324">
        <ele>1412</ele>
        <time>2021-08-03T10:47:01.376Z</time>
      </trkpt>
      <trkpt lat="47.00967" lon="8.87323">
        <ele>1411</ele>
        <time>2021-08-03T10:47:02.376Z</time>
      </trkpt>
      <trkpt lat="47.00967" lon="8.87322">
        <ele>1411</ele>
        <time>2021-08-03T10:47:03.376Z</time>
      </trkpt>
      <trkpt lat="47.00966" lon="8.87322">
        <ele>1411</ele>
        <time>2021-08-03T10:47:04.376Z</time>
      </trkpt>
      <trkpt lat="47.00966" lon="8.87321">
        <ele>1411</ele>
        <time>2021-08-03T10:47:05.376Z</time>
      </trkpt>
      <trkpt lat="47.00965" lon="8.87321">
        <ele>1410</ele>
        <time>2021-08-03T10:47:06.376Z</time>
      </trkpt>
      <trkpt lat="47.00965" lon="8.8732">
        <ele>1410</ele>
        <time>2021-08-03T10:47:07.376Z</time>
      </trkpt>
      <trkpt lat="47.00964" lon="8.8732">
        <ele>1410</ele>
        <time>2021-08-03T10:47:08.376Z</time>
      </trkpt>
      <trkpt lat="47.00963" lon="8.87319">
        <ele>1410</ele>
        <time>2021-08-03T10:47:09.375Z</time>
      </trkpt>
      <trkpt lat="47.00963" lon="8.87319">
        <ele>1411</ele>
        <time>2021-08-03T10:47:10.375Z</time>
      </trkpt>
      <trkpt lat="47.00962" lon="8.87318">
        <ele>1411</ele>
        <time>2021-08-03T10:47:11.375Z</time>
      </trkpt>
      <trkpt lat="47.00962" lon="8.87318">
        <ele>1411</ele>
        <time>2021-08-03T10:47:12.375Z</time>
      </trkpt>
      <trkpt lat="47.00961" lon="8.87317">
        <ele>1412</ele>
        <time>2021-08-03T10:47:13.375Z</time>
      </trkpt>
      <trkpt lat="47.00961" lon="8.87316">
        <ele>1412</ele>
        <time>2021-08-03T10:47:14.376Z</time>
      </trkpt>
      <trkpt lat="47.00961" lon="8.87316">
        <ele>1413</ele>
        <time>2021-08-03T10:47:15.376Z</time>
      </trkpt>
      <trkpt lat="47.00961" lon="8.87315">
        <ele>1413</ele>
        <time>2021-08-03T10:47:16.376Z</time>
      </trkpt>
      <trkpt lat="47.0096" lon="8.87315">
        <ele>1414</ele>
        <time>2021-08-03T10:47:17.376Z</time>
      </trkpt>
      <trkpt lat="47.0096" lon="8.87315">
        <ele>1414</ele>
        <time>2021-08-03T10:47:18.376Z</time>
      </trkpt>
      <trkpt lat="47.0096" lon="8.87314">
        <ele>1415</ele>
        <time>2021-08-03T10:47:19.376Z</time>
      </trkpt>
      <trkpt lat="47.00959" lon="8.87314">
        <ele>1415</ele>
        <time>2021-08-03T10:47:20.376Z</time>
      </trkpt>
      <trkpt lat="47.00959" lon="8.87314">
        <ele>1415</ele>
        <time>2021-08-03T10:47:21.376Z</time>
      </trkpt>
      <trkpt lat="47.00958" lon="8.87313">
        <ele>1414</ele>
        <time>2021-08-03T10:47:22.376Z</time>
      </trkpt>
      <trkpt lat="47.00958" lon="8.87313">
        <ele>1414</ele>
        <time>2021-08-03T10:47:23.376Z</time>
      </trkpt>
      <trkpt lat="47.00957" lon="8.87313">
        <ele>1413</ele>
        <time>2021-08-03T10:47:24.376Z</time>
      </trkpt>
      <trkpt lat="47.00957" lon="8.87312">
        <ele>1413</ele>
        <time>2021-08-03T10:47:25.376Z</time>
      </trkpt>
      <trkpt lat="47.00957" lon="8.87311">
        <ele>1412</ele>
        <time>2021-08-03T10:47:26.376Z</time>
      </trkpt>
      <trkpt lat="47.00956" lon="8.87311">
        <ele>1412</ele>
        <time>2021-08-03T10:47:27.376Z</time>
      </trkpt>
      <trkpt lat="47.00956" lon="8.8731">
        <ele>1412</ele>
        <time>2021-08-03T10:47:28.376Z</time>
      </trkpt>
      <trkpt lat="47.00956" lon="8.8731">
        <ele>1412</ele>
        <time>2021-08-03T10:47:29.376Z</time>
      </trkpt>
      <trkpt lat="47.00955" lon="8.8731">
        <ele>1412</ele>
        <time>2021-08-03T10:47:30.376Z</time>
      </trkpt>
      <trkpt lat="47.00955" lon="8.87309">
        <ele>1413</ele>
        <time>2021-08-03T10:47:31.376Z</time>
      </trkpt>
      <trkpt lat="47.00955" lon="8.87309">
        <ele>1413</ele>
        <time>2021-08-03T10:47:32.375Z</time>
      </trkpt>
      <trkpt lat="47.00955" lon="8.87309">
        <ele>1413</ele>
        <time>2021-08-03T10:47:33.376Z</time>
      </trkpt>
      <trkpt lat="47.00955" lon="8.87308">
        <ele>1413</ele>
        <time>2021-08-03T10:47:34.376Z</time>
      </trkpt>
      <trkpt lat="47.00954" lon="8.87308">
        <ele>1413</ele>
        <time>2021-08-03T10:47:35.376Z</time>
      </trkpt>
      <trkpt lat="47.00954" lon="8.87307">
        <ele>1415</ele>
        <time>2021-08-03T10:47:36.377Z</time>
      </trkpt>
      <trkpt lat="47.00953" lon="8.87307">
        <ele>1415</ele>
        <time>2021-08-03T10:47:37.376Z</time>
      </trkpt>
      <trkpt lat="47.00953" lon="8.87306">
        <ele>1416</ele>
        <time>2021-08-03T10:47:38.376Z</time>
      </trkpt>
      <trkpt lat="47.00953" lon="8.87306">
        <ele>1416</ele>
        <time>2021-08-03T10:47:39.377Z</time>
      </trkpt>
      <trkpt lat="47.00954" lon="8.87305">
        <ele>1416</ele>
        <time>2021-08-03T10:47:40.377Z</time>
      </trkpt>
      <trkpt lat="47.00954" lon="8.87304">
        <ele>1416</ele>
        <time>2021-08-03T10:47:41.377Z</time>
      </trkpt>
      <trkpt lat="47.00954" lon="8.87303">
        <ele>1416</ele>
        <time>2021-08-03T10:47:42.377Z</time>
      </trkpt>
      <trkpt lat="47.00954" lon="8.87302">
        <ele>1416</ele>
        <time>2021-08-03T10:47:43.377Z</time>
      </trkpt>
      <trkpt lat="47.00954" lon="8.87302">
        <ele>1417</ele>
        <time>2021-08-03T10:47:44.377Z</time>
      </trkpt>
      <trkpt lat="47.00953" lon="8.87302">
        <ele>1417</ele>
        <time>2021-08-03T10:47:45.376Z</time>
      </trkpt>
      <trkpt lat="47.00953" lon="8.87301">
        <ele>1418</ele>
        <time>2021-08-03T10:47:46.377Z</time>
      </trkpt>
      <trkpt lat="47.00953" lon="8.87301">
        <ele>1418</ele>
        <time>2021-08-03T10:47:47.377Z</time>
      </trkpt>
      <trkpt lat="47.00952" lon="8.873">
        <ele>1419</ele>
        <time>2021-08-03T10:47:48.377Z</time>
      </trkpt>
      <trkpt lat="47.00952" lon="8.873">
        <ele>1419</ele>
        <time>2021-08-03T10:47:49.376Z</time>
      </trkpt>
      <trkpt lat="47.00951" lon="8.87299">
        <ele>1419</ele>
        <time>2021-08-03T10:47:50.377Z</time>
      </trkpt>
      <trkpt lat="47.00951" lon="8.87298">
        <ele>1420</ele>
        <time>2021-08-03T10:47:51.376Z</time>
      </trkpt>
      <trkpt lat="47.0095" lon="8.87298">
        <ele>1420</ele>
        <time>2021-08-03T10:47:52.376Z</time>
      </trkpt>
      <trkpt lat="47.00949" lon="8.87298">
        <ele>1420</ele>
        <time>2021-08-03T10:47:53.377Z</time>
      </trkpt>
      <trkpt lat="47.00949" lon="8.87297">
        <ele>1421</ele>
        <time>2021-08-03T10:47:54.377Z</time>
      </trkpt>
      <trkpt lat="47.00948" lon="8.87297">
        <ele>1421</ele>
        <time>2021-08-03T10:47:55.377Z</time>
      </trkpt>
      <trkpt lat="47.00948" lon="8.87297">
        <ele>1422</ele>
        <time>2021-08-03T10:47:56.377Z</time>
      </trkpt>
      <trkpt lat="47.00947" lon="8.87297">
        <ele>1422</ele>
        <time>2021-08-03T10:47:57.377Z</time>
      </trkpt>
      <trkpt lat="47.00947" lon="8.87296">
        <ele>1423</ele>
        <time>2021-08-03T10:47:58.377Z</time>
      </trkpt>
      <trkpt lat="47.00946" lon="8.87296">
        <ele>1424</ele>
        <time>2021-08-03T10:47:59.376Z</time>
      </trkpt>
      <trkpt lat="47.00946" lon="8.87296">
        <ele>1424</ele>
        <time>2021-08-03T10:48:00.376Z</time>
      </trkpt>
      <trkpt lat="47.00946" lon="8.87295">
        <ele>1425</ele>
        <time>2021-08-03T10:48:01.377Z</time>
      </trkpt>
      <trkpt lat="47.00945" lon="8.87295">
        <ele>1425</ele>
        <time>2021-08-03T10:48:02.377Z</time>
      </trkpt>
      <trkpt lat="47.00945" lon="8.87294">
        <ele>1425</ele>
        <time>2021-08-03T10:48:03.377Z</time>
      </trkpt>
      <trkpt lat="47.00945" lon="8.87294">
        <ele>1426</ele>
        <time>2021-08-03T10:48:04.377Z</time>
      </trkpt>
      <trkpt lat="47.00945" lon="8.87294">
        <ele>1426</ele>
        <time>2021-08-03T10:48:05.377Z</time>
      </trkpt>
      <trkpt lat="47.00944" lon="8.87293">
        <ele>1426</ele>
        <time>2021-08-03T10:48:06.377Z</time>
      </trkpt>
      <trkpt lat="47.00944" lon="8.87292">
        <ele>1427</ele>
        <time>2021-08-03T10:48:07.376Z</time>
      </trkpt>
      <trkpt lat="47.00944" lon="8.87291">
        <ele>1426</ele>
        <time>2021-08-03T10:48:08.377Z</time>
      </trkpt>
      <trkpt lat="47.00944" lon="8.87291">
        <ele>1425</ele>
        <time>2021-08-03T10:48:09.377Z</time>
      </trkpt>
      <trkpt lat="47.00943" lon="8.8729">
        <ele>1425</ele>
        <time>2021-08-03T10:48:10.377Z</time>
      </trkpt>
      <trkpt lat="47.00942" lon="8.87289">
        <ele>1424</ele>
        <time>2021-08-03T10:48:11.376Z</time>
      </trkpt>
      <trkpt lat="47.00941" lon="8.87289">
        <ele>1424</ele>
        <time>2021-08-03T10:48:12.376Z</time>
      </trkpt>
      <trkpt lat="47.00941" lon="8.87288">
        <ele>1423</ele>
        <time>2021-08-03T10:48:13.377Z</time>
      </trkpt>
      <trkpt lat="47.00939" lon="8.87286">
        <ele>1423</ele>
        <time>2021-08-03T10:48:14.377Z</time>
      </trkpt>
      <trkpt lat="47.00938" lon="8.87285">
        <ele>1423</ele>
        <time>2021-08-03T10:48:15.376Z</time>
      </trkpt>
      <trkpt lat="47.00937" lon="8.87284">
        <ele>1423</ele>
        <time>2021-08-03T10:48:16.377Z</time>
      </trkpt>
      <trkpt lat="47.00937" lon="8.87284">
        <ele>1423</ele>
        <time>2021-08-03T10:48:17.376Z</time>
      </trkpt>
      <trkpt lat="47.00937" lon="8.87283">
        <ele>1423</ele>
        <time>2021-08-03T10:48:18.376Z</time>
      </trkpt>
      <trkpt lat="47.00937" lon="8.87282">
        <ele>1423</ele>
        <time>2021-08-03T10:48:19.377Z</time>
      </trkpt>
      <trkpt lat="47.00937" lon="8.87281">
        <ele>1424</ele>
        <time>2021-08-03T10:48:20.377Z</time>
      </trkpt>
      <trkpt lat="47.00936" lon="8.8728">
        <ele>1424</ele>
        <time>2021-08-03T10:48:21.377Z</time>
      </trkpt>
      <trkpt lat="47.00935" lon="8.8728">
        <ele>1425</ele>
        <time>2021-08-03T10:48:22.376Z</time>
      </trkpt>
      <trkpt lat="47.00935" lon="8.87279">
        <ele>1425</ele>
        <time>2021-08-03T10:48:23.377Z</time>
      </trkpt>
      <trkpt lat="47.00935" lon="8.87279">
        <ele>1426</ele>
        <time>2021-08-03T10:48:24.377Z</time>
      </trkpt>
      <trkpt lat="47.00934" lon="8.87279">
        <ele>1426</ele>
        <time>2021-08-03T10:48:25.377Z</time>
      </trkpt>
      <trkpt lat="47.00934" lon="8.87279">
        <ele>1426</ele>
        <time>2021-08-03T10:48:26.377Z</time>
      </trkpt>
      <trkpt lat="47.00934" lon="8.87279">
        <ele>1427</ele>
        <time>2021-08-03T10:48:27.377Z</time>
      </trkpt>
      <trkpt lat="47.00933" lon="8.87279">
        <ele>1427</ele>
        <time>2021-08-03T10:48:28.376Z</time>
      </trkpt>
      <trkpt lat="47.00933" lon="8.87278">
        <ele>1428</ele>
        <time>2021-08-03T10:48:29.377Z</time>
      </trkpt>
      <trkpt lat="47.00932" lon="8.87278">
        <ele>1428</ele>
        <time>2021-08-03T10:48:30.376Z</time>
      </trkpt>
      <trkpt lat="47.00932" lon="8.87277">
        <ele>1429</ele>
        <time>2021-08-03T10:48:31.377Z</time>
      </trkpt>
      <trkpt lat="47.00932" lon="8.87277">
        <ele>1429</ele>
        <time>2021-08-03T10:48:32.377Z</time>
      </trkpt>
      <trkpt lat="47.00931" lon="8.87276">
        <ele>1430</ele>
        <time>2021-08-03T10:48:33.376Z</time>
      </trkpt>
      <trkpt lat="47.00931" lon="8.87276">
        <ele>1430</ele>
        <time>2021-08-03T10:48:34.377Z</time>
      </trkpt>
      <trkpt lat="47.00931" lon="8.87276">
        <ele>1430</ele>
        <time>2021-08-03T10:48:35.377Z</time>
      </trkpt>
      <trkpt lat="47.0093" lon="8.87275">
        <ele>1431</ele>
        <time>2021-08-03T10:48:36.377Z</time>
      </trkpt>
      <trkpt lat="47.0093" lon="8.87275">
        <ele>1430</ele>
        <time>2021-08-03T10:48:37.376Z</time>
      </trkpt>
      <trkpt lat="47.0093" lon="8.87274">
        <ele>1430</ele>
        <time>2021-08-03T10:48:38.377Z</time>
      </trkpt>
      <trkpt lat="47.0093" lon="8.87273">
        <ele>1430</ele>
        <time>2021-08-03T10:48:39.377Z</time>
      </trkpt>
      <trkpt lat="47.00929" lon="8.87273">
        <ele>1431</ele>
        <time>2021-08-03T10:48:40.377Z</time>
      </trkpt>
      <trkpt lat="47.00929" lon="8.87272">
        <ele>1431</ele>
        <time>2021-08-03T10:48:41.377Z</time>
      </trkpt>
      <trkpt lat="47.00929" lon="8.87271">
        <ele>1431</ele>
        <time>2021-08-03T10:48:42.377Z</time>
      </trkpt>
      <trkpt lat="47.00928" lon="8.87271">
        <ele>1431</ele>
        <time>2021-08-03T10:48:43.377Z</time>
      </trkpt>
      <trkpt lat="47.00928" lon="8.8727">
        <ele>1432</ele>
        <time>2021-08-03T10:48:44.377Z</time>
      </trkpt>
      <trkpt lat="47.00928" lon="8.87269">
        <ele>1432</ele>
        <time>2021-08-03T10:48:45.377Z</time>
      </trkpt>
      <trkpt lat="47.00927" lon="8.87269">
        <ele>1432</ele>
        <time>2021-08-03T10:48:46.376Z</time>
      </trkpt>
      <trkpt lat="47.00927" lon="8.87268">
        <ele>1433</ele>
        <time>2021-08-03T10:48:47.376Z</time>
      </trkpt>
      <trkpt lat="47.00927" lon="8.87267">
        <ele>1433</ele>
        <time>2021-08-03T10:48:48.376Z</time>
      </trkpt>
      <trkpt lat="47.00927" lon="8.87267">
        <ele>1433</ele>
        <time>2021-08-03T10:48:49.376Z</time>
      </trkpt>
      <trkpt lat="47.00927" lon="8.87266">
        <ele>1434</ele>
        <time>2021-08-03T10:48:50.377Z</time>
      </trkpt>
      <trkpt lat="47.00926" lon="8.87266">
        <ele>1434</ele>
        <time>2021-08-03T10:48:51.377Z</time>
      </trkpt>
      <trkpt lat="47.00926" lon="8.87265">
        <ele>1434</ele>
        <time>2021-08-03T10:48:52.377Z</time>
      </trkpt>
      <trkpt lat="47.00926" lon="8.87264">
        <ele>1434</ele>
        <time>2021-08-03T10:48:53.377Z</time>
      </trkpt>
      <trkpt lat="47.00925" lon="8.87264">
        <ele>1433</ele>
        <time>2021-08-03T10:48:54.377Z</time>
      </trkpt>
      <trkpt lat="47.00925" lon="8.87263">
        <ele>1433</ele>
        <time>2021-08-03T10:48:55.376Z</time>
      </trkpt>
      <trkpt lat="47.00925" lon="8.87262">
        <ele>1433</ele>
        <time>2021-08-03T10:48:56.377Z</time>
      </trkpt>
      <trkpt lat="47.00924" lon="8.87262">
        <ele>1433</ele>
        <time>2021-08-03T10:48:57.377Z</time>
      </trkpt>
      <trkpt lat="47.00924" lon="8.87262">
        <ele>1433</ele>
        <time>2021-08-03T10:48:58.376Z</time>
      </trkpt>
      <trkpt lat="47.00924" lon="8.87261">
        <ele>1432</ele>
        <time>2021-08-03T10:48:59.377Z</time>
      </trkpt>
      <trkpt lat="47.00923" lon="8.8726">
        <ele>1432</ele>
        <time>2021-08-03T10:49:00.377Z</time>
      </trkpt>
      <trkpt lat="47.00922" lon="8.8726">
        <ele>1432</ele>
        <time>2021-08-03T10:49:01.377Z</time>
      </trkpt>
      <trkpt lat="47.00922" lon="8.87259">
        <ele>1432</ele>
        <time>2021-08-03T10:49:02.377Z</time>
      </trkpt>
      <trkpt lat="47.00921" lon="8.87257">
        <ele>1432</ele>
        <time>2021-08-03T10:49:03.376Z</time>
      </trkpt>
      <trkpt lat="47.0092" lon="8.87256">
        <ele>1432</ele>
        <time>2021-08-03T10:49:04.377Z</time>
      </trkpt>
      <trkpt lat="47.0092" lon="8.87255">
        <ele>1432</ele>
        <time>2021-08-03T10:49:05.377Z</time>
      </trkpt>
      <trkpt lat="47.00919" lon="8.87255">
        <ele>1432</ele>
        <time>2021-08-03T10:49:06.377Z</time>
      </trkpt>
      <trkpt lat="47.00919" lon="8.87254">
        <ele>1432</ele>
        <time>2021-08-03T10:49:07.377Z</time>
      </trkpt>
      <trkpt lat="47.00918" lon="8.87253">
        <ele>1432</ele>
        <time>2021-08-03T10:49:08.377Z</time>
      </trkpt>
      <trkpt lat="47.00918" lon="8.87252">
        <ele>1433</ele>
        <time>2021-08-03T10:49:09.377Z</time>
      </trkpt>
      <trkpt lat="47.00917" lon="8.87251">
        <ele>1433</ele>
        <time>2021-08-03T10:49:10.376Z</time>
      </trkpt>
      <trkpt lat="47.00916" lon="8.8725">
        <ele>1434</ele>
        <time>2021-08-03T10:49:11.376Z</time>
      </trkpt>
      <trkpt lat="47.00916" lon="8.8725">
        <ele>1434</ele>
        <time>2021-08-03T10:49:12.377Z</time>
      </trkpt>
      <trkpt lat="47.00916" lon="8.87248">
        <ele>1434</ele>
        <time>2021-08-03T10:49:13.377Z</time>
      </trkpt>
      <trkpt lat="47.00916" lon="8.87247">
        <ele>1435</ele>
        <time>2021-08-03T10:49:14.376Z</time>
      </trkpt>
      <trkpt lat="47.00915" lon="8.87246">
        <ele>1435</ele>
        <time>2021-08-03T10:49:15.377Z</time>
      </trkpt>
      <trkpt lat="47.00915" lon="8.87245">
        <ele>1436</ele>
        <time>2021-08-03T10:49:16.377Z</time>
      </trkpt>
      <trkpt lat="47.00914" lon="8.87244">
        <ele>1436</ele>
        <time>2021-08-03T10:49:17.377Z</time>
      </trkpt>
      <trkpt lat="47.00914" lon="8.87244">
        <ele>1436</ele>
        <time>2021-08-03T10:49:18.377Z</time>
      </trkpt>
      <trkpt lat="47.00913" lon="8.87244">
        <ele>1436</ele>
        <time>2021-08-03T10:49:19.376Z</time>
      </trkpt>
      <trkpt lat="47.00912" lon="8.87243">
        <ele>1436</ele>
        <time>2021-08-03T10:49:20.377Z</time>
      </trkpt>
      <trkpt lat="47.00911" lon="8.87242">
        <ele>1436</ele>
        <time>2021-08-03T10:49:21.377Z</time>
      </trkpt>
      <trkpt lat="47.0091" lon="8.87241">
        <ele>1436</ele>
        <time>2021-08-03T10:49:22.376Z</time>
      </trkpt>
      <trkpt lat="47.0091" lon="8.87241">
        <ele>1437</ele>
        <time>2021-08-03T10:49:23.377Z</time>
      </trkpt>
      <trkpt lat="47.0091" lon="8.8724">
        <ele>1437</ele>
        <time>2021-08-03T10:49:24.377Z</time>
      </trkpt>
      <trkpt lat="47.00909" lon="8.8724">
        <ele>1437</ele>
        <time>2021-08-03T10:49:25.377Z</time>
      </trkpt>
      <trkpt lat="47.00909" lon="8.8724">
        <ele>1437</ele>
        <time>2021-08-03T10:49:26.377Z</time>
      </trkpt>
      <trkpt lat="47.00909" lon="8.8724">
        <ele>1437</ele>
        <time>2021-08-03T10:49:27.377Z</time>
      </trkpt>
      <trkpt lat="47.00908" lon="8.87241">
        <ele>1437</ele>
        <time>2021-08-03T10:49:28.376Z</time>
      </trkpt>
      <trkpt lat="47.00908" lon="8.8724">
        <ele>1437</ele>
        <time>2021-08-03T10:49:29.377Z</time>
      </trkpt>
      <trkpt lat="47.00907" lon="8.87239">
        <ele>1437</ele>
        <time>2021-08-03T10:49:30.377Z</time>
      </trkpt>
      <trkpt lat="47.00907" lon="8.87238">
        <ele>1437</ele>
        <time>2021-08-03T10:49:31.377Z</time>
      </trkpt>
      <trkpt lat="47.00906" lon="8.87238">
        <ele>1437</ele>
        <time>2021-08-03T10:49:32.376Z</time>
      </trkpt>
      <trkpt lat="47.00906" lon="8.87238">
        <ele>1437</ele>
        <time>2021-08-03T10:49:33.376Z</time>
      </trkpt>
      <trkpt lat="47.00903" lon="8.87237">
        <ele>1438</ele>
        <time>2021-08-03T10:49:34.377Z</time>
      </trkpt>
      <trkpt lat="47.00903" lon="8.87237">
        <ele>1438</ele>
        <time>2021-08-03T10:49:35.376Z</time>
      </trkpt>
      <trkpt lat="47.00903" lon="8.87237">
        <ele>1437</ele>
        <time>2021-08-03T10:49:36.376Z</time>
      </trkpt>
      <trkpt lat="47.00902" lon="8.87237">
        <ele>1437</ele>
        <time>2021-08-03T10:49:37.377Z</time>
      </trkpt>
      <trkpt lat="47.00901" lon="8.87237">
        <ele>1437</ele>
        <time>2021-08-03T10:49:38.376Z</time>
      </trkpt>
      <trkpt lat="47.009" lon="8.87236">
        <ele>1437</ele>
        <time>2021-08-03T10:49:39.376Z</time>
      </trkpt>
      <trkpt lat="47.009" lon="8.87236">
        <ele>1437</ele>
        <time>2021-08-03T10:49:40.377Z</time>
      </trkpt>
      <trkpt lat="47.009" lon="8.87235">
        <ele>1437</ele>
        <time>2021-08-03T10:49:41.377Z</time>
      </trkpt>
      <trkpt lat="47.00899" lon="8.87235">
        <ele>1437</ele>
        <time>2021-08-03T10:49:42.377Z</time>
      </trkpt>
      <trkpt lat="47.00899" lon="8.87234">
        <ele>1438</ele>
        <time>2021-08-03T10:49:43.376Z</time>
      </trkpt>
      <trkpt lat="47.00898" lon="8.87233">
        <ele>1438</ele>
        <time>2021-08-03T10:49:44.376Z</time>
      </trkpt>
      <trkpt lat="47.00898" lon="8.87233">
        <ele>1438</ele>
        <time>2021-08-03T10:49:45.377Z</time>
      </trkpt>
      <trkpt lat="47.00897" lon="8.87232">
        <ele>1439</ele>
        <time>2021-08-03T10:49:46.376Z</time>
      </trkpt>
      <trkpt lat="47.00897" lon="8.87231">
        <ele>1439</ele>
        <time>2021-08-03T10:49:47.377Z</time>
      </trkpt>
      <trkpt lat="47.00897" lon="8.87231">
        <ele>1439</ele>
        <time>2021-08-03T10:49:48.377Z</time>
      </trkpt>
      <trkpt lat="47.00897" lon="8.8723">
        <ele>1439</ele>
        <time>2021-08-03T10:49:49.377Z</time>
      </trkpt>
      <trkpt lat="47.00896" lon="8.87229">
        <ele>1439</ele>
        <time>2021-08-03T10:49:50.377Z</time>
      </trkpt>
      <trkpt lat="47.00896" lon="8.87228">
        <ele>1439</ele>
        <time>2021-08-03T10:49:51.376Z</time>
      </trkpt>
      <trkpt lat="47.00895" lon="8.87228">
        <ele>1439</ele>
        <time>2021-08-03T10:49:52.376Z</time>
      </trkpt>
      <trkpt lat="47.00895" lon="8.87227">
        <ele>1439</ele>
        <time>2021-08-03T10:49:53.377Z</time>
      </trkpt>
      <trkpt lat="47.00894" lon="8.87226">
        <ele>1438</ele>
        <time>2021-08-03T10:49:54.377Z</time>
      </trkpt>
      <trkpt lat="47.00894" lon="8.87226">
        <ele>1438</ele>
        <time>2021-08-03T10:49:55.376Z</time>
      </trkpt>
      <trkpt lat="47.00893" lon="8.87225">
        <ele>1437</ele>
        <time>2021-08-03T10:49:56.377Z</time>
      </trkpt>
      <trkpt lat="47.00892" lon="8.87225">
        <ele>1437</ele>
        <time>2021-08-03T10:49:57.376Z</time>
      </trkpt>
      <trkpt lat="47.00892" lon="8.87224">
        <ele>1436</ele>
        <time>2021-08-03T10:49:58.377Z</time>
      </trkpt>
      <trkpt lat="47.00891" lon="8.87224">
        <ele>1435</ele>
        <time>2021-08-03T10:49:59.377Z</time>
      </trkpt>
      <trkpt lat="47.00891" lon="8.87223">
        <ele>1435</ele>
        <time>2021-08-03T10:50:00.377Z</time>
      </trkpt>
      <trkpt lat="47.0089" lon="8.87223">
        <ele>1434</ele>
        <time>2021-08-03T10:50:01.377Z</time>
      </trkpt>
      <trkpt lat="47.0089" lon="8.87222">
        <ele>1433</ele>
        <time>2021-08-03T10:50:02.376Z</time>
      </trkpt>
      <trkpt lat="47.0089" lon="8.8722">
        <ele>1432</ele>
        <time>2021-08-03T10:50:03.377Z</time>
      </trkpt>
      <trkpt lat="47.00889" lon="8.87219">
        <ele>1432</ele>
        <time>2021-08-03T10:50:04.376Z</time>
      </trkpt>
      <trkpt lat="47.00889" lon="8.87218">
        <ele>1431</ele>
        <time>2021-08-03T10:50:05.377Z</time>
      </trkpt>
      <trkpt lat="47.00888" lon="8.87217">
        <ele>1431</ele>
        <time>2021-08-03T10:50:06.376Z</time>
      </trkpt>
      <trkpt lat="47.00888" lon="8.87216">
        <ele>1431</ele>
        <time>2021-08-03T10:50:07.376Z</time>
      </trkpt>
      <trkpt lat="47.00887" lon="8.87216">
        <ele>1431</ele>
        <time>2021-08-03T10:50:08.377Z</time>
      </trkpt>
      <trkpt lat="47.00887" lon="8.87215">
        <ele>1430</ele>
        <time>2021-08-03T10:50:09.376Z</time>
      </trkpt>
      <trkpt lat="47.00886" lon="8.87214">
        <ele>1430</ele>
        <time>2021-08-03T10:50:10.377Z</time>
      </trkpt>
      <trkpt lat="47.00886" lon="8.87214">
        <ele>1429</ele>
        <time>2021-08-03T10:50:11.376Z</time>
      </trkpt>
      <trkpt lat="47.00885" lon="8.87213">
        <ele>1429</ele>
        <time>2021-08-03T10:50:12.377Z</time>
      </trkpt>
      <trkpt lat="47.00885" lon="8.87213">
        <ele>1429</ele>
        <time>2021-08-03T10:50:13.377Z</time>
      </trkpt>
      <trkpt lat="47.00884" lon="8.87213">
        <ele>1428</ele>
        <time>2021-08-03T10:50:14.377Z</time>
      </trkpt>
      <trkpt lat="47.00883" lon="8.87213">
        <ele>1428</ele>
        <time>2021-08-03T10:50:21.479Z</time>
      </trkpt>
      <trkpt lat="47.00883" lon="8.87212">
        <ele>1428</ele>
        <time>2021-08-03T10:50:22.480Z</time>
      </trkpt>
      <trkpt lat="47.00882" lon="8.87212">
        <ele>1428</ele>
        <time>2021-08-03T10:50:23.480Z</time>
      </trkpt>
      <trkpt lat="47.00882" lon="8.87211">
        <ele>1428</ele>
        <time>2021-08-03T10:50:24.479Z</time>
      </trkpt>
      <trkpt lat="47.00881" lon="8.8721">
        <ele>1427</ele>
        <time>2021-08-03T10:50:25.480Z</time>
      </trkpt>
      <trkpt lat="47.0088" lon="8.87209">
        <ele>1428</ele>
        <time>2021-08-03T10:50:26.479Z</time>
      </trkpt>
      <trkpt lat="47.0088" lon="8.87208">
        <ele>1429</ele>
        <time>2021-08-03T10:50:27.480Z</time>
      </trkpt>
      <trkpt lat="47.0088" lon="8.87207">
        <ele>1429</ele>
        <time>2021-08-03T10:50:28.480Z</time>
      </trkpt>
      <trkpt lat="47.00879" lon="8.87207">
        <ele>1430</ele>
        <time>2021-08-03T10:50:29.480Z</time>
      </trkpt>
      <trkpt lat="47.00878" lon="8.87206">
        <ele>1431</ele>
        <time>2021-08-03T10:50:30.480Z</time>
      </trkpt>
      <trkpt lat="47.00877" lon="8.87206">
        <ele>1431</ele>
        <time>2021-08-03T10:50:31.480Z</time>
      </trkpt>
      <trkpt lat="47.00876" lon="8.87206">
        <ele>1432</ele>
        <time>2021-08-03T10:50:32.480Z</time>
      </trkpt>
      <trkpt lat="47.00876" lon="8.87205">
        <ele>1432</ele>
        <time>2021-08-03T10:50:33.480Z</time>
      </trkpt>
      <trkpt lat="47.00875" lon="8.87205">
        <ele>1433</ele>
        <time>2021-08-03T10:50:34.480Z</time>
      </trkpt>
      <trkpt lat="47.00874" lon="8.87205">
        <ele>1434</ele>
        <time>2021-08-03T10:50:35.480Z</time>
      </trkpt>
      <trkpt lat="47.00874" lon="8.87205">
        <ele>1434</ele>
        <time>2021-08-03T10:50:36.480Z</time>
      </trkpt>
      <trkpt lat="47.00873" lon="8.87204">
        <ele>1435</ele>
        <time>2021-08-03T10:50:37.480Z</time>
      </trkpt>
      <trkpt lat="47.00873" lon="8.87204">
        <ele>1436</ele>
        <time>2021-08-03T10:50:38.480Z</time>
      </trkpt>
      <trkpt lat="47.00872" lon="8.87203">
        <ele>1436</ele>
        <time>2021-08-03T10:50:39.480Z</time>
      </trkpt>
      <trkpt lat="47.00871" lon="8.87203">
        <ele>1436</ele>
        <time>2021-08-03T10:50:40.480Z</time>
      </trkpt>
      <trkpt lat="47.00871" lon="8.87202">
        <ele>1436</ele>
        <time>2021-08-03T10:50:41.480Z</time>
      </trkpt>
      <trkpt lat="47.00871" lon="8.87201">
        <ele>1436</ele>
        <time>2021-08-03T10:50:42.479Z</time>
      </trkpt>
      <trkpt lat="47.0087" lon="8.872">
        <ele>1436</ele>
        <time>2021-08-03T10:50:43.479Z</time>
      </trkpt>
      <trkpt lat="47.0087" lon="8.872">
        <ele>1436</ele>
        <time>2021-08-03T10:50:44.480Z</time>
      </trkpt>
      <trkpt lat="47.00869" lon="8.87199">
        <ele>1436</ele>
        <time>2021-08-03T10:50:45.480Z</time>
      </trkpt>
      <trkpt lat="47.00869" lon="8.87198">
        <ele>1436</ele>
        <time>2021-08-03T10:50:46.480Z</time>
      </trkpt>
      <trkpt lat="47.00868" lon="8.87198">
        <ele>1437</ele>
        <time>2021-08-03T10:50:47.480Z</time>
      </trkpt>
      <trkpt lat="47.00867" lon="8.87197">
        <ele>1437</ele>
        <time>2021-08-03T10:50:48.480Z</time>
      </trkpt>
      <trkpt lat="47.00867" lon="8.87196">
        <ele>1437</ele>
        <time>2021-08-03T10:50:49.479Z</time>
      </trkpt>
      <trkpt lat="47.00867" lon="8.87196">
        <ele>1438</ele>
        <time>2021-08-03T10:50:50.479Z</time>
      </trkpt>
      <trkpt lat="47.00866" lon="8.87196">
        <ele>1437</ele>
        <time>2021-08-03T10:50:51.479Z</time>
      </trkpt>
      <trkpt lat="47.00866" lon="8.87195">
        <ele>1437</ele>
        <time>2021-08-03T10:50:52.480Z</time>
      </trkpt>
      <trkpt lat="47.00866" lon="8.87195">
        <ele>1437</ele>
        <time>2021-08-03T10:50:53.479Z</time>
      </trkpt>
      <trkpt lat="47.00865" lon="8.87194">
        <ele>1437</ele>
        <time>2021-08-03T10:50:54.480Z</time>
      </trkpt>
      <trkpt lat="47.00865" lon="8.87194">
        <ele>1437</ele>
        <time>2021-08-03T10:50:55.480Z</time>
      </trkpt>
      <trkpt lat="47.00865" lon="8.87194">
        <ele>1437</ele>
        <time>2021-08-03T10:50:56.479Z</time>
      </trkpt>
      <trkpt lat="47.00864" lon="8.87194">
        <ele>1437</ele>
        <time>2021-08-03T10:50:57.480Z</time>
      </trkpt>
      <trkpt lat="47.00863" lon="8.87193">
        <ele>1444</ele>
        <time>2021-08-03T10:50:58.481Z</time>
      </trkpt>
      <trkpt lat="47.00859" lon="8.87194">
        <ele>1448</ele>
        <time>2021-08-03T10:50:59.480Z</time>
      </trkpt>
      <trkpt lat="47.00859" lon="8.87194">
        <ele>1448</ele>
        <time>2021-08-03T10:51:00.481Z</time>
      </trkpt>
      <trkpt lat="47.0086" lon="8.87196">
        <ele>1447</ele>
        <time>2021-08-03T10:51:01.480Z</time>
      </trkpt>
      <trkpt lat="47.00861" lon="8.87196">
        <ele>1447</ele>
        <time>2021-08-03T10:51:02.481Z</time>
      </trkpt>
      <trkpt lat="47.0086" lon="8.87197">
        <ele>1448</ele>
        <time>2021-08-03T10:51:03.481Z</time>
      </trkpt>
      <trkpt lat="47.00864" lon="8.87193">
        <ele>1444</ele>
        <time>2021-08-03T10:51:04.481Z</time>
      </trkpt>
      <trkpt lat="47.00863" lon="8.87193">
        <ele>1443</ele>
        <time>2021-08-03T10:51:05.481Z</time>
      </trkpt>
      <trkpt lat="47.00862" lon="8.87192">
        <ele>1441</ele>
        <time>2021-08-03T10:51:06.481Z</time>
      </trkpt>
      <trkpt lat="47.00862" lon="8.87193">
        <ele>1440</ele>
        <time>2021-08-03T10:51:07.482Z</time>
      </trkpt>
      <trkpt lat="47.00862" lon="8.87193">
        <ele>1440</ele>
        <time>2021-08-03T10:51:08.482Z</time>
      </trkpt>
      <trkpt lat="47.00859" lon="8.87194">
        <ele>1433</ele>
        <time>2021-08-03T10:51:09.481Z</time>
      </trkpt>
      <trkpt lat="47.0086" lon="8.87193">
        <ele>1434</ele>
        <time>2021-08-03T10:51:10.482Z</time>
      </trkpt>
      <trkpt lat="47.00861" lon="8.87192">
        <ele>1435</ele>
        <time>2021-08-03T10:51:11.481Z</time>
      </trkpt>
      <trkpt lat="47.00861" lon="8.87191">
        <ele>1435</ele>
        <time>2021-08-03T10:51:12.482Z</time>
      </trkpt>
      <trkpt lat="47.00861" lon="8.8719">
        <ele>1436</ele>
        <time>2021-08-03T10:51:13.482Z</time>
      </trkpt>
      <trkpt lat="47.00861" lon="8.87189">
        <ele>1437</ele>
        <time>2021-08-03T10:51:14.482Z</time>
      </trkpt>
      <trkpt lat="47.00861" lon="8.87188">
        <ele>1437</ele>
        <time>2021-08-03T10:51:15.481Z</time>
      </trkpt>
      <trkpt lat="47.0086" lon="8.87188">
        <ele>1437</ele>
        <time>2021-08-03T10:51:16.481Z</time>
      </trkpt>
      <trkpt lat="47.0086" lon="8.87187">
        <ele>1438</ele>
        <time>2021-08-03T10:51:17.482Z</time>
      </trkpt>
      <trkpt lat="47.00859" lon="8.87187">
        <ele>1438</ele>
        <time>2021-08-03T10:51:18.482Z</time>
      </trkpt>
      <trkpt lat="47.00859" lon="8.87186">
        <ele>1439</ele>
        <time>2021-08-03T10:51:19.481Z</time>
      </trkpt>
      <trkpt lat="47.00859" lon="8.87186">
        <ele>1439</ele>
        <time>2021-08-03T10:51:20.481Z</time>
      </trkpt>
      <trkpt lat="47.00858" lon="8.87185">
        <ele>1440</ele>
        <time>2021-08-03T10:51:21.481Z</time>
      </trkpt>
      <trkpt lat="47.00858" lon="8.87184">
        <ele>1440</ele>
        <time>2021-08-03T10:51:22.481Z</time>
      </trkpt>
      <trkpt lat="47.00857" lon="8.87184">
        <ele>1441</ele>
        <time>2021-08-03T10:51:23.482Z</time>
      </trkpt>
      <trkpt lat="47.00857" lon="8.87184">
        <ele>1441</ele>
        <time>2021-08-03T10:51:24.482Z</time>
      </trkpt>
      <trkpt lat="47.00856" lon="8.87186">
        <ele>1443</ele>
        <time>2021-08-03T10:51:25.483Z</time>
      </trkpt>
      <trkpt lat="47.00856" lon="8.87186">
        <ele>1443</ele>
        <time>2021-08-03T10:51:27.446Z</time>
      </trkpt>
      <trkpt lat="47.00856" lon="8.87185">
        <ele>1443</ele>
        <time>2021-08-03T10:51:28.445Z</time>
      </trkpt>
      <trkpt lat="47.00856" lon="8.87185">
        <ele>1443</ele>
        <time>2021-08-03T10:51:29.445Z</time>
      </trkpt>
      <trkpt lat="47.00856" lon="8.87185">
        <ele>1442</ele>
        <time>2021-08-03T10:51:30.445Z</time>
      </trkpt>
      <trkpt lat="47.00856" lon="8.87185">
        <ele>1442</ele>
        <time>2021-08-03T10:51:31.445Z</time>
      </trkpt>
      <trkpt lat="47.00857" lon="8.87185">
        <ele>1442</ele>
        <time>2021-08-03T10:51:45.505Z</time>
      </trkpt>
      <trkpt lat="47.00855" lon="8.87185">
        <ele>1446</ele>
        <time>2021-08-03T10:51:46.506Z</time>
      </trkpt>
      <trkpt lat="47.00855" lon="8.87185">
        <ele>1446</ele>
        <time>2021-08-03T10:51:47.506Z</time>
      </trkpt>
      <trkpt lat="47.00855" lon="8.87185">
        <ele>1446</ele>
        <time>2021-08-03T10:52:15.622Z</time>
      </trkpt>
      <trkpt lat="47.00855" lon="8.87185">
        <ele>1445</ele>
        <time>2021-08-03T10:52:18.475Z</time>
      </trkpt>
      <trkpt lat="47.00854" lon="8.87185">
        <ele>1445</ele>
        <time>2021-08-03T10:52:19.474Z</time>
      </trkpt>
      <trkpt lat="47.00854" lon="8.87184">
        <ele>1444</ele>
        <time>2021-08-03T10:52:20.476Z</time>
      </trkpt>
      <trkpt lat="47.00853" lon="8.87185">
        <ele>1443</ele>
        <time>2021-08-03T10:52:21.476Z</time>
      </trkpt>
      <trkpt lat="47.00852" lon="8.87186">
        <ele>1443</ele>
        <time>2021-08-03T10:52:22.476Z</time>
      </trkpt>
      <trkpt lat="47.00852" lon="8.87186">
        <ele>1443</ele>
        <time>2021-08-03T10:52:47.608Z</time>
      </trkpt>
      <trkpt lat="47.00851" lon="8.87187">
        <ele>1442</ele>
        <time>2021-08-03T10:53:14.520Z</time>
      </trkpt>
      <trkpt lat="47.00851" lon="8.87187">
        <ele>1441</ele>
        <time>2021-08-03T10:53:17.355Z</time>
      </trkpt>
      <trkpt lat="47.0085" lon="8.87187">
        <ele>1441</ele>
        <time>2021-08-03T10:53:18.355Z</time>
      </trkpt>
      <trkpt lat="47.00849" lon="8.87187">
        <ele>1440</ele>
        <time>2021-08-03T10:53:19.355Z</time>
      </trkpt>
      <trkpt lat="47.00849" lon="8.87188">
        <ele>1439</ele>
        <time>2021-08-03T10:53:20.355Z</time>
      </trkpt>
      <trkpt lat="47.00849" lon="8.87188">
        <ele>1439</ele>
        <time>2021-08-03T10:53:28.503Z</time>
      </trkpt>
      <trkpt lat="47.00848" lon="8.87189">
        <ele>1438</ele>
        <time>2021-08-03T10:53:29.503Z</time>
      </trkpt>
      <trkpt lat="47.00848" lon="8.8719">
        <ele>1437</ele>
        <time>2021-08-03T10:53:30.503Z</time>
      </trkpt>
      <trkpt lat="47.00847" lon="8.8719">
        <ele>1437</ele>
        <time>2021-08-03T10:53:31.503Z</time>
      </trkpt>
      <trkpt lat="47.00847" lon="8.8719">
        <ele>1437</ele>
        <time>2021-08-03T10:53:32.503Z</time>
      </trkpt>
      <trkpt lat="47.00846" lon="8.8719">
        <ele>1437</ele>
        <time>2021-08-03T10:53:33.502Z</time>
      </trkpt>
      <trkpt lat="47.00846" lon="8.8719">
        <ele>1437</ele>
        <time>2021-08-03T10:53:34.502Z</time>
      </trkpt>
      <trkpt lat="47.00845" lon="8.8719">
        <ele>1438</ele>
        <time>2021-08-03T10:53:35.503Z</time>
      </trkpt>
      <trkpt lat="47.00844" lon="8.8719">
        <ele>1438</ele>
        <time>2021-08-03T10:53:36.503Z</time>
      </trkpt>
      <trkpt lat="47.00843" lon="8.87191">
        <ele>1438</ele>
        <time>2021-08-03T10:53:37.503Z</time>
      </trkpt>
      <trkpt lat="47.00842" lon="8.87191">
        <ele>1438</ele>
        <time>2021-08-03T10:53:38.503Z</time>
      </trkpt>
      <trkpt lat="47.00841" lon="8.87191">
        <ele>1439</ele>
        <time>2021-08-03T10:53:39.503Z</time>
      </trkpt>
      <trkpt lat="47.00839" lon="8.87192">
        <ele>1439</ele>
        <time>2021-08-03T10:53:40.502Z</time>
      </trkpt>
      <trkpt lat="47.00838" lon="8.87192">
        <ele>1439</ele>
        <time>2021-08-03T10:53:41.502Z</time>
      </trkpt>
      <trkpt lat="47.00837" lon="8.87192">
        <ele>1439</ele>
        <time>2021-08-03T10:53:42.502Z</time>
      </trkpt>
      <trkpt lat="47.00836" lon="8.87192">
        <ele>1440</ele>
        <time>2021-08-03T10:53:43.502Z</time>
      </trkpt>
      <trkpt lat="47.00835" lon="8.87192">
        <ele>1440</ele>
        <time>2021-08-03T10:53:44.503Z</time>
      </trkpt>
      <trkpt lat="47.00834" lon="8.87192">
        <ele>1440</ele>
        <time>2021-08-03T10:53:45.503Z</time>
      </trkpt>
      <trkpt lat="47.00834" lon="8.87192">
        <ele>1441</ele>
        <time>2021-08-03T10:53:46.503Z</time>
      </trkpt>
      <trkpt lat="47.00833" lon="8.87192">
        <ele>1441</ele>
        <time>2021-08-03T10:53:47.503Z</time>
      </trkpt>
      <trkpt lat="47.00832" lon="8.87192">
        <ele>1441</ele>
        <time>2021-08-03T10:53:48.503Z</time>
      </trkpt>
      <trkpt lat="47.00832" lon="8.87192">
        <ele>1441</ele>
        <time>2021-08-03T10:53:53.628Z</time>
      </trkpt>
      <trkpt lat="47.00831" lon="8.87192">
        <ele>1441</ele>
        <time>2021-08-03T10:53:54.628Z</time>
      </trkpt>
      <trkpt lat="47.0083" lon="8.87193">
        <ele>1441</ele>
        <time>2021-08-03T10:53:55.628Z</time>
      </trkpt>
      <trkpt lat="47.00829" lon="8.87193">
        <ele>1441</ele>
        <time>2021-08-03T10:53:56.628Z</time>
      </trkpt>
      <trkpt lat="47.00829" lon="8.87193">
        <ele>1442</ele>
        <time>2021-08-03T10:53:57.628Z</time>
      </trkpt>
      <trkpt lat="47.00828" lon="8.87194">
        <ele>1442</ele>
        <time>2021-08-03T10:53:58.628Z</time>
      </trkpt>
      <trkpt lat="47.00827" lon="8.87194">
        <ele>1443</ele>
        <time>2021-08-03T10:53:59.628Z</time>
      </trkpt>
      <trkpt lat="47.00827" lon="8.87194">
        <ele>1443</ele>
        <time>2021-08-03T10:54:00.628Z</time>
      </trkpt>
      <trkpt lat="47.00826" lon="8.87193">
        <ele>1444</ele>
        <time>2021-08-03T10:54:01.628Z</time>
      </trkpt>
      <trkpt lat="47.00825" lon="8.87193">
        <ele>1444</ele>
        <time>2021-08-03T10:54:02.628Z</time>
      </trkpt>
      <trkpt lat="47.00825" lon="8.87192">
        <ele>1444</ele>
        <time>2021-08-03T10:54:03.627Z</time>
      </trkpt>
      <trkpt lat="47.00824" lon="8.87192">
        <ele>1444</ele>
        <time>2021-08-03T10:54:04.628Z</time>
      </trkpt>
      <trkpt lat="47.00823" lon="8.87192">
        <ele>1443</ele>
        <time>2021-08-03T10:54:05.628Z</time>
      </trkpt>
      <trkpt lat="47.00822" lon="8.87192">
        <ele>1443</ele>
        <time>2021-08-03T10:54:06.628Z</time>
      </trkpt>
      <trkpt lat="47.00821" lon="8.87192">
        <ele>1443</ele>
        <time>2021-08-03T10:54:07.628Z</time>
      </trkpt>
      <trkpt lat="47.0082" lon="8.87191">
        <ele>1443</ele>
        <time>2021-08-03T10:54:08.627Z</time>
      </trkpt>
      <trkpt lat="47.00819" lon="8.87191">
        <ele>1443</ele>
        <time>2021-08-03T10:54:09.628Z</time>
      </trkpt>
      <trkpt lat="47.00818" lon="8.87191">
        <ele>1443</ele>
        <time>2021-08-03T10:54:10.628Z</time>
      </trkpt>
      <trkpt lat="47.00817" lon="8.87192">
        <ele>1443</ele>
        <time>2021-08-03T10:54:11.627Z</time>
      </trkpt>
      <trkpt lat="47.00816" lon="8.87192">
        <ele>1443</ele>
        <time>2021-08-03T10:54:12.627Z</time>
      </trkpt>
      <trkpt lat="47.00815" lon="8.87192">
        <ele>1443</ele>
        <time>2021-08-03T10:54:13.627Z</time>
      </trkpt>
      <trkpt lat="47.00814" lon="8.87193">
        <ele>1443</ele>
        <time>2021-08-03T10:54:14.627Z</time>
      </trkpt>
      <trkpt lat="47.00813" lon="8.87193">
        <ele>1443</ele>
        <time>2021-08-03T10:54:15.627Z</time>
      </trkpt>
      <trkpt lat="47.00812" lon="8.87193">
        <ele>1444</ele>
        <time>2021-08-03T10:54:16.627Z</time>
      </trkpt>
      <trkpt lat="47.00812" lon="8.87194">
        <ele>1444</ele>
        <time>2021-08-03T10:54:17.628Z</time>
      </trkpt>
      <trkpt lat="47.00811" lon="8.87194">
        <ele>1444</ele>
        <time>2021-08-03T10:54:18.627Z</time>
      </trkpt>
      <trkpt lat="47.0081" lon="8.87194">
        <ele>1444</ele>
        <time>2021-08-03T10:54:19.627Z</time>
      </trkpt>
      <trkpt lat="47.00809" lon="8.87195">
        <ele>1444</ele>
        <time>2021-08-03T10:54:20.628Z</time>
      </trkpt>
      <trkpt lat="47.00809" lon="8.87195">
        <ele>1445</ele>
        <time>2021-08-03T10:54:21.628Z</time>
      </trkpt>
      <trkpt lat="47.00808" lon="8.87195">
        <ele>1446</ele>
        <time>2021-08-03T10:54:23.719Z</time>
      </trkpt>
      <trkpt lat="47.00807" lon="8.87196">
        <ele>1446</ele>
        <time>2021-08-03T10:54:24.718Z</time>
      </trkpt>
      <trkpt lat="47.00806" lon="8.87196">
        <ele>1446</ele>
        <time>2021-08-03T10:54:33.614Z</time>
      </trkpt>
      <trkpt lat="47.00806" lon="8.87196">
        <ele>1446</ele>
        <time>2021-08-03T10:54:34.614Z</time>
      </trkpt>
      <trkpt lat="47.00805" lon="8.87197">
        <ele>1447</ele>
        <time>2021-08-03T10:54:35.614Z</time>
      </trkpt>
      <trkpt lat="47.00804" lon="8.87198">
        <ele>1447</ele>
        <time>2021-08-03T10:54:36.614Z</time>
      </trkpt>
      <trkpt lat="47.00804" lon="8.87199">
        <ele>1447</ele>
        <time>2021-08-03T10:54:37.614Z</time>
      </trkpt>
      <trkpt lat="47.00803" lon="8.87199">
        <ele>1447</ele>
        <time>2021-08-03T10:54:38.614Z</time>
      </trkpt>
      <trkpt lat="47.00802" lon="8.872">
        <ele>1447</ele>
        <time>2021-08-03T10:54:39.613Z</time>
      </trkpt>
      <trkpt lat="47.00801" lon="8.872">
        <ele>1446</ele>
        <time>2021-08-03T10:54:40.614Z</time>
      </trkpt>
      <trkpt lat="47.008" lon="8.872">
        <ele>1446</ele>
        <time>2021-08-03T10:54:41.614Z</time>
      </trkpt>
      <trkpt lat="47.008" lon="8.87201">
        <ele>1447</ele>
        <time>2021-08-03T10:54:42.614Z</time>
      </trkpt>
      <trkpt lat="47.00799" lon="8.87201">
        <ele>1447</ele>
        <time>2021-08-03T10:54:43.614Z</time>
      </trkpt>
      <trkpt lat="47.00798" lon="8.872">
        <ele>1447</ele>
        <time>2021-08-03T10:54:44.613Z</time>
      </trkpt>
      <trkpt lat="47.00797" lon="8.872">
        <ele>1448</ele>
        <time>2021-08-03T10:54:45.613Z</time>
      </trkpt>
      <trkpt lat="47.00796" lon="8.872">
        <ele>1448</ele>
        <time>2021-08-03T10:54:46.614Z</time>
      </trkpt>
      <trkpt lat="47.00795" lon="8.872">
        <ele>1448</ele>
        <time>2021-08-03T10:54:47.614Z</time>
      </trkpt>
      <trkpt lat="47.00794" lon="8.872">
        <ele>1448</ele>
        <time>2021-08-03T10:54:48.614Z</time>
      </trkpt>
      <trkpt lat="47.00794" lon="8.872">
        <ele>1448</ele>
        <time>2021-08-03T10:54:49.614Z</time>
      </trkpt>
      <trkpt lat="47.00793" lon="8.872">
        <ele>1448</ele>
        <time>2021-08-03T10:54:50.614Z</time>
      </trkpt>
      <trkpt lat="47.00792" lon="8.872">
        <ele>1449</ele>
        <time>2021-08-03T10:54:51.614Z</time>
      </trkpt>
      <trkpt lat="47.00791" lon="8.872">
        <ele>1449</ele>
        <time>2021-08-03T10:54:52.614Z</time>
      </trkpt>
      <trkpt lat="47.00791" lon="8.872">
        <ele>1450</ele>
        <time>2021-08-03T10:54:53.613Z</time>
      </trkpt>
      <trkpt lat="47.0079" lon="8.872">
        <ele>1450</ele>
        <time>2021-08-03T10:54:54.614Z</time>
      </trkpt>
      <trkpt lat="47.00789" lon="8.872">
        <ele>1451</ele>
        <time>2021-08-03T10:54:55.613Z</time>
      </trkpt>
      <trkpt lat="47.00788" lon="8.87199">
        <ele>1451</ele>
        <time>2021-08-03T10:54:56.614Z</time>
      </trkpt>
      <trkpt lat="47.00787" lon="8.872">
        <ele>1451</ele>
        <time>2021-08-03T10:54:57.614Z</time>
      </trkpt>
      <trkpt lat="47.00786" lon="8.872">
        <ele>1451</ele>
        <time>2021-08-03T10:54:58.613Z</time>
      </trkpt>
      <trkpt lat="47.00785" lon="8.87201">
        <ele>1451</ele>
        <time>2021-08-03T10:54:59.614Z</time>
      </trkpt>
      <trkpt lat="47.00784" lon="8.87202">
        <ele>1451</ele>
        <time>2021-08-03T10:55:00.614Z</time>
      </trkpt>
      <trkpt lat="47.00784" lon="8.87203">
        <ele>1451</ele>
        <time>2021-08-03T10:55:01.614Z</time>
      </trkpt>
      <trkpt lat="47.00783" lon="8.87203">
        <ele>1451</ele>
        <time>2021-08-03T10:55:02.614Z</time>
      </trkpt>
      <trkpt lat="47.00782" lon="8.87204">
        <ele>1451</ele>
        <time>2021-08-03T10:55:03.614Z</time>
      </trkpt>
      <trkpt lat="47.00781" lon="8.87205">
        <ele>1451</ele>
        <time>2021-08-03T10:55:04.613Z</time>
      </trkpt>
      <trkpt lat="47.0078" lon="8.87205">
        <ele>1450</ele>
        <time>2021-08-03T10:55:05.613Z</time>
      </trkpt>
      <trkpt lat="47.00779" lon="8.87206">
        <ele>1450</ele>
        <time>2021-08-03T10:55:06.613Z</time>
      </trkpt>
      <trkpt lat="47.00778" lon="8.87206">
        <ele>1450</ele>
        <time>2021-08-03T10:55:07.614Z</time>
      </trkpt>
      <trkpt lat="47.00777" lon="8.87207">
        <ele>1450</ele>
        <time>2021-08-03T10:55:08.614Z</time>
      </trkpt>
      <trkpt lat="47.00776" lon="8.87207">
        <ele>1449</ele>
        <time>2021-08-03T10:55:09.613Z</time>
      </trkpt>
      <trkpt lat="47.00775" lon="8.87208">
        <ele>1449</ele>
        <time>2021-08-03T10:55:10.614Z</time>
      </trkpt>
      <trkpt lat="47.00774" lon="8.87208">
        <ele>1449</ele>
        <time>2021-08-03T10:55:11.614Z</time>
      </trkpt>
      <trkpt lat="47.00773" lon="8.87208">
        <ele>1449</ele>
        <time>2021-08-03T10:55:12.613Z</time>
      </trkpt>
      <trkpt lat="47.00772" lon="8.87208">
        <ele>1449</ele>
        <time>2021-08-03T10:55:13.614Z</time>
      </trkpt>
      <trkpt lat="47.00772" lon="8.87208">
        <ele>1449</ele>
        <time>2021-08-03T10:55:14.614Z</time>
      </trkpt>
      <trkpt lat="47.00771" lon="8.87208">
        <ele>1449</ele>
        <time>2021-08-03T10:55:15.614Z</time>
      </trkpt>
      <trkpt lat="47.0077" lon="8.87208">
        <ele>1449</ele>
        <time>2021-08-03T10:55:16.614Z</time>
      </trkpt>
      <trkpt lat="47.00769" lon="8.87208">
        <ele>1449</ele>
        <time>2021-08-03T10:55:17.614Z</time>
      </trkpt>
      <trkpt lat="47.00769" lon="8.87208">
        <ele>1449</ele>
        <time>2021-08-03T10:55:18.613Z</time>
      </trkpt>
      <trkpt lat="47.00768" lon="8.87209">
        <ele>1449</ele>
        <time>2021-08-03T10:55:19.614Z</time>
      </trkpt>
      <trkpt lat="47.00767" lon="8.87209">
        <ele>1450</ele>
        <time>2021-08-03T10:55:20.613Z</time>
      </trkpt>
      <trkpt lat="47.00766" lon="8.87209">
        <ele>1450</ele>
        <time>2021-08-03T10:55:21.614Z</time>
      </trkpt>
      <trkpt lat="47.00765" lon="8.87209">
        <ele>1450</ele>
        <time>2021-08-03T10:55:22.614Z</time>
      </trkpt>
      <trkpt lat="47.00764" lon="8.87209">
        <ele>1450</ele>
        <time>2021-08-03T10:55:23.614Z</time>
      </trkpt>
      <trkpt lat="47.00763" lon="8.87209">
        <ele>1450</ele>
        <time>2021-08-03T10:55:24.614Z</time>
      </trkpt>
      <trkpt lat="47.00762" lon="8.87209">
        <ele>1450</ele>
        <time>2021-08-03T10:55:25.613Z</time>
      </trkpt>
      <trkpt lat="47.00761" lon="8.87209">
        <ele>1450</ele>
        <time>2021-08-03T10:55:26.614Z</time>
      </trkpt>
      <trkpt lat="47.0076" lon="8.87209">
        <ele>1451</ele>
        <time>2021-08-03T10:55:27.614Z</time>
      </trkpt>
      <trkpt lat="47.00759" lon="8.8721">
        <ele>1451</ele>
        <time>2021-08-03T10:55:28.613Z</time>
      </trkpt>
      <trkpt lat="47.00758" lon="8.8721">
        <ele>1451</ele>
        <time>2021-08-03T10:55:29.614Z</time>
      </trkpt>
      <trkpt lat="47.00758" lon="8.87209">
        <ele>1451</ele>
        <time>2021-08-03T10:55:30.613Z</time>
      </trkpt>
      <trkpt lat="47.00757" lon="8.87209">
        <ele>1451</ele>
        <time>2021-08-03T10:55:31.614Z</time>
      </trkpt>
      <trkpt lat="47.00757" lon="8.87208">
        <ele>1451</ele>
        <time>2021-08-03T10:55:32.614Z</time>
      </trkpt>
      <trkpt lat="47.00756" lon="8.87208">
        <ele>1451</ele>
        <time>2021-08-03T10:55:33.614Z</time>
      </trkpt>
      <trkpt lat="47.00755" lon="8.87208">
        <ele>1450</ele>
        <time>2021-08-03T10:55:34.614Z</time>
      </trkpt>
      <trkpt lat="47.00755" lon="8.87208">
        <ele>1450</ele>
        <time>2021-08-03T10:55:35.614Z</time>
      </trkpt>
      <trkpt lat="47.00754" lon="8.87208">
        <ele>1449</ele>
        <time>2021-08-03T10:55:36.613Z</time>
      </trkpt>
      <trkpt lat="47.00753" lon="8.87208">
        <ele>1449</ele>
        <time>2021-08-03T10:55:37.613Z</time>
      </trkpt>
      <trkpt lat="47.00753" lon="8.87208">
        <ele>1449</ele>
        <time>2021-08-03T10:55:38.614Z</time>
      </trkpt>
      <trkpt lat="47.00752" lon="8.87207">
        <ele>1449</ele>
        <time>2021-08-03T10:55:39.614Z</time>
      </trkpt>
      <trkpt lat="47.00752" lon="8.87207">
        <ele>1449</ele>
        <time>2021-08-03T10:55:40.614Z</time>
      </trkpt>
      <trkpt lat="47.00751" lon="8.87207">
        <ele>1449</ele>
        <time>2021-08-03T10:55:41.614Z</time>
      </trkpt>
      <trkpt lat="47.0075" lon="8.87207">
        <ele>1449</ele>
        <time>2021-08-03T10:55:42.614Z</time>
      </trkpt>
      <trkpt lat="47.0075" lon="8.87207">
        <ele>1449</ele>
        <time>2021-08-03T10:55:43.614Z</time>
      </trkpt>
      <trkpt lat="47.00749" lon="8.87207">
        <ele>1449</ele>
        <time>2021-08-03T10:55:44.614Z</time>
      </trkpt>
      <trkpt lat="47.00748" lon="8.87207">
        <ele>1449</ele>
        <time>2021-08-03T10:55:45.614Z</time>
      </trkpt>
      <trkpt lat="47.00748" lon="8.87206">
        <ele>1449</ele>
        <time>2021-08-03T10:55:46.614Z</time>
      </trkpt>
      <trkpt lat="47.00747" lon="8.87206">
        <ele>1450</ele>
        <time>2021-08-03T10:55:50.729Z</time>
      </trkpt>
      <trkpt lat="47.00746" lon="8.87206">
        <ele>1451</ele>
        <time>2021-08-03T10:55:51.730Z</time>
      </trkpt>
      <trkpt lat="47.00746" lon="8.87206">
        <ele>1451</ele>
        <time>2021-08-03T10:55:52.729Z</time>
      </trkpt>
      <trkpt lat="47.00745" lon="8.87206">
        <ele>1452</ele>
        <time>2021-08-03T10:55:53.729Z</time>
      </trkpt>
      <trkpt lat="47.00744" lon="8.87206">
        <ele>1452</ele>
        <time>2021-08-03T10:55:54.729Z</time>
      </trkpt>
      <trkpt lat="47.00743" lon="8.87206">
        <ele>1452</ele>
        <time>2021-08-03T10:55:55.730Z</time>
      </trkpt>
      <trkpt lat="47.00743" lon="8.87206">
        <ele>1453</ele>
        <time>2021-08-03T10:55:56.730Z</time>
      </trkpt>
      <trkpt lat="47.00742" lon="8.87206">
        <ele>1453</ele>
        <time>2021-08-03T10:55:57.730Z</time>
      </trkpt>
      <trkpt lat="47.00741" lon="8.87206">
        <ele>1454</ele>
        <time>2021-08-03T10:55:58.730Z</time>
      </trkpt>
      <trkpt lat="47.00741" lon="8.87205">
        <ele>1454</ele>
        <time>2021-08-03T10:55:59.729Z</time>
      </trkpt>
      <trkpt lat="47.0074" lon="8.87205">
        <ele>1455</ele>
        <time>2021-08-03T10:56:00.729Z</time>
      </trkpt>
      <trkpt lat="47.00739" lon="8.87205">
        <ele>1455</ele>
        <time>2021-08-03T10:56:01.730Z</time>
      </trkpt>
      <trkpt lat="47.00738" lon="8.87205">
        <ele>1455</ele>
        <time>2021-08-03T10:56:02.730Z</time>
      </trkpt>
      <trkpt lat="47.00737" lon="8.87205">
        <ele>1455</ele>
        <time>2021-08-03T10:56:03.730Z</time>
      </trkpt>
      <trkpt lat="47.00736" lon="8.87205">
        <ele>1456</ele>
        <time>2021-08-03T10:56:04.730Z</time>
      </trkpt>
      <trkpt lat="47.00736" lon="8.87205">
        <ele>1456</ele>
        <time>2021-08-03T10:56:05.729Z</time>
      </trkpt>
      <trkpt lat="47.00735" lon="8.87205">
        <ele>1456</ele>
        <time>2021-08-03T10:56:06.730Z</time>
      </trkpt>
      <trkpt lat="47.00734" lon="8.87204">
        <ele>1456</ele>
        <time>2021-08-03T10:56:07.730Z</time>
      </trkpt>
      <trkpt lat="47.00734" lon="8.87204">
        <ele>1456</ele>
        <time>2021-08-03T10:56:08.730Z</time>
      </trkpt>
      <trkpt lat="47.00733" lon="8.87204">
        <ele>1457</ele>
        <time>2021-08-03T10:56:09.730Z</time>
      </trkpt>
      <trkpt lat="47.00732" lon="8.87204">
        <ele>1457</ele>
        <time>2021-08-03T10:56:10.730Z</time>
      </trkpt>
      <trkpt lat="47.00732" lon="8.87203">
        <ele>1457</ele>
        <time>2021-08-03T10:56:11.730Z</time>
      </trkpt>
      <trkpt lat="47.00731" lon="8.87203">
        <ele>1458</ele>
        <time>2021-08-03T10:56:12.730Z</time>
      </trkpt>
      <trkpt lat="47.0073" lon="8.87202">
        <ele>1458</ele>
        <time>2021-08-03T10:56:13.730Z</time>
      </trkpt>
      <trkpt lat="47.00729" lon="8.87202">
        <ele>1458</ele>
        <time>2021-08-03T10:56:14.730Z</time>
      </trkpt>
      <trkpt lat="47.00729" lon="8.87202">
        <ele>1458</ele>
        <time>2021-08-03T10:56:15.730Z</time>
      </trkpt>
      <trkpt lat="47.00728" lon="8.87202">
        <ele>1458</ele>
        <time>2021-08-03T10:56:46.834Z</time>
      </trkpt>
      <trkpt lat="47.00728" lon="8.87201">
        <ele>1459</ele>
        <time>2021-08-03T10:56:47.834Z</time>
      </trkpt>
      <trkpt lat="47.00727" lon="8.87201">
        <ele>1460</ele>
        <time>2021-08-03T10:56:58.628Z</time>
      </trkpt>
      <trkpt lat="47.00727" lon="8.872">
        <ele>1460</ele>
        <time>2021-08-03T10:56:59.629Z</time>
      </trkpt>
      <trkpt lat="47.00727" lon="8.87199">
        <ele>1461</ele>
        <time>2021-08-03T10:57:00.629Z</time>
      </trkpt>
      <trkpt lat="47.00726" lon="8.87198">
        <ele>1462</ele>
        <time>2021-08-03T10:57:01.629Z</time>
      </trkpt>
      <trkpt lat="47.00725" lon="8.87197">
        <ele>1462</ele>
        <time>2021-08-03T10:57:02.629Z</time>
      </trkpt>
      <trkpt lat="47.00725" lon="8.87196">
        <ele>1463</ele>
        <time>2021-08-03T10:57:03.628Z</time>
      </trkpt>
      <trkpt lat="47.00724" lon="8.87195">
        <ele>1463</ele>
        <time>2021-08-03T10:57:04.629Z</time>
      </trkpt>
      <trkpt lat="47.00724" lon="8.87194">
        <ele>1462</ele>
        <time>2021-08-03T10:57:05.628Z</time>
      </trkpt>
      <trkpt lat="47.00724" lon="8.87194">
        <ele>1462</ele>
        <time>2021-08-03T10:57:06.629Z</time>
      </trkpt>
      <trkpt lat="47.00724" lon="8.87193">
        <ele>1461</ele>
        <time>2021-08-03T10:57:07.629Z</time>
      </trkpt>
      <trkpt lat="47.00724" lon="8.87192">
        <ele>1461</ele>
        <time>2021-08-03T10:57:08.629Z</time>
      </trkpt>
      <trkpt lat="47.00723" lon="8.87192">
        <ele>1461</ele>
        <time>2021-08-03T10:57:09.628Z</time>
      </trkpt>
      <trkpt lat="47.00723" lon="8.87191">
        <ele>1461</ele>
        <time>2021-08-03T10:57:10.629Z</time>
      </trkpt>
      <trkpt lat="47.00722" lon="8.87191">
        <ele>1460</ele>
        <time>2021-08-03T10:57:11.629Z</time>
      </trkpt>
      <trkpt lat="47.00722" lon="8.8719">
        <ele>1460</ele>
        <time>2021-08-03T10:57:12.628Z</time>
      </trkpt>
      <trkpt lat="47.00722" lon="8.8719">
        <ele>1459</ele>
        <time>2021-08-03T10:57:13.628Z</time>
      </trkpt>
      <trkpt lat="47.00721" lon="8.8719">
        <ele>1459</ele>
        <time>2021-08-03T10:57:14.629Z</time>
      </trkpt>
      <trkpt lat="47.0072" lon="8.8719">
        <ele>1458</ele>
        <time>2021-08-03T10:57:15.629Z</time>
      </trkpt>
      <trkpt lat="47.00719" lon="8.87189">
        <ele>1458</ele>
        <time>2021-08-03T10:57:16.629Z</time>
      </trkpt>
      <trkpt lat="47.00718" lon="8.87189">
        <ele>1457</ele>
        <time>2021-08-03T10:57:17.628Z</time>
      </trkpt>
      <trkpt lat="47.00718" lon="8.87189">
        <ele>1456</ele>
        <time>2021-08-03T10:57:18.629Z</time>
      </trkpt>
      <trkpt lat="47.00717" lon="8.87189">
        <ele>1456</ele>
        <time>2021-08-03T10:57:19.629Z</time>
      </trkpt>
      <trkpt lat="47.00716" lon="8.87189">
        <ele>1455</ele>
        <time>2021-08-03T10:57:20.629Z</time>
      </trkpt>
      <trkpt lat="47.00715" lon="8.87189">
        <ele>1455</ele>
        <time>2021-08-03T10:57:21.628Z</time>
      </trkpt>
      <trkpt lat="47.00714" lon="8.87189">
        <ele>1455</ele>
        <time>2021-08-03T10:57:22.628Z</time>
      </trkpt>
      <trkpt lat="47.00713" lon="8.8719">
        <ele>1455</ele>
        <time>2021-08-03T10:57:23.629Z</time>
      </trkpt>
      <trkpt lat="47.00712" lon="8.8719">
        <ele>1455</ele>
        <time>2021-08-03T10:57:24.629Z</time>
      </trkpt>
      <trkpt lat="47.00712" lon="8.8719">
        <ele>1455</ele>
        <time>2021-08-03T10:57:25.628Z</time>
      </trkpt>
      <trkpt lat="47.00711" lon="8.8719">
        <ele>1455</ele>
        <time>2021-08-03T10:57:26.629Z</time>
      </trkpt>
      <trkpt lat="47.00711" lon="8.87191">
        <ele>1455</ele>
        <time>2021-08-03T10:57:27.628Z</time>
      </trkpt>
      <trkpt lat="47.0071" lon="8.87191">
        <ele>1455</ele>
        <time>2021-08-03T10:57:28.629Z</time>
      </trkpt>
      <trkpt lat="47.0071" lon="8.87191">
        <ele>1455</ele>
        <time>2021-08-03T10:57:29.628Z</time>
      </trkpt>
      <trkpt lat="47.00709" lon="8.87191">
        <ele>1455</ele>
        <time>2021-08-03T10:57:30.629Z</time>
      </trkpt>
      <trkpt lat="47.00708" lon="8.87191">
        <ele>1455</ele>
        <time>2021-08-03T10:57:31.629Z</time>
      </trkpt>
      <trkpt lat="47.00708" lon="8.87191">
        <ele>1455</ele>
        <time>2021-08-03T10:57:32.628Z</time>
      </trkpt>
      <trkpt lat="47.00707" lon="8.87192">
        <ele>1456</ele>
        <time>2021-08-03T10:57:33.629Z</time>
      </trkpt>
      <trkpt lat="47.00706" lon="8.87192">
        <ele>1456</ele>
        <time>2021-08-03T10:57:34.628Z</time>
      </trkpt>
      <trkpt lat="47.00706" lon="8.87192">
        <ele>1456</ele>
        <time>2021-08-03T10:57:35.628Z</time>
      </trkpt>
      <trkpt lat="47.00705" lon="8.87192">
        <ele>1456</ele>
        <time>2021-08-03T10:57:36.629Z</time>
      </trkpt>
      <trkpt lat="47.00704" lon="8.87193">
        <ele>1456</ele>
        <time>2021-08-03T10:57:37.628Z</time>
      </trkpt>
      <trkpt lat="47.00704" lon="8.87193">
        <ele>1455</ele>
        <time>2021-08-03T10:57:49.750Z</time>
      </trkpt>
      <trkpt lat="47.00703" lon="8.87193">
        <ele>1455</ele>
        <time>2021-08-03T10:57:52.582Z</time>
      </trkpt>
      <trkpt lat="47.00703" lon="8.87193">
        <ele>1455</ele>
        <time>2021-08-03T10:57:53.582Z</time>
      </trkpt>
      <trkpt lat="47.00702" lon="8.87193">
        <ele>1455</ele>
        <time>2021-08-03T10:57:54.582Z</time>
      </trkpt>
      <trkpt lat="47.00701" lon="8.87193">
        <ele>1455</ele>
        <time>2021-08-03T10:57:59.712Z</time>
      </trkpt>
      <trkpt lat="47.00701" lon="8.87193">
        <ele>1455</ele>
        <time>2021-08-03T10:58:13.599Z</time>
      </trkpt>
      <trkpt lat="47.007" lon="8.87193">
        <ele>1456</ele>
        <time>2021-08-03T10:58:14.599Z</time>
      </trkpt>
      <trkpt lat="47.007" lon="8.87192">
        <ele>1457</ele>
        <time>2021-08-03T10:58:15.599Z</time>
      </trkpt>
      <trkpt lat="47.007" lon="8.87192">
        <ele>1458</ele>
        <time>2021-08-03T10:58:16.599Z</time>
      </trkpt>
      <trkpt lat="47.00699" lon="8.87192">
        <ele>1459</ele>
        <time>2021-08-03T10:58:17.599Z</time>
      </trkpt>
      <trkpt lat="47.00698" lon="8.87191">
        <ele>1460</ele>
        <time>2021-08-03T10:58:18.600Z</time>
      </trkpt>
      <trkpt lat="47.00698" lon="8.8719">
        <ele>1461</ele>
        <time>2021-08-03T10:58:19.599Z</time>
      </trkpt>
      <trkpt lat="47.00698" lon="8.8719">
        <ele>1461</ele>
        <time>2021-08-03T10:58:20.599Z</time>
      </trkpt>
      <trkpt lat="47.00697" lon="8.8719">
        <ele>1461</ele>
        <time>2021-08-03T10:58:21.599Z</time>
      </trkpt>
      <trkpt lat="47.00696" lon="8.8719">
        <ele>1461</ele>
        <time>2021-08-03T10:58:22.600Z</time>
      </trkpt>
      <trkpt lat="47.00696" lon="8.8719">
        <ele>1461</ele>
        <time>2021-08-03T10:58:23.600Z</time>
      </trkpt>
      <trkpt lat="47.00695" lon="8.8719">
        <ele>1461</ele>
        <time>2021-08-03T10:58:24.599Z</time>
      </trkpt>
      <trkpt lat="47.00695" lon="8.8719">
        <ele>1461</ele>
        <time>2021-08-03T10:58:25.600Z</time>
      </trkpt>
      <trkpt lat="47.00694" lon="8.8719">
        <ele>1461</ele>
        <time>2021-08-03T10:58:26.600Z</time>
      </trkpt>
      <trkpt lat="47.00694" lon="8.8719">
        <ele>1461</ele>
        <time>2021-08-03T10:58:27.600Z</time>
      </trkpt>
      <trkpt lat="47.00693" lon="8.8719">
        <ele>1461</ele>
        <time>2021-08-03T10:58:28.600Z</time>
      </trkpt>
      <trkpt lat="47.00693" lon="8.8719">
        <ele>1461</ele>
        <time>2021-08-03T10:58:29.600Z</time>
      </trkpt>
      <trkpt lat="47.00692" lon="8.87191">
        <ele>1461</ele>
        <time>2021-08-03T10:58:30.600Z</time>
      </trkpt>
      <trkpt lat="47.00692" lon="8.87191">
        <ele>1461</ele>
        <time>2021-08-03T10:58:31.600Z</time>
      </trkpt>
      <trkpt lat="47.00691" lon="8.87191">
        <ele>1461</ele>
        <time>2021-08-03T10:58:32.599Z</time>
      </trkpt>
      <trkpt lat="47.0069" lon="8.87191">
        <ele>1461</ele>
        <time>2021-08-03T10:58:40.743Z</time>
      </trkpt>
      <trkpt lat="47.0069" lon="8.87191">
        <ele>1462</ele>
        <time>2021-08-03T10:58:41.743Z</time>
      </trkpt>
      <trkpt lat="47.00689" lon="8.87191">
        <ele>1462</ele>
        <time>2021-08-03T10:58:42.743Z</time>
      </trkpt>
      <trkpt lat="47.00689" lon="8.87191">
        <ele>1463</ele>
        <time>2021-08-03T10:58:43.743Z</time>
      </trkpt>
      <trkpt lat="47.00688" lon="8.87191">
        <ele>1464</ele>
        <time>2021-08-03T10:58:44.743Z</time>
      </trkpt>
      <trkpt lat="47.00687" lon="8.87191">
        <ele>1465</ele>
        <time>2021-08-03T10:59:01.845Z</time>
      </trkpt>
      <trkpt lat="47.00686" lon="8.87191">
        <ele>1465</ele>
        <time>2021-08-03T10:59:02.846Z</time>
      </trkpt>
      <trkpt lat="47.00685" lon="8.87191">
        <ele>1466</ele>
        <time>2021-08-03T10:59:03.846Z</time>
      </trkpt>
      <trkpt lat="47.00685" lon="8.8719">
        <ele>1466</ele>
        <time>2021-08-03T10:59:04.846Z</time>
      </trkpt>
      <trkpt lat="47.00684" lon="8.8719">
        <ele>1467</ele>
        <time>2021-08-03T10:59:05.846Z</time>
      </trkpt>
      <trkpt lat="47.00683" lon="8.8719">
        <ele>1467</ele>
        <time>2021-08-03T10:59:06.845Z</time>
      </trkpt>
      <trkpt lat="47.00683" lon="8.87189">
        <ele>1466</ele>
        <time>2021-08-03T10:59:23.952Z</time>
      </trkpt>
      <trkpt lat="47.00682" lon="8.87189">
        <ele>1466</ele>
        <time>2021-08-03T10:59:24.952Z</time>
      </trkpt>
      <trkpt lat="47.00682" lon="8.87189">
        <ele>1465</ele>
        <time>2021-08-03T10:59:25.953Z</time>
      </trkpt>
      <trkpt lat="47.00681" lon="8.87189">
        <ele>1465</ele>
        <time>2021-08-03T10:59:26.952Z</time>
      </trkpt>
      <trkpt lat="47.00681" lon="8.87188">
        <ele>1465</ele>
        <time>2021-08-03T10:59:27.952Z</time>
      </trkpt>
      <trkpt lat="47.0068" lon="8.87188">
        <ele>1465</ele>
        <time>2021-08-03T10:59:28.953Z</time>
      </trkpt>
      <trkpt lat="47.0068" lon="8.87187">
        <ele>1464</ele>
        <time>2021-08-03T10:59:29.953Z</time>
      </trkpt>
      <trkpt lat="47.00679" lon="8.87187">
        <ele>1464</ele>
        <time>2021-08-03T10:59:30.953Z</time>
      </trkpt>
      <trkpt lat="47.00678" lon="8.87187">
        <ele>1464</ele>
        <time>2021-08-03T10:59:31.953Z</time>
      </trkpt>
      <trkpt lat="47.00678" lon="8.87188">
        <ele>1465</ele>
        <time>2021-08-03T10:59:32.952Z</time>
      </trkpt>
      <trkpt lat="47.00677" lon="8.87188">
        <ele>1465</ele>
        <time>2021-08-03T10:59:33.953Z</time>
      </trkpt>
      <trkpt lat="47.00677" lon="8.87188">
        <ele>1465</ele>
        <time>2021-08-03T10:59:34.953Z</time>
      </trkpt>
      <trkpt lat="47.00677" lon="8.87188">
        <ele>1465</ele>
        <time>2021-08-03T10:59:35.953Z</time>
      </trkpt>
      <trkpt lat="47.00676" lon="8.87189">
        <ele>1466</ele>
        <time>2021-08-03T10:59:36.952Z</time>
      </trkpt>
      <trkpt lat="47.00676" lon="8.8719">
        <ele>1466</ele>
        <time>2021-08-03T10:59:37.952Z</time>
      </trkpt>
      <trkpt lat="47.00675" lon="8.87189">
        <ele>1475</ele>
        <time>2021-08-03T10:59:38.953Z</time>
      </trkpt>
      <trkpt lat="47.00674" lon="8.87188">
        <ele>1476</ele>
        <time>2021-08-03T10:59:39.953Z</time>
      </trkpt>
      <trkpt lat="47.00674" lon="8.87188">
        <ele>1476</ele>
        <time>2021-08-03T10:59:40.952Z</time>
      </trkpt>
      <trkpt lat="47.00673" lon="8.87187">
        <ele>1476</ele>
        <time>2021-08-03T10:59:41.952Z</time>
      </trkpt>
      <trkpt lat="47.00673" lon="8.87187">
        <ele>1476</ele>
        <time>2021-08-03T10:59:42.952Z</time>
      </trkpt>
      <trkpt lat="47.00672" lon="8.87186">
        <ele>1477</ele>
        <time>2021-08-03T10:59:43.953Z</time>
      </trkpt>
      <trkpt lat="47.00671" lon="8.87185">
        <ele>1477</ele>
        <time>2021-08-03T10:59:44.953Z</time>
      </trkpt>
      <trkpt lat="47.00671" lon="8.87184">
        <ele>1477</ele>
        <time>2021-08-03T10:59:45.953Z</time>
      </trkpt>
      <trkpt lat="47.0067" lon="8.87183">
        <ele>1477</ele>
        <time>2021-08-03T10:59:46.952Z</time>
      </trkpt>
      <trkpt lat="47.00669" lon="8.87182">
        <ele>1477</ele>
        <time>2021-08-03T10:59:47.952Z</time>
      </trkpt>
      <trkpt lat="47.00669" lon="8.87181">
        <ele>1477</ele>
        <time>2021-08-03T10:59:48.953Z</time>
      </trkpt>
      <trkpt lat="47.00668" lon="8.87181">
        <ele>1477</ele>
        <time>2021-08-03T10:59:49.952Z</time>
      </trkpt>
      <trkpt lat="47.00667" lon="8.87181">
        <ele>1477</ele>
        <time>2021-08-03T10:59:50.953Z</time>
      </trkpt>
      <trkpt lat="47.00667" lon="8.8718">
        <ele>1476</ele>
        <time>2021-08-03T10:59:51.952Z</time>
      </trkpt>
      <trkpt lat="47.00666" lon="8.8718">
        <ele>1475</ele>
        <time>2021-08-03T10:59:52.953Z</time>
      </trkpt>
      <trkpt lat="47.00666" lon="8.87179">
        <ele>1474</ele>
        <time>2021-08-03T10:59:53.952Z</time>
      </trkpt>
      <trkpt lat="47.00665" lon="8.87179">
        <ele>1474</ele>
        <time>2021-08-03T10:59:54.953Z</time>
      </trkpt>
      <trkpt lat="47.00665" lon="8.87179">
        <ele>1474</ele>
        <time>2021-08-03T10:59:55.953Z</time>
      </trkpt>
      <trkpt lat="47.00665" lon="8.87178">
        <ele>1474</ele>
        <time>2021-08-03T10:59:56.953Z</time>
      </trkpt>
      <trkpt lat="47.00664" lon="8.87178">
        <ele>1474</ele>
        <time>2021-08-03T10:59:57.952Z</time>
      </trkpt>
      <trkpt lat="47.00664" lon="8.87177">
        <ele>1474</ele>
        <time>2021-08-03T10:59:58.953Z</time>
      </trkpt>
      <trkpt lat="47.00664" lon="8.87177">
        <ele>1475</ele>
        <time>2021-08-03T10:59:59.953Z</time>
      </trkpt>
      <trkpt lat="47.00665" lon="8.87178">
        <ele>1468</ele>
        <time>2021-08-03T11:00:00.952Z</time>
      </trkpt>
      <trkpt lat="47.00665" lon="8.87178">
        <ele>1467</ele>
        <time>2021-08-03T11:00:01.952Z</time>
      </trkpt>
      <trkpt lat="47.00665" lon="8.87178">
        <ele>1467</ele>
        <time>2021-08-03T11:00:02.952Z</time>
      </trkpt>
      <trkpt lat="47.00665" lon="8.87178">
        <ele>1466</ele>
        <time>2021-08-03T11:00:03.952Z</time>
      </trkpt>
      <trkpt lat="47.00665" lon="8.87178">
        <ele>1466</ele>
        <time>2021-08-03T11:00:04.952Z</time>
      </trkpt>
      <trkpt lat="47.00665" lon="8.87177">
        <ele>1465</ele>
        <time>2021-08-03T11:00:05.953Z</time>
      </trkpt>
      <trkpt lat="47.00665" lon="8.87176">
        <ele>1464</ele>
        <time>2021-08-03T11:00:06.952Z</time>
      </trkpt>
      <trkpt lat="47.00665" lon="8.87176">
        <ele>1464</ele>
        <time>2021-08-03T11:00:07.952Z</time>
      </trkpt>
      <trkpt lat="47.00665" lon="8.87176">
        <ele>1464</ele>
        <time>2021-08-03T11:00:08.952Z</time>
      </trkpt>
      <trkpt lat="47.00665" lon="8.87175">
        <ele>1464</ele>
        <time>2021-08-03T11:00:09.953Z</time>
      </trkpt>
      <trkpt lat="47.00665" lon="8.87175">
        <ele>1465</ele>
        <time>2021-08-03T11:00:10.952Z</time>
      </trkpt>
      <trkpt lat="47.00665" lon="8.87175">
        <ele>1466</ele>
        <time>2021-08-03T11:00:11.952Z</time>
      </trkpt>
      <trkpt lat="47.00664" lon="8.87175">
        <ele>1468</ele>
        <time>2021-08-03T11:00:12.954Z</time>
      </trkpt>
      <trkpt lat="47.00663" lon="8.87176">
        <ele>1468</ele>
        <time>2021-08-03T11:00:13.955Z</time>
      </trkpt>
      <trkpt lat="47.00662" lon="8.87176">
        <ele>1469</ele>
        <time>2021-08-03T11:00:14.955Z</time>
      </trkpt>
      <trkpt lat="47.00664" lon="8.87174">
        <ele>1475</ele>
        <time>2021-08-03T11:00:15.954Z</time>
      </trkpt>
      <trkpt lat="47.00664" lon="8.87176">
        <ele>1472</ele>
        <time>2021-08-03T11:00:16.955Z</time>
      </trkpt>
      <trkpt lat="47.00664" lon="8.87177">
        <ele>1472</ele>
        <time>2021-08-03T11:00:17.955Z</time>
      </trkpt>
      <trkpt lat="47.00664" lon="8.87178">
        <ele>1472</ele>
        <time>2021-08-03T11:00:18.956Z</time>
      </trkpt>
      <trkpt lat="47.00664" lon="8.87179">
        <ele>1473</ele>
        <time>2021-08-03T11:00:19.955Z</time>
      </trkpt>
      <trkpt lat="47.00663" lon="8.87177">
        <ele>1475</ele>
        <time>2021-08-03T11:00:20.955Z</time>
      </trkpt>
      <trkpt lat="47.00663" lon="8.87176">
        <ele>1475</ele>
        <time>2021-08-03T11:00:21.955Z</time>
      </trkpt>
      <trkpt lat="47.00663" lon="8.87175">
        <ele>1476</ele>
        <time>2021-08-03T11:00:22.955Z</time>
      </trkpt>
      <trkpt lat="47.00663" lon="8.87173">
        <ele>1475</ele>
        <time>2021-08-03T11:00:23.955Z</time>
      </trkpt>
      <trkpt lat="47.00663" lon="8.87173">
        <ele>1475</ele>
        <time>2021-08-03T11:00:24.955Z</time>
      </trkpt>
      <trkpt lat="47.00662" lon="8.87172">
        <ele>1475</ele>
        <time>2021-08-03T11:00:25.955Z</time>
      </trkpt>
      <trkpt lat="47.00662" lon="8.87171">
        <ele>1474</ele>
        <time>2021-08-03T11:00:26.955Z</time>
      </trkpt>
      <trkpt lat="47.00662" lon="8.87171">
        <ele>1474</ele>
        <time>2021-08-03T11:00:27.955Z</time>
      </trkpt>
      <trkpt lat="47.00661" lon="8.8717">
        <ele>1474</ele>
        <time>2021-08-03T11:00:28.955Z</time>
      </trkpt>
      <trkpt lat="47.0066" lon="8.87169">
        <ele>1474</ele>
        <time>2021-08-03T11:00:29.955Z</time>
      </trkpt>
      <trkpt lat="47.00659" lon="8.87168">
        <ele>1475</ele>
        <time>2021-08-03T11:00:30.955Z</time>
      </trkpt>
      <trkpt lat="47.00658" lon="8.87168">
        <ele>1475</ele>
        <time>2021-08-03T11:00:31.955Z</time>
      </trkpt>
      <trkpt lat="47.00657" lon="8.87167">
        <ele>1475</ele>
        <time>2021-08-03T11:00:32.955Z</time>
      </trkpt>
      <trkpt lat="47.00657" lon="8.87167">
        <ele>1476</ele>
        <time>2021-08-03T11:00:33.955Z</time>
      </trkpt>
      <trkpt lat="47.00656" lon="8.87166">
        <ele>1476</ele>
        <time>2021-08-03T11:00:34.955Z</time>
      </trkpt>
      <trkpt lat="47.00655" lon="8.87165">
        <ele>1477</ele>
        <time>2021-08-03T11:00:35.955Z</time>
      </trkpt>
      <trkpt lat="47.00654" lon="8.87164">
        <ele>1478</ele>
        <time>2021-08-03T11:00:36.955Z</time>
      </trkpt>
      <trkpt lat="47.00654" lon="8.87164">
        <ele>1478</ele>
        <time>2021-08-03T11:00:37.955Z</time>
      </trkpt>
      <trkpt lat="47.00653" lon="8.87163">
        <ele>1478</ele>
        <time>2021-08-03T11:00:38.955Z</time>
      </trkpt>
      <trkpt lat="47.00652" lon="8.87163">
        <ele>1478</ele>
        <time>2021-08-03T11:00:39.955Z</time>
      </trkpt>
      <trkpt lat="47.00652" lon="8.87162">
        <ele>1479</ele>
        <time>2021-08-03T11:00:40.955Z</time>
      </trkpt>
      <trkpt lat="47.00651" lon="8.87162">
        <ele>1479</ele>
        <time>2021-08-03T11:00:41.955Z</time>
      </trkpt>
      <trkpt lat="47.00651" lon="8.87161">
        <ele>1479</ele>
        <time>2021-08-03T11:00:42.955Z</time>
      </trkpt>
      <trkpt lat="47.0065" lon="8.87161">
        <ele>1480</ele>
        <time>2021-08-03T11:00:43.955Z</time>
      </trkpt>
      <trkpt lat="47.0065" lon="8.87161">
        <ele>1480</ele>
        <time>2021-08-03T11:00:44.955Z</time>
      </trkpt>
      <trkpt lat="47.0065" lon="8.8716">
        <ele>1480</ele>
        <time>2021-08-03T11:00:45.955Z</time>
      </trkpt>
      <trkpt lat="47.0065" lon="8.8716">
        <ele>1480</ele>
        <time>2021-08-03T11:00:46.955Z</time>
      </trkpt>
      <trkpt lat="47.0065" lon="8.87159">
        <ele>1480</ele>
        <time>2021-08-03T11:00:47.955Z</time>
      </trkpt>
      <trkpt lat="47.0065" lon="8.87159">
        <ele>1480</ele>
        <time>2021-08-03T11:00:48.955Z</time>
      </trkpt>
      <trkpt lat="47.00649" lon="8.87159">
        <ele>1480</ele>
        <time>2021-08-03T11:00:49.955Z</time>
      </trkpt>
      <trkpt lat="47.00649" lon="8.87158">
        <ele>1480</ele>
        <time>2021-08-03T11:00:50.955Z</time>
      </trkpt>
      <trkpt lat="47.00649" lon="8.87158">
        <ele>1480</ele>
        <time>2021-08-03T11:00:51.955Z</time>
      </trkpt>
      <trkpt lat="47.00648" lon="8.87157">
        <ele>1480</ele>
        <time>2021-08-03T11:00:52.955Z</time>
      </trkpt>
      <trkpt lat="47.00648" lon="8.87157">
        <ele>1480</ele>
        <time>2021-08-03T11:00:53.955Z</time>
      </trkpt>
      <trkpt lat="47.00647" lon="8.87157">
        <ele>1479</ele>
        <time>2021-08-03T11:00:54.955Z</time>
      </trkpt>
      <trkpt lat="47.00646" lon="8.87157">
        <ele>1478</ele>
        <time>2021-08-03T11:00:55.955Z</time>
      </trkpt>
      <trkpt lat="47.00645" lon="8.87157">
        <ele>1478</ele>
        <time>2021-08-03T11:00:56.955Z</time>
      </trkpt>
      <trkpt lat="47.00645" lon="8.87157">
        <ele>1477</ele>
        <time>2021-08-03T11:00:57.955Z</time>
      </trkpt>
      <trkpt lat="47.00645" lon="8.87156">
        <ele>1476</ele>
        <time>2021-08-03T11:00:58.955Z</time>
      </trkpt>
      <trkpt lat="47.00645" lon="8.87156">
        <ele>1476</ele>
        <time>2021-08-03T11:00:59.955Z</time>
      </trkpt>
      <trkpt lat="47.00644" lon="8.87155">
        <ele>1476</ele>
        <time>2021-08-03T11:01:00.955Z</time>
      </trkpt>
      <trkpt lat="47.00644" lon="8.87154">
        <ele>1476</ele>
        <time>2021-08-03T11:01:01.955Z</time>
      </trkpt>
      <trkpt lat="47.00643" lon="8.87153">
        <ele>1476</ele>
        <time>2021-08-03T11:01:02.955Z</time>
      </trkpt>
      <trkpt lat="47.00642" lon="8.87152">
        <ele>1476</ele>
        <time>2021-08-03T11:01:03.955Z</time>
      </trkpt>
      <trkpt lat="47.00641" lon="8.87152">
        <ele>1475</ele>
        <time>2021-08-03T11:01:04.955Z</time>
      </trkpt>
      <trkpt lat="47.0064" lon="8.87152">
        <ele>1475</ele>
        <time>2021-08-03T11:01:05.955Z</time>
      </trkpt>
      <trkpt lat="47.00639" lon="8.87152">
        <ele>1475</ele>
        <time>2021-08-03T11:01:06.955Z</time>
      </trkpt>
      <trkpt lat="47.00637" lon="8.87152">
        <ele>1474</ele>
        <time>2021-08-03T11:01:07.955Z</time>
      </trkpt>
      <trkpt lat="47.00636" lon="8.87152">
        <ele>1474</ele>
        <time>2021-08-03T11:01:08.955Z</time>
      </trkpt>
      <trkpt lat="47.00636" lon="8.87152">
        <ele>1474</ele>
        <time>2021-08-03T11:01:09.955Z</time>
      </trkpt>
      <trkpt lat="47.00635" lon="8.87151">
        <ele>1474</ele>
        <time>2021-08-03T11:01:32.976Z</time>
      </trkpt>
      <trkpt lat="47.00634" lon="8.87151">
        <ele>1474</ele>
        <time>2021-08-03T11:01:33.976Z</time>
      </trkpt>
      <trkpt lat="47.00633" lon="8.8715">
        <ele>1473</ele>
        <time>2021-08-03T11:01:34.976Z</time>
      </trkpt>
      <trkpt lat="47.00632" lon="8.87149">
        <ele>1473</ele>
        <time>2021-08-03T11:01:35.976Z</time>
      </trkpt>
      <trkpt lat="47.00631" lon="8.87149">
        <ele>1474</ele>
        <time>2021-08-03T11:01:36.976Z</time>
      </trkpt>
      <trkpt lat="47.0063" lon="8.87148">
        <ele>1475</ele>
        <time>2021-08-03T11:01:37.976Z</time>
      </trkpt>
      <trkpt lat="47.0063" lon="8.87148">
        <ele>1476</ele>
        <time>2021-08-03T11:01:38.976Z</time>
      </trkpt>
      <trkpt lat="47.00629" lon="8.87147">
        <ele>1477</ele>
        <time>2021-08-03T11:01:39.976Z</time>
      </trkpt>
      <trkpt lat="47.00628" lon="8.87147">
        <ele>1477</ele>
        <time>2021-08-03T11:01:40.976Z</time>
      </trkpt>
      <trkpt lat="47.00627" lon="8.87147">
        <ele>1478</ele>
        <time>2021-08-03T11:01:41.976Z</time>
      </trkpt>
      <trkpt lat="47.00626" lon="8.87147">
        <ele>1478</ele>
        <time>2021-08-03T11:01:42.976Z</time>
      </trkpt>
      <trkpt lat="47.00625" lon="8.87146">
        <ele>1478</ele>
        <time>2021-08-03T11:01:43.976Z</time>
      </trkpt>
      <trkpt lat="47.00624" lon="8.87146">
        <ele>1478</ele>
        <time>2021-08-03T11:01:44.976Z</time>
      </trkpt>
      <trkpt lat="47.00623" lon="8.87145">
        <ele>1478</ele>
        <time>2021-08-03T11:01:45.976Z</time>
      </trkpt>
      <trkpt lat="47.00622" lon="8.87145">
        <ele>1478</ele>
        <time>2021-08-03T11:01:46.976Z</time>
      </trkpt>
      <trkpt lat="47.00621" lon="8.87144">
        <ele>1478</ele>
        <time>2021-08-03T11:01:47.976Z</time>
      </trkpt>
      <trkpt lat="47.00621" lon="8.87143">
        <ele>1478</ele>
        <time>2021-08-03T11:01:48.976Z</time>
      </trkpt>
      <trkpt lat="47.0062" lon="8.87143">
        <ele>1478</ele>
        <time>2021-08-03T11:01:49.976Z</time>
      </trkpt>
      <trkpt lat="47.0062" lon="8.87142">
        <ele>1478</ele>
        <time>2021-08-03T11:01:50.976Z</time>
      </trkpt>
      <trkpt lat="47.0062" lon="8.87142">
        <ele>1478</ele>
        <time>2021-08-03T11:01:51.976Z</time>
      </trkpt>
      <trkpt lat="47.0062" lon="8.87142">
        <ele>1478</ele>
        <time>2021-08-03T11:01:52.976Z</time>
      </trkpt>
      <trkpt lat="47.00621" lon="8.8714">
        <ele>1480</ele>
        <time>2021-08-03T11:01:53.976Z</time>
      </trkpt>
      <trkpt lat="47.00621" lon="8.8714">
        <ele>1480</ele>
        <time>2021-08-03T11:01:54.977Z</time>
      </trkpt>
      <trkpt lat="47.00622" lon="8.87141">
        <ele>1480</ele>
        <time>2021-08-03T11:01:55.977Z</time>
      </trkpt>
      <trkpt lat="47.0062" lon="8.87141">
        <ele>1478</ele>
        <time>2021-08-03T11:01:56.978Z</time>
      </trkpt>
      <trkpt lat="47.00619" lon="8.8714">
        <ele>1478</ele>
        <time>2021-08-03T11:01:57.977Z</time>
      </trkpt>
      <trkpt lat="47.00618" lon="8.8714">
        <ele>1478</ele>
        <time>2021-08-03T11:01:58.977Z</time>
      </trkpt>
      <trkpt lat="47.00617" lon="8.8714">
        <ele>1477</ele>
        <time>2021-08-03T11:01:59.978Z</time>
      </trkpt>
      <trkpt lat="47.00616" lon="8.8714">
        <ele>1477</ele>
        <time>2021-08-03T11:02:00.978Z</time>
      </trkpt>
      <trkpt lat="47.00616" lon="8.8714">
        <ele>1477</ele>
        <time>2021-08-03T11:02:01.978Z</time>
      </trkpt>
      <trkpt lat="47.00615" lon="8.8714">
        <ele>1476</ele>
        <time>2021-08-03T11:02:02.977Z</time>
      </trkpt>
      <trkpt lat="47.00615" lon="8.8714">
        <ele>1476</ele>
        <time>2021-08-03T11:02:03.978Z</time>
      </trkpt>
      <trkpt lat="47.00614" lon="8.8714">
        <ele>1475</ele>
        <time>2021-08-03T11:02:04.978Z</time>
      </trkpt>
      <trkpt lat="47.00613" lon="8.87141">
        <ele>1475</ele>
        <time>2021-08-03T11:02:05.978Z</time>
      </trkpt>
      <trkpt lat="47.00612" lon="8.8714">
        <ele>1474</ele>
        <time>2021-08-03T11:02:06.977Z</time>
      </trkpt>
      <trkpt lat="47.00611" lon="8.8714">
        <ele>1474</ele>
        <time>2021-08-03T11:02:07.977Z</time>
      </trkpt>
      <trkpt lat="47.0061" lon="8.8714">
        <ele>1474</ele>
        <time>2021-08-03T11:02:08.978Z</time>
      </trkpt>
      <trkpt lat="47.0061" lon="8.8714">
        <ele>1475</ele>
        <time>2021-08-03T11:02:09.978Z</time>
      </trkpt>
      <trkpt lat="47.00609" lon="8.8714">
        <ele>1475</ele>
        <time>2021-08-03T11:02:10.978Z</time>
      </trkpt>
      <trkpt lat="47.00609" lon="8.8714">
        <ele>1476</ele>
        <time>2021-08-03T11:02:11.978Z</time>
      </trkpt>
      <trkpt lat="47.00608" lon="8.87139">
        <ele>1476</ele>
        <time>2021-08-03T11:02:12.978Z</time>
      </trkpt>
      <trkpt lat="47.00607" lon="8.87139">
        <ele>1476</ele>
        <time>2021-08-03T11:02:13.978Z</time>
      </trkpt>
      <trkpt lat="47.00606" lon="8.87139">
        <ele>1476</ele>
        <time>2021-08-03T11:02:14.977Z</time>
      </trkpt>
      <trkpt lat="47.00606" lon="8.87139">
        <ele>1476</ele>
        <time>2021-08-03T11:02:15.977Z</time>
      </trkpt>
      <trkpt lat="47.00605" lon="8.87138">
        <ele>1476</ele>
        <time>2021-08-03T11:02:16.978Z</time>
      </trkpt>
      <trkpt lat="47.00604" lon="8.87138">
        <ele>1475</ele>
        <time>2021-08-03T11:02:17.978Z</time>
      </trkpt>
      <trkpt lat="47.00604" lon="8.87137">
        <ele>1476</ele>
        <time>2021-08-03T11:02:18.977Z</time>
      </trkpt>
      <trkpt lat="47.00603" lon="8.87137">
        <ele>1476</ele>
        <time>2021-08-03T11:02:19.977Z</time>
      </trkpt>
      <trkpt lat="47.00602" lon="8.87137">
        <ele>1476</ele>
        <time>2021-08-03T11:02:20.978Z</time>
      </trkpt>
      <trkpt lat="47.00602" lon="8.87137">
        <ele>1476</ele>
        <time>2021-08-03T11:02:21.977Z</time>
      </trkpt>
      <trkpt lat="47.00601" lon="8.87136">
        <ele>1476</ele>
        <time>2021-08-03T11:02:22.978Z</time>
      </trkpt>
      <trkpt lat="47.006" lon="8.87136">
        <ele>1475</ele>
        <time>2021-08-03T11:02:23.978Z</time>
      </trkpt>
      <trkpt lat="47.00599" lon="8.87136">
        <ele>1475</ele>
        <time>2021-08-03T11:02:24.978Z</time>
      </trkpt>
      <trkpt lat="47.00599" lon="8.87135">
        <ele>1475</ele>
        <time>2021-08-03T11:02:25.978Z</time>
      </trkpt>
      <trkpt lat="47.00598" lon="8.87135">
        <ele>1475</ele>
        <time>2021-08-03T11:02:26.978Z</time>
      </trkpt>
      <trkpt lat="47.00597" lon="8.87135">
        <ele>1475</ele>
        <time>2021-08-03T11:02:27.977Z</time>
      </trkpt>
      <trkpt lat="47.00596" lon="8.87135">
        <ele>1476</ele>
        <time>2021-08-03T11:02:28.978Z</time>
      </trkpt>
      <trkpt lat="47.00595" lon="8.87135">
        <ele>1477</ele>
        <time>2021-08-03T11:02:29.978Z</time>
      </trkpt>
      <trkpt lat="47.00594" lon="8.87135">
        <ele>1478</ele>
        <time>2021-08-03T11:02:30.978Z</time>
      </trkpt>
      <trkpt lat="47.00593" lon="8.87135">
        <ele>1479</ele>
        <time>2021-08-03T11:02:31.977Z</time>
      </trkpt>
      <trkpt lat="47.00593" lon="8.87135">
        <ele>1479</ele>
        <time>2021-08-03T11:02:32.977Z</time>
      </trkpt>
      <trkpt lat="47.00592" lon="8.87134">
        <ele>1480</ele>
        <time>2021-08-03T11:02:33.977Z</time>
      </trkpt>
      <trkpt lat="47.00591" lon="8.87134">
        <ele>1480</ele>
        <time>2021-08-03T11:02:34.978Z</time>
      </trkpt>
      <trkpt lat="47.00591" lon="8.87134">
        <ele>1480</ele>
        <time>2021-08-03T11:02:35.978Z</time>
      </trkpt>
      <trkpt lat="47.0059" lon="8.87134">
        <ele>1480</ele>
        <time>2021-08-03T11:02:45.127Z</time>
      </trkpt>
      <trkpt lat="47.0059" lon="8.87134">
        <ele>1480</ele>
        <time>2021-08-03T11:02:46.126Z</time>
      </trkpt>
      <trkpt lat="47.00589" lon="8.87134">
        <ele>1480</ele>
        <time>2021-08-03T11:02:47.126Z</time>
      </trkpt>
      <trkpt lat="47.00589" lon="8.87134">
        <ele>1480</ele>
        <time>2021-08-03T11:02:48.126Z</time>
      </trkpt>
      <trkpt lat="47.00588" lon="8.87133">
        <ele>1481</ele>
        <time>2021-08-03T11:02:49.127Z</time>
      </trkpt>
      <trkpt lat="47.00587" lon="8.87133">
        <ele>1482</ele>
        <time>2021-08-03T11:02:50.126Z</time>
      </trkpt>
      <trkpt lat="47.00586" lon="8.87132">
        <ele>1482</ele>
        <time>2021-08-03T11:02:51.127Z</time>
      </trkpt>
      <trkpt lat="47.00585" lon="8.87131">
        <ele>1482</ele>
        <time>2021-08-03T11:02:52.127Z</time>
      </trkpt>
      <trkpt lat="47.00583" lon="8.87131">
        <ele>1482</ele>
        <time>2021-08-03T11:02:53.127Z</time>
      </trkpt>
      <trkpt lat="47.00583" lon="8.87131">
        <ele>1481</ele>
        <time>2021-08-03T11:02:57.250Z</time>
      </trkpt>
      <trkpt lat="47.00582" lon="8.87131">
        <ele>1481</ele>
        <time>2021-08-03T11:02:58.249Z</time>
      </trkpt>
      <trkpt lat="47.00581" lon="8.87131">
        <ele>1481</ele>
        <time>2021-08-03T11:02:59.250Z</time>
      </trkpt>
      <trkpt lat="47.0058" lon="8.87131">
        <ele>1481</ele>
        <time>2021-08-03T11:03:00.250Z</time>
      </trkpt>
      <trkpt lat="47.00579" lon="8.8713">
        <ele>1481</ele>
        <time>2021-08-03T11:03:01.250Z</time>
      </trkpt>
      <trkpt lat="47.00578" lon="8.8713">
        <ele>1480</ele>
        <time>2021-08-03T11:03:02.250Z</time>
      </trkpt>
      <trkpt lat="47.00577" lon="8.87129">
        <ele>1480</ele>
        <time>2021-08-03T11:03:03.249Z</time>
      </trkpt>
      <trkpt lat="47.00576" lon="8.87129">
        <ele>1480</ele>
        <time>2021-08-03T11:03:04.249Z</time>
      </trkpt>
      <trkpt lat="47.00575" lon="8.87129">
        <ele>1480</ele>
        <time>2021-08-03T11:03:05.250Z</time>
      </trkpt>
      <trkpt lat="47.00574" lon="8.87129">
        <ele>1480</ele>
        <time>2021-08-03T11:03:06.249Z</time>
      </trkpt>
      <trkpt lat="47.00573" lon="8.87128">
        <ele>1480</ele>
        <time>2021-08-03T11:03:07.249Z</time>
      </trkpt>
      <trkpt lat="47.00572" lon="8.87128">
        <ele>1480</ele>
        <time>2021-08-03T11:03:08.250Z</time>
      </trkpt>
      <trkpt lat="47.00571" lon="8.87128">
        <ele>1479</ele>
        <time>2021-08-03T11:03:09.249Z</time>
      </trkpt>
      <trkpt lat="47.0057" lon="8.87128">
        <ele>1479</ele>
        <time>2021-08-03T11:03:10.250Z</time>
      </trkpt>
      <trkpt lat="47.00569" lon="8.87127">
        <ele>1479</ele>
        <time>2021-08-03T11:03:11.250Z</time>
      </trkpt>
      <trkpt lat="47.00568" lon="8.87127">
        <ele>1479</ele>
        <time>2021-08-03T11:03:12.249Z</time>
      </trkpt>
      <trkpt lat="47.00567" lon="8.87127">
        <ele>1479</ele>
        <time>2021-08-03T11:03:13.250Z</time>
      </trkpt>
      <trkpt lat="47.00565" lon="8.87127">
        <ele>1480</ele>
        <time>2021-08-03T11:03:14.250Z</time>
      </trkpt>
      <trkpt lat="47.00565" lon="8.87127">
        <ele>1480</ele>
        <time>2021-08-03T11:03:15.249Z</time>
      </trkpt>
      <trkpt lat="47.00564" lon="8.87126">
        <ele>1480</ele>
        <time>2021-08-03T11:03:16.250Z</time>
      </trkpt>
      <trkpt lat="47.00563" lon="8.87127">
        <ele>1480</ele>
        <time>2021-08-03T11:03:17.250Z</time>
      </trkpt>
      <trkpt lat="47.00562" lon="8.87127">
        <ele>1480</ele>
        <time>2021-08-03T11:03:18.250Z</time>
      </trkpt>
      <trkpt lat="47.00561" lon="8.87127">
        <ele>1481</ele>
        <time>2021-08-03T11:03:19.250Z</time>
      </trkpt>
      <trkpt lat="47.0056" lon="8.87127">
        <ele>1481</ele>
        <time>2021-08-03T11:03:20.249Z</time>
      </trkpt>
      <trkpt lat="47.00559" lon="8.87128">
        <ele>1481</ele>
        <time>2021-08-03T11:03:21.250Z</time>
      </trkpt>
      <trkpt lat="47.00559" lon="8.87128">
        <ele>1481</ele>
        <time>2021-08-03T11:03:22.250Z</time>
      </trkpt>
      <trkpt lat="47.00558" lon="8.87128">
        <ele>1480</ele>
        <time>2021-08-03T11:03:23.249Z</time>
      </trkpt>
      <trkpt lat="47.00558" lon="8.87128">
        <ele>1480</ele>
        <time>2021-08-03T11:03:24.250Z</time>
      </trkpt>
      <trkpt lat="47.00557" lon="8.87128">
        <ele>1480</ele>
        <time>2021-08-03T11:03:25.249Z</time>
      </trkpt>
      <trkpt lat="47.00557" lon="8.87128">
        <ele>1481</ele>
        <time>2021-08-03T11:03:26.250Z</time>
      </trkpt>
      <trkpt lat="47.00556" lon="8.87128">
        <ele>1482</ele>
        <time>2021-08-03T11:03:27.249Z</time>
      </trkpt>
      <trkpt lat="47.00555" lon="8.87128">
        <ele>1482</ele>
        <time>2021-08-03T11:03:28.250Z</time>
      </trkpt>
      <trkpt lat="47.00554" lon="8.87127">
        <ele>1483</ele>
        <time>2021-08-03T11:03:29.250Z</time>
      </trkpt>
      <trkpt lat="47.00554" lon="8.87127">
        <ele>1483</ele>
        <time>2021-08-03T11:03:30.249Z</time>
      </trkpt>
      <trkpt lat="47.00553" lon="8.87126">
        <ele>1483</ele>
        <time>2021-08-03T11:03:31.249Z</time>
      </trkpt>
      <trkpt lat="47.00552" lon="8.87126">
        <ele>1483</ele>
        <time>2021-08-03T11:03:32.249Z</time>
      </trkpt>
      <trkpt lat="47.00552" lon="8.87126">
        <ele>1483</ele>
        <time>2021-08-03T11:03:33.250Z</time>
      </trkpt>
      <trkpt lat="47.00551" lon="8.87126">
        <ele>1482</ele>
        <time>2021-08-03T11:03:34.249Z</time>
      </trkpt>
      <trkpt lat="47.0055" lon="8.87125">
        <ele>1482</ele>
        <time>2021-08-03T11:03:35.250Z</time>
      </trkpt>
      <trkpt lat="47.00549" lon="8.87125">
        <ele>1482</ele>
        <time>2021-08-03T11:03:36.250Z</time>
      </trkpt>
      <trkpt lat="47.00549" lon="8.87124">
        <ele>1482</ele>
        <time>2021-08-03T11:03:37.249Z</time>
      </trkpt>
      <trkpt lat="47.00548" lon="8.87124">
        <ele>1482</ele>
        <time>2021-08-03T11:03:38.250Z</time>
      </trkpt>
      <trkpt lat="47.00547" lon="8.87124">
        <ele>1481</ele>
        <time>2021-08-03T11:03:39.249Z</time>
      </trkpt>
      <trkpt lat="47.00546" lon="8.87124">
        <ele>1482</ele>
        <time>2021-08-03T11:03:40.249Z</time>
      </trkpt>
      <trkpt lat="47.00545" lon="8.87123">
        <ele>1482</ele>
        <time>2021-08-03T11:03:41.250Z</time>
      </trkpt>
      <trkpt lat="47.00544" lon="8.87124">
        <ele>1481</ele>
        <time>2021-08-03T11:03:42.249Z</time>
      </trkpt>
      <trkpt lat="47.00543" lon="8.87124">
        <ele>1481</ele>
        <time>2021-08-03T11:03:43.249Z</time>
      </trkpt>
      <trkpt lat="47.00542" lon="8.87124">
        <ele>1480</ele>
        <time>2021-08-03T11:03:44.250Z</time>
      </trkpt>
      <trkpt lat="47.00541" lon="8.87124">
        <ele>1480</ele>
        <time>2021-08-03T11:03:45.249Z</time>
      </trkpt>
      <trkpt lat="47.0054" lon="8.87124">
        <ele>1480</ele>
        <time>2021-08-03T11:03:46.249Z</time>
      </trkpt>
      <trkpt lat="47.00539" lon="8.87124">
        <ele>1480</ele>
        <time>2021-08-03T11:03:47.249Z</time>
      </trkpt>
      <trkpt lat="47.00538" lon="8.87124">
        <ele>1480</ele>
        <time>2021-08-03T11:03:48.250Z</time>
      </trkpt>
      <trkpt lat="47.00537" lon="8.87124">
        <ele>1479</ele>
        <time>2021-08-03T11:03:49.249Z</time>
      </trkpt>
      <trkpt lat="47.00537" lon="8.87124">
        <ele>1479</ele>
        <time>2021-08-03T11:03:50.250Z</time>
      </trkpt>
      <trkpt lat="47.00536" lon="8.87124">
        <ele>1479</ele>
        <time>2021-08-03T11:03:51.250Z</time>
      </trkpt>
      <trkpt lat="47.00536" lon="8.87124">
        <ele>1479</ele>
        <time>2021-08-03T11:03:52.249Z</time>
      </trkpt>
      <trkpt lat="47.00535" lon="8.87124">
        <ele>1479</ele>
        <time>2021-08-03T11:03:53.250Z</time>
      </trkpt>
      <trkpt lat="47.00534" lon="8.87124">
        <ele>1478</ele>
        <time>2021-08-03T11:03:54.249Z</time>
      </trkpt>
      <trkpt lat="47.00534" lon="8.87124">
        <ele>1478</ele>
        <time>2021-08-03T11:03:55.249Z</time>
      </trkpt>
      <trkpt lat="47.00533" lon="8.87123">
        <ele>1479</ele>
        <time>2021-08-03T11:03:56.249Z</time>
      </trkpt>
      <trkpt lat="47.00532" lon="8.87123">
        <ele>1479</ele>
        <time>2021-08-03T11:03:57.250Z</time>
      </trkpt>
      <trkpt lat="47.00531" lon="8.87122">
        <ele>1480</ele>
        <time>2021-08-03T11:03:58.249Z</time>
      </trkpt>
      <trkpt lat="47.00531" lon="8.87122">
        <ele>1481</ele>
        <time>2021-08-03T11:03:59.250Z</time>
      </trkpt>
      <trkpt lat="47.0053" lon="8.87122">
        <ele>1481</ele>
        <time>2021-08-03T11:04:00.249Z</time>
      </trkpt>
      <trkpt lat="47.00529" lon="8.87122">
        <ele>1481</ele>
        <time>2021-08-03T11:04:02.227Z</time>
      </trkpt>
      <trkpt lat="47.00528" lon="8.87122">
        <ele>1482</ele>
        <time>2021-08-03T11:04:03.226Z</time>
      </trkpt>
      <trkpt lat="47.00527" lon="8.87122">
        <ele>1482</ele>
        <time>2021-08-03T11:04:04.226Z</time>
      </trkpt>
      <trkpt lat="47.00526" lon="8.87121">
        <ele>1481</ele>
        <time>2021-08-03T11:04:05.227Z</time>
      </trkpt>
      <trkpt lat="47.00525" lon="8.87121">
        <ele>1481</ele>
        <time>2021-08-03T11:04:06.226Z</time>
      </trkpt>
      <trkpt lat="47.00524" lon="8.8712">
        <ele>1481</ele>
        <time>2021-08-03T11:04:07.226Z</time>
      </trkpt>
      <trkpt lat="47.00523" lon="8.8712">
        <ele>1481</ele>
        <time>2021-08-03T11:04:08.227Z</time>
      </trkpt>
      <trkpt lat="47.00522" lon="8.8712">
        <ele>1481</ele>
        <time>2021-08-03T11:04:09.226Z</time>
      </trkpt>
      <trkpt lat="47.00522" lon="8.87119">
        <ele>1480</ele>
        <time>2021-08-03T11:04:10.227Z</time>
      </trkpt>
      <trkpt lat="47.0052" lon="8.87118">
        <ele>1480</ele>
        <time>2021-08-03T11:04:11.226Z</time>
      </trkpt>
      <trkpt lat="47.0052" lon="8.87118">
        <ele>1480</ele>
        <time>2021-08-03T11:04:12.226Z</time>
      </trkpt>
      <trkpt lat="47.00519" lon="8.87117">
        <ele>1479</ele>
        <time>2021-08-03T11:04:13.226Z</time>
      </trkpt>
      <trkpt lat="47.00518" lon="8.87116">
        <ele>1479</ele>
        <time>2021-08-03T11:04:14.227Z</time>
      </trkpt>
      <trkpt lat="47.00517" lon="8.87116">
        <ele>1479</ele>
        <time>2021-08-03T11:04:15.226Z</time>
      </trkpt>
      <trkpt lat="47.00516" lon="8.87115">
        <ele>1479</ele>
        <time>2021-08-03T11:04:16.226Z</time>
      </trkpt>
      <trkpt lat="47.00515" lon="8.87115">
        <ele>1479</ele>
        <time>2021-08-03T11:04:17.227Z</time>
      </trkpt>
      <trkpt lat="47.00514" lon="8.87115">
        <ele>1479</ele>
        <time>2021-08-03T11:04:18.227Z</time>
      </trkpt>
      <trkpt lat="47.00513" lon="8.87114">
        <ele>1479</ele>
        <time>2021-08-03T11:04:19.227Z</time>
      </trkpt>
      <trkpt lat="47.00512" lon="8.87114">
        <ele>1478</ele>
        <time>2021-08-03T11:04:20.226Z</time>
      </trkpt>
      <trkpt lat="47.00512" lon="8.87113">
        <ele>1479</ele>
        <time>2021-08-03T11:04:21.226Z</time>
      </trkpt>
      <trkpt lat="47.00511" lon="8.87113">
        <ele>1479</ele>
        <time>2021-08-03T11:04:22.226Z</time>
      </trkpt>
      <trkpt lat="47.00511" lon="8.87113">
        <ele>1480</ele>
        <time>2021-08-03T11:04:23.227Z</time>
      </trkpt>
      <trkpt lat="47.00511" lon="8.87113">
        <ele>1481</ele>
        <time>2021-08-03T11:04:24.227Z</time>
      </trkpt>
      <trkpt lat="47.0051" lon="8.87112">
        <ele>1482</ele>
        <time>2021-08-03T11:04:25.226Z</time>
      </trkpt>
      <trkpt lat="47.00509" lon="8.87112">
        <ele>1482</ele>
        <time>2021-08-03T11:04:26.226Z</time>
      </trkpt>
      <trkpt lat="47.00508" lon="8.87112">
        <ele>1481</ele>
        <time>2021-08-03T11:04:27.226Z</time>
      </trkpt>
      <trkpt lat="47.00508" lon="8.87112">
        <ele>1481</ele>
        <time>2021-08-03T11:04:28.227Z</time>
      </trkpt>
      <trkpt lat="47.00507" lon="8.87112">
        <ele>1480</ele>
        <time>2021-08-03T11:04:29.227Z</time>
      </trkpt>
      <trkpt lat="47.00507" lon="8.87112">
        <ele>1479</ele>
        <time>2021-08-03T11:04:30.227Z</time>
      </trkpt>
      <trkpt lat="47.00505" lon="8.87112">
        <ele>1479</ele>
        <time>2021-08-03T11:04:31.227Z</time>
      </trkpt>
      <trkpt lat="47.00504" lon="8.87113">
        <ele>1478</ele>
        <time>2021-08-03T11:04:32.227Z</time>
      </trkpt>
      <trkpt lat="47.00504" lon="8.87114">
        <ele>1478</ele>
        <time>2021-08-03T11:04:33.227Z</time>
      </trkpt>
      <trkpt lat="47.00503" lon="8.87115">
        <ele>1478</ele>
        <time>2021-08-03T11:04:34.226Z</time>
      </trkpt>
      <trkpt lat="47.00502" lon="8.87116">
        <ele>1478</ele>
        <time>2021-08-03T11:04:35.227Z</time>
      </trkpt>
      <trkpt lat="47.00501" lon="8.87116">
        <ele>1478</ele>
        <time>2021-08-03T11:04:36.226Z</time>
      </trkpt>
      <trkpt lat="47.005" lon="8.87117">
        <ele>1478</ele>
        <time>2021-08-03T11:04:37.227Z</time>
      </trkpt>
      <trkpt lat="47.00499" lon="8.87117">
        <ele>1478</ele>
        <time>2021-08-03T11:04:38.226Z</time>
      </trkpt>
      <trkpt lat="47.00498" lon="8.87117">
        <ele>1478</ele>
        <time>2021-08-03T11:04:39.227Z</time>
      </trkpt>
      <trkpt lat="47.00496" lon="8.87117">
        <ele>1478</ele>
        <time>2021-08-03T11:04:40.226Z</time>
      </trkpt>
      <trkpt lat="47.00495" lon="8.87117">
        <ele>1478</ele>
        <time>2021-08-03T11:04:41.226Z</time>
      </trkpt>
      <trkpt lat="47.00494" lon="8.87117">
        <ele>1478</ele>
        <time>2021-08-03T11:04:42.227Z</time>
      </trkpt>
      <trkpt lat="47.00493" lon="8.87117">
        <ele>1478</ele>
        <time>2021-08-03T11:04:43.227Z</time>
      </trkpt>
      <trkpt lat="47.00492" lon="8.87118">
        <ele>1478</ele>
        <time>2021-08-03T11:04:44.226Z</time>
      </trkpt>
      <trkpt lat="47.00491" lon="8.87118">
        <ele>1478</ele>
        <time>2021-08-03T11:04:45.226Z</time>
      </trkpt>
      <trkpt lat="47.0049" lon="8.87118">
        <ele>1477</ele>
        <time>2021-08-03T11:04:46.227Z</time>
      </trkpt>
      <trkpt lat="47.00489" lon="8.87118">
        <ele>1477</ele>
        <time>2021-08-03T11:04:47.226Z</time>
      </trkpt>
      <trkpt lat="47.00488" lon="8.87118">
        <ele>1477</ele>
        <time>2021-08-03T11:04:48.226Z</time>
      </trkpt>
      <trkpt lat="47.00488" lon="8.87118">
        <ele>1477</ele>
        <time>2021-08-03T11:04:49.226Z</time>
      </trkpt>
      <trkpt lat="47.00487" lon="8.87118">
        <ele>1476</ele>
        <time>2021-08-03T11:04:50.226Z</time>
      </trkpt>
      <trkpt lat="47.00486" lon="8.87118">
        <ele>1476</ele>
        <time>2021-08-03T11:04:51.227Z</time>
      </trkpt>
      <trkpt lat="47.00486" lon="8.87118">
        <ele>1476</ele>
        <time>2021-08-03T11:04:52.227Z</time>
      </trkpt>
      <trkpt lat="47.00485" lon="8.87117">
        <ele>1476</ele>
        <time>2021-08-03T11:04:53.227Z</time>
      </trkpt>
      <trkpt lat="47.00484" lon="8.87117">
        <ele>1476</ele>
        <time>2021-08-03T11:04:54.227Z</time>
      </trkpt>
      <trkpt lat="47.00483" lon="8.87117">
        <ele>1476</ele>
        <time>2021-08-03T11:04:55.227Z</time>
      </trkpt>
      <trkpt lat="47.00482" lon="8.87117">
        <ele>1476</ele>
        <time>2021-08-03T11:04:56.227Z</time>
      </trkpt>
      <trkpt lat="47.00482" lon="8.87117">
        <ele>1476</ele>
        <time>2021-08-03T11:04:57.226Z</time>
      </trkpt>
      <trkpt lat="47.00481" lon="8.87117">
        <ele>1476</ele>
        <time>2021-08-03T11:04:58.227Z</time>
      </trkpt>
      <trkpt lat="47.00481" lon="8.87117">
        <ele>1476</ele>
        <time>2021-08-03T11:04:59.226Z</time>
      </trkpt>
      <trkpt lat="47.0048" lon="8.87117">
        <ele>1476</ele>
        <time>2021-08-03T11:05:00.227Z</time>
      </trkpt>
      <trkpt lat="47.00479" lon="8.87117">
        <ele>1476</ele>
        <time>2021-08-03T11:05:01.226Z</time>
      </trkpt>
      <trkpt lat="47.00479" lon="8.87116">
        <ele>1476</ele>
        <time>2021-08-03T11:05:02.227Z</time>
      </trkpt>
      <trkpt lat="47.00478" lon="8.87116">
        <ele>1476</ele>
        <time>2021-08-03T11:05:03.227Z</time>
      </trkpt>
      <trkpt lat="47.00477" lon="8.87116">
        <ele>1477</ele>
        <time>2021-08-03T11:05:04.227Z</time>
      </trkpt>
      <trkpt lat="47.00477" lon="8.87116">
        <ele>1478</ele>
        <time>2021-08-03T11:05:05.227Z</time>
      </trkpt>
      <trkpt lat="47.00476" lon="8.87116">
        <ele>1478</ele>
        <time>2021-08-03T11:05:06.226Z</time>
      </trkpt>
      <trkpt lat="47.00475" lon="8.87116">
        <ele>1478</ele>
        <time>2021-08-03T11:05:07.227Z</time>
      </trkpt>
      <trkpt lat="47.00474" lon="8.87116">
        <ele>1478</ele>
        <time>2021-08-03T11:05:08.226Z</time>
      </trkpt>
      <trkpt lat="47.00474" lon="8.87116">
        <ele>1478</ele>
        <time>2021-08-03T11:05:09.226Z</time>
      </trkpt>
      <trkpt lat="47.00473" lon="8.87116">
        <ele>1478</ele>
        <time>2021-08-03T11:05:10.227Z</time>
      </trkpt>
      <trkpt lat="47.00473" lon="8.87115">
        <ele>1478</ele>
        <time>2021-08-03T11:05:11.226Z</time>
      </trkpt>
      <trkpt lat="47.00472" lon="8.87115">
        <ele>1478</ele>
        <time>2021-08-03T11:05:12.227Z</time>
      </trkpt>
      <trkpt lat="47.00471" lon="8.87115">
        <ele>1477</ele>
        <time>2021-08-03T11:05:13.226Z</time>
      </trkpt>
      <trkpt lat="47.00471" lon="8.87115">
        <ele>1477</ele>
        <time>2021-08-03T11:05:14.226Z</time>
      </trkpt>
      <trkpt lat="47.0047" lon="8.87114">
        <ele>1477</ele>
        <time>2021-08-03T11:05:15.226Z</time>
      </trkpt>
      <trkpt lat="47.0047" lon="8.87114">
        <ele>1477</ele>
        <time>2021-08-03T11:05:16.227Z</time>
      </trkpt>
      <trkpt lat="47.00469" lon="8.87114">
        <ele>1477</ele>
        <time>2021-08-03T11:05:17.226Z</time>
      </trkpt>
      <trkpt lat="47.00468" lon="8.87114">
        <ele>1478</ele>
        <time>2021-08-03T11:05:18.226Z</time>
      </trkpt>
      <trkpt lat="47.00467" lon="8.87113">
        <ele>1478</ele>
        <time>2021-08-03T11:05:19.227Z</time>
      </trkpt>
      <trkpt lat="47.00467" lon="8.87113">
        <ele>1478</ele>
        <time>2021-08-03T11:05:20.227Z</time>
      </trkpt>
      <trkpt lat="47.00466" lon="8.87112">
        <ele>1478</ele>
        <time>2021-08-03T11:05:21.227Z</time>
      </trkpt>
      <trkpt lat="47.00465" lon="8.87112">
        <ele>1478</ele>
        <time>2021-08-03T11:05:22.226Z</time>
      </trkpt>
      <trkpt lat="47.00463" lon="8.87112">
        <ele>1479</ele>
        <time>2021-08-03T11:05:23.227Z</time>
      </trkpt>
      <trkpt lat="47.00462" lon="8.87113">
        <ele>1479</ele>
        <time>2021-08-03T11:05:24.227Z</time>
      </trkpt>
      <trkpt lat="47.00461" lon="8.87113">
        <ele>1479</ele>
        <time>2021-08-03T11:05:25.227Z</time>
      </trkpt>
      <trkpt lat="47.0046" lon="8.87113">
        <ele>1479</ele>
        <time>2021-08-03T11:05:26.227Z</time>
      </trkpt>
      <trkpt lat="47.00459" lon="8.87113">
        <ele>1479</ele>
        <time>2021-08-03T11:05:27.227Z</time>
      </trkpt>
      <trkpt lat="47.00458" lon="8.87113">
        <ele>1479</ele>
        <time>2021-08-03T11:05:28.227Z</time>
      </trkpt>
      <trkpt lat="47.00456" lon="8.87113">
        <ele>1479</ele>
        <time>2021-08-03T11:05:29.226Z</time>
      </trkpt>
      <trkpt lat="47.00455" lon="8.87112">
        <ele>1480</ele>
        <time>2021-08-03T11:05:30.226Z</time>
      </trkpt>
      <trkpt lat="47.00454" lon="8.87113">
        <ele>1480</ele>
        <time>2021-08-03T11:05:31.227Z</time>
      </trkpt>
      <trkpt lat="47.00453" lon="8.87113">
        <ele>1480</ele>
        <time>2021-08-03T11:05:32.226Z</time>
      </trkpt>
      <trkpt lat="47.00452" lon="8.87113">
        <ele>1480</ele>
        <time>2021-08-03T11:05:33.226Z</time>
      </trkpt>
      <trkpt lat="47.00451" lon="8.87112">
        <ele>1480</ele>
        <time>2021-08-03T11:05:34.226Z</time>
      </trkpt>
      <trkpt lat="47.00449" lon="8.87112">
        <ele>1480</ele>
        <time>2021-08-03T11:05:35.227Z</time>
      </trkpt>
      <trkpt lat="47.00448" lon="8.87112">
        <ele>1480</ele>
        <time>2021-08-03T11:05:36.227Z</time>
      </trkpt>
      <trkpt lat="47.00447" lon="8.87113">
        <ele>1480</ele>
        <time>2021-08-03T11:05:37.227Z</time>
      </trkpt>
      <trkpt lat="47.00447" lon="8.87112">
        <ele>1480</ele>
        <time>2021-08-03T11:05:38.227Z</time>
      </trkpt>
      <trkpt lat="47.00446" lon="8.87112">
        <ele>1479</ele>
        <time>2021-08-03T11:05:39.226Z</time>
      </trkpt>
      <trkpt lat="47.00445" lon="8.87112">
        <ele>1480</ele>
        <time>2021-08-03T11:05:40.226Z</time>
      </trkpt>
      <trkpt lat="47.00444" lon="8.87111">
        <ele>1480</ele>
        <time>2021-08-03T11:05:41.227Z</time>
      </trkpt>
      <trkpt lat="47.00444" lon="8.87111">
        <ele>1480</ele>
        <time>2021-08-03T11:05:42.227Z</time>
      </trkpt>
      <trkpt lat="47.00443" lon="8.87111">
        <ele>1480</ele>
        <time>2021-08-03T11:05:43.227Z</time>
      </trkpt>
      <trkpt lat="47.00442" lon="8.87111">
        <ele>1480</ele>
        <time>2021-08-03T11:05:44.226Z</time>
      </trkpt>
      <trkpt lat="47.00441" lon="8.87111">
        <ele>1479</ele>
        <time>2021-08-03T11:05:45.227Z</time>
      </trkpt>
      <trkpt lat="47.00441" lon="8.87111">
        <ele>1479</ele>
        <time>2021-08-03T11:05:46.227Z</time>
      </trkpt>
      <trkpt lat="47.0044" lon="8.8711">
        <ele>1479</ele>
        <time>2021-08-03T11:05:47.226Z</time>
      </trkpt>
      <trkpt lat="47.0044" lon="8.8711">
        <ele>1478</ele>
        <time>2021-08-03T11:05:48.226Z</time>
      </trkpt>
      <trkpt lat="47.00439" lon="8.8711">
        <ele>1478</ele>
        <time>2021-08-03T11:05:49.226Z</time>
      </trkpt>
      <trkpt lat="47.00438" lon="8.87109">
        <ele>1478</ele>
        <time>2021-08-03T11:05:50.227Z</time>
      </trkpt>
      <trkpt lat="47.00437" lon="8.87109">
        <ele>1478</ele>
        <time>2021-08-03T11:05:51.227Z</time>
      </trkpt>
      <trkpt lat="47.00436" lon="8.87108">
        <ele>1478</ele>
        <time>2021-08-03T11:05:52.226Z</time>
      </trkpt>
      <trkpt lat="47.00436" lon="8.87108">
        <ele>1478</ele>
        <time>2021-08-03T11:05:53.227Z</time>
      </trkpt>
      <trkpt lat="47.00435" lon="8.87107">
        <ele>1478</ele>
        <time>2021-08-03T11:05:54.226Z</time>
      </trkpt>
      <trkpt lat="47.00435" lon="8.87107">
        <ele>1478</ele>
        <time>2021-08-03T11:05:55.226Z</time>
      </trkpt>
      <trkpt lat="47.00434" lon="8.87106">
        <ele>1478</ele>
        <time>2021-08-03T11:05:56.226Z</time>
      </trkpt>
      <trkpt lat="47.00434" lon="8.87106">
        <ele>1478</ele>
        <time>2021-08-03T11:05:57.226Z</time>
      </trkpt>
      <trkpt lat="47.00433" lon="8.87106">
        <ele>1478</ele>
        <time>2021-08-03T11:05:58.227Z</time>
      </trkpt>
      <trkpt lat="47.00432" lon="8.87105">
        <ele>1478</ele>
        <time>2021-08-03T11:05:59.226Z</time>
      </trkpt>
      <trkpt lat="47.00432" lon="8.87105">
        <ele>1478</ele>
        <time>2021-08-03T11:06:00.227Z</time>
      </trkpt>
      <trkpt lat="47.00431" lon="8.87104">
        <ele>1478</ele>
        <time>2021-08-03T11:06:01.227Z</time>
      </trkpt>
      <trkpt lat="47.00431" lon="8.87103">
        <ele>1478</ele>
        <time>2021-08-03T11:06:02.226Z</time>
      </trkpt>
      <trkpt lat="47.0043" lon="8.87102">
        <ele>1478</ele>
        <time>2021-08-03T11:06:03.227Z</time>
      </trkpt>
      <trkpt lat="47.00429" lon="8.87101">
        <ele>1478</ele>
        <time>2021-08-03T11:06:04.227Z</time>
      </trkpt>
      <trkpt lat="47.00428" lon="8.871">
        <ele>1478</ele>
        <time>2021-08-03T11:06:05.227Z</time>
      </trkpt>
      <trkpt lat="47.00427" lon="8.871">
        <ele>1478</ele>
        <time>2021-08-03T11:06:06.227Z</time>
      </trkpt>
      <trkpt lat="47.00426" lon="8.87099">
        <ele>1478</ele>
        <time>2021-08-03T11:06:07.227Z</time>
      </trkpt>
      <trkpt lat="47.00426" lon="8.87099">
        <ele>1478</ele>
        <time>2021-08-03T11:06:22.233Z</time>
      </trkpt>
      <trkpt lat="47.00425" lon="8.87098">
        <ele>1479</ele>
        <time>2021-08-03T11:06:23.233Z</time>
      </trkpt>
      <trkpt lat="47.00424" lon="8.87098">
        <ele>1479</ele>
        <time>2021-08-03T11:06:24.234Z</time>
      </trkpt>
      <trkpt lat="47.00423" lon="8.87097">
        <ele>1479</ele>
        <time>2021-08-03T11:06:25.234Z</time>
      </trkpt>
      <trkpt lat="47.00422" lon="8.87096">
        <ele>1479</ele>
        <time>2021-08-03T11:06:26.234Z</time>
      </trkpt>
      <trkpt lat="47.00421" lon="8.87095">
        <ele>1479</ele>
        <time>2021-08-03T11:06:27.234Z</time>
      </trkpt>
      <trkpt lat="47.00421" lon="8.87094">
        <ele>1480</ele>
        <time>2021-08-03T11:06:28.234Z</time>
      </trkpt>
      <trkpt lat="47.0042" lon="8.87094">
        <ele>1480</ele>
        <time>2021-08-03T11:06:29.234Z</time>
      </trkpt>
      <trkpt lat="47.00419" lon="8.87093">
        <ele>1479</ele>
        <time>2021-08-03T11:06:30.233Z</time>
      </trkpt>
      <trkpt lat="47.00418" lon="8.87093">
        <ele>1479</ele>
        <time>2021-08-03T11:06:31.233Z</time>
      </trkpt>
      <trkpt lat="47.00418" lon="8.87092">
        <ele>1478</ele>
        <time>2021-08-03T11:06:32.233Z</time>
      </trkpt>
      <trkpt lat="47.00418" lon="8.87092">
        <ele>1478</ele>
        <time>2021-08-03T11:06:33.234Z</time>
      </trkpt>
      <trkpt lat="47.00417" lon="8.87092">
        <ele>1477</ele>
        <time>2021-08-03T11:06:34.234Z</time>
      </trkpt>
      <trkpt lat="47.00416" lon="8.87091">
        <ele>1477</ele>
        <time>2021-08-03T11:06:35.233Z</time>
      </trkpt>
      <trkpt lat="47.00415" lon="8.87091">
        <ele>1477</ele>
        <time>2021-08-03T11:06:36.233Z</time>
      </trkpt>
      <trkpt lat="47.00414" lon="8.8709">
        <ele>1477</ele>
        <time>2021-08-03T11:06:37.233Z</time>
      </trkpt>
      <trkpt lat="47.00414" lon="8.87089">
        <ele>1477</ele>
        <time>2021-08-03T11:06:38.234Z</time>
      </trkpt>
      <trkpt lat="47.00413" lon="8.87088">
        <ele>1477</ele>
        <time>2021-08-03T11:06:39.233Z</time>
      </trkpt>
      <trkpt lat="47.00412" lon="8.87088">
        <ele>1477</ele>
        <time>2021-08-03T11:06:40.233Z</time>
      </trkpt>
      <trkpt lat="47.00412" lon="8.87087">
        <ele>1476</ele>
        <time>2021-08-03T11:06:41.234Z</time>
      </trkpt>
      <trkpt lat="47.00411" lon="8.87087">
        <ele>1477</ele>
        <time>2021-08-03T11:06:42.233Z</time>
      </trkpt>
      <trkpt lat="47.0041" lon="8.87086">
        <ele>1477</ele>
        <time>2021-08-03T11:06:43.233Z</time>
      </trkpt>
      <trkpt lat="47.0041" lon="8.87084">
        <ele>1477</ele>
        <time>2021-08-03T11:06:44.234Z</time>
      </trkpt>
      <trkpt lat="47.00409" lon="8.87083">
        <ele>1478</ele>
        <time>2021-08-03T11:06:45.233Z</time>
      </trkpt>
      <trkpt lat="47.00409" lon="8.87082">
        <ele>1478</ele>
        <time>2021-08-03T11:06:46.233Z</time>
      </trkpt>
      <trkpt lat="47.00408" lon="8.87081">
        <ele>1478</ele>
        <time>2021-08-03T11:06:47.233Z</time>
      </trkpt>
      <trkpt lat="47.00408" lon="8.87079">
        <ele>1478</ele>
        <time>2021-08-03T11:06:48.233Z</time>
      </trkpt>
      <trkpt lat="47.00407" lon="8.87078">
        <ele>1478</ele>
        <time>2021-08-03T11:06:49.234Z</time>
      </trkpt>
      <trkpt lat="47.00406" lon="8.87077">
        <ele>1478</ele>
        <time>2021-08-03T11:06:50.234Z</time>
      </trkpt>
      <trkpt lat="47.00405" lon="8.87076">
        <ele>1478</ele>
        <time>2021-08-03T11:06:51.233Z</time>
      </trkpt>
      <trkpt lat="47.00404" lon="8.87075">
        <ele>1478</ele>
        <time>2021-08-03T11:06:52.233Z</time>
      </trkpt>
      <trkpt lat="47.00404" lon="8.87074">
        <ele>1478</ele>
        <time>2021-08-03T11:06:53.234Z</time>
      </trkpt>
      <trkpt lat="47.00403" lon="8.87073">
        <ele>1478</ele>
        <time>2021-08-03T11:06:54.233Z</time>
      </trkpt>
      <trkpt lat="47.00403" lon="8.87072">
        <ele>1478</ele>
        <time>2021-08-03T11:06:55.233Z</time>
      </trkpt>
      <trkpt lat="47.00402" lon="8.87071">
        <ele>1479</ele>
        <time>2021-08-03T11:06:56.234Z</time>
      </trkpt>
      <trkpt lat="47.00401" lon="8.8707">
        <ele>1479</ele>
        <time>2021-08-03T11:06:57.233Z</time>
      </trkpt>
      <trkpt lat="47.004" lon="8.8707">
        <ele>1479</ele>
        <time>2021-08-03T11:06:58.233Z</time>
      </trkpt>
      <trkpt lat="47.004" lon="8.8707">
        <ele>1479</ele>
        <time>2021-08-03T11:06:59.233Z</time>
      </trkpt>
      <trkpt lat="47.004" lon="8.87069">
        <ele>1478</ele>
        <time>2021-08-03T11:07:00.233Z</time>
      </trkpt>
      <trkpt lat="47.00399" lon="8.87069">
        <ele>1478</ele>
        <time>2021-08-03T11:07:01.233Z</time>
      </trkpt>
      <trkpt lat="47.00399" lon="8.87068">
        <ele>1478</ele>
        <time>2021-08-03T11:07:02.233Z</time>
      </trkpt>
      <trkpt lat="47.00398" lon="8.87067">
        <ele>1478</ele>
        <time>2021-08-03T11:07:03.233Z</time>
      </trkpt>
      <trkpt lat="47.00397" lon="8.87066">
        <ele>1477</ele>
        <time>2021-08-03T11:07:04.234Z</time>
      </trkpt>
      <trkpt lat="47.00396" lon="8.87064">
        <ele>1477</ele>
        <time>2021-08-03T11:07:05.233Z</time>
      </trkpt>
      <trkpt lat="47.00395" lon="8.87062">
        <ele>1476</ele>
        <time>2021-08-03T11:07:06.234Z</time>
      </trkpt>
      <trkpt lat="47.00394" lon="8.87066">
        <ele>1482</ele>
        <time>2021-08-03T11:07:07.234Z</time>
      </trkpt>
      <trkpt lat="47.00394" lon="8.87066">
        <ele>1481</ele>
        <time>2021-08-03T11:07:08.234Z</time>
      </trkpt>
      <trkpt lat="47.00393" lon="8.87064">
        <ele>1481</ele>
        <time>2021-08-03T11:07:09.233Z</time>
      </trkpt>
      <trkpt lat="47.00393" lon="8.87063">
        <ele>1480</ele>
        <time>2021-08-03T11:07:10.234Z</time>
      </trkpt>
      <trkpt lat="47.00393" lon="8.87062">
        <ele>1480</ele>
        <time>2021-08-03T11:07:11.234Z</time>
      </trkpt>
      <trkpt lat="47.00393" lon="8.87062">
        <ele>1480</ele>
        <time>2021-08-03T11:07:12.233Z</time>
      </trkpt>
      <trkpt lat="47.00392" lon="8.87061">
        <ele>1480</ele>
        <time>2021-08-03T11:07:13.234Z</time>
      </trkpt>
      <trkpt lat="47.00392" lon="8.8706">
        <ele>1480</ele>
        <time>2021-08-03T11:07:14.234Z</time>
      </trkpt>
      <trkpt lat="47.00391" lon="8.87058">
        <ele>1481</ele>
        <time>2021-08-03T11:07:15.233Z</time>
      </trkpt>
      <trkpt lat="47.00391" lon="8.87057">
        <ele>1481</ele>
        <time>2021-08-03T11:07:16.234Z</time>
      </trkpt>
      <trkpt lat="47.0039" lon="8.87057">
        <ele>1481</ele>
        <time>2021-08-03T11:07:17.233Z</time>
      </trkpt>
      <trkpt lat="47.0039" lon="8.87057">
        <ele>1482</ele>
        <time>2021-08-03T11:07:18.234Z</time>
      </trkpt>
      <trkpt lat="47.00391" lon="8.87055">
        <ele>1483</ele>
        <time>2021-08-03T11:07:19.234Z</time>
      </trkpt>
      <trkpt lat="47.00392" lon="8.87055">
        <ele>1484</ele>
        <time>2021-08-03T11:07:20.234Z</time>
      </trkpt>
      <trkpt lat="47.00391" lon="8.87055">
        <ele>1484</ele>
        <time>2021-08-03T11:07:21.233Z</time>
      </trkpt>
      <trkpt lat="47.00391" lon="8.87054">
        <ele>1485</ele>
        <time>2021-08-03T11:07:22.234Z</time>
      </trkpt>
      <trkpt lat="47.0039" lon="8.87054">
        <ele>1486</ele>
        <time>2021-08-03T11:07:23.234Z</time>
      </trkpt>
      <trkpt lat="47.0039" lon="8.87054">
        <ele>1486</ele>
        <time>2021-08-03T11:07:24.234Z</time>
      </trkpt>
      <trkpt lat="47.00388" lon="8.87053">
        <ele>1487</ele>
        <time>2021-08-03T11:07:25.235Z</time>
      </trkpt>
      <trkpt lat="47.00388" lon="8.87053">
        <ele>1487</ele>
        <time>2021-08-03T11:07:26.235Z</time>
      </trkpt>
      <trkpt lat="47.00387" lon="8.87054">
        <ele>1487</ele>
        <time>2021-08-03T11:07:27.235Z</time>
      </trkpt>
      <trkpt lat="47.00387" lon="8.87054">
        <ele>1487</ele>
        <time>2021-08-03T11:07:28.234Z</time>
      </trkpt>
      <trkpt lat="47.00386" lon="8.87055">
        <ele>1487</ele>
        <time>2021-08-03T11:07:29.235Z</time>
      </trkpt>
      <trkpt lat="47.00386" lon="8.87055">
        <ele>1488</ele>
        <time>2021-08-03T11:07:30.235Z</time>
      </trkpt>
      <trkpt lat="47.00386" lon="8.87055">
        <ele>1489</ele>
        <time>2021-08-03T11:07:31.236Z</time>
      </trkpt>
      <trkpt lat="47.00388" lon="8.87055">
        <ele>1494</ele>
        <time>2021-08-03T11:07:32.235Z</time>
      </trkpt>
      <trkpt lat="47.00388" lon="8.87055">
        <ele>1494</ele>
        <time>2021-08-03T11:07:33.236Z</time>
      </trkpt>
      <trkpt lat="47.00388" lon="8.87056">
        <ele>1493</ele>
        <time>2021-08-03T11:07:34.235Z</time>
      </trkpt>
      <trkpt lat="47.00387" lon="8.87055">
        <ele>1493</ele>
        <time>2021-08-03T11:07:35.236Z</time>
      </trkpt>
      <trkpt lat="47.00386" lon="8.87054">
        <ele>1493</ele>
        <time>2021-08-03T11:07:36.235Z</time>
      </trkpt>
      <trkpt lat="47.00385" lon="8.87053">
        <ele>1493</ele>
        <time>2021-08-03T11:07:37.236Z</time>
      </trkpt>
      <trkpt lat="47.00385" lon="8.87053">
        <ele>1493</ele>
        <time>2021-08-03T11:07:38.236Z</time>
      </trkpt>
      <trkpt lat="47.00384" lon="8.87053">
        <ele>1493</ele>
        <time>2021-08-03T11:07:39.236Z</time>
      </trkpt>
      <trkpt lat="47.00384" lon="8.87054">
        <ele>1493</ele>
        <time>2021-08-03T11:07:40.236Z</time>
      </trkpt>
      <trkpt lat="47.00383" lon="8.87055">
        <ele>1492</ele>
        <time>2021-08-03T11:07:41.236Z</time>
      </trkpt>
      <trkpt lat="47.00383" lon="8.87057">
        <ele>1491</ele>
        <time>2021-08-03T11:07:42.236Z</time>
      </trkpt>
      <trkpt lat="47.00383" lon="8.87059">
        <ele>1491</ele>
        <time>2021-08-03T11:07:43.235Z</time>
      </trkpt>
      <trkpt lat="47.00383" lon="8.8706">
        <ele>1490</ele>
        <time>2021-08-03T11:07:44.236Z</time>
      </trkpt>
      <trkpt lat="47.00383" lon="8.8706">
        <ele>1489</ele>
        <time>2021-08-03T11:07:45.236Z</time>
      </trkpt>
      <trkpt lat="47.00384" lon="8.87059">
        <ele>1489</ele>
        <time>2021-08-03T11:07:46.237Z</time>
      </trkpt>
      <trkpt lat="47.00385" lon="8.87059">
        <ele>1489</ele>
        <time>2021-08-03T11:07:47.236Z</time>
      </trkpt>
      <trkpt lat="47.00385" lon="8.87058">
        <ele>1489</ele>
        <time>2021-08-03T11:07:48.236Z</time>
      </trkpt>
      <trkpt lat="47.00385" lon="8.87057">
        <ele>1489</ele>
        <time>2021-08-03T11:07:49.237Z</time>
      </trkpt>
      <trkpt lat="47.00384" lon="8.87056">
        <ele>1487</ele>
        <time>2021-08-03T11:07:50.236Z</time>
      </trkpt>
      <trkpt lat="47.00383" lon="8.87056">
        <ele>1486</ele>
        <time>2021-08-03T11:07:51.236Z</time>
      </trkpt>
      <trkpt lat="47.00383" lon="8.87056">
        <ele>1486</ele>
        <time>2021-08-03T11:07:52.236Z</time>
      </trkpt>
      <trkpt lat="47.00382" lon="8.87057">
        <ele>1486</ele>
        <time>2021-08-03T11:07:53.236Z</time>
      </trkpt>
      <trkpt lat="47.00382" lon="8.87059">
        <ele>1485</ele>
        <time>2021-08-03T11:07:54.236Z</time>
      </trkpt>
      <trkpt lat="47.00383" lon="8.8706">
        <ele>1485</ele>
        <time>2021-08-03T11:07:55.236Z</time>
      </trkpt>
      <trkpt lat="47.00383" lon="8.87061">
        <ele>1484</ele>
        <time>2021-08-03T11:07:56.236Z</time>
      </trkpt>
      <trkpt lat="47.00383" lon="8.87062">
        <ele>1484</ele>
        <time>2021-08-03T11:07:57.236Z</time>
      </trkpt>
      <trkpt lat="47.00383" lon="8.87063">
        <ele>1483</ele>
        <time>2021-08-03T11:07:58.236Z</time>
      </trkpt>
      <trkpt lat="47.00383" lon="8.87064">
        <ele>1483</ele>
        <time>2021-08-03T11:07:59.236Z</time>
      </trkpt>
      <trkpt lat="47.00383" lon="8.87065">
        <ele>1482</ele>
        <time>2021-08-03T11:08:00.236Z</time>
      </trkpt>
      <trkpt lat="47.00384" lon="8.87067">
        <ele>1481</ele>
        <time>2021-08-03T11:08:01.236Z</time>
      </trkpt>
      <trkpt lat="47.00384" lon="8.87068">
        <ele>1481</ele>
        <time>2021-08-03T11:08:02.236Z</time>
      </trkpt>
      <trkpt lat="47.00384" lon="8.87069">
        <ele>1480</ele>
        <time>2021-08-03T11:08:03.236Z</time>
      </trkpt>
      <trkpt lat="47.00384" lon="8.87071">
        <ele>1481</ele>
        <time>2021-08-03T11:08:04.236Z</time>
      </trkpt>
      <trkpt lat="47.00385" lon="8.87072">
        <ele>1481</ele>
        <time>2021-08-03T11:08:05.236Z</time>
      </trkpt>
      <trkpt lat="47.00385" lon="8.87073">
        <ele>1481</ele>
        <time>2021-08-03T11:08:06.236Z</time>
      </trkpt>
      <trkpt lat="47.00385" lon="8.87075">
        <ele>1481</ele>
        <time>2021-08-03T11:08:07.236Z</time>
      </trkpt>
      <trkpt lat="47.00385" lon="8.87076">
        <ele>1481</ele>
        <time>2021-08-03T11:08:08.236Z</time>
      </trkpt>
      <trkpt lat="47.00385" lon="8.87077">
        <ele>1481</ele>
        <time>2021-08-03T11:08:09.236Z</time>
      </trkpt>
      <trkpt lat="47.00385" lon="8.87078">
        <ele>1481</ele>
        <time>2021-08-03T11:08:10.236Z</time>
      </trkpt>
      <trkpt lat="47.00384" lon="8.87079">
        <ele>1481</ele>
        <time>2021-08-03T11:08:11.236Z</time>
      </trkpt>
      <trkpt lat="47.00384" lon="8.87079">
        <ele>1481</ele>
        <time>2021-08-03T11:08:12.236Z</time>
      </trkpt>
      <trkpt lat="47.00383" lon="8.87079">
        <ele>1482</ele>
        <time>2021-08-03T11:08:13.236Z</time>
      </trkpt>
      <trkpt lat="47.00383" lon="8.87079">
        <ele>1482</ele>
        <time>2021-08-03T11:08:14.236Z</time>
      </trkpt>
      <trkpt lat="47.00382" lon="8.8708">
        <ele>1482</ele>
        <time>2021-08-03T11:08:15.236Z</time>
      </trkpt>
      <trkpt lat="47.00381" lon="8.8708">
        <ele>1483</ele>
        <time>2021-08-03T11:08:16.236Z</time>
      </trkpt>
      <trkpt lat="47.0038" lon="8.8708">
        <ele>1483</ele>
        <time>2021-08-03T11:08:17.236Z</time>
      </trkpt>
      <trkpt lat="47.00379" lon="8.87079">
        <ele>1484</ele>
        <time>2021-08-03T11:08:18.236Z</time>
      </trkpt>
      <trkpt lat="47.00379" lon="8.87079">
        <ele>1484</ele>
        <time>2021-08-03T11:08:19.236Z</time>
      </trkpt>
      <trkpt lat="47.00378" lon="8.87079">
        <ele>1484</ele>
        <time>2021-08-03T11:08:20.236Z</time>
      </trkpt>
      <trkpt lat="47.00377" lon="8.87079">
        <ele>1484</ele>
        <time>2021-08-03T11:08:21.236Z</time>
      </trkpt>
      <trkpt lat="47.00377" lon="8.87079">
        <ele>1485</ele>
        <time>2021-08-03T11:08:22.236Z</time>
      </trkpt>
      <trkpt lat="47.00376" lon="8.87078">
        <ele>1485</ele>
        <time>2021-08-03T11:08:23.236Z</time>
      </trkpt>
      <trkpt lat="47.00376" lon="8.87078">
        <ele>1485</ele>
        <time>2021-08-03T11:08:24.236Z</time>
      </trkpt>
      <trkpt lat="47.00375" lon="8.87077">
        <ele>1485</ele>
        <time>2021-08-03T11:08:25.236Z</time>
      </trkpt>
      <trkpt lat="47.00375" lon="8.87076">
        <ele>1486</ele>
        <time>2021-08-03T11:08:26.236Z</time>
      </trkpt>
      <trkpt lat="47.00375" lon="8.87076">
        <ele>1486</ele>
        <time>2021-08-03T11:08:27.236Z</time>
      </trkpt>
      <trkpt lat="47.00374" lon="8.87075">
        <ele>1487</ele>
        <time>2021-08-03T11:08:28.236Z</time>
      </trkpt>
      <trkpt lat="47.00374" lon="8.87074">
        <ele>1487</ele>
        <time>2021-08-03T11:08:29.236Z</time>
      </trkpt>
      <trkpt lat="47.00374" lon="8.87073">
        <ele>1486</ele>
        <time>2021-08-03T11:08:30.236Z</time>
      </trkpt>
      <trkpt lat="47.00374" lon="8.87071">
        <ele>1486</ele>
        <time>2021-08-03T11:08:31.236Z</time>
      </trkpt>
      <trkpt lat="47.00374" lon="8.8707">
        <ele>1486</ele>
        <time>2021-08-03T11:08:32.236Z</time>
      </trkpt>
      <trkpt lat="47.00373" lon="8.87069">
        <ele>1486</ele>
        <time>2021-08-03T11:08:33.236Z</time>
      </trkpt>
      <trkpt lat="47.00372" lon="8.87068">
        <ele>1486</ele>
        <time>2021-08-03T11:08:34.236Z</time>
      </trkpt>
      <trkpt lat="47.00372" lon="8.87067">
        <ele>1485</ele>
        <time>2021-08-03T11:08:35.236Z</time>
      </trkpt>
      <trkpt lat="47.00371" lon="8.87066">
        <ele>1485</ele>
        <time>2021-08-03T11:08:36.236Z</time>
      </trkpt>
      <trkpt lat="47.00371" lon="8.87065">
        <ele>1485</ele>
        <time>2021-08-03T11:08:37.236Z</time>
      </trkpt>
      <trkpt lat="47.0037" lon="8.87064">
        <ele>1485</ele>
        <time>2021-08-03T11:08:38.236Z</time>
      </trkpt>
      <trkpt lat="47.0037" lon="8.87062">
        <ele>1485</ele>
        <time>2021-08-03T11:08:39.236Z</time>
      </trkpt>
      <trkpt lat="47.00369" lon="8.87061">
        <ele>1485</ele>
        <time>2021-08-03T11:08:40.236Z</time>
      </trkpt>
      <trkpt lat="47.00369" lon="8.8706">
        <ele>1485</ele>
        <time>2021-08-03T11:08:41.236Z</time>
      </trkpt>
      <trkpt lat="47.00368" lon="8.87059">
        <ele>1485</ele>
        <time>2021-08-03T11:08:42.236Z</time>
      </trkpt>
      <trkpt lat="47.00368" lon="8.87059">
        <ele>1486</ele>
        <time>2021-08-03T11:08:43.236Z</time>
      </trkpt>
      <trkpt lat="47.00367" lon="8.87058">
        <ele>1486</ele>
        <time>2021-08-03T11:08:44.236Z</time>
      </trkpt>
      <trkpt lat="47.00367" lon="8.87057">
        <ele>1486</ele>
        <time>2021-08-03T11:08:45.236Z</time>
      </trkpt>
      <trkpt lat="47.00366" lon="8.87056">
        <ele>1486</ele>
        <time>2021-08-03T11:08:46.236Z</time>
      </trkpt>
      <trkpt lat="47.00365" lon="8.87055">
        <ele>1486</ele>
        <time>2021-08-03T11:08:47.236Z</time>
      </trkpt>
      <trkpt lat="47.00364" lon="8.87055">
        <ele>1487</ele>
        <time>2021-08-03T11:08:48.236Z</time>
      </trkpt>
      <trkpt lat="47.00363" lon="8.87054">
        <ele>1488</ele>
        <time>2021-08-03T11:08:49.236Z</time>
      </trkpt>
      <trkpt lat="47.00362" lon="8.87054">
        <ele>1489</ele>
        <time>2021-08-03T11:08:50.236Z</time>
      </trkpt>
      <trkpt lat="47.00361" lon="8.87053">
        <ele>1489</ele>
        <time>2021-08-03T11:08:51.236Z</time>
      </trkpt>
      <trkpt lat="47.00361" lon="8.87052">
        <ele>1490</ele>
        <time>2021-08-03T11:08:52.236Z</time>
      </trkpt>
      <trkpt lat="47.0036" lon="8.87051">
        <ele>1490</ele>
        <time>2021-08-03T11:08:53.236Z</time>
      </trkpt>
      <trkpt lat="47.0036" lon="8.8705">
        <ele>1490</ele>
        <time>2021-08-03T11:08:54.236Z</time>
      </trkpt>
      <trkpt lat="47.00359" lon="8.87049">
        <ele>1490</ele>
        <time>2021-08-03T11:08:55.236Z</time>
      </trkpt>
      <trkpt lat="47.00358" lon="8.87048">
        <ele>1490</ele>
        <time>2021-08-03T11:08:56.236Z</time>
      </trkpt>
      <trkpt lat="47.00358" lon="8.87047">
        <ele>1490</ele>
        <time>2021-08-03T11:08:57.236Z</time>
      </trkpt>
      <trkpt lat="47.00357" lon="8.87047">
        <ele>1489</ele>
        <time>2021-08-03T11:08:58.236Z</time>
      </trkpt>
      <trkpt lat="47.00357" lon="8.87046">
        <ele>1489</ele>
        <time>2021-08-03T11:08:59.236Z</time>
      </trkpt>
      <trkpt lat="47.00356" lon="8.87045">
        <ele>1489</ele>
        <time>2021-08-03T11:09:00.236Z</time>
      </trkpt>
      <trkpt lat="47.00355" lon="8.87044">
        <ele>1490</ele>
        <time>2021-08-03T11:09:01.236Z</time>
      </trkpt>
      <trkpt lat="47.00355" lon="8.87043">
        <ele>1490</ele>
        <time>2021-08-03T11:09:02.236Z</time>
      </trkpt>
      <trkpt lat="47.00354" lon="8.87042">
        <ele>1491</ele>
        <time>2021-08-03T11:09:03.236Z</time>
      </trkpt>
      <trkpt lat="47.00353" lon="8.87042">
        <ele>1492</ele>
        <time>2021-08-03T11:09:04.236Z</time>
      </trkpt>
      <trkpt lat="47.00352" lon="8.87041">
        <ele>1491</ele>
        <time>2021-08-03T11:09:05.236Z</time>
      </trkpt>
      <trkpt lat="47.00352" lon="8.87041">
        <ele>1491</ele>
        <time>2021-08-03T11:09:06.236Z</time>
      </trkpt>
      <trkpt lat="47.00351" lon="8.8704">
        <ele>1491</ele>
        <time>2021-08-03T11:09:08.337Z</time>
      </trkpt>
      <trkpt lat="47.00351" lon="8.87039">
        <ele>1490</ele>
        <time>2021-08-03T11:09:14.224Z</time>
      </trkpt>
      <trkpt lat="47.0035" lon="8.87038">
        <ele>1490</ele>
        <time>2021-08-03T11:09:15.224Z</time>
      </trkpt>
      <trkpt lat="47.00349" lon="8.87038">
        <ele>1490</ele>
        <time>2021-08-03T11:09:16.224Z</time>
      </trkpt>
      <trkpt lat="47.00348" lon="8.87037">
        <ele>1491</ele>
        <time>2021-08-03T11:09:17.224Z</time>
      </trkpt>
      <trkpt lat="47.00348" lon="8.87036">
        <ele>1491</ele>
        <time>2021-08-03T11:09:18.224Z</time>
      </trkpt>
      <trkpt lat="47.00347" lon="8.87035">
        <ele>1491</ele>
        <time>2021-08-03T11:09:19.224Z</time>
      </trkpt>
      <trkpt lat="47.00347" lon="8.87035">
        <ele>1491</ele>
        <time>2021-08-03T11:09:20.224Z</time>
      </trkpt>
      <trkpt lat="47.00345" lon="8.87034">
        <ele>1491</ele>
        <time>2021-08-03T11:09:40.358Z</time>
      </trkpt>
      <trkpt lat="47.00345" lon="8.87034">
        <ele>1491</ele>
        <time>2021-08-03T11:09:41.358Z</time>
      </trkpt>
      <trkpt lat="47.00344" lon="8.87033">
        <ele>1490</ele>
        <time>2021-08-03T11:09:42.358Z</time>
      </trkpt>
      <trkpt lat="47.00343" lon="8.87033">
        <ele>1490</ele>
        <time>2021-08-03T11:09:43.358Z</time>
      </trkpt>
      <trkpt lat="47.00343" lon="8.87032">
        <ele>1490</ele>
        <time>2021-08-03T11:09:44.358Z</time>
      </trkpt>
      <trkpt lat="47.00342" lon="8.87032">
        <ele>1490</ele>
        <time>2021-08-03T11:09:45.358Z</time>
      </trkpt>
      <trkpt lat="47.00341" lon="8.87031">
        <ele>1490</ele>
        <time>2021-08-03T11:09:46.358Z</time>
      </trkpt>
      <trkpt lat="47.0034" lon="8.87031">
        <ele>1490</ele>
        <time>2021-08-03T11:09:47.358Z</time>
      </trkpt>
      <trkpt lat="47.0034" lon="8.8703">
        <ele>1491</ele>
        <time>2021-08-03T11:09:50.478Z</time>
      </trkpt>
      <trkpt lat="47.00339" lon="8.8703">
        <ele>1492</ele>
        <time>2021-08-03T11:09:51.478Z</time>
      </trkpt>
      <trkpt lat="47.00338" lon="8.87029">
        <ele>1493</ele>
        <time>2021-08-03T11:09:52.478Z</time>
      </trkpt>
      <trkpt lat="47.00337" lon="8.87029">
        <ele>1493</ele>
        <time>2021-08-03T11:09:53.478Z</time>
      </trkpt>
      <trkpt lat="47.00337" lon="8.87028">
        <ele>1494</ele>
        <time>2021-08-03T11:09:54.478Z</time>
      </trkpt>
      <trkpt lat="47.00336" lon="8.87028">
        <ele>1494</ele>
        <time>2021-08-03T11:09:55.478Z</time>
      </trkpt>
      <trkpt lat="47.00335" lon="8.87027">
        <ele>1495</ele>
        <time>2021-08-03T11:09:56.478Z</time>
      </trkpt>
      <trkpt lat="47.00334" lon="8.87026">
        <ele>1495</ele>
        <time>2021-08-03T11:09:57.478Z</time>
      </trkpt>
      <trkpt lat="47.00333" lon="8.87026">
        <ele>1495</ele>
        <time>2021-08-03T11:09:58.478Z</time>
      </trkpt>
      <trkpt lat="47.00333" lon="8.87025">
        <ele>1495</ele>
        <time>2021-08-03T11:09:59.478Z</time>
      </trkpt>
      <trkpt lat="47.00332" lon="8.87024">
        <ele>1496</ele>
        <time>2021-08-03T11:10:00.478Z</time>
      </trkpt>
      <trkpt lat="47.00331" lon="8.87023">
        <ele>1496</ele>
        <time>2021-08-03T11:10:01.478Z</time>
      </trkpt>
      <trkpt lat="47.00331" lon="8.87022">
        <ele>1497</ele>
        <time>2021-08-03T11:10:02.478Z</time>
      </trkpt>
      <trkpt lat="47.0033" lon="8.87022">
        <ele>1497</ele>
        <time>2021-08-03T11:10:04.602Z</time>
      </trkpt>
      <trkpt lat="47.00329" lon="8.87022">
        <ele>1498</ele>
        <time>2021-08-03T11:10:05.602Z</time>
      </trkpt>
      <trkpt lat="47.00328" lon="8.87021">
        <ele>1497</ele>
        <time>2021-08-03T11:10:06.602Z</time>
      </trkpt>
      <trkpt lat="47.00328" lon="8.8702">
        <ele>1496</ele>
        <time>2021-08-03T11:10:07.602Z</time>
      </trkpt>
      <trkpt lat="47.00327" lon="8.8702">
        <ele>1495</ele>
        <time>2021-08-03T11:10:10.605Z</time>
      </trkpt>
      <trkpt lat="47.00327" lon="8.87019">
        <ele>1494</ele>
        <time>2021-08-03T11:10:11.605Z</time>
      </trkpt>
      <trkpt lat="47.00326" lon="8.87019">
        <ele>1494</ele>
        <time>2021-08-03T11:10:12.605Z</time>
      </trkpt>
      <trkpt lat="47.00325" lon="8.87018">
        <ele>1493</ele>
        <time>2021-08-03T11:10:13.605Z</time>
      </trkpt>
      <trkpt lat="47.00325" lon="8.87018">
        <ele>1493</ele>
        <time>2021-08-03T11:10:14.605Z</time>
      </trkpt>
      <trkpt lat="47.00324" lon="8.87017">
        <ele>1493</ele>
        <time>2021-08-03T11:10:16.762Z</time>
      </trkpt>
      <trkpt lat="47.00323" lon="8.87017">
        <ele>1493</ele>
        <time>2021-08-03T11:10:17.762Z</time>
      </trkpt>
      <trkpt lat="47.00322" lon="8.87016">
        <ele>1494</ele>
        <time>2021-08-03T11:10:18.762Z</time>
      </trkpt>
      <trkpt lat="47.0032" lon="8.87015">
        <ele>1494</ele>
        <time>2021-08-03T11:10:19.762Z</time>
      </trkpt>
      <trkpt lat="47.00319" lon="8.87014">
        <ele>1495</ele>
        <time>2021-08-03T11:10:20.762Z</time>
      </trkpt>
      <trkpt lat="47.00319" lon="8.87014">
        <ele>1495</ele>
        <time>2021-08-03T11:10:21.762Z</time>
      </trkpt>
      <trkpt lat="47.00319" lon="8.87013">
        <ele>1495</ele>
        <time>2021-08-03T11:10:22.762Z</time>
      </trkpt>
      <trkpt lat="47.00319" lon="8.87013">
        <ele>1494</ele>
        <time>2021-08-03T11:10:23.762Z</time>
      </trkpt>
      <trkpt lat="47.00317" lon="8.87013">
        <ele>1494</ele>
        <time>2021-08-03T11:10:24.762Z</time>
      </trkpt>
      <trkpt lat="47.00316" lon="8.87012">
        <ele>1494</ele>
        <time>2021-08-03T11:10:25.762Z</time>
      </trkpt>
      <trkpt lat="47.00315" lon="8.87012">
        <ele>1494</ele>
        <time>2021-08-03T11:10:26.762Z</time>
      </trkpt>
      <trkpt lat="47.00314" lon="8.87011">
        <ele>1494</ele>
        <time>2021-08-03T11:10:27.762Z</time>
      </trkpt>
      <trkpt lat="47.00313" lon="8.87011">
        <ele>1494</ele>
        <time>2021-08-03T11:10:28.762Z</time>
      </trkpt>
      <trkpt lat="47.00312" lon="8.8701">
        <ele>1495</ele>
        <time>2021-08-03T11:10:29.762Z</time>
      </trkpt>
      <trkpt lat="47.00311" lon="8.8701">
        <ele>1495</ele>
        <time>2021-08-03T11:10:30.762Z</time>
      </trkpt>
      <trkpt lat="47.00309" lon="8.8701">
        <ele>1496</ele>
        <time>2021-08-03T11:10:31.762Z</time>
      </trkpt>
      <trkpt lat="47.00309" lon="8.8701">
        <ele>1496</ele>
        <time>2021-08-03T11:10:32.762Z</time>
      </trkpt>
      <trkpt lat="47.00308" lon="8.8701">
        <ele>1496</ele>
        <time>2021-08-03T11:10:33.762Z</time>
      </trkpt>
      <trkpt lat="47.00307" lon="8.87009">
        <ele>1497</ele>
        <time>2021-08-03T11:10:34.762Z</time>
      </trkpt>
      <trkpt lat="47.00306" lon="8.87009">
        <ele>1497</ele>
        <time>2021-08-03T11:10:35.762Z</time>
      </trkpt>
      <trkpt lat="47.00305" lon="8.87009">
        <ele>1497</ele>
        <time>2021-08-03T11:10:36.762Z</time>
      </trkpt>
      <trkpt lat="47.00303" lon="8.87009">
        <ele>1498</ele>
        <time>2021-08-03T11:10:37.762Z</time>
      </trkpt>
      <trkpt lat="47.00303" lon="8.87009">
        <ele>1498</ele>
        <time>2021-08-03T11:10:38.762Z</time>
      </trkpt>
      <trkpt lat="47.00302" lon="8.87008">
        <ele>1498</ele>
        <time>2021-08-03T11:10:39.762Z</time>
      </trkpt>
      <trkpt lat="47.003" lon="8.87008">
        <ele>1498</ele>
        <time>2021-08-03T11:10:40.762Z</time>
      </trkpt>
      <trkpt lat="47.00299" lon="8.87008">
        <ele>1498</ele>
        <time>2021-08-03T11:10:41.762Z</time>
      </trkpt>
      <trkpt lat="47.00298" lon="8.87007">
        <ele>1499</ele>
        <time>2021-08-03T11:10:42.762Z</time>
      </trkpt>
      <trkpt lat="47.00297" lon="8.87007">
        <ele>1499</ele>
        <time>2021-08-03T11:10:43.762Z</time>
      </trkpt>
      <trkpt lat="47.00297" lon="8.87007">
        <ele>1500</ele>
        <time>2021-08-03T11:10:44.762Z</time>
      </trkpt>
      <trkpt lat="47.00296" lon="8.87007">
        <ele>1500</ele>
        <time>2021-08-03T11:10:45.762Z</time>
      </trkpt>
      <trkpt lat="47.00295" lon="8.87006">
        <ele>1500</ele>
        <time>2021-08-03T11:10:46.762Z</time>
      </trkpt>
      <trkpt lat="47.00294" lon="8.87005">
        <ele>1501</ele>
        <time>2021-08-03T11:10:47.762Z</time>
      </trkpt>
      <trkpt lat="47.00294" lon="8.87004">
        <ele>1501</ele>
        <time>2021-08-03T11:10:48.762Z</time>
      </trkpt>
      <trkpt lat="47.00293" lon="8.87004">
        <ele>1501</ele>
        <time>2021-08-03T11:10:49.762Z</time>
      </trkpt>
      <trkpt lat="47.00293" lon="8.87003">
        <ele>1501</ele>
        <time>2021-08-03T11:10:50.762Z</time>
      </trkpt>
      <trkpt lat="47.00292" lon="8.87003">
        <ele>1501</ele>
        <time>2021-08-03T11:10:51.762Z</time>
      </trkpt>
      <trkpt lat="47.00291" lon="8.87002">
        <ele>1501</ele>
        <time>2021-08-03T11:10:52.762Z</time>
      </trkpt>
      <trkpt lat="47.0029" lon="8.87002">
        <ele>1501</ele>
        <time>2021-08-03T11:10:53.762Z</time>
      </trkpt>
      <trkpt lat="47.00289" lon="8.87001">
        <ele>1501</ele>
        <time>2021-08-03T11:10:54.762Z</time>
      </trkpt>
      <trkpt lat="47.00288" lon="8.87">
        <ele>1501</ele>
        <time>2021-08-03T11:10:55.762Z</time>
      </trkpt>
      <trkpt lat="47.00287" lon="8.86999">
        <ele>1502</ele>
        <time>2021-08-03T11:10:56.762Z</time>
      </trkpt>
      <trkpt lat="47.00286" lon="8.86999">
        <ele>1501</ele>
        <time>2021-08-03T11:10:57.762Z</time>
      </trkpt>
      <trkpt lat="47.00285" lon="8.86999">
        <ele>1502</ele>
        <time>2021-08-03T11:10:58.762Z</time>
      </trkpt>
      <trkpt lat="47.00285" lon="8.86999">
        <ele>1502</ele>
        <time>2021-08-03T11:10:59.762Z</time>
      </trkpt>
      <trkpt lat="47.00284" lon="8.86999">
        <ele>1502</ele>
        <time>2021-08-03T11:11:00.762Z</time>
      </trkpt>
      <trkpt lat="47.00283" lon="8.87">
        <ele>1502</ele>
        <time>2021-08-03T11:11:01.762Z</time>
      </trkpt>
      <trkpt lat="47.00282" lon="8.87001">
        <ele>1501</ele>
        <time>2021-08-03T11:11:02.762Z</time>
      </trkpt>
      <trkpt lat="47.00281" lon="8.87001">
        <ele>1501</ele>
        <time>2021-08-03T11:11:03.762Z</time>
      </trkpt>
      <trkpt lat="47.00281" lon="8.87002">
        <ele>1501</ele>
        <time>2021-08-03T11:11:04.762Z</time>
      </trkpt>
      <trkpt lat="47.00281" lon="8.87003">
        <ele>1501</ele>
        <time>2021-08-03T11:11:05.762Z</time>
      </trkpt>
      <trkpt lat="47.00281" lon="8.87003">
        <ele>1501</ele>
        <time>2021-08-03T11:11:06.762Z</time>
      </trkpt>
      <trkpt lat="47.0028" lon="8.87004">
        <ele>1502</ele>
        <time>2021-08-03T11:11:07.763Z</time>
      </trkpt>
      <trkpt lat="47.00279" lon="8.87">
        <ele>1496</ele>
        <time>2021-08-03T11:11:08.763Z</time>
      </trkpt>
      <trkpt lat="47.00279" lon="8.87">
        <ele>1496</ele>
        <time>2021-08-03T11:11:09.763Z</time>
      </trkpt>
      <trkpt lat="47.0028" lon="8.87003">
        <ele>1497</ele>
        <time>2021-08-03T11:11:10.764Z</time>
      </trkpt>
      <trkpt lat="47.0028" lon="8.87003">
        <ele>1497</ele>
        <time>2021-08-03T11:11:11.764Z</time>
      </trkpt>
      <trkpt lat="47.00279" lon="8.87004">
        <ele>1498</ele>
        <time>2021-08-03T11:11:12.764Z</time>
      </trkpt>
      <trkpt lat="47.00279" lon="8.87004">
        <ele>1499</ele>
        <time>2021-08-03T11:11:13.765Z</time>
      </trkpt>
      <trkpt lat="47.00279" lon="8.87004">
        <ele>1499</ele>
        <time>2021-08-03T11:11:14.764Z</time>
      </trkpt>
      <trkpt lat="47.0028" lon="8.87006">
        <ele>1498</ele>
        <time>2021-08-03T11:11:15.764Z</time>
      </trkpt>
      <trkpt lat="47.0028" lon="8.87006">
        <ele>1497</ele>
        <time>2021-08-03T11:11:16.764Z</time>
      </trkpt>
      <trkpt lat="47.00279" lon="8.87005">
        <ele>1497</ele>
        <time>2021-08-03T11:11:17.766Z</time>
      </trkpt>
      <trkpt lat="47.00279" lon="8.87005">
        <ele>1497</ele>
        <time>2021-08-03T11:11:18.765Z</time>
      </trkpt>
      <trkpt lat="47.00278" lon="8.87007">
        <ele>1498</ele>
        <time>2021-08-03T11:11:19.766Z</time>
      </trkpt>
      <trkpt lat="47.00277" lon="8.87008">
        <ele>1498</ele>
        <time>2021-08-03T11:11:20.765Z</time>
      </trkpt>
      <trkpt lat="47.00277" lon="8.87008">
        <ele>1498</ele>
        <time>2021-08-03T11:11:21.765Z</time>
      </trkpt>
      <trkpt lat="47.00276" lon="8.87009">
        <ele>1498</ele>
        <time>2021-08-03T11:11:22.766Z</time>
      </trkpt>
      <trkpt lat="47.00276" lon="8.8701">
        <ele>1498</ele>
        <time>2021-08-03T11:11:23.765Z</time>
      </trkpt>
      <trkpt lat="47.00276" lon="8.87011">
        <ele>1498</ele>
        <time>2021-08-03T11:11:24.765Z</time>
      </trkpt>
      <trkpt lat="47.00276" lon="8.87011">
        <ele>1499</ele>
        <time>2021-08-03T11:11:25.765Z</time>
      </trkpt>
      <trkpt lat="47.00276" lon="8.87012">
        <ele>1499</ele>
        <time>2021-08-03T11:11:26.765Z</time>
      </trkpt>
      <trkpt lat="47.00275" lon="8.87013">
        <ele>1500</ele>
        <time>2021-08-03T11:11:27.765Z</time>
      </trkpt>
      <trkpt lat="47.00274" lon="8.87014">
        <ele>1500</ele>
        <time>2021-08-03T11:11:28.766Z</time>
      </trkpt>
      <trkpt lat="47.00273" lon="8.87015">
        <ele>1501</ele>
        <time>2021-08-03T11:11:29.766Z</time>
      </trkpt>
      <trkpt lat="47.00273" lon="8.87016">
        <ele>1501</ele>
        <time>2021-08-03T11:11:30.765Z</time>
      </trkpt>
      <trkpt lat="47.00273" lon="8.87016">
        <ele>1501</ele>
        <time>2021-08-03T11:11:31.766Z</time>
      </trkpt>
      <trkpt lat="47.00272" lon="8.87017">
        <ele>1501</ele>
        <time>2021-08-03T11:11:32.765Z</time>
      </trkpt>
      <trkpt lat="47.00272" lon="8.87018">
        <ele>1500</ele>
        <time>2021-08-03T11:11:33.766Z</time>
      </trkpt>
      <trkpt lat="47.00272" lon="8.87019">
        <ele>1500</ele>
        <time>2021-08-03T11:11:34.766Z</time>
      </trkpt>
      <trkpt lat="47.00271" lon="8.87019">
        <ele>1500</ele>
        <time>2021-08-03T11:11:35.766Z</time>
      </trkpt>
      <trkpt lat="47.00271" lon="8.8702">
        <ele>1500</ele>
        <time>2021-08-03T11:11:39.849Z</time>
      </trkpt>
      <trkpt lat="47.00271" lon="8.87021">
        <ele>1500</ele>
        <time>2021-08-03T11:11:40.848Z</time>
      </trkpt>
      <trkpt lat="47.0027" lon="8.87022">
        <ele>1500</ele>
        <time>2021-08-03T11:11:41.849Z</time>
      </trkpt>
      <trkpt lat="47.0027" lon="8.87022">
        <ele>1499</ele>
        <time>2021-08-03T11:11:42.849Z</time>
      </trkpt>
      <trkpt lat="47.0027" lon="8.87023">
        <ele>1499</ele>
        <time>2021-08-03T11:11:43.848Z</time>
      </trkpt>
      <trkpt lat="47.0027" lon="8.87024">
        <ele>1499</ele>
        <time>2021-08-03T11:11:44.848Z</time>
      </trkpt>
      <trkpt lat="47.00269" lon="8.87025">
        <ele>1499</ele>
        <time>2021-08-03T11:11:45.848Z</time>
      </trkpt>
      <trkpt lat="47.00269" lon="8.87026">
        <ele>1499</ele>
        <time>2021-08-03T11:11:46.849Z</time>
      </trkpt>
      <trkpt lat="47.00268" lon="8.87027">
        <ele>1499</ele>
        <time>2021-08-03T11:11:47.848Z</time>
      </trkpt>
      <trkpt lat="47.00268" lon="8.87028">
        <ele>1498</ele>
        <time>2021-08-03T11:11:48.848Z</time>
      </trkpt>
      <trkpt lat="47.00267" lon="8.87029">
        <ele>1498</ele>
        <time>2021-08-03T11:11:49.848Z</time>
      </trkpt>
      <trkpt lat="47.00267" lon="8.87029">
        <ele>1498</ele>
        <time>2021-08-03T11:11:50.848Z</time>
      </trkpt>
      <trkpt lat="47.00267" lon="8.8703">
        <ele>1498</ele>
        <time>2021-08-03T11:11:51.849Z</time>
      </trkpt>
      <trkpt lat="47.00267" lon="8.87031">
        <ele>1497</ele>
        <time>2021-08-03T11:11:52.849Z</time>
      </trkpt>
      <trkpt lat="47.00266" lon="8.87031">
        <ele>1498</ele>
        <time>2021-08-03T11:11:55.840Z</time>
      </trkpt>
      <trkpt lat="47.00265" lon="8.87032">
        <ele>1498</ele>
        <time>2021-08-03T11:11:56.840Z</time>
      </trkpt>
      <trkpt lat="47.00265" lon="8.87033">
        <ele>1499</ele>
        <time>2021-08-03T11:11:57.841Z</time>
      </trkpt>
      <trkpt lat="47.00265" lon="8.87034">
        <ele>1500</ele>
        <time>2021-08-03T11:11:58.841Z</time>
      </trkpt>
      <trkpt lat="47.00264" lon="8.87034">
        <ele>1500</ele>
        <time>2021-08-03T11:11:59.840Z</time>
      </trkpt>
      <trkpt lat="47.00264" lon="8.87035">
        <ele>1501</ele>
        <time>2021-08-03T11:12:00.840Z</time>
      </trkpt>
      <trkpt lat="47.00263" lon="8.87035">
        <ele>1501</ele>
        <time>2021-08-03T11:12:01.841Z</time>
      </trkpt>
      <trkpt lat="47.00263" lon="8.87036">
        <ele>1502</ele>
        <time>2021-08-03T11:12:02.841Z</time>
      </trkpt>
      <trkpt lat="47.00262" lon="8.87036">
        <ele>1502</ele>
        <time>2021-08-03T11:12:03.841Z</time>
      </trkpt>
      <trkpt lat="47.00262" lon="8.87036">
        <ele>1503</ele>
        <time>2021-08-03T11:12:04.840Z</time>
      </trkpt>
      <trkpt lat="47.00261" lon="8.87036">
        <ele>1503</ele>
        <time>2021-08-03T11:12:05.841Z</time>
      </trkpt>
      <trkpt lat="47.00261" lon="8.87037">
        <ele>1503</ele>
        <time>2021-08-03T11:12:06.841Z</time>
      </trkpt>
      <trkpt lat="47.0026" lon="8.87037">
        <ele>1504</ele>
        <time>2021-08-03T11:12:07.841Z</time>
      </trkpt>
      <trkpt lat="47.00259" lon="8.87037">
        <ele>1504</ele>
        <time>2021-08-03T11:12:08.841Z</time>
      </trkpt>
      <trkpt lat="47.00259" lon="8.87038">
        <ele>1505</ele>
        <time>2021-08-03T11:12:09.841Z</time>
      </trkpt>
      <trkpt lat="47.00258" lon="8.87039">
        <ele>1505</ele>
        <time>2021-08-03T11:12:10.840Z</time>
      </trkpt>
      <trkpt lat="47.00258" lon="8.87039">
        <ele>1506</ele>
        <time>2021-08-03T11:12:11.840Z</time>
      </trkpt>
      <trkpt lat="47.00257" lon="8.8704">
        <ele>1506</ele>
        <time>2021-08-03T11:12:12.840Z</time>
      </trkpt>
      <trkpt lat="47.00257" lon="8.87041">
        <ele>1506</ele>
        <time>2021-08-03T11:12:13.841Z</time>
      </trkpt>
      <trkpt lat="47.00256" lon="8.87042">
        <ele>1506</ele>
        <time>2021-08-03T11:12:14.841Z</time>
      </trkpt>
      <trkpt lat="47.00256" lon="8.87042">
        <ele>1506</ele>
        <time>2021-08-03T11:12:15.841Z</time>
      </trkpt>
      <trkpt lat="47.00256" lon="8.87042">
        <ele>1506</ele>
        <time>2021-08-03T11:12:16.840Z</time>
      </trkpt>
      <trkpt lat="47.00255" lon="8.87043">
        <ele>1506</ele>
        <time>2021-08-03T11:12:17.840Z</time>
      </trkpt>
      <trkpt lat="47.00255" lon="8.87044">
        <ele>1506</ele>
        <time>2021-08-03T11:12:18.841Z</time>
      </trkpt>
      <trkpt lat="47.00254" lon="8.87044">
        <ele>1506</ele>
        <time>2021-08-03T11:12:19.840Z</time>
      </trkpt>
      <trkpt lat="47.00254" lon="8.87045">
        <ele>1506</ele>
        <time>2021-08-03T11:12:20.840Z</time>
      </trkpt>
      <trkpt lat="47.00254" lon="8.87046">
        <ele>1506</ele>
        <time>2021-08-03T11:12:21.840Z</time>
      </trkpt>
      <trkpt lat="47.00254" lon="8.87047">
        <ele>1506</ele>
        <time>2021-08-03T11:12:22.840Z</time>
      </trkpt>
      <trkpt lat="47.00253" lon="8.87047">
        <ele>1506</ele>
        <time>2021-08-03T11:12:23.841Z</time>
      </trkpt>
      <trkpt lat="47.00253" lon="8.87048">
        <ele>1506</ele>
        <time>2021-08-03T11:12:24.841Z</time>
      </trkpt>
      <trkpt lat="47.00252" lon="8.87049">
        <ele>1507</ele>
        <time>2021-08-03T11:12:29.019Z</time>
      </trkpt>
      <trkpt lat="47.00251" lon="8.87049">
        <ele>1507</ele>
        <time>2021-08-03T11:12:30.019Z</time>
      </trkpt>
      <trkpt lat="47.0025" lon="8.8705">
        <ele>1507</ele>
        <time>2021-08-03T11:12:31.018Z</time>
      </trkpt>
      <trkpt lat="47.0025" lon="8.87051">
        <ele>1507</ele>
        <time>2021-08-03T11:12:32.019Z</time>
      </trkpt>
      <trkpt lat="47.00249" lon="8.87052">
        <ele>1507</ele>
        <time>2021-08-03T11:12:36.084Z</time>
      </trkpt>
      <trkpt lat="47.00249" lon="8.87053">
        <ele>1507</ele>
        <time>2021-08-03T11:12:37.084Z</time>
      </trkpt>
      <trkpt lat="47.00248" lon="8.87054">
        <ele>1507</ele>
        <time>2021-08-03T11:12:38.083Z</time>
      </trkpt>
      <trkpt lat="47.00248" lon="8.87054">
        <ele>1507</ele>
        <time>2021-08-03T11:12:39.083Z</time>
      </trkpt>
      <trkpt lat="47.00247" lon="8.87054">
        <ele>1506</ele>
        <time>2021-08-03T11:12:40.084Z</time>
      </trkpt>
      <trkpt lat="47.00246" lon="8.87055">
        <ele>1506</ele>
        <time>2021-08-03T11:12:41.084Z</time>
      </trkpt>
      <trkpt lat="47.00246" lon="8.87055">
        <ele>1506</ele>
        <time>2021-08-03T11:12:42.084Z</time>
      </trkpt>
      <trkpt lat="47.00245" lon="8.87056">
        <ele>1506</ele>
        <time>2021-08-03T11:12:43.083Z</time>
      </trkpt>
      <trkpt lat="47.00245" lon="8.87056">
        <ele>1506</ele>
        <time>2021-08-03T11:12:44.083Z</time>
      </trkpt>
      <trkpt lat="47.00244" lon="8.87057">
        <ele>1506</ele>
        <time>2021-08-03T11:12:45.084Z</time>
      </trkpt>
      <trkpt lat="47.00244" lon="8.87057">
        <ele>1506</ele>
        <time>2021-08-03T11:12:52.147Z</time>
      </trkpt>
      <trkpt lat="47.00243" lon="8.87057">
        <ele>1506</ele>
        <time>2021-08-03T11:12:53.147Z</time>
      </trkpt>
      <trkpt lat="47.00242" lon="8.87057">
        <ele>1506</ele>
        <time>2021-08-03T11:12:54.148Z</time>
      </trkpt>
      <trkpt lat="47.00241" lon="8.87057">
        <ele>1506</ele>
        <time>2021-08-03T11:12:55.148Z</time>
      </trkpt>
      <trkpt lat="47.00241" lon="8.87058">
        <ele>1506</ele>
        <time>2021-08-03T11:12:56.147Z</time>
      </trkpt>
      <trkpt lat="47.0024" lon="8.87058">
        <ele>1507</ele>
        <time>2021-08-03T11:12:57.148Z</time>
      </trkpt>
      <trkpt lat="47.00239" lon="8.87058">
        <ele>1507</ele>
        <time>2021-08-03T11:12:58.148Z</time>
      </trkpt>
      <trkpt lat="47.00238" lon="8.87058">
        <ele>1507</ele>
        <time>2021-08-03T11:12:59.147Z</time>
      </trkpt>
      <trkpt lat="47.00237" lon="8.87058">
        <ele>1508</ele>
        <time>2021-08-03T11:13:00.148Z</time>
      </trkpt>
      <trkpt lat="47.00236" lon="8.87058">
        <ele>1508</ele>
        <time>2021-08-03T11:13:01.148Z</time>
      </trkpt>
      <trkpt lat="47.00236" lon="8.87059">
        <ele>1509</ele>
        <time>2021-08-03T11:13:02.147Z</time>
      </trkpt>
      <trkpt lat="47.00235" lon="8.87058">
        <ele>1509</ele>
        <time>2021-08-03T11:13:03.148Z</time>
      </trkpt>
      <trkpt lat="47.00234" lon="8.87058">
        <ele>1509</ele>
        <time>2021-08-03T11:13:04.147Z</time>
      </trkpt>
      <trkpt lat="47.00234" lon="8.87058">
        <ele>1509</ele>
        <time>2021-08-03T11:13:05.148Z</time>
      </trkpt>
      <trkpt lat="47.00233" lon="8.87058">
        <ele>1509</ele>
        <time>2021-08-03T11:13:06.148Z</time>
      </trkpt>
      <trkpt lat="47.00232" lon="8.87058">
        <ele>1509</ele>
        <time>2021-08-03T11:13:07.147Z</time>
      </trkpt>
      <trkpt lat="47.00231" lon="8.87059">
        <ele>1510</ele>
        <time>2021-08-03T11:13:08.148Z</time>
      </trkpt>
      <trkpt lat="47.00231" lon="8.87058">
        <ele>1510</ele>
        <time>2021-08-03T11:13:09.147Z</time>
      </trkpt>
      <trkpt lat="47.0023" lon="8.87058">
        <ele>1509</ele>
        <time>2021-08-03T11:13:10.148Z</time>
      </trkpt>
      <trkpt lat="47.00229" lon="8.87058">
        <ele>1509</ele>
        <time>2021-08-03T11:13:11.147Z</time>
      </trkpt>
      <trkpt lat="47.00228" lon="8.87058">
        <ele>1509</ele>
        <time>2021-08-03T11:13:12.147Z</time>
      </trkpt>
      <trkpt lat="47.00227" lon="8.87058">
        <ele>1508</ele>
        <time>2021-08-03T11:13:13.147Z</time>
      </trkpt>
      <trkpt lat="47.00227" lon="8.87058">
        <ele>1508</ele>
        <time>2021-08-03T11:13:14.148Z</time>
      </trkpt>
      <trkpt lat="47.00226" lon="8.87059">
        <ele>1509</ele>
        <time>2021-08-03T11:13:15.148Z</time>
      </trkpt>
      <trkpt lat="47.00225" lon="8.87059">
        <ele>1509</ele>
        <time>2021-08-03T11:13:16.147Z</time>
      </trkpt>
      <trkpt lat="47.00225" lon="8.87059">
        <ele>1508</ele>
        <time>2021-08-03T11:13:17.147Z</time>
      </trkpt>
      <trkpt lat="47.00224" lon="8.87059">
        <ele>1508</ele>
        <time>2021-08-03T11:13:18.148Z</time>
      </trkpt>
      <trkpt lat="47.00223" lon="8.87059">
        <ele>1507</ele>
        <time>2021-08-03T11:13:19.148Z</time>
      </trkpt>
      <trkpt lat="47.00223" lon="8.8706">
        <ele>1507</ele>
        <time>2021-08-03T11:13:20.148Z</time>
      </trkpt>
      <trkpt lat="47.00222" lon="8.8706">
        <ele>1507</ele>
        <time>2021-08-03T11:13:21.147Z</time>
      </trkpt>
      <trkpt lat="47.00221" lon="8.8706">
        <ele>1508</ele>
        <time>2021-08-03T11:13:22.148Z</time>
      </trkpt>
      <trkpt lat="47.0022" lon="8.8706">
        <ele>1508</ele>
        <time>2021-08-03T11:13:29.248Z</time>
      </trkpt>
      <trkpt lat="47.00219" lon="8.8706">
        <ele>1508</ele>
        <time>2021-08-03T11:13:30.247Z</time>
      </trkpt>
      <trkpt lat="47.00219" lon="8.8706">
        <ele>1509</ele>
        <time>2021-08-03T11:13:31.248Z</time>
      </trkpt>
      <trkpt lat="47.00218" lon="8.8706">
        <ele>1509</ele>
        <time>2021-08-03T11:13:33.255Z</time>
      </trkpt>
      <trkpt lat="47.00217" lon="8.8706">
        <ele>1509</ele>
        <time>2021-08-03T11:13:34.254Z</time>
      </trkpt>
      <trkpt lat="47.00216" lon="8.8706">
        <ele>1510</ele>
        <time>2021-08-03T11:13:35.254Z</time>
      </trkpt>
      <trkpt lat="47.00215" lon="8.8706">
        <ele>1510</ele>
        <time>2021-08-03T11:13:36.254Z</time>
      </trkpt>
      <trkpt lat="47.00214" lon="8.8706">
        <ele>1510</ele>
        <time>2021-08-03T11:13:37.254Z</time>
      </trkpt>
      <trkpt lat="47.00213" lon="8.87059">
        <ele>1509</ele>
        <time>2021-08-03T11:13:38.255Z</time>
      </trkpt>
      <trkpt lat="47.00212" lon="8.87059">
        <ele>1509</ele>
        <time>2021-08-03T11:13:39.255Z</time>
      </trkpt>
      <trkpt lat="47.00211" lon="8.87058">
        <ele>1509</ele>
        <time>2021-08-03T11:13:40.254Z</time>
      </trkpt>
      <trkpt lat="47.0021" lon="8.87058">
        <ele>1509</ele>
        <time>2021-08-03T11:13:41.254Z</time>
      </trkpt>
      <trkpt lat="47.00209" lon="8.87059">
        <ele>1509</ele>
        <time>2021-08-03T11:13:42.254Z</time>
      </trkpt>
      <trkpt lat="47.00208" lon="8.87059">
        <ele>1510</ele>
        <time>2021-08-03T11:13:43.255Z</time>
      </trkpt>
      <trkpt lat="47.00207" lon="8.87058">
        <ele>1510</ele>
        <time>2021-08-03T11:13:44.254Z</time>
      </trkpt>
      <trkpt lat="47.00207" lon="8.87058">
        <ele>1511</ele>
        <time>2021-08-03T11:13:45.254Z</time>
      </trkpt>
      <trkpt lat="47.00206" lon="8.87058">
        <ele>1512</ele>
        <time>2021-08-03T11:13:46.254Z</time>
      </trkpt>
      <trkpt lat="47.00206" lon="8.87058">
        <ele>1513</ele>
        <time>2021-08-03T11:13:50.344Z</time>
      </trkpt>
      <trkpt lat="47.00205" lon="8.87059">
        <ele>1513</ele>
        <time>2021-08-03T11:13:51.345Z</time>
      </trkpt>
      <trkpt lat="47.00205" lon="8.87059">
        <ele>1513</ele>
        <time>2021-08-03T11:14:03.244Z</time>
      </trkpt>
      <trkpt lat="47.00204" lon="8.8706">
        <ele>1513</ele>
        <time>2021-08-03T11:14:04.245Z</time>
      </trkpt>
      <trkpt lat="47.00204" lon="8.8706">
        <ele>1513</ele>
        <time>2021-08-03T11:14:05.245Z</time>
      </trkpt>
      <trkpt lat="47.00204" lon="8.8706">
        <ele>1513</ele>
        <time>2021-08-03T11:14:06.244Z</time>
      </trkpt>
      <trkpt lat="47.00203" lon="8.8706">
        <ele>1513</ele>
        <time>2021-08-03T11:14:07.245Z</time>
      </trkpt>
      <trkpt lat="47.00202" lon="8.8706">
        <ele>1513</ele>
        <time>2021-08-03T11:14:08.244Z</time>
      </trkpt>
      <trkpt lat="47.00201" lon="8.8706">
        <ele>1514</ele>
        <time>2021-08-03T11:14:09.244Z</time>
      </trkpt>
      <trkpt lat="47.00201" lon="8.8706">
        <ele>1514</ele>
        <time>2021-08-03T11:14:10.245Z</time>
      </trkpt>
      <trkpt lat="47.002" lon="8.8706">
        <ele>1514</ele>
        <time>2021-08-03T11:14:11.245Z</time>
      </trkpt>
      <trkpt lat="47.00199" lon="8.8706">
        <ele>1514</ele>
        <time>2021-08-03T11:14:12.245Z</time>
      </trkpt>
      <trkpt lat="47.00199" lon="8.8706">
        <ele>1514</ele>
        <time>2021-08-03T11:14:13.245Z</time>
      </trkpt>
      <trkpt lat="47.00198" lon="8.8706">
        <ele>1514</ele>
        <time>2021-08-03T11:14:14.245Z</time>
      </trkpt>
      <trkpt lat="47.00197" lon="8.8706">
        <ele>1515</ele>
        <time>2021-08-03T11:14:15.245Z</time>
      </trkpt>
      <trkpt lat="47.00196" lon="8.8706">
        <ele>1515</ele>
        <time>2021-08-03T11:14:16.245Z</time>
      </trkpt>
      <trkpt lat="47.00195" lon="8.8706">
        <ele>1515</ele>
        <time>2021-08-03T11:14:17.244Z</time>
      </trkpt>
      <trkpt lat="47.00194" lon="8.8706">
        <ele>1516</ele>
        <time>2021-08-03T11:14:18.244Z</time>
      </trkpt>
      <trkpt lat="47.00193" lon="8.8706">
        <ele>1516</ele>
        <time>2021-08-03T11:14:19.245Z</time>
      </trkpt>
      <trkpt lat="47.00192" lon="8.87059">
        <ele>1517</ele>
        <time>2021-08-03T11:14:20.244Z</time>
      </trkpt>
      <trkpt lat="47.00191" lon="8.87059">
        <ele>1517</ele>
        <time>2021-08-03T11:14:21.245Z</time>
      </trkpt>
      <trkpt lat="47.0019" lon="8.87059">
        <ele>1518</ele>
        <time>2021-08-03T11:14:22.245Z</time>
      </trkpt>
      <trkpt lat="47.00189" lon="8.87059">
        <ele>1518</ele>
        <time>2021-08-03T11:14:23.245Z</time>
      </trkpt>
      <trkpt lat="47.00189" lon="8.87059">
        <ele>1518</ele>
        <time>2021-08-03T11:14:24.244Z</time>
      </trkpt>
      <trkpt lat="47.00188" lon="8.87059">
        <ele>1519</ele>
        <time>2021-08-03T11:14:25.244Z</time>
      </trkpt>
      <trkpt lat="47.00187" lon="8.87059">
        <ele>1519</ele>
        <time>2021-08-03T11:14:31.390Z</time>
      </trkpt>
      <trkpt lat="47.00186" lon="8.87059">
        <ele>1519</ele>
        <time>2021-08-03T11:14:32.390Z</time>
      </trkpt>
      <trkpt lat="47.00185" lon="8.87059">
        <ele>1520</ele>
        <time>2021-08-03T11:14:33.391Z</time>
      </trkpt>
      <trkpt lat="47.00184" lon="8.87059">
        <ele>1520</ele>
        <time>2021-08-03T11:14:34.391Z</time>
      </trkpt>
      <trkpt lat="47.00183" lon="8.87059">
        <ele>1520</ele>
        <time>2021-08-03T11:14:35.390Z</time>
      </trkpt>
      <trkpt lat="47.00183" lon="8.87059">
        <ele>1520</ele>
        <time>2021-08-03T11:14:36.391Z</time>
      </trkpt>
      <trkpt lat="47.00182" lon="8.87059">
        <ele>1520</ele>
        <time>2021-08-03T11:14:37.390Z</time>
      </trkpt>
      <trkpt lat="47.00181" lon="8.87058">
        <ele>1520</ele>
        <time>2021-08-03T11:14:38.390Z</time>
      </trkpt>
      <trkpt lat="47.0018" lon="8.87058">
        <ele>1520</ele>
        <time>2021-08-03T11:14:39.391Z</time>
      </trkpt>
      <trkpt lat="47.00179" lon="8.87058">
        <ele>1520</ele>
        <time>2021-08-03T11:14:46.477Z</time>
      </trkpt>
      <trkpt lat="47.00179" lon="8.87058">
        <ele>1520</ele>
        <time>2021-08-03T11:14:47.478Z</time>
      </trkpt>
      <trkpt lat="47.00178" lon="8.87058">
        <ele>1519</ele>
        <time>2021-08-03T11:14:48.478Z</time>
      </trkpt>
      <trkpt lat="47.00177" lon="8.87059">
        <ele>1519</ele>
        <time>2021-08-03T11:14:49.477Z</time>
      </trkpt>
      <trkpt lat="47.00177" lon="8.87059">
        <ele>1518</ele>
        <time>2021-08-03T11:14:50.478Z</time>
      </trkpt>
      <trkpt lat="47.00176" lon="8.87059">
        <ele>1517</ele>
        <time>2021-08-03T11:14:51.477Z</time>
      </trkpt>
      <trkpt lat="47.00175" lon="8.8706">
        <ele>1517</ele>
        <time>2021-08-03T11:14:52.478Z</time>
      </trkpt>
      <trkpt lat="47.00175" lon="8.8706">
        <ele>1517</ele>
        <time>2021-08-03T11:14:53.477Z</time>
      </trkpt>
      <trkpt lat="47.00174" lon="8.87061">
        <ele>1516</ele>
        <time>2021-08-03T11:14:54.477Z</time>
      </trkpt>
      <trkpt lat="47.00173" lon="8.87061">
        <ele>1516</ele>
        <time>2021-08-03T11:14:55.478Z</time>
      </trkpt>
      <trkpt lat="47.00173" lon="8.87061">
        <ele>1516</ele>
        <time>2021-08-03T11:14:56.477Z</time>
      </trkpt>
      <trkpt lat="47.00172" lon="8.87061">
        <ele>1516</ele>
        <time>2021-08-03T11:14:57.477Z</time>
      </trkpt>
      <trkpt lat="47.00171" lon="8.87061">
        <ele>1516</ele>
        <time>2021-08-03T11:14:58.478Z</time>
      </trkpt>
      <trkpt lat="47.0017" lon="8.87061">
        <ele>1517</ele>
        <time>2021-08-03T11:14:59.478Z</time>
      </trkpt>
      <trkpt lat="47.00169" lon="8.87061">
        <ele>1517</ele>
        <time>2021-08-03T11:15:00.477Z</time>
      </trkpt>
      <trkpt lat="47.00169" lon="8.87061">
        <ele>1517</ele>
        <time>2021-08-03T11:15:01.477Z</time>
      </trkpt>
      <trkpt lat="47.00168" lon="8.87061">
        <ele>1517</ele>
        <time>2021-08-03T11:15:02.477Z</time>
      </trkpt>
      <trkpt lat="47.00167" lon="8.8706">
        <ele>1517</ele>
        <time>2021-08-03T11:15:03.477Z</time>
      </trkpt>
      <trkpt lat="47.00167" lon="8.8706">
        <ele>1517</ele>
        <time>2021-08-03T11:15:04.477Z</time>
      </trkpt>
      <trkpt lat="47.00167" lon="8.87059">
        <ele>1517</ele>
        <time>2021-08-03T11:15:05.477Z</time>
      </trkpt>
      <trkpt lat="47.00166" lon="8.87059">
        <ele>1517</ele>
        <time>2021-08-03T11:15:06.477Z</time>
      </trkpt>
      <trkpt lat="47.00166" lon="8.87059">
        <ele>1517</ele>
        <time>2021-08-03T11:15:07.477Z</time>
      </trkpt>
      <trkpt lat="47.00165" lon="8.87058">
        <ele>1518</ele>
        <time>2021-08-03T11:15:08.478Z</time>
      </trkpt>
      <trkpt lat="47.00165" lon="8.87057">
        <ele>1518</ele>
        <time>2021-08-03T11:15:09.477Z</time>
      </trkpt>
      <trkpt lat="47.00164" lon="8.87057">
        <ele>1519</ele>
        <time>2021-08-03T11:15:10.477Z</time>
      </trkpt>
      <trkpt lat="47.00163" lon="8.87056">
        <ele>1519</ele>
        <time>2021-08-03T11:15:11.478Z</time>
      </trkpt>
      <trkpt lat="47.00163" lon="8.87056">
        <ele>1520</ele>
        <time>2021-08-03T11:15:12.477Z</time>
      </trkpt>
      <trkpt lat="47.00162" lon="8.87056">
        <ele>1520</ele>
        <time>2021-08-03T11:15:13.477Z</time>
      </trkpt>
      <trkpt lat="47.00161" lon="8.87055">
        <ele>1520</ele>
        <time>2021-08-03T11:15:14.478Z</time>
      </trkpt>
      <trkpt lat="47.00161" lon="8.87054">
        <ele>1520</ele>
        <time>2021-08-03T11:15:15.478Z</time>
      </trkpt>
      <trkpt lat="47.0016" lon="8.87053">
        <ele>1520</ele>
        <time>2021-08-03T11:15:16.477Z</time>
      </trkpt>
      <trkpt lat="47.00159" lon="8.87053">
        <ele>1520</ele>
        <time>2021-08-03T11:15:17.478Z</time>
      </trkpt>
      <trkpt lat="47.00159" lon="8.87052">
        <ele>1520</ele>
        <time>2021-08-03T11:15:18.478Z</time>
      </trkpt>
      <trkpt lat="47.00158" lon="8.87052">
        <ele>1520</ele>
        <time>2021-08-03T11:15:19.477Z</time>
      </trkpt>
      <trkpt lat="47.00157" lon="8.87051">
        <ele>1520</ele>
        <time>2021-08-03T11:15:20.477Z</time>
      </trkpt>
      <trkpt lat="47.00157" lon="8.87051">
        <ele>1520</ele>
        <time>2021-08-03T11:15:21.478Z</time>
      </trkpt>
      <trkpt lat="47.00157" lon="8.87051">
        <ele>1521</ele>
        <time>2021-08-03T11:15:22.477Z</time>
      </trkpt>
      <trkpt lat="47.00156" lon="8.87051">
        <ele>1521</ele>
        <time>2021-08-03T11:15:23.477Z</time>
      </trkpt>
      <trkpt lat="47.00156" lon="8.8705">
        <ele>1521</ele>
        <time>2021-08-03T11:15:24.477Z</time>
      </trkpt>
      <trkpt lat="47.00155" lon="8.8705">
        <ele>1521</ele>
        <time>2021-08-03T11:15:25.478Z</time>
      </trkpt>
      <trkpt lat="47.00154" lon="8.8705">
        <ele>1521</ele>
        <time>2021-08-03T11:15:26.477Z</time>
      </trkpt>
      <trkpt lat="47.00153" lon="8.8705">
        <ele>1521</ele>
        <time>2021-08-03T11:15:27.477Z</time>
      </trkpt>
      <trkpt lat="47.00153" lon="8.8705">
        <ele>1521</ele>
        <time>2021-08-03T11:15:28.477Z</time>
      </trkpt>
      <trkpt lat="47.00152" lon="8.8705">
        <ele>1521</ele>
        <time>2021-08-03T11:15:29.478Z</time>
      </trkpt>
      <trkpt lat="47.00151" lon="8.87051">
        <ele>1522</ele>
        <time>2021-08-03T11:15:30.477Z</time>
      </trkpt>
      <trkpt lat="47.0015" lon="8.87052">
        <ele>1522</ele>
        <time>2021-08-03T11:15:31.477Z</time>
      </trkpt>
      <trkpt lat="47.00149" lon="8.87052">
        <ele>1523</ele>
        <time>2021-08-03T11:15:32.477Z</time>
      </trkpt>
      <trkpt lat="47.00149" lon="8.87052">
        <ele>1523</ele>
        <time>2021-08-03T11:15:33.478Z</time>
      </trkpt>
      <trkpt lat="47.00148" lon="8.87052">
        <ele>1523</ele>
        <time>2021-08-03T11:15:34.477Z</time>
      </trkpt>
      <trkpt lat="47.00148" lon="8.87052">
        <ele>1523</ele>
        <time>2021-08-03T11:15:35.478Z</time>
      </trkpt>
      <trkpt lat="47.00147" lon="8.87053">
        <ele>1524</ele>
        <time>2021-08-03T11:15:36.478Z</time>
      </trkpt>
      <trkpt lat="47.00146" lon="8.87052">
        <ele>1524</ele>
        <time>2021-08-03T11:15:37.477Z</time>
      </trkpt>
      <trkpt lat="47.00146" lon="8.87052">
        <ele>1524</ele>
        <time>2021-08-03T11:15:38.477Z</time>
      </trkpt>
      <trkpt lat="47.00145" lon="8.87052">
        <ele>1524</ele>
        <time>2021-08-03T11:15:39.478Z</time>
      </trkpt>
      <trkpt lat="47.00144" lon="8.87051">
        <ele>1525</ele>
        <time>2021-08-03T11:15:40.477Z</time>
      </trkpt>
      <trkpt lat="47.00144" lon="8.87052">
        <ele>1525</ele>
        <time>2021-08-03T11:15:41.478Z</time>
      </trkpt>
      <trkpt lat="47.00143" lon="8.87052">
        <ele>1525</ele>
        <time>2021-08-03T11:15:42.478Z</time>
      </trkpt>
      <trkpt lat="47.00143" lon="8.87052">
        <ele>1525</ele>
        <time>2021-08-03T11:15:43.478Z</time>
      </trkpt>
      <trkpt lat="47.00142" lon="8.87053">
        <ele>1526</ele>
        <time>2021-08-03T11:15:44.478Z</time>
      </trkpt>
      <trkpt lat="47.00141" lon="8.87053">
        <ele>1526</ele>
        <time>2021-08-03T11:15:45.478Z</time>
      </trkpt>
      <trkpt lat="47.0014" lon="8.87054">
        <ele>1526</ele>
        <time>2021-08-03T11:15:46.478Z</time>
      </trkpt>
      <trkpt lat="47.0014" lon="8.87054">
        <ele>1526</ele>
        <time>2021-08-03T11:15:47.478Z</time>
      </trkpt>
      <trkpt lat="47.00139" lon="8.87054">
        <ele>1526</ele>
        <time>2021-08-03T11:15:48.477Z</time>
      </trkpt>
      <trkpt lat="47.00139" lon="8.87054">
        <ele>1526</ele>
        <time>2021-08-03T11:15:49.478Z</time>
      </trkpt>
      <trkpt lat="47.00138" lon="8.87055">
        <ele>1526</ele>
        <time>2021-08-03T11:15:50.478Z</time>
      </trkpt>
      <trkpt lat="47.00137" lon="8.87055">
        <ele>1526</ele>
        <time>2021-08-03T11:15:51.477Z</time>
      </trkpt>
      <trkpt lat="47.00137" lon="8.87055">
        <ele>1526</ele>
        <time>2021-08-03T11:15:52.477Z</time>
      </trkpt>
      <trkpt lat="47.00136" lon="8.87055">
        <ele>1526</ele>
        <time>2021-08-03T11:15:53.478Z</time>
      </trkpt>
      <trkpt lat="47.00135" lon="8.87055">
        <ele>1526</ele>
        <time>2021-08-03T11:15:54.477Z</time>
      </trkpt>
      <trkpt lat="47.00135" lon="8.87055">
        <ele>1526</ele>
        <time>2021-08-03T11:15:55.478Z</time>
      </trkpt>
      <trkpt lat="47.00135" lon="8.87055">
        <ele>1526</ele>
        <time>2021-08-03T11:15:56.478Z</time>
      </trkpt>
      <trkpt lat="47.00134" lon="8.87055">
        <ele>1527</ele>
        <time>2021-08-03T11:15:57.477Z</time>
      </trkpt>
      <trkpt lat="47.00134" lon="8.87055">
        <ele>1527</ele>
        <time>2021-08-03T11:15:58.478Z</time>
      </trkpt>
      <trkpt lat="47.00133" lon="8.87055">
        <ele>1526</ele>
        <time>2021-08-03T11:15:59.478Z</time>
      </trkpt>
      <trkpt lat="47.00132" lon="8.87056">
        <ele>1526</ele>
        <time>2021-08-03T11:16:00.477Z</time>
      </trkpt>
      <trkpt lat="47.00132" lon="8.87056">
        <ele>1525</ele>
        <time>2021-08-03T11:16:01.477Z</time>
      </trkpt>
      <trkpt lat="47.00131" lon="8.87057">
        <ele>1525</ele>
        <time>2021-08-03T11:16:02.477Z</time>
      </trkpt>
      <trkpt lat="47.00131" lon="8.87057">
        <ele>1524</ele>
        <time>2021-08-03T11:16:03.477Z</time>
      </trkpt>
      <trkpt lat="47.0013" lon="8.87058">
        <ele>1524</ele>
        <time>2021-08-03T11:16:04.478Z</time>
      </trkpt>
      <trkpt lat="47.0013" lon="8.87058">
        <ele>1523</ele>
        <time>2021-08-03T11:16:05.478Z</time>
      </trkpt>
      <trkpt lat="47.00129" lon="8.87058">
        <ele>1523</ele>
        <time>2021-08-03T11:16:06.477Z</time>
      </trkpt>
      <trkpt lat="47.00128" lon="8.87059">
        <ele>1523</ele>
        <time>2021-08-03T11:16:07.478Z</time>
      </trkpt>
      <trkpt lat="47.00127" lon="8.87059">
        <ele>1523</ele>
        <time>2021-08-03T11:16:08.478Z</time>
      </trkpt>
      <trkpt lat="47.00126" lon="8.87059">
        <ele>1523</ele>
        <time>2021-08-03T11:16:09.477Z</time>
      </trkpt>
      <trkpt lat="47.00125" lon="8.8706">
        <ele>1523</ele>
        <time>2021-08-03T11:16:10.478Z</time>
      </trkpt>
      <trkpt lat="47.00124" lon="8.8706">
        <ele>1523</ele>
        <time>2021-08-03T11:16:11.478Z</time>
      </trkpt>
      <trkpt lat="47.00123" lon="8.87061">
        <ele>1523</ele>
        <time>2021-08-03T11:16:12.478Z</time>
      </trkpt>
      <trkpt lat="47.00122" lon="8.87061">
        <ele>1523</ele>
        <time>2021-08-03T11:16:13.478Z</time>
      </trkpt>
      <trkpt lat="47.00121" lon="8.87061">
        <ele>1523</ele>
        <time>2021-08-03T11:16:14.478Z</time>
      </trkpt>
      <trkpt lat="47.0012" lon="8.87062">
        <ele>1523</ele>
        <time>2021-08-03T11:16:15.477Z</time>
      </trkpt>
      <trkpt lat="47.00119" lon="8.87064">
        <ele>1523</ele>
        <time>2021-08-03T11:16:16.478Z</time>
      </trkpt>
      <trkpt lat="47.00119" lon="8.87064">
        <ele>1524</ele>
        <time>2021-08-03T11:16:17.478Z</time>
      </trkpt>
      <trkpt lat="47.00118" lon="8.87065">
        <ele>1523</ele>
        <time>2021-08-03T11:16:18.478Z</time>
      </trkpt>
      <trkpt lat="47.00118" lon="8.87066">
        <ele>1523</ele>
        <time>2021-08-03T11:16:19.477Z</time>
      </trkpt>
      <trkpt lat="47.00117" lon="8.87066">
        <ele>1523</ele>
        <time>2021-08-03T11:16:20.478Z</time>
      </trkpt>
      <trkpt lat="47.00115" lon="8.87067">
        <ele>1522</ele>
        <time>2021-08-03T11:16:21.478Z</time>
      </trkpt>
      <trkpt lat="47.00115" lon="8.87068">
        <ele>1522</ele>
        <time>2021-08-03T11:16:22.478Z</time>
      </trkpt>
      <trkpt lat="47.00114" lon="8.87068">
        <ele>1522</ele>
        <time>2021-08-03T11:16:23.478Z</time>
      </trkpt>
      <trkpt lat="47.00113" lon="8.87069">
        <ele>1522</ele>
        <time>2021-08-03T11:16:24.478Z</time>
      </trkpt>
      <trkpt lat="47.00112" lon="8.87069">
        <ele>1522</ele>
        <time>2021-08-03T11:16:25.477Z</time>
      </trkpt>
      <trkpt lat="47.00111" lon="8.87069">
        <ele>1523</ele>
        <time>2021-08-03T11:16:26.478Z</time>
      </trkpt>
      <trkpt lat="47.0011" lon="8.87069">
        <ele>1523</ele>
        <time>2021-08-03T11:16:27.477Z</time>
      </trkpt>
      <trkpt lat="47.00109" lon="8.87069">
        <ele>1524</ele>
        <time>2021-08-03T11:16:28.478Z</time>
      </trkpt>
      <trkpt lat="47.00108" lon="8.8707">
        <ele>1524</ele>
        <time>2021-08-03T11:16:29.478Z</time>
      </trkpt>
      <trkpt lat="47.00107" lon="8.8707">
        <ele>1524</ele>
        <time>2021-08-03T11:16:30.477Z</time>
      </trkpt>
      <trkpt lat="47.00107" lon="8.8707">
        <ele>1524</ele>
        <time>2021-08-03T11:16:31.477Z</time>
      </trkpt>
      <trkpt lat="47.00106" lon="8.8707">
        <ele>1524</ele>
        <time>2021-08-03T11:16:32.478Z</time>
      </trkpt>
      <trkpt lat="47.00105" lon="8.87071">
        <ele>1524</ele>
        <time>2021-08-03T11:16:33.477Z</time>
      </trkpt>
      <trkpt lat="47.00104" lon="8.87071">
        <ele>1524</ele>
        <time>2021-08-03T11:16:34.478Z</time>
      </trkpt>
      <trkpt lat="47.00103" lon="8.87071">
        <ele>1525</ele>
        <time>2021-08-03T11:16:35.478Z</time>
      </trkpt>
      <trkpt lat="47.00102" lon="8.87071">
        <ele>1525</ele>
        <time>2021-08-03T11:16:36.478Z</time>
      </trkpt>
      <trkpt lat="47.00101" lon="8.8707">
        <ele>1526</ele>
        <time>2021-08-03T11:16:37.478Z</time>
      </trkpt>
      <trkpt lat="47.001" lon="8.8707">
        <ele>1526</ele>
        <time>2021-08-03T11:16:38.477Z</time>
      </trkpt>
      <trkpt lat="47.00099" lon="8.87069">
        <ele>1527</ele>
        <time>2021-08-03T11:16:39.478Z</time>
      </trkpt>
      <trkpt lat="47.00098" lon="8.87069">
        <ele>1528</ele>
        <time>2021-08-03T11:16:40.478Z</time>
      </trkpt>
      <trkpt lat="47.00098" lon="8.87068">
        <ele>1529</ele>
        <time>2021-08-03T11:16:41.478Z</time>
      </trkpt>
      <trkpt lat="47.00097" lon="8.87068">
        <ele>1529</ele>
        <time>2021-08-03T11:16:42.478Z</time>
      </trkpt>
      <trkpt lat="47.00096" lon="8.87068">
        <ele>1529</ele>
        <time>2021-08-03T11:16:43.477Z</time>
      </trkpt>
      <trkpt lat="47.00096" lon="8.87068">
        <ele>1529</ele>
        <time>2021-08-03T11:16:44.478Z</time>
      </trkpt>
      <trkpt lat="47.00095" lon="8.87068">
        <ele>1528</ele>
        <time>2021-08-03T11:16:45.478Z</time>
      </trkpt>
      <trkpt lat="47.00094" lon="8.87068">
        <ele>1528</ele>
        <time>2021-08-03T11:16:46.478Z</time>
      </trkpt>
      <trkpt lat="47.00094" lon="8.87068">
        <ele>1527</ele>
        <time>2021-08-03T11:16:47.478Z</time>
      </trkpt>
      <trkpt lat="47.00093" lon="8.87069">
        <ele>1527</ele>
        <time>2021-08-03T11:16:48.478Z</time>
      </trkpt>
      <trkpt lat="47.00092" lon="8.87069">
        <ele>1527</ele>
        <time>2021-08-03T11:16:49.477Z</time>
      </trkpt>
      <trkpt lat="47.00092" lon="8.87069">
        <ele>1526</ele>
        <time>2021-08-03T11:16:50.477Z</time>
      </trkpt>
      <trkpt lat="47.00091" lon="8.8707">
        <ele>1526</ele>
        <time>2021-08-03T11:16:51.478Z</time>
      </trkpt>
      <trkpt lat="47.0009" lon="8.8707">
        <ele>1526</ele>
        <time>2021-08-03T11:16:52.478Z</time>
      </trkpt>
      <trkpt lat="47.00089" lon="8.8707">
        <ele>1526</ele>
        <time>2021-08-03T11:16:53.478Z</time>
      </trkpt>
      <trkpt lat="47.00088" lon="8.8707">
        <ele>1527</ele>
        <time>2021-08-03T11:16:54.477Z</time>
      </trkpt>
      <trkpt lat="47.00088" lon="8.8707">
        <ele>1527</ele>
        <time>2021-08-03T11:16:55.478Z</time>
      </trkpt>
      <trkpt lat="47.00087" lon="8.8707">
        <ele>1528</ele>
        <time>2021-08-03T11:16:56.477Z</time>
      </trkpt>
      <trkpt lat="47.00086" lon="8.8707">
        <ele>1528</ele>
        <time>2021-08-03T11:16:57.477Z</time>
      </trkpt>
      <trkpt lat="47.00085" lon="8.87071">
        <ele>1528</ele>
        <time>2021-08-03T11:16:58.478Z</time>
      </trkpt>
      <trkpt lat="47.00085" lon="8.87071">
        <ele>1529</ele>
        <time>2021-08-03T11:16:59.478Z</time>
      </trkpt>
      <trkpt lat="47.00084" lon="8.8707">
        <ele>1529</ele>
        <time>2021-08-03T11:17:00.477Z</time>
      </trkpt>
      <trkpt lat="47.00083" lon="8.8707">
        <ele>1529</ele>
        <time>2021-08-03T11:17:01.478Z</time>
      </trkpt>
      <trkpt lat="47.00082" lon="8.8707">
        <ele>1529</ele>
        <time>2021-08-03T11:17:02.477Z</time>
      </trkpt>
      <trkpt lat="47.00082" lon="8.8707">
        <ele>1529</ele>
        <time>2021-08-03T11:17:03.478Z</time>
      </trkpt>
      <trkpt lat="47.00081" lon="8.8707">
        <ele>1529</ele>
        <time>2021-08-03T11:17:04.477Z</time>
      </trkpt>
      <trkpt lat="47.00081" lon="8.8707">
        <ele>1529</ele>
        <time>2021-08-03T11:17:05.478Z</time>
      </trkpt>
      <trkpt lat="47.0008" lon="8.8707">
        <ele>1529</ele>
        <time>2021-08-03T11:17:06.477Z</time>
      </trkpt>
      <trkpt lat="47.0008" lon="8.8707">
        <ele>1529</ele>
        <time>2021-08-03T11:17:07.478Z</time>
      </trkpt>
      <trkpt lat="47.00079" lon="8.87071">
        <ele>1529</ele>
        <time>2021-08-03T11:17:08.477Z</time>
      </trkpt>
      <trkpt lat="47.00078" lon="8.87071">
        <ele>1529</ele>
        <time>2021-08-03T11:17:09.478Z</time>
      </trkpt>
      <trkpt lat="47.00078" lon="8.87072">
        <ele>1529</ele>
        <time>2021-08-03T11:17:10.478Z</time>
      </trkpt>
      <trkpt lat="47.00078" lon="8.87073">
        <ele>1529</ele>
        <time>2021-08-03T11:17:11.478Z</time>
      </trkpt>
      <trkpt lat="47.00078" lon="8.87073">
        <ele>1529</ele>
        <time>2021-08-03T11:17:12.478Z</time>
      </trkpt>
      <trkpt lat="47.00079" lon="8.87072">
        <ele>1529</ele>
        <time>2021-08-03T11:17:13.477Z</time>
      </trkpt>
      <trkpt lat="47.00079" lon="8.87072">
        <ele>1529</ele>
        <time>2021-08-03T11:17:14.477Z</time>
      </trkpt>
      <trkpt lat="47.0008" lon="8.87074">
        <ele>1529</ele>
        <time>2021-08-03T11:17:15.478Z</time>
      </trkpt>
      <trkpt lat="47.0008" lon="8.87074">
        <ele>1529</ele>
        <time>2021-08-03T11:17:16.478Z</time>
      </trkpt>
      <trkpt lat="47.0008" lon="8.87074">
        <ele>1530</ele>
        <time>2021-08-03T11:17:17.477Z</time>
      </trkpt>
      <trkpt lat="47.00078" lon="8.87073">
        <ele>1530</ele>
        <time>2021-08-03T11:17:18.477Z</time>
      </trkpt>
      <trkpt lat="47.00077" lon="8.87073">
        <ele>1530</ele>
        <time>2021-08-03T11:17:19.477Z</time>
      </trkpt>
      <trkpt lat="47.00076" lon="8.87073">
        <ele>1530</ele>
        <time>2021-08-03T11:17:20.477Z</time>
      </trkpt>
      <trkpt lat="47.00075" lon="8.87073">
        <ele>1531</ele>
        <time>2021-08-03T11:17:21.477Z</time>
      </trkpt>
      <trkpt lat="47.00074" lon="8.87072">
        <ele>1531</ele>
        <time>2021-08-03T11:17:22.477Z</time>
      </trkpt>
      <trkpt lat="47.00073" lon="8.87072">
        <ele>1531</ele>
        <time>2021-08-03T11:17:23.477Z</time>
      </trkpt>
      <trkpt lat="47.00072" lon="8.87072">
        <ele>1531</ele>
        <time>2021-08-03T11:17:24.477Z</time>
      </trkpt>
      <trkpt lat="47.00071" lon="8.87072">
        <ele>1531</ele>
        <time>2021-08-03T11:17:25.478Z</time>
      </trkpt>
      <trkpt lat="47.00069" lon="8.87071">
        <ele>1532</ele>
        <time>2021-08-03T11:17:26.477Z</time>
      </trkpt>
      <trkpt lat="47.00068" lon="8.87071">
        <ele>1532</ele>
        <time>2021-08-03T11:17:29.587Z</time>
      </trkpt>
      <trkpt lat="47.00067" lon="8.87071">
        <ele>1531</ele>
        <time>2021-08-03T11:17:30.587Z</time>
      </trkpt>
      <trkpt lat="47.00066" lon="8.87071">
        <ele>1531</ele>
        <time>2021-08-03T11:17:31.587Z</time>
      </trkpt>
      <trkpt lat="47.00065" lon="8.87071">
        <ele>1531</ele>
        <time>2021-08-03T11:17:32.587Z</time>
      </trkpt>
      <trkpt lat="47.00064" lon="8.87071">
        <ele>1530</ele>
        <time>2021-08-03T11:17:33.587Z</time>
      </trkpt>
      <trkpt lat="47.00063" lon="8.8707">
        <ele>1530</ele>
        <time>2021-08-03T11:17:42.723Z</time>
      </trkpt>
      <trkpt lat="47.00062" lon="8.8707">
        <ele>1530</ele>
        <time>2021-08-03T11:17:43.723Z</time>
      </trkpt>
      <trkpt lat="47.00062" lon="8.8707">
        <ele>1530</ele>
        <time>2021-08-03T11:17:44.723Z</time>
      </trkpt>
      <trkpt lat="47.00061" lon="8.8707">
        <ele>1530</ele>
        <time>2021-08-03T11:17:45.724Z</time>
      </trkpt>
      <trkpt lat="47.0006" lon="8.8707">
        <ele>1530</ele>
        <time>2021-08-03T11:17:46.724Z</time>
      </trkpt>
      <trkpt lat="47.00059" lon="8.8707">
        <ele>1530</ele>
        <time>2021-08-03T11:17:47.723Z</time>
      </trkpt>
      <trkpt lat="47.00058" lon="8.8707">
        <ele>1529</ele>
        <time>2021-08-03T11:17:50.852Z</time>
      </trkpt>
      <trkpt lat="47.00057" lon="8.8707">
        <ele>1529</ele>
        <time>2021-08-03T11:17:51.851Z</time>
      </trkpt>
      <trkpt lat="47.00057" lon="8.87071">
        <ele>1529</ele>
        <time>2021-08-03T11:17:52.851Z</time>
      </trkpt>
      <trkpt lat="47.00056" lon="8.87071">
        <ele>1529</ele>
        <time>2021-08-03T11:17:53.851Z</time>
      </trkpt>
      <trkpt lat="47.00055" lon="8.8707">
        <ele>1529</ele>
        <time>2021-08-03T11:17:54.851Z</time>
      </trkpt>
      <trkpt lat="47.00054" lon="8.8707">
        <ele>1529</ele>
        <time>2021-08-03T11:17:55.851Z</time>
      </trkpt>
      <trkpt lat="47.00053" lon="8.87069">
        <ele>1529</ele>
        <time>2021-08-03T11:17:56.852Z</time>
      </trkpt>
      <trkpt lat="47.00052" lon="8.87069">
        <ele>1530</ele>
        <time>2021-08-03T11:17:57.851Z</time>
      </trkpt>
      <trkpt lat="47.00051" lon="8.87068">
        <ele>1530</ele>
        <time>2021-08-03T11:17:58.851Z</time>
      </trkpt>
      <trkpt lat="47.0005" lon="8.87068">
        <ele>1531</ele>
        <time>2021-08-03T11:17:59.852Z</time>
      </trkpt>
      <trkpt lat="47.00049" lon="8.87067">
        <ele>1532</ele>
        <time>2021-08-03T11:18:00.851Z</time>
      </trkpt>
      <trkpt lat="47.00048" lon="8.87067">
        <ele>1533</ele>
        <time>2021-08-03T11:18:01.852Z</time>
      </trkpt>
      <trkpt lat="47.00047" lon="8.87067">
        <ele>1533</ele>
        <time>2021-08-03T11:18:02.851Z</time>
      </trkpt>
      <trkpt lat="47.00046" lon="8.87066">
        <ele>1534</ele>
        <time>2021-08-03T11:18:03.851Z</time>
      </trkpt>
      <trkpt lat="47.00045" lon="8.87066">
        <ele>1534</ele>
        <time>2021-08-03T11:18:04.851Z</time>
      </trkpt>
      <trkpt lat="47.00044" lon="8.87065">
        <ele>1535</ele>
        <time>2021-08-03T11:18:05.852Z</time>
      </trkpt>
      <trkpt lat="47.00043" lon="8.87065">
        <ele>1535</ele>
        <time>2021-08-03T11:18:06.851Z</time>
      </trkpt>
      <trkpt lat="47.00042" lon="8.87064">
        <ele>1535</ele>
        <time>2021-08-03T11:18:07.851Z</time>
      </trkpt>
      <trkpt lat="47.00041" lon="8.87064">
        <ele>1536</ele>
        <time>2021-08-03T11:18:08.852Z</time>
      </trkpt>
      <trkpt lat="47.0004" lon="8.87063">
        <ele>1536</ele>
        <time>2021-08-03T11:18:09.851Z</time>
      </trkpt>
      <trkpt lat="47.00039" lon="8.87063">
        <ele>1537</ele>
        <time>2021-08-03T11:18:10.852Z</time>
      </trkpt>
      <trkpt lat="47.00038" lon="8.87063">
        <ele>1537</ele>
        <time>2021-08-03T11:18:11.851Z</time>
      </trkpt>
      <trkpt lat="47.00037" lon="8.87062">
        <ele>1537</ele>
        <time>2021-08-03T11:18:12.851Z</time>
      </trkpt>
      <trkpt lat="47.00035" lon="8.87061">
        <ele>1537</ele>
        <time>2021-08-03T11:18:13.851Z</time>
      </trkpt>
      <trkpt lat="47.00035" lon="8.8706">
        <ele>1537</ele>
        <time>2021-08-03T11:18:14.851Z</time>
      </trkpt>
      <trkpt lat="47.00034" lon="8.87059">
        <ele>1537</ele>
        <time>2021-08-03T11:18:15.851Z</time>
      </trkpt>
      <trkpt lat="47.00033" lon="8.87059">
        <ele>1537</ele>
        <time>2021-08-03T11:18:16.851Z</time>
      </trkpt>
      <trkpt lat="47.00032" lon="8.87059">
        <ele>1538</ele>
        <time>2021-08-03T11:18:17.851Z</time>
      </trkpt>
      <trkpt lat="47.00031" lon="8.87058">
        <ele>1538</ele>
        <time>2021-08-03T11:18:18.852Z</time>
      </trkpt>
      <trkpt lat="47.00029" lon="8.87058">
        <ele>1539</ele>
        <time>2021-08-03T11:18:19.851Z</time>
      </trkpt>
      <trkpt lat="47.00028" lon="8.87057">
        <ele>1539</ele>
        <time>2021-08-03T11:18:20.851Z</time>
      </trkpt>
      <trkpt lat="47.00027" lon="8.87055">
        <ele>1540</ele>
        <time>2021-08-03T11:18:21.851Z</time>
      </trkpt>
      <trkpt lat="47.00026" lon="8.87054">
        <ele>1540</ele>
        <time>2021-08-03T11:18:22.851Z</time>
      </trkpt>
      <trkpt lat="47.00025" lon="8.87053">
        <ele>1540</ele>
        <time>2021-08-03T11:18:23.851Z</time>
      </trkpt>
      <trkpt lat="47.00024" lon="8.87052">
        <ele>1540</ele>
        <time>2021-08-03T11:18:24.852Z</time>
      </trkpt>
      <trkpt lat="47.00023" lon="8.87052">
        <ele>1540</ele>
        <time>2021-08-03T11:18:25.851Z</time>
      </trkpt>
      <trkpt lat="47.00023" lon="8.87051">
        <ele>1540</ele>
        <time>2021-08-03T11:18:26.851Z</time>
      </trkpt>
      <trkpt lat="47.00022" lon="8.8705">
        <ele>1540</ele>
        <time>2021-08-03T11:18:27.851Z</time>
      </trkpt>
      <trkpt lat="47.00021" lon="8.87049">
        <ele>1540</ele>
        <time>2021-08-03T11:18:28.851Z</time>
      </trkpt>
      <trkpt lat="47.00019" lon="8.87048">
        <ele>1541</ele>
        <time>2021-08-03T11:18:29.851Z</time>
      </trkpt>
      <trkpt lat="47.00019" lon="8.87048">
        <ele>1541</ele>
        <time>2021-08-03T11:18:30.851Z</time>
      </trkpt>
      <trkpt lat="47.00018" lon="8.87047">
        <ele>1541</ele>
        <time>2021-08-03T11:18:32.971Z</time>
      </trkpt>
      <trkpt lat="47.00017" lon="8.87045">
        <ele>1541</ele>
        <time>2021-08-03T11:18:33.970Z</time>
      </trkpt>
      <trkpt lat="47.00016" lon="8.87045">
        <ele>1541</ele>
        <time>2021-08-03T11:18:34.971Z</time>
      </trkpt>
      <trkpt lat="47.00015" lon="8.87044">
        <ele>1541</ele>
        <time>2021-08-03T11:18:35.970Z</time>
      </trkpt>
      <trkpt lat="47.00014" lon="8.87043">
        <ele>1540</ele>
        <time>2021-08-03T11:18:36.970Z</time>
      </trkpt>
      <trkpt lat="47.00013" lon="8.87042">
        <ele>1540</ele>
        <time>2021-08-03T11:18:37.971Z</time>
      </trkpt>
      <trkpt lat="47.00012" lon="8.87041">
        <ele>1539</ele>
        <time>2021-08-03T11:18:38.970Z</time>
      </trkpt>
      <trkpt lat="47.00011" lon="8.8704">
        <ele>1539</ele>
        <time>2021-08-03T11:18:39.970Z</time>
      </trkpt>
      <trkpt lat="47.0001" lon="8.87039">
        <ele>1539</ele>
        <time>2021-08-03T11:18:40.970Z</time>
      </trkpt>
      <trkpt lat="47.00009" lon="8.87038">
        <ele>1538</ele>
        <time>2021-08-03T11:18:41.970Z</time>
      </trkpt>
      <trkpt lat="47.00009" lon="8.87037">
        <ele>1538</ele>
        <time>2021-08-03T11:18:42.970Z</time>
      </trkpt>
      <trkpt lat="47.00008" lon="8.87036">
        <ele>1538</ele>
        <time>2021-08-03T11:18:43.971Z</time>
      </trkpt>
      <trkpt lat="47.00007" lon="8.87035">
        <ele>1538</ele>
        <time>2021-08-03T11:18:44.971Z</time>
      </trkpt>
      <trkpt lat="47.00006" lon="8.87034">
        <ele>1539</ele>
        <time>2021-08-03T11:18:45.970Z</time>
      </trkpt>
      <trkpt lat="47.00005" lon="8.87033">
        <ele>1539</ele>
        <time>2021-08-03T11:18:46.970Z</time>
      </trkpt>
      <trkpt lat="47.00004" lon="8.87032">
        <ele>1540</ele>
        <time>2021-08-03T11:18:47.970Z</time>
      </trkpt>
      <trkpt lat="47.00003" lon="8.87031">
        <ele>1540</ele>
        <time>2021-08-03T11:18:48.970Z</time>
      </trkpt>
      <trkpt lat="47.00002" lon="8.87029">
        <ele>1541</ele>
        <time>2021-08-03T11:18:49.970Z</time>
      </trkpt>
      <trkpt lat="47.00002" lon="8.87028">
        <ele>1541</ele>
        <time>2021-08-03T11:18:50.971Z</time>
      </trkpt>
      <trkpt lat="47.00001" lon="8.87027">
        <ele>1541</ele>
        <time>2021-08-03T11:18:51.970Z</time>
      </trkpt>
      <trkpt lat="47" lon="8.87026">
        <ele>1541</ele>
        <time>2021-08-03T11:18:52.970Z</time>
      </trkpt>
      <trkpt lat="47" lon="8.87025">
        <ele>1541</ele>
        <time>2021-08-03T11:18:53.971Z</time>
      </trkpt>
      <trkpt lat="46.99999" lon="8.87024">
        <ele>1541</ele>
        <time>2021-08-03T11:18:54.970Z</time>
      </trkpt>
      <trkpt lat="46.99998" lon="8.87023">
        <ele>1540</ele>
        <time>2021-08-03T11:18:55.970Z</time>
      </trkpt>
      <trkpt lat="46.99998" lon="8.87022">
        <ele>1540</ele>
        <time>2021-08-03T11:18:56.971Z</time>
      </trkpt>
      <trkpt lat="46.99997" lon="8.8702">
        <ele>1540</ele>
        <time>2021-08-03T11:18:57.970Z</time>
      </trkpt>
      <trkpt lat="46.99996" lon="8.8702">
        <ele>1540</ele>
        <time>2021-08-03T11:18:58.970Z</time>
      </trkpt>
      <trkpt lat="46.99995" lon="8.87018">
        <ele>1540</ele>
        <time>2021-08-03T11:18:59.970Z</time>
      </trkpt>
      <trkpt lat="46.99994" lon="8.87017">
        <ele>1540</ele>
        <time>2021-08-03T11:19:00.970Z</time>
      </trkpt>
      <trkpt lat="46.99993" lon="8.87016">
        <ele>1540</ele>
        <time>2021-08-03T11:19:01.970Z</time>
      </trkpt>
      <trkpt lat="46.99993" lon="8.87014">
        <ele>1540</ele>
        <time>2021-08-03T11:19:02.970Z</time>
      </trkpt>
      <trkpt lat="46.99992" lon="8.87013">
        <ele>1540</ele>
        <time>2021-08-03T11:19:03.971Z</time>
      </trkpt>
      <trkpt lat="46.9999" lon="8.87011">
        <ele>1541</ele>
        <time>2021-08-03T11:19:04.971Z</time>
      </trkpt>
      <trkpt lat="46.9999" lon="8.8701">
        <ele>1541</ele>
        <time>2021-08-03T11:19:05.970Z</time>
      </trkpt>
      <trkpt lat="46.99989" lon="8.87008">
        <ele>1541</ele>
        <time>2021-08-03T11:19:06.970Z</time>
      </trkpt>
      <trkpt lat="46.99988" lon="8.87006">
        <ele>1541</ele>
        <time>2021-08-03T11:19:07.970Z</time>
      </trkpt>
      <trkpt lat="46.99987" lon="8.87005">
        <ele>1541</ele>
        <time>2021-08-03T11:19:08.970Z</time>
      </trkpt>
      <trkpt lat="46.99986" lon="8.87003">
        <ele>1541</ele>
        <time>2021-08-03T11:19:09.970Z</time>
      </trkpt>
      <trkpt lat="46.99985" lon="8.87003">
        <ele>1541</ele>
        <time>2021-08-03T11:19:10.970Z</time>
      </trkpt>
      <trkpt lat="46.99984" lon="8.87002">
        <ele>1540</ele>
        <time>2021-08-03T11:19:11.970Z</time>
      </trkpt>
      <trkpt lat="46.99984" lon="8.87001">
        <ele>1540</ele>
        <time>2021-08-03T11:19:12.971Z</time>
      </trkpt>
      <trkpt lat="46.99983" lon="8.86999">
        <ele>1540</ele>
        <time>2021-08-03T11:19:13.970Z</time>
      </trkpt>
      <trkpt lat="46.99982" lon="8.86998">
        <ele>1539</ele>
        <time>2021-08-03T11:19:14.970Z</time>
      </trkpt>
      <trkpt lat="46.99981" lon="8.86997">
        <ele>1539</ele>
        <time>2021-08-03T11:19:15.970Z</time>
      </trkpt>
      <trkpt lat="46.9998" lon="8.86996">
        <ele>1538</ele>
        <time>2021-08-03T11:19:16.970Z</time>
      </trkpt>
      <trkpt lat="46.9998" lon="8.86994">
        <ele>1538</ele>
        <time>2021-08-03T11:19:17.970Z</time>
      </trkpt>
      <trkpt lat="46.99979" lon="8.86993">
        <ele>1537</ele>
        <time>2021-08-03T11:19:18.970Z</time>
      </trkpt>
      <trkpt lat="46.99978" lon="8.86992">
        <ele>1537</ele>
        <time>2021-08-03T11:19:19.971Z</time>
      </trkpt>
      <trkpt lat="46.99977" lon="8.86991">
        <ele>1537</ele>
        <time>2021-08-03T11:19:20.970Z</time>
      </trkpt>
      <trkpt lat="46.99976" lon="8.8699">
        <ele>1537</ele>
        <time>2021-08-03T11:19:21.970Z</time>
      </trkpt>
      <trkpt lat="46.99976" lon="8.86989">
        <ele>1538</ele>
        <time>2021-08-03T11:19:22.970Z</time>
      </trkpt>
      <trkpt lat="46.99975" lon="8.86988">
        <ele>1538</ele>
        <time>2021-08-03T11:19:23.970Z</time>
      </trkpt>
      <trkpt lat="46.99974" lon="8.86986">
        <ele>1538</ele>
        <time>2021-08-03T11:19:24.970Z</time>
      </trkpt>
      <trkpt lat="46.99973" lon="8.86985">
        <ele>1539</ele>
        <time>2021-08-03T11:19:25.970Z</time>
      </trkpt>
      <trkpt lat="46.99972" lon="8.86984">
        <ele>1539</ele>
        <time>2021-08-03T11:19:26.970Z</time>
      </trkpt>
      <trkpt lat="46.99971" lon="8.86984">
        <ele>1540</ele>
        <time>2021-08-03T11:19:27.971Z</time>
      </trkpt>
      <trkpt lat="46.99971" lon="8.86982">
        <ele>1540</ele>
        <time>2021-08-03T11:19:30.935Z</time>
      </trkpt>
      <trkpt lat="46.9997" lon="8.86981">
        <ele>1540</ele>
        <time>2021-08-03T11:19:31.935Z</time>
      </trkpt>
      <trkpt lat="46.99969" lon="8.8698">
        <ele>1540</ele>
        <time>2021-08-03T11:19:32.936Z</time>
      </trkpt>
      <trkpt lat="46.99968" lon="8.86979">
        <ele>1540</ele>
        <time>2021-08-03T11:19:33.935Z</time>
      </trkpt>
      <trkpt lat="46.99967" lon="8.86977">
        <ele>1540</ele>
        <time>2021-08-03T11:19:34.935Z</time>
      </trkpt>
      <trkpt lat="46.99966" lon="8.86976">
        <ele>1540</ele>
        <time>2021-08-03T11:19:40.988Z</time>
      </trkpt>
      <trkpt lat="46.99965" lon="8.86974">
        <ele>1540</ele>
        <time>2021-08-03T11:19:41.988Z</time>
      </trkpt>
      <trkpt lat="46.99965" lon="8.86973">
        <ele>1540</ele>
        <time>2021-08-03T11:19:42.988Z</time>
      </trkpt>
      <trkpt lat="46.99964" lon="8.86971">
        <ele>1540</ele>
        <time>2021-08-03T11:19:43.988Z</time>
      </trkpt>
      <trkpt lat="46.99963" lon="8.8697">
        <ele>1540</ele>
        <time>2021-08-03T11:19:49.078Z</time>
      </trkpt>
      <trkpt lat="46.99962" lon="8.86969">
        <ele>1540</ele>
        <time>2021-08-03T11:19:50.078Z</time>
      </trkpt>
      <trkpt lat="46.99961" lon="8.86968">
        <ele>1540</ele>
        <time>2021-08-03T11:19:51.078Z</time>
      </trkpt>
      <trkpt lat="46.99961" lon="8.86967">
        <ele>1540</ele>
        <time>2021-08-03T11:19:52.078Z</time>
      </trkpt>
      <trkpt lat="46.9996" lon="8.86966">
        <ele>1540</ele>
        <time>2021-08-03T11:19:53.078Z</time>
      </trkpt>
      <trkpt lat="46.99959" lon="8.86965">
        <ele>1540</ele>
        <time>2021-08-03T11:19:54.078Z</time>
      </trkpt>
      <trkpt lat="46.99958" lon="8.86964">
        <ele>1541</ele>
        <time>2021-08-03T11:19:58.245Z</time>
      </trkpt>
      <trkpt lat="46.99957" lon="8.86963">
        <ele>1541</ele>
        <time>2021-08-03T11:19:59.245Z</time>
      </trkpt>
      <trkpt lat="46.99956" lon="8.86962">
        <ele>1540</ele>
        <time>2021-08-03T11:20:00.246Z</time>
      </trkpt>
      <trkpt lat="46.99955" lon="8.86961">
        <ele>1540</ele>
        <time>2021-08-03T11:20:01.245Z</time>
      </trkpt>
      <trkpt lat="46.99954" lon="8.8696">
        <ele>1540</ele>
        <time>2021-08-03T11:20:08.949Z</time>
      </trkpt>
      <trkpt lat="46.99953" lon="8.86958">
        <ele>1540</ele>
        <time>2021-08-03T11:20:09.949Z</time>
      </trkpt>
      <trkpt lat="46.99952" lon="8.86957">
        <ele>1540</ele>
        <time>2021-08-03T11:20:10.949Z</time>
      </trkpt>
      <trkpt lat="46.99951" lon="8.86957">
        <ele>1540</ele>
        <time>2021-08-03T11:20:11.949Z</time>
      </trkpt>
      <trkpt lat="46.9995" lon="8.86956">
        <ele>1541</ele>
        <time>2021-08-03T11:20:14.080Z</time>
      </trkpt>
      <trkpt lat="46.99949" lon="8.86955">
        <ele>1541</ele>
        <time>2021-08-03T11:20:15.080Z</time>
      </trkpt>
      <trkpt lat="46.99948" lon="8.86955">
        <ele>1542</ele>
        <time>2021-08-03T11:20:16.080Z</time>
      </trkpt>
      <trkpt lat="46.99947" lon="8.86954">
        <ele>1543</ele>
        <time>2021-08-03T11:20:17.080Z</time>
      </trkpt>
      <trkpt lat="46.99946" lon="8.86954">
        <ele>1544</ele>
        <time>2021-08-03T11:20:18.080Z</time>
      </trkpt>
      <trkpt lat="46.99945" lon="8.86953">
        <ele>1544</ele>
        <time>2021-08-03T11:20:19.080Z</time>
      </trkpt>
      <trkpt lat="46.99944" lon="8.86952">
        <ele>1545</ele>
        <time>2021-08-03T11:20:20.080Z</time>
      </trkpt>
      <trkpt lat="46.99943" lon="8.86952">
        <ele>1545</ele>
        <time>2021-08-03T11:20:21.080Z</time>
      </trkpt>
      <trkpt lat="46.99941" lon="8.8695">
        <ele>1545</ele>
        <time>2021-08-03T11:20:22.080Z</time>
      </trkpt>
      <trkpt lat="46.9994" lon="8.86949">
        <ele>1545</ele>
        <time>2021-08-03T11:20:23.081Z</time>
      </trkpt>
      <trkpt lat="46.99939" lon="8.86949">
        <ele>1546</ele>
        <time>2021-08-03T11:20:24.080Z</time>
      </trkpt>
      <trkpt lat="46.99938" lon="8.86949">
        <ele>1546</ele>
        <time>2021-08-03T11:20:25.080Z</time>
      </trkpt>
      <trkpt lat="46.99937" lon="8.86948">
        <ele>1546</ele>
        <time>2021-08-03T11:20:26.080Z</time>
      </trkpt>
      <trkpt lat="46.99936" lon="8.86947">
        <ele>1546</ele>
        <time>2021-08-03T11:20:27.081Z</time>
      </trkpt>
      <trkpt lat="46.99935" lon="8.86947">
        <ele>1546</ele>
        <time>2021-08-03T11:20:28.080Z</time>
      </trkpt>
      <trkpt lat="46.99934" lon="8.86947">
        <ele>1546</ele>
        <time>2021-08-03T11:20:29.080Z</time>
      </trkpt>
      <trkpt lat="46.99933" lon="8.86947">
        <ele>1545</ele>
        <time>2021-08-03T11:20:30.080Z</time>
      </trkpt>
      <trkpt lat="46.99932" lon="8.86946">
        <ele>1546</ele>
        <time>2021-08-03T11:20:31.080Z</time>
      </trkpt>
      <trkpt lat="46.99931" lon="8.86946">
        <ele>1546</ele>
        <time>2021-08-03T11:20:32.835Z</time>
      </trkpt>
      <trkpt lat="46.99929" lon="8.86946">
        <ele>1546</ele>
        <time>2021-08-03T11:20:33.835Z</time>
      </trkpt>
      <trkpt lat="46.99928" lon="8.86945">
        <ele>1546</ele>
        <time>2021-08-03T11:20:34.835Z</time>
      </trkpt>
      <trkpt lat="46.99926" lon="8.86945">
        <ele>1546</ele>
        <time>2021-08-03T11:20:35.835Z</time>
      </trkpt>
      <trkpt lat="46.99925" lon="8.86945">
        <ele>1546</ele>
        <time>2021-08-03T11:20:36.835Z</time>
      </trkpt>
      <trkpt lat="46.99924" lon="8.86945">
        <ele>1547</ele>
        <time>2021-08-03T11:20:37.835Z</time>
      </trkpt>
      <trkpt lat="46.99923" lon="8.86946">
        <ele>1547</ele>
        <time>2021-08-03T11:20:38.835Z</time>
      </trkpt>
      <trkpt lat="46.99922" lon="8.86946">
        <ele>1546</ele>
        <time>2021-08-03T11:20:39.835Z</time>
      </trkpt>
      <trkpt lat="46.99921" lon="8.86947">
        <ele>1546</ele>
        <time>2021-08-03T11:20:40.836Z</time>
      </trkpt>
      <trkpt lat="46.9992" lon="8.86947">
        <ele>1546</ele>
        <time>2021-08-03T11:20:41.835Z</time>
      </trkpt>
      <trkpt lat="46.99919" lon="8.86947">
        <ele>1545</ele>
        <time>2021-08-03T11:20:42.835Z</time>
      </trkpt>
      <trkpt lat="46.99918" lon="8.86947">
        <ele>1544</ele>
        <time>2021-08-03T11:20:43.835Z</time>
      </trkpt>
      <trkpt lat="46.99917" lon="8.86947">
        <ele>1543</ele>
        <time>2021-08-03T11:20:44.835Z</time>
      </trkpt>
      <trkpt lat="46.99916" lon="8.86947">
        <ele>1542</ele>
        <time>2021-08-03T11:20:45.835Z</time>
      </trkpt>
      <trkpt lat="46.99915" lon="8.86946">
        <ele>1542</ele>
        <time>2021-08-03T11:20:46.835Z</time>
      </trkpt>
      <trkpt lat="46.99915" lon="8.86946">
        <ele>1542</ele>
        <time>2021-08-03T11:20:47.836Z</time>
      </trkpt>
      <trkpt lat="46.99914" lon="8.86946">
        <ele>1542</ele>
        <time>2021-08-03T11:20:48.835Z</time>
      </trkpt>
      <trkpt lat="46.99912" lon="8.86946">
        <ele>1542</ele>
        <time>2021-08-03T11:20:49.835Z</time>
      </trkpt>
      <trkpt lat="46.99911" lon="8.86945">
        <ele>1542</ele>
        <time>2021-08-03T11:20:50.835Z</time>
      </trkpt>
      <trkpt lat="46.9991" lon="8.86945">
        <ele>1542</ele>
        <time>2021-08-03T11:20:51.835Z</time>
      </trkpt>
      <trkpt lat="46.99909" lon="8.86944">
        <ele>1542</ele>
        <time>2021-08-03T11:20:52.836Z</time>
      </trkpt>
      <trkpt lat="46.99908" lon="8.86944">
        <ele>1542</ele>
        <time>2021-08-03T11:20:53.835Z</time>
      </trkpt>
      <trkpt lat="46.99907" lon="8.86944">
        <ele>1542</ele>
        <time>2021-08-03T11:20:54.835Z</time>
      </trkpt>
      <trkpt lat="46.99906" lon="8.86945">
        <ele>1542</ele>
        <time>2021-08-03T11:20:55.835Z</time>
      </trkpt>
      <trkpt lat="46.99906" lon="8.86945">
        <ele>1542</ele>
        <time>2021-08-03T11:20:56.835Z</time>
      </trkpt>
      <trkpt lat="46.99906" lon="8.86945">
        <ele>1543</ele>
        <time>2021-08-03T11:20:57.835Z</time>
      </trkpt>
      <trkpt lat="46.99905" lon="8.86943">
        <ele>1547</ele>
        <time>2021-08-03T11:20:58.837Z</time>
      </trkpt>
      <trkpt lat="46.99905" lon="8.86942">
        <ele>1547</ele>
        <time>2021-08-03T11:20:59.836Z</time>
      </trkpt>
      <trkpt lat="46.99905" lon="8.86941">
        <ele>1546</ele>
        <time>2021-08-03T11:21:00.836Z</time>
      </trkpt>
      <trkpt lat="46.99905" lon="8.8694">
        <ele>1542</ele>
        <time>2021-08-03T11:21:01.838Z</time>
      </trkpt>
      <trkpt lat="46.99906" lon="8.86939">
        <ele>1541</ele>
        <time>2021-08-03T11:21:02.837Z</time>
      </trkpt>
      <trkpt lat="46.99907" lon="8.86938">
        <ele>1541</ele>
        <time>2021-08-03T11:21:03.837Z</time>
      </trkpt>
      <trkpt lat="46.99907" lon="8.86937">
        <ele>1540</ele>
        <time>2021-08-03T11:21:09.823Z</time>
      </trkpt>
      <trkpt lat="46.99907" lon="8.86936">
        <ele>1540</ele>
        <time>2021-08-03T11:21:10.824Z</time>
      </trkpt>
      <trkpt lat="46.99907" lon="8.86935">
        <ele>1539</ele>
        <time>2021-08-03T11:21:11.824Z</time>
      </trkpt>
      <trkpt lat="46.99907" lon="8.86933">
        <ele>1539</ele>
        <time>2021-08-03T11:21:12.823Z</time>
      </trkpt>
      <trkpt lat="46.99907" lon="8.86931">
        <ele>1538</ele>
        <time>2021-08-03T11:21:13.823Z</time>
      </trkpt>
      <trkpt lat="46.99906" lon="8.86929">
        <ele>1538</ele>
        <time>2021-08-03T11:21:14.823Z</time>
      </trkpt>
      <trkpt lat="46.99906" lon="8.86928">
        <ele>1537</ele>
        <time>2021-08-03T11:21:15.824Z</time>
      </trkpt>
      <trkpt lat="46.99905" lon="8.86927">
        <ele>1536</ele>
        <time>2021-08-03T11:21:16.823Z</time>
      </trkpt>
      <trkpt lat="46.99904" lon="8.86926">
        <ele>1535</ele>
        <time>2021-08-03T11:21:17.823Z</time>
      </trkpt>
      <trkpt lat="46.99903" lon="8.86926">
        <ele>1535</ele>
        <time>2021-08-03T11:21:18.823Z</time>
      </trkpt>
      <trkpt lat="46.99903" lon="8.86925">
        <ele>1535</ele>
        <time>2021-08-03T11:21:19.823Z</time>
      </trkpt>
      <trkpt lat="46.99901" lon="8.86924">
        <ele>1535</ele>
        <time>2021-08-03T11:21:20.824Z</time>
      </trkpt>
      <trkpt lat="46.999" lon="8.86923">
        <ele>1535</ele>
        <time>2021-08-03T11:21:23.828Z</time>
      </trkpt>
      <trkpt lat="46.999" lon="8.86922">
        <ele>1535</ele>
        <time>2021-08-03T11:21:24.828Z</time>
      </trkpt>
      <trkpt lat="46.99899" lon="8.8692">
        <ele>1535</ele>
        <time>2021-08-03T11:21:25.828Z</time>
      </trkpt>
      <trkpt lat="46.99898" lon="8.86919">
        <ele>1535</ele>
        <time>2021-08-03T11:21:26.828Z</time>
      </trkpt>
      <trkpt lat="46.99897" lon="8.86917">
        <ele>1536</ele>
        <time>2021-08-03T11:21:27.829Z</time>
      </trkpt>
      <trkpt lat="46.99896" lon="8.86916">
        <ele>1536</ele>
        <time>2021-08-03T11:21:51.834Z</time>
      </trkpt>
      <trkpt lat="46.99895" lon="8.86915">
        <ele>1536</ele>
        <time>2021-08-03T11:21:52.834Z</time>
      </trkpt>
      <trkpt lat="46.99895" lon="8.86913">
        <ele>1536</ele>
        <time>2021-08-03T11:21:56.736Z</time>
      </trkpt>
      <trkpt lat="46.99894" lon="8.86912">
        <ele>1536</ele>
        <time>2021-08-03T11:21:57.737Z</time>
      </trkpt>
      <trkpt lat="46.99893" lon="8.86911">
        <ele>1536</ele>
        <time>2021-08-03T11:21:58.736Z</time>
      </trkpt>
      <trkpt lat="46.99893" lon="8.86909">
        <ele>1535</ele>
        <time>2021-08-03T11:21:59.736Z</time>
      </trkpt>
      <trkpt lat="46.99892" lon="8.86908">
        <ele>1535</ele>
        <time>2021-08-03T11:22:00.736Z</time>
      </trkpt>
      <trkpt lat="46.99891" lon="8.86907">
        <ele>1535</ele>
        <time>2021-08-03T11:22:01.736Z</time>
      </trkpt>
      <trkpt lat="46.99891" lon="8.86905">
        <ele>1536</ele>
        <time>2021-08-03T11:22:08.864Z</time>
      </trkpt>
      <trkpt lat="46.9989" lon="8.86903">
        <ele>1536</ele>
        <time>2021-08-03T11:22:09.864Z</time>
      </trkpt>
      <trkpt lat="46.99889" lon="8.86902">
        <ele>1536</ele>
        <time>2021-08-03T11:22:10.864Z</time>
      </trkpt>
      <trkpt lat="46.99889" lon="8.869">
        <ele>1537</ele>
        <time>2021-08-03T11:22:11.864Z</time>
      </trkpt>
      <trkpt lat="46.99888" lon="8.86899">
        <ele>1537</ele>
        <time>2021-08-03T11:22:12.864Z</time>
      </trkpt>
      <trkpt lat="46.99888" lon="8.86897">
        <ele>1537</ele>
        <time>2021-08-03T11:22:13.864Z</time>
      </trkpt>
      <trkpt lat="46.99887" lon="8.86896">
        <ele>1537</ele>
        <time>2021-08-03T11:22:14.864Z</time>
      </trkpt>
      <trkpt lat="46.99886" lon="8.86894">
        <ele>1537</ele>
        <time>2021-08-03T11:22:15.864Z</time>
      </trkpt>
      <trkpt lat="46.99885" lon="8.86893">
        <ele>1537</ele>
        <time>2021-08-03T11:22:16.864Z</time>
      </trkpt>
      <trkpt lat="46.99885" lon="8.86891">
        <ele>1537</ele>
        <time>2021-08-03T11:22:17.864Z</time>
      </trkpt>
      <trkpt lat="46.99884" lon="8.8689">
        <ele>1537</ele>
        <time>2021-08-03T11:22:18.864Z</time>
      </trkpt>
      <trkpt lat="46.99883" lon="8.86888">
        <ele>1537</ele>
        <time>2021-08-03T11:22:19.864Z</time>
      </trkpt>
      <trkpt lat="46.99882" lon="8.86887">
        <ele>1537</ele>
        <time>2021-08-03T11:22:20.864Z</time>
      </trkpt>
      <trkpt lat="46.99881" lon="8.86886">
        <ele>1537</ele>
        <time>2021-08-03T11:22:21.864Z</time>
      </trkpt>
      <trkpt lat="46.99881" lon="8.86884">
        <ele>1536</ele>
        <time>2021-08-03T11:22:22.864Z</time>
      </trkpt>
      <trkpt lat="46.9988" lon="8.86883">
        <ele>1537</ele>
        <time>2021-08-03T11:22:23.865Z</time>
      </trkpt>
      <trkpt lat="46.9988" lon="8.86881">
        <ele>1537</ele>
        <time>2021-08-03T11:22:24.865Z</time>
      </trkpt>
      <trkpt lat="46.99879" lon="8.8688">
        <ele>1537</ele>
        <time>2021-08-03T11:22:25.864Z</time>
      </trkpt>
      <trkpt lat="46.99878" lon="8.86879">
        <ele>1537</ele>
        <time>2021-08-03T11:22:26.864Z</time>
      </trkpt>
      <trkpt lat="46.99877" lon="8.86878">
        <ele>1538</ele>
        <time>2021-08-03T11:22:27.864Z</time>
      </trkpt>
      <trkpt lat="46.99877" lon="8.86876">
        <ele>1538</ele>
        <time>2021-08-03T11:22:28.864Z</time>
      </trkpt>
      <trkpt lat="46.99876" lon="8.86875">
        <ele>1538</ele>
        <time>2021-08-03T11:22:29.864Z</time>
      </trkpt>
      <trkpt lat="46.99875" lon="8.86873">
        <ele>1538</ele>
        <time>2021-08-03T11:22:30.864Z</time>
      </trkpt>
      <trkpt lat="46.99874" lon="8.86872">
        <ele>1537</ele>
        <time>2021-08-03T11:22:31.864Z</time>
      </trkpt>
      <trkpt lat="46.99873" lon="8.8687">
        <ele>1537</ele>
        <time>2021-08-03T11:22:32.864Z</time>
      </trkpt>
      <trkpt lat="46.99872" lon="8.86869">
        <ele>1537</ele>
        <time>2021-08-03T11:22:33.864Z</time>
      </trkpt>
      <trkpt lat="46.99871" lon="8.86868">
        <ele>1537</ele>
        <time>2021-08-03T11:22:34.864Z</time>
      </trkpt>
      <trkpt lat="46.99871" lon="8.86867">
        <ele>1537</ele>
        <time>2021-08-03T11:22:35.864Z</time>
      </trkpt>
      <trkpt lat="46.9987" lon="8.86865">
        <ele>1537</ele>
        <time>2021-08-03T11:22:36.865Z</time>
      </trkpt>
      <trkpt lat="46.99869" lon="8.86864">
        <ele>1537</ele>
        <time>2021-08-03T11:22:37.864Z</time>
      </trkpt>
      <trkpt lat="46.99868" lon="8.86863">
        <ele>1538</ele>
        <time>2021-08-03T11:22:38.864Z</time>
      </trkpt>
      <trkpt lat="46.99867" lon="8.86862">
        <ele>1538</ele>
        <time>2021-08-03T11:22:39.864Z</time>
      </trkpt>
      <trkpt lat="46.99865" lon="8.86861">
        <ele>1538</ele>
        <time>2021-08-03T11:22:46.984Z</time>
      </trkpt>
      <trkpt lat="46.99864" lon="8.8686">
        <ele>1539</ele>
        <time>2021-08-03T11:22:47.984Z</time>
      </trkpt>
      <trkpt lat="46.99863" lon="8.86859">
        <ele>1539</ele>
        <time>2021-08-03T11:22:55.837Z</time>
      </trkpt>
      <trkpt lat="46.99862" lon="8.86858">
        <ele>1539</ele>
        <time>2021-08-03T11:22:56.837Z</time>
      </trkpt>
      <trkpt lat="46.99861" lon="8.86857">
        <ele>1539</ele>
        <time>2021-08-03T11:22:57.837Z</time>
      </trkpt>
      <trkpt lat="46.9986" lon="8.86857">
        <ele>1539</ele>
        <time>2021-08-03T11:22:58.837Z</time>
      </trkpt>
      <trkpt lat="46.99859" lon="8.86856">
        <ele>1538</ele>
        <time>2021-08-03T11:22:59.837Z</time>
      </trkpt>
      <trkpt lat="46.99858" lon="8.86855">
        <ele>1538</ele>
        <time>2021-08-03T11:23:00.837Z</time>
      </trkpt>
      <trkpt lat="46.99857" lon="8.86855">
        <ele>1538</ele>
        <time>2021-08-03T11:23:01.838Z</time>
      </trkpt>
      <trkpt lat="46.99856" lon="8.86854">
        <ele>1538</ele>
        <time>2021-08-03T11:23:02.837Z</time>
      </trkpt>
      <trkpt lat="46.99855" lon="8.86853">
        <ele>1538</ele>
        <time>2021-08-03T11:23:03.837Z</time>
      </trkpt>
      <trkpt lat="46.99854" lon="8.86853">
        <ele>1538</ele>
        <time>2021-08-03T11:23:04.837Z</time>
      </trkpt>
      <trkpt lat="46.99853" lon="8.86853">
        <ele>1538</ele>
        <time>2021-08-03T11:23:05.838Z</time>
      </trkpt>
      <trkpt lat="46.99852" lon="8.86853">
        <ele>1538</ele>
        <time>2021-08-03T11:23:06.837Z</time>
      </trkpt>
      <trkpt lat="46.99851" lon="8.86853">
        <ele>1539</ele>
        <time>2021-08-03T11:23:07.837Z</time>
      </trkpt>
      <trkpt lat="46.9985" lon="8.86852">
        <ele>1539</ele>
        <time>2021-08-03T11:23:08.837Z</time>
      </trkpt>
      <trkpt lat="46.99848" lon="8.86852">
        <ele>1539</ele>
        <time>2021-08-03T11:23:09.837Z</time>
      </trkpt>
      <trkpt lat="46.99847" lon="8.86851">
        <ele>1539</ele>
        <time>2021-08-03T11:23:10.837Z</time>
      </trkpt>
      <trkpt lat="46.99846" lon="8.86851">
        <ele>1539</ele>
        <time>2021-08-03T11:23:11.837Z</time>
      </trkpt>
      <trkpt lat="46.99845" lon="8.8685">
        <ele>1540</ele>
        <time>2021-08-03T11:23:12.837Z</time>
      </trkpt>
      <trkpt lat="46.99844" lon="8.8685">
        <ele>1540</ele>
        <time>2021-08-03T11:23:13.838Z</time>
      </trkpt>
      <trkpt lat="46.99842" lon="8.8685">
        <ele>1541</ele>
        <time>2021-08-03T11:23:14.837Z</time>
      </trkpt>
      <trkpt lat="46.99841" lon="8.86849">
        <ele>1541</ele>
        <time>2021-08-03T11:23:15.837Z</time>
      </trkpt>
      <trkpt lat="46.9984" lon="8.86848">
        <ele>1541</ele>
        <time>2021-08-03T11:23:16.837Z</time>
      </trkpt>
      <trkpt lat="46.99838" lon="8.86848">
        <ele>1541</ele>
        <time>2021-08-03T11:23:17.837Z</time>
      </trkpt>
      <trkpt lat="46.99838" lon="8.86848">
        <ele>1541</ele>
        <time>2021-08-03T11:23:18.837Z</time>
      </trkpt>
      <trkpt lat="46.99837" lon="8.86847">
        <ele>1542</ele>
        <time>2021-08-03T11:23:19.837Z</time>
      </trkpt>
      <trkpt lat="46.99836" lon="8.86847">
        <ele>1542</ele>
        <time>2021-08-03T11:23:20.837Z</time>
      </trkpt>
      <trkpt lat="46.99835" lon="8.86847">
        <ele>1542</ele>
        <time>2021-08-03T11:23:21.837Z</time>
      </trkpt>
      <trkpt lat="46.99834" lon="8.86847">
        <ele>1542</ele>
        <time>2021-08-03T11:23:22.837Z</time>
      </trkpt>
      <trkpt lat="46.99833" lon="8.86847">
        <ele>1542</ele>
        <time>2021-08-03T11:23:23.837Z</time>
      </trkpt>
      <trkpt lat="46.99832" lon="8.86846">
        <ele>1542</ele>
        <time>2021-08-03T11:23:24.837Z</time>
      </trkpt>
      <trkpt lat="46.99831" lon="8.86846">
        <ele>1542</ele>
        <time>2021-08-03T11:23:25.837Z</time>
      </trkpt>
      <trkpt lat="46.99831" lon="8.86846">
        <ele>1542</ele>
        <time>2021-08-03T11:23:27.928Z</time>
      </trkpt>
      <trkpt lat="46.99833" lon="8.86846">
        <ele>1542</ele>
        <time>2021-08-03T11:23:28.928Z</time>
      </trkpt>
      <trkpt lat="46.99832" lon="8.86842">
        <ele>1539</ele>
        <time>2021-08-03T11:23:29.928Z</time>
      </trkpt>
      <trkpt lat="46.99832" lon="8.86842">
        <ele>1539</ele>
        <time>2021-08-03T11:23:30.928Z</time>
      </trkpt>
      <trkpt lat="46.99831" lon="8.86842">
        <ele>1539</ele>
        <time>2021-08-03T11:23:31.928Z</time>
      </trkpt>
      <trkpt lat="46.99831" lon="8.86842">
        <ele>1539</ele>
        <time>2021-08-03T11:23:32.928Z</time>
      </trkpt>
      <trkpt lat="46.9983" lon="8.86842">
        <ele>1539</ele>
        <time>2021-08-03T11:23:33.928Z</time>
      </trkpt>
      <trkpt lat="46.9983" lon="8.86842">
        <ele>1539</ele>
        <time>2021-08-03T11:23:34.928Z</time>
      </trkpt>
      <trkpt lat="46.9983" lon="8.86843">
        <ele>1539</ele>
        <time>2021-08-03T11:23:35.928Z</time>
      </trkpt>
      <trkpt lat="46.99832" lon="8.86844">
        <ele>1539</ele>
        <time>2021-08-03T11:23:36.928Z</time>
      </trkpt>
      <trkpt lat="46.99832" lon="8.86844">
        <ele>1539</ele>
        <time>2021-08-03T11:23:37.928Z</time>
      </trkpt>
      <trkpt lat="46.99832" lon="8.86844">
        <ele>1539</ele>
        <time>2021-08-03T11:23:38.929Z</time>
      </trkpt>
      <trkpt lat="46.99829" lon="8.8685">
        <ele>1543</ele>
        <time>2021-08-03T11:23:39.928Z</time>
      </trkpt>
      <trkpt lat="46.99829" lon="8.86849">
        <ele>1543</ele>
        <time>2021-08-03T11:23:40.929Z</time>
      </trkpt>
      <trkpt lat="46.99829" lon="8.86848">
        <ele>1543</ele>
        <time>2021-08-03T11:23:41.928Z</time>
      </trkpt>
      <trkpt lat="46.99829" lon="8.86848">
        <ele>1543</ele>
        <time>2021-08-03T11:23:42.928Z</time>
      </trkpt>
      <trkpt lat="46.99829" lon="8.86847">
        <ele>1543</ele>
        <time>2021-08-03T11:23:43.929Z</time>
      </trkpt>
      <trkpt lat="46.99831" lon="8.86848">
        <ele>1536</ele>
        <time>2021-08-03T11:23:44.930Z</time>
      </trkpt>
      <trkpt lat="46.99832" lon="8.86847">
        <ele>1536</ele>
        <time>2021-08-03T11:23:45.929Z</time>
      </trkpt>
      <trkpt lat="46.99832" lon="8.86847">
        <ele>1537</ele>
        <time>2021-08-03T11:23:46.929Z</time>
      </trkpt>
      <trkpt lat="46.99831" lon="8.86847">
        <ele>1537</ele>
        <time>2021-08-03T11:23:47.929Z</time>
      </trkpt>
      <trkpt lat="46.9983" lon="8.86849">
        <ele>1541</ele>
        <time>2021-08-03T11:23:48.931Z</time>
      </trkpt>
      <trkpt lat="46.9983" lon="8.86848">
        <ele>1541</ele>
        <time>2021-08-03T11:23:49.930Z</time>
      </trkpt>
      <trkpt lat="46.9983" lon="8.86848">
        <ele>1541</ele>
        <time>2021-08-03T11:23:50.931Z</time>
      </trkpt>
      <trkpt lat="46.99831" lon="8.8685">
        <ele>1540</ele>
        <time>2021-08-03T11:23:51.932Z</time>
      </trkpt>
      <trkpt lat="46.99831" lon="8.8685">
        <ele>1540</ele>
        <time>2021-08-03T11:23:52.932Z</time>
      </trkpt>
      <trkpt lat="46.99831" lon="8.8685">
        <ele>1541</ele>
        <time>2021-08-03T11:23:53.931Z</time>
      </trkpt>
      <trkpt lat="46.99832" lon="8.86849">
        <ele>1543</ele>
        <time>2021-08-03T11:23:54.931Z</time>
      </trkpt>
      <trkpt lat="46.99833" lon="8.86849">
        <ele>1544</ele>
        <time>2021-08-03T11:23:55.931Z</time>
      </trkpt>
      <trkpt lat="46.99832" lon="8.8685">
        <ele>1545</ele>
        <time>2021-08-03T11:23:56.931Z</time>
      </trkpt>
      <trkpt lat="46.99832" lon="8.8685">
        <ele>1545</ele>
        <time>2021-08-03T11:23:57.932Z</time>
      </trkpt>
      <trkpt lat="46.99832" lon="8.8685">
        <ele>1545</ele>
        <time>2021-08-03T11:23:58.931Z</time>
      </trkpt>
      <trkpt lat="46.9983" lon="8.86848">
        <ele>1544</ele>
        <time>2021-08-03T11:23:59.932Z</time>
      </trkpt>
      <trkpt lat="46.99829" lon="8.86848">
        <ele>1544</ele>
        <time>2021-08-03T11:24:00.931Z</time>
      </trkpt>
      <trkpt lat="46.99828" lon="8.86848">
        <ele>1545</ele>
        <time>2021-08-03T11:24:01.931Z</time>
      </trkpt>
      <trkpt lat="46.99827" lon="8.86848">
        <ele>1545</ele>
        <time>2021-08-03T11:24:02.932Z</time>
      </trkpt>
      <trkpt lat="46.99827" lon="8.86848">
        <ele>1544</ele>
        <time>2021-08-03T11:24:03.931Z</time>
      </trkpt>
      <trkpt lat="46.99827" lon="8.86848">
        <ele>1544</ele>
        <time>2021-08-03T11:24:04.932Z</time>
      </trkpt>
      <trkpt lat="46.99826" lon="8.86848">
        <ele>1544</ele>
        <time>2021-08-03T11:24:05.932Z</time>
      </trkpt>
      <trkpt lat="46.99827" lon="8.86848">
        <ele>1544</ele>
        <time>2021-08-03T11:24:06.931Z</time>
      </trkpt>
      <trkpt lat="46.99827" lon="8.86849">
        <ele>1544</ele>
        <time>2021-08-03T11:24:07.932Z</time>
      </trkpt>
      <trkpt lat="46.99828" lon="8.86848">
        <ele>1543</ele>
        <time>2021-08-03T11:24:08.931Z</time>
      </trkpt>
      <trkpt lat="46.99828" lon="8.86848">
        <ele>1543</ele>
        <time>2021-08-03T11:24:09.931Z</time>
      </trkpt>
      <trkpt lat="46.99828" lon="8.86848">
        <ele>1542</ele>
        <time>2021-08-03T11:24:10.931Z</time>
      </trkpt>
      <trkpt lat="46.99828" lon="8.8685">
        <ele>1539</ele>
        <time>2021-08-03T11:24:11.932Z</time>
      </trkpt>
      <trkpt lat="46.99828" lon="8.8685">
        <ele>1539</ele>
        <time>2021-08-03T11:24:12.931Z</time>
      </trkpt>
      <trkpt lat="46.99828" lon="8.8685">
        <ele>1540</ele>
        <time>2021-08-03T11:24:13.931Z</time>
      </trkpt>
      <trkpt lat="46.99829" lon="8.86851">
        <ele>1540</ele>
        <time>2021-08-03T11:24:14.932Z</time>
      </trkpt>
      <trkpt lat="46.99829" lon="8.86851">
        <ele>1541</ele>
        <time>2021-08-03T11:24:15.932Z</time>
      </trkpt>
      <trkpt lat="46.99828" lon="8.86852">
        <ele>1543</ele>
        <time>2021-08-03T11:24:16.931Z</time>
      </trkpt>
      <trkpt lat="46.99828" lon="8.86852">
        <ele>1544</ele>
        <time>2021-08-03T11:24:17.931Z</time>
      </trkpt>
      <trkpt lat="46.99828" lon="8.86852">
        <ele>1544</ele>
        <time>2021-08-03T11:24:18.931Z</time>
      </trkpt>
      <trkpt lat="46.99828" lon="8.86852">
        <ele>1543</ele>
        <time>2021-08-03T11:24:19.933Z</time>
      </trkpt>
      <trkpt lat="46.99829" lon="8.86851">
        <ele>1542</ele>
        <time>2021-08-03T11:24:20.933Z</time>
      </trkpt>
      <trkpt lat="46.99828" lon="8.86852">
        <ele>1543</ele>
        <time>2021-08-03T11:24:21.933Z</time>
      </trkpt>
      <trkpt lat="46.9983" lon="8.8685">
        <ele>1535</ele>
        <time>2021-08-03T11:24:22.933Z</time>
      </trkpt>
      <trkpt lat="46.9983" lon="8.86849">
        <ele>1534</ele>
        <time>2021-08-03T11:24:23.933Z</time>
      </trkpt>
      <trkpt lat="46.9983" lon="8.86849">
        <ele>1534</ele>
        <time>2021-08-03T11:24:24.932Z</time>
      </trkpt>
      <trkpt lat="46.99829" lon="8.86849">
        <ele>1533</ele>
        <time>2021-08-03T11:24:25.933Z</time>
      </trkpt>
      <trkpt lat="46.99828" lon="8.86849">
        <ele>1533</ele>
        <time>2021-08-03T11:24:26.932Z</time>
      </trkpt>
      <trkpt lat="46.99828" lon="8.86849">
        <ele>1533</ele>
        <time>2021-08-03T11:24:27.933Z</time>
      </trkpt>
      <trkpt lat="46.99827" lon="8.8685">
        <ele>1533</ele>
        <time>2021-08-03T11:24:28.932Z</time>
      </trkpt>
      <trkpt lat="46.99828" lon="8.8685">
        <ele>1533</ele>
        <time>2021-08-03T11:24:29.933Z</time>
      </trkpt>
      <trkpt lat="46.99828" lon="8.8685">
        <ele>1533</ele>
        <time>2021-08-03T11:24:30.933Z</time>
      </trkpt>
      <trkpt lat="46.99828" lon="8.86849">
        <ele>1532</ele>
        <time>2021-08-03T11:24:31.932Z</time>
      </trkpt>
      <trkpt lat="46.99828" lon="8.86849">
        <ele>1534</ele>
        <time>2021-08-03T11:24:32.935Z</time>
      </trkpt>
      <trkpt lat="46.99828" lon="8.86849">
        <ele>1535</ele>
        <time>2021-08-03T11:24:33.935Z</time>
      </trkpt>
      <trkpt lat="46.99827" lon="8.86851">
        <ele>1540</ele>
        <time>2021-08-03T11:24:34.934Z</time>
      </trkpt>
      <trkpt lat="46.99827" lon="8.8685">
        <ele>1540</ele>
        <time>2021-08-03T11:24:35.934Z</time>
      </trkpt>
      <trkpt lat="46.99827" lon="8.86851">
        <ele>1539</ele>
        <time>2021-08-03T11:24:36.935Z</time>
      </trkpt>
      <trkpt lat="46.99828" lon="8.86851">
        <ele>1539</ele>
        <time>2021-08-03T11:24:37.935Z</time>
      </trkpt>
      <trkpt lat="46.99828" lon="8.8685">
        <ele>1540</ele>
        <time>2021-08-03T11:24:39.989Z</time>
      </trkpt>
      <trkpt lat="46.99828" lon="8.8685">
        <ele>1540</ele>
        <time>2021-08-03T11:24:40.989Z</time>
      </trkpt>
      <trkpt lat="46.99827" lon="8.86849">
        <ele>1542</ele>
        <time>2021-08-03T11:24:41.990Z</time>
      </trkpt>
      <trkpt lat="46.99827" lon="8.86849">
        <ele>1543</ele>
        <time>2021-08-03T11:24:42.990Z</time>
      </trkpt>
      <trkpt lat="46.99827" lon="8.8685">
        <ele>1543</ele>
        <time>2021-08-03T11:24:43.990Z</time>
      </trkpt>
      <trkpt lat="46.9983" lon="8.86849">
        <ele>1544</ele>
        <time>2021-08-03T11:24:44.991Z</time>
      </trkpt>
      <trkpt lat="46.99829" lon="8.8685">
        <ele>1545</ele>
        <time>2021-08-03T11:24:45.990Z</time>
      </trkpt>
      <trkpt lat="46.99829" lon="8.86849">
        <ele>1544</ele>
        <time>2021-08-03T11:24:46.991Z</time>
      </trkpt>
      <trkpt lat="46.99828" lon="8.86849">
        <ele>1544</ele>
        <time>2021-08-03T11:24:47.990Z</time>
      </trkpt>
      <trkpt lat="46.99828" lon="8.8685">
        <ele>1543</ele>
        <time>2021-08-03T11:24:48.990Z</time>
      </trkpt>
      <trkpt lat="46.99828" lon="8.8685">
        <ele>1543</ele>
        <time>2021-08-03T11:24:49.990Z</time>
      </trkpt>
      <trkpt lat="46.99828" lon="8.86851">
        <ele>1543</ele>
        <time>2021-08-03T11:24:50.991Z</time>
      </trkpt>
      <trkpt lat="46.99828" lon="8.86851">
        <ele>1542</ele>
        <time>2021-08-03T11:24:51.991Z</time>
      </trkpt>
      <trkpt lat="46.99827" lon="8.86852">
        <ele>1543</ele>
        <time>2021-08-03T11:24:52.991Z</time>
      </trkpt>
      <trkpt lat="46.99827" lon="8.86852">
        <ele>1543</ele>
        <time>2021-08-03T11:24:53.990Z</time>
      </trkpt>
      <trkpt lat="46.99827" lon="8.86852">
        <ele>1543</ele>
        <time>2021-08-03T11:24:54.990Z</time>
      </trkpt>
      <trkpt lat="46.99828" lon="8.86846">
        <ele>1549</ele>
        <time>2021-08-03T11:24:55.991Z</time>
      </trkpt>
      <trkpt lat="46.99828" lon="8.86846">
        <ele>1549</ele>
        <time>2021-08-03T11:24:56.992Z</time>
      </trkpt>
      <trkpt lat="46.99827" lon="8.86846">
        <ele>1549</ele>
        <time>2021-08-03T11:24:57.991Z</time>
      </trkpt>
      <trkpt lat="46.99828" lon="8.86843">
        <ele>1549</ele>
        <time>2021-08-03T11:24:58.992Z</time>
      </trkpt>
      <trkpt lat="46.99827" lon="8.86844">
        <ele>1549</ele>
        <time>2021-08-03T11:24:59.993Z</time>
      </trkpt>
      <trkpt lat="46.99827" lon="8.86844">
        <ele>1549</ele>
        <time>2021-08-03T11:25:00.992Z</time>
      </trkpt>
      <trkpt lat="46.99827" lon="8.86843">
        <ele>1549</ele>
        <time>2021-08-03T11:25:01.993Z</time>
      </trkpt>
      <trkpt lat="46.99827" lon="8.86843">
        <ele>1546</ele>
        <time>2021-08-03T11:25:02.993Z</time>
      </trkpt>
      <trkpt lat="46.99827" lon="8.86843">
        <ele>1546</ele>
        <time>2021-08-03T11:25:03.993Z</time>
      </trkpt>
      <trkpt lat="46.99828" lon="8.86844">
        <ele>1546</ele>
        <time>2021-08-03T11:25:04.993Z</time>
      </trkpt>
      <trkpt lat="46.99828" lon="8.86844">
        <ele>1546</ele>
        <time>2021-08-03T11:25:05.992Z</time>
      </trkpt>
      <trkpt lat="46.99827" lon="8.86844">
        <ele>1547</ele>
        <time>2021-08-03T11:25:08.085Z</time>
      </trkpt>
      <trkpt lat="46.99827" lon="8.86841">
        <ele>1550</ele>
        <time>2021-08-03T11:25:09.086Z</time>
      </trkpt>
      <trkpt lat="46.99826" lon="8.86841">
        <ele>1550</ele>
        <time>2021-08-03T11:25:10.086Z</time>
      </trkpt>
      <trkpt lat="46.99826" lon="8.86841">
        <ele>1550</ele>
        <time>2021-08-03T11:25:11.086Z</time>
      </trkpt>
      <trkpt lat="46.99826" lon="8.86841">
        <ele>1550</ele>
        <time>2021-08-03T11:25:12.086Z</time>
      </trkpt>
      <trkpt lat="46.99826" lon="8.86843">
        <ele>1550</ele>
        <time>2021-08-03T11:25:14.226Z</time>
      </trkpt>
      <trkpt lat="46.99825" lon="8.86843">
        <ele>1550</ele>
        <time>2021-08-03T11:25:15.227Z</time>
      </trkpt>
      <trkpt lat="46.99825" lon="8.86843">
        <ele>1549</ele>
        <time>2021-08-03T11:25:16.227Z</time>
      </trkpt>
      <trkpt lat="46.99825" lon="8.86842">
        <ele>1549</ele>
        <time>2021-08-03T11:25:17.226Z</time>
      </trkpt>
      <trkpt lat="46.99825" lon="8.86842">
        <ele>1549</ele>
        <time>2021-08-03T11:25:18.227Z</time>
      </trkpt>
      <trkpt lat="46.99824" lon="8.86842">
        <ele>1549</ele>
        <time>2021-08-03T11:25:19.227Z</time>
      </trkpt>
      <trkpt lat="46.99824" lon="8.86843">
        <ele>1549</ele>
        <time>2021-08-03T11:25:20.226Z</time>
      </trkpt>
      <trkpt lat="46.99824" lon="8.86844">
        <ele>1549</ele>
        <time>2021-08-03T11:25:22.310Z</time>
      </trkpt>
      <trkpt lat="46.99824" lon="8.86844">
        <ele>1550</ele>
        <time>2021-08-03T11:25:23.310Z</time>
      </trkpt>
      <trkpt lat="46.99825" lon="8.86843">
        <ele>1550</ele>
        <time>2021-08-03T11:25:24.310Z</time>
      </trkpt>
      <trkpt lat="46.99825" lon="8.86843">
        <ele>1551</ele>
        <time>2021-08-03T11:25:25.310Z</time>
      </trkpt>
      <trkpt lat="46.99825" lon="8.86842">
        <ele>1552</ele>
        <time>2021-08-03T11:25:26.311Z</time>
      </trkpt>
      <trkpt lat="46.99826" lon="8.86843">
        <ele>1552</ele>
        <time>2021-08-03T11:25:27.310Z</time>
      </trkpt>
      <trkpt lat="46.99826" lon="8.86843">
        <ele>1551</ele>
        <time>2021-08-03T11:25:28.311Z</time>
      </trkpt>
      <trkpt lat="46.99826" lon="8.86842">
        <ele>1551</ele>
        <time>2021-08-03T11:25:29.310Z</time>
      </trkpt>
      <trkpt lat="46.99826" lon="8.86842">
        <ele>1550</ele>
        <time>2021-08-03T11:25:30.310Z</time>
      </trkpt>
      <trkpt lat="46.99826" lon="8.86842">
        <ele>1550</ele>
        <time>2021-08-03T11:25:31.310Z</time>
      </trkpt>
      <trkpt lat="46.99827" lon="8.86841">
        <ele>1548</ele>
        <time>2021-08-03T11:25:32.313Z</time>
      </trkpt>
      <trkpt lat="46.99827" lon="8.86841">
        <ele>1547</ele>
        <time>2021-08-03T11:25:33.313Z</time>
      </trkpt>
      <trkpt lat="46.99826" lon="8.86841">
        <ele>1547</ele>
        <time>2021-08-03T11:25:34.313Z</time>
      </trkpt>
      <trkpt lat="46.99826" lon="8.86841">
        <ele>1547</ele>
        <time>2021-08-03T11:25:35.312Z</time>
      </trkpt>
      <trkpt lat="46.99825" lon="8.8684">
        <ele>1548</ele>
        <time>2021-08-03T11:25:36.312Z</time>
      </trkpt>
      <trkpt lat="46.99825" lon="8.86843">
        <ele>1551</ele>
        <time>2021-08-03T11:25:37.313Z</time>
      </trkpt>
      <trkpt lat="46.99825" lon="8.86842">
        <ele>1551</ele>
        <time>2021-08-03T11:25:38.314Z</time>
      </trkpt>
      <trkpt lat="46.99825" lon="8.86842">
        <ele>1551</ele>
        <time>2021-08-03T11:25:39.313Z</time>
      </trkpt>
      <trkpt lat="46.99825" lon="8.86847">
        <ele>1545</ele>
        <time>2021-08-03T11:25:40.314Z</time>
      </trkpt>
      <trkpt lat="46.99825" lon="8.86848">
        <ele>1544</ele>
        <time>2021-08-03T11:25:41.314Z</time>
      </trkpt>
      <trkpt lat="46.99825" lon="8.86849">
        <ele>1544</ele>
        <time>2021-08-03T11:25:42.313Z</time>
      </trkpt>
      <trkpt lat="46.99825" lon="8.86849">
        <ele>1543</ele>
        <time>2021-08-03T11:25:43.313Z</time>
      </trkpt>
      <trkpt lat="46.99825" lon="8.86844">
        <ele>1544</ele>
        <time>2021-08-03T11:25:44.314Z</time>
      </trkpt>
      <trkpt lat="46.99825" lon="8.86843">
        <ele>1544</ele>
        <time>2021-08-03T11:25:45.314Z</time>
      </trkpt>
      <trkpt lat="46.99825" lon="8.86843">
        <ele>1545</ele>
        <time>2021-08-03T11:25:46.313Z</time>
      </trkpt>
      <trkpt lat="46.99825" lon="8.86844">
        <ele>1546</ele>
        <time>2021-08-03T11:25:47.314Z</time>
      </trkpt>
      <trkpt lat="46.99824" lon="8.86843">
        <ele>1547</ele>
        <time>2021-08-03T11:25:48.313Z</time>
      </trkpt>
      <trkpt lat="46.99824" lon="8.86848">
        <ele>1551</ele>
        <time>2021-08-03T11:25:49.314Z</time>
      </trkpt>
      <trkpt lat="46.99823" lon="8.86847">
        <ele>1552</ele>
        <time>2021-08-03T11:25:50.313Z</time>
      </trkpt>
      <trkpt lat="46.99823" lon="8.86847">
        <ele>1552</ele>
        <time>2021-08-03T11:25:51.314Z</time>
      </trkpt>
      <trkpt lat="46.99822" lon="8.86848">
        <ele>1556</ele>
        <time>2021-08-03T11:25:52.314Z</time>
      </trkpt>
      <trkpt lat="46.99822" lon="8.86849">
        <ele>1556</ele>
        <time>2021-08-03T11:25:53.314Z</time>
      </trkpt>
      <trkpt lat="46.99822" lon="8.86856">
        <ele>1554</ele>
        <time>2021-08-03T11:25:54.315Z</time>
      </trkpt>
      <trkpt lat="46.99823" lon="8.86856">
        <ele>1553</ele>
        <time>2021-08-03T11:25:55.315Z</time>
      </trkpt>
      <trkpt lat="46.99823" lon="8.86856">
        <ele>1552</ele>
        <time>2021-08-03T11:25:56.315Z</time>
      </trkpt>
      <trkpt lat="46.99823" lon="8.86857">
        <ele>1551</ele>
        <time>2021-08-03T11:25:57.314Z</time>
      </trkpt>
      <trkpt lat="46.99824" lon="8.86857">
        <ele>1550</ele>
        <time>2021-08-03T11:25:58.315Z</time>
      </trkpt>
      <trkpt lat="46.99826" lon="8.86861">
        <ele>1537</ele>
        <time>2021-08-03T11:25:59.314Z</time>
      </trkpt>
      <trkpt lat="46.99827" lon="8.86861">
        <ele>1537</ele>
        <time>2021-08-03T11:26:00.314Z</time>
      </trkpt>
      <trkpt lat="46.99827" lon="8.86861">
        <ele>1536</ele>
        <time>2021-08-03T11:26:01.315Z</time>
      </trkpt>
      <trkpt lat="46.99827" lon="8.86861">
        <ele>1536</ele>
        <time>2021-08-03T11:26:02.314Z</time>
      </trkpt>
      <trkpt lat="46.99827" lon="8.8686">
        <ele>1536</ele>
        <time>2021-08-03T11:26:03.315Z</time>
      </trkpt>
      <trkpt lat="46.99827" lon="8.8686">
        <ele>1535</ele>
        <time>2021-08-03T11:26:04.315Z</time>
      </trkpt>
      <trkpt lat="46.99827" lon="8.8686">
        <ele>1535</ele>
        <time>2021-08-03T11:26:05.315Z</time>
      </trkpt>
      <trkpt lat="46.99827" lon="8.86859">
        <ele>1535</ele>
        <time>2021-08-03T11:26:06.314Z</time>
      </trkpt>
      <trkpt lat="46.99827" lon="8.86859">
        <ele>1536</ele>
        <time>2021-08-03T11:26:07.315Z</time>
      </trkpt>
      <trkpt lat="46.99828" lon="8.86854">
        <ele>1540</ele>
        <time>2021-08-03T11:26:08.315Z</time>
      </trkpt>
      <trkpt lat="46.99828" lon="8.86854">
        <ele>1541</ele>
        <time>2021-08-03T11:26:09.314Z</time>
      </trkpt>
      <trkpt lat="46.99828" lon="8.86853">
        <ele>1541</ele>
        <time>2021-08-03T11:26:10.315Z</time>
      </trkpt>
      <trkpt lat="46.99828" lon="8.86851">
        <ele>1542</ele>
        <time>2021-08-03T11:26:11.315Z</time>
      </trkpt>
      <trkpt lat="46.99828" lon="8.86852">
        <ele>1542</ele>
        <time>2021-08-03T11:26:12.315Z</time>
      </trkpt>
      <trkpt lat="46.99826" lon="8.86847">
        <ele>1545</ele>
        <time>2021-08-03T11:26:13.315Z</time>
      </trkpt>
      <trkpt lat="46.99826" lon="8.86847">
        <ele>1546</ele>
        <time>2021-08-03T11:26:14.314Z</time>
      </trkpt>
      <trkpt lat="46.99826" lon="8.86847">
        <ele>1547</ele>
        <time>2021-08-03T11:26:15.314Z</time>
      </trkpt>
      <trkpt lat="46.99827" lon="8.86842">
        <ele>1545</ele>
        <time>2021-08-03T11:26:16.314Z</time>
      </trkpt>
      <trkpt lat="46.99826" lon="8.86841">
        <ele>1544</ele>
        <time>2021-08-03T11:26:17.315Z</time>
      </trkpt>
      <trkpt lat="46.99826" lon="8.8684">
        <ele>1543</ele>
        <time>2021-08-03T11:26:18.315Z</time>
      </trkpt>
      <trkpt lat="46.99832" lon="8.86839">
        <ele>1546</ele>
        <time>2021-08-03T11:26:19.316Z</time>
      </trkpt>
      <trkpt lat="46.9983" lon="8.86835">
        <ele>1548</ele>
        <time>2021-08-03T11:26:20.316Z</time>
      </trkpt>
      <trkpt lat="46.99828" lon="8.86832">
        <ele>1545</ele>
        <time>2021-08-03T11:26:21.316Z</time>
      </trkpt>
      <trkpt lat="46.99826" lon="8.86835">
        <ele>1550</ele>
        <time>2021-08-03T11:26:22.317Z</time>
      </trkpt>
      <trkpt lat="46.99826" lon="8.86838">
        <ele>1550</ele>
        <time>2021-08-03T11:26:23.318Z</time>
      </trkpt>
      <trkpt lat="46.99826" lon="8.8684">
        <ele>1550</ele>
        <time>2021-08-03T11:26:24.317Z</time>
      </trkpt>
      <trkpt lat="46.99826" lon="8.86841">
        <ele>1550</ele>
        <time>2021-08-03T11:26:25.318Z</time>
      </trkpt>
      <trkpt lat="46.99825" lon="8.86841">
        <ele>1550</ele>
        <time>2021-08-03T11:26:26.317Z</time>
      </trkpt>
      <trkpt lat="46.99825" lon="8.86842">
        <ele>1550</ele>
        <time>2021-08-03T11:26:27.318Z</time>
      </trkpt>
      <trkpt lat="46.99825" lon="8.86843">
        <ele>1551</ele>
        <time>2021-08-03T11:26:28.318Z</time>
      </trkpt>
      <trkpt lat="46.99824" lon="8.86842">
        <ele>1553</ele>
        <time>2021-08-03T11:26:29.318Z</time>
      </trkpt>
      <trkpt lat="46.99824" lon="8.86842">
        <ele>1553</ele>
        <time>2021-08-03T11:26:30.319Z</time>
      </trkpt>
      <trkpt lat="46.99824" lon="8.86842">
        <ele>1553</ele>
        <time>2021-08-03T11:26:31.318Z</time>
      </trkpt>
      <trkpt lat="46.99823" lon="8.86843">
        <ele>1554</ele>
        <time>2021-08-03T11:26:32.318Z</time>
      </trkpt>
      <trkpt lat="46.99823" lon="8.86843">
        <ele>1553</ele>
        <time>2021-08-03T11:26:33.319Z</time>
      </trkpt>
      <trkpt lat="46.99825" lon="8.86847">
        <ele>1556</ele>
        <time>2021-08-03T11:26:34.319Z</time>
      </trkpt>
      <trkpt lat="46.99825" lon="8.86848">
        <ele>1556</ele>
        <time>2021-08-03T11:26:35.319Z</time>
      </trkpt>
      <trkpt lat="46.99824" lon="8.86851">
        <ele>1556</ele>
        <time>2021-08-03T11:26:36.318Z</time>
      </trkpt>
      <trkpt lat="46.99827" lon="8.86851">
        <ele>1553</ele>
        <time>2021-08-03T11:26:37.319Z</time>
      </trkpt>
      <trkpt lat="46.99825" lon="8.86851">
        <ele>1552</ele>
        <time>2021-08-03T11:26:38.319Z</time>
      </trkpt>
      <trkpt lat="46.99827" lon="8.86846">
        <ele>1554</ele>
        <time>2021-08-03T11:26:39.319Z</time>
      </trkpt>
      <trkpt lat="46.99828" lon="8.86845">
        <ele>1554</ele>
        <time>2021-08-03T11:26:40.320Z</time>
      </trkpt>
      <trkpt lat="46.99828" lon="8.86844">
        <ele>1554</ele>
        <time>2021-08-03T11:26:41.319Z</time>
      </trkpt>
      <trkpt lat="46.99826" lon="8.86844">
        <ele>1556</ele>
        <time>2021-08-03T11:26:42.319Z</time>
      </trkpt>
      <trkpt lat="46.99826" lon="8.86844">
        <ele>1557</ele>
        <time>2021-08-03T11:26:43.319Z</time>
      </trkpt>
      <trkpt lat="46.99826" lon="8.86843">
        <ele>1557</ele>
        <time>2021-08-03T11:26:44.320Z</time>
      </trkpt>
      <trkpt lat="46.99823" lon="8.86847">
        <ele>1558</ele>
        <time>2021-08-03T11:26:45.320Z</time>
      </trkpt>
      <trkpt lat="46.99823" lon="8.86848">
        <ele>1558</ele>
        <time>2021-08-03T11:26:46.320Z</time>
      </trkpt>
      <trkpt lat="46.99827" lon="8.86849">
        <ele>1555</ele>
        <time>2021-08-03T11:26:47.319Z</time>
      </trkpt>
      <trkpt lat="46.99827" lon="8.86848">
        <ele>1554</ele>
        <time>2021-08-03T11:26:48.319Z</time>
      </trkpt>
      <trkpt lat="46.99827" lon="8.86848">
        <ele>1553</ele>
        <time>2021-08-03T11:26:49.320Z</time>
      </trkpt>
      <trkpt lat="46.99827" lon="8.86848">
        <ele>1552</ele>
        <time>2021-08-03T11:26:50.320Z</time>
      </trkpt>
      <trkpt lat="46.99827" lon="8.86848">
        <ele>1552</ele>
        <time>2021-08-03T11:26:51.319Z</time>
      </trkpt>
      <trkpt lat="46.99827" lon="8.86848">
        <ele>1551</ele>
        <time>2021-08-03T11:26:52.319Z</time>
      </trkpt>
      <trkpt lat="46.99828" lon="8.86848">
        <ele>1551</ele>
        <time>2021-08-03T11:26:53.319Z</time>
      </trkpt>
      <trkpt lat="46.99828" lon="8.86849">
        <ele>1549</ele>
        <time>2021-08-03T11:26:54.321Z</time>
      </trkpt>
      <trkpt lat="46.99828" lon="8.86849">
        <ele>1549</ele>
        <time>2021-08-03T11:26:55.321Z</time>
      </trkpt>
      <trkpt lat="46.99827" lon="8.8685">
        <ele>1548</ele>
        <time>2021-08-03T11:26:56.322Z</time>
      </trkpt>
      <trkpt lat="46.99827" lon="8.8685">
        <ele>1548</ele>
        <time>2021-08-03T11:26:57.322Z</time>
      </trkpt>
      <trkpt lat="46.99827" lon="8.8685">
        <ele>1548</ele>
        <time>2021-08-03T11:26:58.321Z</time>
      </trkpt>
      <trkpt lat="46.99826" lon="8.86847">
        <ele>1548</ele>
        <time>2021-08-03T11:26:59.322Z</time>
      </trkpt>
      <trkpt lat="46.99826" lon="8.86847">
        <ele>1547</ele>
        <time>2021-08-03T11:27:00.321Z</time>
      </trkpt>
      <trkpt lat="46.99826" lon="8.86847">
        <ele>1547</ele>
        <time>2021-08-03T11:27:01.321Z</time>
      </trkpt>
      <trkpt lat="46.99826" lon="8.8685">
        <ele>1547</ele>
        <time>2021-08-03T11:27:02.322Z</time>
      </trkpt>
      <trkpt lat="46.99825" lon="8.86852">
        <ele>1547</ele>
        <time>2021-08-03T11:27:03.321Z</time>
      </trkpt>
      <trkpt lat="46.99825" lon="8.86854">
        <ele>1547</ele>
        <time>2021-08-03T11:27:07.321Z</time>
      </trkpt>
      <trkpt lat="46.99823" lon="8.86853">
        <ele>1547</ele>
        <time>2021-08-03T11:27:08.321Z</time>
      </trkpt>
      <trkpt lat="46.99822" lon="8.86853">
        <ele>1548</ele>
        <time>2021-08-03T11:27:09.322Z</time>
      </trkpt>
      <trkpt lat="46.99822" lon="8.86853">
        <ele>1548</ele>
        <time>2021-08-03T11:27:10.322Z</time>
      </trkpt>
      <trkpt lat="46.99822" lon="8.86853">
        <ele>1548</ele>
        <time>2021-08-03T11:27:11.322Z</time>
      </trkpt>
      <trkpt lat="46.99822" lon="8.86852">
        <ele>1548</ele>
        <time>2021-08-03T11:27:12.323Z</time>
      </trkpt>
      <trkpt lat="46.99823" lon="8.86852">
        <ele>1549</ele>
        <time>2021-08-03T11:27:13.322Z</time>
      </trkpt>
      <trkpt lat="46.99823" lon="8.86852">
        <ele>1549</ele>
        <time>2021-08-03T11:27:14.323Z</time>
      </trkpt>
      <trkpt lat="46.99823" lon="8.86852">
        <ele>1549</ele>
        <time>2021-08-03T11:27:20.337Z</time>
      </trkpt>
      <trkpt lat="46.99824" lon="8.86851">
        <ele>1550</ele>
        <time>2021-08-03T11:27:21.337Z</time>
      </trkpt>
      <trkpt lat="46.99824" lon="8.8685">
        <ele>1550</ele>
        <time>2021-08-03T11:27:22.337Z</time>
      </trkpt>
      <trkpt lat="46.99825" lon="8.8685">
        <ele>1551</ele>
        <time>2021-08-03T11:27:23.339Z</time>
      </trkpt>
      <trkpt lat="46.99825" lon="8.86849">
        <ele>1551</ele>
        <time>2021-08-03T11:27:24.339Z</time>
      </trkpt>
      <trkpt lat="46.99826" lon="8.86848">
        <ele>1551</ele>
        <time>2021-08-03T11:27:25.339Z</time>
      </trkpt>
      <trkpt lat="46.99825" lon="8.86848">
        <ele>1551</ele>
        <time>2021-08-03T11:27:36.465Z</time>
      </trkpt>
      <trkpt lat="46.99825" lon="8.86846">
        <ele>1551</ele>
        <time>2021-08-03T11:27:37.465Z</time>
      </trkpt>
      <trkpt lat="46.99825" lon="8.86844">
        <ele>1552</ele>
        <time>2021-08-03T11:27:42.227Z</time>
      </trkpt>
      <trkpt lat="46.99825" lon="8.86843">
        <ele>1552</ele>
        <time>2021-08-03T11:27:43.228Z</time>
      </trkpt>
      <trkpt lat="46.99825" lon="8.86843">
        <ele>1552</ele>
        <time>2021-08-03T11:27:44.227Z</time>
      </trkpt>
      <trkpt lat="46.99828" lon="8.86847">
        <ele>1551</ele>
        <time>2021-08-03T11:27:45.229Z</time>
      </trkpt>
      <trkpt lat="46.99829" lon="8.86847">
        <ele>1550</ele>
        <time>2021-08-03T11:27:46.228Z</time>
      </trkpt>
      <trkpt lat="46.9983" lon="8.86848">
        <ele>1549</ele>
        <time>2021-08-03T11:27:47.228Z</time>
      </trkpt>
      <trkpt lat="46.99832" lon="8.86849">
        <ele>1549</ele>
        <time>2021-08-03T11:27:48.228Z</time>
      </trkpt>
      <trkpt lat="46.99833" lon="8.86849">
        <ele>1548</ele>
        <time>2021-08-03T11:27:49.229Z</time>
      </trkpt>
      <trkpt lat="46.99834" lon="8.86849">
        <ele>1548</ele>
        <time>2021-08-03T11:27:50.229Z</time>
      </trkpt>
      <trkpt lat="46.99835" lon="8.8685">
        <ele>1548</ele>
        <time>2021-08-03T11:27:51.228Z</time>
      </trkpt>
      <trkpt lat="46.99836" lon="8.86851">
        <ele>1548</ele>
        <time>2021-08-03T11:27:52.228Z</time>
      </trkpt>
      <trkpt lat="46.99837" lon="8.86852">
        <ele>1547</ele>
        <time>2021-08-03T11:27:53.228Z</time>
      </trkpt>
      <trkpt lat="46.99838" lon="8.86852">
        <ele>1547</ele>
        <time>2021-08-03T11:27:58.343Z</time>
      </trkpt>
      <trkpt lat="46.99839" lon="8.86853">
        <ele>1546</ele>
        <time>2021-08-03T11:28:05.221Z</time>
      </trkpt>
      <trkpt lat="46.9984" lon="8.86854">
        <ele>1545</ele>
        <time>2021-08-03T11:28:06.220Z</time>
      </trkpt>
      <trkpt lat="46.99841" lon="8.86854">
        <ele>1545</ele>
        <time>2021-08-03T11:28:07.221Z</time>
      </trkpt>
      <trkpt lat="46.99843" lon="8.86855">
        <ele>1545</ele>
        <time>2021-08-03T11:28:15.115Z</time>
      </trkpt>
      <trkpt lat="46.99844" lon="8.86855">
        <ele>1544</ele>
        <time>2021-08-03T11:28:16.115Z</time>
      </trkpt>
      <trkpt lat="46.99845" lon="8.86855">
        <ele>1544</ele>
        <time>2021-08-03T11:28:17.115Z</time>
      </trkpt>
      <trkpt lat="46.99846" lon="8.86856">
        <ele>1543</ele>
        <time>2021-08-03T11:28:27.236Z</time>
      </trkpt>
      <trkpt lat="46.99848" lon="8.86857">
        <ele>1542</ele>
        <time>2021-08-03T11:28:28.236Z</time>
      </trkpt>
      <trkpt lat="46.99849" lon="8.86857">
        <ele>1542</ele>
        <time>2021-08-03T11:28:29.237Z</time>
      </trkpt>
      <trkpt lat="46.9985" lon="8.86858">
        <ele>1541</ele>
        <time>2021-08-03T11:28:30.237Z</time>
      </trkpt>
      <trkpt lat="46.99852" lon="8.86858">
        <ele>1541</ele>
        <time>2021-08-03T11:28:31.237Z</time>
      </trkpt>
      <trkpt lat="46.99854" lon="8.86858">
        <ele>1540</ele>
        <time>2021-08-03T11:28:32.237Z</time>
      </trkpt>
      <trkpt lat="46.99855" lon="8.86859">
        <ele>1540</ele>
        <time>2021-08-03T11:28:33.237Z</time>
      </trkpt>
      <trkpt lat="46.99856" lon="8.8686">
        <ele>1539</ele>
        <time>2021-08-03T11:28:34.236Z</time>
      </trkpt>
      <trkpt lat="46.99857" lon="8.86861">
        <ele>1539</ele>
        <time>2021-08-03T11:28:38.356Z</time>
      </trkpt>
      <trkpt lat="46.99859" lon="8.86862">
        <ele>1539</ele>
        <time>2021-08-03T11:28:39.357Z</time>
      </trkpt>
      <trkpt lat="46.9986" lon="8.86863">
        <ele>1538</ele>
        <time>2021-08-03T11:28:40.357Z</time>
      </trkpt>
      <trkpt lat="46.99861" lon="8.86864">
        <ele>1538</ele>
        <time>2021-08-03T11:28:42.484Z</time>
      </trkpt>
      <trkpt lat="46.99863" lon="8.86865">
        <ele>1538</ele>
        <time>2021-08-03T11:28:43.483Z</time>
      </trkpt>
      <trkpt lat="46.99864" lon="8.86866">
        <ele>1537</ele>
        <time>2021-08-03T11:28:44.484Z</time>
      </trkpt>
      <trkpt lat="46.99865" lon="8.86867">
        <ele>1537</ele>
        <time>2021-08-03T11:28:46.604Z</time>
      </trkpt>
      <trkpt lat="46.99867" lon="8.86869">
        <ele>1537</ele>
        <time>2021-08-03T11:28:47.604Z</time>
      </trkpt>
      <trkpt lat="46.99868" lon="8.8687">
        <ele>1536</ele>
        <time>2021-08-03T11:28:48.603Z</time>
      </trkpt>
      <trkpt lat="46.99869" lon="8.86871">
        <ele>1536</ele>
        <time>2021-08-03T11:28:49.604Z</time>
      </trkpt>
      <trkpt lat="46.9987" lon="8.86872">
        <ele>1536</ele>
        <time>2021-08-03T11:28:50.603Z</time>
      </trkpt>
      <trkpt lat="46.99871" lon="8.86873">
        <ele>1535</ele>
        <time>2021-08-03T11:28:51.604Z</time>
      </trkpt>
      <trkpt lat="46.99871" lon="8.86875">
        <ele>1535</ele>
        <time>2021-08-03T11:28:52.604Z</time>
      </trkpt>
      <trkpt lat="46.99872" lon="8.86876">
        <ele>1535</ele>
        <time>2021-08-03T11:28:53.604Z</time>
      </trkpt>
      <trkpt lat="46.99873" lon="8.86878">
        <ele>1536</ele>
        <time>2021-08-03T11:28:54.604Z</time>
      </trkpt>
      <trkpt lat="46.99874" lon="8.8688">
        <ele>1536</ele>
        <time>2021-08-03T11:28:55.604Z</time>
      </trkpt>
      <trkpt lat="46.99874" lon="8.86882">
        <ele>1536</ele>
        <time>2021-08-03T11:28:56.604Z</time>
      </trkpt>
      <trkpt lat="46.99875" lon="8.86883">
        <ele>1536</ele>
        <time>2021-08-03T11:28:57.603Z</time>
      </trkpt>
      <trkpt lat="46.99876" lon="8.86885">
        <ele>1537</ele>
        <time>2021-08-03T11:28:58.604Z</time>
      </trkpt>
      <trkpt lat="46.99877" lon="8.86887">
        <ele>1537</ele>
        <time>2021-08-03T11:28:59.604Z</time>
      </trkpt>
      <trkpt lat="46.99878" lon="8.86888">
        <ele>1537</ele>
        <time>2021-08-03T11:29:00.604Z</time>
      </trkpt>
      <trkpt lat="46.99879" lon="8.86889">
        <ele>1537</ele>
        <time>2021-08-03T11:29:01.604Z</time>
      </trkpt>
      <trkpt lat="46.9988" lon="8.86891">
        <ele>1537</ele>
        <time>2021-08-03T11:29:02.604Z</time>
      </trkpt>
      <trkpt lat="46.99881" lon="8.86892">
        <ele>1537</ele>
        <time>2021-08-03T11:29:03.603Z</time>
      </trkpt>
      <trkpt lat="46.99882" lon="8.86893">
        <ele>1537</ele>
        <time>2021-08-03T11:29:04.603Z</time>
      </trkpt>
      <trkpt lat="46.99883" lon="8.86895">
        <ele>1537</ele>
        <time>2021-08-03T11:29:05.604Z</time>
      </trkpt>
      <trkpt lat="46.99884" lon="8.86897">
        <ele>1536</ele>
        <time>2021-08-03T11:29:06.604Z</time>
      </trkpt>
      <trkpt lat="46.99885" lon="8.86898">
        <ele>1535</ele>
        <time>2021-08-03T11:29:07.603Z</time>
      </trkpt>
      <trkpt lat="46.99885" lon="8.869">
        <ele>1535</ele>
        <time>2021-08-03T11:29:08.603Z</time>
      </trkpt>
      <trkpt lat="46.99886" lon="8.86902">
        <ele>1535</ele>
        <time>2021-08-03T11:29:09.603Z</time>
      </trkpt>
      <trkpt lat="46.99887" lon="8.86904">
        <ele>1535</ele>
        <time>2021-08-03T11:29:10.604Z</time>
      </trkpt>
      <trkpt lat="46.99887" lon="8.86906">
        <ele>1536</ele>
        <time>2021-08-03T11:29:11.604Z</time>
      </trkpt>
      <trkpt lat="46.99888" lon="8.86908">
        <ele>1536</ele>
        <time>2021-08-03T11:29:12.604Z</time>
      </trkpt>
      <trkpt lat="46.99889" lon="8.86909">
        <ele>1537</ele>
        <time>2021-08-03T11:29:13.603Z</time>
      </trkpt>
      <trkpt lat="46.9989" lon="8.86911">
        <ele>1537</ele>
        <time>2021-08-03T11:29:14.603Z</time>
      </trkpt>
      <trkpt lat="46.99891" lon="8.86913">
        <ele>1537</ele>
        <time>2021-08-03T11:29:15.603Z</time>
      </trkpt>
      <trkpt lat="46.99892" lon="8.86915">
        <ele>1537</ele>
        <time>2021-08-03T11:29:16.603Z</time>
      </trkpt>
      <trkpt lat="46.99893" lon="8.86917">
        <ele>1537</ele>
        <time>2021-08-03T11:29:17.603Z</time>
      </trkpt>
      <trkpt lat="46.99894" lon="8.86919">
        <ele>1537</ele>
        <time>2021-08-03T11:29:18.604Z</time>
      </trkpt>
      <trkpt lat="46.99895" lon="8.86921">
        <ele>1537</ele>
        <time>2021-08-03T11:29:19.604Z</time>
      </trkpt>
      <trkpt lat="46.99896" lon="8.86923">
        <ele>1537</ele>
        <time>2021-08-03T11:29:20.603Z</time>
      </trkpt>
      <trkpt lat="46.99897" lon="8.86925">
        <ele>1537</ele>
        <time>2021-08-03T11:29:21.603Z</time>
      </trkpt>
      <trkpt lat="46.99898" lon="8.86927">
        <ele>1537</ele>
        <time>2021-08-03T11:29:22.604Z</time>
      </trkpt>
      <trkpt lat="46.999" lon="8.86928">
        <ele>1537</ele>
        <time>2021-08-03T11:29:23.604Z</time>
      </trkpt>
      <trkpt lat="46.99901" lon="8.8693">
        <ele>1537</ele>
        <time>2021-08-03T11:29:24.603Z</time>
      </trkpt>
      <trkpt lat="46.99902" lon="8.86931">
        <ele>1537</ele>
        <time>2021-08-03T11:29:25.603Z</time>
      </trkpt>
      <trkpt lat="46.99903" lon="8.86933">
        <ele>1537</ele>
        <time>2021-08-03T11:29:26.604Z</time>
      </trkpt>
      <trkpt lat="46.99905" lon="8.86934">
        <ele>1537</ele>
        <time>2021-08-03T11:29:27.604Z</time>
      </trkpt>
      <trkpt lat="46.99906" lon="8.86935">
        <ele>1537</ele>
        <time>2021-08-03T11:29:28.604Z</time>
      </trkpt>
      <trkpt lat="46.99908" lon="8.86936">
        <ele>1536</ele>
        <time>2021-08-03T11:29:29.604Z</time>
      </trkpt>
      <trkpt lat="46.99909" lon="8.86937">
        <ele>1536</ele>
        <time>2021-08-03T11:29:30.604Z</time>
      </trkpt>
      <trkpt lat="46.99911" lon="8.86938">
        <ele>1536</ele>
        <time>2021-08-03T11:29:31.603Z</time>
      </trkpt>
      <trkpt lat="46.99912" lon="8.8694">
        <ele>1536</ele>
        <time>2021-08-03T11:29:32.603Z</time>
      </trkpt>
      <trkpt lat="46.99913" lon="8.86941">
        <ele>1535</ele>
        <time>2021-08-03T11:29:33.603Z</time>
      </trkpt>
      <trkpt lat="46.99914" lon="8.86942">
        <ele>1535</ele>
        <time>2021-08-03T11:29:34.603Z</time>
      </trkpt>
      <trkpt lat="46.99914" lon="8.86943">
        <ele>1535</ele>
        <time>2021-08-03T11:29:35.604Z</time>
      </trkpt>
      <trkpt lat="46.99915" lon="8.86944">
        <ele>1536</ele>
        <time>2021-08-03T11:29:36.604Z</time>
      </trkpt>
      <trkpt lat="46.99916" lon="8.86945">
        <ele>1536</ele>
        <time>2021-08-03T11:29:37.604Z</time>
      </trkpt>
      <trkpt lat="46.99916" lon="8.86945">
        <ele>1537</ele>
        <time>2021-08-03T11:29:38.604Z</time>
      </trkpt>
      <trkpt lat="46.99917" lon="8.86945">
        <ele>1537</ele>
        <time>2021-08-03T11:29:39.603Z</time>
      </trkpt>
      <trkpt lat="46.99916" lon="8.86945">
        <ele>1537</ele>
        <time>2021-08-03T11:29:40.604Z</time>
      </trkpt>
      <trkpt lat="46.99916" lon="8.86944">
        <ele>1537</ele>
        <time>2021-08-03T11:29:43.727Z</time>
      </trkpt>
      <trkpt lat="46.99917" lon="8.86945">
        <ele>1537</ele>
        <time>2021-08-03T11:29:44.727Z</time>
      </trkpt>
      <trkpt lat="46.99917" lon="8.86946">
        <ele>1538</ele>
        <time>2021-08-03T11:29:45.727Z</time>
      </trkpt>
      <trkpt lat="46.99917" lon="8.86946">
        <ele>1538</ele>
        <time>2021-08-03T11:29:46.727Z</time>
      </trkpt>
      <trkpt lat="46.99918" lon="8.86946">
        <ele>1538</ele>
        <time>2021-08-03T11:29:47.726Z</time>
      </trkpt>
      <trkpt lat="46.99917" lon="8.86944">
        <ele>1537</ele>
        <time>2021-08-03T11:29:48.727Z</time>
      </trkpt>
      <trkpt lat="46.99916" lon="8.86942">
        <ele>1537</ele>
        <time>2021-08-03T11:29:50.831Z</time>
      </trkpt>
      <trkpt lat="46.99915" lon="8.86941">
        <ele>1536</ele>
        <time>2021-08-03T11:29:51.830Z</time>
      </trkpt>
      <trkpt lat="46.99915" lon="8.8694">
        <ele>1536</ele>
        <time>2021-08-03T11:29:52.830Z</time>
      </trkpt>
      <trkpt lat="46.99914" lon="8.86938">
        <ele>1536</ele>
        <time>2021-08-03T11:29:53.831Z</time>
      </trkpt>
      <trkpt lat="46.99913" lon="8.86937">
        <ele>1536</ele>
        <time>2021-08-03T11:29:54.830Z</time>
      </trkpt>
      <trkpt lat="46.99912" lon="8.86937">
        <ele>1537</ele>
        <time>2021-08-03T11:29:55.831Z</time>
      </trkpt>
      <trkpt lat="46.99912" lon="8.86937">
        <ele>1537</ele>
        <time>2021-08-03T11:29:56.830Z</time>
      </trkpt>
      <trkpt lat="46.99912" lon="8.86938">
        <ele>1538</ele>
        <time>2021-08-03T11:29:57.831Z</time>
      </trkpt>
      <trkpt lat="46.99912" lon="8.86938">
        <ele>1538</ele>
        <time>2021-08-03T11:29:58.832Z</time>
      </trkpt>
      <trkpt lat="46.99912" lon="8.86938">
        <ele>1538</ele>
        <time>2021-08-03T11:29:59.831Z</time>
      </trkpt>
      <trkpt lat="46.99914" lon="8.86937">
        <ele>1537</ele>
        <time>2021-08-03T11:30:05.002Z</time>
      </trkpt>
      <trkpt lat="46.99915" lon="8.86937">
        <ele>1536</ele>
        <time>2021-08-03T11:30:06.002Z</time>
      </trkpt>
      <trkpt lat="46.99916" lon="8.86938">
        <ele>1535</ele>
        <time>2021-08-03T11:30:07.002Z</time>
      </trkpt>
      <trkpt lat="46.99918" lon="8.86938">
        <ele>1535</ele>
        <time>2021-08-03T11:30:08.003Z</time>
      </trkpt>
      <trkpt lat="46.9992" lon="8.86938">
        <ele>1535</ele>
        <time>2021-08-03T11:30:09.002Z</time>
      </trkpt>
      <trkpt lat="46.99921" lon="8.86939">
        <ele>1535</ele>
        <time>2021-08-03T11:30:10.003Z</time>
      </trkpt>
      <trkpt lat="46.99923" lon="8.86939">
        <ele>1534</ele>
        <time>2021-08-03T11:30:11.002Z</time>
      </trkpt>
      <trkpt lat="46.99924" lon="8.86939">
        <ele>1535</ele>
        <time>2021-08-03T11:30:12.003Z</time>
      </trkpt>
      <trkpt lat="46.99925" lon="8.8694">
        <ele>1535</ele>
        <time>2021-08-03T11:30:13.002Z</time>
      </trkpt>
      <trkpt lat="46.99926" lon="8.86939">
        <ele>1534</ele>
        <time>2021-08-03T11:30:14.002Z</time>
      </trkpt>
      <trkpt lat="46.99927" lon="8.86939">
        <ele>1534</ele>
        <time>2021-08-03T11:30:15.003Z</time>
      </trkpt>
      <trkpt lat="46.99927" lon="8.86939">
        <ele>1534</ele>
        <time>2021-08-03T11:30:16.002Z</time>
      </trkpt>
      <trkpt lat="46.99927" lon="8.86939">
        <ele>1535</ele>
        <time>2021-08-03T11:30:17.002Z</time>
      </trkpt>
      <trkpt lat="46.99927" lon="8.86939">
        <ele>1535</ele>
        <time>2021-08-03T11:30:18.003Z</time>
      </trkpt>
      <trkpt lat="46.99928" lon="8.8694">
        <ele>1535</ele>
        <time>2021-08-03T11:30:19.003Z</time>
      </trkpt>
      <trkpt lat="46.9993" lon="8.8694">
        <ele>1535</ele>
        <time>2021-08-03T11:30:20.002Z</time>
      </trkpt>
      <trkpt lat="46.99931" lon="8.86941">
        <ele>1535</ele>
        <time>2021-08-03T11:30:21.002Z</time>
      </trkpt>
      <trkpt lat="46.99932" lon="8.86941">
        <ele>1535</ele>
        <time>2021-08-03T11:30:22.002Z</time>
      </trkpt>
      <trkpt lat="46.99934" lon="8.86941">
        <ele>1535</ele>
        <time>2021-08-03T11:30:23.002Z</time>
      </trkpt>
      <trkpt lat="46.99935" lon="8.86941">
        <ele>1535</ele>
        <time>2021-08-03T11:30:24.003Z</time>
      </trkpt>
      <trkpt lat="46.99936" lon="8.86942">
        <ele>1536</ele>
        <time>2021-08-03T11:30:25.002Z</time>
      </trkpt>
      <trkpt lat="46.99937" lon="8.86943">
        <ele>1536</ele>
        <time>2021-08-03T11:30:26.002Z</time>
      </trkpt>
      <trkpt lat="46.99938" lon="8.86944">
        <ele>1537</ele>
        <time>2021-08-03T11:30:27.002Z</time>
      </trkpt>
      <trkpt lat="46.99939" lon="8.86944">
        <ele>1538</ele>
        <time>2021-08-03T11:30:28.002Z</time>
      </trkpt>
      <trkpt lat="46.99939" lon="8.86944">
        <ele>1538</ele>
        <time>2021-08-03T11:30:29.003Z</time>
      </trkpt>
      <trkpt lat="46.99939" lon="8.86943">
        <ele>1538</ele>
        <time>2021-08-03T11:30:30.002Z</time>
      </trkpt>
      <trkpt lat="46.99937" lon="8.86942">
        <ele>1539</ele>
        <time>2021-08-03T11:30:31.003Z</time>
      </trkpt>
      <trkpt lat="46.99936" lon="8.86941">
        <ele>1538</ele>
        <time>2021-08-03T11:30:32.002Z</time>
      </trkpt>
      <trkpt lat="46.99934" lon="8.8694">
        <ele>1538</ele>
        <time>2021-08-03T11:30:33.002Z</time>
      </trkpt>
      <trkpt lat="46.99933" lon="8.8694">
        <ele>1538</ele>
        <time>2021-08-03T11:30:34.003Z</time>
      </trkpt>
      <trkpt lat="46.99931" lon="8.86939">
        <ele>1538</ele>
        <time>2021-08-03T11:30:35.003Z</time>
      </trkpt>
      <trkpt lat="46.99929" lon="8.86939">
        <ele>1538</ele>
        <time>2021-08-03T11:30:36.003Z</time>
      </trkpt>
      <trkpt lat="46.99928" lon="8.86938">
        <ele>1538</ele>
        <time>2021-08-03T11:30:37.003Z</time>
      </trkpt>
      <trkpt lat="46.99926" lon="8.86937">
        <ele>1538</ele>
        <time>2021-08-03T11:30:38.003Z</time>
      </trkpt>
      <trkpt lat="46.99925" lon="8.86936">
        <ele>1539</ele>
        <time>2021-08-03T11:30:39.003Z</time>
      </trkpt>
      <trkpt lat="46.99923" lon="8.86936">
        <ele>1539</ele>
        <time>2021-08-03T11:30:40.002Z</time>
      </trkpt>
      <trkpt lat="46.99921" lon="8.86935">
        <ele>1540</ele>
        <time>2021-08-03T11:30:41.003Z</time>
      </trkpt>
      <trkpt lat="46.9992" lon="8.86935">
        <ele>1540</ele>
        <time>2021-08-03T11:30:42.003Z</time>
      </trkpt>
      <trkpt lat="46.99918" lon="8.86934">
        <ele>1541</ele>
        <time>2021-08-03T11:30:43.002Z</time>
      </trkpt>
      <trkpt lat="46.99917" lon="8.86933">
        <ele>1541</ele>
        <time>2021-08-03T11:30:44.003Z</time>
      </trkpt>
      <trkpt lat="46.99916" lon="8.86933">
        <ele>1540</ele>
        <time>2021-08-03T11:30:45.003Z</time>
      </trkpt>
      <trkpt lat="46.99915" lon="8.86932">
        <ele>1539</ele>
        <time>2021-08-03T11:30:46.003Z</time>
      </trkpt>
      <trkpt lat="46.99914" lon="8.86932">
        <ele>1539</ele>
        <time>2021-08-03T11:30:47.003Z</time>
      </trkpt>
      <trkpt lat="46.99913" lon="8.86931">
        <ele>1539</ele>
        <time>2021-08-03T11:30:48.003Z</time>
      </trkpt>
      <trkpt lat="46.99912" lon="8.86931">
        <ele>1539</ele>
        <time>2021-08-03T11:30:49.002Z</time>
      </trkpt>
      <trkpt lat="46.99911" lon="8.86931">
        <ele>1538</ele>
        <time>2021-08-03T11:30:50.003Z</time>
      </trkpt>
      <trkpt lat="46.9991" lon="8.8693">
        <ele>1538</ele>
        <time>2021-08-03T11:30:51.002Z</time>
      </trkpt>
      <trkpt lat="46.99909" lon="8.8693">
        <ele>1539</ele>
        <time>2021-08-03T11:30:52.003Z</time>
      </trkpt>
      <trkpt lat="46.99908" lon="8.86929">
        <ele>1539</ele>
        <time>2021-08-03T11:30:53.002Z</time>
      </trkpt>
      <trkpt lat="46.99907" lon="8.86928">
        <ele>1540</ele>
        <time>2021-08-03T11:30:54.002Z</time>
      </trkpt>
      <trkpt lat="46.99906" lon="8.86928">
        <ele>1540</ele>
        <time>2021-08-03T11:30:55.003Z</time>
      </trkpt>
      <trkpt lat="46.99905" lon="8.86927">
        <ele>1540</ele>
        <time>2021-08-03T11:30:56.003Z</time>
      </trkpt>
      <trkpt lat="46.99904" lon="8.86926">
        <ele>1539</ele>
        <time>2021-08-03T11:31:01.126Z</time>
      </trkpt>
      <trkpt lat="46.99903" lon="8.86925">
        <ele>1539</ele>
        <time>2021-08-03T11:31:02.126Z</time>
      </trkpt>
      <trkpt lat="46.99902" lon="8.86923">
        <ele>1539</ele>
        <time>2021-08-03T11:31:03.126Z</time>
      </trkpt>
      <trkpt lat="46.99901" lon="8.86922">
        <ele>1539</ele>
        <time>2021-08-03T11:31:04.126Z</time>
      </trkpt>
      <trkpt lat="46.99901" lon="8.86921">
        <ele>1538</ele>
        <time>2021-08-03T11:31:05.126Z</time>
      </trkpt>
      <trkpt lat="46.999" lon="8.86919">
        <ele>1538</ele>
        <time>2021-08-03T11:31:06.126Z</time>
      </trkpt>
      <trkpt lat="46.99899" lon="8.86918">
        <ele>1538</ele>
        <time>2021-08-03T11:31:07.126Z</time>
      </trkpt>
      <trkpt lat="46.99898" lon="8.86916">
        <ele>1539</ele>
        <time>2021-08-03T11:31:08.126Z</time>
      </trkpt>
      <trkpt lat="46.99897" lon="8.86914">
        <ele>1539</ele>
        <time>2021-08-03T11:31:09.126Z</time>
      </trkpt>
      <trkpt lat="46.99896" lon="8.86913">
        <ele>1539</ele>
        <time>2021-08-03T11:31:10.126Z</time>
      </trkpt>
      <trkpt lat="46.99895" lon="8.86911">
        <ele>1539</ele>
        <time>2021-08-03T11:31:11.126Z</time>
      </trkpt>
      <trkpt lat="46.99894" lon="8.86909">
        <ele>1538</ele>
        <time>2021-08-03T11:31:12.126Z</time>
      </trkpt>
      <trkpt lat="46.99893" lon="8.86908">
        <ele>1539</ele>
        <time>2021-08-03T11:31:13.125Z</time>
      </trkpt>
      <trkpt lat="46.99893" lon="8.86906">
        <ele>1539</ele>
        <time>2021-08-03T11:31:14.126Z</time>
      </trkpt>
      <trkpt lat="46.99892" lon="8.86904">
        <ele>1539</ele>
        <time>2021-08-03T11:31:15.125Z</time>
      </trkpt>
      <trkpt lat="46.99891" lon="8.86903">
        <ele>1539</ele>
        <time>2021-08-03T11:31:16.126Z</time>
      </trkpt>
      <trkpt lat="46.9989" lon="8.86901">
        <ele>1538</ele>
        <time>2021-08-03T11:31:17.125Z</time>
      </trkpt>
      <trkpt lat="46.99889" lon="8.869">
        <ele>1538</ele>
        <time>2021-08-03T11:31:18.125Z</time>
      </trkpt>
      <trkpt lat="46.99888" lon="8.86898">
        <ele>1538</ele>
        <time>2021-08-03T11:31:19.125Z</time>
      </trkpt>
      <trkpt lat="46.99887" lon="8.86897">
        <ele>1538</ele>
        <time>2021-08-03T11:31:20.126Z</time>
      </trkpt>
      <trkpt lat="46.99886" lon="8.86895">
        <ele>1538</ele>
        <time>2021-08-03T11:31:21.126Z</time>
      </trkpt>
      <trkpt lat="46.99885" lon="8.86893">
        <ele>1538</ele>
        <time>2021-08-03T11:31:22.126Z</time>
      </trkpt>
      <trkpt lat="46.99885" lon="8.86891">
        <ele>1538</ele>
        <time>2021-08-03T11:31:23.126Z</time>
      </trkpt>
      <trkpt lat="46.99884" lon="8.86889">
        <ele>1538</ele>
        <time>2021-08-03T11:31:24.125Z</time>
      </trkpt>
      <trkpt lat="46.99883" lon="8.86887">
        <ele>1538</ele>
        <time>2021-08-03T11:31:25.126Z</time>
      </trkpt>
      <trkpt lat="46.99882" lon="8.86886">
        <ele>1539</ele>
        <time>2021-08-03T11:31:26.125Z</time>
      </trkpt>
      <trkpt lat="46.99881" lon="8.86885">
        <ele>1539</ele>
        <time>2021-08-03T11:31:27.126Z</time>
      </trkpt>
      <trkpt lat="46.9988" lon="8.86883">
        <ele>1539</ele>
        <time>2021-08-03T11:31:28.125Z</time>
      </trkpt>
      <trkpt lat="46.99879" lon="8.86881">
        <ele>1539</ele>
        <time>2021-08-03T11:31:29.126Z</time>
      </trkpt>
      <trkpt lat="46.99878" lon="8.8688">
        <ele>1539</ele>
        <time>2021-08-03T11:31:30.126Z</time>
      </trkpt>
      <trkpt lat="46.99877" lon="8.86878">
        <ele>1540</ele>
        <time>2021-08-03T11:31:31.126Z</time>
      </trkpt>
      <trkpt lat="46.99877" lon="8.86877">
        <ele>1539</ele>
        <time>2021-08-03T11:31:32.125Z</time>
      </trkpt>
      <trkpt lat="46.99876" lon="8.86875">
        <ele>1539</ele>
        <time>2021-08-03T11:31:33.126Z</time>
      </trkpt>
      <trkpt lat="46.99875" lon="8.86874">
        <ele>1539</ele>
        <time>2021-08-03T11:31:34.126Z</time>
      </trkpt>
      <trkpt lat="46.99874" lon="8.86872">
        <ele>1539</ele>
        <time>2021-08-03T11:31:35.125Z</time>
      </trkpt>
      <trkpt lat="46.99873" lon="8.86871">
        <ele>1540</ele>
        <time>2021-08-03T11:31:36.125Z</time>
      </trkpt>
      <trkpt lat="46.99871" lon="8.86869">
        <ele>1540</ele>
        <time>2021-08-03T11:31:37.126Z</time>
      </trkpt>
      <trkpt lat="46.9987" lon="8.86868">
        <ele>1541</ele>
        <time>2021-08-03T11:31:38.126Z</time>
      </trkpt>
      <trkpt lat="46.99869" lon="8.86866">
        <ele>1541</ele>
        <time>2021-08-03T11:31:39.126Z</time>
      </trkpt>
      <trkpt lat="46.99868" lon="8.86865">
        <ele>1541</ele>
        <time>2021-08-03T11:31:40.126Z</time>
      </trkpt>
      <trkpt lat="46.99866" lon="8.86863">
        <ele>1541</ele>
        <time>2021-08-03T11:31:41.126Z</time>
      </trkpt>
      <trkpt lat="46.99865" lon="8.86861">
        <ele>1542</ele>
        <time>2021-08-03T11:31:42.126Z</time>
      </trkpt>
      <trkpt lat="46.99864" lon="8.8686">
        <ele>1542</ele>
        <time>2021-08-03T11:31:43.126Z</time>
      </trkpt>
      <trkpt lat="46.99863" lon="8.86859">
        <ele>1542</ele>
        <time>2021-08-03T11:31:44.125Z</time>
      </trkpt>
      <trkpt lat="46.99861" lon="8.86858">
        <ele>1542</ele>
        <time>2021-08-03T11:31:45.125Z</time>
      </trkpt>
      <trkpt lat="46.99859" lon="8.86857">
        <ele>1542</ele>
        <time>2021-08-03T11:31:46.126Z</time>
      </trkpt>
      <trkpt lat="46.99858" lon="8.86856">
        <ele>1542</ele>
        <time>2021-08-03T11:31:47.126Z</time>
      </trkpt>
      <trkpt lat="46.99856" lon="8.86856">
        <ele>1543</ele>
        <time>2021-08-03T11:31:48.125Z</time>
      </trkpt>
      <trkpt lat="46.99854" lon="8.86856">
        <ele>1542</ele>
        <time>2021-08-03T11:31:49.126Z</time>
      </trkpt>
      <trkpt lat="46.99853" lon="8.86855">
        <ele>1542</ele>
        <time>2021-08-03T11:31:50.126Z</time>
      </trkpt>
      <trkpt lat="46.99852" lon="8.86855">
        <ele>1541</ele>
        <time>2021-08-03T11:31:51.126Z</time>
      </trkpt>
      <trkpt lat="46.99851" lon="8.86854">
        <ele>1541</ele>
        <time>2021-08-03T11:31:52.125Z</time>
      </trkpt>
      <trkpt lat="46.9985" lon="8.86853">
        <ele>1541</ele>
        <time>2021-08-03T11:31:53.125Z</time>
      </trkpt>
      <trkpt lat="46.99848" lon="8.86853">
        <ele>1540</ele>
        <time>2021-08-03T11:31:54.126Z</time>
      </trkpt>
      <trkpt lat="46.99847" lon="8.86852">
        <ele>1540</ele>
        <time>2021-08-03T11:31:55.125Z</time>
      </trkpt>
      <trkpt lat="46.99845" lon="8.86851">
        <ele>1540</ele>
        <time>2021-08-03T11:31:56.125Z</time>
      </trkpt>
      <trkpt lat="46.99843" lon="8.86851">
        <ele>1540</ele>
        <time>2021-08-03T11:31:57.126Z</time>
      </trkpt>
      <trkpt lat="46.99842" lon="8.8685">
        <ele>1541</ele>
        <time>2021-08-03T11:31:58.125Z</time>
      </trkpt>
      <trkpt lat="46.99841" lon="8.8685">
        <ele>1541</ele>
        <time>2021-08-03T11:31:59.126Z</time>
      </trkpt>
      <trkpt lat="46.9984" lon="8.8685">
        <ele>1541</ele>
        <time>2021-08-03T11:32:00.126Z</time>
      </trkpt>
      <trkpt lat="46.99838" lon="8.8685">
        <ele>1541</ele>
        <time>2021-08-03T11:32:01.125Z</time>
      </trkpt>
      <trkpt lat="46.99837" lon="8.8685">
        <ele>1541</ele>
        <time>2021-08-03T11:32:02.126Z</time>
      </trkpt>
      <trkpt lat="46.99836" lon="8.8685">
        <ele>1541</ele>
        <time>2021-08-03T11:32:03.126Z</time>
      </trkpt>
      <trkpt lat="46.99834" lon="8.8685">
        <ele>1541</ele>
        <time>2021-08-03T11:32:04.125Z</time>
      </trkpt>
      <trkpt lat="46.99833" lon="8.86849">
        <ele>1541</ele>
        <time>2021-08-03T11:32:05.126Z</time>
      </trkpt>
      <trkpt lat="46.99832" lon="8.86849">
        <ele>1541</ele>
        <time>2021-08-03T11:32:06.125Z</time>
      </trkpt>
      <trkpt lat="46.99831" lon="8.86849">
        <ele>1541</ele>
        <time>2021-08-03T11:32:07.126Z</time>
      </trkpt>
      <trkpt lat="46.9983" lon="8.86848">
        <ele>1542</ele>
        <time>2021-08-03T11:32:08.126Z</time>
      </trkpt>
      <trkpt lat="46.99829" lon="8.86848">
        <ele>1543</ele>
        <time>2021-08-03T11:32:09.126Z</time>
      </trkpt>
      <trkpt lat="46.99829" lon="8.86848">
        <ele>1543</ele>
        <time>2021-08-03T11:32:10.126Z</time>
      </trkpt>
      <trkpt lat="46.99829" lon="8.86848">
        <ele>1544</ele>
        <time>2021-08-03T11:32:11.126Z</time>
      </trkpt>
      <trkpt lat="46.9983" lon="8.86848">
        <ele>1543</ele>
        <time>2021-08-03T11:32:12.127Z</time>
      </trkpt>
      <trkpt lat="46.9983" lon="8.86848">
        <ele>1543</ele>
        <time>2021-08-03T11:32:13.128Z</time>
      </trkpt>
      <trkpt lat="46.9983" lon="8.86848">
        <ele>1543</ele>
        <time>2021-08-03T11:32:14.127Z</time>
      </trkpt>
      <trkpt lat="46.9983" lon="8.86848">
        <ele>1543</ele>
        <time>2021-08-03T11:32:15.127Z</time>
      </trkpt>
      <trkpt lat="46.9983" lon="8.86848">
        <ele>1544</ele>
        <time>2021-08-03T11:32:16.128Z</time>
      </trkpt>
      <trkpt lat="46.9983" lon="8.86846">
        <ele>1544</ele>
        <time>2021-08-03T11:32:17.128Z</time>
      </trkpt>
      <trkpt lat="46.99827" lon="8.86845">
        <ele>1544</ele>
        <time>2021-08-03T11:32:18.128Z</time>
      </trkpt>
      <trkpt lat="46.99826" lon="8.86845">
        <ele>1544</ele>
        <time>2021-08-03T11:32:19.128Z</time>
      </trkpt>
      <trkpt lat="46.99827" lon="8.86845">
        <ele>1544</ele>
        <time>2021-08-03T11:32:20.127Z</time>
      </trkpt>
      <trkpt lat="46.99828" lon="8.86844">
        <ele>1542</ele>
        <time>2021-08-03T11:32:21.127Z</time>
      </trkpt>
      <trkpt lat="46.99827" lon="8.86844">
        <ele>1542</ele>
        <time>2021-08-03T11:32:22.128Z</time>
      </trkpt>
      <trkpt lat="46.99827" lon="8.86844">
        <ele>1543</ele>
        <time>2021-08-03T11:32:23.127Z</time>
      </trkpt>
      <trkpt lat="46.99827" lon="8.86844">
        <ele>1543</ele>
        <time>2021-08-03T11:32:24.128Z</time>
      </trkpt>
      <trkpt lat="46.99827" lon="8.86844">
        <ele>1543</ele>
        <time>2021-08-03T11:32:25.127Z</time>
      </trkpt>
      <trkpt lat="46.99824" lon="8.86841">
        <ele>1546</ele>
        <time>2021-08-03T11:32:26.127Z</time>
      </trkpt>
      <trkpt lat="46.99824" lon="8.86841">
        <ele>1547</ele>
        <time>2021-08-03T11:32:27.128Z</time>
      </trkpt>
      <trkpt lat="46.99823" lon="8.86841">
        <ele>1547</ele>
        <time>2021-08-03T11:32:28.127Z</time>
      </trkpt>
      <trkpt lat="46.99823" lon="8.86842">
        <ele>1547</ele>
        <time>2021-08-03T11:32:29.127Z</time>
      </trkpt>
      <trkpt lat="46.99822" lon="8.86843">
        <ele>1547</ele>
        <time>2021-08-03T11:32:30.128Z</time>
      </trkpt>
      <trkpt lat="46.99823" lon="8.86843">
        <ele>1547</ele>
        <time>2021-08-03T11:32:31.128Z</time>
      </trkpt>
      <trkpt lat="46.99823" lon="8.86843">
        <ele>1547</ele>
        <time>2021-08-03T11:32:32.128Z</time>
      </trkpt>
      <trkpt lat="46.99823" lon="8.86844">
        <ele>1547</ele>
        <time>2021-08-03T11:32:33.127Z</time>
      </trkpt>
      <trkpt lat="46.99827" lon="8.86846">
        <ele>1539</ele>
        <time>2021-08-03T11:32:34.127Z</time>
      </trkpt>
      <trkpt lat="46.99827" lon="8.86847">
        <ele>1537</ele>
        <time>2021-08-03T11:32:35.129Z</time>
      </trkpt>
      <trkpt lat="46.99827" lon="8.86847">
        <ele>1536</ele>
        <time>2021-08-03T11:32:36.128Z</time>
      </trkpt>
      <trkpt lat="46.99827" lon="8.86847">
        <ele>1536</ele>
        <time>2021-08-03T11:32:37.128Z</time>
      </trkpt>
      <trkpt lat="46.99827" lon="8.86847">
        <ele>1535</ele>
        <time>2021-08-03T11:32:38.129Z</time>
      </trkpt>
      <trkpt lat="46.99825" lon="8.86849">
        <ele>1535</ele>
        <time>2021-08-03T11:32:39.130Z</time>
      </trkpt>
      <trkpt lat="46.99824" lon="8.86851">
        <ele>1535</ele>
        <time>2021-08-03T11:32:40.129Z</time>
      </trkpt>
      <trkpt lat="46.99825" lon="8.86851">
        <ele>1535</ele>
        <time>2021-08-03T11:32:41.129Z</time>
      </trkpt>
      <trkpt lat="46.99825" lon="8.86851">
        <ele>1535</ele>
        <time>2021-08-03T11:32:42.130Z</time>
      </trkpt>
      <trkpt lat="46.99824" lon="8.86852">
        <ele>1537</ele>
        <time>2021-08-03T11:32:43.131Z</time>
      </trkpt>
      <trkpt lat="46.99824" lon="8.86852">
        <ele>1537</ele>
        <time>2021-08-03T11:32:44.130Z</time>
      </trkpt>
      <trkpt lat="46.99824" lon="8.86852">
        <ele>1537</ele>
        <time>2021-08-03T11:32:45.130Z</time>
      </trkpt>
      <trkpt lat="46.99823" lon="8.86846">
        <ele>1541</ele>
        <time>2021-08-03T11:32:46.130Z</time>
      </trkpt>
      <trkpt lat="46.99824" lon="8.86846">
        <ele>1541</ele>
        <time>2021-08-03T11:32:47.131Z</time>
      </trkpt>
      <trkpt lat="46.99824" lon="8.86846">
        <ele>1541</ele>
        <time>2021-08-03T11:32:48.130Z</time>
      </trkpt>
      <trkpt lat="46.99825" lon="8.86847">
        <ele>1541</ele>
        <time>2021-08-03T11:32:49.130Z</time>
      </trkpt>
      <trkpt lat="46.99825" lon="8.86848">
        <ele>1541</ele>
        <time>2021-08-03T11:32:50.130Z</time>
      </trkpt>
      <trkpt lat="46.99825" lon="8.86849">
        <ele>1541</ele>
        <time>2021-08-03T11:32:51.130Z</time>
      </trkpt>
      <trkpt lat="46.99825" lon="8.86849">
        <ele>1540</ele>
        <time>2021-08-03T11:32:52.130Z</time>
      </trkpt>
      <trkpt lat="46.99826" lon="8.86849">
        <ele>1539</ele>
        <time>2021-08-03T11:32:53.130Z</time>
      </trkpt>
      <trkpt lat="46.99826" lon="8.86848">
        <ele>1539</ele>
        <time>2021-08-03T11:32:54.130Z</time>
      </trkpt>
      <trkpt lat="46.99827" lon="8.86849">
        <ele>1538</ele>
        <time>2021-08-03T11:32:55.130Z</time>
      </trkpt>
      <trkpt lat="46.99827" lon="8.86848">
        <ele>1538</ele>
        <time>2021-08-03T11:32:56.130Z</time>
      </trkpt>
      <trkpt lat="46.99827" lon="8.86848">
        <ele>1538</ele>
        <time>2021-08-03T11:32:57.130Z</time>
      </trkpt>
      <trkpt lat="46.99828" lon="8.86848">
        <ele>1537</ele>
        <time>2021-08-03T11:32:58.130Z</time>
      </trkpt>
      <trkpt lat="46.99828" lon="8.86847">
        <ele>1536</ele>
        <time>2021-08-03T11:32:59.131Z</time>
      </trkpt>
      <trkpt lat="46.99829" lon="8.86846">
        <ele>1535</ele>
        <time>2021-08-03T11:33:00.131Z</time>
      </trkpt>
      <trkpt lat="46.9983" lon="8.86845">
        <ele>1535</ele>
        <time>2021-08-03T11:33:01.131Z</time>
      </trkpt>
      <trkpt lat="46.9983" lon="8.86844">
        <ele>1534</ele>
        <time>2021-08-03T11:33:02.131Z</time>
      </trkpt>
      <trkpt lat="46.99831" lon="8.86844">
        <ele>1534</ele>
        <time>2021-08-03T11:33:03.131Z</time>
      </trkpt>
      <trkpt lat="46.99831" lon="8.86846">
        <ele>1535</ele>
        <time>2021-08-03T11:33:04.131Z</time>
      </trkpt>
      <trkpt lat="46.99831" lon="8.86846">
        <ele>1535</ele>
        <time>2021-08-03T11:33:05.131Z</time>
      </trkpt>
      <trkpt lat="46.99832" lon="8.86843">
        <ele>1548</ele>
        <time>2021-08-03T11:33:06.132Z</time>
      </trkpt>
      <trkpt lat="46.99832" lon="8.86844">
        <ele>1549</ele>
        <time>2021-08-03T11:33:07.131Z</time>
      </trkpt>
      <trkpt lat="46.99833" lon="8.86845">
        <ele>1552</ele>
        <time>2021-08-03T11:33:08.131Z</time>
      </trkpt>
      <trkpt lat="46.99834" lon="8.86845">
        <ele>1552</ele>
        <time>2021-08-03T11:33:09.131Z</time>
      </trkpt>
      <trkpt lat="46.99834" lon="8.86845">
        <ele>1552</ele>
        <time>2021-08-03T11:33:10.131Z</time>
      </trkpt>
      <trkpt lat="46.99834" lon="8.86846">
        <ele>1552</ele>
        <time>2021-08-03T11:33:11.131Z</time>
      </trkpt>
      <trkpt lat="46.99834" lon="8.86846">
        <ele>1552</ele>
        <time>2021-08-03T11:33:12.131Z</time>
      </trkpt>
      <trkpt lat="46.99835" lon="8.86846">
        <ele>1549</ele>
        <time>2021-08-03T11:33:13.132Z</time>
      </trkpt>
      <trkpt lat="46.99835" lon="8.86845">
        <ele>1548</ele>
        <time>2021-08-03T11:33:14.132Z</time>
      </trkpt>
      <trkpt lat="46.99836" lon="8.86844">
        <ele>1547</ele>
        <time>2021-08-03T11:33:15.132Z</time>
      </trkpt>
      <trkpt lat="46.99836" lon="8.86844">
        <ele>1546</ele>
        <time>2021-08-03T11:33:16.132Z</time>
      </trkpt>
      <trkpt lat="46.99832" lon="8.86847">
        <ele>1542</ele>
        <time>2021-08-03T11:33:17.133Z</time>
      </trkpt>
      <trkpt lat="46.99832" lon="8.86847">
        <ele>1541</ele>
        <time>2021-08-03T11:33:18.132Z</time>
      </trkpt>
      <trkpt lat="46.99832" lon="8.86847">
        <ele>1538</ele>
        <time>2021-08-03T11:33:19.132Z</time>
      </trkpt>
      <trkpt lat="46.99833" lon="8.86847">
        <ele>1538</ele>
        <time>2021-08-03T11:33:20.133Z</time>
      </trkpt>
      <trkpt lat="46.99831" lon="8.86844">
        <ele>1542</ele>
        <time>2021-08-03T11:33:21.133Z</time>
      </trkpt>
      <trkpt lat="46.9983" lon="8.86843">
        <ele>1542</ele>
        <time>2021-08-03T11:33:22.133Z</time>
      </trkpt>
      <trkpt lat="46.99829" lon="8.86842">
        <ele>1542</ele>
        <time>2021-08-03T11:33:23.133Z</time>
      </trkpt>
      <trkpt lat="46.99828" lon="8.8684">
        <ele>1542</ele>
        <time>2021-08-03T11:33:24.133Z</time>
      </trkpt>
      <trkpt lat="46.99827" lon="8.86839">
        <ele>1542</ele>
        <time>2021-08-03T11:33:25.132Z</time>
      </trkpt>
      <trkpt lat="46.99825" lon="8.86837">
        <ele>1542</ele>
        <time>2021-08-03T11:33:26.132Z</time>
      </trkpt>
      <trkpt lat="46.99822" lon="8.86834">
        <ele>1542</ele>
        <time>2021-08-03T11:33:27.133Z</time>
      </trkpt>
      <trkpt lat="46.9982" lon="8.86831">
        <ele>1542</ele>
        <time>2021-08-03T11:33:28.132Z</time>
      </trkpt>
      <trkpt lat="46.99817" lon="8.86827">
        <ele>1542</ele>
        <time>2021-08-03T11:33:29.133Z</time>
      </trkpt>
      <trkpt lat="46.99814" lon="8.86823">
        <ele>1543</ele>
        <time>2021-08-03T11:33:30.133Z</time>
      </trkpt>
      <trkpt lat="46.99812" lon="8.8682">
        <ele>1543</ele>
        <time>2021-08-03T11:33:31.133Z</time>
      </trkpt>
      <trkpt lat="46.99809" lon="8.86816">
        <ele>1543</ele>
        <time>2021-08-03T11:33:32.133Z</time>
      </trkpt>
      <trkpt lat="46.99806" lon="8.86811">
        <ele>1543</ele>
        <time>2021-08-03T11:33:33.133Z</time>
      </trkpt>
      <trkpt lat="46.99804" lon="8.86807">
        <ele>1543</ele>
        <time>2021-08-03T11:33:34.132Z</time>
      </trkpt>
      <trkpt lat="46.99801" lon="8.86803">
        <ele>1543</ele>
        <time>2021-08-03T11:33:35.133Z</time>
      </trkpt>
      <trkpt lat="46.99799" lon="8.86798">
        <ele>1544</ele>
        <time>2021-08-03T11:33:36.132Z</time>
      </trkpt>
      <trkpt lat="46.99797" lon="8.86794">
        <ele>1544</ele>
        <time>2021-08-03T11:33:37.133Z</time>
      </trkpt>
      <trkpt lat="46.99794" lon="8.8679">
        <ele>1543</ele>
        <time>2021-08-03T11:33:38.133Z</time>
      </trkpt>
      <trkpt lat="46.99792" lon="8.86787">
        <ele>1543</ele>
        <time>2021-08-03T11:33:39.132Z</time>
      </trkpt>
      <trkpt lat="46.99789" lon="8.86783">
        <ele>1543</ele>
        <time>2021-08-03T11:33:40.133Z</time>
      </trkpt>
      <trkpt lat="46.99787" lon="8.86779">
        <ele>1543</ele>
        <time>2021-08-03T11:33:41.133Z</time>
      </trkpt>
      <trkpt lat="46.99785" lon="8.86776">
        <ele>1543</ele>
        <time>2021-08-03T11:33:42.132Z</time>
      </trkpt>
      <trkpt lat="46.99782" lon="8.86772">
        <ele>1544</ele>
        <time>2021-08-03T11:33:43.133Z</time>
      </trkpt>
      <trkpt lat="46.9978" lon="8.86768">
        <ele>1543</ele>
        <time>2021-08-03T11:33:44.133Z</time>
      </trkpt>
      <trkpt lat="46.99777" lon="8.86765">
        <ele>1544</ele>
        <time>2021-08-03T11:33:45.132Z</time>
      </trkpt>
      <trkpt lat="46.99774" lon="8.86761">
        <ele>1544</ele>
        <time>2021-08-03T11:33:46.133Z</time>
      </trkpt>
      <trkpt lat="46.99771" lon="8.86757">
        <ele>1544</ele>
        <time>2021-08-03T11:33:47.133Z</time>
      </trkpt>
      <trkpt lat="46.99768" lon="8.86753">
        <ele>1544</ele>
        <time>2021-08-03T11:33:48.133Z</time>
      </trkpt>
      <trkpt lat="46.99764" lon="8.86749">
        <ele>1543</ele>
        <time>2021-08-03T11:33:49.133Z</time>
      </trkpt>
      <trkpt lat="46.9976" lon="8.86745">
        <ele>1543</ele>
        <time>2021-08-03T11:33:50.132Z</time>
      </trkpt>
      <trkpt lat="46.99757" lon="8.86742">
        <ele>1543</ele>
        <time>2021-08-03T11:33:51.133Z</time>
      </trkpt>
      <trkpt lat="46.99754" lon="8.86739">
        <ele>1544</ele>
        <time>2021-08-03T11:33:52.133Z</time>
      </trkpt>
      <trkpt lat="46.9975" lon="8.86735">
        <ele>1544</ele>
        <time>2021-08-03T11:33:53.133Z</time>
      </trkpt>
      <trkpt lat="46.99747" lon="8.86732">
        <ele>1544</ele>
        <time>2021-08-03T11:33:54.133Z</time>
      </trkpt>
      <trkpt lat="46.99744" lon="8.86729">
        <ele>1544</ele>
        <time>2021-08-03T11:33:55.132Z</time>
      </trkpt>
      <trkpt lat="46.99741" lon="8.86726">
        <ele>1544</ele>
        <time>2021-08-03T11:33:56.133Z</time>
      </trkpt>
      <trkpt lat="46.99738" lon="8.86724">
        <ele>1544</ele>
        <time>2021-08-03T11:33:57.133Z</time>
      </trkpt>
      <trkpt lat="46.99735" lon="8.86722">
        <ele>1544</ele>
        <time>2021-08-03T11:33:58.133Z</time>
      </trkpt>
      <trkpt lat="46.99732" lon="8.86722">
        <ele>1544</ele>
        <time>2021-08-03T11:33:59.132Z</time>
      </trkpt>
      <trkpt lat="46.99729" lon="8.86722">
        <ele>1544</ele>
        <time>2021-08-03T11:34:00.132Z</time>
      </trkpt>
      <trkpt lat="46.99726" lon="8.86722">
        <ele>1544</ele>
        <time>2021-08-03T11:34:01.132Z</time>
      </trkpt>
      <trkpt lat="46.99723" lon="8.86723">
        <ele>1544</ele>
        <time>2021-08-03T11:34:02.133Z</time>
      </trkpt>
      <trkpt lat="46.9972" lon="8.86724">
        <ele>1543</ele>
        <time>2021-08-03T11:34:03.133Z</time>
      </trkpt>
      <trkpt lat="46.99716" lon="8.86725">
        <ele>1543</ele>
        <time>2021-08-03T11:34:04.133Z</time>
      </trkpt>
      <trkpt lat="46.99713" lon="8.86726">
        <ele>1543</ele>
        <time>2021-08-03T11:34:05.133Z</time>
      </trkpt>
      <trkpt lat="46.99709" lon="8.86726">
        <ele>1543</ele>
        <time>2021-08-03T11:34:06.132Z</time>
      </trkpt>
      <trkpt lat="46.99705" lon="8.86727">
        <ele>1543</ele>
        <time>2021-08-03T11:34:07.133Z</time>
      </trkpt>
      <trkpt lat="46.99701" lon="8.86728">
        <ele>1543</ele>
        <time>2021-08-03T11:34:08.133Z</time>
      </trkpt>
      <trkpt lat="46.99697" lon="8.86729">
        <ele>1543</ele>
        <time>2021-08-03T11:34:09.133Z</time>
      </trkpt>
      <trkpt lat="46.99693" lon="8.86729">
        <ele>1544</ele>
        <time>2021-08-03T11:34:10.133Z</time>
      </trkpt>
      <trkpt lat="46.99689" lon="8.86729">
        <ele>1544</ele>
        <time>2021-08-03T11:34:11.132Z</time>
      </trkpt>
      <trkpt lat="46.99684" lon="8.8673">
        <ele>1544</ele>
        <time>2021-08-03T11:34:12.133Z</time>
      </trkpt>
      <trkpt lat="46.9968" lon="8.8673">
        <ele>1544</ele>
        <time>2021-08-03T11:34:13.132Z</time>
      </trkpt>
      <trkpt lat="46.99675" lon="8.8673">
        <ele>1544</ele>
        <time>2021-08-03T11:34:14.132Z</time>
      </trkpt>
      <trkpt lat="46.99672" lon="8.8673">
        <ele>1544</ele>
        <time>2021-08-03T11:34:15.132Z</time>
      </trkpt>
      <trkpt lat="46.99667" lon="8.86731">
        <ele>1544</ele>
        <time>2021-08-03T11:34:16.132Z</time>
      </trkpt>
      <trkpt lat="46.99663" lon="8.86731">
        <ele>1544</ele>
        <time>2021-08-03T11:34:17.133Z</time>
      </trkpt>
      <trkpt lat="46.99658" lon="8.86731">
        <ele>1544</ele>
        <time>2021-08-03T11:34:18.133Z</time>
      </trkpt>
      <trkpt lat="46.99654" lon="8.8673">
        <ele>1544</ele>
        <time>2021-08-03T11:34:19.133Z</time>
      </trkpt>
      <trkpt lat="46.9965" lon="8.8673">
        <ele>1543</ele>
        <time>2021-08-03T11:34:20.133Z</time>
      </trkpt>
      <trkpt lat="46.99645" lon="8.86728">
        <ele>1543</ele>
        <time>2021-08-03T11:34:21.132Z</time>
      </trkpt>
      <trkpt lat="46.99641" lon="8.86727">
        <ele>1543</ele>
        <time>2021-08-03T11:34:22.133Z</time>
      </trkpt>
      <trkpt lat="46.99637" lon="8.86725">
        <ele>1543</ele>
        <time>2021-08-03T11:34:23.132Z</time>
      </trkpt>
      <trkpt lat="46.99634" lon="8.86723">
        <ele>1543</ele>
        <time>2021-08-03T11:34:24.132Z</time>
      </trkpt>
      <trkpt lat="46.9963" lon="8.86721">
        <ele>1542</ele>
        <time>2021-08-03T11:34:25.133Z</time>
      </trkpt>
      <trkpt lat="46.99627" lon="8.86718">
        <ele>1542</ele>
        <time>2021-08-03T11:34:26.132Z</time>
      </trkpt>
      <trkpt lat="46.99624" lon="8.86715">
        <ele>1541</ele>
        <time>2021-08-03T11:34:27.132Z</time>
      </trkpt>
      <trkpt lat="46.99622" lon="8.86713">
        <ele>1541</ele>
        <time>2021-08-03T11:34:28.133Z</time>
      </trkpt>
      <trkpt lat="46.99619" lon="8.86711">
        <ele>1541</ele>
        <time>2021-08-03T11:34:29.132Z</time>
      </trkpt>
      <trkpt lat="46.99617" lon="8.8671">
        <ele>1541</ele>
        <time>2021-08-03T11:34:30.133Z</time>
      </trkpt>
      <trkpt lat="46.99615" lon="8.86709">
        <ele>1540</ele>
        <time>2021-08-03T11:34:31.133Z</time>
      </trkpt>
      <trkpt lat="46.99613" lon="8.86708">
        <ele>1540</ele>
        <time>2021-08-03T11:34:32.133Z</time>
      </trkpt>
      <trkpt lat="46.99613" lon="8.86708">
        <ele>1539</ele>
        <time>2021-08-03T11:34:33.132Z</time>
      </trkpt>
      <trkpt lat="46.99613" lon="8.86709">
        <ele>1539</ele>
        <time>2021-08-03T11:34:34.133Z</time>
      </trkpt>
      <trkpt lat="46.99613" lon="8.86709">
        <ele>1538</ele>
        <time>2021-08-03T11:34:35.133Z</time>
      </trkpt>
      <trkpt lat="46.99613" lon="8.86709">
        <ele>1538</ele>
        <time>2021-08-03T11:34:36.132Z</time>
      </trkpt>
      <trkpt lat="46.99614" lon="8.86709">
        <ele>1538</ele>
        <time>2021-08-03T11:34:37.133Z</time>
      </trkpt>
      <trkpt lat="46.99614" lon="8.86708">
        <ele>1549</ele>
        <time>2021-08-03T11:34:38.134Z</time>
      </trkpt>
      <trkpt lat="46.99615" lon="8.86708">
        <ele>1548</ele>
        <time>2021-08-03T11:34:39.134Z</time>
      </trkpt>
      <trkpt lat="46.99615" lon="8.86708">
        <ele>1548</ele>
        <time>2021-08-03T11:34:40.133Z</time>
      </trkpt>
      <trkpt lat="46.99616" lon="8.86708">
        <ele>1548</ele>
        <time>2021-08-03T11:34:41.134Z</time>
      </trkpt>
      <trkpt lat="46.99616" lon="8.86708">
        <ele>1548</ele>
        <time>2021-08-03T11:34:42.134Z</time>
      </trkpt>
      <trkpt lat="46.99619" lon="8.86707">
        <ele>1546</ele>
        <time>2021-08-03T11:34:43.135Z</time>
      </trkpt>
      <trkpt lat="46.99619" lon="8.86707">
        <ele>1545</ele>
        <time>2021-08-03T11:34:44.135Z</time>
      </trkpt>
      <trkpt lat="46.9962" lon="8.86708">
        <ele>1544</ele>
        <time>2021-08-03T11:34:45.134Z</time>
      </trkpt>
      <trkpt lat="46.99621" lon="8.86708">
        <ele>1544</ele>
        <time>2021-08-03T11:34:46.134Z</time>
      </trkpt>
      <trkpt lat="46.99622" lon="8.8671">
        <ele>1544</ele>
        <time>2021-08-03T11:34:47.134Z</time>
      </trkpt>
      <trkpt lat="46.99623" lon="8.86711">
        <ele>1544</ele>
        <time>2021-08-03T11:34:48.134Z</time>
      </trkpt>
      <trkpt lat="46.99624" lon="8.86712">
        <ele>1544</ele>
        <time>2021-08-03T11:34:49.134Z</time>
      </trkpt>
      <trkpt lat="46.99625" lon="8.86713">
        <ele>1543</ele>
        <time>2021-08-03T11:34:50.135Z</time>
      </trkpt>
      <trkpt lat="46.99626" lon="8.86714">
        <ele>1543</ele>
        <time>2021-08-03T11:34:51.135Z</time>
      </trkpt>
      <trkpt lat="46.99627" lon="8.86716">
        <ele>1543</ele>
        <time>2021-08-03T11:34:52.134Z</time>
      </trkpt>
      <trkpt lat="46.99628" lon="8.86717">
        <ele>1543</ele>
        <time>2021-08-03T11:34:53.135Z</time>
      </trkpt>
      <trkpt lat="46.99629" lon="8.86718">
        <ele>1542</ele>
        <time>2021-08-03T11:34:54.134Z</time>
      </trkpt>
      <trkpt lat="46.9963" lon="8.86718">
        <ele>1542</ele>
        <time>2021-08-03T11:34:55.134Z</time>
      </trkpt>
      <trkpt lat="46.99631" lon="8.8672">
        <ele>1542</ele>
        <time>2021-08-03T11:34:56.134Z</time>
      </trkpt>
      <trkpt lat="46.99632" lon="8.86721">
        <ele>1542</ele>
        <time>2021-08-03T11:34:57.134Z</time>
      </trkpt>
      <trkpt lat="46.99633" lon="8.86722">
        <ele>1542</ele>
        <time>2021-08-03T11:34:58.135Z</time>
      </trkpt>
      <trkpt lat="46.99635" lon="8.86723">
        <ele>1542</ele>
        <time>2021-08-03T11:34:59.134Z</time>
      </trkpt>
      <trkpt lat="46.99636" lon="8.86724">
        <ele>1543</ele>
        <time>2021-08-03T11:35:00.134Z</time>
      </trkpt>
      <trkpt lat="46.99636" lon="8.86725">
        <ele>1543</ele>
        <time>2021-08-03T11:35:01.134Z</time>
      </trkpt>
      <trkpt lat="46.99637" lon="8.86726">
        <ele>1544</ele>
        <time>2021-08-03T11:35:02.135Z</time>
      </trkpt>
      <trkpt lat="46.99638" lon="8.86727">
        <ele>1543</ele>
        <time>2021-08-03T11:35:03.134Z</time>
      </trkpt>
      <trkpt lat="46.9964" lon="8.86728">
        <ele>1543</ele>
        <time>2021-08-03T11:35:04.135Z</time>
      </trkpt>
      <trkpt lat="46.99641" lon="8.86728">
        <ele>1543</ele>
        <time>2021-08-03T11:35:05.134Z</time>
      </trkpt>
      <trkpt lat="46.99642" lon="8.86729">
        <ele>1542</ele>
        <time>2021-08-03T11:35:06.134Z</time>
      </trkpt>
      <trkpt lat="46.99643" lon="8.86729">
        <ele>1542</ele>
        <time>2021-08-03T11:35:07.134Z</time>
      </trkpt>
      <trkpt lat="46.99644" lon="8.86729">
        <ele>1541</ele>
        <time>2021-08-03T11:35:08.134Z</time>
      </trkpt>
      <trkpt lat="46.99645" lon="8.8673">
        <ele>1541</ele>
        <time>2021-08-03T11:35:09.134Z</time>
      </trkpt>
      <trkpt lat="46.99646" lon="8.86731">
        <ele>1540</ele>
        <time>2021-08-03T11:35:10.134Z</time>
      </trkpt>
      <trkpt lat="46.99647" lon="8.86731">
        <ele>1540</ele>
        <time>2021-08-03T11:35:11.134Z</time>
      </trkpt>
      <trkpt lat="46.99648" lon="8.86732">
        <ele>1540</ele>
        <time>2021-08-03T11:35:12.134Z</time>
      </trkpt>
      <trkpt lat="46.99649" lon="8.86733">
        <ele>1540</ele>
        <time>2021-08-03T11:35:13.134Z</time>
      </trkpt>
      <trkpt lat="46.99651" lon="8.86733">
        <ele>1540</ele>
        <time>2021-08-03T11:35:14.134Z</time>
      </trkpt>
      <trkpt lat="46.99652" lon="8.86733">
        <ele>1540</ele>
        <time>2021-08-03T11:35:15.134Z</time>
      </trkpt>
      <trkpt lat="46.99653" lon="8.86734">
        <ele>1540</ele>
        <time>2021-08-03T11:35:16.134Z</time>
      </trkpt>
      <trkpt lat="46.99654" lon="8.86734">
        <ele>1539</ele>
        <time>2021-08-03T11:35:17.135Z</time>
      </trkpt>
      <trkpt lat="46.99655" lon="8.86734">
        <ele>1539</ele>
        <time>2021-08-03T11:35:18.135Z</time>
      </trkpt>
      <trkpt lat="46.99657" lon="8.86734">
        <ele>1539</ele>
        <time>2021-08-03T11:35:19.134Z</time>
      </trkpt>
      <trkpt lat="46.99658" lon="8.86734">
        <ele>1539</ele>
        <time>2021-08-03T11:35:20.134Z</time>
      </trkpt>
      <trkpt lat="46.99659" lon="8.86735">
        <ele>1539</ele>
        <time>2021-08-03T11:35:21.134Z</time>
      </trkpt>
      <trkpt lat="46.9966" lon="8.86735">
        <ele>1539</ele>
        <time>2021-08-03T11:35:22.134Z</time>
      </trkpt>
      <trkpt lat="46.99661" lon="8.86735">
        <ele>1539</ele>
        <time>2021-08-03T11:35:23.135Z</time>
      </trkpt>
      <trkpt lat="46.99662" lon="8.86735">
        <ele>1539</ele>
        <time>2021-08-03T11:35:24.135Z</time>
      </trkpt>
      <trkpt lat="46.99663" lon="8.86735">
        <ele>1539</ele>
        <time>2021-08-03T11:35:25.135Z</time>
      </trkpt>
      <trkpt lat="46.99664" lon="8.86736">
        <ele>1539</ele>
        <time>2021-08-03T11:35:26.135Z</time>
      </trkpt>
      <trkpt lat="46.99665" lon="8.86736">
        <ele>1539</ele>
        <time>2021-08-03T11:35:27.135Z</time>
      </trkpt>
      <trkpt lat="46.99666" lon="8.86736">
        <ele>1539</ele>
        <time>2021-08-03T11:35:28.135Z</time>
      </trkpt>
      <trkpt lat="46.99667" lon="8.86736">
        <ele>1539</ele>
        <time>2021-08-03T11:35:29.134Z</time>
      </trkpt>
      <trkpt lat="46.99668" lon="8.86736">
        <ele>1539</ele>
        <time>2021-08-03T11:35:30.134Z</time>
      </trkpt>
      <trkpt lat="46.99669" lon="8.86736">
        <ele>1539</ele>
        <time>2021-08-03T11:35:31.134Z</time>
      </trkpt>
      <trkpt lat="46.9967" lon="8.86736">
        <ele>1540</ele>
        <time>2021-08-03T11:35:32.134Z</time>
      </trkpt>
      <trkpt lat="46.99671" lon="8.86736">
        <ele>1540</ele>
        <time>2021-08-03T11:35:33.135Z</time>
      </trkpt>
      <trkpt lat="46.99672" lon="8.86736">
        <ele>1540</ele>
        <time>2021-08-03T11:35:34.135Z</time>
      </trkpt>
      <trkpt lat="46.99673" lon="8.86735">
        <ele>1541</ele>
        <time>2021-08-03T11:35:35.134Z</time>
      </trkpt>
      <trkpt lat="46.99674" lon="8.86735">
        <ele>1541</ele>
        <time>2021-08-03T11:35:36.134Z</time>
      </trkpt>
      <trkpt lat="46.99675" lon="8.86735">
        <ele>1541</ele>
        <time>2021-08-03T11:35:37.135Z</time>
      </trkpt>
      <trkpt lat="46.99676" lon="8.86735">
        <ele>1541</ele>
        <time>2021-08-03T11:35:38.135Z</time>
      </trkpt>
      <trkpt lat="46.99677" lon="8.86735">
        <ele>1541</ele>
        <time>2021-08-03T11:35:39.134Z</time>
      </trkpt>
      <trkpt lat="46.99678" lon="8.86735">
        <ele>1541</ele>
        <time>2021-08-03T11:35:40.134Z</time>
      </trkpt>
      <trkpt lat="46.99679" lon="8.86735">
        <ele>1542</ele>
        <time>2021-08-03T11:35:41.135Z</time>
      </trkpt>
      <trkpt lat="46.9968" lon="8.86735">
        <ele>1542</ele>
        <time>2021-08-03T11:35:42.135Z</time>
      </trkpt>
      <trkpt lat="46.99681" lon="8.86735">
        <ele>1543</ele>
        <time>2021-08-03T11:35:43.135Z</time>
      </trkpt>
      <trkpt lat="46.99682" lon="8.86735">
        <ele>1544</ele>
        <time>2021-08-03T11:35:44.134Z</time>
      </trkpt>
      <trkpt lat="46.99683" lon="8.86735">
        <ele>1544</ele>
        <time>2021-08-03T11:35:45.134Z</time>
      </trkpt>
      <trkpt lat="46.99683" lon="8.86735">
        <ele>1544</ele>
        <time>2021-08-03T11:35:46.134Z</time>
      </trkpt>
      <trkpt lat="46.99684" lon="8.86735">
        <ele>1544</ele>
        <time>2021-08-03T11:35:47.135Z</time>
      </trkpt>
      <trkpt lat="46.99684" lon="8.86735">
        <ele>1544</ele>
        <time>2021-08-03T11:35:48.135Z</time>
      </trkpt>
      <trkpt lat="46.99685" lon="8.86735">
        <ele>1544</ele>
        <time>2021-08-03T11:35:49.134Z</time>
      </trkpt>
      <trkpt lat="46.99685" lon="8.86735">
        <ele>1544</ele>
        <time>2021-08-03T11:35:50.135Z</time>
      </trkpt>
      <trkpt lat="46.99686" lon="8.86736">
        <ele>1544</ele>
        <time>2021-08-03T11:35:51.135Z</time>
      </trkpt>
      <trkpt lat="46.99687" lon="8.86736">
        <ele>1544</ele>
        <time>2021-08-03T11:35:52.135Z</time>
      </trkpt>
      <trkpt lat="46.99688" lon="8.86735">
        <ele>1544</ele>
        <time>2021-08-03T11:35:53.135Z</time>
      </trkpt>
      <trkpt lat="46.99688" lon="8.86735">
        <ele>1544</ele>
        <time>2021-08-03T11:35:54.134Z</time>
      </trkpt>
      <trkpt lat="46.99689" lon="8.86735">
        <ele>1544</ele>
        <time>2021-08-03T11:35:55.135Z</time>
      </trkpt>
      <trkpt lat="46.9969" lon="8.86735">
        <ele>1544</ele>
        <time>2021-08-03T11:35:56.135Z</time>
      </trkpt>
      <trkpt lat="46.99691" lon="8.86735">
        <ele>1542</ele>
        <time>2021-08-03T11:35:57.134Z</time>
      </trkpt>
      <trkpt lat="46.99692" lon="8.86735">
        <ele>1542</ele>
        <time>2021-08-03T11:35:58.135Z</time>
      </trkpt>
      <trkpt lat="46.99693" lon="8.86735">
        <ele>1542</ele>
        <time>2021-08-03T11:35:59.134Z</time>
      </trkpt>
      <trkpt lat="46.99694" lon="8.86734">
        <ele>1542</ele>
        <time>2021-08-03T11:36:00.134Z</time>
      </trkpt>
      <trkpt lat="46.99695" lon="8.86734">
        <ele>1542</ele>
        <time>2021-08-03T11:36:01.135Z</time>
      </trkpt>
      <trkpt lat="46.99696" lon="8.86734">
        <ele>1542</ele>
        <time>2021-08-03T11:36:02.135Z</time>
      </trkpt>
      <trkpt lat="46.99697" lon="8.86734">
        <ele>1542</ele>
        <time>2021-08-03T11:36:03.135Z</time>
      </trkpt>
      <trkpt lat="46.99699" lon="8.86734">
        <ele>1542</ele>
        <time>2021-08-03T11:36:04.135Z</time>
      </trkpt>
      <trkpt lat="46.997" lon="8.86733">
        <ele>1543</ele>
        <time>2021-08-03T11:36:05.135Z</time>
      </trkpt>
      <trkpt lat="46.99701" lon="8.86733">
        <ele>1543</ele>
        <time>2021-08-03T11:36:06.135Z</time>
      </trkpt>
      <trkpt lat="46.99702" lon="8.86733">
        <ele>1543</ele>
        <time>2021-08-03T11:36:07.135Z</time>
      </trkpt>
      <trkpt lat="46.99703" lon="8.86734">
        <ele>1544</ele>
        <time>2021-08-03T11:36:08.135Z</time>
      </trkpt>
      <trkpt lat="46.99704" lon="8.86734">
        <ele>1544</ele>
        <time>2021-08-03T11:36:09.135Z</time>
      </trkpt>
      <trkpt lat="46.99705" lon="8.86734">
        <ele>1544</ele>
        <time>2021-08-03T11:36:10.134Z</time>
      </trkpt>
      <trkpt lat="46.99706" lon="8.86734">
        <ele>1544</ele>
        <time>2021-08-03T11:36:11.135Z</time>
      </trkpt>
      <trkpt lat="46.99707" lon="8.86734">
        <ele>1544</ele>
        <time>2021-08-03T11:36:12.135Z</time>
      </trkpt>
      <trkpt lat="46.99708" lon="8.86734">
        <ele>1545</ele>
        <time>2021-08-03T11:36:13.135Z</time>
      </trkpt>
      <trkpt lat="46.99709" lon="8.86734">
        <ele>1545</ele>
        <time>2021-08-03T11:36:14.135Z</time>
      </trkpt>
      <trkpt lat="46.9971" lon="8.86734">
        <ele>1545</ele>
        <time>2021-08-03T11:36:15.135Z</time>
      </trkpt>
      <trkpt lat="46.9971" lon="8.86734">
        <ele>1544</ele>
        <time>2021-08-03T11:36:16.135Z</time>
      </trkpt>
      <trkpt lat="46.99711" lon="8.86734">
        <ele>1544</ele>
        <time>2021-08-03T11:36:17.134Z</time>
      </trkpt>
      <trkpt lat="46.99711" lon="8.86733">
        <ele>1543</ele>
        <time>2021-08-03T11:36:23.236Z</time>
      </trkpt>
      <trkpt lat="46.99712" lon="8.86733">
        <ele>1543</ele>
        <time>2021-08-03T11:36:24.235Z</time>
      </trkpt>
      <trkpt lat="46.99712" lon="8.86733">
        <ele>1543</ele>
        <time>2021-08-03T11:36:25.236Z</time>
      </trkpt>
      <trkpt lat="46.99713" lon="8.86733">
        <ele>1543</ele>
        <time>2021-08-03T11:36:47.260Z</time>
      </trkpt>
      <trkpt lat="46.99714" lon="8.86733">
        <ele>1543</ele>
        <time>2021-08-03T11:36:48.260Z</time>
      </trkpt>
      <trkpt lat="46.99715" lon="8.86732">
        <ele>1543</ele>
        <time>2021-08-03T11:37:07.132Z</time>
      </trkpt>
      <trkpt lat="46.99716" lon="8.86732">
        <ele>1543</ele>
        <time>2021-08-03T11:37:08.132Z</time>
      </trkpt>
      <trkpt lat="46.99717" lon="8.86732">
        <ele>1543</ele>
        <time>2021-08-03T11:37:30.971Z</time>
      </trkpt>
      <trkpt lat="46.99719" lon="8.86731">
        <ele>1543</ele>
        <time>2021-08-03T11:37:31.970Z</time>
      </trkpt>
      <trkpt lat="46.9972" lon="8.86731">
        <ele>1543</ele>
        <time>2021-08-03T11:37:32.970Z</time>
      </trkpt>
      <trkpt lat="46.99721" lon="8.86731">
        <ele>1544</ele>
        <time>2021-08-03T11:37:33.970Z</time>
      </trkpt>
      <trkpt lat="46.99722" lon="8.86731">
        <ele>1544</ele>
        <time>2021-08-03T11:37:34.971Z</time>
      </trkpt>
      <trkpt lat="46.99723" lon="8.86731">
        <ele>1544</ele>
        <time>2021-08-03T11:37:35.971Z</time>
      </trkpt>
      <trkpt lat="46.99724" lon="8.8673">
        <ele>1544</ele>
        <time>2021-08-03T11:37:36.971Z</time>
      </trkpt>
      <trkpt lat="46.99725" lon="8.86729">
        <ele>1544</ele>
        <time>2021-08-03T11:37:45.995Z</time>
      </trkpt>
      <trkpt lat="46.99726" lon="8.86729">
        <ele>1544</ele>
        <time>2021-08-03T11:37:46.995Z</time>
      </trkpt>
      <trkpt lat="46.99727" lon="8.86728">
        <ele>1544</ele>
        <time>2021-08-03T11:37:47.995Z</time>
      </trkpt>
      <trkpt lat="46.99729" lon="8.86728">
        <ele>1544</ele>
        <time>2021-08-03T11:37:48.995Z</time>
      </trkpt>
      <trkpt lat="46.9973" lon="8.86727">
        <ele>1544</ele>
        <time>2021-08-03T11:37:49.994Z</time>
      </trkpt>
      <trkpt lat="46.99731" lon="8.86727">
        <ele>1545</ele>
        <time>2021-08-03T11:37:50.995Z</time>
      </trkpt>
      <trkpt lat="46.99732" lon="8.86727">
        <ele>1544</ele>
        <time>2021-08-03T11:37:51.995Z</time>
      </trkpt>
      <trkpt lat="46.99734" lon="8.86726">
        <ele>1544</ele>
        <time>2021-08-03T11:37:52.995Z</time>
      </trkpt>
      <trkpt lat="46.99735" lon="8.86726">
        <ele>1544</ele>
        <time>2021-08-03T11:38:01.110Z</time>
      </trkpt>
      <trkpt lat="46.99736" lon="8.86726">
        <ele>1543</ele>
        <time>2021-08-03T11:38:02.109Z</time>
      </trkpt>
      <trkpt lat="46.99737" lon="8.86726">
        <ele>1543</ele>
        <time>2021-08-03T11:38:03.109Z</time>
      </trkpt>
      <trkpt lat="46.99738" lon="8.86726">
        <ele>1543</ele>
        <time>2021-08-03T11:38:05.126Z</time>
      </trkpt>
      <trkpt lat="46.99739" lon="8.86727">
        <ele>1542</ele>
        <time>2021-08-03T11:38:06.125Z</time>
      </trkpt>
      <trkpt lat="46.9974" lon="8.86728">
        <ele>1542</ele>
        <time>2021-08-03T11:38:07.126Z</time>
      </trkpt>
      <trkpt lat="46.99742" lon="8.86729">
        <ele>1543</ele>
        <time>2021-08-03T11:38:08.126Z</time>
      </trkpt>
      <trkpt lat="46.99742" lon="8.8673">
        <ele>1543</ele>
        <time>2021-08-03T11:38:09.126Z</time>
      </trkpt>
      <trkpt lat="46.99744" lon="8.86731">
        <ele>1543</ele>
        <time>2021-08-03T11:38:10.126Z</time>
      </trkpt>
      <trkpt lat="46.99745" lon="8.86732">
        <ele>1544</ele>
        <time>2021-08-03T11:38:11.125Z</time>
      </trkpt>
      <trkpt lat="46.99746" lon="8.86732">
        <ele>1544</ele>
        <time>2021-08-03T11:38:12.126Z</time>
      </trkpt>
      <trkpt lat="46.99747" lon="8.86733">
        <ele>1543</ele>
        <time>2021-08-03T11:38:13.126Z</time>
      </trkpt>
      <trkpt lat="46.99748" lon="8.86734">
        <ele>1543</ele>
        <time>2021-08-03T11:38:14.125Z</time>
      </trkpt>
      <trkpt lat="46.99749" lon="8.86735">
        <ele>1543</ele>
        <time>2021-08-03T11:38:15.126Z</time>
      </trkpt>
      <trkpt lat="46.9975" lon="8.86736">
        <ele>1543</ele>
        <time>2021-08-03T11:38:16.126Z</time>
      </trkpt>
      <trkpt lat="46.99751" lon="8.86738">
        <ele>1544</ele>
        <time>2021-08-03T11:38:17.125Z</time>
      </trkpt>
      <trkpt lat="46.99752" lon="8.86738">
        <ele>1544</ele>
        <time>2021-08-03T11:38:18.126Z</time>
      </trkpt>
      <trkpt lat="46.99753" lon="8.8674">
        <ele>1544</ele>
        <time>2021-08-03T11:38:19.126Z</time>
      </trkpt>
      <trkpt lat="46.99754" lon="8.86741">
        <ele>1545</ele>
        <time>2021-08-03T11:38:20.126Z</time>
      </trkpt>
      <trkpt lat="46.99755" lon="8.86742">
        <ele>1545</ele>
        <time>2021-08-03T11:38:21.126Z</time>
      </trkpt>
      <trkpt lat="46.99756" lon="8.86742">
        <ele>1544</ele>
        <time>2021-08-03T11:38:22.125Z</time>
      </trkpt>
      <trkpt lat="46.99757" lon="8.86743">
        <ele>1544</ele>
        <time>2021-08-03T11:38:23.125Z</time>
      </trkpt>
      <trkpt lat="46.99758" lon="8.86744">
        <ele>1544</ele>
        <time>2021-08-03T11:38:24.125Z</time>
      </trkpt>
      <trkpt lat="46.99759" lon="8.86745">
        <ele>1543</ele>
        <time>2021-08-03T11:38:25.125Z</time>
      </trkpt>
      <trkpt lat="46.9976" lon="8.86745">
        <ele>1543</ele>
        <time>2021-08-03T11:38:26.125Z</time>
      </trkpt>
      <trkpt lat="46.9976" lon="8.86746">
        <ele>1543</ele>
        <time>2021-08-03T11:38:27.126Z</time>
      </trkpt>
      <trkpt lat="46.99761" lon="8.86746">
        <ele>1543</ele>
        <time>2021-08-03T11:38:28.125Z</time>
      </trkpt>
      <trkpt lat="46.99762" lon="8.86747">
        <ele>1543</ele>
        <time>2021-08-03T11:38:29.125Z</time>
      </trkpt>
      <trkpt lat="46.99762" lon="8.86747">
        <ele>1543</ele>
        <time>2021-08-03T11:38:30.126Z</time>
      </trkpt>
      <trkpt lat="46.99763" lon="8.86748">
        <ele>1544</ele>
        <time>2021-08-03T11:38:31.125Z</time>
      </trkpt>
      <trkpt lat="46.99764" lon="8.86749">
        <ele>1544</ele>
        <time>2021-08-03T11:38:32.126Z</time>
      </trkpt>
      <trkpt lat="46.99765" lon="8.8675">
        <ele>1544</ele>
        <time>2021-08-03T11:38:33.126Z</time>
      </trkpt>
      <trkpt lat="46.99765" lon="8.8675">
        <ele>1544</ele>
        <time>2021-08-03T11:38:34.125Z</time>
      </trkpt>
      <trkpt lat="46.99765" lon="8.8675">
        <ele>1544</ele>
        <time>2021-08-03T11:38:35.126Z</time>
      </trkpt>
      <trkpt lat="46.99765" lon="8.8675">
        <ele>1544</ele>
        <time>2021-08-03T11:38:36.125Z</time>
      </trkpt>
      <trkpt lat="46.99766" lon="8.8675">
        <ele>1544</ele>
        <time>2021-08-03T11:38:37.126Z</time>
      </trkpt>
      <trkpt lat="46.99767" lon="8.86751">
        <ele>1545</ele>
        <time>2021-08-03T11:38:38.125Z</time>
      </trkpt>
      <trkpt lat="46.99768" lon="8.86752">
        <ele>1545</ele>
        <time>2021-08-03T11:38:39.125Z</time>
      </trkpt>
      <trkpt lat="46.99769" lon="8.86753">
        <ele>1546</ele>
        <time>2021-08-03T11:38:40.125Z</time>
      </trkpt>
      <trkpt lat="46.9977" lon="8.86753">
        <ele>1547</ele>
        <time>2021-08-03T11:38:41.125Z</time>
      </trkpt>
      <trkpt lat="46.99771" lon="8.86755">
        <ele>1546</ele>
        <time>2021-08-03T11:38:42.126Z</time>
      </trkpt>
      <trkpt lat="46.99772" lon="8.86756">
        <ele>1546</ele>
        <time>2021-08-03T11:38:43.125Z</time>
      </trkpt>
      <trkpt lat="46.99773" lon="8.86758">
        <ele>1546</ele>
        <time>2021-08-03T11:38:44.126Z</time>
      </trkpt>
      <trkpt lat="46.99774" lon="8.86759">
        <ele>1546</ele>
        <time>2021-08-03T11:38:51.108Z</time>
      </trkpt>
      <trkpt lat="46.99775" lon="8.8676">
        <ele>1546</ele>
        <time>2021-08-03T11:38:52.108Z</time>
      </trkpt>
      <trkpt lat="46.99776" lon="8.86762">
        <ele>1547</ele>
        <time>2021-08-03T11:38:53.108Z</time>
      </trkpt>
      <trkpt lat="46.99777" lon="8.86763">
        <ele>1547</ele>
        <time>2021-08-03T11:38:58.122Z</time>
      </trkpt>
      <trkpt lat="46.99777" lon="8.86764">
        <ele>1547</ele>
        <time>2021-08-03T11:38:59.123Z</time>
      </trkpt>
      <trkpt lat="46.99778" lon="8.86766">
        <ele>1548</ele>
        <time>2021-08-03T11:39:04.256Z</time>
      </trkpt>
      <trkpt lat="46.99779" lon="8.86767">
        <ele>1548</ele>
        <time>2021-08-03T11:39:05.255Z</time>
      </trkpt>
      <trkpt lat="46.9978" lon="8.86768">
        <ele>1548</ele>
        <time>2021-08-03T11:39:06.255Z</time>
      </trkpt>
      <trkpt lat="46.99781" lon="8.8677">
        <ele>1548</ele>
        <time>2021-08-03T11:39:07.256Z</time>
      </trkpt>
      <trkpt lat="46.99782" lon="8.86771">
        <ele>1547</ele>
        <time>2021-08-03T11:39:08.256Z</time>
      </trkpt>
      <trkpt lat="46.99783" lon="8.86772">
        <ele>1547</ele>
        <time>2021-08-03T11:39:09.256Z</time>
      </trkpt>
      <trkpt lat="46.99784" lon="8.86774">
        <ele>1546</ele>
        <time>2021-08-03T11:39:10.255Z</time>
      </trkpt>
      <trkpt lat="46.99785" lon="8.86775">
        <ele>1546</ele>
        <time>2021-08-03T11:39:11.256Z</time>
      </trkpt>
      <trkpt lat="46.99785" lon="8.86777">
        <ele>1546</ele>
        <time>2021-08-03T11:39:12.255Z</time>
      </trkpt>
      <trkpt lat="46.99786" lon="8.86778">
        <ele>1545</ele>
        <time>2021-08-03T11:39:13.256Z</time>
      </trkpt>
      <trkpt lat="46.99787" lon="8.86779">
        <ele>1545</ele>
        <time>2021-08-03T11:39:14.256Z</time>
      </trkpt>
      <trkpt lat="46.99788" lon="8.86781">
        <ele>1545</ele>
        <time>2021-08-03T11:39:15.256Z</time>
      </trkpt>
      <trkpt lat="46.99789" lon="8.86782">
        <ele>1545</ele>
        <time>2021-08-03T11:39:16.255Z</time>
      </trkpt>
      <trkpt lat="46.99789" lon="8.86784">
        <ele>1545</ele>
        <time>2021-08-03T11:39:17.256Z</time>
      </trkpt>
      <trkpt lat="46.9979" lon="8.86785">
        <ele>1545</ele>
        <time>2021-08-03T11:39:18.256Z</time>
      </trkpt>
      <trkpt lat="46.99791" lon="8.86787">
        <ele>1545</ele>
        <time>2021-08-03T11:39:19.255Z</time>
      </trkpt>
      <trkpt lat="46.99792" lon="8.86788">
        <ele>1545</ele>
        <time>2021-08-03T11:39:26.235Z</time>
      </trkpt>
      <trkpt lat="46.99792" lon="8.86789">
        <ele>1544</ele>
        <time>2021-08-03T11:39:27.235Z</time>
      </trkpt>
      <trkpt lat="46.99793" lon="8.86789">
        <ele>1544</ele>
        <time>2021-08-03T11:39:28.236Z</time>
      </trkpt>
      <trkpt lat="46.99793" lon="8.86789">
        <ele>1544</ele>
        <time>2021-08-03T11:39:29.235Z</time>
      </trkpt>
      <trkpt lat="46.99793" lon="8.86789">
        <ele>1544</ele>
        <time>2021-08-03T11:39:30.235Z</time>
      </trkpt>
      <trkpt lat="46.99794" lon="8.8679">
        <ele>1543</ele>
        <time>2021-08-03T11:39:32.261Z</time>
      </trkpt>
      <trkpt lat="46.99794" lon="8.8679">
        <ele>1543</ele>
        <time>2021-08-03T11:39:33.261Z</time>
      </trkpt>
      <trkpt lat="46.99794" lon="8.86789">
        <ele>1543</ele>
        <time>2021-08-03T11:39:34.261Z</time>
      </trkpt>
      <trkpt lat="46.99794" lon="8.86791">
        <ele>1544</ele>
        <time>2021-08-03T11:39:35.261Z</time>
      </trkpt>
      <trkpt lat="46.99794" lon="8.86792">
        <ele>1544</ele>
        <time>2021-08-03T11:39:36.262Z</time>
      </trkpt>
      <trkpt lat="46.99794" lon="8.86794">
        <ele>1545</ele>
        <time>2021-08-03T11:39:37.261Z</time>
      </trkpt>
      <trkpt lat="46.99795" lon="8.86795">
        <ele>1545</ele>
        <time>2021-08-03T11:39:38.261Z</time>
      </trkpt>
      <trkpt lat="46.99795" lon="8.86796">
        <ele>1544</ele>
        <time>2021-08-03T11:39:39.261Z</time>
      </trkpt>
      <trkpt lat="46.99796" lon="8.86795">
        <ele>1544</ele>
        <time>2021-08-03T11:39:40.262Z</time>
      </trkpt>
      <trkpt lat="46.99797" lon="8.86796">
        <ele>1544</ele>
        <time>2021-08-03T11:39:44.380Z</time>
      </trkpt>
      <trkpt lat="46.99797" lon="8.86798">
        <ele>1544</ele>
        <time>2021-08-03T11:39:45.380Z</time>
      </trkpt>
      <trkpt lat="46.99798" lon="8.868">
        <ele>1544</ele>
        <time>2021-08-03T11:39:46.379Z</time>
      </trkpt>
      <trkpt lat="46.99799" lon="8.86802">
        <ele>1544</ele>
        <time>2021-08-03T11:39:47.379Z</time>
      </trkpt>
      <trkpt lat="46.998" lon="8.86803">
        <ele>1544</ele>
        <time>2021-08-03T11:39:48.380Z</time>
      </trkpt>
      <trkpt lat="46.998" lon="8.86804">
        <ele>1544</ele>
        <time>2021-08-03T11:39:49.379Z</time>
      </trkpt>
      <trkpt lat="46.99801" lon="8.86805">
        <ele>1544</ele>
        <time>2021-08-03T11:39:50.380Z</time>
      </trkpt>
      <trkpt lat="46.99802" lon="8.86805">
        <ele>1544</ele>
        <time>2021-08-03T11:39:51.380Z</time>
      </trkpt>
      <trkpt lat="46.99803" lon="8.86807">
        <ele>1544</ele>
        <time>2021-08-03T11:39:52.380Z</time>
      </trkpt>
      <trkpt lat="46.99803" lon="8.86808">
        <ele>1544</ele>
        <time>2021-08-03T11:39:56.482Z</time>
      </trkpt>
      <trkpt lat="46.99803" lon="8.8681">
        <ele>1543</ele>
        <time>2021-08-03T11:39:57.482Z</time>
      </trkpt>
      <trkpt lat="46.99803" lon="8.86811">
        <ele>1543</ele>
        <time>2021-08-03T11:39:58.481Z</time>
      </trkpt>
      <trkpt lat="46.99804" lon="8.86813">
        <ele>1542</ele>
        <time>2021-08-03T11:39:59.482Z</time>
      </trkpt>
      <trkpt lat="46.99805" lon="8.86814">
        <ele>1542</ele>
        <time>2021-08-03T11:40:00.481Z</time>
      </trkpt>
      <trkpt lat="46.99805" lon="8.86816">
        <ele>1541</ele>
        <time>2021-08-03T11:40:01.482Z</time>
      </trkpt>
      <trkpt lat="46.99806" lon="8.86817">
        <ele>1541</ele>
        <time>2021-08-03T11:40:02.482Z</time>
      </trkpt>
      <trkpt lat="46.99807" lon="8.86818">
        <ele>1540</ele>
        <time>2021-08-03T11:40:03.482Z</time>
      </trkpt>
      <trkpt lat="46.99808" lon="8.86819">
        <ele>1540</ele>
        <time>2021-08-03T11:40:04.481Z</time>
      </trkpt>
      <trkpt lat="46.99808" lon="8.8682">
        <ele>1539</ele>
        <time>2021-08-03T11:40:05.482Z</time>
      </trkpt>
      <trkpt lat="46.99809" lon="8.86821">
        <ele>1538</ele>
        <time>2021-08-03T11:40:06.482Z</time>
      </trkpt>
      <trkpt lat="46.9981" lon="8.86822">
        <ele>1538</ele>
        <time>2021-08-03T11:40:07.481Z</time>
      </trkpt>
      <trkpt lat="46.99811" lon="8.86824">
        <ele>1538</ele>
        <time>2021-08-03T11:40:11.472Z</time>
      </trkpt>
      <trkpt lat="46.99811" lon="8.86825">
        <ele>1538</ele>
        <time>2021-08-03T11:40:12.472Z</time>
      </trkpt>
      <trkpt lat="46.99812" lon="8.86827">
        <ele>1538</ele>
        <time>2021-08-03T11:40:13.471Z</time>
      </trkpt>
      <trkpt lat="46.99813" lon="8.86828">
        <ele>1538</ele>
        <time>2021-08-03T11:40:14.472Z</time>
      </trkpt>
      <trkpt lat="46.99814" lon="8.86829">
        <ele>1538</ele>
        <time>2021-08-03T11:40:15.471Z</time>
      </trkpt>
      <trkpt lat="46.99815" lon="8.8683">
        <ele>1538</ele>
        <time>2021-08-03T11:40:16.472Z</time>
      </trkpt>
      <trkpt lat="46.99816" lon="8.86831">
        <ele>1538</ele>
        <time>2021-08-03T11:40:17.472Z</time>
      </trkpt>
      <trkpt lat="46.99817" lon="8.86833">
        <ele>1539</ele>
        <time>2021-08-03T11:40:25.476Z</time>
      </trkpt>
      <trkpt lat="46.99818" lon="8.86834">
        <ele>1539</ele>
        <time>2021-08-03T11:40:26.476Z</time>
      </trkpt>
      <trkpt lat="46.99819" lon="8.86835">
        <ele>1538</ele>
        <time>2021-08-03T11:40:42.261Z</time>
      </trkpt>
      <trkpt lat="46.9982" lon="8.86836">
        <ele>1538</ele>
        <time>2021-08-03T11:40:43.261Z</time>
      </trkpt>
      <trkpt lat="46.99821" lon="8.86837">
        <ele>1538</ele>
        <time>2021-08-03T11:40:55.147Z</time>
      </trkpt>
      <trkpt lat="46.99822" lon="8.86838">
        <ele>1537</ele>
        <time>2021-08-03T11:40:58.007Z</time>
      </trkpt>
      <trkpt lat="46.99823" lon="8.86839">
        <ele>1538</ele>
        <time>2021-08-03T11:40:59.007Z</time>
      </trkpt>
      <trkpt lat="46.99824" lon="8.8684">
        <ele>1538</ele>
        <time>2021-08-03T11:41:00.007Z</time>
      </trkpt>
      <trkpt lat="46.99825" lon="8.86841">
        <ele>1538</ele>
        <time>2021-08-03T11:41:07.101Z</time>
      </trkpt>
      <trkpt lat="46.99826" lon="8.86841">
        <ele>1538</ele>
        <time>2021-08-03T11:41:08.101Z</time>
      </trkpt>
      <trkpt lat="46.99827" lon="8.86842">
        <ele>1538</ele>
        <time>2021-08-03T11:41:09.101Z</time>
      </trkpt>
      <trkpt lat="46.99827" lon="8.86844">
        <ele>1538</ele>
        <time>2021-08-03T11:41:19.150Z</time>
      </trkpt>
      <trkpt lat="46.99827" lon="8.86845">
        <ele>1538</ele>
        <time>2021-08-03T11:41:20.151Z</time>
      </trkpt>
      <trkpt lat="46.99828" lon="8.86845">
        <ele>1538</ele>
        <time>2021-08-03T11:41:21.151Z</time>
      </trkpt>
      <trkpt lat="46.99828" lon="8.86846">
        <ele>1538</ele>
        <time>2021-08-03T11:41:22.151Z</time>
      </trkpt>
      <trkpt lat="46.99828" lon="8.86847">
        <ele>1537</ele>
        <time>2021-08-03T11:41:29.136Z</time>
      </trkpt>
      <trkpt lat="46.99828" lon="8.86848">
        <ele>1537</ele>
        <time>2021-08-03T11:41:30.136Z</time>
      </trkpt>
      <trkpt lat="46.99827" lon="8.86848">
        <ele>1537</ele>
        <time>2021-08-03T11:41:40.994Z</time>
      </trkpt>
      <trkpt lat="46.99827" lon="8.86849">
        <ele>1537</ele>
        <time>2021-08-03T11:41:47.883Z</time>
      </trkpt>
      <trkpt lat="46.99826" lon="8.86849">
        <ele>1538</ele>
        <time>2021-08-03T11:41:48.883Z</time>
      </trkpt>
      <trkpt lat="46.99826" lon="8.86849">
        <ele>1538</ele>
        <time>2021-08-03T11:41:49.883Z</time>
      </trkpt>
      <trkpt lat="46.99826" lon="8.8685">
        <ele>1539</ele>
        <time>2021-08-03T11:41:50.882Z</time>
      </trkpt>
      <trkpt lat="46.99825" lon="8.86853">
        <ele>1539</ele>
        <time>2021-08-03T11:41:51.882Z</time>
      </trkpt>
      <trkpt lat="46.99824" lon="8.86854">
        <ele>1539</ele>
        <time>2021-08-03T11:42:10.883Z</time>
      </trkpt>
      <trkpt lat="46.99824" lon="8.86855">
        <ele>1539</ele>
        <time>2021-08-03T11:42:11.883Z</time>
      </trkpt>
      <trkpt lat="46.99823" lon="8.86855">
        <ele>1539</ele>
        <time>2021-08-03T11:42:25.727Z</time>
      </trkpt>
      <trkpt lat="46.99823" lon="8.86854">
        <ele>1539</ele>
        <time>2021-08-03T11:42:26.727Z</time>
      </trkpt>
      <trkpt lat="46.99823" lon="8.86852">
        <ele>1543</ele>
        <time>2021-08-03T11:42:27.726Z</time>
      </trkpt>
      <trkpt lat="46.99823" lon="8.86852">
        <ele>1543</ele>
        <time>2021-08-03T11:42:28.727Z</time>
      </trkpt>
      <trkpt lat="46.99827" lon="8.86849">
        <ele>1545</ele>
        <time>2021-08-03T11:42:45.759Z</time>
      </trkpt>
      <trkpt lat="46.99827" lon="8.86849">
        <ele>1545</ele>
        <time>2021-08-03T11:42:46.759Z</time>
      </trkpt>
      <trkpt lat="46.99827" lon="8.86849">
        <ele>1544</ele>
        <time>2021-08-03T11:42:47.759Z</time>
      </trkpt>
      <trkpt lat="46.99828" lon="8.86847">
        <ele>1546</ele>
        <time>2021-08-03T11:42:48.761Z</time>
      </trkpt>
      <trkpt lat="46.99828" lon="8.86848">
        <ele>1546</ele>
        <time>2021-08-03T11:43:09.806Z</time>
      </trkpt>
      <trkpt lat="46.99828" lon="8.86848">
        <ele>1546</ele>
        <time>2021-08-03T11:43:10.806Z</time>
      </trkpt>
      <trkpt lat="46.99828" lon="8.86847">
        <ele>1546</ele>
        <time>2021-08-03T11:43:11.806Z</time>
      </trkpt>
      <trkpt lat="46.99827" lon="8.86844">
        <ele>1547</ele>
        <time>2021-08-03T11:43:20.847Z</time>
      </trkpt>
      <trkpt lat="46.99827" lon="8.86844">
        <ele>1547</ele>
        <time>2021-08-03T11:43:21.847Z</time>
      </trkpt>
      <trkpt lat="46.99828" lon="8.86844">
        <ele>1546</ele>
        <time>2021-08-03T11:43:22.847Z</time>
      </trkpt>
      <trkpt lat="46.99828" lon="8.86844">
        <ele>1546</ele>
        <time>2021-08-03T11:43:23.847Z</time>
      </trkpt>
      <trkpt lat="46.99828" lon="8.86844">
        <ele>1546</ele>
        <time>2021-08-03T11:43:28.891Z</time>
      </trkpt>
      <trkpt lat="46.99827" lon="8.86845">
        <ele>1546</ele>
        <time>2021-08-03T11:43:29.890Z</time>
      </trkpt>
      <trkpt lat="46.99828" lon="8.86848">
        <ele>1546</ele>
        <time>2021-08-03T11:43:30.890Z</time>
      </trkpt>
      <trkpt lat="46.99828" lon="8.86848">
        <ele>1547</ele>
        <time>2021-08-03T11:43:31.891Z</time>
      </trkpt>
      <trkpt lat="46.99828" lon="8.86848">
        <ele>1547</ele>
        <time>2021-08-03T11:43:32.890Z</time>
      </trkpt>
      <trkpt lat="46.99828" lon="8.86848">
        <ele>1548</ele>
        <time>2021-08-03T11:43:35.847Z</time>
      </trkpt>
      <trkpt lat="46.99824" lon="8.86845">
        <ele>1552</ele>
        <time>2021-08-03T11:43:36.848Z</time>
      </trkpt>
      <trkpt lat="46.99824" lon="8.86844">
        <ele>1552</ele>
        <time>2021-08-03T11:43:37.848Z</time>
      </trkpt>
      <trkpt lat="46.99824" lon="8.86842">
        <ele>1554</ele>
        <time>2021-08-03T11:43:38.847Z</time>
      </trkpt>
      <trkpt lat="46.99824" lon="8.86841">
        <ele>1555</ele>
        <time>2021-08-03T11:43:39.848Z</time>
      </trkpt>
      <trkpt lat="46.99824" lon="8.86841">
        <ele>1554</ele>
        <time>2021-08-03T11:43:40.847Z</time>
      </trkpt>
      <trkpt lat="46.99824" lon="8.8684">
        <ele>1555</ele>
        <time>2021-08-03T11:43:41.848Z</time>
      </trkpt>
      <trkpt lat="46.99824" lon="8.8684">
        <ele>1555</ele>
        <time>2021-08-03T11:43:42.847Z</time>
      </trkpt>
      <trkpt lat="46.99824" lon="8.8684">
        <ele>1555</ele>
        <time>2021-08-03T11:43:43.847Z</time>
      </trkpt>
      <trkpt lat="46.99824" lon="8.86841">
        <ele>1555</ele>
        <time>2021-08-03T11:43:44.847Z</time>
      </trkpt>
      <trkpt lat="46.99827" lon="8.86845">
        <ele>1550</ele>
        <time>2021-08-03T11:43:46.988Z</time>
      </trkpt>
      <trkpt lat="46.99827" lon="8.86845">
        <ele>1551</ele>
        <time>2021-08-03T11:43:47.987Z</time>
      </trkpt>
      <trkpt lat="46.99826" lon="8.86845">
        <ele>1551</ele>
        <time>2021-08-03T11:43:48.987Z</time>
      </trkpt>
      <trkpt lat="46.99825" lon="8.86845">
        <ele>1551</ele>
        <time>2021-08-03T11:43:49.987Z</time>
      </trkpt>
      <trkpt lat="46.99825" lon="8.86845">
        <ele>1551</ele>
        <time>2021-08-03T11:43:50.987Z</time>
      </trkpt>
      <trkpt lat="46.99824" lon="8.86845">
        <ele>1551</ele>
        <time>2021-08-03T11:44:01.137Z</time>
      </trkpt>
      <trkpt lat="46.99824" lon="8.86846">
        <ele>1550</ele>
        <time>2021-08-03T11:44:02.137Z</time>
      </trkpt>
      <trkpt lat="46.99824" lon="8.86847">
        <ele>1549</ele>
        <time>2021-08-03T11:44:03.136Z</time>
      </trkpt>
      <trkpt lat="46.99824" lon="8.86847">
        <ele>1548</ele>
        <time>2021-08-03T11:44:12.232Z</time>
      </trkpt>
      <trkpt lat="46.99824" lon="8.86848">
        <ele>1548</ele>
        <time>2021-08-03T11:44:13.233Z</time>
      </trkpt>
      <trkpt lat="46.99824" lon="8.86848">
        <ele>1547</ele>
        <time>2021-08-03T11:44:25.109Z</time>
      </trkpt>
      <trkpt lat="46.99824" lon="8.86848">
        <ele>1547</ele>
        <time>2021-08-03T11:44:26.108Z</time>
      </trkpt>
      <trkpt lat="46.99825" lon="8.8685">
        <ele>1544</ele>
        <time>2021-08-03T11:44:27.110Z</time>
      </trkpt>
      <trkpt lat="46.99825" lon="8.8685">
        <ele>1543</ele>
        <time>2021-08-03T11:44:43.135Z</time>
      </trkpt>
      <trkpt lat="46.99826" lon="8.86845">
        <ele>1542</ele>
        <time>2021-08-03T11:44:44.134Z</time>
      </trkpt>
      <trkpt lat="46.99826" lon="8.86844">
        <ele>1542</ele>
        <time>2021-08-03T11:44:45.135Z</time>
      </trkpt>
      <trkpt lat="46.99826" lon="8.86844">
        <ele>1542</ele>
        <time>2021-08-03T11:45:08.110Z</time>
      </trkpt>
      <trkpt lat="46.99826" lon="8.86844">
        <ele>1542</ele>
        <time>2021-08-03T11:45:09.111Z</time>
      </trkpt>
      <trkpt lat="46.99827" lon="8.86843">
        <ele>1542</ele>
        <time>2021-08-03T11:45:34.880Z</time>
      </trkpt>
      <trkpt lat="46.99827" lon="8.86842">
        <ele>1542</ele>
        <time>2021-08-03T11:45:35.880Z</time>
      </trkpt>
      <trkpt lat="46.99827" lon="8.86842">
        <ele>1542</ele>
        <time>2021-08-03T11:45:36.880Z</time>
      </trkpt>
      <trkpt lat="46.99827" lon="8.86841">
        <ele>1541</ele>
        <time>2021-08-03T11:45:37.879Z</time>
      </trkpt>
      <trkpt lat="46.99827" lon="8.86842">
        <ele>1541</ele>
        <time>2021-08-03T11:45:38.880Z</time>
      </trkpt>
      <trkpt lat="46.99826" lon="8.86842">
        <ele>1541</ele>
        <time>2021-08-03T11:45:55.002Z</time>
      </trkpt>
      <trkpt lat="46.99825" lon="8.86844">
        <ele>1541</ele>
        <time>2021-08-03T11:46:27.839Z</time>
      </trkpt>
      <trkpt lat="46.99824" lon="8.86845">
        <ele>1542</ele>
        <time>2021-08-03T11:46:28.840Z</time>
      </trkpt>
      <trkpt lat="46.99824" lon="8.86845">
        <ele>1542</ele>
        <time>2021-08-03T11:46:29.840Z</time>
      </trkpt>
      <trkpt lat="46.99824" lon="8.86844">
        <ele>1543</ele>
        <time>2021-08-03T11:46:30.840Z</time>
      </trkpt>
      <trkpt lat="46.99823" lon="8.86845">
        <ele>1543</ele>
        <time>2021-08-03T11:46:31.839Z</time>
      </trkpt>
      <trkpt lat="46.99823" lon="8.86846">
        <ele>1543</ele>
        <time>2021-08-03T11:46:32.839Z</time>
      </trkpt>
      <trkpt lat="46.99822" lon="8.86847">
        <ele>1544</ele>
        <time>2021-08-03T11:46:33.840Z</time>
      </trkpt>
      <trkpt lat="46.99822" lon="8.86847">
        <ele>1545</ele>
        <time>2021-08-03T11:46:34.840Z</time>
      </trkpt>
      <trkpt lat="46.99822" lon="8.86847">
        <ele>1545</ele>
        <time>2021-08-03T11:46:35.840Z</time>
      </trkpt>
      <trkpt lat="46.99821" lon="8.86848">
        <ele>1546</ele>
        <time>2021-08-03T11:46:36.839Z</time>
      </trkpt>
      <trkpt lat="46.99822" lon="8.86848">
        <ele>1549</ele>
        <time>2021-08-03T11:46:37.839Z</time>
      </trkpt>
      <trkpt lat="46.99822" lon="8.86849">
        <ele>1550</ele>
        <time>2021-08-03T11:46:38.839Z</time>
      </trkpt>
      <trkpt lat="46.9982" lon="8.8685">
        <ele>1551</ele>
        <time>2021-08-03T11:46:39.840Z</time>
      </trkpt>
      <trkpt lat="46.9982" lon="8.86851">
        <ele>1552</ele>
        <time>2021-08-03T11:46:40.839Z</time>
      </trkpt>
      <trkpt lat="46.99819" lon="8.86851">
        <ele>1552</ele>
        <time>2021-08-03T11:46:41.839Z</time>
      </trkpt>
      <trkpt lat="46.99819" lon="8.86852">
        <ele>1553</ele>
        <time>2021-08-03T11:46:42.840Z</time>
      </trkpt>
      <trkpt lat="46.99819" lon="8.86852">
        <ele>1553</ele>
        <time>2021-08-03T11:46:43.839Z</time>
      </trkpt>
      <trkpt lat="46.99819" lon="8.86852">
        <ele>1552</ele>
        <time>2021-08-03T11:46:44.840Z</time>
      </trkpt>
      <trkpt lat="46.9982" lon="8.86851">
        <ele>1552</ele>
        <time>2021-08-03T11:46:45.840Z</time>
      </trkpt>
      <trkpt lat="46.9982" lon="8.8685">
        <ele>1552</ele>
        <time>2021-08-03T11:46:46.840Z</time>
      </trkpt>
      <trkpt lat="46.9982" lon="8.8685">
        <ele>1552</ele>
        <time>2021-08-03T11:46:47.839Z</time>
      </trkpt>
      <trkpt lat="46.99821" lon="8.86849">
        <ele>1552</ele>
        <time>2021-08-03T11:46:48.840Z</time>
      </trkpt>
      <trkpt lat="46.99822" lon="8.8685">
        <ele>1552</ele>
        <time>2021-08-03T11:46:49.840Z</time>
      </trkpt>
      <trkpt lat="46.99823" lon="8.8685">
        <ele>1552</ele>
        <time>2021-08-03T11:46:50.839Z</time>
      </trkpt>
      <trkpt lat="46.99823" lon="8.86851">
        <ele>1552</ele>
        <time>2021-08-03T11:46:51.840Z</time>
      </trkpt>
      <trkpt lat="46.99823" lon="8.86851">
        <ele>1552</ele>
        <time>2021-08-03T11:46:52.840Z</time>
      </trkpt>
      <trkpt lat="46.99823" lon="8.8685">
        <ele>1553</ele>
        <time>2021-08-03T11:46:53.840Z</time>
      </trkpt>
      <trkpt lat="46.99824" lon="8.86849">
        <ele>1553</ele>
        <time>2021-08-03T11:46:54.840Z</time>
      </trkpt>
      <trkpt lat="46.99824" lon="8.86848">
        <ele>1554</ele>
        <time>2021-08-03T11:46:55.839Z</time>
      </trkpt>
      <trkpt lat="46.99825" lon="8.86847">
        <ele>1554</ele>
        <time>2021-08-03T11:46:56.839Z</time>
      </trkpt>
      <trkpt lat="46.99823" lon="8.86848">
        <ele>1555</ele>
        <time>2021-08-03T11:46:57.841Z</time>
      </trkpt>
      <trkpt lat="46.99822" lon="8.86849">
        <ele>1555</ele>
        <time>2021-08-03T11:46:58.841Z</time>
      </trkpt>
      <trkpt lat="46.99821" lon="8.8685">
        <ele>1555</ele>
        <time>2021-08-03T11:46:59.841Z</time>
      </trkpt>
      <trkpt lat="46.99822" lon="8.8685">
        <ele>1555</ele>
        <time>2021-08-03T11:47:00.841Z</time>
      </trkpt>
      <trkpt lat="46.99821" lon="8.8685">
        <ele>1556</ele>
        <time>2021-08-03T11:47:01.841Z</time>
      </trkpt>
      <trkpt lat="46.9982" lon="8.8685">
        <ele>1556</ele>
        <time>2021-08-03T11:47:02.842Z</time>
      </trkpt>
      <trkpt lat="46.9982" lon="8.86851">
        <ele>1558</ele>
        <time>2021-08-03T11:47:03.842Z</time>
      </trkpt>
      <trkpt lat="46.99821" lon="8.86851">
        <ele>1559</ele>
        <time>2021-08-03T11:47:04.842Z</time>
      </trkpt>
      <trkpt lat="46.99822" lon="8.8685">
        <ele>1559</ele>
        <time>2021-08-03T11:47:05.842Z</time>
      </trkpt>
      <trkpt lat="46.99822" lon="8.8685">
        <ele>1559</ele>
        <time>2021-08-03T11:47:06.842Z</time>
      </trkpt>
      <trkpt lat="46.99822" lon="8.86849">
        <ele>1560</ele>
        <time>2021-08-03T11:47:07.842Z</time>
      </trkpt>
      <trkpt lat="46.99822" lon="8.86849">
        <ele>1560</ele>
        <time>2021-08-03T11:47:08.842Z</time>
      </trkpt>
      <trkpt lat="46.99822" lon="8.8685">
        <ele>1561</ele>
        <time>2021-08-03T11:47:09.842Z</time>
      </trkpt>
      <trkpt lat="46.99821" lon="8.86851">
        <ele>1561</ele>
        <time>2021-08-03T11:47:10.841Z</time>
      </trkpt>
      <trkpt lat="46.99821" lon="8.86852">
        <ele>1561</ele>
        <time>2021-08-03T11:47:11.842Z</time>
      </trkpt>
      <trkpt lat="46.99821" lon="8.86853">
        <ele>1561</ele>
        <time>2021-08-03T11:47:12.842Z</time>
      </trkpt>
      <trkpt lat="46.9982" lon="8.86855">
        <ele>1561</ele>
        <time>2021-08-03T11:47:13.841Z</time>
      </trkpt>
      <trkpt lat="46.99819" lon="8.86856">
        <ele>1561</ele>
        <time>2021-08-03T11:47:14.842Z</time>
      </trkpt>
      <trkpt lat="46.99819" lon="8.86856">
        <ele>1561</ele>
        <time>2021-08-03T11:47:15.841Z</time>
      </trkpt>
      <trkpt lat="46.99819" lon="8.86856">
        <ele>1561</ele>
        <time>2021-08-03T11:47:16.842Z</time>
      </trkpt>
      <trkpt lat="46.99821" lon="8.86853">
        <ele>1560</ele>
        <time>2021-08-03T11:47:17.842Z</time>
      </trkpt>
      <trkpt lat="46.99822" lon="8.86853">
        <ele>1560</ele>
        <time>2021-08-03T11:47:18.841Z</time>
      </trkpt>
      <trkpt lat="46.99822" lon="8.86853">
        <ele>1560</ele>
        <time>2021-08-03T11:47:19.842Z</time>
      </trkpt>
      <trkpt lat="46.99822" lon="8.86852">
        <ele>1560</ele>
        <time>2021-08-03T11:47:20.841Z</time>
      </trkpt>
      <trkpt lat="46.99822" lon="8.86852">
        <ele>1559</ele>
        <time>2021-08-03T11:47:21.842Z</time>
      </trkpt>
      <trkpt lat="46.99822" lon="8.86852">
        <ele>1559</ele>
        <time>2021-08-03T11:47:22.842Z</time>
      </trkpt>
      <trkpt lat="46.99824" lon="8.8685">
        <ele>1556</ele>
        <time>2021-08-03T11:47:23.843Z</time>
      </trkpt>
      <trkpt lat="46.99826" lon="8.86848">
        <ele>1556</ele>
        <time>2021-08-03T11:47:24.843Z</time>
      </trkpt>
      <trkpt lat="46.99827" lon="8.86847">
        <ele>1556</ele>
        <time>2021-08-03T11:47:25.842Z</time>
      </trkpt>
      <trkpt lat="46.99827" lon="8.86847">
        <ele>1555</ele>
        <time>2021-08-03T11:47:26.843Z</time>
      </trkpt>
      <trkpt lat="46.99826" lon="8.86848">
        <ele>1555</ele>
        <time>2021-08-03T11:47:27.843Z</time>
      </trkpt>
      <trkpt lat="46.99826" lon="8.86847">
        <ele>1556</ele>
        <time>2021-08-03T11:47:28.842Z</time>
      </trkpt>
      <trkpt lat="46.99825" lon="8.86848">
        <ele>1556</ele>
        <time>2021-08-03T11:47:29.843Z</time>
      </trkpt>
      <trkpt lat="46.99825" lon="8.86848">
        <ele>1556</ele>
        <time>2021-08-03T11:47:30.843Z</time>
      </trkpt>
      <trkpt lat="46.99824" lon="8.86848">
        <ele>1557</ele>
        <time>2021-08-03T11:47:31.843Z</time>
      </trkpt>
      <trkpt lat="46.99823" lon="8.86848">
        <ele>1557</ele>
        <time>2021-08-03T11:47:32.842Z</time>
      </trkpt>
      <trkpt lat="46.99823" lon="8.86848">
        <ele>1557</ele>
        <time>2021-08-03T11:47:33.843Z</time>
      </trkpt>
      <trkpt lat="46.99823" lon="8.86848">
        <ele>1557</ele>
        <time>2021-08-03T11:47:34.843Z</time>
      </trkpt>
      <trkpt lat="46.99823" lon="8.86848">
        <ele>1557</ele>
        <time>2021-08-03T11:47:35.842Z</time>
      </trkpt>
      <trkpt lat="46.99824" lon="8.86848">
        <ele>1557</ele>
        <time>2021-08-03T11:47:41.881Z</time>
      </trkpt>
      <trkpt lat="46.99825" lon="8.86848">
        <ele>1557</ele>
        <time>2021-08-03T11:47:42.882Z</time>
      </trkpt>
      <trkpt lat="46.99826" lon="8.86847">
        <ele>1557</ele>
        <time>2021-08-03T11:47:46.758Z</time>
      </trkpt>
      <trkpt lat="46.99826" lon="8.86845">
        <ele>1556</ele>
        <time>2021-08-03T11:47:47.758Z</time>
      </trkpt>
      <trkpt lat="46.99827" lon="8.86844">
        <ele>1556</ele>
        <time>2021-08-03T11:47:48.757Z</time>
      </trkpt>
      <trkpt lat="46.99827" lon="8.86844">
        <ele>1555</ele>
        <time>2021-08-03T11:47:49.757Z</time>
      </trkpt>
      <trkpt lat="46.99827" lon="8.86843">
        <ele>1555</ele>
        <time>2021-08-03T11:47:50.757Z</time>
      </trkpt>
      <trkpt lat="46.99827" lon="8.86843">
        <ele>1555</ele>
        <time>2021-08-03T11:47:51.758Z</time>
      </trkpt>
      <trkpt lat="46.99828" lon="8.86843">
        <ele>1555</ele>
        <time>2021-08-03T11:47:52.758Z</time>
      </trkpt>
      <trkpt lat="46.99828" lon="8.86844">
        <ele>1554</ele>
        <time>2021-08-03T11:47:53.758Z</time>
      </trkpt>
      <trkpt lat="46.99826" lon="8.86845">
        <ele>1550</ele>
        <time>2021-08-03T11:47:54.759Z</time>
      </trkpt>
      <trkpt lat="46.99826" lon="8.86845">
        <ele>1549</ele>
        <time>2021-08-03T11:47:55.758Z</time>
      </trkpt>
      <trkpt lat="46.99825" lon="8.86845">
        <ele>1549</ele>
        <time>2021-08-03T11:47:56.758Z</time>
      </trkpt>
      <trkpt lat="46.99825" lon="8.86845">
        <ele>1548</ele>
        <time>2021-08-03T11:47:57.758Z</time>
      </trkpt>
      <trkpt lat="46.99825" lon="8.86845">
        <ele>1547</ele>
        <time>2021-08-03T11:47:58.759Z</time>
      </trkpt>
      <trkpt lat="46.99824" lon="8.86844">
        <ele>1547</ele>
        <time>2021-08-03T11:47:59.758Z</time>
      </trkpt>
      <trkpt lat="46.99823" lon="8.86845">
        <ele>1546</ele>
        <time>2021-08-03T11:48:00.758Z</time>
      </trkpt>
      <trkpt lat="46.99823" lon="8.86844">
        <ele>1546</ele>
        <time>2021-08-03T11:48:01.759Z</time>
      </trkpt>
      <trkpt lat="46.99823" lon="8.86844">
        <ele>1546</ele>
        <time>2021-08-03T11:48:02.758Z</time>
      </trkpt>
      <trkpt lat="46.99824" lon="8.86844">
        <ele>1546</ele>
        <time>2021-08-03T11:48:03.758Z</time>
      </trkpt>
      <trkpt lat="46.99825" lon="8.86845">
        <ele>1546</ele>
        <time>2021-08-03T11:48:04.758Z</time>
      </trkpt>
      <trkpt lat="46.99825" lon="8.86845">
        <ele>1547</ele>
        <time>2021-08-03T11:48:05.758Z</time>
      </trkpt>
      <trkpt lat="46.99825" lon="8.86845">
        <ele>1547</ele>
        <time>2021-08-03T11:48:06.759Z</time>
      </trkpt>
      <trkpt lat="46.99825" lon="8.86846">
        <ele>1547</ele>
        <time>2021-08-03T11:48:07.758Z</time>
      </trkpt>
      <trkpt lat="46.99825" lon="8.86846">
        <ele>1547</ele>
        <time>2021-08-03T11:48:08.758Z</time>
      </trkpt>
      <trkpt lat="46.99824" lon="8.86849">
        <ele>1546</ele>
        <time>2021-08-03T11:48:09.759Z</time>
      </trkpt>
      <trkpt lat="46.99824" lon="8.8685">
        <ele>1546</ele>
        <time>2021-08-03T11:48:10.758Z</time>
      </trkpt>
      <trkpt lat="46.99823" lon="8.8685">
        <ele>1547</ele>
        <time>2021-08-03T11:48:11.759Z</time>
      </trkpt>
      <trkpt lat="46.99823" lon="8.8685">
        <ele>1547</ele>
        <time>2021-08-03T11:48:12.758Z</time>
      </trkpt>
      <trkpt lat="46.99823" lon="8.8685">
        <ele>1547</ele>
        <time>2021-08-03T11:48:13.759Z</time>
      </trkpt>
      <trkpt lat="46.99824" lon="8.86848">
        <ele>1547</ele>
        <time>2021-08-03T11:48:14.759Z</time>
      </trkpt>
      <trkpt lat="46.99825" lon="8.86847">
        <ele>1548</ele>
        <time>2021-08-03T11:48:15.759Z</time>
      </trkpt>
      <trkpt lat="46.99826" lon="8.86847">
        <ele>1548</ele>
        <time>2021-08-03T11:48:16.759Z</time>
      </trkpt>
      <trkpt lat="46.99826" lon="8.86845">
        <ele>1550</ele>
        <time>2021-08-03T11:48:17.761Z</time>
      </trkpt>
      <trkpt lat="46.99826" lon="8.86846">
        <ele>1550</ele>
        <time>2021-08-03T11:48:18.760Z</time>
      </trkpt>
      <trkpt lat="46.99826" lon="8.86846">
        <ele>1550</ele>
        <time>2021-08-03T11:48:19.760Z</time>
      </trkpt>
      <trkpt lat="46.99827" lon="8.86846">
        <ele>1552</ele>
        <time>2021-08-03T11:48:20.761Z</time>
      </trkpt>
      <trkpt lat="46.99827" lon="8.86847">
        <ele>1551</ele>
        <time>2021-08-03T11:48:21.761Z</time>
      </trkpt>
      <trkpt lat="46.99828" lon="8.86847">
        <ele>1551</ele>
        <time>2021-08-03T11:48:22.760Z</time>
      </trkpt>
      <trkpt lat="46.99828" lon="8.86846">
        <ele>1550</ele>
        <time>2021-08-03T11:48:23.760Z</time>
      </trkpt>
      <trkpt lat="46.99829" lon="8.86845">
        <ele>1550</ele>
        <time>2021-08-03T11:48:24.761Z</time>
      </trkpt>
      <trkpt lat="46.99829" lon="8.86845">
        <ele>1549</ele>
        <time>2021-08-03T11:48:25.761Z</time>
      </trkpt>
      <trkpt lat="46.99829" lon="8.86844">
        <ele>1548</ele>
        <time>2021-08-03T11:48:26.761Z</time>
      </trkpt>
      <trkpt lat="46.99828" lon="8.86844">
        <ele>1550</ele>
        <time>2021-08-03T11:48:27.761Z</time>
      </trkpt>
      <trkpt lat="46.99828" lon="8.86844">
        <ele>1550</ele>
        <time>2021-08-03T11:48:28.762Z</time>
      </trkpt>
      <trkpt lat="46.99827" lon="8.86846">
        <ele>1546</ele>
        <time>2021-08-03T11:48:29.762Z</time>
      </trkpt>
      <trkpt lat="46.99827" lon="8.86847">
        <ele>1546</ele>
        <time>2021-08-03T11:48:30.762Z</time>
      </trkpt>
      <trkpt lat="46.99827" lon="8.86847">
        <ele>1544</ele>
        <time>2021-08-03T11:48:31.762Z</time>
      </trkpt>
      <trkpt lat="46.99827" lon="8.86847">
        <ele>1544</ele>
        <time>2021-08-03T11:48:32.762Z</time>
      </trkpt>
      <trkpt lat="46.99827" lon="8.86847">
        <ele>1545</ele>
        <time>2021-08-03T11:48:33.762Z</time>
      </trkpt>
      <trkpt lat="46.99826" lon="8.86848">
        <ele>1546</ele>
        <time>2021-08-03T11:48:34.762Z</time>
      </trkpt>
      <trkpt lat="46.99826" lon="8.86848">
        <ele>1546</ele>
        <time>2021-08-03T11:48:35.761Z</time>
      </trkpt>
      <trkpt lat="46.99826" lon="8.86849">
        <ele>1546</ele>
        <time>2021-08-03T11:48:36.761Z</time>
      </trkpt>
      <trkpt lat="46.99827" lon="8.86849">
        <ele>1547</ele>
        <time>2021-08-03T11:48:37.762Z</time>
      </trkpt>
      <trkpt lat="46.99827" lon="8.86848">
        <ele>1547</ele>
        <time>2021-08-03T11:48:38.761Z</time>
      </trkpt>
      <trkpt lat="46.99827" lon="8.86848">
        <ele>1547</ele>
        <time>2021-08-03T11:48:39.761Z</time>
      </trkpt>
      <trkpt lat="46.99828" lon="8.86848">
        <ele>1546</ele>
        <time>2021-08-03T11:48:40.762Z</time>
      </trkpt>
      <trkpt lat="46.99829" lon="8.86848">
        <ele>1547</ele>
        <time>2021-08-03T11:48:41.763Z</time>
      </trkpt>
      <trkpt lat="46.9983" lon="8.86847">
        <ele>1546</ele>
        <time>2021-08-03T11:48:42.763Z</time>
      </trkpt>
      <trkpt lat="46.9983" lon="8.86847">
        <ele>1546</ele>
        <time>2021-08-03T11:48:43.762Z</time>
      </trkpt>
      <trkpt lat="46.9983" lon="8.86847">
        <ele>1547</ele>
        <time>2021-08-03T11:48:44.762Z</time>
      </trkpt>
      <trkpt lat="46.9983" lon="8.86848">
        <ele>1547</ele>
        <time>2021-08-03T11:48:45.763Z</time>
      </trkpt>
      <trkpt lat="46.9983" lon="8.86848">
        <ele>1548</ele>
        <time>2021-08-03T11:48:46.763Z</time>
      </trkpt>
      <trkpt lat="46.99829" lon="8.86847">
        <ele>1545</ele>
        <time>2021-08-03T11:48:47.764Z</time>
      </trkpt>
      <trkpt lat="46.99829" lon="8.86846">
        <ele>1545</ele>
        <time>2021-08-03T11:48:48.764Z</time>
      </trkpt>
      <trkpt lat="46.99826" lon="8.86846">
        <ele>1547</ele>
        <time>2021-08-03T11:48:50.764Z</time>
      </trkpt>
      <trkpt lat="46.99826" lon="8.86846">
        <ele>1546</ele>
        <time>2021-08-03T11:48:51.764Z</time>
      </trkpt>
      <trkpt lat="46.99826" lon="8.86847">
        <ele>1547</ele>
        <time>2021-08-03T11:48:52.765Z</time>
      </trkpt>
      <trkpt lat="46.99826" lon="8.86847">
        <ele>1547</ele>
        <time>2021-08-03T11:48:53.764Z</time>
      </trkpt>
      <trkpt lat="46.99829" lon="8.8684">
        <ele>1547</ele>
        <time>2021-08-03T11:48:54.765Z</time>
      </trkpt>
      <trkpt lat="46.99829" lon="8.8684">
        <ele>1547</ele>
        <time>2021-08-03T11:48:55.764Z</time>
      </trkpt>
      <trkpt lat="46.99829" lon="8.86842">
        <ele>1547</ele>
        <time>2021-08-03T11:48:56.764Z</time>
      </trkpt>
      <trkpt lat="46.9983" lon="8.86842">
        <ele>1547</ele>
        <time>2021-08-03T11:48:57.765Z</time>
      </trkpt>
      <trkpt lat="46.9983" lon="8.86842">
        <ele>1547</ele>
        <time>2021-08-03T11:48:58.765Z</time>
      </trkpt>
      <trkpt lat="46.9983" lon="8.86842">
        <ele>1547</ele>
        <time>2021-08-03T11:48:59.765Z</time>
      </trkpt>
      <trkpt lat="46.99831" lon="8.86843">
        <ele>1548</ele>
        <time>2021-08-03T11:49:00.765Z</time>
      </trkpt>
      <trkpt lat="46.99831" lon="8.86843">
        <ele>1548</ele>
        <time>2021-08-03T11:49:01.764Z</time>
      </trkpt>
      <trkpt lat="46.99829" lon="8.86845">
        <ele>1548</ele>
        <time>2021-08-03T11:49:02.765Z</time>
      </trkpt>
      <trkpt lat="46.99828" lon="8.86848">
        <ele>1548</ele>
        <time>2021-08-03T11:49:03.765Z</time>
      </trkpt>
      <trkpt lat="46.99828" lon="8.86849">
        <ele>1549</ele>
        <time>2021-08-03T11:49:04.765Z</time>
      </trkpt>
      <trkpt lat="46.99828" lon="8.8685">
        <ele>1549</ele>
        <time>2021-08-03T11:49:05.765Z</time>
      </trkpt>
      <trkpt lat="46.99827" lon="8.86849">
        <ele>1549</ele>
        <time>2021-08-03T11:49:06.765Z</time>
      </trkpt>
      <trkpt lat="46.99827" lon="8.86849">
        <ele>1549</ele>
        <time>2021-08-03T11:49:07.764Z</time>
      </trkpt>
      <trkpt lat="46.99826" lon="8.86849">
        <ele>1549</ele>
        <time>2021-08-03T11:49:08.765Z</time>
      </trkpt>
      <trkpt lat="46.99826" lon="8.86849">
        <ele>1549</ele>
        <time>2021-08-03T11:49:09.765Z</time>
      </trkpt>
      <trkpt lat="46.99826" lon="8.8685">
        <ele>1549</ele>
        <time>2021-08-03T11:49:10.765Z</time>
      </trkpt>
      <trkpt lat="46.99826" lon="8.86849">
        <ele>1549</ele>
        <time>2021-08-03T11:49:11.765Z</time>
      </trkpt>
      <trkpt lat="46.99826" lon="8.86849">
        <ele>1548</ele>
        <time>2021-08-03T11:49:12.764Z</time>
      </trkpt>
      <trkpt lat="46.99827" lon="8.86848">
        <ele>1548</ele>
        <time>2021-08-03T11:49:13.764Z</time>
      </trkpt>
      <trkpt lat="46.99827" lon="8.86847">
        <ele>1548</ele>
        <time>2021-08-03T11:49:14.764Z</time>
      </trkpt>
      <trkpt lat="46.99827" lon="8.86848">
        <ele>1547</ele>
        <time>2021-08-03T11:49:15.764Z</time>
      </trkpt>
      <trkpt lat="46.99828" lon="8.86847">
        <ele>1547</ele>
        <time>2021-08-03T11:49:16.764Z</time>
      </trkpt>
      <trkpt lat="46.99829" lon="8.86846">
        <ele>1547</ele>
        <time>2021-08-03T11:49:17.764Z</time>
      </trkpt>
      <trkpt lat="46.99829" lon="8.86846">
        <ele>1546</ele>
        <time>2021-08-03T11:49:18.765Z</time>
      </trkpt>
      <trkpt lat="46.99829" lon="8.86844">
        <ele>1545</ele>
        <time>2021-08-03T11:49:19.766Z</time>
      </trkpt>
      <trkpt lat="46.99829" lon="8.86844">
        <ele>1545</ele>
        <time>2021-08-03T11:49:20.765Z</time>
      </trkpt>
      <trkpt lat="46.9983" lon="8.86844">
        <ele>1544</ele>
        <time>2021-08-03T11:49:21.766Z</time>
      </trkpt>
      <trkpt lat="46.99831" lon="8.86842">
        <ele>1544</ele>
        <time>2021-08-03T11:49:22.766Z</time>
      </trkpt>
      <trkpt lat="46.99832" lon="8.86841">
        <ele>1544</ele>
        <time>2021-08-03T11:49:23.766Z</time>
      </trkpt>
      <trkpt lat="46.99832" lon="8.86841">
        <ele>1543</ele>
        <time>2021-08-03T11:49:24.766Z</time>
      </trkpt>
      <trkpt lat="46.99833" lon="8.8684">
        <ele>1543</ele>
        <time>2021-08-03T11:49:25.766Z</time>
      </trkpt>
      <trkpt lat="46.99833" lon="8.8684">
        <ele>1543</ele>
        <time>2021-08-03T11:49:26.765Z</time>
      </trkpt>
      <trkpt lat="46.99833" lon="8.86841">
        <ele>1543</ele>
        <time>2021-08-03T11:49:27.765Z</time>
      </trkpt>
      <trkpt lat="46.99833" lon="8.86841">
        <ele>1543</ele>
        <time>2021-08-03T11:49:28.765Z</time>
      </trkpt>
      <trkpt lat="46.99832" lon="8.86842">
        <ele>1543</ele>
        <time>2021-08-03T11:49:29.766Z</time>
      </trkpt>
      <trkpt lat="46.99832" lon="8.86843">
        <ele>1544</ele>
        <time>2021-08-03T11:49:30.766Z</time>
      </trkpt>
      <trkpt lat="46.99831" lon="8.86844">
        <ele>1544</ele>
        <time>2021-08-03T11:49:31.766Z</time>
      </trkpt>
      <trkpt lat="46.99831" lon="8.86844">
        <ele>1545</ele>
        <time>2021-08-03T11:49:32.766Z</time>
      </trkpt>
      <trkpt lat="46.99831" lon="8.86845">
        <ele>1545</ele>
        <time>2021-08-03T11:49:33.766Z</time>
      </trkpt>
      <trkpt lat="46.99831" lon="8.86845">
        <ele>1546</ele>
        <time>2021-08-03T11:49:34.766Z</time>
      </trkpt>
      <trkpt lat="46.99832" lon="8.86846">
        <ele>1546</ele>
        <time>2021-08-03T11:49:35.766Z</time>
      </trkpt>
      <trkpt lat="46.99834" lon="8.86844">
        <ele>1547</ele>
        <time>2021-08-03T11:49:36.766Z</time>
      </trkpt>
      <trkpt lat="46.99834" lon="8.86844">
        <ele>1547</ele>
        <time>2021-08-03T11:49:37.765Z</time>
      </trkpt>
      <trkpt lat="46.99833" lon="8.86843">
        <ele>1548</ele>
        <time>2021-08-03T11:49:38.766Z</time>
      </trkpt>
      <trkpt lat="46.99833" lon="8.86844">
        <ele>1549</ele>
        <time>2021-08-03T11:49:39.766Z</time>
      </trkpt>
      <trkpt lat="46.99833" lon="8.86844">
        <ele>1549</ele>
        <time>2021-08-03T11:49:40.766Z</time>
      </trkpt>
      <trkpt lat="46.99833" lon="8.86845">
        <ele>1551</ele>
        <time>2021-08-03T11:49:41.767Z</time>
      </trkpt>
      <trkpt lat="46.99832" lon="8.86846">
        <ele>1551</ele>
        <time>2021-08-03T11:49:42.766Z</time>
      </trkpt>
      <trkpt lat="46.99831" lon="8.86847">
        <ele>1551</ele>
        <time>2021-08-03T11:49:43.767Z</time>
      </trkpt>
      <trkpt lat="46.99831" lon="8.86848">
        <ele>1552</ele>
        <time>2021-08-03T11:49:44.766Z</time>
      </trkpt>
      <trkpt lat="46.99832" lon="8.86848">
        <ele>1552</ele>
        <time>2021-08-03T11:49:45.766Z</time>
      </trkpt>
      <trkpt lat="46.99832" lon="8.86848">
        <ele>1551</ele>
        <time>2021-08-03T11:49:46.767Z</time>
      </trkpt>
      <trkpt lat="46.99832" lon="8.86848">
        <ele>1551</ele>
        <time>2021-08-03T11:49:47.766Z</time>
      </trkpt>
      <trkpt lat="46.99832" lon="8.86846">
        <ele>1551</ele>
        <time>2021-08-03T11:49:48.768Z</time>
      </trkpt>
      <trkpt lat="46.99832" lon="8.86846">
        <ele>1551</ele>
        <time>2021-08-03T11:49:49.767Z</time>
      </trkpt>
      <trkpt lat="46.99832" lon="8.86845">
        <ele>1552</ele>
        <time>2021-08-03T11:49:50.767Z</time>
      </trkpt>
      <trkpt lat="46.99831" lon="8.86845">
        <ele>1552</ele>
        <time>2021-08-03T11:49:51.767Z</time>
      </trkpt>
      <trkpt lat="46.99831" lon="8.86845">
        <ele>1552</ele>
        <time>2021-08-03T11:49:52.768Z</time>
      </trkpt>
      <trkpt lat="46.99831" lon="8.86845">
        <ele>1552</ele>
        <time>2021-08-03T11:49:53.767Z</time>
      </trkpt>
      <trkpt lat="46.9983" lon="8.86845">
        <ele>1552</ele>
        <time>2021-08-03T11:49:54.768Z</time>
      </trkpt>
      <trkpt lat="46.9983" lon="8.86845">
        <ele>1551</ele>
        <time>2021-08-03T11:49:55.767Z</time>
      </trkpt>
      <trkpt lat="46.99829" lon="8.86844">
        <ele>1550</ele>
        <time>2021-08-03T11:49:56.767Z</time>
      </trkpt>
      <trkpt lat="46.99829" lon="8.86844">
        <ele>1548</ele>
        <time>2021-08-03T11:49:57.768Z</time>
      </trkpt>
      <trkpt lat="46.99829" lon="8.86844">
        <ele>1547</ele>
        <time>2021-08-03T11:49:58.767Z</time>
      </trkpt>
      <trkpt lat="46.99829" lon="8.86845">
        <ele>1545</ele>
        <time>2021-08-03T11:49:59.768Z</time>
      </trkpt>
      <trkpt lat="46.99829" lon="8.86845">
        <ele>1544</ele>
        <time>2021-08-03T11:50:00.767Z</time>
      </trkpt>
      <trkpt lat="46.99829" lon="8.86844">
        <ele>1542</ele>
        <time>2021-08-03T11:50:01.769Z</time>
      </trkpt>
      <trkpt lat="46.99828" lon="8.86845">
        <ele>1542</ele>
        <time>2021-08-03T11:50:02.768Z</time>
      </trkpt>
      <trkpt lat="46.99828" lon="8.86846">
        <ele>1542</ele>
        <time>2021-08-03T11:50:03.769Z</time>
      </trkpt>
      <trkpt lat="46.99827" lon="8.86848">
        <ele>1542</ele>
        <time>2021-08-03T11:50:04.769Z</time>
      </trkpt>
      <trkpt lat="46.99827" lon="8.86848">
        <ele>1543</ele>
        <time>2021-08-03T11:50:05.769Z</time>
      </trkpt>
      <trkpt lat="46.99828" lon="8.86847">
        <ele>1543</ele>
        <time>2021-08-03T11:50:06.769Z</time>
      </trkpt>
      <trkpt lat="46.99828" lon="8.86847">
        <ele>1543</ele>
        <time>2021-08-03T11:50:07.768Z</time>
      </trkpt>
      <trkpt lat="46.99828" lon="8.86847">
        <ele>1544</ele>
        <time>2021-08-03T11:50:08.769Z</time>
      </trkpt>
      <trkpt lat="46.99827" lon="8.86848">
        <ele>1544</ele>
        <time>2021-08-03T11:50:09.769Z</time>
      </trkpt>
      <trkpt lat="46.99827" lon="8.86849">
        <ele>1544</ele>
        <time>2021-08-03T11:50:10.768Z</time>
      </trkpt>
      <trkpt lat="46.99827" lon="8.86849">
        <ele>1544</ele>
        <time>2021-08-03T11:50:11.769Z</time>
      </trkpt>
      <trkpt lat="46.99826" lon="8.8685">
        <ele>1543</ele>
        <time>2021-08-03T11:50:12.769Z</time>
      </trkpt>
      <trkpt lat="46.99826" lon="8.86851">
        <ele>1543</ele>
        <time>2021-08-03T11:50:13.769Z</time>
      </trkpt>
      <trkpt lat="46.99826" lon="8.86851">
        <ele>1543</ele>
        <time>2021-08-03T11:50:14.768Z</time>
      </trkpt>
      <trkpt lat="46.99826" lon="8.8685">
        <ele>1542</ele>
        <time>2021-08-03T11:50:15.769Z</time>
      </trkpt>
      <trkpt lat="46.99826" lon="8.8685">
        <ele>1542</ele>
        <time>2021-08-03T11:50:16.769Z</time>
      </trkpt>
      <trkpt lat="46.99826" lon="8.8685">
        <ele>1542</ele>
        <time>2021-08-03T11:50:18.874Z</time>
      </trkpt>
      <trkpt lat="46.99827" lon="8.8685">
        <ele>1542</ele>
        <time>2021-08-03T11:50:19.874Z</time>
      </trkpt>
      <trkpt lat="46.99825" lon="8.86853">
        <ele>1543</ele>
        <time>2021-08-03T11:50:20.875Z</time>
      </trkpt>
      <trkpt lat="46.99824" lon="8.86853">
        <ele>1543</ele>
        <time>2021-08-03T11:50:21.874Z</time>
      </trkpt>
      <trkpt lat="46.99823" lon="8.86854">
        <ele>1543</ele>
        <time>2021-08-03T11:50:22.874Z</time>
      </trkpt>
      <trkpt lat="46.99823" lon="8.86855">
        <ele>1543</ele>
        <time>2021-08-03T11:50:23.874Z</time>
      </trkpt>
      <trkpt lat="46.99823" lon="8.86854">
        <ele>1543</ele>
        <time>2021-08-03T11:50:24.874Z</time>
      </trkpt>
      <trkpt lat="46.99822" lon="8.86854">
        <ele>1542</ele>
        <time>2021-08-03T11:50:25.875Z</time>
      </trkpt>
      <trkpt lat="46.99822" lon="8.86854">
        <ele>1542</ele>
        <time>2021-08-03T11:50:26.874Z</time>
      </trkpt>
      <trkpt lat="46.99823" lon="8.86853">
        <ele>1542</ele>
        <time>2021-08-03T11:50:27.875Z</time>
      </trkpt>
      <trkpt lat="46.99823" lon="8.86852">
        <ele>1541</ele>
        <time>2021-08-03T11:50:28.874Z</time>
      </trkpt>
      <trkpt lat="46.99823" lon="8.86852">
        <ele>1541</ele>
        <time>2021-08-03T11:50:29.874Z</time>
      </trkpt>
      <trkpt lat="46.99823" lon="8.86852">
        <ele>1541</ele>
        <time>2021-08-03T11:50:30.874Z</time>
      </trkpt>
      <trkpt lat="46.99824" lon="8.86852">
        <ele>1540</ele>
        <time>2021-08-03T11:50:31.875Z</time>
      </trkpt>
      <trkpt lat="46.99824" lon="8.86852">
        <ele>1540</ele>
        <time>2021-08-03T11:50:32.874Z</time>
      </trkpt>
      <trkpt lat="46.99823" lon="8.86853">
        <ele>1540</ele>
        <time>2021-08-03T11:50:33.874Z</time>
      </trkpt>
      <trkpt lat="46.99823" lon="8.86854">
        <ele>1540</ele>
        <time>2021-08-03T11:50:34.874Z</time>
      </trkpt>
      <trkpt lat="46.99822" lon="8.86854">
        <ele>1540</ele>
        <time>2021-08-03T11:50:35.874Z</time>
      </trkpt>
      <trkpt lat="46.99823" lon="8.86854">
        <ele>1541</ele>
        <time>2021-08-03T11:50:36.874Z</time>
      </trkpt>
      <trkpt lat="46.99823" lon="8.86854">
        <ele>1541</ele>
        <time>2021-08-03T11:50:37.875Z</time>
      </trkpt>
      <trkpt lat="46.99825" lon="8.8685">
        <ele>1543</ele>
        <time>2021-08-03T11:50:38.875Z</time>
      </trkpt>
      <trkpt lat="46.99825" lon="8.86851">
        <ele>1543</ele>
        <time>2021-08-03T11:50:39.875Z</time>
      </trkpt>
      <trkpt lat="46.99825" lon="8.86851">
        <ele>1543</ele>
        <time>2021-08-03T11:50:40.876Z</time>
      </trkpt>
      <trkpt lat="46.99824" lon="8.86851">
        <ele>1543</ele>
        <time>2021-08-03T11:50:41.876Z</time>
      </trkpt>
      <trkpt lat="46.99824" lon="8.8685">
        <ele>1543</ele>
        <time>2021-08-03T11:50:42.875Z</time>
      </trkpt>
      <trkpt lat="46.99824" lon="8.86851">
        <ele>1543</ele>
        <time>2021-08-03T11:50:43.876Z</time>
      </trkpt>
      <trkpt lat="46.99824" lon="8.8685">
        <ele>1543</ele>
        <time>2021-08-03T11:50:44.875Z</time>
      </trkpt>
      <trkpt lat="46.99823" lon="8.86849">
        <ele>1543</ele>
        <time>2021-08-03T11:50:45.876Z</time>
      </trkpt>
      <trkpt lat="46.99823" lon="8.86849">
        <ele>1543</ele>
        <time>2021-08-03T11:50:46.876Z</time>
      </trkpt>
      <trkpt lat="46.99824" lon="8.86847">
        <ele>1543</ele>
        <time>2021-08-03T11:50:47.876Z</time>
      </trkpt>
      <trkpt lat="46.99825" lon="8.86846">
        <ele>1544</ele>
        <time>2021-08-03T11:50:48.876Z</time>
      </trkpt>
      <trkpt lat="46.99826" lon="8.86845">
        <ele>1544</ele>
        <time>2021-08-03T11:50:49.876Z</time>
      </trkpt>
      <trkpt lat="46.99825" lon="8.86846">
        <ele>1544</ele>
        <time>2021-08-03T11:50:50.876Z</time>
      </trkpt>
      <trkpt lat="46.99824" lon="8.86846">
        <ele>1545</ele>
        <time>2021-08-03T11:50:51.875Z</time>
      </trkpt>
      <trkpt lat="46.99824" lon="8.86847">
        <ele>1546</ele>
        <time>2021-08-03T11:50:52.876Z</time>
      </trkpt>
      <trkpt lat="46.99823" lon="8.86848">
        <ele>1546</ele>
        <time>2021-08-03T11:50:53.876Z</time>
      </trkpt>
      <trkpt lat="46.99823" lon="8.86849">
        <ele>1547</ele>
        <time>2021-08-03T11:50:54.876Z</time>
      </trkpt>
      <trkpt lat="46.99823" lon="8.86849">
        <ele>1547</ele>
        <time>2021-08-03T11:50:55.876Z</time>
      </trkpt>
      <trkpt lat="46.99822" lon="8.8685">
        <ele>1548</ele>
        <time>2021-08-03T11:50:56.876Z</time>
      </trkpt>
      <trkpt lat="46.99822" lon="8.8685">
        <ele>1549</ele>
        <time>2021-08-03T11:50:57.876Z</time>
      </trkpt>
      <trkpt lat="46.9982" lon="8.86851">
        <ele>1551</ele>
        <time>2021-08-03T11:50:58.875Z</time>
      </trkpt>
      <trkpt lat="46.9982" lon="8.86851">
        <ele>1551</ele>
        <time>2021-08-03T11:50:59.875Z</time>
      </trkpt>
      <trkpt lat="46.9982" lon="8.86852">
        <ele>1552</ele>
        <time>2021-08-03T11:51:00.875Z</time>
      </trkpt>
      <trkpt lat="46.99822" lon="8.86852">
        <ele>1554</ele>
        <time>2021-08-03T11:51:01.875Z</time>
      </trkpt>
      <trkpt lat="46.99821" lon="8.86853">
        <ele>1554</ele>
        <time>2021-08-03T11:51:02.876Z</time>
      </trkpt>
      <trkpt lat="46.99821" lon="8.86852">
        <ele>1555</ele>
        <time>2021-08-03T11:51:03.875Z</time>
      </trkpt>
      <trkpt lat="46.99821" lon="8.86851">
        <ele>1555</ele>
        <time>2021-08-03T11:51:04.875Z</time>
      </trkpt>
      <trkpt lat="46.99821" lon="8.86851">
        <ele>1555</ele>
        <time>2021-08-03T11:51:05.875Z</time>
      </trkpt>
      <trkpt lat="46.99822" lon="8.8685">
        <ele>1555</ele>
        <time>2021-08-03T11:51:06.876Z</time>
      </trkpt>
      <trkpt lat="46.99827" lon="8.86846">
        <ele>1555</ele>
        <time>2021-08-03T11:51:07.876Z</time>
      </trkpt>
      <trkpt lat="46.99827" lon="8.86847">
        <ele>1554</ele>
        <time>2021-08-03T11:51:08.876Z</time>
      </trkpt>
      <trkpt lat="46.99826" lon="8.86848">
        <ele>1554</ele>
        <time>2021-08-03T11:51:09.876Z</time>
      </trkpt>
      <trkpt lat="46.99826" lon="8.86848">
        <ele>1554</ele>
        <time>2021-08-03T11:51:10.876Z</time>
      </trkpt>
      <trkpt lat="46.99826" lon="8.86848">
        <ele>1553</ele>
        <time>2021-08-03T11:51:11.876Z</time>
      </trkpt>
      <trkpt lat="46.99827" lon="8.86847">
        <ele>1553</ele>
        <time>2021-08-03T11:51:12.877Z</time>
      </trkpt>
      <trkpt lat="46.99827" lon="8.86847">
        <ele>1553</ele>
        <time>2021-08-03T11:51:13.876Z</time>
      </trkpt>
      <trkpt lat="46.99827" lon="8.86847">
        <ele>1552</ele>
        <time>2021-08-03T11:51:14.877Z</time>
      </trkpt>
      <trkpt lat="46.99828" lon="8.86846">
        <ele>1552</ele>
        <time>2021-08-03T11:51:15.877Z</time>
      </trkpt>
      <trkpt lat="46.99828" lon="8.86846">
        <ele>1551</ele>
        <time>2021-08-03T11:51:16.876Z</time>
      </trkpt>
      <trkpt lat="46.99827" lon="8.86847">
        <ele>1551</ele>
        <time>2021-08-03T11:51:17.877Z</time>
      </trkpt>
      <trkpt lat="46.99826" lon="8.86848">
        <ele>1551</ele>
        <time>2021-08-03T11:51:18.877Z</time>
      </trkpt>
      <trkpt lat="46.99826" lon="8.86849">
        <ele>1550</ele>
        <time>2021-08-03T11:51:19.877Z</time>
      </trkpt>
      <trkpt lat="46.99826" lon="8.86849">
        <ele>1550</ele>
        <time>2021-08-03T11:51:20.877Z</time>
      </trkpt>
      <trkpt lat="46.99826" lon="8.86848">
        <ele>1550</ele>
        <time>2021-08-03T11:51:21.877Z</time>
      </trkpt>
      <trkpt lat="46.99827" lon="8.86848">
        <ele>1550</ele>
        <time>2021-08-03T11:51:22.877Z</time>
      </trkpt>
      <trkpt lat="46.99827" lon="8.86847">
        <ele>1550</ele>
        <time>2021-08-03T11:51:23.877Z</time>
      </trkpt>
      <trkpt lat="46.99828" lon="8.86847">
        <ele>1550</ele>
        <time>2021-08-03T11:51:24.877Z</time>
      </trkpt>
      <trkpt lat="46.99828" lon="8.86847">
        <ele>1550</ele>
        <time>2021-08-03T11:51:25.876Z</time>
      </trkpt>
      <trkpt lat="46.99828" lon="8.86848">
        <ele>1550</ele>
        <time>2021-08-03T11:51:26.877Z</time>
      </trkpt>
      <trkpt lat="46.99827" lon="8.86848">
        <ele>1548</ele>
        <time>2021-08-03T11:51:27.878Z</time>
      </trkpt>
      <trkpt lat="46.99827" lon="8.86848">
        <ele>1548</ele>
        <time>2021-08-03T11:51:28.877Z</time>
      </trkpt>
      <trkpt lat="46.99827" lon="8.86849">
        <ele>1544</ele>
        <time>2021-08-03T11:51:29.878Z</time>
      </trkpt>
      <trkpt lat="46.99826" lon="8.8685">
        <ele>1543</ele>
        <time>2021-08-03T11:51:30.878Z</time>
      </trkpt>
      <trkpt lat="46.99826" lon="8.8685">
        <ele>1542</ele>
        <time>2021-08-03T11:51:31.877Z</time>
      </trkpt>
      <trkpt lat="46.99826" lon="8.86851">
        <ele>1542</ele>
        <time>2021-08-03T11:51:32.877Z</time>
      </trkpt>
      <trkpt lat="46.99827" lon="8.86851">
        <ele>1540</ele>
        <time>2021-08-03T11:51:33.877Z</time>
      </trkpt>
      <trkpt lat="46.99827" lon="8.86851">
        <ele>1539</ele>
        <time>2021-08-03T11:51:34.877Z</time>
      </trkpt>
      <trkpt lat="46.99826" lon="8.86852">
        <ele>1539</ele>
        <time>2021-08-03T11:51:35.877Z</time>
      </trkpt>
      <trkpt lat="46.99826" lon="8.86853">
        <ele>1539</ele>
        <time>2021-08-03T11:51:36.878Z</time>
      </trkpt>
      <trkpt lat="46.99826" lon="8.86853">
        <ele>1539</ele>
        <time>2021-08-03T11:51:37.877Z</time>
      </trkpt>
      <trkpt lat="46.99827" lon="8.86852">
        <ele>1539</ele>
        <time>2021-08-03T11:51:38.877Z</time>
      </trkpt>
      <trkpt lat="46.99827" lon="8.86853">
        <ele>1539</ele>
        <time>2021-08-03T11:51:39.877Z</time>
      </trkpt>
      <trkpt lat="46.99828" lon="8.86851">
        <ele>1539</ele>
        <time>2021-08-03T11:51:40.877Z</time>
      </trkpt>
      <trkpt lat="46.99828" lon="8.8685">
        <ele>1539</ele>
        <time>2021-08-03T11:51:41.878Z</time>
      </trkpt>
      <trkpt lat="46.99829" lon="8.8685">
        <ele>1539</ele>
        <time>2021-08-03T11:51:42.877Z</time>
      </trkpt>
      <trkpt lat="46.99829" lon="8.86849">
        <ele>1539</ele>
        <time>2021-08-03T11:51:43.877Z</time>
      </trkpt>
      <trkpt lat="46.9983" lon="8.86848">
        <ele>1539</ele>
        <time>2021-08-03T11:51:44.878Z</time>
      </trkpt>
      <trkpt lat="46.9983" lon="8.86847">
        <ele>1539</ele>
        <time>2021-08-03T11:51:45.877Z</time>
      </trkpt>
      <trkpt lat="46.99831" lon="8.86846">
        <ele>1539</ele>
        <time>2021-08-03T11:51:46.878Z</time>
      </trkpt>
      <trkpt lat="46.99832" lon="8.86844">
        <ele>1539</ele>
        <time>2021-08-03T11:51:47.877Z</time>
      </trkpt>
      <trkpt lat="46.99832" lon="8.86842">
        <ele>1539</ele>
        <time>2021-08-03T11:51:48.878Z</time>
      </trkpt>
      <trkpt lat="46.99833" lon="8.8684">
        <ele>1539</ele>
        <time>2021-08-03T11:51:49.877Z</time>
      </trkpt>
      <trkpt lat="46.99834" lon="8.86838">
        <ele>1539</ele>
        <time>2021-08-03T11:51:50.877Z</time>
      </trkpt>
      <trkpt lat="46.99835" lon="8.86837">
        <ele>1539</ele>
        <time>2021-08-03T11:51:51.877Z</time>
      </trkpt>
      <trkpt lat="46.99835" lon="8.86837">
        <ele>1539</ele>
        <time>2021-08-03T11:51:52.878Z</time>
      </trkpt>
      <trkpt lat="46.99835" lon="8.86838">
        <ele>1539</ele>
        <time>2021-08-03T11:51:53.877Z</time>
      </trkpt>
      <trkpt lat="46.99835" lon="8.86838">
        <ele>1538</ele>
        <time>2021-08-03T11:51:54.877Z</time>
      </trkpt>
      <trkpt lat="46.99836" lon="8.86838">
        <ele>1538</ele>
        <time>2021-08-03T11:51:55.877Z</time>
      </trkpt>
      <trkpt lat="46.99837" lon="8.86837">
        <ele>1532</ele>
        <time>2021-08-03T11:51:56.878Z</time>
      </trkpt>
      <trkpt lat="46.99837" lon="8.86837">
        <ele>1532</ele>
        <time>2021-08-03T11:51:57.878Z</time>
      </trkpt>
      <trkpt lat="46.99836" lon="8.86838">
        <ele>1532</ele>
        <time>2021-08-03T11:51:58.877Z</time>
      </trkpt>
      <trkpt lat="46.99836" lon="8.86839">
        <ele>1532</ele>
        <time>2021-08-03T11:51:59.877Z</time>
      </trkpt>
      <trkpt lat="46.99835" lon="8.86841">
        <ele>1534</ele>
        <time>2021-08-03T11:52:00.878Z</time>
      </trkpt>
      <trkpt lat="46.99835" lon="8.86842">
        <ele>1535</ele>
        <time>2021-08-03T11:52:01.878Z</time>
      </trkpt>
      <trkpt lat="46.99834" lon="8.86843">
        <ele>1536</ele>
        <time>2021-08-03T11:52:02.878Z</time>
      </trkpt>
      <trkpt lat="46.99834" lon="8.86843">
        <ele>1536</ele>
        <time>2021-08-03T11:52:03.878Z</time>
      </trkpt>
      <trkpt lat="46.99834" lon="8.86843">
        <ele>1537</ele>
        <time>2021-08-03T11:52:04.878Z</time>
      </trkpt>
      <trkpt lat="46.99834" lon="8.86844">
        <ele>1538</ele>
        <time>2021-08-03T11:52:05.879Z</time>
      </trkpt>
      <trkpt lat="46.99832" lon="8.86848">
        <ele>1541</ele>
        <time>2021-08-03T11:52:06.878Z</time>
      </trkpt>
      <trkpt lat="46.99832" lon="8.86848">
        <ele>1542</ele>
        <time>2021-08-03T11:52:07.879Z</time>
      </trkpt>
      <trkpt lat="46.99832" lon="8.86847">
        <ele>1542</ele>
        <time>2021-08-03T11:52:08.878Z</time>
      </trkpt>
      <trkpt lat="46.99832" lon="8.86846">
        <ele>1543</ele>
        <time>2021-08-03T11:52:09.879Z</time>
      </trkpt>
      <trkpt lat="46.99831" lon="8.86846">
        <ele>1543</ele>
        <time>2021-08-03T11:52:10.879Z</time>
      </trkpt>
      <trkpt lat="46.99831" lon="8.86846">
        <ele>1544</ele>
        <time>2021-08-03T11:52:11.879Z</time>
      </trkpt>
      <trkpt lat="46.99831" lon="8.86846">
        <ele>1544</ele>
        <time>2021-08-03T11:52:43.022Z</time>
      </trkpt>
      <trkpt lat="46.99832" lon="8.86845">
        <ele>1544</ele>
        <time>2021-08-03T11:52:44.022Z</time>
      </trkpt>
      <trkpt lat="46.99832" lon="8.86843">
        <ele>1541</ele>
        <time>2021-08-03T11:52:45.022Z</time>
      </trkpt>
      <trkpt lat="46.99833" lon="8.86843">
        <ele>1540</ele>
        <time>2021-08-03T11:52:46.023Z</time>
      </trkpt>
      <trkpt lat="46.99833" lon="8.86844">
        <ele>1540</ele>
        <time>2021-08-03T11:52:47.023Z</time>
      </trkpt>
      <trkpt lat="46.99831" lon="8.86847">
        <ele>1541</ele>
        <time>2021-08-03T11:52:48.023Z</time>
      </trkpt>
      <trkpt lat="46.99831" lon="8.86847">
        <ele>1541</ele>
        <time>2021-08-03T11:52:49.023Z</time>
      </trkpt>
      <trkpt lat="46.99831" lon="8.86848">
        <ele>1541</ele>
        <time>2021-08-03T11:52:50.022Z</time>
      </trkpt>
      <trkpt lat="46.99831" lon="8.86848">
        <ele>1541</ele>
        <time>2021-08-03T11:52:51.022Z</time>
      </trkpt>
      <trkpt lat="46.9983" lon="8.86848">
        <ele>1540</ele>
        <time>2021-08-03T11:52:52.022Z</time>
      </trkpt>
      <trkpt lat="46.9983" lon="8.86849">
        <ele>1541</ele>
        <time>2021-08-03T11:52:53.022Z</time>
      </trkpt>
      <trkpt lat="46.9983" lon="8.86849">
        <ele>1541</ele>
        <time>2021-08-03T11:52:54.023Z</time>
      </trkpt>
      <trkpt lat="46.99831" lon="8.86849">
        <ele>1542</ele>
        <time>2021-08-03T11:52:55.023Z</time>
      </trkpt>
      <trkpt lat="46.99831" lon="8.86849">
        <ele>1542</ele>
        <time>2021-08-03T11:52:56.023Z</time>
      </trkpt>
      <trkpt lat="46.99832" lon="8.86848">
        <ele>1542</ele>
        <time>2021-08-03T11:52:57.022Z</time>
      </trkpt>
      <trkpt lat="46.99832" lon="8.86847">
        <ele>1543</ele>
        <time>2021-08-03T11:52:58.023Z</time>
      </trkpt>
      <trkpt lat="46.99833" lon="8.86847">
        <ele>1543</ele>
        <time>2021-08-03T11:52:59.023Z</time>
      </trkpt>
      <trkpt lat="46.99833" lon="8.86847">
        <ele>1543</ele>
        <time>2021-08-03T11:53:00.022Z</time>
      </trkpt>
      <trkpt lat="46.99834" lon="8.86846">
        <ele>1543</ele>
        <time>2021-08-03T11:53:01.023Z</time>
      </trkpt>
      <trkpt lat="46.99834" lon="8.86846">
        <ele>1543</ele>
        <time>2021-08-03T11:53:02.022Z</time>
      </trkpt>
      <trkpt lat="46.99833" lon="8.86845">
        <ele>1543</ele>
        <time>2021-08-03T11:53:03.024Z</time>
      </trkpt>
      <trkpt lat="46.99834" lon="8.86844">
        <ele>1543</ele>
        <time>2021-08-03T11:53:04.024Z</time>
      </trkpt>
      <trkpt lat="46.99835" lon="8.86843">
        <ele>1543</ele>
        <time>2021-08-03T11:53:04.899Z</time>
      </trkpt>
      <trkpt lat="46.99835" lon="8.86843">
        <ele>1543</ele>
        <time>2021-08-03T11:53:06.023Z</time>
      </trkpt>
      <trkpt lat="46.99835" lon="8.86844">
        <ele>1543</ele>
        <time>2021-08-03T11:53:07.024Z</time>
      </trkpt>
      <trkpt lat="46.99835" lon="8.86846">
        <ele>1544</ele>
        <time>2021-08-03T11:53:08.024Z</time>
      </trkpt>
      <trkpt lat="46.99832" lon="8.86847">
        <ele>1547</ele>
        <time>2021-08-03T11:53:08.900Z</time>
      </trkpt>
      <trkpt lat="46.99832" lon="8.86846">
        <ele>1548</ele>
        <time>2021-08-03T11:53:09.900Z</time>
      </trkpt>
      <trkpt lat="46.99832" lon="8.86845">
        <ele>1548</ele>
        <time>2021-08-03T11:53:10.899Z</time>
      </trkpt>
      <trkpt lat="46.99833" lon="8.86846">
        <ele>1548</ele>
        <time>2021-08-03T11:53:11.901Z</time>
      </trkpt>
      <trkpt lat="46.99833" lon="8.86846">
        <ele>1548</ele>
        <time>2021-08-03T11:53:12.901Z</time>
      </trkpt>
      <trkpt lat="46.99834" lon="8.86841">
        <ele>1546</ele>
        <time>2021-08-03T11:53:13.902Z</time>
      </trkpt>
      <trkpt lat="46.99834" lon="8.8684">
        <ele>1545</ele>
        <time>2021-08-03T11:53:14.902Z</time>
      </trkpt>
      <trkpt lat="46.99834" lon="8.86841">
        <ele>1545</ele>
        <time>2021-08-03T11:53:15.901Z</time>
      </trkpt>
      <trkpt lat="46.99834" lon="8.86842">
        <ele>1544</ele>
        <time>2021-08-03T11:53:16.901Z</time>
      </trkpt>
      <trkpt lat="46.99833" lon="8.86844">
        <ele>1544</ele>
        <time>2021-08-03T11:53:17.901Z</time>
      </trkpt>
      <trkpt lat="46.99833" lon="8.86844">
        <ele>1544</ele>
        <time>2021-08-03T11:53:18.902Z</time>
      </trkpt>
      <trkpt lat="46.99834" lon="8.86844">
        <ele>1544</ele>
        <time>2021-08-03T11:53:19.901Z</time>
      </trkpt>
      <trkpt lat="46.99834" lon="8.86844">
        <ele>1544</ele>
        <time>2021-08-03T11:53:20.903Z</time>
      </trkpt>
      <trkpt lat="46.99836" lon="8.86839">
        <ele>1544</ele>
        <time>2021-08-03T11:53:21.902Z</time>
      </trkpt>
      <trkpt lat="46.99836" lon="8.86838">
        <ele>1544</ele>
        <time>2021-08-03T11:53:22.903Z</time>
      </trkpt>
      <trkpt lat="46.99836" lon="8.86838">
        <ele>1544</ele>
        <time>2021-08-03T11:53:23.902Z</time>
      </trkpt>
      <trkpt lat="46.99837" lon="8.86837">
        <ele>1544</ele>
        <time>2021-08-03T11:53:24.903Z</time>
      </trkpt>
      <trkpt lat="46.99837" lon="8.86837">
        <ele>1544</ele>
        <time>2021-08-03T11:53:25.903Z</time>
      </trkpt>
      <trkpt lat="46.99836" lon="8.86837">
        <ele>1544</ele>
        <time>2021-08-03T11:53:26.903Z</time>
      </trkpt>
      <trkpt lat="46.99836" lon="8.86836">
        <ele>1543</ele>
        <time>2021-08-03T11:53:27.902Z</time>
      </trkpt>
      <trkpt lat="46.99836" lon="8.86838">
        <ele>1538</ele>
        <time>2021-08-03T11:53:28.903Z</time>
      </trkpt>
      <trkpt lat="46.99835" lon="8.86839">
        <ele>1538</ele>
        <time>2021-08-03T11:53:29.902Z</time>
      </trkpt>
      <trkpt lat="46.99835" lon="8.86839">
        <ele>1539</ele>
        <time>2021-08-03T11:53:30.902Z</time>
      </trkpt>
      <trkpt lat="46.99834" lon="8.8684">
        <ele>1539</ele>
        <time>2021-08-03T11:53:31.903Z</time>
      </trkpt>
      <trkpt lat="46.99834" lon="8.86841">
        <ele>1539</ele>
        <time>2021-08-03T11:53:32.903Z</time>
      </trkpt>
      <trkpt lat="46.99834" lon="8.86841">
        <ele>1539</ele>
        <time>2021-08-03T11:53:33.902Z</time>
      </trkpt>
      <trkpt lat="46.99833" lon="8.86842">
        <ele>1539</ele>
        <time>2021-08-03T11:53:34.903Z</time>
      </trkpt>
      <trkpt lat="46.99833" lon="8.86843">
        <ele>1539</ele>
        <time>2021-08-03T11:53:35.903Z</time>
      </trkpt>
      <trkpt lat="46.99833" lon="8.86843">
        <ele>1539</ele>
        <time>2021-08-03T11:53:36.903Z</time>
      </trkpt>
      <trkpt lat="46.99834" lon="8.86844">
        <ele>1538</ele>
        <time>2021-08-03T11:53:37.903Z</time>
      </trkpt>
      <trkpt lat="46.99833" lon="8.86846">
        <ele>1538</ele>
        <time>2021-08-03T11:53:38.904Z</time>
      </trkpt>
      <trkpt lat="46.99833" lon="8.86847">
        <ele>1538</ele>
        <time>2021-08-03T11:53:39.903Z</time>
      </trkpt>
      <trkpt lat="46.99832" lon="8.86848">
        <ele>1538</ele>
        <time>2021-08-03T11:53:40.904Z</time>
      </trkpt>
      <trkpt lat="46.99831" lon="8.86849">
        <ele>1539</ele>
        <time>2021-08-03T11:53:41.904Z</time>
      </trkpt>
      <trkpt lat="46.99831" lon="8.8685">
        <ele>1539</ele>
        <time>2021-08-03T11:53:42.903Z</time>
      </trkpt>
      <trkpt lat="46.9983" lon="8.86851">
        <ele>1539</ele>
        <time>2021-08-03T11:53:43.903Z</time>
      </trkpt>
      <trkpt lat="46.99825" lon="8.86857">
        <ele>1541</ele>
        <time>2021-08-03T11:53:44.904Z</time>
      </trkpt>
      <trkpt lat="46.99826" lon="8.86857">
        <ele>1541</ele>
        <time>2021-08-03T11:53:45.904Z</time>
      </trkpt>
      <trkpt lat="46.99826" lon="8.86857">
        <ele>1541</ele>
        <time>2021-08-03T11:53:46.903Z</time>
      </trkpt>
      <trkpt lat="46.99826" lon="8.86857">
        <ele>1541</ele>
        <time>2021-08-03T11:53:47.904Z</time>
      </trkpt>
      <trkpt lat="46.99826" lon="8.86857">
        <ele>1542</ele>
        <time>2021-08-03T11:53:48.903Z</time>
      </trkpt>
      <trkpt lat="46.99831" lon="8.86848">
        <ele>1547</ele>
        <time>2021-08-03T11:53:49.904Z</time>
      </trkpt>
      <trkpt lat="46.99831" lon="8.86848">
        <ele>1548</ele>
        <time>2021-08-03T11:53:50.903Z</time>
      </trkpt>
      <trkpt lat="46.99831" lon="8.86848">
        <ele>1548</ele>
        <time>2021-08-03T11:53:51.903Z</time>
      </trkpt>
      <trkpt lat="46.99831" lon="8.86847">
        <ele>1549</ele>
        <time>2021-08-03T11:53:52.903Z</time>
      </trkpt>
      <trkpt lat="46.99831" lon="8.86846">
        <ele>1549</ele>
        <time>2021-08-03T11:53:53.903Z</time>
      </trkpt>
      <trkpt lat="46.99832" lon="8.86844">
        <ele>1550</ele>
        <time>2021-08-03T11:53:54.904Z</time>
      </trkpt>
      <trkpt lat="46.99831" lon="8.86845">
        <ele>1551</ele>
        <time>2021-08-03T11:53:55.904Z</time>
      </trkpt>
      <trkpt lat="46.99831" lon="8.86845">
        <ele>1552</ele>
        <time>2021-08-03T11:53:56.904Z</time>
      </trkpt>
      <trkpt lat="46.99831" lon="8.86846">
        <ele>1552</ele>
        <time>2021-08-03T11:53:57.904Z</time>
      </trkpt>
      <trkpt lat="46.9983" lon="8.86846">
        <ele>1552</ele>
        <time>2021-08-03T11:53:58.904Z</time>
      </trkpt>
      <trkpt lat="46.99829" lon="8.86849">
        <ele>1553</ele>
        <time>2021-08-03T11:53:59.903Z</time>
      </trkpt>
      <trkpt lat="46.99829" lon="8.86849">
        <ele>1553</ele>
        <time>2021-08-03T11:54:00.903Z</time>
      </trkpt>
      <trkpt lat="46.99829" lon="8.86848">
        <ele>1553</ele>
        <time>2021-08-03T11:54:01.903Z</time>
      </trkpt>
      <trkpt lat="46.99829" lon="8.86847">
        <ele>1553</ele>
        <time>2021-08-03T11:54:02.904Z</time>
      </trkpt>
      <trkpt lat="46.99829" lon="8.86848">
        <ele>1552</ele>
        <time>2021-08-03T11:54:03.903Z</time>
      </trkpt>
      <trkpt lat="46.9983" lon="8.86849">
        <ele>1552</ele>
        <time>2021-08-03T11:54:04.904Z</time>
      </trkpt>
      <trkpt lat="46.99829" lon="8.86851">
        <ele>1551</ele>
        <time>2021-08-03T11:54:05.905Z</time>
      </trkpt>
      <trkpt lat="46.99829" lon="8.86851">
        <ele>1550</ele>
        <time>2021-08-03T11:54:06.904Z</time>
      </trkpt>
      <trkpt lat="46.99829" lon="8.86852">
        <ele>1549</ele>
        <time>2021-08-03T11:54:07.904Z</time>
      </trkpt>
      <trkpt lat="46.99829" lon="8.86852">
        <ele>1548</ele>
        <time>2021-08-03T11:54:08.904Z</time>
      </trkpt>
      <trkpt lat="46.99828" lon="8.86853">
        <ele>1547</ele>
        <time>2021-08-03T11:54:09.905Z</time>
      </trkpt>
      <trkpt lat="46.99828" lon="8.86853">
        <ele>1547</ele>
        <time>2021-08-03T11:54:10.906Z</time>
      </trkpt>
      <trkpt lat="46.99829" lon="8.86851">
        <ele>1548</ele>
        <time>2021-08-03T11:54:11.907Z</time>
      </trkpt>
      <trkpt lat="46.9983" lon="8.86849">
        <ele>1548</ele>
        <time>2021-08-03T11:54:12.906Z</time>
      </trkpt>
      <trkpt lat="46.9983" lon="8.86848">
        <ele>1548</ele>
        <time>2021-08-03T11:54:13.906Z</time>
      </trkpt>
      <trkpt lat="46.9983" lon="8.86848">
        <ele>1548</ele>
        <time>2021-08-03T11:54:14.906Z</time>
      </trkpt>
      <trkpt lat="46.9983" lon="8.86848">
        <ele>1549</ele>
        <time>2021-08-03T11:54:15.906Z</time>
      </trkpt>
      <trkpt lat="46.9983" lon="8.86849">
        <ele>1548</ele>
        <time>2021-08-03T11:54:16.907Z</time>
      </trkpt>
      <trkpt lat="46.9983" lon="8.86849">
        <ele>1548</ele>
        <time>2021-08-03T11:54:17.906Z</time>
      </trkpt>
      <trkpt lat="46.99831" lon="8.86849">
        <ele>1548</ele>
        <time>2021-08-03T11:54:18.906Z</time>
      </trkpt>
      <trkpt lat="46.9983" lon="8.86849">
        <ele>1548</ele>
        <time>2021-08-03T11:54:19.907Z</time>
      </trkpt>
      <trkpt lat="46.9983" lon="8.86849">
        <ele>1548</ele>
        <time>2021-08-03T11:54:20.907Z</time>
      </trkpt>
      <trkpt lat="46.99828" lon="8.86848">
        <ele>1549</ele>
        <time>2021-08-03T11:54:21.907Z</time>
      </trkpt>
      <trkpt lat="46.99829" lon="8.86848">
        <ele>1548</ele>
        <time>2021-08-03T11:54:22.907Z</time>
      </trkpt>
      <trkpt lat="46.99829" lon="8.86847">
        <ele>1548</ele>
        <time>2021-08-03T11:54:23.907Z</time>
      </trkpt>
      <trkpt lat="46.99829" lon="8.86848">
        <ele>1548</ele>
        <time>2021-08-03T11:54:24.906Z</time>
      </trkpt>
      <trkpt lat="46.99829" lon="8.86848">
        <ele>1548</ele>
        <time>2021-08-03T11:54:25.906Z</time>
      </trkpt>
      <trkpt lat="46.99828" lon="8.86848">
        <ele>1548</ele>
        <time>2021-08-03T11:54:26.906Z</time>
      </trkpt>
      <trkpt lat="46.99828" lon="8.86847">
        <ele>1548</ele>
        <time>2021-08-03T11:54:27.907Z</time>
      </trkpt>
      <trkpt lat="46.99828" lon="8.86847">
        <ele>1548</ele>
        <time>2021-08-03T11:54:28.906Z</time>
      </trkpt>
      <trkpt lat="46.99828" lon="8.86846">
        <ele>1548</ele>
        <time>2021-08-03T11:54:29.907Z</time>
      </trkpt>
      <trkpt lat="46.99828" lon="8.86846">
        <ele>1548</ele>
        <time>2021-08-03T11:54:30.907Z</time>
      </trkpt>
      <trkpt lat="46.99828" lon="8.86847">
        <ele>1548</ele>
        <time>2021-08-03T11:54:31.907Z</time>
      </trkpt>
      <trkpt lat="46.99828" lon="8.86846">
        <ele>1548</ele>
        <time>2021-08-03T11:54:32.906Z</time>
      </trkpt>
      <trkpt lat="46.99828" lon="8.86845">
        <ele>1548</ele>
        <time>2021-08-03T11:54:33.907Z</time>
      </trkpt>
      <trkpt lat="46.99828" lon="8.86846">
        <ele>1548</ele>
        <time>2021-08-03T11:54:34.906Z</time>
      </trkpt>
      <trkpt lat="46.99827" lon="8.86846">
        <ele>1548</ele>
        <time>2021-08-03T11:54:35.906Z</time>
      </trkpt>
      <trkpt lat="46.99827" lon="8.86846">
        <ele>1548</ele>
        <time>2021-08-03T11:54:36.906Z</time>
      </trkpt>
      <trkpt lat="46.99827" lon="8.86847">
        <ele>1548</ele>
        <time>2021-08-03T11:54:37.906Z</time>
      </trkpt>
      <trkpt lat="46.99826" lon="8.86847">
        <ele>1548</ele>
        <time>2021-08-03T11:54:38.907Z</time>
      </trkpt>
      <trkpt lat="46.99826" lon="8.86847">
        <ele>1548</ele>
        <time>2021-08-03T11:54:39.907Z</time>
      </trkpt>
      <trkpt lat="46.99826" lon="8.86847">
        <ele>1548</ele>
        <time>2021-08-03T11:54:40.906Z</time>
      </trkpt>
      <trkpt lat="46.99826" lon="8.86846">
        <ele>1548</ele>
        <time>2021-08-03T11:54:41.907Z</time>
      </trkpt>
      <trkpt lat="46.99827" lon="8.86846">
        <ele>1548</ele>
        <time>2021-08-03T11:54:42.907Z</time>
      </trkpt>
      <trkpt lat="46.99828" lon="8.86846">
        <ele>1548</ele>
        <time>2021-08-03T11:54:43.907Z</time>
      </trkpt>
      <trkpt lat="46.99828" lon="8.86847">
        <ele>1548</ele>
        <time>2021-08-03T11:54:44.907Z</time>
      </trkpt>
      <trkpt lat="46.99828" lon="8.86847">
        <ele>1548</ele>
        <time>2021-08-03T11:54:45.906Z</time>
      </trkpt>
      <trkpt lat="46.99827" lon="8.86849">
        <ele>1548</ele>
        <time>2021-08-03T11:54:46.907Z</time>
      </trkpt>
      <trkpt lat="46.99827" lon="8.8685">
        <ele>1548</ele>
        <time>2021-08-03T11:54:47.907Z</time>
      </trkpt>
      <trkpt lat="46.99827" lon="8.86851">
        <ele>1548</ele>
        <time>2021-08-03T11:54:48.907Z</time>
      </trkpt>
      <trkpt lat="46.99826" lon="8.86852">
        <ele>1548</ele>
        <time>2021-08-03T11:54:49.906Z</time>
      </trkpt>
      <trkpt lat="46.99826" lon="8.86852">
        <ele>1548</ele>
        <time>2021-08-03T11:54:50.906Z</time>
      </trkpt>
      <trkpt lat="46.99826" lon="8.86852">
        <ele>1548</ele>
        <time>2021-08-03T11:54:51.906Z</time>
      </trkpt>
      <trkpt lat="46.99825" lon="8.86852">
        <ele>1548</ele>
        <time>2021-08-03T11:54:52.907Z</time>
      </trkpt>
      <trkpt lat="46.99825" lon="8.86852">
        <ele>1547</ele>
        <time>2021-08-03T11:54:53.906Z</time>
      </trkpt>
      <trkpt lat="46.99825" lon="8.86852">
        <ele>1547</ele>
        <time>2021-08-03T11:54:54.907Z</time>
      </trkpt>
      <trkpt lat="46.99824" lon="8.86852">
        <ele>1545</ele>
        <time>2021-08-03T11:54:55.907Z</time>
      </trkpt>
      <trkpt lat="46.99824" lon="8.86852">
        <ele>1545</ele>
        <time>2021-08-03T11:54:56.907Z</time>
      </trkpt>
      <trkpt lat="46.99822" lon="8.86851">
        <ele>1543</ele>
        <time>2021-08-03T11:54:57.907Z</time>
      </trkpt>
      <trkpt lat="46.99822" lon="8.86851">
        <ele>1543</ele>
        <time>2021-08-03T11:54:58.907Z</time>
      </trkpt>
      <trkpt lat="46.99822" lon="8.86852">
        <ele>1542</ele>
        <time>2021-08-03T11:54:59.908Z</time>
      </trkpt>
      <trkpt lat="46.99822" lon="8.86851">
        <ele>1542</ele>
        <time>2021-08-03T11:55:00.909Z</time>
      </trkpt>
      <trkpt lat="46.99822" lon="8.86851">
        <ele>1543</ele>
        <time>2021-08-03T11:55:01.908Z</time>
      </trkpt>
      <trkpt lat="46.99823" lon="8.86852">
        <ele>1543</ele>
        <time>2021-08-03T11:55:02.908Z</time>
      </trkpt>
      <trkpt lat="46.99825" lon="8.8685">
        <ele>1545</ele>
        <time>2021-08-03T11:55:03.909Z</time>
      </trkpt>
      <trkpt lat="46.99825" lon="8.8685">
        <ele>1546</ele>
        <time>2021-08-03T11:55:04.909Z</time>
      </trkpt>
      <trkpt lat="46.99825" lon="8.8685">
        <ele>1546</ele>
        <time>2021-08-03T11:55:05.908Z</time>
      </trkpt>
      <trkpt lat="46.99825" lon="8.86849">
        <ele>1546</ele>
        <time>2021-08-03T11:55:06.908Z</time>
      </trkpt>
      <trkpt lat="46.99825" lon="8.86849">
        <ele>1546</ele>
        <time>2021-08-03T11:55:07.909Z</time>
      </trkpt>
      <trkpt lat="46.99823" lon="8.86848">
        <ele>1546</ele>
        <time>2021-08-03T11:55:08.909Z</time>
      </trkpt>
      <trkpt lat="46.99823" lon="8.86849">
        <ele>1546</ele>
        <time>2021-08-03T11:55:09.909Z</time>
      </trkpt>
      <trkpt lat="46.99823" lon="8.8685">
        <ele>1547</ele>
        <time>2021-08-03T11:55:10.909Z</time>
      </trkpt>
      <trkpt lat="46.99824" lon="8.86848">
        <ele>1548</ele>
        <time>2021-08-03T11:55:11.908Z</time>
      </trkpt>
      <trkpt lat="46.99825" lon="8.86845">
        <ele>1548</ele>
        <time>2021-08-03T11:55:12.908Z</time>
      </trkpt>
      <trkpt lat="46.99826" lon="8.86844">
        <ele>1548</ele>
        <time>2021-08-03T11:55:13.909Z</time>
      </trkpt>
      <trkpt lat="46.99826" lon="8.86843">
        <ele>1547</ele>
        <time>2021-08-03T11:55:14.908Z</time>
      </trkpt>
      <trkpt lat="46.99823" lon="8.86844">
        <ele>1547</ele>
        <time>2021-08-03T11:55:15.909Z</time>
      </trkpt>
      <trkpt lat="46.99823" lon="8.86845">
        <ele>1548</ele>
        <time>2021-08-03T11:55:16.908Z</time>
      </trkpt>
      <trkpt lat="46.99823" lon="8.86845">
        <ele>1548</ele>
        <time>2021-08-03T11:55:17.908Z</time>
      </trkpt>
      <trkpt lat="46.99823" lon="8.86844">
        <ele>1549</ele>
        <time>2021-08-03T11:55:18.908Z</time>
      </trkpt>
      <trkpt lat="46.99823" lon="8.86844">
        <ele>1549</ele>
        <time>2021-08-03T11:55:19.908Z</time>
      </trkpt>
      <trkpt lat="46.99824" lon="8.86843">
        <ele>1548</ele>
        <time>2021-08-03T11:55:20.908Z</time>
      </trkpt>
      <trkpt lat="46.99824" lon="8.86843">
        <ele>1547</ele>
        <time>2021-08-03T11:55:21.909Z</time>
      </trkpt>
      <trkpt lat="46.99825" lon="8.86843">
        <ele>1547</ele>
        <time>2021-08-03T11:55:22.908Z</time>
      </trkpt>
      <trkpt lat="46.99825" lon="8.8684">
        <ele>1540</ele>
        <time>2021-08-03T11:55:23.909Z</time>
      </trkpt>
      <trkpt lat="46.99825" lon="8.8684">
        <ele>1540</ele>
        <time>2021-08-03T11:55:24.908Z</time>
      </trkpt>
      <trkpt lat="46.99828" lon="8.86839">
        <ele>1541</ele>
        <time>2021-08-03T11:55:25.908Z</time>
      </trkpt>
      <trkpt lat="46.99828" lon="8.8684">
        <ele>1542</ele>
        <time>2021-08-03T11:55:26.908Z</time>
      </trkpt>
      <trkpt lat="46.99828" lon="8.8684">
        <ele>1543</ele>
        <time>2021-08-03T11:55:27.908Z</time>
      </trkpt>
      <trkpt lat="46.99829" lon="8.8684">
        <ele>1546</ele>
        <time>2021-08-03T11:55:28.908Z</time>
      </trkpt>
      <trkpt lat="46.99829" lon="8.86841">
        <ele>1546</ele>
        <time>2021-08-03T11:55:29.908Z</time>
      </trkpt>
      <trkpt lat="46.99828" lon="8.86842">
        <ele>1547</ele>
        <time>2021-08-03T11:55:30.908Z</time>
      </trkpt>
      <trkpt lat="46.99829" lon="8.86841">
        <ele>1547</ele>
        <time>2021-08-03T11:55:31.910Z</time>
      </trkpt>
      <trkpt lat="46.99829" lon="8.86841">
        <ele>1547</ele>
        <time>2021-08-03T11:55:32.910Z</time>
      </trkpt>
      <trkpt lat="46.99828" lon="8.86841">
        <ele>1547</ele>
        <time>2021-08-03T11:55:33.910Z</time>
      </trkpt>
      <trkpt lat="46.99828" lon="8.8684">
        <ele>1548</ele>
        <time>2021-08-03T11:55:34.909Z</time>
      </trkpt>
      <trkpt lat="46.99828" lon="8.8684">
        <ele>1548</ele>
        <time>2021-08-03T11:55:35.909Z</time>
      </trkpt>
      <trkpt lat="46.99828" lon="8.86841">
        <ele>1549</ele>
        <time>2021-08-03T11:55:36.910Z</time>
      </trkpt>
      <trkpt lat="46.99828" lon="8.86841">
        <ele>1549</ele>
        <time>2021-08-03T11:55:37.909Z</time>
      </trkpt>
      <trkpt lat="46.99828" lon="8.86841">
        <ele>1550</ele>
        <time>2021-08-03T11:55:38.909Z</time>
      </trkpt>
      <trkpt lat="46.99829" lon="8.86841">
        <ele>1550</ele>
        <time>2021-08-03T11:55:39.909Z</time>
      </trkpt>
      <trkpt lat="46.99829" lon="8.8684">
        <ele>1550</ele>
        <time>2021-08-03T11:55:40.910Z</time>
      </trkpt>
      <trkpt lat="46.99829" lon="8.86839">
        <ele>1549</ele>
        <time>2021-08-03T11:55:41.910Z</time>
      </trkpt>
      <trkpt lat="46.9983" lon="8.86837">
        <ele>1548</ele>
        <time>2021-08-03T11:55:42.909Z</time>
      </trkpt>
      <trkpt lat="46.9983" lon="8.86835">
        <ele>1547</ele>
        <time>2021-08-03T11:55:43.909Z</time>
      </trkpt>
      <trkpt lat="46.9983" lon="8.86834">
        <ele>1547</ele>
        <time>2021-08-03T11:55:44.909Z</time>
      </trkpt>
      <trkpt lat="46.9983" lon="8.86835">
        <ele>1546</ele>
        <time>2021-08-03T11:55:45.909Z</time>
      </trkpt>
      <trkpt lat="46.9983" lon="8.86836">
        <ele>1545</ele>
        <time>2021-08-03T11:55:46.910Z</time>
      </trkpt>
      <trkpt lat="46.9983" lon="8.86836">
        <ele>1544</ele>
        <time>2021-08-03T11:55:47.910Z</time>
      </trkpt>
      <trkpt lat="46.99831" lon="8.86834">
        <ele>1540</ele>
        <time>2021-08-03T11:55:48.910Z</time>
      </trkpt>
      <trkpt lat="46.99829" lon="8.86833">
        <ele>1538</ele>
        <time>2021-08-03T11:55:49.911Z</time>
      </trkpt>
      <trkpt lat="46.99829" lon="8.86833">
        <ele>1537</ele>
        <time>2021-08-03T11:55:50.911Z</time>
      </trkpt>
      <trkpt lat="46.99828" lon="8.86831">
        <ele>1537</ele>
        <time>2021-08-03T11:55:51.912Z</time>
      </trkpt>
      <trkpt lat="46.99827" lon="8.8683">
        <ele>1536</ele>
        <time>2021-08-03T11:55:52.911Z</time>
      </trkpt>
      <trkpt lat="46.99827" lon="8.86829">
        <ele>1536</ele>
        <time>2021-08-03T11:55:53.911Z</time>
      </trkpt>
      <trkpt lat="46.99826" lon="8.86828">
        <ele>1535</ele>
        <time>2021-08-03T11:55:54.911Z</time>
      </trkpt>
      <trkpt lat="46.99826" lon="8.86827">
        <ele>1535</ele>
        <time>2021-08-03T11:55:55.912Z</time>
      </trkpt>
      <trkpt lat="46.99825" lon="8.86826">
        <ele>1534</ele>
        <time>2021-08-03T11:55:56.912Z</time>
      </trkpt>
      <trkpt lat="46.99824" lon="8.86826">
        <ele>1534</ele>
        <time>2021-08-03T11:55:57.911Z</time>
      </trkpt>
      <trkpt lat="46.99823" lon="8.86826">
        <ele>1534</ele>
        <time>2021-08-03T11:55:58.911Z</time>
      </trkpt>
      <trkpt lat="46.99822" lon="8.86826">
        <ele>1535</ele>
        <time>2021-08-03T11:55:59.912Z</time>
      </trkpt>
      <trkpt lat="46.99821" lon="8.86825">
        <ele>1535</ele>
        <time>2021-08-03T11:56:00.912Z</time>
      </trkpt>
      <trkpt lat="46.99821" lon="8.86823">
        <ele>1536</ele>
        <time>2021-08-03T11:56:01.912Z</time>
      </trkpt>
      <trkpt lat="46.9982" lon="8.86823">
        <ele>1536</ele>
        <time>2021-08-03T11:56:02.911Z</time>
      </trkpt>
      <trkpt lat="46.99819" lon="8.86821">
        <ele>1536</ele>
        <time>2021-08-03T11:56:03.912Z</time>
      </trkpt>
      <trkpt lat="46.99818" lon="8.86819">
        <ele>1537</ele>
        <time>2021-08-03T11:56:04.912Z</time>
      </trkpt>
      <trkpt lat="46.99818" lon="8.86818">
        <ele>1537</ele>
        <time>2021-08-03T11:56:05.912Z</time>
      </trkpt>
      <trkpt lat="46.99817" lon="8.86817">
        <ele>1537</ele>
        <time>2021-08-03T11:56:06.912Z</time>
      </trkpt>
      <trkpt lat="46.99816" lon="8.86817">
        <ele>1536</ele>
        <time>2021-08-03T11:56:07.911Z</time>
      </trkpt>
      <trkpt lat="46.99815" lon="8.86815">
        <ele>1536</ele>
        <time>2021-08-03T11:56:08.912Z</time>
      </trkpt>
      <trkpt lat="46.99815" lon="8.86813">
        <ele>1536</ele>
        <time>2021-08-03T11:56:09.912Z</time>
      </trkpt>
      <trkpt lat="46.99814" lon="8.86812">
        <ele>1536</ele>
        <time>2021-08-03T11:56:10.912Z</time>
      </trkpt>
      <trkpt lat="46.99814" lon="8.86811">
        <ele>1536</ele>
        <time>2021-08-03T11:56:11.912Z</time>
      </trkpt>
      <trkpt lat="46.99813" lon="8.86809">
        <ele>1536</ele>
        <time>2021-08-03T11:56:12.912Z</time>
      </trkpt>
      <trkpt lat="46.99813" lon="8.86809">
        <ele>1536</ele>
        <time>2021-08-03T11:56:13.912Z</time>
      </trkpt>
      <trkpt lat="46.99812" lon="8.86808">
        <ele>1536</ele>
        <time>2021-08-03T11:56:14.912Z</time>
      </trkpt>
      <trkpt lat="46.99811" lon="8.86807">
        <ele>1536</ele>
        <time>2021-08-03T11:56:15.912Z</time>
      </trkpt>
      <trkpt lat="46.99809" lon="8.86808">
        <ele>1537</ele>
        <time>2021-08-03T11:56:16.912Z</time>
      </trkpt>
      <trkpt lat="46.99808" lon="8.86807">
        <ele>1538</ele>
        <time>2021-08-03T11:56:17.912Z</time>
      </trkpt>
      <trkpt lat="46.99808" lon="8.86808">
        <ele>1539</ele>
        <time>2021-08-03T11:56:18.912Z</time>
      </trkpt>
      <trkpt lat="46.99811" lon="8.86812">
        <ele>1539</ele>
        <time>2021-08-03T11:56:19.912Z</time>
      </trkpt>
      <trkpt lat="46.99811" lon="8.8681">
        <ele>1536</ele>
        <time>2021-08-03T11:56:20.914Z</time>
      </trkpt>
      <trkpt lat="46.9981" lon="8.86809">
        <ele>1537</ele>
        <time>2021-08-03T11:56:21.913Z</time>
      </trkpt>
      <trkpt lat="46.9981" lon="8.86807">
        <ele>1537</ele>
        <time>2021-08-03T11:56:22.914Z</time>
      </trkpt>
      <trkpt lat="46.9981" lon="8.86806">
        <ele>1537</ele>
        <time>2021-08-03T11:56:23.913Z</time>
      </trkpt>
      <trkpt lat="46.99809" lon="8.86804">
        <ele>1537</ele>
        <time>2021-08-03T11:56:24.914Z</time>
      </trkpt>
      <trkpt lat="46.99808" lon="8.86803">
        <ele>1537</ele>
        <time>2021-08-03T11:56:25.914Z</time>
      </trkpt>
      <trkpt lat="46.99808" lon="8.86802">
        <ele>1537</ele>
        <time>2021-08-03T11:56:26.914Z</time>
      </trkpt>
      <trkpt lat="46.99807" lon="8.868">
        <ele>1537</ele>
        <time>2021-08-03T11:56:27.913Z</time>
      </trkpt>
      <trkpt lat="46.99806" lon="8.86799">
        <ele>1537</ele>
        <time>2021-08-03T11:56:28.914Z</time>
      </trkpt>
      <trkpt lat="46.99805" lon="8.86799">
        <ele>1537</ele>
        <time>2021-08-03T11:56:29.914Z</time>
      </trkpt>
      <trkpt lat="46.99805" lon="8.868">
        <ele>1537</ele>
        <time>2021-08-03T11:56:30.914Z</time>
      </trkpt>
      <trkpt lat="46.99805" lon="8.868">
        <ele>1537</ele>
        <time>2021-08-03T11:56:31.913Z</time>
      </trkpt>
      <trkpt lat="46.99805" lon="8.86799">
        <ele>1533</ele>
        <time>2021-08-03T11:56:32.914Z</time>
      </trkpt>
      <trkpt lat="46.99804" lon="8.86798">
        <ele>1533</ele>
        <time>2021-08-03T11:56:33.915Z</time>
      </trkpt>
      <trkpt lat="46.99803" lon="8.86797">
        <ele>1533</ele>
        <time>2021-08-03T11:56:34.915Z</time>
      </trkpt>
      <trkpt lat="46.99802" lon="8.86797">
        <ele>1533</ele>
        <time>2021-08-03T11:56:35.914Z</time>
      </trkpt>
      <trkpt lat="46.99802" lon="8.86797">
        <ele>1533</ele>
        <time>2021-08-03T11:56:36.914Z</time>
      </trkpt>
      <trkpt lat="46.99801" lon="8.86797">
        <ele>1533</ele>
        <time>2021-08-03T11:56:37.914Z</time>
      </trkpt>
      <trkpt lat="46.99801" lon="8.86796">
        <ele>1533</ele>
        <time>2021-08-03T11:56:38.914Z</time>
      </trkpt>
      <trkpt lat="46.99801" lon="8.86796">
        <ele>1534</ele>
        <time>2021-08-03T11:56:39.914Z</time>
      </trkpt>
      <trkpt lat="46.99801" lon="8.86796">
        <ele>1534</ele>
        <time>2021-08-03T11:56:40.915Z</time>
      </trkpt>
      <trkpt lat="46.998" lon="8.86795">
        <ele>1539</ele>
        <time>2021-08-03T11:56:41.916Z</time>
      </trkpt>
      <trkpt lat="46.99799" lon="8.86795">
        <ele>1540</ele>
        <time>2021-08-03T11:56:42.916Z</time>
      </trkpt>
      <trkpt lat="46.99799" lon="8.86794">
        <ele>1540</ele>
        <time>2021-08-03T11:56:43.917Z</time>
      </trkpt>
      <trkpt lat="46.99798" lon="8.86793">
        <ele>1541</ele>
        <time>2021-08-03T11:56:44.916Z</time>
      </trkpt>
      <trkpt lat="46.99797" lon="8.86792">
        <ele>1541</ele>
        <time>2021-08-03T11:56:45.916Z</time>
      </trkpt>
      <trkpt lat="46.99797" lon="8.86791">
        <ele>1542</ele>
        <time>2021-08-03T11:56:46.916Z</time>
      </trkpt>
      <trkpt lat="46.99797" lon="8.8679">
        <ele>1542</ele>
        <time>2021-08-03T11:56:47.916Z</time>
      </trkpt>
      <trkpt lat="46.99796" lon="8.86789">
        <ele>1543</ele>
        <time>2021-08-03T11:56:48.916Z</time>
      </trkpt>
      <trkpt lat="46.99796" lon="8.86787">
        <ele>1543</ele>
        <time>2021-08-03T11:56:49.916Z</time>
      </trkpt>
      <trkpt lat="46.99795" lon="8.86786">
        <ele>1543</ele>
        <time>2021-08-03T11:56:50.916Z</time>
      </trkpt>
      <trkpt lat="46.99794" lon="8.86785">
        <ele>1543</ele>
        <time>2021-08-03T11:56:51.916Z</time>
      </trkpt>
      <trkpt lat="46.99793" lon="8.86784">
        <ele>1544</ele>
        <time>2021-08-03T11:56:52.916Z</time>
      </trkpt>
      <trkpt lat="46.99793" lon="8.86783">
        <ele>1544</ele>
        <time>2021-08-03T11:56:53.916Z</time>
      </trkpt>
      <trkpt lat="46.99792" lon="8.86782">
        <ele>1544</ele>
        <time>2021-08-03T11:56:54.916Z</time>
      </trkpt>
      <trkpt lat="46.99791" lon="8.86781">
        <ele>1544</ele>
        <time>2021-08-03T11:56:55.917Z</time>
      </trkpt>
      <trkpt lat="46.99791" lon="8.8678">
        <ele>1544</ele>
        <time>2021-08-03T11:56:56.916Z</time>
      </trkpt>
      <trkpt lat="46.9979" lon="8.86778">
        <ele>1544</ele>
        <time>2021-08-03T11:56:57.916Z</time>
      </trkpt>
      <trkpt lat="46.9979" lon="8.86776">
        <ele>1544</ele>
        <time>2021-08-03T11:56:58.916Z</time>
      </trkpt>
      <trkpt lat="46.99789" lon="8.86775">
        <ele>1544</ele>
        <time>2021-08-03T11:56:59.916Z</time>
      </trkpt>
      <trkpt lat="46.99788" lon="8.86774">
        <ele>1544</ele>
        <time>2021-08-03T11:57:00.917Z</time>
      </trkpt>
      <trkpt lat="46.99788" lon="8.86773">
        <ele>1544</ele>
        <time>2021-08-03T11:57:01.916Z</time>
      </trkpt>
      <trkpt lat="46.99787" lon="8.86773">
        <ele>1543</ele>
        <time>2021-08-03T11:57:02.917Z</time>
      </trkpt>
      <trkpt lat="46.99786" lon="8.86771">
        <ele>1543</ele>
        <time>2021-08-03T11:57:03.916Z</time>
      </trkpt>
      <trkpt lat="46.99786" lon="8.8677">
        <ele>1543</ele>
        <time>2021-08-03T11:57:04.917Z</time>
      </trkpt>
      <trkpt lat="46.99785" lon="8.8677">
        <ele>1543</ele>
        <time>2021-08-03T11:57:05.916Z</time>
      </trkpt>
      <trkpt lat="46.99784" lon="8.86769">
        <ele>1543</ele>
        <time>2021-08-03T11:57:06.917Z</time>
      </trkpt>
      <trkpt lat="46.99783" lon="8.86768">
        <ele>1544</ele>
        <time>2021-08-03T11:57:07.916Z</time>
      </trkpt>
      <trkpt lat="46.99783" lon="8.86766">
        <ele>1544</ele>
        <time>2021-08-03T11:57:08.916Z</time>
      </trkpt>
      <trkpt lat="46.99782" lon="8.86765">
        <ele>1544</ele>
        <time>2021-08-03T11:57:09.916Z</time>
      </trkpt>
      <trkpt lat="46.99781" lon="8.86764">
        <ele>1544</ele>
        <time>2021-08-03T11:57:10.916Z</time>
      </trkpt>
      <trkpt lat="46.9978" lon="8.86763">
        <ele>1544</ele>
        <time>2021-08-03T11:57:11.916Z</time>
      </trkpt>
      <trkpt lat="46.9978" lon="8.86761">
        <ele>1544</ele>
        <time>2021-08-03T11:57:12.916Z</time>
      </trkpt>
      <trkpt lat="46.99779" lon="8.8676">
        <ele>1543</ele>
        <time>2021-08-03T11:57:13.916Z</time>
      </trkpt>
      <trkpt lat="46.99779" lon="8.86759">
        <ele>1543</ele>
        <time>2021-08-03T11:57:18.046Z</time>
      </trkpt>
      <trkpt lat="46.99778" lon="8.86758">
        <ele>1543</ele>
        <time>2021-08-03T11:57:19.046Z</time>
      </trkpt>
      <trkpt lat="46.99778" lon="8.86757">
        <ele>1542</ele>
        <time>2021-08-03T11:57:20.045Z</time>
      </trkpt>
      <trkpt lat="46.99777" lon="8.86755">
        <ele>1542</ele>
        <time>2021-08-03T11:57:21.045Z</time>
      </trkpt>
      <trkpt lat="46.99777" lon="8.86753">
        <ele>1542</ele>
        <time>2021-08-03T11:57:22.045Z</time>
      </trkpt>
      <trkpt lat="46.99776" lon="8.86752">
        <ele>1542</ele>
        <time>2021-08-03T11:57:23.045Z</time>
      </trkpt>
      <trkpt lat="46.99775" lon="8.86751">
        <ele>1541</ele>
        <time>2021-08-03T11:57:24.046Z</time>
      </trkpt>
      <trkpt lat="46.99775" lon="8.8675">
        <ele>1541</ele>
        <time>2021-08-03T11:57:25.045Z</time>
      </trkpt>
      <trkpt lat="46.99774" lon="8.86749">
        <ele>1541</ele>
        <time>2021-08-03T11:57:26.046Z</time>
      </trkpt>
      <trkpt lat="46.99773" lon="8.86748">
        <ele>1541</ele>
        <time>2021-08-03T11:57:27.045Z</time>
      </trkpt>
      <trkpt lat="46.99773" lon="8.86747">
        <ele>1541</ele>
        <time>2021-08-03T11:57:28.046Z</time>
      </trkpt>
      <trkpt lat="46.99772" lon="8.86746">
        <ele>1541</ele>
        <time>2021-08-03T11:57:29.046Z</time>
      </trkpt>
      <trkpt lat="46.99772" lon="8.86745">
        <ele>1541</ele>
        <time>2021-08-03T11:57:30.045Z</time>
      </trkpt>
      <trkpt lat="46.99771" lon="8.86745">
        <ele>1541</ele>
        <time>2021-08-03T11:57:31.046Z</time>
      </trkpt>
      <trkpt lat="46.9977" lon="8.86745">
        <ele>1541</ele>
        <time>2021-08-03T11:57:32.045Z</time>
      </trkpt>
      <trkpt lat="46.99769" lon="8.86744">
        <ele>1542</ele>
        <time>2021-08-03T11:57:33.045Z</time>
      </trkpt>
      <trkpt lat="46.99768" lon="8.86743">
        <ele>1542</ele>
        <time>2021-08-03T11:57:34.045Z</time>
      </trkpt>
      <trkpt lat="46.99767" lon="8.86742">
        <ele>1541</ele>
        <time>2021-08-03T11:57:35.046Z</time>
      </trkpt>
      <trkpt lat="46.99767" lon="8.86741">
        <ele>1541</ele>
        <time>2021-08-03T11:57:36.046Z</time>
      </trkpt>
      <trkpt lat="46.99766" lon="8.86741">
        <ele>1540</ele>
        <time>2021-08-03T11:57:37.046Z</time>
      </trkpt>
      <trkpt lat="46.99765" lon="8.8674">
        <ele>1540</ele>
        <time>2021-08-03T11:57:38.046Z</time>
      </trkpt>
      <trkpt lat="46.99764" lon="8.8674">
        <ele>1540</ele>
        <time>2021-08-03T11:57:39.045Z</time>
      </trkpt>
      <trkpt lat="46.99763" lon="8.86739">
        <ele>1539</ele>
        <time>2021-08-03T11:57:40.045Z</time>
      </trkpt>
      <trkpt lat="46.99762" lon="8.86738">
        <ele>1539</ele>
        <time>2021-08-03T11:57:41.045Z</time>
      </trkpt>
      <trkpt lat="46.99762" lon="8.86737">
        <ele>1538</ele>
        <time>2021-08-03T11:57:42.046Z</time>
      </trkpt>
      <trkpt lat="46.99761" lon="8.86736">
        <ele>1538</ele>
        <time>2021-08-03T11:57:43.045Z</time>
      </trkpt>
      <trkpt lat="46.99761" lon="8.86735">
        <ele>1537</ele>
        <time>2021-08-03T11:57:44.045Z</time>
      </trkpt>
      <trkpt lat="46.9976" lon="8.86734">
        <ele>1537</ele>
        <time>2021-08-03T11:57:45.045Z</time>
      </trkpt>
      <trkpt lat="46.99759" lon="8.86733">
        <ele>1537</ele>
        <time>2021-08-03T11:57:46.045Z</time>
      </trkpt>
      <trkpt lat="46.99759" lon="8.86732">
        <ele>1537</ele>
        <time>2021-08-03T11:57:47.045Z</time>
      </trkpt>
      <trkpt lat="46.99757" lon="8.86732">
        <ele>1537</ele>
        <time>2021-08-03T11:57:48.046Z</time>
      </trkpt>
      <trkpt lat="46.99756" lon="8.86731">
        <ele>1537</ele>
        <time>2021-08-03T11:57:49.045Z</time>
      </trkpt>
      <trkpt lat="46.99755" lon="8.86731">
        <ele>1538</ele>
        <time>2021-08-03T11:57:50.045Z</time>
      </trkpt>
      <trkpt lat="46.99755" lon="8.86731">
        <ele>1539</ele>
        <time>2021-08-03T11:57:51.045Z</time>
      </trkpt>
      <trkpt lat="46.99752" lon="8.86732">
        <ele>1539</ele>
        <time>2021-08-03T11:57:52.045Z</time>
      </trkpt>
      <trkpt lat="46.99752" lon="8.86731">
        <ele>1539</ele>
        <time>2021-08-03T11:57:53.045Z</time>
      </trkpt>
      <trkpt lat="46.99752" lon="8.86729">
        <ele>1540</ele>
        <time>2021-08-03T11:57:54.045Z</time>
      </trkpt>
      <trkpt lat="46.99751" lon="8.86728">
        <ele>1539</ele>
        <time>2021-08-03T11:57:55.045Z</time>
      </trkpt>
      <trkpt lat="46.99751" lon="8.86727">
        <ele>1539</ele>
        <time>2021-08-03T11:57:56.045Z</time>
      </trkpt>
      <trkpt lat="46.9975" lon="8.86726">
        <ele>1539</ele>
        <time>2021-08-03T11:57:57.045Z</time>
      </trkpt>
      <trkpt lat="46.99749" lon="8.86726">
        <ele>1539</ele>
        <time>2021-08-03T11:57:58.045Z</time>
      </trkpt>
      <trkpt lat="46.99748" lon="8.86725">
        <ele>1539</ele>
        <time>2021-08-03T11:57:59.045Z</time>
      </trkpt>
      <trkpt lat="46.99747" lon="8.86724">
        <ele>1539</ele>
        <time>2021-08-03T11:58:00.045Z</time>
      </trkpt>
      <trkpt lat="46.99746" lon="8.86724">
        <ele>1539</ele>
        <time>2021-08-03T11:58:01.045Z</time>
      </trkpt>
      <trkpt lat="46.99746" lon="8.86723">
        <ele>1539</ele>
        <time>2021-08-03T11:58:02.045Z</time>
      </trkpt>
      <trkpt lat="46.99745" lon="8.86721">
        <ele>1539</ele>
        <time>2021-08-03T11:58:03.045Z</time>
      </trkpt>
      <trkpt lat="46.99745" lon="8.86718">
        <ele>1539</ele>
        <time>2021-08-03T11:58:04.045Z</time>
      </trkpt>
      <trkpt lat="46.99744" lon="8.86718">
        <ele>1539</ele>
        <time>2021-08-03T11:58:05.045Z</time>
      </trkpt>
      <trkpt lat="46.99743" lon="8.86717">
        <ele>1539</ele>
        <time>2021-08-03T11:58:06.045Z</time>
      </trkpt>
      <trkpt lat="46.99742" lon="8.86716">
        <ele>1538</ele>
        <time>2021-08-03T11:58:07.045Z</time>
      </trkpt>
      <trkpt lat="46.99741" lon="8.86716">
        <ele>1538</ele>
        <time>2021-08-03T11:58:08.045Z</time>
      </trkpt>
      <trkpt lat="46.99739" lon="8.86715">
        <ele>1538</ele>
        <time>2021-08-03T11:58:09.045Z</time>
      </trkpt>
      <trkpt lat="46.99738" lon="8.86715">
        <ele>1538</ele>
        <time>2021-08-03T11:58:10.045Z</time>
      </trkpt>
      <trkpt lat="46.99737" lon="8.86714">
        <ele>1538</ele>
        <time>2021-08-03T11:58:11.045Z</time>
      </trkpt>
      <trkpt lat="46.99735" lon="8.86714">
        <ele>1538</ele>
        <time>2021-08-03T11:58:12.045Z</time>
      </trkpt>
      <trkpt lat="46.99733" lon="8.86715">
        <ele>1539</ele>
        <time>2021-08-03T11:58:13.045Z</time>
      </trkpt>
      <trkpt lat="46.99732" lon="8.86715">
        <ele>1539</ele>
        <time>2021-08-03T11:58:14.045Z</time>
      </trkpt>
      <trkpt lat="46.9973" lon="8.86715">
        <ele>1539</ele>
        <time>2021-08-03T11:58:15.045Z</time>
      </trkpt>
      <trkpt lat="46.99729" lon="8.86715">
        <ele>1539</ele>
        <time>2021-08-03T11:58:16.045Z</time>
      </trkpt>
      <trkpt lat="46.99727" lon="8.86715">
        <ele>1540</ele>
        <time>2021-08-03T11:58:17.045Z</time>
      </trkpt>
      <trkpt lat="46.99726" lon="8.86716">
        <ele>1540</ele>
        <time>2021-08-03T11:58:18.045Z</time>
      </trkpt>
      <trkpt lat="46.99725" lon="8.86716">
        <ele>1540</ele>
        <time>2021-08-03T11:58:19.045Z</time>
      </trkpt>
      <trkpt lat="46.99723" lon="8.86717">
        <ele>1541</ele>
        <time>2021-08-03T11:58:20.045Z</time>
      </trkpt>
      <trkpt lat="46.99722" lon="8.86718">
        <ele>1541</ele>
        <time>2021-08-03T11:58:21.045Z</time>
      </trkpt>
      <trkpt lat="46.99721" lon="8.86718">
        <ele>1541</ele>
        <time>2021-08-03T11:58:22.046Z</time>
      </trkpt>
      <trkpt lat="46.99719" lon="8.86719">
        <ele>1542</ele>
        <time>2021-08-03T11:58:23.046Z</time>
      </trkpt>
      <trkpt lat="46.99718" lon="8.86719">
        <ele>1542</ele>
        <time>2021-08-03T11:58:24.045Z</time>
      </trkpt>
      <trkpt lat="46.99717" lon="8.86719">
        <ele>1543</ele>
        <time>2021-08-03T11:58:25.046Z</time>
      </trkpt>
      <trkpt lat="46.99716" lon="8.86719">
        <ele>1543</ele>
        <time>2021-08-03T11:58:26.046Z</time>
      </trkpt>
      <trkpt lat="46.99715" lon="8.8672">
        <ele>1543</ele>
        <time>2021-08-03T11:58:27.045Z</time>
      </trkpt>
      <trkpt lat="46.99713" lon="8.8672">
        <ele>1543</ele>
        <time>2021-08-03T11:58:28.046Z</time>
      </trkpt>
      <trkpt lat="46.99712" lon="8.86721">
        <ele>1543</ele>
        <time>2021-08-03T11:58:29.045Z</time>
      </trkpt>
      <trkpt lat="46.9971" lon="8.86721">
        <ele>1543</ele>
        <time>2021-08-03T11:58:30.045Z</time>
      </trkpt>
      <trkpt lat="46.99709" lon="8.86721">
        <ele>1543</ele>
        <time>2021-08-03T11:58:31.045Z</time>
      </trkpt>
      <trkpt lat="46.99708" lon="8.86721">
        <ele>1543</ele>
        <time>2021-08-03T11:58:32.045Z</time>
      </trkpt>
      <trkpt lat="46.99706" lon="8.86721">
        <ele>1543</ele>
        <time>2021-08-03T11:58:33.045Z</time>
      </trkpt>
      <trkpt lat="46.99705" lon="8.86721">
        <ele>1543</ele>
        <time>2021-08-03T11:58:34.045Z</time>
      </trkpt>
      <trkpt lat="46.99703" lon="8.86721">
        <ele>1544</ele>
        <time>2021-08-03T11:58:35.045Z</time>
      </trkpt>
      <trkpt lat="46.99702" lon="8.86721">
        <ele>1544</ele>
        <time>2021-08-03T11:58:36.046Z</time>
      </trkpt>
      <trkpt lat="46.997" lon="8.86721">
        <ele>1543</ele>
        <time>2021-08-03T11:58:37.046Z</time>
      </trkpt>
      <trkpt lat="46.99699" lon="8.86721">
        <ele>1543</ele>
        <time>2021-08-03T11:58:38.046Z</time>
      </trkpt>
      <trkpt lat="46.99698" lon="8.86721">
        <ele>1543</ele>
        <time>2021-08-03T11:58:39.046Z</time>
      </trkpt>
      <trkpt lat="46.99696" lon="8.86721">
        <ele>1542</ele>
        <time>2021-08-03T11:58:40.045Z</time>
      </trkpt>
      <trkpt lat="46.99695" lon="8.86721">
        <ele>1542</ele>
        <time>2021-08-03T11:58:41.045Z</time>
      </trkpt>
      <trkpt lat="46.99694" lon="8.86722">
        <ele>1541</ele>
        <time>2021-08-03T11:58:42.045Z</time>
      </trkpt>
      <trkpt lat="46.99693" lon="8.86722">
        <ele>1541</ele>
        <time>2021-08-03T11:58:43.046Z</time>
      </trkpt>
      <trkpt lat="46.99692" lon="8.86723">
        <ele>1541</ele>
        <time>2021-08-03T11:58:44.045Z</time>
      </trkpt>
      <trkpt lat="46.9969" lon="8.86723">
        <ele>1541</ele>
        <time>2021-08-03T11:58:45.045Z</time>
      </trkpt>
      <trkpt lat="46.99689" lon="8.86724">
        <ele>1541</ele>
        <time>2021-08-03T11:58:46.045Z</time>
      </trkpt>
      <trkpt lat="46.99688" lon="8.86724">
        <ele>1541</ele>
        <time>2021-08-03T11:58:47.046Z</time>
      </trkpt>
      <trkpt lat="46.99686" lon="8.86724">
        <ele>1541</ele>
        <time>2021-08-03T11:58:48.045Z</time>
      </trkpt>
      <trkpt lat="46.99685" lon="8.86725">
        <ele>1541</ele>
        <time>2021-08-03T11:58:49.045Z</time>
      </trkpt>
      <trkpt lat="46.99684" lon="8.86724">
        <ele>1541</ele>
        <time>2021-08-03T11:58:50.045Z</time>
      </trkpt>
      <trkpt lat="46.99683" lon="8.86724">
        <ele>1541</ele>
        <time>2021-08-03T11:58:51.045Z</time>
      </trkpt>
      <trkpt lat="46.99682" lon="8.86724">
        <ele>1541</ele>
        <time>2021-08-03T11:58:52.045Z</time>
      </trkpt>
      <trkpt lat="46.9968" lon="8.86724">
        <ele>1540</ele>
        <time>2021-08-03T11:58:53.045Z</time>
      </trkpt>
      <trkpt lat="46.99679" lon="8.86724">
        <ele>1540</ele>
        <time>2021-08-03T11:58:54.045Z</time>
      </trkpt>
      <trkpt lat="46.99678" lon="8.86724">
        <ele>1540</ele>
        <time>2021-08-03T11:58:55.045Z</time>
      </trkpt>
      <trkpt lat="46.99677" lon="8.86725">
        <ele>1540</ele>
        <time>2021-08-03T11:58:56.045Z</time>
      </trkpt>
      <trkpt lat="46.99675" lon="8.86725">
        <ele>1541</ele>
        <time>2021-08-03T11:58:57.046Z</time>
      </trkpt>
      <trkpt lat="46.99674" lon="8.86725">
        <ele>1541</ele>
        <time>2021-08-03T11:58:58.045Z</time>
      </trkpt>
      <trkpt lat="46.99673" lon="8.86725">
        <ele>1542</ele>
        <time>2021-08-03T11:58:59.045Z</time>
      </trkpt>
      <trkpt lat="46.99671" lon="8.86725">
        <ele>1542</ele>
        <time>2021-08-03T11:59:00.045Z</time>
      </trkpt>
      <trkpt lat="46.9967" lon="8.86725">
        <ele>1543</ele>
        <time>2021-08-03T11:59:01.045Z</time>
      </trkpt>
      <trkpt lat="46.99668" lon="8.86726">
        <ele>1543</ele>
        <time>2021-08-03T11:59:02.045Z</time>
      </trkpt>
      <trkpt lat="46.99667" lon="8.86726">
        <ele>1544</ele>
        <time>2021-08-03T11:59:03.046Z</time>
      </trkpt>
      <trkpt lat="46.99666" lon="8.86726">
        <ele>1544</ele>
        <time>2021-08-03T11:59:04.045Z</time>
      </trkpt>
      <trkpt lat="46.99666" lon="8.86726">
        <ele>1544</ele>
        <time>2021-08-03T11:59:05.046Z</time>
      </trkpt>
      <trkpt lat="46.99663" lon="8.86727">
        <ele>1545</ele>
        <time>2021-08-03T11:59:06.045Z</time>
      </trkpt>
      <trkpt lat="46.99662" lon="8.86727">
        <ele>1546</ele>
        <time>2021-08-03T11:59:07.045Z</time>
      </trkpt>
      <trkpt lat="46.9966" lon="8.86728">
        <ele>1546</ele>
        <time>2021-08-03T11:59:08.045Z</time>
      </trkpt>
      <trkpt lat="46.99659" lon="8.86728">
        <ele>1546</ele>
        <time>2021-08-03T11:59:09.045Z</time>
      </trkpt>
      <trkpt lat="46.99658" lon="8.86728">
        <ele>1545</ele>
        <time>2021-08-03T11:59:10.045Z</time>
      </trkpt>
      <trkpt lat="46.99656" lon="8.86728">
        <ele>1545</ele>
        <time>2021-08-03T11:59:11.045Z</time>
      </trkpt>
      <trkpt lat="46.99655" lon="8.86728">
        <ele>1545</ele>
        <time>2021-08-03T11:59:12.045Z</time>
      </trkpt>
      <trkpt lat="46.99654" lon="8.86728">
        <ele>1546</ele>
        <time>2021-08-03T11:59:13.045Z</time>
      </trkpt>
      <trkpt lat="46.99653" lon="8.86728">
        <ele>1546</ele>
        <time>2021-08-03T11:59:14.045Z</time>
      </trkpt>
      <trkpt lat="46.99652" lon="8.86728">
        <ele>1546</ele>
        <time>2021-08-03T11:59:15.045Z</time>
      </trkpt>
      <trkpt lat="46.9965" lon="8.86727">
        <ele>1546</ele>
        <time>2021-08-03T11:59:16.045Z</time>
      </trkpt>
      <trkpt lat="46.9965" lon="8.86727">
        <ele>1546</ele>
        <time>2021-08-03T11:59:17.045Z</time>
      </trkpt>
      <trkpt lat="46.99648" lon="8.86727">
        <ele>1545</ele>
        <time>2021-08-03T11:59:18.045Z</time>
      </trkpt>
      <trkpt lat="46.99647" lon="8.86726">
        <ele>1545</ele>
        <time>2021-08-03T11:59:19.045Z</time>
      </trkpt>
      <trkpt lat="46.99646" lon="8.86726">
        <ele>1545</ele>
        <time>2021-08-03T11:59:20.045Z</time>
      </trkpt>
      <trkpt lat="46.99645" lon="8.86725">
        <ele>1544</ele>
        <time>2021-08-03T11:59:21.046Z</time>
      </trkpt>
      <trkpt lat="46.99644" lon="8.86724">
        <ele>1544</ele>
        <time>2021-08-03T11:59:22.046Z</time>
      </trkpt>
      <trkpt lat="46.99643" lon="8.86723">
        <ele>1543</ele>
        <time>2021-08-03T11:59:23.045Z</time>
      </trkpt>
      <trkpt lat="46.99642" lon="8.86723">
        <ele>1544</ele>
        <time>2021-08-03T11:59:24.045Z</time>
      </trkpt>
      <trkpt lat="46.99641" lon="8.86722">
        <ele>1544</ele>
        <time>2021-08-03T11:59:25.046Z</time>
      </trkpt>
      <trkpt lat="46.9964" lon="8.86722">
        <ele>1543</ele>
        <time>2021-08-03T11:59:26.045Z</time>
      </trkpt>
      <trkpt lat="46.99638" lon="8.86722">
        <ele>1543</ele>
        <time>2021-08-03T11:59:27.046Z</time>
      </trkpt>
      <trkpt lat="46.99637" lon="8.86722">
        <ele>1543</ele>
        <time>2021-08-03T11:59:28.045Z</time>
      </trkpt>
      <trkpt lat="46.99636" lon="8.86721">
        <ele>1543</ele>
        <time>2021-08-03T11:59:29.045Z</time>
      </trkpt>
      <trkpt lat="46.99634" lon="8.86721">
        <ele>1543</ele>
        <time>2021-08-03T11:59:30.046Z</time>
      </trkpt>
      <trkpt lat="46.99633" lon="8.86721">
        <ele>1543</ele>
        <time>2021-08-03T11:59:31.046Z</time>
      </trkpt>
      <trkpt lat="46.99632" lon="8.8672">
        <ele>1543</ele>
        <time>2021-08-03T11:59:32.046Z</time>
      </trkpt>
      <trkpt lat="46.99632" lon="8.86719">
        <ele>1542</ele>
        <time>2021-08-03T11:59:33.045Z</time>
      </trkpt>
      <trkpt lat="46.99631" lon="8.86719">
        <ele>1542</ele>
        <time>2021-08-03T11:59:34.046Z</time>
      </trkpt>
      <trkpt lat="46.9963" lon="8.86718">
        <ele>1541</ele>
        <time>2021-08-03T11:59:35.045Z</time>
      </trkpt>
      <trkpt lat="46.99629" lon="8.86718">
        <ele>1541</ele>
        <time>2021-08-03T11:59:36.045Z</time>
      </trkpt>
      <trkpt lat="46.99628" lon="8.86718">
        <ele>1541</ele>
        <time>2021-08-03T11:59:37.045Z</time>
      </trkpt>
      <trkpt lat="46.99627" lon="8.86717">
        <ele>1541</ele>
        <time>2021-08-03T11:59:38.045Z</time>
      </trkpt>
      <trkpt lat="46.99626" lon="8.86716">
        <ele>1541</ele>
        <time>2021-08-03T11:59:39.045Z</time>
      </trkpt>
      <trkpt lat="46.99625" lon="8.86715">
        <ele>1541</ele>
        <time>2021-08-03T11:59:40.045Z</time>
      </trkpt>
      <trkpt lat="46.99624" lon="8.86714">
        <ele>1541</ele>
        <time>2021-08-03T11:59:41.045Z</time>
      </trkpt>
      <trkpt lat="46.99623" lon="8.86712">
        <ele>1541</ele>
        <time>2021-08-03T11:59:42.045Z</time>
      </trkpt>
      <trkpt lat="46.99622" lon="8.86711">
        <ele>1541</ele>
        <time>2021-08-03T11:59:43.046Z</time>
      </trkpt>
      <trkpt lat="46.99621" lon="8.86711">
        <ele>1541</ele>
        <time>2021-08-03T11:59:44.045Z</time>
      </trkpt>
      <trkpt lat="46.99621" lon="8.8671">
        <ele>1541</ele>
        <time>2021-08-03T11:59:45.046Z</time>
      </trkpt>
      <trkpt lat="46.9962" lon="8.8671">
        <ele>1541</ele>
        <time>2021-08-03T11:59:46.045Z</time>
      </trkpt>
      <trkpt lat="46.99619" lon="8.86709">
        <ele>1541</ele>
        <time>2021-08-03T11:59:47.045Z</time>
      </trkpt>
      <trkpt lat="46.99618" lon="8.86708">
        <ele>1540</ele>
        <time>2021-08-03T11:59:48.045Z</time>
      </trkpt>
      <trkpt lat="46.99618" lon="8.86707">
        <ele>1540</ele>
        <time>2021-08-03T11:59:49.046Z</time>
      </trkpt>
      <trkpt lat="46.99617" lon="8.86706">
        <ele>1540</ele>
        <time>2021-08-03T11:59:50.045Z</time>
      </trkpt>
      <trkpt lat="46.99616" lon="8.86705">
        <ele>1540</ele>
        <time>2021-08-03T11:59:51.045Z</time>
      </trkpt>
      <trkpt lat="46.99615" lon="8.86704">
        <ele>1539</ele>
        <time>2021-08-03T11:59:52.045Z</time>
      </trkpt>
      <trkpt lat="46.99615" lon="8.86703">
        <ele>1539</ele>
        <time>2021-08-03T11:59:53.046Z</time>
      </trkpt>
      <trkpt lat="46.99614" lon="8.86703">
        <ele>1539</ele>
        <time>2021-08-03T11:59:54.045Z</time>
      </trkpt>
      <trkpt lat="46.99613" lon="8.86702">
        <ele>1539</ele>
        <time>2021-08-03T11:59:55.045Z</time>
      </trkpt>
      <trkpt lat="46.99613" lon="8.86701">
        <ele>1539</ele>
        <time>2021-08-03T11:59:56.045Z</time>
      </trkpt>
      <trkpt lat="46.99612" lon="8.86699">
        <ele>1539</ele>
        <time>2021-08-03T11:59:57.045Z</time>
      </trkpt>
      <trkpt lat="46.99611" lon="8.86698">
        <ele>1538</ele>
        <time>2021-08-03T11:59:58.045Z</time>
      </trkpt>
      <trkpt lat="46.99611" lon="8.86697">
        <ele>1538</ele>
        <time>2021-08-03T11:59:59.045Z</time>
      </trkpt>
      <trkpt lat="46.99611" lon="8.86697">
        <ele>1538</ele>
        <time>2021-08-03T12:00:00.046Z</time>
      </trkpt>
      <trkpt lat="46.99612" lon="8.86697">
        <ele>1537</ele>
        <time>2021-08-03T12:00:01.045Z</time>
      </trkpt>
      <trkpt lat="46.99612" lon="8.86695">
        <ele>1536</ele>
        <time>2021-08-03T12:00:02.045Z</time>
      </trkpt>
      <trkpt lat="46.99612" lon="8.86694">
        <ele>1535</ele>
        <time>2021-08-03T12:00:03.045Z</time>
      </trkpt>
      <trkpt lat="46.99613" lon="8.86694">
        <ele>1535</ele>
        <time>2021-08-03T12:00:04.046Z</time>
      </trkpt>
      <trkpt lat="46.99612" lon="8.86694">
        <ele>1535</ele>
        <time>2021-08-03T12:00:05.046Z</time>
      </trkpt>
      <trkpt lat="46.99612" lon="8.86694">
        <ele>1535</ele>
        <time>2021-08-03T12:00:06.046Z</time>
      </trkpt>
      <trkpt lat="46.99612" lon="8.86695">
        <ele>1534</ele>
        <time>2021-08-03T12:00:07.045Z</time>
      </trkpt>
      <trkpt lat="46.99612" lon="8.86696">
        <ele>1534</ele>
        <time>2021-08-03T12:00:08.046Z</time>
      </trkpt>
      <trkpt lat="46.99612" lon="8.86696">
        <ele>1533</ele>
        <time>2021-08-03T12:00:09.046Z</time>
      </trkpt>
      <trkpt lat="46.99613" lon="8.86696">
        <ele>1532</ele>
        <time>2021-08-03T12:00:20.153Z</time>
      </trkpt>
      <trkpt lat="46.99613" lon="8.86696">
        <ele>1532</ele>
        <time>2021-08-03T12:00:24.064Z</time>
      </trkpt>
      <trkpt lat="46.99613" lon="8.86696">
        <ele>1532</ele>
        <time>2021-08-03T12:00:28.890Z</time>
      </trkpt>
      <trkpt lat="46.99613" lon="8.86695">
        <ele>1531</ele>
        <time>2021-08-03T12:00:29.890Z</time>
      </trkpt>
      <trkpt lat="46.99615" lon="8.86696">
        <ele>1531</ele>
        <time>2021-08-03T12:00:30.891Z</time>
      </trkpt>
      <trkpt lat="46.99616" lon="8.86697">
        <ele>1531</ele>
        <time>2021-08-03T12:00:31.890Z</time>
      </trkpt>
      <trkpt lat="46.99616" lon="8.86698">
        <ele>1531</ele>
        <time>2021-08-03T12:00:32.890Z</time>
      </trkpt>
      <trkpt lat="46.99617" lon="8.86699">
        <ele>1532</ele>
        <time>2021-08-03T12:00:33.891Z</time>
      </trkpt>
      <trkpt lat="46.99618" lon="8.867">
        <ele>1533</ele>
        <time>2021-08-03T12:00:34.890Z</time>
      </trkpt>
      <trkpt lat="46.99623" lon="8.867">
        <ele>1548</ele>
        <time>2021-08-04T07:19:07.793Z</time>
      </trkpt>
      <trkpt lat="46.99623" lon="8.867">
        <ele>1548</ele>
        <time>2021-08-04T07:19:07.793Z</time>
      </trkpt>
      <trkpt lat="46.99623" lon="8.867">
        <ele>1548</ele>
        <time>2021-08-04T07:19:07.793Z</time>
      </trkpt>
      <trkpt lat="46.99622" lon="8.867">
        <ele>1548</ele>
        <time>2021-08-04T07:19:08.794Z</time>
      </trkpt>
      <trkpt lat="46.99622" lon="8.86701">
        <ele>1548</ele>
        <time>2021-08-04T07:19:09.793Z</time>
      </trkpt>
      <trkpt lat="46.99622" lon="8.86701">
        <ele>1548</ele>
        <time>2021-08-04T07:19:10.794Z</time>
      </trkpt>
      <trkpt lat="46.99622" lon="8.86702">
        <ele>1548</ele>
        <time>2021-08-04T07:19:11.794Z</time>
      </trkpt>
      <trkpt lat="46.99621" lon="8.86702">
        <ele>1549</ele>
        <time>2021-08-04T07:19:12.794Z</time>
      </trkpt>
      <trkpt lat="46.9962" lon="8.86701">
        <ele>1549</ele>
        <time>2021-08-04T07:19:13.793Z</time>
      </trkpt>
      <trkpt lat="46.99619" lon="8.86701">
        <ele>1550</ele>
        <time>2021-08-04T07:19:14.794Z</time>
      </trkpt>
      <trkpt lat="46.99618" lon="8.86701">
        <ele>1550</ele>
        <time>2021-08-04T07:19:15.794Z</time>
      </trkpt>
      <trkpt lat="46.99618" lon="8.86701">
        <ele>1551</ele>
        <time>2021-08-04T07:19:16.794Z</time>
      </trkpt>
      <trkpt lat="46.99619" lon="8.86701">
        <ele>1552</ele>
        <time>2021-08-04T07:19:17.794Z</time>
      </trkpt>
      <trkpt lat="46.99619" lon="8.86702">
        <ele>1552</ele>
        <time>2021-08-04T07:19:18.794Z</time>
      </trkpt>
      <trkpt lat="46.9962" lon="8.86703">
        <ele>1552</ele>
        <time>2021-08-04T07:19:19.794Z</time>
      </trkpt>
      <trkpt lat="46.9962" lon="8.86704">
        <ele>1552</ele>
        <time>2021-08-04T07:19:20.794Z</time>
      </trkpt>
      <trkpt lat="46.99621" lon="8.86704">
        <ele>1552</ele>
        <time>2021-08-04T07:19:21.794Z</time>
      </trkpt>
      <trkpt lat="46.99621" lon="8.86705">
        <ele>1552</ele>
        <time>2021-08-04T07:19:22.794Z</time>
      </trkpt>
      <trkpt lat="46.99621" lon="8.86706">
        <ele>1552</ele>
        <time>2021-08-04T07:19:23.794Z</time>
      </trkpt>
      <trkpt lat="46.99622" lon="8.86707">
        <ele>1552</ele>
        <time>2021-08-04T07:19:24.794Z</time>
      </trkpt>
      <trkpt lat="46.99623" lon="8.86708">
        <ele>1552</ele>
        <time>2021-08-04T07:19:25.793Z</time>
      </trkpt>
      <trkpt lat="46.99623" lon="8.86709">
        <ele>1551</ele>
        <time>2021-08-04T07:19:26.794Z</time>
      </trkpt>
      <trkpt lat="46.99624" lon="8.8671">
        <ele>1551</ele>
        <time>2021-08-04T07:19:27.793Z</time>
      </trkpt>
      <trkpt lat="46.99625" lon="8.86711">
        <ele>1551</ele>
        <time>2021-08-04T07:19:28.793Z</time>
      </trkpt>
      <trkpt lat="46.99626" lon="8.86712">
        <ele>1551</ele>
        <time>2021-08-04T07:19:29.794Z</time>
      </trkpt>
      <trkpt lat="46.99627" lon="8.86713">
        <ele>1551</ele>
        <time>2021-08-04T07:19:30.794Z</time>
      </trkpt>
      <trkpt lat="46.99628" lon="8.86715">
        <ele>1550</ele>
        <time>2021-08-04T07:19:31.794Z</time>
      </trkpt>
      <trkpt lat="46.9963" lon="8.86717">
        <ele>1550</ele>
        <time>2021-08-04T07:19:32.794Z</time>
      </trkpt>
      <trkpt lat="46.9963" lon="8.86718">
        <ele>1549</ele>
        <time>2021-08-04T07:19:33.794Z</time>
      </trkpt>
      <trkpt lat="46.99631" lon="8.86719">
        <ele>1549</ele>
        <time>2021-08-04T07:19:34.793Z</time>
      </trkpt>
      <trkpt lat="46.99632" lon="8.8672">
        <ele>1548</ele>
        <time>2021-08-04T07:19:35.794Z</time>
      </trkpt>
      <trkpt lat="46.99633" lon="8.86721">
        <ele>1548</ele>
        <time>2021-08-04T07:19:36.793Z</time>
      </trkpt>
      <trkpt lat="46.99634" lon="8.86722">
        <ele>1547</ele>
        <time>2021-08-04T07:19:37.793Z</time>
      </trkpt>
      <trkpt lat="46.99635" lon="8.86723">
        <ele>1547</ele>
        <time>2021-08-04T07:19:38.794Z</time>
      </trkpt>
      <trkpt lat="46.99636" lon="8.86724">
        <ele>1546</ele>
        <time>2021-08-04T07:19:39.794Z</time>
      </trkpt>
      <trkpt lat="46.99637" lon="8.86725">
        <ele>1546</ele>
        <time>2021-08-04T07:19:40.793Z</time>
      </trkpt>
      <trkpt lat="46.99638" lon="8.86726">
        <ele>1545</ele>
        <time>2021-08-04T07:19:41.794Z</time>
      </trkpt>
      <trkpt lat="46.99638" lon="8.86727">
        <ele>1545</ele>
        <time>2021-08-04T07:19:42.793Z</time>
      </trkpt>
      <trkpt lat="46.99638" lon="8.86727">
        <ele>1545</ele>
        <time>2021-08-04T07:19:43.794Z</time>
      </trkpt>
      <trkpt lat="46.99636" lon="8.86729">
        <ele>1546</ele>
        <time>2021-08-04T07:19:44.793Z</time>
      </trkpt>
      <trkpt lat="46.99635" lon="8.86729">
        <ele>1546</ele>
        <time>2021-08-04T07:19:45.794Z</time>
      </trkpt>
      <trkpt lat="46.99635" lon="8.86729">
        <ele>1547</ele>
        <time>2021-08-04T07:19:46.793Z</time>
      </trkpt>
      <trkpt lat="46.99634" lon="8.86729">
        <ele>1547</ele>
        <time>2021-08-04T07:19:47.794Z</time>
      </trkpt>
      <trkpt lat="46.99634" lon="8.86728">
        <ele>1547</ele>
        <time>2021-08-04T07:19:48.794Z</time>
      </trkpt>
      <trkpt lat="46.99633" lon="8.86729">
        <ele>1547</ele>
        <time>2021-08-04T07:19:49.793Z</time>
      </trkpt>
      <trkpt lat="46.99632" lon="8.86729">
        <ele>1547</ele>
        <time>2021-08-04T07:19:50.793Z</time>
      </trkpt>
      <trkpt lat="46.99631" lon="8.8673">
        <ele>1548</ele>
        <time>2021-08-04T07:19:51.793Z</time>
      </trkpt>
      <trkpt lat="46.9963" lon="8.86732">
        <ele>1548</ele>
        <time>2021-08-04T07:19:52.793Z</time>
      </trkpt>
      <trkpt lat="46.99629" lon="8.86734">
        <ele>1548</ele>
        <time>2021-08-04T07:19:53.794Z</time>
      </trkpt>
      <trkpt lat="46.99628" lon="8.86735">
        <ele>1548</ele>
        <time>2021-08-04T07:19:54.794Z</time>
      </trkpt>
      <trkpt lat="46.99627" lon="8.86736">
        <ele>1548</ele>
        <time>2021-08-04T07:19:55.794Z</time>
      </trkpt>
      <trkpt lat="46.99627" lon="8.86736">
        <ele>1548</ele>
        <time>2021-08-04T07:19:56.793Z</time>
      </trkpt>
      <trkpt lat="46.99625" lon="8.86734">
        <ele>1547</ele>
        <time>2021-08-04T07:19:57.795Z</time>
      </trkpt>
      <trkpt lat="46.99625" lon="8.86734">
        <ele>1547</ele>
        <time>2021-08-04T07:19:58.794Z</time>
      </trkpt>
      <trkpt lat="46.99625" lon="8.86734">
        <ele>1547</ele>
        <time>2021-08-04T07:19:59.795Z</time>
      </trkpt>
      <trkpt lat="46.99625" lon="8.86736">
        <ele>1549</ele>
        <time>2021-08-04T07:20:00.795Z</time>
      </trkpt>
      <trkpt lat="46.99625" lon="8.86737">
        <ele>1548</ele>
        <time>2021-08-04T07:20:01.795Z</time>
      </trkpt>
      <trkpt lat="46.99625" lon="8.86738">
        <ele>1548</ele>
        <time>2021-08-04T07:20:02.795Z</time>
      </trkpt>
      <trkpt lat="46.99625" lon="8.8674">
        <ele>1548</ele>
        <time>2021-08-04T07:20:03.795Z</time>
      </trkpt>
      <trkpt lat="46.99625" lon="8.86742">
        <ele>1548</ele>
        <time>2021-08-04T07:20:04.795Z</time>
      </trkpt>
      <trkpt lat="46.99625" lon="8.86743">
        <ele>1547</ele>
        <time>2021-08-04T07:20:05.795Z</time>
      </trkpt>
      <trkpt lat="46.99625" lon="8.86743">
        <ele>1547</ele>
        <time>2021-08-04T07:20:06.796Z</time>
      </trkpt>
      <trkpt lat="46.99626" lon="8.86745">
        <ele>1547</ele>
        <time>2021-08-04T07:20:07.796Z</time>
      </trkpt>
      <trkpt lat="46.99626" lon="8.86746">
        <ele>1548</ele>
        <time>2021-08-04T07:20:08.795Z</time>
      </trkpt>
      <trkpt lat="46.99626" lon="8.86747">
        <ele>1547</ele>
        <time>2021-08-04T07:20:09.795Z</time>
      </trkpt>
      <trkpt lat="46.99626" lon="8.86749">
        <ele>1548</ele>
        <time>2021-08-04T07:20:10.795Z</time>
      </trkpt>
      <trkpt lat="46.99627" lon="8.86752">
        <ele>1550</ele>
        <time>2021-08-04T07:20:11.796Z</time>
      </trkpt>
      <trkpt lat="46.99627" lon="8.86752">
        <ele>1551</ele>
        <time>2021-08-04T07:20:12.797Z</time>
      </trkpt>
      <trkpt lat="46.99627" lon="8.86751">
        <ele>1551</ele>
        <time>2021-08-04T07:20:13.796Z</time>
      </trkpt>
      <trkpt lat="46.99631" lon="8.86749">
        <ele>1554</ele>
        <time>2021-08-04T07:20:14.797Z</time>
      </trkpt>
      <trkpt lat="46.99632" lon="8.86748">
        <ele>1554</ele>
        <time>2021-08-04T07:20:15.796Z</time>
      </trkpt>
      <trkpt lat="46.99633" lon="8.86747">
        <ele>1554</ele>
        <time>2021-08-04T07:20:16.796Z</time>
      </trkpt>
      <trkpt lat="46.99634" lon="8.86747">
        <ele>1554</ele>
        <time>2021-08-04T07:20:17.796Z</time>
      </trkpt>
      <trkpt lat="46.99634" lon="8.86746">
        <ele>1553</ele>
        <time>2021-08-04T07:20:18.797Z</time>
      </trkpt>
      <trkpt lat="46.99635" lon="8.86744">
        <ele>1553</ele>
        <time>2021-08-04T07:20:19.797Z</time>
      </trkpt>
      <trkpt lat="46.99636" lon="8.86742">
        <ele>1553</ele>
        <time>2021-08-04T07:20:20.796Z</time>
      </trkpt>
      <trkpt lat="46.99636" lon="8.8674">
        <ele>1552</ele>
        <time>2021-08-04T07:20:21.796Z</time>
      </trkpt>
      <trkpt lat="46.99637" lon="8.86737">
        <ele>1552</ele>
        <time>2021-08-04T07:20:22.797Z</time>
      </trkpt>
      <trkpt lat="46.99637" lon="8.86735">
        <ele>1552</ele>
        <time>2021-08-04T07:20:23.796Z</time>
      </trkpt>
      <trkpt lat="46.99637" lon="8.86734">
        <ele>1551</ele>
        <time>2021-08-04T07:20:24.796Z</time>
      </trkpt>
      <trkpt lat="46.99638" lon="8.86732">
        <ele>1551</ele>
        <time>2021-08-04T07:20:25.797Z</time>
      </trkpt>
      <trkpt lat="46.99638" lon="8.8673">
        <ele>1550</ele>
        <time>2021-08-04T07:20:26.797Z</time>
      </trkpt>
      <trkpt lat="46.99638" lon="8.86729">
        <ele>1550</ele>
        <time>2021-08-04T07:20:27.797Z</time>
      </trkpt>
      <trkpt lat="46.99637" lon="8.86726">
        <ele>1550</ele>
        <time>2021-08-04T07:20:28.796Z</time>
      </trkpt>
      <trkpt lat="46.99636" lon="8.86724">
        <ele>1550</ele>
        <time>2021-08-04T07:20:29.797Z</time>
      </trkpt>
      <trkpt lat="46.99635" lon="8.86723">
        <ele>1549</ele>
        <time>2021-08-04T07:20:30.797Z</time>
      </trkpt>
      <trkpt lat="46.99634" lon="8.86721">
        <ele>1549</ele>
        <time>2021-08-04T07:20:31.796Z</time>
      </trkpt>
      <trkpt lat="46.99633" lon="8.8672">
        <ele>1550</ele>
        <time>2021-08-04T07:20:32.797Z</time>
      </trkpt>
      <trkpt lat="46.99633" lon="8.86718">
        <ele>1550</ele>
        <time>2021-08-04T07:20:33.796Z</time>
      </trkpt>
      <trkpt lat="46.99632" lon="8.86717">
        <ele>1550</ele>
        <time>2021-08-04T07:20:34.797Z</time>
      </trkpt>
      <trkpt lat="46.99631" lon="8.86717">
        <ele>1550</ele>
        <time>2021-08-04T07:20:35.796Z</time>
      </trkpt>
      <trkpt lat="46.99631" lon="8.86716">
        <ele>1550</ele>
        <time>2021-08-04T07:20:36.797Z</time>
      </trkpt>
      <trkpt lat="46.99631" lon="8.86715">
        <ele>1550</ele>
        <time>2021-08-04T07:20:37.796Z</time>
      </trkpt>
      <trkpt lat="46.9963" lon="8.86714">
        <ele>1550</ele>
        <time>2021-08-04T07:20:38.797Z</time>
      </trkpt>
      <trkpt lat="46.99629" lon="8.86713">
        <ele>1549</ele>
        <time>2021-08-04T07:20:39.797Z</time>
      </trkpt>
      <trkpt lat="46.99627" lon="8.86712">
        <ele>1549</ele>
        <time>2021-08-04T07:20:40.797Z</time>
      </trkpt>
      <trkpt lat="46.99626" lon="8.86711">
        <ele>1549</ele>
        <time>2021-08-04T07:20:41.797Z</time>
      </trkpt>
      <trkpt lat="46.99626" lon="8.8671">
        <ele>1549</ele>
        <time>2021-08-04T07:20:42.797Z</time>
      </trkpt>
      <trkpt lat="46.99625" lon="8.86709">
        <ele>1549</ele>
        <time>2021-08-04T07:20:43.796Z</time>
      </trkpt>
      <trkpt lat="46.99624" lon="8.86708">
        <ele>1549</ele>
        <time>2021-08-04T07:20:44.797Z</time>
      </trkpt>
      <trkpt lat="46.99622" lon="8.86707">
        <ele>1549</ele>
        <time>2021-08-04T07:20:45.797Z</time>
      </trkpt>
      <trkpt lat="46.99622" lon="8.86706">
        <ele>1549</ele>
        <time>2021-08-04T07:20:46.797Z</time>
      </trkpt>
      <trkpt lat="46.99621" lon="8.86704">
        <ele>1548</ele>
        <time>2021-08-04T07:20:47.796Z</time>
      </trkpt>
      <trkpt lat="46.9962" lon="8.86703">
        <ele>1548</ele>
        <time>2021-08-04T07:20:48.797Z</time>
      </trkpt>
      <trkpt lat="46.99619" lon="8.86702">
        <ele>1548</ele>
        <time>2021-08-04T07:20:49.797Z</time>
      </trkpt>
      <trkpt lat="46.99617" lon="8.86702">
        <ele>1547</ele>
        <time>2021-08-04T07:20:50.796Z</time>
      </trkpt>
      <trkpt lat="46.99616" lon="8.86701">
        <ele>1547</ele>
        <time>2021-08-04T07:20:51.796Z</time>
      </trkpt>
      <trkpt lat="46.99616" lon="8.867">
        <ele>1547</ele>
        <time>2021-08-04T07:20:52.797Z</time>
      </trkpt>
      <trkpt lat="46.99615" lon="8.86699">
        <ele>1547</ele>
        <time>2021-08-04T07:20:53.797Z</time>
      </trkpt>
      <trkpt lat="46.99613" lon="8.86698">
        <ele>1547</ele>
        <time>2021-08-04T07:20:54.796Z</time>
      </trkpt>
      <trkpt lat="46.99613" lon="8.86697">
        <ele>1547</ele>
        <time>2021-08-04T07:20:55.796Z</time>
      </trkpt>
      <trkpt lat="46.99613" lon="8.86697">
        <ele>1546</ele>
        <time>2021-08-04T07:20:56.797Z</time>
      </trkpt>
      <trkpt lat="46.99612" lon="8.86697">
        <ele>1546</ele>
        <time>2021-08-04T07:20:57.797Z</time>
      </trkpt>
      <trkpt lat="46.99612" lon="8.86697">
        <ele>1546</ele>
        <time>2021-08-04T07:20:58.797Z</time>
      </trkpt>
      <trkpt lat="46.99612" lon="8.86696">
        <ele>1545</ele>
        <time>2021-08-04T07:20:59.797Z</time>
      </trkpt>
      <trkpt lat="46.99611" lon="8.86696">
        <ele>1545</ele>
        <time>2021-08-04T07:21:00.797Z</time>
      </trkpt>
      <trkpt lat="46.9961" lon="8.86695">
        <ele>1544</ele>
        <time>2021-08-04T07:21:01.797Z</time>
      </trkpt>
      <trkpt lat="46.9961" lon="8.86694">
        <ele>1544</ele>
        <time>2021-08-04T07:21:02.797Z</time>
      </trkpt>
      <trkpt lat="46.9961" lon="8.86694">
        <ele>1544</ele>
        <time>2021-08-04T07:21:03.796Z</time>
      </trkpt>
      <trkpt lat="46.9961" lon="8.86694">
        <ele>1543</ele>
        <time>2021-08-04T07:21:04.797Z</time>
      </trkpt>
      <trkpt lat="46.9961" lon="8.86694">
        <ele>1543</ele>
        <time>2021-08-04T07:21:05.796Z</time>
      </trkpt>
      <trkpt lat="46.99612" lon="8.86693">
        <ele>1542</ele>
        <time>2021-08-04T07:21:06.798Z</time>
      </trkpt>
      <trkpt lat="46.99612" lon="8.86692">
        <ele>1542</ele>
        <time>2021-08-04T07:21:07.798Z</time>
      </trkpt>
      <trkpt lat="46.99613" lon="8.86691">
        <ele>1542</ele>
        <time>2021-08-04T07:21:08.797Z</time>
      </trkpt>
      <trkpt lat="46.99614" lon="8.86691">
        <ele>1542</ele>
        <time>2021-08-04T07:21:09.797Z</time>
      </trkpt>
      <trkpt lat="46.99615" lon="8.8669">
        <ele>1542</ele>
        <time>2021-08-04T07:21:10.798Z</time>
      </trkpt>
      <trkpt lat="46.99616" lon="8.86688">
        <ele>1542</ele>
        <time>2021-08-04T07:21:11.797Z</time>
      </trkpt>
      <trkpt lat="46.99617" lon="8.86687">
        <ele>1541</ele>
        <time>2021-08-04T07:21:12.798Z</time>
      </trkpt>
      <trkpt lat="46.99618" lon="8.86686">
        <ele>1541</ele>
        <time>2021-08-04T07:21:13.798Z</time>
      </trkpt>
      <trkpt lat="46.99618" lon="8.86685">
        <ele>1542</ele>
        <time>2021-08-04T07:21:14.798Z</time>
      </trkpt>
      <trkpt lat="46.99618" lon="8.86684">
        <ele>1542</ele>
        <time>2021-08-04T07:21:15.798Z</time>
      </trkpt>
      <trkpt lat="46.99618" lon="8.86684">
        <ele>1542</ele>
        <time>2021-08-04T07:21:16.797Z</time>
      </trkpt>
      <trkpt lat="46.99618" lon="8.86683">
        <ele>1542</ele>
        <time>2021-08-04T07:21:17.798Z</time>
      </trkpt>
      <trkpt lat="46.99618" lon="8.86681">
        <ele>1542</ele>
        <time>2021-08-04T07:21:18.799Z</time>
      </trkpt>
      <trkpt lat="46.99618" lon="8.8668">
        <ele>1543</ele>
        <time>2021-08-04T07:21:19.798Z</time>
      </trkpt>
      <trkpt lat="46.99618" lon="8.86679">
        <ele>1543</ele>
        <time>2021-08-04T07:21:20.798Z</time>
      </trkpt>
      <trkpt lat="46.99617" lon="8.86677">
        <ele>1542</ele>
        <time>2021-08-04T07:21:21.799Z</time>
      </trkpt>
      <trkpt lat="46.99616" lon="8.86675">
        <ele>1542</ele>
        <time>2021-08-04T07:21:22.799Z</time>
      </trkpt>
      <trkpt lat="46.99616" lon="8.86673">
        <ele>1542</ele>
        <time>2021-08-04T07:21:23.799Z</time>
      </trkpt>
      <trkpt lat="46.99616" lon="8.86673">
        <ele>1542</ele>
        <time>2021-08-04T07:21:24.798Z</time>
      </trkpt>
      <trkpt lat="46.99616" lon="8.86671">
        <ele>1542</ele>
        <time>2021-08-04T07:21:25.799Z</time>
      </trkpt>
      <trkpt lat="46.99616" lon="8.8667">
        <ele>1543</ele>
        <time>2021-08-04T07:21:26.799Z</time>
      </trkpt>
      <trkpt lat="46.99616" lon="8.86668">
        <ele>1543</ele>
        <time>2021-08-04T07:21:27.798Z</time>
      </trkpt>
      <trkpt lat="46.99616" lon="8.86666">
        <ele>1543</ele>
        <time>2021-08-04T07:21:28.799Z</time>
      </trkpt>
      <trkpt lat="46.99616" lon="8.86664">
        <ele>1543</ele>
        <time>2021-08-04T07:21:29.798Z</time>
      </trkpt>
      <trkpt lat="46.99616" lon="8.86663">
        <ele>1543</ele>
        <time>2021-08-04T07:21:30.799Z</time>
      </trkpt>
      <trkpt lat="46.99617" lon="8.86661">
        <ele>1544</ele>
        <time>2021-08-04T07:21:31.799Z</time>
      </trkpt>
      <trkpt lat="46.99617" lon="8.86658">
        <ele>1544</ele>
        <time>2021-08-04T07:21:32.799Z</time>
      </trkpt>
      <trkpt lat="46.99617" lon="8.86657">
        <ele>1544</ele>
        <time>2021-08-04T07:21:33.799Z</time>
      </trkpt>
      <trkpt lat="46.99617" lon="8.86655">
        <ele>1544</ele>
        <time>2021-08-04T07:21:34.799Z</time>
      </trkpt>
      <trkpt lat="46.99617" lon="8.86653">
        <ele>1545</ele>
        <time>2021-08-04T07:21:35.799Z</time>
      </trkpt>
      <trkpt lat="46.99617" lon="8.86652">
        <ele>1545</ele>
        <time>2021-08-04T07:21:36.799Z</time>
      </trkpt>
      <trkpt lat="46.99617" lon="8.86651">
        <ele>1545</ele>
        <time>2021-08-04T07:21:37.799Z</time>
      </trkpt>
      <trkpt lat="46.99617" lon="8.86649">
        <ele>1545</ele>
        <time>2021-08-04T07:21:38.799Z</time>
      </trkpt>
      <trkpt lat="46.99617" lon="8.86648">
        <ele>1545</ele>
        <time>2021-08-04T07:21:39.798Z</time>
      </trkpt>
      <trkpt lat="46.99617" lon="8.86646">
        <ele>1545</ele>
        <time>2021-08-04T07:21:40.799Z</time>
      </trkpt>
      <trkpt lat="46.99617" lon="8.86645">
        <ele>1546</ele>
        <time>2021-08-04T07:21:41.798Z</time>
      </trkpt>
      <trkpt lat="46.99617" lon="8.86643">
        <ele>1546</ele>
        <time>2021-08-04T07:21:42.799Z</time>
      </trkpt>
      <trkpt lat="46.99617" lon="8.86642">
        <ele>1546</ele>
        <time>2021-08-04T07:21:43.799Z</time>
      </trkpt>
      <trkpt lat="46.99617" lon="8.86641">
        <ele>1546</ele>
        <time>2021-08-04T07:21:44.799Z</time>
      </trkpt>
      <trkpt lat="46.99617" lon="8.86639">
        <ele>1546</ele>
        <time>2021-08-04T07:21:45.798Z</time>
      </trkpt>
      <trkpt lat="46.99617" lon="8.86638">
        <ele>1545</ele>
        <time>2021-08-04T07:21:46.799Z</time>
      </trkpt>
      <trkpt lat="46.99617" lon="8.86636">
        <ele>1545</ele>
        <time>2021-08-04T07:21:47.799Z</time>
      </trkpt>
      <trkpt lat="46.99616" lon="8.86635">
        <ele>1545</ele>
        <time>2021-08-04T07:21:48.799Z</time>
      </trkpt>
      <trkpt lat="46.99616" lon="8.86633">
        <ele>1545</ele>
        <time>2021-08-04T07:21:49.799Z</time>
      </trkpt>
      <trkpt lat="46.99616" lon="8.86632">
        <ele>1545</ele>
        <time>2021-08-04T07:21:50.798Z</time>
      </trkpt>
      <trkpt lat="46.99616" lon="8.8663">
        <ele>1545</ele>
        <time>2021-08-04T07:21:51.799Z</time>
      </trkpt>
      <trkpt lat="46.99616" lon="8.86628">
        <ele>1545</ele>
        <time>2021-08-04T07:21:52.799Z</time>
      </trkpt>
      <trkpt lat="46.99616" lon="8.86627">
        <ele>1545</ele>
        <time>2021-08-04T07:21:53.798Z</time>
      </trkpt>
      <trkpt lat="46.99616" lon="8.86625">
        <ele>1544</ele>
        <time>2021-08-04T07:21:54.799Z</time>
      </trkpt>
      <trkpt lat="46.99617" lon="8.86624">
        <ele>1544</ele>
        <time>2021-08-04T07:21:55.799Z</time>
      </trkpt>
      <trkpt lat="46.99617" lon="8.86622">
        <ele>1544</ele>
        <time>2021-08-04T07:21:56.798Z</time>
      </trkpt>
      <trkpt lat="46.99618" lon="8.86621">
        <ele>1544</ele>
        <time>2021-08-04T07:21:57.798Z</time>
      </trkpt>
      <trkpt lat="46.99618" lon="8.86619">
        <ele>1544</ele>
        <time>2021-08-04T07:21:58.799Z</time>
      </trkpt>
      <trkpt lat="46.99618" lon="8.86617">
        <ele>1544</ele>
        <time>2021-08-04T07:21:59.798Z</time>
      </trkpt>
      <trkpt lat="46.99618" lon="8.86615">
        <ele>1543</ele>
        <time>2021-08-04T07:22:00.798Z</time>
      </trkpt>
      <trkpt lat="46.99617" lon="8.86613">
        <ele>1544</ele>
        <time>2021-08-04T07:22:01.799Z</time>
      </trkpt>
      <trkpt lat="46.99616" lon="8.86612">
        <ele>1544</ele>
        <time>2021-08-04T07:22:02.798Z</time>
      </trkpt>
      <trkpt lat="46.99616" lon="8.8661">
        <ele>1545</ele>
        <time>2021-08-04T07:22:03.799Z</time>
      </trkpt>
      <trkpt lat="46.99616" lon="8.86608">
        <ele>1545</ele>
        <time>2021-08-04T07:22:04.799Z</time>
      </trkpt>
      <trkpt lat="46.99615" lon="8.86606">
        <ele>1545</ele>
        <time>2021-08-04T07:22:05.799Z</time>
      </trkpt>
      <trkpt lat="46.99615" lon="8.86605">
        <ele>1546</ele>
        <time>2021-08-04T07:22:06.799Z</time>
      </trkpt>
      <trkpt lat="46.99615" lon="8.86604">
        <ele>1546</ele>
        <time>2021-08-04T07:22:07.798Z</time>
      </trkpt>
      <trkpt lat="46.99615" lon="8.86602">
        <ele>1546</ele>
        <time>2021-08-04T07:22:08.799Z</time>
      </trkpt>
      <trkpt lat="46.99615" lon="8.866">
        <ele>1546</ele>
        <time>2021-08-04T07:22:09.798Z</time>
      </trkpt>
      <trkpt lat="46.99615" lon="8.86599">
        <ele>1546</ele>
        <time>2021-08-04T07:22:10.798Z</time>
      </trkpt>
      <trkpt lat="46.99615" lon="8.86597">
        <ele>1546</ele>
        <time>2021-08-04T07:22:11.798Z</time>
      </trkpt>
      <trkpt lat="46.99615" lon="8.86595">
        <ele>1546</ele>
        <time>2021-08-04T07:22:12.798Z</time>
      </trkpt>
      <trkpt lat="46.99615" lon="8.86594">
        <ele>1547</ele>
        <time>2021-08-04T07:22:13.799Z</time>
      </trkpt>
      <trkpt lat="46.99615" lon="8.86593">
        <ele>1547</ele>
        <time>2021-08-04T07:22:14.798Z</time>
      </trkpt>
      <trkpt lat="46.99615" lon="8.86591">
        <ele>1547</ele>
        <time>2021-08-04T07:22:15.798Z</time>
      </trkpt>
      <trkpt lat="46.99614" lon="8.8659">
        <ele>1547</ele>
        <time>2021-08-04T07:22:16.799Z</time>
      </trkpt>
      <trkpt lat="46.99612" lon="8.86588">
        <ele>1547</ele>
        <time>2021-08-04T07:22:17.799Z</time>
      </trkpt>
      <trkpt lat="46.99611" lon="8.86586">
        <ele>1547</ele>
        <time>2021-08-04T07:22:18.798Z</time>
      </trkpt>
      <trkpt lat="46.99612" lon="8.86584">
        <ele>1547</ele>
        <time>2021-08-04T07:22:19.798Z</time>
      </trkpt>
      <trkpt lat="46.9961" lon="8.86582">
        <ele>1548</ele>
        <time>2021-08-04T07:22:20.799Z</time>
      </trkpt>
      <trkpt lat="46.99609" lon="8.86581">
        <ele>1548</ele>
        <time>2021-08-04T07:22:21.798Z</time>
      </trkpt>
      <trkpt lat="46.99608" lon="8.8658">
        <ele>1548</ele>
        <time>2021-08-04T07:22:22.798Z</time>
      </trkpt>
      <trkpt lat="46.99607" lon="8.86578">
        <ele>1548</ele>
        <time>2021-08-04T07:22:23.799Z</time>
      </trkpt>
      <trkpt lat="46.99606" lon="8.86577">
        <ele>1548</ele>
        <time>2021-08-04T07:22:24.799Z</time>
      </trkpt>
      <trkpt lat="46.99605" lon="8.86576">
        <ele>1548</ele>
        <time>2021-08-04T07:22:25.798Z</time>
      </trkpt>
      <trkpt lat="46.99603" lon="8.86574">
        <ele>1548</ele>
        <time>2021-08-04T07:22:26.798Z</time>
      </trkpt>
      <trkpt lat="46.99602" lon="8.86573">
        <ele>1548</ele>
        <time>2021-08-04T07:22:27.799Z</time>
      </trkpt>
      <trkpt lat="46.99602" lon="8.86572">
        <ele>1548</ele>
        <time>2021-08-04T07:22:28.798Z</time>
      </trkpt>
      <trkpt lat="46.99601" lon="8.86571">
        <ele>1548</ele>
        <time>2021-08-04T07:22:29.798Z</time>
      </trkpt>
      <trkpt lat="46.996" lon="8.8657">
        <ele>1547</ele>
        <time>2021-08-04T07:22:30.798Z</time>
      </trkpt>
      <trkpt lat="46.996" lon="8.86569">
        <ele>1547</ele>
        <time>2021-08-04T07:22:31.798Z</time>
      </trkpt>
      <trkpt lat="46.99599" lon="8.86568">
        <ele>1547</ele>
        <time>2021-08-04T07:22:32.798Z</time>
      </trkpt>
      <trkpt lat="46.99598" lon="8.86566">
        <ele>1546</ele>
        <time>2021-08-04T07:22:33.799Z</time>
      </trkpt>
      <trkpt lat="46.99598" lon="8.86565">
        <ele>1546</ele>
        <time>2021-08-04T07:22:34.798Z</time>
      </trkpt>
      <trkpt lat="46.99597" lon="8.86565">
        <ele>1546</ele>
        <time>2021-08-04T07:22:35.799Z</time>
      </trkpt>
      <trkpt lat="46.99597" lon="8.86565">
        <ele>1545</ele>
        <time>2021-08-04T07:22:36.798Z</time>
      </trkpt>
      <trkpt lat="46.99597" lon="8.86565">
        <ele>1545</ele>
        <time>2021-08-04T07:22:37.799Z</time>
      </trkpt>
      <trkpt lat="46.99596" lon="8.86565">
        <ele>1544</ele>
        <time>2021-08-04T07:22:38.799Z</time>
      </trkpt>
      <trkpt lat="46.99596" lon="8.86564">
        <ele>1544</ele>
        <time>2021-08-04T07:22:39.798Z</time>
      </trkpt>
      <trkpt lat="46.99596" lon="8.86563">
        <ele>1543</ele>
        <time>2021-08-04T07:22:40.798Z</time>
      </trkpt>
      <trkpt lat="46.99596" lon="8.86562">
        <ele>1542</ele>
        <time>2021-08-04T07:22:41.798Z</time>
      </trkpt>
      <trkpt lat="46.99596" lon="8.8656">
        <ele>1542</ele>
        <time>2021-08-04T07:22:42.798Z</time>
      </trkpt>
      <trkpt lat="46.99595" lon="8.86559">
        <ele>1541</ele>
        <time>2021-08-04T07:22:43.798Z</time>
      </trkpt>
      <trkpt lat="46.99595" lon="8.86558">
        <ele>1541</ele>
        <time>2021-08-04T07:22:44.798Z</time>
      </trkpt>
      <trkpt lat="46.99594" lon="8.86556">
        <ele>1541</ele>
        <time>2021-08-04T07:22:45.798Z</time>
      </trkpt>
      <trkpt lat="46.99593" lon="8.86555">
        <ele>1541</ele>
        <time>2021-08-04T07:22:46.798Z</time>
      </trkpt>
      <trkpt lat="46.99593" lon="8.86554">
        <ele>1540</ele>
        <time>2021-08-04T07:22:47.799Z</time>
      </trkpt>
      <trkpt lat="46.99592" lon="8.86553">
        <ele>1540</ele>
        <time>2021-08-04T07:22:48.799Z</time>
      </trkpt>
      <trkpt lat="46.99591" lon="8.86552">
        <ele>1540</ele>
        <time>2021-08-04T07:22:49.798Z</time>
      </trkpt>
      <trkpt lat="46.99591" lon="8.86552">
        <ele>1539</ele>
        <time>2021-08-04T07:22:50.798Z</time>
      </trkpt>
      <trkpt lat="46.99591" lon="8.86551">
        <ele>1539</ele>
        <time>2021-08-04T07:22:51.798Z</time>
      </trkpt>
      <trkpt lat="46.9959" lon="8.86551">
        <ele>1539</ele>
        <time>2021-08-04T07:22:52.798Z</time>
      </trkpt>
      <trkpt lat="46.9959" lon="8.86551">
        <ele>1539</ele>
        <time>2021-08-04T07:22:53.798Z</time>
      </trkpt>
      <trkpt lat="46.99589" lon="8.86551">
        <ele>1539</ele>
        <time>2021-08-04T07:22:54.798Z</time>
      </trkpt>
      <trkpt lat="46.99589" lon="8.8655">
        <ele>1540</ele>
        <time>2021-08-04T07:22:55.799Z</time>
      </trkpt>
      <trkpt lat="46.99589" lon="8.8655">
        <ele>1540</ele>
        <time>2021-08-04T07:22:56.799Z</time>
      </trkpt>
      <trkpt lat="46.99589" lon="8.8655">
        <ele>1541</ele>
        <time>2021-08-04T07:22:57.799Z</time>
      </trkpt>
      <trkpt lat="46.99589" lon="8.8655">
        <ele>1541</ele>
        <time>2021-08-04T07:22:58.799Z</time>
      </trkpt>
      <trkpt lat="46.99589" lon="8.86549">
        <ele>1541</ele>
        <time>2021-08-04T07:22:59.798Z</time>
      </trkpt>
      <trkpt lat="46.99589" lon="8.8655">
        <ele>1542</ele>
        <time>2021-08-04T07:23:00.798Z</time>
      </trkpt>
      <trkpt lat="46.99589" lon="8.86551">
        <ele>1543</ele>
        <time>2021-08-04T07:23:01.799Z</time>
      </trkpt>
      <trkpt lat="46.9959" lon="8.86551">
        <ele>1544</ele>
        <time>2021-08-04T07:23:02.799Z</time>
      </trkpt>
      <trkpt lat="46.99593" lon="8.86549">
        <ele>1544</ele>
        <time>2021-08-04T07:23:03.800Z</time>
      </trkpt>
      <trkpt lat="46.99593" lon="8.86549">
        <ele>1543</ele>
        <time>2021-08-04T07:23:04.800Z</time>
      </trkpt>
      <trkpt lat="46.99592" lon="8.86549">
        <ele>1542</ele>
        <time>2021-08-04T07:23:05.800Z</time>
      </trkpt>
      <trkpt lat="46.99591" lon="8.8655">
        <ele>1542</ele>
        <time>2021-08-04T07:23:06.800Z</time>
      </trkpt>
      <trkpt lat="46.99591" lon="8.8655">
        <ele>1541</ele>
        <time>2021-08-04T07:23:07.800Z</time>
      </trkpt>
      <trkpt lat="46.99591" lon="8.8655">
        <ele>1541</ele>
        <time>2021-08-04T07:23:08.800Z</time>
      </trkpt>
      <trkpt lat="46.9959" lon="8.8655">
        <ele>1540</ele>
        <time>2021-08-04T07:23:09.800Z</time>
      </trkpt>
      <trkpt lat="46.99589" lon="8.86548">
        <ele>1540</ele>
        <time>2021-08-04T07:23:10.800Z</time>
      </trkpt>
      <trkpt lat="46.99589" lon="8.86547">
        <ele>1540</ele>
        <time>2021-08-04T07:23:11.800Z</time>
      </trkpt>
      <trkpt lat="46.99588" lon="8.86546">
        <ele>1540</ele>
        <time>2021-08-04T07:23:12.800Z</time>
      </trkpt>
      <trkpt lat="46.99587" lon="8.86545">
        <ele>1540</ele>
        <time>2021-08-04T07:23:13.801Z</time>
      </trkpt>
      <trkpt lat="46.99586" lon="8.86544">
        <ele>1540</ele>
        <time>2021-08-04T07:23:14.801Z</time>
      </trkpt>
      <trkpt lat="46.99585" lon="8.86543">
        <ele>1539</ele>
        <time>2021-08-04T07:23:15.801Z</time>
      </trkpt>
      <trkpt lat="46.99585" lon="8.86542">
        <ele>1539</ele>
        <time>2021-08-04T07:23:16.800Z</time>
      </trkpt>
      <trkpt lat="46.99584" lon="8.86541">
        <ele>1539</ele>
        <time>2021-08-04T07:23:17.801Z</time>
      </trkpt>
      <trkpt lat="46.99583" lon="8.8654">
        <ele>1539</ele>
        <time>2021-08-04T07:23:18.801Z</time>
      </trkpt>
      <trkpt lat="46.99582" lon="8.86539">
        <ele>1539</ele>
        <time>2021-08-04T07:23:19.800Z</time>
      </trkpt>
      <trkpt lat="46.99582" lon="8.86537">
        <ele>1539</ele>
        <time>2021-08-04T07:23:20.801Z</time>
      </trkpt>
      <trkpt lat="46.99581" lon="8.86536">
        <ele>1539</ele>
        <time>2021-08-04T07:23:21.801Z</time>
      </trkpt>
      <trkpt lat="46.9958" lon="8.86535">
        <ele>1539</ele>
        <time>2021-08-04T07:23:22.801Z</time>
      </trkpt>
      <trkpt lat="46.99579" lon="8.86533">
        <ele>1539</ele>
        <time>2021-08-04T07:23:23.801Z</time>
      </trkpt>
      <trkpt lat="46.99578" lon="8.86533">
        <ele>1539</ele>
        <time>2021-08-04T07:23:24.801Z</time>
      </trkpt>
      <trkpt lat="46.99578" lon="8.86532">
        <ele>1539</ele>
        <time>2021-08-04T07:23:25.800Z</time>
      </trkpt>
      <trkpt lat="46.99577" lon="8.8653">
        <ele>1539</ele>
        <time>2021-08-04T07:23:26.800Z</time>
      </trkpt>
      <trkpt lat="46.99576" lon="8.86529">
        <ele>1539</ele>
        <time>2021-08-04T07:23:27.801Z</time>
      </trkpt>
      <trkpt lat="46.99575" lon="8.86527">
        <ele>1539</ele>
        <time>2021-08-04T07:23:28.801Z</time>
      </trkpt>
      <trkpt lat="46.99575" lon="8.86526">
        <ele>1539</ele>
        <time>2021-08-04T07:23:29.801Z</time>
      </trkpt>
      <trkpt lat="46.99574" lon="8.86524">
        <ele>1539</ele>
        <time>2021-08-04T07:23:30.801Z</time>
      </trkpt>
      <trkpt lat="46.99573" lon="8.86523">
        <ele>1539</ele>
        <time>2021-08-04T07:23:31.800Z</time>
      </trkpt>
      <trkpt lat="46.99572" lon="8.86521">
        <ele>1539</ele>
        <time>2021-08-04T07:23:32.801Z</time>
      </trkpt>
      <trkpt lat="46.99571" lon="8.86519">
        <ele>1539</ele>
        <time>2021-08-04T07:23:33.801Z</time>
      </trkpt>
      <trkpt lat="46.99571" lon="8.86518">
        <ele>1539</ele>
        <time>2021-08-04T07:23:34.800Z</time>
      </trkpt>
      <trkpt lat="46.9957" lon="8.86516">
        <ele>1539</ele>
        <time>2021-08-04T07:23:35.801Z</time>
      </trkpt>
      <trkpt lat="46.99569" lon="8.86514">
        <ele>1539</ele>
        <time>2021-08-04T07:23:36.801Z</time>
      </trkpt>
      <trkpt lat="46.99569" lon="8.86513">
        <ele>1539</ele>
        <time>2021-08-04T07:23:37.801Z</time>
      </trkpt>
      <trkpt lat="46.99569" lon="8.86511">
        <ele>1539</ele>
        <time>2021-08-04T07:23:38.801Z</time>
      </trkpt>
      <trkpt lat="46.99568" lon="8.8651">
        <ele>1538</ele>
        <time>2021-08-04T07:23:39.801Z</time>
      </trkpt>
      <trkpt lat="46.99567" lon="8.86509">
        <ele>1538</ele>
        <time>2021-08-04T07:23:40.800Z</time>
      </trkpt>
      <trkpt lat="46.99566" lon="8.86508">
        <ele>1538</ele>
        <time>2021-08-04T07:23:41.801Z</time>
      </trkpt>
      <trkpt lat="46.99565" lon="8.86507">
        <ele>1538</ele>
        <time>2021-08-04T07:23:42.801Z</time>
      </trkpt>
      <trkpt lat="46.99564" lon="8.86506">
        <ele>1538</ele>
        <time>2021-08-04T07:23:43.801Z</time>
      </trkpt>
      <trkpt lat="46.99563" lon="8.86504">
        <ele>1538</ele>
        <time>2021-08-04T07:23:44.800Z</time>
      </trkpt>
      <trkpt lat="46.99563" lon="8.86503">
        <ele>1537</ele>
        <time>2021-08-04T07:23:45.800Z</time>
      </trkpt>
      <trkpt lat="46.99562" lon="8.86501">
        <ele>1537</ele>
        <time>2021-08-04T07:23:46.800Z</time>
      </trkpt>
      <trkpt lat="46.99562" lon="8.86499">
        <ele>1537</ele>
        <time>2021-08-04T07:23:47.801Z</time>
      </trkpt>
      <trkpt lat="46.99561" lon="8.86497">
        <ele>1536</ele>
        <time>2021-08-04T07:23:48.801Z</time>
      </trkpt>
      <trkpt lat="46.9956" lon="8.86496">
        <ele>1536</ele>
        <time>2021-08-04T07:23:49.801Z</time>
      </trkpt>
      <trkpt lat="46.99559" lon="8.86495">
        <ele>1536</ele>
        <time>2021-08-04T07:23:50.801Z</time>
      </trkpt>
      <trkpt lat="46.99558" lon="8.86494">
        <ele>1536</ele>
        <time>2021-08-04T07:23:51.800Z</time>
      </trkpt>
      <trkpt lat="46.99558" lon="8.86493">
        <ele>1535</ele>
        <time>2021-08-04T07:23:52.800Z</time>
      </trkpt>
      <trkpt lat="46.99557" lon="8.86492">
        <ele>1535</ele>
        <time>2021-08-04T07:23:53.801Z</time>
      </trkpt>
      <trkpt lat="46.99557" lon="8.86491">
        <ele>1535</ele>
        <time>2021-08-04T07:23:54.801Z</time>
      </trkpt>
      <trkpt lat="46.99556" lon="8.86489">
        <ele>1534</ele>
        <time>2021-08-04T07:23:55.800Z</time>
      </trkpt>
      <trkpt lat="46.99555" lon="8.86488">
        <ele>1534</ele>
        <time>2021-08-04T07:23:56.801Z</time>
      </trkpt>
      <trkpt lat="46.99555" lon="8.86486">
        <ele>1534</ele>
        <time>2021-08-04T07:23:57.801Z</time>
      </trkpt>
      <trkpt lat="46.99555" lon="8.86485">
        <ele>1534</ele>
        <time>2021-08-04T07:23:58.801Z</time>
      </trkpt>
      <trkpt lat="46.99554" lon="8.86483">
        <ele>1534</ele>
        <time>2021-08-04T07:23:59.800Z</time>
      </trkpt>
      <trkpt lat="46.99554" lon="8.86482">
        <ele>1535</ele>
        <time>2021-08-04T07:24:00.800Z</time>
      </trkpt>
      <trkpt lat="46.99554" lon="8.86481">
        <ele>1535</ele>
        <time>2021-08-04T07:24:01.801Z</time>
      </trkpt>
      <trkpt lat="46.99553" lon="8.8648">
        <ele>1536</ele>
        <time>2021-08-04T07:24:02.801Z</time>
      </trkpt>
      <trkpt lat="46.99553" lon="8.86478">
        <ele>1536</ele>
        <time>2021-08-04T07:24:03.801Z</time>
      </trkpt>
      <trkpt lat="46.99553" lon="8.86477">
        <ele>1536</ele>
        <time>2021-08-04T07:24:04.801Z</time>
      </trkpt>
      <trkpt lat="46.99552" lon="8.86475">
        <ele>1536</ele>
        <time>2021-08-04T07:24:05.800Z</time>
      </trkpt>
      <trkpt lat="46.99552" lon="8.86474">
        <ele>1536</ele>
        <time>2021-08-04T07:24:06.800Z</time>
      </trkpt>
      <trkpt lat="46.99551" lon="8.86473">
        <ele>1536</ele>
        <time>2021-08-04T07:24:07.801Z</time>
      </trkpt>
      <trkpt lat="46.99551" lon="8.86471">
        <ele>1536</ele>
        <time>2021-08-04T07:24:08.800Z</time>
      </trkpt>
      <trkpt lat="46.9955" lon="8.8647">
        <ele>1536</ele>
        <time>2021-08-04T07:24:09.801Z</time>
      </trkpt>
      <trkpt lat="46.9955" lon="8.86469">
        <ele>1536</ele>
        <time>2021-08-04T07:24:10.800Z</time>
      </trkpt>
      <trkpt lat="46.9955" lon="8.86467">
        <ele>1536</ele>
        <time>2021-08-04T07:24:11.801Z</time>
      </trkpt>
      <trkpt lat="46.99551" lon="8.86465">
        <ele>1537</ele>
        <time>2021-08-04T07:24:12.801Z</time>
      </trkpt>
      <trkpt lat="46.9955" lon="8.86464">
        <ele>1537</ele>
        <time>2021-08-04T07:24:13.801Z</time>
      </trkpt>
      <trkpt lat="46.99551" lon="8.86463">
        <ele>1537</ele>
        <time>2021-08-04T07:24:14.800Z</time>
      </trkpt>
      <trkpt lat="46.99551" lon="8.86461">
        <ele>1537</ele>
        <time>2021-08-04T07:24:15.800Z</time>
      </trkpt>
      <trkpt lat="46.99551" lon="8.86459">
        <ele>1538</ele>
        <time>2021-08-04T07:24:16.801Z</time>
      </trkpt>
      <trkpt lat="46.99551" lon="8.86458">
        <ele>1538</ele>
        <time>2021-08-04T07:24:17.801Z</time>
      </trkpt>
      <trkpt lat="46.99551" lon="8.86456">
        <ele>1538</ele>
        <time>2021-08-04T07:24:18.800Z</time>
      </trkpt>
      <trkpt lat="46.99551" lon="8.86455">
        <ele>1538</ele>
        <time>2021-08-04T07:24:19.800Z</time>
      </trkpt>
      <trkpt lat="46.99549" lon="8.86454">
        <ele>1538</ele>
        <time>2021-08-04T07:24:20.800Z</time>
      </trkpt>
      <trkpt lat="46.99548" lon="8.86452">
        <ele>1538</ele>
        <time>2021-08-04T07:24:21.801Z</time>
      </trkpt>
      <trkpt lat="46.99547" lon="8.86451">
        <ele>1538</ele>
        <time>2021-08-04T07:24:22.801Z</time>
      </trkpt>
      <trkpt lat="46.99547" lon="8.8645">
        <ele>1539</ele>
        <time>2021-08-04T07:24:23.801Z</time>
      </trkpt>
      <trkpt lat="46.99546" lon="8.86448">
        <ele>1539</ele>
        <time>2021-08-04T07:24:24.801Z</time>
      </trkpt>
      <trkpt lat="46.99545" lon="8.86446">
        <ele>1539</ele>
        <time>2021-08-04T07:24:25.800Z</time>
      </trkpt>
      <trkpt lat="46.99544" lon="8.86445">
        <ele>1538</ele>
        <time>2021-08-04T07:24:26.801Z</time>
      </trkpt>
      <trkpt lat="46.99543" lon="8.86443">
        <ele>1538</ele>
        <time>2021-08-04T07:24:27.801Z</time>
      </trkpt>
      <trkpt lat="46.99541" lon="8.86442">
        <ele>1538</ele>
        <time>2021-08-04T07:24:28.801Z</time>
      </trkpt>
      <trkpt lat="46.99541" lon="8.86441">
        <ele>1538</ele>
        <time>2021-08-04T07:24:29.801Z</time>
      </trkpt>
      <trkpt lat="46.9954" lon="8.86439">
        <ele>1537</ele>
        <time>2021-08-04T07:24:30.800Z</time>
      </trkpt>
      <trkpt lat="46.99538" lon="8.86438">
        <ele>1536</ele>
        <time>2021-08-04T07:24:31.800Z</time>
      </trkpt>
      <trkpt lat="46.99537" lon="8.86436">
        <ele>1536</ele>
        <time>2021-08-04T07:24:32.800Z</time>
      </trkpt>
      <trkpt lat="46.99537" lon="8.86435">
        <ele>1536</ele>
        <time>2021-08-04T07:24:33.801Z</time>
      </trkpt>
      <trkpt lat="46.99536" lon="8.86434">
        <ele>1536</ele>
        <time>2021-08-04T07:24:34.801Z</time>
      </trkpt>
      <trkpt lat="46.99536" lon="8.86433">
        <ele>1536</ele>
        <time>2021-08-04T07:24:35.801Z</time>
      </trkpt>
      <trkpt lat="46.99535" lon="8.86432">
        <ele>1536</ele>
        <time>2021-08-04T07:24:36.801Z</time>
      </trkpt>
      <trkpt lat="46.99534" lon="8.86431">
        <ele>1536</ele>
        <time>2021-08-04T07:24:37.800Z</time>
      </trkpt>
      <trkpt lat="46.99534" lon="8.86429">
        <ele>1536</ele>
        <time>2021-08-04T07:24:38.801Z</time>
      </trkpt>
      <trkpt lat="46.99533" lon="8.86428">
        <ele>1536</ele>
        <time>2021-08-04T07:24:39.801Z</time>
      </trkpt>
      <trkpt lat="46.99532" lon="8.86428">
        <ele>1536</ele>
        <time>2021-08-04T07:24:40.800Z</time>
      </trkpt>
      <trkpt lat="46.99531" lon="8.86427">
        <ele>1536</ele>
        <time>2021-08-04T07:24:41.801Z</time>
      </trkpt>
      <trkpt lat="46.9953" lon="8.86427">
        <ele>1536</ele>
        <time>2021-08-04T07:24:42.801Z</time>
      </trkpt>
      <trkpt lat="46.99529" lon="8.86427">
        <ele>1536</ele>
        <time>2021-08-04T07:24:43.801Z</time>
      </trkpt>
      <trkpt lat="46.99528" lon="8.86427">
        <ele>1536</ele>
        <time>2021-08-04T07:24:44.800Z</time>
      </trkpt>
      <trkpt lat="46.99527" lon="8.86428">
        <ele>1537</ele>
        <time>2021-08-04T07:24:45.801Z</time>
      </trkpt>
      <trkpt lat="46.99526" lon="8.86428">
        <ele>1537</ele>
        <time>2021-08-04T07:24:46.801Z</time>
      </trkpt>
      <trkpt lat="46.99527" lon="8.86428">
        <ele>1537</ele>
        <time>2021-08-04T07:24:47.801Z</time>
      </trkpt>
      <trkpt lat="46.99527" lon="8.86427">
        <ele>1539</ele>
        <time>2021-08-04T07:24:48.800Z</time>
      </trkpt>
      <trkpt lat="46.99527" lon="8.86427">
        <ele>1539</ele>
        <time>2021-08-04T07:24:49.800Z</time>
      </trkpt>
      <trkpt lat="46.99527" lon="8.86427">
        <ele>1539</ele>
        <time>2021-08-04T07:24:50.800Z</time>
      </trkpt>
      <trkpt lat="46.99525" lon="8.86425">
        <ele>1539</ele>
        <time>2021-08-04T07:24:51.801Z</time>
      </trkpt>
      <trkpt lat="46.99524" lon="8.86424">
        <ele>1539</ele>
        <time>2021-08-04T07:24:52.801Z</time>
      </trkpt>
      <trkpt lat="46.99523" lon="8.86423">
        <ele>1538</ele>
        <time>2021-08-04T07:24:53.800Z</time>
      </trkpt>
      <trkpt lat="46.99523" lon="8.86422">
        <ele>1538</ele>
        <time>2021-08-04T07:24:54.800Z</time>
      </trkpt>
      <trkpt lat="46.99522" lon="8.8642">
        <ele>1538</ele>
        <time>2021-08-04T07:24:55.801Z</time>
      </trkpt>
      <trkpt lat="46.99521" lon="8.86419">
        <ele>1537</ele>
        <time>2021-08-04T07:24:56.800Z</time>
      </trkpt>
      <trkpt lat="46.99521" lon="8.86418">
        <ele>1537</ele>
        <time>2021-08-04T07:24:57.801Z</time>
      </trkpt>
      <trkpt lat="46.99521" lon="8.86416">
        <ele>1537</ele>
        <time>2021-08-04T07:24:58.801Z</time>
      </trkpt>
      <trkpt lat="46.99521" lon="8.86415">
        <ele>1537</ele>
        <time>2021-08-04T07:24:59.801Z</time>
      </trkpt>
      <trkpt lat="46.99521" lon="8.86414">
        <ele>1536</ele>
        <time>2021-08-04T07:25:00.801Z</time>
      </trkpt>
      <trkpt lat="46.9952" lon="8.86412">
        <ele>1536</ele>
        <time>2021-08-04T07:25:01.801Z</time>
      </trkpt>
      <trkpt lat="46.9952" lon="8.86411">
        <ele>1536</ele>
        <time>2021-08-04T07:25:02.801Z</time>
      </trkpt>
      <trkpt lat="46.99519" lon="8.86409">
        <ele>1536</ele>
        <time>2021-08-04T07:25:03.800Z</time>
      </trkpt>
      <trkpt lat="46.99518" lon="8.86408">
        <ele>1535</ele>
        <time>2021-08-04T07:25:04.801Z</time>
      </trkpt>
      <trkpt lat="46.99518" lon="8.86406">
        <ele>1535</ele>
        <time>2021-08-04T07:25:05.801Z</time>
      </trkpt>
      <trkpt lat="46.99518" lon="8.86405">
        <ele>1535</ele>
        <time>2021-08-04T07:25:06.800Z</time>
      </trkpt>
      <trkpt lat="46.99517" lon="8.86404">
        <ele>1535</ele>
        <time>2021-08-04T07:25:07.801Z</time>
      </trkpt>
      <trkpt lat="46.99516" lon="8.86402">
        <ele>1535</ele>
        <time>2021-08-04T07:25:08.800Z</time>
      </trkpt>
      <trkpt lat="46.99516" lon="8.86401">
        <ele>1534</ele>
        <time>2021-08-04T07:25:09.801Z</time>
      </trkpt>
      <trkpt lat="46.99515" lon="8.86399">
        <ele>1534</ele>
        <time>2021-08-04T07:25:10.801Z</time>
      </trkpt>
      <trkpt lat="46.99515" lon="8.86398">
        <ele>1534</ele>
        <time>2021-08-04T07:25:11.800Z</time>
      </trkpt>
      <trkpt lat="46.99514" lon="8.86397">
        <ele>1533</ele>
        <time>2021-08-04T07:25:12.800Z</time>
      </trkpt>
      <trkpt lat="46.99514" lon="8.86396">
        <ele>1533</ele>
        <time>2021-08-04T07:25:13.800Z</time>
      </trkpt>
      <trkpt lat="46.99513" lon="8.86394">
        <ele>1533</ele>
        <time>2021-08-04T07:25:14.800Z</time>
      </trkpt>
      <trkpt lat="46.99512" lon="8.86393">
        <ele>1532</ele>
        <time>2021-08-04T07:25:15.800Z</time>
      </trkpt>
      <trkpt lat="46.99511" lon="8.86392">
        <ele>1532</ele>
        <time>2021-08-04T07:25:16.800Z</time>
      </trkpt>
      <trkpt lat="46.99511" lon="8.86391">
        <ele>1532</ele>
        <time>2021-08-04T07:25:17.801Z</time>
      </trkpt>
      <trkpt lat="46.9951" lon="8.86389">
        <ele>1532</ele>
        <time>2021-08-04T07:25:18.801Z</time>
      </trkpt>
      <trkpt lat="46.9951" lon="8.86388">
        <ele>1532</ele>
        <time>2021-08-04T07:25:19.800Z</time>
      </trkpt>
      <trkpt lat="46.99509" lon="8.86386">
        <ele>1532</ele>
        <time>2021-08-04T07:25:20.800Z</time>
      </trkpt>
      <trkpt lat="46.99509" lon="8.86384">
        <ele>1531</ele>
        <time>2021-08-04T07:25:21.801Z</time>
      </trkpt>
      <trkpt lat="46.99508" lon="8.86383">
        <ele>1531</ele>
        <time>2021-08-04T07:25:22.801Z</time>
      </trkpt>
      <trkpt lat="46.99508" lon="8.86381">
        <ele>1531</ele>
        <time>2021-08-04T07:25:23.800Z</time>
      </trkpt>
      <trkpt lat="46.99507" lon="8.86379">
        <ele>1531</ele>
        <time>2021-08-04T07:25:24.801Z</time>
      </trkpt>
      <trkpt lat="46.99507" lon="8.86377">
        <ele>1531</ele>
        <time>2021-08-04T07:25:25.801Z</time>
      </trkpt>
      <trkpt lat="46.99506" lon="8.86376">
        <ele>1531</ele>
        <time>2021-08-04T07:25:26.800Z</time>
      </trkpt>
      <trkpt lat="46.99506" lon="8.86375">
        <ele>1531</ele>
        <time>2021-08-04T07:25:27.801Z</time>
      </trkpt>
      <trkpt lat="46.99506" lon="8.86373">
        <ele>1531</ele>
        <time>2021-08-04T07:25:28.801Z</time>
      </trkpt>
      <trkpt lat="46.99506" lon="8.86372">
        <ele>1530</ele>
        <time>2021-08-04T07:25:29.801Z</time>
      </trkpt>
      <trkpt lat="46.99506" lon="8.8637">
        <ele>1530</ele>
        <time>2021-08-04T07:25:30.800Z</time>
      </trkpt>
      <trkpt lat="46.99506" lon="8.86369">
        <ele>1530</ele>
        <time>2021-08-04T07:25:31.801Z</time>
      </trkpt>
      <trkpt lat="46.99505" lon="8.86368">
        <ele>1530</ele>
        <time>2021-08-04T07:25:32.801Z</time>
      </trkpt>
      <trkpt lat="46.99505" lon="8.86366">
        <ele>1530</ele>
        <time>2021-08-04T07:25:33.800Z</time>
      </trkpt>
      <trkpt lat="46.99505" lon="8.86365">
        <ele>1530</ele>
        <time>2021-08-04T07:25:34.801Z</time>
      </trkpt>
      <trkpt lat="46.99504" lon="8.86364">
        <ele>1530</ele>
        <time>2021-08-04T07:25:35.800Z</time>
      </trkpt>
      <trkpt lat="46.99504" lon="8.86363">
        <ele>1530</ele>
        <time>2021-08-04T07:25:36.801Z</time>
      </trkpt>
      <trkpt lat="46.99503" lon="8.86362">
        <ele>1530</ele>
        <time>2021-08-04T07:25:37.800Z</time>
      </trkpt>
      <trkpt lat="46.99501" lon="8.86361">
        <ele>1530</ele>
        <time>2021-08-04T07:25:38.801Z</time>
      </trkpt>
      <trkpt lat="46.995" lon="8.86361">
        <ele>1530</ele>
        <time>2021-08-04T07:25:39.801Z</time>
      </trkpt>
      <trkpt lat="46.99499" lon="8.8636">
        <ele>1531</ele>
        <time>2021-08-04T07:25:40.801Z</time>
      </trkpt>
      <trkpt lat="46.99498" lon="8.86359">
        <ele>1531</ele>
        <time>2021-08-04T07:25:41.800Z</time>
      </trkpt>
      <trkpt lat="46.99497" lon="8.86358">
        <ele>1531</ele>
        <time>2021-08-04T07:25:42.801Z</time>
      </trkpt>
      <trkpt lat="46.99495" lon="8.86357">
        <ele>1531</ele>
        <time>2021-08-04T07:25:43.801Z</time>
      </trkpt>
      <trkpt lat="46.99493" lon="8.86356">
        <ele>1531</ele>
        <time>2021-08-04T07:25:44.801Z</time>
      </trkpt>
      <trkpt lat="46.99492" lon="8.86355">
        <ele>1531</ele>
        <time>2021-08-04T07:25:45.801Z</time>
      </trkpt>
      <trkpt lat="46.99491" lon="8.86355">
        <ele>1531</ele>
        <time>2021-08-04T07:25:46.801Z</time>
      </trkpt>
      <trkpt lat="46.9949" lon="8.86354">
        <ele>1531</ele>
        <time>2021-08-04T07:25:47.800Z</time>
      </trkpt>
      <trkpt lat="46.99489" lon="8.86354">
        <ele>1531</ele>
        <time>2021-08-04T07:25:48.800Z</time>
      </trkpt>
      <trkpt lat="46.99488" lon="8.86352">
        <ele>1531</ele>
        <time>2021-08-04T07:25:49.801Z</time>
      </trkpt>
      <trkpt lat="46.99486" lon="8.86352">
        <ele>1531</ele>
        <time>2021-08-04T07:25:50.800Z</time>
      </trkpt>
      <trkpt lat="46.99485" lon="8.86351">
        <ele>1531</ele>
        <time>2021-08-04T07:25:51.801Z</time>
      </trkpt>
      <trkpt lat="46.99484" lon="8.86351">
        <ele>1531</ele>
        <time>2021-08-04T07:25:52.801Z</time>
      </trkpt>
      <trkpt lat="46.99483" lon="8.8635">
        <ele>1532</ele>
        <time>2021-08-04T07:25:53.800Z</time>
      </trkpt>
      <trkpt lat="46.99481" lon="8.86349">
        <ele>1532</ele>
        <time>2021-08-04T07:25:54.801Z</time>
      </trkpt>
      <trkpt lat="46.99479" lon="8.86348">
        <ele>1532</ele>
        <time>2021-08-04T07:25:55.801Z</time>
      </trkpt>
      <trkpt lat="46.99477" lon="8.86347">
        <ele>1532</ele>
        <time>2021-08-04T07:25:56.800Z</time>
      </trkpt>
      <trkpt lat="46.99476" lon="8.86347">
        <ele>1532</ele>
        <time>2021-08-04T07:25:57.800Z</time>
      </trkpt>
      <trkpt lat="46.99475" lon="8.86346">
        <ele>1532</ele>
        <time>2021-08-04T07:25:58.801Z</time>
      </trkpt>
      <trkpt lat="46.99474" lon="8.86345">
        <ele>1532</ele>
        <time>2021-08-04T07:25:59.801Z</time>
      </trkpt>
      <trkpt lat="46.99472" lon="8.86344">
        <ele>1532</ele>
        <time>2021-08-04T07:26:00.801Z</time>
      </trkpt>
      <trkpt lat="46.99471" lon="8.86343">
        <ele>1532</ele>
        <time>2021-08-04T07:26:01.801Z</time>
      </trkpt>
      <trkpt lat="46.9947" lon="8.86343">
        <ele>1532</ele>
        <time>2021-08-04T07:26:02.801Z</time>
      </trkpt>
      <trkpt lat="46.99469" lon="8.86342">
        <ele>1532</ele>
        <time>2021-08-04T07:26:03.800Z</time>
      </trkpt>
      <trkpt lat="46.99468" lon="8.86342">
        <ele>1531</ele>
        <time>2021-08-04T07:26:04.801Z</time>
      </trkpt>
      <trkpt lat="46.99466" lon="8.86341">
        <ele>1531</ele>
        <time>2021-08-04T07:26:05.800Z</time>
      </trkpt>
      <trkpt lat="46.99466" lon="8.8634">
        <ele>1530</ele>
        <time>2021-08-04T07:26:06.801Z</time>
      </trkpt>
      <trkpt lat="46.99465" lon="8.86339">
        <ele>1529</ele>
        <time>2021-08-04T07:26:07.800Z</time>
      </trkpt>
      <trkpt lat="46.99464" lon="8.86338">
        <ele>1529</ele>
        <time>2021-08-04T07:26:08.801Z</time>
      </trkpt>
      <trkpt lat="46.99464" lon="8.86337">
        <ele>1529</ele>
        <time>2021-08-04T07:26:09.801Z</time>
      </trkpt>
      <trkpt lat="46.99463" lon="8.86336">
        <ele>1528</ele>
        <time>2021-08-04T07:26:10.800Z</time>
      </trkpt>
      <trkpt lat="46.99462" lon="8.86334">
        <ele>1528</ele>
        <time>2021-08-04T07:26:11.801Z</time>
      </trkpt>
      <trkpt lat="46.99462" lon="8.86332">
        <ele>1527</ele>
        <time>2021-08-04T07:26:12.801Z</time>
      </trkpt>
      <trkpt lat="46.99462" lon="8.8633">
        <ele>1527</ele>
        <time>2021-08-04T07:26:13.800Z</time>
      </trkpt>
      <trkpt lat="46.99462" lon="8.86329">
        <ele>1527</ele>
        <time>2021-08-04T07:26:14.801Z</time>
      </trkpt>
      <trkpt lat="46.99461" lon="8.86328">
        <ele>1526</ele>
        <time>2021-08-04T07:26:15.800Z</time>
      </trkpt>
      <trkpt lat="46.99461" lon="8.86327">
        <ele>1526</ele>
        <time>2021-08-04T07:26:16.800Z</time>
      </trkpt>
      <trkpt lat="46.99461" lon="8.86326">
        <ele>1525</ele>
        <time>2021-08-04T07:26:17.801Z</time>
      </trkpt>
      <trkpt lat="46.9946" lon="8.86325">
        <ele>1525</ele>
        <time>2021-08-04T07:26:18.801Z</time>
      </trkpt>
      <trkpt lat="46.9946" lon="8.86324">
        <ele>1524</ele>
        <time>2021-08-04T07:26:19.801Z</time>
      </trkpt>
      <trkpt lat="46.99459" lon="8.86322">
        <ele>1523</ele>
        <time>2021-08-04T07:26:20.801Z</time>
      </trkpt>
      <trkpt lat="46.99458" lon="8.8632">
        <ele>1523</ele>
        <time>2021-08-04T07:26:21.801Z</time>
      </trkpt>
      <trkpt lat="46.99458" lon="8.86319">
        <ele>1522</ele>
        <time>2021-08-04T07:26:22.801Z</time>
      </trkpt>
      <trkpt lat="46.99457" lon="8.86317">
        <ele>1522</ele>
        <time>2021-08-04T07:26:23.800Z</time>
      </trkpt>
      <trkpt lat="46.99457" lon="8.86315">
        <ele>1522</ele>
        <time>2021-08-04T07:26:24.801Z</time>
      </trkpt>
      <trkpt lat="46.99456" lon="8.86313">
        <ele>1521</ele>
        <time>2021-08-04T07:26:25.801Z</time>
      </trkpt>
      <trkpt lat="46.99456" lon="8.86312">
        <ele>1521</ele>
        <time>2021-08-04T07:26:26.801Z</time>
      </trkpt>
      <trkpt lat="46.99456" lon="8.8631">
        <ele>1521</ele>
        <time>2021-08-04T07:26:27.801Z</time>
      </trkpt>
      <trkpt lat="46.99456" lon="8.86308">
        <ele>1521</ele>
        <time>2021-08-04T07:26:28.801Z</time>
      </trkpt>
      <trkpt lat="46.99456" lon="8.86307">
        <ele>1521</ele>
        <time>2021-08-04T07:26:29.801Z</time>
      </trkpt>
      <trkpt lat="46.99456" lon="8.86305">
        <ele>1521</ele>
        <time>2021-08-04T07:26:30.801Z</time>
      </trkpt>
      <trkpt lat="46.99455" lon="8.86303">
        <ele>1521</ele>
        <time>2021-08-04T07:26:31.801Z</time>
      </trkpt>
      <trkpt lat="46.99455" lon="8.86302">
        <ele>1521</ele>
        <time>2021-08-04T07:26:32.801Z</time>
      </trkpt>
      <trkpt lat="46.99455" lon="8.863">
        <ele>1521</ele>
        <time>2021-08-04T07:26:33.801Z</time>
      </trkpt>
      <trkpt lat="46.99455" lon="8.86298">
        <ele>1520</ele>
        <time>2021-08-04T07:26:34.801Z</time>
      </trkpt>
      <trkpt lat="46.99455" lon="8.86296">
        <ele>1520</ele>
        <time>2021-08-04T07:26:35.800Z</time>
      </trkpt>
      <trkpt lat="46.99455" lon="8.86295">
        <ele>1520</ele>
        <time>2021-08-04T07:26:36.800Z</time>
      </trkpt>
      <trkpt lat="46.99455" lon="8.86293">
        <ele>1520</ele>
        <time>2021-08-04T07:26:37.801Z</time>
      </trkpt>
      <trkpt lat="46.99454" lon="8.86291">
        <ele>1520</ele>
        <time>2021-08-04T07:26:38.800Z</time>
      </trkpt>
      <trkpt lat="46.99454" lon="8.86289">
        <ele>1519</ele>
        <time>2021-08-04T07:26:39.800Z</time>
      </trkpt>
      <trkpt lat="46.99454" lon="8.86288">
        <ele>1519</ele>
        <time>2021-08-04T07:26:40.801Z</time>
      </trkpt>
      <trkpt lat="46.99454" lon="8.86286">
        <ele>1519</ele>
        <time>2021-08-04T07:26:41.801Z</time>
      </trkpt>
      <trkpt lat="46.99453" lon="8.86285">
        <ele>1519</ele>
        <time>2021-08-04T07:26:42.800Z</time>
      </trkpt>
      <trkpt lat="46.99452" lon="8.86284">
        <ele>1519</ele>
        <time>2021-08-04T07:26:43.800Z</time>
      </trkpt>
      <trkpt lat="46.99451" lon="8.86283">
        <ele>1519</ele>
        <time>2021-08-04T07:26:44.801Z</time>
      </trkpt>
      <trkpt lat="46.9945" lon="8.86282">
        <ele>1519</ele>
        <time>2021-08-04T07:26:45.801Z</time>
      </trkpt>
      <trkpt lat="46.99449" lon="8.86282">
        <ele>1519</ele>
        <time>2021-08-04T07:26:46.800Z</time>
      </trkpt>
      <trkpt lat="46.99449" lon="8.86282">
        <ele>1519</ele>
        <time>2021-08-04T07:26:47.801Z</time>
      </trkpt>
      <trkpt lat="46.99448" lon="8.86281">
        <ele>1518</ele>
        <time>2021-08-04T07:26:48.800Z</time>
      </trkpt>
      <trkpt lat="46.99448" lon="8.86281">
        <ele>1518</ele>
        <time>2021-08-04T07:26:49.800Z</time>
      </trkpt>
      <trkpt lat="46.99447" lon="8.8628">
        <ele>1518</ele>
        <time>2021-08-04T07:26:50.800Z</time>
      </trkpt>
      <trkpt lat="46.99447" lon="8.86278">
        <ele>1517</ele>
        <time>2021-08-04T07:26:51.800Z</time>
      </trkpt>
      <trkpt lat="46.99446" lon="8.86277">
        <ele>1517</ele>
        <time>2021-08-04T07:26:52.801Z</time>
      </trkpt>
      <trkpt lat="46.99445" lon="8.86276">
        <ele>1517</ele>
        <time>2021-08-04T07:26:53.801Z</time>
      </trkpt>
      <trkpt lat="46.99444" lon="8.86275">
        <ele>1517</ele>
        <time>2021-08-04T07:26:54.800Z</time>
      </trkpt>
      <trkpt lat="46.99443" lon="8.86275">
        <ele>1517</ele>
        <time>2021-08-04T07:26:55.801Z</time>
      </trkpt>
      <trkpt lat="46.99443" lon="8.86274">
        <ele>1517</ele>
        <time>2021-08-04T07:26:56.801Z</time>
      </trkpt>
      <trkpt lat="46.99442" lon="8.86273">
        <ele>1517</ele>
        <time>2021-08-04T07:26:57.801Z</time>
      </trkpt>
      <trkpt lat="46.99441" lon="8.86272">
        <ele>1517</ele>
        <time>2021-08-04T07:26:58.800Z</time>
      </trkpt>
      <trkpt lat="46.9944" lon="8.86271">
        <ele>1517</ele>
        <time>2021-08-04T07:26:59.801Z</time>
      </trkpt>
      <trkpt lat="46.99439" lon="8.8627">
        <ele>1517</ele>
        <time>2021-08-04T07:27:00.801Z</time>
      </trkpt>
      <trkpt lat="46.99439" lon="8.86269">
        <ele>1517</ele>
        <time>2021-08-04T07:27:01.801Z</time>
      </trkpt>
      <trkpt lat="46.99439" lon="8.86267">
        <ele>1518</ele>
        <time>2021-08-04T07:27:02.801Z</time>
      </trkpt>
      <trkpt lat="46.99439" lon="8.86266">
        <ele>1518</ele>
        <time>2021-08-04T07:27:03.801Z</time>
      </trkpt>
      <trkpt lat="46.99439" lon="8.86264">
        <ele>1518</ele>
        <time>2021-08-04T07:27:04.801Z</time>
      </trkpt>
      <trkpt lat="46.99439" lon="8.86263">
        <ele>1519</ele>
        <time>2021-08-04T07:27:05.800Z</time>
      </trkpt>
      <trkpt lat="46.99439" lon="8.86261">
        <ele>1519</ele>
        <time>2021-08-04T07:27:06.801Z</time>
      </trkpt>
      <trkpt lat="46.99439" lon="8.8626">
        <ele>1519</ele>
        <time>2021-08-04T07:27:07.800Z</time>
      </trkpt>
      <trkpt lat="46.99439" lon="8.86258">
        <ele>1518</ele>
        <time>2021-08-04T07:27:08.800Z</time>
      </trkpt>
      <trkpt lat="46.99439" lon="8.86256">
        <ele>1518</ele>
        <time>2021-08-04T07:27:09.801Z</time>
      </trkpt>
      <trkpt lat="46.99439" lon="8.86254">
        <ele>1517</ele>
        <time>2021-08-04T07:27:10.800Z</time>
      </trkpt>
      <trkpt lat="46.99439" lon="8.86252">
        <ele>1517</ele>
        <time>2021-08-04T07:27:11.800Z</time>
      </trkpt>
      <trkpt lat="46.99439" lon="8.8625">
        <ele>1517</ele>
        <time>2021-08-04T07:27:12.801Z</time>
      </trkpt>
      <trkpt lat="46.99438" lon="8.86249">
        <ele>1516</ele>
        <time>2021-08-04T07:27:13.801Z</time>
      </trkpt>
      <trkpt lat="46.99438" lon="8.86248">
        <ele>1516</ele>
        <time>2021-08-04T07:27:14.801Z</time>
      </trkpt>
      <trkpt lat="46.99437" lon="8.86246">
        <ele>1516</ele>
        <time>2021-08-04T07:27:15.800Z</time>
      </trkpt>
      <trkpt lat="46.99436" lon="8.86245">
        <ele>1516</ele>
        <time>2021-08-04T07:27:16.800Z</time>
      </trkpt>
      <trkpt lat="46.99435" lon="8.86244">
        <ele>1516</ele>
        <time>2021-08-04T07:27:17.801Z</time>
      </trkpt>
      <trkpt lat="46.99434" lon="8.86243">
        <ele>1516</ele>
        <time>2021-08-04T07:27:18.801Z</time>
      </trkpt>
      <trkpt lat="46.99433" lon="8.86242">
        <ele>1516</ele>
        <time>2021-08-04T07:27:19.801Z</time>
      </trkpt>
      <trkpt lat="46.99432" lon="8.86242">
        <ele>1516</ele>
        <time>2021-08-04T07:27:20.800Z</time>
      </trkpt>
      <trkpt lat="46.99431" lon="8.86241">
        <ele>1516</ele>
        <time>2021-08-04T07:27:21.801Z</time>
      </trkpt>
      <trkpt lat="46.9943" lon="8.8624">
        <ele>1516</ele>
        <time>2021-08-04T07:27:22.801Z</time>
      </trkpt>
      <trkpt lat="46.99429" lon="8.86239">
        <ele>1516</ele>
        <time>2021-08-04T07:27:23.801Z</time>
      </trkpt>
      <trkpt lat="46.99428" lon="8.86238">
        <ele>1516</ele>
        <time>2021-08-04T07:27:24.800Z</time>
      </trkpt>
      <trkpt lat="46.99426" lon="8.86237">
        <ele>1516</ele>
        <time>2021-08-04T07:27:25.801Z</time>
      </trkpt>
      <trkpt lat="46.99425" lon="8.86236">
        <ele>1516</ele>
        <time>2021-08-04T07:27:26.801Z</time>
      </trkpt>
      <trkpt lat="46.99425" lon="8.86235">
        <ele>1516</ele>
        <time>2021-08-04T07:27:27.801Z</time>
      </trkpt>
      <trkpt lat="46.99424" lon="8.86234">
        <ele>1517</ele>
        <time>2021-08-04T07:27:28.801Z</time>
      </trkpt>
      <trkpt lat="46.99423" lon="8.86233">
        <ele>1516</ele>
        <time>2021-08-04T07:27:29.801Z</time>
      </trkpt>
      <trkpt lat="46.99422" lon="8.86232">
        <ele>1516</ele>
        <time>2021-08-04T07:27:30.801Z</time>
      </trkpt>
      <trkpt lat="46.99421" lon="8.86231">
        <ele>1516</ele>
        <time>2021-08-04T07:27:31.801Z</time>
      </trkpt>
      <trkpt lat="46.99419" lon="8.86229">
        <ele>1516</ele>
        <time>2021-08-04T07:27:32.800Z</time>
      </trkpt>
      <trkpt lat="46.99417" lon="8.86228">
        <ele>1515</ele>
        <time>2021-08-04T07:27:33.800Z</time>
      </trkpt>
      <trkpt lat="46.99416" lon="8.86226">
        <ele>1515</ele>
        <time>2021-08-04T07:27:34.801Z</time>
      </trkpt>
      <trkpt lat="46.99415" lon="8.86225">
        <ele>1515</ele>
        <time>2021-08-04T07:27:35.801Z</time>
      </trkpt>
      <trkpt lat="46.99414" lon="8.86223">
        <ele>1514</ele>
        <time>2021-08-04T07:27:36.800Z</time>
      </trkpt>
      <trkpt lat="46.99413" lon="8.86222">
        <ele>1514</ele>
        <time>2021-08-04T07:27:37.800Z</time>
      </trkpt>
      <trkpt lat="46.99412" lon="8.8622">
        <ele>1514</ele>
        <time>2021-08-04T07:27:38.801Z</time>
      </trkpt>
      <trkpt lat="46.99411" lon="8.86219">
        <ele>1513</ele>
        <time>2021-08-04T07:27:39.801Z</time>
      </trkpt>
      <trkpt lat="46.9941" lon="8.86217">
        <ele>1513</ele>
        <time>2021-08-04T07:27:40.800Z</time>
      </trkpt>
      <trkpt lat="46.99409" lon="8.86215">
        <ele>1513</ele>
        <time>2021-08-04T07:27:41.801Z</time>
      </trkpt>
      <trkpt lat="46.99409" lon="8.86214">
        <ele>1513</ele>
        <time>2021-08-04T07:27:42.800Z</time>
      </trkpt>
      <trkpt lat="46.99407" lon="8.86212">
        <ele>1513</ele>
        <time>2021-08-04T07:27:43.800Z</time>
      </trkpt>
      <trkpt lat="46.99407" lon="8.8621">
        <ele>1513</ele>
        <time>2021-08-04T07:27:44.801Z</time>
      </trkpt>
      <trkpt lat="46.99406" lon="8.86209">
        <ele>1513</ele>
        <time>2021-08-04T07:27:45.800Z</time>
      </trkpt>
      <trkpt lat="46.99405" lon="8.86208">
        <ele>1513</ele>
        <time>2021-08-04T07:27:46.800Z</time>
      </trkpt>
      <trkpt lat="46.99405" lon="8.86206">
        <ele>1513</ele>
        <time>2021-08-04T07:27:47.801Z</time>
      </trkpt>
      <trkpt lat="46.99404" lon="8.86205">
        <ele>1513</ele>
        <time>2021-08-04T07:27:48.801Z</time>
      </trkpt>
      <trkpt lat="46.99403" lon="8.86203">
        <ele>1513</ele>
        <time>2021-08-04T07:27:49.800Z</time>
      </trkpt>
      <trkpt lat="46.99403" lon="8.86202">
        <ele>1513</ele>
        <time>2021-08-04T07:27:50.801Z</time>
      </trkpt>
      <trkpt lat="46.99402" lon="8.86201">
        <ele>1512</ele>
        <time>2021-08-04T07:27:51.800Z</time>
      </trkpt>
      <trkpt lat="46.99401" lon="8.86199">
        <ele>1512</ele>
        <time>2021-08-04T07:27:52.800Z</time>
      </trkpt>
      <trkpt lat="46.994" lon="8.86198">
        <ele>1512</ele>
        <time>2021-08-04T07:27:53.801Z</time>
      </trkpt>
      <trkpt lat="46.99399" lon="8.86197">
        <ele>1512</ele>
        <time>2021-08-04T07:27:54.801Z</time>
      </trkpt>
      <trkpt lat="46.99398" lon="8.86195">
        <ele>1512</ele>
        <time>2021-08-04T07:27:55.801Z</time>
      </trkpt>
      <trkpt lat="46.99398" lon="8.86193">
        <ele>1512</ele>
        <time>2021-08-04T07:27:56.801Z</time>
      </trkpt>
      <trkpt lat="46.99398" lon="8.86192">
        <ele>1512</ele>
        <time>2021-08-04T07:27:57.801Z</time>
      </trkpt>
      <trkpt lat="46.99397" lon="8.8619">
        <ele>1512</ele>
        <time>2021-08-04T07:27:58.801Z</time>
      </trkpt>
      <trkpt lat="46.99396" lon="8.86189">
        <ele>1513</ele>
        <time>2021-08-04T07:27:59.800Z</time>
      </trkpt>
      <trkpt lat="46.99396" lon="8.86187">
        <ele>1512</ele>
        <time>2021-08-04T07:28:00.800Z</time>
      </trkpt>
      <trkpt lat="46.99395" lon="8.86186">
        <ele>1512</ele>
        <time>2021-08-04T07:28:01.801Z</time>
      </trkpt>
      <trkpt lat="46.99394" lon="8.86184">
        <ele>1512</ele>
        <time>2021-08-04T07:28:02.800Z</time>
      </trkpt>
      <trkpt lat="46.99393" lon="8.86182">
        <ele>1512</ele>
        <time>2021-08-04T07:28:03.801Z</time>
      </trkpt>
      <trkpt lat="46.99392" lon="8.86181">
        <ele>1512</ele>
        <time>2021-08-04T07:28:04.801Z</time>
      </trkpt>
      <trkpt lat="46.99392" lon="8.8618">
        <ele>1512</ele>
        <time>2021-08-04T07:28:05.801Z</time>
      </trkpt>
      <trkpt lat="46.99392" lon="8.86178">
        <ele>1512</ele>
        <time>2021-08-04T07:28:06.801Z</time>
      </trkpt>
      <trkpt lat="46.99391" lon="8.86176">
        <ele>1512</ele>
        <time>2021-08-04T07:28:07.801Z</time>
      </trkpt>
      <trkpt lat="46.9939" lon="8.86174">
        <ele>1511</ele>
        <time>2021-08-04T07:28:08.801Z</time>
      </trkpt>
      <trkpt lat="46.99389" lon="8.86172">
        <ele>1511</ele>
        <time>2021-08-04T07:28:09.801Z</time>
      </trkpt>
      <trkpt lat="46.99388" lon="8.86171">
        <ele>1511</ele>
        <time>2021-08-04T07:28:10.801Z</time>
      </trkpt>
      <trkpt lat="46.99388" lon="8.86169">
        <ele>1511</ele>
        <time>2021-08-04T07:28:11.801Z</time>
      </trkpt>
      <trkpt lat="46.99387" lon="8.86168">
        <ele>1511</ele>
        <time>2021-08-04T07:28:12.800Z</time>
      </trkpt>
      <trkpt lat="46.99387" lon="8.86166">
        <ele>1511</ele>
        <time>2021-08-04T07:28:13.801Z</time>
      </trkpt>
      <trkpt lat="46.99386" lon="8.86165">
        <ele>1511</ele>
        <time>2021-08-04T07:28:14.800Z</time>
      </trkpt>
      <trkpt lat="46.99386" lon="8.86163">
        <ele>1511</ele>
        <time>2021-08-04T07:28:15.800Z</time>
      </trkpt>
      <trkpt lat="46.99385" lon="8.86162">
        <ele>1511</ele>
        <time>2021-08-04T07:28:16.801Z</time>
      </trkpt>
      <trkpt lat="46.99384" lon="8.8616">
        <ele>1511</ele>
        <time>2021-08-04T07:28:17.801Z</time>
      </trkpt>
      <trkpt lat="46.99383" lon="8.86159">
        <ele>1511</ele>
        <time>2021-08-04T07:28:18.801Z</time>
      </trkpt>
      <trkpt lat="46.99383" lon="8.86158">
        <ele>1511</ele>
        <time>2021-08-04T07:28:19.801Z</time>
      </trkpt>
      <trkpt lat="46.99382" lon="8.86157">
        <ele>1511</ele>
        <time>2021-08-04T07:28:20.801Z</time>
      </trkpt>
      <trkpt lat="46.99381" lon="8.86155">
        <ele>1511</ele>
        <time>2021-08-04T07:28:21.801Z</time>
      </trkpt>
      <trkpt lat="46.99381" lon="8.86154">
        <ele>1511</ele>
        <time>2021-08-04T07:28:22.801Z</time>
      </trkpt>
      <trkpt lat="46.9938" lon="8.86152">
        <ele>1511</ele>
        <time>2021-08-04T07:28:23.800Z</time>
      </trkpt>
      <trkpt lat="46.9938" lon="8.86151">
        <ele>1511</ele>
        <time>2021-08-04T07:28:24.800Z</time>
      </trkpt>
      <trkpt lat="46.99379" lon="8.8615">
        <ele>1510</ele>
        <time>2021-08-04T07:28:25.801Z</time>
      </trkpt>
      <trkpt lat="46.99378" lon="8.86149">
        <ele>1510</ele>
        <time>2021-08-04T07:28:26.801Z</time>
      </trkpt>
      <trkpt lat="46.99377" lon="8.86147">
        <ele>1510</ele>
        <time>2021-08-04T07:28:27.800Z</time>
      </trkpt>
      <trkpt lat="46.99376" lon="8.86146">
        <ele>1509</ele>
        <time>2021-08-04T07:28:28.801Z</time>
      </trkpt>
      <trkpt lat="46.99375" lon="8.86145">
        <ele>1509</ele>
        <time>2021-08-04T07:28:29.801Z</time>
      </trkpt>
      <trkpt lat="46.99374" lon="8.86144">
        <ele>1509</ele>
        <time>2021-08-04T07:28:30.800Z</time>
      </trkpt>
      <trkpt lat="46.99372" lon="8.86143">
        <ele>1509</ele>
        <time>2021-08-04T07:28:31.800Z</time>
      </trkpt>
      <trkpt lat="46.99371" lon="8.86142">
        <ele>1509</ele>
        <time>2021-08-04T07:28:32.801Z</time>
      </trkpt>
      <trkpt lat="46.99369" lon="8.86141">
        <ele>1509</ele>
        <time>2021-08-04T07:28:33.801Z</time>
      </trkpt>
      <trkpt lat="46.99367" lon="8.8614">
        <ele>1509</ele>
        <time>2021-08-04T07:28:34.800Z</time>
      </trkpt>
      <trkpt lat="46.99366" lon="8.8614">
        <ele>1509</ele>
        <time>2021-08-04T07:28:35.801Z</time>
      </trkpt>
      <trkpt lat="46.99365" lon="8.86139">
        <ele>1509</ele>
        <time>2021-08-04T07:28:36.801Z</time>
      </trkpt>
      <trkpt lat="46.99364" lon="8.86139">
        <ele>1509</ele>
        <time>2021-08-04T07:28:37.801Z</time>
      </trkpt>
      <trkpt lat="46.99363" lon="8.86139">
        <ele>1508</ele>
        <time>2021-08-04T07:28:38.800Z</time>
      </trkpt>
      <trkpt lat="46.99362" lon="8.86139">
        <ele>1508</ele>
        <time>2021-08-04T07:28:39.800Z</time>
      </trkpt>
      <trkpt lat="46.99361" lon="8.86139">
        <ele>1508</ele>
        <time>2021-08-04T07:28:40.801Z</time>
      </trkpt>
      <trkpt lat="46.99359" lon="8.86138">
        <ele>1508</ele>
        <time>2021-08-04T07:28:41.800Z</time>
      </trkpt>
      <trkpt lat="46.99358" lon="8.86138">
        <ele>1508</ele>
        <time>2021-08-04T07:28:42.801Z</time>
      </trkpt>
      <trkpt lat="46.99357" lon="8.86139">
        <ele>1509</ele>
        <time>2021-08-04T07:28:43.801Z</time>
      </trkpt>
      <trkpt lat="46.99356" lon="8.86139">
        <ele>1508</ele>
        <time>2021-08-04T07:28:44.800Z</time>
      </trkpt>
      <trkpt lat="46.99354" lon="8.86139">
        <ele>1508</ele>
        <time>2021-08-04T07:28:45.800Z</time>
      </trkpt>
      <trkpt lat="46.99353" lon="8.86139">
        <ele>1508</ele>
        <time>2021-08-04T07:28:46.801Z</time>
      </trkpt>
      <trkpt lat="46.99352" lon="8.86139">
        <ele>1508</ele>
        <time>2021-08-04T07:28:47.800Z</time>
      </trkpt>
      <trkpt lat="46.99351" lon="8.86138">
        <ele>1508</ele>
        <time>2021-08-04T07:28:48.800Z</time>
      </trkpt>
      <trkpt lat="46.99349" lon="8.86138">
        <ele>1508</ele>
        <time>2021-08-04T07:28:49.801Z</time>
      </trkpt>
      <trkpt lat="46.99348" lon="8.86137">
        <ele>1507</ele>
        <time>2021-08-04T07:28:50.801Z</time>
      </trkpt>
      <trkpt lat="46.99347" lon="8.86136">
        <ele>1507</ele>
        <time>2021-08-04T07:28:51.800Z</time>
      </trkpt>
      <trkpt lat="46.99345" lon="8.86136">
        <ele>1507</ele>
        <time>2021-08-04T07:28:52.800Z</time>
      </trkpt>
      <trkpt lat="46.99344" lon="8.86135">
        <ele>1507</ele>
        <time>2021-08-04T07:28:53.801Z</time>
      </trkpt>
      <trkpt lat="46.99343" lon="8.86133">
        <ele>1507</ele>
        <time>2021-08-04T07:28:54.800Z</time>
      </trkpt>
      <trkpt lat="46.99341" lon="8.86132">
        <ele>1507</ele>
        <time>2021-08-04T07:28:55.800Z</time>
      </trkpt>
      <trkpt lat="46.9934" lon="8.86131">
        <ele>1508</ele>
        <time>2021-08-04T07:28:56.800Z</time>
      </trkpt>
      <trkpt lat="46.99339" lon="8.8613">
        <ele>1507</ele>
        <time>2021-08-04T07:28:57.800Z</time>
      </trkpt>
      <trkpt lat="46.99338" lon="8.86129">
        <ele>1507</ele>
        <time>2021-08-04T07:28:58.800Z</time>
      </trkpt>
      <trkpt lat="46.99337" lon="8.86127">
        <ele>1507</ele>
        <time>2021-08-04T07:28:59.800Z</time>
      </trkpt>
      <trkpt lat="46.99337" lon="8.86126">
        <ele>1507</ele>
        <time>2021-08-04T07:29:00.801Z</time>
      </trkpt>
      <trkpt lat="46.99336" lon="8.86124">
        <ele>1507</ele>
        <time>2021-08-04T07:29:01.800Z</time>
      </trkpt>
      <trkpt lat="46.99335" lon="8.86123">
        <ele>1507</ele>
        <time>2021-08-04T07:29:02.800Z</time>
      </trkpt>
      <trkpt lat="46.99335" lon="8.86121">
        <ele>1507</ele>
        <time>2021-08-04T07:29:03.800Z</time>
      </trkpt>
      <trkpt lat="46.99334" lon="8.8612">
        <ele>1506</ele>
        <time>2021-08-04T07:29:04.800Z</time>
      </trkpt>
      <trkpt lat="46.99333" lon="8.86118">
        <ele>1506</ele>
        <time>2021-08-04T07:29:05.800Z</time>
      </trkpt>
      <trkpt lat="46.99332" lon="8.86116">
        <ele>1506</ele>
        <time>2021-08-04T07:29:06.800Z</time>
      </trkpt>
      <trkpt lat="46.99332" lon="8.86115">
        <ele>1506</ele>
        <time>2021-08-04T07:29:07.800Z</time>
      </trkpt>
      <trkpt lat="46.99331" lon="8.86114">
        <ele>1506</ele>
        <time>2021-08-04T07:29:08.800Z</time>
      </trkpt>
      <trkpt lat="46.99331" lon="8.86112">
        <ele>1505</ele>
        <time>2021-08-04T07:29:09.800Z</time>
      </trkpt>
      <trkpt lat="46.99331" lon="8.86111">
        <ele>1505</ele>
        <time>2021-08-04T07:29:10.801Z</time>
      </trkpt>
      <trkpt lat="46.99331" lon="8.8611">
        <ele>1505</ele>
        <time>2021-08-04T07:29:11.800Z</time>
      </trkpt>
      <trkpt lat="46.99331" lon="8.86108">
        <ele>1504</ele>
        <time>2021-08-04T07:29:12.800Z</time>
      </trkpt>
      <trkpt lat="46.9933" lon="8.86107">
        <ele>1504</ele>
        <time>2021-08-04T07:29:13.800Z</time>
      </trkpt>
      <trkpt lat="46.9933" lon="8.86106">
        <ele>1503</ele>
        <time>2021-08-04T07:29:14.800Z</time>
      </trkpt>
      <trkpt lat="46.99329" lon="8.86105">
        <ele>1503</ele>
        <time>2021-08-04T07:29:15.801Z</time>
      </trkpt>
      <trkpt lat="46.99329" lon="8.86103">
        <ele>1502</ele>
        <time>2021-08-04T07:29:16.801Z</time>
      </trkpt>
      <trkpt lat="46.99328" lon="8.86102">
        <ele>1502</ele>
        <time>2021-08-04T07:29:17.801Z</time>
      </trkpt>
      <trkpt lat="46.99328" lon="8.86101">
        <ele>1502</ele>
        <time>2021-08-04T07:29:18.800Z</time>
      </trkpt>
      <trkpt lat="46.99327" lon="8.86099">
        <ele>1502</ele>
        <time>2021-08-04T07:29:19.801Z</time>
      </trkpt>
      <trkpt lat="46.99326" lon="8.86098">
        <ele>1502</ele>
        <time>2021-08-04T07:29:20.800Z</time>
      </trkpt>
      <trkpt lat="46.99326" lon="8.86097">
        <ele>1501</ele>
        <time>2021-08-04T07:29:21.800Z</time>
      </trkpt>
      <trkpt lat="46.99325" lon="8.86096">
        <ele>1501</ele>
        <time>2021-08-04T07:29:22.800Z</time>
      </trkpt>
      <trkpt lat="46.99324" lon="8.86094">
        <ele>1501</ele>
        <time>2021-08-04T07:29:23.800Z</time>
      </trkpt>
      <trkpt lat="46.99324" lon="8.86092">
        <ele>1501</ele>
        <time>2021-08-04T07:29:24.801Z</time>
      </trkpt>
      <trkpt lat="46.99323" lon="8.8609">
        <ele>1501</ele>
        <time>2021-08-04T07:29:25.800Z</time>
      </trkpt>
      <trkpt lat="46.99322" lon="8.86089">
        <ele>1501</ele>
        <time>2021-08-04T07:29:26.801Z</time>
      </trkpt>
      <trkpt lat="46.99321" lon="8.86087">
        <ele>1501</ele>
        <time>2021-08-04T07:29:27.801Z</time>
      </trkpt>
      <trkpt lat="46.9932" lon="8.86085">
        <ele>1502</ele>
        <time>2021-08-04T07:29:28.801Z</time>
      </trkpt>
      <trkpt lat="46.99319" lon="8.86084">
        <ele>1502</ele>
        <time>2021-08-04T07:29:29.801Z</time>
      </trkpt>
      <trkpt lat="46.99318" lon="8.86083">
        <ele>1502</ele>
        <time>2021-08-04T07:29:30.801Z</time>
      </trkpt>
      <trkpt lat="46.99317" lon="8.86082">
        <ele>1502</ele>
        <time>2021-08-04T07:29:31.801Z</time>
      </trkpt>
      <trkpt lat="46.99317" lon="8.8608">
        <ele>1502</ele>
        <time>2021-08-04T07:29:32.801Z</time>
      </trkpt>
      <trkpt lat="46.99316" lon="8.86079">
        <ele>1502</ele>
        <time>2021-08-04T07:29:33.801Z</time>
      </trkpt>
      <trkpt lat="46.99315" lon="8.86078">
        <ele>1502</ele>
        <time>2021-08-04T07:29:34.801Z</time>
      </trkpt>
      <trkpt lat="46.99314" lon="8.86077">
        <ele>1502</ele>
        <time>2021-08-04T07:29:35.801Z</time>
      </trkpt>
      <trkpt lat="46.99314" lon="8.86075">
        <ele>1501</ele>
        <time>2021-08-04T07:29:36.801Z</time>
      </trkpt>
      <trkpt lat="46.99313" lon="8.86074">
        <ele>1501</ele>
        <time>2021-08-04T07:29:37.801Z</time>
      </trkpt>
      <trkpt lat="46.99312" lon="8.86072">
        <ele>1500</ele>
        <time>2021-08-04T07:29:38.801Z</time>
      </trkpt>
      <trkpt lat="46.99311" lon="8.86071">
        <ele>1500</ele>
        <time>2021-08-04T07:29:39.801Z</time>
      </trkpt>
      <trkpt lat="46.9931" lon="8.86069">
        <ele>1500</ele>
        <time>2021-08-04T07:29:40.801Z</time>
      </trkpt>
      <trkpt lat="46.99309" lon="8.86068">
        <ele>1499</ele>
        <time>2021-08-04T07:29:41.800Z</time>
      </trkpt>
      <trkpt lat="46.99308" lon="8.86067">
        <ele>1498</ele>
        <time>2021-08-04T07:29:42.800Z</time>
      </trkpt>
      <trkpt lat="46.99307" lon="8.86065">
        <ele>1498</ele>
        <time>2021-08-04T07:29:43.801Z</time>
      </trkpt>
      <trkpt lat="46.99306" lon="8.86064">
        <ele>1498</ele>
        <time>2021-08-04T07:29:44.800Z</time>
      </trkpt>
      <trkpt lat="46.99305" lon="8.86062">
        <ele>1497</ele>
        <time>2021-08-04T07:29:45.801Z</time>
      </trkpt>
      <trkpt lat="46.99305" lon="8.86061">
        <ele>1497</ele>
        <time>2021-08-04T07:29:46.800Z</time>
      </trkpt>
      <trkpt lat="46.99304" lon="8.8606">
        <ele>1497</ele>
        <time>2021-08-04T07:29:47.800Z</time>
      </trkpt>
      <trkpt lat="46.99303" lon="8.86059">
        <ele>1497</ele>
        <time>2021-08-04T07:29:48.800Z</time>
      </trkpt>
      <trkpt lat="46.99303" lon="8.86057">
        <ele>1497</ele>
        <time>2021-08-04T07:29:49.801Z</time>
      </trkpt>
      <trkpt lat="46.99302" lon="8.86056">
        <ele>1496</ele>
        <time>2021-08-04T07:29:50.801Z</time>
      </trkpt>
      <trkpt lat="46.99301" lon="8.86055">
        <ele>1496</ele>
        <time>2021-08-04T07:29:51.800Z</time>
      </trkpt>
      <trkpt lat="46.993" lon="8.86053">
        <ele>1496</ele>
        <time>2021-08-04T07:29:52.800Z</time>
      </trkpt>
      <trkpt lat="46.99299" lon="8.86052">
        <ele>1496</ele>
        <time>2021-08-04T07:29:53.800Z</time>
      </trkpt>
      <trkpt lat="46.99298" lon="8.8605">
        <ele>1495</ele>
        <time>2021-08-04T07:29:54.800Z</time>
      </trkpt>
      <trkpt lat="46.99297" lon="8.86049">
        <ele>1495</ele>
        <time>2021-08-04T07:29:55.801Z</time>
      </trkpt>
      <trkpt lat="46.99296" lon="8.86047">
        <ele>1495</ele>
        <time>2021-08-04T07:29:56.801Z</time>
      </trkpt>
      <trkpt lat="46.99295" lon="8.86045">
        <ele>1495</ele>
        <time>2021-08-04T07:29:57.800Z</time>
      </trkpt>
      <trkpt lat="46.99294" lon="8.86044">
        <ele>1494</ele>
        <time>2021-08-04T07:29:58.801Z</time>
      </trkpt>
      <trkpt lat="46.99293" lon="8.86042">
        <ele>1494</ele>
        <time>2021-08-04T07:29:59.801Z</time>
      </trkpt>
      <trkpt lat="46.99293" lon="8.86041">
        <ele>1494</ele>
        <time>2021-08-04T07:30:00.801Z</time>
      </trkpt>
      <trkpt lat="46.99291" lon="8.86039">
        <ele>1494</ele>
        <time>2021-08-04T07:30:01.801Z</time>
      </trkpt>
      <trkpt lat="46.99291" lon="8.86038">
        <ele>1494</ele>
        <time>2021-08-04T07:30:02.801Z</time>
      </trkpt>
      <trkpt lat="46.9929" lon="8.86036">
        <ele>1494</ele>
        <time>2021-08-04T07:30:03.801Z</time>
      </trkpt>
      <trkpt lat="46.9929" lon="8.86034">
        <ele>1493</ele>
        <time>2021-08-04T07:30:04.801Z</time>
      </trkpt>
      <trkpt lat="46.9929" lon="8.86032">
        <ele>1493</ele>
        <time>2021-08-04T07:30:05.800Z</time>
      </trkpt>
      <trkpt lat="46.99289" lon="8.86031">
        <ele>1493</ele>
        <time>2021-08-04T07:30:06.800Z</time>
      </trkpt>
      <trkpt lat="46.99289" lon="8.86029">
        <ele>1493</ele>
        <time>2021-08-04T07:30:07.801Z</time>
      </trkpt>
      <trkpt lat="46.99289" lon="8.86028">
        <ele>1493</ele>
        <time>2021-08-04T07:30:08.800Z</time>
      </trkpt>
      <trkpt lat="46.99289" lon="8.86026">
        <ele>1493</ele>
        <time>2021-08-04T07:30:09.800Z</time>
      </trkpt>
      <trkpt lat="46.99288" lon="8.86024">
        <ele>1493</ele>
        <time>2021-08-04T07:30:10.801Z</time>
      </trkpt>
      <trkpt lat="46.99287" lon="8.86022">
        <ele>1494</ele>
        <time>2021-08-04T07:30:11.800Z</time>
      </trkpt>
      <trkpt lat="46.99285" lon="8.86021">
        <ele>1494</ele>
        <time>2021-08-04T07:30:12.801Z</time>
      </trkpt>
      <trkpt lat="46.99284" lon="8.86019">
        <ele>1494</ele>
        <time>2021-08-04T07:30:13.801Z</time>
      </trkpt>
      <trkpt lat="46.99283" lon="8.86018">
        <ele>1494</ele>
        <time>2021-08-04T07:30:14.800Z</time>
      </trkpt>
      <trkpt lat="46.99282" lon="8.86017">
        <ele>1494</ele>
        <time>2021-08-04T07:30:15.801Z</time>
      </trkpt>
      <trkpt lat="46.99282" lon="8.86016">
        <ele>1494</ele>
        <time>2021-08-04T07:30:16.801Z</time>
      </trkpt>
      <trkpt lat="46.99281" lon="8.86014">
        <ele>1494</ele>
        <time>2021-08-04T07:30:17.800Z</time>
      </trkpt>
      <trkpt lat="46.9928" lon="8.86012">
        <ele>1494</ele>
        <time>2021-08-04T07:30:18.801Z</time>
      </trkpt>
      <trkpt lat="46.99279" lon="8.86011">
        <ele>1494</ele>
        <time>2021-08-04T07:30:19.800Z</time>
      </trkpt>
      <trkpt lat="46.99278" lon="8.8601">
        <ele>1494</ele>
        <time>2021-08-04T07:30:20.801Z</time>
      </trkpt>
      <trkpt lat="46.99278" lon="8.86009">
        <ele>1494</ele>
        <time>2021-08-04T07:30:21.801Z</time>
      </trkpt>
      <trkpt lat="46.99278" lon="8.86007">
        <ele>1494</ele>
        <time>2021-08-04T07:30:22.800Z</time>
      </trkpt>
      <trkpt lat="46.99277" lon="8.86005">
        <ele>1493</ele>
        <time>2021-08-04T07:30:23.800Z</time>
      </trkpt>
      <trkpt lat="46.99277" lon="8.86004">
        <ele>1493</ele>
        <time>2021-08-04T07:30:24.801Z</time>
      </trkpt>
      <trkpt lat="46.99276" lon="8.86003">
        <ele>1493</ele>
        <time>2021-08-04T07:30:25.800Z</time>
      </trkpt>
      <trkpt lat="46.99276" lon="8.86001">
        <ele>1493</ele>
        <time>2021-08-04T07:30:26.801Z</time>
      </trkpt>
      <trkpt lat="46.99276" lon="8.86">
        <ele>1493</ele>
        <time>2021-08-04T07:30:27.800Z</time>
      </trkpt>
      <trkpt lat="46.99275" lon="8.85998">
        <ele>1493</ele>
        <time>2021-08-04T07:30:28.800Z</time>
      </trkpt>
      <trkpt lat="46.99274" lon="8.85997">
        <ele>1492</ele>
        <time>2021-08-04T07:30:29.801Z</time>
      </trkpt>
      <trkpt lat="46.99273" lon="8.85996">
        <ele>1492</ele>
        <time>2021-08-04T07:30:30.800Z</time>
      </trkpt>
      <trkpt lat="46.99273" lon="8.85994">
        <ele>1491</ele>
        <time>2021-08-04T07:30:31.800Z</time>
      </trkpt>
      <trkpt lat="46.99272" lon="8.85992">
        <ele>1491</ele>
        <time>2021-08-04T07:30:32.800Z</time>
      </trkpt>
      <trkpt lat="46.99272" lon="8.85991">
        <ele>1491</ele>
        <time>2021-08-04T07:30:33.800Z</time>
      </trkpt>
      <trkpt lat="46.99271" lon="8.8599">
        <ele>1490</ele>
        <time>2021-08-04T07:30:34.800Z</time>
      </trkpt>
      <trkpt lat="46.99271" lon="8.85988">
        <ele>1490</ele>
        <time>2021-08-04T07:30:35.800Z</time>
      </trkpt>
      <trkpt lat="46.9927" lon="8.85987">
        <ele>1490</ele>
        <time>2021-08-04T07:30:36.800Z</time>
      </trkpt>
      <trkpt lat="46.9927" lon="8.85985">
        <ele>1490</ele>
        <time>2021-08-04T07:30:37.800Z</time>
      </trkpt>
      <trkpt lat="46.99269" lon="8.85983">
        <ele>1490</ele>
        <time>2021-08-04T07:30:38.800Z</time>
      </trkpt>
      <trkpt lat="46.99268" lon="8.85981">
        <ele>1490</ele>
        <time>2021-08-04T07:30:39.801Z</time>
      </trkpt>
      <trkpt lat="46.99267" lon="8.8598">
        <ele>1489</ele>
        <time>2021-08-04T07:30:40.800Z</time>
      </trkpt>
      <trkpt lat="46.99267" lon="8.85979">
        <ele>1489</ele>
        <time>2021-08-04T07:30:41.800Z</time>
      </trkpt>
      <trkpt lat="46.99266" lon="8.85977">
        <ele>1489</ele>
        <time>2021-08-04T07:30:42.801Z</time>
      </trkpt>
      <trkpt lat="46.99266" lon="8.85976">
        <ele>1489</ele>
        <time>2021-08-04T07:30:43.800Z</time>
      </trkpt>
      <trkpt lat="46.99265" lon="8.85974">
        <ele>1489</ele>
        <time>2021-08-04T07:30:44.800Z</time>
      </trkpt>
      <trkpt lat="46.99265" lon="8.85973">
        <ele>1489</ele>
        <time>2021-08-04T07:30:45.801Z</time>
      </trkpt>
      <trkpt lat="46.99264" lon="8.85972">
        <ele>1489</ele>
        <time>2021-08-04T07:30:46.800Z</time>
      </trkpt>
      <trkpt lat="46.99263" lon="8.85971">
        <ele>1489</ele>
        <time>2021-08-04T07:30:47.800Z</time>
      </trkpt>
      <trkpt lat="46.99263" lon="8.85969">
        <ele>1489</ele>
        <time>2021-08-04T07:30:48.800Z</time>
      </trkpt>
      <trkpt lat="46.99261" lon="8.85968">
        <ele>1489</ele>
        <time>2021-08-04T07:30:49.800Z</time>
      </trkpt>
      <trkpt lat="46.9926" lon="8.85966">
        <ele>1489</ele>
        <time>2021-08-04T07:30:50.800Z</time>
      </trkpt>
      <trkpt lat="46.9926" lon="8.85964">
        <ele>1488</ele>
        <time>2021-08-04T07:30:51.800Z</time>
      </trkpt>
      <trkpt lat="46.99259" lon="8.85963">
        <ele>1488</ele>
        <time>2021-08-04T07:30:52.800Z</time>
      </trkpt>
      <trkpt lat="46.99259" lon="8.85961">
        <ele>1488</ele>
        <time>2021-08-04T07:30:53.801Z</time>
      </trkpt>
      <trkpt lat="46.99258" lon="8.8596">
        <ele>1488</ele>
        <time>2021-08-04T07:30:54.801Z</time>
      </trkpt>
      <trkpt lat="46.99258" lon="8.85958">
        <ele>1487</ele>
        <time>2021-08-04T07:30:55.801Z</time>
      </trkpt>
      <trkpt lat="46.99258" lon="8.85957">
        <ele>1487</ele>
        <time>2021-08-04T07:30:56.800Z</time>
      </trkpt>
      <trkpt lat="46.99257" lon="8.85955">
        <ele>1487</ele>
        <time>2021-08-04T07:30:57.800Z</time>
      </trkpt>
      <trkpt lat="46.99257" lon="8.85954">
        <ele>1486</ele>
        <time>2021-08-04T07:30:58.800Z</time>
      </trkpt>
      <trkpt lat="46.99256" lon="8.85952">
        <ele>1486</ele>
        <time>2021-08-04T07:30:59.800Z</time>
      </trkpt>
      <trkpt lat="46.99256" lon="8.85951">
        <ele>1485</ele>
        <time>2021-08-04T07:31:00.801Z</time>
      </trkpt>
      <trkpt lat="46.99255" lon="8.85949">
        <ele>1484</ele>
        <time>2021-08-04T07:31:01.800Z</time>
      </trkpt>
      <trkpt lat="46.99255" lon="8.85948">
        <ele>1484</ele>
        <time>2021-08-04T07:31:02.800Z</time>
      </trkpt>
      <trkpt lat="46.99254" lon="8.85947">
        <ele>1484</ele>
        <time>2021-08-04T07:31:03.801Z</time>
      </trkpt>
      <trkpt lat="46.99254" lon="8.85945">
        <ele>1484</ele>
        <time>2021-08-04T07:31:04.800Z</time>
      </trkpt>
      <trkpt lat="46.99253" lon="8.85943">
        <ele>1484</ele>
        <time>2021-08-04T07:31:05.800Z</time>
      </trkpt>
      <trkpt lat="46.99253" lon="8.85941">
        <ele>1484</ele>
        <time>2021-08-04T07:31:06.800Z</time>
      </trkpt>
      <trkpt lat="46.99253" lon="8.85939">
        <ele>1484</ele>
        <time>2021-08-04T07:31:07.801Z</time>
      </trkpt>
      <trkpt lat="46.99252" lon="8.85938">
        <ele>1484</ele>
        <time>2021-08-04T07:31:08.800Z</time>
      </trkpt>
      <trkpt lat="46.99251" lon="8.85937">
        <ele>1484</ele>
        <time>2021-08-04T07:31:09.800Z</time>
      </trkpt>
      <trkpt lat="46.9925" lon="8.85935">
        <ele>1483</ele>
        <time>2021-08-04T07:31:10.800Z</time>
      </trkpt>
      <trkpt lat="46.9925" lon="8.85934">
        <ele>1483</ele>
        <time>2021-08-04T07:31:11.801Z</time>
      </trkpt>
      <trkpt lat="46.99249" lon="8.85933">
        <ele>1483</ele>
        <time>2021-08-04T07:31:12.801Z</time>
      </trkpt>
      <trkpt lat="46.99249" lon="8.85932">
        <ele>1483</ele>
        <time>2021-08-04T07:31:13.801Z</time>
      </trkpt>
      <trkpt lat="46.99247" lon="8.85931">
        <ele>1484</ele>
        <time>2021-08-04T07:31:14.801Z</time>
      </trkpt>
      <trkpt lat="46.99246" lon="8.8593">
        <ele>1484</ele>
        <time>2021-08-04T07:31:15.800Z</time>
      </trkpt>
      <trkpt lat="46.99245" lon="8.85929">
        <ele>1484</ele>
        <time>2021-08-04T07:31:16.801Z</time>
      </trkpt>
      <trkpt lat="46.99243" lon="8.85929">
        <ele>1484</ele>
        <time>2021-08-04T07:31:17.800Z</time>
      </trkpt>
      <trkpt lat="46.99242" lon="8.85929">
        <ele>1484</ele>
        <time>2021-08-04T07:31:18.801Z</time>
      </trkpt>
      <trkpt lat="46.99241" lon="8.85928">
        <ele>1484</ele>
        <time>2021-08-04T07:31:19.800Z</time>
      </trkpt>
      <trkpt lat="46.9924" lon="8.85928">
        <ele>1484</ele>
        <time>2021-08-04T07:31:20.801Z</time>
      </trkpt>
      <trkpt lat="46.99238" lon="8.85927">
        <ele>1483</ele>
        <time>2021-08-04T07:31:21.801Z</time>
      </trkpt>
      <trkpt lat="46.99237" lon="8.85926">
        <ele>1483</ele>
        <time>2021-08-04T07:31:22.801Z</time>
      </trkpt>
      <trkpt lat="46.99236" lon="8.85925">
        <ele>1483</ele>
        <time>2021-08-04T07:31:23.801Z</time>
      </trkpt>
      <trkpt lat="46.99235" lon="8.85925">
        <ele>1483</ele>
        <time>2021-08-04T07:31:24.801Z</time>
      </trkpt>
      <trkpt lat="46.99235" lon="8.85924">
        <ele>1482</ele>
        <time>2021-08-04T07:31:25.800Z</time>
      </trkpt>
      <trkpt lat="46.99235" lon="8.85924">
        <ele>1482</ele>
        <time>2021-08-04T07:31:26.801Z</time>
      </trkpt>
      <trkpt lat="46.99234" lon="8.85923">
        <ele>1482</ele>
        <time>2021-08-04T07:31:27.801Z</time>
      </trkpt>
      <trkpt lat="46.99234" lon="8.85923">
        <ele>1482</ele>
        <time>2021-08-04T07:31:28.801Z</time>
      </trkpt>
      <trkpt lat="46.99234" lon="8.85922">
        <ele>1482</ele>
        <time>2021-08-04T07:31:29.801Z</time>
      </trkpt>
      <trkpt lat="46.99234" lon="8.85921">
        <ele>1482</ele>
        <time>2021-08-04T07:31:30.801Z</time>
      </trkpt>
      <trkpt lat="46.99234" lon="8.85921">
        <ele>1482</ele>
        <time>2021-08-04T07:31:31.800Z</time>
      </trkpt>
      <trkpt lat="46.99234" lon="8.8592">
        <ele>1481</ele>
        <time>2021-08-04T07:31:32.801Z</time>
      </trkpt>
      <trkpt lat="46.99233" lon="8.85919">
        <ele>1481</ele>
        <time>2021-08-04T07:31:33.800Z</time>
      </trkpt>
      <trkpt lat="46.99232" lon="8.85918">
        <ele>1480</ele>
        <time>2021-08-04T07:31:34.801Z</time>
      </trkpt>
      <trkpt lat="46.99233" lon="8.85915">
        <ele>1478</ele>
        <time>2021-08-04T07:31:35.802Z</time>
      </trkpt>
      <trkpt lat="46.99233" lon="8.85914">
        <ele>1478</ele>
        <time>2021-08-04T07:31:36.801Z</time>
      </trkpt>
      <trkpt lat="46.99233" lon="8.85913">
        <ele>1478</ele>
        <time>2021-08-04T07:31:37.802Z</time>
      </trkpt>
      <trkpt lat="46.99233" lon="8.85913">
        <ele>1478</ele>
        <time>2021-08-04T07:31:38.802Z</time>
      </trkpt>
      <trkpt lat="46.99233" lon="8.85912">
        <ele>1478</ele>
        <time>2021-08-04T07:31:39.802Z</time>
      </trkpt>
      <trkpt lat="46.99234" lon="8.85911">
        <ele>1478</ele>
        <time>2021-08-04T07:31:40.802Z</time>
      </trkpt>
      <trkpt lat="46.99233" lon="8.85909">
        <ele>1478</ele>
        <time>2021-08-04T07:31:41.802Z</time>
      </trkpt>
      <trkpt lat="46.99233" lon="8.85908">
        <ele>1478</ele>
        <time>2021-08-04T07:31:42.802Z</time>
      </trkpt>
      <trkpt lat="46.99233" lon="8.85907">
        <ele>1478</ele>
        <time>2021-08-04T07:31:43.801Z</time>
      </trkpt>
      <trkpt lat="46.99234" lon="8.85905">
        <ele>1478</ele>
        <time>2021-08-04T07:31:44.802Z</time>
      </trkpt>
      <trkpt lat="46.99234" lon="8.85904">
        <ele>1478</ele>
        <time>2021-08-04T07:31:45.802Z</time>
      </trkpt>
      <trkpt lat="46.99234" lon="8.85903">
        <ele>1478</ele>
        <time>2021-08-04T07:31:46.801Z</time>
      </trkpt>
      <trkpt lat="46.99235" lon="8.85901">
        <ele>1478</ele>
        <time>2021-08-04T07:31:47.801Z</time>
      </trkpt>
      <trkpt lat="46.99235" lon="8.85901">
        <ele>1478</ele>
        <time>2021-08-04T07:31:48.802Z</time>
      </trkpt>
      <trkpt lat="46.99235" lon="8.85901">
        <ele>1478</ele>
        <time>2021-08-04T07:31:49.802Z</time>
      </trkpt>
      <trkpt lat="46.99236" lon="8.85899">
        <ele>1477</ele>
        <time>2021-08-04T07:31:50.803Z</time>
      </trkpt>
      <trkpt lat="46.99236" lon="8.85898">
        <ele>1477</ele>
        <time>2021-08-04T07:31:51.803Z</time>
      </trkpt>
      <trkpt lat="46.99236" lon="8.85896">
        <ele>1477</ele>
        <time>2021-08-04T07:31:52.803Z</time>
      </trkpt>
      <trkpt lat="46.99236" lon="8.85895">
        <ele>1477</ele>
        <time>2021-08-04T07:31:53.803Z</time>
      </trkpt>
      <trkpt lat="46.99236" lon="8.85894">
        <ele>1477</ele>
        <time>2021-08-04T07:31:54.803Z</time>
      </trkpt>
      <trkpt lat="46.99235" lon="8.85894">
        <ele>1477</ele>
        <time>2021-08-04T07:31:55.803Z</time>
      </trkpt>
      <trkpt lat="46.99235" lon="8.85894">
        <ele>1477</ele>
        <time>2021-08-04T07:31:56.803Z</time>
      </trkpt>
      <trkpt lat="46.99234" lon="8.85891">
        <ele>1478</ele>
        <time>2021-08-04T07:31:57.804Z</time>
      </trkpt>
      <trkpt lat="46.99234" lon="8.8589">
        <ele>1478</ele>
        <time>2021-08-04T07:31:58.804Z</time>
      </trkpt>
      <trkpt lat="46.99234" lon="8.85889">
        <ele>1478</ele>
        <time>2021-08-04T07:31:59.804Z</time>
      </trkpt>
      <trkpt lat="46.99233" lon="8.85888">
        <ele>1478</ele>
        <time>2021-08-04T07:32:00.804Z</time>
      </trkpt>
      <trkpt lat="46.99233" lon="8.85887">
        <ele>1478</ele>
        <time>2021-08-04T07:32:01.804Z</time>
      </trkpt>
      <trkpt lat="46.99233" lon="8.85886">
        <ele>1478</ele>
        <time>2021-08-04T07:32:02.804Z</time>
      </trkpt>
      <trkpt lat="46.99233" lon="8.85885">
        <ele>1478</ele>
        <time>2021-08-04T07:32:03.804Z</time>
      </trkpt>
      <trkpt lat="46.99233" lon="8.85884">
        <ele>1478</ele>
        <time>2021-08-04T07:32:04.804Z</time>
      </trkpt>
      <trkpt lat="46.99232" lon="8.85883">
        <ele>1478</ele>
        <time>2021-08-04T07:32:05.804Z</time>
      </trkpt>
      <trkpt lat="46.99231" lon="8.85881">
        <ele>1478</ele>
        <time>2021-08-04T07:32:06.803Z</time>
      </trkpt>
      <trkpt lat="46.99231" lon="8.85881">
        <ele>1478</ele>
        <time>2021-08-04T07:32:07.803Z</time>
      </trkpt>
      <trkpt lat="46.9923" lon="8.8588">
        <ele>1478</ele>
        <time>2021-08-04T07:32:08.803Z</time>
      </trkpt>
      <trkpt lat="46.99229" lon="8.85879">
        <ele>1478</ele>
        <time>2021-08-04T07:32:09.803Z</time>
      </trkpt>
      <trkpt lat="46.99228" lon="8.85878">
        <ele>1478</ele>
        <time>2021-08-04T07:32:10.804Z</time>
      </trkpt>
      <trkpt lat="46.99228" lon="8.85877">
        <ele>1478</ele>
        <time>2021-08-04T07:32:11.803Z</time>
      </trkpt>
      <trkpt lat="46.99227" lon="8.85876">
        <ele>1478</ele>
        <time>2021-08-04T07:32:12.804Z</time>
      </trkpt>
      <trkpt lat="46.99227" lon="8.85875">
        <ele>1478</ele>
        <time>2021-08-04T07:32:13.804Z</time>
      </trkpt>
      <trkpt lat="46.99227" lon="8.85874">
        <ele>1478</ele>
        <time>2021-08-04T07:32:14.804Z</time>
      </trkpt>
      <trkpt lat="46.99226" lon="8.85873">
        <ele>1478</ele>
        <time>2021-08-04T07:32:15.804Z</time>
      </trkpt>
      <trkpt lat="46.99226" lon="8.85871">
        <ele>1479</ele>
        <time>2021-08-04T07:32:16.803Z</time>
      </trkpt>
      <trkpt lat="46.99225" lon="8.8587">
        <ele>1479</ele>
        <time>2021-08-04T07:32:17.803Z</time>
      </trkpt>
      <trkpt lat="46.99224" lon="8.85869">
        <ele>1480</ele>
        <time>2021-08-04T07:32:18.803Z</time>
      </trkpt>
      <trkpt lat="46.99223" lon="8.85868">
        <ele>1480</ele>
        <time>2021-08-04T07:32:19.803Z</time>
      </trkpt>
      <trkpt lat="46.99223" lon="8.85867">
        <ele>1480</ele>
        <time>2021-08-04T07:32:20.803Z</time>
      </trkpt>
      <trkpt lat="46.99222" lon="8.85867">
        <ele>1480</ele>
        <time>2021-08-04T07:32:21.804Z</time>
      </trkpt>
      <trkpt lat="46.99222" lon="8.85866">
        <ele>1481</ele>
        <time>2021-08-04T07:32:22.804Z</time>
      </trkpt>
      <trkpt lat="46.99222" lon="8.85865">
        <ele>1481</ele>
        <time>2021-08-04T07:32:23.804Z</time>
      </trkpt>
      <trkpt lat="46.99221" lon="8.85864">
        <ele>1481</ele>
        <time>2021-08-04T07:32:24.803Z</time>
      </trkpt>
      <trkpt lat="46.9922" lon="8.85863">
        <ele>1482</ele>
        <time>2021-08-04T07:32:25.803Z</time>
      </trkpt>
      <trkpt lat="46.9922" lon="8.85862">
        <ele>1482</ele>
        <time>2021-08-04T07:32:26.803Z</time>
      </trkpt>
      <trkpt lat="46.99219" lon="8.85861">
        <ele>1483</ele>
        <time>2021-08-04T07:32:27.804Z</time>
      </trkpt>
      <trkpt lat="46.99219" lon="8.8586">
        <ele>1483</ele>
        <time>2021-08-04T07:32:28.804Z</time>
      </trkpt>
      <trkpt lat="46.99219" lon="8.85859">
        <ele>1483</ele>
        <time>2021-08-04T07:32:29.804Z</time>
      </trkpt>
      <trkpt lat="46.99218" lon="8.85858">
        <ele>1483</ele>
        <time>2021-08-04T07:32:30.803Z</time>
      </trkpt>
      <trkpt lat="46.99218" lon="8.85857">
        <ele>1483</ele>
        <time>2021-08-04T07:32:31.804Z</time>
      </trkpt>
      <trkpt lat="46.99217" lon="8.85857">
        <ele>1482</ele>
        <time>2021-08-04T07:32:32.804Z</time>
      </trkpt>
      <trkpt lat="46.99217" lon="8.85857">
        <ele>1482</ele>
        <time>2021-08-04T07:32:33.804Z</time>
      </trkpt>
      <trkpt lat="46.99216" lon="8.85855">
        <ele>1480</ele>
        <time>2021-08-04T07:32:34.805Z</time>
      </trkpt>
      <trkpt lat="46.99215" lon="8.85854">
        <ele>1480</ele>
        <time>2021-08-04T07:32:35.804Z</time>
      </trkpt>
      <trkpt lat="46.99215" lon="8.85852">
        <ele>1479</ele>
        <time>2021-08-04T07:32:36.804Z</time>
      </trkpt>
      <trkpt lat="46.99214" lon="8.85852">
        <ele>1479</ele>
        <time>2021-08-04T07:32:37.805Z</time>
      </trkpt>
      <trkpt lat="46.99213" lon="8.8585">
        <ele>1479</ele>
        <time>2021-08-04T07:32:38.805Z</time>
      </trkpt>
      <trkpt lat="46.99212" lon="8.85849">
        <ele>1479</ele>
        <time>2021-08-04T07:32:39.805Z</time>
      </trkpt>
      <trkpt lat="46.99212" lon="8.85847">
        <ele>1479</ele>
        <time>2021-08-04T07:32:40.804Z</time>
      </trkpt>
      <trkpt lat="46.99211" lon="8.85846">
        <ele>1479</ele>
        <time>2021-08-04T07:32:41.805Z</time>
      </trkpt>
      <trkpt lat="46.9921" lon="8.85845">
        <ele>1480</ele>
        <time>2021-08-04T07:32:42.804Z</time>
      </trkpt>
      <trkpt lat="46.99209" lon="8.85843">
        <ele>1480</ele>
        <time>2021-08-04T07:32:43.805Z</time>
      </trkpt>
      <trkpt lat="46.99208" lon="8.85842">
        <ele>1480</ele>
        <time>2021-08-04T07:32:44.804Z</time>
      </trkpt>
      <trkpt lat="46.99208" lon="8.85841">
        <ele>1480</ele>
        <time>2021-08-04T07:32:45.804Z</time>
      </trkpt>
      <trkpt lat="46.99206" lon="8.85839">
        <ele>1481</ele>
        <time>2021-08-04T07:32:46.805Z</time>
      </trkpt>
      <trkpt lat="46.99205" lon="8.85838">
        <ele>1481</ele>
        <time>2021-08-04T07:32:47.804Z</time>
      </trkpt>
      <trkpt lat="46.99203" lon="8.85837">
        <ele>1481</ele>
        <time>2021-08-04T07:32:48.804Z</time>
      </trkpt>
      <trkpt lat="46.99202" lon="8.85836">
        <ele>1481</ele>
        <time>2021-08-04T07:32:49.805Z</time>
      </trkpt>
      <trkpt lat="46.99201" lon="8.85835">
        <ele>1481</ele>
        <time>2021-08-04T07:32:50.805Z</time>
      </trkpt>
      <trkpt lat="46.992" lon="8.85834">
        <ele>1481</ele>
        <time>2021-08-04T07:32:51.805Z</time>
      </trkpt>
      <trkpt lat="46.99199" lon="8.85833">
        <ele>1480</ele>
        <time>2021-08-04T07:32:52.804Z</time>
      </trkpt>
      <trkpt lat="46.99198" lon="8.85832">
        <ele>1480</ele>
        <time>2021-08-04T07:32:53.805Z</time>
      </trkpt>
      <trkpt lat="46.99197" lon="8.85831">
        <ele>1480</ele>
        <time>2021-08-04T07:32:54.805Z</time>
      </trkpt>
      <trkpt lat="46.99196" lon="8.85829">
        <ele>1480</ele>
        <time>2021-08-04T07:32:55.804Z</time>
      </trkpt>
      <trkpt lat="46.99196" lon="8.85828">
        <ele>1480</ele>
        <time>2021-08-04T07:32:56.805Z</time>
      </trkpt>
      <trkpt lat="46.99195" lon="8.85826">
        <ele>1480</ele>
        <time>2021-08-04T07:32:57.805Z</time>
      </trkpt>
      <trkpt lat="46.99194" lon="8.85825">
        <ele>1480</ele>
        <time>2021-08-04T07:32:58.804Z</time>
      </trkpt>
      <trkpt lat="46.99194" lon="8.85823">
        <ele>1481</ele>
        <time>2021-08-04T07:32:59.804Z</time>
      </trkpt>
      <trkpt lat="46.99194" lon="8.85823">
        <ele>1480</ele>
        <time>2021-08-04T07:33:00.805Z</time>
      </trkpt>
      <trkpt lat="46.99194" lon="8.85822">
        <ele>1480</ele>
        <time>2021-08-04T07:33:01.804Z</time>
      </trkpt>
      <trkpt lat="46.99194" lon="8.8582">
        <ele>1480</ele>
        <time>2021-08-04T07:33:02.805Z</time>
      </trkpt>
      <trkpt lat="46.99194" lon="8.85818">
        <ele>1479</ele>
        <time>2021-08-04T07:33:03.804Z</time>
      </trkpt>
      <trkpt lat="46.99193" lon="8.85817">
        <ele>1479</ele>
        <time>2021-08-04T07:33:04.805Z</time>
      </trkpt>
      <trkpt lat="46.99193" lon="8.85815">
        <ele>1480</ele>
        <time>2021-08-04T07:33:05.805Z</time>
      </trkpt>
      <trkpt lat="46.99193" lon="8.85815">
        <ele>1480</ele>
        <time>2021-08-04T07:33:06.805Z</time>
      </trkpt>
      <trkpt lat="46.99193" lon="8.85814">
        <ele>1480</ele>
        <time>2021-08-04T07:33:07.805Z</time>
      </trkpt>
      <trkpt lat="46.99192" lon="8.85812">
        <ele>1480</ele>
        <time>2021-08-04T07:33:08.805Z</time>
      </trkpt>
      <trkpt lat="46.99192" lon="8.85811">
        <ele>1480</ele>
        <time>2021-08-04T07:33:09.804Z</time>
      </trkpt>
      <trkpt lat="46.99192" lon="8.85809">
        <ele>1480</ele>
        <time>2021-08-04T07:33:10.805Z</time>
      </trkpt>
      <trkpt lat="46.99193" lon="8.85808">
        <ele>1480</ele>
        <time>2021-08-04T07:33:11.805Z</time>
      </trkpt>
      <trkpt lat="46.99192" lon="8.85807">
        <ele>1480</ele>
        <time>2021-08-04T07:33:12.804Z</time>
      </trkpt>
      <trkpt lat="46.99192" lon="8.85805">
        <ele>1480</ele>
        <time>2021-08-04T07:33:13.804Z</time>
      </trkpt>
      <trkpt lat="46.99191" lon="8.85803">
        <ele>1481</ele>
        <time>2021-08-04T07:33:14.804Z</time>
      </trkpt>
      <trkpt lat="46.9919" lon="8.85801">
        <ele>1481</ele>
        <time>2021-08-04T07:33:15.805Z</time>
      </trkpt>
      <trkpt lat="46.9919" lon="8.858">
        <ele>1481</ele>
        <time>2021-08-04T07:33:16.804Z</time>
      </trkpt>
      <trkpt lat="46.99189" lon="8.85798">
        <ele>1482</ele>
        <time>2021-08-04T07:33:17.805Z</time>
      </trkpt>
      <trkpt lat="46.99189" lon="8.85797">
        <ele>1482</ele>
        <time>2021-08-04T07:33:18.804Z</time>
      </trkpt>
      <trkpt lat="46.99189" lon="8.85795">
        <ele>1482</ele>
        <time>2021-08-04T07:33:19.805Z</time>
      </trkpt>
      <trkpt lat="46.99189" lon="8.85794">
        <ele>1482</ele>
        <time>2021-08-04T07:33:20.805Z</time>
      </trkpt>
      <trkpt lat="46.99189" lon="8.85792">
        <ele>1482</ele>
        <time>2021-08-04T07:33:21.805Z</time>
      </trkpt>
      <trkpt lat="46.99188" lon="8.8579">
        <ele>1483</ele>
        <time>2021-08-04T07:33:22.804Z</time>
      </trkpt>
      <trkpt lat="46.99188" lon="8.85789">
        <ele>1483</ele>
        <time>2021-08-04T07:33:23.804Z</time>
      </trkpt>
      <trkpt lat="46.99188" lon="8.85788">
        <ele>1483</ele>
        <time>2021-08-04T07:33:24.804Z</time>
      </trkpt>
      <trkpt lat="46.99188" lon="8.85786">
        <ele>1483</ele>
        <time>2021-08-04T07:33:25.805Z</time>
      </trkpt>
      <trkpt lat="46.99188" lon="8.85784">
        <ele>1483</ele>
        <time>2021-08-04T07:33:26.805Z</time>
      </trkpt>
      <trkpt lat="46.99188" lon="8.85783">
        <ele>1483</ele>
        <time>2021-08-04T07:33:27.804Z</time>
      </trkpt>
      <trkpt lat="46.99188" lon="8.85781">
        <ele>1483</ele>
        <time>2021-08-04T07:33:28.804Z</time>
      </trkpt>
      <trkpt lat="46.99187" lon="8.85779">
        <ele>1483</ele>
        <time>2021-08-04T07:33:29.805Z</time>
      </trkpt>
      <trkpt lat="46.99187" lon="8.85778">
        <ele>1483</ele>
        <time>2021-08-04T07:33:30.804Z</time>
      </trkpt>
      <trkpt lat="46.99187" lon="8.85776">
        <ele>1483</ele>
        <time>2021-08-04T07:33:31.805Z</time>
      </trkpt>
      <trkpt lat="46.99188" lon="8.85775">
        <ele>1483</ele>
        <time>2021-08-04T07:33:32.805Z</time>
      </trkpt>
      <trkpt lat="46.99188" lon="8.85773">
        <ele>1483</ele>
        <time>2021-08-04T07:33:33.804Z</time>
      </trkpt>
      <trkpt lat="46.99188" lon="8.85772">
        <ele>1483</ele>
        <time>2021-08-04T07:33:34.805Z</time>
      </trkpt>
      <trkpt lat="46.99188" lon="8.8577">
        <ele>1482</ele>
        <time>2021-08-04T07:33:35.805Z</time>
      </trkpt>
      <trkpt lat="46.99188" lon="8.85768">
        <ele>1482</ele>
        <time>2021-08-04T07:33:36.805Z</time>
      </trkpt>
      <trkpt lat="46.99188" lon="8.85766">
        <ele>1482</ele>
        <time>2021-08-04T07:33:37.805Z</time>
      </trkpt>
      <trkpt lat="46.99189" lon="8.85764">
        <ele>1482</ele>
        <time>2021-08-04T07:33:38.804Z</time>
      </trkpt>
      <trkpt lat="46.99189" lon="8.85762">
        <ele>1482</ele>
        <time>2021-08-04T07:33:39.805Z</time>
      </trkpt>
      <trkpt lat="46.99189" lon="8.85761">
        <ele>1482</ele>
        <time>2021-08-04T07:33:40.805Z</time>
      </trkpt>
      <trkpt lat="46.99189" lon="8.8576">
        <ele>1482</ele>
        <time>2021-08-04T07:33:41.804Z</time>
      </trkpt>
      <trkpt lat="46.99189" lon="8.85758">
        <ele>1482</ele>
        <time>2021-08-04T07:33:42.804Z</time>
      </trkpt>
      <trkpt lat="46.99189" lon="8.85756">
        <ele>1482</ele>
        <time>2021-08-04T07:33:43.805Z</time>
      </trkpt>
      <trkpt lat="46.9919" lon="8.85754">
        <ele>1482</ele>
        <time>2021-08-04T07:33:44.804Z</time>
      </trkpt>
      <trkpt lat="46.9919" lon="8.85753">
        <ele>1482</ele>
        <time>2021-08-04T07:33:45.804Z</time>
      </trkpt>
      <trkpt lat="46.9919" lon="8.85752">
        <ele>1481</ele>
        <time>2021-08-04T07:33:46.805Z</time>
      </trkpt>
      <trkpt lat="46.9919" lon="8.8575">
        <ele>1481</ele>
        <time>2021-08-04T07:33:47.805Z</time>
      </trkpt>
      <trkpt lat="46.9919" lon="8.85748">
        <ele>1481</ele>
        <time>2021-08-04T07:33:48.805Z</time>
      </trkpt>
      <trkpt lat="46.9919" lon="8.85746">
        <ele>1481</ele>
        <time>2021-08-04T07:33:49.805Z</time>
      </trkpt>
      <trkpt lat="46.99189" lon="8.85745">
        <ele>1481</ele>
        <time>2021-08-04T07:33:50.804Z</time>
      </trkpt>
      <trkpt lat="46.99189" lon="8.85744">
        <ele>1481</ele>
        <time>2021-08-04T07:33:51.805Z</time>
      </trkpt>
      <trkpt lat="46.99189" lon="8.85743">
        <ele>1481</ele>
        <time>2021-08-04T07:33:52.805Z</time>
      </trkpt>
      <trkpt lat="46.99188" lon="8.85741">
        <ele>1481</ele>
        <time>2021-08-04T07:33:53.804Z</time>
      </trkpt>
      <trkpt lat="46.99188" lon="8.85739">
        <ele>1481</ele>
        <time>2021-08-04T07:33:54.804Z</time>
      </trkpt>
      <trkpt lat="46.99187" lon="8.85737">
        <ele>1481</ele>
        <time>2021-08-04T07:33:55.805Z</time>
      </trkpt>
      <trkpt lat="46.99187" lon="8.85736">
        <ele>1481</ele>
        <time>2021-08-04T07:33:56.805Z</time>
      </trkpt>
      <trkpt lat="46.99186" lon="8.85735">
        <ele>1481</ele>
        <time>2021-08-04T07:33:57.805Z</time>
      </trkpt>
      <trkpt lat="46.99186" lon="8.85732">
        <ele>1480</ele>
        <time>2021-08-04T07:33:58.805Z</time>
      </trkpt>
      <trkpt lat="46.99184" lon="8.85731">
        <ele>1480</ele>
        <time>2021-08-04T07:33:59.805Z</time>
      </trkpt>
      <trkpt lat="46.99184" lon="8.85728">
        <ele>1480</ele>
        <time>2021-08-04T07:34:00.804Z</time>
      </trkpt>
      <trkpt lat="46.99183" lon="8.85727">
        <ele>1479</ele>
        <time>2021-08-04T07:34:01.804Z</time>
      </trkpt>
      <trkpt lat="46.99182" lon="8.85725">
        <ele>1479</ele>
        <time>2021-08-04T07:34:02.805Z</time>
      </trkpt>
      <trkpt lat="46.99181" lon="8.85723">
        <ele>1478</ele>
        <time>2021-08-04T07:34:03.804Z</time>
      </trkpt>
      <trkpt lat="46.99181" lon="8.85721">
        <ele>1478</ele>
        <time>2021-08-04T07:34:04.805Z</time>
      </trkpt>
      <trkpt lat="46.9918" lon="8.8572">
        <ele>1478</ele>
        <time>2021-08-04T07:34:05.805Z</time>
      </trkpt>
      <trkpt lat="46.9918" lon="8.85718">
        <ele>1478</ele>
        <time>2021-08-04T07:34:06.804Z</time>
      </trkpt>
      <trkpt lat="46.9918" lon="8.85717">
        <ele>1477</ele>
        <time>2021-08-04T07:34:07.804Z</time>
      </trkpt>
      <trkpt lat="46.9918" lon="8.85715">
        <ele>1477</ele>
        <time>2021-08-04T07:34:08.804Z</time>
      </trkpt>
      <trkpt lat="46.9918" lon="8.85714">
        <ele>1477</ele>
        <time>2021-08-04T07:34:09.805Z</time>
      </trkpt>
      <trkpt lat="46.99181" lon="8.85712">
        <ele>1476</ele>
        <time>2021-08-04T07:34:10.805Z</time>
      </trkpt>
      <trkpt lat="46.99181" lon="8.85711">
        <ele>1476</ele>
        <time>2021-08-04T07:34:11.805Z</time>
      </trkpt>
      <trkpt lat="46.99181" lon="8.85709">
        <ele>1477</ele>
        <time>2021-08-04T07:34:12.804Z</time>
      </trkpt>
      <trkpt lat="46.99181" lon="8.85707">
        <ele>1477</ele>
        <time>2021-08-04T07:34:13.805Z</time>
      </trkpt>
      <trkpt lat="46.99181" lon="8.85705">
        <ele>1477</ele>
        <time>2021-08-04T07:34:14.805Z</time>
      </trkpt>
      <trkpt lat="46.99181" lon="8.85703">
        <ele>1478</ele>
        <time>2021-08-04T07:34:15.804Z</time>
      </trkpt>
      <trkpt lat="46.99181" lon="8.85701">
        <ele>1478</ele>
        <time>2021-08-04T07:34:16.805Z</time>
      </trkpt>
      <trkpt lat="46.9918" lon="8.857">
        <ele>1478</ele>
        <time>2021-08-04T07:34:17.805Z</time>
      </trkpt>
      <trkpt lat="46.99181" lon="8.85698">
        <ele>1478</ele>
        <time>2021-08-04T07:34:18.805Z</time>
      </trkpt>
      <trkpt lat="46.9918" lon="8.85696">
        <ele>1478</ele>
        <time>2021-08-04T07:34:19.804Z</time>
      </trkpt>
      <trkpt lat="46.9918" lon="8.85694">
        <ele>1478</ele>
        <time>2021-08-04T07:34:20.804Z</time>
      </trkpt>
      <trkpt lat="46.99181" lon="8.85692">
        <ele>1478</ele>
        <time>2021-08-04T07:34:21.804Z</time>
      </trkpt>
      <trkpt lat="46.9918" lon="8.85691">
        <ele>1478</ele>
        <time>2021-08-04T07:34:22.805Z</time>
      </trkpt>
      <trkpt lat="46.9918" lon="8.85689">
        <ele>1478</ele>
        <time>2021-08-04T07:34:23.804Z</time>
      </trkpt>
      <trkpt lat="46.9918" lon="8.85687">
        <ele>1478</ele>
        <time>2021-08-04T07:34:24.805Z</time>
      </trkpt>
      <trkpt lat="46.9918" lon="8.85685">
        <ele>1478</ele>
        <time>2021-08-04T07:34:25.804Z</time>
      </trkpt>
      <trkpt lat="46.99179" lon="8.85683">
        <ele>1478</ele>
        <time>2021-08-04T07:34:26.805Z</time>
      </trkpt>
      <trkpt lat="46.99179" lon="8.85682">
        <ele>1478</ele>
        <time>2021-08-04T07:34:27.805Z</time>
      </trkpt>
      <trkpt lat="46.99179" lon="8.8568">
        <ele>1477</ele>
        <time>2021-08-04T07:34:28.805Z</time>
      </trkpt>
      <trkpt lat="46.99178" lon="8.85679">
        <ele>1477</ele>
        <time>2021-08-04T07:34:29.805Z</time>
      </trkpt>
      <trkpt lat="46.99177" lon="8.85678">
        <ele>1477</ele>
        <time>2021-08-04T07:34:30.805Z</time>
      </trkpt>
      <trkpt lat="46.99176" lon="8.85676">
        <ele>1477</ele>
        <time>2021-08-04T07:34:31.805Z</time>
      </trkpt>
      <trkpt lat="46.99176" lon="8.85674">
        <ele>1477</ele>
        <time>2021-08-04T07:34:32.804Z</time>
      </trkpt>
      <trkpt lat="46.99175" lon="8.85672">
        <ele>1476</ele>
        <time>2021-08-04T07:34:33.805Z</time>
      </trkpt>
      <trkpt lat="46.99175" lon="8.85671">
        <ele>1476</ele>
        <time>2021-08-04T07:34:34.805Z</time>
      </trkpt>
      <trkpt lat="46.99174" lon="8.8567">
        <ele>1476</ele>
        <time>2021-08-04T07:34:35.805Z</time>
      </trkpt>
      <trkpt lat="46.99174" lon="8.85668">
        <ele>1476</ele>
        <time>2021-08-04T07:34:36.804Z</time>
      </trkpt>
      <trkpt lat="46.99173" lon="8.85667">
        <ele>1476</ele>
        <time>2021-08-04T07:34:37.805Z</time>
      </trkpt>
      <trkpt lat="46.99172" lon="8.85665">
        <ele>1476</ele>
        <time>2021-08-04T07:34:38.804Z</time>
      </trkpt>
      <trkpt lat="46.99172" lon="8.85664">
        <ele>1475</ele>
        <time>2021-08-04T07:34:39.805Z</time>
      </trkpt>
      <trkpt lat="46.99171" lon="8.85663">
        <ele>1475</ele>
        <time>2021-08-04T07:34:40.805Z</time>
      </trkpt>
      <trkpt lat="46.9917" lon="8.8566">
        <ele>1474</ele>
        <time>2021-08-04T07:34:41.805Z</time>
      </trkpt>
      <trkpt lat="46.99169" lon="8.85659">
        <ele>1474</ele>
        <time>2021-08-04T07:34:42.804Z</time>
      </trkpt>
      <trkpt lat="46.99168" lon="8.85657">
        <ele>1474</ele>
        <time>2021-08-04T07:34:43.805Z</time>
      </trkpt>
      <trkpt lat="46.99168" lon="8.85655">
        <ele>1474</ele>
        <time>2021-08-04T07:34:44.804Z</time>
      </trkpt>
      <trkpt lat="46.99167" lon="8.85653">
        <ele>1474</ele>
        <time>2021-08-04T07:34:45.805Z</time>
      </trkpt>
      <trkpt lat="46.99168" lon="8.85652">
        <ele>1474</ele>
        <time>2021-08-04T07:34:46.805Z</time>
      </trkpt>
      <trkpt lat="46.99168" lon="8.8565">
        <ele>1474</ele>
        <time>2021-08-04T07:34:47.805Z</time>
      </trkpt>
      <trkpt lat="46.99168" lon="8.85648">
        <ele>1474</ele>
        <time>2021-08-04T07:34:48.805Z</time>
      </trkpt>
      <trkpt lat="46.99169" lon="8.85646">
        <ele>1474</ele>
        <time>2021-08-04T07:34:49.804Z</time>
      </trkpt>
      <trkpt lat="46.99169" lon="8.85645">
        <ele>1474</ele>
        <time>2021-08-04T07:34:50.805Z</time>
      </trkpt>
      <trkpt lat="46.99169" lon="8.85643">
        <ele>1474</ele>
        <time>2021-08-04T07:34:51.805Z</time>
      </trkpt>
      <trkpt lat="46.99168" lon="8.85641">
        <ele>1474</ele>
        <time>2021-08-04T07:34:52.805Z</time>
      </trkpt>
      <trkpt lat="46.99168" lon="8.85639">
        <ele>1474</ele>
        <time>2021-08-04T07:34:53.804Z</time>
      </trkpt>
      <trkpt lat="46.99167" lon="8.85637">
        <ele>1474</ele>
        <time>2021-08-04T07:34:54.804Z</time>
      </trkpt>
      <trkpt lat="46.99166" lon="8.85635">
        <ele>1475</ele>
        <time>2021-08-04T07:34:55.804Z</time>
      </trkpt>
      <trkpt lat="46.99165" lon="8.85633">
        <ele>1475</ele>
        <time>2021-08-04T07:34:56.804Z</time>
      </trkpt>
      <trkpt lat="46.99165" lon="8.85631">
        <ele>1475</ele>
        <time>2021-08-04T07:34:57.805Z</time>
      </trkpt>
      <trkpt lat="46.99164" lon="8.85629">
        <ele>1475</ele>
        <time>2021-08-04T07:34:58.805Z</time>
      </trkpt>
      <trkpt lat="46.99164" lon="8.85628">
        <ele>1475</ele>
        <time>2021-08-04T07:34:59.805Z</time>
      </trkpt>
      <trkpt lat="46.99164" lon="8.85626">
        <ele>1475</ele>
        <time>2021-08-04T07:35:00.805Z</time>
      </trkpt>
      <trkpt lat="46.99164" lon="8.85624">
        <ele>1475</ele>
        <time>2021-08-04T07:35:01.805Z</time>
      </trkpt>
      <trkpt lat="46.99163" lon="8.85623">
        <ele>1474</ele>
        <time>2021-08-04T07:35:02.804Z</time>
      </trkpt>
      <trkpt lat="46.99163" lon="8.85621">
        <ele>1474</ele>
        <time>2021-08-04T07:35:03.804Z</time>
      </trkpt>
      <trkpt lat="46.99163" lon="8.8562">
        <ele>1474</ele>
        <time>2021-08-04T07:35:04.804Z</time>
      </trkpt>
      <trkpt lat="46.99163" lon="8.85618">
        <ele>1473</ele>
        <time>2021-08-04T07:35:05.804Z</time>
      </trkpt>
      <trkpt lat="46.99163" lon="8.85616">
        <ele>1473</ele>
        <time>2021-08-04T07:35:06.804Z</time>
      </trkpt>
      <trkpt lat="46.99163" lon="8.85614">
        <ele>1473</ele>
        <time>2021-08-04T07:35:07.804Z</time>
      </trkpt>
      <trkpt lat="46.99163" lon="8.85613">
        <ele>1472</ele>
        <time>2021-08-04T07:35:08.804Z</time>
      </trkpt>
      <trkpt lat="46.99164" lon="8.85612">
        <ele>1472</ele>
        <time>2021-08-04T07:35:09.804Z</time>
      </trkpt>
      <trkpt lat="46.99163" lon="8.8561">
        <ele>1471</ele>
        <time>2021-08-04T07:35:10.804Z</time>
      </trkpt>
      <trkpt lat="46.99163" lon="8.85608">
        <ele>1471</ele>
        <time>2021-08-04T07:35:11.804Z</time>
      </trkpt>
      <trkpt lat="46.99162" lon="8.85607">
        <ele>1470</ele>
        <time>2021-08-04T07:35:12.804Z</time>
      </trkpt>
      <trkpt lat="46.99162" lon="8.85605">
        <ele>1470</ele>
        <time>2021-08-04T07:35:13.804Z</time>
      </trkpt>
      <trkpt lat="46.99161" lon="8.85604">
        <ele>1470</ele>
        <time>2021-08-04T07:35:14.804Z</time>
      </trkpt>
      <trkpt lat="46.9916" lon="8.85602">
        <ele>1470</ele>
        <time>2021-08-04T07:35:15.804Z</time>
      </trkpt>
      <trkpt lat="46.99159" lon="8.85601">
        <ele>1470</ele>
        <time>2021-08-04T07:35:16.804Z</time>
      </trkpt>
      <trkpt lat="46.99158" lon="8.85601">
        <ele>1470</ele>
        <time>2021-08-04T07:35:17.804Z</time>
      </trkpt>
      <trkpt lat="46.99158" lon="8.85599">
        <ele>1470</ele>
        <time>2021-08-04T07:35:18.805Z</time>
      </trkpt>
      <trkpt lat="46.99158" lon="8.85598">
        <ele>1470</ele>
        <time>2021-08-04T07:35:19.804Z</time>
      </trkpt>
      <trkpt lat="46.99156" lon="8.85597">
        <ele>1470</ele>
        <time>2021-08-04T07:35:20.805Z</time>
      </trkpt>
      <trkpt lat="46.99156" lon="8.85596">
        <ele>1469</ele>
        <time>2021-08-04T07:35:21.804Z</time>
      </trkpt>
      <trkpt lat="46.99155" lon="8.85594">
        <ele>1469</ele>
        <time>2021-08-04T07:35:22.804Z</time>
      </trkpt>
      <trkpt lat="46.99154" lon="8.85593">
        <ele>1469</ele>
        <time>2021-08-04T07:35:23.804Z</time>
      </trkpt>
      <trkpt lat="46.99154" lon="8.85592">
        <ele>1470</ele>
        <time>2021-08-04T07:35:24.804Z</time>
      </trkpt>
      <trkpt lat="46.99154" lon="8.8559">
        <ele>1470</ele>
        <time>2021-08-04T07:35:25.804Z</time>
      </trkpt>
      <trkpt lat="46.99153" lon="8.85589">
        <ele>1470</ele>
        <time>2021-08-04T07:35:26.804Z</time>
      </trkpt>
      <trkpt lat="46.99152" lon="8.85587">
        <ele>1470</ele>
        <time>2021-08-04T07:35:27.805Z</time>
      </trkpt>
      <trkpt lat="46.99152" lon="8.85586">
        <ele>1470</ele>
        <time>2021-08-04T07:35:28.805Z</time>
      </trkpt>
      <trkpt lat="46.99152" lon="8.85585">
        <ele>1471</ele>
        <time>2021-08-04T07:35:29.805Z</time>
      </trkpt>
      <trkpt lat="46.99151" lon="8.85584">
        <ele>1471</ele>
        <time>2021-08-04T07:35:30.805Z</time>
      </trkpt>
      <trkpt lat="46.99151" lon="8.85582">
        <ele>1472</ele>
        <time>2021-08-04T07:35:31.805Z</time>
      </trkpt>
      <trkpt lat="46.9915" lon="8.85581">
        <ele>1472</ele>
        <time>2021-08-04T07:35:32.804Z</time>
      </trkpt>
      <trkpt lat="46.9915" lon="8.85579">
        <ele>1472</ele>
        <time>2021-08-04T07:35:33.805Z</time>
      </trkpt>
      <trkpt lat="46.99149" lon="8.85578">
        <ele>1472</ele>
        <time>2021-08-04T07:35:34.804Z</time>
      </trkpt>
      <trkpt lat="46.99149" lon="8.85576">
        <ele>1472</ele>
        <time>2021-08-04T07:35:35.804Z</time>
      </trkpt>
      <trkpt lat="46.99148" lon="8.85574">
        <ele>1472</ele>
        <time>2021-08-04T07:35:36.805Z</time>
      </trkpt>
      <trkpt lat="46.99148" lon="8.85572">
        <ele>1472</ele>
        <time>2021-08-04T07:35:37.804Z</time>
      </trkpt>
      <trkpt lat="46.99147" lon="8.85571">
        <ele>1472</ele>
        <time>2021-08-04T07:35:38.804Z</time>
      </trkpt>
      <trkpt lat="46.99147" lon="8.8557">
        <ele>1471</ele>
        <time>2021-08-04T07:35:39.805Z</time>
      </trkpt>
      <trkpt lat="46.99146" lon="8.85568">
        <ele>1472</ele>
        <time>2021-08-04T07:35:40.804Z</time>
      </trkpt>
      <trkpt lat="46.99146" lon="8.85566">
        <ele>1472</ele>
        <time>2021-08-04T07:35:41.805Z</time>
      </trkpt>
      <trkpt lat="46.99145" lon="8.85564">
        <ele>1473</ele>
        <time>2021-08-04T07:35:42.805Z</time>
      </trkpt>
      <trkpt lat="46.99145" lon="8.85562">
        <ele>1473</ele>
        <time>2021-08-04T07:35:43.804Z</time>
      </trkpt>
      <trkpt lat="46.99144" lon="8.8556">
        <ele>1474</ele>
        <time>2021-08-04T07:35:44.804Z</time>
      </trkpt>
      <trkpt lat="46.99144" lon="8.85557">
        <ele>1474</ele>
        <time>2021-08-04T07:35:45.805Z</time>
      </trkpt>
      <trkpt lat="46.99144" lon="8.85555">
        <ele>1474</ele>
        <time>2021-08-04T07:35:46.805Z</time>
      </trkpt>
      <trkpt lat="46.99144" lon="8.85552">
        <ele>1475</ele>
        <time>2021-08-04T07:35:47.805Z</time>
      </trkpt>
      <trkpt lat="46.99143" lon="8.85551">
        <ele>1475</ele>
        <time>2021-08-04T07:35:48.805Z</time>
      </trkpt>
      <trkpt lat="46.99142" lon="8.85549">
        <ele>1475</ele>
        <time>2021-08-04T07:35:49.804Z</time>
      </trkpt>
      <trkpt lat="46.99142" lon="8.85547">
        <ele>1475</ele>
        <time>2021-08-04T07:35:50.805Z</time>
      </trkpt>
      <trkpt lat="46.99141" lon="8.85546">
        <ele>1475</ele>
        <time>2021-08-04T07:35:51.804Z</time>
      </trkpt>
      <trkpt lat="46.99139" lon="8.85544">
        <ele>1475</ele>
        <time>2021-08-04T07:35:52.805Z</time>
      </trkpt>
      <trkpt lat="46.99138" lon="8.85543">
        <ele>1475</ele>
        <time>2021-08-04T07:35:53.805Z</time>
      </trkpt>
      <trkpt lat="46.99138" lon="8.85541">
        <ele>1474</ele>
        <time>2021-08-04T07:35:54.804Z</time>
      </trkpt>
      <trkpt lat="46.99137" lon="8.8554">
        <ele>1474</ele>
        <time>2021-08-04T07:35:55.804Z</time>
      </trkpt>
      <trkpt lat="46.99137" lon="8.85538">
        <ele>1474</ele>
        <time>2021-08-04T07:35:56.805Z</time>
      </trkpt>
      <trkpt lat="46.99136" lon="8.85537">
        <ele>1474</ele>
        <time>2021-08-04T07:35:57.805Z</time>
      </trkpt>
      <trkpt lat="46.99135" lon="8.85535">
        <ele>1474</ele>
        <time>2021-08-04T07:35:58.805Z</time>
      </trkpt>
      <trkpt lat="46.99134" lon="8.85533">
        <ele>1473</ele>
        <time>2021-08-04T07:35:59.805Z</time>
      </trkpt>
      <trkpt lat="46.99133" lon="8.85532">
        <ele>1473</ele>
        <time>2021-08-04T07:36:00.805Z</time>
      </trkpt>
      <trkpt lat="46.99133" lon="8.8553">
        <ele>1473</ele>
        <time>2021-08-04T07:36:01.805Z</time>
      </trkpt>
      <trkpt lat="46.99133" lon="8.85529">
        <ele>1473</ele>
        <time>2021-08-04T07:36:02.805Z</time>
      </trkpt>
      <trkpt lat="46.99132" lon="8.85527">
        <ele>1473</ele>
        <time>2021-08-04T07:36:03.805Z</time>
      </trkpt>
      <trkpt lat="46.99132" lon="8.85526">
        <ele>1473</ele>
        <time>2021-08-04T07:36:04.804Z</time>
      </trkpt>
      <trkpt lat="46.99131" lon="8.85524">
        <ele>1473</ele>
        <time>2021-08-04T07:36:05.805Z</time>
      </trkpt>
      <trkpt lat="46.9913" lon="8.85522">
        <ele>1473</ele>
        <time>2021-08-04T07:36:06.805Z</time>
      </trkpt>
      <trkpt lat="46.9913" lon="8.85521">
        <ele>1473</ele>
        <time>2021-08-04T07:36:07.805Z</time>
      </trkpt>
      <trkpt lat="46.9913" lon="8.8552">
        <ele>1473</ele>
        <time>2021-08-04T07:36:08.805Z</time>
      </trkpt>
      <trkpt lat="46.9913" lon="8.8552">
        <ele>1473</ele>
        <time>2021-08-04T07:36:09.805Z</time>
      </trkpt>
      <trkpt lat="46.9913" lon="8.85519">
        <ele>1473</ele>
        <time>2021-08-04T07:36:10.804Z</time>
      </trkpt>
      <trkpt lat="46.99129" lon="8.85519">
        <ele>1474</ele>
        <time>2021-08-04T07:36:11.805Z</time>
      </trkpt>
      <trkpt lat="46.99129" lon="8.85519">
        <ele>1474</ele>
        <time>2021-08-04T07:36:12.804Z</time>
      </trkpt>
      <trkpt lat="46.99128" lon="8.85518">
        <ele>1473</ele>
        <time>2021-08-04T07:36:13.804Z</time>
      </trkpt>
      <trkpt lat="46.99128" lon="8.85517">
        <ele>1473</ele>
        <time>2021-08-04T07:36:14.805Z</time>
      </trkpt>
      <trkpt lat="46.99128" lon="8.85516">
        <ele>1472</ele>
        <time>2021-08-04T07:36:15.804Z</time>
      </trkpt>
      <trkpt lat="46.99127" lon="8.85514">
        <ele>1471</ele>
        <time>2021-08-04T07:36:16.805Z</time>
      </trkpt>
      <trkpt lat="46.99126" lon="8.85512">
        <ele>1471</ele>
        <time>2021-08-04T07:36:17.805Z</time>
      </trkpt>
      <trkpt lat="46.99125" lon="8.8551">
        <ele>1471</ele>
        <time>2021-08-04T07:36:18.804Z</time>
      </trkpt>
      <trkpt lat="46.99124" lon="8.85509">
        <ele>1471</ele>
        <time>2021-08-04T07:36:19.805Z</time>
      </trkpt>
      <trkpt lat="46.99123" lon="8.85508">
        <ele>1470</ele>
        <time>2021-08-04T07:36:20.804Z</time>
      </trkpt>
      <trkpt lat="46.99122" lon="8.85507">
        <ele>1470</ele>
        <time>2021-08-04T07:36:21.805Z</time>
      </trkpt>
      <trkpt lat="46.99121" lon="8.85506">
        <ele>1470</ele>
        <time>2021-08-04T07:36:22.804Z</time>
      </trkpt>
      <trkpt lat="46.9912" lon="8.85504">
        <ele>1469</ele>
        <time>2021-08-04T07:36:23.805Z</time>
      </trkpt>
      <trkpt lat="46.9912" lon="8.85503">
        <ele>1469</ele>
        <time>2021-08-04T07:36:24.805Z</time>
      </trkpt>
      <trkpt lat="46.99119" lon="8.85501">
        <ele>1469</ele>
        <time>2021-08-04T07:36:25.805Z</time>
      </trkpt>
      <trkpt lat="46.99118" lon="8.85501">
        <ele>1469</ele>
        <time>2021-08-04T07:36:26.805Z</time>
      </trkpt>
      <trkpt lat="46.99118" lon="8.855">
        <ele>1469</ele>
        <time>2021-08-04T07:36:27.804Z</time>
      </trkpt>
      <trkpt lat="46.99117" lon="8.85499">
        <ele>1468</ele>
        <time>2021-08-04T07:36:28.804Z</time>
      </trkpt>
      <trkpt lat="46.99116" lon="8.85497">
        <ele>1468</ele>
        <time>2021-08-04T07:36:29.805Z</time>
      </trkpt>
      <trkpt lat="46.99115" lon="8.85496">
        <ele>1468</ele>
        <time>2021-08-04T07:36:30.804Z</time>
      </trkpt>
      <trkpt lat="46.99115" lon="8.85495">
        <ele>1468</ele>
        <time>2021-08-04T07:36:31.805Z</time>
      </trkpt>
      <trkpt lat="46.99114" lon="8.85494">
        <ele>1468</ele>
        <time>2021-08-04T07:36:32.805Z</time>
      </trkpt>
      <trkpt lat="46.99113" lon="8.85492">
        <ele>1468</ele>
        <time>2021-08-04T07:36:33.805Z</time>
      </trkpt>
      <trkpt lat="46.99112" lon="8.85491">
        <ele>1468</ele>
        <time>2021-08-04T07:36:34.804Z</time>
      </trkpt>
      <trkpt lat="46.99112" lon="8.8549">
        <ele>1467</ele>
        <time>2021-08-04T07:36:35.805Z</time>
      </trkpt>
      <trkpt lat="46.99112" lon="8.85489">
        <ele>1467</ele>
        <time>2021-08-04T07:36:36.805Z</time>
      </trkpt>
      <trkpt lat="46.99112" lon="8.85488">
        <ele>1467</ele>
        <time>2021-08-04T07:36:37.805Z</time>
      </trkpt>
      <trkpt lat="46.99111" lon="8.85486">
        <ele>1467</ele>
        <time>2021-08-04T07:36:38.805Z</time>
      </trkpt>
      <trkpt lat="46.99111" lon="8.85484">
        <ele>1468</ele>
        <time>2021-08-04T07:36:39.804Z</time>
      </trkpt>
      <trkpt lat="46.99111" lon="8.85482">
        <ele>1468</ele>
        <time>2021-08-04T07:36:40.805Z</time>
      </trkpt>
      <trkpt lat="46.9911" lon="8.85481">
        <ele>1468</ele>
        <time>2021-08-04T07:36:41.804Z</time>
      </trkpt>
      <trkpt lat="46.9911" lon="8.85479">
        <ele>1468</ele>
        <time>2021-08-04T07:36:42.804Z</time>
      </trkpt>
      <trkpt lat="46.99109" lon="8.85477">
        <ele>1468</ele>
        <time>2021-08-04T07:36:43.805Z</time>
      </trkpt>
      <trkpt lat="46.99109" lon="8.85475">
        <ele>1468</ele>
        <time>2021-08-04T07:36:44.805Z</time>
      </trkpt>
      <trkpt lat="46.99108" lon="8.85474">
        <ele>1468</ele>
        <time>2021-08-04T07:36:45.805Z</time>
      </trkpt>
      <trkpt lat="46.99108" lon="8.85472">
        <ele>1468</ele>
        <time>2021-08-04T07:36:46.804Z</time>
      </trkpt>
      <trkpt lat="46.99108" lon="8.85471">
        <ele>1468</ele>
        <time>2021-08-04T07:36:47.804Z</time>
      </trkpt>
      <trkpt lat="46.99107" lon="8.85469">
        <ele>1468</ele>
        <time>2021-08-04T07:36:48.805Z</time>
      </trkpt>
      <trkpt lat="46.99106" lon="8.85468">
        <ele>1467</ele>
        <time>2021-08-04T07:36:49.805Z</time>
      </trkpt>
      <trkpt lat="46.99106" lon="8.85466">
        <ele>1467</ele>
        <time>2021-08-04T07:36:50.804Z</time>
      </trkpt>
      <trkpt lat="46.99106" lon="8.85465">
        <ele>1467</ele>
        <time>2021-08-04T07:36:51.805Z</time>
      </trkpt>
      <trkpt lat="46.99105" lon="8.85464">
        <ele>1467</ele>
        <time>2021-08-04T07:36:52.805Z</time>
      </trkpt>
      <trkpt lat="46.99105" lon="8.85462">
        <ele>1466</ele>
        <time>2021-08-04T07:36:53.804Z</time>
      </trkpt>
      <trkpt lat="46.99104" lon="8.85461">
        <ele>1466</ele>
        <time>2021-08-04T07:36:54.804Z</time>
      </trkpt>
      <trkpt lat="46.99103" lon="8.85459">
        <ele>1466</ele>
        <time>2021-08-04T07:36:55.805Z</time>
      </trkpt>
      <trkpt lat="46.99103" lon="8.85458">
        <ele>1466</ele>
        <time>2021-08-04T07:36:56.805Z</time>
      </trkpt>
      <trkpt lat="46.99102" lon="8.85456">
        <ele>1466</ele>
        <time>2021-08-04T07:36:57.805Z</time>
      </trkpt>
      <trkpt lat="46.99101" lon="8.85455">
        <ele>1466</ele>
        <time>2021-08-04T07:36:58.805Z</time>
      </trkpt>
      <trkpt lat="46.991" lon="8.85453">
        <ele>1466</ele>
        <time>2021-08-04T07:36:59.804Z</time>
      </trkpt>
      <trkpt lat="46.99099" lon="8.85452">
        <ele>1466</ele>
        <time>2021-08-04T07:37:00.804Z</time>
      </trkpt>
      <trkpt lat="46.99099" lon="8.8545">
        <ele>1465</ele>
        <time>2021-08-04T07:37:01.805Z</time>
      </trkpt>
      <trkpt lat="46.99098" lon="8.85449">
        <ele>1465</ele>
        <time>2021-08-04T07:37:02.805Z</time>
      </trkpt>
      <trkpt lat="46.99098" lon="8.85447">
        <ele>1466</ele>
        <time>2021-08-04T07:37:03.804Z</time>
      </trkpt>
      <trkpt lat="46.99099" lon="8.85444">
        <ele>1466</ele>
        <time>2021-08-04T07:37:04.805Z</time>
      </trkpt>
      <trkpt lat="46.99099" lon="8.85441">
        <ele>1466</ele>
        <time>2021-08-04T07:37:05.805Z</time>
      </trkpt>
      <trkpt lat="46.99099" lon="8.8544">
        <ele>1466</ele>
        <time>2021-08-04T07:37:06.804Z</time>
      </trkpt>
      <trkpt lat="46.99098" lon="8.85438">
        <ele>1466</ele>
        <time>2021-08-04T07:37:07.804Z</time>
      </trkpt>
      <trkpt lat="46.99098" lon="8.85437">
        <ele>1465</ele>
        <time>2021-08-04T07:37:08.805Z</time>
      </trkpt>
      <trkpt lat="46.99099" lon="8.85436">
        <ele>1465</ele>
        <time>2021-08-04T07:37:09.804Z</time>
      </trkpt>
      <trkpt lat="46.991" lon="8.85435">
        <ele>1464</ele>
        <time>2021-08-04T07:37:10.805Z</time>
      </trkpt>
      <trkpt lat="46.991" lon="8.85433">
        <ele>1463</ele>
        <time>2021-08-04T07:37:11.805Z</time>
      </trkpt>
      <trkpt lat="46.99101" lon="8.85432">
        <ele>1463</ele>
        <time>2021-08-04T07:37:12.805Z</time>
      </trkpt>
      <trkpt lat="46.99101" lon="8.85431">
        <ele>1462</ele>
        <time>2021-08-04T07:37:13.804Z</time>
      </trkpt>
      <trkpt lat="46.99101" lon="8.85429">
        <ele>1462</ele>
        <time>2021-08-04T07:37:14.804Z</time>
      </trkpt>
      <trkpt lat="46.99102" lon="8.85428">
        <ele>1461</ele>
        <time>2021-08-04T07:37:15.805Z</time>
      </trkpt>
      <trkpt lat="46.99102" lon="8.85427">
        <ele>1460</ele>
        <time>2021-08-04T07:37:16.804Z</time>
      </trkpt>
      <trkpt lat="46.99102" lon="8.85426">
        <ele>1459</ele>
        <time>2021-08-04T07:37:17.804Z</time>
      </trkpt>
      <trkpt lat="46.99103" lon="8.85424">
        <ele>1459</ele>
        <time>2021-08-04T07:37:18.804Z</time>
      </trkpt>
      <trkpt lat="46.99103" lon="8.85423">
        <ele>1459</ele>
        <time>2021-08-04T07:37:19.805Z</time>
      </trkpt>
      <trkpt lat="46.99103" lon="8.85422">
        <ele>1459</ele>
        <time>2021-08-04T07:37:20.805Z</time>
      </trkpt>
      <trkpt lat="46.99102" lon="8.8542">
        <ele>1458</ele>
        <time>2021-08-04T07:37:21.805Z</time>
      </trkpt>
      <trkpt lat="46.99101" lon="8.85418">
        <ele>1458</ele>
        <time>2021-08-04T07:37:22.805Z</time>
      </trkpt>
      <trkpt lat="46.99101" lon="8.85417">
        <ele>1458</ele>
        <time>2021-08-04T07:37:23.804Z</time>
      </trkpt>
      <trkpt lat="46.99101" lon="8.85415">
        <ele>1458</ele>
        <time>2021-08-04T07:37:24.805Z</time>
      </trkpt>
      <trkpt lat="46.991" lon="8.85413">
        <ele>1458</ele>
        <time>2021-08-04T07:37:25.805Z</time>
      </trkpt>
      <trkpt lat="46.991" lon="8.85411">
        <ele>1458</ele>
        <time>2021-08-04T07:37:26.805Z</time>
      </trkpt>
      <trkpt lat="46.99098" lon="8.8541">
        <ele>1458</ele>
        <time>2021-08-04T07:37:27.805Z</time>
      </trkpt>
      <trkpt lat="46.99098" lon="8.85408">
        <ele>1458</ele>
        <time>2021-08-04T07:37:28.805Z</time>
      </trkpt>
      <trkpt lat="46.99097" lon="8.85407">
        <ele>1458</ele>
        <time>2021-08-04T07:37:29.805Z</time>
      </trkpt>
      <trkpt lat="46.99096" lon="8.85405">
        <ele>1458</ele>
        <time>2021-08-04T07:37:30.805Z</time>
      </trkpt>
      <trkpt lat="46.99095" lon="8.85403">
        <ele>1458</ele>
        <time>2021-08-04T07:37:31.805Z</time>
      </trkpt>
      <trkpt lat="46.99094" lon="8.85402">
        <ele>1458</ele>
        <time>2021-08-04T07:37:32.804Z</time>
      </trkpt>
      <trkpt lat="46.99093" lon="8.854">
        <ele>1458</ele>
        <time>2021-08-04T07:37:33.805Z</time>
      </trkpt>
      <trkpt lat="46.99092" lon="8.85398">
        <ele>1458</ele>
        <time>2021-08-04T07:37:34.804Z</time>
      </trkpt>
      <trkpt lat="46.99091" lon="8.85397">
        <ele>1458</ele>
        <time>2021-08-04T07:37:35.805Z</time>
      </trkpt>
      <trkpt lat="46.9909" lon="8.85396">
        <ele>1458</ele>
        <time>2021-08-04T07:37:36.804Z</time>
      </trkpt>
      <trkpt lat="46.99089" lon="8.85394">
        <ele>1458</ele>
        <time>2021-08-04T07:37:37.805Z</time>
      </trkpt>
      <trkpt lat="46.99088" lon="8.85393">
        <ele>1459</ele>
        <time>2021-08-04T07:37:38.804Z</time>
      </trkpt>
      <trkpt lat="46.99087" lon="8.85391">
        <ele>1459</ele>
        <time>2021-08-04T07:37:39.805Z</time>
      </trkpt>
      <trkpt lat="46.99086" lon="8.8539">
        <ele>1459</ele>
        <time>2021-08-04T07:37:40.805Z</time>
      </trkpt>
      <trkpt lat="46.99085" lon="8.8539">
        <ele>1460</ele>
        <time>2021-08-04T07:37:41.805Z</time>
      </trkpt>
      <trkpt lat="46.99084" lon="8.85389">
        <ele>1460</ele>
        <time>2021-08-04T07:37:42.805Z</time>
      </trkpt>
      <trkpt lat="46.99082" lon="8.85388">
        <ele>1461</ele>
        <time>2021-08-04T07:37:43.805Z</time>
      </trkpt>
      <trkpt lat="46.99081" lon="8.85387">
        <ele>1461</ele>
        <time>2021-08-04T07:37:44.804Z</time>
      </trkpt>
      <trkpt lat="46.9908" lon="8.85386">
        <ele>1461</ele>
        <time>2021-08-04T07:37:45.805Z</time>
      </trkpt>
      <trkpt lat="46.99079" lon="8.85386">
        <ele>1462</ele>
        <time>2021-08-04T07:37:46.805Z</time>
      </trkpt>
      <trkpt lat="46.99078" lon="8.85385">
        <ele>1462</ele>
        <time>2021-08-04T07:37:47.805Z</time>
      </trkpt>
      <trkpt lat="46.99078" lon="8.85384">
        <ele>1463</ele>
        <time>2021-08-04T07:37:48.805Z</time>
      </trkpt>
      <trkpt lat="46.99078" lon="8.85382">
        <ele>1463</ele>
        <time>2021-08-04T07:37:49.805Z</time>
      </trkpt>
      <trkpt lat="46.99077" lon="8.85381">
        <ele>1463</ele>
        <time>2021-08-04T07:37:50.805Z</time>
      </trkpt>
      <trkpt lat="46.99077" lon="8.8538">
        <ele>1464</ele>
        <time>2021-08-04T07:37:51.805Z</time>
      </trkpt>
      <trkpt lat="46.99077" lon="8.85379">
        <ele>1464</ele>
        <time>2021-08-04T07:37:52.805Z</time>
      </trkpt>
      <trkpt lat="46.99077" lon="8.85378">
        <ele>1464</ele>
        <time>2021-08-04T07:37:53.805Z</time>
      </trkpt>
      <trkpt lat="46.99077" lon="8.85377">
        <ele>1464</ele>
        <time>2021-08-04T07:37:54.805Z</time>
      </trkpt>
      <trkpt lat="46.99077" lon="8.85376">
        <ele>1463</ele>
        <time>2021-08-04T07:37:55.804Z</time>
      </trkpt>
      <trkpt lat="46.99077" lon="8.85376">
        <ele>1463</ele>
        <time>2021-08-04T07:37:56.805Z</time>
      </trkpt>
      <trkpt lat="46.99077" lon="8.85375">
        <ele>1463</ele>
        <time>2021-08-04T07:37:57.805Z</time>
      </trkpt>
      <trkpt lat="46.99076" lon="8.85374">
        <ele>1463</ele>
        <time>2021-08-04T07:37:58.805Z</time>
      </trkpt>
      <trkpt lat="46.99076" lon="8.85374">
        <ele>1463</ele>
        <time>2021-08-04T07:37:59.804Z</time>
      </trkpt>
      <trkpt lat="46.99076" lon="8.85371">
        <ele>1462</ele>
        <time>2021-08-04T07:38:00.806Z</time>
      </trkpt>
      <trkpt lat="46.99076" lon="8.8537">
        <ele>1462</ele>
        <time>2021-08-04T07:38:01.806Z</time>
      </trkpt>
      <trkpt lat="46.99076" lon="8.85369">
        <ele>1461</ele>
        <time>2021-08-04T07:38:02.805Z</time>
      </trkpt>
      <trkpt lat="46.99076" lon="8.85367">
        <ele>1461</ele>
        <time>2021-08-04T07:38:03.805Z</time>
      </trkpt>
      <trkpt lat="46.99076" lon="8.85366">
        <ele>1460</ele>
        <time>2021-08-04T07:38:04.806Z</time>
      </trkpt>
      <trkpt lat="46.99076" lon="8.85365">
        <ele>1459</ele>
        <time>2021-08-04T07:38:05.805Z</time>
      </trkpt>
      <trkpt lat="46.99076" lon="8.85363">
        <ele>1457</ele>
        <time>2021-08-04T07:38:06.806Z</time>
      </trkpt>
      <trkpt lat="46.99076" lon="8.85362">
        <ele>1456</ele>
        <time>2021-08-04T07:38:07.805Z</time>
      </trkpt>
      <trkpt lat="46.99077" lon="8.85362">
        <ele>1455</ele>
        <time>2021-08-04T07:38:08.806Z</time>
      </trkpt>
      <trkpt lat="46.99077" lon="8.85361">
        <ele>1454</ele>
        <time>2021-08-04T07:38:09.805Z</time>
      </trkpt>
      <trkpt lat="46.99077" lon="8.8536">
        <ele>1454</ele>
        <time>2021-08-04T07:38:10.805Z</time>
      </trkpt>
      <trkpt lat="46.99078" lon="8.85359">
        <ele>1454</ele>
        <time>2021-08-04T07:38:11.806Z</time>
      </trkpt>
      <trkpt lat="46.99078" lon="8.85358">
        <ele>1454</ele>
        <time>2021-08-04T07:38:12.806Z</time>
      </trkpt>
      <trkpt lat="46.99078" lon="8.85358">
        <ele>1453</ele>
        <time>2021-08-04T07:38:13.806Z</time>
      </trkpt>
      <trkpt lat="46.99079" lon="8.85357">
        <ele>1453</ele>
        <time>2021-08-04T07:38:14.805Z</time>
      </trkpt>
      <trkpt lat="46.99079" lon="8.85356">
        <ele>1453</ele>
        <time>2021-08-04T07:38:15.806Z</time>
      </trkpt>
      <trkpt lat="46.99079" lon="8.85356">
        <ele>1452</ele>
        <time>2021-08-04T07:38:16.805Z</time>
      </trkpt>
      <trkpt lat="46.99079" lon="8.85355">
        <ele>1451</ele>
        <time>2021-08-04T07:38:17.805Z</time>
      </trkpt>
      <trkpt lat="46.99079" lon="8.85354">
        <ele>1451</ele>
        <time>2021-08-04T07:38:18.805Z</time>
      </trkpt>
      <trkpt lat="46.99079" lon="8.85352">
        <ele>1451</ele>
        <time>2021-08-04T07:38:19.806Z</time>
      </trkpt>
      <trkpt lat="46.99079" lon="8.85351">
        <ele>1450</ele>
        <time>2021-08-04T07:38:20.806Z</time>
      </trkpt>
      <trkpt lat="46.99079" lon="8.8535">
        <ele>1450</ele>
        <time>2021-08-04T07:38:21.806Z</time>
      </trkpt>
      <trkpt lat="46.99079" lon="8.85348">
        <ele>1450</ele>
        <time>2021-08-04T07:38:22.805Z</time>
      </trkpt>
      <trkpt lat="46.99079" lon="8.85347">
        <ele>1450</ele>
        <time>2021-08-04T07:38:23.806Z</time>
      </trkpt>
      <trkpt lat="46.9908" lon="8.85345">
        <ele>1449</ele>
        <time>2021-08-04T07:38:24.805Z</time>
      </trkpt>
      <trkpt lat="46.99079" lon="8.85344">
        <ele>1449</ele>
        <time>2021-08-04T07:38:25.805Z</time>
      </trkpt>
      <trkpt lat="46.99079" lon="8.85342">
        <ele>1449</ele>
        <time>2021-08-04T07:38:26.805Z</time>
      </trkpt>
      <trkpt lat="46.99079" lon="8.85341">
        <ele>1449</ele>
        <time>2021-08-04T07:38:27.806Z</time>
      </trkpt>
      <trkpt lat="46.99078" lon="8.85339">
        <ele>1448</ele>
        <time>2021-08-04T07:38:28.806Z</time>
      </trkpt>
      <trkpt lat="46.99078" lon="8.85338">
        <ele>1448</ele>
        <time>2021-08-04T07:38:29.805Z</time>
      </trkpt>
      <trkpt lat="46.99078" lon="8.85336">
        <ele>1448</ele>
        <time>2021-08-04T07:38:30.806Z</time>
      </trkpt>
      <trkpt lat="46.99078" lon="8.85334">
        <ele>1449</ele>
        <time>2021-08-04T07:38:31.806Z</time>
      </trkpt>
      <trkpt lat="46.99078" lon="8.85332">
        <ele>1449</ele>
        <time>2021-08-04T07:38:32.806Z</time>
      </trkpt>
      <trkpt lat="46.99078" lon="8.8533">
        <ele>1449</ele>
        <time>2021-08-04T07:38:33.806Z</time>
      </trkpt>
      <trkpt lat="46.99078" lon="8.85329">
        <ele>1449</ele>
        <time>2021-08-04T07:38:34.806Z</time>
      </trkpt>
      <trkpt lat="46.99078" lon="8.85327">
        <ele>1449</ele>
        <time>2021-08-04T07:38:35.805Z</time>
      </trkpt>
      <trkpt lat="46.99077" lon="8.85325">
        <ele>1449</ele>
        <time>2021-08-04T07:38:36.805Z</time>
      </trkpt>
      <trkpt lat="46.99078" lon="8.85324">
        <ele>1449</ele>
        <time>2021-08-04T07:38:37.806Z</time>
      </trkpt>
      <trkpt lat="46.99078" lon="8.85322">
        <ele>1449</ele>
        <time>2021-08-04T07:38:38.805Z</time>
      </trkpt>
      <trkpt lat="46.99078" lon="8.85319">
        <ele>1449</ele>
        <time>2021-08-04T07:38:39.805Z</time>
      </trkpt>
      <trkpt lat="46.99078" lon="8.85317">
        <ele>1449</ele>
        <time>2021-08-04T07:38:40.806Z</time>
      </trkpt>
      <trkpt lat="46.99078" lon="8.85316">
        <ele>1449</ele>
        <time>2021-08-04T07:38:41.806Z</time>
      </trkpt>
      <trkpt lat="46.99078" lon="8.85316">
        <ele>1449</ele>
        <time>2021-08-04T07:38:42.806Z</time>
      </trkpt>
      <trkpt lat="46.99077" lon="8.85315">
        <ele>1449</ele>
        <time>2021-08-04T07:38:43.805Z</time>
      </trkpt>
      <trkpt lat="46.99077" lon="8.85315">
        <ele>1448</ele>
        <time>2021-08-04T07:38:44.805Z</time>
      </trkpt>
      <trkpt lat="46.99076" lon="8.85314">
        <ele>1448</ele>
        <time>2021-08-04T07:38:45.805Z</time>
      </trkpt>
      <trkpt lat="46.99076" lon="8.85313">
        <ele>1448</ele>
        <time>2021-08-04T07:38:46.805Z</time>
      </trkpt>
      <trkpt lat="46.99075" lon="8.85312">
        <ele>1447</ele>
        <time>2021-08-04T07:38:47.806Z</time>
      </trkpt>
      <trkpt lat="46.99074" lon="8.8531">
        <ele>1447</ele>
        <time>2021-08-04T07:38:48.806Z</time>
      </trkpt>
      <trkpt lat="46.99073" lon="8.85308">
        <ele>1447</ele>
        <time>2021-08-04T07:38:49.805Z</time>
      </trkpt>
      <trkpt lat="46.99071" lon="8.85307">
        <ele>1447</ele>
        <time>2021-08-04T07:38:50.805Z</time>
      </trkpt>
      <trkpt lat="46.99071" lon="8.85305">
        <ele>1447</ele>
        <time>2021-08-04T07:38:51.806Z</time>
      </trkpt>
      <trkpt lat="46.9907" lon="8.85305">
        <ele>1447</ele>
        <time>2021-08-04T07:38:52.805Z</time>
      </trkpt>
      <trkpt lat="46.99069" lon="8.85303">
        <ele>1447</ele>
        <time>2021-08-04T07:38:53.805Z</time>
      </trkpt>
      <trkpt lat="46.99068" lon="8.85302">
        <ele>1447</ele>
        <time>2021-08-04T07:38:54.805Z</time>
      </trkpt>
      <trkpt lat="46.99068" lon="8.85301">
        <ele>1447</ele>
        <time>2021-08-04T07:38:55.805Z</time>
      </trkpt>
      <trkpt lat="46.99067" lon="8.853">
        <ele>1447</ele>
        <time>2021-08-04T07:38:56.806Z</time>
      </trkpt>
      <trkpt lat="46.99066" lon="8.85299">
        <ele>1447</ele>
        <time>2021-08-04T07:38:57.805Z</time>
      </trkpt>
      <trkpt lat="46.99065" lon="8.85298">
        <ele>1446</ele>
        <time>2021-08-04T07:38:58.806Z</time>
      </trkpt>
      <trkpt lat="46.99065" lon="8.85297">
        <ele>1446</ele>
        <time>2021-08-04T07:38:59.805Z</time>
      </trkpt>
      <trkpt lat="46.99064" lon="8.85296">
        <ele>1446</ele>
        <time>2021-08-04T07:39:00.805Z</time>
      </trkpt>
      <trkpt lat="46.99062" lon="8.85294">
        <ele>1446</ele>
        <time>2021-08-04T07:39:01.806Z</time>
      </trkpt>
      <trkpt lat="46.99062" lon="8.85293">
        <ele>1445</ele>
        <time>2021-08-04T07:39:02.805Z</time>
      </trkpt>
      <trkpt lat="46.99061" lon="8.85291">
        <ele>1445</ele>
        <time>2021-08-04T07:39:03.806Z</time>
      </trkpt>
      <trkpt lat="46.99061" lon="8.8529">
        <ele>1444</ele>
        <time>2021-08-04T07:39:04.805Z</time>
      </trkpt>
      <trkpt lat="46.99061" lon="8.85288">
        <ele>1444</ele>
        <time>2021-08-04T07:39:05.805Z</time>
      </trkpt>
      <trkpt lat="46.9906" lon="8.85286">
        <ele>1443</ele>
        <time>2021-08-04T07:39:06.806Z</time>
      </trkpt>
      <trkpt lat="46.99059" lon="8.85285">
        <ele>1442</ele>
        <time>2021-08-04T07:39:07.806Z</time>
      </trkpt>
      <trkpt lat="46.99059" lon="8.85283">
        <ele>1442</ele>
        <time>2021-08-04T07:39:08.805Z</time>
      </trkpt>
      <trkpt lat="46.99058" lon="8.85282">
        <ele>1441</ele>
        <time>2021-08-04T07:39:09.805Z</time>
      </trkpt>
      <trkpt lat="46.99058" lon="8.8528">
        <ele>1441</ele>
        <time>2021-08-04T07:39:10.805Z</time>
      </trkpt>
      <trkpt lat="46.99057" lon="8.85278">
        <ele>1441</ele>
        <time>2021-08-04T07:39:11.806Z</time>
      </trkpt>
      <trkpt lat="46.99057" lon="8.85277">
        <ele>1440</ele>
        <time>2021-08-04T07:39:12.805Z</time>
      </trkpt>
      <trkpt lat="46.99056" lon="8.85275">
        <ele>1440</ele>
        <time>2021-08-04T07:39:13.805Z</time>
      </trkpt>
      <trkpt lat="46.99056" lon="8.85274">
        <ele>1439</ele>
        <time>2021-08-04T07:39:14.805Z</time>
      </trkpt>
      <trkpt lat="46.99055" lon="8.85272">
        <ele>1439</ele>
        <time>2021-08-04T07:39:15.805Z</time>
      </trkpt>
      <trkpt lat="46.99055" lon="8.8527">
        <ele>1439</ele>
        <time>2021-08-04T07:39:16.805Z</time>
      </trkpt>
      <trkpt lat="46.99055" lon="8.85269">
        <ele>1439</ele>
        <time>2021-08-04T07:39:17.806Z</time>
      </trkpt>
      <trkpt lat="46.99054" lon="8.85267">
        <ele>1439</ele>
        <time>2021-08-04T07:39:18.805Z</time>
      </trkpt>
      <trkpt lat="46.99054" lon="8.85265">
        <ele>1439</ele>
        <time>2021-08-04T07:39:19.806Z</time>
      </trkpt>
      <trkpt lat="46.99053" lon="8.85264">
        <ele>1439</ele>
        <time>2021-08-04T07:39:20.806Z</time>
      </trkpt>
      <trkpt lat="46.99053" lon="8.85262">
        <ele>1440</ele>
        <time>2021-08-04T07:39:21.806Z</time>
      </trkpt>
      <trkpt lat="46.99052" lon="8.8526">
        <ele>1440</ele>
        <time>2021-08-04T07:39:22.806Z</time>
      </trkpt>
      <trkpt lat="46.99052" lon="8.85259">
        <ele>1440</ele>
        <time>2021-08-04T07:39:23.805Z</time>
      </trkpt>
      <trkpt lat="46.99051" lon="8.85258">
        <ele>1441</ele>
        <time>2021-08-04T07:39:24.805Z</time>
      </trkpt>
      <trkpt lat="46.99051" lon="8.85257">
        <ele>1441</ele>
        <time>2021-08-04T07:39:25.805Z</time>
      </trkpt>
      <trkpt lat="46.9905" lon="8.85256">
        <ele>1441</ele>
        <time>2021-08-04T07:39:26.805Z</time>
      </trkpt>
      <trkpt lat="46.9905" lon="8.85255">
        <ele>1442</ele>
        <time>2021-08-04T07:39:27.806Z</time>
      </trkpt>
      <trkpt lat="46.9905" lon="8.85254">
        <ele>1442</ele>
        <time>2021-08-04T07:39:28.806Z</time>
      </trkpt>
      <trkpt lat="46.99049" lon="8.85252">
        <ele>1441</ele>
        <time>2021-08-04T07:39:29.806Z</time>
      </trkpt>
      <trkpt lat="46.9905" lon="8.85251">
        <ele>1441</ele>
        <time>2021-08-04T07:39:30.805Z</time>
      </trkpt>
      <trkpt lat="46.9905" lon="8.85249">
        <ele>1441</ele>
        <time>2021-08-04T07:39:31.805Z</time>
      </trkpt>
      <trkpt lat="46.9905" lon="8.85249">
        <ele>1442</ele>
        <time>2021-08-04T07:39:32.806Z</time>
      </trkpt>
      <trkpt lat="46.9905" lon="8.85248">
        <ele>1442</ele>
        <time>2021-08-04T07:39:33.805Z</time>
      </trkpt>
      <trkpt lat="46.9905" lon="8.85248">
        <ele>1442</ele>
        <time>2021-08-04T07:39:34.806Z</time>
      </trkpt>
      <trkpt lat="46.9905" lon="8.85247">
        <ele>1442</ele>
        <time>2021-08-04T07:39:35.806Z</time>
      </trkpt>
      <trkpt lat="46.9905" lon="8.85245">
        <ele>1442</ele>
        <time>2021-08-04T07:39:36.806Z</time>
      </trkpt>
      <trkpt lat="46.9905" lon="8.85243">
        <ele>1442</ele>
        <time>2021-08-04T07:39:37.806Z</time>
      </trkpt>
      <trkpt lat="46.9905" lon="8.85242">
        <ele>1442</ele>
        <time>2021-08-04T07:39:38.806Z</time>
      </trkpt>
      <trkpt lat="46.99049" lon="8.8524">
        <ele>1442</ele>
        <time>2021-08-04T07:39:39.805Z</time>
      </trkpt>
      <trkpt lat="46.99049" lon="8.85239">
        <ele>1441</ele>
        <time>2021-08-04T07:39:40.806Z</time>
      </trkpt>
      <trkpt lat="46.99049" lon="8.85237">
        <ele>1441</ele>
        <time>2021-08-04T07:39:41.805Z</time>
      </trkpt>
      <trkpt lat="46.99049" lon="8.85235">
        <ele>1441</ele>
        <time>2021-08-04T07:39:42.806Z</time>
      </trkpt>
      <trkpt lat="46.99048" lon="8.85234">
        <ele>1441</ele>
        <time>2021-08-04T07:39:43.805Z</time>
      </trkpt>
      <trkpt lat="46.99048" lon="8.85232">
        <ele>1440</ele>
        <time>2021-08-04T07:39:44.805Z</time>
      </trkpt>
      <trkpt lat="46.99048" lon="8.85231">
        <ele>1440</ele>
        <time>2021-08-04T07:39:45.806Z</time>
      </trkpt>
      <trkpt lat="46.99048" lon="8.85229">
        <ele>1440</ele>
        <time>2021-08-04T07:39:46.806Z</time>
      </trkpt>
      <trkpt lat="46.99048" lon="8.85227">
        <ele>1440</ele>
        <time>2021-08-04T07:39:47.806Z</time>
      </trkpt>
      <trkpt lat="46.99049" lon="8.85225">
        <ele>1440</ele>
        <time>2021-08-04T07:39:48.806Z</time>
      </trkpt>
      <trkpt lat="46.9905" lon="8.85224">
        <ele>1439</ele>
        <time>2021-08-04T07:39:49.805Z</time>
      </trkpt>
      <trkpt lat="46.9905" lon="8.85224">
        <ele>1438</ele>
        <time>2021-08-04T07:39:50.806Z</time>
      </trkpt>
      <trkpt lat="46.99051" lon="8.85222">
        <ele>1437</ele>
        <time>2021-08-04T07:39:51.806Z</time>
      </trkpt>
      <trkpt lat="46.99052" lon="8.85221">
        <ele>1436</ele>
        <time>2021-08-04T07:39:52.806Z</time>
      </trkpt>
      <trkpt lat="46.99053" lon="8.8522">
        <ele>1435</ele>
        <time>2021-08-04T07:39:53.806Z</time>
      </trkpt>
      <trkpt lat="46.99053" lon="8.85219">
        <ele>1434</ele>
        <time>2021-08-04T07:39:54.806Z</time>
      </trkpt>
      <trkpt lat="46.99054" lon="8.85218">
        <ele>1433</ele>
        <time>2021-08-04T07:39:55.806Z</time>
      </trkpt>
      <trkpt lat="46.99055" lon="8.85217">
        <ele>1433</ele>
        <time>2021-08-04T07:39:56.806Z</time>
      </trkpt>
      <trkpt lat="46.99056" lon="8.85216">
        <ele>1433</ele>
        <time>2021-08-04T07:39:57.806Z</time>
      </trkpt>
      <trkpt lat="46.99057" lon="8.85215">
        <ele>1432</ele>
        <time>2021-08-04T07:39:58.806Z</time>
      </trkpt>
      <trkpt lat="46.99058" lon="8.85214">
        <ele>1432</ele>
        <time>2021-08-04T07:39:59.805Z</time>
      </trkpt>
      <trkpt lat="46.99059" lon="8.85214">
        <ele>1432</ele>
        <time>2021-08-04T07:40:00.805Z</time>
      </trkpt>
      <trkpt lat="46.9906" lon="8.85214">
        <ele>1431</ele>
        <time>2021-08-04T07:40:01.805Z</time>
      </trkpt>
      <trkpt lat="46.99062" lon="8.85213">
        <ele>1431</ele>
        <time>2021-08-04T07:40:02.805Z</time>
      </trkpt>
      <trkpt lat="46.99062" lon="8.85212">
        <ele>1430</ele>
        <time>2021-08-04T07:40:03.805Z</time>
      </trkpt>
      <trkpt lat="46.99063" lon="8.85212">
        <ele>1429</ele>
        <time>2021-08-04T07:40:04.805Z</time>
      </trkpt>
      <trkpt lat="46.99064" lon="8.8521">
        <ele>1429</ele>
        <time>2021-08-04T07:40:05.805Z</time>
      </trkpt>
      <trkpt lat="46.99065" lon="8.8521">
        <ele>1428</ele>
        <time>2021-08-04T07:40:06.805Z</time>
      </trkpt>
      <trkpt lat="46.99065" lon="8.85209">
        <ele>1427</ele>
        <time>2021-08-04T07:40:07.805Z</time>
      </trkpt>
      <trkpt lat="46.99066" lon="8.85208">
        <ele>1426</ele>
        <time>2021-08-04T07:40:08.805Z</time>
      </trkpt>
      <trkpt lat="46.99067" lon="8.85207">
        <ele>1425</ele>
        <time>2021-08-04T07:40:09.806Z</time>
      </trkpt>
      <trkpt lat="46.99067" lon="8.85206">
        <ele>1426</ele>
        <time>2021-08-04T07:40:10.806Z</time>
      </trkpt>
      <trkpt lat="46.99068" lon="8.85205">
        <ele>1426</ele>
        <time>2021-08-04T07:40:11.806Z</time>
      </trkpt>
      <trkpt lat="46.99068" lon="8.85204">
        <ele>1426</ele>
        <time>2021-08-04T07:40:12.806Z</time>
      </trkpt>
      <trkpt lat="46.99069" lon="8.85202">
        <ele>1426</ele>
        <time>2021-08-04T07:40:13.806Z</time>
      </trkpt>
      <trkpt lat="46.99069" lon="8.852">
        <ele>1426</ele>
        <time>2021-08-04T07:40:14.805Z</time>
      </trkpt>
      <trkpt lat="46.9907" lon="8.85199">
        <ele>1425</ele>
        <time>2021-08-04T07:40:15.806Z</time>
      </trkpt>
      <trkpt lat="46.99071" lon="8.85197">
        <ele>1425</ele>
        <time>2021-08-04T07:40:16.806Z</time>
      </trkpt>
      <trkpt lat="46.99072" lon="8.85196">
        <ele>1425</ele>
        <time>2021-08-04T07:40:17.806Z</time>
      </trkpt>
      <trkpt lat="46.99072" lon="8.85194">
        <ele>1425</ele>
        <time>2021-08-04T07:40:18.805Z</time>
      </trkpt>
      <trkpt lat="46.99073" lon="8.85193">
        <ele>1425</ele>
        <time>2021-08-04T07:40:19.806Z</time>
      </trkpt>
      <trkpt lat="46.99073" lon="8.85191">
        <ele>1425</ele>
        <time>2021-08-04T07:40:20.806Z</time>
      </trkpt>
      <trkpt lat="46.99074" lon="8.85189">
        <ele>1425</ele>
        <time>2021-08-04T07:40:21.806Z</time>
      </trkpt>
      <trkpt lat="46.99074" lon="8.85188">
        <ele>1425</ele>
        <time>2021-08-04T07:40:22.806Z</time>
      </trkpt>
      <trkpt lat="46.99075" lon="8.85186">
        <ele>1424</ele>
        <time>2021-08-04T07:40:23.806Z</time>
      </trkpt>
      <trkpt lat="46.99075" lon="8.85185">
        <ele>1424</ele>
        <time>2021-08-04T07:40:24.806Z</time>
      </trkpt>
      <trkpt lat="46.99075" lon="8.85184">
        <ele>1424</ele>
        <time>2021-08-04T07:40:25.806Z</time>
      </trkpt>
      <trkpt lat="46.99076" lon="8.85183">
        <ele>1423</ele>
        <time>2021-08-04T07:40:26.806Z</time>
      </trkpt>
      <trkpt lat="46.99076" lon="8.85181">
        <ele>1423</ele>
        <time>2021-08-04T07:40:27.806Z</time>
      </trkpt>
      <trkpt lat="46.99076" lon="8.85179">
        <ele>1422</ele>
        <time>2021-08-04T07:40:28.806Z</time>
      </trkpt>
      <trkpt lat="46.99076" lon="8.85177">
        <ele>1422</ele>
        <time>2021-08-04T07:40:29.806Z</time>
      </trkpt>
      <trkpt lat="46.99076" lon="8.85175">
        <ele>1421</ele>
        <time>2021-08-04T07:40:30.806Z</time>
      </trkpt>
      <trkpt lat="46.99076" lon="8.85174">
        <ele>1420</ele>
        <time>2021-08-04T07:40:31.805Z</time>
      </trkpt>
      <trkpt lat="46.99076" lon="8.85172">
        <ele>1420</ele>
        <time>2021-08-04T07:40:32.806Z</time>
      </trkpt>
      <trkpt lat="46.99077" lon="8.85171">
        <ele>1420</ele>
        <time>2021-08-04T07:40:33.806Z</time>
      </trkpt>
      <trkpt lat="46.99078" lon="8.85169">
        <ele>1419</ele>
        <time>2021-08-04T07:40:34.805Z</time>
      </trkpt>
      <trkpt lat="46.99079" lon="8.85168">
        <ele>1419</ele>
        <time>2021-08-04T07:40:35.805Z</time>
      </trkpt>
      <trkpt lat="46.99078" lon="8.85166">
        <ele>1420</ele>
        <time>2021-08-04T07:40:36.805Z</time>
      </trkpt>
      <trkpt lat="46.99078" lon="8.85164">
        <ele>1420</ele>
        <time>2021-08-04T07:40:37.805Z</time>
      </trkpt>
      <trkpt lat="46.99078" lon="8.85163">
        <ele>1420</ele>
        <time>2021-08-04T07:40:38.805Z</time>
      </trkpt>
      <trkpt lat="46.99077" lon="8.85161">
        <ele>1420</ele>
        <time>2021-08-04T07:40:39.805Z</time>
      </trkpt>
      <trkpt lat="46.99077" lon="8.8516">
        <ele>1420</ele>
        <time>2021-08-04T07:40:40.805Z</time>
      </trkpt>
      <trkpt lat="46.99078" lon="8.85158">
        <ele>1420</ele>
        <time>2021-08-04T07:40:41.806Z</time>
      </trkpt>
      <trkpt lat="46.99078" lon="8.85157">
        <ele>1420</ele>
        <time>2021-08-04T07:40:42.806Z</time>
      </trkpt>
      <trkpt lat="46.99078" lon="8.85156">
        <ele>1421</ele>
        <time>2021-08-04T07:40:43.806Z</time>
      </trkpt>
      <trkpt lat="46.99078" lon="8.85154">
        <ele>1421</ele>
        <time>2021-08-04T07:40:44.805Z</time>
      </trkpt>
      <trkpt lat="46.99077" lon="8.85152">
        <ele>1421</ele>
        <time>2021-08-04T07:40:45.806Z</time>
      </trkpt>
      <trkpt lat="46.99077" lon="8.85151">
        <ele>1420</ele>
        <time>2021-08-04T07:40:46.805Z</time>
      </trkpt>
      <trkpt lat="46.99077" lon="8.85149">
        <ele>1420</ele>
        <time>2021-08-04T07:40:47.806Z</time>
      </trkpt>
      <trkpt lat="46.99078" lon="8.85147">
        <ele>1420</ele>
        <time>2021-08-04T07:40:48.806Z</time>
      </trkpt>
      <trkpt lat="46.99077" lon="8.85146">
        <ele>1420</ele>
        <time>2021-08-04T07:40:49.805Z</time>
      </trkpt>
      <trkpt lat="46.99077" lon="8.85145">
        <ele>1419</ele>
        <time>2021-08-04T07:40:50.806Z</time>
      </trkpt>
      <trkpt lat="46.99077" lon="8.85143">
        <ele>1419</ele>
        <time>2021-08-04T07:40:51.806Z</time>
      </trkpt>
      <trkpt lat="46.99076" lon="8.85142">
        <ele>1419</ele>
        <time>2021-08-04T07:40:52.805Z</time>
      </trkpt>
      <trkpt lat="46.99075" lon="8.85141">
        <ele>1418</ele>
        <time>2021-08-04T07:40:53.806Z</time>
      </trkpt>
      <trkpt lat="46.99075" lon="8.8514">
        <ele>1418</ele>
        <time>2021-08-04T07:40:54.806Z</time>
      </trkpt>
      <trkpt lat="46.99073" lon="8.85138">
        <ele>1418</ele>
        <time>2021-08-04T07:40:55.805Z</time>
      </trkpt>
      <trkpt lat="46.99072" lon="8.85137">
        <ele>1418</ele>
        <time>2021-08-04T07:40:56.806Z</time>
      </trkpt>
      <trkpt lat="46.99071" lon="8.85136">
        <ele>1418</ele>
        <time>2021-08-04T07:40:57.805Z</time>
      </trkpt>
      <trkpt lat="46.9907" lon="8.85135">
        <ele>1418</ele>
        <time>2021-08-04T07:40:58.806Z</time>
      </trkpt>
      <trkpt lat="46.9907" lon="8.85133">
        <ele>1418</ele>
        <time>2021-08-04T07:40:59.805Z</time>
      </trkpt>
      <trkpt lat="46.9907" lon="8.85133">
        <ele>1418</ele>
        <time>2021-08-04T07:41:00.806Z</time>
      </trkpt>
      <trkpt lat="46.99069" lon="8.85132">
        <ele>1418</ele>
        <time>2021-08-04T07:41:01.806Z</time>
      </trkpt>
      <trkpt lat="46.99068" lon="8.85131">
        <ele>1418</ele>
        <time>2021-08-04T07:41:02.806Z</time>
      </trkpt>
      <trkpt lat="46.99067" lon="8.8513">
        <ele>1418</ele>
        <time>2021-08-04T07:41:03.806Z</time>
      </trkpt>
      <trkpt lat="46.99066" lon="8.85128">
        <ele>1418</ele>
        <time>2021-08-04T07:41:04.806Z</time>
      </trkpt>
      <trkpt lat="46.99064" lon="8.85127">
        <ele>1418</ele>
        <time>2021-08-04T07:41:05.806Z</time>
      </trkpt>
      <trkpt lat="46.99062" lon="8.85125">
        <ele>1417</ele>
        <time>2021-08-04T07:41:06.806Z</time>
      </trkpt>
      <trkpt lat="46.99061" lon="8.85124">
        <ele>1417</ele>
        <time>2021-08-04T07:41:07.805Z</time>
      </trkpt>
      <trkpt lat="46.99059" lon="8.85123">
        <ele>1417</ele>
        <time>2021-08-04T07:41:08.806Z</time>
      </trkpt>
      <trkpt lat="46.99058" lon="8.85122">
        <ele>1418</ele>
        <time>2021-08-04T07:41:09.805Z</time>
      </trkpt>
      <trkpt lat="46.99057" lon="8.85121">
        <ele>1418</ele>
        <time>2021-08-04T07:41:10.806Z</time>
      </trkpt>
      <trkpt lat="46.99055" lon="8.8512">
        <ele>1418</ele>
        <time>2021-08-04T07:41:11.806Z</time>
      </trkpt>
      <trkpt lat="46.99053" lon="8.8512">
        <ele>1418</ele>
        <time>2021-08-04T07:41:12.806Z</time>
      </trkpt>
      <trkpt lat="46.99052" lon="8.8512">
        <ele>1418</ele>
        <time>2021-08-04T07:41:13.806Z</time>
      </trkpt>
      <trkpt lat="46.9905" lon="8.8512">
        <ele>1417</ele>
        <time>2021-08-04T07:41:14.806Z</time>
      </trkpt>
      <trkpt lat="46.99049" lon="8.8512">
        <ele>1417</ele>
        <time>2021-08-04T07:41:15.805Z</time>
      </trkpt>
      <trkpt lat="46.99048" lon="8.8512">
        <ele>1416</ele>
        <time>2021-08-04T07:41:16.806Z</time>
      </trkpt>
      <trkpt lat="46.99047" lon="8.85119">
        <ele>1416</ele>
        <time>2021-08-04T07:41:17.806Z</time>
      </trkpt>
      <trkpt lat="46.99046" lon="8.85118">
        <ele>1415</ele>
        <time>2021-08-04T07:41:18.806Z</time>
      </trkpt>
      <trkpt lat="46.99045" lon="8.85117">
        <ele>1415</ele>
        <time>2021-08-04T07:41:19.806Z</time>
      </trkpt>
      <trkpt lat="46.99044" lon="8.85115">
        <ele>1414</ele>
        <time>2021-08-04T07:41:20.805Z</time>
      </trkpt>
      <trkpt lat="46.99043" lon="8.85115">
        <ele>1413</ele>
        <time>2021-08-04T07:41:21.805Z</time>
      </trkpt>
      <trkpt lat="46.99043" lon="8.85114">
        <ele>1413</ele>
        <time>2021-08-04T07:41:22.805Z</time>
      </trkpt>
      <trkpt lat="46.99042" lon="8.85113">
        <ele>1413</ele>
        <time>2021-08-04T07:41:23.805Z</time>
      </trkpt>
      <trkpt lat="46.99041" lon="8.85113">
        <ele>1412</ele>
        <time>2021-08-04T07:41:24.806Z</time>
      </trkpt>
      <trkpt lat="46.9904" lon="8.85113">
        <ele>1412</ele>
        <time>2021-08-04T07:41:25.805Z</time>
      </trkpt>
      <trkpt lat="46.99039" lon="8.85112">
        <ele>1412</ele>
        <time>2021-08-04T07:41:26.806Z</time>
      </trkpt>
      <trkpt lat="46.99038" lon="8.85112">
        <ele>1412</ele>
        <time>2021-08-04T07:41:27.806Z</time>
      </trkpt>
      <trkpt lat="46.99036" lon="8.85111">
        <ele>1412</ele>
        <time>2021-08-04T07:41:28.805Z</time>
      </trkpt>
      <trkpt lat="46.99036" lon="8.85112">
        <ele>1412</ele>
        <time>2021-08-04T07:41:29.806Z</time>
      </trkpt>
      <trkpt lat="46.99036" lon="8.85112">
        <ele>1412</ele>
        <time>2021-08-04T07:41:30.806Z</time>
      </trkpt>
      <trkpt lat="46.99034" lon="8.85111">
        <ele>1412</ele>
        <time>2021-08-04T07:41:31.806Z</time>
      </trkpt>
      <trkpt lat="46.99033" lon="8.8511">
        <ele>1412</ele>
        <time>2021-08-04T07:41:32.806Z</time>
      </trkpt>
      <trkpt lat="46.99032" lon="8.8511">
        <ele>1412</ele>
        <time>2021-08-04T07:41:33.805Z</time>
      </trkpt>
      <trkpt lat="46.99031" lon="8.85109">
        <ele>1412</ele>
        <time>2021-08-04T07:41:34.805Z</time>
      </trkpt>
      <trkpt lat="46.9903" lon="8.85109">
        <ele>1411</ele>
        <time>2021-08-04T07:41:35.805Z</time>
      </trkpt>
      <trkpt lat="46.99029" lon="8.85108">
        <ele>1411</ele>
        <time>2021-08-04T07:41:36.805Z</time>
      </trkpt>
      <trkpt lat="46.99028" lon="8.85107">
        <ele>1410</ele>
        <time>2021-08-04T07:41:37.806Z</time>
      </trkpt>
      <trkpt lat="46.99027" lon="8.85107">
        <ele>1410</ele>
        <time>2021-08-04T07:41:38.806Z</time>
      </trkpt>
      <trkpt lat="46.99026" lon="8.85106">
        <ele>1410</ele>
        <time>2021-08-04T07:41:39.806Z</time>
      </trkpt>
      <trkpt lat="46.99025" lon="8.85106">
        <ele>1409</ele>
        <time>2021-08-04T07:41:40.806Z</time>
      </trkpt>
      <trkpt lat="46.99024" lon="8.85105">
        <ele>1408</ele>
        <time>2021-08-04T07:41:41.806Z</time>
      </trkpt>
      <trkpt lat="46.99023" lon="8.85104">
        <ele>1408</ele>
        <time>2021-08-04T07:41:42.806Z</time>
      </trkpt>
      <trkpt lat="46.99023" lon="8.85104">
        <ele>1408</ele>
        <time>2021-08-04T07:41:43.806Z</time>
      </trkpt>
      <trkpt lat="46.99023" lon="8.85105">
        <ele>1407</ele>
        <time>2021-08-04T07:41:44.805Z</time>
      </trkpt>
      <trkpt lat="46.99022" lon="8.85105">
        <ele>1407</ele>
        <time>2021-08-04T07:41:45.806Z</time>
      </trkpt>
      <trkpt lat="46.9902" lon="8.85105">
        <ele>1406</ele>
        <time>2021-08-04T07:41:46.806Z</time>
      </trkpt>
      <trkpt lat="46.99019" lon="8.85106">
        <ele>1405</ele>
        <time>2021-08-04T07:41:47.806Z</time>
      </trkpt>
      <trkpt lat="46.99018" lon="8.85105">
        <ele>1404</ele>
        <time>2021-08-04T07:41:48.806Z</time>
      </trkpt>
      <trkpt lat="46.99017" lon="8.85105">
        <ele>1404</ele>
        <time>2021-08-04T07:41:49.805Z</time>
      </trkpt>
      <trkpt lat="46.99016" lon="8.85104">
        <ele>1403</ele>
        <time>2021-08-04T07:41:50.806Z</time>
      </trkpt>
      <trkpt lat="46.99015" lon="8.85104">
        <ele>1403</ele>
        <time>2021-08-04T07:41:51.805Z</time>
      </trkpt>
      <trkpt lat="46.99014" lon="8.85103">
        <ele>1402</ele>
        <time>2021-08-04T07:41:52.806Z</time>
      </trkpt>
      <trkpt lat="46.99014" lon="8.85102">
        <ele>1402</ele>
        <time>2021-08-04T07:41:53.806Z</time>
      </trkpt>
      <trkpt lat="46.99013" lon="8.85101">
        <ele>1402</ele>
        <time>2021-08-04T07:41:54.806Z</time>
      </trkpt>
      <trkpt lat="46.99012" lon="8.851">
        <ele>1402</ele>
        <time>2021-08-04T07:41:55.805Z</time>
      </trkpt>
      <trkpt lat="46.99012" lon="8.851">
        <ele>1402</ele>
        <time>2021-08-04T07:41:56.806Z</time>
      </trkpt>
      <trkpt lat="46.99011" lon="8.85099">
        <ele>1402</ele>
        <time>2021-08-04T07:41:57.805Z</time>
      </trkpt>
      <trkpt lat="46.99009" lon="8.85102">
        <ele>1402</ele>
        <time>2021-08-04T07:41:58.806Z</time>
      </trkpt>
      <trkpt lat="46.99008" lon="8.85102">
        <ele>1402</ele>
        <time>2021-08-04T07:41:59.806Z</time>
      </trkpt>
      <trkpt lat="46.99007" lon="8.85101">
        <ele>1403</ele>
        <time>2021-08-04T07:42:00.806Z</time>
      </trkpt>
      <trkpt lat="46.99007" lon="8.851">
        <ele>1403</ele>
        <time>2021-08-04T07:42:01.806Z</time>
      </trkpt>
      <trkpt lat="46.99006" lon="8.851">
        <ele>1402</ele>
        <time>2021-08-04T07:42:02.805Z</time>
      </trkpt>
      <trkpt lat="46.99006" lon="8.851">
        <ele>1402</ele>
        <time>2021-08-04T07:42:03.806Z</time>
      </trkpt>
      <trkpt lat="46.99005" lon="8.85099">
        <ele>1402</ele>
        <time>2021-08-04T07:42:04.805Z</time>
      </trkpt>
      <trkpt lat="46.99003" lon="8.85098">
        <ele>1402</ele>
        <time>2021-08-04T07:42:05.806Z</time>
      </trkpt>
      <trkpt lat="46.99002" lon="8.85098">
        <ele>1402</ele>
        <time>2021-08-04T07:42:06.805Z</time>
      </trkpt>
      <trkpt lat="46.99001" lon="8.85097">
        <ele>1402</ele>
        <time>2021-08-04T07:42:07.806Z</time>
      </trkpt>
      <trkpt lat="46.99" lon="8.85097">
        <ele>1402</ele>
        <time>2021-08-04T07:42:08.806Z</time>
      </trkpt>
      <trkpt lat="46.98999" lon="8.85097">
        <ele>1402</ele>
        <time>2021-08-04T07:42:09.805Z</time>
      </trkpt>
      <trkpt lat="46.98999" lon="8.85097">
        <ele>1402</ele>
        <time>2021-08-04T07:42:10.805Z</time>
      </trkpt>
      <trkpt lat="46.98998" lon="8.85096">
        <ele>1402</ele>
        <time>2021-08-04T07:42:11.805Z</time>
      </trkpt>
      <trkpt lat="46.98997" lon="8.85095">
        <ele>1402</ele>
        <time>2021-08-04T07:42:12.806Z</time>
      </trkpt>
      <trkpt lat="46.98996" lon="8.85095">
        <ele>1401</ele>
        <time>2021-08-04T07:42:13.805Z</time>
      </trkpt>
      <trkpt lat="46.98996" lon="8.85095">
        <ele>1401</ele>
        <time>2021-08-04T07:42:14.805Z</time>
      </trkpt>
      <trkpt lat="46.98997" lon="8.85096">
        <ele>1400</ele>
        <time>2021-08-04T07:42:15.805Z</time>
      </trkpt>
      <trkpt lat="46.98996" lon="8.85096">
        <ele>1399</ele>
        <time>2021-08-04T07:42:16.805Z</time>
      </trkpt>
      <trkpt lat="46.98996" lon="8.85096">
        <ele>1398</ele>
        <time>2021-08-04T07:42:17.805Z</time>
      </trkpt>
      <trkpt lat="46.98996" lon="8.85096">
        <ele>1397</ele>
        <time>2021-08-04T07:42:18.805Z</time>
      </trkpt>
      <trkpt lat="46.98995" lon="8.85095">
        <ele>1397</ele>
        <time>2021-08-04T07:42:19.805Z</time>
      </trkpt>
      <trkpt lat="46.98992" lon="8.85092">
        <ele>1395</ele>
        <time>2021-08-04T07:42:20.807Z</time>
      </trkpt>
      <trkpt lat="46.98992" lon="8.85092">
        <ele>1395</ele>
        <time>2021-08-04T07:42:21.807Z</time>
      </trkpt>
      <trkpt lat="46.98992" lon="8.85092">
        <ele>1395</ele>
        <time>2021-08-04T07:42:22.806Z</time>
      </trkpt>
      <trkpt lat="46.98992" lon="8.85092">
        <ele>1395</ele>
        <time>2021-08-04T07:42:23.807Z</time>
      </trkpt>
      <trkpt lat="46.98994" lon="8.85093">
        <ele>1395</ele>
        <time>2021-08-04T07:42:24.806Z</time>
      </trkpt>
      <trkpt lat="46.98994" lon="8.85092">
        <ele>1394</ele>
        <time>2021-08-04T07:42:25.807Z</time>
      </trkpt>
      <trkpt lat="46.98992" lon="8.85092">
        <ele>1394</ele>
        <time>2021-08-04T07:42:26.807Z</time>
      </trkpt>
      <trkpt lat="46.98991" lon="8.85092">
        <ele>1394</ele>
        <time>2021-08-04T07:42:27.807Z</time>
      </trkpt>
      <trkpt lat="46.9899" lon="8.85091">
        <ele>1393</ele>
        <time>2021-08-04T07:42:28.807Z</time>
      </trkpt>
      <trkpt lat="46.98989" lon="8.85091">
        <ele>1393</ele>
        <time>2021-08-04T07:42:29.807Z</time>
      </trkpt>
      <trkpt lat="46.98988" lon="8.85091">
        <ele>1392</ele>
        <time>2021-08-04T07:42:30.807Z</time>
      </trkpt>
      <trkpt lat="46.98987" lon="8.85091">
        <ele>1392</ele>
        <time>2021-08-04T07:42:31.807Z</time>
      </trkpt>
      <trkpt lat="46.98986" lon="8.85091">
        <ele>1392</ele>
        <time>2021-08-04T07:42:32.807Z</time>
      </trkpt>
      <trkpt lat="46.98985" lon="8.8509">
        <ele>1393</ele>
        <time>2021-08-04T07:42:33.807Z</time>
      </trkpt>
      <trkpt lat="46.98983" lon="8.8509">
        <ele>1393</ele>
        <time>2021-08-04T07:42:34.807Z</time>
      </trkpt>
      <trkpt lat="46.98981" lon="8.8509">
        <ele>1393</ele>
        <time>2021-08-04T07:42:35.806Z</time>
      </trkpt>
      <trkpt lat="46.98981" lon="8.85089">
        <ele>1394</ele>
        <time>2021-08-04T07:42:36.807Z</time>
      </trkpt>
      <trkpt lat="46.9898" lon="8.8509">
        <ele>1394</ele>
        <time>2021-08-04T07:42:37.807Z</time>
      </trkpt>
      <trkpt lat="46.9898" lon="8.8509">
        <ele>1395</ele>
        <time>2021-08-04T07:42:38.807Z</time>
      </trkpt>
      <trkpt lat="46.98981" lon="8.85092">
        <ele>1395</ele>
        <time>2021-08-04T07:42:39.807Z</time>
      </trkpt>
      <trkpt lat="46.9898" lon="8.85093">
        <ele>1395</ele>
        <time>2021-08-04T07:42:40.807Z</time>
      </trkpt>
      <trkpt lat="46.98979" lon="8.85094">
        <ele>1396</ele>
        <time>2021-08-04T07:42:41.807Z</time>
      </trkpt>
      <trkpt lat="46.98979" lon="8.85095">
        <ele>1396</ele>
        <time>2021-08-04T07:42:42.806Z</time>
      </trkpt>
      <trkpt lat="46.98978" lon="8.85096">
        <ele>1396</ele>
        <time>2021-08-04T07:42:43.807Z</time>
      </trkpt>
      <trkpt lat="46.98978" lon="8.85097">
        <ele>1397</ele>
        <time>2021-08-04T07:42:44.807Z</time>
      </trkpt>
      <trkpt lat="46.98977" lon="8.85097">
        <ele>1398</ele>
        <time>2021-08-04T07:42:45.807Z</time>
      </trkpt>
      <trkpt lat="46.98976" lon="8.85098">
        <ele>1398</ele>
        <time>2021-08-04T07:42:46.807Z</time>
      </trkpt>
      <trkpt lat="46.98975" lon="8.85099">
        <ele>1398</ele>
        <time>2021-08-04T07:42:47.806Z</time>
      </trkpt>
      <trkpt lat="46.98975" lon="8.851">
        <ele>1398</ele>
        <time>2021-08-04T07:42:48.806Z</time>
      </trkpt>
      <trkpt lat="46.98975" lon="8.851">
        <ele>1398</ele>
        <time>2021-08-04T07:42:49.807Z</time>
      </trkpt>
      <trkpt lat="46.98974" lon="8.851">
        <ele>1398</ele>
        <time>2021-08-04T07:42:50.806Z</time>
      </trkpt>
      <trkpt lat="46.98974" lon="8.85101">
        <ele>1397</ele>
        <time>2021-08-04T07:42:51.807Z</time>
      </trkpt>
      <trkpt lat="46.98974" lon="8.851">
        <ele>1396</ele>
        <time>2021-08-04T07:42:52.807Z</time>
      </trkpt>
      <trkpt lat="46.98973" lon="8.851">
        <ele>1395</ele>
        <time>2021-08-04T07:42:53.806Z</time>
      </trkpt>
      <trkpt lat="46.98973" lon="8.851">
        <ele>1395</ele>
        <time>2021-08-04T07:42:54.807Z</time>
      </trkpt>
      <trkpt lat="46.98972" lon="8.85099">
        <ele>1394</ele>
        <time>2021-08-04T07:42:55.807Z</time>
      </trkpt>
      <trkpt lat="46.98972" lon="8.85098">
        <ele>1394</ele>
        <time>2021-08-04T07:42:56.807Z</time>
      </trkpt>
      <trkpt lat="46.98972" lon="8.85098">
        <ele>1394</ele>
        <time>2021-08-04T07:42:57.807Z</time>
      </trkpt>
      <trkpt lat="46.98972" lon="8.85097">
        <ele>1395</ele>
        <time>2021-08-04T07:42:58.807Z</time>
      </trkpt>
      <trkpt lat="46.98973" lon="8.85096">
        <ele>1395</ele>
        <time>2021-08-04T07:42:59.807Z</time>
      </trkpt>
      <trkpt lat="46.98973" lon="8.85094">
        <ele>1396</ele>
        <time>2021-08-04T07:43:00.807Z</time>
      </trkpt>
      <trkpt lat="46.98974" lon="8.85093">
        <ele>1397</ele>
        <time>2021-08-04T07:43:01.806Z</time>
      </trkpt>
      <trkpt lat="46.98975" lon="8.85092">
        <ele>1397</ele>
        <time>2021-08-04T07:43:02.806Z</time>
      </trkpt>
      <trkpt lat="46.98977" lon="8.85091">
        <ele>1398</ele>
        <time>2021-08-04T07:43:03.807Z</time>
      </trkpt>
      <trkpt lat="46.98978" lon="8.8509">
        <ele>1398</ele>
        <time>2021-08-04T07:43:04.806Z</time>
      </trkpt>
      <trkpt lat="46.9898" lon="8.8509">
        <ele>1398</ele>
        <time>2021-08-04T07:43:05.807Z</time>
      </trkpt>
      <trkpt lat="46.98981" lon="8.85089">
        <ele>1398</ele>
        <time>2021-08-04T07:43:06.806Z</time>
      </trkpt>
      <trkpt lat="46.98982" lon="8.85088">
        <ele>1399</ele>
        <time>2021-08-04T07:43:07.807Z</time>
      </trkpt>
      <trkpt lat="46.98984" lon="8.85086">
        <ele>1399</ele>
        <time>2021-08-04T07:43:08.806Z</time>
      </trkpt>
      <trkpt lat="46.98985" lon="8.85085">
        <ele>1400</ele>
        <time>2021-08-04T07:43:09.806Z</time>
      </trkpt>
      <trkpt lat="46.98985" lon="8.85084">
        <ele>1400</ele>
        <time>2021-08-04T07:43:10.807Z</time>
      </trkpt>
      <trkpt lat="46.98985" lon="8.85083">
        <ele>1401</ele>
        <time>2021-08-04T07:43:11.807Z</time>
      </trkpt>
      <trkpt lat="46.98985" lon="8.85082">
        <ele>1400</ele>
        <time>2021-08-04T07:43:12.807Z</time>
      </trkpt>
      <trkpt lat="46.98985" lon="8.85081">
        <ele>1400</ele>
        <time>2021-08-04T07:43:13.806Z</time>
      </trkpt>
      <trkpt lat="46.98985" lon="8.8508">
        <ele>1400</ele>
        <time>2021-08-04T07:43:14.806Z</time>
      </trkpt>
      <trkpt lat="46.98985" lon="8.85079">
        <ele>1399</ele>
        <time>2021-08-04T07:43:15.806Z</time>
      </trkpt>
      <trkpt lat="46.98985" lon="8.85078">
        <ele>1399</ele>
        <time>2021-08-04T07:43:16.807Z</time>
      </trkpt>
      <trkpt lat="46.98986" lon="8.85077">
        <ele>1398</ele>
        <time>2021-08-04T07:43:17.807Z</time>
      </trkpt>
      <trkpt lat="46.98986" lon="8.85076">
        <ele>1398</ele>
        <time>2021-08-04T07:43:18.807Z</time>
      </trkpt>
      <trkpt lat="46.98986" lon="8.85076">
        <ele>1399</ele>
        <time>2021-08-04T07:43:19.807Z</time>
      </trkpt>
      <trkpt lat="46.98986" lon="8.85074">
        <ele>1399</ele>
        <time>2021-08-04T07:43:20.806Z</time>
      </trkpt>
      <trkpt lat="46.98986" lon="8.85073">
        <ele>1400</ele>
        <time>2021-08-04T07:43:21.806Z</time>
      </trkpt>
      <trkpt lat="46.98986" lon="8.85072">
        <ele>1400</ele>
        <time>2021-08-04T07:43:22.807Z</time>
      </trkpt>
      <trkpt lat="46.98986" lon="8.8507">
        <ele>1401</ele>
        <time>2021-08-04T07:43:23.807Z</time>
      </trkpt>
      <trkpt lat="46.98987" lon="8.85069">
        <ele>1401</ele>
        <time>2021-08-04T07:43:24.806Z</time>
      </trkpt>
      <trkpt lat="46.98987" lon="8.85068">
        <ele>1401</ele>
        <time>2021-08-04T07:43:25.806Z</time>
      </trkpt>
      <trkpt lat="46.98988" lon="8.85066">
        <ele>1401</ele>
        <time>2021-08-04T07:43:26.806Z</time>
      </trkpt>
      <trkpt lat="46.98988" lon="8.85065">
        <ele>1401</ele>
        <time>2021-08-04T07:43:27.806Z</time>
      </trkpt>
      <trkpt lat="46.98988" lon="8.85064">
        <ele>1401</ele>
        <time>2021-08-04T07:43:28.806Z</time>
      </trkpt>
      <trkpt lat="46.98989" lon="8.85063">
        <ele>1401</ele>
        <time>2021-08-04T07:43:29.806Z</time>
      </trkpt>
      <trkpt lat="46.9899" lon="8.85062">
        <ele>1401</ele>
        <time>2021-08-04T07:43:30.806Z</time>
      </trkpt>
      <trkpt lat="46.9899" lon="8.85061">
        <ele>1401</ele>
        <time>2021-08-04T07:43:31.806Z</time>
      </trkpt>
      <trkpt lat="46.98991" lon="8.8506">
        <ele>1401</ele>
        <time>2021-08-04T07:43:32.807Z</time>
      </trkpt>
      <trkpt lat="46.98992" lon="8.85059">
        <ele>1401</ele>
        <time>2021-08-04T07:43:33.806Z</time>
      </trkpt>
      <trkpt lat="46.98993" lon="8.85058">
        <ele>1401</ele>
        <time>2021-08-04T07:43:34.806Z</time>
      </trkpt>
      <trkpt lat="46.98994" lon="8.85058">
        <ele>1401</ele>
        <time>2021-08-04T07:43:35.807Z</time>
      </trkpt>
      <trkpt lat="46.98995" lon="8.85057">
        <ele>1401</ele>
        <time>2021-08-04T07:43:36.807Z</time>
      </trkpt>
      <trkpt lat="46.98996" lon="8.85056">
        <ele>1401</ele>
        <time>2021-08-04T07:43:37.806Z</time>
      </trkpt>
      <trkpt lat="46.98997" lon="8.85055">
        <ele>1400</ele>
        <time>2021-08-04T07:43:38.806Z</time>
      </trkpt>
      <trkpt lat="46.98998" lon="8.85054">
        <ele>1400</ele>
        <time>2021-08-04T07:43:39.806Z</time>
      </trkpt>
      <trkpt lat="46.98998" lon="8.85052">
        <ele>1399</ele>
        <time>2021-08-04T07:43:40.806Z</time>
      </trkpt>
      <trkpt lat="46.98998" lon="8.85051">
        <ele>1398</ele>
        <time>2021-08-04T07:43:41.806Z</time>
      </trkpt>
      <trkpt lat="46.98998" lon="8.8505">
        <ele>1397</ele>
        <time>2021-08-04T07:43:42.806Z</time>
      </trkpt>
      <trkpt lat="46.98998" lon="8.85049">
        <ele>1396</ele>
        <time>2021-08-04T07:43:43.806Z</time>
      </trkpt>
      <trkpt lat="46.98998" lon="8.85048">
        <ele>1396</ele>
        <time>2021-08-04T07:43:44.806Z</time>
      </trkpt>
      <trkpt lat="46.98997" lon="8.85047">
        <ele>1395</ele>
        <time>2021-08-04T07:43:45.806Z</time>
      </trkpt>
      <trkpt lat="46.98997" lon="8.85045">
        <ele>1394</ele>
        <time>2021-08-04T07:43:46.806Z</time>
      </trkpt>
      <trkpt lat="46.98996" lon="8.85044">
        <ele>1394</ele>
        <time>2021-08-04T07:43:47.806Z</time>
      </trkpt>
      <trkpt lat="46.98996" lon="8.85043">
        <ele>1394</ele>
        <time>2021-08-04T07:43:48.806Z</time>
      </trkpt>
      <trkpt lat="46.98995" lon="8.85042">
        <ele>1393</ele>
        <time>2021-08-04T07:43:49.806Z</time>
      </trkpt>
      <trkpt lat="46.98994" lon="8.85041">
        <ele>1393</ele>
        <time>2021-08-04T07:43:50.806Z</time>
      </trkpt>
      <trkpt lat="46.98993" lon="8.85041">
        <ele>1392</ele>
        <time>2021-08-04T07:43:51.806Z</time>
      </trkpt>
      <trkpt lat="46.98992" lon="8.8504">
        <ele>1392</ele>
        <time>2021-08-04T07:43:52.806Z</time>
      </trkpt>
      <trkpt lat="46.98991" lon="8.85039">
        <ele>1392</ele>
        <time>2021-08-04T07:43:53.807Z</time>
      </trkpt>
      <trkpt lat="46.98989" lon="8.85037">
        <ele>1392</ele>
        <time>2021-08-04T07:43:54.807Z</time>
      </trkpt>
      <trkpt lat="46.98988" lon="8.85037">
        <ele>1391</ele>
        <time>2021-08-04T07:43:55.807Z</time>
      </trkpt>
      <trkpt lat="46.98986" lon="8.85037">
        <ele>1391</ele>
        <time>2021-08-04T07:43:56.807Z</time>
      </trkpt>
      <trkpt lat="46.98985" lon="8.85037">
        <ele>1391</ele>
        <time>2021-08-04T07:43:57.807Z</time>
      </trkpt>
      <trkpt lat="46.98983" lon="8.85037">
        <ele>1391</ele>
        <time>2021-08-04T07:43:58.806Z</time>
      </trkpt>
      <trkpt lat="46.98982" lon="8.85036">
        <ele>1391</ele>
        <time>2021-08-04T07:43:59.807Z</time>
      </trkpt>
      <trkpt lat="46.9898" lon="8.85035">
        <ele>1391</ele>
        <time>2021-08-04T07:44:00.806Z</time>
      </trkpt>
      <trkpt lat="46.98979" lon="8.85035">
        <ele>1390</ele>
        <time>2021-08-04T07:44:01.807Z</time>
      </trkpt>
      <trkpt lat="46.98977" lon="8.85034">
        <ele>1390</ele>
        <time>2021-08-04T07:44:02.807Z</time>
      </trkpt>
      <trkpt lat="46.98976" lon="8.85034">
        <ele>1390</ele>
        <time>2021-08-04T07:44:03.806Z</time>
      </trkpt>
      <trkpt lat="46.98974" lon="8.85033">
        <ele>1389</ele>
        <time>2021-08-04T07:44:04.807Z</time>
      </trkpt>
      <trkpt lat="46.98973" lon="8.85033">
        <ele>1388</ele>
        <time>2021-08-04T07:44:05.807Z</time>
      </trkpt>
      <trkpt lat="46.98973" lon="8.85033">
        <ele>1388</ele>
        <time>2021-08-04T07:44:06.807Z</time>
      </trkpt>
      <trkpt lat="46.98972" lon="8.85033">
        <ele>1388</ele>
        <time>2021-08-04T07:44:07.806Z</time>
      </trkpt>
      <trkpt lat="46.98971" lon="8.85033">
        <ele>1387</ele>
        <time>2021-08-04T07:44:08.807Z</time>
      </trkpt>
      <trkpt lat="46.98971" lon="8.85034">
        <ele>1387</ele>
        <time>2021-08-04T07:44:09.806Z</time>
      </trkpt>
      <trkpt lat="46.9897" lon="8.85035">
        <ele>1386</ele>
        <time>2021-08-04T07:44:10.807Z</time>
      </trkpt>
      <trkpt lat="46.9897" lon="8.85036">
        <ele>1386</ele>
        <time>2021-08-04T07:44:11.806Z</time>
      </trkpt>
      <trkpt lat="46.98968" lon="8.85037">
        <ele>1386</ele>
        <time>2021-08-04T07:44:12.806Z</time>
      </trkpt>
      <trkpt lat="46.98967" lon="8.85036">
        <ele>1385</ele>
        <time>2021-08-04T07:44:13.806Z</time>
      </trkpt>
      <trkpt lat="46.98965" lon="8.85036">
        <ele>1385</ele>
        <time>2021-08-04T07:44:14.807Z</time>
      </trkpt>
      <trkpt lat="46.98963" lon="8.85036">
        <ele>1385</ele>
        <time>2021-08-04T07:44:15.807Z</time>
      </trkpt>
      <trkpt lat="46.98963" lon="8.85036">
        <ele>1384</ele>
        <time>2021-08-04T07:44:16.807Z</time>
      </trkpt>
      <trkpt lat="46.98962" lon="8.85035">
        <ele>1383</ele>
        <time>2021-08-04T07:44:17.806Z</time>
      </trkpt>
      <trkpt lat="46.98961" lon="8.85034">
        <ele>1383</ele>
        <time>2021-08-04T07:44:18.807Z</time>
      </trkpt>
      <trkpt lat="46.98961" lon="8.85034">
        <ele>1382</ele>
        <time>2021-08-04T07:44:19.807Z</time>
      </trkpt>
      <trkpt lat="46.9896" lon="8.85033">
        <ele>1382</ele>
        <time>2021-08-04T07:44:20.806Z</time>
      </trkpt>
      <trkpt lat="46.9896" lon="8.85032">
        <ele>1382</ele>
        <time>2021-08-04T07:44:21.807Z</time>
      </trkpt>
      <trkpt lat="46.9896" lon="8.85031">
        <ele>1381</ele>
        <time>2021-08-04T07:44:22.807Z</time>
      </trkpt>
      <trkpt lat="46.9896" lon="8.8503">
        <ele>1382</ele>
        <time>2021-08-04T07:44:23.807Z</time>
      </trkpt>
      <trkpt lat="46.9896" lon="8.85029">
        <ele>1382</ele>
        <time>2021-08-04T07:44:24.807Z</time>
      </trkpt>
      <trkpt lat="46.9896" lon="8.85028">
        <ele>1382</ele>
        <time>2021-08-04T07:44:25.807Z</time>
      </trkpt>
      <trkpt lat="46.9896" lon="8.85027">
        <ele>1382</ele>
        <time>2021-08-04T07:44:26.807Z</time>
      </trkpt>
      <trkpt lat="46.98961" lon="8.85026">
        <ele>1382</ele>
        <time>2021-08-04T07:44:27.806Z</time>
      </trkpt>
      <trkpt lat="46.98961" lon="8.85025">
        <ele>1382</ele>
        <time>2021-08-04T07:44:28.807Z</time>
      </trkpt>
      <trkpt lat="46.98961" lon="8.85023">
        <ele>1383</ele>
        <time>2021-08-04T07:44:29.807Z</time>
      </trkpt>
      <trkpt lat="46.9896" lon="8.85022">
        <ele>1383</ele>
        <time>2021-08-04T07:44:30.806Z</time>
      </trkpt>
      <trkpt lat="46.9896" lon="8.85022">
        <ele>1383</ele>
        <time>2021-08-04T07:44:31.807Z</time>
      </trkpt>
      <trkpt lat="46.98959" lon="8.85022">
        <ele>1383</ele>
        <time>2021-08-04T07:44:32.807Z</time>
      </trkpt>
      <trkpt lat="46.98959" lon="8.85022">
        <ele>1383</ele>
        <time>2021-08-04T07:44:33.806Z</time>
      </trkpt>
      <trkpt lat="46.9896" lon="8.85022">
        <ele>1383</ele>
        <time>2021-08-04T07:44:34.806Z</time>
      </trkpt>
      <trkpt lat="46.98961" lon="8.85021">
        <ele>1383</ele>
        <time>2021-08-04T07:44:35.807Z</time>
      </trkpt>
      <trkpt lat="46.98961" lon="8.8502">
        <ele>1384</ele>
        <time>2021-08-04T07:44:36.807Z</time>
      </trkpt>
      <trkpt lat="46.98961" lon="8.85019">
        <ele>1384</ele>
        <time>2021-08-04T07:44:37.806Z</time>
      </trkpt>
      <trkpt lat="46.98961" lon="8.85018">
        <ele>1384</ele>
        <time>2021-08-04T07:44:38.806Z</time>
      </trkpt>
      <trkpt lat="46.9896" lon="8.85016">
        <ele>1384</ele>
        <time>2021-08-04T07:44:39.806Z</time>
      </trkpt>
      <trkpt lat="46.9896" lon="8.85014">
        <ele>1384</ele>
        <time>2021-08-04T07:44:40.806Z</time>
      </trkpt>
      <trkpt lat="46.98959" lon="8.85012">
        <ele>1384</ele>
        <time>2021-08-04T07:44:41.806Z</time>
      </trkpt>
      <trkpt lat="46.98958" lon="8.85011">
        <ele>1384</ele>
        <time>2021-08-04T07:44:42.807Z</time>
      </trkpt>
      <trkpt lat="46.98957" lon="8.8501">
        <ele>1384</ele>
        <time>2021-08-04T07:44:43.806Z</time>
      </trkpt>
      <trkpt lat="46.98957" lon="8.85008">
        <ele>1384</ele>
        <time>2021-08-04T07:44:44.807Z</time>
      </trkpt>
      <trkpt lat="46.98956" lon="8.85007">
        <ele>1383</ele>
        <time>2021-08-04T07:44:45.806Z</time>
      </trkpt>
      <trkpt lat="46.98955" lon="8.85006">
        <ele>1382</ele>
        <time>2021-08-04T07:44:46.806Z</time>
      </trkpt>
      <trkpt lat="46.98954" lon="8.85004">
        <ele>1381</ele>
        <time>2021-08-04T07:44:47.806Z</time>
      </trkpt>
      <trkpt lat="46.98953" lon="8.85002">
        <ele>1381</ele>
        <time>2021-08-04T07:44:48.806Z</time>
      </trkpt>
      <trkpt lat="46.98952" lon="8.85001">
        <ele>1380</ele>
        <time>2021-08-04T07:44:49.807Z</time>
      </trkpt>
      <trkpt lat="46.98951" lon="8.84999">
        <ele>1379</ele>
        <time>2021-08-04T07:44:50.806Z</time>
      </trkpt>
      <trkpt lat="46.9895" lon="8.84997">
        <ele>1378</ele>
        <time>2021-08-04T07:44:51.807Z</time>
      </trkpt>
      <trkpt lat="46.9895" lon="8.84996">
        <ele>1377</ele>
        <time>2021-08-04T07:44:52.807Z</time>
      </trkpt>
      <trkpt lat="46.9895" lon="8.84994">
        <ele>1377</ele>
        <time>2021-08-04T07:44:53.807Z</time>
      </trkpt>
      <trkpt lat="46.98949" lon="8.84992">
        <ele>1377</ele>
        <time>2021-08-04T07:44:54.806Z</time>
      </trkpt>
      <trkpt lat="46.98948" lon="8.8499">
        <ele>1377</ele>
        <time>2021-08-04T07:44:55.806Z</time>
      </trkpt>
      <trkpt lat="46.98948" lon="8.84989">
        <ele>1377</ele>
        <time>2021-08-04T07:44:56.806Z</time>
      </trkpt>
      <trkpt lat="46.98948" lon="8.84988">
        <ele>1376</ele>
        <time>2021-08-04T07:44:57.806Z</time>
      </trkpt>
      <trkpt lat="46.98948" lon="8.84986">
        <ele>1376</ele>
        <time>2021-08-04T07:44:58.807Z</time>
      </trkpt>
      <trkpt lat="46.98948" lon="8.84985">
        <ele>1377</ele>
        <time>2021-08-04T07:44:59.806Z</time>
      </trkpt>
      <trkpt lat="46.98949" lon="8.84983">
        <ele>1376</ele>
        <time>2021-08-04T07:45:00.806Z</time>
      </trkpt>
      <trkpt lat="46.9895" lon="8.84982">
        <ele>1376</ele>
        <time>2021-08-04T07:45:01.806Z</time>
      </trkpt>
      <trkpt lat="46.98951" lon="8.84981">
        <ele>1377</ele>
        <time>2021-08-04T07:45:02.807Z</time>
      </trkpt>
      <trkpt lat="46.98953" lon="8.8498">
        <ele>1377</ele>
        <time>2021-08-04T07:45:03.807Z</time>
      </trkpt>
      <trkpt lat="46.98954" lon="8.8498">
        <ele>1377</ele>
        <time>2021-08-04T07:45:04.807Z</time>
      </trkpt>
      <trkpt lat="46.98955" lon="8.84979">
        <ele>1377</ele>
        <time>2021-08-04T07:45:05.807Z</time>
      </trkpt>
      <trkpt lat="46.98955" lon="8.84979">
        <ele>1377</ele>
        <time>2021-08-04T07:45:06.806Z</time>
      </trkpt>
      <trkpt lat="46.98956" lon="8.84978">
        <ele>1377</ele>
        <time>2021-08-04T07:45:07.807Z</time>
      </trkpt>
      <trkpt lat="46.98957" lon="8.84978">
        <ele>1376</ele>
        <time>2021-08-04T07:45:08.807Z</time>
      </trkpt>
      <trkpt lat="46.98957" lon="8.84977">
        <ele>1376</ele>
        <time>2021-08-04T07:45:09.806Z</time>
      </trkpt>
      <trkpt lat="46.98958" lon="8.84976">
        <ele>1375</ele>
        <time>2021-08-04T07:45:10.807Z</time>
      </trkpt>
      <trkpt lat="46.98959" lon="8.84975">
        <ele>1375</ele>
        <time>2021-08-04T07:45:11.807Z</time>
      </trkpt>
      <trkpt lat="46.9896" lon="8.84973">
        <ele>1374</ele>
        <time>2021-08-04T07:45:12.807Z</time>
      </trkpt>
      <trkpt lat="46.9896" lon="8.84972">
        <ele>1374</ele>
        <time>2021-08-04T07:45:13.807Z</time>
      </trkpt>
      <trkpt lat="46.98961" lon="8.8497">
        <ele>1373</ele>
        <time>2021-08-04T07:45:14.806Z</time>
      </trkpt>
      <trkpt lat="46.98961" lon="8.84969">
        <ele>1373</ele>
        <time>2021-08-04T07:45:15.806Z</time>
      </trkpt>
      <trkpt lat="46.98963" lon="8.84968">
        <ele>1373</ele>
        <time>2021-08-04T07:45:16.807Z</time>
      </trkpt>
      <trkpt lat="46.98963" lon="8.84967">
        <ele>1373</ele>
        <time>2021-08-04T07:45:17.807Z</time>
      </trkpt>
      <trkpt lat="46.98964" lon="8.84966">
        <ele>1373</ele>
        <time>2021-08-04T07:45:18.807Z</time>
      </trkpt>
      <trkpt lat="46.98965" lon="8.84965">
        <ele>1373</ele>
        <time>2021-08-04T07:45:19.807Z</time>
      </trkpt>
      <trkpt lat="46.98966" lon="8.84964">
        <ele>1373</ele>
        <time>2021-08-04T07:45:20.807Z</time>
      </trkpt>
      <trkpt lat="46.98967" lon="8.84963">
        <ele>1373</ele>
        <time>2021-08-04T07:45:21.806Z</time>
      </trkpt>
      <trkpt lat="46.98967" lon="8.84962">
        <ele>1373</ele>
        <time>2021-08-04T07:45:22.806Z</time>
      </trkpt>
      <trkpt lat="46.98967" lon="8.84962">
        <ele>1372</ele>
        <time>2021-08-04T07:45:23.806Z</time>
      </trkpt>
      <trkpt lat="46.98968" lon="8.84961">
        <ele>1371</ele>
        <time>2021-08-04T07:45:24.806Z</time>
      </trkpt>
      <trkpt lat="46.98969" lon="8.8496">
        <ele>1371</ele>
        <time>2021-08-04T07:45:25.806Z</time>
      </trkpt>
      <trkpt lat="46.9897" lon="8.84958">
        <ele>1370</ele>
        <time>2021-08-04T07:45:26.806Z</time>
      </trkpt>
      <trkpt lat="46.9897" lon="8.84957">
        <ele>1370</ele>
        <time>2021-08-04T07:45:27.807Z</time>
      </trkpt>
      <trkpt lat="46.9897" lon="8.84955">
        <ele>1370</ele>
        <time>2021-08-04T07:45:28.806Z</time>
      </trkpt>
      <trkpt lat="46.98971" lon="8.84953">
        <ele>1370</ele>
        <time>2021-08-04T07:45:29.807Z</time>
      </trkpt>
      <trkpt lat="46.98972" lon="8.84952">
        <ele>1369</ele>
        <time>2021-08-04T07:45:30.807Z</time>
      </trkpt>
      <trkpt lat="46.98972" lon="8.8495">
        <ele>1369</ele>
        <time>2021-08-04T07:45:31.807Z</time>
      </trkpt>
      <trkpt lat="46.98972" lon="8.84948">
        <ele>1369</ele>
        <time>2021-08-04T07:45:32.807Z</time>
      </trkpt>
      <trkpt lat="46.98972" lon="8.84946">
        <ele>1369</ele>
        <time>2021-08-04T07:45:33.806Z</time>
      </trkpt>
      <trkpt lat="46.98971" lon="8.84944">
        <ele>1369</ele>
        <time>2021-08-04T07:45:34.806Z</time>
      </trkpt>
      <trkpt lat="46.9897" lon="8.84942">
        <ele>1370</ele>
        <time>2021-08-04T07:45:35.806Z</time>
      </trkpt>
      <trkpt lat="46.98969" lon="8.84941">
        <ele>1370</ele>
        <time>2021-08-04T07:45:36.807Z</time>
      </trkpt>
      <trkpt lat="46.98969" lon="8.84939">
        <ele>1371</ele>
        <time>2021-08-04T07:45:37.806Z</time>
      </trkpt>
      <trkpt lat="46.98968" lon="8.84938">
        <ele>1371</ele>
        <time>2021-08-04T07:45:38.807Z</time>
      </trkpt>
      <trkpt lat="46.98967" lon="8.84937">
        <ele>1372</ele>
        <time>2021-08-04T07:45:39.807Z</time>
      </trkpt>
      <trkpt lat="46.98967" lon="8.84937">
        <ele>1372</ele>
        <time>2021-08-04T07:45:40.807Z</time>
      </trkpt>
      <trkpt lat="46.98966" lon="8.84936">
        <ele>1372</ele>
        <time>2021-08-04T07:45:41.806Z</time>
      </trkpt>
      <trkpt lat="46.98965" lon="8.84935">
        <ele>1372</ele>
        <time>2021-08-04T07:45:42.806Z</time>
      </trkpt>
      <trkpt lat="46.98965" lon="8.84935">
        <ele>1372</ele>
        <time>2021-08-04T07:45:43.807Z</time>
      </trkpt>
      <trkpt lat="46.98964" lon="8.84934">
        <ele>1373</ele>
        <time>2021-08-04T07:45:44.807Z</time>
      </trkpt>
      <trkpt lat="46.98964" lon="8.84934">
        <ele>1373</ele>
        <time>2021-08-04T07:45:45.807Z</time>
      </trkpt>
      <trkpt lat="46.98963" lon="8.84935">
        <ele>1373</ele>
        <time>2021-08-04T07:45:46.806Z</time>
      </trkpt>
      <trkpt lat="46.98961" lon="8.84934">
        <ele>1373</ele>
        <time>2021-08-04T07:45:47.807Z</time>
      </trkpt>
      <trkpt lat="46.9896" lon="8.84933">
        <ele>1373</ele>
        <time>2021-08-04T07:45:48.807Z</time>
      </trkpt>
      <trkpt lat="46.98959" lon="8.84932">
        <ele>1373</ele>
        <time>2021-08-04T07:45:49.807Z</time>
      </trkpt>
      <trkpt lat="46.98957" lon="8.8493">
        <ele>1372</ele>
        <time>2021-08-04T07:45:50.807Z</time>
      </trkpt>
      <trkpt lat="46.98955" lon="8.84929">
        <ele>1372</ele>
        <time>2021-08-04T07:45:51.807Z</time>
      </trkpt>
      <trkpt lat="46.98954" lon="8.84929">
        <ele>1371</ele>
        <time>2021-08-04T07:45:52.806Z</time>
      </trkpt>
      <trkpt lat="46.98954" lon="8.84929">
        <ele>1370</ele>
        <time>2021-08-04T07:45:53.807Z</time>
      </trkpt>
      <trkpt lat="46.98953" lon="8.84928">
        <ele>1369</ele>
        <time>2021-08-04T07:45:54.807Z</time>
      </trkpt>
      <trkpt lat="46.98952" lon="8.84927">
        <ele>1368</ele>
        <time>2021-08-04T07:45:55.807Z</time>
      </trkpt>
      <trkpt lat="46.98951" lon="8.84924">
        <ele>1368</ele>
        <time>2021-08-04T07:45:56.807Z</time>
      </trkpt>
      <trkpt lat="46.98951" lon="8.84923">
        <ele>1368</ele>
        <time>2021-08-04T07:45:57.807Z</time>
      </trkpt>
      <trkpt lat="46.9895" lon="8.84921">
        <ele>1367</ele>
        <time>2021-08-04T07:45:58.807Z</time>
      </trkpt>
      <trkpt lat="46.98951" lon="8.8492">
        <ele>1367</ele>
        <time>2021-08-04T07:45:59.807Z</time>
      </trkpt>
      <trkpt lat="46.98951" lon="8.84919">
        <ele>1367</ele>
        <time>2021-08-04T07:46:00.807Z</time>
      </trkpt>
      <trkpt lat="46.98951" lon="8.84918">
        <ele>1367</ele>
        <time>2021-08-04T07:46:01.806Z</time>
      </trkpt>
      <trkpt lat="46.98951" lon="8.84917">
        <ele>1367</ele>
        <time>2021-08-04T07:46:02.807Z</time>
      </trkpt>
      <trkpt lat="46.98952" lon="8.84916">
        <ele>1367</ele>
        <time>2021-08-04T07:46:03.807Z</time>
      </trkpt>
      <trkpt lat="46.98952" lon="8.84915">
        <ele>1367</ele>
        <time>2021-08-04T07:46:04.807Z</time>
      </trkpt>
      <trkpt lat="46.98953" lon="8.84914">
        <ele>1367</ele>
        <time>2021-08-04T07:46:05.806Z</time>
      </trkpt>
      <trkpt lat="46.98953" lon="8.84914">
        <ele>1368</ele>
        <time>2021-08-04T07:46:06.807Z</time>
      </trkpt>
      <trkpt lat="46.98954" lon="8.84913">
        <ele>1368</ele>
        <time>2021-08-04T07:46:07.807Z</time>
      </trkpt>
      <trkpt lat="46.98954" lon="8.84912">
        <ele>1368</ele>
        <time>2021-08-04T07:46:08.806Z</time>
      </trkpt>
      <trkpt lat="46.98954" lon="8.84911">
        <ele>1368</ele>
        <time>2021-08-04T07:46:09.807Z</time>
      </trkpt>
      <trkpt lat="46.98953" lon="8.8491">
        <ele>1368</ele>
        <time>2021-08-04T07:46:10.807Z</time>
      </trkpt>
      <trkpt lat="46.98952" lon="8.84909">
        <ele>1368</ele>
        <time>2021-08-04T07:46:11.806Z</time>
      </trkpt>
      <trkpt lat="46.98951" lon="8.84908">
        <ele>1367</ele>
        <time>2021-08-04T07:46:12.806Z</time>
      </trkpt>
      <trkpt lat="46.98951" lon="8.84908">
        <ele>1367</ele>
        <time>2021-08-04T07:46:13.806Z</time>
      </trkpt>
      <trkpt lat="46.98951" lon="8.84907">
        <ele>1365</ele>
        <time>2021-08-04T07:46:14.806Z</time>
      </trkpt>
      <trkpt lat="46.98951" lon="8.84906">
        <ele>1363</ele>
        <time>2021-08-04T07:46:15.807Z</time>
      </trkpt>
      <trkpt lat="46.98951" lon="8.84904">
        <ele>1362</ele>
        <time>2021-08-04T07:46:16.807Z</time>
      </trkpt>
      <trkpt lat="46.98951" lon="8.84903">
        <ele>1360</ele>
        <time>2021-08-04T07:46:17.807Z</time>
      </trkpt>
      <trkpt lat="46.98951" lon="8.84901">
        <ele>1360</ele>
        <time>2021-08-04T07:46:18.807Z</time>
      </trkpt>
      <trkpt lat="46.98951" lon="8.849">
        <ele>1359</ele>
        <time>2021-08-04T07:46:19.807Z</time>
      </trkpt>
      <trkpt lat="46.98951" lon="8.84898">
        <ele>1358</ele>
        <time>2021-08-04T07:46:20.807Z</time>
      </trkpt>
      <trkpt lat="46.98951" lon="8.84896">
        <ele>1357</ele>
        <time>2021-08-04T07:46:21.807Z</time>
      </trkpt>
      <trkpt lat="46.98951" lon="8.84895">
        <ele>1356</ele>
        <time>2021-08-04T07:46:22.807Z</time>
      </trkpt>
      <trkpt lat="46.98951" lon="8.84894">
        <ele>1356</ele>
        <time>2021-08-04T07:46:23.806Z</time>
      </trkpt>
      <trkpt lat="46.98951" lon="8.84892">
        <ele>1355</ele>
        <time>2021-08-04T07:46:24.806Z</time>
      </trkpt>
      <trkpt lat="46.98952" lon="8.8489">
        <ele>1355</ele>
        <time>2021-08-04T07:46:25.807Z</time>
      </trkpt>
      <trkpt lat="46.98952" lon="8.84889">
        <ele>1354</ele>
        <time>2021-08-04T07:46:26.806Z</time>
      </trkpt>
      <trkpt lat="46.98953" lon="8.84888">
        <ele>1354</ele>
        <time>2021-08-04T07:46:27.806Z</time>
      </trkpt>
      <trkpt lat="46.98953" lon="8.84886">
        <ele>1354</ele>
        <time>2021-08-04T07:46:28.807Z</time>
      </trkpt>
      <trkpt lat="46.98954" lon="8.84884">
        <ele>1354</ele>
        <time>2021-08-04T07:46:29.806Z</time>
      </trkpt>
      <trkpt lat="46.98954" lon="8.84881">
        <ele>1354</ele>
        <time>2021-08-04T07:46:30.806Z</time>
      </trkpt>
      <trkpt lat="46.98955" lon="8.84879">
        <ele>1354</ele>
        <time>2021-08-04T07:46:31.807Z</time>
      </trkpt>
      <trkpt lat="46.98956" lon="8.84877">
        <ele>1354</ele>
        <time>2021-08-04T07:46:32.807Z</time>
      </trkpt>
      <trkpt lat="46.98958" lon="8.84875">
        <ele>1354</ele>
        <time>2021-08-04T07:46:33.807Z</time>
      </trkpt>
      <trkpt lat="46.98959" lon="8.84873">
        <ele>1354</ele>
        <time>2021-08-04T07:46:34.806Z</time>
      </trkpt>
      <trkpt lat="46.98959" lon="8.84871">
        <ele>1354</ele>
        <time>2021-08-04T07:46:35.806Z</time>
      </trkpt>
      <trkpt lat="46.98959" lon="8.8487">
        <ele>1354</ele>
        <time>2021-08-04T07:46:36.807Z</time>
      </trkpt>
      <trkpt lat="46.98957" lon="8.84868">
        <ele>1354</ele>
        <time>2021-08-04T07:46:37.807Z</time>
      </trkpt>
      <trkpt lat="46.98956" lon="8.84867">
        <ele>1354</ele>
        <time>2021-08-04T07:46:38.806Z</time>
      </trkpt>
      <trkpt lat="46.98954" lon="8.84865">
        <ele>1354</ele>
        <time>2021-08-04T07:46:39.807Z</time>
      </trkpt>
      <trkpt lat="46.98954" lon="8.84864">
        <ele>1353</ele>
        <time>2021-08-04T07:46:40.807Z</time>
      </trkpt>
      <trkpt lat="46.98953" lon="8.84863">
        <ele>1353</ele>
        <time>2021-08-04T07:46:41.807Z</time>
      </trkpt>
      <trkpt lat="46.98952" lon="8.84862">
        <ele>1353</ele>
        <time>2021-08-04T07:46:42.807Z</time>
      </trkpt>
      <trkpt lat="46.98952" lon="8.84861">
        <ele>1353</ele>
        <time>2021-08-04T07:46:43.807Z</time>
      </trkpt>
      <trkpt lat="46.98951" lon="8.84859">
        <ele>1352</ele>
        <time>2021-08-04T07:46:44.807Z</time>
      </trkpt>
      <trkpt lat="46.98951" lon="8.84858">
        <ele>1352</ele>
        <time>2021-08-04T07:46:45.807Z</time>
      </trkpt>
      <trkpt lat="46.9895" lon="8.84857">
        <ele>1352</ele>
        <time>2021-08-04T07:46:46.806Z</time>
      </trkpt>
      <trkpt lat="46.98949" lon="8.84856">
        <ele>1352</ele>
        <time>2021-08-04T07:46:47.807Z</time>
      </trkpt>
      <trkpt lat="46.98949" lon="8.84854">
        <ele>1351</ele>
        <time>2021-08-04T07:46:48.807Z</time>
      </trkpt>
      <trkpt lat="46.98948" lon="8.84853">
        <ele>1351</ele>
        <time>2021-08-04T07:46:49.807Z</time>
      </trkpt>
      <trkpt lat="46.98947" lon="8.84852">
        <ele>1351</ele>
        <time>2021-08-04T07:46:50.806Z</time>
      </trkpt>
      <trkpt lat="46.98946" lon="8.8485">
        <ele>1350</ele>
        <time>2021-08-04T07:46:51.806Z</time>
      </trkpt>
      <trkpt lat="46.98945" lon="8.84849">
        <ele>1350</ele>
        <time>2021-08-04T07:46:52.807Z</time>
      </trkpt>
      <trkpt lat="46.98945" lon="8.84848">
        <ele>1349</ele>
        <time>2021-08-04T07:46:53.806Z</time>
      </trkpt>
      <trkpt lat="46.98945" lon="8.84847">
        <ele>1349</ele>
        <time>2021-08-04T07:46:54.806Z</time>
      </trkpt>
      <trkpt lat="46.98945" lon="8.84846">
        <ele>1348</ele>
        <time>2021-08-04T07:46:55.806Z</time>
      </trkpt>
      <trkpt lat="46.98945" lon="8.84844">
        <ele>1348</ele>
        <time>2021-08-04T07:46:56.806Z</time>
      </trkpt>
      <trkpt lat="46.98944" lon="8.84843">
        <ele>1347</ele>
        <time>2021-08-04T07:46:57.806Z</time>
      </trkpt>
      <trkpt lat="46.98944" lon="8.84842">
        <ele>1347</ele>
        <time>2021-08-04T07:46:58.806Z</time>
      </trkpt>
      <trkpt lat="46.98944" lon="8.8484">
        <ele>1347</ele>
        <time>2021-08-04T07:46:59.806Z</time>
      </trkpt>
      <trkpt lat="46.98943" lon="8.84838">
        <ele>1346</ele>
        <time>2021-08-04T07:47:00.806Z</time>
      </trkpt>
      <trkpt lat="46.98943" lon="8.84836">
        <ele>1346</ele>
        <time>2021-08-04T07:47:01.806Z</time>
      </trkpt>
      <trkpt lat="46.98942" lon="8.84835">
        <ele>1346</ele>
        <time>2021-08-04T07:47:02.807Z</time>
      </trkpt>
      <trkpt lat="46.98942" lon="8.84834">
        <ele>1346</ele>
        <time>2021-08-04T07:47:03.807Z</time>
      </trkpt>
      <trkpt lat="46.98942" lon="8.84832">
        <ele>1346</ele>
        <time>2021-08-04T07:47:04.807Z</time>
      </trkpt>
      <trkpt lat="46.98943" lon="8.84831">
        <ele>1346</ele>
        <time>2021-08-04T07:47:05.807Z</time>
      </trkpt>
      <trkpt lat="46.98943" lon="8.84829">
        <ele>1346</ele>
        <time>2021-08-04T07:47:06.806Z</time>
      </trkpt>
      <trkpt lat="46.98942" lon="8.84827">
        <ele>1346</ele>
        <time>2021-08-04T07:47:07.806Z</time>
      </trkpt>
      <trkpt lat="46.98942" lon="8.84825">
        <ele>1346</ele>
        <time>2021-08-04T07:47:08.807Z</time>
      </trkpt>
      <trkpt lat="46.98942" lon="8.84823">
        <ele>1347</ele>
        <time>2021-08-04T07:47:09.807Z</time>
      </trkpt>
      <trkpt lat="46.98942" lon="8.84822">
        <ele>1347</ele>
        <time>2021-08-04T07:47:10.807Z</time>
      </trkpt>
      <trkpt lat="46.98942" lon="8.8482">
        <ele>1347</ele>
        <time>2021-08-04T07:47:11.807Z</time>
      </trkpt>
      <trkpt lat="46.98942" lon="8.84818">
        <ele>1347</ele>
        <time>2021-08-04T07:47:12.807Z</time>
      </trkpt>
      <trkpt lat="46.98941" lon="8.84817">
        <ele>1348</ele>
        <time>2021-08-04T07:47:13.807Z</time>
      </trkpt>
      <trkpt lat="46.98941" lon="8.84815">
        <ele>1348</ele>
        <time>2021-08-04T07:47:14.806Z</time>
      </trkpt>
      <trkpt lat="46.98941" lon="8.84813">
        <ele>1348</ele>
        <time>2021-08-04T07:47:15.806Z</time>
      </trkpt>
      <trkpt lat="46.9894" lon="8.84811">
        <ele>1348</ele>
        <time>2021-08-04T07:47:16.806Z</time>
      </trkpt>
      <trkpt lat="46.9894" lon="8.84809">
        <ele>1348</ele>
        <time>2021-08-04T07:47:17.807Z</time>
      </trkpt>
      <trkpt lat="46.98939" lon="8.84808">
        <ele>1348</ele>
        <time>2021-08-04T07:47:18.807Z</time>
      </trkpt>
      <trkpt lat="46.98939" lon="8.84806">
        <ele>1348</ele>
        <time>2021-08-04T07:47:19.807Z</time>
      </trkpt>
      <trkpt lat="46.98939" lon="8.84804">
        <ele>1347</ele>
        <time>2021-08-04T07:47:20.807Z</time>
      </trkpt>
      <trkpt lat="46.98939" lon="8.84802">
        <ele>1347</ele>
        <time>2021-08-04T07:47:21.807Z</time>
      </trkpt>
      <trkpt lat="46.98939" lon="8.848">
        <ele>1347</ele>
        <time>2021-08-04T07:47:22.806Z</time>
      </trkpt>
      <trkpt lat="46.98938" lon="8.84798">
        <ele>1346</ele>
        <time>2021-08-04T07:47:23.806Z</time>
      </trkpt>
      <trkpt lat="46.98938" lon="8.84797">
        <ele>1346</ele>
        <time>2021-08-04T07:47:24.806Z</time>
      </trkpt>
      <trkpt lat="46.98938" lon="8.84796">
        <ele>1345</ele>
        <time>2021-08-04T07:47:25.807Z</time>
      </trkpt>
      <trkpt lat="46.98937" lon="8.84795">
        <ele>1345</ele>
        <time>2021-08-04T07:47:26.807Z</time>
      </trkpt>
      <trkpt lat="46.98936" lon="8.84793">
        <ele>1345</ele>
        <time>2021-08-04T07:47:27.807Z</time>
      </trkpt>
      <trkpt lat="46.98936" lon="8.84792">
        <ele>1344</ele>
        <time>2021-08-04T07:47:28.807Z</time>
      </trkpt>
      <trkpt lat="46.98936" lon="8.8479">
        <ele>1344</ele>
        <time>2021-08-04T07:47:29.807Z</time>
      </trkpt>
      <trkpt lat="46.98935" lon="8.84789">
        <ele>1343</ele>
        <time>2021-08-04T07:47:30.807Z</time>
      </trkpt>
      <trkpt lat="46.98935" lon="8.84788">
        <ele>1343</ele>
        <time>2021-08-04T07:47:31.807Z</time>
      </trkpt>
      <trkpt lat="46.98934" lon="8.84787">
        <ele>1342</ele>
        <time>2021-08-04T07:47:32.807Z</time>
      </trkpt>
      <trkpt lat="46.98934" lon="8.84786">
        <ele>1341</ele>
        <time>2021-08-04T07:47:33.807Z</time>
      </trkpt>
      <trkpt lat="46.98934" lon="8.84785">
        <ele>1341</ele>
        <time>2021-08-04T07:47:34.806Z</time>
      </trkpt>
      <trkpt lat="46.98935" lon="8.84783">
        <ele>1340</ele>
        <time>2021-08-04T07:47:35.806Z</time>
      </trkpt>
      <trkpt lat="46.98934" lon="8.84782">
        <ele>1339</ele>
        <time>2021-08-04T07:47:36.806Z</time>
      </trkpt>
      <trkpt lat="46.98934" lon="8.8478">
        <ele>1339</ele>
        <time>2021-08-04T07:47:37.806Z</time>
      </trkpt>
      <trkpt lat="46.98935" lon="8.84778">
        <ele>1339</ele>
        <time>2021-08-04T07:47:38.806Z</time>
      </trkpt>
      <trkpt lat="46.98935" lon="8.84775">
        <ele>1338</ele>
        <time>2021-08-04T07:47:39.807Z</time>
      </trkpt>
      <trkpt lat="46.98935" lon="8.84773">
        <ele>1338</ele>
        <time>2021-08-04T07:47:40.807Z</time>
      </trkpt>
      <trkpt lat="46.98935" lon="8.84771">
        <ele>1338</ele>
        <time>2021-08-04T07:47:41.807Z</time>
      </trkpt>
      <trkpt lat="46.98935" lon="8.8477">
        <ele>1338</ele>
        <time>2021-08-04T07:47:42.807Z</time>
      </trkpt>
      <trkpt lat="46.98934" lon="8.84768">
        <ele>1338</ele>
        <time>2021-08-04T07:47:43.807Z</time>
      </trkpt>
      <trkpt lat="46.98934" lon="8.84767">
        <ele>1338</ele>
        <time>2021-08-04T07:47:44.806Z</time>
      </trkpt>
      <trkpt lat="46.98934" lon="8.84765">
        <ele>1338</ele>
        <time>2021-08-04T07:47:45.806Z</time>
      </trkpt>
      <trkpt lat="46.98934" lon="8.84764">
        <ele>1338</ele>
        <time>2021-08-04T07:47:46.807Z</time>
      </trkpt>
      <trkpt lat="46.98934" lon="8.84763">
        <ele>1338</ele>
        <time>2021-08-04T07:47:47.807Z</time>
      </trkpt>
      <trkpt lat="46.98935" lon="8.84762">
        <ele>1338</ele>
        <time>2021-08-04T07:47:48.807Z</time>
      </trkpt>
      <trkpt lat="46.98936" lon="8.84761">
        <ele>1338</ele>
        <time>2021-08-04T07:47:49.807Z</time>
      </trkpt>
      <trkpt lat="46.98936" lon="8.84759">
        <ele>1338</ele>
        <time>2021-08-04T07:47:50.807Z</time>
      </trkpt>
      <trkpt lat="46.98936" lon="8.84758">
        <ele>1339</ele>
        <time>2021-08-04T07:47:51.807Z</time>
      </trkpt>
      <trkpt lat="46.98935" lon="8.84757">
        <ele>1339</ele>
        <time>2021-08-04T07:47:52.806Z</time>
      </trkpt>
      <trkpt lat="46.98934" lon="8.84756">
        <ele>1339</ele>
        <time>2021-08-04T07:47:53.806Z</time>
      </trkpt>
      <trkpt lat="46.98934" lon="8.84756">
        <ele>1339</ele>
        <time>2021-08-04T07:47:54.806Z</time>
      </trkpt>
      <trkpt lat="46.98934" lon="8.84755">
        <ele>1339</ele>
        <time>2021-08-04T07:47:55.806Z</time>
      </trkpt>
      <trkpt lat="46.98934" lon="8.84755">
        <ele>1340</ele>
        <time>2021-08-04T07:47:56.807Z</time>
      </trkpt>
      <trkpt lat="46.98933" lon="8.84759">
        <ele>1333</ele>
        <time>2021-08-04T07:47:57.807Z</time>
      </trkpt>
      <trkpt lat="46.98933" lon="8.84758">
        <ele>1333</ele>
        <time>2021-08-04T07:47:58.808Z</time>
      </trkpt>
      <trkpt lat="46.98933" lon="8.84757">
        <ele>1333</ele>
        <time>2021-08-04T07:47:59.808Z</time>
      </trkpt>
      <trkpt lat="46.98933" lon="8.84756">
        <ele>1333</ele>
        <time>2021-08-04T07:48:00.808Z</time>
      </trkpt>
      <trkpt lat="46.98933" lon="8.84755">
        <ele>1333</ele>
        <time>2021-08-04T07:48:01.807Z</time>
      </trkpt>
      <trkpt lat="46.98934" lon="8.84755">
        <ele>1332</ele>
        <time>2021-08-04T07:48:02.807Z</time>
      </trkpt>
      <trkpt lat="46.98934" lon="8.84754">
        <ele>1332</ele>
        <time>2021-08-04T07:48:03.807Z</time>
      </trkpt>
      <trkpt lat="46.98934" lon="8.84753">
        <ele>1332</ele>
        <time>2021-08-04T07:48:04.808Z</time>
      </trkpt>
      <trkpt lat="46.98934" lon="8.84752">
        <ele>1331</ele>
        <time>2021-08-04T07:48:05.808Z</time>
      </trkpt>
      <trkpt lat="46.98933" lon="8.84751">
        <ele>1330</ele>
        <time>2021-08-04T07:48:06.808Z</time>
      </trkpt>
      <trkpt lat="46.98933" lon="8.8475">
        <ele>1330</ele>
        <time>2021-08-04T07:48:07.807Z</time>
      </trkpt>
      <trkpt lat="46.98933" lon="8.84749">
        <ele>1329</ele>
        <time>2021-08-04T07:48:08.807Z</time>
      </trkpt>
      <trkpt lat="46.98932" lon="8.84748">
        <ele>1329</ele>
        <time>2021-08-04T07:48:09.808Z</time>
      </trkpt>
      <trkpt lat="46.98932" lon="8.84747">
        <ele>1329</ele>
        <time>2021-08-04T07:48:10.807Z</time>
      </trkpt>
      <trkpt lat="46.98932" lon="8.84746">
        <ele>1329</ele>
        <time>2021-08-04T07:48:11.808Z</time>
      </trkpt>
      <trkpt lat="46.98932" lon="8.84745">
        <ele>1329</ele>
        <time>2021-08-04T07:48:12.807Z</time>
      </trkpt>
      <trkpt lat="46.98932" lon="8.84744">
        <ele>1328</ele>
        <time>2021-08-04T07:48:13.807Z</time>
      </trkpt>
      <trkpt lat="46.98932" lon="8.84742">
        <ele>1328</ele>
        <time>2021-08-04T07:48:14.807Z</time>
      </trkpt>
      <trkpt lat="46.98932" lon="8.84741">
        <ele>1328</ele>
        <time>2021-08-04T07:48:15.807Z</time>
      </trkpt>
      <trkpt lat="46.98931" lon="8.84739">
        <ele>1328</ele>
        <time>2021-08-04T07:48:16.807Z</time>
      </trkpt>
      <trkpt lat="46.98926" lon="8.84736">
        <ele>1333</ele>
        <time>2021-08-04T07:48:17.808Z</time>
      </trkpt>
      <trkpt lat="46.98926" lon="8.84736">
        <ele>1334</ele>
        <time>2021-08-04T07:48:18.807Z</time>
      </trkpt>
      <trkpt lat="46.98925" lon="8.84735">
        <ele>1332</ele>
        <time>2021-08-04T07:48:19.808Z</time>
      </trkpt>
      <trkpt lat="46.98925" lon="8.84734">
        <ele>1332</ele>
        <time>2021-08-04T07:48:20.807Z</time>
      </trkpt>
      <trkpt lat="46.98925" lon="8.84733">
        <ele>1332</ele>
        <time>2021-08-04T07:48:21.807Z</time>
      </trkpt>
      <trkpt lat="46.98924" lon="8.84732">
        <ele>1331</ele>
        <time>2021-08-04T07:48:22.808Z</time>
      </trkpt>
      <trkpt lat="46.98923" lon="8.84732">
        <ele>1331</ele>
        <time>2021-08-04T07:48:23.808Z</time>
      </trkpt>
      <trkpt lat="46.98923" lon="8.84732">
        <ele>1330</ele>
        <time>2021-08-04T07:48:24.807Z</time>
      </trkpt>
      <trkpt lat="46.98923" lon="8.84732">
        <ele>1328</ele>
        <time>2021-08-04T07:48:25.807Z</time>
      </trkpt>
      <trkpt lat="46.98923" lon="8.84731">
        <ele>1328</ele>
        <time>2021-08-04T07:48:26.808Z</time>
      </trkpt>
      <trkpt lat="46.98922" lon="8.8473">
        <ele>1328</ele>
        <time>2021-08-04T07:48:27.808Z</time>
      </trkpt>
      <trkpt lat="46.98922" lon="8.84729">
        <ele>1328</ele>
        <time>2021-08-04T07:48:28.808Z</time>
      </trkpt>
      <trkpt lat="46.98922" lon="8.84728">
        <ele>1327</ele>
        <time>2021-08-04T07:48:29.807Z</time>
      </trkpt>
      <trkpt lat="46.98921" lon="8.84727">
        <ele>1327</ele>
        <time>2021-08-04T07:48:30.807Z</time>
      </trkpt>
      <trkpt lat="46.9892" lon="8.84726">
        <ele>1327</ele>
        <time>2021-08-04T07:48:31.808Z</time>
      </trkpt>
      <trkpt lat="46.98919" lon="8.84726">
        <ele>1327</ele>
        <time>2021-08-04T07:48:32.808Z</time>
      </trkpt>
      <trkpt lat="46.98919" lon="8.84726">
        <ele>1327</ele>
        <time>2021-08-04T07:48:33.808Z</time>
      </trkpt>
      <trkpt lat="46.98921" lon="8.84726">
        <ele>1329</ele>
        <time>2021-08-04T07:48:34.808Z</time>
      </trkpt>
      <trkpt lat="46.9892" lon="8.84725">
        <ele>1328</ele>
        <time>2021-08-04T07:48:35.808Z</time>
      </trkpt>
      <trkpt lat="46.9892" lon="8.84725">
        <ele>1328</ele>
        <time>2021-08-04T07:48:36.808Z</time>
      </trkpt>
      <trkpt lat="46.98919" lon="8.84724">
        <ele>1327</ele>
        <time>2021-08-04T07:48:37.807Z</time>
      </trkpt>
      <trkpt lat="46.98919" lon="8.84723">
        <ele>1327</ele>
        <time>2021-08-04T07:48:38.808Z</time>
      </trkpt>
      <trkpt lat="46.98919" lon="8.84723">
        <ele>1327</ele>
        <time>2021-08-04T07:48:39.807Z</time>
      </trkpt>
      <trkpt lat="46.98918" lon="8.84723">
        <ele>1327</ele>
        <time>2021-08-04T07:48:40.808Z</time>
      </trkpt>
      <trkpt lat="46.98918" lon="8.84722">
        <ele>1327</ele>
        <time>2021-08-04T07:48:41.808Z</time>
      </trkpt>
      <trkpt lat="46.98918" lon="8.84721">
        <ele>1327</ele>
        <time>2021-08-04T07:48:42.807Z</time>
      </trkpt>
      <trkpt lat="46.98918" lon="8.8472">
        <ele>1327</ele>
        <time>2021-08-04T07:48:43.807Z</time>
      </trkpt>
      <trkpt lat="46.98918" lon="8.8472">
        <ele>1327</ele>
        <time>2021-08-04T07:48:44.808Z</time>
      </trkpt>
      <trkpt lat="46.98918" lon="8.84719">
        <ele>1327</ele>
        <time>2021-08-04T07:48:45.808Z</time>
      </trkpt>
      <trkpt lat="46.98918" lon="8.84719">
        <ele>1326</ele>
        <time>2021-08-04T07:48:46.807Z</time>
      </trkpt>
      <trkpt lat="46.98918" lon="8.84718">
        <ele>1326</ele>
        <time>2021-08-04T07:48:47.807Z</time>
      </trkpt>
      <trkpt lat="46.98915" lon="8.84715">
        <ele>1327</ele>
        <time>2021-08-04T07:48:48.807Z</time>
      </trkpt>
      <trkpt lat="46.98915" lon="8.84714">
        <ele>1327</ele>
        <time>2021-08-04T07:48:49.808Z</time>
      </trkpt>
      <trkpt lat="46.98916" lon="8.84715">
        <ele>1327</ele>
        <time>2021-08-04T07:48:50.808Z</time>
      </trkpt>
      <trkpt lat="46.98916" lon="8.84715">
        <ele>1326</ele>
        <time>2021-08-04T07:48:51.807Z</time>
      </trkpt>
      <trkpt lat="46.98919" lon="8.84715">
        <ele>1325</ele>
        <time>2021-08-04T07:48:52.809Z</time>
      </trkpt>
      <trkpt lat="46.98919" lon="8.84716">
        <ele>1327</ele>
        <time>2021-08-04T07:48:53.809Z</time>
      </trkpt>
      <trkpt lat="46.98919" lon="8.84716">
        <ele>1328</ele>
        <time>2021-08-04T07:48:54.809Z</time>
      </trkpt>
      <trkpt lat="46.98919" lon="8.84715">
        <ele>1329</ele>
        <time>2021-08-04T07:48:55.809Z</time>
      </trkpt>
      <trkpt lat="46.98919" lon="8.84715">
        <ele>1329</ele>
        <time>2021-08-04T07:48:56.808Z</time>
      </trkpt>
      <trkpt lat="46.98918" lon="8.84715">
        <ele>1330</ele>
        <time>2021-08-04T07:48:57.808Z</time>
      </trkpt>
      <trkpt lat="46.98918" lon="8.84714">
        <ele>1330</ele>
        <time>2021-08-04T07:48:58.809Z</time>
      </trkpt>
      <trkpt lat="46.98917" lon="8.84713">
        <ele>1330</ele>
        <time>2021-08-04T07:48:59.809Z</time>
      </trkpt>
      <trkpt lat="46.98916" lon="8.84712">
        <ele>1330</ele>
        <time>2021-08-04T07:49:00.809Z</time>
      </trkpt>
      <trkpt lat="46.98916" lon="8.84712">
        <ele>1329</ele>
        <time>2021-08-04T07:49:01.809Z</time>
      </trkpt>
      <trkpt lat="46.98916" lon="8.84712">
        <ele>1329</ele>
        <time>2021-08-04T07:49:02.809Z</time>
      </trkpt>
      <trkpt lat="46.98916" lon="8.84714">
        <ele>1328</ele>
        <time>2021-08-04T07:49:03.810Z</time>
      </trkpt>
      <trkpt lat="46.98915" lon="8.84711">
        <ele>1326</ele>
        <time>2021-08-04T07:49:04.810Z</time>
      </trkpt>
      <trkpt lat="46.98915" lon="8.8471">
        <ele>1326</ele>
        <time>2021-08-04T07:49:05.809Z</time>
      </trkpt>
      <trkpt lat="46.98915" lon="8.84709">
        <ele>1326</ele>
        <time>2021-08-04T07:49:06.810Z</time>
      </trkpt>
      <trkpt lat="46.98915" lon="8.84708">
        <ele>1325</ele>
        <time>2021-08-04T07:49:07.810Z</time>
      </trkpt>
      <trkpt lat="46.98915" lon="8.84707">
        <ele>1325</ele>
        <time>2021-08-04T07:49:08.810Z</time>
      </trkpt>
      <trkpt lat="46.98915" lon="8.84706">
        <ele>1326</ele>
        <time>2021-08-04T07:49:09.810Z</time>
      </trkpt>
      <trkpt lat="46.98914" lon="8.84705">
        <ele>1326</ele>
        <time>2021-08-04T07:49:10.810Z</time>
      </trkpt>
      <trkpt lat="46.98914" lon="8.84705">
        <ele>1326</ele>
        <time>2021-08-04T07:49:11.810Z</time>
      </trkpt>
      <trkpt lat="46.98913" lon="8.84703">
        <ele>1326</ele>
        <time>2021-08-04T07:49:12.810Z</time>
      </trkpt>
      <trkpt lat="46.98912" lon="8.84703">
        <ele>1325</ele>
        <time>2021-08-04T07:49:13.810Z</time>
      </trkpt>
      <trkpt lat="46.98911" lon="8.84702">
        <ele>1325</ele>
        <time>2021-08-04T07:49:14.809Z</time>
      </trkpt>
      <trkpt lat="46.98911" lon="8.84702">
        <ele>1326</ele>
        <time>2021-08-04T07:49:15.810Z</time>
      </trkpt>
      <trkpt lat="46.98911" lon="8.84701">
        <ele>1325</ele>
        <time>2021-08-04T07:49:16.809Z</time>
      </trkpt>
      <trkpt lat="46.98911" lon="8.847">
        <ele>1325</ele>
        <time>2021-08-04T07:49:17.810Z</time>
      </trkpt>
      <trkpt lat="46.98911" lon="8.847">
        <ele>1325</ele>
        <time>2021-08-04T07:49:18.810Z</time>
      </trkpt>
      <trkpt lat="46.98911" lon="8.84699">
        <ele>1324</ele>
        <time>2021-08-04T07:49:19.810Z</time>
      </trkpt>
      <trkpt lat="46.98911" lon="8.84698">
        <ele>1323</ele>
        <time>2021-08-04T07:49:20.810Z</time>
      </trkpt>
      <trkpt lat="46.98911" lon="8.84697">
        <ele>1323</ele>
        <time>2021-08-04T07:49:21.810Z</time>
      </trkpt>
      <trkpt lat="46.98911" lon="8.84696">
        <ele>1323</ele>
        <time>2021-08-04T07:49:22.809Z</time>
      </trkpt>
      <trkpt lat="46.9891" lon="8.84694">
        <ele>1323</ele>
        <time>2021-08-04T07:49:23.810Z</time>
      </trkpt>
      <trkpt lat="46.9891" lon="8.84693">
        <ele>1323</ele>
        <time>2021-08-04T07:49:24.809Z</time>
      </trkpt>
      <trkpt lat="46.98909" lon="8.84692">
        <ele>1324</ele>
        <time>2021-08-04T07:49:25.809Z</time>
      </trkpt>
      <trkpt lat="46.98909" lon="8.84691">
        <ele>1324</ele>
        <time>2021-08-04T07:49:26.809Z</time>
      </trkpt>
      <trkpt lat="46.98908" lon="8.8469">
        <ele>1324</ele>
        <time>2021-08-04T07:49:27.809Z</time>
      </trkpt>
      <trkpt lat="46.98908" lon="8.8469">
        <ele>1323</ele>
        <time>2021-08-04T07:49:28.810Z</time>
      </trkpt>
      <trkpt lat="46.98908" lon="8.84689">
        <ele>1323</ele>
        <time>2021-08-04T07:49:29.809Z</time>
      </trkpt>
      <trkpt lat="46.98908" lon="8.84688">
        <ele>1322</ele>
        <time>2021-08-04T07:49:30.809Z</time>
      </trkpt>
      <trkpt lat="46.98909" lon="8.84688">
        <ele>1322</ele>
        <time>2021-08-04T07:49:31.810Z</time>
      </trkpt>
      <trkpt lat="46.98909" lon="8.84686">
        <ele>1322</ele>
        <time>2021-08-04T07:49:32.810Z</time>
      </trkpt>
      <trkpt lat="46.98909" lon="8.84685">
        <ele>1321</ele>
        <time>2021-08-04T07:49:33.810Z</time>
      </trkpt>
      <trkpt lat="46.98908" lon="8.84684">
        <ele>1321</ele>
        <time>2021-08-04T07:49:34.810Z</time>
      </trkpt>
      <trkpt lat="46.98908" lon="8.84682">
        <ele>1321</ele>
        <time>2021-08-04T07:49:35.810Z</time>
      </trkpt>
      <trkpt lat="46.98908" lon="8.8468">
        <ele>1321</ele>
        <time>2021-08-04T07:49:36.810Z</time>
      </trkpt>
      <trkpt lat="46.98908" lon="8.84679">
        <ele>1322</ele>
        <time>2021-08-04T07:49:37.810Z</time>
      </trkpt>
      <trkpt lat="46.98908" lon="8.84678">
        <ele>1322</ele>
        <time>2021-08-04T07:49:38.809Z</time>
      </trkpt>
      <trkpt lat="46.98908" lon="8.84677">
        <ele>1321</ele>
        <time>2021-08-04T07:49:39.809Z</time>
      </trkpt>
      <trkpt lat="46.98907" lon="8.84675">
        <ele>1321</ele>
        <time>2021-08-04T07:49:40.810Z</time>
      </trkpt>
      <trkpt lat="46.98906" lon="8.84673">
        <ele>1321</ele>
        <time>2021-08-04T07:49:41.810Z</time>
      </trkpt>
      <trkpt lat="46.98906" lon="8.84672">
        <ele>1321</ele>
        <time>2021-08-04T07:49:42.809Z</time>
      </trkpt>
      <trkpt lat="46.98906" lon="8.8467">
        <ele>1321</ele>
        <time>2021-08-04T07:49:43.810Z</time>
      </trkpt>
      <trkpt lat="46.98906" lon="8.84668">
        <ele>1322</ele>
        <time>2021-08-04T07:49:44.810Z</time>
      </trkpt>
      <trkpt lat="46.98906" lon="8.84666">
        <ele>1322</ele>
        <time>2021-08-04T07:49:45.809Z</time>
      </trkpt>
      <trkpt lat="46.98906" lon="8.84664">
        <ele>1322</ele>
        <time>2021-08-04T07:49:46.809Z</time>
      </trkpt>
      <trkpt lat="46.98905" lon="8.84663">
        <ele>1323</ele>
        <time>2021-08-04T07:49:47.810Z</time>
      </trkpt>
      <trkpt lat="46.98905" lon="8.84661">
        <ele>1324</ele>
        <time>2021-08-04T07:49:48.809Z</time>
      </trkpt>
      <trkpt lat="46.98904" lon="8.8466">
        <ele>1324</ele>
        <time>2021-08-04T07:49:49.810Z</time>
      </trkpt>
      <trkpt lat="46.98904" lon="8.84659">
        <ele>1324</ele>
        <time>2021-08-04T07:49:50.809Z</time>
      </trkpt>
      <trkpt lat="46.98903" lon="8.84658">
        <ele>1325</ele>
        <time>2021-08-04T07:49:51.809Z</time>
      </trkpt>
      <trkpt lat="46.98902" lon="8.84656">
        <ele>1325</ele>
        <time>2021-08-04T07:49:52.810Z</time>
      </trkpt>
      <trkpt lat="46.98902" lon="8.84655">
        <ele>1326</ele>
        <time>2021-08-04T07:49:53.810Z</time>
      </trkpt>
      <trkpt lat="46.98902" lon="8.84654">
        <ele>1326</ele>
        <time>2021-08-04T07:49:54.810Z</time>
      </trkpt>
      <trkpt lat="46.98903" lon="8.84652">
        <ele>1327</ele>
        <time>2021-08-04T07:49:55.810Z</time>
      </trkpt>
      <trkpt lat="46.98903" lon="8.84651">
        <ele>1327</ele>
        <time>2021-08-04T07:49:56.809Z</time>
      </trkpt>
      <trkpt lat="46.98904" lon="8.84649">
        <ele>1327</ele>
        <time>2021-08-04T07:49:57.809Z</time>
      </trkpt>
      <trkpt lat="46.98905" lon="8.84647">
        <ele>1327</ele>
        <time>2021-08-04T07:49:58.809Z</time>
      </trkpt>
      <trkpt lat="46.98905" lon="8.84646">
        <ele>1327</ele>
        <time>2021-08-04T07:49:59.810Z</time>
      </trkpt>
      <trkpt lat="46.98906" lon="8.84644">
        <ele>1327</ele>
        <time>2021-08-04T07:50:00.810Z</time>
      </trkpt>
      <trkpt lat="46.98906" lon="8.84642">
        <ele>1327</ele>
        <time>2021-08-04T07:50:01.809Z</time>
      </trkpt>
      <trkpt lat="46.98906" lon="8.8464">
        <ele>1326</ele>
        <time>2021-08-04T07:50:02.809Z</time>
      </trkpt>
      <trkpt lat="46.98907" lon="8.84639">
        <ele>1326</ele>
        <time>2021-08-04T07:50:03.810Z</time>
      </trkpt>
      <trkpt lat="46.98908" lon="8.84637">
        <ele>1326</ele>
        <time>2021-08-04T07:50:04.810Z</time>
      </trkpt>
      <trkpt lat="46.98908" lon="8.84636">
        <ele>1325</ele>
        <time>2021-08-04T07:50:05.809Z</time>
      </trkpt>
      <trkpt lat="46.98908" lon="8.84634">
        <ele>1325</ele>
        <time>2021-08-04T07:50:06.810Z</time>
      </trkpt>
      <trkpt lat="46.98907" lon="8.84633">
        <ele>1324</ele>
        <time>2021-08-04T07:50:07.809Z</time>
      </trkpt>
      <trkpt lat="46.98906" lon="8.84632">
        <ele>1323</ele>
        <time>2021-08-04T07:50:08.810Z</time>
      </trkpt>
      <trkpt lat="46.98906" lon="8.8463">
        <ele>1323</ele>
        <time>2021-08-04T07:50:09.810Z</time>
      </trkpt>
      <trkpt lat="46.98905" lon="8.84629">
        <ele>1322</ele>
        <time>2021-08-04T07:50:10.809Z</time>
      </trkpt>
      <trkpt lat="46.98904" lon="8.84627">
        <ele>1321</ele>
        <time>2021-08-04T07:50:11.809Z</time>
      </trkpt>
      <trkpt lat="46.98904" lon="8.84626">
        <ele>1321</ele>
        <time>2021-08-04T07:50:12.810Z</time>
      </trkpt>
      <trkpt lat="46.98904" lon="8.84626">
        <ele>1320</ele>
        <time>2021-08-04T07:50:13.810Z</time>
      </trkpt>
      <trkpt lat="46.98904" lon="8.84625">
        <ele>1320</ele>
        <time>2021-08-04T07:50:14.810Z</time>
      </trkpt>
      <trkpt lat="46.98904" lon="8.84624">
        <ele>1320</ele>
        <time>2021-08-04T07:50:15.809Z</time>
      </trkpt>
      <trkpt lat="46.98903" lon="8.84623">
        <ele>1320</ele>
        <time>2021-08-04T07:50:16.810Z</time>
      </trkpt>
      <trkpt lat="46.98902" lon="8.84621">
        <ele>1321</ele>
        <time>2021-08-04T07:50:17.809Z</time>
      </trkpt>
      <trkpt lat="46.98901" lon="8.8462">
        <ele>1321</ele>
        <time>2021-08-04T07:50:18.809Z</time>
      </trkpt>
      <trkpt lat="46.989" lon="8.84618">
        <ele>1321</ele>
        <time>2021-08-04T07:50:19.809Z</time>
      </trkpt>
      <trkpt lat="46.98899" lon="8.84616">
        <ele>1320</ele>
        <time>2021-08-04T07:50:20.810Z</time>
      </trkpt>
      <trkpt lat="46.98898" lon="8.84615">
        <ele>1320</ele>
        <time>2021-08-04T07:50:21.809Z</time>
      </trkpt>
      <trkpt lat="46.98898" lon="8.84614">
        <ele>1320</ele>
        <time>2021-08-04T07:50:22.809Z</time>
      </trkpt>
      <trkpt lat="46.98897" lon="8.84612">
        <ele>1320</ele>
        <time>2021-08-04T07:50:23.809Z</time>
      </trkpt>
      <trkpt lat="46.98896" lon="8.84611">
        <ele>1320</ele>
        <time>2021-08-04T07:50:24.809Z</time>
      </trkpt>
      <trkpt lat="46.98895" lon="8.84611">
        <ele>1319</ele>
        <time>2021-08-04T07:50:25.809Z</time>
      </trkpt>
      <trkpt lat="46.98894" lon="8.8461">
        <ele>1319</ele>
        <time>2021-08-04T07:50:26.809Z</time>
      </trkpt>
      <trkpt lat="46.98893" lon="8.84609">
        <ele>1319</ele>
        <time>2021-08-04T07:50:27.809Z</time>
      </trkpt>
      <trkpt lat="46.98892" lon="8.84607">
        <ele>1318</ele>
        <time>2021-08-04T07:50:28.809Z</time>
      </trkpt>
      <trkpt lat="46.98892" lon="8.84605">
        <ele>1318</ele>
        <time>2021-08-04T07:50:29.809Z</time>
      </trkpt>
      <trkpt lat="46.98891" lon="8.84604">
        <ele>1318</ele>
        <time>2021-08-04T07:50:30.809Z</time>
      </trkpt>
      <trkpt lat="46.9889" lon="8.84603">
        <ele>1317</ele>
        <time>2021-08-04T07:50:31.809Z</time>
      </trkpt>
      <trkpt lat="46.98889" lon="8.84601">
        <ele>1317</ele>
        <time>2021-08-04T07:50:32.809Z</time>
      </trkpt>
      <trkpt lat="46.98888" lon="8.846">
        <ele>1317</ele>
        <time>2021-08-04T07:50:33.809Z</time>
      </trkpt>
      <trkpt lat="46.98887" lon="8.84599">
        <ele>1316</ele>
        <time>2021-08-04T07:50:34.810Z</time>
      </trkpt>
      <trkpt lat="46.98887" lon="8.84597">
        <ele>1316</ele>
        <time>2021-08-04T07:50:35.810Z</time>
      </trkpt>
      <trkpt lat="46.98886" lon="8.84596">
        <ele>1316</ele>
        <time>2021-08-04T07:50:36.809Z</time>
      </trkpt>
      <trkpt lat="46.98885" lon="8.84594">
        <ele>1316</ele>
        <time>2021-08-04T07:50:37.810Z</time>
      </trkpt>
      <trkpt lat="46.98885" lon="8.84593">
        <ele>1316</ele>
        <time>2021-08-04T07:50:38.809Z</time>
      </trkpt>
      <trkpt lat="46.98884" lon="8.84591">
        <ele>1315</ele>
        <time>2021-08-04T07:50:39.810Z</time>
      </trkpt>
      <trkpt lat="46.98884" lon="8.84589">
        <ele>1315</ele>
        <time>2021-08-04T07:50:40.810Z</time>
      </trkpt>
      <trkpt lat="46.98884" lon="8.84588">
        <ele>1314</ele>
        <time>2021-08-04T07:50:41.810Z</time>
      </trkpt>
      <trkpt lat="46.98884" lon="8.84587">
        <ele>1314</ele>
        <time>2021-08-04T07:50:42.810Z</time>
      </trkpt>
      <trkpt lat="46.98883" lon="8.84586">
        <ele>1314</ele>
        <time>2021-08-04T07:50:43.810Z</time>
      </trkpt>
      <trkpt lat="46.98882" lon="8.84585">
        <ele>1314</ele>
        <time>2021-08-04T07:50:44.809Z</time>
      </trkpt>
      <trkpt lat="46.98881" lon="8.84584">
        <ele>1314</ele>
        <time>2021-08-04T07:50:45.810Z</time>
      </trkpt>
      <trkpt lat="46.9888" lon="8.84583">
        <ele>1314</ele>
        <time>2021-08-04T07:50:46.810Z</time>
      </trkpt>
      <trkpt lat="46.98879" lon="8.84582">
        <ele>1314</ele>
        <time>2021-08-04T07:50:47.810Z</time>
      </trkpt>
      <trkpt lat="46.98878" lon="8.84581">
        <ele>1314</ele>
        <time>2021-08-04T07:50:48.810Z</time>
      </trkpt>
      <trkpt lat="46.98878" lon="8.8458">
        <ele>1314</ele>
        <time>2021-08-04T07:50:49.810Z</time>
      </trkpt>
      <trkpt lat="46.98877" lon="8.84579">
        <ele>1313</ele>
        <time>2021-08-04T07:50:50.810Z</time>
      </trkpt>
      <trkpt lat="46.98876" lon="8.84578">
        <ele>1313</ele>
        <time>2021-08-04T07:50:51.810Z</time>
      </trkpt>
      <trkpt lat="46.98875" lon="8.84577">
        <ele>1313</ele>
        <time>2021-08-04T07:50:52.809Z</time>
      </trkpt>
      <trkpt lat="46.98874" lon="8.84575">
        <ele>1313</ele>
        <time>2021-08-04T07:50:53.810Z</time>
      </trkpt>
      <trkpt lat="46.98872" lon="8.84573">
        <ele>1313</ele>
        <time>2021-08-04T07:50:54.810Z</time>
      </trkpt>
      <trkpt lat="46.98871" lon="8.8457">
        <ele>1313</ele>
        <time>2021-08-04T07:50:55.810Z</time>
      </trkpt>
      <trkpt lat="46.9887" lon="8.84568">
        <ele>1313</ele>
        <time>2021-08-04T07:50:56.809Z</time>
      </trkpt>
      <trkpt lat="46.9887" lon="8.84567">
        <ele>1314</ele>
        <time>2021-08-04T07:50:57.810Z</time>
      </trkpt>
      <trkpt lat="46.9887" lon="8.84565">
        <ele>1314</ele>
        <time>2021-08-04T07:50:58.810Z</time>
      </trkpt>
      <trkpt lat="46.9887" lon="8.84563">
        <ele>1314</ele>
        <time>2021-08-04T07:50:59.810Z</time>
      </trkpt>
      <trkpt lat="46.98871" lon="8.84562">
        <ele>1314</ele>
        <time>2021-08-04T07:51:00.810Z</time>
      </trkpt>
      <trkpt lat="46.98871" lon="8.8456">
        <ele>1314</ele>
        <time>2021-08-04T07:51:01.809Z</time>
      </trkpt>
      <trkpt lat="46.98871" lon="8.84558">
        <ele>1314</ele>
        <time>2021-08-04T07:51:02.810Z</time>
      </trkpt>
      <trkpt lat="46.98871" lon="8.84557">
        <ele>1313</ele>
        <time>2021-08-04T07:51:03.809Z</time>
      </trkpt>
      <trkpt lat="46.9887" lon="8.84555">
        <ele>1313</ele>
        <time>2021-08-04T07:51:04.810Z</time>
      </trkpt>
      <trkpt lat="46.9887" lon="8.84553">
        <ele>1312</ele>
        <time>2021-08-04T07:51:05.810Z</time>
      </trkpt>
      <trkpt lat="46.9887" lon="8.84551">
        <ele>1312</ele>
        <time>2021-08-04T07:51:06.810Z</time>
      </trkpt>
      <trkpt lat="46.9887" lon="8.84549">
        <ele>1312</ele>
        <time>2021-08-04T07:51:07.810Z</time>
      </trkpt>
      <trkpt lat="46.98869" lon="8.84548">
        <ele>1312</ele>
        <time>2021-08-04T07:51:08.810Z</time>
      </trkpt>
      <trkpt lat="46.98868" lon="8.84546">
        <ele>1312</ele>
        <time>2021-08-04T07:51:09.809Z</time>
      </trkpt>
      <trkpt lat="46.98868" lon="8.84544">
        <ele>1312</ele>
        <time>2021-08-04T07:51:10.810Z</time>
      </trkpt>
      <trkpt lat="46.98868" lon="8.84542">
        <ele>1312</ele>
        <time>2021-08-04T07:51:11.810Z</time>
      </trkpt>
      <trkpt lat="46.98867" lon="8.84541">
        <ele>1312</ele>
        <time>2021-08-04T07:51:12.810Z</time>
      </trkpt>
      <trkpt lat="46.98867" lon="8.84539">
        <ele>1312</ele>
        <time>2021-08-04T07:51:13.810Z</time>
      </trkpt>
      <trkpt lat="46.98867" lon="8.84538">
        <ele>1311</ele>
        <time>2021-08-04T07:51:14.810Z</time>
      </trkpt>
      <trkpt lat="46.98866" lon="8.84536">
        <ele>1311</ele>
        <time>2021-08-04T07:51:15.810Z</time>
      </trkpt>
      <trkpt lat="46.98866" lon="8.84535">
        <ele>1311</ele>
        <time>2021-08-04T07:51:16.810Z</time>
      </trkpt>
      <trkpt lat="46.98866" lon="8.84533">
        <ele>1310</ele>
        <time>2021-08-04T07:51:17.810Z</time>
      </trkpt>
      <trkpt lat="46.98866" lon="8.84532">
        <ele>1310</ele>
        <time>2021-08-04T07:51:18.810Z</time>
      </trkpt>
      <trkpt lat="46.98865" lon="8.8453">
        <ele>1310</ele>
        <time>2021-08-04T07:51:19.809Z</time>
      </trkpt>
      <trkpt lat="46.98865" lon="8.84528">
        <ele>1309</ele>
        <time>2021-08-04T07:51:20.810Z</time>
      </trkpt>
      <trkpt lat="46.98864" lon="8.84526">
        <ele>1309</ele>
        <time>2021-08-04T07:51:21.810Z</time>
      </trkpt>
      <trkpt lat="46.98864" lon="8.84525">
        <ele>1308</ele>
        <time>2021-08-04T07:51:22.809Z</time>
      </trkpt>
      <trkpt lat="46.98865" lon="8.84523">
        <ele>1308</ele>
        <time>2021-08-04T07:51:23.809Z</time>
      </trkpt>
      <trkpt lat="46.98865" lon="8.84521">
        <ele>1308</ele>
        <time>2021-08-04T07:51:24.810Z</time>
      </trkpt>
      <trkpt lat="46.98865" lon="8.8452">
        <ele>1307</ele>
        <time>2021-08-04T07:51:25.810Z</time>
      </trkpt>
      <trkpt lat="46.98865" lon="8.84518">
        <ele>1307</ele>
        <time>2021-08-04T07:51:26.809Z</time>
      </trkpt>
      <trkpt lat="46.98865" lon="8.84516">
        <ele>1307</ele>
        <time>2021-08-04T07:51:27.810Z</time>
      </trkpt>
      <trkpt lat="46.98864" lon="8.84515">
        <ele>1306</ele>
        <time>2021-08-04T07:51:28.809Z</time>
      </trkpt>
      <trkpt lat="46.98863" lon="8.84513">
        <ele>1306</ele>
        <time>2021-08-04T07:51:29.809Z</time>
      </trkpt>
      <trkpt lat="46.98862" lon="8.84512">
        <ele>1305</ele>
        <time>2021-08-04T07:51:30.810Z</time>
      </trkpt>
      <trkpt lat="46.98862" lon="8.8451">
        <ele>1305</ele>
        <time>2021-08-04T07:51:31.809Z</time>
      </trkpt>
      <trkpt lat="46.98862" lon="8.84508">
        <ele>1304</ele>
        <time>2021-08-04T07:51:32.809Z</time>
      </trkpt>
      <trkpt lat="46.98862" lon="8.84506">
        <ele>1304</ele>
        <time>2021-08-04T07:51:33.810Z</time>
      </trkpt>
      <trkpt lat="46.98863" lon="8.84504">
        <ele>1304</ele>
        <time>2021-08-04T07:51:34.810Z</time>
      </trkpt>
      <trkpt lat="46.98863" lon="8.84503">
        <ele>1304</ele>
        <time>2021-08-04T07:51:35.810Z</time>
      </trkpt>
      <trkpt lat="46.98862" lon="8.84502">
        <ele>1304</ele>
        <time>2021-08-04T07:51:36.810Z</time>
      </trkpt>
      <trkpt lat="46.98862" lon="8.845">
        <ele>1304</ele>
        <time>2021-08-04T07:51:37.810Z</time>
      </trkpt>
      <trkpt lat="46.98862" lon="8.84498">
        <ele>1304</ele>
        <time>2021-08-04T07:51:38.810Z</time>
      </trkpt>
      <trkpt lat="46.98862" lon="8.84496">
        <ele>1304</ele>
        <time>2021-08-04T07:51:39.810Z</time>
      </trkpt>
      <trkpt lat="46.98862" lon="8.84494">
        <ele>1304</ele>
        <time>2021-08-04T07:51:40.810Z</time>
      </trkpt>
      <trkpt lat="46.98861" lon="8.84492">
        <ele>1304</ele>
        <time>2021-08-04T07:51:41.810Z</time>
      </trkpt>
      <trkpt lat="46.98861" lon="8.84491">
        <ele>1304</ele>
        <time>2021-08-04T07:51:42.809Z</time>
      </trkpt>
      <trkpt lat="46.98861" lon="8.84489">
        <ele>1304</ele>
        <time>2021-08-04T07:51:43.810Z</time>
      </trkpt>
      <trkpt lat="46.9886" lon="8.84487">
        <ele>1305</ele>
        <time>2021-08-04T07:51:44.810Z</time>
      </trkpt>
      <trkpt lat="46.9886" lon="8.84485">
        <ele>1305</ele>
        <time>2021-08-04T07:51:45.810Z</time>
      </trkpt>
      <trkpt lat="46.9886" lon="8.84484">
        <ele>1304</ele>
        <time>2021-08-04T07:51:46.810Z</time>
      </trkpt>
      <trkpt lat="46.9886" lon="8.84482">
        <ele>1304</ele>
        <time>2021-08-04T07:51:47.810Z</time>
      </trkpt>
      <trkpt lat="46.98859" lon="8.8448">
        <ele>1304</ele>
        <time>2021-08-04T07:51:48.810Z</time>
      </trkpt>
      <trkpt lat="46.98859" lon="8.84479">
        <ele>1304</ele>
        <time>2021-08-04T07:51:49.810Z</time>
      </trkpt>
      <trkpt lat="46.98859" lon="8.84478">
        <ele>1305</ele>
        <time>2021-08-04T07:51:50.809Z</time>
      </trkpt>
      <trkpt lat="46.98859" lon="8.84476">
        <ele>1305</ele>
        <time>2021-08-04T07:51:51.810Z</time>
      </trkpt>
      <trkpt lat="46.98859" lon="8.84475">
        <ele>1306</ele>
        <time>2021-08-04T07:51:52.810Z</time>
      </trkpt>
      <trkpt lat="46.98859" lon="8.84474">
        <ele>1306</ele>
        <time>2021-08-04T07:51:53.810Z</time>
      </trkpt>
      <trkpt lat="46.98858" lon="8.84472">
        <ele>1307</ele>
        <time>2021-08-04T07:51:54.810Z</time>
      </trkpt>
      <trkpt lat="46.98858" lon="8.8447">
        <ele>1307</ele>
        <time>2021-08-04T07:51:55.810Z</time>
      </trkpt>
      <trkpt lat="46.98857" lon="8.84468">
        <ele>1307</ele>
        <time>2021-08-04T07:51:56.810Z</time>
      </trkpt>
      <trkpt lat="46.98857" lon="8.84467">
        <ele>1308</ele>
        <time>2021-08-04T07:51:57.809Z</time>
      </trkpt>
      <trkpt lat="46.98856" lon="8.84465">
        <ele>1308</ele>
        <time>2021-08-04T07:51:58.810Z</time>
      </trkpt>
      <trkpt lat="46.98856" lon="8.84463">
        <ele>1307</ele>
        <time>2021-08-04T07:51:59.810Z</time>
      </trkpt>
      <trkpt lat="46.98855" lon="8.84462">
        <ele>1307</ele>
        <time>2021-08-04T07:52:00.809Z</time>
      </trkpt>
      <trkpt lat="46.98855" lon="8.8446">
        <ele>1308</ele>
        <time>2021-08-04T07:52:01.809Z</time>
      </trkpt>
      <trkpt lat="46.98854" lon="8.84458">
        <ele>1308</ele>
        <time>2021-08-04T07:52:02.810Z</time>
      </trkpt>
      <trkpt lat="46.98854" lon="8.84456">
        <ele>1308</ele>
        <time>2021-08-04T07:52:03.809Z</time>
      </trkpt>
      <trkpt lat="46.98853" lon="8.84455">
        <ele>1308</ele>
        <time>2021-08-04T07:52:04.810Z</time>
      </trkpt>
      <trkpt lat="46.98853" lon="8.84453">
        <ele>1307</ele>
        <time>2021-08-04T07:52:05.809Z</time>
      </trkpt>
      <trkpt lat="46.98854" lon="8.84453">
        <ele>1307</ele>
        <time>2021-08-04T07:52:06.809Z</time>
      </trkpt>
      <trkpt lat="46.98854" lon="8.84452">
        <ele>1307</ele>
        <time>2021-08-04T07:52:07.810Z</time>
      </trkpt>
      <trkpt lat="46.98854" lon="8.84452">
        <ele>1307</ele>
        <time>2021-08-04T07:52:08.810Z</time>
      </trkpt>
      <trkpt lat="46.98852" lon="8.8445">
        <ele>1307</ele>
        <time>2021-08-04T07:52:09.810Z</time>
      </trkpt>
      <trkpt lat="46.98852" lon="8.8445">
        <ele>1307</ele>
        <time>2021-08-04T07:52:10.810Z</time>
      </trkpt>
      <trkpt lat="46.98851" lon="8.8445">
        <ele>1307</ele>
        <time>2021-08-04T07:52:11.810Z</time>
      </trkpt>
      <trkpt lat="46.98851" lon="8.8445">
        <ele>1307</ele>
        <time>2021-08-04T07:52:12.810Z</time>
      </trkpt>
      <trkpt lat="46.9885" lon="8.84449">
        <ele>1297</ele>
        <time>2021-08-04T07:52:13.811Z</time>
      </trkpt>
      <trkpt lat="46.9885" lon="8.8445">
        <ele>1296</ele>
        <time>2021-08-04T07:52:14.811Z</time>
      </trkpt>
      <trkpt lat="46.9885" lon="8.8445">
        <ele>1296</ele>
        <time>2021-08-04T07:52:15.811Z</time>
      </trkpt>
      <trkpt lat="46.9885" lon="8.8445">
        <ele>1296</ele>
        <time>2021-08-04T07:52:16.810Z</time>
      </trkpt>
      <trkpt lat="46.98851" lon="8.84451">
        <ele>1296</ele>
        <time>2021-08-04T07:52:17.810Z</time>
      </trkpt>
      <trkpt lat="46.98851" lon="8.84453">
        <ele>1296</ele>
        <time>2021-08-04T07:52:18.811Z</time>
      </trkpt>
      <trkpt lat="46.98852" lon="8.84454">
        <ele>1296</ele>
        <time>2021-08-04T07:52:19.811Z</time>
      </trkpt>
      <trkpt lat="46.98852" lon="8.84454">
        <ele>1297</ele>
        <time>2021-08-04T07:52:20.811Z</time>
      </trkpt>
      <trkpt lat="46.98852" lon="8.84454">
        <ele>1297</ele>
        <time>2021-08-04T07:52:21.810Z</time>
      </trkpt>
      <trkpt lat="46.98852" lon="8.84452">
        <ele>1292</ele>
        <time>2021-08-04T07:52:22.812Z</time>
      </trkpt>
      <trkpt lat="46.98851" lon="8.84451">
        <ele>1292</ele>
        <time>2021-08-04T07:52:23.812Z</time>
      </trkpt>
      <trkpt lat="46.98851" lon="8.8445">
        <ele>1292</ele>
        <time>2021-08-04T07:52:24.812Z</time>
      </trkpt>
      <trkpt lat="46.98854" lon="8.84446">
        <ele>1282</ele>
        <time>2021-08-04T07:52:25.814Z</time>
      </trkpt>
      <trkpt lat="46.98853" lon="8.84445">
        <ele>1282</ele>
        <time>2021-08-04T07:52:26.813Z</time>
      </trkpt>
      <trkpt lat="46.98851" lon="8.84443">
        <ele>1288</ele>
        <time>2021-08-04T07:52:27.815Z</time>
      </trkpt>
      <trkpt lat="46.98851" lon="8.84443">
        <ele>1289</ele>
        <time>2021-08-04T07:52:28.814Z</time>
      </trkpt>
      <trkpt lat="46.98851" lon="8.84443">
        <ele>1290</ele>
        <time>2021-08-04T07:52:29.814Z</time>
      </trkpt>
      <trkpt lat="46.98852" lon="8.84444">
        <ele>1295</ele>
        <time>2021-08-04T07:52:30.815Z</time>
      </trkpt>
      <trkpt lat="46.98852" lon="8.84443">
        <ele>1296</ele>
        <time>2021-08-04T07:52:31.814Z</time>
      </trkpt>
      <trkpt lat="46.98852" lon="8.84442">
        <ele>1297</ele>
        <time>2021-08-04T07:52:32.814Z</time>
      </trkpt>
      <trkpt lat="46.98851" lon="8.8444">
        <ele>1297</ele>
        <time>2021-08-04T07:52:33.815Z</time>
      </trkpt>
      <trkpt lat="46.98851" lon="8.84439">
        <ele>1297</ele>
        <time>2021-08-04T07:52:34.814Z</time>
      </trkpt>
      <trkpt lat="46.9885" lon="8.84437">
        <ele>1298</ele>
        <time>2021-08-04T07:52:35.814Z</time>
      </trkpt>
      <trkpt lat="46.9885" lon="8.84436">
        <ele>1299</ele>
        <time>2021-08-04T07:52:36.815Z</time>
      </trkpt>
      <trkpt lat="46.98849" lon="8.84434">
        <ele>1299</ele>
        <time>2021-08-04T07:52:37.815Z</time>
      </trkpt>
      <trkpt lat="46.98849" lon="8.84433">
        <ele>1300</ele>
        <time>2021-08-04T07:52:38.815Z</time>
      </trkpt>
      <trkpt lat="46.98849" lon="8.84432">
        <ele>1300</ele>
        <time>2021-08-04T07:52:39.814Z</time>
      </trkpt>
      <trkpt lat="46.98848" lon="8.84431">
        <ele>1301</ele>
        <time>2021-08-04T07:52:40.815Z</time>
      </trkpt>
      <trkpt lat="46.98848" lon="8.8443">
        <ele>1302</ele>
        <time>2021-08-04T07:52:41.815Z</time>
      </trkpt>
      <trkpt lat="46.98847" lon="8.84428">
        <ele>1302</ele>
        <time>2021-08-04T07:52:42.814Z</time>
      </trkpt>
      <trkpt lat="46.98848" lon="8.84427">
        <ele>1302</ele>
        <time>2021-08-04T07:52:43.815Z</time>
      </trkpt>
      <trkpt lat="46.98848" lon="8.84426">
        <ele>1303</ele>
        <time>2021-08-04T07:52:44.815Z</time>
      </trkpt>
      <trkpt lat="46.98848" lon="8.84424">
        <ele>1303</ele>
        <time>2021-08-04T07:52:45.815Z</time>
      </trkpt>
      <trkpt lat="46.98847" lon="8.84423">
        <ele>1303</ele>
        <time>2021-08-04T07:52:46.815Z</time>
      </trkpt>
      <trkpt lat="46.98847" lon="8.84421">
        <ele>1304</ele>
        <time>2021-08-04T07:52:47.814Z</time>
      </trkpt>
      <trkpt lat="46.98846" lon="8.8442">
        <ele>1304</ele>
        <time>2021-08-04T07:52:48.814Z</time>
      </trkpt>
      <trkpt lat="46.98846" lon="8.84419">
        <ele>1304</ele>
        <time>2021-08-04T07:52:49.815Z</time>
      </trkpt>
      <trkpt lat="46.98847" lon="8.84417">
        <ele>1304</ele>
        <time>2021-08-04T07:52:50.815Z</time>
      </trkpt>
      <trkpt lat="46.98847" lon="8.84416">
        <ele>1304</ele>
        <time>2021-08-04T07:52:51.814Z</time>
      </trkpt>
      <trkpt lat="46.98847" lon="8.84414">
        <ele>1304</ele>
        <time>2021-08-04T07:52:52.815Z</time>
      </trkpt>
      <trkpt lat="46.98847" lon="8.84413">
        <ele>1304</ele>
        <time>2021-08-04T07:52:53.814Z</time>
      </trkpt>
      <trkpt lat="46.98846" lon="8.84411">
        <ele>1305</ele>
        <time>2021-08-04T07:52:54.814Z</time>
      </trkpt>
      <trkpt lat="46.98845" lon="8.8441">
        <ele>1305</ele>
        <time>2021-08-04T07:52:55.814Z</time>
      </trkpt>
      <trkpt lat="46.98845" lon="8.84408">
        <ele>1305</ele>
        <time>2021-08-04T07:52:56.814Z</time>
      </trkpt>
      <trkpt lat="46.98844" lon="8.84407">
        <ele>1305</ele>
        <time>2021-08-04T07:52:57.814Z</time>
      </trkpt>
      <trkpt lat="46.98844" lon="8.84405">
        <ele>1305</ele>
        <time>2021-08-04T07:52:58.815Z</time>
      </trkpt>
      <trkpt lat="46.98843" lon="8.84404">
        <ele>1306</ele>
        <time>2021-08-04T07:52:59.815Z</time>
      </trkpt>
      <trkpt lat="46.98843" lon="8.84402">
        <ele>1306</ele>
        <time>2021-08-04T07:53:00.815Z</time>
      </trkpt>
      <trkpt lat="46.98842" lon="8.84401">
        <ele>1306</ele>
        <time>2021-08-04T07:53:01.815Z</time>
      </trkpt>
      <trkpt lat="46.98842" lon="8.84399">
        <ele>1306</ele>
        <time>2021-08-04T07:53:02.814Z</time>
      </trkpt>
      <trkpt lat="46.98842" lon="8.84398">
        <ele>1306</ele>
        <time>2021-08-04T07:53:03.815Z</time>
      </trkpt>
      <trkpt lat="46.98841" lon="8.84396">
        <ele>1305</ele>
        <time>2021-08-04T07:53:04.814Z</time>
      </trkpt>
      <trkpt lat="46.98841" lon="8.84395">
        <ele>1305</ele>
        <time>2021-08-04T07:53:05.815Z</time>
      </trkpt>
      <trkpt lat="46.9884" lon="8.84393">
        <ele>1305</ele>
        <time>2021-08-04T07:53:06.815Z</time>
      </trkpt>
      <trkpt lat="46.9884" lon="8.84392">
        <ele>1305</ele>
        <time>2021-08-04T07:53:07.814Z</time>
      </trkpt>
      <trkpt lat="46.9884" lon="8.84391">
        <ele>1305</ele>
        <time>2021-08-04T07:53:08.815Z</time>
      </trkpt>
      <trkpt lat="46.9884" lon="8.84389">
        <ele>1305</ele>
        <time>2021-08-04T07:53:09.815Z</time>
      </trkpt>
      <trkpt lat="46.98839" lon="8.84388">
        <ele>1305</ele>
        <time>2021-08-04T07:53:10.815Z</time>
      </trkpt>
      <trkpt lat="46.9884" lon="8.84388">
        <ele>1305</ele>
        <time>2021-08-04T07:53:11.815Z</time>
      </trkpt>
      <trkpt lat="46.9884" lon="8.84387">
        <ele>1304</ele>
        <time>2021-08-04T07:53:12.815Z</time>
      </trkpt>
      <trkpt lat="46.9884" lon="8.84386">
        <ele>1304</ele>
        <time>2021-08-04T07:53:13.815Z</time>
      </trkpt>
      <trkpt lat="46.9884" lon="8.84385">
        <ele>1304</ele>
        <time>2021-08-04T07:53:14.815Z</time>
      </trkpt>
      <trkpt lat="46.98839" lon="8.84385">
        <ele>1304</ele>
        <time>2021-08-04T07:53:15.815Z</time>
      </trkpt>
      <trkpt lat="46.98839" lon="8.84384">
        <ele>1304</ele>
        <time>2021-08-04T07:53:16.814Z</time>
      </trkpt>
      <trkpt lat="46.98838" lon="8.84384">
        <ele>1304</ele>
        <time>2021-08-04T07:53:17.814Z</time>
      </trkpt>
      <trkpt lat="46.98838" lon="8.84384">
        <ele>1304</ele>
        <time>2021-08-04T07:53:18.814Z</time>
      </trkpt>
      <trkpt lat="46.98838" lon="8.84386">
        <ele>1302</ele>
        <time>2021-08-04T07:53:19.816Z</time>
      </trkpt>
      <trkpt lat="46.98839" lon="8.84386">
        <ele>1292</ele>
        <time>2021-08-04T07:53:20.815Z</time>
      </trkpt>
      <trkpt lat="46.98839" lon="8.84385">
        <ele>1291</ele>
        <time>2021-08-04T07:53:21.816Z</time>
      </trkpt>
      <trkpt lat="46.98838" lon="8.84384">
        <ele>1291</ele>
        <time>2021-08-04T07:53:22.817Z</time>
      </trkpt>
      <trkpt lat="46.98838" lon="8.84385">
        <ele>1292</ele>
        <time>2021-08-04T07:53:23.816Z</time>
      </trkpt>
      <trkpt lat="46.98838" lon="8.84382">
        <ele>1297</ele>
        <time>2021-08-04T07:53:24.817Z</time>
      </trkpt>
      <trkpt lat="46.98837" lon="8.84381">
        <ele>1297</ele>
        <time>2021-08-04T07:53:25.817Z</time>
      </trkpt>
      <trkpt lat="46.98837" lon="8.8438">
        <ele>1297</ele>
        <time>2021-08-04T07:53:26.817Z</time>
      </trkpt>
      <trkpt lat="46.98837" lon="8.8438">
        <ele>1297</ele>
        <time>2021-08-04T07:53:27.816Z</time>
      </trkpt>
      <trkpt lat="46.98838" lon="8.8438">
        <ele>1297</ele>
        <time>2021-08-04T07:53:28.817Z</time>
      </trkpt>
      <trkpt lat="46.98838" lon="8.8438">
        <ele>1298</ele>
        <time>2021-08-04T07:53:29.816Z</time>
      </trkpt>
      <trkpt lat="46.98838" lon="8.8438">
        <ele>1298</ele>
        <time>2021-08-04T07:53:30.817Z</time>
      </trkpt>
      <trkpt lat="46.98837" lon="8.84378">
        <ele>1299</ele>
        <time>2021-08-04T07:53:31.817Z</time>
      </trkpt>
      <trkpt lat="46.98837" lon="8.84376">
        <ele>1299</ele>
        <time>2021-08-04T07:53:32.817Z</time>
      </trkpt>
      <trkpt lat="46.98836" lon="8.84375">
        <ele>1300</ele>
        <time>2021-08-04T07:53:33.817Z</time>
      </trkpt>
      <trkpt lat="46.98835" lon="8.84374">
        <ele>1300</ele>
        <time>2021-08-04T07:53:34.817Z</time>
      </trkpt>
      <trkpt lat="46.98835" lon="8.84373">
        <ele>1301</ele>
        <time>2021-08-04T07:53:35.817Z</time>
      </trkpt>
      <trkpt lat="46.98834" lon="8.84372">
        <ele>1301</ele>
        <time>2021-08-04T07:53:36.816Z</time>
      </trkpt>
      <trkpt lat="46.98833" lon="8.84371">
        <ele>1301</ele>
        <time>2021-08-04T07:53:37.817Z</time>
      </trkpt>
      <trkpt lat="46.98833" lon="8.8437">
        <ele>1301</ele>
        <time>2021-08-04T07:53:38.817Z</time>
      </trkpt>
      <trkpt lat="46.98833" lon="8.84368">
        <ele>1302</ele>
        <time>2021-08-04T07:53:39.816Z</time>
      </trkpt>
      <trkpt lat="46.98833" lon="8.84367">
        <ele>1302</ele>
        <time>2021-08-04T07:53:40.816Z</time>
      </trkpt>
      <trkpt lat="46.98833" lon="8.84366">
        <ele>1302</ele>
        <time>2021-08-04T07:53:41.817Z</time>
      </trkpt>
      <trkpt lat="46.98833" lon="8.84365">
        <ele>1302</ele>
        <time>2021-08-04T07:53:42.817Z</time>
      </trkpt>
      <trkpt lat="46.98833" lon="8.84364">
        <ele>1302</ele>
        <time>2021-08-04T07:53:43.817Z</time>
      </trkpt>
      <trkpt lat="46.98833" lon="8.84363">
        <ele>1303</ele>
        <time>2021-08-04T07:53:44.816Z</time>
      </trkpt>
      <trkpt lat="46.98833" lon="8.84361">
        <ele>1303</ele>
        <time>2021-08-04T07:53:45.816Z</time>
      </trkpt>
      <trkpt lat="46.98832" lon="8.84359">
        <ele>1303</ele>
        <time>2021-08-04T07:53:46.816Z</time>
      </trkpt>
      <trkpt lat="46.98832" lon="8.84358">
        <ele>1303</ele>
        <time>2021-08-04T07:53:47.816Z</time>
      </trkpt>
      <trkpt lat="46.98832" lon="8.84356">
        <ele>1302</ele>
        <time>2021-08-04T07:53:48.816Z</time>
      </trkpt>
      <trkpt lat="46.98832" lon="8.84355">
        <ele>1302</ele>
        <time>2021-08-04T07:53:49.817Z</time>
      </trkpt>
      <trkpt lat="46.98832" lon="8.84354">
        <ele>1301</ele>
        <time>2021-08-04T07:53:50.816Z</time>
      </trkpt>
      <trkpt lat="46.98831" lon="8.84352">
        <ele>1301</ele>
        <time>2021-08-04T07:53:51.817Z</time>
      </trkpt>
      <trkpt lat="46.98831" lon="8.84351">
        <ele>1301</ele>
        <time>2021-08-04T07:53:52.816Z</time>
      </trkpt>
      <trkpt lat="46.98831" lon="8.8435">
        <ele>1300</ele>
        <time>2021-08-04T07:53:53.817Z</time>
      </trkpt>
      <trkpt lat="46.98832" lon="8.84348">
        <ele>1300</ele>
        <time>2021-08-04T07:53:54.817Z</time>
      </trkpt>
      <trkpt lat="46.98832" lon="8.84347">
        <ele>1300</ele>
        <time>2021-08-04T07:53:55.816Z</time>
      </trkpt>
      <trkpt lat="46.98832" lon="8.84346">
        <ele>1300</ele>
        <time>2021-08-04T07:53:56.817Z</time>
      </trkpt>
      <trkpt lat="46.98832" lon="8.84344">
        <ele>1300</ele>
        <time>2021-08-04T07:53:57.817Z</time>
      </trkpt>
      <trkpt lat="46.98831" lon="8.84343">
        <ele>1300</ele>
        <time>2021-08-04T07:53:58.817Z</time>
      </trkpt>
      <trkpt lat="46.98831" lon="8.84341">
        <ele>1300</ele>
        <time>2021-08-04T07:53:59.817Z</time>
      </trkpt>
      <trkpt lat="46.9883" lon="8.84339">
        <ele>1300</ele>
        <time>2021-08-04T07:54:00.817Z</time>
      </trkpt>
      <trkpt lat="46.9883" lon="8.84337">
        <ele>1300</ele>
        <time>2021-08-04T07:54:01.816Z</time>
      </trkpt>
      <trkpt lat="46.9883" lon="8.84335">
        <ele>1300</ele>
        <time>2021-08-04T07:54:02.817Z</time>
      </trkpt>
      <trkpt lat="46.9883" lon="8.84333">
        <ele>1299</ele>
        <time>2021-08-04T07:54:03.816Z</time>
      </trkpt>
      <trkpt lat="46.9883" lon="8.84332">
        <ele>1299</ele>
        <time>2021-08-04T07:54:04.817Z</time>
      </trkpt>
      <trkpt lat="46.9883" lon="8.8433">
        <ele>1299</ele>
        <time>2021-08-04T07:54:05.817Z</time>
      </trkpt>
      <trkpt lat="46.9883" lon="8.84329">
        <ele>1299</ele>
        <time>2021-08-04T07:54:06.816Z</time>
      </trkpt>
      <trkpt lat="46.9883" lon="8.84328">
        <ele>1299</ele>
        <time>2021-08-04T07:54:07.816Z</time>
      </trkpt>
      <trkpt lat="46.9883" lon="8.84326">
        <ele>1299</ele>
        <time>2021-08-04T07:54:08.817Z</time>
      </trkpt>
      <trkpt lat="46.9883" lon="8.84325">
        <ele>1298</ele>
        <time>2021-08-04T07:54:09.817Z</time>
      </trkpt>
      <trkpt lat="46.9883" lon="8.84323">
        <ele>1298</ele>
        <time>2021-08-04T07:54:10.817Z</time>
      </trkpt>
      <trkpt lat="46.9883" lon="8.84321">
        <ele>1298</ele>
        <time>2021-08-04T07:54:11.817Z</time>
      </trkpt>
      <trkpt lat="46.9883" lon="8.84319">
        <ele>1298</ele>
        <time>2021-08-04T07:54:12.817Z</time>
      </trkpt>
      <trkpt lat="46.9883" lon="8.84317">
        <ele>1298</ele>
        <time>2021-08-04T07:54:13.816Z</time>
      </trkpt>
      <trkpt lat="46.98829" lon="8.84315">
        <ele>1298</ele>
        <time>2021-08-04T07:54:14.817Z</time>
      </trkpt>
      <trkpt lat="46.98829" lon="8.84314">
        <ele>1298</ele>
        <time>2021-08-04T07:54:15.816Z</time>
      </trkpt>
      <trkpt lat="46.98829" lon="8.84312">
        <ele>1298</ele>
        <time>2021-08-04T07:54:16.817Z</time>
      </trkpt>
      <trkpt lat="46.98829" lon="8.84311">
        <ele>1298</ele>
        <time>2021-08-04T07:54:17.816Z</time>
      </trkpt>
      <trkpt lat="46.98829" lon="8.84309">
        <ele>1297</ele>
        <time>2021-08-04T07:54:18.817Z</time>
      </trkpt>
      <trkpt lat="46.98828" lon="8.84307">
        <ele>1297</ele>
        <time>2021-08-04T07:54:19.817Z</time>
      </trkpt>
      <trkpt lat="46.98827" lon="8.84305">
        <ele>1297</ele>
        <time>2021-08-04T07:54:20.817Z</time>
      </trkpt>
      <trkpt lat="46.98827" lon="8.84303">
        <ele>1297</ele>
        <time>2021-08-04T07:54:21.816Z</time>
      </trkpt>
      <trkpt lat="46.98827" lon="8.84302">
        <ele>1296</ele>
        <time>2021-08-04T07:54:22.816Z</time>
      </trkpt>
      <trkpt lat="46.98828" lon="8.84301">
        <ele>1296</ele>
        <time>2021-08-04T07:54:23.817Z</time>
      </trkpt>
      <trkpt lat="46.98827" lon="8.84299">
        <ele>1296</ele>
        <time>2021-08-04T07:54:24.816Z</time>
      </trkpt>
      <trkpt lat="46.98827" lon="8.84298">
        <ele>1296</ele>
        <time>2021-08-04T07:54:25.816Z</time>
      </trkpt>
      <trkpt lat="46.98826" lon="8.84296">
        <ele>1296</ele>
        <time>2021-08-04T07:54:26.817Z</time>
      </trkpt>
      <trkpt lat="46.98826" lon="8.84294">
        <ele>1296</ele>
        <time>2021-08-04T07:54:27.817Z</time>
      </trkpt>
      <trkpt lat="46.98826" lon="8.84292">
        <ele>1297</ele>
        <time>2021-08-04T07:54:28.816Z</time>
      </trkpt>
      <trkpt lat="46.98825" lon="8.8429">
        <ele>1297</ele>
        <time>2021-08-04T07:54:29.817Z</time>
      </trkpt>
      <trkpt lat="46.98824" lon="8.84288">
        <ele>1297</ele>
        <time>2021-08-04T07:54:30.817Z</time>
      </trkpt>
      <trkpt lat="46.98824" lon="8.84286">
        <ele>1297</ele>
        <time>2021-08-04T07:54:31.816Z</time>
      </trkpt>
      <trkpt lat="46.98823" lon="8.84284">
        <ele>1298</ele>
        <time>2021-08-04T07:54:32.816Z</time>
      </trkpt>
      <trkpt lat="46.98823" lon="8.84282">
        <ele>1298</ele>
        <time>2021-08-04T07:54:33.817Z</time>
      </trkpt>
      <trkpt lat="46.98823" lon="8.84281">
        <ele>1298</ele>
        <time>2021-08-04T07:54:34.817Z</time>
      </trkpt>
      <trkpt lat="46.98823" lon="8.84279">
        <ele>1298</ele>
        <time>2021-08-04T07:54:35.817Z</time>
      </trkpt>
      <trkpt lat="46.98824" lon="8.84278">
        <ele>1298</ele>
        <time>2021-08-04T07:54:36.816Z</time>
      </trkpt>
      <trkpt lat="46.98824" lon="8.84276">
        <ele>1298</ele>
        <time>2021-08-04T07:54:37.816Z</time>
      </trkpt>
      <trkpt lat="46.98824" lon="8.84274">
        <ele>1299</ele>
        <time>2021-08-04T07:54:38.816Z</time>
      </trkpt>
      <trkpt lat="46.98824" lon="8.84273">
        <ele>1299</ele>
        <time>2021-08-04T07:54:39.817Z</time>
      </trkpt>
      <trkpt lat="46.98824" lon="8.84271">
        <ele>1299</ele>
        <time>2021-08-04T07:54:40.817Z</time>
      </trkpt>
      <trkpt lat="46.98824" lon="8.8427">
        <ele>1300</ele>
        <time>2021-08-04T07:54:41.817Z</time>
      </trkpt>
      <trkpt lat="46.98824" lon="8.84268">
        <ele>1300</ele>
        <time>2021-08-04T07:54:42.816Z</time>
      </trkpt>
      <trkpt lat="46.98824" lon="8.84267">
        <ele>1301</ele>
        <time>2021-08-04T07:54:43.816Z</time>
      </trkpt>
      <trkpt lat="46.98824" lon="8.84266">
        <ele>1301</ele>
        <time>2021-08-04T07:54:44.817Z</time>
      </trkpt>
      <trkpt lat="46.98824" lon="8.84265">
        <ele>1302</ele>
        <time>2021-08-04T07:54:45.817Z</time>
      </trkpt>
      <trkpt lat="46.98824" lon="8.84264">
        <ele>1302</ele>
        <time>2021-08-04T07:54:46.817Z</time>
      </trkpt>
      <trkpt lat="46.98824" lon="8.84263">
        <ele>1302</ele>
        <time>2021-08-04T07:54:47.816Z</time>
      </trkpt>
      <trkpt lat="46.98824" lon="8.84261">
        <ele>1302</ele>
        <time>2021-08-04T07:54:48.816Z</time>
      </trkpt>
      <trkpt lat="46.98824" lon="8.8426">
        <ele>1303</ele>
        <time>2021-08-04T07:54:49.816Z</time>
      </trkpt>
      <trkpt lat="46.98824" lon="8.84258">
        <ele>1303</ele>
        <time>2021-08-04T07:54:50.817Z</time>
      </trkpt>
      <trkpt lat="46.98824" lon="8.84256">
        <ele>1303</ele>
        <time>2021-08-04T07:54:51.817Z</time>
      </trkpt>
      <trkpt lat="46.98824" lon="8.84255">
        <ele>1302</ele>
        <time>2021-08-04T07:54:52.816Z</time>
      </trkpt>
      <trkpt lat="46.98824" lon="8.84254">
        <ele>1302</ele>
        <time>2021-08-04T07:54:53.817Z</time>
      </trkpt>
      <trkpt lat="46.98823" lon="8.84252">
        <ele>1302</ele>
        <time>2021-08-04T07:54:54.817Z</time>
      </trkpt>
      <trkpt lat="46.98823" lon="8.8425">
        <ele>1302</ele>
        <time>2021-08-04T07:54:55.817Z</time>
      </trkpt>
      <trkpt lat="46.98823" lon="8.84248">
        <ele>1302</ele>
        <time>2021-08-04T07:54:56.817Z</time>
      </trkpt>
      <trkpt lat="46.98822" lon="8.84246">
        <ele>1301</ele>
        <time>2021-08-04T07:54:57.817Z</time>
      </trkpt>
      <trkpt lat="46.98821" lon="8.84244">
        <ele>1301</ele>
        <time>2021-08-04T07:54:58.816Z</time>
      </trkpt>
      <trkpt lat="46.98821" lon="8.84242">
        <ele>1301</ele>
        <time>2021-08-04T07:54:59.817Z</time>
      </trkpt>
      <trkpt lat="46.98821" lon="8.8424">
        <ele>1301</ele>
        <time>2021-08-04T07:55:00.816Z</time>
      </trkpt>
      <trkpt lat="46.98821" lon="8.84238">
        <ele>1300</ele>
        <time>2021-08-04T07:55:01.816Z</time>
      </trkpt>
      <trkpt lat="46.9882" lon="8.84237">
        <ele>1300</ele>
        <time>2021-08-04T07:55:02.816Z</time>
      </trkpt>
      <trkpt lat="46.98819" lon="8.84235">
        <ele>1299</ele>
        <time>2021-08-04T07:55:03.816Z</time>
      </trkpt>
      <trkpt lat="46.98819" lon="8.84233">
        <ele>1298</ele>
        <time>2021-08-04T07:55:04.817Z</time>
      </trkpt>
      <trkpt lat="46.98819" lon="8.84232">
        <ele>1298</ele>
        <time>2021-08-04T07:55:05.816Z</time>
      </trkpt>
      <trkpt lat="46.98819" lon="8.8423">
        <ele>1298</ele>
        <time>2021-08-04T07:55:06.816Z</time>
      </trkpt>
      <trkpt lat="46.98819" lon="8.84228">
        <ele>1297</ele>
        <time>2021-08-04T07:55:07.816Z</time>
      </trkpt>
      <trkpt lat="46.9882" lon="8.84226">
        <ele>1297</ele>
        <time>2021-08-04T07:55:08.816Z</time>
      </trkpt>
      <trkpt lat="46.9882" lon="8.84225">
        <ele>1296</ele>
        <time>2021-08-04T07:55:09.817Z</time>
      </trkpt>
      <trkpt lat="46.9882" lon="8.84224">
        <ele>1296</ele>
        <time>2021-08-04T07:55:10.817Z</time>
      </trkpt>
      <trkpt lat="46.9882" lon="8.84223">
        <ele>1295</ele>
        <time>2021-08-04T07:55:11.816Z</time>
      </trkpt>
      <trkpt lat="46.9882" lon="8.84221">
        <ele>1294</ele>
        <time>2021-08-04T07:55:12.817Z</time>
      </trkpt>
      <trkpt lat="46.98819" lon="8.84219">
        <ele>1294</ele>
        <time>2021-08-04T07:55:13.817Z</time>
      </trkpt>
      <trkpt lat="46.98819" lon="8.84217">
        <ele>1293</ele>
        <time>2021-08-04T07:55:14.816Z</time>
      </trkpt>
      <trkpt lat="46.98819" lon="8.84216">
        <ele>1293</ele>
        <time>2021-08-04T07:55:15.816Z</time>
      </trkpt>
      <trkpt lat="46.98819" lon="8.84214">
        <ele>1293</ele>
        <time>2021-08-04T07:55:16.816Z</time>
      </trkpt>
      <trkpt lat="46.98819" lon="8.84212">
        <ele>1293</ele>
        <time>2021-08-04T07:55:17.816Z</time>
      </trkpt>
      <trkpt lat="46.98818" lon="8.8421">
        <ele>1294</ele>
        <time>2021-08-04T07:55:18.817Z</time>
      </trkpt>
      <trkpt lat="46.98817" lon="8.8421">
        <ele>1294</ele>
        <time>2021-08-04T07:55:19.817Z</time>
      </trkpt>
      <trkpt lat="46.98817" lon="8.8421">
        <ele>1294</ele>
        <time>2021-08-04T07:55:20.816Z</time>
      </trkpt>
      <trkpt lat="46.98817" lon="8.84212">
        <ele>1294</ele>
        <time>2021-08-04T07:55:21.816Z</time>
      </trkpt>
      <trkpt lat="46.98819" lon="8.84211">
        <ele>1296</ele>
        <time>2021-08-04T07:55:22.817Z</time>
      </trkpt>
      <trkpt lat="46.98818" lon="8.8421">
        <ele>1297</ele>
        <time>2021-08-04T07:55:23.818Z</time>
      </trkpt>
      <trkpt lat="46.98818" lon="8.84209">
        <ele>1297</ele>
        <time>2021-08-04T07:55:24.817Z</time>
      </trkpt>
      <trkpt lat="46.98818" lon="8.84208">
        <ele>1297</ele>
        <time>2021-08-04T07:55:25.818Z</time>
      </trkpt>
      <trkpt lat="46.98818" lon="8.84206">
        <ele>1297</ele>
        <time>2021-08-04T07:55:26.818Z</time>
      </trkpt>
      <trkpt lat="46.98818" lon="8.84204">
        <ele>1297</ele>
        <time>2021-08-04T07:55:27.818Z</time>
      </trkpt>
      <trkpt lat="46.98818" lon="8.84202">
        <ele>1297</ele>
        <time>2021-08-04T07:55:28.818Z</time>
      </trkpt>
      <trkpt lat="46.98818" lon="8.84201">
        <ele>1297</ele>
        <time>2021-08-04T07:55:29.817Z</time>
      </trkpt>
      <trkpt lat="46.98818" lon="8.84199">
        <ele>1298</ele>
        <time>2021-08-04T07:55:30.817Z</time>
      </trkpt>
      <trkpt lat="46.98818" lon="8.84197">
        <ele>1297</ele>
        <time>2021-08-04T07:55:31.818Z</time>
      </trkpt>
      <trkpt lat="46.98818" lon="8.84195">
        <ele>1297</ele>
        <time>2021-08-04T07:55:32.818Z</time>
      </trkpt>
      <trkpt lat="46.98817" lon="8.84194">
        <ele>1297</ele>
        <time>2021-08-04T07:55:33.818Z</time>
      </trkpt>
      <trkpt lat="46.98817" lon="8.84192">
        <ele>1297</ele>
        <time>2021-08-04T07:55:34.817Z</time>
      </trkpt>
      <trkpt lat="46.98817" lon="8.8419">
        <ele>1297</ele>
        <time>2021-08-04T07:55:35.818Z</time>
      </trkpt>
      <trkpt lat="46.98816" lon="8.84189">
        <ele>1297</ele>
        <time>2021-08-04T07:55:36.818Z</time>
      </trkpt>
      <trkpt lat="46.98816" lon="8.84188">
        <ele>1297</ele>
        <time>2021-08-04T07:55:37.818Z</time>
      </trkpt>
      <trkpt lat="46.98816" lon="8.84186">
        <ele>1297</ele>
        <time>2021-08-04T07:55:38.818Z</time>
      </trkpt>
      <trkpt lat="46.98816" lon="8.84185">
        <ele>1297</ele>
        <time>2021-08-04T07:55:39.818Z</time>
      </trkpt>
      <trkpt lat="46.98815" lon="8.84183">
        <ele>1296</ele>
        <time>2021-08-04T07:55:40.817Z</time>
      </trkpt>
      <trkpt lat="46.98815" lon="8.84183">
        <ele>1296</ele>
        <time>2021-08-04T07:55:41.818Z</time>
      </trkpt>
      <trkpt lat="46.98815" lon="8.84183">
        <ele>1296</ele>
        <time>2021-08-04T07:55:42.817Z</time>
      </trkpt>
      <trkpt lat="46.98814" lon="8.84182">
        <ele>1296</ele>
        <time>2021-08-04T07:55:43.818Z</time>
      </trkpt>
      <trkpt lat="46.98812" lon="8.8418">
        <ele>1291</ele>
        <time>2021-08-04T07:55:44.817Z</time>
      </trkpt>
      <trkpt lat="46.98812" lon="8.84179">
        <ele>1290</ele>
        <time>2021-08-04T07:55:45.817Z</time>
      </trkpt>
      <trkpt lat="46.98811" lon="8.84178">
        <ele>1290</ele>
        <time>2021-08-04T07:55:46.817Z</time>
      </trkpt>
      <trkpt lat="46.98811" lon="8.84177">
        <ele>1290</ele>
        <time>2021-08-04T07:55:47.818Z</time>
      </trkpt>
      <trkpt lat="46.98811" lon="8.84175">
        <ele>1290</ele>
        <time>2021-08-04T07:55:48.818Z</time>
      </trkpt>
      <trkpt lat="46.98811" lon="8.84174">
        <ele>1290</ele>
        <time>2021-08-04T07:55:49.818Z</time>
      </trkpt>
      <trkpt lat="46.98811" lon="8.84172">
        <ele>1290</ele>
        <time>2021-08-04T07:55:50.818Z</time>
      </trkpt>
      <trkpt lat="46.98811" lon="8.8417">
        <ele>1291</ele>
        <time>2021-08-04T07:55:51.818Z</time>
      </trkpt>
      <trkpt lat="46.98811" lon="8.84169">
        <ele>1291</ele>
        <time>2021-08-04T07:55:52.818Z</time>
      </trkpt>
      <trkpt lat="46.98811" lon="8.84167">
        <ele>1291</ele>
        <time>2021-08-04T07:55:53.817Z</time>
      </trkpt>
      <trkpt lat="46.98811" lon="8.84166">
        <ele>1291</ele>
        <time>2021-08-04T07:55:54.817Z</time>
      </trkpt>
      <trkpt lat="46.98811" lon="8.84164">
        <ele>1291</ele>
        <time>2021-08-04T07:55:55.818Z</time>
      </trkpt>
      <trkpt lat="46.98811" lon="8.84162">
        <ele>1291</ele>
        <time>2021-08-04T07:55:56.818Z</time>
      </trkpt>
      <trkpt lat="46.98811" lon="8.84161">
        <ele>1292</ele>
        <time>2021-08-04T07:55:57.818Z</time>
      </trkpt>
      <trkpt lat="46.98811" lon="8.8416">
        <ele>1292</ele>
        <time>2021-08-04T07:55:58.817Z</time>
      </trkpt>
      <trkpt lat="46.98811" lon="8.84158">
        <ele>1292</ele>
        <time>2021-08-04T07:55:59.817Z</time>
      </trkpt>
      <trkpt lat="46.98812" lon="8.84157">
        <ele>1292</ele>
        <time>2021-08-04T07:56:00.817Z</time>
      </trkpt>
      <trkpt lat="46.98811" lon="8.84155">
        <ele>1292</ele>
        <time>2021-08-04T07:56:01.818Z</time>
      </trkpt>
      <trkpt lat="46.98811" lon="8.84154">
        <ele>1293</ele>
        <time>2021-08-04T07:56:02.818Z</time>
      </trkpt>
      <trkpt lat="46.98811" lon="8.84152">
        <ele>1293</ele>
        <time>2021-08-04T07:56:03.818Z</time>
      </trkpt>
      <trkpt lat="46.98811" lon="8.8415">
        <ele>1293</ele>
        <time>2021-08-04T07:56:04.818Z</time>
      </trkpt>
      <trkpt lat="46.98812" lon="8.84149">
        <ele>1293</ele>
        <time>2021-08-04T07:56:05.818Z</time>
      </trkpt>
      <trkpt lat="46.98812" lon="8.84147">
        <ele>1293</ele>
        <time>2021-08-04T07:56:06.818Z</time>
      </trkpt>
      <trkpt lat="46.98812" lon="8.84145">
        <ele>1293</ele>
        <time>2021-08-04T07:56:07.817Z</time>
      </trkpt>
      <trkpt lat="46.98812" lon="8.84144">
        <ele>1292</ele>
        <time>2021-08-04T07:56:08.818Z</time>
      </trkpt>
      <trkpt lat="46.98812" lon="8.84142">
        <ele>1292</ele>
        <time>2021-08-04T07:56:09.817Z</time>
      </trkpt>
      <trkpt lat="46.98812" lon="8.84141">
        <ele>1291</ele>
        <time>2021-08-04T07:56:10.818Z</time>
      </trkpt>
      <trkpt lat="46.98812" lon="8.84139">
        <ele>1291</ele>
        <time>2021-08-04T07:56:11.818Z</time>
      </trkpt>
      <trkpt lat="46.98812" lon="8.84138">
        <ele>1290</ele>
        <time>2021-08-04T07:56:12.818Z</time>
      </trkpt>
      <trkpt lat="46.98811" lon="8.84136">
        <ele>1290</ele>
        <time>2021-08-04T07:56:13.818Z</time>
      </trkpt>
      <trkpt lat="46.98811" lon="8.84134">
        <ele>1290</ele>
        <time>2021-08-04T07:56:14.818Z</time>
      </trkpt>
      <trkpt lat="46.98811" lon="8.84132">
        <ele>1290</ele>
        <time>2021-08-04T07:56:15.817Z</time>
      </trkpt>
      <trkpt lat="46.98812" lon="8.84131">
        <ele>1290</ele>
        <time>2021-08-04T07:56:16.818Z</time>
      </trkpt>
      <trkpt lat="46.98813" lon="8.8413">
        <ele>1291</ele>
        <time>2021-08-04T07:56:17.817Z</time>
      </trkpt>
      <trkpt lat="46.98813" lon="8.84129">
        <ele>1291</ele>
        <time>2021-08-04T07:56:18.817Z</time>
      </trkpt>
      <trkpt lat="46.98813" lon="8.84128">
        <ele>1291</ele>
        <time>2021-08-04T07:56:19.818Z</time>
      </trkpt>
      <trkpt lat="46.98813" lon="8.84128">
        <ele>1291</ele>
        <time>2021-08-04T07:56:20.817Z</time>
      </trkpt>
      <trkpt lat="46.98812" lon="8.84128">
        <ele>1291</ele>
        <time>2021-08-04T07:56:21.817Z</time>
      </trkpt>
      <trkpt lat="46.98813" lon="8.84126">
        <ele>1291</ele>
        <time>2021-08-04T07:56:22.818Z</time>
      </trkpt>
      <trkpt lat="46.98813" lon="8.84125">
        <ele>1290</ele>
        <time>2021-08-04T07:56:23.818Z</time>
      </trkpt>
      <trkpt lat="46.98813" lon="8.84123">
        <ele>1290</ele>
        <time>2021-08-04T07:56:24.817Z</time>
      </trkpt>
      <trkpt lat="46.98812" lon="8.84121">
        <ele>1290</ele>
        <time>2021-08-04T07:56:25.818Z</time>
      </trkpt>
      <trkpt lat="46.98812" lon="8.8412">
        <ele>1290</ele>
        <time>2021-08-04T07:56:26.818Z</time>
      </trkpt>
      <trkpt lat="46.98812" lon="8.84119">
        <ele>1290</ele>
        <time>2021-08-04T07:56:27.818Z</time>
      </trkpt>
      <trkpt lat="46.98812" lon="8.84118">
        <ele>1290</ele>
        <time>2021-08-04T07:56:28.818Z</time>
      </trkpt>
      <trkpt lat="46.98811" lon="8.84116">
        <ele>1289</ele>
        <time>2021-08-04T07:56:29.817Z</time>
      </trkpt>
      <trkpt lat="46.9881" lon="8.84114">
        <ele>1289</ele>
        <time>2021-08-04T07:56:30.817Z</time>
      </trkpt>
      <trkpt lat="46.98809" lon="8.84112">
        <ele>1289</ele>
        <time>2021-08-04T07:56:31.817Z</time>
      </trkpt>
      <trkpt lat="46.98809" lon="8.8411">
        <ele>1289</ele>
        <time>2021-08-04T07:56:32.818Z</time>
      </trkpt>
      <trkpt lat="46.98809" lon="8.84109">
        <ele>1289</ele>
        <time>2021-08-04T07:56:33.818Z</time>
      </trkpt>
      <trkpt lat="46.98809" lon="8.84107">
        <ele>1290</ele>
        <time>2021-08-04T07:56:34.818Z</time>
      </trkpt>
      <trkpt lat="46.98809" lon="8.84105">
        <ele>1290</ele>
        <time>2021-08-04T07:56:35.818Z</time>
      </trkpt>
      <trkpt lat="46.98809" lon="8.84104">
        <ele>1290</ele>
        <time>2021-08-04T07:56:36.818Z</time>
      </trkpt>
      <trkpt lat="46.98809" lon="8.84102">
        <ele>1290</ele>
        <time>2021-08-04T07:56:37.818Z</time>
      </trkpt>
      <trkpt lat="46.98809" lon="8.84101">
        <ele>1290</ele>
        <time>2021-08-04T07:56:38.817Z</time>
      </trkpt>
      <trkpt lat="46.98809" lon="8.84099">
        <ele>1290</ele>
        <time>2021-08-04T07:56:39.817Z</time>
      </trkpt>
      <trkpt lat="46.98809" lon="8.84098">
        <ele>1290</ele>
        <time>2021-08-04T07:56:40.818Z</time>
      </trkpt>
      <trkpt lat="46.98809" lon="8.84096">
        <ele>1290</ele>
        <time>2021-08-04T07:56:41.817Z</time>
      </trkpt>
      <trkpt lat="46.98809" lon="8.84095">
        <ele>1290</ele>
        <time>2021-08-04T07:56:42.817Z</time>
      </trkpt>
      <trkpt lat="46.98808" lon="8.84093">
        <ele>1290</ele>
        <time>2021-08-04T07:56:43.817Z</time>
      </trkpt>
      <trkpt lat="46.98808" lon="8.84091">
        <ele>1291</ele>
        <time>2021-08-04T07:56:44.817Z</time>
      </trkpt>
      <trkpt lat="46.98808" lon="8.84089">
        <ele>1291</ele>
        <time>2021-08-04T07:56:45.818Z</time>
      </trkpt>
      <trkpt lat="46.98808" lon="8.84087">
        <ele>1291</ele>
        <time>2021-08-04T07:56:46.818Z</time>
      </trkpt>
      <trkpt lat="46.98808" lon="8.84086">
        <ele>1292</ele>
        <time>2021-08-04T07:56:47.817Z</time>
      </trkpt>
      <trkpt lat="46.98808" lon="8.84084">
        <ele>1292</ele>
        <time>2021-08-04T07:56:48.817Z</time>
      </trkpt>
      <trkpt lat="46.98808" lon="8.84082">
        <ele>1292</ele>
        <time>2021-08-04T07:56:49.818Z</time>
      </trkpt>
      <trkpt lat="46.98809" lon="8.8408">
        <ele>1293</ele>
        <time>2021-08-04T07:56:50.818Z</time>
      </trkpt>
      <trkpt lat="46.98809" lon="8.84078">
        <ele>1293</ele>
        <time>2021-08-04T07:56:51.817Z</time>
      </trkpt>
      <trkpt lat="46.98809" lon="8.84076">
        <ele>1293</ele>
        <time>2021-08-04T07:56:52.818Z</time>
      </trkpt>
      <trkpt lat="46.98809" lon="8.84074">
        <ele>1292</ele>
        <time>2021-08-04T07:56:53.818Z</time>
      </trkpt>
      <trkpt lat="46.98809" lon="8.84072">
        <ele>1292</ele>
        <time>2021-08-04T07:56:54.817Z</time>
      </trkpt>
      <trkpt lat="46.98809" lon="8.84071">
        <ele>1291</ele>
        <time>2021-08-04T07:56:55.818Z</time>
      </trkpt>
      <trkpt lat="46.98808" lon="8.84069">
        <ele>1291</ele>
        <time>2021-08-04T07:56:56.818Z</time>
      </trkpt>
      <trkpt lat="46.98808" lon="8.84067">
        <ele>1290</ele>
        <time>2021-08-04T07:56:57.818Z</time>
      </trkpt>
      <trkpt lat="46.98808" lon="8.84064">
        <ele>1290</ele>
        <time>2021-08-04T07:56:58.818Z</time>
      </trkpt>
      <trkpt lat="46.98808" lon="8.84062">
        <ele>1289</ele>
        <time>2021-08-04T07:56:59.817Z</time>
      </trkpt>
      <trkpt lat="46.98808" lon="8.84061">
        <ele>1289</ele>
        <time>2021-08-04T07:57:00.817Z</time>
      </trkpt>
      <trkpt lat="46.98808" lon="8.84059">
        <ele>1289</ele>
        <time>2021-08-04T07:57:01.818Z</time>
      </trkpt>
      <trkpt lat="46.98808" lon="8.84057">
        <ele>1289</ele>
        <time>2021-08-04T07:57:02.818Z</time>
      </trkpt>
      <trkpt lat="46.98808" lon="8.84056">
        <ele>1290</ele>
        <time>2021-08-04T07:57:03.817Z</time>
      </trkpt>
      <trkpt lat="46.98808" lon="8.84054">
        <ele>1291</ele>
        <time>2021-08-04T07:57:04.817Z</time>
      </trkpt>
      <trkpt lat="46.98808" lon="8.84053">
        <ele>1291</ele>
        <time>2021-08-04T07:57:05.818Z</time>
      </trkpt>
      <trkpt lat="46.98808" lon="8.84051">
        <ele>1291</ele>
        <time>2021-08-04T07:57:06.817Z</time>
      </trkpt>
      <trkpt lat="46.98808" lon="8.8405">
        <ele>1291</ele>
        <time>2021-08-04T07:57:07.818Z</time>
      </trkpt>
      <trkpt lat="46.98808" lon="8.84048">
        <ele>1290</ele>
        <time>2021-08-04T07:57:08.818Z</time>
      </trkpt>
      <trkpt lat="46.98808" lon="8.84046">
        <ele>1290</ele>
        <time>2021-08-04T07:57:09.818Z</time>
      </trkpt>
      <trkpt lat="46.98808" lon="8.84045">
        <ele>1290</ele>
        <time>2021-08-04T07:57:10.818Z</time>
      </trkpt>
      <trkpt lat="46.98809" lon="8.84043">
        <ele>1290</ele>
        <time>2021-08-04T07:57:11.818Z</time>
      </trkpt>
      <trkpt lat="46.98809" lon="8.84042">
        <ele>1289</ele>
        <time>2021-08-04T07:57:12.817Z</time>
      </trkpt>
      <trkpt lat="46.98809" lon="8.8404">
        <ele>1288</ele>
        <time>2021-08-04T07:57:13.818Z</time>
      </trkpt>
      <trkpt lat="46.98809" lon="8.84039">
        <ele>1288</ele>
        <time>2021-08-04T07:57:14.817Z</time>
      </trkpt>
      <trkpt lat="46.98809" lon="8.84037">
        <ele>1287</ele>
        <time>2021-08-04T07:57:15.817Z</time>
      </trkpt>
      <trkpt lat="46.98809" lon="8.84036">
        <ele>1287</ele>
        <time>2021-08-04T07:57:16.818Z</time>
      </trkpt>
      <trkpt lat="46.98809" lon="8.84034">
        <ele>1286</ele>
        <time>2021-08-04T07:57:17.818Z</time>
      </trkpt>
      <trkpt lat="46.98809" lon="8.84032">
        <ele>1286</ele>
        <time>2021-08-04T07:57:18.818Z</time>
      </trkpt>
      <trkpt lat="46.98809" lon="8.84031">
        <ele>1285</ele>
        <time>2021-08-04T07:57:19.818Z</time>
      </trkpt>
      <trkpt lat="46.98809" lon="8.84029">
        <ele>1285</ele>
        <time>2021-08-04T07:57:20.817Z</time>
      </trkpt>
      <trkpt lat="46.9881" lon="8.84027">
        <ele>1285</ele>
        <time>2021-08-04T07:57:21.818Z</time>
      </trkpt>
      <trkpt lat="46.9881" lon="8.84025">
        <ele>1285</ele>
        <time>2021-08-04T07:57:22.817Z</time>
      </trkpt>
      <trkpt lat="46.98811" lon="8.84024">
        <ele>1285</ele>
        <time>2021-08-04T07:57:23.817Z</time>
      </trkpt>
      <trkpt lat="46.98811" lon="8.84021">
        <ele>1284</ele>
        <time>2021-08-04T07:57:24.817Z</time>
      </trkpt>
      <trkpt lat="46.98811" lon="8.84019">
        <ele>1284</ele>
        <time>2021-08-04T07:57:25.818Z</time>
      </trkpt>
      <trkpt lat="46.98812" lon="8.84018">
        <ele>1284</ele>
        <time>2021-08-04T07:57:26.818Z</time>
      </trkpt>
      <trkpt lat="46.98812" lon="8.84016">
        <ele>1283</ele>
        <time>2021-08-04T07:57:27.818Z</time>
      </trkpt>
      <trkpt lat="46.98812" lon="8.84015">
        <ele>1283</ele>
        <time>2021-08-04T07:57:28.818Z</time>
      </trkpt>
      <trkpt lat="46.98812" lon="8.84013">
        <ele>1282</ele>
        <time>2021-08-04T07:57:29.817Z</time>
      </trkpt>
      <trkpt lat="46.98813" lon="8.84011">
        <ele>1282</ele>
        <time>2021-08-04T07:57:30.818Z</time>
      </trkpt>
      <trkpt lat="46.98813" lon="8.8401">
        <ele>1281</ele>
        <time>2021-08-04T07:57:31.818Z</time>
      </trkpt>
      <trkpt lat="46.98812" lon="8.84008">
        <ele>1280</ele>
        <time>2021-08-04T07:57:32.818Z</time>
      </trkpt>
      <trkpt lat="46.98812" lon="8.84007">
        <ele>1280</ele>
        <time>2021-08-04T07:57:33.817Z</time>
      </trkpt>
      <trkpt lat="46.98812" lon="8.84005">
        <ele>1280</ele>
        <time>2021-08-04T07:57:34.818Z</time>
      </trkpt>
      <trkpt lat="46.98811" lon="8.84003">
        <ele>1280</ele>
        <time>2021-08-04T07:57:35.818Z</time>
      </trkpt>
      <trkpt lat="46.98811" lon="8.84001">
        <ele>1280</ele>
        <time>2021-08-04T07:57:36.817Z</time>
      </trkpt>
      <trkpt lat="46.9881" lon="8.83999">
        <ele>1280</ele>
        <time>2021-08-04T07:57:37.817Z</time>
      </trkpt>
      <trkpt lat="46.9881" lon="8.83996">
        <ele>1280</ele>
        <time>2021-08-04T07:57:38.817Z</time>
      </trkpt>
      <trkpt lat="46.9881" lon="8.83994">
        <ele>1280</ele>
        <time>2021-08-04T07:57:39.817Z</time>
      </trkpt>
      <trkpt lat="46.98809" lon="8.83992">
        <ele>1280</ele>
        <time>2021-08-04T07:57:40.817Z</time>
      </trkpt>
      <trkpt lat="46.98809" lon="8.8399">
        <ele>1281</ele>
        <time>2021-08-04T07:57:41.817Z</time>
      </trkpt>
      <trkpt lat="46.98809" lon="8.83988">
        <ele>1281</ele>
        <time>2021-08-04T07:57:42.818Z</time>
      </trkpt>
      <trkpt lat="46.98808" lon="8.83986">
        <ele>1281</ele>
        <time>2021-08-04T07:57:43.818Z</time>
      </trkpt>
      <trkpt lat="46.98808" lon="8.83985">
        <ele>1280</ele>
        <time>2021-08-04T07:57:44.818Z</time>
      </trkpt>
      <trkpt lat="46.98808" lon="8.83984">
        <ele>1280</ele>
        <time>2021-08-04T07:57:45.818Z</time>
      </trkpt>
      <trkpt lat="46.98808" lon="8.83983">
        <ele>1279</ele>
        <time>2021-08-04T07:57:46.817Z</time>
      </trkpt>
      <trkpt lat="46.98808" lon="8.83981">
        <ele>1279</ele>
        <time>2021-08-04T07:57:47.818Z</time>
      </trkpt>
      <trkpt lat="46.98808" lon="8.8398">
        <ele>1279</ele>
        <time>2021-08-04T07:57:48.817Z</time>
      </trkpt>
      <trkpt lat="46.98809" lon="8.83978">
        <ele>1278</ele>
        <time>2021-08-04T07:57:49.817Z</time>
      </trkpt>
      <trkpt lat="46.98809" lon="8.83976">
        <ele>1278</ele>
        <time>2021-08-04T07:57:50.817Z</time>
      </trkpt>
      <trkpt lat="46.98809" lon="8.83974">
        <ele>1278</ele>
        <time>2021-08-04T07:57:51.817Z</time>
      </trkpt>
      <trkpt lat="46.9881" lon="8.83972">
        <ele>1277</ele>
        <time>2021-08-04T07:57:52.817Z</time>
      </trkpt>
      <trkpt lat="46.9881" lon="8.8397">
        <ele>1277</ele>
        <time>2021-08-04T07:57:53.817Z</time>
      </trkpt>
      <trkpt lat="46.9881" lon="8.83969">
        <ele>1277</ele>
        <time>2021-08-04T07:57:54.817Z</time>
      </trkpt>
      <trkpt lat="46.98809" lon="8.83967">
        <ele>1277</ele>
        <time>2021-08-04T07:57:55.817Z</time>
      </trkpt>
      <trkpt lat="46.9881" lon="8.83966">
        <ele>1277</ele>
        <time>2021-08-04T07:57:56.818Z</time>
      </trkpt>
      <trkpt lat="46.9881" lon="8.83964">
        <ele>1278</ele>
        <time>2021-08-04T07:57:57.818Z</time>
      </trkpt>
      <trkpt lat="46.9881" lon="8.83962">
        <ele>1278</ele>
        <time>2021-08-04T07:57:58.818Z</time>
      </trkpt>
      <trkpt lat="46.9881" lon="8.8396">
        <ele>1278</ele>
        <time>2021-08-04T07:57:59.818Z</time>
      </trkpt>
      <trkpt lat="46.9881" lon="8.83959">
        <ele>1278</ele>
        <time>2021-08-04T07:58:00.818Z</time>
      </trkpt>
      <trkpt lat="46.9881" lon="8.83957">
        <ele>1278</ele>
        <time>2021-08-04T07:58:01.817Z</time>
      </trkpt>
      <trkpt lat="46.9881" lon="8.83956">
        <ele>1278</ele>
        <time>2021-08-04T07:58:02.817Z</time>
      </trkpt>
      <trkpt lat="46.98811" lon="8.83954">
        <ele>1278</ele>
        <time>2021-08-04T07:58:03.818Z</time>
      </trkpt>
      <trkpt lat="46.98811" lon="8.83952">
        <ele>1279</ele>
        <time>2021-08-04T07:58:04.818Z</time>
      </trkpt>
      <trkpt lat="46.98812" lon="8.8395">
        <ele>1279</ele>
        <time>2021-08-04T07:58:05.818Z</time>
      </trkpt>
      <trkpt lat="46.98813" lon="8.83948">
        <ele>1280</ele>
        <time>2021-08-04T07:58:06.818Z</time>
      </trkpt>
      <trkpt lat="46.98813" lon="8.83946">
        <ele>1280</ele>
        <time>2021-08-04T07:58:07.818Z</time>
      </trkpt>
      <trkpt lat="46.98813" lon="8.83945">
        <ele>1281</ele>
        <time>2021-08-04T07:58:08.818Z</time>
      </trkpt>
      <trkpt lat="46.98813" lon="8.83943">
        <ele>1281</ele>
        <time>2021-08-04T07:58:09.817Z</time>
      </trkpt>
      <trkpt lat="46.98814" lon="8.83942">
        <ele>1282</ele>
        <time>2021-08-04T07:58:10.818Z</time>
      </trkpt>
      <trkpt lat="46.98814" lon="8.8394">
        <ele>1283</ele>
        <time>2021-08-04T07:58:11.818Z</time>
      </trkpt>
      <trkpt lat="46.98814" lon="8.83939">
        <ele>1283</ele>
        <time>2021-08-04T07:58:12.818Z</time>
      </trkpt>
      <trkpt lat="46.98814" lon="8.83937">
        <ele>1284</ele>
        <time>2021-08-04T07:58:13.818Z</time>
      </trkpt>
      <trkpt lat="46.98814" lon="8.83935">
        <ele>1285</ele>
        <time>2021-08-04T07:58:14.818Z</time>
      </trkpt>
      <trkpt lat="46.98814" lon="8.83934">
        <ele>1285</ele>
        <time>2021-08-04T07:58:15.817Z</time>
      </trkpt>
      <trkpt lat="46.98814" lon="8.83932">
        <ele>1285</ele>
        <time>2021-08-04T07:58:16.817Z</time>
      </trkpt>
      <trkpt lat="46.98815" lon="8.8393">
        <ele>1285</ele>
        <time>2021-08-04T07:58:17.818Z</time>
      </trkpt>
      <trkpt lat="46.98815" lon="8.83929">
        <ele>1285</ele>
        <time>2021-08-04T07:58:18.817Z</time>
      </trkpt>
      <trkpt lat="46.98815" lon="8.83927">
        <ele>1285</ele>
        <time>2021-08-04T07:58:19.817Z</time>
      </trkpt>
      <trkpt lat="46.98815" lon="8.83925">
        <ele>1285</ele>
        <time>2021-08-04T07:58:20.817Z</time>
      </trkpt>
      <trkpt lat="46.98815" lon="8.83923">
        <ele>1286</ele>
        <time>2021-08-04T07:58:21.817Z</time>
      </trkpt>
      <trkpt lat="46.98815" lon="8.83921">
        <ele>1286</ele>
        <time>2021-08-04T07:58:22.818Z</time>
      </trkpt>
      <trkpt lat="46.98814" lon="8.8392">
        <ele>1286</ele>
        <time>2021-08-04T07:58:23.817Z</time>
      </trkpt>
      <trkpt lat="46.98814" lon="8.83918">
        <ele>1286</ele>
        <time>2021-08-04T07:58:24.818Z</time>
      </trkpt>
      <trkpt lat="46.98815" lon="8.83916">
        <ele>1286</ele>
        <time>2021-08-04T07:58:25.818Z</time>
      </trkpt>
      <trkpt lat="46.98815" lon="8.83915">
        <ele>1286</ele>
        <time>2021-08-04T07:58:26.818Z</time>
      </trkpt>
      <trkpt lat="46.98815" lon="8.83913">
        <ele>1286</ele>
        <time>2021-08-04T07:58:27.818Z</time>
      </trkpt>
      <trkpt lat="46.98815" lon="8.83911">
        <ele>1286</ele>
        <time>2021-08-04T07:58:28.818Z</time>
      </trkpt>
      <trkpt lat="46.98815" lon="8.83909">
        <ele>1286</ele>
        <time>2021-08-04T07:58:29.818Z</time>
      </trkpt>
      <trkpt lat="46.98815" lon="8.83908">
        <ele>1286</ele>
        <time>2021-08-04T07:58:30.817Z</time>
      </trkpt>
      <trkpt lat="46.98815" lon="8.83905">
        <ele>1285</ele>
        <time>2021-08-04T07:58:31.817Z</time>
      </trkpt>
      <trkpt lat="46.98816" lon="8.83903">
        <ele>1285</ele>
        <time>2021-08-04T07:58:32.818Z</time>
      </trkpt>
      <trkpt lat="46.98817" lon="8.83902">
        <ele>1284</ele>
        <time>2021-08-04T07:58:33.818Z</time>
      </trkpt>
      <trkpt lat="46.98817" lon="8.839">
        <ele>1284</ele>
        <time>2021-08-04T07:58:34.818Z</time>
      </trkpt>
      <trkpt lat="46.98817" lon="8.83899">
        <ele>1283</ele>
        <time>2021-08-04T07:58:35.817Z</time>
      </trkpt>
      <trkpt lat="46.98818" lon="8.83898">
        <ele>1283</ele>
        <time>2021-08-04T07:58:36.817Z</time>
      </trkpt>
      <trkpt lat="46.98818" lon="8.83896">
        <ele>1282</ele>
        <time>2021-08-04T07:58:37.818Z</time>
      </trkpt>
      <trkpt lat="46.98818" lon="8.83894">
        <ele>1282</ele>
        <time>2021-08-04T07:58:38.817Z</time>
      </trkpt>
      <trkpt lat="46.98819" lon="8.83893">
        <ele>1282</ele>
        <time>2021-08-04T07:58:39.818Z</time>
      </trkpt>
      <trkpt lat="46.98819" lon="8.83891">
        <ele>1282</ele>
        <time>2021-08-04T07:58:40.818Z</time>
      </trkpt>
      <trkpt lat="46.9882" lon="8.83889">
        <ele>1282</ele>
        <time>2021-08-04T07:58:41.818Z</time>
      </trkpt>
      <trkpt lat="46.9882" lon="8.83887">
        <ele>1282</ele>
        <time>2021-08-04T07:58:42.818Z</time>
      </trkpt>
      <trkpt lat="46.9882" lon="8.83885">
        <ele>1282</ele>
        <time>2021-08-04T07:58:43.818Z</time>
      </trkpt>
      <trkpt lat="46.98821" lon="8.83883">
        <ele>1282</ele>
        <time>2021-08-04T07:58:44.818Z</time>
      </trkpt>
      <trkpt lat="46.98821" lon="8.83881">
        <ele>1281</ele>
        <time>2021-08-04T07:58:45.818Z</time>
      </trkpt>
      <trkpt lat="46.98821" lon="8.83879">
        <ele>1281</ele>
        <time>2021-08-04T07:58:46.817Z</time>
      </trkpt>
      <trkpt lat="46.98821" lon="8.83878">
        <ele>1280</ele>
        <time>2021-08-04T07:58:47.818Z</time>
      </trkpt>
      <trkpt lat="46.98821" lon="8.83876">
        <ele>1280</ele>
        <time>2021-08-04T07:58:48.817Z</time>
      </trkpt>
      <trkpt lat="46.98821" lon="8.83875">
        <ele>1280</ele>
        <time>2021-08-04T07:58:49.817Z</time>
      </trkpt>
      <trkpt lat="46.98822" lon="8.83873">
        <ele>1279</ele>
        <time>2021-08-04T07:58:50.817Z</time>
      </trkpt>
      <trkpt lat="46.98822" lon="8.83872">
        <ele>1280</ele>
        <time>2021-08-04T07:58:51.818Z</time>
      </trkpt>
      <trkpt lat="46.98822" lon="8.83871">
        <ele>1280</ele>
        <time>2021-08-04T07:58:52.817Z</time>
      </trkpt>
      <trkpt lat="46.98822" lon="8.83869">
        <ele>1280</ele>
        <time>2021-08-04T07:58:53.818Z</time>
      </trkpt>
      <trkpt lat="46.98822" lon="8.83867">
        <ele>1279</ele>
        <time>2021-08-04T07:58:54.818Z</time>
      </trkpt>
      <trkpt lat="46.98822" lon="8.83865">
        <ele>1279</ele>
        <time>2021-08-04T07:58:55.817Z</time>
      </trkpt>
      <trkpt lat="46.98822" lon="8.83863">
        <ele>1279</ele>
        <time>2021-08-04T07:58:56.818Z</time>
      </trkpt>
      <trkpt lat="46.98823" lon="8.83862">
        <ele>1279</ele>
        <time>2021-08-04T07:58:57.818Z</time>
      </trkpt>
      <trkpt lat="46.98823" lon="8.8386">
        <ele>1279</ele>
        <time>2021-08-04T07:58:58.818Z</time>
      </trkpt>
      <trkpt lat="46.98823" lon="8.83858">
        <ele>1279</ele>
        <time>2021-08-04T07:58:59.817Z</time>
      </trkpt>
      <trkpt lat="46.98824" lon="8.83857">
        <ele>1280</ele>
        <time>2021-08-04T07:59:00.817Z</time>
      </trkpt>
      <trkpt lat="46.98824" lon="8.83855">
        <ele>1280</ele>
        <time>2021-08-04T07:59:01.818Z</time>
      </trkpt>
      <trkpt lat="46.98824" lon="8.83853">
        <ele>1280</ele>
        <time>2021-08-04T07:59:02.817Z</time>
      </trkpt>
      <trkpt lat="46.98825" lon="8.83851">
        <ele>1280</ele>
        <time>2021-08-04T07:59:03.818Z</time>
      </trkpt>
      <trkpt lat="46.98826" lon="8.83849">
        <ele>1280</ele>
        <time>2021-08-04T07:59:04.817Z</time>
      </trkpt>
      <trkpt lat="46.98826" lon="8.83847">
        <ele>1281</ele>
        <time>2021-08-04T07:59:05.818Z</time>
      </trkpt>
      <trkpt lat="46.98827" lon="8.83845">
        <ele>1281</ele>
        <time>2021-08-04T07:59:06.817Z</time>
      </trkpt>
      <trkpt lat="46.98828" lon="8.83843">
        <ele>1281</ele>
        <time>2021-08-04T07:59:07.817Z</time>
      </trkpt>
      <trkpt lat="46.98828" lon="8.83841">
        <ele>1281</ele>
        <time>2021-08-04T07:59:08.818Z</time>
      </trkpt>
      <trkpt lat="46.98829" lon="8.8384">
        <ele>1281</ele>
        <time>2021-08-04T07:59:09.817Z</time>
      </trkpt>
      <trkpt lat="46.98829" lon="8.83839">
        <ele>1281</ele>
        <time>2021-08-04T07:59:10.818Z</time>
      </trkpt>
      <trkpt lat="46.9883" lon="8.83838">
        <ele>1281</ele>
        <time>2021-08-04T07:59:11.818Z</time>
      </trkpt>
      <trkpt lat="46.98831" lon="8.83837">
        <ele>1281</ele>
        <time>2021-08-04T07:59:12.818Z</time>
      </trkpt>
      <trkpt lat="46.98831" lon="8.83835">
        <ele>1282</ele>
        <time>2021-08-04T07:59:13.818Z</time>
      </trkpt>
      <trkpt lat="46.98831" lon="8.83833">
        <ele>1282</ele>
        <time>2021-08-04T07:59:14.817Z</time>
      </trkpt>
      <trkpt lat="46.98832" lon="8.83832">
        <ele>1282</ele>
        <time>2021-08-04T07:59:15.818Z</time>
      </trkpt>
      <trkpt lat="46.98833" lon="8.8383">
        <ele>1282</ele>
        <time>2021-08-04T07:59:16.818Z</time>
      </trkpt>
      <trkpt lat="46.98834" lon="8.83829">
        <ele>1282</ele>
        <time>2021-08-04T07:59:17.818Z</time>
      </trkpt>
      <trkpt lat="46.98834" lon="8.83827">
        <ele>1282</ele>
        <time>2021-08-04T07:59:18.818Z</time>
      </trkpt>
      <trkpt lat="46.98834" lon="8.83825">
        <ele>1282</ele>
        <time>2021-08-04T07:59:19.817Z</time>
      </trkpt>
      <trkpt lat="46.98834" lon="8.83824">
        <ele>1282</ele>
        <time>2021-08-04T07:59:20.817Z</time>
      </trkpt>
      <trkpt lat="46.98834" lon="8.83822">
        <ele>1282</ele>
        <time>2021-08-04T07:59:21.817Z</time>
      </trkpt>
      <trkpt lat="46.98834" lon="8.83821">
        <ele>1282</ele>
        <time>2021-08-04T07:59:22.817Z</time>
      </trkpt>
      <trkpt lat="46.98835" lon="8.83819">
        <ele>1282</ele>
        <time>2021-08-04T07:59:23.818Z</time>
      </trkpt>
      <trkpt lat="46.98835" lon="8.83818">
        <ele>1281</ele>
        <time>2021-08-04T07:59:24.818Z</time>
      </trkpt>
      <trkpt lat="46.98835" lon="8.83817">
        <ele>1280</ele>
        <time>2021-08-04T07:59:25.817Z</time>
      </trkpt>
      <trkpt lat="46.98835" lon="8.83815">
        <ele>1280</ele>
        <time>2021-08-04T07:59:26.817Z</time>
      </trkpt>
      <trkpt lat="46.98835" lon="8.83813">
        <ele>1279</ele>
        <time>2021-08-04T07:59:27.818Z</time>
      </trkpt>
      <trkpt lat="46.98835" lon="8.83812">
        <ele>1279</ele>
        <time>2021-08-04T07:59:28.818Z</time>
      </trkpt>
      <trkpt lat="46.98835" lon="8.8381">
        <ele>1278</ele>
        <time>2021-08-04T07:59:29.818Z</time>
      </trkpt>
      <trkpt lat="46.98836" lon="8.83808">
        <ele>1278</ele>
        <time>2021-08-04T07:59:30.817Z</time>
      </trkpt>
      <trkpt lat="46.98836" lon="8.83807">
        <ele>1278</ele>
        <time>2021-08-04T07:59:31.818Z</time>
      </trkpt>
      <trkpt lat="46.98837" lon="8.83806">
        <ele>1278</ele>
        <time>2021-08-04T07:59:32.818Z</time>
      </trkpt>
      <trkpt lat="46.98837" lon="8.83804">
        <ele>1277</ele>
        <time>2021-08-04T07:59:33.817Z</time>
      </trkpt>
      <trkpt lat="46.98837" lon="8.83803">
        <ele>1277</ele>
        <time>2021-08-04T07:59:34.818Z</time>
      </trkpt>
      <trkpt lat="46.98837" lon="8.83801">
        <ele>1277</ele>
        <time>2021-08-04T07:59:35.818Z</time>
      </trkpt>
      <trkpt lat="46.98837" lon="8.83798">
        <ele>1277</ele>
        <time>2021-08-04T07:59:36.818Z</time>
      </trkpt>
      <trkpt lat="46.98837" lon="8.83796">
        <ele>1277</ele>
        <time>2021-08-04T07:59:37.818Z</time>
      </trkpt>
      <trkpt lat="46.98837" lon="8.83794">
        <ele>1277</ele>
        <time>2021-08-04T07:59:38.817Z</time>
      </trkpt>
      <trkpt lat="46.98837" lon="8.83793">
        <ele>1276</ele>
        <time>2021-08-04T07:59:39.817Z</time>
      </trkpt>
      <trkpt lat="46.98837" lon="8.83791">
        <ele>1276</ele>
        <time>2021-08-04T07:59:40.818Z</time>
      </trkpt>
      <trkpt lat="46.98837" lon="8.8379">
        <ele>1276</ele>
        <time>2021-08-04T07:59:41.817Z</time>
      </trkpt>
      <trkpt lat="46.98837" lon="8.83788">
        <ele>1276</ele>
        <time>2021-08-04T07:59:42.818Z</time>
      </trkpt>
      <trkpt lat="46.98837" lon="8.83786">
        <ele>1276</ele>
        <time>2021-08-04T07:59:43.818Z</time>
      </trkpt>
      <trkpt lat="46.98837" lon="8.83785">
        <ele>1276</ele>
        <time>2021-08-04T07:59:44.817Z</time>
      </trkpt>
      <trkpt lat="46.98837" lon="8.83783">
        <ele>1276</ele>
        <time>2021-08-04T07:59:45.818Z</time>
      </trkpt>
      <trkpt lat="46.98837" lon="8.83781">
        <ele>1276</ele>
        <time>2021-08-04T07:59:46.818Z</time>
      </trkpt>
      <trkpt lat="46.98838" lon="8.83779">
        <ele>1276</ele>
        <time>2021-08-04T07:59:47.818Z</time>
      </trkpt>
      <trkpt lat="46.98838" lon="8.83778">
        <ele>1276</ele>
        <time>2021-08-04T07:59:48.817Z</time>
      </trkpt>
      <trkpt lat="46.98838" lon="8.83776">
        <ele>1276</ele>
        <time>2021-08-04T07:59:49.817Z</time>
      </trkpt>
      <trkpt lat="46.98838" lon="8.83775">
        <ele>1276</ele>
        <time>2021-08-04T07:59:50.817Z</time>
      </trkpt>
      <trkpt lat="46.98838" lon="8.83774">
        <ele>1276</ele>
        <time>2021-08-04T07:59:51.818Z</time>
      </trkpt>
      <trkpt lat="46.98838" lon="8.83773">
        <ele>1276</ele>
        <time>2021-08-04T07:59:52.818Z</time>
      </trkpt>
      <trkpt lat="46.98838" lon="8.83772">
        <ele>1276</ele>
        <time>2021-08-04T07:59:53.818Z</time>
      </trkpt>
      <trkpt lat="46.98838" lon="8.83772">
        <ele>1276</ele>
        <time>2021-08-04T07:59:54.817Z</time>
      </trkpt>
      <trkpt lat="46.98837" lon="8.83772">
        <ele>1272</ele>
        <time>2021-08-04T07:59:55.820Z</time>
      </trkpt>
      <trkpt lat="46.98836" lon="8.83772">
        <ele>1271</ele>
        <time>2021-08-04T07:59:56.820Z</time>
      </trkpt>
      <trkpt lat="46.98837" lon="8.83771">
        <ele>1270</ele>
        <time>2021-08-04T07:59:57.819Z</time>
      </trkpt>
      <trkpt lat="46.98837" lon="8.83771">
        <ele>1269</ele>
        <time>2021-08-04T07:59:58.819Z</time>
      </trkpt>
      <trkpt lat="46.98837" lon="8.83771">
        <ele>1269</ele>
        <time>2021-08-04T07:59:59.820Z</time>
      </trkpt>
      <trkpt lat="46.98837" lon="8.83771">
        <ele>1268</ele>
        <time>2021-08-04T08:00:00.819Z</time>
      </trkpt>
      <trkpt lat="46.98836" lon="8.8377">
        <ele>1268</ele>
        <time>2021-08-04T08:00:01.820Z</time>
      </trkpt>
      <trkpt lat="46.98836" lon="8.83769">
        <ele>1268</ele>
        <time>2021-08-04T08:00:02.819Z</time>
      </trkpt>
      <trkpt lat="46.98836" lon="8.83768">
        <ele>1268</ele>
        <time>2021-08-04T08:00:03.819Z</time>
      </trkpt>
      <trkpt lat="46.98836" lon="8.83766">
        <ele>1268</ele>
        <time>2021-08-04T08:00:04.820Z</time>
      </trkpt>
      <trkpt lat="46.98836" lon="8.83765">
        <ele>1268</ele>
        <time>2021-08-04T08:00:05.819Z</time>
      </trkpt>
      <trkpt lat="46.98836" lon="8.83763">
        <ele>1269</ele>
        <time>2021-08-04T08:00:06.819Z</time>
      </trkpt>
      <trkpt lat="46.98837" lon="8.83761">
        <ele>1269</ele>
        <time>2021-08-04T08:00:07.820Z</time>
      </trkpt>
      <trkpt lat="46.98837" lon="8.8376">
        <ele>1269</ele>
        <time>2021-08-04T08:00:08.820Z</time>
      </trkpt>
      <trkpt lat="46.98837" lon="8.83758">
        <ele>1269</ele>
        <time>2021-08-04T08:00:09.820Z</time>
      </trkpt>
      <trkpt lat="46.98837" lon="8.83757">
        <ele>1269</ele>
        <time>2021-08-04T08:00:10.820Z</time>
      </trkpt>
      <trkpt lat="46.98838" lon="8.83755">
        <ele>1269</ele>
        <time>2021-08-04T08:00:11.819Z</time>
      </trkpt>
      <trkpt lat="46.98838" lon="8.83754">
        <ele>1269</ele>
        <time>2021-08-04T08:00:12.819Z</time>
      </trkpt>
      <trkpt lat="46.98839" lon="8.83752">
        <ele>1269</ele>
        <time>2021-08-04T08:00:13.819Z</time>
      </trkpt>
      <trkpt lat="46.98839" lon="8.8375">
        <ele>1269</ele>
        <time>2021-08-04T08:00:14.819Z</time>
      </trkpt>
      <trkpt lat="46.9884" lon="8.83749">
        <ele>1270</ele>
        <time>2021-08-04T08:00:15.819Z</time>
      </trkpt>
      <trkpt lat="46.9884" lon="8.83747">
        <ele>1270</ele>
        <time>2021-08-04T08:00:16.819Z</time>
      </trkpt>
      <trkpt lat="46.9884" lon="8.83745">
        <ele>1271</ele>
        <time>2021-08-04T08:00:17.820Z</time>
      </trkpt>
      <trkpt lat="46.98841" lon="8.83744">
        <ele>1271</ele>
        <time>2021-08-04T08:00:18.819Z</time>
      </trkpt>
      <trkpt lat="46.98841" lon="8.83742">
        <ele>1272</ele>
        <time>2021-08-04T08:00:19.819Z</time>
      </trkpt>
      <trkpt lat="46.98842" lon="8.83741">
        <ele>1272</ele>
        <time>2021-08-04T08:00:20.819Z</time>
      </trkpt>
      <trkpt lat="46.98843" lon="8.8374">
        <ele>1273</ele>
        <time>2021-08-04T08:00:21.819Z</time>
      </trkpt>
      <trkpt lat="46.98843" lon="8.83738">
        <ele>1273</ele>
        <time>2021-08-04T08:00:22.819Z</time>
      </trkpt>
      <trkpt lat="46.98844" lon="8.83737">
        <ele>1273</ele>
        <time>2021-08-04T08:00:23.819Z</time>
      </trkpt>
      <trkpt lat="46.98844" lon="8.83735">
        <ele>1273</ele>
        <time>2021-08-04T08:00:24.819Z</time>
      </trkpt>
      <trkpt lat="46.98845" lon="8.83733">
        <ele>1274</ele>
        <time>2021-08-04T08:00:25.819Z</time>
      </trkpt>
      <trkpt lat="46.98846" lon="8.83731">
        <ele>1274</ele>
        <time>2021-08-04T08:00:26.819Z</time>
      </trkpt>
      <trkpt lat="46.98846" lon="8.8373">
        <ele>1274</ele>
        <time>2021-08-04T08:00:27.820Z</time>
      </trkpt>
      <trkpt lat="46.98846" lon="8.83728">
        <ele>1274</ele>
        <time>2021-08-04T08:00:28.819Z</time>
      </trkpt>
      <trkpt lat="46.98847" lon="8.83726">
        <ele>1274</ele>
        <time>2021-08-04T08:00:29.820Z</time>
      </trkpt>
      <trkpt lat="46.98848" lon="8.83724">
        <ele>1275</ele>
        <time>2021-08-04T08:00:30.819Z</time>
      </trkpt>
      <trkpt lat="46.98849" lon="8.83722">
        <ele>1275</ele>
        <time>2021-08-04T08:00:31.819Z</time>
      </trkpt>
      <trkpt lat="46.98851" lon="8.8372">
        <ele>1275</ele>
        <time>2021-08-04T08:00:32.819Z</time>
      </trkpt>
      <trkpt lat="46.98854" lon="8.83718">
        <ele>1276</ele>
        <time>2021-08-04T08:00:33.820Z</time>
      </trkpt>
      <trkpt lat="46.98854" lon="8.83717">
        <ele>1276</ele>
        <time>2021-08-04T08:00:34.820Z</time>
      </trkpt>
      <trkpt lat="46.98855" lon="8.83715">
        <ele>1277</ele>
        <time>2021-08-04T08:00:35.819Z</time>
      </trkpt>
      <trkpt lat="46.98855" lon="8.83714">
        <ele>1277</ele>
        <time>2021-08-04T08:00:36.820Z</time>
      </trkpt>
      <trkpt lat="46.98856" lon="8.83712">
        <ele>1278</ele>
        <time>2021-08-04T08:00:37.820Z</time>
      </trkpt>
      <trkpt lat="46.98857" lon="8.83711">
        <ele>1279</ele>
        <time>2021-08-04T08:00:38.820Z</time>
      </trkpt>
      <trkpt lat="46.98858" lon="8.83709">
        <ele>1279</ele>
        <time>2021-08-04T08:00:39.820Z</time>
      </trkpt>
      <trkpt lat="46.98859" lon="8.83707">
        <ele>1280</ele>
        <time>2021-08-04T08:00:40.820Z</time>
      </trkpt>
      <trkpt lat="46.98859" lon="8.83706">
        <ele>1280</ele>
        <time>2021-08-04T08:00:41.820Z</time>
      </trkpt>
      <trkpt lat="46.9886" lon="8.83705">
        <ele>1280</ele>
        <time>2021-08-04T08:00:42.820Z</time>
      </trkpt>
      <trkpt lat="46.9886" lon="8.83703">
        <ele>1281</ele>
        <time>2021-08-04T08:00:43.820Z</time>
      </trkpt>
      <trkpt lat="46.98861" lon="8.83702">
        <ele>1282</ele>
        <time>2021-08-04T08:00:44.820Z</time>
      </trkpt>
      <trkpt lat="46.98861" lon="8.83701">
        <ele>1282</ele>
        <time>2021-08-04T08:00:45.820Z</time>
      </trkpt>
      <trkpt lat="46.98862" lon="8.837">
        <ele>1282</ele>
        <time>2021-08-04T08:00:46.820Z</time>
      </trkpt>
      <trkpt lat="46.98862" lon="8.83699">
        <ele>1283</ele>
        <time>2021-08-04T08:00:47.820Z</time>
      </trkpt>
      <trkpt lat="46.98863" lon="8.83698">
        <ele>1283</ele>
        <time>2021-08-04T08:00:48.820Z</time>
      </trkpt>
      <trkpt lat="46.98864" lon="8.83697">
        <ele>1284</ele>
        <time>2021-08-04T08:00:49.819Z</time>
      </trkpt>
      <trkpt lat="46.98865" lon="8.83696">
        <ele>1284</ele>
        <time>2021-08-04T08:00:50.820Z</time>
      </trkpt>
      <trkpt lat="46.98866" lon="8.83694">
        <ele>1284</ele>
        <time>2021-08-04T08:00:51.820Z</time>
      </trkpt>
      <trkpt lat="46.98867" lon="8.83693">
        <ele>1283</ele>
        <time>2021-08-04T08:00:52.820Z</time>
      </trkpt>
      <trkpt lat="46.98868" lon="8.83693">
        <ele>1283</ele>
        <time>2021-08-04T08:00:53.820Z</time>
      </trkpt>
      <trkpt lat="46.98869" lon="8.83693">
        <ele>1282</ele>
        <time>2021-08-04T08:00:54.820Z</time>
      </trkpt>
      <trkpt lat="46.98869" lon="8.83692">
        <ele>1282</ele>
        <time>2021-08-04T08:00:55.820Z</time>
      </trkpt>
      <trkpt lat="46.98869" lon="8.83691">
        <ele>1282</ele>
        <time>2021-08-04T08:00:56.820Z</time>
      </trkpt>
      <trkpt lat="46.9887" lon="8.8369">
        <ele>1282</ele>
        <time>2021-08-04T08:00:57.819Z</time>
      </trkpt>
      <trkpt lat="46.98871" lon="8.83689">
        <ele>1281</ele>
        <time>2021-08-04T08:00:58.820Z</time>
      </trkpt>
      <trkpt lat="46.98872" lon="8.83689">
        <ele>1281</ele>
        <time>2021-08-04T08:00:59.820Z</time>
      </trkpt>
      <trkpt lat="46.98873" lon="8.83688">
        <ele>1280</ele>
        <time>2021-08-04T08:01:00.819Z</time>
      </trkpt>
      <trkpt lat="46.98874" lon="8.83687">
        <ele>1279</ele>
        <time>2021-08-04T08:01:01.820Z</time>
      </trkpt>
      <trkpt lat="46.98875" lon="8.83687">
        <ele>1278</ele>
        <time>2021-08-04T08:01:02.819Z</time>
      </trkpt>
      <trkpt lat="46.98876" lon="8.83686">
        <ele>1277</ele>
        <time>2021-08-04T08:01:03.819Z</time>
      </trkpt>
      <trkpt lat="46.98877" lon="8.83686">
        <ele>1275</ele>
        <time>2021-08-04T08:01:04.819Z</time>
      </trkpt>
      <trkpt lat="46.98879" lon="8.83685">
        <ele>1274</ele>
        <time>2021-08-04T08:01:05.819Z</time>
      </trkpt>
      <trkpt lat="46.9888" lon="8.83685">
        <ele>1273</ele>
        <time>2021-08-04T08:01:06.820Z</time>
      </trkpt>
      <trkpt lat="46.98881" lon="8.83684">
        <ele>1272</ele>
        <time>2021-08-04T08:01:07.820Z</time>
      </trkpt>
      <trkpt lat="46.98882" lon="8.83684">
        <ele>1271</ele>
        <time>2021-08-04T08:01:08.819Z</time>
      </trkpt>
      <trkpt lat="46.98883" lon="8.83683">
        <ele>1270</ele>
        <time>2021-08-04T08:01:09.820Z</time>
      </trkpt>
      <trkpt lat="46.98884" lon="8.83683">
        <ele>1269</ele>
        <time>2021-08-04T08:01:10.820Z</time>
      </trkpt>
      <trkpt lat="46.98886" lon="8.83683">
        <ele>1269</ele>
        <time>2021-08-04T08:01:11.820Z</time>
      </trkpt>
      <trkpt lat="46.98887" lon="8.83683">
        <ele>1268</ele>
        <time>2021-08-04T08:01:12.820Z</time>
      </trkpt>
      <trkpt lat="46.98889" lon="8.83684">
        <ele>1267</ele>
        <time>2021-08-04T08:01:13.820Z</time>
      </trkpt>
      <trkpt lat="46.9889" lon="8.83684">
        <ele>1267</ele>
        <time>2021-08-04T08:01:14.819Z</time>
      </trkpt>
      <trkpt lat="46.98891" lon="8.83685">
        <ele>1266</ele>
        <time>2021-08-04T08:01:15.820Z</time>
      </trkpt>
      <trkpt lat="46.98893" lon="8.83687">
        <ele>1266</ele>
        <time>2021-08-04T08:01:16.820Z</time>
      </trkpt>
      <trkpt lat="46.98895" lon="8.83689">
        <ele>1265</ele>
        <time>2021-08-04T08:01:17.820Z</time>
      </trkpt>
      <trkpt lat="46.98897" lon="8.83689">
        <ele>1264</ele>
        <time>2021-08-04T08:01:18.820Z</time>
      </trkpt>
      <trkpt lat="46.98898" lon="8.83689">
        <ele>1264</ele>
        <time>2021-08-04T08:01:19.820Z</time>
      </trkpt>
      <trkpt lat="46.989" lon="8.8369">
        <ele>1263</ele>
        <time>2021-08-04T08:01:20.820Z</time>
      </trkpt>
      <trkpt lat="46.98901" lon="8.83691">
        <ele>1263</ele>
        <time>2021-08-04T08:01:21.820Z</time>
      </trkpt>
      <trkpt lat="46.98902" lon="8.83692">
        <ele>1262</ele>
        <time>2021-08-04T08:01:22.820Z</time>
      </trkpt>
      <trkpt lat="46.98903" lon="8.83693">
        <ele>1262</ele>
        <time>2021-08-04T08:01:23.819Z</time>
      </trkpt>
      <trkpt lat="46.98904" lon="8.83695">
        <ele>1261</ele>
        <time>2021-08-04T08:01:24.819Z</time>
      </trkpt>
      <trkpt lat="46.98905" lon="8.83695">
        <ele>1261</ele>
        <time>2021-08-04T08:01:25.819Z</time>
      </trkpt>
      <trkpt lat="46.98906" lon="8.83696">
        <ele>1260</ele>
        <time>2021-08-04T08:01:26.820Z</time>
      </trkpt>
      <trkpt lat="46.98907" lon="8.83697">
        <ele>1260</ele>
        <time>2021-08-04T08:01:27.820Z</time>
      </trkpt>
      <trkpt lat="46.98908" lon="8.83699">
        <ele>1260</ele>
        <time>2021-08-04T08:01:28.819Z</time>
      </trkpt>
      <trkpt lat="46.98909" lon="8.837">
        <ele>1260</ele>
        <time>2021-08-04T08:01:29.820Z</time>
      </trkpt>
      <trkpt lat="46.9891" lon="8.83701">
        <ele>1260</ele>
        <time>2021-08-04T08:01:30.820Z</time>
      </trkpt>
      <trkpt lat="46.98912" lon="8.83701">
        <ele>1259</ele>
        <time>2021-08-04T08:01:31.820Z</time>
      </trkpt>
      <trkpt lat="46.98913" lon="8.83702">
        <ele>1259</ele>
        <time>2021-08-04T08:01:32.820Z</time>
      </trkpt>
      <trkpt lat="46.98914" lon="8.83703">
        <ele>1259</ele>
        <time>2021-08-04T08:01:33.820Z</time>
      </trkpt>
      <trkpt lat="46.98915" lon="8.83705">
        <ele>1259</ele>
        <time>2021-08-04T08:01:34.819Z</time>
      </trkpt>
      <trkpt lat="46.98916" lon="8.83706">
        <ele>1259</ele>
        <time>2021-08-04T08:01:35.819Z</time>
      </trkpt>
      <trkpt lat="46.98918" lon="8.83708">
        <ele>1259</ele>
        <time>2021-08-04T08:01:36.820Z</time>
      </trkpt>
      <trkpt lat="46.98919" lon="8.8371">
        <ele>1259</ele>
        <time>2021-08-04T08:01:37.820Z</time>
      </trkpt>
      <trkpt lat="46.9892" lon="8.8371">
        <ele>1259</ele>
        <time>2021-08-04T08:01:38.819Z</time>
      </trkpt>
      <trkpt lat="46.98921" lon="8.83711">
        <ele>1259</ele>
        <time>2021-08-04T08:01:39.820Z</time>
      </trkpt>
      <trkpt lat="46.98922" lon="8.83712">
        <ele>1259</ele>
        <time>2021-08-04T08:01:40.820Z</time>
      </trkpt>
      <trkpt lat="46.98923" lon="8.83713">
        <ele>1260</ele>
        <time>2021-08-04T08:01:41.820Z</time>
      </trkpt>
      <trkpt lat="46.98924" lon="8.83714">
        <ele>1260</ele>
        <time>2021-08-04T08:01:42.820Z</time>
      </trkpt>
      <trkpt lat="46.98924" lon="8.83715">
        <ele>1261</ele>
        <time>2021-08-04T08:01:43.820Z</time>
      </trkpt>
      <trkpt lat="46.98925" lon="8.83716">
        <ele>1261</ele>
        <time>2021-08-04T08:01:44.820Z</time>
      </trkpt>
      <trkpt lat="46.98926" lon="8.83717">
        <ele>1261</ele>
        <time>2021-08-04T08:01:45.819Z</time>
      </trkpt>
      <trkpt lat="46.98927" lon="8.83718">
        <ele>1261</ele>
        <time>2021-08-04T08:01:46.820Z</time>
      </trkpt>
      <trkpt lat="46.98928" lon="8.83719">
        <ele>1261</ele>
        <time>2021-08-04T08:01:47.820Z</time>
      </trkpt>
      <trkpt lat="46.98929" lon="8.8372">
        <ele>1261</ele>
        <time>2021-08-04T08:01:48.820Z</time>
      </trkpt>
      <trkpt lat="46.9893" lon="8.83721">
        <ele>1261</ele>
        <time>2021-08-04T08:01:49.820Z</time>
      </trkpt>
      <trkpt lat="46.98931" lon="8.83722">
        <ele>1261</ele>
        <time>2021-08-04T08:01:50.820Z</time>
      </trkpt>
      <trkpt lat="46.98932" lon="8.83723">
        <ele>1261</ele>
        <time>2021-08-04T08:01:51.820Z</time>
      </trkpt>
      <trkpt lat="46.98933" lon="8.83724">
        <ele>1261</ele>
        <time>2021-08-04T08:01:52.820Z</time>
      </trkpt>
      <trkpt lat="46.98935" lon="8.83725">
        <ele>1261</ele>
        <time>2021-08-04T08:01:53.820Z</time>
      </trkpt>
      <trkpt lat="46.98936" lon="8.83726">
        <ele>1261</ele>
        <time>2021-08-04T08:01:54.819Z</time>
      </trkpt>
      <trkpt lat="46.98937" lon="8.83726">
        <ele>1261</ele>
        <time>2021-08-04T08:01:55.820Z</time>
      </trkpt>
      <trkpt lat="46.98938" lon="8.83727">
        <ele>1261</ele>
        <time>2021-08-04T08:01:56.819Z</time>
      </trkpt>
      <trkpt lat="46.98939" lon="8.83727">
        <ele>1261</ele>
        <time>2021-08-04T08:01:57.819Z</time>
      </trkpt>
      <trkpt lat="46.9894" lon="8.83727">
        <ele>1261</ele>
        <time>2021-08-04T08:01:58.820Z</time>
      </trkpt>
      <trkpt lat="46.98942" lon="8.83726">
        <ele>1261</ele>
        <time>2021-08-04T08:01:59.819Z</time>
      </trkpt>
      <trkpt lat="46.98943" lon="8.83725">
        <ele>1260</ele>
        <time>2021-08-04T08:02:00.820Z</time>
      </trkpt>
      <trkpt lat="46.98944" lon="8.83723">
        <ele>1260</ele>
        <time>2021-08-04T08:02:01.820Z</time>
      </trkpt>
      <trkpt lat="46.98946" lon="8.83721">
        <ele>1259</ele>
        <time>2021-08-04T08:02:02.820Z</time>
      </trkpt>
      <trkpt lat="46.98947" lon="8.83719">
        <ele>1259</ele>
        <time>2021-08-04T08:02:03.819Z</time>
      </trkpt>
      <trkpt lat="46.98948" lon="8.83717">
        <ele>1259</ele>
        <time>2021-08-04T08:02:04.819Z</time>
      </trkpt>
      <trkpt lat="46.98949" lon="8.83714">
        <ele>1259</ele>
        <time>2021-08-04T08:02:05.820Z</time>
      </trkpt>
      <trkpt lat="46.9895" lon="8.83712">
        <ele>1259</ele>
        <time>2021-08-04T08:02:06.820Z</time>
      </trkpt>
      <trkpt lat="46.9895" lon="8.83709">
        <ele>1260</ele>
        <time>2021-08-04T08:02:07.820Z</time>
      </trkpt>
      <trkpt lat="46.98951" lon="8.83707">
        <ele>1261</ele>
        <time>2021-08-04T08:02:08.820Z</time>
      </trkpt>
      <trkpt lat="46.98951" lon="8.83705">
        <ele>1261</ele>
        <time>2021-08-04T08:02:09.820Z</time>
      </trkpt>
      <trkpt lat="46.98951" lon="8.83702">
        <ele>1262</ele>
        <time>2021-08-04T08:02:10.819Z</time>
      </trkpt>
      <trkpt lat="46.98951" lon="8.83699">
        <ele>1263</ele>
        <time>2021-08-04T08:02:11.820Z</time>
      </trkpt>
      <trkpt lat="46.98952" lon="8.83697">
        <ele>1264</ele>
        <time>2021-08-04T08:02:12.820Z</time>
      </trkpt>
      <trkpt lat="46.98952" lon="8.83694">
        <ele>1265</ele>
        <time>2021-08-04T08:02:13.820Z</time>
      </trkpt>
      <trkpt lat="46.98952" lon="8.83692">
        <ele>1266</ele>
        <time>2021-08-04T08:02:14.820Z</time>
      </trkpt>
      <trkpt lat="46.98952" lon="8.8369">
        <ele>1267</ele>
        <time>2021-08-04T08:02:15.820Z</time>
      </trkpt>
      <trkpt lat="46.98952" lon="8.83688">
        <ele>1268</ele>
        <time>2021-08-04T08:02:16.820Z</time>
      </trkpt>
      <trkpt lat="46.98953" lon="8.83685">
        <ele>1269</ele>
        <time>2021-08-04T08:02:17.820Z</time>
      </trkpt>
      <trkpt lat="46.98953" lon="8.83682">
        <ele>1270</ele>
        <time>2021-08-04T08:02:18.820Z</time>
      </trkpt>
      <trkpt lat="46.98954" lon="8.83679">
        <ele>1271</ele>
        <time>2021-08-04T08:02:19.820Z</time>
      </trkpt>
      <trkpt lat="46.98955" lon="8.83677">
        <ele>1271</ele>
        <time>2021-08-04T08:02:20.819Z</time>
      </trkpt>
      <trkpt lat="46.98955" lon="8.83675">
        <ele>1272</ele>
        <time>2021-08-04T08:02:21.820Z</time>
      </trkpt>
      <trkpt lat="46.98955" lon="8.83673">
        <ele>1272</ele>
        <time>2021-08-04T08:02:22.820Z</time>
      </trkpt>
      <trkpt lat="46.98955" lon="8.83672">
        <ele>1273</ele>
        <time>2021-08-04T08:02:23.819Z</time>
      </trkpt>
      <trkpt lat="46.98955" lon="8.8367">
        <ele>1273</ele>
        <time>2021-08-04T08:02:24.819Z</time>
      </trkpt>
      <trkpt lat="46.98956" lon="8.83668">
        <ele>1273</ele>
        <time>2021-08-04T08:02:25.819Z</time>
      </trkpt>
      <trkpt lat="46.98956" lon="8.83666">
        <ele>1273</ele>
        <time>2021-08-04T08:02:26.819Z</time>
      </trkpt>
      <trkpt lat="46.98956" lon="8.83665">
        <ele>1274</ele>
        <time>2021-08-04T08:02:27.820Z</time>
      </trkpt>
      <trkpt lat="46.98956" lon="8.83663">
        <ele>1274</ele>
        <time>2021-08-04T08:02:28.820Z</time>
      </trkpt>
      <trkpt lat="46.98955" lon="8.83661">
        <ele>1274</ele>
        <time>2021-08-04T08:02:29.820Z</time>
      </trkpt>
      <trkpt lat="46.98955" lon="8.8366">
        <ele>1273</ele>
        <time>2021-08-04T08:02:30.820Z</time>
      </trkpt>
      <trkpt lat="46.98954" lon="8.83658">
        <ele>1273</ele>
        <time>2021-08-04T08:02:31.820Z</time>
      </trkpt>
      <trkpt lat="46.98954" lon="8.83656">
        <ele>1274</ele>
        <time>2021-08-04T08:02:32.820Z</time>
      </trkpt>
      <trkpt lat="46.98953" lon="8.83654">
        <ele>1274</ele>
        <time>2021-08-04T08:02:33.820Z</time>
      </trkpt>
      <trkpt lat="46.98953" lon="8.83652">
        <ele>1275</ele>
        <time>2021-08-04T08:02:34.820Z</time>
      </trkpt>
      <trkpt lat="46.98953" lon="8.8365">
        <ele>1276</ele>
        <time>2021-08-04T08:02:35.819Z</time>
      </trkpt>
      <trkpt lat="46.98952" lon="8.83648">
        <ele>1276</ele>
        <time>2021-08-04T08:02:36.820Z</time>
      </trkpt>
      <trkpt lat="46.98951" lon="8.83645">
        <ele>1277</ele>
        <time>2021-08-04T08:02:37.820Z</time>
      </trkpt>
      <trkpt lat="46.9895" lon="8.83643">
        <ele>1277</ele>
        <time>2021-08-04T08:02:38.820Z</time>
      </trkpt>
      <trkpt lat="46.9895" lon="8.83641">
        <ele>1277</ele>
        <time>2021-08-04T08:02:39.820Z</time>
      </trkpt>
      <trkpt lat="46.9895" lon="8.83639">
        <ele>1277</ele>
        <time>2021-08-04T08:02:40.820Z</time>
      </trkpt>
      <trkpt lat="46.98949" lon="8.83638">
        <ele>1277</ele>
        <time>2021-08-04T08:02:41.819Z</time>
      </trkpt>
      <trkpt lat="46.98948" lon="8.83636">
        <ele>1277</ele>
        <time>2021-08-04T08:02:42.820Z</time>
      </trkpt>
      <trkpt lat="46.98948" lon="8.83635">
        <ele>1277</ele>
        <time>2021-08-04T08:02:43.819Z</time>
      </trkpt>
      <trkpt lat="46.98947" lon="8.83634">
        <ele>1277</ele>
        <time>2021-08-04T08:02:44.820Z</time>
      </trkpt>
      <trkpt lat="46.98946" lon="8.83632">
        <ele>1277</ele>
        <time>2021-08-04T08:02:45.820Z</time>
      </trkpt>
      <trkpt lat="46.98945" lon="8.83631">
        <ele>1277</ele>
        <time>2021-08-04T08:02:46.820Z</time>
      </trkpt>
      <trkpt lat="46.98945" lon="8.8363">
        <ele>1277</ele>
        <time>2021-08-04T08:02:47.820Z</time>
      </trkpt>
      <trkpt lat="46.98943" lon="8.83627">
        <ele>1276</ele>
        <time>2021-08-04T08:02:48.819Z</time>
      </trkpt>
      <trkpt lat="46.98941" lon="8.83624">
        <ele>1276</ele>
        <time>2021-08-04T08:02:49.819Z</time>
      </trkpt>
      <trkpt lat="46.98939" lon="8.83622">
        <ele>1275</ele>
        <time>2021-08-04T08:02:50.819Z</time>
      </trkpt>
      <trkpt lat="46.98937" lon="8.8362">
        <ele>1274</ele>
        <time>2021-08-04T08:02:51.820Z</time>
      </trkpt>
      <trkpt lat="46.98936" lon="8.83618">
        <ele>1274</ele>
        <time>2021-08-04T08:02:52.820Z</time>
      </trkpt>
      <trkpt lat="46.98934" lon="8.83617">
        <ele>1273</ele>
        <time>2021-08-04T08:02:53.820Z</time>
      </trkpt>
      <trkpt lat="46.98932" lon="8.83615">
        <ele>1271</ele>
        <time>2021-08-04T08:02:54.820Z</time>
      </trkpt>
      <trkpt lat="46.98931" lon="8.83614">
        <ele>1270</ele>
        <time>2021-08-04T08:02:55.819Z</time>
      </trkpt>
      <trkpt lat="46.98929" lon="8.83613">
        <ele>1269</ele>
        <time>2021-08-04T08:02:56.820Z</time>
      </trkpt>
      <trkpt lat="46.98928" lon="8.83612">
        <ele>1268</ele>
        <time>2021-08-04T08:02:57.819Z</time>
      </trkpt>
      <trkpt lat="46.98928" lon="8.83611">
        <ele>1267</ele>
        <time>2021-08-04T08:02:58.819Z</time>
      </trkpt>
      <trkpt lat="46.98927" lon="8.8361">
        <ele>1266</ele>
        <time>2021-08-04T08:02:59.820Z</time>
      </trkpt>
      <trkpt lat="46.98926" lon="8.83608">
        <ele>1265</ele>
        <time>2021-08-04T08:03:00.819Z</time>
      </trkpt>
      <trkpt lat="46.98925" lon="8.83606">
        <ele>1264</ele>
        <time>2021-08-04T08:03:01.820Z</time>
      </trkpt>
      <trkpt lat="46.98925" lon="8.83604">
        <ele>1264</ele>
        <time>2021-08-04T08:03:02.820Z</time>
      </trkpt>
      <trkpt lat="46.98924" lon="8.83602">
        <ele>1264</ele>
        <time>2021-08-04T08:03:03.819Z</time>
      </trkpt>
      <trkpt lat="46.98923" lon="8.836">
        <ele>1264</ele>
        <time>2021-08-04T08:03:04.820Z</time>
      </trkpt>
      <trkpt lat="46.98922" lon="8.83598">
        <ele>1264</ele>
        <time>2021-08-04T08:03:05.820Z</time>
      </trkpt>
      <trkpt lat="46.98921" lon="8.83596">
        <ele>1264</ele>
        <time>2021-08-04T08:03:06.820Z</time>
      </trkpt>
      <trkpt lat="46.9892" lon="8.83595">
        <ele>1264</ele>
        <time>2021-08-04T08:03:07.819Z</time>
      </trkpt>
      <trkpt lat="46.98919" lon="8.83593">
        <ele>1264</ele>
        <time>2021-08-04T08:03:08.820Z</time>
      </trkpt>
      <trkpt lat="46.98919" lon="8.83592">
        <ele>1265</ele>
        <time>2021-08-04T08:03:09.820Z</time>
      </trkpt>
      <trkpt lat="46.98918" lon="8.8359">
        <ele>1265</ele>
        <time>2021-08-04T08:03:10.820Z</time>
      </trkpt>
      <trkpt lat="46.98917" lon="8.83588">
        <ele>1265</ele>
        <time>2021-08-04T08:03:11.820Z</time>
      </trkpt>
      <trkpt lat="46.98917" lon="8.83587">
        <ele>1265</ele>
        <time>2021-08-04T08:03:12.819Z</time>
      </trkpt>
      <trkpt lat="46.98916" lon="8.83586">
        <ele>1266</ele>
        <time>2021-08-04T08:03:13.820Z</time>
      </trkpt>
      <trkpt lat="46.98915" lon="8.83585">
        <ele>1266</ele>
        <time>2021-08-04T08:03:14.820Z</time>
      </trkpt>
      <trkpt lat="46.98914" lon="8.83583">
        <ele>1266</ele>
        <time>2021-08-04T08:03:15.820Z</time>
      </trkpt>
      <trkpt lat="46.98914" lon="8.83582">
        <ele>1266</ele>
        <time>2021-08-04T08:03:16.820Z</time>
      </trkpt>
      <trkpt lat="46.98914" lon="8.83579">
        <ele>1265</ele>
        <time>2021-08-04T08:03:17.820Z</time>
      </trkpt>
      <trkpt lat="46.98913" lon="8.83577">
        <ele>1265</ele>
        <time>2021-08-04T08:03:18.820Z</time>
      </trkpt>
      <trkpt lat="46.98913" lon="8.83575">
        <ele>1265</ele>
        <time>2021-08-04T08:03:19.820Z</time>
      </trkpt>
      <trkpt lat="46.98913" lon="8.83573">
        <ele>1265</ele>
        <time>2021-08-04T08:03:20.820Z</time>
      </trkpt>
      <trkpt lat="46.98913" lon="8.83572">
        <ele>1265</ele>
        <time>2021-08-04T08:03:21.819Z</time>
      </trkpt>
      <trkpt lat="46.98912" lon="8.8357">
        <ele>1266</ele>
        <time>2021-08-04T08:03:22.819Z</time>
      </trkpt>
      <trkpt lat="46.98912" lon="8.83567">
        <ele>1266</ele>
        <time>2021-08-04T08:03:23.820Z</time>
      </trkpt>
      <trkpt lat="46.98913" lon="8.83565">
        <ele>1266</ele>
        <time>2021-08-04T08:03:24.820Z</time>
      </trkpt>
      <trkpt lat="46.98913" lon="8.83564">
        <ele>1267</ele>
        <time>2021-08-04T08:03:25.819Z</time>
      </trkpt>
      <trkpt lat="46.98913" lon="8.83562">
        <ele>1267</ele>
        <time>2021-08-04T08:03:26.820Z</time>
      </trkpt>
      <trkpt lat="46.98914" lon="8.8356">
        <ele>1268</ele>
        <time>2021-08-04T08:03:27.820Z</time>
      </trkpt>
      <trkpt lat="46.98914" lon="8.83558">
        <ele>1269</ele>
        <time>2021-08-04T08:03:28.820Z</time>
      </trkpt>
      <trkpt lat="46.98915" lon="8.83557">
        <ele>1269</ele>
        <time>2021-08-04T08:03:29.820Z</time>
      </trkpt>
      <trkpt lat="46.98915" lon="8.83555">
        <ele>1270</ele>
        <time>2021-08-04T08:03:30.819Z</time>
      </trkpt>
      <trkpt lat="46.98916" lon="8.83553">
        <ele>1270</ele>
        <time>2021-08-04T08:03:31.819Z</time>
      </trkpt>
      <trkpt lat="46.98917" lon="8.83551">
        <ele>1271</ele>
        <time>2021-08-04T08:03:32.820Z</time>
      </trkpt>
      <trkpt lat="46.98916" lon="8.8355">
        <ele>1271</ele>
        <time>2021-08-04T08:03:33.820Z</time>
      </trkpt>
      <trkpt lat="46.98916" lon="8.83548">
        <ele>1272</ele>
        <time>2021-08-04T08:03:34.820Z</time>
      </trkpt>
      <trkpt lat="46.98916" lon="8.83547">
        <ele>1272</ele>
        <time>2021-08-04T08:03:35.820Z</time>
      </trkpt>
      <trkpt lat="46.98916" lon="8.83546">
        <ele>1272</ele>
        <time>2021-08-04T08:03:36.820Z</time>
      </trkpt>
      <trkpt lat="46.98915" lon="8.83544">
        <ele>1273</ele>
        <time>2021-08-04T08:03:37.819Z</time>
      </trkpt>
      <trkpt lat="46.98915" lon="8.83543">
        <ele>1273</ele>
        <time>2021-08-04T08:03:38.820Z</time>
      </trkpt>
      <trkpt lat="46.98916" lon="8.83541">
        <ele>1273</ele>
        <time>2021-08-04T08:03:39.820Z</time>
      </trkpt>
      <trkpt lat="46.98916" lon="8.83539">
        <ele>1273</ele>
        <time>2021-08-04T08:03:40.819Z</time>
      </trkpt>
      <trkpt lat="46.98916" lon="8.83537">
        <ele>1273</ele>
        <time>2021-08-04T08:03:41.820Z</time>
      </trkpt>
      <trkpt lat="46.98915" lon="8.83535">
        <ele>1273</ele>
        <time>2021-08-04T08:03:42.820Z</time>
      </trkpt>
      <trkpt lat="46.98916" lon="8.83532">
        <ele>1273</ele>
        <time>2021-08-04T08:03:43.819Z</time>
      </trkpt>
      <trkpt lat="46.98917" lon="8.83531">
        <ele>1273</ele>
        <time>2021-08-04T08:03:44.820Z</time>
      </trkpt>
      <trkpt lat="46.98918" lon="8.83529">
        <ele>1273</ele>
        <time>2021-08-04T08:03:45.819Z</time>
      </trkpt>
      <trkpt lat="46.98917" lon="8.83526">
        <ele>1273</ele>
        <time>2021-08-04T08:03:46.819Z</time>
      </trkpt>
      <trkpt lat="46.98917" lon="8.83525">
        <ele>1272</ele>
        <time>2021-08-04T08:03:47.820Z</time>
      </trkpt>
      <trkpt lat="46.98916" lon="8.83523">
        <ele>1272</ele>
        <time>2021-08-04T08:03:48.820Z</time>
      </trkpt>
      <trkpt lat="46.98916" lon="8.83521">
        <ele>1272</ele>
        <time>2021-08-04T08:03:49.820Z</time>
      </trkpt>
      <trkpt lat="46.98916" lon="8.8352">
        <ele>1271</ele>
        <time>2021-08-04T08:03:50.819Z</time>
      </trkpt>
      <trkpt lat="46.98917" lon="8.83518">
        <ele>1271</ele>
        <time>2021-08-04T08:03:51.820Z</time>
      </trkpt>
      <trkpt lat="46.98915" lon="8.83517">
        <ele>1270</ele>
        <time>2021-08-04T08:03:52.820Z</time>
      </trkpt>
      <trkpt lat="46.98915" lon="8.83515">
        <ele>1270</ele>
        <time>2021-08-04T08:03:53.820Z</time>
      </trkpt>
      <trkpt lat="46.98913" lon="8.83514">
        <ele>1270</ele>
        <time>2021-08-04T08:03:54.819Z</time>
      </trkpt>
      <trkpt lat="46.98913" lon="8.83513">
        <ele>1269</ele>
        <time>2021-08-04T08:03:55.819Z</time>
      </trkpt>
      <trkpt lat="46.98913" lon="8.83511">
        <ele>1269</ele>
        <time>2021-08-04T08:03:56.819Z</time>
      </trkpt>
      <trkpt lat="46.98912" lon="8.8351">
        <ele>1269</ele>
        <time>2021-08-04T08:03:57.819Z</time>
      </trkpt>
      <trkpt lat="46.98912" lon="8.83509">
        <ele>1269</ele>
        <time>2021-08-04T08:03:58.819Z</time>
      </trkpt>
      <trkpt lat="46.98911" lon="8.83507">
        <ele>1269</ele>
        <time>2021-08-04T08:03:59.819Z</time>
      </trkpt>
      <trkpt lat="46.98911" lon="8.83505">
        <ele>1269</ele>
        <time>2021-08-04T08:04:00.819Z</time>
      </trkpt>
      <trkpt lat="46.98911" lon="8.83504">
        <ele>1269</ele>
        <time>2021-08-04T08:04:01.820Z</time>
      </trkpt>
      <trkpt lat="46.98912" lon="8.83502">
        <ele>1269</ele>
        <time>2021-08-04T08:04:02.820Z</time>
      </trkpt>
      <trkpt lat="46.98912" lon="8.835">
        <ele>1269</ele>
        <time>2021-08-04T08:04:03.820Z</time>
      </trkpt>
      <trkpt lat="46.98912" lon="8.83498">
        <ele>1269</ele>
        <time>2021-08-04T08:04:04.820Z</time>
      </trkpt>
      <trkpt lat="46.98912" lon="8.83496">
        <ele>1269</ele>
        <time>2021-08-04T08:04:05.820Z</time>
      </trkpt>
      <trkpt lat="46.98911" lon="8.83494">
        <ele>1270</ele>
        <time>2021-08-04T08:04:06.820Z</time>
      </trkpt>
      <trkpt lat="46.98911" lon="8.83492">
        <ele>1270</ele>
        <time>2021-08-04T08:04:07.820Z</time>
      </trkpt>
      <trkpt lat="46.98912" lon="8.8349">
        <ele>1271</ele>
        <time>2021-08-04T08:04:08.820Z</time>
      </trkpt>
      <trkpt lat="46.98912" lon="8.83488">
        <ele>1271</ele>
        <time>2021-08-04T08:04:09.820Z</time>
      </trkpt>
      <trkpt lat="46.98912" lon="8.83486">
        <ele>1272</ele>
        <time>2021-08-04T08:04:10.820Z</time>
      </trkpt>
      <trkpt lat="46.98913" lon="8.83485">
        <ele>1272</ele>
        <time>2021-08-04T08:04:11.820Z</time>
      </trkpt>
      <trkpt lat="46.98913" lon="8.83483">
        <ele>1273</ele>
        <time>2021-08-04T08:04:12.820Z</time>
      </trkpt>
      <trkpt lat="46.98913" lon="8.83481">
        <ele>1274</ele>
        <time>2021-08-04T08:04:13.820Z</time>
      </trkpt>
      <trkpt lat="46.98913" lon="8.83479">
        <ele>1275</ele>
        <time>2021-08-04T08:04:14.819Z</time>
      </trkpt>
      <trkpt lat="46.98913" lon="8.83476">
        <ele>1275</ele>
        <time>2021-08-04T08:04:15.819Z</time>
      </trkpt>
      <trkpt lat="46.98913" lon="8.83474">
        <ele>1276</ele>
        <time>2021-08-04T08:04:16.820Z</time>
      </trkpt>
      <trkpt lat="46.98914" lon="8.83472">
        <ele>1277</ele>
        <time>2021-08-04T08:04:17.820Z</time>
      </trkpt>
      <trkpt lat="46.98914" lon="8.83469">
        <ele>1277</ele>
        <time>2021-08-04T08:04:18.820Z</time>
      </trkpt>
      <trkpt lat="46.98914" lon="8.83467">
        <ele>1278</ele>
        <time>2021-08-04T08:04:19.819Z</time>
      </trkpt>
      <trkpt lat="46.98915" lon="8.83465">
        <ele>1279</ele>
        <time>2021-08-04T08:04:20.820Z</time>
      </trkpt>
      <trkpt lat="46.98915" lon="8.83462">
        <ele>1279</ele>
        <time>2021-08-04T08:04:21.820Z</time>
      </trkpt>
      <trkpt lat="46.98915" lon="8.83461">
        <ele>1280</ele>
        <time>2021-08-04T08:04:22.819Z</time>
      </trkpt>
      <trkpt lat="46.98916" lon="8.83459">
        <ele>1280</ele>
        <time>2021-08-04T08:04:23.820Z</time>
      </trkpt>
      <trkpt lat="46.98917" lon="8.83458">
        <ele>1281</ele>
        <time>2021-08-04T08:04:24.820Z</time>
      </trkpt>
      <trkpt lat="46.98918" lon="8.83456">
        <ele>1281</ele>
        <time>2021-08-04T08:04:25.820Z</time>
      </trkpt>
      <trkpt lat="46.98918" lon="8.83454">
        <ele>1282</ele>
        <time>2021-08-04T08:04:26.820Z</time>
      </trkpt>
      <trkpt lat="46.98919" lon="8.83453">
        <ele>1282</ele>
        <time>2021-08-04T08:04:27.819Z</time>
      </trkpt>
      <trkpt lat="46.98919" lon="8.83451">
        <ele>1283</ele>
        <time>2021-08-04T08:04:28.820Z</time>
      </trkpt>
      <trkpt lat="46.98919" lon="8.8345">
        <ele>1283</ele>
        <time>2021-08-04T08:04:29.819Z</time>
      </trkpt>
      <trkpt lat="46.98919" lon="8.83449">
        <ele>1283</ele>
        <time>2021-08-04T08:04:30.819Z</time>
      </trkpt>
      <trkpt lat="46.9892" lon="8.83448">
        <ele>1284</ele>
        <time>2021-08-04T08:04:31.820Z</time>
      </trkpt>
      <trkpt lat="46.9892" lon="8.83447">
        <ele>1284</ele>
        <time>2021-08-04T08:04:32.820Z</time>
      </trkpt>
      <trkpt lat="46.9892" lon="8.83446">
        <ele>1284</ele>
        <time>2021-08-04T08:04:33.820Z</time>
      </trkpt>
      <trkpt lat="46.98921" lon="8.83445">
        <ele>1284</ele>
        <time>2021-08-04T08:04:34.820Z</time>
      </trkpt>
      <trkpt lat="46.98921" lon="8.83444">
        <ele>1284</ele>
        <time>2021-08-04T08:04:35.819Z</time>
      </trkpt>
      <trkpt lat="46.98922" lon="8.83442">
        <ele>1284</ele>
        <time>2021-08-04T08:04:36.819Z</time>
      </trkpt>
      <trkpt lat="46.98923" lon="8.83441">
        <ele>1284</ele>
        <time>2021-08-04T08:04:37.820Z</time>
      </trkpt>
      <trkpt lat="46.98924" lon="8.83439">
        <ele>1284</ele>
        <time>2021-08-04T08:04:38.819Z</time>
      </trkpt>
      <trkpt lat="46.98925" lon="8.83438">
        <ele>1284</ele>
        <time>2021-08-04T08:04:39.820Z</time>
      </trkpt>
      <trkpt lat="46.98926" lon="8.83436">
        <ele>1283</ele>
        <time>2021-08-04T08:04:40.819Z</time>
      </trkpt>
      <trkpt lat="46.98927" lon="8.83434">
        <ele>1283</ele>
        <time>2021-08-04T08:04:41.820Z</time>
      </trkpt>
      <trkpt lat="46.98929" lon="8.83433">
        <ele>1283</ele>
        <time>2021-08-04T08:04:42.820Z</time>
      </trkpt>
      <trkpt lat="46.9893" lon="8.83431">
        <ele>1282</ele>
        <time>2021-08-04T08:04:43.820Z</time>
      </trkpt>
      <trkpt lat="46.98931" lon="8.83429">
        <ele>1282</ele>
        <time>2021-08-04T08:04:44.819Z</time>
      </trkpt>
      <trkpt lat="46.98932" lon="8.83427">
        <ele>1282</ele>
        <time>2021-08-04T08:04:45.820Z</time>
      </trkpt>
      <trkpt lat="46.98932" lon="8.83426">
        <ele>1282</ele>
        <time>2021-08-04T08:04:46.820Z</time>
      </trkpt>
      <trkpt lat="46.98933" lon="8.83425">
        <ele>1282</ele>
        <time>2021-08-04T08:04:47.820Z</time>
      </trkpt>
      <trkpt lat="46.98933" lon="8.83423">
        <ele>1282</ele>
        <time>2021-08-04T08:04:48.819Z</time>
      </trkpt>
      <trkpt lat="46.98934" lon="8.83422">
        <ele>1283</ele>
        <time>2021-08-04T08:04:49.820Z</time>
      </trkpt>
      <trkpt lat="46.98935" lon="8.83421">
        <ele>1283</ele>
        <time>2021-08-04T08:04:50.820Z</time>
      </trkpt>
      <trkpt lat="46.98936" lon="8.8342">
        <ele>1284</ele>
        <time>2021-08-04T08:04:51.820Z</time>
      </trkpt>
      <trkpt lat="46.98936" lon="8.83419">
        <ele>1284</ele>
        <time>2021-08-04T08:04:52.820Z</time>
      </trkpt>
      <trkpt lat="46.98936" lon="8.83418">
        <ele>1284</ele>
        <time>2021-08-04T08:04:53.820Z</time>
      </trkpt>
      <trkpt lat="46.98937" lon="8.83418">
        <ele>1284</ele>
        <time>2021-08-04T08:04:54.820Z</time>
      </trkpt>
      <trkpt lat="46.98938" lon="8.83417">
        <ele>1284</ele>
        <time>2021-08-04T08:04:55.819Z</time>
      </trkpt>
      <trkpt lat="46.98938" lon="8.83417">
        <ele>1283</ele>
        <time>2021-08-04T08:04:56.819Z</time>
      </trkpt>
      <trkpt lat="46.98938" lon="8.83416">
        <ele>1283</ele>
        <time>2021-08-04T08:04:57.820Z</time>
      </trkpt>
      <trkpt lat="46.98938" lon="8.83415">
        <ele>1282</ele>
        <time>2021-08-04T08:04:58.820Z</time>
      </trkpt>
      <trkpt lat="46.98938" lon="8.83414">
        <ele>1281</ele>
        <time>2021-08-04T08:04:59.820Z</time>
      </trkpt>
      <trkpt lat="46.98938" lon="8.83413">
        <ele>1280</ele>
        <time>2021-08-04T08:05:00.819Z</time>
      </trkpt>
      <trkpt lat="46.98939" lon="8.83412">
        <ele>1279</ele>
        <time>2021-08-04T08:05:01.819Z</time>
      </trkpt>
      <trkpt lat="46.98939" lon="8.8341">
        <ele>1278</ele>
        <time>2021-08-04T08:05:02.820Z</time>
      </trkpt>
      <trkpt lat="46.98939" lon="8.83409">
        <ele>1278</ele>
        <time>2021-08-04T08:05:03.820Z</time>
      </trkpt>
      <trkpt lat="46.98939" lon="8.83408">
        <ele>1277</ele>
        <time>2021-08-04T08:05:04.819Z</time>
      </trkpt>
      <trkpt lat="46.9894" lon="8.83406">
        <ele>1276</ele>
        <time>2021-08-04T08:05:05.819Z</time>
      </trkpt>
      <trkpt lat="46.98941" lon="8.83405">
        <ele>1275</ele>
        <time>2021-08-04T08:05:06.819Z</time>
      </trkpt>
      <trkpt lat="46.98941" lon="8.83403">
        <ele>1274</ele>
        <time>2021-08-04T08:05:07.819Z</time>
      </trkpt>
      <trkpt lat="46.98941" lon="8.83401">
        <ele>1274</ele>
        <time>2021-08-04T08:05:08.819Z</time>
      </trkpt>
      <trkpt lat="46.98941" lon="8.834">
        <ele>1273</ele>
        <time>2021-08-04T08:05:09.819Z</time>
      </trkpt>
      <trkpt lat="46.98942" lon="8.83398">
        <ele>1272</ele>
        <time>2021-08-04T08:05:10.819Z</time>
      </trkpt>
      <trkpt lat="46.98942" lon="8.83397">
        <ele>1271</ele>
        <time>2021-08-04T08:05:11.819Z</time>
      </trkpt>
      <trkpt lat="46.98942" lon="8.83395">
        <ele>1271</ele>
        <time>2021-08-04T08:05:12.819Z</time>
      </trkpt>
      <trkpt lat="46.98942" lon="8.83394">
        <ele>1270</ele>
        <time>2021-08-04T08:05:13.819Z</time>
      </trkpt>
      <trkpt lat="46.98943" lon="8.83393">
        <ele>1270</ele>
        <time>2021-08-04T08:05:14.819Z</time>
      </trkpt>
      <trkpt lat="46.98943" lon="8.83392">
        <ele>1270</ele>
        <time>2021-08-04T08:05:15.819Z</time>
      </trkpt>
      <trkpt lat="46.98944" lon="8.83391">
        <ele>1269</ele>
        <time>2021-08-04T08:05:16.820Z</time>
      </trkpt>
      <trkpt lat="46.98944" lon="8.8339">
        <ele>1269</ele>
        <time>2021-08-04T08:05:17.820Z</time>
      </trkpt>
      <trkpt lat="46.98945" lon="8.83388">
        <ele>1269</ele>
        <time>2021-08-04T08:05:18.820Z</time>
      </trkpt>
      <trkpt lat="46.98946" lon="8.83387">
        <ele>1268</ele>
        <time>2021-08-04T08:05:19.820Z</time>
      </trkpt>
      <trkpt lat="46.98946" lon="8.83385">
        <ele>1268</ele>
        <time>2021-08-04T08:05:20.819Z</time>
      </trkpt>
      <trkpt lat="46.98947" lon="8.83383">
        <ele>1268</ele>
        <time>2021-08-04T08:05:21.820Z</time>
      </trkpt>
      <trkpt lat="46.98947" lon="8.83382">
        <ele>1267</ele>
        <time>2021-08-04T08:05:22.819Z</time>
      </trkpt>
      <trkpt lat="46.98948" lon="8.83381">
        <ele>1266</ele>
        <time>2021-08-04T08:05:23.819Z</time>
      </trkpt>
      <trkpt lat="46.98948" lon="8.83379">
        <ele>1266</ele>
        <time>2021-08-04T08:05:24.820Z</time>
      </trkpt>
      <trkpt lat="46.98948" lon="8.83377">
        <ele>1265</ele>
        <time>2021-08-04T08:05:25.820Z</time>
      </trkpt>
      <trkpt lat="46.98949" lon="8.83375">
        <ele>1264</ele>
        <time>2021-08-04T08:05:26.819Z</time>
      </trkpt>
      <trkpt lat="46.98948" lon="8.83374">
        <ele>1264</ele>
        <time>2021-08-04T08:05:27.819Z</time>
      </trkpt>
      <trkpt lat="46.98948" lon="8.83372">
        <ele>1263</ele>
        <time>2021-08-04T08:05:28.820Z</time>
      </trkpt>
      <trkpt lat="46.98949" lon="8.83371">
        <ele>1263</ele>
        <time>2021-08-04T08:05:29.820Z</time>
      </trkpt>
      <trkpt lat="46.98949" lon="8.8337">
        <ele>1262</ele>
        <time>2021-08-04T08:05:30.820Z</time>
      </trkpt>
      <trkpt lat="46.9895" lon="8.83368">
        <ele>1262</ele>
        <time>2021-08-04T08:05:31.820Z</time>
      </trkpt>
      <trkpt lat="46.98951" lon="8.83366">
        <ele>1261</ele>
        <time>2021-08-04T08:05:32.819Z</time>
      </trkpt>
      <trkpt lat="46.98951" lon="8.83364">
        <ele>1260</ele>
        <time>2021-08-04T08:05:33.820Z</time>
      </trkpt>
      <trkpt lat="46.98952" lon="8.83363">
        <ele>1259</ele>
        <time>2021-08-04T08:05:34.820Z</time>
      </trkpt>
      <trkpt lat="46.98952" lon="8.83361">
        <ele>1258</ele>
        <time>2021-08-04T08:05:35.820Z</time>
      </trkpt>
      <trkpt lat="46.98953" lon="8.83359">
        <ele>1258</ele>
        <time>2021-08-04T08:05:36.820Z</time>
      </trkpt>
      <trkpt lat="46.98954" lon="8.83358">
        <ele>1257</ele>
        <time>2021-08-04T08:05:37.820Z</time>
      </trkpt>
      <trkpt lat="46.98955" lon="8.83357">
        <ele>1257</ele>
        <time>2021-08-04T08:05:38.820Z</time>
      </trkpt>
      <trkpt lat="46.98955" lon="8.83355">
        <ele>1257</ele>
        <time>2021-08-04T08:05:39.820Z</time>
      </trkpt>
      <trkpt lat="46.98956" lon="8.83353">
        <ele>1257</ele>
        <time>2021-08-04T08:05:40.820Z</time>
      </trkpt>
      <trkpt lat="46.98957" lon="8.83351">
        <ele>1257</ele>
        <time>2021-08-04T08:05:41.820Z</time>
      </trkpt>
      <trkpt lat="46.98957" lon="8.83349">
        <ele>1258</ele>
        <time>2021-08-04T08:05:42.820Z</time>
      </trkpt>
      <trkpt lat="46.98957" lon="8.83347">
        <ele>1258</ele>
        <time>2021-08-04T08:05:43.820Z</time>
      </trkpt>
      <trkpt lat="46.98957" lon="8.83344">
        <ele>1258</ele>
        <time>2021-08-04T08:05:44.819Z</time>
      </trkpt>
      <trkpt lat="46.98957" lon="8.83341">
        <ele>1259</ele>
        <time>2021-08-04T08:05:45.820Z</time>
      </trkpt>
      <trkpt lat="46.98957" lon="8.83339">
        <ele>1259</ele>
        <time>2021-08-04T08:05:46.820Z</time>
      </trkpt>
      <trkpt lat="46.98957" lon="8.83338">
        <ele>1259</ele>
        <time>2021-08-04T08:05:47.819Z</time>
      </trkpt>
      <trkpt lat="46.98956" lon="8.83336">
        <ele>1260</ele>
        <time>2021-08-04T08:05:48.820Z</time>
      </trkpt>
      <trkpt lat="46.98956" lon="8.83334">
        <ele>1260</ele>
        <time>2021-08-04T08:05:49.819Z</time>
      </trkpt>
      <trkpt lat="46.98956" lon="8.83332">
        <ele>1260</ele>
        <time>2021-08-04T08:05:50.820Z</time>
      </trkpt>
      <trkpt lat="46.98955" lon="8.8333">
        <ele>1260</ele>
        <time>2021-08-04T08:05:51.820Z</time>
      </trkpt>
      <trkpt lat="46.98954" lon="8.83329">
        <ele>1260</ele>
        <time>2021-08-04T08:05:52.820Z</time>
      </trkpt>
      <trkpt lat="46.98953" lon="8.83327">
        <ele>1260</ele>
        <time>2021-08-04T08:05:53.819Z</time>
      </trkpt>
      <trkpt lat="46.98952" lon="8.83326">
        <ele>1260</ele>
        <time>2021-08-04T08:05:54.820Z</time>
      </trkpt>
      <trkpt lat="46.98951" lon="8.83325">
        <ele>1260</ele>
        <time>2021-08-04T08:05:55.820Z</time>
      </trkpt>
      <trkpt lat="46.9895" lon="8.83323">
        <ele>1260</ele>
        <time>2021-08-04T08:05:56.820Z</time>
      </trkpt>
      <trkpt lat="46.98949" lon="8.83322">
        <ele>1260</ele>
        <time>2021-08-04T08:05:57.819Z</time>
      </trkpt>
      <trkpt lat="46.98948" lon="8.8332">
        <ele>1261</ele>
        <time>2021-08-04T08:05:58.820Z</time>
      </trkpt>
      <trkpt lat="46.98947" lon="8.83317">
        <ele>1261</ele>
        <time>2021-08-04T08:05:59.820Z</time>
      </trkpt>
      <trkpt lat="46.98946" lon="8.83315">
        <ele>1260</ele>
        <time>2021-08-04T08:06:00.820Z</time>
      </trkpt>
      <trkpt lat="46.98946" lon="8.83314">
        <ele>1260</ele>
        <time>2021-08-04T08:06:01.820Z</time>
      </trkpt>
      <trkpt lat="46.98945" lon="8.83313">
        <ele>1260</ele>
        <time>2021-08-04T08:06:02.819Z</time>
      </trkpt>
      <trkpt lat="46.98944" lon="8.83312">
        <ele>1260</ele>
        <time>2021-08-04T08:06:03.819Z</time>
      </trkpt>
      <trkpt lat="46.98943" lon="8.8331">
        <ele>1259</ele>
        <time>2021-08-04T08:06:04.820Z</time>
      </trkpt>
      <trkpt lat="46.98942" lon="8.83308">
        <ele>1259</ele>
        <time>2021-08-04T08:06:05.820Z</time>
      </trkpt>
      <trkpt lat="46.98941" lon="8.83305">
        <ele>1259</ele>
        <time>2021-08-04T08:06:06.819Z</time>
      </trkpt>
      <trkpt lat="46.98941" lon="8.83303">
        <ele>1259</ele>
        <time>2021-08-04T08:06:07.819Z</time>
      </trkpt>
      <trkpt lat="46.9894" lon="8.83301">
        <ele>1259</ele>
        <time>2021-08-04T08:06:08.820Z</time>
      </trkpt>
      <trkpt lat="46.9894" lon="8.83299">
        <ele>1259</ele>
        <time>2021-08-04T08:06:09.820Z</time>
      </trkpt>
      <trkpt lat="46.98939" lon="8.83297">
        <ele>1259</ele>
        <time>2021-08-04T08:06:10.820Z</time>
      </trkpt>
      <trkpt lat="46.98939" lon="8.83294">
        <ele>1258</ele>
        <time>2021-08-04T08:06:11.819Z</time>
      </trkpt>
      <trkpt lat="46.98938" lon="8.83293">
        <ele>1258</ele>
        <time>2021-08-04T08:06:12.820Z</time>
      </trkpt>
      <trkpt lat="46.98938" lon="8.83292">
        <ele>1258</ele>
        <time>2021-08-04T08:06:13.820Z</time>
      </trkpt>
      <trkpt lat="46.98937" lon="8.8329">
        <ele>1257</ele>
        <time>2021-08-04T08:06:14.820Z</time>
      </trkpt>
      <trkpt lat="46.98935" lon="8.83288">
        <ele>1257</ele>
        <time>2021-08-04T08:06:15.819Z</time>
      </trkpt>
      <trkpt lat="46.98934" lon="8.83286">
        <ele>1257</ele>
        <time>2021-08-04T08:06:16.819Z</time>
      </trkpt>
      <trkpt lat="46.98933" lon="8.83285">
        <ele>1256</ele>
        <time>2021-08-04T08:06:17.820Z</time>
      </trkpt>
      <trkpt lat="46.98932" lon="8.83283">
        <ele>1256</ele>
        <time>2021-08-04T08:06:18.820Z</time>
      </trkpt>
      <trkpt lat="46.9893" lon="8.8328">
        <ele>1256</ele>
        <time>2021-08-04T08:06:19.820Z</time>
      </trkpt>
      <trkpt lat="46.98929" lon="8.83278">
        <ele>1256</ele>
        <time>2021-08-04T08:06:20.819Z</time>
      </trkpt>
      <trkpt lat="46.98928" lon="8.83277">
        <ele>1255</ele>
        <time>2021-08-04T08:06:21.819Z</time>
      </trkpt>
      <trkpt lat="46.98927" lon="8.83276">
        <ele>1255</ele>
        <time>2021-08-04T08:06:22.819Z</time>
      </trkpt>
      <trkpt lat="46.98926" lon="8.83275">
        <ele>1255</ele>
        <time>2021-08-04T08:06:23.819Z</time>
      </trkpt>
      <trkpt lat="46.98926" lon="8.83273">
        <ele>1254</ele>
        <time>2021-08-04T08:06:24.819Z</time>
      </trkpt>
      <trkpt lat="46.98926" lon="8.83272">
        <ele>1254</ele>
        <time>2021-08-04T08:06:25.820Z</time>
      </trkpt>
      <trkpt lat="46.98926" lon="8.83271">
        <ele>1254</ele>
        <time>2021-08-04T08:06:26.820Z</time>
      </trkpt>
      <trkpt lat="46.98927" lon="8.8327">
        <ele>1254</ele>
        <time>2021-08-04T08:06:27.819Z</time>
      </trkpt>
      <trkpt lat="46.98927" lon="8.83269">
        <ele>1254</ele>
        <time>2021-08-04T08:06:28.820Z</time>
      </trkpt>
      <trkpt lat="46.98927" lon="8.83268">
        <ele>1254</ele>
        <time>2021-08-04T08:06:29.820Z</time>
      </trkpt>
      <trkpt lat="46.98927" lon="8.83267">
        <ele>1254</ele>
        <time>2021-08-04T08:06:30.820Z</time>
      </trkpt>
      <trkpt lat="46.98928" lon="8.83266">
        <ele>1254</ele>
        <time>2021-08-04T08:06:31.820Z</time>
      </trkpt>
      <trkpt lat="46.98927" lon="8.83265">
        <ele>1255</ele>
        <time>2021-08-04T08:06:32.820Z</time>
      </trkpt>
      <trkpt lat="46.98927" lon="8.83263">
        <ele>1255</ele>
        <time>2021-08-04T08:06:33.820Z</time>
      </trkpt>
      <trkpt lat="46.98925" lon="8.83261">
        <ele>1256</ele>
        <time>2021-08-04T08:06:34.820Z</time>
      </trkpt>
      <trkpt lat="46.98925" lon="8.8326">
        <ele>1256</ele>
        <time>2021-08-04T08:06:35.819Z</time>
      </trkpt>
      <trkpt lat="46.98925" lon="8.83258">
        <ele>1257</ele>
        <time>2021-08-04T08:06:36.819Z</time>
      </trkpt>
      <trkpt lat="46.98924" lon="8.83257">
        <ele>1258</ele>
        <time>2021-08-04T08:06:37.820Z</time>
      </trkpt>
      <trkpt lat="46.98924" lon="8.83255">
        <ele>1259</ele>
        <time>2021-08-04T08:06:38.819Z</time>
      </trkpt>
      <trkpt lat="46.98924" lon="8.83254">
        <ele>1260</ele>
        <time>2021-08-04T08:06:39.819Z</time>
      </trkpt>
      <trkpt lat="46.98925" lon="8.83252">
        <ele>1262</ele>
        <time>2021-08-04T08:06:40.819Z</time>
      </trkpt>
      <trkpt lat="46.98925" lon="8.8325">
        <ele>1263</ele>
        <time>2021-08-04T08:06:41.819Z</time>
      </trkpt>
      <trkpt lat="46.98926" lon="8.83248">
        <ele>1264</ele>
        <time>2021-08-04T08:06:42.819Z</time>
      </trkpt>
      <trkpt lat="46.98927" lon="8.83246">
        <ele>1266</ele>
        <time>2021-08-04T08:06:43.819Z</time>
      </trkpt>
      <trkpt lat="46.98928" lon="8.83245">
        <ele>1267</ele>
        <time>2021-08-04T08:06:44.820Z</time>
      </trkpt>
      <trkpt lat="46.98929" lon="8.83243">
        <ele>1268</ele>
        <time>2021-08-04T08:06:45.820Z</time>
      </trkpt>
      <trkpt lat="46.98929" lon="8.83241">
        <ele>1268</ele>
        <time>2021-08-04T08:06:46.820Z</time>
      </trkpt>
      <trkpt lat="46.98929" lon="8.83239">
        <ele>1269</ele>
        <time>2021-08-04T08:06:47.820Z</time>
      </trkpt>
      <trkpt lat="46.9893" lon="8.83237">
        <ele>1269</ele>
        <time>2021-08-04T08:06:48.820Z</time>
      </trkpt>
      <trkpt lat="46.9893" lon="8.83235">
        <ele>1270</ele>
        <time>2021-08-04T08:06:49.820Z</time>
      </trkpt>
      <trkpt lat="46.9893" lon="8.83233">
        <ele>1270</ele>
        <time>2021-08-04T08:06:50.819Z</time>
      </trkpt>
      <trkpt lat="46.98931" lon="8.83231">
        <ele>1270</ele>
        <time>2021-08-04T08:06:51.820Z</time>
      </trkpt>
      <trkpt lat="46.98931" lon="8.8323">
        <ele>1270</ele>
        <time>2021-08-04T08:06:52.820Z</time>
      </trkpt>
      <trkpt lat="46.98931" lon="8.83228">
        <ele>1270</ele>
        <time>2021-08-04T08:06:53.820Z</time>
      </trkpt>
      <trkpt lat="46.98931" lon="8.83227">
        <ele>1269</ele>
        <time>2021-08-04T08:06:54.820Z</time>
      </trkpt>
      <trkpt lat="46.98931" lon="8.83225">
        <ele>1269</ele>
        <time>2021-08-04T08:06:55.820Z</time>
      </trkpt>
      <trkpt lat="46.98931" lon="8.83224">
        <ele>1269</ele>
        <time>2021-08-04T08:06:56.820Z</time>
      </trkpt>
      <trkpt lat="46.98932" lon="8.83223">
        <ele>1269</ele>
        <time>2021-08-04T08:06:57.820Z</time>
      </trkpt>
      <trkpt lat="46.98933" lon="8.83221">
        <ele>1268</ele>
        <time>2021-08-04T08:06:58.820Z</time>
      </trkpt>
      <trkpt lat="46.98934" lon="8.83219">
        <ele>1268</ele>
        <time>2021-08-04T08:06:59.820Z</time>
      </trkpt>
      <trkpt lat="46.98935" lon="8.83218">
        <ele>1267</ele>
        <time>2021-08-04T08:07:00.820Z</time>
      </trkpt>
      <trkpt lat="46.98935" lon="8.83217">
        <ele>1266</ele>
        <time>2021-08-04T08:07:01.820Z</time>
      </trkpt>
      <trkpt lat="46.98936" lon="8.83215">
        <ele>1266</ele>
        <time>2021-08-04T08:07:02.820Z</time>
      </trkpt>
      <trkpt lat="46.98937" lon="8.83214">
        <ele>1265</ele>
        <time>2021-08-04T08:07:03.820Z</time>
      </trkpt>
      <trkpt lat="46.98938" lon="8.83212">
        <ele>1264</ele>
        <time>2021-08-04T08:07:04.820Z</time>
      </trkpt>
      <trkpt lat="46.98939" lon="8.83211">
        <ele>1263</ele>
        <time>2021-08-04T08:07:05.820Z</time>
      </trkpt>
      <trkpt lat="46.9894" lon="8.8321">
        <ele>1262</ele>
        <time>2021-08-04T08:07:06.819Z</time>
      </trkpt>
      <trkpt lat="46.98942" lon="8.83208">
        <ele>1261</ele>
        <time>2021-08-04T08:07:07.820Z</time>
      </trkpt>
      <trkpt lat="46.98943" lon="8.83207">
        <ele>1261</ele>
        <time>2021-08-04T08:07:08.820Z</time>
      </trkpt>
      <trkpt lat="46.98943" lon="8.83206">
        <ele>1260</ele>
        <time>2021-08-04T08:07:09.820Z</time>
      </trkpt>
      <trkpt lat="46.98944" lon="8.83205">
        <ele>1260</ele>
        <time>2021-08-04T08:07:10.820Z</time>
      </trkpt>
      <trkpt lat="46.98945" lon="8.83203">
        <ele>1259</ele>
        <time>2021-08-04T08:07:11.820Z</time>
      </trkpt>
      <trkpt lat="46.98945" lon="8.83202">
        <ele>1259</ele>
        <time>2021-08-04T08:07:12.820Z</time>
      </trkpt>
      <trkpt lat="46.98946" lon="8.83201">
        <ele>1258</ele>
        <time>2021-08-04T08:07:13.819Z</time>
      </trkpt>
      <trkpt lat="46.98947" lon="8.832">
        <ele>1257</ele>
        <time>2021-08-04T08:07:14.820Z</time>
      </trkpt>
      <trkpt lat="46.98948" lon="8.83198">
        <ele>1257</ele>
        <time>2021-08-04T08:07:15.820Z</time>
      </trkpt>
      <trkpt lat="46.98949" lon="8.83197">
        <ele>1256</ele>
        <time>2021-08-04T08:07:16.820Z</time>
      </trkpt>
      <trkpt lat="46.98951" lon="8.83196">
        <ele>1255</ele>
        <time>2021-08-04T08:07:17.819Z</time>
      </trkpt>
      <trkpt lat="46.98952" lon="8.83195">
        <ele>1255</ele>
        <time>2021-08-04T08:07:18.820Z</time>
      </trkpt>
      <trkpt lat="46.98953" lon="8.83193">
        <ele>1255</ele>
        <time>2021-08-04T08:07:19.820Z</time>
      </trkpt>
      <trkpt lat="46.98953" lon="8.83192">
        <ele>1254</ele>
        <time>2021-08-04T08:07:20.819Z</time>
      </trkpt>
      <trkpt lat="46.98954" lon="8.83191">
        <ele>1254</ele>
        <time>2021-08-04T08:07:21.819Z</time>
      </trkpt>
      <trkpt lat="46.98954" lon="8.8319">
        <ele>1253</ele>
        <time>2021-08-04T08:07:22.820Z</time>
      </trkpt>
      <trkpt lat="46.98954" lon="8.83188">
        <ele>1253</ele>
        <time>2021-08-04T08:07:23.820Z</time>
      </trkpt>
      <trkpt lat="46.98955" lon="8.83187">
        <ele>1253</ele>
        <time>2021-08-04T08:07:24.820Z</time>
      </trkpt>
      <trkpt lat="46.98956" lon="8.83185">
        <ele>1252</ele>
        <time>2021-08-04T08:07:25.820Z</time>
      </trkpt>
      <trkpt lat="46.98957" lon="8.83183">
        <ele>1252</ele>
        <time>2021-08-04T08:07:26.820Z</time>
      </trkpt>
      <trkpt lat="46.98958" lon="8.83182">
        <ele>1251</ele>
        <time>2021-08-04T08:07:27.819Z</time>
      </trkpt>
      <trkpt lat="46.98958" lon="8.8318">
        <ele>1250</ele>
        <time>2021-08-04T08:07:28.820Z</time>
      </trkpt>
      <trkpt lat="46.98959" lon="8.83179">
        <ele>1250</ele>
        <time>2021-08-04T08:07:29.820Z</time>
      </trkpt>
      <trkpt lat="46.98959" lon="8.83177">
        <ele>1249</ele>
        <time>2021-08-04T08:07:30.820Z</time>
      </trkpt>
      <trkpt lat="46.9896" lon="8.83175">
        <ele>1249</ele>
        <time>2021-08-04T08:07:31.820Z</time>
      </trkpt>
      <trkpt lat="46.9896" lon="8.83173">
        <ele>1248</ele>
        <time>2021-08-04T08:07:32.820Z</time>
      </trkpt>
      <trkpt lat="46.9896" lon="8.83171">
        <ele>1248</ele>
        <time>2021-08-04T08:07:33.820Z</time>
      </trkpt>
      <trkpt lat="46.98959" lon="8.83169">
        <ele>1247</ele>
        <time>2021-08-04T08:07:34.820Z</time>
      </trkpt>
      <trkpt lat="46.98959" lon="8.83168">
        <ele>1246</ele>
        <time>2021-08-04T08:07:35.819Z</time>
      </trkpt>
      <trkpt lat="46.98959" lon="8.83166">
        <ele>1245</ele>
        <time>2021-08-04T08:07:36.820Z</time>
      </trkpt>
      <trkpt lat="46.9896" lon="8.83164">
        <ele>1244</ele>
        <time>2021-08-04T08:07:37.820Z</time>
      </trkpt>
      <trkpt lat="46.98959" lon="8.83162">
        <ele>1243</ele>
        <time>2021-08-04T08:07:38.819Z</time>
      </trkpt>
      <trkpt lat="46.98959" lon="8.83161">
        <ele>1243</ele>
        <time>2021-08-04T08:07:39.819Z</time>
      </trkpt>
      <trkpt lat="46.98958" lon="8.83159">
        <ele>1242</ele>
        <time>2021-08-04T08:07:40.819Z</time>
      </trkpt>
      <trkpt lat="46.98958" lon="8.83157">
        <ele>1242</ele>
        <time>2021-08-04T08:07:41.820Z</time>
      </trkpt>
      <trkpt lat="46.98958" lon="8.83155">
        <ele>1242</ele>
        <time>2021-08-04T08:07:42.820Z</time>
      </trkpt>
      <trkpt lat="46.98958" lon="8.83153">
        <ele>1241</ele>
        <time>2021-08-04T08:07:43.820Z</time>
      </trkpt>
      <trkpt lat="46.98958" lon="8.83151">
        <ele>1241</ele>
        <time>2021-08-04T08:07:44.820Z</time>
      </trkpt>
      <trkpt lat="46.98958" lon="8.8315">
        <ele>1241</ele>
        <time>2021-08-04T08:07:45.819Z</time>
      </trkpt>
      <trkpt lat="46.98959" lon="8.83147">
        <ele>1240</ele>
        <time>2021-08-04T08:07:46.819Z</time>
      </trkpt>
      <trkpt lat="46.98959" lon="8.83145">
        <ele>1240</ele>
        <time>2021-08-04T08:07:47.820Z</time>
      </trkpt>
      <trkpt lat="46.98959" lon="8.83142">
        <ele>1241</ele>
        <time>2021-08-04T08:07:48.820Z</time>
      </trkpt>
      <trkpt lat="46.9896" lon="8.8314">
        <ele>1241</ele>
        <time>2021-08-04T08:07:49.820Z</time>
      </trkpt>
      <trkpt lat="46.9896" lon="8.83138">
        <ele>1241</ele>
        <time>2021-08-04T08:07:50.820Z</time>
      </trkpt>
      <trkpt lat="46.9896" lon="8.83136">
        <ele>1241</ele>
        <time>2021-08-04T08:07:51.819Z</time>
      </trkpt>
      <trkpt lat="46.9896" lon="8.83135">
        <ele>1242</ele>
        <time>2021-08-04T08:07:52.819Z</time>
      </trkpt>
      <trkpt lat="46.9896" lon="8.83133">
        <ele>1242</ele>
        <time>2021-08-04T08:07:53.820Z</time>
      </trkpt>
      <trkpt lat="46.9896" lon="8.83131">
        <ele>1242</ele>
        <time>2021-08-04T08:07:54.820Z</time>
      </trkpt>
      <trkpt lat="46.9896" lon="8.83129">
        <ele>1242</ele>
        <time>2021-08-04T08:07:55.820Z</time>
      </trkpt>
      <trkpt lat="46.98959" lon="8.83127">
        <ele>1242</ele>
        <time>2021-08-04T08:07:56.820Z</time>
      </trkpt>
      <trkpt lat="46.98959" lon="8.83125">
        <ele>1241</ele>
        <time>2021-08-04T08:07:57.820Z</time>
      </trkpt>
      <trkpt lat="46.9896" lon="8.83123">
        <ele>1241</ele>
        <time>2021-08-04T08:07:58.820Z</time>
      </trkpt>
      <trkpt lat="46.9896" lon="8.83122">
        <ele>1241</ele>
        <time>2021-08-04T08:07:59.820Z</time>
      </trkpt>
      <trkpt lat="46.9896" lon="8.8312">
        <ele>1241</ele>
        <time>2021-08-04T08:08:00.820Z</time>
      </trkpt>
      <trkpt lat="46.98959" lon="8.83117">
        <ele>1241</ele>
        <time>2021-08-04T08:08:01.819Z</time>
      </trkpt>
      <trkpt lat="46.98959" lon="8.83115">
        <ele>1241</ele>
        <time>2021-08-04T08:08:02.820Z</time>
      </trkpt>
      <trkpt lat="46.9896" lon="8.83113">
        <ele>1241</ele>
        <time>2021-08-04T08:08:03.819Z</time>
      </trkpt>
      <trkpt lat="46.98959" lon="8.83111">
        <ele>1241</ele>
        <time>2021-08-04T08:08:04.820Z</time>
      </trkpt>
      <trkpt lat="46.98959" lon="8.83109">
        <ele>1241</ele>
        <time>2021-08-04T08:08:05.819Z</time>
      </trkpt>
      <trkpt lat="46.98958" lon="8.83108">
        <ele>1241</ele>
        <time>2021-08-04T08:08:06.820Z</time>
      </trkpt>
      <trkpt lat="46.98958" lon="8.83107">
        <ele>1242</ele>
        <time>2021-08-04T08:08:07.820Z</time>
      </trkpt>
      <trkpt lat="46.98956" lon="8.83105">
        <ele>1241</ele>
        <time>2021-08-04T08:08:08.820Z</time>
      </trkpt>
      <trkpt lat="46.98955" lon="8.83103">
        <ele>1241</ele>
        <time>2021-08-04T08:08:09.819Z</time>
      </trkpt>
      <trkpt lat="46.98955" lon="8.83102">
        <ele>1241</ele>
        <time>2021-08-04T08:08:10.820Z</time>
      </trkpt>
      <trkpt lat="46.98954" lon="8.831">
        <ele>1241</ele>
        <time>2021-08-04T08:08:11.820Z</time>
      </trkpt>
      <trkpt lat="46.98953" lon="8.83099">
        <ele>1241</ele>
        <time>2021-08-04T08:08:12.820Z</time>
      </trkpt>
      <trkpt lat="46.98951" lon="8.83097">
        <ele>1241</ele>
        <time>2021-08-04T08:08:13.820Z</time>
      </trkpt>
      <trkpt lat="46.98951" lon="8.83095">
        <ele>1241</ele>
        <time>2021-08-04T08:08:14.819Z</time>
      </trkpt>
      <trkpt lat="46.9895" lon="8.83094">
        <ele>1242</ele>
        <time>2021-08-04T08:08:15.819Z</time>
      </trkpt>
      <trkpt lat="46.98949" lon="8.83093">
        <ele>1242</ele>
        <time>2021-08-04T08:08:16.819Z</time>
      </trkpt>
      <trkpt lat="46.98949" lon="8.83091">
        <ele>1242</ele>
        <time>2021-08-04T08:08:17.819Z</time>
      </trkpt>
      <trkpt lat="46.98948" lon="8.83089">
        <ele>1242</ele>
        <time>2021-08-04T08:08:18.819Z</time>
      </trkpt>
      <trkpt lat="46.98948" lon="8.83087">
        <ele>1242</ele>
        <time>2021-08-04T08:08:19.820Z</time>
      </trkpt>
      <trkpt lat="46.98948" lon="8.83085">
        <ele>1241</ele>
        <time>2021-08-04T08:08:20.820Z</time>
      </trkpt>
      <trkpt lat="46.98948" lon="8.83084">
        <ele>1241</ele>
        <time>2021-08-04T08:08:21.820Z</time>
      </trkpt>
      <trkpt lat="46.98947" lon="8.83083">
        <ele>1240</ele>
        <time>2021-08-04T08:08:22.820Z</time>
      </trkpt>
      <trkpt lat="46.98947" lon="8.83081">
        <ele>1240</ele>
        <time>2021-08-04T08:08:23.819Z</time>
      </trkpt>
      <trkpt lat="46.98947" lon="8.83078">
        <ele>1240</ele>
        <time>2021-08-04T08:08:24.820Z</time>
      </trkpt>
      <trkpt lat="46.98947" lon="8.83077">
        <ele>1240</ele>
        <time>2021-08-04T08:08:25.819Z</time>
      </trkpt>
      <trkpt lat="46.98946" lon="8.83075">
        <ele>1240</ele>
        <time>2021-08-04T08:08:26.819Z</time>
      </trkpt>
      <trkpt lat="46.98943" lon="8.83073">
        <ele>1239</ele>
        <time>2021-08-04T08:08:27.819Z</time>
      </trkpt>
      <trkpt lat="46.98942" lon="8.83071">
        <ele>1239</ele>
        <time>2021-08-04T08:08:28.820Z</time>
      </trkpt>
      <trkpt lat="46.98941" lon="8.83069">
        <ele>1239</ele>
        <time>2021-08-04T08:08:29.820Z</time>
      </trkpt>
      <trkpt lat="46.98941" lon="8.83069">
        <ele>1238</ele>
        <time>2021-08-04T08:08:30.820Z</time>
      </trkpt>
      <trkpt lat="46.9894" lon="8.83068">
        <ele>1238</ele>
        <time>2021-08-04T08:08:31.820Z</time>
      </trkpt>
      <trkpt lat="46.98939" lon="8.83067">
        <ele>1238</ele>
        <time>2021-08-04T08:08:32.820Z</time>
      </trkpt>
      <trkpt lat="46.98938" lon="8.83065">
        <ele>1237</ele>
        <time>2021-08-04T08:08:33.819Z</time>
      </trkpt>
      <trkpt lat="46.98937" lon="8.83064">
        <ele>1237</ele>
        <time>2021-08-04T08:08:34.820Z</time>
      </trkpt>
      <trkpt lat="46.98936" lon="8.83064">
        <ele>1237</ele>
        <time>2021-08-04T08:08:35.820Z</time>
      </trkpt>
      <trkpt lat="46.98934" lon="8.83063">
        <ele>1237</ele>
        <time>2021-08-04T08:08:36.819Z</time>
      </trkpt>
      <trkpt lat="46.98933" lon="8.83061">
        <ele>1237</ele>
        <time>2021-08-04T08:08:37.820Z</time>
      </trkpt>
      <trkpt lat="46.98931" lon="8.83059">
        <ele>1237</ele>
        <time>2021-08-04T08:08:38.819Z</time>
      </trkpt>
      <trkpt lat="46.9893" lon="8.83058">
        <ele>1238</ele>
        <time>2021-08-04T08:08:39.820Z</time>
      </trkpt>
      <trkpt lat="46.98928" lon="8.83057">
        <ele>1238</ele>
        <time>2021-08-04T08:08:40.819Z</time>
      </trkpt>
      <trkpt lat="46.98927" lon="8.83055">
        <ele>1239</ele>
        <time>2021-08-04T08:08:41.819Z</time>
      </trkpt>
      <trkpt lat="46.98925" lon="8.83054">
        <ele>1239</ele>
        <time>2021-08-04T08:08:42.820Z</time>
      </trkpt>
      <trkpt lat="46.98924" lon="8.83053">
        <ele>1240</ele>
        <time>2021-08-04T08:08:43.820Z</time>
      </trkpt>
      <trkpt lat="46.98922" lon="8.83051">
        <ele>1241</ele>
        <time>2021-08-04T08:08:44.819Z</time>
      </trkpt>
      <trkpt lat="46.98921" lon="8.8305">
        <ele>1241</ele>
        <time>2021-08-04T08:08:45.820Z</time>
      </trkpt>
      <trkpt lat="46.9892" lon="8.8305">
        <ele>1241</ele>
        <time>2021-08-04T08:08:46.820Z</time>
      </trkpt>
      <trkpt lat="46.98918" lon="8.83049">
        <ele>1241</ele>
        <time>2021-08-04T08:08:47.820Z</time>
      </trkpt>
      <trkpt lat="46.98917" lon="8.83048">
        <ele>1241</ele>
        <time>2021-08-04T08:08:48.820Z</time>
      </trkpt>
      <trkpt lat="46.98915" lon="8.83047">
        <ele>1241</ele>
        <time>2021-08-04T08:08:49.819Z</time>
      </trkpt>
      <trkpt lat="46.98914" lon="8.83046">
        <ele>1242</ele>
        <time>2021-08-04T08:08:50.820Z</time>
      </trkpt>
      <trkpt lat="46.98912" lon="8.83044">
        <ele>1242</ele>
        <time>2021-08-04T08:08:51.820Z</time>
      </trkpt>
      <trkpt lat="46.98911" lon="8.83043">
        <ele>1242</ele>
        <time>2021-08-04T08:08:52.820Z</time>
      </trkpt>
      <trkpt lat="46.9891" lon="8.83042">
        <ele>1242</ele>
        <time>2021-08-04T08:08:53.820Z</time>
      </trkpt>
      <trkpt lat="46.98908" lon="8.8304">
        <ele>1243</ele>
        <time>2021-08-04T08:08:54.819Z</time>
      </trkpt>
      <trkpt lat="46.98905" lon="8.83037">
        <ele>1243</ele>
        <time>2021-08-04T08:08:55.819Z</time>
      </trkpt>
      <trkpt lat="46.98903" lon="8.83035">
        <ele>1244</ele>
        <time>2021-08-04T08:08:56.820Z</time>
      </trkpt>
      <trkpt lat="46.98901" lon="8.83033">
        <ele>1244</ele>
        <time>2021-08-04T08:08:57.819Z</time>
      </trkpt>
      <trkpt lat="46.989" lon="8.83032">
        <ele>1245</ele>
        <time>2021-08-04T08:08:58.819Z</time>
      </trkpt>
      <trkpt lat="46.989" lon="8.83031">
        <ele>1246</ele>
        <time>2021-08-04T08:08:59.819Z</time>
      </trkpt>
      <trkpt lat="46.98899" lon="8.8303">
        <ele>1246</ele>
        <time>2021-08-04T08:09:00.819Z</time>
      </trkpt>
      <trkpt lat="46.98898" lon="8.8303">
        <ele>1246</ele>
        <time>2021-08-04T08:09:01.820Z</time>
      </trkpt>
      <trkpt lat="46.98898" lon="8.83031">
        <ele>1246</ele>
        <time>2021-08-04T08:09:02.819Z</time>
      </trkpt>
      <trkpt lat="46.98898" lon="8.83031">
        <ele>1246</ele>
        <time>2021-08-04T08:09:03.820Z</time>
      </trkpt>
      <trkpt lat="46.98898" lon="8.83031">
        <ele>1246</ele>
        <time>2021-08-04T08:09:04.819Z</time>
      </trkpt>
      <trkpt lat="46.98897" lon="8.83031">
        <ele>1246</ele>
        <time>2021-08-04T08:09:05.819Z</time>
      </trkpt>
      <trkpt lat="46.98897" lon="8.83031">
        <ele>1246</ele>
        <time>2021-08-04T08:09:06.820Z</time>
      </trkpt>
      <trkpt lat="46.98897" lon="8.83031">
        <ele>1246</ele>
        <time>2021-08-04T08:09:07.819Z</time>
      </trkpt>
      <trkpt lat="46.98898" lon="8.83031">
        <ele>1246</ele>
        <time>2021-08-04T08:09:08.822Z</time>
      </trkpt>
      <trkpt lat="46.98899" lon="8.83031">
        <ele>1245</ele>
        <time>2021-08-04T08:09:09.821Z</time>
      </trkpt>
      <trkpt lat="46.989" lon="8.83032">
        <ele>1244</ele>
        <time>2021-08-04T08:09:10.822Z</time>
      </trkpt>
      <trkpt lat="46.989" lon="8.83033">
        <ele>1244</ele>
        <time>2021-08-04T08:09:11.822Z</time>
      </trkpt>
      <trkpt lat="46.989" lon="8.83034">
        <ele>1244</ele>
        <time>2021-08-04T08:09:12.821Z</time>
      </trkpt>
      <trkpt lat="46.989" lon="8.83034">
        <ele>1244</ele>
        <time>2021-08-04T08:09:13.822Z</time>
      </trkpt>
      <trkpt lat="46.989" lon="8.83035">
        <ele>1244</ele>
        <time>2021-08-04T08:09:14.822Z</time>
      </trkpt>
      <trkpt lat="46.98899" lon="8.83036">
        <ele>1243</ele>
        <time>2021-08-04T08:09:15.822Z</time>
      </trkpt>
      <trkpt lat="46.98899" lon="8.83036">
        <ele>1243</ele>
        <time>2021-08-04T08:09:16.821Z</time>
      </trkpt>
      <trkpt lat="46.98899" lon="8.83037">
        <ele>1243</ele>
        <time>2021-08-04T08:09:17.821Z</time>
      </trkpt>
      <trkpt lat="46.98899" lon="8.83037">
        <ele>1243</ele>
        <time>2021-08-04T08:09:18.821Z</time>
      </trkpt>
      <trkpt lat="46.98899" lon="8.83037">
        <ele>1242</ele>
        <time>2021-08-04T08:09:19.822Z</time>
      </trkpt>
      <trkpt lat="46.98899" lon="8.83038">
        <ele>1242</ele>
        <time>2021-08-04T08:09:20.821Z</time>
      </trkpt>
      <trkpt lat="46.98901" lon="8.83038">
        <ele>1242</ele>
        <time>2021-08-04T08:09:21.821Z</time>
      </trkpt>
      <trkpt lat="46.98902" lon="8.83037">
        <ele>1242</ele>
        <time>2021-08-04T08:09:22.822Z</time>
      </trkpt>
      <trkpt lat="46.98903" lon="8.83035">
        <ele>1241</ele>
        <time>2021-08-04T08:09:23.821Z</time>
      </trkpt>
      <trkpt lat="46.98903" lon="8.83033">
        <ele>1241</ele>
        <time>2021-08-04T08:09:24.822Z</time>
      </trkpt>
      <trkpt lat="46.98902" lon="8.83031">
        <ele>1242</ele>
        <time>2021-08-04T08:09:25.821Z</time>
      </trkpt>
      <trkpt lat="46.98902" lon="8.8303">
        <ele>1242</ele>
        <time>2021-08-04T08:09:26.822Z</time>
      </trkpt>
      <trkpt lat="46.98902" lon="8.83029">
        <ele>1242</ele>
        <time>2021-08-04T08:09:27.821Z</time>
      </trkpt>
      <trkpt lat="46.98901" lon="8.83027">
        <ele>1242</ele>
        <time>2021-08-04T08:09:28.821Z</time>
      </trkpt>
      <trkpt lat="46.989" lon="8.83026">
        <ele>1242</ele>
        <time>2021-08-04T08:09:29.822Z</time>
      </trkpt>
      <trkpt lat="46.989" lon="8.83026">
        <ele>1243</ele>
        <time>2021-08-04T08:09:30.822Z</time>
      </trkpt>
      <trkpt lat="46.98899" lon="8.83025">
        <ele>1243</ele>
        <time>2021-08-04T08:09:31.821Z</time>
      </trkpt>
      <trkpt lat="46.98898" lon="8.83024">
        <ele>1243</ele>
        <time>2021-08-04T08:09:32.821Z</time>
      </trkpt>
      <trkpt lat="46.98898" lon="8.83022">
        <ele>1242</ele>
        <time>2021-08-04T08:09:33.821Z</time>
      </trkpt>
      <trkpt lat="46.98897" lon="8.83022">
        <ele>1242</ele>
        <time>2021-08-04T08:09:34.821Z</time>
      </trkpt>
      <trkpt lat="46.98897" lon="8.83021">
        <ele>1242</ele>
        <time>2021-08-04T08:09:35.822Z</time>
      </trkpt>
      <trkpt lat="46.98898" lon="8.83022">
        <ele>1242</ele>
        <time>2021-08-04T08:09:36.821Z</time>
      </trkpt>
      <trkpt lat="46.98898" lon="8.83022">
        <ele>1241</ele>
        <time>2021-08-04T08:09:37.821Z</time>
      </trkpt>
      <trkpt lat="46.98899" lon="8.83023">
        <ele>1241</ele>
        <time>2021-08-04T08:09:38.821Z</time>
      </trkpt>
      <trkpt lat="46.989" lon="8.83023">
        <ele>1241</ele>
        <time>2021-08-04T08:09:39.821Z</time>
      </trkpt>
      <trkpt lat="46.98902" lon="8.83021">
        <ele>1242</ele>
        <time>2021-08-04T08:09:40.821Z</time>
      </trkpt>
      <trkpt lat="46.98901" lon="8.83019">
        <ele>1242</ele>
        <time>2021-08-04T08:09:41.821Z</time>
      </trkpt>
      <trkpt lat="46.989" lon="8.83017">
        <ele>1242</ele>
        <time>2021-08-04T08:09:42.822Z</time>
      </trkpt>
      <trkpt lat="46.989" lon="8.83015">
        <ele>1242</ele>
        <time>2021-08-04T08:09:43.822Z</time>
      </trkpt>
      <trkpt lat="46.98899" lon="8.83013">
        <ele>1242</ele>
        <time>2021-08-04T08:09:44.822Z</time>
      </trkpt>
      <trkpt lat="46.98898" lon="8.83012">
        <ele>1242</ele>
        <time>2021-08-04T08:09:45.822Z</time>
      </trkpt>
      <trkpt lat="46.98898" lon="8.83011">
        <ele>1242</ele>
        <time>2021-08-04T08:09:46.822Z</time>
      </trkpt>
      <trkpt lat="46.98897" lon="8.83009">
        <ele>1242</ele>
        <time>2021-08-04T08:09:47.822Z</time>
      </trkpt>
      <trkpt lat="46.98896" lon="8.83008">
        <ele>1243</ele>
        <time>2021-08-04T08:09:48.822Z</time>
      </trkpt>
      <trkpt lat="46.98896" lon="8.83007">
        <ele>1243</ele>
        <time>2021-08-04T08:09:49.821Z</time>
      </trkpt>
      <trkpt lat="46.98896" lon="8.83005">
        <ele>1243</ele>
        <time>2021-08-04T08:09:50.821Z</time>
      </trkpt>
      <trkpt lat="46.98895" lon="8.83004">
        <ele>1243</ele>
        <time>2021-08-04T08:09:51.821Z</time>
      </trkpt>
      <trkpt lat="46.98895" lon="8.83003">
        <ele>1243</ele>
        <time>2021-08-04T08:09:52.822Z</time>
      </trkpt>
      <trkpt lat="46.98895" lon="8.83001">
        <ele>1243</ele>
        <time>2021-08-04T08:09:53.821Z</time>
      </trkpt>
      <trkpt lat="46.98894" lon="8.82999">
        <ele>1243</ele>
        <time>2021-08-04T08:09:54.821Z</time>
      </trkpt>
      <trkpt lat="46.98894" lon="8.82996">
        <ele>1243</ele>
        <time>2021-08-04T08:09:55.822Z</time>
      </trkpt>
      <trkpt lat="46.98893" lon="8.82993">
        <ele>1242</ele>
        <time>2021-08-04T08:09:56.821Z</time>
      </trkpt>
      <trkpt lat="46.98894" lon="8.82991">
        <ele>1242</ele>
        <time>2021-08-04T08:09:57.821Z</time>
      </trkpt>
      <trkpt lat="46.98895" lon="8.82989">
        <ele>1242</ele>
        <time>2021-08-04T08:09:58.822Z</time>
      </trkpt>
      <trkpt lat="46.98895" lon="8.82987">
        <ele>1242</ele>
        <time>2021-08-04T08:09:59.821Z</time>
      </trkpt>
      <trkpt lat="46.98894" lon="8.82985">
        <ele>1242</ele>
        <time>2021-08-04T08:10:00.821Z</time>
      </trkpt>
      <trkpt lat="46.98893" lon="8.82983">
        <ele>1242</ele>
        <time>2021-08-04T08:10:01.821Z</time>
      </trkpt>
      <trkpt lat="46.98893" lon="8.82981">
        <ele>1242</ele>
        <time>2021-08-04T08:10:02.821Z</time>
      </trkpt>
      <trkpt lat="46.98893" lon="8.82978">
        <ele>1242</ele>
        <time>2021-08-04T08:10:03.821Z</time>
      </trkpt>
      <trkpt lat="46.98893" lon="8.82976">
        <ele>1242</ele>
        <time>2021-08-04T08:10:04.821Z</time>
      </trkpt>
      <trkpt lat="46.98892" lon="8.82975">
        <ele>1242</ele>
        <time>2021-08-04T08:10:05.821Z</time>
      </trkpt>
      <trkpt lat="46.98893" lon="8.82974">
        <ele>1242</ele>
        <time>2021-08-04T08:10:06.821Z</time>
      </trkpt>
      <trkpt lat="46.98892" lon="8.82972">
        <ele>1241</ele>
        <time>2021-08-04T08:10:07.821Z</time>
      </trkpt>
      <trkpt lat="46.98892" lon="8.82971">
        <ele>1241</ele>
        <time>2021-08-04T08:10:08.821Z</time>
      </trkpt>
      <trkpt lat="46.98892" lon="8.82969">
        <ele>1240</ele>
        <time>2021-08-04T08:10:09.821Z</time>
      </trkpt>
      <trkpt lat="46.98892" lon="8.82967">
        <ele>1240</ele>
        <time>2021-08-04T08:10:10.821Z</time>
      </trkpt>
      <trkpt lat="46.98891" lon="8.82964">
        <ele>1240</ele>
        <time>2021-08-04T08:10:11.821Z</time>
      </trkpt>
      <trkpt lat="46.98891" lon="8.82962">
        <ele>1240</ele>
        <time>2021-08-04T08:10:12.821Z</time>
      </trkpt>
      <trkpt lat="46.98889" lon="8.8296">
        <ele>1239</ele>
        <time>2021-08-04T08:10:13.822Z</time>
      </trkpt>
      <trkpt lat="46.98888" lon="8.82958">
        <ele>1239</ele>
        <time>2021-08-04T08:10:14.821Z</time>
      </trkpt>
      <trkpt lat="46.98887" lon="8.82956">
        <ele>1238</ele>
        <time>2021-08-04T08:10:15.822Z</time>
      </trkpt>
      <trkpt lat="46.98885" lon="8.82954">
        <ele>1238</ele>
        <time>2021-08-04T08:10:16.822Z</time>
      </trkpt>
      <trkpt lat="46.98884" lon="8.82954">
        <ele>1238</ele>
        <time>2021-08-04T08:10:17.822Z</time>
      </trkpt>
      <trkpt lat="46.98882" lon="8.82952">
        <ele>1237</ele>
        <time>2021-08-04T08:10:18.821Z</time>
      </trkpt>
      <trkpt lat="46.98881" lon="8.8295">
        <ele>1237</ele>
        <time>2021-08-04T08:10:19.821Z</time>
      </trkpt>
      <trkpt lat="46.9888" lon="8.82949">
        <ele>1236</ele>
        <time>2021-08-04T08:10:20.821Z</time>
      </trkpt>
      <trkpt lat="46.98879" lon="8.82947">
        <ele>1236</ele>
        <time>2021-08-04T08:10:21.822Z</time>
      </trkpt>
      <trkpt lat="46.98878" lon="8.82946">
        <ele>1236</ele>
        <time>2021-08-04T08:10:22.822Z</time>
      </trkpt>
      <trkpt lat="46.98877" lon="8.82944">
        <ele>1235</ele>
        <time>2021-08-04T08:10:23.822Z</time>
      </trkpt>
      <trkpt lat="46.98876" lon="8.82942">
        <ele>1234</ele>
        <time>2021-08-04T08:10:24.822Z</time>
      </trkpt>
      <trkpt lat="46.98875" lon="8.8294">
        <ele>1234</ele>
        <time>2021-08-04T08:10:25.821Z</time>
      </trkpt>
      <trkpt lat="46.98873" lon="8.82939">
        <ele>1234</ele>
        <time>2021-08-04T08:10:26.822Z</time>
      </trkpt>
      <trkpt lat="46.98873" lon="8.82938">
        <ele>1234</ele>
        <time>2021-08-04T08:10:27.822Z</time>
      </trkpt>
      <trkpt lat="46.98872" lon="8.82936">
        <ele>1234</ele>
        <time>2021-08-04T08:10:28.821Z</time>
      </trkpt>
      <trkpt lat="46.98871" lon="8.82935">
        <ele>1233</ele>
        <time>2021-08-04T08:10:29.822Z</time>
      </trkpt>
      <trkpt lat="46.9887" lon="8.82933">
        <ele>1233</ele>
        <time>2021-08-04T08:10:30.822Z</time>
      </trkpt>
      <trkpt lat="46.98869" lon="8.82932">
        <ele>1233</ele>
        <time>2021-08-04T08:10:31.822Z</time>
      </trkpt>
      <trkpt lat="46.98868" lon="8.82931">
        <ele>1233</ele>
        <time>2021-08-04T08:10:32.821Z</time>
      </trkpt>
      <trkpt lat="46.98868" lon="8.82929">
        <ele>1233</ele>
        <time>2021-08-04T08:10:33.822Z</time>
      </trkpt>
      <trkpt lat="46.98867" lon="8.82928">
        <ele>1232</ele>
        <time>2021-08-04T08:10:34.822Z</time>
      </trkpt>
      <trkpt lat="46.98867" lon="8.82927">
        <ele>1232</ele>
        <time>2021-08-04T08:10:35.822Z</time>
      </trkpt>
      <trkpt lat="46.98867" lon="8.82925">
        <ele>1232</ele>
        <time>2021-08-04T08:10:36.822Z</time>
      </trkpt>
      <trkpt lat="46.98867" lon="8.82924">
        <ele>1232</ele>
        <time>2021-08-04T08:10:37.822Z</time>
      </trkpt>
      <trkpt lat="46.98867" lon="8.82923">
        <ele>1232</ele>
        <time>2021-08-04T08:10:38.822Z</time>
      </trkpt>
      <trkpt lat="46.98867" lon="8.82922">
        <ele>1232</ele>
        <time>2021-08-04T08:10:39.821Z</time>
      </trkpt>
      <trkpt lat="46.98866" lon="8.82921">
        <ele>1232</ele>
        <time>2021-08-04T08:10:40.822Z</time>
      </trkpt>
      <trkpt lat="46.98865" lon="8.82919">
        <ele>1232</ele>
        <time>2021-08-04T08:10:41.822Z</time>
      </trkpt>
      <trkpt lat="46.98864" lon="8.82917">
        <ele>1232</ele>
        <time>2021-08-04T08:10:42.821Z</time>
      </trkpt>
      <trkpt lat="46.98864" lon="8.82916">
        <ele>1232</ele>
        <time>2021-08-04T08:10:43.822Z</time>
      </trkpt>
      <trkpt lat="46.98863" lon="8.82914">
        <ele>1232</ele>
        <time>2021-08-04T08:10:44.822Z</time>
      </trkpt>
      <trkpt lat="46.98863" lon="8.82912">
        <ele>1232</ele>
        <time>2021-08-04T08:10:45.822Z</time>
      </trkpt>
      <trkpt lat="46.98862" lon="8.8291">
        <ele>1232</ele>
        <time>2021-08-04T08:10:46.821Z</time>
      </trkpt>
      <trkpt lat="46.98862" lon="8.82909">
        <ele>1231</ele>
        <time>2021-08-04T08:10:47.822Z</time>
      </trkpt>
      <trkpt lat="46.98861" lon="8.82907">
        <ele>1231</ele>
        <time>2021-08-04T08:10:48.821Z</time>
      </trkpt>
      <trkpt lat="46.98861" lon="8.82905">
        <ele>1231</ele>
        <time>2021-08-04T08:10:49.821Z</time>
      </trkpt>
      <trkpt lat="46.9886" lon="8.82903">
        <ele>1230</ele>
        <time>2021-08-04T08:10:50.822Z</time>
      </trkpt>
      <trkpt lat="46.98859" lon="8.82901">
        <ele>1230</ele>
        <time>2021-08-04T08:10:51.822Z</time>
      </trkpt>
      <trkpt lat="46.98858" lon="8.829">
        <ele>1229</ele>
        <time>2021-08-04T08:10:52.822Z</time>
      </trkpt>
      <trkpt lat="46.98858" lon="8.82898">
        <ele>1229</ele>
        <time>2021-08-04T08:10:53.822Z</time>
      </trkpt>
      <trkpt lat="46.98857" lon="8.82896">
        <ele>1229</ele>
        <time>2021-08-04T08:10:54.822Z</time>
      </trkpt>
      <trkpt lat="46.98857" lon="8.82895">
        <ele>1229</ele>
        <time>2021-08-04T08:10:55.821Z</time>
      </trkpt>
      <trkpt lat="46.98856" lon="8.82893">
        <ele>1229</ele>
        <time>2021-08-04T08:10:56.822Z</time>
      </trkpt>
      <trkpt lat="46.98855" lon="8.82892">
        <ele>1230</ele>
        <time>2021-08-04T08:10:57.822Z</time>
      </trkpt>
      <trkpt lat="46.98854" lon="8.8289">
        <ele>1230</ele>
        <time>2021-08-04T08:10:58.822Z</time>
      </trkpt>
      <trkpt lat="46.98854" lon="8.82888">
        <ele>1230</ele>
        <time>2021-08-04T08:10:59.821Z</time>
      </trkpt>
      <trkpt lat="46.98854" lon="8.82886">
        <ele>1230</ele>
        <time>2021-08-04T08:11:00.821Z</time>
      </trkpt>
      <trkpt lat="46.98853" lon="8.82883">
        <ele>1230</ele>
        <time>2021-08-04T08:11:01.821Z</time>
      </trkpt>
      <trkpt lat="46.98853" lon="8.82881">
        <ele>1230</ele>
        <time>2021-08-04T08:11:02.821Z</time>
      </trkpt>
      <trkpt lat="46.98852" lon="8.82879">
        <ele>1230</ele>
        <time>2021-08-04T08:11:03.822Z</time>
      </trkpt>
      <trkpt lat="46.98852" lon="8.82877">
        <ele>1230</ele>
        <time>2021-08-04T08:11:04.822Z</time>
      </trkpt>
      <trkpt lat="46.98852" lon="8.82876">
        <ele>1230</ele>
        <time>2021-08-04T08:11:05.822Z</time>
      </trkpt>
      <trkpt lat="46.98851" lon="8.82874">
        <ele>1230</ele>
        <time>2021-08-04T08:11:06.822Z</time>
      </trkpt>
      <trkpt lat="46.98851" lon="8.82873">
        <ele>1230</ele>
        <time>2021-08-04T08:11:07.822Z</time>
      </trkpt>
      <trkpt lat="46.98851" lon="8.82871">
        <ele>1229</ele>
        <time>2021-08-04T08:11:08.822Z</time>
      </trkpt>
      <trkpt lat="46.9885" lon="8.82869">
        <ele>1229</ele>
        <time>2021-08-04T08:11:09.821Z</time>
      </trkpt>
      <trkpt lat="46.9885" lon="8.82868">
        <ele>1228</ele>
        <time>2021-08-04T08:11:10.822Z</time>
      </trkpt>
      <trkpt lat="46.9885" lon="8.82866">
        <ele>1228</ele>
        <time>2021-08-04T08:11:11.822Z</time>
      </trkpt>
      <trkpt lat="46.98849" lon="8.82865">
        <ele>1228</ele>
        <time>2021-08-04T08:11:12.821Z</time>
      </trkpt>
      <trkpt lat="46.98849" lon="8.82863">
        <ele>1227</ele>
        <time>2021-08-04T08:11:13.822Z</time>
      </trkpt>
      <trkpt lat="46.98848" lon="8.82862">
        <ele>1227</ele>
        <time>2021-08-04T08:11:14.822Z</time>
      </trkpt>
      <trkpt lat="46.98848" lon="8.8286">
        <ele>1227</ele>
        <time>2021-08-04T08:11:15.821Z</time>
      </trkpt>
      <trkpt lat="46.98848" lon="8.82858">
        <ele>1227</ele>
        <time>2021-08-04T08:11:16.822Z</time>
      </trkpt>
      <trkpt lat="46.98848" lon="8.82857">
        <ele>1227</ele>
        <time>2021-08-04T08:11:17.822Z</time>
      </trkpt>
      <trkpt lat="46.98849" lon="8.82856">
        <ele>1227</ele>
        <time>2021-08-04T08:11:18.821Z</time>
      </trkpt>
      <trkpt lat="46.98848" lon="8.82854">
        <ele>1227</ele>
        <time>2021-08-04T08:11:19.822Z</time>
      </trkpt>
      <trkpt lat="46.98848" lon="8.82853">
        <ele>1228</ele>
        <time>2021-08-04T08:11:20.822Z</time>
      </trkpt>
      <trkpt lat="46.98848" lon="8.82851">
        <ele>1228</ele>
        <time>2021-08-04T08:11:21.821Z</time>
      </trkpt>
      <trkpt lat="46.98849" lon="8.8285">
        <ele>1228</ele>
        <time>2021-08-04T08:11:22.821Z</time>
      </trkpt>
      <trkpt lat="46.98849" lon="8.82847">
        <ele>1228</ele>
        <time>2021-08-04T08:11:23.822Z</time>
      </trkpt>
      <trkpt lat="46.98849" lon="8.82845">
        <ele>1228</ele>
        <time>2021-08-04T08:11:24.822Z</time>
      </trkpt>
      <trkpt lat="46.98849" lon="8.82843">
        <ele>1228</ele>
        <time>2021-08-04T08:11:25.822Z</time>
      </trkpt>
      <trkpt lat="46.98849" lon="8.82841">
        <ele>1228</ele>
        <time>2021-08-04T08:11:26.821Z</time>
      </trkpt>
      <trkpt lat="46.98849" lon="8.82838">
        <ele>1228</ele>
        <time>2021-08-04T08:11:27.822Z</time>
      </trkpt>
      <trkpt lat="46.9885" lon="8.82836">
        <ele>1229</ele>
        <time>2021-08-04T08:11:28.822Z</time>
      </trkpt>
      <trkpt lat="46.98851" lon="8.82834">
        <ele>1229</ele>
        <time>2021-08-04T08:11:29.822Z</time>
      </trkpt>
      <trkpt lat="46.98851" lon="8.82832">
        <ele>1230</ele>
        <time>2021-08-04T08:11:30.821Z</time>
      </trkpt>
      <trkpt lat="46.98851" lon="8.82831">
        <ele>1230</ele>
        <time>2021-08-04T08:11:31.821Z</time>
      </trkpt>
      <trkpt lat="46.98852" lon="8.82829">
        <ele>1230</ele>
        <time>2021-08-04T08:11:32.822Z</time>
      </trkpt>
      <trkpt lat="46.98852" lon="8.82828">
        <ele>1230</ele>
        <time>2021-08-04T08:11:33.822Z</time>
      </trkpt>
      <trkpt lat="46.98852" lon="8.82826">
        <ele>1230</ele>
        <time>2021-08-04T08:11:34.821Z</time>
      </trkpt>
      <trkpt lat="46.98852" lon="8.82825">
        <ele>1230</ele>
        <time>2021-08-04T08:11:35.822Z</time>
      </trkpt>
      <trkpt lat="46.98853" lon="8.82823">
        <ele>1230</ele>
        <time>2021-08-04T08:11:36.822Z</time>
      </trkpt>
      <trkpt lat="46.98854" lon="8.82822">
        <ele>1229</ele>
        <time>2021-08-04T08:11:37.822Z</time>
      </trkpt>
      <trkpt lat="46.98855" lon="8.8282">
        <ele>1229</ele>
        <time>2021-08-04T08:11:38.822Z</time>
      </trkpt>
      <trkpt lat="46.98855" lon="8.82818">
        <ele>1229</ele>
        <time>2021-08-04T08:11:39.822Z</time>
      </trkpt>
      <trkpt lat="46.98856" lon="8.82817">
        <ele>1229</ele>
        <time>2021-08-04T08:11:40.822Z</time>
      </trkpt>
      <trkpt lat="46.98856" lon="8.82815">
        <ele>1228</ele>
        <time>2021-08-04T08:11:41.821Z</time>
      </trkpt>
      <trkpt lat="46.98856" lon="8.82813">
        <ele>1228</ele>
        <time>2021-08-04T08:11:42.822Z</time>
      </trkpt>
      <trkpt lat="46.98856" lon="8.82811">
        <ele>1227</ele>
        <time>2021-08-04T08:11:43.821Z</time>
      </trkpt>
      <trkpt lat="46.98856" lon="8.8281">
        <ele>1227</ele>
        <time>2021-08-04T08:11:44.822Z</time>
      </trkpt>
      <trkpt lat="46.98856" lon="8.82808">
        <ele>1227</ele>
        <time>2021-08-04T08:11:45.822Z</time>
      </trkpt>
      <trkpt lat="46.98857" lon="8.82808">
        <ele>1227</ele>
        <time>2021-08-04T08:11:46.822Z</time>
      </trkpt>
      <trkpt lat="46.98858" lon="8.82808">
        <ele>1226</ele>
        <time>2021-08-04T08:11:47.822Z</time>
      </trkpt>
      <trkpt lat="46.98858" lon="8.82807">
        <ele>1226</ele>
        <time>2021-08-04T08:11:48.822Z</time>
      </trkpt>
      <trkpt lat="46.98859" lon="8.82805">
        <ele>1226</ele>
        <time>2021-08-04T08:11:49.822Z</time>
      </trkpt>
      <trkpt lat="46.9886" lon="8.82804">
        <ele>1226</ele>
        <time>2021-08-04T08:11:50.822Z</time>
      </trkpt>
      <trkpt lat="46.9886" lon="8.82803">
        <ele>1225</ele>
        <time>2021-08-04T08:11:51.821Z</time>
      </trkpt>
      <trkpt lat="46.9886" lon="8.82801">
        <ele>1225</ele>
        <time>2021-08-04T08:11:52.822Z</time>
      </trkpt>
      <trkpt lat="46.98861" lon="8.82799">
        <ele>1225</ele>
        <time>2021-08-04T08:11:53.822Z</time>
      </trkpt>
      <trkpt lat="46.98861" lon="8.82798">
        <ele>1225</ele>
        <time>2021-08-04T08:11:54.822Z</time>
      </trkpt>
      <trkpt lat="46.98861" lon="8.82796">
        <ele>1225</ele>
        <time>2021-08-04T08:11:55.822Z</time>
      </trkpt>
      <trkpt lat="46.98861" lon="8.82794">
        <ele>1225</ele>
        <time>2021-08-04T08:11:56.821Z</time>
      </trkpt>
      <trkpt lat="46.98862" lon="8.82793">
        <ele>1224</ele>
        <time>2021-08-04T08:11:57.822Z</time>
      </trkpt>
      <trkpt lat="46.98863" lon="8.82792">
        <ele>1225</ele>
        <time>2021-08-04T08:11:58.822Z</time>
      </trkpt>
      <trkpt lat="46.98864" lon="8.8279">
        <ele>1225</ele>
        <time>2021-08-04T08:11:59.821Z</time>
      </trkpt>
      <trkpt lat="46.98864" lon="8.82789">
        <ele>1225</ele>
        <time>2021-08-04T08:12:00.822Z</time>
      </trkpt>
      <trkpt lat="46.98864" lon="8.82787">
        <ele>1225</ele>
        <time>2021-08-04T08:12:01.821Z</time>
      </trkpt>
      <trkpt lat="46.98864" lon="8.82786">
        <ele>1224</ele>
        <time>2021-08-04T08:12:02.822Z</time>
      </trkpt>
      <trkpt lat="46.98864" lon="8.82784">
        <ele>1224</ele>
        <time>2021-08-04T08:12:03.822Z</time>
      </trkpt>
      <trkpt lat="46.98865" lon="8.82782">
        <ele>1224</ele>
        <time>2021-08-04T08:12:04.822Z</time>
      </trkpt>
      <trkpt lat="46.98865" lon="8.82781">
        <ele>1224</ele>
        <time>2021-08-04T08:12:05.821Z</time>
      </trkpt>
      <trkpt lat="46.98865" lon="8.82779">
        <ele>1224</ele>
        <time>2021-08-04T08:12:06.822Z</time>
      </trkpt>
      <trkpt lat="46.98865" lon="8.82777">
        <ele>1224</ele>
        <time>2021-08-04T08:12:07.822Z</time>
      </trkpt>
      <trkpt lat="46.98865" lon="8.82775">
        <ele>1224</ele>
        <time>2021-08-04T08:12:08.821Z</time>
      </trkpt>
      <trkpt lat="46.98865" lon="8.82774">
        <ele>1225</ele>
        <time>2021-08-04T08:12:09.822Z</time>
      </trkpt>
      <trkpt lat="46.98866" lon="8.82772">
        <ele>1225</ele>
        <time>2021-08-04T08:12:10.822Z</time>
      </trkpt>
      <trkpt lat="46.98867" lon="8.8277">
        <ele>1225</ele>
        <time>2021-08-04T08:12:11.822Z</time>
      </trkpt>
      <trkpt lat="46.98868" lon="8.82768">
        <ele>1224</ele>
        <time>2021-08-04T08:12:12.821Z</time>
      </trkpt>
      <trkpt lat="46.98868" lon="8.82766">
        <ele>1224</ele>
        <time>2021-08-04T08:12:13.822Z</time>
      </trkpt>
      <trkpt lat="46.98869" lon="8.82764">
        <ele>1224</ele>
        <time>2021-08-04T08:12:14.822Z</time>
      </trkpt>
      <trkpt lat="46.98869" lon="8.82761">
        <ele>1224</ele>
        <time>2021-08-04T08:12:15.822Z</time>
      </trkpt>
      <trkpt lat="46.9887" lon="8.82759">
        <ele>1223</ele>
        <time>2021-08-04T08:12:16.821Z</time>
      </trkpt>
      <trkpt lat="46.98871" lon="8.82757">
        <ele>1223</ele>
        <time>2021-08-04T08:12:17.821Z</time>
      </trkpt>
      <trkpt lat="46.98872" lon="8.82755">
        <ele>1223</ele>
        <time>2021-08-04T08:12:18.822Z</time>
      </trkpt>
      <trkpt lat="46.98873" lon="8.82752">
        <ele>1223</ele>
        <time>2021-08-04T08:12:19.822Z</time>
      </trkpt>
      <trkpt lat="46.98873" lon="8.82749">
        <ele>1223</ele>
        <time>2021-08-04T08:12:20.822Z</time>
      </trkpt>
      <trkpt lat="46.98873" lon="8.82748">
        <ele>1223</ele>
        <time>2021-08-04T08:12:21.822Z</time>
      </trkpt>
      <trkpt lat="46.98873" lon="8.82746">
        <ele>1223</ele>
        <time>2021-08-04T08:12:22.822Z</time>
      </trkpt>
      <trkpt lat="46.98872" lon="8.82744">
        <ele>1222</ele>
        <time>2021-08-04T08:12:23.822Z</time>
      </trkpt>
      <trkpt lat="46.98872" lon="8.82742">
        <ele>1222</ele>
        <time>2021-08-04T08:12:24.821Z</time>
      </trkpt>
      <trkpt lat="46.98871" lon="8.82741">
        <ele>1222</ele>
        <time>2021-08-04T08:12:25.822Z</time>
      </trkpt>
      <trkpt lat="46.9887" lon="8.82739">
        <ele>1221</ele>
        <time>2021-08-04T08:12:26.822Z</time>
      </trkpt>
      <trkpt lat="46.98871" lon="8.82738">
        <ele>1221</ele>
        <time>2021-08-04T08:12:27.821Z</time>
      </trkpt>
      <trkpt lat="46.9887" lon="8.82737">
        <ele>1221</ele>
        <time>2021-08-04T08:12:28.822Z</time>
      </trkpt>
      <trkpt lat="46.9887" lon="8.82736">
        <ele>1220</ele>
        <time>2021-08-04T08:12:29.822Z</time>
      </trkpt>
      <trkpt lat="46.9887" lon="8.82735">
        <ele>1220</ele>
        <time>2021-08-04T08:12:30.822Z</time>
      </trkpt>
      <trkpt lat="46.9887" lon="8.82734">
        <ele>1219</ele>
        <time>2021-08-04T08:12:31.822Z</time>
      </trkpt>
      <trkpt lat="46.9887" lon="8.82732">
        <ele>1218</ele>
        <time>2021-08-04T08:12:32.821Z</time>
      </trkpt>
      <trkpt lat="46.98871" lon="8.82731">
        <ele>1218</ele>
        <time>2021-08-04T08:12:33.821Z</time>
      </trkpt>
      <trkpt lat="46.98871" lon="8.82731">
        <ele>1217</ele>
        <time>2021-08-04T08:12:34.822Z</time>
      </trkpt>
      <trkpt lat="46.98871" lon="8.8273">
        <ele>1217</ele>
        <time>2021-08-04T08:12:35.822Z</time>
      </trkpt>
      <trkpt lat="46.98871" lon="8.82729">
        <ele>1217</ele>
        <time>2021-08-04T08:12:36.822Z</time>
      </trkpt>
      <trkpt lat="46.98871" lon="8.82727">
        <ele>1217</ele>
        <time>2021-08-04T08:12:37.822Z</time>
      </trkpt>
      <trkpt lat="46.98872" lon="8.82726">
        <ele>1216</ele>
        <time>2021-08-04T08:12:38.822Z</time>
      </trkpt>
      <trkpt lat="46.98872" lon="8.82725">
        <ele>1216</ele>
        <time>2021-08-04T08:12:39.821Z</time>
      </trkpt>
      <trkpt lat="46.98872" lon="8.82724">
        <ele>1216</ele>
        <time>2021-08-04T08:12:40.822Z</time>
      </trkpt>
      <trkpt lat="46.98871" lon="8.82723">
        <ele>1216</ele>
        <time>2021-08-04T08:12:41.822Z</time>
      </trkpt>
      <trkpt lat="46.98871" lon="8.82723">
        <ele>1216</ele>
        <time>2021-08-04T08:12:42.821Z</time>
      </trkpt>
      <trkpt lat="46.98871" lon="8.82722">
        <ele>1216</ele>
        <time>2021-08-04T08:12:43.822Z</time>
      </trkpt>
      <trkpt lat="46.98871" lon="8.82721">
        <ele>1216</ele>
        <time>2021-08-04T08:12:44.822Z</time>
      </trkpt>
      <trkpt lat="46.98871" lon="8.8272">
        <ele>1216</ele>
        <time>2021-08-04T08:12:45.822Z</time>
      </trkpt>
      <trkpt lat="46.98871" lon="8.82719">
        <ele>1216</ele>
        <time>2021-08-04T08:12:46.822Z</time>
      </trkpt>
      <trkpt lat="46.98871" lon="8.82718">
        <ele>1216</ele>
        <time>2021-08-04T08:12:47.821Z</time>
      </trkpt>
      <trkpt lat="46.9887" lon="8.82717">
        <ele>1216</ele>
        <time>2021-08-04T08:12:48.822Z</time>
      </trkpt>
      <trkpt lat="46.9887" lon="8.82716">
        <ele>1216</ele>
        <time>2021-08-04T08:12:49.822Z</time>
      </trkpt>
      <trkpt lat="46.9887" lon="8.82714">
        <ele>1215</ele>
        <time>2021-08-04T08:12:50.822Z</time>
      </trkpt>
      <trkpt lat="46.98871" lon="8.82713">
        <ele>1215</ele>
        <time>2021-08-04T08:12:51.821Z</time>
      </trkpt>
      <trkpt lat="46.98871" lon="8.82711">
        <ele>1214</ele>
        <time>2021-08-04T08:12:52.822Z</time>
      </trkpt>
      <trkpt lat="46.98871" lon="8.8271">
        <ele>1214</ele>
        <time>2021-08-04T08:12:53.821Z</time>
      </trkpt>
      <trkpt lat="46.98871" lon="8.82708">
        <ele>1214</ele>
        <time>2021-08-04T08:12:54.822Z</time>
      </trkpt>
      <trkpt lat="46.9887" lon="8.82706">
        <ele>1213</ele>
        <time>2021-08-04T08:12:55.822Z</time>
      </trkpt>
      <trkpt lat="46.98869" lon="8.82704">
        <ele>1213</ele>
        <time>2021-08-04T08:12:56.822Z</time>
      </trkpt>
      <trkpt lat="46.98869" lon="8.82701">
        <ele>1213</ele>
        <time>2021-08-04T08:12:57.821Z</time>
      </trkpt>
      <trkpt lat="46.98868" lon="8.82698">
        <ele>1213</ele>
        <time>2021-08-04T08:12:58.822Z</time>
      </trkpt>
      <trkpt lat="46.98869" lon="8.82696">
        <ele>1213</ele>
        <time>2021-08-04T08:12:59.821Z</time>
      </trkpt>
      <trkpt lat="46.98869" lon="8.82694">
        <ele>1213</ele>
        <time>2021-08-04T08:13:00.822Z</time>
      </trkpt>
      <trkpt lat="46.98869" lon="8.82692">
        <ele>1213</ele>
        <time>2021-08-04T08:13:01.822Z</time>
      </trkpt>
      <trkpt lat="46.98869" lon="8.82689">
        <ele>1213</ele>
        <time>2021-08-04T08:13:02.822Z</time>
      </trkpt>
      <trkpt lat="46.98868" lon="8.82687">
        <ele>1212</ele>
        <time>2021-08-04T08:13:03.821Z</time>
      </trkpt>
      <trkpt lat="46.98867" lon="8.82685">
        <ele>1212</ele>
        <time>2021-08-04T08:13:04.822Z</time>
      </trkpt>
      <trkpt lat="46.98866" lon="8.82683">
        <ele>1212</ele>
        <time>2021-08-04T08:13:05.822Z</time>
      </trkpt>
      <trkpt lat="46.98865" lon="8.82681">
        <ele>1211</ele>
        <time>2021-08-04T08:13:06.822Z</time>
      </trkpt>
      <trkpt lat="46.98864" lon="8.8268">
        <ele>1211</ele>
        <time>2021-08-04T08:13:07.822Z</time>
      </trkpt>
      <trkpt lat="46.98864" lon="8.82679">
        <ele>1211</ele>
        <time>2021-08-04T08:13:08.822Z</time>
      </trkpt>
      <trkpt lat="46.98864" lon="8.82679">
        <ele>1211</ele>
        <time>2021-08-04T08:13:09.822Z</time>
      </trkpt>
      <trkpt lat="46.98864" lon="8.82678">
        <ele>1210</ele>
        <time>2021-08-04T08:13:10.821Z</time>
      </trkpt>
      <trkpt lat="46.98863" lon="8.82677">
        <ele>1210</ele>
        <time>2021-08-04T08:13:11.822Z</time>
      </trkpt>
      <trkpt lat="46.98863" lon="8.82674">
        <ele>1209</ele>
        <time>2021-08-04T08:13:12.822Z</time>
      </trkpt>
      <trkpt lat="46.98863" lon="8.82673">
        <ele>1209</ele>
        <time>2021-08-04T08:13:13.822Z</time>
      </trkpt>
      <trkpt lat="46.98863" lon="8.82672">
        <ele>1208</ele>
        <time>2021-08-04T08:13:14.821Z</time>
      </trkpt>
      <trkpt lat="46.98864" lon="8.82671">
        <ele>1208</ele>
        <time>2021-08-04T08:13:15.821Z</time>
      </trkpt>
      <trkpt lat="46.98864" lon="8.82669">
        <ele>1208</ele>
        <time>2021-08-04T08:13:16.822Z</time>
      </trkpt>
      <trkpt lat="46.98865" lon="8.82667">
        <ele>1207</ele>
        <time>2021-08-04T08:13:17.822Z</time>
      </trkpt>
      <trkpt lat="46.98864" lon="8.82665">
        <ele>1207</ele>
        <time>2021-08-04T08:13:18.822Z</time>
      </trkpt>
      <trkpt lat="46.98864" lon="8.82662">
        <ele>1207</ele>
        <time>2021-08-04T08:13:19.822Z</time>
      </trkpt>
      <trkpt lat="46.98863" lon="8.82659">
        <ele>1207</ele>
        <time>2021-08-04T08:13:20.822Z</time>
      </trkpt>
      <trkpt lat="46.98863" lon="8.82658">
        <ele>1206</ele>
        <time>2021-08-04T08:13:21.821Z</time>
      </trkpt>
      <trkpt lat="46.98863" lon="8.82657">
        <ele>1206</ele>
        <time>2021-08-04T08:13:22.821Z</time>
      </trkpt>
      <trkpt lat="46.98863" lon="8.82656">
        <ele>1206</ele>
        <time>2021-08-04T08:13:23.822Z</time>
      </trkpt>
      <trkpt lat="46.98863" lon="8.82654">
        <ele>1206</ele>
        <time>2021-08-04T08:13:24.822Z</time>
      </trkpt>
      <trkpt lat="46.98862" lon="8.82653">
        <ele>1206</ele>
        <time>2021-08-04T08:13:25.821Z</time>
      </trkpt>
      <trkpt lat="46.98862" lon="8.82652">
        <ele>1207</ele>
        <time>2021-08-04T08:13:26.822Z</time>
      </trkpt>
      <trkpt lat="46.98862" lon="8.82651">
        <ele>1207</ele>
        <time>2021-08-04T08:13:27.822Z</time>
      </trkpt>
      <trkpt lat="46.98862" lon="8.82649">
        <ele>1207</ele>
        <time>2021-08-04T08:13:28.822Z</time>
      </trkpt>
      <trkpt lat="46.98862" lon="8.82648">
        <ele>1207</ele>
        <time>2021-08-04T08:13:29.822Z</time>
      </trkpt>
      <trkpt lat="46.98861" lon="8.82647">
        <ele>1208</ele>
        <time>2021-08-04T08:13:30.821Z</time>
      </trkpt>
      <trkpt lat="46.98861" lon="8.82646">
        <ele>1208</ele>
        <time>2021-08-04T08:13:31.822Z</time>
      </trkpt>
      <trkpt lat="46.9886" lon="8.82645">
        <ele>1208</ele>
        <time>2021-08-04T08:13:32.822Z</time>
      </trkpt>
      <trkpt lat="46.9886" lon="8.82644">
        <ele>1209</ele>
        <time>2021-08-04T08:13:33.822Z</time>
      </trkpt>
      <trkpt lat="46.98859" lon="8.82644">
        <ele>1209</ele>
        <time>2021-08-04T08:13:34.821Z</time>
      </trkpt>
      <trkpt lat="46.98859" lon="8.82642">
        <ele>1209</ele>
        <time>2021-08-04T08:13:35.823Z</time>
      </trkpt>
      <trkpt lat="46.98858" lon="8.8264">
        <ele>1209</ele>
        <time>2021-08-04T08:13:36.823Z</time>
      </trkpt>
      <trkpt lat="46.98857" lon="8.82638">
        <ele>1208</ele>
        <time>2021-08-04T08:13:37.822Z</time>
      </trkpt>
      <trkpt lat="46.98857" lon="8.82637">
        <ele>1208</ele>
        <time>2021-08-04T08:13:38.822Z</time>
      </trkpt>
      <trkpt lat="46.98857" lon="8.82635">
        <ele>1208</ele>
        <time>2021-08-04T08:13:39.823Z</time>
      </trkpt>
      <trkpt lat="46.98856" lon="8.82632">
        <ele>1207</ele>
        <time>2021-08-04T08:13:40.822Z</time>
      </trkpt>
      <trkpt lat="46.98855" lon="8.8263">
        <ele>1207</ele>
        <time>2021-08-04T08:13:41.823Z</time>
      </trkpt>
      <trkpt lat="46.98853" lon="8.82627">
        <ele>1206</ele>
        <time>2021-08-04T08:13:42.823Z</time>
      </trkpt>
      <trkpt lat="46.98852" lon="8.82625">
        <ele>1206</ele>
        <time>2021-08-04T08:13:43.823Z</time>
      </trkpt>
      <trkpt lat="46.98852" lon="8.82623">
        <ele>1205</ele>
        <time>2021-08-04T08:13:44.822Z</time>
      </trkpt>
      <trkpt lat="46.98851" lon="8.82621">
        <ele>1205</ele>
        <time>2021-08-04T08:13:45.822Z</time>
      </trkpt>
      <trkpt lat="46.9885" lon="8.82619">
        <ele>1204</ele>
        <time>2021-08-04T08:13:46.823Z</time>
      </trkpt>
      <trkpt lat="46.98849" lon="8.82618">
        <ele>1204</ele>
        <time>2021-08-04T08:13:47.823Z</time>
      </trkpt>
      <trkpt lat="46.98848" lon="8.82616">
        <ele>1203</ele>
        <time>2021-08-04T08:13:48.823Z</time>
      </trkpt>
      <trkpt lat="46.98847" lon="8.82614">
        <ele>1203</ele>
        <time>2021-08-04T08:13:49.823Z</time>
      </trkpt>
      <trkpt lat="46.98846" lon="8.82612">
        <ele>1203</ele>
        <time>2021-08-04T08:13:50.823Z</time>
      </trkpt>
      <trkpt lat="46.98846" lon="8.82611">
        <ele>1203</ele>
        <time>2021-08-04T08:13:51.823Z</time>
      </trkpt>
      <trkpt lat="46.98846" lon="8.82611">
        <ele>1203</ele>
        <time>2021-08-04T08:13:52.822Z</time>
      </trkpt>
      <trkpt lat="46.98847" lon="8.82611">
        <ele>1203</ele>
        <time>2021-08-04T08:13:53.822Z</time>
      </trkpt>
      <trkpt lat="46.98849" lon="8.82612">
        <ele>1203</ele>
        <time>2021-08-04T08:13:54.823Z</time>
      </trkpt>
      <trkpt lat="46.98849" lon="8.82613">
        <ele>1203</ele>
        <time>2021-08-04T08:13:55.823Z</time>
      </trkpt>
      <trkpt lat="46.98849" lon="8.82613">
        <ele>1203</ele>
        <time>2021-08-04T08:13:56.824Z</time>
      </trkpt>
      <trkpt lat="46.98849" lon="8.82612">
        <ele>1203</ele>
        <time>2021-08-04T08:13:57.823Z</time>
      </trkpt>
      <trkpt lat="46.98854" lon="8.8261">
        <ele>1208</ele>
        <time>2021-08-04T08:13:58.823Z</time>
      </trkpt>
      <trkpt lat="46.98854" lon="8.8261">
        <ele>1208</ele>
        <time>2021-08-04T08:13:59.824Z</time>
      </trkpt>
      <trkpt lat="46.98855" lon="8.82609">
        <ele>1209</ele>
        <time>2021-08-04T08:14:00.824Z</time>
      </trkpt>
      <trkpt lat="46.98855" lon="8.82607">
        <ele>1209</ele>
        <time>2021-08-04T08:14:01.823Z</time>
      </trkpt>
      <trkpt lat="46.98862" lon="8.82606">
        <ele>1213</ele>
        <time>2021-08-04T08:14:02.824Z</time>
      </trkpt>
      <trkpt lat="46.98863" lon="8.82606">
        <ele>1213</ele>
        <time>2021-08-04T08:14:03.824Z</time>
      </trkpt>
      <trkpt lat="46.98864" lon="8.82606">
        <ele>1212</ele>
        <time>2021-08-04T08:14:04.823Z</time>
      </trkpt>
      <trkpt lat="46.98863" lon="8.82605">
        <ele>1212</ele>
        <time>2021-08-04T08:14:05.823Z</time>
      </trkpt>
      <trkpt lat="46.98862" lon="8.82604">
        <ele>1212</ele>
        <time>2021-08-04T08:14:06.824Z</time>
      </trkpt>
      <trkpt lat="46.98862" lon="8.82603">
        <ele>1212</ele>
        <time>2021-08-04T08:14:07.824Z</time>
      </trkpt>
      <trkpt lat="46.98861" lon="8.82603">
        <ele>1212</ele>
        <time>2021-08-04T08:14:08.824Z</time>
      </trkpt>
      <trkpt lat="46.9886" lon="8.82602">
        <ele>1212</ele>
        <time>2021-08-04T08:14:09.823Z</time>
      </trkpt>
      <trkpt lat="46.9886" lon="8.82601">
        <ele>1212</ele>
        <time>2021-08-04T08:14:10.823Z</time>
      </trkpt>
      <trkpt lat="46.98859" lon="8.826">
        <ele>1212</ele>
        <time>2021-08-04T08:14:11.823Z</time>
      </trkpt>
      <trkpt lat="46.98859" lon="8.82598">
        <ele>1212</ele>
        <time>2021-08-04T08:14:12.824Z</time>
      </trkpt>
      <trkpt lat="46.98859" lon="8.82597">
        <ele>1211</ele>
        <time>2021-08-04T08:14:13.823Z</time>
      </trkpt>
      <trkpt lat="46.98859" lon="8.82596">
        <ele>1211</ele>
        <time>2021-08-04T08:14:14.824Z</time>
      </trkpt>
      <trkpt lat="46.98859" lon="8.82595">
        <ele>1211</ele>
        <time>2021-08-04T08:14:15.824Z</time>
      </trkpt>
      <trkpt lat="46.98859" lon="8.82594">
        <ele>1211</ele>
        <time>2021-08-04T08:14:16.824Z</time>
      </trkpt>
      <trkpt lat="46.98858" lon="8.82593">
        <ele>1211</ele>
        <time>2021-08-04T08:14:17.823Z</time>
      </trkpt>
      <trkpt lat="46.98858" lon="8.82592">
        <ele>1210</ele>
        <time>2021-08-04T08:14:18.823Z</time>
      </trkpt>
      <trkpt lat="46.98857" lon="8.8259">
        <ele>1210</ele>
        <time>2021-08-04T08:14:19.824Z</time>
      </trkpt>
      <trkpt lat="46.98856" lon="8.82587">
        <ele>1210</ele>
        <time>2021-08-04T08:14:20.824Z</time>
      </trkpt>
      <trkpt lat="46.98856" lon="8.82585">
        <ele>1210</ele>
        <time>2021-08-04T08:14:21.823Z</time>
      </trkpt>
      <trkpt lat="46.98856" lon="8.82584">
        <ele>1210</ele>
        <time>2021-08-04T08:14:22.824Z</time>
      </trkpt>
      <trkpt lat="46.98856" lon="8.82583">
        <ele>1210</ele>
        <time>2021-08-04T08:14:23.823Z</time>
      </trkpt>
      <trkpt lat="46.98856" lon="8.82583">
        <ele>1209</ele>
        <time>2021-08-04T08:14:24.824Z</time>
      </trkpt>
      <trkpt lat="46.98856" lon="8.82582">
        <ele>1209</ele>
        <time>2021-08-04T08:14:25.824Z</time>
      </trkpt>
      <trkpt lat="46.98855" lon="8.82581">
        <ele>1209</ele>
        <time>2021-08-04T08:14:26.823Z</time>
      </trkpt>
      <trkpt lat="46.98855" lon="8.8258">
        <ele>1208</ele>
        <time>2021-08-04T08:14:27.824Z</time>
      </trkpt>
      <trkpt lat="46.98855" lon="8.82579">
        <ele>1208</ele>
        <time>2021-08-04T08:14:28.824Z</time>
      </trkpt>
      <trkpt lat="46.98856" lon="8.82579">
        <ele>1207</ele>
        <time>2021-08-04T08:14:29.824Z</time>
      </trkpt>
      <trkpt lat="46.98856" lon="8.82579">
        <ele>1207</ele>
        <time>2021-08-04T08:14:30.824Z</time>
      </trkpt>
      <trkpt lat="46.98856" lon="8.82578">
        <ele>1206</ele>
        <time>2021-08-04T08:14:31.824Z</time>
      </trkpt>
      <trkpt lat="46.98855" lon="8.82578">
        <ele>1206</ele>
        <time>2021-08-04T08:14:32.823Z</time>
      </trkpt>
      <trkpt lat="46.98854" lon="8.82577">
        <ele>1206</ele>
        <time>2021-08-04T08:14:33.823Z</time>
      </trkpt>
      <trkpt lat="46.98852" lon="8.82575">
        <ele>1209</ele>
        <time>2021-08-04T08:14:34.823Z</time>
      </trkpt>
      <trkpt lat="46.98851" lon="8.82575">
        <ele>1210</ele>
        <time>2021-08-04T08:14:35.824Z</time>
      </trkpt>
      <trkpt lat="46.9885" lon="8.82574">
        <ele>1211</ele>
        <time>2021-08-04T08:14:36.824Z</time>
      </trkpt>
      <trkpt lat="46.98849" lon="8.82575">
        <ele>1212</ele>
        <time>2021-08-04T08:14:37.824Z</time>
      </trkpt>
      <trkpt lat="46.9885" lon="8.82575">
        <ele>1213</ele>
        <time>2021-08-04T08:14:38.824Z</time>
      </trkpt>
      <trkpt lat="46.9885" lon="8.82575">
        <ele>1214</ele>
        <time>2021-08-04T08:14:39.823Z</time>
      </trkpt>
      <trkpt lat="46.9885" lon="8.82575">
        <ele>1214</ele>
        <time>2021-08-04T08:14:40.824Z</time>
      </trkpt>
      <trkpt lat="46.98849" lon="8.82578">
        <ele>1214</ele>
        <time>2021-08-04T08:14:41.825Z</time>
      </trkpt>
      <trkpt lat="46.98848" lon="8.8258">
        <ele>1215</ele>
        <time>2021-08-04T08:14:42.825Z</time>
      </trkpt>
      <trkpt lat="46.98848" lon="8.82582">
        <ele>1215</ele>
        <time>2021-08-04T08:14:43.824Z</time>
      </trkpt>
      <trkpt lat="46.98848" lon="8.82583">
        <ele>1215</ele>
        <time>2021-08-04T08:14:44.824Z</time>
      </trkpt>
      <trkpt lat="46.98848" lon="8.82585">
        <ele>1215</ele>
        <time>2021-08-04T08:14:45.825Z</time>
      </trkpt>
      <trkpt lat="46.98848" lon="8.82585">
        <ele>1215</ele>
        <time>2021-08-04T08:14:46.824Z</time>
      </trkpt>
      <trkpt lat="46.98848" lon="8.82585">
        <ele>1215</ele>
        <time>2021-08-04T08:14:47.824Z</time>
      </trkpt>
      <trkpt lat="46.98849" lon="8.82586">
        <ele>1215</ele>
        <time>2021-08-04T08:14:48.824Z</time>
      </trkpt>
      <trkpt lat="46.98848" lon="8.82586">
        <ele>1214</ele>
        <time>2021-08-04T08:14:49.824Z</time>
      </trkpt>
      <trkpt lat="46.98847" lon="8.82586">
        <ele>1214</ele>
        <time>2021-08-04T08:14:50.825Z</time>
      </trkpt>
      <trkpt lat="46.98847" lon="8.82587">
        <ele>1214</ele>
        <time>2021-08-04T08:14:51.824Z</time>
      </trkpt>
      <trkpt lat="46.98847" lon="8.82587">
        <ele>1213</ele>
        <time>2021-08-04T08:14:52.824Z</time>
      </trkpt>
      <trkpt lat="46.98847" lon="8.82588">
        <ele>1213</ele>
        <time>2021-08-04T08:14:53.825Z</time>
      </trkpt>
      <trkpt lat="46.98847" lon="8.82588">
        <ele>1213</ele>
        <time>2021-08-04T08:14:54.824Z</time>
      </trkpt>
      <trkpt lat="46.98848" lon="8.82588">
        <ele>1212</ele>
        <time>2021-08-04T08:14:55.824Z</time>
      </trkpt>
      <trkpt lat="46.98848" lon="8.82589">
        <ele>1212</ele>
        <time>2021-08-04T08:14:56.824Z</time>
      </trkpt>
      <trkpt lat="46.98849" lon="8.8259">
        <ele>1212</ele>
        <time>2021-08-04T08:14:57.825Z</time>
      </trkpt>
      <trkpt lat="46.98849" lon="8.82589">
        <ele>1213</ele>
        <time>2021-08-04T08:14:58.824Z</time>
      </trkpt>
      <trkpt lat="46.98848" lon="8.82588">
        <ele>1214</ele>
        <time>2021-08-04T08:14:59.824Z</time>
      </trkpt>
      <trkpt lat="46.98848" lon="8.82588">
        <ele>1214</ele>
        <time>2021-08-04T08:15:00.824Z</time>
      </trkpt>
      <trkpt lat="46.98847" lon="8.82588">
        <ele>1215</ele>
        <time>2021-08-04T08:15:01.824Z</time>
      </trkpt>
      <trkpt lat="46.98846" lon="8.82588">
        <ele>1221</ele>
        <time>2021-08-04T08:15:02.826Z</time>
      </trkpt>
      <trkpt lat="46.98846" lon="8.82588">
        <ele>1222</ele>
        <time>2021-08-04T08:15:03.825Z</time>
      </trkpt>
      <trkpt lat="46.98845" lon="8.82587">
        <ele>1222</ele>
        <time>2021-08-04T08:15:04.825Z</time>
      </trkpt>
      <trkpt lat="46.98845" lon="8.82587">
        <ele>1223</ele>
        <time>2021-08-04T08:15:05.826Z</time>
      </trkpt>
      <trkpt lat="46.98844" lon="8.82588">
        <ele>1224</ele>
        <time>2021-08-04T08:15:06.826Z</time>
      </trkpt>
      <trkpt lat="46.98844" lon="8.8259">
        <ele>1224</ele>
        <time>2021-08-04T08:15:07.827Z</time>
      </trkpt>
      <trkpt lat="46.98844" lon="8.8259">
        <ele>1224</ele>
        <time>2021-08-04T08:15:08.827Z</time>
      </trkpt>
      <trkpt lat="46.98844" lon="8.82587">
        <ele>1229</ele>
        <time>2021-08-04T08:15:09.826Z</time>
      </trkpt>
      <trkpt lat="46.98845" lon="8.82587">
        <ele>1229</ele>
        <time>2021-08-04T08:15:10.826Z</time>
      </trkpt>
      <trkpt lat="46.98846" lon="8.82587">
        <ele>1229</ele>
        <time>2021-08-04T08:15:11.826Z</time>
      </trkpt>
      <trkpt lat="46.98846" lon="8.82587">
        <ele>1228</ele>
        <time>2021-08-04T08:15:12.827Z</time>
      </trkpt>
      <trkpt lat="46.98847" lon="8.82588">
        <ele>1228</ele>
        <time>2021-08-04T08:15:13.827Z</time>
      </trkpt>
      <trkpt lat="46.98848" lon="8.82588">
        <ele>1228</ele>
        <time>2021-08-04T08:15:14.827Z</time>
      </trkpt>
      <trkpt lat="46.98849" lon="8.82589">
        <ele>1227</ele>
        <time>2021-08-04T08:15:15.827Z</time>
      </trkpt>
      <trkpt lat="46.9885" lon="8.82589">
        <ele>1227</ele>
        <time>2021-08-04T08:15:16.827Z</time>
      </trkpt>
      <trkpt lat="46.9885" lon="8.8259">
        <ele>1227</ele>
        <time>2021-08-04T08:15:17.827Z</time>
      </trkpt>
      <trkpt lat="46.98851" lon="8.8259">
        <ele>1226</ele>
        <time>2021-08-04T08:15:18.826Z</time>
      </trkpt>
      <trkpt lat="46.98851" lon="8.8259">
        <ele>1226</ele>
        <time>2021-08-04T08:15:19.827Z</time>
      </trkpt>
      <trkpt lat="46.98851" lon="8.8259">
        <ele>1226</ele>
        <time>2021-08-04T08:15:20.827Z</time>
      </trkpt>
      <trkpt lat="46.98851" lon="8.82592">
        <ele>1226</ele>
        <time>2021-08-04T08:15:21.827Z</time>
      </trkpt>
      <trkpt lat="46.98852" lon="8.82592">
        <ele>1226</ele>
        <time>2021-08-04T08:15:22.827Z</time>
      </trkpt>
      <trkpt lat="46.98852" lon="8.82592">
        <ele>1225</ele>
        <time>2021-08-04T08:15:23.827Z</time>
      </trkpt>
      <trkpt lat="46.98853" lon="8.82591">
        <ele>1224</ele>
        <time>2021-08-04T08:15:24.827Z</time>
      </trkpt>
      <trkpt lat="46.98854" lon="8.82591">
        <ele>1223</ele>
        <time>2021-08-04T08:15:25.827Z</time>
      </trkpt>
      <trkpt lat="46.98855" lon="8.8259">
        <ele>1223</ele>
        <time>2021-08-04T08:15:26.826Z</time>
      </trkpt>
      <trkpt lat="46.98855" lon="8.8259">
        <ele>1222</ele>
        <time>2021-08-04T08:15:27.827Z</time>
      </trkpt>
      <trkpt lat="46.98856" lon="8.8259">
        <ele>1221</ele>
        <time>2021-08-04T08:15:28.826Z</time>
      </trkpt>
      <trkpt lat="46.98857" lon="8.82589">
        <ele>1220</ele>
        <time>2021-08-04T08:15:29.827Z</time>
      </trkpt>
      <trkpt lat="46.98857" lon="8.82589">
        <ele>1219</ele>
        <time>2021-08-04T08:15:30.826Z</time>
      </trkpt>
      <trkpt lat="46.98858" lon="8.82589">
        <ele>1219</ele>
        <time>2021-08-04T08:15:31.826Z</time>
      </trkpt>
      <trkpt lat="46.98859" lon="8.82589">
        <ele>1218</ele>
        <time>2021-08-04T08:15:32.827Z</time>
      </trkpt>
      <trkpt lat="46.9886" lon="8.82588">
        <ele>1217</ele>
        <time>2021-08-04T08:15:33.827Z</time>
      </trkpt>
      <trkpt lat="46.98861" lon="8.82588">
        <ele>1217</ele>
        <time>2021-08-04T08:15:34.827Z</time>
      </trkpt>
      <trkpt lat="46.98861" lon="8.82588">
        <ele>1216</ele>
        <time>2021-08-04T08:15:35.827Z</time>
      </trkpt>
      <trkpt lat="46.98863" lon="8.82588">
        <ele>1216</ele>
        <time>2021-08-04T08:15:36.826Z</time>
      </trkpt>
      <trkpt lat="46.98863" lon="8.82588">
        <ele>1216</ele>
        <time>2021-08-04T08:15:37.826Z</time>
      </trkpt>
      <trkpt lat="46.98865" lon="8.82588">
        <ele>1215</ele>
        <time>2021-08-04T08:15:38.827Z</time>
      </trkpt>
      <trkpt lat="46.98866" lon="8.82589">
        <ele>1215</ele>
        <time>2021-08-04T08:15:39.827Z</time>
      </trkpt>
      <trkpt lat="46.98867" lon="8.82589">
        <ele>1215</ele>
        <time>2021-08-04T08:15:40.826Z</time>
      </trkpt>
      <trkpt lat="46.98868" lon="8.8259">
        <ele>1215</ele>
        <time>2021-08-04T08:15:41.826Z</time>
      </trkpt>
      <trkpt lat="46.98869" lon="8.82591">
        <ele>1215</ele>
        <time>2021-08-04T08:15:42.826Z</time>
      </trkpt>
      <trkpt lat="46.9887" lon="8.82593">
        <ele>1214</ele>
        <time>2021-08-04T08:15:43.827Z</time>
      </trkpt>
      <trkpt lat="46.98871" lon="8.82595">
        <ele>1214</ele>
        <time>2021-08-04T08:15:44.827Z</time>
      </trkpt>
      <trkpt lat="46.98872" lon="8.82596">
        <ele>1214</ele>
        <time>2021-08-04T08:15:45.827Z</time>
      </trkpt>
      <trkpt lat="46.98873" lon="8.82596">
        <ele>1213</ele>
        <time>2021-08-04T08:15:46.827Z</time>
      </trkpt>
      <trkpt lat="46.98875" lon="8.82598">
        <ele>1213</ele>
        <time>2021-08-04T08:15:47.827Z</time>
      </trkpt>
      <trkpt lat="46.98876" lon="8.82599">
        <ele>1213</ele>
        <time>2021-08-04T08:15:48.827Z</time>
      </trkpt>
      <trkpt lat="46.98877" lon="8.82601">
        <ele>1212</ele>
        <time>2021-08-04T08:15:49.827Z</time>
      </trkpt>
      <trkpt lat="46.98878" lon="8.82601">
        <ele>1212</ele>
        <time>2021-08-04T08:15:50.827Z</time>
      </trkpt>
      <trkpt lat="46.98879" lon="8.82602">
        <ele>1212</ele>
        <time>2021-08-04T08:15:51.827Z</time>
      </trkpt>
      <trkpt lat="46.9888" lon="8.82603">
        <ele>1212</ele>
        <time>2021-08-04T08:15:52.826Z</time>
      </trkpt>
      <trkpt lat="46.98879" lon="8.82604">
        <ele>1212</ele>
        <time>2021-08-04T08:15:53.827Z</time>
      </trkpt>
      <trkpt lat="46.98879" lon="8.82605">
        <ele>1212</ele>
        <time>2021-08-04T08:15:54.827Z</time>
      </trkpt>
      <trkpt lat="46.98878" lon="8.82605">
        <ele>1212</ele>
        <time>2021-08-04T08:15:55.826Z</time>
      </trkpt>
      <trkpt lat="46.98878" lon="8.82606">
        <ele>1212</ele>
        <time>2021-08-04T08:15:56.827Z</time>
      </trkpt>
      <trkpt lat="46.98878" lon="8.82606">
        <ele>1211</ele>
        <time>2021-08-04T08:15:57.827Z</time>
      </trkpt>
      <trkpt lat="46.98878" lon="8.82607">
        <ele>1211</ele>
        <time>2021-08-04T08:15:58.827Z</time>
      </trkpt>
      <trkpt lat="46.98879" lon="8.82608">
        <ele>1211</ele>
        <time>2021-08-04T08:15:59.826Z</time>
      </trkpt>
      <trkpt lat="46.98879" lon="8.82609">
        <ele>1211</ele>
        <time>2021-08-04T08:16:00.827Z</time>
      </trkpt>
      <trkpt lat="46.98879" lon="8.8261">
        <ele>1210</ele>
        <time>2021-08-04T08:16:01.826Z</time>
      </trkpt>
      <trkpt lat="46.98879" lon="8.8261">
        <ele>1210</ele>
        <time>2021-08-04T08:16:02.827Z</time>
      </trkpt>
      <trkpt lat="46.98879" lon="8.8261">
        <ele>1210</ele>
        <time>2021-08-04T08:16:03.827Z</time>
      </trkpt>
      <trkpt lat="46.9888" lon="8.8261">
        <ele>1210</ele>
        <time>2021-08-04T08:16:04.829Z</time>
      </trkpt>
      <trkpt lat="46.9888" lon="8.8261">
        <ele>1211</ele>
        <time>2021-08-04T08:16:05.828Z</time>
      </trkpt>
      <trkpt lat="46.9888" lon="8.8261">
        <ele>1211</ele>
        <time>2021-08-04T08:16:06.829Z</time>
      </trkpt>
      <trkpt lat="46.98881" lon="8.8261">
        <ele>1212</ele>
        <time>2021-08-04T08:16:07.828Z</time>
      </trkpt>
      <trkpt lat="46.98882" lon="8.82609">
        <ele>1212</ele>
        <time>2021-08-04T08:16:08.828Z</time>
      </trkpt>
      <trkpt lat="46.98883" lon="8.82608">
        <ele>1212</ele>
        <time>2021-08-04T08:16:09.828Z</time>
      </trkpt>
      <trkpt lat="46.98884" lon="8.82607">
        <ele>1212</ele>
        <time>2021-08-04T08:16:10.828Z</time>
      </trkpt>
      <trkpt lat="46.98884" lon="8.82605">
        <ele>1212</ele>
        <time>2021-08-04T08:16:11.828Z</time>
      </trkpt>
      <trkpt lat="46.98885" lon="8.82604">
        <ele>1211</ele>
        <time>2021-08-04T08:16:12.828Z</time>
      </trkpt>
      <trkpt lat="46.98885" lon="8.82602">
        <ele>1210</ele>
        <time>2021-08-04T08:16:13.828Z</time>
      </trkpt>
      <trkpt lat="46.98885" lon="8.826">
        <ele>1209</ele>
        <time>2021-08-04T08:16:14.828Z</time>
      </trkpt>
      <trkpt lat="46.98885" lon="8.82599">
        <ele>1208</ele>
        <time>2021-08-04T08:16:15.828Z</time>
      </trkpt>
      <trkpt lat="46.98884" lon="8.82597">
        <ele>1207</ele>
        <time>2021-08-04T08:16:16.828Z</time>
      </trkpt>
      <trkpt lat="46.98884" lon="8.82597">
        <ele>1206</ele>
        <time>2021-08-04T08:16:17.828Z</time>
      </trkpt>
      <trkpt lat="46.98884" lon="8.82596">
        <ele>1205</ele>
        <time>2021-08-04T08:16:18.829Z</time>
      </trkpt>
      <trkpt lat="46.98884" lon="8.82595">
        <ele>1205</ele>
        <time>2021-08-04T08:16:19.828Z</time>
      </trkpt>
      <trkpt lat="46.98884" lon="8.82594">
        <ele>1204</ele>
        <time>2021-08-04T08:16:20.829Z</time>
      </trkpt>
      <trkpt lat="46.98885" lon="8.82593">
        <ele>1203</ele>
        <time>2021-08-04T08:16:21.828Z</time>
      </trkpt>
      <trkpt lat="46.98884" lon="8.82593">
        <ele>1203</ele>
        <time>2021-08-04T08:16:22.828Z</time>
      </trkpt>
      <trkpt lat="46.98884" lon="8.82592">
        <ele>1202</ele>
        <time>2021-08-04T08:16:23.828Z</time>
      </trkpt>
      <trkpt lat="46.98884" lon="8.8259">
        <ele>1201</ele>
        <time>2021-08-04T08:16:24.828Z</time>
      </trkpt>
      <trkpt lat="46.98884" lon="8.8259">
        <ele>1201</ele>
        <time>2021-08-04T08:16:25.829Z</time>
      </trkpt>
      <trkpt lat="46.98884" lon="8.82589">
        <ele>1201</ele>
        <time>2021-08-04T08:16:26.828Z</time>
      </trkpt>
      <trkpt lat="46.98884" lon="8.82588">
        <ele>1200</ele>
        <time>2021-08-04T08:16:27.828Z</time>
      </trkpt>
      <trkpt lat="46.98884" lon="8.82587">
        <ele>1200</ele>
        <time>2021-08-04T08:16:28.828Z</time>
      </trkpt>
      <trkpt lat="46.98884" lon="8.82587">
        <ele>1200</ele>
        <time>2021-08-04T08:16:29.828Z</time>
      </trkpt>
      <trkpt lat="46.98884" lon="8.82586">
        <ele>1200</ele>
        <time>2021-08-04T08:16:30.828Z</time>
      </trkpt>
      <trkpt lat="46.98884" lon="8.82585">
        <ele>1199</ele>
        <time>2021-08-04T08:16:31.828Z</time>
      </trkpt>
      <trkpt lat="46.98884" lon="8.82588">
        <ele>1198</ele>
        <time>2021-08-04T08:16:32.830Z</time>
      </trkpt>
      <trkpt lat="46.98883" lon="8.8259">
        <ele>1198</ele>
        <time>2021-08-04T08:16:33.829Z</time>
      </trkpt>
      <trkpt lat="46.98883" lon="8.82592">
        <ele>1198</ele>
        <time>2021-08-04T08:16:34.829Z</time>
      </trkpt>
      <trkpt lat="46.98883" lon="8.82594">
        <ele>1197</ele>
        <time>2021-08-04T08:16:35.829Z</time>
      </trkpt>
      <trkpt lat="46.98883" lon="8.82596">
        <ele>1197</ele>
        <time>2021-08-04T08:16:36.829Z</time>
      </trkpt>
      <trkpt lat="46.98883" lon="8.82597">
        <ele>1198</ele>
        <time>2021-08-04T08:16:37.829Z</time>
      </trkpt>
      <trkpt lat="46.98883" lon="8.82598">
        <ele>1198</ele>
        <time>2021-08-04T08:16:38.829Z</time>
      </trkpt>
      <trkpt lat="46.98884" lon="8.826">
        <ele>1199</ele>
        <time>2021-08-04T08:16:39.830Z</time>
      </trkpt>
      <trkpt lat="46.98884" lon="8.82601">
        <ele>1199</ele>
        <time>2021-08-04T08:16:40.829Z</time>
      </trkpt>
      <trkpt lat="46.98884" lon="8.82602">
        <ele>1199</ele>
        <time>2021-08-04T08:16:41.829Z</time>
      </trkpt>
      <trkpt lat="46.98884" lon="8.82602">
        <ele>1200</ele>
        <time>2021-08-04T08:16:42.829Z</time>
      </trkpt>
      <trkpt lat="46.98884" lon="8.82603">
        <ele>1201</ele>
        <time>2021-08-04T08:16:43.830Z</time>
      </trkpt>
      <trkpt lat="46.98884" lon="8.82603">
        <ele>1201</ele>
        <time>2021-08-04T08:16:44.830Z</time>
      </trkpt>
      <trkpt lat="46.98885" lon="8.82603">
        <ele>1202</ele>
        <time>2021-08-04T08:16:45.830Z</time>
      </trkpt>
      <trkpt lat="46.98885" lon="8.82604">
        <ele>1203</ele>
        <time>2021-08-04T08:16:46.830Z</time>
      </trkpt>
      <trkpt lat="46.98885" lon="8.82604">
        <ele>1205</ele>
        <time>2021-08-04T08:16:47.830Z</time>
      </trkpt>
      <trkpt lat="46.98885" lon="8.82605">
        <ele>1206</ele>
        <time>2021-08-04T08:16:48.830Z</time>
      </trkpt>
      <trkpt lat="46.98885" lon="8.82605">
        <ele>1207</ele>
        <time>2021-08-04T08:16:49.830Z</time>
      </trkpt>
      <trkpt lat="46.98885" lon="8.82605">
        <ele>1208</ele>
        <time>2021-08-04T08:16:50.830Z</time>
      </trkpt>
      <trkpt lat="46.98885" lon="8.82607">
        <ele>1212</ele>
        <time>2021-08-04T08:16:51.831Z</time>
      </trkpt>
      <trkpt lat="46.98885" lon="8.82608">
        <ele>1213</ele>
        <time>2021-08-04T08:16:52.831Z</time>
      </trkpt>
      <trkpt lat="46.98886" lon="8.82608">
        <ele>1215</ele>
        <time>2021-08-04T08:16:53.830Z</time>
      </trkpt>
      <trkpt lat="46.98886" lon="8.82608">
        <ele>1216</ele>
        <time>2021-08-04T08:16:54.831Z</time>
      </trkpt>
      <trkpt lat="46.98886" lon="8.82609">
        <ele>1217</ele>
        <time>2021-08-04T08:16:55.831Z</time>
      </trkpt>
      <trkpt lat="46.98886" lon="8.8261">
        <ele>1218</ele>
        <time>2021-08-04T08:16:56.831Z</time>
      </trkpt>
      <trkpt lat="46.98887" lon="8.82611">
        <ele>1219</ele>
        <time>2021-08-04T08:16:57.831Z</time>
      </trkpt>
      <trkpt lat="46.98887" lon="8.82612">
        <ele>1220</ele>
        <time>2021-08-04T08:16:58.831Z</time>
      </trkpt>
      <trkpt lat="46.98887" lon="8.82613">
        <ele>1221</ele>
        <time>2021-08-04T08:16:59.831Z</time>
      </trkpt>
      <trkpt lat="46.98887" lon="8.82614">
        <ele>1222</ele>
        <time>2021-08-04T08:17:00.831Z</time>
      </trkpt>
      <trkpt lat="46.98887" lon="8.82614">
        <ele>1223</ele>
        <time>2021-08-04T08:17:01.831Z</time>
      </trkpt>
      <trkpt lat="46.98887" lon="8.82615">
        <ele>1225</ele>
        <time>2021-08-04T08:17:02.831Z</time>
      </trkpt>
      <trkpt lat="46.98887" lon="8.82615">
        <ele>1226</ele>
        <time>2021-08-04T08:17:03.830Z</time>
      </trkpt>
      <trkpt lat="46.98887" lon="8.82616">
        <ele>1227</ele>
        <time>2021-08-04T08:17:04.831Z</time>
      </trkpt>
      <trkpt lat="46.98886" lon="8.82617">
        <ele>1228</ele>
        <time>2021-08-04T08:17:05.830Z</time>
      </trkpt>
      <trkpt lat="46.98887" lon="8.82618">
        <ele>1229</ele>
        <time>2021-08-04T08:17:06.831Z</time>
      </trkpt>
      <trkpt lat="46.98887" lon="8.82619">
        <ele>1230</ele>
        <time>2021-08-04T08:17:07.831Z</time>
      </trkpt>
      <trkpt lat="46.98888" lon="8.82619">
        <ele>1231</ele>
        <time>2021-08-04T08:17:08.831Z</time>
      </trkpt>
      <trkpt lat="46.98889" lon="8.82618">
        <ele>1232</ele>
        <time>2021-08-04T08:17:09.831Z</time>
      </trkpt>
      <trkpt lat="46.98891" lon="8.82617">
        <ele>1233</ele>
        <time>2021-08-04T08:17:10.830Z</time>
      </trkpt>
      <trkpt lat="46.98892" lon="8.82616">
        <ele>1233</ele>
        <time>2021-08-04T08:17:11.831Z</time>
      </trkpt>
      <trkpt lat="46.98893" lon="8.82615">
        <ele>1233</ele>
        <time>2021-08-04T08:17:12.831Z</time>
      </trkpt>
      <trkpt lat="46.98894" lon="8.82614">
        <ele>1233</ele>
        <time>2021-08-04T08:17:13.830Z</time>
      </trkpt>
      <trkpt lat="46.98895" lon="8.82613">
        <ele>1233</ele>
        <time>2021-08-04T08:17:14.831Z</time>
      </trkpt>
      <trkpt lat="46.98895" lon="8.82613">
        <ele>1233</ele>
        <time>2021-08-04T08:17:15.831Z</time>
      </trkpt>
      <trkpt lat="46.98896" lon="8.82612">
        <ele>1233</ele>
        <time>2021-08-04T08:17:16.830Z</time>
      </trkpt>
      <trkpt lat="46.98896" lon="8.82611">
        <ele>1233</ele>
        <time>2021-08-04T08:17:17.831Z</time>
      </trkpt>
      <trkpt lat="46.98897" lon="8.8261">
        <ele>1232</ele>
        <time>2021-08-04T08:17:18.831Z</time>
      </trkpt>
      <trkpt lat="46.98897" lon="8.82609">
        <ele>1232</ele>
        <time>2021-08-04T08:17:19.831Z</time>
      </trkpt>
      <trkpt lat="46.98897" lon="8.82607">
        <ele>1232</ele>
        <time>2021-08-04T08:17:20.831Z</time>
      </trkpt>
      <trkpt lat="46.98897" lon="8.82606">
        <ele>1231</ele>
        <time>2021-08-04T08:17:21.831Z</time>
      </trkpt>
      <trkpt lat="46.98897" lon="8.82605">
        <ele>1231</ele>
        <time>2021-08-04T08:17:22.830Z</time>
      </trkpt>
      <trkpt lat="46.98898" lon="8.82603">
        <ele>1231</ele>
        <time>2021-08-04T08:17:23.831Z</time>
      </trkpt>
      <trkpt lat="46.98899" lon="8.82602">
        <ele>1231</ele>
        <time>2021-08-04T08:17:24.830Z</time>
      </trkpt>
      <trkpt lat="46.98899" lon="8.82602">
        <ele>1230</ele>
        <time>2021-08-04T08:17:25.831Z</time>
      </trkpt>
      <trkpt lat="46.98899" lon="8.82602">
        <ele>1230</ele>
        <time>2021-08-04T08:17:26.831Z</time>
      </trkpt>
      <trkpt lat="46.98901" lon="8.82601">
        <ele>1230</ele>
        <time>2021-08-04T08:17:27.830Z</time>
      </trkpt>
      <trkpt lat="46.98902" lon="8.826">
        <ele>1230</ele>
        <time>2021-08-04T08:17:28.830Z</time>
      </trkpt>
      <trkpt lat="46.98903" lon="8.826">
        <ele>1229</ele>
        <time>2021-08-04T08:17:29.831Z</time>
      </trkpt>
      <trkpt lat="46.98904" lon="8.82599">
        <ele>1229</ele>
        <time>2021-08-04T08:17:30.830Z</time>
      </trkpt>
      <trkpt lat="46.98905" lon="8.82599">
        <ele>1229</ele>
        <time>2021-08-04T08:17:31.830Z</time>
      </trkpt>
      <trkpt lat="46.98906" lon="8.82599">
        <ele>1228</ele>
        <time>2021-08-04T08:17:32.831Z</time>
      </trkpt>
      <trkpt lat="46.98907" lon="8.82599">
        <ele>1228</ele>
        <time>2021-08-04T08:17:33.830Z</time>
      </trkpt>
      <trkpt lat="46.98908" lon="8.82598">
        <ele>1227</ele>
        <time>2021-08-04T08:17:34.830Z</time>
      </trkpt>
      <trkpt lat="46.98909" lon="8.82598">
        <ele>1227</ele>
        <time>2021-08-04T08:17:35.830Z</time>
      </trkpt>
      <trkpt lat="46.9891" lon="8.82598">
        <ele>1226</ele>
        <time>2021-08-04T08:17:36.831Z</time>
      </trkpt>
      <trkpt lat="46.9891" lon="8.82596">
        <ele>1226</ele>
        <time>2021-08-04T08:17:37.831Z</time>
      </trkpt>
      <trkpt lat="46.9891" lon="8.82594">
        <ele>1226</ele>
        <time>2021-08-04T08:17:38.831Z</time>
      </trkpt>
      <trkpt lat="46.9891" lon="8.82593">
        <ele>1225</ele>
        <time>2021-08-04T08:17:39.831Z</time>
      </trkpt>
      <trkpt lat="46.9891" lon="8.82593">
        <ele>1225</ele>
        <time>2021-08-04T08:17:40.831Z</time>
      </trkpt>
      <trkpt lat="46.98909" lon="8.82591">
        <ele>1225</ele>
        <time>2021-08-04T08:17:41.831Z</time>
      </trkpt>
      <trkpt lat="46.98909" lon="8.82589">
        <ele>1224</ele>
        <time>2021-08-04T08:17:42.831Z</time>
      </trkpt>
      <trkpt lat="46.98908" lon="8.82588">
        <ele>1224</ele>
        <time>2021-08-04T08:17:43.831Z</time>
      </trkpt>
      <trkpt lat="46.98907" lon="8.82586">
        <ele>1223</ele>
        <time>2021-08-04T08:17:44.830Z</time>
      </trkpt>
      <trkpt lat="46.98906" lon="8.82585">
        <ele>1223</ele>
        <time>2021-08-04T08:17:45.831Z</time>
      </trkpt>
      <trkpt lat="46.98906" lon="8.82584">
        <ele>1222</ele>
        <time>2021-08-04T08:17:46.831Z</time>
      </trkpt>
      <trkpt lat="46.98906" lon="8.82583">
        <ele>1222</ele>
        <time>2021-08-04T08:17:47.831Z</time>
      </trkpt>
      <trkpt lat="46.98906" lon="8.82582">
        <ele>1221</ele>
        <time>2021-08-04T08:17:48.830Z</time>
      </trkpt>
      <trkpt lat="46.98907" lon="8.82582">
        <ele>1221</ele>
        <time>2021-08-04T08:17:49.831Z</time>
      </trkpt>
      <trkpt lat="46.98908" lon="8.82581">
        <ele>1220</ele>
        <time>2021-08-04T08:17:50.830Z</time>
      </trkpt>
      <trkpt lat="46.98909" lon="8.82582">
        <ele>1220</ele>
        <time>2021-08-04T08:17:51.831Z</time>
      </trkpt>
      <trkpt lat="46.9891" lon="8.82582">
        <ele>1220</ele>
        <time>2021-08-04T08:17:52.830Z</time>
      </trkpt>
      <trkpt lat="46.98911" lon="8.82581">
        <ele>1220</ele>
        <time>2021-08-04T08:17:53.831Z</time>
      </trkpt>
      <trkpt lat="46.98911" lon="8.8258">
        <ele>1220</ele>
        <time>2021-08-04T08:17:54.830Z</time>
      </trkpt>
      <trkpt lat="46.98911" lon="8.82579">
        <ele>1220</ele>
        <time>2021-08-04T08:17:55.830Z</time>
      </trkpt>
      <trkpt lat="46.98911" lon="8.82579">
        <ele>1219</ele>
        <time>2021-08-04T08:17:56.831Z</time>
      </trkpt>
      <trkpt lat="46.98911" lon="8.82578">
        <ele>1219</ele>
        <time>2021-08-04T08:17:57.830Z</time>
      </trkpt>
      <trkpt lat="46.98911" lon="8.82577">
        <ele>1219</ele>
        <time>2021-08-04T08:17:58.831Z</time>
      </trkpt>
      <trkpt lat="46.9891" lon="8.82577">
        <ele>1219</ele>
        <time>2021-08-04T08:17:59.831Z</time>
      </trkpt>
      <trkpt lat="46.9891" lon="8.82578">
        <ele>1219</ele>
        <time>2021-08-04T08:18:00.831Z</time>
      </trkpt>
      <trkpt lat="46.9891" lon="8.8258">
        <ele>1218</ele>
        <time>2021-08-04T08:18:01.831Z</time>
      </trkpt>
      <trkpt lat="46.9891" lon="8.82582">
        <ele>1218</ele>
        <time>2021-08-04T08:18:02.831Z</time>
      </trkpt>
      <trkpt lat="46.9891" lon="8.82583">
        <ele>1218</ele>
        <time>2021-08-04T08:18:03.830Z</time>
      </trkpt>
      <trkpt lat="46.98911" lon="8.82585">
        <ele>1218</ele>
        <time>2021-08-04T08:18:04.831Z</time>
      </trkpt>
      <trkpt lat="46.98911" lon="8.82586">
        <ele>1218</ele>
        <time>2021-08-04T08:18:05.830Z</time>
      </trkpt>
      <trkpt lat="46.98912" lon="8.82588">
        <ele>1218</ele>
        <time>2021-08-04T08:18:06.831Z</time>
      </trkpt>
      <trkpt lat="46.98913" lon="8.82591">
        <ele>1218</ele>
        <time>2021-08-04T08:18:07.831Z</time>
      </trkpt>
      <trkpt lat="46.98913" lon="8.82593">
        <ele>1218</ele>
        <time>2021-08-04T08:18:08.831Z</time>
      </trkpt>
      <trkpt lat="46.98913" lon="8.82595">
        <ele>1218</ele>
        <time>2021-08-04T08:18:09.831Z</time>
      </trkpt>
      <trkpt lat="46.98913" lon="8.82597">
        <ele>1219</ele>
        <time>2021-08-04T08:18:10.830Z</time>
      </trkpt>
      <trkpt lat="46.98914" lon="8.82596">
        <ele>1219</ele>
        <time>2021-08-04T08:18:11.831Z</time>
      </trkpt>
      <trkpt lat="46.98914" lon="8.82597">
        <ele>1219</ele>
        <time>2021-08-04T08:18:12.830Z</time>
      </trkpt>
      <trkpt lat="46.98914" lon="8.82597">
        <ele>1219</ele>
        <time>2021-08-04T08:18:13.831Z</time>
      </trkpt>
      <trkpt lat="46.98915" lon="8.82597">
        <ele>1219</ele>
        <time>2021-08-04T08:18:14.830Z</time>
      </trkpt>
      <trkpt lat="46.98915" lon="8.82596">
        <ele>1220</ele>
        <time>2021-08-04T08:18:15.831Z</time>
      </trkpt>
      <trkpt lat="46.98915" lon="8.82596">
        <ele>1221</ele>
        <time>2021-08-04T08:18:16.831Z</time>
      </trkpt>
      <trkpt lat="46.98916" lon="8.82595">
        <ele>1221</ele>
        <time>2021-08-04T08:18:17.831Z</time>
      </trkpt>
      <trkpt lat="46.98916" lon="8.82594">
        <ele>1222</ele>
        <time>2021-08-04T08:18:18.830Z</time>
      </trkpt>
      <trkpt lat="46.98917" lon="8.82593">
        <ele>1222</ele>
        <time>2021-08-04T08:18:19.831Z</time>
      </trkpt>
      <trkpt lat="46.98918" lon="8.82592">
        <ele>1223</ele>
        <time>2021-08-04T08:18:20.830Z</time>
      </trkpt>
      <trkpt lat="46.98919" lon="8.82591">
        <ele>1223</ele>
        <time>2021-08-04T08:18:21.830Z</time>
      </trkpt>
      <trkpt lat="46.98919" lon="8.8259">
        <ele>1223</ele>
        <time>2021-08-04T08:18:22.831Z</time>
      </trkpt>
      <trkpt lat="46.98921" lon="8.82591">
        <ele>1224</ele>
        <time>2021-08-04T08:18:23.831Z</time>
      </trkpt>
      <trkpt lat="46.98922" lon="8.8259">
        <ele>1224</ele>
        <time>2021-08-04T08:18:24.830Z</time>
      </trkpt>
      <trkpt lat="46.98923" lon="8.82589">
        <ele>1224</ele>
        <time>2021-08-04T08:18:25.831Z</time>
      </trkpt>
      <trkpt lat="46.98923" lon="8.82588">
        <ele>1225</ele>
        <time>2021-08-04T08:18:26.830Z</time>
      </trkpt>
      <trkpt lat="46.98924" lon="8.82588">
        <ele>1225</ele>
        <time>2021-08-04T08:18:27.831Z</time>
      </trkpt>
      <trkpt lat="46.98924" lon="8.82588">
        <ele>1226</ele>
        <time>2021-08-04T08:18:28.831Z</time>
      </trkpt>
      <trkpt lat="46.98923" lon="8.82587">
        <ele>1226</ele>
        <time>2021-08-04T08:18:29.830Z</time>
      </trkpt>
      <trkpt lat="46.98922" lon="8.82587">
        <ele>1227</ele>
        <time>2021-08-04T08:18:30.831Z</time>
      </trkpt>
      <trkpt lat="46.98921" lon="8.82586">
        <ele>1227</ele>
        <time>2021-08-04T08:18:31.830Z</time>
      </trkpt>
      <trkpt lat="46.98921" lon="8.82586">
        <ele>1227</ele>
        <time>2021-08-04T08:18:32.830Z</time>
      </trkpt>
      <trkpt lat="46.98921" lon="8.82585">
        <ele>1227</ele>
        <time>2021-08-04T08:18:33.830Z</time>
      </trkpt>
      <trkpt lat="46.98921" lon="8.82584">
        <ele>1227</ele>
        <time>2021-08-04T08:18:34.831Z</time>
      </trkpt>
      <trkpt lat="46.98922" lon="8.82583">
        <ele>1228</ele>
        <time>2021-08-04T08:18:35.831Z</time>
      </trkpt>
      <trkpt lat="46.98922" lon="8.82581">
        <ele>1228</ele>
        <time>2021-08-04T08:18:36.830Z</time>
      </trkpt>
      <trkpt lat="46.98923" lon="8.8258">
        <ele>1228</ele>
        <time>2021-08-04T08:18:37.830Z</time>
      </trkpt>
      <trkpt lat="46.98923" lon="8.82579">
        <ele>1228</ele>
        <time>2021-08-04T08:18:38.830Z</time>
      </trkpt>
      <trkpt lat="46.98923" lon="8.82579">
        <ele>1229</ele>
        <time>2021-08-04T08:18:39.830Z</time>
      </trkpt>
      <trkpt lat="46.98924" lon="8.82579">
        <ele>1229</ele>
        <time>2021-08-04T08:18:40.831Z</time>
      </trkpt>
      <trkpt lat="46.98925" lon="8.82579">
        <ele>1229</ele>
        <time>2021-08-04T08:18:41.831Z</time>
      </trkpt>
      <trkpt lat="46.98926" lon="8.82581">
        <ele>1229</ele>
        <time>2021-08-04T08:18:42.831Z</time>
      </trkpt>
      <trkpt lat="46.98926" lon="8.82582">
        <ele>1229</ele>
        <time>2021-08-04T08:18:43.830Z</time>
      </trkpt>
      <trkpt lat="46.98927" lon="8.82582">
        <ele>1230</ele>
        <time>2021-08-04T08:18:44.830Z</time>
      </trkpt>
      <trkpt lat="46.98927" lon="8.82581">
        <ele>1230</ele>
        <time>2021-08-04T08:18:45.830Z</time>
      </trkpt>
      <trkpt lat="46.98928" lon="8.82579">
        <ele>1230</ele>
        <time>2021-08-04T08:18:46.831Z</time>
      </trkpt>
      <trkpt lat="46.98928" lon="8.82578">
        <ele>1230</ele>
        <time>2021-08-04T08:18:47.831Z</time>
      </trkpt>
      <trkpt lat="46.98928" lon="8.82581">
        <ele>1230</ele>
        <time>2021-08-04T08:18:48.830Z</time>
      </trkpt>
      <trkpt lat="46.98927" lon="8.82583">
        <ele>1230</ele>
        <time>2021-08-04T08:18:49.830Z</time>
      </trkpt>
      <trkpt lat="46.98926" lon="8.82584">
        <ele>1230</ele>
        <time>2021-08-04T08:18:50.831Z</time>
      </trkpt>
      <trkpt lat="46.98926" lon="8.82586">
        <ele>1230</ele>
        <time>2021-08-04T08:18:51.831Z</time>
      </trkpt>
      <trkpt lat="46.98925" lon="8.82586">
        <ele>1230</ele>
        <time>2021-08-04T08:18:52.831Z</time>
      </trkpt>
      <trkpt lat="46.98924" lon="8.82586">
        <ele>1230</ele>
        <time>2021-08-04T08:18:53.830Z</time>
      </trkpt>
      <trkpt lat="46.98924" lon="8.82586">
        <ele>1230</ele>
        <time>2021-08-04T08:18:54.830Z</time>
      </trkpt>
      <trkpt lat="46.98923" lon="8.82585">
        <ele>1229</ele>
        <time>2021-08-04T08:18:55.832Z</time>
      </trkpt>
      <trkpt lat="46.98923" lon="8.82585">
        <ele>1229</ele>
        <time>2021-08-04T08:18:56.832Z</time>
      </trkpt>
      <trkpt lat="46.98923" lon="8.82582">
        <ele>1228</ele>
        <time>2021-08-04T08:18:57.831Z</time>
      </trkpt>
      <trkpt lat="46.98923" lon="8.82581">
        <ele>1228</ele>
        <time>2021-08-04T08:18:58.832Z</time>
      </trkpt>
      <trkpt lat="46.98923" lon="8.82581">
        <ele>1228</ele>
        <time>2021-08-04T08:18:59.832Z</time>
      </trkpt>
      <trkpt lat="46.98924" lon="8.82582">
        <ele>1227</ele>
        <time>2021-08-04T08:19:00.831Z</time>
      </trkpt>
      <trkpt lat="46.98924" lon="8.82583">
        <ele>1227</ele>
        <time>2021-08-04T08:19:01.832Z</time>
      </trkpt>
      <trkpt lat="46.98924" lon="8.82585">
        <ele>1227</ele>
        <time>2021-08-04T08:19:02.831Z</time>
      </trkpt>
      <trkpt lat="46.98924" lon="8.82585">
        <ele>1227</ele>
        <time>2021-08-04T08:19:03.832Z</time>
      </trkpt>
      <trkpt lat="46.98924" lon="8.82587">
        <ele>1227</ele>
        <time>2021-08-04T08:19:04.832Z</time>
      </trkpt>
      <trkpt lat="46.98923" lon="8.82589">
        <ele>1227</ele>
        <time>2021-08-04T08:19:05.832Z</time>
      </trkpt>
      <trkpt lat="46.98923" lon="8.82589">
        <ele>1227</ele>
        <time>2021-08-04T08:19:06.832Z</time>
      </trkpt>
      <trkpt lat="46.98924" lon="8.82587">
        <ele>1228</ele>
        <time>2021-08-04T08:19:07.832Z</time>
      </trkpt>
      <trkpt lat="46.98925" lon="8.82584">
        <ele>1228</ele>
        <time>2021-08-04T08:19:08.831Z</time>
      </trkpt>
      <trkpt lat="46.98926" lon="8.82583">
        <ele>1228</ele>
        <time>2021-08-04T08:19:09.832Z</time>
      </trkpt>
      <trkpt lat="46.98927" lon="8.82582">
        <ele>1228</ele>
        <time>2021-08-04T08:19:10.832Z</time>
      </trkpt>
      <trkpt lat="46.98928" lon="8.82581">
        <ele>1229</ele>
        <time>2021-08-04T08:19:11.832Z</time>
      </trkpt>
      <trkpt lat="46.98929" lon="8.8258">
        <ele>1229</ele>
        <time>2021-08-04T08:19:12.832Z</time>
      </trkpt>
      <trkpt lat="46.9893" lon="8.82579">
        <ele>1230</ele>
        <time>2021-08-04T08:19:13.831Z</time>
      </trkpt>
      <trkpt lat="46.98931" lon="8.82577">
        <ele>1230</ele>
        <time>2021-08-04T08:19:14.832Z</time>
      </trkpt>
      <trkpt lat="46.98932" lon="8.82575">
        <ele>1230</ele>
        <time>2021-08-04T08:19:15.832Z</time>
      </trkpt>
      <trkpt lat="46.98933" lon="8.82573">
        <ele>1230</ele>
        <time>2021-08-04T08:19:16.831Z</time>
      </trkpt>
      <trkpt lat="46.98934" lon="8.82571">
        <ele>1231</ele>
        <time>2021-08-04T08:19:17.832Z</time>
      </trkpt>
      <trkpt lat="46.98935" lon="8.82571">
        <ele>1231</ele>
        <time>2021-08-04T08:19:18.832Z</time>
      </trkpt>
      <trkpt lat="46.98935" lon="8.8257">
        <ele>1231</ele>
        <time>2021-08-04T08:19:19.831Z</time>
      </trkpt>
      <trkpt lat="46.98936" lon="8.82568">
        <ele>1230</ele>
        <time>2021-08-04T08:19:20.832Z</time>
      </trkpt>
      <trkpt lat="46.98937" lon="8.82567">
        <ele>1230</ele>
        <time>2021-08-04T08:19:21.832Z</time>
      </trkpt>
      <trkpt lat="46.98937" lon="8.82565">
        <ele>1230</ele>
        <time>2021-08-04T08:19:22.832Z</time>
      </trkpt>
      <trkpt lat="46.98937" lon="8.82563">
        <ele>1230</ele>
        <time>2021-08-04T08:19:23.832Z</time>
      </trkpt>
      <trkpt lat="46.98937" lon="8.82561">
        <ele>1229</ele>
        <time>2021-08-04T08:19:24.831Z</time>
      </trkpt>
      <trkpt lat="46.98938" lon="8.8256">
        <ele>1229</ele>
        <time>2021-08-04T08:19:25.831Z</time>
      </trkpt>
      <trkpt lat="46.98938" lon="8.82558">
        <ele>1229</ele>
        <time>2021-08-04T08:19:26.831Z</time>
      </trkpt>
      <trkpt lat="46.98938" lon="8.82556">
        <ele>1228</ele>
        <time>2021-08-04T08:19:27.832Z</time>
      </trkpt>
      <trkpt lat="46.98939" lon="8.82555">
        <ele>1228</ele>
        <time>2021-08-04T08:19:28.831Z</time>
      </trkpt>
      <trkpt lat="46.98939" lon="8.82553">
        <ele>1227</ele>
        <time>2021-08-04T08:19:29.831Z</time>
      </trkpt>
      <trkpt lat="46.98939" lon="8.82551">
        <ele>1227</ele>
        <time>2021-08-04T08:19:30.832Z</time>
      </trkpt>
      <trkpt lat="46.98939" lon="8.8255">
        <ele>1227</ele>
        <time>2021-08-04T08:19:31.832Z</time>
      </trkpt>
      <trkpt lat="46.98939" lon="8.82548">
        <ele>1227</ele>
        <time>2021-08-04T08:19:32.832Z</time>
      </trkpt>
      <trkpt lat="46.98939" lon="8.82546">
        <ele>1227</ele>
        <time>2021-08-04T08:19:33.832Z</time>
      </trkpt>
      <trkpt lat="46.98939" lon="8.82545">
        <ele>1226</ele>
        <time>2021-08-04T08:19:34.832Z</time>
      </trkpt>
      <trkpt lat="46.98939" lon="8.82543">
        <ele>1227</ele>
        <time>2021-08-04T08:19:35.832Z</time>
      </trkpt>
      <trkpt lat="46.9894" lon="8.8254">
        <ele>1227</ele>
        <time>2021-08-04T08:19:36.832Z</time>
      </trkpt>
      <trkpt lat="46.9894" lon="8.82539">
        <ele>1227</ele>
        <time>2021-08-04T08:19:37.832Z</time>
      </trkpt>
      <trkpt lat="46.98941" lon="8.82537">
        <ele>1227</ele>
        <time>2021-08-04T08:19:38.831Z</time>
      </trkpt>
      <trkpt lat="46.98942" lon="8.82535">
        <ele>1227</ele>
        <time>2021-08-04T08:19:39.832Z</time>
      </trkpt>
      <trkpt lat="46.98943" lon="8.82534">
        <ele>1227</ele>
        <time>2021-08-04T08:19:40.832Z</time>
      </trkpt>
      <trkpt lat="46.98944" lon="8.82533">
        <ele>1226</ele>
        <time>2021-08-04T08:19:41.832Z</time>
      </trkpt>
      <trkpt lat="46.98945" lon="8.82533">
        <ele>1226</ele>
        <time>2021-08-04T08:19:42.832Z</time>
      </trkpt>
      <trkpt lat="46.98947" lon="8.82532">
        <ele>1226</ele>
        <time>2021-08-04T08:19:43.832Z</time>
      </trkpt>
      <trkpt lat="46.98948" lon="8.82531">
        <ele>1225</ele>
        <time>2021-08-04T08:19:44.832Z</time>
      </trkpt>
      <trkpt lat="46.98949" lon="8.8253">
        <ele>1225</ele>
        <time>2021-08-04T08:19:45.831Z</time>
      </trkpt>
      <trkpt lat="46.9895" lon="8.82529">
        <ele>1225</ele>
        <time>2021-08-04T08:19:46.831Z</time>
      </trkpt>
      <trkpt lat="46.98951" lon="8.82527">
        <ele>1224</ele>
        <time>2021-08-04T08:19:47.832Z</time>
      </trkpt>
      <trkpt lat="46.98951" lon="8.82525">
        <ele>1224</ele>
        <time>2021-08-04T08:19:48.832Z</time>
      </trkpt>
      <trkpt lat="46.98951" lon="8.82523">
        <ele>1223</ele>
        <time>2021-08-04T08:19:49.831Z</time>
      </trkpt>
      <trkpt lat="46.98951" lon="8.82521">
        <ele>1223</ele>
        <time>2021-08-04T08:19:50.831Z</time>
      </trkpt>
      <trkpt lat="46.98951" lon="8.82519">
        <ele>1223</ele>
        <time>2021-08-04T08:19:51.832Z</time>
      </trkpt>
      <trkpt lat="46.98951" lon="8.82517">
        <ele>1222</ele>
        <time>2021-08-04T08:19:52.831Z</time>
      </trkpt>
      <trkpt lat="46.98951" lon="8.82516">
        <ele>1222</ele>
        <time>2021-08-04T08:19:53.832Z</time>
      </trkpt>
      <trkpt lat="46.98951" lon="8.82514">
        <ele>1222</ele>
        <time>2021-08-04T08:19:54.832Z</time>
      </trkpt>
      <trkpt lat="46.98952" lon="8.82512">
        <ele>1222</ele>
        <time>2021-08-04T08:19:55.831Z</time>
      </trkpt>
      <trkpt lat="46.98951" lon="8.8251">
        <ele>1222</ele>
        <time>2021-08-04T08:19:56.832Z</time>
      </trkpt>
      <trkpt lat="46.98952" lon="8.82509">
        <ele>1222</ele>
        <time>2021-08-04T08:19:57.831Z</time>
      </trkpt>
      <trkpt lat="46.98951" lon="8.82507">
        <ele>1222</ele>
        <time>2021-08-04T08:19:58.832Z</time>
      </trkpt>
      <trkpt lat="46.98951" lon="8.82506">
        <ele>1222</ele>
        <time>2021-08-04T08:19:59.832Z</time>
      </trkpt>
      <trkpt lat="46.9895" lon="8.82504">
        <ele>1222</ele>
        <time>2021-08-04T08:20:00.832Z</time>
      </trkpt>
      <trkpt lat="46.9895" lon="8.82503">
        <ele>1222</ele>
        <time>2021-08-04T08:20:01.832Z</time>
      </trkpt>
      <trkpt lat="46.9895" lon="8.82502">
        <ele>1222</ele>
        <time>2021-08-04T08:20:02.832Z</time>
      </trkpt>
      <trkpt lat="46.98949" lon="8.825">
        <ele>1222</ele>
        <time>2021-08-04T08:20:03.831Z</time>
      </trkpt>
      <trkpt lat="46.98949" lon="8.82499">
        <ele>1222</ele>
        <time>2021-08-04T08:20:04.832Z</time>
      </trkpt>
      <trkpt lat="46.9895" lon="8.82497">
        <ele>1221</ele>
        <time>2021-08-04T08:20:05.831Z</time>
      </trkpt>
      <trkpt lat="46.9895" lon="8.82496">
        <ele>1221</ele>
        <time>2021-08-04T08:20:06.832Z</time>
      </trkpt>
      <trkpt lat="46.9895" lon="8.82495">
        <ele>1221</ele>
        <time>2021-08-04T08:20:07.832Z</time>
      </trkpt>
      <trkpt lat="46.98951" lon="8.82494">
        <ele>1220</ele>
        <time>2021-08-04T08:20:08.831Z</time>
      </trkpt>
      <trkpt lat="46.98951" lon="8.82492">
        <ele>1220</ele>
        <time>2021-08-04T08:20:09.832Z</time>
      </trkpt>
      <trkpt lat="46.98952" lon="8.82491">
        <ele>1219</ele>
        <time>2021-08-04T08:20:10.832Z</time>
      </trkpt>
      <trkpt lat="46.98952" lon="8.8249">
        <ele>1219</ele>
        <time>2021-08-04T08:20:11.831Z</time>
      </trkpt>
      <trkpt lat="46.98952" lon="8.82488">
        <ele>1219</ele>
        <time>2021-08-04T08:20:12.832Z</time>
      </trkpt>
      <trkpt lat="46.98953" lon="8.82487">
        <ele>1219</ele>
        <time>2021-08-04T08:20:13.831Z</time>
      </trkpt>
      <trkpt lat="46.98953" lon="8.82485">
        <ele>1219</ele>
        <time>2021-08-04T08:20:14.831Z</time>
      </trkpt>
      <trkpt lat="46.98954" lon="8.82483">
        <ele>1219</ele>
        <time>2021-08-04T08:20:15.831Z</time>
      </trkpt>
      <trkpt lat="46.98954" lon="8.82481">
        <ele>1219</ele>
        <time>2021-08-04T08:20:16.832Z</time>
      </trkpt>
      <trkpt lat="46.98954" lon="8.82479">
        <ele>1219</ele>
        <time>2021-08-04T08:20:17.831Z</time>
      </trkpt>
      <trkpt lat="46.98954" lon="8.82478">
        <ele>1219</ele>
        <time>2021-08-04T08:20:18.832Z</time>
      </trkpt>
      <trkpt lat="46.98955" lon="8.82476">
        <ele>1219</ele>
        <time>2021-08-04T08:20:19.832Z</time>
      </trkpt>
      <trkpt lat="46.98955" lon="8.82475">
        <ele>1219</ele>
        <time>2021-08-04T08:20:20.831Z</time>
      </trkpt>
      <trkpt lat="46.98956" lon="8.82474">
        <ele>1219</ele>
        <time>2021-08-04T08:20:21.831Z</time>
      </trkpt>
      <trkpt lat="46.98956" lon="8.82473">
        <ele>1219</ele>
        <time>2021-08-04T08:20:22.831Z</time>
      </trkpt>
      <trkpt lat="46.98957" lon="8.82472">
        <ele>1219</ele>
        <time>2021-08-04T08:20:23.831Z</time>
      </trkpt>
      <trkpt lat="46.98958" lon="8.82472">
        <ele>1218</ele>
        <time>2021-08-04T08:20:24.831Z</time>
      </trkpt>
      <trkpt lat="46.98959" lon="8.82471">
        <ele>1218</ele>
        <time>2021-08-04T08:20:25.831Z</time>
      </trkpt>
      <trkpt lat="46.9896" lon="8.8247">
        <ele>1218</ele>
        <time>2021-08-04T08:20:26.831Z</time>
      </trkpt>
      <trkpt lat="46.98961" lon="8.82469">
        <ele>1218</ele>
        <time>2021-08-04T08:20:27.832Z</time>
      </trkpt>
      <trkpt lat="46.98961" lon="8.82468">
        <ele>1218</ele>
        <time>2021-08-04T08:20:28.831Z</time>
      </trkpt>
      <trkpt lat="46.98962" lon="8.82466">
        <ele>1218</ele>
        <time>2021-08-04T08:20:29.831Z</time>
      </trkpt>
      <trkpt lat="46.98963" lon="8.82465">
        <ele>1218</ele>
        <time>2021-08-04T08:20:30.832Z</time>
      </trkpt>
      <trkpt lat="46.98964" lon="8.82464">
        <ele>1218</ele>
        <time>2021-08-04T08:20:31.832Z</time>
      </trkpt>
      <trkpt lat="46.98965" lon="8.82462">
        <ele>1218</ele>
        <time>2021-08-04T08:20:32.832Z</time>
      </trkpt>
      <trkpt lat="46.98966" lon="8.82461">
        <ele>1217</ele>
        <time>2021-08-04T08:20:33.832Z</time>
      </trkpt>
      <trkpt lat="46.98967" lon="8.82459">
        <ele>1217</ele>
        <time>2021-08-04T08:20:34.831Z</time>
      </trkpt>
      <trkpt lat="46.98968" lon="8.82458">
        <ele>1217</ele>
        <time>2021-08-04T08:20:35.832Z</time>
      </trkpt>
      <trkpt lat="46.98969" lon="8.82457">
        <ele>1217</ele>
        <time>2021-08-04T08:20:36.831Z</time>
      </trkpt>
      <trkpt lat="46.9897" lon="8.82455">
        <ele>1217</ele>
        <time>2021-08-04T08:20:37.832Z</time>
      </trkpt>
      <trkpt lat="46.98971" lon="8.82454">
        <ele>1217</ele>
        <time>2021-08-04T08:20:38.832Z</time>
      </trkpt>
      <trkpt lat="46.98971" lon="8.82453">
        <ele>1217</ele>
        <time>2021-08-04T08:20:39.831Z</time>
      </trkpt>
      <trkpt lat="46.98972" lon="8.82452">
        <ele>1218</ele>
        <time>2021-08-04T08:20:40.832Z</time>
      </trkpt>
      <trkpt lat="46.98973" lon="8.82451">
        <ele>1218</ele>
        <time>2021-08-04T08:20:41.831Z</time>
      </trkpt>
      <trkpt lat="46.98973" lon="8.8245">
        <ele>1219</ele>
        <time>2021-08-04T08:20:42.832Z</time>
      </trkpt>
      <trkpt lat="46.98974" lon="8.82448">
        <ele>1219</ele>
        <time>2021-08-04T08:20:43.832Z</time>
      </trkpt>
      <trkpt lat="46.98974" lon="8.82447">
        <ele>1220</ele>
        <time>2021-08-04T08:20:44.832Z</time>
      </trkpt>
      <trkpt lat="46.98974" lon="8.82446">
        <ele>1221</ele>
        <time>2021-08-04T08:20:45.832Z</time>
      </trkpt>
      <trkpt lat="46.98975" lon="8.82445">
        <ele>1221</ele>
        <time>2021-08-04T08:20:46.832Z</time>
      </trkpt>
      <trkpt lat="46.98976" lon="8.82444">
        <ele>1222</ele>
        <time>2021-08-04T08:20:47.832Z</time>
      </trkpt>
      <trkpt lat="46.98977" lon="8.82443">
        <ele>1222</ele>
        <time>2021-08-04T08:20:48.831Z</time>
      </trkpt>
      <trkpt lat="46.98978" lon="8.82442">
        <ele>1222</ele>
        <time>2021-08-04T08:20:49.832Z</time>
      </trkpt>
      <trkpt lat="46.98979" lon="8.82441">
        <ele>1222</ele>
        <time>2021-08-04T08:20:50.832Z</time>
      </trkpt>
      <trkpt lat="46.98979" lon="8.8244">
        <ele>1222</ele>
        <time>2021-08-04T08:20:51.832Z</time>
      </trkpt>
      <trkpt lat="46.9898" lon="8.82439">
        <ele>1222</ele>
        <time>2021-08-04T08:20:52.832Z</time>
      </trkpt>
      <trkpt lat="46.98981" lon="8.82438">
        <ele>1222</ele>
        <time>2021-08-04T08:20:53.832Z</time>
      </trkpt>
      <trkpt lat="46.98982" lon="8.82437">
        <ele>1222</ele>
        <time>2021-08-04T08:20:54.832Z</time>
      </trkpt>
      <trkpt lat="46.98982" lon="8.82437">
        <ele>1223</ele>
        <time>2021-08-04T08:20:55.831Z</time>
      </trkpt>
      <trkpt lat="46.98983" lon="8.82436">
        <ele>1223</ele>
        <time>2021-08-04T08:20:56.832Z</time>
      </trkpt>
      <trkpt lat="46.98983" lon="8.82435">
        <ele>1223</ele>
        <time>2021-08-04T08:20:57.832Z</time>
      </trkpt>
      <trkpt lat="46.98984" lon="8.82435">
        <ele>1223</ele>
        <time>2021-08-04T08:20:58.832Z</time>
      </trkpt>
      <trkpt lat="46.98985" lon="8.82435">
        <ele>1223</ele>
        <time>2021-08-04T08:20:59.831Z</time>
      </trkpt>
      <trkpt lat="46.98986" lon="8.82434">
        <ele>1223</ele>
        <time>2021-08-04T08:21:00.831Z</time>
      </trkpt>
      <trkpt lat="46.98986" lon="8.82433">
        <ele>1223</ele>
        <time>2021-08-04T08:21:01.831Z</time>
      </trkpt>
      <trkpt lat="46.98987" lon="8.82432">
        <ele>1223</ele>
        <time>2021-08-04T08:21:02.831Z</time>
      </trkpt>
      <trkpt lat="46.98987" lon="8.82431">
        <ele>1222</ele>
        <time>2021-08-04T08:21:03.831Z</time>
      </trkpt>
      <trkpt lat="46.98988" lon="8.8243">
        <ele>1222</ele>
        <time>2021-08-04T08:21:04.831Z</time>
      </trkpt>
      <trkpt lat="46.98988" lon="8.82429">
        <ele>1222</ele>
        <time>2021-08-04T08:21:05.832Z</time>
      </trkpt>
      <trkpt lat="46.98988" lon="8.82428">
        <ele>1222</ele>
        <time>2021-08-04T08:21:06.832Z</time>
      </trkpt>
      <trkpt lat="46.98988" lon="8.82427">
        <ele>1222</ele>
        <time>2021-08-04T08:21:07.832Z</time>
      </trkpt>
      <trkpt lat="46.98988" lon="8.82426">
        <ele>1222</ele>
        <time>2021-08-04T08:21:08.832Z</time>
      </trkpt>
      <trkpt lat="46.98988" lon="8.82425">
        <ele>1223</ele>
        <time>2021-08-04T08:21:09.832Z</time>
      </trkpt>
      <trkpt lat="46.98988" lon="8.82424">
        <ele>1222</ele>
        <time>2021-08-04T08:21:10.832Z</time>
      </trkpt>
      <trkpt lat="46.98988" lon="8.82423">
        <ele>1222</ele>
        <time>2021-08-04T08:21:11.831Z</time>
      </trkpt>
      <trkpt lat="46.98989" lon="8.82423">
        <ele>1222</ele>
        <time>2021-08-04T08:21:12.832Z</time>
      </trkpt>
      <trkpt lat="46.9899" lon="8.82422">
        <ele>1221</ele>
        <time>2021-08-04T08:21:13.831Z</time>
      </trkpt>
      <trkpt lat="46.9899" lon="8.82422">
        <ele>1221</ele>
        <time>2021-08-04T08:21:14.831Z</time>
      </trkpt>
      <trkpt lat="46.98991" lon="8.82422">
        <ele>1220</ele>
        <time>2021-08-04T08:21:15.832Z</time>
      </trkpt>
      <trkpt lat="46.98992" lon="8.82422">
        <ele>1219</ele>
        <time>2021-08-04T08:21:16.831Z</time>
      </trkpt>
      <trkpt lat="46.98993" lon="8.82423">
        <ele>1219</ele>
        <time>2021-08-04T08:21:17.832Z</time>
      </trkpt>
      <trkpt lat="46.98994" lon="8.82423">
        <ele>1218</ele>
        <time>2021-08-04T08:21:18.831Z</time>
      </trkpt>
      <trkpt lat="46.98995" lon="8.82423">
        <ele>1217</ele>
        <time>2021-08-04T08:21:19.832Z</time>
      </trkpt>
      <trkpt lat="46.98997" lon="8.82423">
        <ele>1217</ele>
        <time>2021-08-04T08:21:20.832Z</time>
      </trkpt>
      <trkpt lat="46.98998" lon="8.82423">
        <ele>1217</ele>
        <time>2021-08-04T08:21:21.831Z</time>
      </trkpt>
      <trkpt lat="46.98999" lon="8.82423">
        <ele>1217</ele>
        <time>2021-08-04T08:21:22.832Z</time>
      </trkpt>
      <trkpt lat="46.99" lon="8.82423">
        <ele>1217</ele>
        <time>2021-08-04T08:21:23.832Z</time>
      </trkpt>
      <trkpt lat="46.99001" lon="8.82424">
        <ele>1217</ele>
        <time>2021-08-04T08:21:24.831Z</time>
      </trkpt>
      <trkpt lat="46.99002" lon="8.82424">
        <ele>1217</ele>
        <time>2021-08-04T08:21:25.832Z</time>
      </trkpt>
      <trkpt lat="46.99003" lon="8.82424">
        <ele>1217</ele>
        <time>2021-08-04T08:21:26.832Z</time>
      </trkpt>
      <trkpt lat="46.99004" lon="8.82424">
        <ele>1217</ele>
        <time>2021-08-04T08:21:27.831Z</time>
      </trkpt>
      <trkpt lat="46.99005" lon="8.82425">
        <ele>1217</ele>
        <time>2021-08-04T08:21:28.832Z</time>
      </trkpt>
      <trkpt lat="46.99006" lon="8.82425">
        <ele>1217</ele>
        <time>2021-08-04T08:21:29.831Z</time>
      </trkpt>
      <trkpt lat="46.99007" lon="8.82424">
        <ele>1217</ele>
        <time>2021-08-04T08:21:30.831Z</time>
      </trkpt>
      <trkpt lat="46.99008" lon="8.82425">
        <ele>1217</ele>
        <time>2021-08-04T08:21:31.832Z</time>
      </trkpt>
      <trkpt lat="46.99009" lon="8.82425">
        <ele>1216</ele>
        <time>2021-08-04T08:21:32.831Z</time>
      </trkpt>
      <trkpt lat="46.99009" lon="8.82425">
        <ele>1215</ele>
        <time>2021-08-04T08:21:33.831Z</time>
      </trkpt>
      <trkpt lat="46.9901" lon="8.82426">
        <ele>1214</ele>
        <time>2021-08-04T08:21:34.832Z</time>
      </trkpt>
      <trkpt lat="46.9901" lon="8.82426">
        <ele>1214</ele>
        <time>2021-08-04T08:21:35.831Z</time>
      </trkpt>
      <trkpt lat="46.9901" lon="8.82426">
        <ele>1214</ele>
        <time>2021-08-04T08:21:36.832Z</time>
      </trkpt>
      <trkpt lat="46.9901" lon="8.82426">
        <ele>1216</ele>
        <time>2021-08-04T08:21:37.833Z</time>
      </trkpt>
      <trkpt lat="46.99011" lon="8.82426">
        <ele>1217</ele>
        <time>2021-08-04T08:21:38.832Z</time>
      </trkpt>
      <trkpt lat="46.99011" lon="8.82425">
        <ele>1217</ele>
        <time>2021-08-04T08:21:39.832Z</time>
      </trkpt>
      <trkpt lat="46.99011" lon="8.82425">
        <ele>1218</ele>
        <time>2021-08-04T08:21:40.832Z</time>
      </trkpt>
      <trkpt lat="46.99009" lon="8.82422">
        <ele>1223</ele>
        <time>2021-08-04T08:21:41.834Z</time>
      </trkpt>
      <trkpt lat="46.9901" lon="8.82424">
        <ele>1223</ele>
        <time>2021-08-04T08:21:42.833Z</time>
      </trkpt>
      <trkpt lat="46.9901" lon="8.82425">
        <ele>1223</ele>
        <time>2021-08-04T08:21:43.834Z</time>
      </trkpt>
      <trkpt lat="46.9901" lon="8.82425">
        <ele>1223</ele>
        <time>2021-08-04T08:21:44.834Z</time>
      </trkpt>
      <trkpt lat="46.9901" lon="8.82423">
        <ele>1224</ele>
        <time>2021-08-04T08:21:45.834Z</time>
      </trkpt>
      <trkpt lat="46.99009" lon="8.82423">
        <ele>1225</ele>
        <time>2021-08-04T08:21:46.834Z</time>
      </trkpt>
      <trkpt lat="46.99009" lon="8.82422">
        <ele>1226</ele>
        <time>2021-08-04T08:21:47.833Z</time>
      </trkpt>
      <trkpt lat="46.99009" lon="8.82423">
        <ele>1227</ele>
        <time>2021-08-04T08:21:48.834Z</time>
      </trkpt>
      <trkpt lat="46.99008" lon="8.82421">
        <ele>1230</ele>
        <time>2021-08-04T08:21:49.835Z</time>
      </trkpt>
      <trkpt lat="46.99007" lon="8.82419">
        <ele>1231</ele>
        <time>2021-08-04T08:21:50.835Z</time>
      </trkpt>
      <trkpt lat="46.99007" lon="8.82418">
        <ele>1231</ele>
        <time>2021-08-04T08:21:51.834Z</time>
      </trkpt>
      <trkpt lat="46.99006" lon="8.82418">
        <ele>1231</ele>
        <time>2021-08-04T08:21:52.835Z</time>
      </trkpt>
      <trkpt lat="46.99006" lon="8.82418">
        <ele>1232</ele>
        <time>2021-08-04T08:21:53.835Z</time>
      </trkpt>
      <trkpt lat="46.99006" lon="8.82418">
        <ele>1232</ele>
        <time>2021-08-04T08:21:54.835Z</time>
      </trkpt>
      <trkpt lat="46.99006" lon="8.82418">
        <ele>1232</ele>
        <time>2021-08-04T08:21:55.834Z</time>
      </trkpt>
      <trkpt lat="46.99007" lon="8.82418">
        <ele>1231</ele>
        <time>2021-08-04T08:21:56.834Z</time>
      </trkpt>
      <trkpt lat="46.99007" lon="8.8242">
        <ele>1231</ele>
        <time>2021-08-04T08:21:57.835Z</time>
      </trkpt>
      <trkpt lat="46.99007" lon="8.82421">
        <ele>1230</ele>
        <time>2021-08-04T08:21:58.834Z</time>
      </trkpt>
      <trkpt lat="46.99007" lon="8.82422">
        <ele>1229</ele>
        <time>2021-08-04T08:21:59.834Z</time>
      </trkpt>
      <trkpt lat="46.99007" lon="8.82423">
        <ele>1226</ele>
        <time>2021-08-04T08:22:00.834Z</time>
      </trkpt>
      <trkpt lat="46.99008" lon="8.82422">
        <ele>1226</ele>
        <time>2021-08-04T08:22:01.835Z</time>
      </trkpt>
      <trkpt lat="46.99009" lon="8.82421">
        <ele>1226</ele>
        <time>2021-08-04T08:22:02.834Z</time>
      </trkpt>
      <trkpt lat="46.99009" lon="8.82421">
        <ele>1226</ele>
        <time>2021-08-04T08:22:03.834Z</time>
      </trkpt>
      <trkpt lat="46.9901" lon="8.8242">
        <ele>1226</ele>
        <time>2021-08-04T08:22:04.835Z</time>
      </trkpt>
      <trkpt lat="46.9901" lon="8.82419">
        <ele>1226</ele>
        <time>2021-08-04T08:22:05.834Z</time>
      </trkpt>
      <trkpt lat="46.99011" lon="8.82417">
        <ele>1226</ele>
        <time>2021-08-04T08:22:06.834Z</time>
      </trkpt>
      <trkpt lat="46.99012" lon="8.82417">
        <ele>1226</ele>
        <time>2021-08-04T08:22:07.834Z</time>
      </trkpt>
      <trkpt lat="46.99013" lon="8.82416">
        <ele>1225</ele>
        <time>2021-08-04T08:22:08.835Z</time>
      </trkpt>
      <trkpt lat="46.99014" lon="8.82415">
        <ele>1225</ele>
        <time>2021-08-04T08:22:09.835Z</time>
      </trkpt>
      <trkpt lat="46.99015" lon="8.82414">
        <ele>1225</ele>
        <time>2021-08-04T08:22:10.835Z</time>
      </trkpt>
      <trkpt lat="46.99015" lon="8.82413">
        <ele>1224</ele>
        <time>2021-08-04T08:22:11.835Z</time>
      </trkpt>
      <trkpt lat="46.99016" lon="8.82411">
        <ele>1224</ele>
        <time>2021-08-04T08:22:12.835Z</time>
      </trkpt>
      <trkpt lat="46.99017" lon="8.8241">
        <ele>1224</ele>
        <time>2021-08-04T08:22:13.835Z</time>
      </trkpt>
      <trkpt lat="46.99018" lon="8.82408">
        <ele>1224</ele>
        <time>2021-08-04T08:22:14.834Z</time>
      </trkpt>
      <trkpt lat="46.99018" lon="8.82407">
        <ele>1224</ele>
        <time>2021-08-04T08:22:15.835Z</time>
      </trkpt>
      <trkpt lat="46.99018" lon="8.82405">
        <ele>1224</ele>
        <time>2021-08-04T08:22:16.835Z</time>
      </trkpt>
      <trkpt lat="46.99018" lon="8.82404">
        <ele>1223</ele>
        <time>2021-08-04T08:22:17.834Z</time>
      </trkpt>
      <trkpt lat="46.99019" lon="8.82403">
        <ele>1223</ele>
        <time>2021-08-04T08:22:18.834Z</time>
      </trkpt>
      <trkpt lat="46.99019" lon="8.82401">
        <ele>1223</ele>
        <time>2021-08-04T08:22:19.834Z</time>
      </trkpt>
      <trkpt lat="46.99019" lon="8.82398">
        <ele>1223</ele>
        <time>2021-08-04T08:22:20.834Z</time>
      </trkpt>
      <trkpt lat="46.9902" lon="8.82397">
        <ele>1223</ele>
        <time>2021-08-04T08:22:21.834Z</time>
      </trkpt>
      <trkpt lat="46.9902" lon="8.82395">
        <ele>1224</ele>
        <time>2021-08-04T08:22:22.835Z</time>
      </trkpt>
      <trkpt lat="46.9902" lon="8.82394">
        <ele>1225</ele>
        <time>2021-08-04T08:22:23.834Z</time>
      </trkpt>
      <trkpt lat="46.99021" lon="8.82392">
        <ele>1225</ele>
        <time>2021-08-04T08:22:24.834Z</time>
      </trkpt>
      <trkpt lat="46.99022" lon="8.8239">
        <ele>1225</ele>
        <time>2021-08-04T08:22:25.835Z</time>
      </trkpt>
      <trkpt lat="46.99023" lon="8.82389">
        <ele>1225</ele>
        <time>2021-08-04T08:22:26.835Z</time>
      </trkpt>
      <trkpt lat="46.99023" lon="8.82387">
        <ele>1225</ele>
        <time>2021-08-04T08:22:27.835Z</time>
      </trkpt>
      <trkpt lat="46.99024" lon="8.82386">
        <ele>1225</ele>
        <time>2021-08-04T08:22:28.835Z</time>
      </trkpt>
      <trkpt lat="46.99024" lon="8.82384">
        <ele>1225</ele>
        <time>2021-08-04T08:22:29.834Z</time>
      </trkpt>
      <trkpt lat="46.99024" lon="8.82383">
        <ele>1225</ele>
        <time>2021-08-04T08:22:30.834Z</time>
      </trkpt>
      <trkpt lat="46.99025" lon="8.82383">
        <ele>1224</ele>
        <time>2021-08-04T08:22:31.834Z</time>
      </trkpt>
      <trkpt lat="46.99024" lon="8.82383">
        <ele>1224</ele>
        <time>2021-08-04T08:22:32.835Z</time>
      </trkpt>
      <trkpt lat="46.99024" lon="8.82383">
        <ele>1223</ele>
        <time>2021-08-04T08:22:33.834Z</time>
      </trkpt>
      <trkpt lat="46.99024" lon="8.82383">
        <ele>1223</ele>
        <time>2021-08-04T08:22:34.834Z</time>
      </trkpt>
      <trkpt lat="46.99025" lon="8.82383">
        <ele>1222</ele>
        <time>2021-08-04T08:22:35.834Z</time>
      </trkpt>
      <trkpt lat="46.99025" lon="8.82383">
        <ele>1222</ele>
        <time>2021-08-04T08:22:36.834Z</time>
      </trkpt>
      <trkpt lat="46.99024" lon="8.82382">
        <ele>1221</ele>
        <time>2021-08-04T08:22:37.835Z</time>
      </trkpt>
      <trkpt lat="46.99024" lon="8.8238">
        <ele>1221</ele>
        <time>2021-08-04T08:22:38.836Z</time>
      </trkpt>
      <trkpt lat="46.99024" lon="8.8238">
        <ele>1220</ele>
        <time>2021-08-04T08:22:39.836Z</time>
      </trkpt>
      <trkpt lat="46.99025" lon="8.82379">
        <ele>1220</ele>
        <time>2021-08-04T08:22:40.835Z</time>
      </trkpt>
      <trkpt lat="46.99026" lon="8.82379">
        <ele>1220</ele>
        <time>2021-08-04T08:22:41.835Z</time>
      </trkpt>
      <trkpt lat="46.99027" lon="8.82378">
        <ele>1220</ele>
        <time>2021-08-04T08:22:42.835Z</time>
      </trkpt>
      <trkpt lat="46.99028" lon="8.82377">
        <ele>1220</ele>
        <time>2021-08-04T08:22:43.835Z</time>
      </trkpt>
      <trkpt lat="46.99029" lon="8.82376">
        <ele>1220</ele>
        <time>2021-08-04T08:22:44.835Z</time>
      </trkpt>
      <trkpt lat="46.99029" lon="8.82376">
        <ele>1220</ele>
        <time>2021-08-04T08:22:45.835Z</time>
      </trkpt>
      <trkpt lat="46.9903" lon="8.82374">
        <ele>1219</ele>
        <time>2021-08-04T08:22:46.836Z</time>
      </trkpt>
      <trkpt lat="46.99031" lon="8.82373">
        <ele>1218</ele>
        <time>2021-08-04T08:22:47.836Z</time>
      </trkpt>
      <trkpt lat="46.99031" lon="8.82372">
        <ele>1218</ele>
        <time>2021-08-04T08:22:48.836Z</time>
      </trkpt>
      <trkpt lat="46.99032" lon="8.82371">
        <ele>1218</ele>
        <time>2021-08-04T08:22:49.836Z</time>
      </trkpt>
      <trkpt lat="46.99033" lon="8.8237">
        <ele>1218</ele>
        <time>2021-08-04T08:22:50.836Z</time>
      </trkpt>
      <trkpt lat="46.99034" lon="8.82369">
        <ele>1218</ele>
        <time>2021-08-04T08:22:51.835Z</time>
      </trkpt>
      <trkpt lat="46.99035" lon="8.82368">
        <ele>1218</ele>
        <time>2021-08-04T08:22:52.835Z</time>
      </trkpt>
      <trkpt lat="46.99037" lon="8.82367">
        <ele>1218</ele>
        <time>2021-08-04T08:22:53.836Z</time>
      </trkpt>
      <trkpt lat="46.99038" lon="8.82367">
        <ele>1218</ele>
        <time>2021-08-04T08:22:54.835Z</time>
      </trkpt>
      <trkpt lat="46.99039" lon="8.82366">
        <ele>1217</ele>
        <time>2021-08-04T08:22:55.836Z</time>
      </trkpt>
      <trkpt lat="46.9904" lon="8.82365">
        <ele>1217</ele>
        <time>2021-08-04T08:22:56.835Z</time>
      </trkpt>
      <trkpt lat="46.99041" lon="8.82364">
        <ele>1217</ele>
        <time>2021-08-04T08:22:57.836Z</time>
      </trkpt>
      <trkpt lat="46.99042" lon="8.82363">
        <ele>1217</ele>
        <time>2021-08-04T08:22:58.835Z</time>
      </trkpt>
      <trkpt lat="46.99043" lon="8.82362">
        <ele>1217</ele>
        <time>2021-08-04T08:22:59.836Z</time>
      </trkpt>
      <trkpt lat="46.99044" lon="8.82361">
        <ele>1216</ele>
        <time>2021-08-04T08:23:00.836Z</time>
      </trkpt>
      <trkpt lat="46.99044" lon="8.8236">
        <ele>1216</ele>
        <time>2021-08-04T08:23:01.835Z</time>
      </trkpt>
      <trkpt lat="46.99045" lon="8.82359">
        <ele>1216</ele>
        <time>2021-08-04T08:23:02.835Z</time>
      </trkpt>
      <trkpt lat="46.99047" lon="8.82357">
        <ele>1216</ele>
        <time>2021-08-04T08:23:03.835Z</time>
      </trkpt>
      <trkpt lat="46.99047" lon="8.82356">
        <ele>1216</ele>
        <time>2021-08-04T08:23:04.835Z</time>
      </trkpt>
      <trkpt lat="46.99048" lon="8.82355">
        <ele>1215</ele>
        <time>2021-08-04T08:23:05.835Z</time>
      </trkpt>
      <trkpt lat="46.99049" lon="8.82354">
        <ele>1215</ele>
        <time>2021-08-04T08:23:06.836Z</time>
      </trkpt>
      <trkpt lat="46.9905" lon="8.82353">
        <ele>1215</ele>
        <time>2021-08-04T08:23:07.835Z</time>
      </trkpt>
      <trkpt lat="46.99051" lon="8.82352">
        <ele>1215</ele>
        <time>2021-08-04T08:23:08.836Z</time>
      </trkpt>
      <trkpt lat="46.99052" lon="8.82351">
        <ele>1215</ele>
        <time>2021-08-04T08:23:09.835Z</time>
      </trkpt>
      <trkpt lat="46.99053" lon="8.8235">
        <ele>1214</ele>
        <time>2021-08-04T08:23:10.835Z</time>
      </trkpt>
      <trkpt lat="46.99053" lon="8.82349">
        <ele>1214</ele>
        <time>2021-08-04T08:23:11.835Z</time>
      </trkpt>
      <trkpt lat="46.99054" lon="8.82348">
        <ele>1213</ele>
        <time>2021-08-04T08:23:12.835Z</time>
      </trkpt>
      <trkpt lat="46.99055" lon="8.82347">
        <ele>1213</ele>
        <time>2021-08-04T08:23:13.835Z</time>
      </trkpt>
      <trkpt lat="46.99056" lon="8.82345">
        <ele>1213</ele>
        <time>2021-08-04T08:23:14.836Z</time>
      </trkpt>
      <trkpt lat="46.99056" lon="8.82344">
        <ele>1213</ele>
        <time>2021-08-04T08:23:15.836Z</time>
      </trkpt>
      <trkpt lat="46.99057" lon="8.82343">
        <ele>1213</ele>
        <time>2021-08-04T08:23:16.835Z</time>
      </trkpt>
      <trkpt lat="46.99057" lon="8.82342">
        <ele>1213</ele>
        <time>2021-08-04T08:23:17.835Z</time>
      </trkpt>
      <trkpt lat="46.99058" lon="8.82339">
        <ele>1214</ele>
        <time>2021-08-04T08:23:18.835Z</time>
      </trkpt>
      <trkpt lat="46.99058" lon="8.82338">
        <ele>1215</ele>
        <time>2021-08-04T08:23:19.835Z</time>
      </trkpt>
      <trkpt lat="46.99059" lon="8.82336">
        <ele>1215</ele>
        <time>2021-08-04T08:23:20.835Z</time>
      </trkpt>
      <trkpt lat="46.99059" lon="8.82335">
        <ele>1216</ele>
        <time>2021-08-04T08:23:21.835Z</time>
      </trkpt>
      <trkpt lat="46.99059" lon="8.82334">
        <ele>1216</ele>
        <time>2021-08-04T08:23:22.836Z</time>
      </trkpt>
      <trkpt lat="46.9906" lon="8.82332">
        <ele>1216</ele>
        <time>2021-08-04T08:23:23.835Z</time>
      </trkpt>
      <trkpt lat="46.99061" lon="8.82331">
        <ele>1216</ele>
        <time>2021-08-04T08:23:24.835Z</time>
      </trkpt>
      <trkpt lat="46.99061" lon="8.8233">
        <ele>1217</ele>
        <time>2021-08-04T08:23:25.835Z</time>
      </trkpt>
      <trkpt lat="46.99062" lon="8.82328">
        <ele>1217</ele>
        <time>2021-08-04T08:23:26.835Z</time>
      </trkpt>
      <trkpt lat="46.99062" lon="8.82327">
        <ele>1217</ele>
        <time>2021-08-04T08:23:27.835Z</time>
      </trkpt>
      <trkpt lat="46.99063" lon="8.82326">
        <ele>1216</ele>
        <time>2021-08-04T08:23:28.836Z</time>
      </trkpt>
      <trkpt lat="46.99064" lon="8.82325">
        <ele>1215</ele>
        <time>2021-08-04T08:23:29.835Z</time>
      </trkpt>
      <trkpt lat="46.99064" lon="8.82324">
        <ele>1215</ele>
        <time>2021-08-04T08:23:30.835Z</time>
      </trkpt>
      <trkpt lat="46.99065" lon="8.82323">
        <ele>1214</ele>
        <time>2021-08-04T08:23:31.835Z</time>
      </trkpt>
      <trkpt lat="46.99066" lon="8.82322">
        <ele>1213</ele>
        <time>2021-08-04T08:23:32.835Z</time>
      </trkpt>
      <trkpt lat="46.99067" lon="8.8232">
        <ele>1213</ele>
        <time>2021-08-04T08:23:33.836Z</time>
      </trkpt>
      <trkpt lat="46.99068" lon="8.82319">
        <ele>1213</ele>
        <time>2021-08-04T08:23:34.836Z</time>
      </trkpt>
      <trkpt lat="46.99069" lon="8.82317">
        <ele>1213</ele>
        <time>2021-08-04T08:23:35.836Z</time>
      </trkpt>
      <trkpt lat="46.99069" lon="8.82316">
        <ele>1213</ele>
        <time>2021-08-04T08:23:36.836Z</time>
      </trkpt>
      <trkpt lat="46.9907" lon="8.82315">
        <ele>1213</ele>
        <time>2021-08-04T08:23:37.836Z</time>
      </trkpt>
      <trkpt lat="46.9907" lon="8.82314">
        <ele>1213</ele>
        <time>2021-08-04T08:23:38.835Z</time>
      </trkpt>
      <trkpt lat="46.99071" lon="8.82312">
        <ele>1213</ele>
        <time>2021-08-04T08:23:39.836Z</time>
      </trkpt>
      <trkpt lat="46.99071" lon="8.82311">
        <ele>1213</ele>
        <time>2021-08-04T08:23:40.835Z</time>
      </trkpt>
      <trkpt lat="46.99072" lon="8.82309">
        <ele>1213</ele>
        <time>2021-08-04T08:23:41.836Z</time>
      </trkpt>
      <trkpt lat="46.99073" lon="8.82308">
        <ele>1213</ele>
        <time>2021-08-04T08:23:42.835Z</time>
      </trkpt>
      <trkpt lat="46.99073" lon="8.82306">
        <ele>1214</ele>
        <time>2021-08-04T08:23:43.836Z</time>
      </trkpt>
      <trkpt lat="46.99074" lon="8.82305">
        <ele>1214</ele>
        <time>2021-08-04T08:23:44.836Z</time>
      </trkpt>
      <trkpt lat="46.99074" lon="8.82304">
        <ele>1215</ele>
        <time>2021-08-04T08:23:45.836Z</time>
      </trkpt>
      <trkpt lat="46.99074" lon="8.82303">
        <ele>1215</ele>
        <time>2021-08-04T08:23:46.835Z</time>
      </trkpt>
      <trkpt lat="46.99075" lon="8.82301">
        <ele>1216</ele>
        <time>2021-08-04T08:23:47.835Z</time>
      </trkpt>
      <trkpt lat="46.99076" lon="8.823">
        <ele>1216</ele>
        <time>2021-08-04T08:23:48.835Z</time>
      </trkpt>
      <trkpt lat="46.99076" lon="8.82299">
        <ele>1217</ele>
        <time>2021-08-04T08:23:49.836Z</time>
      </trkpt>
      <trkpt lat="46.99076" lon="8.82298">
        <ele>1217</ele>
        <time>2021-08-04T08:23:50.836Z</time>
      </trkpt>
      <trkpt lat="46.99076" lon="8.82296">
        <ele>1218</ele>
        <time>2021-08-04T08:23:51.835Z</time>
      </trkpt>
      <trkpt lat="46.99075" lon="8.82294">
        <ele>1218</ele>
        <time>2021-08-04T08:23:52.836Z</time>
      </trkpt>
      <trkpt lat="46.99075" lon="8.82293">
        <ele>1218</ele>
        <time>2021-08-04T08:23:53.836Z</time>
      </trkpt>
      <trkpt lat="46.99075" lon="8.82291">
        <ele>1217</ele>
        <time>2021-08-04T08:23:54.835Z</time>
      </trkpt>
      <trkpt lat="46.99075" lon="8.8229">
        <ele>1217</ele>
        <time>2021-08-04T08:23:55.835Z</time>
      </trkpt>
      <trkpt lat="46.99075" lon="8.82288">
        <ele>1217</ele>
        <time>2021-08-04T08:23:56.835Z</time>
      </trkpt>
      <trkpt lat="46.99074" lon="8.82286">
        <ele>1217</ele>
        <time>2021-08-04T08:23:57.836Z</time>
      </trkpt>
      <trkpt lat="46.99073" lon="8.82284">
        <ele>1216</ele>
        <time>2021-08-04T08:23:58.836Z</time>
      </trkpt>
      <trkpt lat="46.99073" lon="8.82283">
        <ele>1216</ele>
        <time>2021-08-04T08:23:59.835Z</time>
      </trkpt>
      <trkpt lat="46.99073" lon="8.82282">
        <ele>1217</ele>
        <time>2021-08-04T08:24:00.835Z</time>
      </trkpt>
      <trkpt lat="46.99073" lon="8.82281">
        <ele>1217</ele>
        <time>2021-08-04T08:24:01.836Z</time>
      </trkpt>
      <trkpt lat="46.99073" lon="8.8228">
        <ele>1217</ele>
        <time>2021-08-04T08:24:02.835Z</time>
      </trkpt>
      <trkpt lat="46.99073" lon="8.82278">
        <ele>1217</ele>
        <time>2021-08-04T08:24:03.836Z</time>
      </trkpt>
      <trkpt lat="46.99073" lon="8.82277">
        <ele>1217</ele>
        <time>2021-08-04T08:24:04.836Z</time>
      </trkpt>
      <trkpt lat="46.99072" lon="8.82276">
        <ele>1218</ele>
        <time>2021-08-04T08:24:05.836Z</time>
      </trkpt>
      <trkpt lat="46.99072" lon="8.82274">
        <ele>1218</ele>
        <time>2021-08-04T08:24:06.836Z</time>
      </trkpt>
      <trkpt lat="46.99072" lon="8.82273">
        <ele>1218</ele>
        <time>2021-08-04T08:24:07.836Z</time>
      </trkpt>
      <trkpt lat="46.99072" lon="8.82271">
        <ele>1218</ele>
        <time>2021-08-04T08:24:08.836Z</time>
      </trkpt>
      <trkpt lat="46.99072" lon="8.8227">
        <ele>1218</ele>
        <time>2021-08-04T08:24:09.836Z</time>
      </trkpt>
      <trkpt lat="46.99071" lon="8.82269">
        <ele>1218</ele>
        <time>2021-08-04T08:24:10.835Z</time>
      </trkpt>
      <trkpt lat="46.99071" lon="8.82268">
        <ele>1218</ele>
        <time>2021-08-04T08:24:11.836Z</time>
      </trkpt>
      <trkpt lat="46.9907" lon="8.82266">
        <ele>1218</ele>
        <time>2021-08-04T08:24:12.836Z</time>
      </trkpt>
      <trkpt lat="46.9907" lon="8.82265">
        <ele>1218</ele>
        <time>2021-08-04T08:24:13.836Z</time>
      </trkpt>
      <trkpt lat="46.9907" lon="8.82264">
        <ele>1219</ele>
        <time>2021-08-04T08:24:14.835Z</time>
      </trkpt>
      <trkpt lat="46.9907" lon="8.82263">
        <ele>1219</ele>
        <time>2021-08-04T08:24:15.836Z</time>
      </trkpt>
      <trkpt lat="46.99071" lon="8.82261">
        <ele>1219</ele>
        <time>2021-08-04T08:24:16.835Z</time>
      </trkpt>
      <trkpt lat="46.99071" lon="8.8226">
        <ele>1219</ele>
        <time>2021-08-04T08:24:17.835Z</time>
      </trkpt>
      <trkpt lat="46.99071" lon="8.82258">
        <ele>1219</ele>
        <time>2021-08-04T08:24:18.835Z</time>
      </trkpt>
      <trkpt lat="46.99071" lon="8.82256">
        <ele>1220</ele>
        <time>2021-08-04T08:24:19.836Z</time>
      </trkpt>
      <trkpt lat="46.99071" lon="8.82255">
        <ele>1220</ele>
        <time>2021-08-04T08:24:20.836Z</time>
      </trkpt>
      <trkpt lat="46.99071" lon="8.82253">
        <ele>1220</ele>
        <time>2021-08-04T08:24:21.836Z</time>
      </trkpt>
      <trkpt lat="46.99072" lon="8.82251">
        <ele>1220</ele>
        <time>2021-08-04T08:24:22.836Z</time>
      </trkpt>
      <trkpt lat="46.99072" lon="8.82249">
        <ele>1220</ele>
        <time>2021-08-04T08:24:23.835Z</time>
      </trkpt>
      <trkpt lat="46.99072" lon="8.82248">
        <ele>1220</ele>
        <time>2021-08-04T08:24:24.836Z</time>
      </trkpt>
      <trkpt lat="46.99072" lon="8.82248">
        <ele>1220</ele>
        <time>2021-08-04T08:24:25.835Z</time>
      </trkpt>
      <trkpt lat="46.99072" lon="8.82247">
        <ele>1221</ele>
        <time>2021-08-04T08:24:26.836Z</time>
      </trkpt>
      <trkpt lat="46.99073" lon="8.82246">
        <ele>1221</ele>
        <time>2021-08-04T08:24:27.836Z</time>
      </trkpt>
      <trkpt lat="46.99073" lon="8.82245">
        <ele>1221</ele>
        <time>2021-08-04T08:24:28.835Z</time>
      </trkpt>
      <trkpt lat="46.99073" lon="8.82243">
        <ele>1221</ele>
        <time>2021-08-04T08:24:29.835Z</time>
      </trkpt>
      <trkpt lat="46.99073" lon="8.82242">
        <ele>1221</ele>
        <time>2021-08-04T08:24:30.835Z</time>
      </trkpt>
      <trkpt lat="46.99073" lon="8.8224">
        <ele>1220</ele>
        <time>2021-08-04T08:24:31.835Z</time>
      </trkpt>
      <trkpt lat="46.99073" lon="8.82238">
        <ele>1220</ele>
        <time>2021-08-04T08:24:32.835Z</time>
      </trkpt>
      <trkpt lat="46.99073" lon="8.82236">
        <ele>1220</ele>
        <time>2021-08-04T08:24:33.836Z</time>
      </trkpt>
      <trkpt lat="46.99073" lon="8.82235">
        <ele>1220</ele>
        <time>2021-08-04T08:24:34.836Z</time>
      </trkpt>
      <trkpt lat="46.99073" lon="8.82233">
        <ele>1220</ele>
        <time>2021-08-04T08:24:35.836Z</time>
      </trkpt>
      <trkpt lat="46.99073" lon="8.82232">
        <ele>1219</ele>
        <time>2021-08-04T08:24:36.835Z</time>
      </trkpt>
      <trkpt lat="46.99073" lon="8.82231">
        <ele>1220</ele>
        <time>2021-08-04T08:24:37.836Z</time>
      </trkpt>
      <trkpt lat="46.99073" lon="8.8223">
        <ele>1220</ele>
        <time>2021-08-04T08:24:38.835Z</time>
      </trkpt>
      <trkpt lat="46.99073" lon="8.82229">
        <ele>1220</ele>
        <time>2021-08-04T08:24:39.836Z</time>
      </trkpt>
      <trkpt lat="46.99073" lon="8.82229">
        <ele>1219</ele>
        <time>2021-08-04T08:24:40.835Z</time>
      </trkpt>
      <trkpt lat="46.99073" lon="8.82228">
        <ele>1219</ele>
        <time>2021-08-04T08:24:41.835Z</time>
      </trkpt>
      <trkpt lat="46.99073" lon="8.82228">
        <ele>1218</ele>
        <time>2021-08-04T08:24:42.835Z</time>
      </trkpt>
      <trkpt lat="46.99073" lon="8.82227">
        <ele>1218</ele>
        <time>2021-08-04T08:24:43.836Z</time>
      </trkpt>
      <trkpt lat="46.99073" lon="8.82226">
        <ele>1218</ele>
        <time>2021-08-04T08:24:44.836Z</time>
      </trkpt>
      <trkpt lat="46.99073" lon="8.82225">
        <ele>1217</ele>
        <time>2021-08-04T08:24:45.835Z</time>
      </trkpt>
      <trkpt lat="46.99074" lon="8.82224">
        <ele>1218</ele>
        <time>2021-08-04T08:24:46.836Z</time>
      </trkpt>
      <trkpt lat="46.99073" lon="8.82224">
        <ele>1218</ele>
        <time>2021-08-04T08:24:47.836Z</time>
      </trkpt>
      <trkpt lat="46.99073" lon="8.82223">
        <ele>1218</ele>
        <time>2021-08-04T08:24:48.836Z</time>
      </trkpt>
      <trkpt lat="46.99073" lon="8.82223">
        <ele>1217</ele>
        <time>2021-08-04T08:24:49.835Z</time>
      </trkpt>
      <trkpt lat="46.99073" lon="8.82222">
        <ele>1217</ele>
        <time>2021-08-04T08:24:50.836Z</time>
      </trkpt>
      <trkpt lat="46.99073" lon="8.82222">
        <ele>1217</ele>
        <time>2021-08-04T08:24:51.836Z</time>
      </trkpt>
      <trkpt lat="46.99072" lon="8.82222">
        <ele>1217</ele>
        <time>2021-08-04T08:24:52.835Z</time>
      </trkpt>
      <trkpt lat="46.99075" lon="8.82223">
        <ele>1216</ele>
        <time>2021-08-04T08:24:53.837Z</time>
      </trkpt>
      <trkpt lat="46.99075" lon="8.82222">
        <ele>1216</ele>
        <time>2021-08-04T08:24:54.837Z</time>
      </trkpt>
      <trkpt lat="46.99075" lon="8.82221">
        <ele>1216</ele>
        <time>2021-08-04T08:24:55.837Z</time>
      </trkpt>
      <trkpt lat="46.99075" lon="8.8222">
        <ele>1216</ele>
        <time>2021-08-04T08:24:56.837Z</time>
      </trkpt>
      <trkpt lat="46.99075" lon="8.82218">
        <ele>1216</ele>
        <time>2021-08-04T08:24:57.837Z</time>
      </trkpt>
      <trkpt lat="46.99075" lon="8.82216">
        <ele>1216</ele>
        <time>2021-08-04T08:24:58.837Z</time>
      </trkpt>
      <trkpt lat="46.99074" lon="8.82215">
        <ele>1216</ele>
        <time>2021-08-04T08:24:59.836Z</time>
      </trkpt>
      <trkpt lat="46.99074" lon="8.82214">
        <ele>1216</ele>
        <time>2021-08-04T08:25:00.837Z</time>
      </trkpt>
      <trkpt lat="46.99074" lon="8.82212">
        <ele>1216</ele>
        <time>2021-08-04T08:25:01.837Z</time>
      </trkpt>
      <trkpt lat="46.99074" lon="8.82211">
        <ele>1216</ele>
        <time>2021-08-04T08:25:02.837Z</time>
      </trkpt>
      <trkpt lat="46.99074" lon="8.82209">
        <ele>1216</ele>
        <time>2021-08-04T08:25:03.836Z</time>
      </trkpt>
      <trkpt lat="46.99074" lon="8.82208">
        <ele>1216</ele>
        <time>2021-08-04T08:25:04.837Z</time>
      </trkpt>
      <trkpt lat="46.99075" lon="8.82206">
        <ele>1216</ele>
        <time>2021-08-04T08:25:05.837Z</time>
      </trkpt>
      <trkpt lat="46.99075" lon="8.82205">
        <ele>1216</ele>
        <time>2021-08-04T08:25:06.837Z</time>
      </trkpt>
      <trkpt lat="46.99076" lon="8.82204">
        <ele>1216</ele>
        <time>2021-08-04T08:25:07.836Z</time>
      </trkpt>
      <trkpt lat="46.99076" lon="8.82202">
        <ele>1216</ele>
        <time>2021-08-04T08:25:08.836Z</time>
      </trkpt>
      <trkpt lat="46.99076" lon="8.822">
        <ele>1217</ele>
        <time>2021-08-04T08:25:09.837Z</time>
      </trkpt>
      <trkpt lat="46.99076" lon="8.82199">
        <ele>1217</ele>
        <time>2021-08-04T08:25:10.836Z</time>
      </trkpt>
      <trkpt lat="46.99076" lon="8.82197">
        <ele>1217</ele>
        <time>2021-08-04T08:25:11.836Z</time>
      </trkpt>
      <trkpt lat="46.99075" lon="8.82196">
        <ele>1217</ele>
        <time>2021-08-04T08:25:12.837Z</time>
      </trkpt>
      <trkpt lat="46.99075" lon="8.82194">
        <ele>1218</ele>
        <time>2021-08-04T08:25:13.836Z</time>
      </trkpt>
      <trkpt lat="46.99075" lon="8.82192">
        <ele>1218</ele>
        <time>2021-08-04T08:25:14.836Z</time>
      </trkpt>
      <trkpt lat="46.99075" lon="8.82191">
        <ele>1218</ele>
        <time>2021-08-04T08:25:15.836Z</time>
      </trkpt>
      <trkpt lat="46.99075" lon="8.82189">
        <ele>1218</ele>
        <time>2021-08-04T08:25:16.836Z</time>
      </trkpt>
      <trkpt lat="46.99075" lon="8.82188">
        <ele>1219</ele>
        <time>2021-08-04T08:25:17.836Z</time>
      </trkpt>
      <trkpt lat="46.99075" lon="8.82185">
        <ele>1219</ele>
        <time>2021-08-04T08:25:18.836Z</time>
      </trkpt>
      <trkpt lat="46.99076" lon="8.82184">
        <ele>1220</ele>
        <time>2021-08-04T08:25:19.837Z</time>
      </trkpt>
      <trkpt lat="46.99076" lon="8.82183">
        <ele>1220</ele>
        <time>2021-08-04T08:25:20.836Z</time>
      </trkpt>
      <trkpt lat="46.99076" lon="8.82181">
        <ele>1221</ele>
        <time>2021-08-04T08:25:21.836Z</time>
      </trkpt>
      <trkpt lat="46.99076" lon="8.82179">
        <ele>1221</ele>
        <time>2021-08-04T08:25:22.837Z</time>
      </trkpt>
      <trkpt lat="46.99077" lon="8.82178">
        <ele>1220</ele>
        <time>2021-08-04T08:25:23.837Z</time>
      </trkpt>
      <trkpt lat="46.99077" lon="8.82176">
        <ele>1220</ele>
        <time>2021-08-04T08:25:24.836Z</time>
      </trkpt>
      <trkpt lat="46.99078" lon="8.82175">
        <ele>1220</ele>
        <time>2021-08-04T08:25:25.836Z</time>
      </trkpt>
      <trkpt lat="46.99078" lon="8.82173">
        <ele>1220</ele>
        <time>2021-08-04T08:25:26.837Z</time>
      </trkpt>
      <trkpt lat="46.99078" lon="8.82172">
        <ele>1219</ele>
        <time>2021-08-04T08:25:27.836Z</time>
      </trkpt>
      <trkpt lat="46.99079" lon="8.82171">
        <ele>1219</ele>
        <time>2021-08-04T08:25:28.836Z</time>
      </trkpt>
      <trkpt lat="46.99079" lon="8.8217">
        <ele>1219</ele>
        <time>2021-08-04T08:25:29.837Z</time>
      </trkpt>
      <trkpt lat="46.99079" lon="8.82169">
        <ele>1219</ele>
        <time>2021-08-04T08:25:30.837Z</time>
      </trkpt>
      <trkpt lat="46.99079" lon="8.82168">
        <ele>1219</ele>
        <time>2021-08-04T08:25:31.836Z</time>
      </trkpt>
      <trkpt lat="46.9908" lon="8.82166">
        <ele>1219</ele>
        <time>2021-08-04T08:25:32.836Z</time>
      </trkpt>
      <trkpt lat="46.9908" lon="8.82165">
        <ele>1219</ele>
        <time>2021-08-04T08:25:33.836Z</time>
      </trkpt>
      <trkpt lat="46.9908" lon="8.82163">
        <ele>1219</ele>
        <time>2021-08-04T08:25:34.837Z</time>
      </trkpt>
      <trkpt lat="46.9908" lon="8.82162">
        <ele>1219</ele>
        <time>2021-08-04T08:25:35.837Z</time>
      </trkpt>
      <trkpt lat="46.9908" lon="8.8216">
        <ele>1219</ele>
        <time>2021-08-04T08:25:36.837Z</time>
      </trkpt>
      <trkpt lat="46.9908" lon="8.82158">
        <ele>1219</ele>
        <time>2021-08-04T08:25:37.836Z</time>
      </trkpt>
      <trkpt lat="46.99079" lon="8.82156">
        <ele>1219</ele>
        <time>2021-08-04T08:25:38.837Z</time>
      </trkpt>
      <trkpt lat="46.99078" lon="8.82155">
        <ele>1218</ele>
        <time>2021-08-04T08:25:39.836Z</time>
      </trkpt>
      <trkpt lat="46.99078" lon="8.82154">
        <ele>1218</ele>
        <time>2021-08-04T08:25:40.837Z</time>
      </trkpt>
      <trkpt lat="46.99077" lon="8.82152">
        <ele>1217</ele>
        <time>2021-08-04T08:25:41.837Z</time>
      </trkpt>
      <trkpt lat="46.99076" lon="8.82151">
        <ele>1217</ele>
        <time>2021-08-04T08:25:42.837Z</time>
      </trkpt>
      <trkpt lat="46.99076" lon="8.8215">
        <ele>1216</ele>
        <time>2021-08-04T08:25:43.836Z</time>
      </trkpt>
      <trkpt lat="46.99075" lon="8.82148">
        <ele>1216</ele>
        <time>2021-08-04T08:25:44.837Z</time>
      </trkpt>
      <trkpt lat="46.99075" lon="8.82147">
        <ele>1216</ele>
        <time>2021-08-04T08:25:45.837Z</time>
      </trkpt>
      <trkpt lat="46.99074" lon="8.82145">
        <ele>1216</ele>
        <time>2021-08-04T08:25:46.836Z</time>
      </trkpt>
      <trkpt lat="46.99074" lon="8.82144">
        <ele>1216</ele>
        <time>2021-08-04T08:25:47.837Z</time>
      </trkpt>
      <trkpt lat="46.99074" lon="8.82143">
        <ele>1216</ele>
        <time>2021-08-04T08:25:48.836Z</time>
      </trkpt>
      <trkpt lat="46.99073" lon="8.82141">
        <ele>1216</ele>
        <time>2021-08-04T08:25:49.836Z</time>
      </trkpt>
      <trkpt lat="46.99074" lon="8.82139">
        <ele>1215</ele>
        <time>2021-08-04T08:25:50.837Z</time>
      </trkpt>
      <trkpt lat="46.99074" lon="8.82137">
        <ele>1215</ele>
        <time>2021-08-04T08:25:51.836Z</time>
      </trkpt>
      <trkpt lat="46.99075" lon="8.82135">
        <ele>1215</ele>
        <time>2021-08-04T08:25:52.836Z</time>
      </trkpt>
      <trkpt lat="46.99075" lon="8.82134">
        <ele>1215</ele>
        <time>2021-08-04T08:25:53.836Z</time>
      </trkpt>
      <trkpt lat="46.99076" lon="8.82132">
        <ele>1216</ele>
        <time>2021-08-04T08:25:54.836Z</time>
      </trkpt>
      <trkpt lat="46.99076" lon="8.82131">
        <ele>1215</ele>
        <time>2021-08-04T08:25:55.836Z</time>
      </trkpt>
      <trkpt lat="46.99077" lon="8.82129">
        <ele>1215</ele>
        <time>2021-08-04T08:25:56.836Z</time>
      </trkpt>
      <trkpt lat="46.99077" lon="8.82127">
        <ele>1215</ele>
        <time>2021-08-04T08:25:57.836Z</time>
      </trkpt>
      <trkpt lat="46.99077" lon="8.82125">
        <ele>1216</ele>
        <time>2021-08-04T08:25:58.837Z</time>
      </trkpt>
      <trkpt lat="46.99078" lon="8.82124">
        <ele>1216</ele>
        <time>2021-08-04T08:25:59.837Z</time>
      </trkpt>
      <trkpt lat="46.99078" lon="8.82122">
        <ele>1217</ele>
        <time>2021-08-04T08:26:00.836Z</time>
      </trkpt>
      <trkpt lat="46.99078" lon="8.8212">
        <ele>1218</ele>
        <time>2021-08-04T08:26:01.836Z</time>
      </trkpt>
      <trkpt lat="46.99077" lon="8.82119">
        <ele>1218</ele>
        <time>2021-08-04T08:26:02.836Z</time>
      </trkpt>
      <trkpt lat="46.99077" lon="8.82117">
        <ele>1218</ele>
        <time>2021-08-04T08:26:03.836Z</time>
      </trkpt>
      <trkpt lat="46.99076" lon="8.82116">
        <ele>1219</ele>
        <time>2021-08-04T08:26:04.836Z</time>
      </trkpt>
      <trkpt lat="46.99076" lon="8.82115">
        <ele>1220</ele>
        <time>2021-08-04T08:26:05.837Z</time>
      </trkpt>
      <trkpt lat="46.99075" lon="8.82113">
        <ele>1220</ele>
        <time>2021-08-04T08:26:06.836Z</time>
      </trkpt>
      <trkpt lat="46.99075" lon="8.82112">
        <ele>1220</ele>
        <time>2021-08-04T08:26:07.836Z</time>
      </trkpt>
      <trkpt lat="46.99076" lon="8.82111">
        <ele>1221</ele>
        <time>2021-08-04T08:26:08.837Z</time>
      </trkpt>
      <trkpt lat="46.99076" lon="8.8211">
        <ele>1221</ele>
        <time>2021-08-04T08:26:09.836Z</time>
      </trkpt>
      <trkpt lat="46.99077" lon="8.82108">
        <ele>1221</ele>
        <time>2021-08-04T08:26:10.836Z</time>
      </trkpt>
      <trkpt lat="46.99078" lon="8.82107">
        <ele>1221</ele>
        <time>2021-08-04T08:26:11.836Z</time>
      </trkpt>
      <trkpt lat="46.99078" lon="8.82106">
        <ele>1221</ele>
        <time>2021-08-04T08:26:12.836Z</time>
      </trkpt>
      <trkpt lat="46.99078" lon="8.82105">
        <ele>1221</ele>
        <time>2021-08-04T08:26:13.836Z</time>
      </trkpt>
      <trkpt lat="46.99078" lon="8.82103">
        <ele>1221</ele>
        <time>2021-08-04T08:26:14.836Z</time>
      </trkpt>
      <trkpt lat="46.99077" lon="8.82102">
        <ele>1221</ele>
        <time>2021-08-04T08:26:15.836Z</time>
      </trkpt>
      <trkpt lat="46.99077" lon="8.821">
        <ele>1221</ele>
        <time>2021-08-04T08:26:16.836Z</time>
      </trkpt>
      <trkpt lat="46.99076" lon="8.82099">
        <ele>1220</ele>
        <time>2021-08-04T08:26:17.836Z</time>
      </trkpt>
      <trkpt lat="46.99076" lon="8.82099">
        <ele>1220</ele>
        <time>2021-08-04T08:26:18.836Z</time>
      </trkpt>
      <trkpt lat="46.99075" lon="8.82098">
        <ele>1220</ele>
        <time>2021-08-04T08:26:19.836Z</time>
      </trkpt>
      <trkpt lat="46.99074" lon="8.82097">
        <ele>1220</ele>
        <time>2021-08-04T08:26:20.836Z</time>
      </trkpt>
      <trkpt lat="46.99074" lon="8.82096">
        <ele>1220</ele>
        <time>2021-08-04T08:26:21.836Z</time>
      </trkpt>
      <trkpt lat="46.99073" lon="8.82096">
        <ele>1219</ele>
        <time>2021-08-04T08:26:22.836Z</time>
      </trkpt>
      <trkpt lat="46.99072" lon="8.82095">
        <ele>1219</ele>
        <time>2021-08-04T08:26:23.836Z</time>
      </trkpt>
      <trkpt lat="46.99071" lon="8.82093">
        <ele>1219</ele>
        <time>2021-08-04T08:26:24.837Z</time>
      </trkpt>
      <trkpt lat="46.9907" lon="8.82092">
        <ele>1219</ele>
        <time>2021-08-04T08:26:25.837Z</time>
      </trkpt>
      <trkpt lat="46.9907" lon="8.82091">
        <ele>1219</ele>
        <time>2021-08-04T08:26:26.836Z</time>
      </trkpt>
      <trkpt lat="46.99069" lon="8.8209">
        <ele>1219</ele>
        <time>2021-08-04T08:26:27.836Z</time>
      </trkpt>
      <trkpt lat="46.99069" lon="8.82088">
        <ele>1218</ele>
        <time>2021-08-04T08:26:28.836Z</time>
      </trkpt>
      <trkpt lat="46.99069" lon="8.82087">
        <ele>1218</ele>
        <time>2021-08-04T08:26:29.837Z</time>
      </trkpt>
      <trkpt lat="46.99069" lon="8.82086">
        <ele>1218</ele>
        <time>2021-08-04T08:26:30.837Z</time>
      </trkpt>
      <trkpt lat="46.9907" lon="8.82084">
        <ele>1219</ele>
        <time>2021-08-04T08:26:31.836Z</time>
      </trkpt>
      <trkpt lat="46.9907" lon="8.82083">
        <ele>1219</ele>
        <time>2021-08-04T08:26:32.836Z</time>
      </trkpt>
      <trkpt lat="46.99071" lon="8.82082">
        <ele>1219</ele>
        <time>2021-08-04T08:26:33.836Z</time>
      </trkpt>
      <trkpt lat="46.99071" lon="8.8208">
        <ele>1219</ele>
        <time>2021-08-04T08:26:34.836Z</time>
      </trkpt>
      <trkpt lat="46.99072" lon="8.82079">
        <ele>1219</ele>
        <time>2021-08-04T08:26:35.837Z</time>
      </trkpt>
      <trkpt lat="46.99072" lon="8.82078">
        <ele>1219</ele>
        <time>2021-08-04T08:26:36.836Z</time>
      </trkpt>
      <trkpt lat="46.99073" lon="8.82077">
        <ele>1219</ele>
        <time>2021-08-04T08:26:37.836Z</time>
      </trkpt>
      <trkpt lat="46.99073" lon="8.82075">
        <ele>1219</ele>
        <time>2021-08-04T08:26:38.836Z</time>
      </trkpt>
      <trkpt lat="46.99074" lon="8.82074">
        <ele>1219</ele>
        <time>2021-08-04T08:26:39.837Z</time>
      </trkpt>
      <trkpt lat="46.99074" lon="8.82072">
        <ele>1219</ele>
        <time>2021-08-04T08:26:40.836Z</time>
      </trkpt>
      <trkpt lat="46.99074" lon="8.82072">
        <ele>1219</ele>
        <time>2021-08-04T08:26:41.836Z</time>
      </trkpt>
      <trkpt lat="46.99075" lon="8.82071">
        <ele>1219</ele>
        <time>2021-08-04T08:26:42.836Z</time>
      </trkpt>
      <trkpt lat="46.99075" lon="8.8207">
        <ele>1220</ele>
        <time>2021-08-04T08:26:43.836Z</time>
      </trkpt>
      <trkpt lat="46.99075" lon="8.82068">
        <ele>1220</ele>
        <time>2021-08-04T08:26:44.836Z</time>
      </trkpt>
      <trkpt lat="46.99075" lon="8.82067">
        <ele>1221</ele>
        <time>2021-08-04T08:26:45.836Z</time>
      </trkpt>
      <trkpt lat="46.99075" lon="8.82066">
        <ele>1221</ele>
        <time>2021-08-04T08:26:46.836Z</time>
      </trkpt>
      <trkpt lat="46.99075" lon="8.82065">
        <ele>1222</ele>
        <time>2021-08-04T08:26:47.836Z</time>
      </trkpt>
      <trkpt lat="46.99075" lon="8.82063">
        <ele>1222</ele>
        <time>2021-08-04T08:26:48.836Z</time>
      </trkpt>
      <trkpt lat="46.99075" lon="8.82062">
        <ele>1222</ele>
        <time>2021-08-04T08:26:49.836Z</time>
      </trkpt>
      <trkpt lat="46.99075" lon="8.8206">
        <ele>1223</ele>
        <time>2021-08-04T08:26:50.836Z</time>
      </trkpt>
      <trkpt lat="46.99075" lon="8.82058">
        <ele>1223</ele>
        <time>2021-08-04T08:26:51.836Z</time>
      </trkpt>
      <trkpt lat="46.99075" lon="8.82057">
        <ele>1223</ele>
        <time>2021-08-04T08:26:52.837Z</time>
      </trkpt>
      <trkpt lat="46.99075" lon="8.82056">
        <ele>1223</ele>
        <time>2021-08-04T08:26:53.837Z</time>
      </trkpt>
      <trkpt lat="46.99076" lon="8.82056">
        <ele>1223</ele>
        <time>2021-08-04T08:26:54.837Z</time>
      </trkpt>
      <trkpt lat="46.99076" lon="8.82055">
        <ele>1222</ele>
        <time>2021-08-04T08:26:55.836Z</time>
      </trkpt>
      <trkpt lat="46.99077" lon="8.82054">
        <ele>1222</ele>
        <time>2021-08-04T08:26:56.837Z</time>
      </trkpt>
      <trkpt lat="46.99077" lon="8.82054">
        <ele>1222</ele>
        <time>2021-08-04T08:26:57.837Z</time>
      </trkpt>
      <trkpt lat="46.99078" lon="8.82052">
        <ele>1222</ele>
        <time>2021-08-04T08:26:58.837Z</time>
      </trkpt>
      <trkpt lat="46.9908" lon="8.82051">
        <ele>1222</ele>
        <time>2021-08-04T08:26:59.836Z</time>
      </trkpt>
      <trkpt lat="46.99081" lon="8.8205">
        <ele>1222</ele>
        <time>2021-08-04T08:27:00.837Z</time>
      </trkpt>
      <trkpt lat="46.99081" lon="8.82049">
        <ele>1222</ele>
        <time>2021-08-04T08:27:01.836Z</time>
      </trkpt>
      <trkpt lat="46.99082" lon="8.82048">
        <ele>1222</ele>
        <time>2021-08-04T08:27:02.836Z</time>
      </trkpt>
      <trkpt lat="46.99083" lon="8.82047">
        <ele>1222</ele>
        <time>2021-08-04T08:27:03.837Z</time>
      </trkpt>
      <trkpt lat="46.99084" lon="8.82046">
        <ele>1222</ele>
        <time>2021-08-04T08:27:04.836Z</time>
      </trkpt>
      <trkpt lat="46.99085" lon="8.82045">
        <ele>1222</ele>
        <time>2021-08-04T08:27:05.836Z</time>
      </trkpt>
      <trkpt lat="46.99085" lon="8.82043">
        <ele>1222</ele>
        <time>2021-08-04T08:27:06.837Z</time>
      </trkpt>
      <trkpt lat="46.99086" lon="8.82042">
        <ele>1221</ele>
        <time>2021-08-04T08:27:07.837Z</time>
      </trkpt>
      <trkpt lat="46.99087" lon="8.8204">
        <ele>1221</ele>
        <time>2021-08-04T08:27:08.837Z</time>
      </trkpt>
      <trkpt lat="46.99087" lon="8.82039">
        <ele>1221</ele>
        <time>2021-08-04T08:27:09.836Z</time>
      </trkpt>
      <trkpt lat="46.99088" lon="8.82038">
        <ele>1221</ele>
        <time>2021-08-04T08:27:10.837Z</time>
      </trkpt>
      <trkpt lat="46.99088" lon="8.82037">
        <ele>1221</ele>
        <time>2021-08-04T08:27:11.836Z</time>
      </trkpt>
      <trkpt lat="46.99089" lon="8.82035">
        <ele>1221</ele>
        <time>2021-08-04T08:27:12.836Z</time>
      </trkpt>
      <trkpt lat="46.99089" lon="8.82034">
        <ele>1221</ele>
        <time>2021-08-04T08:27:13.837Z</time>
      </trkpt>
      <trkpt lat="46.9909" lon="8.82032">
        <ele>1221</ele>
        <time>2021-08-04T08:27:14.836Z</time>
      </trkpt>
      <trkpt lat="46.9909" lon="8.8203">
        <ele>1221</ele>
        <time>2021-08-04T08:27:15.836Z</time>
      </trkpt>
      <trkpt lat="46.99091" lon="8.82029">
        <ele>1222</ele>
        <time>2021-08-04T08:27:16.837Z</time>
      </trkpt>
      <trkpt lat="46.99092" lon="8.82028">
        <ele>1222</ele>
        <time>2021-08-04T08:27:17.837Z</time>
      </trkpt>
      <trkpt lat="46.99092" lon="8.82026">
        <ele>1223</ele>
        <time>2021-08-04T08:27:18.836Z</time>
      </trkpt>
      <trkpt lat="46.99093" lon="8.82024">
        <ele>1223</ele>
        <time>2021-08-04T08:27:19.836Z</time>
      </trkpt>
      <trkpt lat="46.99093" lon="8.82023">
        <ele>1224</ele>
        <time>2021-08-04T08:27:20.837Z</time>
      </trkpt>
      <trkpt lat="46.99094" lon="8.82021">
        <ele>1224</ele>
        <time>2021-08-04T08:27:21.837Z</time>
      </trkpt>
      <trkpt lat="46.99095" lon="8.8202">
        <ele>1224</ele>
        <time>2021-08-04T08:27:22.837Z</time>
      </trkpt>
      <trkpt lat="46.99095" lon="8.82018">
        <ele>1225</ele>
        <time>2021-08-04T08:27:23.837Z</time>
      </trkpt>
      <trkpt lat="46.99095" lon="8.82017">
        <ele>1225</ele>
        <time>2021-08-04T08:27:24.837Z</time>
      </trkpt>
      <trkpt lat="46.99096" lon="8.82015">
        <ele>1225</ele>
        <time>2021-08-04T08:27:25.836Z</time>
      </trkpt>
      <trkpt lat="46.99097" lon="8.82014">
        <ele>1224</ele>
        <time>2021-08-04T08:27:26.837Z</time>
      </trkpt>
      <trkpt lat="46.99098" lon="8.82012">
        <ele>1224</ele>
        <time>2021-08-04T08:27:27.837Z</time>
      </trkpt>
      <trkpt lat="46.99098" lon="8.82012">
        <ele>1224</ele>
        <time>2021-08-04T08:27:28.836Z</time>
      </trkpt>
      <trkpt lat="46.99099" lon="8.82011">
        <ele>1224</ele>
        <time>2021-08-04T08:27:29.837Z</time>
      </trkpt>
      <trkpt lat="46.99099" lon="8.8201">
        <ele>1223</ele>
        <time>2021-08-04T08:27:30.836Z</time>
      </trkpt>
      <trkpt lat="46.99098" lon="8.82008">
        <ele>1223</ele>
        <time>2021-08-04T08:27:31.837Z</time>
      </trkpt>
      <trkpt lat="46.99098" lon="8.82007">
        <ele>1223</ele>
        <time>2021-08-04T08:27:32.837Z</time>
      </trkpt>
      <trkpt lat="46.99099" lon="8.82006">
        <ele>1223</ele>
        <time>2021-08-04T08:27:33.836Z</time>
      </trkpt>
      <trkpt lat="46.991" lon="8.82005">
        <ele>1223</ele>
        <time>2021-08-04T08:27:34.837Z</time>
      </trkpt>
      <trkpt lat="46.991" lon="8.82004">
        <ele>1223</ele>
        <time>2021-08-04T08:27:35.837Z</time>
      </trkpt>
      <trkpt lat="46.991" lon="8.82001">
        <ele>1223</ele>
        <time>2021-08-04T08:27:36.837Z</time>
      </trkpt>
      <trkpt lat="46.991" lon="8.81999">
        <ele>1222</ele>
        <time>2021-08-04T08:27:37.836Z</time>
      </trkpt>
      <trkpt lat="46.99099" lon="8.81996">
        <ele>1222</ele>
        <time>2021-08-04T08:27:38.837Z</time>
      </trkpt>
      <trkpt lat="46.99099" lon="8.81994">
        <ele>1222</ele>
        <time>2021-08-04T08:27:39.837Z</time>
      </trkpt>
      <trkpt lat="46.99098" lon="8.81992">
        <ele>1221</ele>
        <time>2021-08-04T08:27:40.837Z</time>
      </trkpt>
      <trkpt lat="46.99098" lon="8.8199">
        <ele>1221</ele>
        <time>2021-08-04T08:27:41.837Z</time>
      </trkpt>
      <trkpt lat="46.99098" lon="8.81989">
        <ele>1221</ele>
        <time>2021-08-04T08:27:42.836Z</time>
      </trkpt>
      <trkpt lat="46.99098" lon="8.81987">
        <ele>1221</ele>
        <time>2021-08-04T08:27:43.837Z</time>
      </trkpt>
      <trkpt lat="46.99097" lon="8.81986">
        <ele>1221</ele>
        <time>2021-08-04T08:27:44.837Z</time>
      </trkpt>
      <trkpt lat="46.99097" lon="8.81984">
        <ele>1221</ele>
        <time>2021-08-04T08:27:45.837Z</time>
      </trkpt>
      <trkpt lat="46.99096" lon="8.81982">
        <ele>1221</ele>
        <time>2021-08-04T08:27:46.837Z</time>
      </trkpt>
      <trkpt lat="46.99096" lon="8.81981">
        <ele>1221</ele>
        <time>2021-08-04T08:27:47.837Z</time>
      </trkpt>
      <trkpt lat="46.99096" lon="8.81979">
        <ele>1221</ele>
        <time>2021-08-04T08:27:48.837Z</time>
      </trkpt>
      <trkpt lat="46.99096" lon="8.81977">
        <ele>1221</ele>
        <time>2021-08-04T08:27:49.837Z</time>
      </trkpt>
      <trkpt lat="46.99095" lon="8.81976">
        <ele>1220</ele>
        <time>2021-08-04T08:27:50.836Z</time>
      </trkpt>
      <trkpt lat="46.99094" lon="8.81974">
        <ele>1220</ele>
        <time>2021-08-04T08:27:51.836Z</time>
      </trkpt>
      <trkpt lat="46.99094" lon="8.81972">
        <ele>1220</ele>
        <time>2021-08-04T08:27:52.837Z</time>
      </trkpt>
      <trkpt lat="46.99093" lon="8.8197">
        <ele>1220</ele>
        <time>2021-08-04T08:27:53.837Z</time>
      </trkpt>
      <trkpt lat="46.99093" lon="8.81969">
        <ele>1220</ele>
        <time>2021-08-04T08:27:54.836Z</time>
      </trkpt>
      <trkpt lat="46.99092" lon="8.81969">
        <ele>1221</ele>
        <time>2021-08-04T08:27:55.837Z</time>
      </trkpt>
      <trkpt lat="46.99092" lon="8.81968">
        <ele>1221</ele>
        <time>2021-08-04T08:27:56.836Z</time>
      </trkpt>
      <trkpt lat="46.99091" lon="8.81967">
        <ele>1221</ele>
        <time>2021-08-04T08:27:57.837Z</time>
      </trkpt>
      <trkpt lat="46.99091" lon="8.81966">
        <ele>1221</ele>
        <time>2021-08-04T08:27:58.836Z</time>
      </trkpt>
      <trkpt lat="46.99092" lon="8.81965">
        <ele>1221</ele>
        <time>2021-08-04T08:27:59.837Z</time>
      </trkpt>
      <trkpt lat="46.99092" lon="8.81964">
        <ele>1221</ele>
        <time>2021-08-04T08:28:00.837Z</time>
      </trkpt>
      <trkpt lat="46.99091" lon="8.81962">
        <ele>1221</ele>
        <time>2021-08-04T08:28:01.837Z</time>
      </trkpt>
      <trkpt lat="46.99091" lon="8.8196">
        <ele>1221</ele>
        <time>2021-08-04T08:28:02.836Z</time>
      </trkpt>
      <trkpt lat="46.99091" lon="8.81958">
        <ele>1220</ele>
        <time>2021-08-04T08:28:03.836Z</time>
      </trkpt>
      <trkpt lat="46.99091" lon="8.81956">
        <ele>1220</ele>
        <time>2021-08-04T08:28:04.836Z</time>
      </trkpt>
      <trkpt lat="46.99091" lon="8.81954">
        <ele>1220</ele>
        <time>2021-08-04T08:28:05.836Z</time>
      </trkpt>
      <trkpt lat="46.99091" lon="8.81952">
        <ele>1219</ele>
        <time>2021-08-04T08:28:06.837Z</time>
      </trkpt>
      <trkpt lat="46.99091" lon="8.8195">
        <ele>1219</ele>
        <time>2021-08-04T08:28:07.837Z</time>
      </trkpt>
      <trkpt lat="46.99092" lon="8.81949">
        <ele>1219</ele>
        <time>2021-08-04T08:28:08.837Z</time>
      </trkpt>
      <trkpt lat="46.99092" lon="8.81948">
        <ele>1218</ele>
        <time>2021-08-04T08:28:09.836Z</time>
      </trkpt>
      <trkpt lat="46.99092" lon="8.81948">
        <ele>1218</ele>
        <time>2021-08-04T08:28:10.837Z</time>
      </trkpt>
      <trkpt lat="46.99092" lon="8.81949">
        <ele>1218</ele>
        <time>2021-08-04T08:28:11.836Z</time>
      </trkpt>
      <trkpt lat="46.99093" lon="8.8195">
        <ele>1218</ele>
        <time>2021-08-04T08:28:12.837Z</time>
      </trkpt>
      <trkpt lat="46.99093" lon="8.81949">
        <ele>1217</ele>
        <time>2021-08-04T08:28:13.837Z</time>
      </trkpt>
      <trkpt lat="46.99094" lon="8.81948">
        <ele>1217</ele>
        <time>2021-08-04T08:28:14.837Z</time>
      </trkpt>
      <trkpt lat="46.99095" lon="8.81947">
        <ele>1217</ele>
        <time>2021-08-04T08:28:15.836Z</time>
      </trkpt>
      <trkpt lat="46.99095" lon="8.81945">
        <ele>1217</ele>
        <time>2021-08-04T08:28:16.837Z</time>
      </trkpt>
      <trkpt lat="46.99095" lon="8.81944">
        <ele>1217</ele>
        <time>2021-08-04T08:28:17.837Z</time>
      </trkpt>
      <trkpt lat="46.99096" lon="8.81944">
        <ele>1217</ele>
        <time>2021-08-04T08:28:18.836Z</time>
      </trkpt>
      <trkpt lat="46.99096" lon="8.81943">
        <ele>1217</ele>
        <time>2021-08-04T08:28:19.837Z</time>
      </trkpt>
      <trkpt lat="46.99096" lon="8.81942">
        <ele>1217</ele>
        <time>2021-08-04T08:28:20.837Z</time>
      </trkpt>
      <trkpt lat="46.99096" lon="8.81941">
        <ele>1217</ele>
        <time>2021-08-04T08:28:21.837Z</time>
      </trkpt>
      <trkpt lat="46.99096" lon="8.8194">
        <ele>1217</ele>
        <time>2021-08-04T08:28:22.836Z</time>
      </trkpt>
      <trkpt lat="46.99097" lon="8.81938">
        <ele>1217</ele>
        <time>2021-08-04T08:28:23.837Z</time>
      </trkpt>
      <trkpt lat="46.99097" lon="8.81937">
        <ele>1217</ele>
        <time>2021-08-04T08:28:24.837Z</time>
      </trkpt>
      <trkpt lat="46.99098" lon="8.81936">
        <ele>1218</ele>
        <time>2021-08-04T08:28:25.837Z</time>
      </trkpt>
      <trkpt lat="46.99098" lon="8.81935">
        <ele>1218</ele>
        <time>2021-08-04T08:28:26.837Z</time>
      </trkpt>
      <trkpt lat="46.99098" lon="8.81934">
        <ele>1218</ele>
        <time>2021-08-04T08:28:27.836Z</time>
      </trkpt>
      <trkpt lat="46.99099" lon="8.81934">
        <ele>1218</ele>
        <time>2021-08-04T08:28:28.837Z</time>
      </trkpt>
      <trkpt lat="46.991" lon="8.81933">
        <ele>1219</ele>
        <time>2021-08-04T08:28:29.837Z</time>
      </trkpt>
      <trkpt lat="46.991" lon="8.81932">
        <ele>1219</ele>
        <time>2021-08-04T08:28:30.837Z</time>
      </trkpt>
      <trkpt lat="46.99101" lon="8.81931">
        <ele>1219</ele>
        <time>2021-08-04T08:28:31.837Z</time>
      </trkpt>
      <trkpt lat="46.99101" lon="8.8193">
        <ele>1219</ele>
        <time>2021-08-04T08:28:32.836Z</time>
      </trkpt>
      <trkpt lat="46.99102" lon="8.8193">
        <ele>1219</ele>
        <time>2021-08-04T08:28:33.836Z</time>
      </trkpt>
      <trkpt lat="46.99103" lon="8.81929">
        <ele>1220</ele>
        <time>2021-08-04T08:28:34.836Z</time>
      </trkpt>
      <trkpt lat="46.99104" lon="8.81928">
        <ele>1220</ele>
        <time>2021-08-04T08:28:35.836Z</time>
      </trkpt>
      <trkpt lat="46.99105" lon="8.81926">
        <ele>1220</ele>
        <time>2021-08-04T08:28:36.836Z</time>
      </trkpt>
      <trkpt lat="46.99105" lon="8.81925">
        <ele>1221</ele>
        <time>2021-08-04T08:28:37.837Z</time>
      </trkpt>
      <trkpt lat="46.99104" lon="8.81924">
        <ele>1221</ele>
        <time>2021-08-04T08:28:38.837Z</time>
      </trkpt>
      <trkpt lat="46.99103" lon="8.81922">
        <ele>1221</ele>
        <time>2021-08-04T08:28:39.837Z</time>
      </trkpt>
      <trkpt lat="46.99101" lon="8.81921">
        <ele>1221</ele>
        <time>2021-08-04T08:28:40.837Z</time>
      </trkpt>
      <trkpt lat="46.991" lon="8.8192">
        <ele>1221</ele>
        <time>2021-08-04T08:28:41.836Z</time>
      </trkpt>
      <trkpt lat="46.99099" lon="8.8192">
        <ele>1221</ele>
        <time>2021-08-04T08:28:42.837Z</time>
      </trkpt>
      <trkpt lat="46.99098" lon="8.81921">
        <ele>1221</ele>
        <time>2021-08-04T08:28:43.837Z</time>
      </trkpt>
      <trkpt lat="46.99098" lon="8.8192">
        <ele>1221</ele>
        <time>2021-08-04T08:28:44.837Z</time>
      </trkpt>
      <trkpt lat="46.99097" lon="8.8192">
        <ele>1221</ele>
        <time>2021-08-04T08:28:45.836Z</time>
      </trkpt>
      <trkpt lat="46.99096" lon="8.8192">
        <ele>1221</ele>
        <time>2021-08-04T08:28:46.837Z</time>
      </trkpt>
      <trkpt lat="46.99096" lon="8.81919">
        <ele>1221</ele>
        <time>2021-08-04T08:28:47.837Z</time>
      </trkpt>
      <trkpt lat="46.99095" lon="8.81919">
        <ele>1220</ele>
        <time>2021-08-04T08:28:48.837Z</time>
      </trkpt>
      <trkpt lat="46.99094" lon="8.8192">
        <ele>1220</ele>
        <time>2021-08-04T08:28:49.837Z</time>
      </trkpt>
      <trkpt lat="46.99094" lon="8.8192">
        <ele>1220</ele>
        <time>2021-08-04T08:28:50.837Z</time>
      </trkpt>
      <trkpt lat="46.99094" lon="8.81921">
        <ele>1220</ele>
        <time>2021-08-04T08:28:51.837Z</time>
      </trkpt>
      <trkpt lat="46.99094" lon="8.81922">
        <ele>1220</ele>
        <time>2021-08-04T08:28:52.836Z</time>
      </trkpt>
      <trkpt lat="46.99094" lon="8.81921">
        <ele>1220</ele>
        <time>2021-08-04T08:28:53.837Z</time>
      </trkpt>
      <trkpt lat="46.99094" lon="8.8192">
        <ele>1220</ele>
        <time>2021-08-04T08:28:54.836Z</time>
      </trkpt>
      <trkpt lat="46.99093" lon="8.81919">
        <ele>1220</ele>
        <time>2021-08-04T08:28:55.837Z</time>
      </trkpt>
      <trkpt lat="46.99093" lon="8.81918">
        <ele>1219</ele>
        <time>2021-08-04T08:28:56.837Z</time>
      </trkpt>
      <trkpt lat="46.99093" lon="8.81918">
        <ele>1219</ele>
        <time>2021-08-04T08:28:57.837Z</time>
      </trkpt>
      <trkpt lat="46.99096" lon="8.81918">
        <ele>1221</ele>
        <time>2021-08-04T08:28:58.836Z</time>
      </trkpt>
      <trkpt lat="46.99096" lon="8.81917">
        <ele>1222</ele>
        <time>2021-08-04T08:28:59.836Z</time>
      </trkpt>
      <trkpt lat="46.99095" lon="8.81917">
        <ele>1222</ele>
        <time>2021-08-04T08:29:00.837Z</time>
      </trkpt>
      <trkpt lat="46.99094" lon="8.81916">
        <ele>1222</ele>
        <time>2021-08-04T08:29:01.836Z</time>
      </trkpt>
      <trkpt lat="46.99094" lon="8.81914">
        <ele>1222</ele>
        <time>2021-08-04T08:29:02.837Z</time>
      </trkpt>
      <trkpt lat="46.99094" lon="8.81913">
        <ele>1222</ele>
        <time>2021-08-04T08:29:03.837Z</time>
      </trkpt>
      <trkpt lat="46.99094" lon="8.81912">
        <ele>1222</ele>
        <time>2021-08-04T08:29:04.836Z</time>
      </trkpt>
      <trkpt lat="46.99094" lon="8.81911">
        <ele>1222</ele>
        <time>2021-08-04T08:29:05.836Z</time>
      </trkpt>
      <trkpt lat="46.99094" lon="8.8191">
        <ele>1222</ele>
        <time>2021-08-04T08:29:06.837Z</time>
      </trkpt>
      <trkpt lat="46.99094" lon="8.8191">
        <ele>1222</ele>
        <time>2021-08-04T08:29:07.837Z</time>
      </trkpt>
      <trkpt lat="46.99094" lon="8.81908">
        <ele>1222</ele>
        <time>2021-08-04T08:29:08.836Z</time>
      </trkpt>
      <trkpt lat="46.99094" lon="8.81907">
        <ele>1222</ele>
        <time>2021-08-04T08:29:09.836Z</time>
      </trkpt>
      <trkpt lat="46.99094" lon="8.81906">
        <ele>1222</ele>
        <time>2021-08-04T08:29:10.836Z</time>
      </trkpt>
      <trkpt lat="46.99094" lon="8.81905">
        <ele>1222</ele>
        <time>2021-08-04T08:29:11.836Z</time>
      </trkpt>
      <trkpt lat="46.99095" lon="8.81904">
        <ele>1222</ele>
        <time>2021-08-04T08:29:12.836Z</time>
      </trkpt>
      <trkpt lat="46.99096" lon="8.81902">
        <ele>1221</ele>
        <time>2021-08-04T08:29:13.836Z</time>
      </trkpt>
      <trkpt lat="46.99096" lon="8.81901">
        <ele>1221</ele>
        <time>2021-08-04T08:29:14.836Z</time>
      </trkpt>
      <trkpt lat="46.99095" lon="8.819">
        <ele>1221</ele>
        <time>2021-08-04T08:29:15.837Z</time>
      </trkpt>
      <trkpt lat="46.99095" lon="8.81898">
        <ele>1221</ele>
        <time>2021-08-04T08:29:16.836Z</time>
      </trkpt>
      <trkpt lat="46.99095" lon="8.81897">
        <ele>1220</ele>
        <time>2021-08-04T08:29:17.836Z</time>
      </trkpt>
      <trkpt lat="46.99095" lon="8.81896">
        <ele>1220</ele>
        <time>2021-08-04T08:29:18.837Z</time>
      </trkpt>
      <trkpt lat="46.99096" lon="8.81896">
        <ele>1219</ele>
        <time>2021-08-04T08:29:19.836Z</time>
      </trkpt>
      <trkpt lat="46.99097" lon="8.81896">
        <ele>1218</ele>
        <time>2021-08-04T08:29:20.837Z</time>
      </trkpt>
      <trkpt lat="46.99098" lon="8.81895">
        <ele>1217</ele>
        <time>2021-08-04T08:29:21.836Z</time>
      </trkpt>
      <trkpt lat="46.99099" lon="8.81894">
        <ele>1216</ele>
        <time>2021-08-04T08:29:22.836Z</time>
      </trkpt>
      <trkpt lat="46.99099" lon="8.81893">
        <ele>1216</ele>
        <time>2021-08-04T08:29:23.836Z</time>
      </trkpt>
      <trkpt lat="46.99099" lon="8.81893">
        <ele>1215</ele>
        <time>2021-08-04T08:29:24.836Z</time>
      </trkpt>
      <trkpt lat="46.99099" lon="8.81891">
        <ele>1214</ele>
        <time>2021-08-04T08:29:25.836Z</time>
      </trkpt>
      <trkpt lat="46.99099" lon="8.8189">
        <ele>1214</ele>
        <time>2021-08-04T08:29:26.837Z</time>
      </trkpt>
      <trkpt lat="46.991" lon="8.81888">
        <ele>1213</ele>
        <time>2021-08-04T08:29:27.836Z</time>
      </trkpt>
      <trkpt lat="46.991" lon="8.81886">
        <ele>1212</ele>
        <time>2021-08-04T08:29:28.836Z</time>
      </trkpt>
      <trkpt lat="46.991" lon="8.81884">
        <ele>1211</ele>
        <time>2021-08-04T08:29:29.836Z</time>
      </trkpt>
      <trkpt lat="46.99101" lon="8.81884">
        <ele>1211</ele>
        <time>2021-08-04T08:29:30.836Z</time>
      </trkpt>
      <trkpt lat="46.99102" lon="8.81884">
        <ele>1210</ele>
        <time>2021-08-04T08:29:31.836Z</time>
      </trkpt>
      <trkpt lat="46.99103" lon="8.81885">
        <ele>1210</ele>
        <time>2021-08-04T08:29:32.836Z</time>
      </trkpt>
      <trkpt lat="46.99105" lon="8.81886">
        <ele>1209</ele>
        <time>2021-08-04T08:29:33.836Z</time>
      </trkpt>
      <trkpt lat="46.99106" lon="8.81886">
        <ele>1209</ele>
        <time>2021-08-04T08:29:34.836Z</time>
      </trkpt>
      <trkpt lat="46.99108" lon="8.81885">
        <ele>1208</ele>
        <time>2021-08-04T08:29:35.837Z</time>
      </trkpt>
      <trkpt lat="46.99109" lon="8.81884">
        <ele>1208</ele>
        <time>2021-08-04T08:29:36.837Z</time>
      </trkpt>
      <trkpt lat="46.99109" lon="8.81883">
        <ele>1208</ele>
        <time>2021-08-04T08:29:37.836Z</time>
      </trkpt>
      <trkpt lat="46.9911" lon="8.81882">
        <ele>1207</ele>
        <time>2021-08-04T08:29:38.836Z</time>
      </trkpt>
      <trkpt lat="46.9911" lon="8.8188">
        <ele>1207</ele>
        <time>2021-08-04T08:29:39.836Z</time>
      </trkpt>
      <trkpt lat="46.9911" lon="8.81878">
        <ele>1206</ele>
        <time>2021-08-04T08:29:40.837Z</time>
      </trkpt>
      <trkpt lat="46.9911" lon="8.81876">
        <ele>1206</ele>
        <time>2021-08-04T08:29:41.837Z</time>
      </trkpt>
      <trkpt lat="46.99111" lon="8.81874">
        <ele>1206</ele>
        <time>2021-08-04T08:29:42.836Z</time>
      </trkpt>
      <trkpt lat="46.99111" lon="8.81872">
        <ele>1205</ele>
        <time>2021-08-04T08:29:43.836Z</time>
      </trkpt>
      <trkpt lat="46.99112" lon="8.81871">
        <ele>1205</ele>
        <time>2021-08-04T08:29:44.836Z</time>
      </trkpt>
      <trkpt lat="46.99113" lon="8.81871">
        <ele>1205</ele>
        <time>2021-08-04T08:29:45.836Z</time>
      </trkpt>
      <trkpt lat="46.99113" lon="8.8187">
        <ele>1205</ele>
        <time>2021-08-04T08:29:46.836Z</time>
      </trkpt>
      <trkpt lat="46.99114" lon="8.81869">
        <ele>1205</ele>
        <time>2021-08-04T08:29:47.836Z</time>
      </trkpt>
      <trkpt lat="46.99115" lon="8.81868">
        <ele>1205</ele>
        <time>2021-08-04T08:29:48.836Z</time>
      </trkpt>
      <trkpt lat="46.99115" lon="8.81867">
        <ele>1205</ele>
        <time>2021-08-04T08:29:49.836Z</time>
      </trkpt>
      <trkpt lat="46.99116" lon="8.81866">
        <ele>1205</ele>
        <time>2021-08-04T08:29:50.836Z</time>
      </trkpt>
      <trkpt lat="46.99116" lon="8.81865">
        <ele>1205</ele>
        <time>2021-08-04T08:29:51.836Z</time>
      </trkpt>
      <trkpt lat="46.99116" lon="8.81865">
        <ele>1205</ele>
        <time>2021-08-04T08:29:52.836Z</time>
      </trkpt>
      <trkpt lat="46.99117" lon="8.81865">
        <ele>1205</ele>
        <time>2021-08-04T08:29:53.836Z</time>
      </trkpt>
      <trkpt lat="46.99118" lon="8.81864">
        <ele>1206</ele>
        <time>2021-08-04T08:29:54.837Z</time>
      </trkpt>
      <trkpt lat="46.99118" lon="8.81862">
        <ele>1206</ele>
        <time>2021-08-04T08:29:55.837Z</time>
      </trkpt>
      <trkpt lat="46.99118" lon="8.8186">
        <ele>1205</ele>
        <time>2021-08-04T08:29:56.836Z</time>
      </trkpt>
      <trkpt lat="46.99118" lon="8.81858">
        <ele>1205</ele>
        <time>2021-08-04T08:29:57.837Z</time>
      </trkpt>
      <trkpt lat="46.99119" lon="8.81857">
        <ele>1205</ele>
        <time>2021-08-04T08:29:58.836Z</time>
      </trkpt>
      <trkpt lat="46.99119" lon="8.81856">
        <ele>1205</ele>
        <time>2021-08-04T08:29:59.836Z</time>
      </trkpt>
      <trkpt lat="46.99119" lon="8.81856">
        <ele>1205</ele>
        <time>2021-08-04T08:30:00.836Z</time>
      </trkpt>
      <trkpt lat="46.99119" lon="8.81855">
        <ele>1205</ele>
        <time>2021-08-04T08:30:01.836Z</time>
      </trkpt>
      <trkpt lat="46.99119" lon="8.81854">
        <ele>1205</ele>
        <time>2021-08-04T08:30:02.837Z</time>
      </trkpt>
      <trkpt lat="46.9912" lon="8.81853">
        <ele>1204</ele>
        <time>2021-08-04T08:30:03.836Z</time>
      </trkpt>
      <trkpt lat="46.9912" lon="8.81853">
        <ele>1204</ele>
        <time>2021-08-04T08:30:04.837Z</time>
      </trkpt>
      <trkpt lat="46.9912" lon="8.81853">
        <ele>1204</ele>
        <time>2021-08-04T08:30:05.837Z</time>
      </trkpt>
      <trkpt lat="46.99121" lon="8.81852">
        <ele>1204</ele>
        <time>2021-08-04T08:30:06.837Z</time>
      </trkpt>
      <trkpt lat="46.99121" lon="8.81851">
        <ele>1204</ele>
        <time>2021-08-04T08:30:07.837Z</time>
      </trkpt>
      <trkpt lat="46.99122" lon="8.81851">
        <ele>1203</ele>
        <time>2021-08-04T08:30:08.836Z</time>
      </trkpt>
      <trkpt lat="46.99122" lon="8.81851">
        <ele>1203</ele>
        <time>2021-08-04T08:30:09.837Z</time>
      </trkpt>
      <trkpt lat="46.99123" lon="8.81851">
        <ele>1203</ele>
        <time>2021-08-04T08:30:10.837Z</time>
      </trkpt>
      <trkpt lat="46.99122" lon="8.81848">
        <ele>1203</ele>
        <time>2021-08-04T08:30:11.836Z</time>
      </trkpt>
      <trkpt lat="46.99122" lon="8.81845">
        <ele>1204</ele>
        <time>2021-08-04T08:30:12.837Z</time>
      </trkpt>
      <trkpt lat="46.99123" lon="8.81843">
        <ele>1204</ele>
        <time>2021-08-04T08:30:13.837Z</time>
      </trkpt>
      <trkpt lat="46.99123" lon="8.81841">
        <ele>1204</ele>
        <time>2021-08-04T08:30:14.836Z</time>
      </trkpt>
      <trkpt lat="46.99124" lon="8.8184">
        <ele>1205</ele>
        <time>2021-08-04T08:30:15.837Z</time>
      </trkpt>
      <trkpt lat="46.99125" lon="8.81838">
        <ele>1205</ele>
        <time>2021-08-04T08:30:16.837Z</time>
      </trkpt>
      <trkpt lat="46.99126" lon="8.81837">
        <ele>1205</ele>
        <time>2021-08-04T08:30:17.837Z</time>
      </trkpt>
      <trkpt lat="46.99128" lon="8.81836">
        <ele>1205</ele>
        <time>2021-08-04T08:30:18.836Z</time>
      </trkpt>
      <trkpt lat="46.99129" lon="8.81835">
        <ele>1204</ele>
        <time>2021-08-04T08:30:19.837Z</time>
      </trkpt>
      <trkpt lat="46.9913" lon="8.81834">
        <ele>1204</ele>
        <time>2021-08-04T08:30:20.837Z</time>
      </trkpt>
      <trkpt lat="46.99131" lon="8.81833">
        <ele>1204</ele>
        <time>2021-08-04T08:30:21.837Z</time>
      </trkpt>
      <trkpt lat="46.99132" lon="8.81832">
        <ele>1203</ele>
        <time>2021-08-04T08:30:22.836Z</time>
      </trkpt>
      <trkpt lat="46.99132" lon="8.81831">
        <ele>1203</ele>
        <time>2021-08-04T08:30:23.837Z</time>
      </trkpt>
      <trkpt lat="46.99133" lon="8.81829">
        <ele>1202</ele>
        <time>2021-08-04T08:30:24.837Z</time>
      </trkpt>
      <trkpt lat="46.99133" lon="8.81828">
        <ele>1202</ele>
        <time>2021-08-04T08:30:25.837Z</time>
      </trkpt>
      <trkpt lat="46.99134" lon="8.81827">
        <ele>1202</ele>
        <time>2021-08-04T08:30:26.836Z</time>
      </trkpt>
      <trkpt lat="46.99134" lon="8.81826">
        <ele>1201</ele>
        <time>2021-08-04T08:30:27.837Z</time>
      </trkpt>
      <trkpt lat="46.99134" lon="8.81824">
        <ele>1201</ele>
        <time>2021-08-04T08:30:28.837Z</time>
      </trkpt>
      <trkpt lat="46.99135" lon="8.81823">
        <ele>1201</ele>
        <time>2021-08-04T08:30:29.836Z</time>
      </trkpt>
      <trkpt lat="46.99136" lon="8.81821">
        <ele>1201</ele>
        <time>2021-08-04T08:30:30.837Z</time>
      </trkpt>
      <trkpt lat="46.99136" lon="8.81819">
        <ele>1201</ele>
        <time>2021-08-04T08:30:31.836Z</time>
      </trkpt>
      <trkpt lat="46.99137" lon="8.81818">
        <ele>1201</ele>
        <time>2021-08-04T08:30:32.836Z</time>
      </trkpt>
      <trkpt lat="46.99137" lon="8.81817">
        <ele>1201</ele>
        <time>2021-08-04T08:30:33.836Z</time>
      </trkpt>
      <trkpt lat="46.99137" lon="8.81815">
        <ele>1200</ele>
        <time>2021-08-04T08:30:34.836Z</time>
      </trkpt>
      <trkpt lat="46.99138" lon="8.81814">
        <ele>1200</ele>
        <time>2021-08-04T08:30:35.836Z</time>
      </trkpt>
      <trkpt lat="46.99138" lon="8.81813">
        <ele>1199</ele>
        <time>2021-08-04T08:30:36.836Z</time>
      </trkpt>
      <trkpt lat="46.99139" lon="8.81812">
        <ele>1199</ele>
        <time>2021-08-04T08:30:37.837Z</time>
      </trkpt>
      <trkpt lat="46.9914" lon="8.8181">
        <ele>1198</ele>
        <time>2021-08-04T08:30:38.836Z</time>
      </trkpt>
      <trkpt lat="46.9914" lon="8.81807">
        <ele>1198</ele>
        <time>2021-08-04T08:30:39.836Z</time>
      </trkpt>
      <trkpt lat="46.9914" lon="8.81804">
        <ele>1197</ele>
        <time>2021-08-04T08:30:40.836Z</time>
      </trkpt>
      <trkpt lat="46.9914" lon="8.81803">
        <ele>1197</ele>
        <time>2021-08-04T08:30:41.836Z</time>
      </trkpt>
      <trkpt lat="46.9914" lon="8.81801">
        <ele>1197</ele>
        <time>2021-08-04T08:30:42.836Z</time>
      </trkpt>
      <trkpt lat="46.9914" lon="8.818">
        <ele>1197</ele>
        <time>2021-08-04T08:30:43.836Z</time>
      </trkpt>
      <trkpt lat="46.99141" lon="8.81799">
        <ele>1197</ele>
        <time>2021-08-04T08:30:44.836Z</time>
      </trkpt>
      <trkpt lat="46.99141" lon="8.81798">
        <ele>1197</ele>
        <time>2021-08-04T08:30:45.837Z</time>
      </trkpt>
      <trkpt lat="46.99141" lon="8.81797">
        <ele>1197</ele>
        <time>2021-08-04T08:30:46.837Z</time>
      </trkpt>
      <trkpt lat="46.99141" lon="8.81796">
        <ele>1197</ele>
        <time>2021-08-04T08:30:47.836Z</time>
      </trkpt>
      <trkpt lat="46.99141" lon="8.81794">
        <ele>1197</ele>
        <time>2021-08-04T08:30:48.836Z</time>
      </trkpt>
      <trkpt lat="46.9914" lon="8.81791">
        <ele>1197</ele>
        <time>2021-08-04T08:30:49.836Z</time>
      </trkpt>
      <trkpt lat="46.99141" lon="8.81789">
        <ele>1197</ele>
        <time>2021-08-04T08:30:50.836Z</time>
      </trkpt>
      <trkpt lat="46.99141" lon="8.81787">
        <ele>1198</ele>
        <time>2021-08-04T08:30:51.836Z</time>
      </trkpt>
      <trkpt lat="46.99141" lon="8.81786">
        <ele>1198</ele>
        <time>2021-08-04T08:30:52.836Z</time>
      </trkpt>
      <trkpt lat="46.99141" lon="8.81785">
        <ele>1198</ele>
        <time>2021-08-04T08:30:53.837Z</time>
      </trkpt>
      <trkpt lat="46.99142" lon="8.81783">
        <ele>1199</ele>
        <time>2021-08-04T08:30:54.836Z</time>
      </trkpt>
      <trkpt lat="46.99142" lon="8.8178">
        <ele>1199</ele>
        <time>2021-08-04T08:30:55.836Z</time>
      </trkpt>
      <trkpt lat="46.99142" lon="8.81779">
        <ele>1200</ele>
        <time>2021-08-04T08:30:56.836Z</time>
      </trkpt>
      <trkpt lat="46.99143" lon="8.81777">
        <ele>1200</ele>
        <time>2021-08-04T08:30:57.836Z</time>
      </trkpt>
      <trkpt lat="46.99143" lon="8.81775">
        <ele>1200</ele>
        <time>2021-08-04T08:30:58.837Z</time>
      </trkpt>
      <trkpt lat="46.99144" lon="8.81773">
        <ele>1200</ele>
        <time>2021-08-04T08:30:59.836Z</time>
      </trkpt>
      <trkpt lat="46.99145" lon="8.81771">
        <ele>1200</ele>
        <time>2021-08-04T08:31:00.836Z</time>
      </trkpt>
      <trkpt lat="46.99146" lon="8.8177">
        <ele>1200</ele>
        <time>2021-08-04T08:31:01.837Z</time>
      </trkpt>
      <trkpt lat="46.99146" lon="8.81768">
        <ele>1200</ele>
        <time>2021-08-04T08:31:02.836Z</time>
      </trkpt>
      <trkpt lat="46.99146" lon="8.81767">
        <ele>1200</ele>
        <time>2021-08-04T08:31:03.837Z</time>
      </trkpt>
      <trkpt lat="46.99146" lon="8.81765">
        <ele>1200</ele>
        <time>2021-08-04T08:31:04.837Z</time>
      </trkpt>
      <trkpt lat="46.99146" lon="8.81764">
        <ele>1200</ele>
        <time>2021-08-04T08:31:05.837Z</time>
      </trkpt>
      <trkpt lat="46.99145" lon="8.81762">
        <ele>1201</ele>
        <time>2021-08-04T08:31:06.836Z</time>
      </trkpt>
      <trkpt lat="46.99144" lon="8.81761">
        <ele>1201</ele>
        <time>2021-08-04T08:31:07.837Z</time>
      </trkpt>
      <trkpt lat="46.99144" lon="8.81759">
        <ele>1200</ele>
        <time>2021-08-04T08:31:08.837Z</time>
      </trkpt>
      <trkpt lat="46.99144" lon="8.81756">
        <ele>1200</ele>
        <time>2021-08-04T08:31:09.837Z</time>
      </trkpt>
      <trkpt lat="46.99143" lon="8.81755">
        <ele>1199</ele>
        <time>2021-08-04T08:31:10.837Z</time>
      </trkpt>
      <trkpt lat="46.99143" lon="8.81754">
        <ele>1199</ele>
        <time>2021-08-04T08:31:11.837Z</time>
      </trkpt>
      <trkpt lat="46.99144" lon="8.81753">
        <ele>1198</ele>
        <time>2021-08-04T08:31:12.837Z</time>
      </trkpt>
      <trkpt lat="46.99145" lon="8.81752">
        <ele>1197</ele>
        <time>2021-08-04T08:31:13.837Z</time>
      </trkpt>
      <trkpt lat="46.99145" lon="8.81751">
        <ele>1197</ele>
        <time>2021-08-04T08:31:14.837Z</time>
      </trkpt>
      <trkpt lat="46.99144" lon="8.81749">
        <ele>1196</ele>
        <time>2021-08-04T08:31:15.837Z</time>
      </trkpt>
      <trkpt lat="46.99144" lon="8.81748">
        <ele>1195</ele>
        <time>2021-08-04T08:31:16.837Z</time>
      </trkpt>
      <trkpt lat="46.99144" lon="8.81747">
        <ele>1195</ele>
        <time>2021-08-04T08:31:17.837Z</time>
      </trkpt>
      <trkpt lat="46.99143" lon="8.81746">
        <ele>1195</ele>
        <time>2021-08-04T08:31:18.836Z</time>
      </trkpt>
      <trkpt lat="46.99143" lon="8.81744">
        <ele>1194</ele>
        <time>2021-08-04T08:31:19.837Z</time>
      </trkpt>
      <trkpt lat="46.99142" lon="8.81742">
        <ele>1193</ele>
        <time>2021-08-04T08:31:20.837Z</time>
      </trkpt>
      <trkpt lat="46.99142" lon="8.81742">
        <ele>1193</ele>
        <time>2021-08-04T08:31:21.837Z</time>
      </trkpt>
      <trkpt lat="46.99142" lon="8.8174">
        <ele>1192</ele>
        <time>2021-08-04T08:31:22.837Z</time>
      </trkpt>
      <trkpt lat="46.99142" lon="8.81739">
        <ele>1192</ele>
        <time>2021-08-04T08:31:23.836Z</time>
      </trkpt>
      <trkpt lat="46.99142" lon="8.81738">
        <ele>1191</ele>
        <time>2021-08-04T08:31:24.837Z</time>
      </trkpt>
      <trkpt lat="46.99142" lon="8.81737">
        <ele>1190</ele>
        <time>2021-08-04T08:31:25.836Z</time>
      </trkpt>
      <trkpt lat="46.99142" lon="8.81736">
        <ele>1190</ele>
        <time>2021-08-04T08:31:26.836Z</time>
      </trkpt>
      <trkpt lat="46.99142" lon="8.81735">
        <ele>1189</ele>
        <time>2021-08-04T08:31:27.837Z</time>
      </trkpt>
      <trkpt lat="46.99142" lon="8.81734">
        <ele>1189</ele>
        <time>2021-08-04T08:31:28.837Z</time>
      </trkpt>
      <trkpt lat="46.99142" lon="8.81734">
        <ele>1189</ele>
        <time>2021-08-04T08:31:29.836Z</time>
      </trkpt>
      <trkpt lat="46.99141" lon="8.81732">
        <ele>1188</ele>
        <time>2021-08-04T08:31:30.837Z</time>
      </trkpt>
      <trkpt lat="46.9914" lon="8.8173">
        <ele>1188</ele>
        <time>2021-08-04T08:31:31.836Z</time>
      </trkpt>
      <trkpt lat="46.99139" lon="8.81728">
        <ele>1188</ele>
        <time>2021-08-04T08:31:32.837Z</time>
      </trkpt>
      <trkpt lat="46.99138" lon="8.81727">
        <ele>1187</ele>
        <time>2021-08-04T08:31:33.836Z</time>
      </trkpt>
      <trkpt lat="46.99138" lon="8.81727">
        <ele>1187</ele>
        <time>2021-08-04T08:31:34.837Z</time>
      </trkpt>
      <trkpt lat="46.99137" lon="8.81727">
        <ele>1186</ele>
        <time>2021-08-04T08:31:35.837Z</time>
      </trkpt>
      <trkpt lat="46.99136" lon="8.81727">
        <ele>1186</ele>
        <time>2021-08-04T08:31:36.837Z</time>
      </trkpt>
      <trkpt lat="46.99135" lon="8.81728">
        <ele>1186</ele>
        <time>2021-08-04T08:31:37.837Z</time>
      </trkpt>
      <trkpt lat="46.99134" lon="8.81728">
        <ele>1185</ele>
        <time>2021-08-04T08:31:38.837Z</time>
      </trkpt>
      <trkpt lat="46.99133" lon="8.81728">
        <ele>1185</ele>
        <time>2021-08-04T08:31:39.837Z</time>
      </trkpt>
      <trkpt lat="46.99133" lon="8.81727">
        <ele>1185</ele>
        <time>2021-08-04T08:31:40.836Z</time>
      </trkpt>
      <trkpt lat="46.99132" lon="8.81727">
        <ele>1185</ele>
        <time>2021-08-04T08:31:41.837Z</time>
      </trkpt>
      <trkpt lat="46.99132" lon="8.81726">
        <ele>1184</ele>
        <time>2021-08-04T08:31:42.836Z</time>
      </trkpt>
      <trkpt lat="46.99132" lon="8.81725">
        <ele>1184</ele>
        <time>2021-08-04T08:31:43.836Z</time>
      </trkpt>
      <trkpt lat="46.99132" lon="8.81724">
        <ele>1184</ele>
        <time>2021-08-04T08:31:44.837Z</time>
      </trkpt>
      <trkpt lat="46.99132" lon="8.81723">
        <ele>1184</ele>
        <time>2021-08-04T08:31:45.836Z</time>
      </trkpt>
      <trkpt lat="46.99133" lon="8.81722">
        <ele>1184</ele>
        <time>2021-08-04T08:31:46.837Z</time>
      </trkpt>
      <trkpt lat="46.99133" lon="8.81722">
        <ele>1184</ele>
        <time>2021-08-04T08:31:47.837Z</time>
      </trkpt>
      <trkpt lat="46.99134" lon="8.81721">
        <ele>1184</ele>
        <time>2021-08-04T08:31:48.837Z</time>
      </trkpt>
      <trkpt lat="46.99135" lon="8.81721">
        <ele>1184</ele>
        <time>2021-08-04T08:31:49.837Z</time>
      </trkpt>
      <trkpt lat="46.99135" lon="8.8172">
        <ele>1184</ele>
        <time>2021-08-04T08:31:50.836Z</time>
      </trkpt>
      <trkpt lat="46.99135" lon="8.81719">
        <ele>1185</ele>
        <time>2021-08-04T08:31:51.837Z</time>
      </trkpt>
      <trkpt lat="46.99136" lon="8.81719">
        <ele>1185</ele>
        <time>2021-08-04T08:31:52.836Z</time>
      </trkpt>
      <trkpt lat="46.99137" lon="8.81719">
        <ele>1184</ele>
        <time>2021-08-04T08:31:53.837Z</time>
      </trkpt>
      <trkpt lat="46.99139" lon="8.8172">
        <ele>1184</ele>
        <time>2021-08-04T08:31:54.837Z</time>
      </trkpt>
      <trkpt lat="46.9914" lon="8.81719">
        <ele>1184</ele>
        <time>2021-08-04T08:31:55.836Z</time>
      </trkpt>
      <trkpt lat="46.99141" lon="8.81718">
        <ele>1184</ele>
        <time>2021-08-04T08:31:56.836Z</time>
      </trkpt>
      <trkpt lat="46.99143" lon="8.81718">
        <ele>1184</ele>
        <time>2021-08-04T08:31:57.836Z</time>
      </trkpt>
      <trkpt lat="46.99145" lon="8.81719">
        <ele>1184</ele>
        <time>2021-08-04T08:31:58.836Z</time>
      </trkpt>
      <trkpt lat="46.99146" lon="8.81719">
        <ele>1184</ele>
        <time>2021-08-04T08:31:59.836Z</time>
      </trkpt>
      <trkpt lat="46.99147" lon="8.81718">
        <ele>1184</ele>
        <time>2021-08-04T08:32:00.836Z</time>
      </trkpt>
      <trkpt lat="46.99148" lon="8.81718">
        <ele>1184</ele>
        <time>2021-08-04T08:32:01.836Z</time>
      </trkpt>
      <trkpt lat="46.99148" lon="8.81718">
        <ele>1184</ele>
        <time>2021-08-04T08:32:02.837Z</time>
      </trkpt>
      <trkpt lat="46.99149" lon="8.81717">
        <ele>1184</ele>
        <time>2021-08-04T08:32:03.837Z</time>
      </trkpt>
      <trkpt lat="46.9915" lon="8.81716">
        <ele>1184</ele>
        <time>2021-08-04T08:32:04.836Z</time>
      </trkpt>
      <trkpt lat="46.99151" lon="8.81716">
        <ele>1184</ele>
        <time>2021-08-04T08:32:05.836Z</time>
      </trkpt>
      <trkpt lat="46.99152" lon="8.81715">
        <ele>1184</ele>
        <time>2021-08-04T08:32:06.837Z</time>
      </trkpt>
      <trkpt lat="46.99153" lon="8.81715">
        <ele>1184</ele>
        <time>2021-08-04T08:32:07.837Z</time>
      </trkpt>
      <trkpt lat="46.99154" lon="8.81715">
        <ele>1184</ele>
        <time>2021-08-04T08:32:08.836Z</time>
      </trkpt>
      <trkpt lat="46.99154" lon="8.81714">
        <ele>1184</ele>
        <time>2021-08-04T08:32:09.837Z</time>
      </trkpt>
      <trkpt lat="46.99154" lon="8.81714">
        <ele>1184</ele>
        <time>2021-08-04T08:32:10.836Z</time>
      </trkpt>
      <trkpt lat="46.99155" lon="8.81714">
        <ele>1184</ele>
        <time>2021-08-04T08:32:11.837Z</time>
      </trkpt>
      <trkpt lat="46.99155" lon="8.81714">
        <ele>1184</ele>
        <time>2021-08-04T08:32:12.837Z</time>
      </trkpt>
      <trkpt lat="46.99155" lon="8.81715">
        <ele>1184</ele>
        <time>2021-08-04T08:32:13.836Z</time>
      </trkpt>
      <trkpt lat="46.99156" lon="8.81714">
        <ele>1184</ele>
        <time>2021-08-04T08:32:14.836Z</time>
      </trkpt>
      <trkpt lat="46.99157" lon="8.81713">
        <ele>1185</ele>
        <time>2021-08-04T08:32:15.836Z</time>
      </trkpt>
      <trkpt lat="46.99158" lon="8.81712">
        <ele>1185</ele>
        <time>2021-08-04T08:32:16.837Z</time>
      </trkpt>
      <trkpt lat="46.99159" lon="8.8171">
        <ele>1185</ele>
        <time>2021-08-04T08:32:17.836Z</time>
      </trkpt>
      <trkpt lat="46.99161" lon="8.81709">
        <ele>1185</ele>
        <time>2021-08-04T08:32:18.836Z</time>
      </trkpt>
      <trkpt lat="46.99162" lon="8.81708">
        <ele>1185</ele>
        <time>2021-08-04T08:32:19.836Z</time>
      </trkpt>
      <trkpt lat="46.99163" lon="8.81708">
        <ele>1186</ele>
        <time>2021-08-04T08:32:20.836Z</time>
      </trkpt>
      <trkpt lat="46.99164" lon="8.81709">
        <ele>1186</ele>
        <time>2021-08-04T08:32:21.836Z</time>
      </trkpt>
      <trkpt lat="46.99163" lon="8.81709">
        <ele>1186</ele>
        <time>2021-08-04T08:32:22.836Z</time>
      </trkpt>
      <trkpt lat="46.99162" lon="8.81709">
        <ele>1186</ele>
        <time>2021-08-04T08:32:23.837Z</time>
      </trkpt>
      <trkpt lat="46.99162" lon="8.81709">
        <ele>1187</ele>
        <time>2021-08-04T08:32:24.837Z</time>
      </trkpt>
      <trkpt lat="46.99163" lon="8.81709">
        <ele>1187</ele>
        <time>2021-08-04T08:32:25.836Z</time>
      </trkpt>
      <trkpt lat="46.99164" lon="8.8171">
        <ele>1187</ele>
        <time>2021-08-04T08:32:26.836Z</time>
      </trkpt>
      <trkpt lat="46.99166" lon="8.8171">
        <ele>1188</ele>
        <time>2021-08-04T08:32:27.836Z</time>
      </trkpt>
      <trkpt lat="46.99167" lon="8.8171">
        <ele>1188</ele>
        <time>2021-08-04T08:32:28.837Z</time>
      </trkpt>
      <trkpt lat="46.99168" lon="8.8171">
        <ele>1188</ele>
        <time>2021-08-04T08:32:29.837Z</time>
      </trkpt>
      <trkpt lat="46.99169" lon="8.8171">
        <ele>1187</ele>
        <time>2021-08-04T08:32:30.836Z</time>
      </trkpt>
      <trkpt lat="46.99169" lon="8.8171">
        <ele>1187</ele>
        <time>2021-08-04T08:32:31.836Z</time>
      </trkpt>
      <trkpt lat="46.9917" lon="8.81711">
        <ele>1186</ele>
        <time>2021-08-04T08:32:32.836Z</time>
      </trkpt>
      <trkpt lat="46.99171" lon="8.81711">
        <ele>1185</ele>
        <time>2021-08-04T08:32:33.836Z</time>
      </trkpt>
      <trkpt lat="46.99172" lon="8.81711">
        <ele>1184</ele>
        <time>2021-08-04T08:32:34.837Z</time>
      </trkpt>
      <trkpt lat="46.99172" lon="8.81711">
        <ele>1183</ele>
        <time>2021-08-04T08:32:35.836Z</time>
      </trkpt>
      <trkpt lat="46.99173" lon="8.81711">
        <ele>1183</ele>
        <time>2021-08-04T08:32:36.837Z</time>
      </trkpt>
      <trkpt lat="46.99175" lon="8.81713">
        <ele>1181</ele>
        <time>2021-08-04T08:32:37.838Z</time>
      </trkpt>
      <trkpt lat="46.99176" lon="8.81714">
        <ele>1181</ele>
        <time>2021-08-04T08:32:38.837Z</time>
      </trkpt>
      <trkpt lat="46.99177" lon="8.81714">
        <ele>1181</ele>
        <time>2021-08-04T08:32:39.837Z</time>
      </trkpt>
      <trkpt lat="46.99179" lon="8.81715">
        <ele>1181</ele>
        <time>2021-08-04T08:32:40.837Z</time>
      </trkpt>
      <trkpt lat="46.9918" lon="8.81716">
        <ele>1181</ele>
        <time>2021-08-04T08:32:41.837Z</time>
      </trkpt>
      <trkpt lat="46.99181" lon="8.81717">
        <ele>1181</ele>
        <time>2021-08-04T08:32:42.837Z</time>
      </trkpt>
      <trkpt lat="46.99183" lon="8.81718">
        <ele>1180</ele>
        <time>2021-08-04T08:32:43.838Z</time>
      </trkpt>
      <trkpt lat="46.99184" lon="8.81719">
        <ele>1180</ele>
        <time>2021-08-04T08:32:44.837Z</time>
      </trkpt>
      <trkpt lat="46.99185" lon="8.8172">
        <ele>1180</ele>
        <time>2021-08-04T08:32:45.837Z</time>
      </trkpt>
      <trkpt lat="46.99185" lon="8.81722">
        <ele>1180</ele>
        <time>2021-08-04T08:32:46.837Z</time>
      </trkpt>
      <trkpt lat="46.99187" lon="8.81723">
        <ele>1180</ele>
        <time>2021-08-04T08:32:47.837Z</time>
      </trkpt>
      <trkpt lat="46.99189" lon="8.81724">
        <ele>1179</ele>
        <time>2021-08-04T08:32:48.837Z</time>
      </trkpt>
      <trkpt lat="46.9919" lon="8.81725">
        <ele>1179</ele>
        <time>2021-08-04T08:32:49.837Z</time>
      </trkpt>
      <trkpt lat="46.99191" lon="8.81726">
        <ele>1178</ele>
        <time>2021-08-04T08:32:50.837Z</time>
      </trkpt>
      <trkpt lat="46.99192" lon="8.81726">
        <ele>1178</ele>
        <time>2021-08-04T08:32:51.837Z</time>
      </trkpt>
      <trkpt lat="46.99194" lon="8.81726">
        <ele>1178</ele>
        <time>2021-08-04T08:32:52.837Z</time>
      </trkpt>
      <trkpt lat="46.99195" lon="8.81726">
        <ele>1178</ele>
        <time>2021-08-04T08:32:53.837Z</time>
      </trkpt>
      <trkpt lat="46.99196" lon="8.81726">
        <ele>1179</ele>
        <time>2021-08-04T08:32:54.837Z</time>
      </trkpt>
      <trkpt lat="46.99195" lon="8.81725">
        <ele>1179</ele>
        <time>2021-08-04T08:32:55.837Z</time>
      </trkpt>
      <trkpt lat="46.99196" lon="8.81725">
        <ele>1179</ele>
        <time>2021-08-04T08:32:56.838Z</time>
      </trkpt>
      <trkpt lat="46.99196" lon="8.81724">
        <ele>1178</ele>
        <time>2021-08-04T08:32:57.837Z</time>
      </trkpt>
      <trkpt lat="46.99196" lon="8.81724">
        <ele>1178</ele>
        <time>2021-08-04T08:32:58.837Z</time>
      </trkpt>
      <trkpt lat="46.99199" lon="8.81724">
        <ele>1178</ele>
        <time>2021-08-04T08:32:59.838Z</time>
      </trkpt>
      <trkpt lat="46.992" lon="8.81723">
        <ele>1177</ele>
        <time>2021-08-04T08:33:00.837Z</time>
      </trkpt>
      <trkpt lat="46.992" lon="8.81721">
        <ele>1177</ele>
        <time>2021-08-04T08:33:01.838Z</time>
      </trkpt>
      <trkpt lat="46.99201" lon="8.81719">
        <ele>1176</ele>
        <time>2021-08-04T08:33:02.837Z</time>
      </trkpt>
      <trkpt lat="46.99202" lon="8.81718">
        <ele>1176</ele>
        <time>2021-08-04T08:33:03.837Z</time>
      </trkpt>
      <trkpt lat="46.99203" lon="8.81716">
        <ele>1175</ele>
        <time>2021-08-04T08:33:04.837Z</time>
      </trkpt>
      <trkpt lat="46.99204" lon="8.81715">
        <ele>1175</ele>
        <time>2021-08-04T08:33:05.837Z</time>
      </trkpt>
      <trkpt lat="46.99205" lon="8.81713">
        <ele>1174</ele>
        <time>2021-08-04T08:33:06.837Z</time>
      </trkpt>
      <trkpt lat="46.99206" lon="8.81712">
        <ele>1174</ele>
        <time>2021-08-04T08:33:07.838Z</time>
      </trkpt>
      <trkpt lat="46.99207" lon="8.8171">
        <ele>1173</ele>
        <time>2021-08-04T08:33:08.837Z</time>
      </trkpt>
      <trkpt lat="46.99208" lon="8.81709">
        <ele>1173</ele>
        <time>2021-08-04T08:33:09.838Z</time>
      </trkpt>
      <trkpt lat="46.99208" lon="8.81707">
        <ele>1172</ele>
        <time>2021-08-04T08:33:10.837Z</time>
      </trkpt>
      <trkpt lat="46.99208" lon="8.81706">
        <ele>1172</ele>
        <time>2021-08-04T08:33:11.837Z</time>
      </trkpt>
      <trkpt lat="46.99208" lon="8.81705">
        <ele>1171</ele>
        <time>2021-08-04T08:33:12.837Z</time>
      </trkpt>
      <trkpt lat="46.99209" lon="8.81704">
        <ele>1171</ele>
        <time>2021-08-04T08:33:13.837Z</time>
      </trkpt>
      <trkpt lat="46.99209" lon="8.81702">
        <ele>1171</ele>
        <time>2021-08-04T08:33:14.838Z</time>
      </trkpt>
      <trkpt lat="46.99209" lon="8.817">
        <ele>1171</ele>
        <time>2021-08-04T08:33:15.837Z</time>
      </trkpt>
      <trkpt lat="46.99209" lon="8.81699">
        <ele>1171</ele>
        <time>2021-08-04T08:33:16.837Z</time>
      </trkpt>
      <trkpt lat="46.99209" lon="8.81698">
        <ele>1171</ele>
        <time>2021-08-04T08:33:17.837Z</time>
      </trkpt>
      <trkpt lat="46.9921" lon="8.81698">
        <ele>1171</ele>
        <time>2021-08-04T08:33:18.837Z</time>
      </trkpt>
      <trkpt lat="46.9921" lon="8.81697">
        <ele>1171</ele>
        <time>2021-08-04T08:33:19.837Z</time>
      </trkpt>
      <trkpt lat="46.9921" lon="8.81697">
        <ele>1171</ele>
        <time>2021-08-04T08:33:20.837Z</time>
      </trkpt>
      <trkpt lat="46.99211" lon="8.81695">
        <ele>1171</ele>
        <time>2021-08-04T08:33:21.837Z</time>
      </trkpt>
      <trkpt lat="46.99212" lon="8.81694">
        <ele>1171</ele>
        <time>2021-08-04T08:33:22.837Z</time>
      </trkpt>
      <trkpt lat="46.99212" lon="8.81693">
        <ele>1170</ele>
        <time>2021-08-04T08:33:23.837Z</time>
      </trkpt>
      <trkpt lat="46.99213" lon="8.81691">
        <ele>1170</ele>
        <time>2021-08-04T08:33:24.837Z</time>
      </trkpt>
      <trkpt lat="46.99214" lon="8.8169">
        <ele>1170</ele>
        <time>2021-08-04T08:33:25.837Z</time>
      </trkpt>
      <trkpt lat="46.99214" lon="8.81689">
        <ele>1169</ele>
        <time>2021-08-04T08:33:26.837Z</time>
      </trkpt>
      <trkpt lat="46.99214" lon="8.81687">
        <ele>1169</ele>
        <time>2021-08-04T08:33:27.837Z</time>
      </trkpt>
      <trkpt lat="46.99214" lon="8.81685">
        <ele>1169</ele>
        <time>2021-08-04T08:33:28.838Z</time>
      </trkpt>
      <trkpt lat="46.99213" lon="8.81683">
        <ele>1169</ele>
        <time>2021-08-04T08:33:29.838Z</time>
      </trkpt>
      <trkpt lat="46.99212" lon="8.81681">
        <ele>1169</ele>
        <time>2021-08-04T08:33:30.837Z</time>
      </trkpt>
      <trkpt lat="46.99212" lon="8.8168">
        <ele>1169</ele>
        <time>2021-08-04T08:33:31.837Z</time>
      </trkpt>
      <trkpt lat="46.99212" lon="8.81679">
        <ele>1169</ele>
        <time>2021-08-04T08:33:32.838Z</time>
      </trkpt>
      <trkpt lat="46.99213" lon="8.81678">
        <ele>1169</ele>
        <time>2021-08-04T08:33:33.837Z</time>
      </trkpt>
      <trkpt lat="46.99212" lon="8.81677">
        <ele>1169</ele>
        <time>2021-08-04T08:33:34.837Z</time>
      </trkpt>
      <trkpt lat="46.99212" lon="8.81675">
        <ele>1169</ele>
        <time>2021-08-04T08:33:35.837Z</time>
      </trkpt>
      <trkpt lat="46.99211" lon="8.81674">
        <ele>1169</ele>
        <time>2021-08-04T08:33:36.838Z</time>
      </trkpt>
      <trkpt lat="46.99211" lon="8.81672">
        <ele>1168</ele>
        <time>2021-08-04T08:33:37.837Z</time>
      </trkpt>
      <trkpt lat="46.99211" lon="8.81671">
        <ele>1168</ele>
        <time>2021-08-04T08:33:38.837Z</time>
      </trkpt>
      <trkpt lat="46.99211" lon="8.81669">
        <ele>1168</ele>
        <time>2021-08-04T08:33:39.837Z</time>
      </trkpt>
      <trkpt lat="46.9921" lon="8.81668">
        <ele>1168</ele>
        <time>2021-08-04T08:33:40.837Z</time>
      </trkpt>
      <trkpt lat="46.9921" lon="8.81667">
        <ele>1168</ele>
        <time>2021-08-04T08:33:41.838Z</time>
      </trkpt>
      <trkpt lat="46.9921" lon="8.81665">
        <ele>1168</ele>
        <time>2021-08-04T08:33:42.837Z</time>
      </trkpt>
      <trkpt lat="46.99211" lon="8.81665">
        <ele>1167</ele>
        <time>2021-08-04T08:33:43.837Z</time>
      </trkpt>
      <trkpt lat="46.99211" lon="8.81664">
        <ele>1167</ele>
        <time>2021-08-04T08:33:44.837Z</time>
      </trkpt>
      <trkpt lat="46.99211" lon="8.81664">
        <ele>1167</ele>
        <time>2021-08-04T08:33:45.837Z</time>
      </trkpt>
      <trkpt lat="46.99211" lon="8.81663">
        <ele>1167</ele>
        <time>2021-08-04T08:33:46.837Z</time>
      </trkpt>
      <trkpt lat="46.99211" lon="8.81663">
        <ele>1167</ele>
        <time>2021-08-04T08:33:47.837Z</time>
      </trkpt>
      <trkpt lat="46.99211" lon="8.81663">
        <ele>1167</ele>
        <time>2021-08-04T08:33:48.837Z</time>
      </trkpt>
      <trkpt lat="46.99212" lon="8.81663">
        <ele>1168</ele>
        <time>2021-08-04T08:33:49.838Z</time>
      </trkpt>
      <trkpt lat="46.99209" lon="8.81664">
        <ele>1166</ele>
        <time>2021-08-04T08:33:50.839Z</time>
      </trkpt>
      <trkpt lat="46.99209" lon="8.81664">
        <ele>1165</ele>
        <time>2021-08-04T08:33:51.838Z</time>
      </trkpt>
      <trkpt lat="46.99208" lon="8.81664">
        <ele>1165</ele>
        <time>2021-08-04T08:33:52.838Z</time>
      </trkpt>
      <trkpt lat="46.99208" lon="8.81665">
        <ele>1164</ele>
        <time>2021-08-04T08:33:53.838Z</time>
      </trkpt>
      <trkpt lat="46.99207" lon="8.81666">
        <ele>1163</ele>
        <time>2021-08-04T08:33:54.839Z</time>
      </trkpt>
      <trkpt lat="46.99207" lon="8.81666">
        <ele>1162</ele>
        <time>2021-08-04T08:33:55.838Z</time>
      </trkpt>
      <trkpt lat="46.99206" lon="8.81666">
        <ele>1161</ele>
        <time>2021-08-04T08:33:56.838Z</time>
      </trkpt>
      <trkpt lat="46.99205" lon="8.81666">
        <ele>1161</ele>
        <time>2021-08-04T08:33:57.838Z</time>
      </trkpt>
      <trkpt lat="46.99204" lon="8.81666">
        <ele>1160</ele>
        <time>2021-08-04T08:33:58.838Z</time>
      </trkpt>
      <trkpt lat="46.99203" lon="8.81665">
        <ele>1160</ele>
        <time>2021-08-04T08:33:59.838Z</time>
      </trkpt>
      <trkpt lat="46.99203" lon="8.81664">
        <ele>1160</ele>
        <time>2021-08-04T08:34:00.839Z</time>
      </trkpt>
      <trkpt lat="46.99202" lon="8.81664">
        <ele>1160</ele>
        <time>2021-08-04T08:34:01.838Z</time>
      </trkpt>
      <trkpt lat="46.99202" lon="8.81663">
        <ele>1160</ele>
        <time>2021-08-04T08:34:02.838Z</time>
      </trkpt>
      <trkpt lat="46.99201" lon="8.81661">
        <ele>1160</ele>
        <time>2021-08-04T08:34:03.838Z</time>
      </trkpt>
      <trkpt lat="46.99201" lon="8.8166">
        <ele>1159</ele>
        <time>2021-08-04T08:34:04.838Z</time>
      </trkpt>
      <trkpt lat="46.992" lon="8.81659">
        <ele>1159</ele>
        <time>2021-08-04T08:34:05.838Z</time>
      </trkpt>
      <trkpt lat="46.992" lon="8.81658">
        <ele>1159</ele>
        <time>2021-08-04T08:34:06.838Z</time>
      </trkpt>
      <trkpt lat="46.99199" lon="8.81658">
        <ele>1159</ele>
        <time>2021-08-04T08:34:07.838Z</time>
      </trkpt>
      <trkpt lat="46.99199" lon="8.81658">
        <ele>1159</ele>
        <time>2021-08-04T08:34:08.839Z</time>
      </trkpt>
      <trkpt lat="46.99199" lon="8.81658">
        <ele>1158</ele>
        <time>2021-08-04T08:34:09.838Z</time>
      </trkpt>
      <trkpt lat="46.99198" lon="8.81658">
        <ele>1158</ele>
        <time>2021-08-04T08:34:10.839Z</time>
      </trkpt>
      <trkpt lat="46.99198" lon="8.81658">
        <ele>1158</ele>
        <time>2021-08-04T08:34:11.838Z</time>
      </trkpt>
      <trkpt lat="46.99198" lon="8.81657">
        <ele>1158</ele>
        <time>2021-08-04T08:34:12.838Z</time>
      </trkpt>
      <trkpt lat="46.99198" lon="8.81657">
        <ele>1158</ele>
        <time>2021-08-04T08:34:13.838Z</time>
      </trkpt>
      <trkpt lat="46.99198" lon="8.81656">
        <ele>1158</ele>
        <time>2021-08-04T08:34:14.839Z</time>
      </trkpt>
      <trkpt lat="46.99198" lon="8.81655">
        <ele>1158</ele>
        <time>2021-08-04T08:34:15.838Z</time>
      </trkpt>
      <trkpt lat="46.99198" lon="8.81653">
        <ele>1158</ele>
        <time>2021-08-04T08:34:16.838Z</time>
      </trkpt>
      <trkpt lat="46.99199" lon="8.81652">
        <ele>1159</ele>
        <time>2021-08-04T08:34:17.839Z</time>
      </trkpt>
      <trkpt lat="46.99199" lon="8.8165">
        <ele>1159</ele>
        <time>2021-08-04T08:34:18.838Z</time>
      </trkpt>
      <trkpt lat="46.99199" lon="8.81648">
        <ele>1159</ele>
        <time>2021-08-04T08:34:19.838Z</time>
      </trkpt>
      <trkpt lat="46.992" lon="8.81647">
        <ele>1160</ele>
        <time>2021-08-04T08:34:20.838Z</time>
      </trkpt>
      <trkpt lat="46.99199" lon="8.81646">
        <ele>1160</ele>
        <time>2021-08-04T08:34:21.838Z</time>
      </trkpt>
      <trkpt lat="46.99199" lon="8.81644">
        <ele>1161</ele>
        <time>2021-08-04T08:34:22.838Z</time>
      </trkpt>
      <trkpt lat="46.99197" lon="8.81643">
        <ele>1161</ele>
        <time>2021-08-04T08:34:23.838Z</time>
      </trkpt>
      <trkpt lat="46.99196" lon="8.81641">
        <ele>1161</ele>
        <time>2021-08-04T08:34:24.838Z</time>
      </trkpt>
      <trkpt lat="46.99195" lon="8.81641">
        <ele>1162</ele>
        <time>2021-08-04T08:34:25.838Z</time>
      </trkpt>
      <trkpt lat="46.99195" lon="8.8164">
        <ele>1162</ele>
        <time>2021-08-04T08:34:26.838Z</time>
      </trkpt>
      <trkpt lat="46.99194" lon="8.81639">
        <ele>1162</ele>
        <time>2021-08-04T08:34:27.838Z</time>
      </trkpt>
      <trkpt lat="46.99193" lon="8.81638">
        <ele>1162</ele>
        <time>2021-08-04T08:34:28.838Z</time>
      </trkpt>
      <trkpt lat="46.99192" lon="8.81637">
        <ele>1161</ele>
        <time>2021-08-04T08:34:29.838Z</time>
      </trkpt>
      <trkpt lat="46.99191" lon="8.81636">
        <ele>1161</ele>
        <time>2021-08-04T08:34:30.838Z</time>
      </trkpt>
      <trkpt lat="46.9919" lon="8.81636">
        <ele>1161</ele>
        <time>2021-08-04T08:34:31.838Z</time>
      </trkpt>
      <trkpt lat="46.99189" lon="8.81635">
        <ele>1161</ele>
        <time>2021-08-04T08:34:32.838Z</time>
      </trkpt>
      <trkpt lat="46.99188" lon="8.81634">
        <ele>1161</ele>
        <time>2021-08-04T08:34:33.838Z</time>
      </trkpt>
      <trkpt lat="46.99188" lon="8.81633">
        <ele>1161</ele>
        <time>2021-08-04T08:34:34.838Z</time>
      </trkpt>
      <trkpt lat="46.99188" lon="8.81632">
        <ele>1161</ele>
        <time>2021-08-04T08:34:35.838Z</time>
      </trkpt>
      <trkpt lat="46.99188" lon="8.81631">
        <ele>1161</ele>
        <time>2021-08-04T08:34:36.838Z</time>
      </trkpt>
      <trkpt lat="46.99188" lon="8.8163">
        <ele>1162</ele>
        <time>2021-08-04T08:34:37.839Z</time>
      </trkpt>
      <trkpt lat="46.99188" lon="8.81629">
        <ele>1162</ele>
        <time>2021-08-04T08:34:38.838Z</time>
      </trkpt>
      <trkpt lat="46.99188" lon="8.81629">
        <ele>1161</ele>
        <time>2021-08-04T08:34:39.838Z</time>
      </trkpt>
      <trkpt lat="46.99189" lon="8.81629">
        <ele>1160</ele>
        <time>2021-08-04T08:34:40.838Z</time>
      </trkpt>
      <trkpt lat="46.99189" lon="8.81628">
        <ele>1160</ele>
        <time>2021-08-04T08:34:41.839Z</time>
      </trkpt>
      <trkpt lat="46.99189" lon="8.81627">
        <ele>1159</ele>
        <time>2021-08-04T08:34:42.838Z</time>
      </trkpt>
      <trkpt lat="46.99189" lon="8.81627">
        <ele>1158</ele>
        <time>2021-08-04T08:34:43.838Z</time>
      </trkpt>
      <trkpt lat="46.99188" lon="8.81627">
        <ele>1158</ele>
        <time>2021-08-04T08:34:44.838Z</time>
      </trkpt>
      <trkpt lat="46.99188" lon="8.81628">
        <ele>1157</ele>
        <time>2021-08-04T08:34:45.839Z</time>
      </trkpt>
      <trkpt lat="46.99187" lon="8.81628">
        <ele>1156</ele>
        <time>2021-08-04T08:34:46.838Z</time>
      </trkpt>
      <trkpt lat="46.99188" lon="8.81628">
        <ele>1156</ele>
        <time>2021-08-04T08:34:47.838Z</time>
      </trkpt>
      <trkpt lat="46.99188" lon="8.81628">
        <ele>1156</ele>
        <time>2021-08-04T08:34:48.838Z</time>
      </trkpt>
      <trkpt lat="46.99189" lon="8.81627">
        <ele>1155</ele>
        <time>2021-08-04T08:34:49.838Z</time>
      </trkpt>
      <trkpt lat="46.99189" lon="8.81627">
        <ele>1156</ele>
        <time>2021-08-04T08:34:50.838Z</time>
      </trkpt>
      <trkpt lat="46.99189" lon="8.81627">
        <ele>1156</ele>
        <time>2021-08-04T08:34:51.838Z</time>
      </trkpt>
      <trkpt lat="46.99189" lon="8.81627">
        <ele>1156</ele>
        <time>2021-08-04T08:34:52.838Z</time>
      </trkpt>
      <trkpt lat="46.99192" lon="8.81628">
        <ele>1157</ele>
        <time>2021-08-04T08:34:53.839Z</time>
      </trkpt>
      <trkpt lat="46.99192" lon="8.81629">
        <ele>1157</ele>
        <time>2021-08-04T08:34:54.838Z</time>
      </trkpt>
      <trkpt lat="46.99193" lon="8.81629">
        <ele>1157</ele>
        <time>2021-08-04T08:34:55.839Z</time>
      </trkpt>
      <trkpt lat="46.99193" lon="8.81629">
        <ele>1157</ele>
        <time>2021-08-04T08:34:56.839Z</time>
      </trkpt>
      <trkpt lat="46.99193" lon="8.81629">
        <ele>1157</ele>
        <time>2021-08-04T08:34:57.839Z</time>
      </trkpt>
      <trkpt lat="46.99194" lon="8.8163">
        <ele>1157</ele>
        <time>2021-08-04T08:34:58.839Z</time>
      </trkpt>
      <trkpt lat="46.99195" lon="8.8163">
        <ele>1157</ele>
        <time>2021-08-04T08:34:59.839Z</time>
      </trkpt>
      <trkpt lat="46.99196" lon="8.8163">
        <ele>1157</ele>
        <time>2021-08-04T08:35:00.839Z</time>
      </trkpt>
      <trkpt lat="46.99197" lon="8.8163">
        <ele>1157</ele>
        <time>2021-08-04T08:35:01.839Z</time>
      </trkpt>
      <trkpt lat="46.99198" lon="8.8163">
        <ele>1157</ele>
        <time>2021-08-04T08:35:02.839Z</time>
      </trkpt>
      <trkpt lat="46.99198" lon="8.8163">
        <ele>1157</ele>
        <time>2021-08-04T08:35:03.839Z</time>
      </trkpt>
      <trkpt lat="46.99199" lon="8.81629">
        <ele>1157</ele>
        <time>2021-08-04T08:35:04.839Z</time>
      </trkpt>
      <trkpt lat="46.992" lon="8.8163">
        <ele>1157</ele>
        <time>2021-08-04T08:35:05.839Z</time>
      </trkpt>
      <trkpt lat="46.992" lon="8.8163">
        <ele>1157</ele>
        <time>2021-08-04T08:35:06.839Z</time>
      </trkpt>
      <trkpt lat="46.992" lon="8.81631">
        <ele>1157</ele>
        <time>2021-08-04T08:35:07.838Z</time>
      </trkpt>
      <trkpt lat="46.99199" lon="8.81632">
        <ele>1155</ele>
        <time>2021-08-04T08:35:08.840Z</time>
      </trkpt>
      <trkpt lat="46.99199" lon="8.81632">
        <ele>1154</ele>
        <time>2021-08-04T08:35:09.839Z</time>
      </trkpt>
      <trkpt lat="46.99202" lon="8.81629">
        <ele>1145</ele>
        <time>2021-08-04T08:35:10.839Z</time>
      </trkpt>
      <trkpt lat="46.99202" lon="8.81629">
        <ele>1145</ele>
        <time>2021-08-04T08:35:11.839Z</time>
      </trkpt>
      <trkpt lat="46.99199" lon="8.81627">
        <ele>1147</ele>
        <time>2021-08-04T08:35:12.841Z</time>
      </trkpt>
      <trkpt lat="46.99199" lon="8.81626">
        <ele>1147</ele>
        <time>2021-08-04T08:35:13.841Z</time>
      </trkpt>
      <trkpt lat="46.992" lon="8.81626">
        <ele>1147</ele>
        <time>2021-08-04T08:35:14.841Z</time>
      </trkpt>
      <trkpt lat="46.992" lon="8.81626">
        <ele>1147</ele>
        <time>2021-08-04T08:35:15.840Z</time>
      </trkpt>
      <trkpt lat="46.992" lon="8.81625">
        <ele>1147</ele>
        <time>2021-08-04T08:35:16.840Z</time>
      </trkpt>
      <trkpt lat="46.992" lon="8.81624">
        <ele>1147</ele>
        <time>2021-08-04T08:35:17.840Z</time>
      </trkpt>
      <trkpt lat="46.992" lon="8.81623">
        <ele>1147</ele>
        <time>2021-08-04T08:35:18.841Z</time>
      </trkpt>
      <trkpt lat="46.992" lon="8.81623">
        <ele>1148</ele>
        <time>2021-08-04T08:35:19.841Z</time>
      </trkpt>
      <trkpt lat="46.99201" lon="8.81622">
        <ele>1153</ele>
        <time>2021-08-04T08:35:20.842Z</time>
      </trkpt>
      <trkpt lat="46.99202" lon="8.81621">
        <ele>1155</ele>
        <time>2021-08-04T08:35:21.842Z</time>
      </trkpt>
      <trkpt lat="46.99202" lon="8.8162">
        <ele>1155</ele>
        <time>2021-08-04T08:35:22.842Z</time>
      </trkpt>
      <trkpt lat="46.99203" lon="8.81619">
        <ele>1156</ele>
        <time>2021-08-04T08:35:23.842Z</time>
      </trkpt>
      <trkpt lat="46.99203" lon="8.81618">
        <ele>1157</ele>
        <time>2021-08-04T08:35:24.842Z</time>
      </trkpt>
      <trkpt lat="46.99203" lon="8.81618">
        <ele>1157</ele>
        <time>2021-08-04T08:35:25.842Z</time>
      </trkpt>
      <trkpt lat="46.99203" lon="8.81618">
        <ele>1158</ele>
        <time>2021-08-04T08:35:26.842Z</time>
      </trkpt>
      <trkpt lat="46.99202" lon="8.81618">
        <ele>1158</ele>
        <time>2021-08-04T08:35:27.842Z</time>
      </trkpt>
      <trkpt lat="46.99203" lon="8.81618">
        <ele>1158</ele>
        <time>2021-08-04T08:35:28.842Z</time>
      </trkpt>
      <trkpt lat="46.99203" lon="8.81618">
        <ele>1158</ele>
        <time>2021-08-04T08:35:29.842Z</time>
      </trkpt>
      <trkpt lat="46.99204" lon="8.81619">
        <ele>1151</ele>
        <time>2021-08-04T08:35:30.842Z</time>
      </trkpt>
      <trkpt lat="46.99204" lon="8.81618">
        <ele>1151</ele>
        <time>2021-08-04T08:35:31.843Z</time>
      </trkpt>
      <trkpt lat="46.99204" lon="8.81617">
        <ele>1151</ele>
        <time>2021-08-04T08:35:32.843Z</time>
      </trkpt>
      <trkpt lat="46.99205" lon="8.81617">
        <ele>1151</ele>
        <time>2021-08-04T08:35:33.842Z</time>
      </trkpt>
      <trkpt lat="46.99205" lon="8.81616">
        <ele>1150</ele>
        <time>2021-08-04T08:35:34.843Z</time>
      </trkpt>
      <trkpt lat="46.99205" lon="8.81616">
        <ele>1150</ele>
        <time>2021-08-04T08:35:35.843Z</time>
      </trkpt>
      <trkpt lat="46.99205" lon="8.81616">
        <ele>1150</ele>
        <time>2021-08-04T08:35:36.842Z</time>
      </trkpt>
      <trkpt lat="46.99206" lon="8.81616">
        <ele>1149</ele>
        <time>2021-08-04T08:35:37.843Z</time>
      </trkpt>
      <trkpt lat="46.99206" lon="8.81616">
        <ele>1149</ele>
        <time>2021-08-04T08:35:38.843Z</time>
      </trkpt>
      <trkpt lat="46.99206" lon="8.81616">
        <ele>1148</ele>
        <time>2021-08-04T08:35:39.842Z</time>
      </trkpt>
      <trkpt lat="46.99207" lon="8.81616">
        <ele>1148</ele>
        <time>2021-08-04T08:35:40.842Z</time>
      </trkpt>
      <trkpt lat="46.99207" lon="8.81615">
        <ele>1148</ele>
        <time>2021-08-04T08:35:41.843Z</time>
      </trkpt>
      <trkpt lat="46.99207" lon="8.81615">
        <ele>1148</ele>
        <time>2021-08-04T08:35:42.843Z</time>
      </trkpt>
      <trkpt lat="46.99208" lon="8.81614">
        <ele>1148</ele>
        <time>2021-08-04T08:35:43.843Z</time>
      </trkpt>
      <trkpt lat="46.99208" lon="8.81613">
        <ele>1149</ele>
        <time>2021-08-04T08:35:44.843Z</time>
      </trkpt>
      <trkpt lat="46.99208" lon="8.81611">
        <ele>1149</ele>
        <time>2021-08-04T08:35:45.843Z</time>
      </trkpt>
      <trkpt lat="46.99208" lon="8.81609">
        <ele>1150</ele>
        <time>2021-08-04T08:35:46.843Z</time>
      </trkpt>
      <trkpt lat="46.99208" lon="8.81608">
        <ele>1150</ele>
        <time>2021-08-04T08:35:47.842Z</time>
      </trkpt>
      <trkpt lat="46.99208" lon="8.81606">
        <ele>1151</ele>
        <time>2021-08-04T08:35:48.843Z</time>
      </trkpt>
      <trkpt lat="46.99208" lon="8.81605">
        <ele>1152</ele>
        <time>2021-08-04T08:35:49.842Z</time>
      </trkpt>
      <trkpt lat="46.99208" lon="8.81603">
        <ele>1152</ele>
        <time>2021-08-04T08:35:50.843Z</time>
      </trkpt>
      <trkpt lat="46.99208" lon="8.81602">
        <ele>1152</ele>
        <time>2021-08-04T08:35:51.843Z</time>
      </trkpt>
      <trkpt lat="46.99208" lon="8.81601">
        <ele>1152</ele>
        <time>2021-08-04T08:35:52.843Z</time>
      </trkpt>
      <trkpt lat="46.99208" lon="8.816">
        <ele>1152</ele>
        <time>2021-08-04T08:35:53.842Z</time>
      </trkpt>
      <trkpt lat="46.99208" lon="8.81599">
        <ele>1152</ele>
        <time>2021-08-04T08:35:54.842Z</time>
      </trkpt>
      <trkpt lat="46.99208" lon="8.81599">
        <ele>1152</ele>
        <time>2021-08-04T08:35:55.843Z</time>
      </trkpt>
      <trkpt lat="46.99208" lon="8.81598">
        <ele>1151</ele>
        <time>2021-08-04T08:35:56.842Z</time>
      </trkpt>
      <trkpt lat="46.99208" lon="8.81597">
        <ele>1151</ele>
        <time>2021-08-04T08:35:57.843Z</time>
      </trkpt>
      <trkpt lat="46.99209" lon="8.81596">
        <ele>1151</ele>
        <time>2021-08-04T08:35:58.843Z</time>
      </trkpt>
      <trkpt lat="46.99209" lon="8.81594">
        <ele>1150</ele>
        <time>2021-08-04T08:35:59.842Z</time>
      </trkpt>
      <trkpt lat="46.99208" lon="8.81593">
        <ele>1150</ele>
        <time>2021-08-04T08:36:00.843Z</time>
      </trkpt>
      <trkpt lat="46.99208" lon="8.81592">
        <ele>1149</ele>
        <time>2021-08-04T08:36:01.842Z</time>
      </trkpt>
      <trkpt lat="46.99209" lon="8.81591">
        <ele>1148</ele>
        <time>2021-08-04T08:36:02.843Z</time>
      </trkpt>
      <trkpt lat="46.99209" lon="8.8159">
        <ele>1148</ele>
        <time>2021-08-04T08:36:03.843Z</time>
      </trkpt>
      <trkpt lat="46.99209" lon="8.81588">
        <ele>1147</ele>
        <time>2021-08-04T08:36:04.843Z</time>
      </trkpt>
      <trkpt lat="46.99209" lon="8.81587">
        <ele>1147</ele>
        <time>2021-08-04T08:36:05.842Z</time>
      </trkpt>
      <trkpt lat="46.99209" lon="8.81585">
        <ele>1148</ele>
        <time>2021-08-04T08:36:06.843Z</time>
      </trkpt>
      <trkpt lat="46.99209" lon="8.81583">
        <ele>1148</ele>
        <time>2021-08-04T08:36:07.842Z</time>
      </trkpt>
      <trkpt lat="46.99209" lon="8.81581">
        <ele>1149</ele>
        <time>2021-08-04T08:36:08.843Z</time>
      </trkpt>
      <trkpt lat="46.99208" lon="8.8158">
        <ele>1149</ele>
        <time>2021-08-04T08:36:09.843Z</time>
      </trkpt>
      <trkpt lat="46.99208" lon="8.81579">
        <ele>1149</ele>
        <time>2021-08-04T08:36:10.843Z</time>
      </trkpt>
      <trkpt lat="46.99208" lon="8.81578">
        <ele>1149</ele>
        <time>2021-08-04T08:36:11.843Z</time>
      </trkpt>
      <trkpt lat="46.99207" lon="8.81577">
        <ele>1149</ele>
        <time>2021-08-04T08:36:12.842Z</time>
      </trkpt>
      <trkpt lat="46.99207" lon="8.81576">
        <ele>1149</ele>
        <time>2021-08-04T08:36:13.842Z</time>
      </trkpt>
      <trkpt lat="46.99206" lon="8.81575">
        <ele>1149</ele>
        <time>2021-08-04T08:36:14.842Z</time>
      </trkpt>
      <trkpt lat="46.99206" lon="8.81573">
        <ele>1149</ele>
        <time>2021-08-04T08:36:15.843Z</time>
      </trkpt>
      <trkpt lat="46.99206" lon="8.81572">
        <ele>1149</ele>
        <time>2021-08-04T08:36:16.843Z</time>
      </trkpt>
      <trkpt lat="46.99206" lon="8.81571">
        <ele>1149</ele>
        <time>2021-08-04T08:36:17.842Z</time>
      </trkpt>
      <trkpt lat="46.99205" lon="8.8157">
        <ele>1149</ele>
        <time>2021-08-04T08:36:18.843Z</time>
      </trkpt>
      <trkpt lat="46.99205" lon="8.81569">
        <ele>1149</ele>
        <time>2021-08-04T08:36:19.842Z</time>
      </trkpt>
      <trkpt lat="46.99205" lon="8.81568">
        <ele>1149</ele>
        <time>2021-08-04T08:36:20.843Z</time>
      </trkpt>
      <trkpt lat="46.99205" lon="8.81567">
        <ele>1149</ele>
        <time>2021-08-04T08:36:21.843Z</time>
      </trkpt>
      <trkpt lat="46.99205" lon="8.81566">
        <ele>1149</ele>
        <time>2021-08-04T08:36:22.842Z</time>
      </trkpt>
      <trkpt lat="46.99205" lon="8.81564">
        <ele>1149</ele>
        <time>2021-08-04T08:36:23.843Z</time>
      </trkpt>
      <trkpt lat="46.99205" lon="8.81563">
        <ele>1149</ele>
        <time>2021-08-04T08:36:24.843Z</time>
      </trkpt>
      <trkpt lat="46.99205" lon="8.81562">
        <ele>1149</ele>
        <time>2021-08-04T08:36:25.842Z</time>
      </trkpt>
      <trkpt lat="46.99205" lon="8.8156">
        <ele>1149</ele>
        <time>2021-08-04T08:36:26.843Z</time>
      </trkpt>
      <trkpt lat="46.99204" lon="8.81558">
        <ele>1149</ele>
        <time>2021-08-04T08:36:27.843Z</time>
      </trkpt>
      <trkpt lat="46.99204" lon="8.81556">
        <ele>1149</ele>
        <time>2021-08-04T08:36:28.843Z</time>
      </trkpt>
      <trkpt lat="46.99204" lon="8.81555">
        <ele>1149</ele>
        <time>2021-08-04T08:36:29.843Z</time>
      </trkpt>
      <trkpt lat="46.99204" lon="8.81554">
        <ele>1149</ele>
        <time>2021-08-04T08:36:30.842Z</time>
      </trkpt>
      <trkpt lat="46.99205" lon="8.81552">
        <ele>1149</ele>
        <time>2021-08-04T08:36:31.843Z</time>
      </trkpt>
      <trkpt lat="46.99205" lon="8.81551">
        <ele>1149</ele>
        <time>2021-08-04T08:36:32.843Z</time>
      </trkpt>
      <trkpt lat="46.99205" lon="8.81548">
        <ele>1149</ele>
        <time>2021-08-04T08:36:33.843Z</time>
      </trkpt>
      <trkpt lat="46.99205" lon="8.81547">
        <ele>1149</ele>
        <time>2021-08-04T08:36:34.842Z</time>
      </trkpt>
      <trkpt lat="46.99206" lon="8.81546">
        <ele>1149</ele>
        <time>2021-08-04T08:36:35.843Z</time>
      </trkpt>
      <trkpt lat="46.99207" lon="8.81545">
        <ele>1149</ele>
        <time>2021-08-04T08:36:36.843Z</time>
      </trkpt>
      <trkpt lat="46.99207" lon="8.81544">
        <ele>1149</ele>
        <time>2021-08-04T08:36:37.843Z</time>
      </trkpt>
      <trkpt lat="46.99209" lon="8.81542">
        <ele>1149</ele>
        <time>2021-08-04T08:36:38.842Z</time>
      </trkpt>
      <trkpt lat="46.99209" lon="8.81541">
        <ele>1150</ele>
        <time>2021-08-04T08:36:39.843Z</time>
      </trkpt>
      <trkpt lat="46.99209" lon="8.8154">
        <ele>1150</ele>
        <time>2021-08-04T08:36:40.843Z</time>
      </trkpt>
      <trkpt lat="46.99209" lon="8.81539">
        <ele>1150</ele>
        <time>2021-08-04T08:36:41.843Z</time>
      </trkpt>
      <trkpt lat="46.99208" lon="8.81537">
        <ele>1150</ele>
        <time>2021-08-04T08:36:42.843Z</time>
      </trkpt>
      <trkpt lat="46.99207" lon="8.81535">
        <ele>1151</ele>
        <time>2021-08-04T08:36:43.843Z</time>
      </trkpt>
      <trkpt lat="46.99206" lon="8.81533">
        <ele>1151</ele>
        <time>2021-08-04T08:36:44.842Z</time>
      </trkpt>
      <trkpt lat="46.99206" lon="8.81532">
        <ele>1151</ele>
        <time>2021-08-04T08:36:45.842Z</time>
      </trkpt>
      <trkpt lat="46.99206" lon="8.81531">
        <ele>1152</ele>
        <time>2021-08-04T08:36:46.843Z</time>
      </trkpt>
      <trkpt lat="46.99206" lon="8.81529">
        <ele>1152</ele>
        <time>2021-08-04T08:36:47.842Z</time>
      </trkpt>
      <trkpt lat="46.99206" lon="8.81528">
        <ele>1152</ele>
        <time>2021-08-04T08:36:48.843Z</time>
      </trkpt>
      <trkpt lat="46.99205" lon="8.81526">
        <ele>1151</ele>
        <time>2021-08-04T08:36:49.843Z</time>
      </trkpt>
      <trkpt lat="46.99205" lon="8.81524">
        <ele>1151</ele>
        <time>2021-08-04T08:36:50.842Z</time>
      </trkpt>
      <trkpt lat="46.99205" lon="8.81522">
        <ele>1151</ele>
        <time>2021-08-04T08:36:51.842Z</time>
      </trkpt>
      <trkpt lat="46.99206" lon="8.81521">
        <ele>1151</ele>
        <time>2021-08-04T08:36:52.842Z</time>
      </trkpt>
      <trkpt lat="46.99205" lon="8.81521">
        <ele>1150</ele>
        <time>2021-08-04T08:36:53.842Z</time>
      </trkpt>
      <trkpt lat="46.99205" lon="8.8152">
        <ele>1150</ele>
        <time>2021-08-04T08:36:54.842Z</time>
      </trkpt>
      <trkpt lat="46.99205" lon="8.81519">
        <ele>1150</ele>
        <time>2021-08-04T08:36:55.843Z</time>
      </trkpt>
      <trkpt lat="46.99205" lon="8.81517">
        <ele>1150</ele>
        <time>2021-08-04T08:36:56.843Z</time>
      </trkpt>
      <trkpt lat="46.99206" lon="8.81516">
        <ele>1150</ele>
        <time>2021-08-04T08:36:57.843Z</time>
      </trkpt>
      <trkpt lat="46.99205" lon="8.81515">
        <ele>1149</ele>
        <time>2021-08-04T08:36:58.843Z</time>
      </trkpt>
      <trkpt lat="46.99205" lon="8.81515">
        <ele>1149</ele>
        <time>2021-08-04T08:36:59.842Z</time>
      </trkpt>
      <trkpt lat="46.99204" lon="8.81515">
        <ele>1148</ele>
        <time>2021-08-04T08:37:00.843Z</time>
      </trkpt>
      <trkpt lat="46.99204" lon="8.81515">
        <ele>1148</ele>
        <time>2021-08-04T08:37:01.843Z</time>
      </trkpt>
      <trkpt lat="46.99204" lon="8.81513">
        <ele>1147</ele>
        <time>2021-08-04T08:37:02.843Z</time>
      </trkpt>
      <trkpt lat="46.99204" lon="8.81512">
        <ele>1147</ele>
        <time>2021-08-04T08:37:03.843Z</time>
      </trkpt>
      <trkpt lat="46.99204" lon="8.81512">
        <ele>1147</ele>
        <time>2021-08-04T08:37:04.843Z</time>
      </trkpt>
      <trkpt lat="46.99202" lon="8.81514">
        <ele>1150</ele>
        <time>2021-08-04T08:37:05.843Z</time>
      </trkpt>
      <trkpt lat="46.99202" lon="8.81514">
        <ele>1150</ele>
        <time>2021-08-04T08:37:06.844Z</time>
      </trkpt>
      <trkpt lat="46.99203" lon="8.81514">
        <ele>1151</ele>
        <time>2021-08-04T08:37:07.843Z</time>
      </trkpt>
      <trkpt lat="46.99203" lon="8.81514">
        <ele>1150</ele>
        <time>2021-08-04T08:37:08.844Z</time>
      </trkpt>
      <trkpt lat="46.99201" lon="8.81515">
        <ele>1148</ele>
        <time>2021-08-04T08:37:09.845Z</time>
      </trkpt>
      <trkpt lat="46.99201" lon="8.81515">
        <ele>1148</ele>
        <time>2021-08-04T08:37:10.844Z</time>
      </trkpt>
      <trkpt lat="46.99202" lon="8.81513">
        <ele>1148</ele>
        <time>2021-08-04T08:37:11.844Z</time>
      </trkpt>
      <trkpt lat="46.99202" lon="8.81512">
        <ele>1148</ele>
        <time>2021-08-04T08:37:12.844Z</time>
      </trkpt>
      <trkpt lat="46.99202" lon="8.81511">
        <ele>1149</ele>
        <time>2021-08-04T08:37:13.844Z</time>
      </trkpt>
      <trkpt lat="46.99202" lon="8.8151">
        <ele>1149</ele>
        <time>2021-08-04T08:37:14.845Z</time>
      </trkpt>
      <trkpt lat="46.99202" lon="8.8151">
        <ele>1149</ele>
        <time>2021-08-04T08:37:15.844Z</time>
      </trkpt>
      <trkpt lat="46.99202" lon="8.81509">
        <ele>1149</ele>
        <time>2021-08-04T08:37:16.844Z</time>
      </trkpt>
      <trkpt lat="46.99201" lon="8.81507">
        <ele>1148</ele>
        <time>2021-08-04T08:37:17.846Z</time>
      </trkpt>
      <trkpt lat="46.99201" lon="8.81506">
        <ele>1149</ele>
        <time>2021-08-04T08:37:18.846Z</time>
      </trkpt>
      <trkpt lat="46.99201" lon="8.81504">
        <ele>1149</ele>
        <time>2021-08-04T08:37:19.845Z</time>
      </trkpt>
      <trkpt lat="46.99201" lon="8.81503">
        <ele>1149</ele>
        <time>2021-08-04T08:37:20.846Z</time>
      </trkpt>
      <trkpt lat="46.99201" lon="8.81502">
        <ele>1149</ele>
        <time>2021-08-04T08:37:21.846Z</time>
      </trkpt>
      <trkpt lat="46.992" lon="8.81502">
        <ele>1149</ele>
        <time>2021-08-04T08:37:22.846Z</time>
      </trkpt>
      <trkpt lat="46.992" lon="8.81501">
        <ele>1148</ele>
        <time>2021-08-04T08:37:23.846Z</time>
      </trkpt>
      <trkpt lat="46.99199" lon="8.81501">
        <ele>1148</ele>
        <time>2021-08-04T08:37:24.846Z</time>
      </trkpt>
      <trkpt lat="46.99199" lon="8.815">
        <ele>1148</ele>
        <time>2021-08-04T08:37:25.846Z</time>
      </trkpt>
      <trkpt lat="46.99198" lon="8.81499">
        <ele>1147</ele>
        <time>2021-08-04T08:37:26.846Z</time>
      </trkpt>
      <trkpt lat="46.99198" lon="8.81498">
        <ele>1147</ele>
        <time>2021-08-04T08:37:27.846Z</time>
      </trkpt>
      <trkpt lat="46.99198" lon="8.81497">
        <ele>1147</ele>
        <time>2021-08-04T08:37:28.846Z</time>
      </trkpt>
      <trkpt lat="46.99198" lon="8.81496">
        <ele>1147</ele>
        <time>2021-08-04T08:37:29.846Z</time>
      </trkpt>
      <trkpt lat="46.99198" lon="8.81495">
        <ele>1147</ele>
        <time>2021-08-04T08:37:30.845Z</time>
      </trkpt>
      <trkpt lat="46.99198" lon="8.81494">
        <ele>1147</ele>
        <time>2021-08-04T08:37:31.845Z</time>
      </trkpt>
      <trkpt lat="46.99197" lon="8.81492">
        <ele>1147</ele>
        <time>2021-08-04T08:37:32.846Z</time>
      </trkpt>
      <trkpt lat="46.99196" lon="8.8149">
        <ele>1147</ele>
        <time>2021-08-04T08:37:33.846Z</time>
      </trkpt>
      <trkpt lat="46.99196" lon="8.81488">
        <ele>1147</ele>
        <time>2021-08-04T08:37:34.845Z</time>
      </trkpt>
      <trkpt lat="46.99196" lon="8.81487">
        <ele>1148</ele>
        <time>2021-08-04T08:37:35.846Z</time>
      </trkpt>
      <trkpt lat="46.99196" lon="8.81485">
        <ele>1149</ele>
        <time>2021-08-04T08:37:36.846Z</time>
      </trkpt>
      <trkpt lat="46.99196" lon="8.81483">
        <ele>1149</ele>
        <time>2021-08-04T08:37:37.846Z</time>
      </trkpt>
      <trkpt lat="46.99195" lon="8.81482">
        <ele>1149</ele>
        <time>2021-08-04T08:37:38.845Z</time>
      </trkpt>
      <trkpt lat="46.99194" lon="8.8148">
        <ele>1149</ele>
        <time>2021-08-04T08:37:39.845Z</time>
      </trkpt>
      <trkpt lat="46.99193" lon="8.81478">
        <ele>1149</ele>
        <time>2021-08-04T08:37:40.846Z</time>
      </trkpt>
      <trkpt lat="46.99193" lon="8.81477">
        <ele>1148</ele>
        <time>2021-08-04T08:37:41.846Z</time>
      </trkpt>
      <trkpt lat="46.99192" lon="8.81477">
        <ele>1147</ele>
        <time>2021-08-04T08:37:42.846Z</time>
      </trkpt>
      <trkpt lat="46.99192" lon="8.81476">
        <ele>1147</ele>
        <time>2021-08-04T08:37:43.846Z</time>
      </trkpt>
      <trkpt lat="46.99192" lon="8.81477">
        <ele>1146</ele>
        <time>2021-08-04T08:37:44.846Z</time>
      </trkpt>
      <trkpt lat="46.99191" lon="8.81477">
        <ele>1142</ele>
        <time>2021-08-04T08:37:45.846Z</time>
      </trkpt>
      <trkpt lat="46.99191" lon="8.81476">
        <ele>1144</ele>
        <time>2021-08-04T08:37:46.846Z</time>
      </trkpt>
      <trkpt lat="46.9919" lon="8.81476">
        <ele>1145</ele>
        <time>2021-08-04T08:37:47.845Z</time>
      </trkpt>
      <trkpt lat="46.9919" lon="8.81469">
        <ele>1153</ele>
        <time>2021-08-04T08:37:48.846Z</time>
      </trkpt>
      <trkpt lat="46.99189" lon="8.81468">
        <ele>1154</ele>
        <time>2021-08-04T08:37:49.847Z</time>
      </trkpt>
      <trkpt lat="46.99189" lon="8.81466">
        <ele>1154</ele>
        <time>2021-08-04T08:37:50.846Z</time>
      </trkpt>
      <trkpt lat="46.99189" lon="8.81465">
        <ele>1154</ele>
        <time>2021-08-04T08:37:51.846Z</time>
      </trkpt>
      <trkpt lat="46.99189" lon="8.81464">
        <ele>1154</ele>
        <time>2021-08-04T08:37:52.847Z</time>
      </trkpt>
      <trkpt lat="46.99189" lon="8.81462">
        <ele>1154</ele>
        <time>2021-08-04T08:37:53.847Z</time>
      </trkpt>
      <trkpt lat="46.99189" lon="8.81462">
        <ele>1153</ele>
        <time>2021-08-04T08:37:54.847Z</time>
      </trkpt>
      <trkpt lat="46.99188" lon="8.81461">
        <ele>1153</ele>
        <time>2021-08-04T08:37:55.847Z</time>
      </trkpt>
      <trkpt lat="46.99188" lon="8.8146">
        <ele>1152</ele>
        <time>2021-08-04T08:37:56.847Z</time>
      </trkpt>
      <trkpt lat="46.99188" lon="8.81458">
        <ele>1152</ele>
        <time>2021-08-04T08:37:57.846Z</time>
      </trkpt>
      <trkpt lat="46.99188" lon="8.81458">
        <ele>1152</ele>
        <time>2021-08-04T08:37:58.847Z</time>
      </trkpt>
      <trkpt lat="46.99188" lon="8.81457">
        <ele>1151</ele>
        <time>2021-08-04T08:37:59.847Z</time>
      </trkpt>
      <trkpt lat="46.99188" lon="8.81457">
        <ele>1151</ele>
        <time>2021-08-04T08:38:00.847Z</time>
      </trkpt>
      <trkpt lat="46.99185" lon="8.81453">
        <ele>1150</ele>
        <time>2021-08-04T08:38:01.846Z</time>
      </trkpt>
      <trkpt lat="46.99185" lon="8.81453">
        <ele>1150</ele>
        <time>2021-08-04T08:38:02.847Z</time>
      </trkpt>
      <trkpt lat="46.99184" lon="8.81452">
        <ele>1150</ele>
        <time>2021-08-04T08:38:03.846Z</time>
      </trkpt>
      <trkpt lat="46.99184" lon="8.81451">
        <ele>1150</ele>
        <time>2021-08-04T08:38:04.846Z</time>
      </trkpt>
      <trkpt lat="46.99183" lon="8.8145">
        <ele>1150</ele>
        <time>2021-08-04T08:38:05.846Z</time>
      </trkpt>
      <trkpt lat="46.99182" lon="8.81449">
        <ele>1149</ele>
        <time>2021-08-04T08:38:06.846Z</time>
      </trkpt>
      <trkpt lat="46.99182" lon="8.81448">
        <ele>1149</ele>
        <time>2021-08-04T08:38:07.847Z</time>
      </trkpt>
      <trkpt lat="46.99181" lon="8.81448">
        <ele>1149</ele>
        <time>2021-08-04T08:38:08.847Z</time>
      </trkpt>
      <trkpt lat="46.99181" lon="8.81447">
        <ele>1149</ele>
        <time>2021-08-04T08:38:09.846Z</time>
      </trkpt>
      <trkpt lat="46.9918" lon="8.81445">
        <ele>1149</ele>
        <time>2021-08-04T08:38:10.847Z</time>
      </trkpt>
      <trkpt lat="46.9918" lon="8.81444">
        <ele>1148</ele>
        <time>2021-08-04T08:38:11.847Z</time>
      </trkpt>
      <trkpt lat="46.9918" lon="8.81442">
        <ele>1148</ele>
        <time>2021-08-04T08:38:12.846Z</time>
      </trkpt>
      <trkpt lat="46.9918" lon="8.81439">
        <ele>1148</ele>
        <time>2021-08-04T08:38:13.846Z</time>
      </trkpt>
      <trkpt lat="46.9918" lon="8.81437">
        <ele>1147</ele>
        <time>2021-08-04T08:38:14.846Z</time>
      </trkpt>
      <trkpt lat="46.99179" lon="8.81436">
        <ele>1147</ele>
        <time>2021-08-04T08:38:15.846Z</time>
      </trkpt>
      <trkpt lat="46.99178" lon="8.81435">
        <ele>1147</ele>
        <time>2021-08-04T08:38:16.846Z</time>
      </trkpt>
      <trkpt lat="46.99178" lon="8.81434">
        <ele>1146</ele>
        <time>2021-08-04T08:38:17.847Z</time>
      </trkpt>
      <trkpt lat="46.99177" lon="8.81433">
        <ele>1146</ele>
        <time>2021-08-04T08:38:18.847Z</time>
      </trkpt>
      <trkpt lat="46.99176" lon="8.81432">
        <ele>1146</ele>
        <time>2021-08-04T08:38:19.846Z</time>
      </trkpt>
      <trkpt lat="46.99176" lon="8.81431">
        <ele>1145</ele>
        <time>2021-08-04T08:38:20.847Z</time>
      </trkpt>
      <trkpt lat="46.99175" lon="8.8143">
        <ele>1145</ele>
        <time>2021-08-04T08:38:21.847Z</time>
      </trkpt>
      <trkpt lat="46.99174" lon="8.81429">
        <ele>1145</ele>
        <time>2021-08-04T08:38:22.847Z</time>
      </trkpt>
      <trkpt lat="46.99174" lon="8.81427">
        <ele>1145</ele>
        <time>2021-08-04T08:38:23.846Z</time>
      </trkpt>
      <trkpt lat="46.99173" lon="8.81426">
        <ele>1145</ele>
        <time>2021-08-04T08:38:24.847Z</time>
      </trkpt>
      <trkpt lat="46.99173" lon="8.81425">
        <ele>1145</ele>
        <time>2021-08-04T08:38:25.846Z</time>
      </trkpt>
      <trkpt lat="46.99173" lon="8.81425">
        <ele>1145</ele>
        <time>2021-08-04T08:38:26.846Z</time>
      </trkpt>
      <trkpt lat="46.99172" lon="8.81423">
        <ele>1145</ele>
        <time>2021-08-04T08:38:27.846Z</time>
      </trkpt>
      <trkpt lat="46.99172" lon="8.81422">
        <ele>1145</ele>
        <time>2021-08-04T08:38:28.847Z</time>
      </trkpt>
      <trkpt lat="46.99172" lon="8.8142">
        <ele>1145</ele>
        <time>2021-08-04T08:38:29.847Z</time>
      </trkpt>
      <trkpt lat="46.99171" lon="8.81419">
        <ele>1144</ele>
        <time>2021-08-04T08:38:30.847Z</time>
      </trkpt>
      <trkpt lat="46.99171" lon="8.81417">
        <ele>1144</ele>
        <time>2021-08-04T08:38:31.846Z</time>
      </trkpt>
      <trkpt lat="46.99171" lon="8.81416">
        <ele>1144</ele>
        <time>2021-08-04T08:38:32.846Z</time>
      </trkpt>
      <trkpt lat="46.9917" lon="8.81415">
        <ele>1144</ele>
        <time>2021-08-04T08:38:33.846Z</time>
      </trkpt>
      <trkpt lat="46.9917" lon="8.81413">
        <ele>1144</ele>
        <time>2021-08-04T08:38:34.847Z</time>
      </trkpt>
      <trkpt lat="46.9917" lon="8.81412">
        <ele>1143</ele>
        <time>2021-08-04T08:38:35.847Z</time>
      </trkpt>
      <trkpt lat="46.99169" lon="8.81411">
        <ele>1143</ele>
        <time>2021-08-04T08:38:36.847Z</time>
      </trkpt>
      <trkpt lat="46.99169" lon="8.8141">
        <ele>1143</ele>
        <time>2021-08-04T08:38:37.847Z</time>
      </trkpt>
      <trkpt lat="46.99169" lon="8.81409">
        <ele>1143</ele>
        <time>2021-08-04T08:38:38.847Z</time>
      </trkpt>
      <trkpt lat="46.99169" lon="8.81407">
        <ele>1143</ele>
        <time>2021-08-04T08:38:39.847Z</time>
      </trkpt>
      <trkpt lat="46.99168" lon="8.81406">
        <ele>1143</ele>
        <time>2021-08-04T08:38:40.847Z</time>
      </trkpt>
      <trkpt lat="46.99168" lon="8.81405">
        <ele>1143</ele>
        <time>2021-08-04T08:38:41.847Z</time>
      </trkpt>
      <trkpt lat="46.99168" lon="8.81403">
        <ele>1143</ele>
        <time>2021-08-04T08:38:42.847Z</time>
      </trkpt>
      <trkpt lat="46.99167" lon="8.81402">
        <ele>1143</ele>
        <time>2021-08-04T08:38:43.847Z</time>
      </trkpt>
      <trkpt lat="46.99167" lon="8.814">
        <ele>1143</ele>
        <time>2021-08-04T08:38:44.846Z</time>
      </trkpt>
      <trkpt lat="46.99167" lon="8.81398">
        <ele>1143</ele>
        <time>2021-08-04T08:38:45.847Z</time>
      </trkpt>
      <trkpt lat="46.99167" lon="8.81397">
        <ele>1143</ele>
        <time>2021-08-04T08:38:46.847Z</time>
      </trkpt>
      <trkpt lat="46.99167" lon="8.81395">
        <ele>1142</ele>
        <time>2021-08-04T08:38:47.847Z</time>
      </trkpt>
      <trkpt lat="46.99166" lon="8.81394">
        <ele>1142</ele>
        <time>2021-08-04T08:38:48.846Z</time>
      </trkpt>
      <trkpt lat="46.99166" lon="8.81392">
        <ele>1142</ele>
        <time>2021-08-04T08:38:49.847Z</time>
      </trkpt>
      <trkpt lat="46.99166" lon="8.8139">
        <ele>1141</ele>
        <time>2021-08-04T08:38:50.846Z</time>
      </trkpt>
      <trkpt lat="46.99167" lon="8.81388">
        <ele>1142</ele>
        <time>2021-08-04T08:38:51.846Z</time>
      </trkpt>
      <trkpt lat="46.99167" lon="8.81386">
        <ele>1142</ele>
        <time>2021-08-04T08:38:52.846Z</time>
      </trkpt>
      <trkpt lat="46.99167" lon="8.81385">
        <ele>1142</ele>
        <time>2021-08-04T08:38:53.846Z</time>
      </trkpt>
      <trkpt lat="46.99168" lon="8.81384">
        <ele>1142</ele>
        <time>2021-08-04T08:38:54.847Z</time>
      </trkpt>
      <trkpt lat="46.99168" lon="8.81383">
        <ele>1143</ele>
        <time>2021-08-04T08:38:55.847Z</time>
      </trkpt>
      <trkpt lat="46.99168" lon="8.81382">
        <ele>1142</ele>
        <time>2021-08-04T08:38:56.846Z</time>
      </trkpt>
      <trkpt lat="46.99168" lon="8.81381">
        <ele>1142</ele>
        <time>2021-08-04T08:38:57.846Z</time>
      </trkpt>
      <trkpt lat="46.99169" lon="8.81381">
        <ele>1142</ele>
        <time>2021-08-04T08:38:58.846Z</time>
      </trkpt>
      <trkpt lat="46.99169" lon="8.8138">
        <ele>1142</ele>
        <time>2021-08-04T08:38:59.847Z</time>
      </trkpt>
      <trkpt lat="46.99169" lon="8.8138">
        <ele>1142</ele>
        <time>2021-08-04T08:39:00.847Z</time>
      </trkpt>
      <trkpt lat="46.9917" lon="8.81379">
        <ele>1142</ele>
        <time>2021-08-04T08:39:01.847Z</time>
      </trkpt>
      <trkpt lat="46.9917" lon="8.81378">
        <ele>1142</ele>
        <time>2021-08-04T08:39:02.847Z</time>
      </trkpt>
      <trkpt lat="46.9917" lon="8.81377">
        <ele>1143</ele>
        <time>2021-08-04T08:39:03.846Z</time>
      </trkpt>
      <trkpt lat="46.9917" lon="8.81377">
        <ele>1144</ele>
        <time>2021-08-04T08:39:04.846Z</time>
      </trkpt>
      <trkpt lat="46.9917" lon="8.81376">
        <ele>1144</ele>
        <time>2021-08-04T08:39:05.847Z</time>
      </trkpt>
      <trkpt lat="46.9917" lon="8.81375">
        <ele>1144</ele>
        <time>2021-08-04T08:39:06.846Z</time>
      </trkpt>
      <trkpt lat="46.9917" lon="8.81374">
        <ele>1145</ele>
        <time>2021-08-04T08:39:07.847Z</time>
      </trkpt>
      <trkpt lat="46.9917" lon="8.81374">
        <ele>1145</ele>
        <time>2021-08-04T08:39:08.847Z</time>
      </trkpt>
      <trkpt lat="46.9917" lon="8.81372">
        <ele>1144</ele>
        <time>2021-08-04T08:39:09.846Z</time>
      </trkpt>
      <trkpt lat="46.9917" lon="8.81371">
        <ele>1144</ele>
        <time>2021-08-04T08:39:10.847Z</time>
      </trkpt>
      <trkpt lat="46.9917" lon="8.81369">
        <ele>1144</ele>
        <time>2021-08-04T08:39:11.846Z</time>
      </trkpt>
      <trkpt lat="46.9917" lon="8.81368">
        <ele>1145</ele>
        <time>2021-08-04T08:39:12.846Z</time>
      </trkpt>
      <trkpt lat="46.9917" lon="8.81366">
        <ele>1145</ele>
        <time>2021-08-04T08:39:13.847Z</time>
      </trkpt>
      <trkpt lat="46.9917" lon="8.81364">
        <ele>1145</ele>
        <time>2021-08-04T08:39:14.847Z</time>
      </trkpt>
      <trkpt lat="46.9917" lon="8.81363">
        <ele>1146</ele>
        <time>2021-08-04T08:39:15.846Z</time>
      </trkpt>
      <trkpt lat="46.9917" lon="8.81361">
        <ele>1145</ele>
        <time>2021-08-04T08:39:16.847Z</time>
      </trkpt>
      <trkpt lat="46.9917" lon="8.8136">
        <ele>1145</ele>
        <time>2021-08-04T08:39:17.846Z</time>
      </trkpt>
      <trkpt lat="46.9917" lon="8.81359">
        <ele>1144</ele>
        <time>2021-08-04T08:39:18.846Z</time>
      </trkpt>
      <trkpt lat="46.9917" lon="8.81358">
        <ele>1144</ele>
        <time>2021-08-04T08:39:19.847Z</time>
      </trkpt>
      <trkpt lat="46.99169" lon="8.81356">
        <ele>1144</ele>
        <time>2021-08-04T08:39:20.847Z</time>
      </trkpt>
      <trkpt lat="46.99169" lon="8.81353">
        <ele>1143</ele>
        <time>2021-08-04T08:39:21.847Z</time>
      </trkpt>
      <trkpt lat="46.99168" lon="8.81352">
        <ele>1143</ele>
        <time>2021-08-04T08:39:22.847Z</time>
      </trkpt>
      <trkpt lat="46.99168" lon="8.8135">
        <ele>1144</ele>
        <time>2021-08-04T08:39:23.847Z</time>
      </trkpt>
      <trkpt lat="46.99167" lon="8.81349">
        <ele>1144</ele>
        <time>2021-08-04T08:39:24.847Z</time>
      </trkpt>
      <trkpt lat="46.99167" lon="8.81348">
        <ele>1144</ele>
        <time>2021-08-04T08:39:25.846Z</time>
      </trkpt>
      <trkpt lat="46.99167" lon="8.81347">
        <ele>1144</ele>
        <time>2021-08-04T08:39:26.847Z</time>
      </trkpt>
      <trkpt lat="46.99167" lon="8.81345">
        <ele>1144</ele>
        <time>2021-08-04T08:39:27.847Z</time>
      </trkpt>
      <trkpt lat="46.99166" lon="8.81344">
        <ele>1144</ele>
        <time>2021-08-04T08:39:28.847Z</time>
      </trkpt>
      <trkpt lat="46.99166" lon="8.81343">
        <ele>1144</ele>
        <time>2021-08-04T08:39:29.846Z</time>
      </trkpt>
      <trkpt lat="46.99166" lon="8.81341">
        <ele>1143</ele>
        <time>2021-08-04T08:39:30.846Z</time>
      </trkpt>
      <trkpt lat="46.99165" lon="8.8134">
        <ele>1143</ele>
        <time>2021-08-04T08:39:31.847Z</time>
      </trkpt>
      <trkpt lat="46.99165" lon="8.81339">
        <ele>1143</ele>
        <time>2021-08-04T08:39:32.847Z</time>
      </trkpt>
      <trkpt lat="46.99165" lon="8.81337">
        <ele>1143</ele>
        <time>2021-08-04T08:39:33.847Z</time>
      </trkpt>
      <trkpt lat="46.99165" lon="8.81336">
        <ele>1142</ele>
        <time>2021-08-04T08:39:34.846Z</time>
      </trkpt>
      <trkpt lat="46.99165" lon="8.81335">
        <ele>1142</ele>
        <time>2021-08-04T08:39:35.846Z</time>
      </trkpt>
      <trkpt lat="46.99165" lon="8.81333">
        <ele>1142</ele>
        <time>2021-08-04T08:39:36.847Z</time>
      </trkpt>
      <trkpt lat="46.99165" lon="8.81332">
        <ele>1142</ele>
        <time>2021-08-04T08:39:37.846Z</time>
      </trkpt>
      <trkpt lat="46.99165" lon="8.8133">
        <ele>1142</ele>
        <time>2021-08-04T08:39:38.847Z</time>
      </trkpt>
      <trkpt lat="46.99164" lon="8.81329">
        <ele>1142</ele>
        <time>2021-08-04T08:39:39.846Z</time>
      </trkpt>
      <trkpt lat="46.99164" lon="8.81327">
        <ele>1142</ele>
        <time>2021-08-04T08:39:40.847Z</time>
      </trkpt>
      <trkpt lat="46.99163" lon="8.81326">
        <ele>1142</ele>
        <time>2021-08-04T08:39:41.847Z</time>
      </trkpt>
      <trkpt lat="46.99163" lon="8.81325">
        <ele>1142</ele>
        <time>2021-08-04T08:39:42.847Z</time>
      </trkpt>
      <trkpt lat="46.99162" lon="8.81324">
        <ele>1142</ele>
        <time>2021-08-04T08:39:43.846Z</time>
      </trkpt>
      <trkpt lat="46.99162" lon="8.81323">
        <ele>1141</ele>
        <time>2021-08-04T08:39:44.846Z</time>
      </trkpt>
      <trkpt lat="46.99162" lon="8.81321">
        <ele>1141</ele>
        <time>2021-08-04T08:39:45.847Z</time>
      </trkpt>
      <trkpt lat="46.99162" lon="8.8132">
        <ele>1141</ele>
        <time>2021-08-04T08:39:46.846Z</time>
      </trkpt>
      <trkpt lat="46.99162" lon="8.81318">
        <ele>1141</ele>
        <time>2021-08-04T08:39:47.847Z</time>
      </trkpt>
      <trkpt lat="46.99162" lon="8.81317">
        <ele>1141</ele>
        <time>2021-08-04T08:39:48.847Z</time>
      </trkpt>
      <trkpt lat="46.99161" lon="8.81315">
        <ele>1141</ele>
        <time>2021-08-04T08:39:49.846Z</time>
      </trkpt>
      <trkpt lat="46.99161" lon="8.81314">
        <ele>1142</ele>
        <time>2021-08-04T08:39:50.847Z</time>
      </trkpt>
      <trkpt lat="46.99161" lon="8.81313">
        <ele>1142</ele>
        <time>2021-08-04T08:39:51.847Z</time>
      </trkpt>
      <trkpt lat="46.9916" lon="8.81311">
        <ele>1142</ele>
        <time>2021-08-04T08:39:52.847Z</time>
      </trkpt>
      <trkpt lat="46.9916" lon="8.8131">
        <ele>1142</ele>
        <time>2021-08-04T08:39:53.846Z</time>
      </trkpt>
      <trkpt lat="46.99159" lon="8.81309">
        <ele>1142</ele>
        <time>2021-08-04T08:39:54.847Z</time>
      </trkpt>
      <trkpt lat="46.99159" lon="8.81307">
        <ele>1142</ele>
        <time>2021-08-04T08:39:55.847Z</time>
      </trkpt>
      <trkpt lat="46.99158" lon="8.81306">
        <ele>1142</ele>
        <time>2021-08-04T08:39:56.847Z</time>
      </trkpt>
      <trkpt lat="46.99158" lon="8.81305">
        <ele>1142</ele>
        <time>2021-08-04T08:39:57.847Z</time>
      </trkpt>
      <trkpt lat="46.99157" lon="8.81305">
        <ele>1143</ele>
        <time>2021-08-04T08:39:58.847Z</time>
      </trkpt>
      <trkpt lat="46.99156" lon="8.81305">
        <ele>1144</ele>
        <time>2021-08-04T08:39:59.847Z</time>
      </trkpt>
      <trkpt lat="46.99156" lon="8.81305">
        <ele>1144</ele>
        <time>2021-08-04T08:40:00.847Z</time>
      </trkpt>
      <trkpt lat="46.99156" lon="8.81306">
        <ele>1144</ele>
        <time>2021-08-04T08:40:01.847Z</time>
      </trkpt>
      <trkpt lat="46.99157" lon="8.81302">
        <ele>1146</ele>
        <time>2021-08-04T08:40:02.846Z</time>
      </trkpt>
      <trkpt lat="46.99157" lon="8.813">
        <ele>1146</ele>
        <time>2021-08-04T08:40:03.847Z</time>
      </trkpt>
      <trkpt lat="46.99156" lon="8.81299">
        <ele>1147</ele>
        <time>2021-08-04T08:40:04.846Z</time>
      </trkpt>
      <trkpt lat="46.99156" lon="8.81298">
        <ele>1147</ele>
        <time>2021-08-04T08:40:05.847Z</time>
      </trkpt>
      <trkpt lat="46.99155" lon="8.81297">
        <ele>1147</ele>
        <time>2021-08-04T08:40:06.847Z</time>
      </trkpt>
      <trkpt lat="46.99155" lon="8.81296">
        <ele>1147</ele>
        <time>2021-08-04T08:40:07.846Z</time>
      </trkpt>
      <trkpt lat="46.99155" lon="8.81294">
        <ele>1146</ele>
        <time>2021-08-04T08:40:08.847Z</time>
      </trkpt>
      <trkpt lat="46.99154" lon="8.81293">
        <ele>1146</ele>
        <time>2021-08-04T08:40:09.847Z</time>
      </trkpt>
      <trkpt lat="46.99154" lon="8.81291">
        <ele>1146</ele>
        <time>2021-08-04T08:40:10.847Z</time>
      </trkpt>
      <trkpt lat="46.99153" lon="8.8129">
        <ele>1145</ele>
        <time>2021-08-04T08:40:11.847Z</time>
      </trkpt>
      <trkpt lat="46.99152" lon="8.81288">
        <ele>1145</ele>
        <time>2021-08-04T08:40:12.847Z</time>
      </trkpt>
      <trkpt lat="46.99152" lon="8.81287">
        <ele>1145</ele>
        <time>2021-08-04T08:40:13.847Z</time>
      </trkpt>
      <trkpt lat="46.99152" lon="8.81286">
        <ele>1145</ele>
        <time>2021-08-04T08:40:14.847Z</time>
      </trkpt>
      <trkpt lat="46.99151" lon="8.81284">
        <ele>1145</ele>
        <time>2021-08-04T08:40:15.847Z</time>
      </trkpt>
      <trkpt lat="46.99151" lon="8.81283">
        <ele>1144</ele>
        <time>2021-08-04T08:40:16.847Z</time>
      </trkpt>
      <trkpt lat="46.99151" lon="8.81282">
        <ele>1144</ele>
        <time>2021-08-04T08:40:17.846Z</time>
      </trkpt>
      <trkpt lat="46.99151" lon="8.81281">
        <ele>1144</ele>
        <time>2021-08-04T08:40:18.846Z</time>
      </trkpt>
      <trkpt lat="46.9915" lon="8.8128">
        <ele>1144</ele>
        <time>2021-08-04T08:40:19.846Z</time>
      </trkpt>
      <trkpt lat="46.9915" lon="8.81278">
        <ele>1144</ele>
        <time>2021-08-04T08:40:20.847Z</time>
      </trkpt>
      <trkpt lat="46.99149" lon="8.81277">
        <ele>1144</ele>
        <time>2021-08-04T08:40:21.846Z</time>
      </trkpt>
      <trkpt lat="46.99149" lon="8.81276">
        <ele>1144</ele>
        <time>2021-08-04T08:40:22.846Z</time>
      </trkpt>
      <trkpt lat="46.99149" lon="8.81275">
        <ele>1144</ele>
        <time>2021-08-04T08:40:23.847Z</time>
      </trkpt>
      <trkpt lat="46.99148" lon="8.81273">
        <ele>1144</ele>
        <time>2021-08-04T08:40:24.847Z</time>
      </trkpt>
      <trkpt lat="46.99148" lon="8.81271">
        <ele>1144</ele>
        <time>2021-08-04T08:40:25.846Z</time>
      </trkpt>
      <trkpt lat="46.99148" lon="8.8127">
        <ele>1144</ele>
        <time>2021-08-04T08:40:26.847Z</time>
      </trkpt>
      <trkpt lat="46.99148" lon="8.81269">
        <ele>1143</ele>
        <time>2021-08-04T08:40:27.847Z</time>
      </trkpt>
      <trkpt lat="46.99148" lon="8.81268">
        <ele>1143</ele>
        <time>2021-08-04T08:40:28.847Z</time>
      </trkpt>
      <trkpt lat="46.99148" lon="8.81267">
        <ele>1143</ele>
        <time>2021-08-04T08:40:29.847Z</time>
      </trkpt>
      <trkpt lat="46.99148" lon="8.81265">
        <ele>1144</ele>
        <time>2021-08-04T08:40:30.847Z</time>
      </trkpt>
      <trkpt lat="46.99148" lon="8.81264">
        <ele>1144</ele>
        <time>2021-08-04T08:40:31.847Z</time>
      </trkpt>
      <trkpt lat="46.99148" lon="8.81263">
        <ele>1144</ele>
        <time>2021-08-04T08:40:32.847Z</time>
      </trkpt>
      <trkpt lat="46.99148" lon="8.81261">
        <ele>1144</ele>
        <time>2021-08-04T08:40:33.846Z</time>
      </trkpt>
      <trkpt lat="46.99148" lon="8.8126">
        <ele>1144</ele>
        <time>2021-08-04T08:40:34.846Z</time>
      </trkpt>
      <trkpt lat="46.99148" lon="8.81258">
        <ele>1144</ele>
        <time>2021-08-04T08:40:35.847Z</time>
      </trkpt>
      <trkpt lat="46.99148" lon="8.81257">
        <ele>1145</ele>
        <time>2021-08-04T08:40:36.847Z</time>
      </trkpt>
      <trkpt lat="46.99147" lon="8.81255">
        <ele>1145</ele>
        <time>2021-08-04T08:40:37.847Z</time>
      </trkpt>
      <trkpt lat="46.99147" lon="8.81253">
        <ele>1145</ele>
        <time>2021-08-04T08:40:38.847Z</time>
      </trkpt>
      <trkpt lat="46.99147" lon="8.81251">
        <ele>1144</ele>
        <time>2021-08-04T08:40:39.847Z</time>
      </trkpt>
      <trkpt lat="46.99147" lon="8.81249">
        <ele>1145</ele>
        <time>2021-08-04T08:40:40.847Z</time>
      </trkpt>
      <trkpt lat="46.99146" lon="8.81247">
        <ele>1144</ele>
        <time>2021-08-04T08:40:41.846Z</time>
      </trkpt>
      <trkpt lat="46.99146" lon="8.81245">
        <ele>1144</ele>
        <time>2021-08-04T08:40:42.847Z</time>
      </trkpt>
      <trkpt lat="46.99146" lon="8.81244">
        <ele>1144</ele>
        <time>2021-08-04T08:40:43.847Z</time>
      </trkpt>
      <trkpt lat="46.99146" lon="8.81242">
        <ele>1143</ele>
        <time>2021-08-04T08:40:44.847Z</time>
      </trkpt>
      <trkpt lat="46.99145" lon="8.8124">
        <ele>1143</ele>
        <time>2021-08-04T08:40:45.846Z</time>
      </trkpt>
      <trkpt lat="46.99145" lon="8.81239">
        <ele>1143</ele>
        <time>2021-08-04T08:40:46.847Z</time>
      </trkpt>
      <trkpt lat="46.99144" lon="8.81237">
        <ele>1142</ele>
        <time>2021-08-04T08:40:47.846Z</time>
      </trkpt>
      <trkpt lat="46.99144" lon="8.81235">
        <ele>1142</ele>
        <time>2021-08-04T08:40:48.847Z</time>
      </trkpt>
      <trkpt lat="46.99143" lon="8.81234">
        <ele>1142</ele>
        <time>2021-08-04T08:40:49.846Z</time>
      </trkpt>
      <trkpt lat="46.99143" lon="8.81233">
        <ele>1142</ele>
        <time>2021-08-04T08:40:50.847Z</time>
      </trkpt>
      <trkpt lat="46.99142" lon="8.81231">
        <ele>1142</ele>
        <time>2021-08-04T08:40:51.847Z</time>
      </trkpt>
      <trkpt lat="46.99142" lon="8.8123">
        <ele>1142</ele>
        <time>2021-08-04T08:40:52.847Z</time>
      </trkpt>
      <trkpt lat="46.99142" lon="8.81228">
        <ele>1143</ele>
        <time>2021-08-04T08:40:53.847Z</time>
      </trkpt>
      <trkpt lat="46.99142" lon="8.81226">
        <ele>1142</ele>
        <time>2021-08-04T08:40:54.847Z</time>
      </trkpt>
      <trkpt lat="46.99142" lon="8.81225">
        <ele>1142</ele>
        <time>2021-08-04T08:40:55.847Z</time>
      </trkpt>
      <trkpt lat="46.99143" lon="8.81224">
        <ele>1142</ele>
        <time>2021-08-04T08:40:56.846Z</time>
      </trkpt>
      <trkpt lat="46.99143" lon="8.81222">
        <ele>1141</ele>
        <time>2021-08-04T08:40:57.847Z</time>
      </trkpt>
      <trkpt lat="46.99142" lon="8.81221">
        <ele>1141</ele>
        <time>2021-08-04T08:40:58.847Z</time>
      </trkpt>
      <trkpt lat="46.99142" lon="8.81219">
        <ele>1141</ele>
        <time>2021-08-04T08:40:59.847Z</time>
      </trkpt>
      <trkpt lat="46.99141" lon="8.81218">
        <ele>1140</ele>
        <time>2021-08-04T08:41:00.847Z</time>
      </trkpt>
      <trkpt lat="46.99141" lon="8.81217">
        <ele>1140</ele>
        <time>2021-08-04T08:41:01.847Z</time>
      </trkpt>
      <trkpt lat="46.9914" lon="8.81215">
        <ele>1140</ele>
        <time>2021-08-04T08:41:02.847Z</time>
      </trkpt>
      <trkpt lat="46.99139" lon="8.81214">
        <ele>1140</ele>
        <time>2021-08-04T08:41:03.847Z</time>
      </trkpt>
      <trkpt lat="46.99138" lon="8.81213">
        <ele>1140</ele>
        <time>2021-08-04T08:41:04.846Z</time>
      </trkpt>
      <trkpt lat="46.99137" lon="8.81212">
        <ele>1140</ele>
        <time>2021-08-04T08:41:05.846Z</time>
      </trkpt>
      <trkpt lat="46.99136" lon="8.81212">
        <ele>1140</ele>
        <time>2021-08-04T08:41:06.847Z</time>
      </trkpt>
      <trkpt lat="46.99136" lon="8.81211">
        <ele>1141</ele>
        <time>2021-08-04T08:41:07.847Z</time>
      </trkpt>
      <trkpt lat="46.99136" lon="8.8121">
        <ele>1141</ele>
        <time>2021-08-04T08:41:08.846Z</time>
      </trkpt>
      <trkpt lat="46.99134" lon="8.8121">
        <ele>1141</ele>
        <time>2021-08-04T08:41:09.847Z</time>
      </trkpt>
      <trkpt lat="46.99134" lon="8.8121">
        <ele>1141</ele>
        <time>2021-08-04T08:41:10.846Z</time>
      </trkpt>
      <trkpt lat="46.99133" lon="8.8121">
        <ele>1141</ele>
        <time>2021-08-04T08:41:11.847Z</time>
      </trkpt>
      <trkpt lat="46.99134" lon="8.81211">
        <ele>1140</ele>
        <time>2021-08-04T08:41:12.847Z</time>
      </trkpt>
      <trkpt lat="46.99134" lon="8.8121">
        <ele>1140</ele>
        <time>2021-08-04T08:41:13.847Z</time>
      </trkpt>
      <trkpt lat="46.99131" lon="8.81207">
        <ele>1139</ele>
        <time>2021-08-04T08:41:14.848Z</time>
      </trkpt>
      <trkpt lat="46.9913" lon="8.81206">
        <ele>1139</ele>
        <time>2021-08-04T08:41:15.848Z</time>
      </trkpt>
      <trkpt lat="46.9913" lon="8.81206">
        <ele>1139</ele>
        <time>2021-08-04T08:41:16.848Z</time>
      </trkpt>
      <trkpt lat="46.99129" lon="8.81206">
        <ele>1139</ele>
        <time>2021-08-04T08:41:17.847Z</time>
      </trkpt>
      <trkpt lat="46.99129" lon="8.81206">
        <ele>1139</ele>
        <time>2021-08-04T08:41:18.848Z</time>
      </trkpt>
      <trkpt lat="46.99128" lon="8.81205">
        <ele>1139</ele>
        <time>2021-08-04T08:41:19.848Z</time>
      </trkpt>
      <trkpt lat="46.99128" lon="8.81204">
        <ele>1139</ele>
        <time>2021-08-04T08:41:20.847Z</time>
      </trkpt>
      <trkpt lat="46.99127" lon="8.81203">
        <ele>1138</ele>
        <time>2021-08-04T08:41:21.848Z</time>
      </trkpt>
      <trkpt lat="46.99126" lon="8.81201">
        <ele>1138</ele>
        <time>2021-08-04T08:41:22.847Z</time>
      </trkpt>
      <trkpt lat="46.99125" lon="8.812">
        <ele>1138</ele>
        <time>2021-08-04T08:41:23.847Z</time>
      </trkpt>
      <trkpt lat="46.99124" lon="8.81199">
        <ele>1137</ele>
        <time>2021-08-04T08:41:24.847Z</time>
      </trkpt>
      <trkpt lat="46.99124" lon="8.812">
        <ele>1137</ele>
        <time>2021-08-04T08:41:25.848Z</time>
      </trkpt>
      <trkpt lat="46.99123" lon="8.81198">
        <ele>1137</ele>
        <time>2021-08-04T08:41:26.848Z</time>
      </trkpt>
      <trkpt lat="46.99121" lon="8.81197">
        <ele>1137</ele>
        <time>2021-08-04T08:41:27.848Z</time>
      </trkpt>
      <trkpt lat="46.9912" lon="8.81197">
        <ele>1137</ele>
        <time>2021-08-04T08:41:28.848Z</time>
      </trkpt>
      <trkpt lat="46.99119" lon="8.81195">
        <ele>1137</ele>
        <time>2021-08-04T08:41:29.847Z</time>
      </trkpt>
      <trkpt lat="46.99117" lon="8.81194">
        <ele>1137</ele>
        <time>2021-08-04T08:41:30.847Z</time>
      </trkpt>
      <trkpt lat="46.99116" lon="8.81193">
        <ele>1137</ele>
        <time>2021-08-04T08:41:31.847Z</time>
      </trkpt>
      <trkpt lat="46.99115" lon="8.81192">
        <ele>1136</ele>
        <time>2021-08-04T08:41:32.848Z</time>
      </trkpt>
      <trkpt lat="46.99115" lon="8.81192">
        <ele>1136</ele>
        <time>2021-08-04T08:41:33.848Z</time>
      </trkpt>
      <trkpt lat="46.99114" lon="8.81192">
        <ele>1136</ele>
        <time>2021-08-04T08:41:34.848Z</time>
      </trkpt>
      <trkpt lat="46.99113" lon="8.81192">
        <ele>1136</ele>
        <time>2021-08-04T08:41:35.848Z</time>
      </trkpt>
      <trkpt lat="46.99113" lon="8.81192">
        <ele>1135</ele>
        <time>2021-08-04T08:41:36.848Z</time>
      </trkpt>
      <trkpt lat="46.99112" lon="8.81191">
        <ele>1135</ele>
        <time>2021-08-04T08:41:37.847Z</time>
      </trkpt>
      <trkpt lat="46.99112" lon="8.8119">
        <ele>1136</ele>
        <time>2021-08-04T08:41:38.848Z</time>
      </trkpt>
      <trkpt lat="46.99111" lon="8.81189">
        <ele>1136</ele>
        <time>2021-08-04T08:41:39.848Z</time>
      </trkpt>
      <trkpt lat="46.99111" lon="8.81189">
        <ele>1136</ele>
        <time>2021-08-04T08:41:40.848Z</time>
      </trkpt>
      <trkpt lat="46.9911" lon="8.81188">
        <ele>1136</ele>
        <time>2021-08-04T08:41:41.847Z</time>
      </trkpt>
      <trkpt lat="46.99109" lon="8.81187">
        <ele>1135</ele>
        <time>2021-08-04T08:41:42.848Z</time>
      </trkpt>
      <trkpt lat="46.99108" lon="8.81185">
        <ele>1135</ele>
        <time>2021-08-04T08:41:43.848Z</time>
      </trkpt>
      <trkpt lat="46.99107" lon="8.81183">
        <ele>1135</ele>
        <time>2021-08-04T08:41:44.848Z</time>
      </trkpt>
      <trkpt lat="46.99107" lon="8.81182">
        <ele>1135</ele>
        <time>2021-08-04T08:41:45.848Z</time>
      </trkpt>
      <trkpt lat="46.99107" lon="8.81181">
        <ele>1135</ele>
        <time>2021-08-04T08:41:46.847Z</time>
      </trkpt>
      <trkpt lat="46.99106" lon="8.81181">
        <ele>1135</ele>
        <time>2021-08-04T08:41:47.848Z</time>
      </trkpt>
      <trkpt lat="46.99106" lon="8.8118">
        <ele>1135</ele>
        <time>2021-08-04T08:41:48.847Z</time>
      </trkpt>
      <trkpt lat="46.99106" lon="8.81179">
        <ele>1135</ele>
        <time>2021-08-04T08:41:49.848Z</time>
      </trkpt>
      <trkpt lat="46.99105" lon="8.81178">
        <ele>1135</ele>
        <time>2021-08-04T08:41:50.848Z</time>
      </trkpt>
      <trkpt lat="46.99105" lon="8.81178">
        <ele>1136</ele>
        <time>2021-08-04T08:41:51.848Z</time>
      </trkpt>
      <trkpt lat="46.99104" lon="8.81177">
        <ele>1136</ele>
        <time>2021-08-04T08:41:52.848Z</time>
      </trkpt>
      <trkpt lat="46.99103" lon="8.81176">
        <ele>1136</ele>
        <time>2021-08-04T08:41:53.847Z</time>
      </trkpt>
      <trkpt lat="46.99102" lon="8.81175">
        <ele>1136</ele>
        <time>2021-08-04T08:41:54.848Z</time>
      </trkpt>
      <trkpt lat="46.99101" lon="8.81174">
        <ele>1136</ele>
        <time>2021-08-04T08:41:55.848Z</time>
      </trkpt>
      <trkpt lat="46.99101" lon="8.81173">
        <ele>1136</ele>
        <time>2021-08-04T08:41:56.848Z</time>
      </trkpt>
      <trkpt lat="46.991" lon="8.81173">
        <ele>1136</ele>
        <time>2021-08-04T08:41:57.847Z</time>
      </trkpt>
      <trkpt lat="46.99099" lon="8.81172">
        <ele>1136</ele>
        <time>2021-08-04T08:41:58.847Z</time>
      </trkpt>
      <trkpt lat="46.99098" lon="8.81171">
        <ele>1136</ele>
        <time>2021-08-04T08:41:59.848Z</time>
      </trkpt>
      <trkpt lat="46.99097" lon="8.8117">
        <ele>1137</ele>
        <time>2021-08-04T08:42:00.848Z</time>
      </trkpt>
      <trkpt lat="46.99097" lon="8.81169">
        <ele>1137</ele>
        <time>2021-08-04T08:42:01.848Z</time>
      </trkpt>
      <trkpt lat="46.99096" lon="8.81168">
        <ele>1137</ele>
        <time>2021-08-04T08:42:02.848Z</time>
      </trkpt>
      <trkpt lat="46.99095" lon="8.81167">
        <ele>1137</ele>
        <time>2021-08-04T08:42:03.848Z</time>
      </trkpt>
      <trkpt lat="46.99095" lon="8.81166">
        <ele>1136</ele>
        <time>2021-08-04T08:42:04.848Z</time>
      </trkpt>
      <trkpt lat="46.99094" lon="8.81165">
        <ele>1136</ele>
        <time>2021-08-04T08:42:05.847Z</time>
      </trkpt>
      <trkpt lat="46.99094" lon="8.81164">
        <ele>1135</ele>
        <time>2021-08-04T08:42:06.847Z</time>
      </trkpt>
      <trkpt lat="46.99093" lon="8.81163">
        <ele>1134</ele>
        <time>2021-08-04T08:42:07.848Z</time>
      </trkpt>
      <trkpt lat="46.99093" lon="8.81163">
        <ele>1133</ele>
        <time>2021-08-04T08:42:08.848Z</time>
      </trkpt>
      <trkpt lat="46.99092" lon="8.81163">
        <ele>1132</ele>
        <time>2021-08-04T08:42:09.848Z</time>
      </trkpt>
      <trkpt lat="46.99092" lon="8.81162">
        <ele>1131</ele>
        <time>2021-08-04T08:42:10.847Z</time>
      </trkpt>
      <trkpt lat="46.99092" lon="8.81162">
        <ele>1131</ele>
        <time>2021-08-04T08:42:11.848Z</time>
      </trkpt>
      <trkpt lat="46.99092" lon="8.81162">
        <ele>1130</ele>
        <time>2021-08-04T08:42:12.848Z</time>
      </trkpt>
      <trkpt lat="46.99091" lon="8.81162">
        <ele>1130</ele>
        <time>2021-08-04T08:42:13.848Z</time>
      </trkpt>
      <trkpt lat="46.9909" lon="8.8116">
        <ele>1129</ele>
        <time>2021-08-04T08:42:14.848Z</time>
      </trkpt>
      <trkpt lat="46.9909" lon="8.81159">
        <ele>1129</ele>
        <time>2021-08-04T08:42:15.847Z</time>
      </trkpt>
      <trkpt lat="46.99089" lon="8.81158">
        <ele>1129</ele>
        <time>2021-08-04T08:42:16.847Z</time>
      </trkpt>
      <trkpt lat="46.99088" lon="8.81157">
        <ele>1129</ele>
        <time>2021-08-04T08:42:17.847Z</time>
      </trkpt>
      <trkpt lat="46.99087" lon="8.81156">
        <ele>1128</ele>
        <time>2021-08-04T08:42:18.848Z</time>
      </trkpt>
      <trkpt lat="46.99086" lon="8.81155">
        <ele>1128</ele>
        <time>2021-08-04T08:42:19.847Z</time>
      </trkpt>
      <trkpt lat="46.99085" lon="8.81153">
        <ele>1128</ele>
        <time>2021-08-04T08:42:20.848Z</time>
      </trkpt>
      <trkpt lat="46.99084" lon="8.81152">
        <ele>1128</ele>
        <time>2021-08-04T08:42:21.848Z</time>
      </trkpt>
      <trkpt lat="46.99083" lon="8.81151">
        <ele>1128</ele>
        <time>2021-08-04T08:42:22.848Z</time>
      </trkpt>
      <trkpt lat="46.99082" lon="8.8115">
        <ele>1128</ele>
        <time>2021-08-04T08:42:23.848Z</time>
      </trkpt>
      <trkpt lat="46.99081" lon="8.81149">
        <ele>1128</ele>
        <time>2021-08-04T08:42:24.848Z</time>
      </trkpt>
      <trkpt lat="46.9908" lon="8.81148">
        <ele>1128</ele>
        <time>2021-08-04T08:42:25.848Z</time>
      </trkpt>
      <trkpt lat="46.99079" lon="8.81146">
        <ele>1128</ele>
        <time>2021-08-04T08:42:26.848Z</time>
      </trkpt>
      <trkpt lat="46.99078" lon="8.81145">
        <ele>1128</ele>
        <time>2021-08-04T08:42:27.848Z</time>
      </trkpt>
      <trkpt lat="46.99077" lon="8.81143">
        <ele>1128</ele>
        <time>2021-08-04T08:42:28.848Z</time>
      </trkpt>
      <trkpt lat="46.99076" lon="8.81142">
        <ele>1128</ele>
        <time>2021-08-04T08:42:29.848Z</time>
      </trkpt>
      <trkpt lat="46.99076" lon="8.81141">
        <ele>1129</ele>
        <time>2021-08-04T08:42:30.847Z</time>
      </trkpt>
      <trkpt lat="46.99075" lon="8.8114">
        <ele>1129</ele>
        <time>2021-08-04T08:42:31.848Z</time>
      </trkpt>
      <trkpt lat="46.99074" lon="8.81139">
        <ele>1129</ele>
        <time>2021-08-04T08:42:32.848Z</time>
      </trkpt>
      <trkpt lat="46.99073" lon="8.81137">
        <ele>1130</ele>
        <time>2021-08-04T08:42:33.847Z</time>
      </trkpt>
      <trkpt lat="46.99073" lon="8.81136">
        <ele>1130</ele>
        <time>2021-08-04T08:42:34.848Z</time>
      </trkpt>
      <trkpt lat="46.99072" lon="8.81135">
        <ele>1130</ele>
        <time>2021-08-04T08:42:35.847Z</time>
      </trkpt>
      <trkpt lat="46.99071" lon="8.81135">
        <ele>1130</ele>
        <time>2021-08-04T08:42:36.848Z</time>
      </trkpt>
      <trkpt lat="46.99071" lon="8.81135">
        <ele>1130</ele>
        <time>2021-08-04T08:42:37.848Z</time>
      </trkpt>
      <trkpt lat="46.99071" lon="8.81134">
        <ele>1130</ele>
        <time>2021-08-04T08:42:38.848Z</time>
      </trkpt>
      <trkpt lat="46.9907" lon="8.81134">
        <ele>1130</ele>
        <time>2021-08-04T08:42:39.847Z</time>
      </trkpt>
      <trkpt lat="46.9907" lon="8.81134">
        <ele>1130</ele>
        <time>2021-08-04T08:42:40.847Z</time>
      </trkpt>
      <trkpt lat="46.9907" lon="8.81133">
        <ele>1130</ele>
        <time>2021-08-04T08:42:41.847Z</time>
      </trkpt>
      <trkpt lat="46.9907" lon="8.81134">
        <ele>1129</ele>
        <time>2021-08-04T08:42:42.847Z</time>
      </trkpt>
      <trkpt lat="46.99069" lon="8.81135">
        <ele>1125</ele>
        <time>2021-08-04T08:42:43.848Z</time>
      </trkpt>
      <trkpt lat="46.99069" lon="8.81135">
        <ele>1124</ele>
        <time>2021-08-04T08:42:44.849Z</time>
      </trkpt>
      <trkpt lat="46.99067" lon="8.81134">
        <ele>1122</ele>
        <time>2021-08-04T08:42:45.850Z</time>
      </trkpt>
      <trkpt lat="46.99067" lon="8.81133">
        <ele>1122</ele>
        <time>2021-08-04T08:42:46.850Z</time>
      </trkpt>
      <trkpt lat="46.99067" lon="8.81133">
        <ele>1123</ele>
        <time>2021-08-04T08:42:47.849Z</time>
      </trkpt>
      <trkpt lat="46.99067" lon="8.81132">
        <ele>1123</ele>
        <time>2021-08-04T08:42:48.850Z</time>
      </trkpt>
      <trkpt lat="46.99067" lon="8.81131">
        <ele>1124</ele>
        <time>2021-08-04T08:42:49.849Z</time>
      </trkpt>
      <trkpt lat="46.99066" lon="8.81131">
        <ele>1124</ele>
        <time>2021-08-04T08:42:50.850Z</time>
      </trkpt>
      <trkpt lat="46.99066" lon="8.8113">
        <ele>1124</ele>
        <time>2021-08-04T08:42:51.849Z</time>
      </trkpt>
      <trkpt lat="46.99065" lon="8.81129">
        <ele>1124</ele>
        <time>2021-08-04T08:42:52.850Z</time>
      </trkpt>
      <trkpt lat="46.99065" lon="8.81128">
        <ele>1124</ele>
        <time>2021-08-04T08:42:53.849Z</time>
      </trkpt>
      <trkpt lat="46.99066" lon="8.81128">
        <ele>1124</ele>
        <time>2021-08-04T08:42:54.850Z</time>
      </trkpt>
      <trkpt lat="46.99066" lon="8.81128">
        <ele>1123</ele>
        <time>2021-08-04T08:42:55.850Z</time>
      </trkpt>
      <trkpt lat="46.99066" lon="8.81128">
        <ele>1123</ele>
        <time>2021-08-04T08:42:56.849Z</time>
      </trkpt>
      <trkpt lat="46.99069" lon="8.81129">
        <ele>1119</ele>
        <time>2021-08-04T08:42:57.850Z</time>
      </trkpt>
      <trkpt lat="46.99069" lon="8.81128">
        <ele>1119</ele>
        <time>2021-08-04T08:42:58.850Z</time>
      </trkpt>
      <trkpt lat="46.99067" lon="8.81125">
        <ele>1118</ele>
        <time>2021-08-04T08:42:59.850Z</time>
      </trkpt>
      <trkpt lat="46.99067" lon="8.81125">
        <ele>1118</ele>
        <time>2021-08-04T08:43:00.850Z</time>
      </trkpt>
      <trkpt lat="46.99067" lon="8.81124">
        <ele>1118</ele>
        <time>2021-08-04T08:43:01.849Z</time>
      </trkpt>
      <trkpt lat="46.99066" lon="8.81125">
        <ele>1117</ele>
        <time>2021-08-04T08:43:02.850Z</time>
      </trkpt>
      <trkpt lat="46.99066" lon="8.81125">
        <ele>1116</ele>
        <time>2021-08-04T08:43:03.850Z</time>
      </trkpt>
      <trkpt lat="46.99065" lon="8.81125">
        <ele>1115</ele>
        <time>2021-08-04T08:43:04.850Z</time>
      </trkpt>
      <trkpt lat="46.99063" lon="8.81124">
        <ele>1119</ele>
        <time>2021-08-04T08:43:05.851Z</time>
      </trkpt>
      <trkpt lat="46.99065" lon="8.81126">
        <ele>1120</ele>
        <time>2021-08-04T08:43:06.850Z</time>
      </trkpt>
      <trkpt lat="46.99063" lon="8.8113">
        <ele>1121</ele>
        <time>2021-08-04T08:43:07.851Z</time>
      </trkpt>
      <trkpt lat="46.99063" lon="8.8113">
        <ele>1121</ele>
        <time>2021-08-04T08:43:08.851Z</time>
      </trkpt>
      <trkpt lat="46.99063" lon="8.81129">
        <ele>1121</ele>
        <time>2021-08-04T08:43:09.850Z</time>
      </trkpt>
      <trkpt lat="46.99063" lon="8.81129">
        <ele>1121</ele>
        <time>2021-08-04T08:43:10.851Z</time>
      </trkpt>
      <trkpt lat="46.99064" lon="8.81126">
        <ele>1121</ele>
        <time>2021-08-04T08:43:11.853Z</time>
      </trkpt>
      <trkpt lat="46.99064" lon="8.81126">
        <ele>1121</ele>
        <time>2021-08-04T08:43:12.853Z</time>
      </trkpt>
      <trkpt lat="46.99065" lon="8.81119">
        <ele>1124</ele>
        <time>2021-08-04T08:43:13.854Z</time>
      </trkpt>
      <trkpt lat="46.99064" lon="8.81119">
        <ele>1124</ele>
        <time>2021-08-04T08:43:14.854Z</time>
      </trkpt>
      <trkpt lat="46.99065" lon="8.81119">
        <ele>1124</ele>
        <time>2021-08-04T08:43:15.853Z</time>
      </trkpt>
      <trkpt lat="46.99065" lon="8.81119">
        <ele>1124</ele>
        <time>2021-08-04T08:43:16.854Z</time>
      </trkpt>
      <trkpt lat="46.99065" lon="8.81119">
        <ele>1123</ele>
        <time>2021-08-04T08:43:17.854Z</time>
      </trkpt>
      <trkpt lat="46.99067" lon="8.8112">
        <ele>1121</ele>
        <time>2021-08-04T08:43:18.855Z</time>
      </trkpt>
      <trkpt lat="46.99067" lon="8.8112">
        <ele>1121</ele>
        <time>2021-08-04T08:43:19.855Z</time>
      </trkpt>
      <trkpt lat="46.99066" lon="8.81118">
        <ele>1121</ele>
        <time>2021-08-04T08:43:20.855Z</time>
      </trkpt>
      <trkpt lat="46.99066" lon="8.81118">
        <ele>1121</ele>
        <time>2021-08-04T08:43:21.855Z</time>
      </trkpt>
      <trkpt lat="46.99066" lon="8.81117">
        <ele>1121</ele>
        <time>2021-08-04T08:43:22.856Z</time>
      </trkpt>
      <trkpt lat="46.99066" lon="8.81116">
        <ele>1121</ele>
        <time>2021-08-04T08:43:23.855Z</time>
      </trkpt>
      <trkpt lat="46.99065" lon="8.81115">
        <ele>1120</ele>
        <time>2021-08-04T08:43:24.856Z</time>
      </trkpt>
      <trkpt lat="46.99066" lon="8.81115">
        <ele>1120</ele>
        <time>2021-08-04T08:43:25.855Z</time>
      </trkpt>
      <trkpt lat="46.99067" lon="8.81115">
        <ele>1119</ele>
        <time>2021-08-04T08:43:26.855Z</time>
      </trkpt>
      <trkpt lat="46.99067" lon="8.81114">
        <ele>1119</ele>
        <time>2021-08-04T08:43:27.855Z</time>
      </trkpt>
      <trkpt lat="46.99067" lon="8.81113">
        <ele>1119</ele>
        <time>2021-08-04T08:43:28.856Z</time>
      </trkpt>
      <trkpt lat="46.99066" lon="8.81113">
        <ele>1119</ele>
        <time>2021-08-04T08:43:29.855Z</time>
      </trkpt>
      <trkpt lat="46.99066" lon="8.81113">
        <ele>1119</ele>
        <time>2021-08-04T08:43:30.855Z</time>
      </trkpt>
      <trkpt lat="46.99066" lon="8.81112">
        <ele>1119</ele>
        <time>2021-08-04T08:43:31.855Z</time>
      </trkpt>
      <trkpt lat="46.99065" lon="8.81112">
        <ele>1119</ele>
        <time>2021-08-04T08:43:32.856Z</time>
      </trkpt>
      <trkpt lat="46.99065" lon="8.81111">
        <ele>1119</ele>
        <time>2021-08-04T08:43:33.855Z</time>
      </trkpt>
      <trkpt lat="46.99064" lon="8.81107">
        <ele>1120</ele>
        <time>2021-08-04T08:43:34.856Z</time>
      </trkpt>
      <trkpt lat="46.99063" lon="8.81105">
        <ele>1120</ele>
        <time>2021-08-04T08:43:35.856Z</time>
      </trkpt>
      <trkpt lat="46.99063" lon="8.81105">
        <ele>1120</ele>
        <time>2021-08-04T08:43:36.856Z</time>
      </trkpt>
      <trkpt lat="46.99063" lon="8.81104">
        <ele>1120</ele>
        <time>2021-08-04T08:43:37.856Z</time>
      </trkpt>
      <trkpt lat="46.99062" lon="8.81104">
        <ele>1119</ele>
        <time>2021-08-04T08:43:38.856Z</time>
      </trkpt>
      <trkpt lat="46.99062" lon="8.81103">
        <ele>1119</ele>
        <time>2021-08-04T08:43:39.856Z</time>
      </trkpt>
      <trkpt lat="46.99062" lon="8.81103">
        <ele>1118</ele>
        <time>2021-08-04T08:43:40.856Z</time>
      </trkpt>
      <trkpt lat="46.99062" lon="8.81103">
        <ele>1116</ele>
        <time>2021-08-04T08:43:41.856Z</time>
      </trkpt>
      <trkpt lat="46.99062" lon="8.81102">
        <ele>1116</ele>
        <time>2021-08-04T08:43:42.856Z</time>
      </trkpt>
      <trkpt lat="46.99062" lon="8.81101">
        <ele>1116</ele>
        <time>2021-08-04T08:43:43.857Z</time>
      </trkpt>
      <trkpt lat="46.99061" lon="8.81101">
        <ele>1115</ele>
        <time>2021-08-04T08:43:44.857Z</time>
      </trkpt>
      <trkpt lat="46.99061" lon="8.811">
        <ele>1115</ele>
        <time>2021-08-04T08:43:45.857Z</time>
      </trkpt>
      <trkpt lat="46.99061" lon="8.81099">
        <ele>1114</ele>
        <time>2021-08-04T08:43:46.857Z</time>
      </trkpt>
      <trkpt lat="46.99061" lon="8.81098">
        <ele>1114</ele>
        <time>2021-08-04T08:43:47.857Z</time>
      </trkpt>
      <trkpt lat="46.99061" lon="8.81099">
        <ele>1113</ele>
        <time>2021-08-04T08:43:48.856Z</time>
      </trkpt>
      <trkpt lat="46.99061" lon="8.81099">
        <ele>1112</ele>
        <time>2021-08-04T08:43:49.857Z</time>
      </trkpt>
      <trkpt lat="46.99061" lon="8.81098">
        <ele>1111</ele>
        <time>2021-08-04T08:43:50.857Z</time>
      </trkpt>
      <trkpt lat="46.99061" lon="8.81098">
        <ele>1111</ele>
        <time>2021-08-04T08:43:51.856Z</time>
      </trkpt>
      <trkpt lat="46.99061" lon="8.81098">
        <ele>1110</ele>
        <time>2021-08-04T08:43:52.856Z</time>
      </trkpt>
      <trkpt lat="46.9906" lon="8.81096">
        <ele>1106</ele>
        <time>2021-08-04T08:43:53.857Z</time>
      </trkpt>
      <trkpt lat="46.9906" lon="8.81095">
        <ele>1106</ele>
        <time>2021-08-04T08:43:54.857Z</time>
      </trkpt>
      <trkpt lat="46.9906" lon="8.81095">
        <ele>1107</ele>
        <time>2021-08-04T08:43:55.857Z</time>
      </trkpt>
      <trkpt lat="46.9906" lon="8.81094">
        <ele>1106</ele>
        <time>2021-08-04T08:43:56.856Z</time>
      </trkpt>
      <trkpt lat="46.99059" lon="8.81093">
        <ele>1106</ele>
        <time>2021-08-04T08:43:57.857Z</time>
      </trkpt>
      <trkpt lat="46.99059" lon="8.81092">
        <ele>1106</ele>
        <time>2021-08-04T08:43:58.857Z</time>
      </trkpt>
      <trkpt lat="46.99059" lon="8.81091">
        <ele>1106</ele>
        <time>2021-08-04T08:43:59.857Z</time>
      </trkpt>
      <trkpt lat="46.99059" lon="8.81089">
        <ele>1106</ele>
        <time>2021-08-04T08:44:00.857Z</time>
      </trkpt>
      <trkpt lat="46.99058" lon="8.81088">
        <ele>1106</ele>
        <time>2021-08-04T08:44:01.857Z</time>
      </trkpt>
      <trkpt lat="46.99058" lon="8.81087">
        <ele>1106</ele>
        <time>2021-08-04T08:44:02.856Z</time>
      </trkpt>
      <trkpt lat="46.99058" lon="8.81086">
        <ele>1106</ele>
        <time>2021-08-04T08:44:03.857Z</time>
      </trkpt>
      <trkpt lat="46.99057" lon="8.81084">
        <ele>1106</ele>
        <time>2021-08-04T08:44:04.856Z</time>
      </trkpt>
      <trkpt lat="46.99057" lon="8.81083">
        <ele>1106</ele>
        <time>2021-08-04T08:44:05.857Z</time>
      </trkpt>
      <trkpt lat="46.99058" lon="8.81082">
        <ele>1106</ele>
        <time>2021-08-04T08:44:06.857Z</time>
      </trkpt>
      <trkpt lat="46.99058" lon="8.81081">
        <ele>1106</ele>
        <time>2021-08-04T08:44:07.856Z</time>
      </trkpt>
      <trkpt lat="46.99057" lon="8.8108">
        <ele>1106</ele>
        <time>2021-08-04T08:44:08.856Z</time>
      </trkpt>
      <trkpt lat="46.99057" lon="8.81079">
        <ele>1106</ele>
        <time>2021-08-04T08:44:09.857Z</time>
      </trkpt>
      <trkpt lat="46.99057" lon="8.81077">
        <ele>1106</ele>
        <time>2021-08-04T08:44:10.857Z</time>
      </trkpt>
      <trkpt lat="46.99057" lon="8.81076">
        <ele>1106</ele>
        <time>2021-08-04T08:44:11.857Z</time>
      </trkpt>
      <trkpt lat="46.99057" lon="8.81074">
        <ele>1107</ele>
        <time>2021-08-04T08:44:12.857Z</time>
      </trkpt>
      <trkpt lat="46.99057" lon="8.81073">
        <ele>1107</ele>
        <time>2021-08-04T08:44:13.857Z</time>
      </trkpt>
      <trkpt lat="46.99057" lon="8.81071">
        <ele>1108</ele>
        <time>2021-08-04T08:44:14.857Z</time>
      </trkpt>
      <trkpt lat="46.99056" lon="8.8107">
        <ele>1108</ele>
        <time>2021-08-04T08:44:15.856Z</time>
      </trkpt>
      <trkpt lat="46.99056" lon="8.81069">
        <ele>1108</ele>
        <time>2021-08-04T08:44:16.857Z</time>
      </trkpt>
      <trkpt lat="46.99056" lon="8.81067">
        <ele>1108</ele>
        <time>2021-08-04T08:44:17.857Z</time>
      </trkpt>
      <trkpt lat="46.99055" lon="8.81066">
        <ele>1108</ele>
        <time>2021-08-04T08:44:18.856Z</time>
      </trkpt>
      <trkpt lat="46.99055" lon="8.81065">
        <ele>1108</ele>
        <time>2021-08-04T08:44:19.857Z</time>
      </trkpt>
      <trkpt lat="46.99054" lon="8.81063">
        <ele>1108</ele>
        <time>2021-08-04T08:44:20.856Z</time>
      </trkpt>
      <trkpt lat="46.99054" lon="8.81061">
        <ele>1107</ele>
        <time>2021-08-04T08:44:21.856Z</time>
      </trkpt>
      <trkpt lat="46.99054" lon="8.8106">
        <ele>1107</ele>
        <time>2021-08-04T08:44:22.856Z</time>
      </trkpt>
      <trkpt lat="46.99053" lon="8.81059">
        <ele>1107</ele>
        <time>2021-08-04T08:44:23.857Z</time>
      </trkpt>
      <trkpt lat="46.99053" lon="8.81058">
        <ele>1106</ele>
        <time>2021-08-04T08:44:24.857Z</time>
      </trkpt>
      <trkpt lat="46.99053" lon="8.81056">
        <ele>1106</ele>
        <time>2021-08-04T08:44:25.857Z</time>
      </trkpt>
      <trkpt lat="46.99053" lon="8.81055">
        <ele>1105</ele>
        <time>2021-08-04T08:44:26.856Z</time>
      </trkpt>
      <trkpt lat="46.99053" lon="8.81054">
        <ele>1105</ele>
        <time>2021-08-04T08:44:27.856Z</time>
      </trkpt>
      <trkpt lat="46.99053" lon="8.81053">
        <ele>1105</ele>
        <time>2021-08-04T08:44:28.856Z</time>
      </trkpt>
      <trkpt lat="46.99053" lon="8.81052">
        <ele>1105</ele>
        <time>2021-08-04T08:44:29.856Z</time>
      </trkpt>
      <trkpt lat="46.99052" lon="8.8105">
        <ele>1105</ele>
        <time>2021-08-04T08:44:30.856Z</time>
      </trkpt>
      <trkpt lat="46.99052" lon="8.81049">
        <ele>1105</ele>
        <time>2021-08-04T08:44:31.856Z</time>
      </trkpt>
      <trkpt lat="46.99052" lon="8.81047">
        <ele>1104</ele>
        <time>2021-08-04T08:44:32.857Z</time>
      </trkpt>
      <trkpt lat="46.99051" lon="8.81045">
        <ele>1104</ele>
        <time>2021-08-04T08:44:33.857Z</time>
      </trkpt>
      <trkpt lat="46.99051" lon="8.81044">
        <ele>1104</ele>
        <time>2021-08-04T08:44:34.857Z</time>
      </trkpt>
      <trkpt lat="46.9905" lon="8.81043">
        <ele>1103</ele>
        <time>2021-08-04T08:44:35.857Z</time>
      </trkpt>
      <trkpt lat="46.9905" lon="8.81042">
        <ele>1103</ele>
        <time>2021-08-04T08:44:36.857Z</time>
      </trkpt>
      <trkpt lat="46.99049" lon="8.81041">
        <ele>1103</ele>
        <time>2021-08-04T08:44:37.856Z</time>
      </trkpt>
      <trkpt lat="46.99049" lon="8.8104">
        <ele>1102</ele>
        <time>2021-08-04T08:44:38.857Z</time>
      </trkpt>
      <trkpt lat="46.99049" lon="8.81039">
        <ele>1102</ele>
        <time>2021-08-04T08:44:39.857Z</time>
      </trkpt>
      <trkpt lat="46.99049" lon="8.81038">
        <ele>1102</ele>
        <time>2021-08-04T08:44:40.857Z</time>
      </trkpt>
      <trkpt lat="46.99049" lon="8.81037">
        <ele>1102</ele>
        <time>2021-08-04T08:44:41.857Z</time>
      </trkpt>
      <trkpt lat="46.9905" lon="8.81036">
        <ele>1102</ele>
        <time>2021-08-04T08:44:42.856Z</time>
      </trkpt>
      <trkpt lat="46.9905" lon="8.81035">
        <ele>1102</ele>
        <time>2021-08-04T08:44:43.857Z</time>
      </trkpt>
      <trkpt lat="46.9905" lon="8.81034">
        <ele>1101</ele>
        <time>2021-08-04T08:44:44.857Z</time>
      </trkpt>
      <trkpt lat="46.99051" lon="8.81032">
        <ele>1101</ele>
        <time>2021-08-04T08:44:45.856Z</time>
      </trkpt>
      <trkpt lat="46.99051" lon="8.81029">
        <ele>1101</ele>
        <time>2021-08-04T08:44:46.857Z</time>
      </trkpt>
      <trkpt lat="46.99051" lon="8.81027">
        <ele>1100</ele>
        <time>2021-08-04T08:44:47.856Z</time>
      </trkpt>
      <trkpt lat="46.99052" lon="8.81026">
        <ele>1100</ele>
        <time>2021-08-04T08:44:48.856Z</time>
      </trkpt>
      <trkpt lat="46.99052" lon="8.81024">
        <ele>1100</ele>
        <time>2021-08-04T08:44:49.856Z</time>
      </trkpt>
      <trkpt lat="46.99052" lon="8.81023">
        <ele>1100</ele>
        <time>2021-08-04T08:44:50.857Z</time>
      </trkpt>
      <trkpt lat="46.99052" lon="8.81022">
        <ele>1100</ele>
        <time>2021-08-04T08:44:51.856Z</time>
      </trkpt>
      <trkpt lat="46.99051" lon="8.8102">
        <ele>1100</ele>
        <time>2021-08-04T08:44:52.856Z</time>
      </trkpt>
      <trkpt lat="46.99051" lon="8.81019">
        <ele>1100</ele>
        <time>2021-08-04T08:44:53.856Z</time>
      </trkpt>
      <trkpt lat="46.9905" lon="8.81017">
        <ele>1099</ele>
        <time>2021-08-04T08:44:54.856Z</time>
      </trkpt>
      <trkpt lat="46.9905" lon="8.81016">
        <ele>1099</ele>
        <time>2021-08-04T08:44:55.857Z</time>
      </trkpt>
      <trkpt lat="46.9905" lon="8.81015">
        <ele>1099</ele>
        <time>2021-08-04T08:44:56.857Z</time>
      </trkpt>
      <trkpt lat="46.9905" lon="8.81014">
        <ele>1100</ele>
        <time>2021-08-04T08:44:57.856Z</time>
      </trkpt>
      <trkpt lat="46.9905" lon="8.81013">
        <ele>1100</ele>
        <time>2021-08-04T08:44:58.857Z</time>
      </trkpt>
      <trkpt lat="46.9905" lon="8.81012">
        <ele>1100</ele>
        <time>2021-08-04T08:44:59.857Z</time>
      </trkpt>
      <trkpt lat="46.9905" lon="8.8101">
        <ele>1101</ele>
        <time>2021-08-04T08:45:00.856Z</time>
      </trkpt>
      <trkpt lat="46.9905" lon="8.81009">
        <ele>1101</ele>
        <time>2021-08-04T08:45:01.856Z</time>
      </trkpt>
      <trkpt lat="46.9905" lon="8.81007">
        <ele>1101</ele>
        <time>2021-08-04T08:45:02.856Z</time>
      </trkpt>
      <trkpt lat="46.9905" lon="8.81006">
        <ele>1101</ele>
        <time>2021-08-04T08:45:03.856Z</time>
      </trkpt>
      <trkpt lat="46.9905" lon="8.81004">
        <ele>1101</ele>
        <time>2021-08-04T08:45:04.856Z</time>
      </trkpt>
      <trkpt lat="46.9905" lon="8.81003">
        <ele>1101</ele>
        <time>2021-08-04T08:45:05.857Z</time>
      </trkpt>
      <trkpt lat="46.99049" lon="8.81002">
        <ele>1101</ele>
        <time>2021-08-04T08:45:06.856Z</time>
      </trkpt>
      <trkpt lat="46.9905" lon="8.81">
        <ele>1101</ele>
        <time>2021-08-04T08:45:07.856Z</time>
      </trkpt>
      <trkpt lat="46.9905" lon="8.80998">
        <ele>1101</ele>
        <time>2021-08-04T08:45:08.856Z</time>
      </trkpt>
      <trkpt lat="46.9905" lon="8.80997">
        <ele>1102</ele>
        <time>2021-08-04T08:45:09.856Z</time>
      </trkpt>
      <trkpt lat="46.9905" lon="8.80996">
        <ele>1102</ele>
        <time>2021-08-04T08:45:10.856Z</time>
      </trkpt>
      <trkpt lat="46.9905" lon="8.80995">
        <ele>1102</ele>
        <time>2021-08-04T08:45:11.856Z</time>
      </trkpt>
      <trkpt lat="46.9905" lon="8.80994">
        <ele>1103</ele>
        <time>2021-08-04T08:45:12.857Z</time>
      </trkpt>
      <trkpt lat="46.9905" lon="8.80992">
        <ele>1103</ele>
        <time>2021-08-04T08:45:13.857Z</time>
      </trkpt>
      <trkpt lat="46.99051" lon="8.80992">
        <ele>1103</ele>
        <time>2021-08-04T08:45:14.856Z</time>
      </trkpt>
      <trkpt lat="46.99051" lon="8.8099">
        <ele>1103</ele>
        <time>2021-08-04T08:45:15.856Z</time>
      </trkpt>
      <trkpt lat="46.99051" lon="8.80989">
        <ele>1103</ele>
        <time>2021-08-04T08:45:16.856Z</time>
      </trkpt>
      <trkpt lat="46.9905" lon="8.80988">
        <ele>1103</ele>
        <time>2021-08-04T08:45:17.857Z</time>
      </trkpt>
      <trkpt lat="46.9905" lon="8.80987">
        <ele>1103</ele>
        <time>2021-08-04T08:45:18.857Z</time>
      </trkpt>
      <trkpt lat="46.9905" lon="8.80986">
        <ele>1103</ele>
        <time>2021-08-04T08:45:19.857Z</time>
      </trkpt>
      <trkpt lat="46.9905" lon="8.80985">
        <ele>1103</ele>
        <time>2021-08-04T08:45:20.856Z</time>
      </trkpt>
      <trkpt lat="46.9905" lon="8.80984">
        <ele>1103</ele>
        <time>2021-08-04T08:45:21.857Z</time>
      </trkpt>
      <trkpt lat="46.9905" lon="8.80982">
        <ele>1103</ele>
        <time>2021-08-04T08:45:22.857Z</time>
      </trkpt>
      <trkpt lat="46.9905" lon="8.80981">
        <ele>1103</ele>
        <time>2021-08-04T08:45:23.857Z</time>
      </trkpt>
      <trkpt lat="46.9905" lon="8.8098">
        <ele>1104</ele>
        <time>2021-08-04T08:45:24.857Z</time>
      </trkpt>
      <trkpt lat="46.99049" lon="8.80979">
        <ele>1104</ele>
        <time>2021-08-04T08:45:25.857Z</time>
      </trkpt>
      <trkpt lat="46.99049" lon="8.80977">
        <ele>1104</ele>
        <time>2021-08-04T08:45:26.856Z</time>
      </trkpt>
      <trkpt lat="46.99048" lon="8.80976">
        <ele>1104</ele>
        <time>2021-08-04T08:45:27.857Z</time>
      </trkpt>
      <trkpt lat="46.99048" lon="8.80974">
        <ele>1104</ele>
        <time>2021-08-04T08:45:28.857Z</time>
      </trkpt>
      <trkpt lat="46.99048" lon="8.80973">
        <ele>1104</ele>
        <time>2021-08-04T08:45:29.857Z</time>
      </trkpt>
      <trkpt lat="46.99048" lon="8.80972">
        <ele>1104</ele>
        <time>2021-08-04T08:45:30.857Z</time>
      </trkpt>
      <trkpt lat="46.99048" lon="8.80971">
        <ele>1104</ele>
        <time>2021-08-04T08:45:31.856Z</time>
      </trkpt>
      <trkpt lat="46.99048" lon="8.8097">
        <ele>1103</ele>
        <time>2021-08-04T08:45:32.857Z</time>
      </trkpt>
      <trkpt lat="46.99048" lon="8.80968">
        <ele>1103</ele>
        <time>2021-08-04T08:45:33.857Z</time>
      </trkpt>
      <trkpt lat="46.99048" lon="8.80967">
        <ele>1104</ele>
        <time>2021-08-04T08:45:34.856Z</time>
      </trkpt>
      <trkpt lat="46.99048" lon="8.80966">
        <ele>1104</ele>
        <time>2021-08-04T08:45:35.857Z</time>
      </trkpt>
      <trkpt lat="46.99048" lon="8.80965">
        <ele>1104</ele>
        <time>2021-08-04T08:45:36.857Z</time>
      </trkpt>
      <trkpt lat="46.99048" lon="8.80964">
        <ele>1104</ele>
        <time>2021-08-04T08:45:37.856Z</time>
      </trkpt>
      <trkpt lat="46.99048" lon="8.80963">
        <ele>1104</ele>
        <time>2021-08-04T08:45:38.857Z</time>
      </trkpt>
      <trkpt lat="46.99048" lon="8.80962">
        <ele>1104</ele>
        <time>2021-08-04T08:45:39.857Z</time>
      </trkpt>
      <trkpt lat="46.99048" lon="8.80962">
        <ele>1104</ele>
        <time>2021-08-04T08:45:40.857Z</time>
      </trkpt>
      <trkpt lat="46.99048" lon="8.8096">
        <ele>1103</ele>
        <time>2021-08-04T08:45:41.857Z</time>
      </trkpt>
      <trkpt lat="46.99048" lon="8.8096">
        <ele>1103</ele>
        <time>2021-08-04T08:45:42.857Z</time>
      </trkpt>
      <trkpt lat="46.99047" lon="8.80959">
        <ele>1102</ele>
        <time>2021-08-04T08:45:43.857Z</time>
      </trkpt>
      <trkpt lat="46.99046" lon="8.80958">
        <ele>1101</ele>
        <time>2021-08-04T08:45:44.856Z</time>
      </trkpt>
      <trkpt lat="46.99046" lon="8.80957">
        <ele>1101</ele>
        <time>2021-08-04T08:45:45.856Z</time>
      </trkpt>
      <trkpt lat="46.99046" lon="8.80955">
        <ele>1101</ele>
        <time>2021-08-04T08:45:46.857Z</time>
      </trkpt>
      <trkpt lat="46.99046" lon="8.80954">
        <ele>1101</ele>
        <time>2021-08-04T08:45:47.857Z</time>
      </trkpt>
      <trkpt lat="46.99045" lon="8.80953">
        <ele>1101</ele>
        <time>2021-08-04T08:45:48.856Z</time>
      </trkpt>
      <trkpt lat="46.99045" lon="8.80952">
        <ele>1101</ele>
        <time>2021-08-04T08:45:49.857Z</time>
      </trkpt>
      <trkpt lat="46.99045" lon="8.80951">
        <ele>1101</ele>
        <time>2021-08-04T08:45:50.857Z</time>
      </trkpt>
      <trkpt lat="46.99045" lon="8.80951">
        <ele>1101</ele>
        <time>2021-08-04T08:45:51.857Z</time>
      </trkpt>
      <trkpt lat="46.99044" lon="8.80949">
        <ele>1100</ele>
        <time>2021-08-04T08:45:52.856Z</time>
      </trkpt>
      <trkpt lat="46.99044" lon="8.80949">
        <ele>1099</ele>
        <time>2021-08-04T08:45:53.856Z</time>
      </trkpt>
      <trkpt lat="46.99044" lon="8.80948">
        <ele>1098</ele>
        <time>2021-08-04T08:45:54.857Z</time>
      </trkpt>
      <trkpt lat="46.99043" lon="8.80947">
        <ele>1097</ele>
        <time>2021-08-04T08:45:55.857Z</time>
      </trkpt>
      <trkpt lat="46.99043" lon="8.80946">
        <ele>1097</ele>
        <time>2021-08-04T08:45:56.856Z</time>
      </trkpt>
      <trkpt lat="46.99043" lon="8.80946">
        <ele>1096</ele>
        <time>2021-08-04T08:45:57.857Z</time>
      </trkpt>
      <trkpt lat="46.99043" lon="8.80945">
        <ele>1096</ele>
        <time>2021-08-04T08:45:58.856Z</time>
      </trkpt>
      <trkpt lat="46.99043" lon="8.80944">
        <ele>1096</ele>
        <time>2021-08-04T08:45:59.856Z</time>
      </trkpt>
      <trkpt lat="46.99042" lon="8.80943">
        <ele>1095</ele>
        <time>2021-08-04T08:46:00.857Z</time>
      </trkpt>
      <trkpt lat="46.99042" lon="8.80943">
        <ele>1095</ele>
        <time>2021-08-04T08:46:01.857Z</time>
      </trkpt>
      <trkpt lat="46.99042" lon="8.80941">
        <ele>1095</ele>
        <time>2021-08-04T08:46:02.856Z</time>
      </trkpt>
      <trkpt lat="46.99042" lon="8.8094">
        <ele>1095</ele>
        <time>2021-08-04T08:46:03.857Z</time>
      </trkpt>
      <trkpt lat="46.99041" lon="8.80939">
        <ele>1094</ele>
        <time>2021-08-04T08:46:04.856Z</time>
      </trkpt>
      <trkpt lat="46.99041" lon="8.80938">
        <ele>1094</ele>
        <time>2021-08-04T08:46:05.857Z</time>
      </trkpt>
      <trkpt lat="46.99041" lon="8.80937">
        <ele>1093</ele>
        <time>2021-08-04T08:46:06.857Z</time>
      </trkpt>
      <trkpt lat="46.99041" lon="8.80936">
        <ele>1093</ele>
        <time>2021-08-04T08:46:07.857Z</time>
      </trkpt>
      <trkpt lat="46.99041" lon="8.80935">
        <ele>1093</ele>
        <time>2021-08-04T08:46:08.857Z</time>
      </trkpt>
      <trkpt lat="46.9904" lon="8.80934">
        <ele>1092</ele>
        <time>2021-08-04T08:46:09.857Z</time>
      </trkpt>
      <trkpt lat="46.9904" lon="8.80932">
        <ele>1092</ele>
        <time>2021-08-04T08:46:10.857Z</time>
      </trkpt>
      <trkpt lat="46.99041" lon="8.80931">
        <ele>1092</ele>
        <time>2021-08-04T08:46:11.857Z</time>
      </trkpt>
      <trkpt lat="46.99041" lon="8.80929">
        <ele>1092</ele>
        <time>2021-08-04T08:46:12.857Z</time>
      </trkpt>
      <trkpt lat="46.99041" lon="8.80928">
        <ele>1092</ele>
        <time>2021-08-04T08:46:13.856Z</time>
      </trkpt>
      <trkpt lat="46.99041" lon="8.80927">
        <ele>1092</ele>
        <time>2021-08-04T08:46:14.857Z</time>
      </trkpt>
      <trkpt lat="46.99042" lon="8.80925">
        <ele>1092</ele>
        <time>2021-08-04T08:46:15.857Z</time>
      </trkpt>
      <trkpt lat="46.99042" lon="8.80924">
        <ele>1092</ele>
        <time>2021-08-04T08:46:16.857Z</time>
      </trkpt>
      <trkpt lat="46.99042" lon="8.80921">
        <ele>1093</ele>
        <time>2021-08-04T08:46:17.857Z</time>
      </trkpt>
      <trkpt lat="46.99041" lon="8.8092">
        <ele>1093</ele>
        <time>2021-08-04T08:46:18.857Z</time>
      </trkpt>
      <trkpt lat="46.99041" lon="8.80918">
        <ele>1093</ele>
        <time>2021-08-04T08:46:19.857Z</time>
      </trkpt>
      <trkpt lat="46.9904" lon="8.80917">
        <ele>1093</ele>
        <time>2021-08-04T08:46:20.857Z</time>
      </trkpt>
      <trkpt lat="46.9904" lon="8.80916">
        <ele>1094</ele>
        <time>2021-08-04T08:46:21.857Z</time>
      </trkpt>
      <trkpt lat="46.9904" lon="8.80915">
        <ele>1094</ele>
        <time>2021-08-04T08:46:22.856Z</time>
      </trkpt>
      <trkpt lat="46.9904" lon="8.80914">
        <ele>1094</ele>
        <time>2021-08-04T08:46:23.856Z</time>
      </trkpt>
      <trkpt lat="46.99041" lon="8.80913">
        <ele>1095</ele>
        <time>2021-08-04T08:46:24.857Z</time>
      </trkpt>
      <trkpt lat="46.99041" lon="8.80912">
        <ele>1095</ele>
        <time>2021-08-04T08:46:25.857Z</time>
      </trkpt>
      <trkpt lat="46.99042" lon="8.80911">
        <ele>1096</ele>
        <time>2021-08-04T08:46:26.856Z</time>
      </trkpt>
      <trkpt lat="46.99043" lon="8.8091">
        <ele>1097</ele>
        <time>2021-08-04T08:46:27.857Z</time>
      </trkpt>
      <trkpt lat="46.99043" lon="8.8091">
        <ele>1097</ele>
        <time>2021-08-04T08:46:28.856Z</time>
      </trkpt>
      <trkpt lat="46.99043" lon="8.80909">
        <ele>1097</ele>
        <time>2021-08-04T08:46:29.856Z</time>
      </trkpt>
      <trkpt lat="46.99044" lon="8.80908">
        <ele>1097</ele>
        <time>2021-08-04T08:46:30.857Z</time>
      </trkpt>
      <trkpt lat="46.99044" lon="8.80907">
        <ele>1097</ele>
        <time>2021-08-04T08:46:31.857Z</time>
      </trkpt>
      <trkpt lat="46.99044" lon="8.80907">
        <ele>1097</ele>
        <time>2021-08-04T08:46:32.857Z</time>
      </trkpt>
      <trkpt lat="46.99044" lon="8.80907">
        <ele>1097</ele>
        <time>2021-08-04T08:46:33.857Z</time>
      </trkpt>
      <trkpt lat="46.99044" lon="8.80902">
        <ele>1098</ele>
        <time>2021-08-04T08:46:34.857Z</time>
      </trkpt>
      <trkpt lat="46.99045" lon="8.80901">
        <ele>1098</ele>
        <time>2021-08-04T08:46:35.857Z</time>
      </trkpt>
      <trkpt lat="46.99045" lon="8.809">
        <ele>1099</ele>
        <time>2021-08-04T08:46:36.857Z</time>
      </trkpt>
      <trkpt lat="46.99044" lon="8.80898">
        <ele>1099</ele>
        <time>2021-08-04T08:46:37.857Z</time>
      </trkpt>
      <trkpt lat="46.99044" lon="8.80896">
        <ele>1099</ele>
        <time>2021-08-04T08:46:38.858Z</time>
      </trkpt>
      <trkpt lat="46.99045" lon="8.80895">
        <ele>1099</ele>
        <time>2021-08-04T08:46:39.857Z</time>
      </trkpt>
      <trkpt lat="46.99045" lon="8.80894">
        <ele>1099</ele>
        <time>2021-08-04T08:46:40.857Z</time>
      </trkpt>
      <trkpt lat="46.99045" lon="8.80893">
        <ele>1098</ele>
        <time>2021-08-04T08:46:41.857Z</time>
      </trkpt>
      <trkpt lat="46.99046" lon="8.80894">
        <ele>1098</ele>
        <time>2021-08-04T08:46:42.857Z</time>
      </trkpt>
      <trkpt lat="46.99047" lon="8.80892">
        <ele>1097</ele>
        <time>2021-08-04T08:46:43.857Z</time>
      </trkpt>
      <trkpt lat="46.99047" lon="8.8089">
        <ele>1097</ele>
        <time>2021-08-04T08:46:44.857Z</time>
      </trkpt>
      <trkpt lat="46.99047" lon="8.80889">
        <ele>1097</ele>
        <time>2021-08-04T08:46:45.858Z</time>
      </trkpt>
      <trkpt lat="46.99047" lon="8.80887">
        <ele>1097</ele>
        <time>2021-08-04T08:46:46.858Z</time>
      </trkpt>
      <trkpt lat="46.99047" lon="8.80886">
        <ele>1097</ele>
        <time>2021-08-04T08:46:47.857Z</time>
      </trkpt>
      <trkpt lat="46.99047" lon="8.80885">
        <ele>1097</ele>
        <time>2021-08-04T08:46:48.858Z</time>
      </trkpt>
      <trkpt lat="46.99047" lon="8.80884">
        <ele>1097</ele>
        <time>2021-08-04T08:46:49.857Z</time>
      </trkpt>
      <trkpt lat="46.99048" lon="8.80883">
        <ele>1097</ele>
        <time>2021-08-04T08:46:50.857Z</time>
      </trkpt>
      <trkpt lat="46.99048" lon="8.80882">
        <ele>1097</ele>
        <time>2021-08-04T08:46:51.857Z</time>
      </trkpt>
      <trkpt lat="46.9905" lon="8.80883">
        <ele>1098</ele>
        <time>2021-08-04T08:46:52.857Z</time>
      </trkpt>
      <trkpt lat="46.99051" lon="8.80883">
        <ele>1098</ele>
        <time>2021-08-04T08:46:53.857Z</time>
      </trkpt>
      <trkpt lat="46.99054" lon="8.80881">
        <ele>1091</ele>
        <time>2021-08-04T08:46:54.857Z</time>
      </trkpt>
      <trkpt lat="46.99054" lon="8.80879">
        <ele>1092</ele>
        <time>2021-08-04T08:46:55.858Z</time>
      </trkpt>
      <trkpt lat="46.99054" lon="8.80877">
        <ele>1092</ele>
        <time>2021-08-04T08:46:56.857Z</time>
      </trkpt>
      <trkpt lat="46.99054" lon="8.80874">
        <ele>1092</ele>
        <time>2021-08-04T08:46:57.857Z</time>
      </trkpt>
      <trkpt lat="46.99054" lon="8.80873">
        <ele>1092</ele>
        <time>2021-08-04T08:46:58.857Z</time>
      </trkpt>
      <trkpt lat="46.99054" lon="8.80871">
        <ele>1091</ele>
        <time>2021-08-04T08:46:59.857Z</time>
      </trkpt>
      <trkpt lat="46.99053" lon="8.80869">
        <ele>1091</ele>
        <time>2021-08-04T08:47:00.858Z</time>
      </trkpt>
      <trkpt lat="46.99053" lon="8.80868">
        <ele>1091</ele>
        <time>2021-08-04T08:47:01.857Z</time>
      </trkpt>
      <trkpt lat="46.99053" lon="8.80867">
        <ele>1091</ele>
        <time>2021-08-04T08:47:02.858Z</time>
      </trkpt>
      <trkpt lat="46.99053" lon="8.80866">
        <ele>1091</ele>
        <time>2021-08-04T08:47:03.858Z</time>
      </trkpt>
      <trkpt lat="46.99054" lon="8.80864">
        <ele>1091</ele>
        <time>2021-08-04T08:47:04.857Z</time>
      </trkpt>
      <trkpt lat="46.99055" lon="8.80863">
        <ele>1091</ele>
        <time>2021-08-04T08:47:05.857Z</time>
      </trkpt>
      <trkpt lat="46.99054" lon="8.80861">
        <ele>1091</ele>
        <time>2021-08-04T08:47:06.857Z</time>
      </trkpt>
      <trkpt lat="46.99054" lon="8.80859">
        <ele>1091</ele>
        <time>2021-08-04T08:47:07.857Z</time>
      </trkpt>
      <trkpt lat="46.99054" lon="8.80857">
        <ele>1091</ele>
        <time>2021-08-04T08:47:08.857Z</time>
      </trkpt>
      <trkpt lat="46.99054" lon="8.80855">
        <ele>1092</ele>
        <time>2021-08-04T08:47:09.857Z</time>
      </trkpt>
      <trkpt lat="46.99054" lon="8.80853">
        <ele>1092</ele>
        <time>2021-08-04T08:47:10.857Z</time>
      </trkpt>
      <trkpt lat="46.99054" lon="8.80852">
        <ele>1092</ele>
        <time>2021-08-04T08:47:11.858Z</time>
      </trkpt>
      <trkpt lat="46.99054" lon="8.80851">
        <ele>1092</ele>
        <time>2021-08-04T08:47:12.857Z</time>
      </trkpt>
      <trkpt lat="46.99053" lon="8.8085">
        <ele>1093</ele>
        <time>2021-08-04T08:47:13.857Z</time>
      </trkpt>
      <trkpt lat="46.99053" lon="8.80849">
        <ele>1093</ele>
        <time>2021-08-04T08:47:14.857Z</time>
      </trkpt>
      <trkpt lat="46.99053" lon="8.80847">
        <ele>1093</ele>
        <time>2021-08-04T08:47:15.857Z</time>
      </trkpt>
      <trkpt lat="46.99053" lon="8.80846">
        <ele>1093</ele>
        <time>2021-08-04T08:47:16.857Z</time>
      </trkpt>
      <trkpt lat="46.99052" lon="8.80844">
        <ele>1093</ele>
        <time>2021-08-04T08:47:17.857Z</time>
      </trkpt>
      <trkpt lat="46.99052" lon="8.80842">
        <ele>1092</ele>
        <time>2021-08-04T08:47:18.857Z</time>
      </trkpt>
      <trkpt lat="46.99052" lon="8.8084">
        <ele>1092</ele>
        <time>2021-08-04T08:47:19.857Z</time>
      </trkpt>
      <trkpt lat="46.99052" lon="8.80839">
        <ele>1092</ele>
        <time>2021-08-04T08:47:20.857Z</time>
      </trkpt>
      <trkpt lat="46.99053" lon="8.80838">
        <ele>1092</ele>
        <time>2021-08-04T08:47:21.858Z</time>
      </trkpt>
      <trkpt lat="46.99053" lon="8.80837">
        <ele>1092</ele>
        <time>2021-08-04T08:47:22.858Z</time>
      </trkpt>
      <trkpt lat="46.99053" lon="8.80836">
        <ele>1092</ele>
        <time>2021-08-04T08:47:23.857Z</time>
      </trkpt>
      <trkpt lat="46.99053" lon="8.80835">
        <ele>1092</ele>
        <time>2021-08-04T08:47:24.857Z</time>
      </trkpt>
      <trkpt lat="46.99053" lon="8.80834">
        <ele>1091</ele>
        <time>2021-08-04T08:47:25.858Z</time>
      </trkpt>
      <trkpt lat="46.99053" lon="8.80832">
        <ele>1091</ele>
        <time>2021-08-04T08:47:26.857Z</time>
      </trkpt>
      <trkpt lat="46.99054" lon="8.8083">
        <ele>1090</ele>
        <time>2021-08-04T08:47:27.857Z</time>
      </trkpt>
      <trkpt lat="46.99054" lon="8.80829">
        <ele>1090</ele>
        <time>2021-08-04T08:47:28.857Z</time>
      </trkpt>
      <trkpt lat="46.99053" lon="8.80827">
        <ele>1089</ele>
        <time>2021-08-04T08:47:29.858Z</time>
      </trkpt>
      <trkpt lat="46.99053" lon="8.80825">
        <ele>1089</ele>
        <time>2021-08-04T08:47:30.858Z</time>
      </trkpt>
      <trkpt lat="46.99054" lon="8.80823">
        <ele>1089</ele>
        <time>2021-08-04T08:47:31.857Z</time>
      </trkpt>
      <trkpt lat="46.99055" lon="8.80822">
        <ele>1089</ele>
        <time>2021-08-04T08:47:32.857Z</time>
      </trkpt>
      <trkpt lat="46.99055" lon="8.80821">
        <ele>1090</ele>
        <time>2021-08-04T08:47:33.857Z</time>
      </trkpt>
      <trkpt lat="46.99055" lon="8.80819">
        <ele>1090</ele>
        <time>2021-08-04T08:47:34.857Z</time>
      </trkpt>
      <trkpt lat="46.99055" lon="8.80818">
        <ele>1090</ele>
        <time>2021-08-04T08:47:35.858Z</time>
      </trkpt>
      <trkpt lat="46.99056" lon="8.80817">
        <ele>1090</ele>
        <time>2021-08-04T08:47:36.857Z</time>
      </trkpt>
      <trkpt lat="46.99056" lon="8.80816">
        <ele>1090</ele>
        <time>2021-08-04T08:47:37.858Z</time>
      </trkpt>
      <trkpt lat="46.99056" lon="8.80814">
        <ele>1089</ele>
        <time>2021-08-04T08:47:38.857Z</time>
      </trkpt>
      <trkpt lat="46.99057" lon="8.80813">
        <ele>1090</ele>
        <time>2021-08-04T08:47:39.857Z</time>
      </trkpt>
      <trkpt lat="46.99057" lon="8.80813">
        <ele>1090</ele>
        <time>2021-08-04T08:47:40.857Z</time>
      </trkpt>
      <trkpt lat="46.99057" lon="8.80812">
        <ele>1090</ele>
        <time>2021-08-04T08:47:41.857Z</time>
      </trkpt>
      <trkpt lat="46.99057" lon="8.80812">
        <ele>1091</ele>
        <time>2021-08-04T08:47:42.858Z</time>
      </trkpt>
      <trkpt lat="46.99057" lon="8.80811">
        <ele>1091</ele>
        <time>2021-08-04T08:47:43.857Z</time>
      </trkpt>
      <trkpt lat="46.99058" lon="8.8081">
        <ele>1091</ele>
        <time>2021-08-04T08:47:44.858Z</time>
      </trkpt>
      <trkpt lat="46.99058" lon="8.8081">
        <ele>1091</ele>
        <time>2021-08-04T08:47:45.857Z</time>
      </trkpt>
      <trkpt lat="46.99058" lon="8.80809">
        <ele>1091</ele>
        <time>2021-08-04T08:47:46.857Z</time>
      </trkpt>
      <trkpt lat="46.99058" lon="8.80808">
        <ele>1091</ele>
        <time>2021-08-04T08:47:47.857Z</time>
      </trkpt>
      <trkpt lat="46.99058" lon="8.80806">
        <ele>1091</ele>
        <time>2021-08-04T08:47:48.857Z</time>
      </trkpt>
      <trkpt lat="46.99058" lon="8.80805">
        <ele>1090</ele>
        <time>2021-08-04T08:47:49.858Z</time>
      </trkpt>
      <trkpt lat="46.99058" lon="8.80803">
        <ele>1090</ele>
        <time>2021-08-04T08:47:50.858Z</time>
      </trkpt>
      <trkpt lat="46.99057" lon="8.80802">
        <ele>1089</ele>
        <time>2021-08-04T08:47:51.857Z</time>
      </trkpt>
      <trkpt lat="46.99056" lon="8.808">
        <ele>1089</ele>
        <time>2021-08-04T08:47:52.857Z</time>
      </trkpt>
      <trkpt lat="46.99056" lon="8.80798">
        <ele>1088</ele>
        <time>2021-08-04T08:47:53.858Z</time>
      </trkpt>
      <trkpt lat="46.99056" lon="8.80797">
        <ele>1088</ele>
        <time>2021-08-04T08:47:54.858Z</time>
      </trkpt>
      <trkpt lat="46.99057" lon="8.80795">
        <ele>1088</ele>
        <time>2021-08-04T08:47:55.857Z</time>
      </trkpt>
      <trkpt lat="46.99058" lon="8.80795">
        <ele>1088</ele>
        <time>2021-08-04T08:47:56.858Z</time>
      </trkpt>
      <trkpt lat="46.99058" lon="8.80793">
        <ele>1087</ele>
        <time>2021-08-04T08:47:57.858Z</time>
      </trkpt>
      <trkpt lat="46.99058" lon="8.80792">
        <ele>1087</ele>
        <time>2021-08-04T08:47:58.858Z</time>
      </trkpt>
      <trkpt lat="46.99057" lon="8.8079">
        <ele>1087</ele>
        <time>2021-08-04T08:47:59.857Z</time>
      </trkpt>
      <trkpt lat="46.99056" lon="8.80788">
        <ele>1087</ele>
        <time>2021-08-04T08:48:00.857Z</time>
      </trkpt>
      <trkpt lat="46.99056" lon="8.80786">
        <ele>1088</ele>
        <time>2021-08-04T08:48:01.857Z</time>
      </trkpt>
      <trkpt lat="46.99055" lon="8.80784">
        <ele>1088</ele>
        <time>2021-08-04T08:48:02.858Z</time>
      </trkpt>
      <trkpt lat="46.99055" lon="8.80781">
        <ele>1089</ele>
        <time>2021-08-04T08:48:03.857Z</time>
      </trkpt>
      <trkpt lat="46.99055" lon="8.80779">
        <ele>1089</ele>
        <time>2021-08-04T08:48:04.858Z</time>
      </trkpt>
      <trkpt lat="46.99056" lon="8.80777">
        <ele>1090</ele>
        <time>2021-08-04T08:48:05.857Z</time>
      </trkpt>
      <trkpt lat="46.99057" lon="8.80777">
        <ele>1090</ele>
        <time>2021-08-04T08:48:06.857Z</time>
      </trkpt>
      <trkpt lat="46.99058" lon="8.80776">
        <ele>1091</ele>
        <time>2021-08-04T08:48:07.857Z</time>
      </trkpt>
      <trkpt lat="46.99058" lon="8.80774">
        <ele>1091</ele>
        <time>2021-08-04T08:48:08.857Z</time>
      </trkpt>
      <trkpt lat="46.99058" lon="8.80773">
        <ele>1092</ele>
        <time>2021-08-04T08:48:09.858Z</time>
      </trkpt>
      <trkpt lat="46.99058" lon="8.80771">
        <ele>1092</ele>
        <time>2021-08-04T08:48:10.858Z</time>
      </trkpt>
      <trkpt lat="46.99057" lon="8.80769">
        <ele>1092</ele>
        <time>2021-08-04T08:48:11.858Z</time>
      </trkpt>
      <trkpt lat="46.99057" lon="8.80767">
        <ele>1092</ele>
        <time>2021-08-04T08:48:12.857Z</time>
      </trkpt>
      <trkpt lat="46.99056" lon="8.80766">
        <ele>1092</ele>
        <time>2021-08-04T08:48:13.858Z</time>
      </trkpt>
      <trkpt lat="46.99055" lon="8.80763">
        <ele>1092</ele>
        <time>2021-08-04T08:48:14.857Z</time>
      </trkpt>
      <trkpt lat="46.99055" lon="8.80762">
        <ele>1093</ele>
        <time>2021-08-04T08:48:15.857Z</time>
      </trkpt>
      <trkpt lat="46.99055" lon="8.8076">
        <ele>1093</ele>
        <time>2021-08-04T08:48:16.858Z</time>
      </trkpt>
      <trkpt lat="46.99055" lon="8.80759">
        <ele>1093</ele>
        <time>2021-08-04T08:48:17.857Z</time>
      </trkpt>
      <trkpt lat="46.99055" lon="8.80758">
        <ele>1093</ele>
        <time>2021-08-04T08:48:18.857Z</time>
      </trkpt>
      <trkpt lat="46.99055" lon="8.80756">
        <ele>1094</ele>
        <time>2021-08-04T08:48:19.857Z</time>
      </trkpt>
      <trkpt lat="46.99056" lon="8.80754">
        <ele>1094</ele>
        <time>2021-08-04T08:48:20.857Z</time>
      </trkpt>
      <trkpt lat="46.99056" lon="8.80753">
        <ele>1094</ele>
        <time>2021-08-04T08:48:21.857Z</time>
      </trkpt>
      <trkpt lat="46.99057" lon="8.80752">
        <ele>1094</ele>
        <time>2021-08-04T08:48:22.858Z</time>
      </trkpt>
      <trkpt lat="46.99056" lon="8.80751">
        <ele>1094</ele>
        <time>2021-08-04T08:48:23.858Z</time>
      </trkpt>
      <trkpt lat="46.99056" lon="8.8075">
        <ele>1094</ele>
        <time>2021-08-04T08:48:24.857Z</time>
      </trkpt>
      <trkpt lat="46.99056" lon="8.80748">
        <ele>1093</ele>
        <time>2021-08-04T08:48:25.857Z</time>
      </trkpt>
      <trkpt lat="46.99055" lon="8.80745">
        <ele>1093</ele>
        <time>2021-08-04T08:48:26.857Z</time>
      </trkpt>
      <trkpt lat="46.99055" lon="8.80743">
        <ele>1093</ele>
        <time>2021-08-04T08:48:27.857Z</time>
      </trkpt>
      <trkpt lat="46.99055" lon="8.80741">
        <ele>1093</ele>
        <time>2021-08-04T08:48:28.857Z</time>
      </trkpt>
      <trkpt lat="46.99055" lon="8.8074">
        <ele>1093</ele>
        <time>2021-08-04T08:48:29.857Z</time>
      </trkpt>
      <trkpt lat="46.99055" lon="8.80738">
        <ele>1093</ele>
        <time>2021-08-04T08:48:30.857Z</time>
      </trkpt>
      <trkpt lat="46.99055" lon="8.80736">
        <ele>1093</ele>
        <time>2021-08-04T08:48:31.857Z</time>
      </trkpt>
      <trkpt lat="46.99055" lon="8.80734">
        <ele>1092</ele>
        <time>2021-08-04T08:48:32.857Z</time>
      </trkpt>
      <trkpt lat="46.99055" lon="8.80732">
        <ele>1092</ele>
        <time>2021-08-04T08:48:33.857Z</time>
      </trkpt>
      <trkpt lat="46.99055" lon="8.80731">
        <ele>1092</ele>
        <time>2021-08-04T08:48:34.857Z</time>
      </trkpt>
      <trkpt lat="46.99054" lon="8.80729">
        <ele>1092</ele>
        <time>2021-08-04T08:48:35.857Z</time>
      </trkpt>
      <trkpt lat="46.99054" lon="8.80727">
        <ele>1092</ele>
        <time>2021-08-04T08:48:36.857Z</time>
      </trkpt>
      <trkpt lat="46.99054" lon="8.80725">
        <ele>1092</ele>
        <time>2021-08-04T08:48:37.857Z</time>
      </trkpt>
      <trkpt lat="46.99054" lon="8.80724">
        <ele>1092</ele>
        <time>2021-08-04T08:48:38.858Z</time>
      </trkpt>
      <trkpt lat="46.99054" lon="8.80722">
        <ele>1092</ele>
        <time>2021-08-04T08:48:39.858Z</time>
      </trkpt>
      <trkpt lat="46.99054" lon="8.80719">
        <ele>1092</ele>
        <time>2021-08-04T08:48:40.858Z</time>
      </trkpt>
      <trkpt lat="46.99054" lon="8.80718">
        <ele>1092</ele>
        <time>2021-08-04T08:48:41.857Z</time>
      </trkpt>
      <trkpt lat="46.99054" lon="8.80717">
        <ele>1092</ele>
        <time>2021-08-04T08:48:42.857Z</time>
      </trkpt>
      <trkpt lat="46.99054" lon="8.80715">
        <ele>1092</ele>
        <time>2021-08-04T08:48:43.858Z</time>
      </trkpt>
      <trkpt lat="46.99053" lon="8.80714">
        <ele>1092</ele>
        <time>2021-08-04T08:48:44.858Z</time>
      </trkpt>
      <trkpt lat="46.99053" lon="8.80713">
        <ele>1092</ele>
        <time>2021-08-04T08:48:45.857Z</time>
      </trkpt>
      <trkpt lat="46.99052" lon="8.80711">
        <ele>1092</ele>
        <time>2021-08-04T08:48:46.858Z</time>
      </trkpt>
      <trkpt lat="46.99052" lon="8.8071">
        <ele>1092</ele>
        <time>2021-08-04T08:48:47.857Z</time>
      </trkpt>
      <trkpt lat="46.99052" lon="8.80709">
        <ele>1091</ele>
        <time>2021-08-04T08:48:48.857Z</time>
      </trkpt>
      <trkpt lat="46.99053" lon="8.80708">
        <ele>1091</ele>
        <time>2021-08-04T08:48:49.857Z</time>
      </trkpt>
      <trkpt lat="46.99053" lon="8.80707">
        <ele>1091</ele>
        <time>2021-08-04T08:48:50.857Z</time>
      </trkpt>
      <trkpt lat="46.99053" lon="8.80706">
        <ele>1091</ele>
        <time>2021-08-04T08:48:51.857Z</time>
      </trkpt>
      <trkpt lat="46.99053" lon="8.80704">
        <ele>1091</ele>
        <time>2021-08-04T08:48:52.857Z</time>
      </trkpt>
      <trkpt lat="46.99053" lon="8.80702">
        <ele>1091</ele>
        <time>2021-08-04T08:48:53.857Z</time>
      </trkpt>
      <trkpt lat="46.99053" lon="8.80701">
        <ele>1091</ele>
        <time>2021-08-04T08:48:54.858Z</time>
      </trkpt>
      <trkpt lat="46.99053" lon="8.80699">
        <ele>1091</ele>
        <time>2021-08-04T08:48:55.857Z</time>
      </trkpt>
      <trkpt lat="46.99053" lon="8.80698">
        <ele>1091</ele>
        <time>2021-08-04T08:48:56.858Z</time>
      </trkpt>
      <trkpt lat="46.99054" lon="8.80697">
        <ele>1090</ele>
        <time>2021-08-04T08:48:57.858Z</time>
      </trkpt>
      <trkpt lat="46.99055" lon="8.80696">
        <ele>1090</ele>
        <time>2021-08-04T08:48:58.857Z</time>
      </trkpt>
      <trkpt lat="46.99055" lon="8.80695">
        <ele>1090</ele>
        <time>2021-08-04T08:48:59.857Z</time>
      </trkpt>
      <trkpt lat="46.99054" lon="8.80694">
        <ele>1090</ele>
        <time>2021-08-04T08:49:00.857Z</time>
      </trkpt>
      <trkpt lat="46.99055" lon="8.80694">
        <ele>1091</ele>
        <time>2021-08-04T08:49:01.857Z</time>
      </trkpt>
      <trkpt lat="46.99055" lon="8.80693">
        <ele>1091</ele>
        <time>2021-08-04T08:49:02.857Z</time>
      </trkpt>
      <trkpt lat="46.99056" lon="8.80693">
        <ele>1091</ele>
        <time>2021-08-04T08:49:03.857Z</time>
      </trkpt>
      <trkpt lat="46.99057" lon="8.80693">
        <ele>1092</ele>
        <time>2021-08-04T08:49:04.857Z</time>
      </trkpt>
      <trkpt lat="46.99058" lon="8.80692">
        <ele>1092</ele>
        <time>2021-08-04T08:49:05.857Z</time>
      </trkpt>
      <trkpt lat="46.99059" lon="8.8069">
        <ele>1093</ele>
        <time>2021-08-04T08:49:06.858Z</time>
      </trkpt>
      <trkpt lat="46.99059" lon="8.80689">
        <ele>1094</ele>
        <time>2021-08-04T08:49:07.857Z</time>
      </trkpt>
      <trkpt lat="46.99059" lon="8.80688">
        <ele>1094</ele>
        <time>2021-08-04T08:49:08.857Z</time>
      </trkpt>
      <trkpt lat="46.9906" lon="8.80688">
        <ele>1095</ele>
        <time>2021-08-04T08:49:09.857Z</time>
      </trkpt>
      <trkpt lat="46.99061" lon="8.80687">
        <ele>1096</ele>
        <time>2021-08-04T08:49:10.857Z</time>
      </trkpt>
      <trkpt lat="46.99061" lon="8.80686">
        <ele>1096</ele>
        <time>2021-08-04T08:49:11.858Z</time>
      </trkpt>
      <trkpt lat="46.99061" lon="8.80685">
        <ele>1097</ele>
        <time>2021-08-04T08:49:12.858Z</time>
      </trkpt>
      <trkpt lat="46.99062" lon="8.80684">
        <ele>1097</ele>
        <time>2021-08-04T08:49:13.858Z</time>
      </trkpt>
      <trkpt lat="46.99063" lon="8.80683">
        <ele>1098</ele>
        <time>2021-08-04T08:49:14.857Z</time>
      </trkpt>
      <trkpt lat="46.99062" lon="8.80682">
        <ele>1098</ele>
        <time>2021-08-04T08:49:15.858Z</time>
      </trkpt>
      <trkpt lat="46.99062" lon="8.8068">
        <ele>1098</ele>
        <time>2021-08-04T08:49:16.857Z</time>
      </trkpt>
      <trkpt lat="46.99062" lon="8.80678">
        <ele>1099</ele>
        <time>2021-08-04T08:49:17.857Z</time>
      </trkpt>
      <trkpt lat="46.99061" lon="8.80677">
        <ele>1099</ele>
        <time>2021-08-04T08:49:18.857Z</time>
      </trkpt>
      <trkpt lat="46.99061" lon="8.80675">
        <ele>1099</ele>
        <time>2021-08-04T08:49:19.858Z</time>
      </trkpt>
      <trkpt lat="46.99061" lon="8.80673">
        <ele>1099</ele>
        <time>2021-08-04T08:49:20.857Z</time>
      </trkpt>
      <trkpt lat="46.99061" lon="8.80672">
        <ele>1100</ele>
        <time>2021-08-04T08:49:21.857Z</time>
      </trkpt>
      <trkpt lat="46.99061" lon="8.8067">
        <ele>1100</ele>
        <time>2021-08-04T08:49:22.857Z</time>
      </trkpt>
      <trkpt lat="46.99061" lon="8.80668">
        <ele>1100</ele>
        <time>2021-08-04T08:49:23.858Z</time>
      </trkpt>
      <trkpt lat="46.99061" lon="8.80667">
        <ele>1099</ele>
        <time>2021-08-04T08:49:24.857Z</time>
      </trkpt>
      <trkpt lat="46.99061" lon="8.80666">
        <ele>1099</ele>
        <time>2021-08-04T08:49:25.857Z</time>
      </trkpt>
      <trkpt lat="46.99061" lon="8.80664">
        <ele>1099</ele>
        <time>2021-08-04T08:49:26.857Z</time>
      </trkpt>
      <trkpt lat="46.99061" lon="8.80663">
        <ele>1099</ele>
        <time>2021-08-04T08:49:27.857Z</time>
      </trkpt>
      <trkpt lat="46.99061" lon="8.80661">
        <ele>1098</ele>
        <time>2021-08-04T08:49:28.858Z</time>
      </trkpt>
      <trkpt lat="46.99061" lon="8.80659">
        <ele>1098</ele>
        <time>2021-08-04T08:49:29.858Z</time>
      </trkpt>
      <trkpt lat="46.99061" lon="8.80657">
        <ele>1097</ele>
        <time>2021-08-04T08:49:30.857Z</time>
      </trkpt>
      <trkpt lat="46.99061" lon="8.80655">
        <ele>1097</ele>
        <time>2021-08-04T08:49:31.857Z</time>
      </trkpt>
      <trkpt lat="46.9906" lon="8.80653">
        <ele>1097</ele>
        <time>2021-08-04T08:49:32.857Z</time>
      </trkpt>
      <trkpt lat="46.99059" lon="8.80652">
        <ele>1097</ele>
        <time>2021-08-04T08:49:33.858Z</time>
      </trkpt>
      <trkpt lat="46.99059" lon="8.80652">
        <ele>1097</ele>
        <time>2021-08-04T08:49:34.858Z</time>
      </trkpt>
      <trkpt lat="46.99059" lon="8.80651">
        <ele>1097</ele>
        <time>2021-08-04T08:49:35.857Z</time>
      </trkpt>
      <trkpt lat="46.99059" lon="8.80651">
        <ele>1096</ele>
        <time>2021-08-04T08:49:36.857Z</time>
      </trkpt>
      <trkpt lat="46.99058" lon="8.8065">
        <ele>1096</ele>
        <time>2021-08-04T08:49:37.857Z</time>
      </trkpt>
      <trkpt lat="46.99058" lon="8.80648">
        <ele>1095</ele>
        <time>2021-08-04T08:49:38.857Z</time>
      </trkpt>
      <trkpt lat="46.99058" lon="8.80647">
        <ele>1095</ele>
        <time>2021-08-04T08:49:39.857Z</time>
      </trkpt>
      <trkpt lat="46.99057" lon="8.80646">
        <ele>1094</ele>
        <time>2021-08-04T08:49:40.858Z</time>
      </trkpt>
      <trkpt lat="46.99057" lon="8.80644">
        <ele>1094</ele>
        <time>2021-08-04T08:49:41.857Z</time>
      </trkpt>
      <trkpt lat="46.99057" lon="8.80644">
        <ele>1094</ele>
        <time>2021-08-04T08:49:42.857Z</time>
      </trkpt>
      <trkpt lat="46.99057" lon="8.80643">
        <ele>1094</ele>
        <time>2021-08-04T08:49:43.857Z</time>
      </trkpt>
      <trkpt lat="46.99057" lon="8.80642">
        <ele>1094</ele>
        <time>2021-08-04T08:49:44.857Z</time>
      </trkpt>
      <trkpt lat="46.99057" lon="8.80642">
        <ele>1094</ele>
        <time>2021-08-04T08:49:45.857Z</time>
      </trkpt>
      <trkpt lat="46.99056" lon="8.80641">
        <ele>1094</ele>
        <time>2021-08-04T08:49:46.857Z</time>
      </trkpt>
      <trkpt lat="46.99057" lon="8.80641">
        <ele>1094</ele>
        <time>2021-08-04T08:49:47.857Z</time>
      </trkpt>
      <trkpt lat="46.99057" lon="8.8064">
        <ele>1093</ele>
        <time>2021-08-04T08:49:48.857Z</time>
      </trkpt>
      <trkpt lat="46.99056" lon="8.8064">
        <ele>1093</ele>
        <time>2021-08-04T08:49:49.857Z</time>
      </trkpt>
      <trkpt lat="46.99056" lon="8.80639">
        <ele>1093</ele>
        <time>2021-08-04T08:49:50.858Z</time>
      </trkpt>
      <trkpt lat="46.99056" lon="8.80638">
        <ele>1092</ele>
        <time>2021-08-04T08:49:51.857Z</time>
      </trkpt>
      <trkpt lat="46.99056" lon="8.80637">
        <ele>1092</ele>
        <time>2021-08-04T08:49:52.857Z</time>
      </trkpt>
      <trkpt lat="46.99056" lon="8.80637">
        <ele>1091</ele>
        <time>2021-08-04T08:49:53.857Z</time>
      </trkpt>
      <trkpt lat="46.99055" lon="8.80635">
        <ele>1091</ele>
        <time>2021-08-04T08:49:54.858Z</time>
      </trkpt>
      <trkpt lat="46.99054" lon="8.80634">
        <ele>1091</ele>
        <time>2021-08-04T08:49:55.858Z</time>
      </trkpt>
      <trkpt lat="46.99054" lon="8.80633">
        <ele>1092</ele>
        <time>2021-08-04T08:49:56.857Z</time>
      </trkpt>
      <trkpt lat="46.99053" lon="8.80632">
        <ele>1092</ele>
        <time>2021-08-04T08:49:57.858Z</time>
      </trkpt>
      <trkpt lat="46.99053" lon="8.80632">
        <ele>1092</ele>
        <time>2021-08-04T08:49:58.857Z</time>
      </trkpt>
      <trkpt lat="46.99053" lon="8.80631">
        <ele>1092</ele>
        <time>2021-08-04T08:49:59.858Z</time>
      </trkpt>
      <trkpt lat="46.99053" lon="8.80631">
        <ele>1092</ele>
        <time>2021-08-04T08:50:00.857Z</time>
      </trkpt>
      <trkpt lat="46.99053" lon="8.80631">
        <ele>1091</ele>
        <time>2021-08-04T08:50:01.858Z</time>
      </trkpt>
      <trkpt lat="46.99053" lon="8.80632">
        <ele>1089</ele>
        <time>2021-08-04T08:50:02.859Z</time>
      </trkpt>
      <trkpt lat="46.99052" lon="8.80632">
        <ele>1089</ele>
        <time>2021-08-04T08:50:03.859Z</time>
      </trkpt>
      <trkpt lat="46.99052" lon="8.80632">
        <ele>1088</ele>
        <time>2021-08-04T08:50:04.859Z</time>
      </trkpt>
      <trkpt lat="46.99052" lon="8.80631">
        <ele>1088</ele>
        <time>2021-08-04T08:50:05.860Z</time>
      </trkpt>
      <trkpt lat="46.99052" lon="8.8063">
        <ele>1086</ele>
        <time>2021-08-04T08:50:06.860Z</time>
      </trkpt>
      <trkpt lat="46.99052" lon="8.80629">
        <ele>1086</ele>
        <time>2021-08-04T08:50:07.859Z</time>
      </trkpt>
      <trkpt lat="46.99052" lon="8.80628">
        <ele>1086</ele>
        <time>2021-08-04T08:50:08.859Z</time>
      </trkpt>
      <trkpt lat="46.99052" lon="8.80627">
        <ele>1086</ele>
        <time>2021-08-04T08:50:09.859Z</time>
      </trkpt>
      <trkpt lat="46.99052" lon="8.80626">
        <ele>1086</ele>
        <time>2021-08-04T08:50:10.860Z</time>
      </trkpt>
      <trkpt lat="46.99052" lon="8.80626">
        <ele>1087</ele>
        <time>2021-08-04T08:50:11.860Z</time>
      </trkpt>
      <trkpt lat="46.99051" lon="8.80625">
        <ele>1088</ele>
        <time>2021-08-04T08:50:12.860Z</time>
      </trkpt>
      <trkpt lat="46.99051" lon="8.80624">
        <ele>1089</ele>
        <time>2021-08-04T08:50:13.859Z</time>
      </trkpt>
      <trkpt lat="46.99051" lon="8.80624">
        <ele>1089</ele>
        <time>2021-08-04T08:50:14.860Z</time>
      </trkpt>
      <trkpt lat="46.99051" lon="8.80623">
        <ele>1090</ele>
        <time>2021-08-04T08:50:15.859Z</time>
      </trkpt>
      <trkpt lat="46.99051" lon="8.80623">
        <ele>1090</ele>
        <time>2021-08-04T08:50:16.859Z</time>
      </trkpt>
      <trkpt lat="46.99051" lon="8.80622">
        <ele>1090</ele>
        <time>2021-08-04T08:50:17.860Z</time>
      </trkpt>
      <trkpt lat="46.99051" lon="8.80622">
        <ele>1091</ele>
        <time>2021-08-04T08:50:18.860Z</time>
      </trkpt>
      <trkpt lat="46.99052" lon="8.80621">
        <ele>1091</ele>
        <time>2021-08-04T08:50:19.860Z</time>
      </trkpt>
      <trkpt lat="46.99053" lon="8.8062">
        <ele>1091</ele>
        <time>2021-08-04T08:50:20.859Z</time>
      </trkpt>
      <trkpt lat="46.99054" lon="8.8062">
        <ele>1092</ele>
        <time>2021-08-04T08:50:21.860Z</time>
      </trkpt>
      <trkpt lat="46.99055" lon="8.80619">
        <ele>1092</ele>
        <time>2021-08-04T08:50:22.859Z</time>
      </trkpt>
      <trkpt lat="46.99056" lon="8.80618">
        <ele>1092</ele>
        <time>2021-08-04T08:50:23.860Z</time>
      </trkpt>
      <trkpt lat="46.99057" lon="8.80618">
        <ele>1092</ele>
        <time>2021-08-04T08:50:24.860Z</time>
      </trkpt>
      <trkpt lat="46.99058" lon="8.80617">
        <ele>1092</ele>
        <time>2021-08-04T08:50:25.860Z</time>
      </trkpt>
      <trkpt lat="46.9906" lon="8.80616">
        <ele>1093</ele>
        <time>2021-08-04T08:50:26.859Z</time>
      </trkpt>
      <trkpt lat="46.99061" lon="8.80615">
        <ele>1093</ele>
        <time>2021-08-04T08:50:27.860Z</time>
      </trkpt>
      <trkpt lat="46.99061" lon="8.80614">
        <ele>1093</ele>
        <time>2021-08-04T08:50:28.860Z</time>
      </trkpt>
      <trkpt lat="46.99062" lon="8.80614">
        <ele>1094</ele>
        <time>2021-08-04T08:50:29.859Z</time>
      </trkpt>
      <trkpt lat="46.99062" lon="8.80613">
        <ele>1095</ele>
        <time>2021-08-04T08:50:30.860Z</time>
      </trkpt>
      <trkpt lat="46.99062" lon="8.80612">
        <ele>1095</ele>
        <time>2021-08-04T08:50:31.860Z</time>
      </trkpt>
      <trkpt lat="46.99062" lon="8.80611">
        <ele>1095</ele>
        <time>2021-08-04T08:50:32.860Z</time>
      </trkpt>
      <trkpt lat="46.99062" lon="8.8061">
        <ele>1095</ele>
        <time>2021-08-04T08:50:33.859Z</time>
      </trkpt>
      <trkpt lat="46.99062" lon="8.8061">
        <ele>1096</ele>
        <time>2021-08-04T08:50:34.859Z</time>
      </trkpt>
      <trkpt lat="46.99062" lon="8.8061">
        <ele>1096</ele>
        <time>2021-08-04T08:50:35.860Z</time>
      </trkpt>
      <trkpt lat="46.99062" lon="8.8061">
        <ele>1096</ele>
        <time>2021-08-04T08:50:36.860Z</time>
      </trkpt>
      <trkpt lat="46.99063" lon="8.80608">
        <ele>1094</ele>
        <time>2021-08-04T08:50:37.860Z</time>
      </trkpt>
      <trkpt lat="46.99063" lon="8.80607">
        <ele>1093</ele>
        <time>2021-08-04T08:50:38.860Z</time>
      </trkpt>
      <trkpt lat="46.99063" lon="8.80606">
        <ele>1093</ele>
        <time>2021-08-04T08:50:39.860Z</time>
      </trkpt>
      <trkpt lat="46.99063" lon="8.80605">
        <ele>1093</ele>
        <time>2021-08-04T08:50:40.861Z</time>
      </trkpt>
      <trkpt lat="46.99065" lon="8.80604">
        <ele>1093</ele>
        <time>2021-08-04T08:50:41.861Z</time>
      </trkpt>
      <trkpt lat="46.99067" lon="8.80603">
        <ele>1092</ele>
        <time>2021-08-04T08:50:42.860Z</time>
      </trkpt>
      <trkpt lat="46.99068" lon="8.80602">
        <ele>1092</ele>
        <time>2021-08-04T08:50:43.861Z</time>
      </trkpt>
      <trkpt lat="46.99068" lon="8.80602">
        <ele>1092</ele>
        <time>2021-08-04T08:50:44.861Z</time>
      </trkpt>
      <trkpt lat="46.99069" lon="8.80601">
        <ele>1092</ele>
        <time>2021-08-04T08:50:45.860Z</time>
      </trkpt>
      <trkpt lat="46.99069" lon="8.806">
        <ele>1092</ele>
        <time>2021-08-04T08:50:46.861Z</time>
      </trkpt>
      <trkpt lat="46.9907" lon="8.80599">
        <ele>1092</ele>
        <time>2021-08-04T08:50:47.861Z</time>
      </trkpt>
      <trkpt lat="46.9907" lon="8.80598">
        <ele>1092</ele>
        <time>2021-08-04T08:50:48.861Z</time>
      </trkpt>
      <trkpt lat="46.9907" lon="8.80597">
        <ele>1092</ele>
        <time>2021-08-04T08:50:49.861Z</time>
      </trkpt>
      <trkpt lat="46.99071" lon="8.80596">
        <ele>1091</ele>
        <time>2021-08-04T08:50:50.861Z</time>
      </trkpt>
      <trkpt lat="46.99071" lon="8.80596">
        <ele>1091</ele>
        <time>2021-08-04T08:50:51.860Z</time>
      </trkpt>
      <trkpt lat="46.99071" lon="8.80595">
        <ele>1090</ele>
        <time>2021-08-04T08:50:52.860Z</time>
      </trkpt>
      <trkpt lat="46.99072" lon="8.80594">
        <ele>1090</ele>
        <time>2021-08-04T08:50:53.861Z</time>
      </trkpt>
      <trkpt lat="46.99072" lon="8.80593">
        <ele>1090</ele>
        <time>2021-08-04T08:50:54.860Z</time>
      </trkpt>
      <trkpt lat="46.99073" lon="8.80592">
        <ele>1090</ele>
        <time>2021-08-04T08:50:55.861Z</time>
      </trkpt>
      <trkpt lat="46.99073" lon="8.80591">
        <ele>1091</ele>
        <time>2021-08-04T08:50:56.861Z</time>
      </trkpt>
      <trkpt lat="46.99073" lon="8.8059">
        <ele>1091</ele>
        <time>2021-08-04T08:50:57.860Z</time>
      </trkpt>
      <trkpt lat="46.99074" lon="8.8059">
        <ele>1091</ele>
        <time>2021-08-04T08:50:58.861Z</time>
      </trkpt>
      <trkpt lat="46.99074" lon="8.80589">
        <ele>1091</ele>
        <time>2021-08-04T08:50:59.861Z</time>
      </trkpt>
      <trkpt lat="46.99074" lon="8.80587">
        <ele>1091</ele>
        <time>2021-08-04T08:51:00.861Z</time>
      </trkpt>
      <trkpt lat="46.99074" lon="8.80585">
        <ele>1091</ele>
        <time>2021-08-04T08:51:01.860Z</time>
      </trkpt>
      <trkpt lat="46.99074" lon="8.80584">
        <ele>1091</ele>
        <time>2021-08-04T08:51:02.861Z</time>
      </trkpt>
      <trkpt lat="46.99074" lon="8.80583">
        <ele>1091</ele>
        <time>2021-08-04T08:51:03.861Z</time>
      </trkpt>
      <trkpt lat="46.99074" lon="8.80581">
        <ele>1091</ele>
        <time>2021-08-04T08:51:04.861Z</time>
      </trkpt>
      <trkpt lat="46.99075" lon="8.8058">
        <ele>1091</ele>
        <time>2021-08-04T08:51:05.861Z</time>
      </trkpt>
      <trkpt lat="46.99075" lon="8.80578">
        <ele>1091</ele>
        <time>2021-08-04T08:51:06.861Z</time>
      </trkpt>
      <trkpt lat="46.99076" lon="8.80577">
        <ele>1091</ele>
        <time>2021-08-04T08:51:07.861Z</time>
      </trkpt>
      <trkpt lat="46.99076" lon="8.80576">
        <ele>1091</ele>
        <time>2021-08-04T08:51:08.860Z</time>
      </trkpt>
      <trkpt lat="46.99076" lon="8.80575">
        <ele>1091</ele>
        <time>2021-08-04T08:51:09.861Z</time>
      </trkpt>
      <trkpt lat="46.99077" lon="8.80574">
        <ele>1091</ele>
        <time>2021-08-04T08:51:10.861Z</time>
      </trkpt>
      <trkpt lat="46.99077" lon="8.80572">
        <ele>1091</ele>
        <time>2021-08-04T08:51:11.861Z</time>
      </trkpt>
      <trkpt lat="46.99078" lon="8.80571">
        <ele>1091</ele>
        <time>2021-08-04T08:51:12.861Z</time>
      </trkpt>
      <trkpt lat="46.99078" lon="8.80569">
        <ele>1091</ele>
        <time>2021-08-04T08:51:13.860Z</time>
      </trkpt>
      <trkpt lat="46.99078" lon="8.80568">
        <ele>1092</ele>
        <time>2021-08-04T08:51:14.861Z</time>
      </trkpt>
      <trkpt lat="46.99078" lon="8.80567">
        <ele>1092</ele>
        <time>2021-08-04T08:51:15.861Z</time>
      </trkpt>
      <trkpt lat="46.99078" lon="8.80566">
        <ele>1092</ele>
        <time>2021-08-04T08:51:16.861Z</time>
      </trkpt>
      <trkpt lat="46.99079" lon="8.80566">
        <ele>1092</ele>
        <time>2021-08-04T08:51:17.861Z</time>
      </trkpt>
      <trkpt lat="46.99079" lon="8.80565">
        <ele>1092</ele>
        <time>2021-08-04T08:51:18.861Z</time>
      </trkpt>
      <trkpt lat="46.9908" lon="8.80565">
        <ele>1092</ele>
        <time>2021-08-04T08:51:19.860Z</time>
      </trkpt>
      <trkpt lat="46.9908" lon="8.80564">
        <ele>1093</ele>
        <time>2021-08-04T08:51:20.860Z</time>
      </trkpt>
      <trkpt lat="46.99081" lon="8.80563">
        <ele>1093</ele>
        <time>2021-08-04T08:51:21.861Z</time>
      </trkpt>
      <trkpt lat="46.99081" lon="8.80562">
        <ele>1093</ele>
        <time>2021-08-04T08:51:22.861Z</time>
      </trkpt>
      <trkpt lat="46.99082" lon="8.80561">
        <ele>1093</ele>
        <time>2021-08-04T08:51:23.861Z</time>
      </trkpt>
      <trkpt lat="46.99082" lon="8.8056">
        <ele>1093</ele>
        <time>2021-08-04T08:51:24.861Z</time>
      </trkpt>
      <trkpt lat="46.99083" lon="8.80558">
        <ele>1093</ele>
        <time>2021-08-04T08:51:25.860Z</time>
      </trkpt>
      <trkpt lat="46.99083" lon="8.80556">
        <ele>1094</ele>
        <time>2021-08-04T08:51:26.861Z</time>
      </trkpt>
      <trkpt lat="46.99083" lon="8.80554">
        <ele>1094</ele>
        <time>2021-08-04T08:51:27.860Z</time>
      </trkpt>
      <trkpt lat="46.99084" lon="8.80552">
        <ele>1094</ele>
        <time>2021-08-04T08:51:28.860Z</time>
      </trkpt>
      <trkpt lat="46.99084" lon="8.80551">
        <ele>1095</ele>
        <time>2021-08-04T08:51:29.860Z</time>
      </trkpt>
      <trkpt lat="46.99084" lon="8.8055">
        <ele>1095</ele>
        <time>2021-08-04T08:51:30.860Z</time>
      </trkpt>
      <trkpt lat="46.99084" lon="8.80547">
        <ele>1095</ele>
        <time>2021-08-04T08:51:31.861Z</time>
      </trkpt>
      <trkpt lat="46.99083" lon="8.80545">
        <ele>1095</ele>
        <time>2021-08-04T08:51:32.860Z</time>
      </trkpt>
      <trkpt lat="46.99083" lon="8.80543">
        <ele>1095</ele>
        <time>2021-08-04T08:51:33.860Z</time>
      </trkpt>
      <trkpt lat="46.99083" lon="8.80542">
        <ele>1095</ele>
        <time>2021-08-04T08:51:34.860Z</time>
      </trkpt>
      <trkpt lat="46.99083" lon="8.8054">
        <ele>1095</ele>
        <time>2021-08-04T08:51:35.861Z</time>
      </trkpt>
      <trkpt lat="46.99083" lon="8.80539">
        <ele>1095</ele>
        <time>2021-08-04T08:51:36.860Z</time>
      </trkpt>
      <trkpt lat="46.99083" lon="8.80537">
        <ele>1096</ele>
        <time>2021-08-04T08:51:37.860Z</time>
      </trkpt>
      <trkpt lat="46.99083" lon="8.80535">
        <ele>1096</ele>
        <time>2021-08-04T08:51:38.861Z</time>
      </trkpt>
      <trkpt lat="46.99083" lon="8.80533">
        <ele>1096</ele>
        <time>2021-08-04T08:51:39.860Z</time>
      </trkpt>
      <trkpt lat="46.99083" lon="8.80532">
        <ele>1097</ele>
        <time>2021-08-04T08:51:40.860Z</time>
      </trkpt>
      <trkpt lat="46.99082" lon="8.80532">
        <ele>1097</ele>
        <time>2021-08-04T08:51:41.860Z</time>
      </trkpt>
      <trkpt lat="46.99081" lon="8.80529">
        <ele>1097</ele>
        <time>2021-08-04T08:51:42.860Z</time>
      </trkpt>
      <trkpt lat="46.99081" lon="8.80527">
        <ele>1097</ele>
        <time>2021-08-04T08:51:43.861Z</time>
      </trkpt>
      <trkpt lat="46.9908" lon="8.80526">
        <ele>1097</ele>
        <time>2021-08-04T08:51:44.860Z</time>
      </trkpt>
      <trkpt lat="46.9908" lon="8.80523">
        <ele>1097</ele>
        <time>2021-08-04T08:51:45.860Z</time>
      </trkpt>
      <trkpt lat="46.9908" lon="8.80521">
        <ele>1097</ele>
        <time>2021-08-04T08:51:46.860Z</time>
      </trkpt>
      <trkpt lat="46.99079" lon="8.8052">
        <ele>1097</ele>
        <time>2021-08-04T08:51:47.860Z</time>
      </trkpt>
      <trkpt lat="46.99079" lon="8.80519">
        <ele>1097</ele>
        <time>2021-08-04T08:51:48.860Z</time>
      </trkpt>
      <trkpt lat="46.99079" lon="8.80517">
        <ele>1097</ele>
        <time>2021-08-04T08:51:49.860Z</time>
      </trkpt>
      <trkpt lat="46.99078" lon="8.80517">
        <ele>1097</ele>
        <time>2021-08-04T08:51:50.860Z</time>
      </trkpt>
      <trkpt lat="46.99077" lon="8.80516">
        <ele>1097</ele>
        <time>2021-08-04T08:51:51.860Z</time>
      </trkpt>
      <trkpt lat="46.99076" lon="8.80516">
        <ele>1097</ele>
        <time>2021-08-04T08:51:52.860Z</time>
      </trkpt>
      <trkpt lat="46.99075" lon="8.80515">
        <ele>1096</ele>
        <time>2021-08-04T08:51:53.860Z</time>
      </trkpt>
      <trkpt lat="46.99075" lon="8.80514">
        <ele>1096</ele>
        <time>2021-08-04T08:51:54.860Z</time>
      </trkpt>
      <trkpt lat="46.99074" lon="8.80514">
        <ele>1095</ele>
        <time>2021-08-04T08:51:55.861Z</time>
      </trkpt>
      <trkpt lat="46.99073" lon="8.80512">
        <ele>1095</ele>
        <time>2021-08-04T08:51:56.861Z</time>
      </trkpt>
      <trkpt lat="46.99072" lon="8.80511">
        <ele>1095</ele>
        <time>2021-08-04T08:51:57.860Z</time>
      </trkpt>
      <trkpt lat="46.99071" lon="8.80509">
        <ele>1094</ele>
        <time>2021-08-04T08:51:58.861Z</time>
      </trkpt>
      <trkpt lat="46.99071" lon="8.80508">
        <ele>1094</ele>
        <time>2021-08-04T08:51:59.861Z</time>
      </trkpt>
      <trkpt lat="46.99071" lon="8.80507">
        <ele>1093</ele>
        <time>2021-08-04T08:52:00.861Z</time>
      </trkpt>
      <trkpt lat="46.99071" lon="8.80506">
        <ele>1092</ele>
        <time>2021-08-04T08:52:01.861Z</time>
      </trkpt>
      <trkpt lat="46.99071" lon="8.80504">
        <ele>1091</ele>
        <time>2021-08-04T08:52:02.861Z</time>
      </trkpt>
      <trkpt lat="46.99071" lon="8.80502">
        <ele>1090</ele>
        <time>2021-08-04T08:52:03.860Z</time>
      </trkpt>
      <trkpt lat="46.9907" lon="8.80501">
        <ele>1089</ele>
        <time>2021-08-04T08:52:04.861Z</time>
      </trkpt>
      <trkpt lat="46.9907" lon="8.80499">
        <ele>1088</ele>
        <time>2021-08-04T08:52:05.861Z</time>
      </trkpt>
      <trkpt lat="46.9907" lon="8.80497">
        <ele>1088</ele>
        <time>2021-08-04T08:52:06.861Z</time>
      </trkpt>
      <trkpt lat="46.99069" lon="8.80497">
        <ele>1087</ele>
        <time>2021-08-04T08:52:07.860Z</time>
      </trkpt>
      <trkpt lat="46.99068" lon="8.80496">
        <ele>1086</ele>
        <time>2021-08-04T08:52:08.861Z</time>
      </trkpt>
      <trkpt lat="46.99068" lon="8.80495">
        <ele>1086</ele>
        <time>2021-08-04T08:52:09.860Z</time>
      </trkpt>
      <trkpt lat="46.99067" lon="8.80494">
        <ele>1085</ele>
        <time>2021-08-04T08:52:10.861Z</time>
      </trkpt>
      <trkpt lat="46.99067" lon="8.80494">
        <ele>1085</ele>
        <time>2021-08-04T08:52:11.860Z</time>
      </trkpt>
      <trkpt lat="46.99067" lon="8.80493">
        <ele>1084</ele>
        <time>2021-08-04T08:52:12.861Z</time>
      </trkpt>
      <trkpt lat="46.99066" lon="8.80493">
        <ele>1084</ele>
        <time>2021-08-04T08:52:13.860Z</time>
      </trkpt>
      <trkpt lat="46.99066" lon="8.80492">
        <ele>1084</ele>
        <time>2021-08-04T08:52:14.861Z</time>
      </trkpt>
      <trkpt lat="46.99065" lon="8.80492">
        <ele>1084</ele>
        <time>2021-08-04T08:52:15.860Z</time>
      </trkpt>
      <trkpt lat="46.99064" lon="8.80492">
        <ele>1084</ele>
        <time>2021-08-04T08:52:16.860Z</time>
      </trkpt>
      <trkpt lat="46.99063" lon="8.80491">
        <ele>1084</ele>
        <time>2021-08-04T08:52:17.861Z</time>
      </trkpt>
      <trkpt lat="46.99062" lon="8.8049">
        <ele>1084</ele>
        <time>2021-08-04T08:52:18.860Z</time>
      </trkpt>
      <trkpt lat="46.99061" lon="8.8049">
        <ele>1084</ele>
        <time>2021-08-04T08:52:19.861Z</time>
      </trkpt>
      <trkpt lat="46.99061" lon="8.80489">
        <ele>1084</ele>
        <time>2021-08-04T08:52:20.861Z</time>
      </trkpt>
      <trkpt lat="46.9906" lon="8.80487">
        <ele>1084</ele>
        <time>2021-08-04T08:52:21.861Z</time>
      </trkpt>
      <trkpt lat="46.9906" lon="8.80486">
        <ele>1084</ele>
        <time>2021-08-04T08:52:22.861Z</time>
      </trkpt>
      <trkpt lat="46.99059" lon="8.80485">
        <ele>1085</ele>
        <time>2021-08-04T08:52:23.860Z</time>
      </trkpt>
      <trkpt lat="46.99059" lon="8.80483">
        <ele>1085</ele>
        <time>2021-08-04T08:52:24.860Z</time>
      </trkpt>
      <trkpt lat="46.99059" lon="8.80482">
        <ele>1085</ele>
        <time>2021-08-04T08:52:25.860Z</time>
      </trkpt>
      <trkpt lat="46.99059" lon="8.8048">
        <ele>1085</ele>
        <time>2021-08-04T08:52:26.860Z</time>
      </trkpt>
      <trkpt lat="46.99058" lon="8.80478">
        <ele>1085</ele>
        <time>2021-08-04T08:52:27.860Z</time>
      </trkpt>
      <trkpt lat="46.99058" lon="8.80475">
        <ele>1085</ele>
        <time>2021-08-04T08:52:28.861Z</time>
      </trkpt>
      <trkpt lat="46.99058" lon="8.80473">
        <ele>1085</ele>
        <time>2021-08-04T08:52:29.861Z</time>
      </trkpt>
      <trkpt lat="46.99057" lon="8.80471">
        <ele>1086</ele>
        <time>2021-08-04T08:52:30.861Z</time>
      </trkpt>
      <trkpt lat="46.99057" lon="8.80469">
        <ele>1086</ele>
        <time>2021-08-04T08:52:31.861Z</time>
      </trkpt>
      <trkpt lat="46.99057" lon="8.80467">
        <ele>1087</ele>
        <time>2021-08-04T08:52:32.860Z</time>
      </trkpt>
      <trkpt lat="46.99057" lon="8.80466">
        <ele>1087</ele>
        <time>2021-08-04T08:52:33.861Z</time>
      </trkpt>
      <trkpt lat="46.99057" lon="8.80465">
        <ele>1088</ele>
        <time>2021-08-04T08:52:34.860Z</time>
      </trkpt>
      <trkpt lat="46.99056" lon="8.80463">
        <ele>1089</ele>
        <time>2021-08-04T08:52:35.861Z</time>
      </trkpt>
      <trkpt lat="46.99056" lon="8.80462">
        <ele>1090</ele>
        <time>2021-08-04T08:52:36.861Z</time>
      </trkpt>
      <trkpt lat="46.99056" lon="8.80461">
        <ele>1090</ele>
        <time>2021-08-04T08:52:37.861Z</time>
      </trkpt>
      <trkpt lat="46.99056" lon="8.8046">
        <ele>1091</ele>
        <time>2021-08-04T08:52:38.860Z</time>
      </trkpt>
      <trkpt lat="46.99056" lon="8.80459">
        <ele>1092</ele>
        <time>2021-08-04T08:52:39.861Z</time>
      </trkpt>
      <trkpt lat="46.99056" lon="8.80458">
        <ele>1092</ele>
        <time>2021-08-04T08:52:40.861Z</time>
      </trkpt>
      <trkpt lat="46.99055" lon="8.80457">
        <ele>1093</ele>
        <time>2021-08-04T08:52:41.861Z</time>
      </trkpt>
      <trkpt lat="46.99055" lon="8.80456">
        <ele>1093</ele>
        <time>2021-08-04T08:52:42.860Z</time>
      </trkpt>
      <trkpt lat="46.99055" lon="8.80454">
        <ele>1094</ele>
        <time>2021-08-04T08:52:43.861Z</time>
      </trkpt>
      <trkpt lat="46.99055" lon="8.80451">
        <ele>1094</ele>
        <time>2021-08-04T08:52:44.860Z</time>
      </trkpt>
      <trkpt lat="46.99055" lon="8.80448">
        <ele>1095</ele>
        <time>2021-08-04T08:52:45.861Z</time>
      </trkpt>
      <trkpt lat="46.99056" lon="8.80446">
        <ele>1095</ele>
        <time>2021-08-04T08:52:46.861Z</time>
      </trkpt>
      <trkpt lat="46.99056" lon="8.80444">
        <ele>1096</ele>
        <time>2021-08-04T08:52:47.861Z</time>
      </trkpt>
      <trkpt lat="46.99056" lon="8.80441">
        <ele>1097</ele>
        <time>2021-08-04T08:52:48.861Z</time>
      </trkpt>
      <trkpt lat="46.99056" lon="8.80438">
        <ele>1098</ele>
        <time>2021-08-04T08:52:49.861Z</time>
      </trkpt>
      <trkpt lat="46.99056" lon="8.80436">
        <ele>1098</ele>
        <time>2021-08-04T08:52:50.860Z</time>
      </trkpt>
      <trkpt lat="46.99056" lon="8.80434">
        <ele>1098</ele>
        <time>2021-08-04T08:52:51.861Z</time>
      </trkpt>
      <trkpt lat="46.99056" lon="8.80432">
        <ele>1099</ele>
        <time>2021-08-04T08:52:52.861Z</time>
      </trkpt>
      <trkpt lat="46.99056" lon="8.80431">
        <ele>1099</ele>
        <time>2021-08-04T08:52:53.861Z</time>
      </trkpt>
      <trkpt lat="46.99056" lon="8.80429">
        <ele>1100</ele>
        <time>2021-08-04T08:52:54.861Z</time>
      </trkpt>
      <trkpt lat="46.99056" lon="8.80428">
        <ele>1100</ele>
        <time>2021-08-04T08:52:55.861Z</time>
      </trkpt>
      <trkpt lat="46.99056" lon="8.80427">
        <ele>1100</ele>
        <time>2021-08-04T08:52:56.860Z</time>
      </trkpt>
      <trkpt lat="46.99056" lon="8.80425">
        <ele>1100</ele>
        <time>2021-08-04T08:52:57.861Z</time>
      </trkpt>
      <trkpt lat="46.99056" lon="8.80424">
        <ele>1099</ele>
        <time>2021-08-04T08:52:58.861Z</time>
      </trkpt>
      <trkpt lat="46.99055" lon="8.80422">
        <ele>1099</ele>
        <time>2021-08-04T08:52:59.861Z</time>
      </trkpt>
      <trkpt lat="46.99054" lon="8.80419">
        <ele>1098</ele>
        <time>2021-08-04T08:53:00.861Z</time>
      </trkpt>
      <trkpt lat="46.99054" lon="8.80417">
        <ele>1098</ele>
        <time>2021-08-04T08:53:01.860Z</time>
      </trkpt>
      <trkpt lat="46.99053" lon="8.80415">
        <ele>1098</ele>
        <time>2021-08-04T08:53:02.860Z</time>
      </trkpt>
      <trkpt lat="46.99052" lon="8.80414">
        <ele>1097</ele>
        <time>2021-08-04T08:53:03.861Z</time>
      </trkpt>
      <trkpt lat="46.99052" lon="8.80412">
        <ele>1097</ele>
        <time>2021-08-04T08:53:04.860Z</time>
      </trkpt>
      <trkpt lat="46.99051" lon="8.80411">
        <ele>1096</ele>
        <time>2021-08-04T08:53:05.861Z</time>
      </trkpt>
      <trkpt lat="46.99051" lon="8.8041">
        <ele>1096</ele>
        <time>2021-08-04T08:53:06.860Z</time>
      </trkpt>
      <trkpt lat="46.9905" lon="8.80408">
        <ele>1096</ele>
        <time>2021-08-04T08:53:07.860Z</time>
      </trkpt>
      <trkpt lat="46.99049" lon="8.80407">
        <ele>1095</ele>
        <time>2021-08-04T08:53:08.861Z</time>
      </trkpt>
      <trkpt lat="46.99049" lon="8.80406">
        <ele>1095</ele>
        <time>2021-08-04T08:53:09.860Z</time>
      </trkpt>
      <trkpt lat="46.99048" lon="8.80405">
        <ele>1094</ele>
        <time>2021-08-04T08:53:10.861Z</time>
      </trkpt>
      <trkpt lat="46.99047" lon="8.80404">
        <ele>1093</ele>
        <time>2021-08-04T08:53:11.860Z</time>
      </trkpt>
      <trkpt lat="46.99046" lon="8.80403">
        <ele>1093</ele>
        <time>2021-08-04T08:53:12.861Z</time>
      </trkpt>
      <trkpt lat="46.99046" lon="8.80401">
        <ele>1092</ele>
        <time>2021-08-04T08:53:13.860Z</time>
      </trkpt>
      <trkpt lat="46.99045" lon="8.804">
        <ele>1092</ele>
        <time>2021-08-04T08:53:14.860Z</time>
      </trkpt>
      <trkpt lat="46.99045" lon="8.80398">
        <ele>1091</ele>
        <time>2021-08-04T08:53:15.860Z</time>
      </trkpt>
      <trkpt lat="46.99044" lon="8.80397">
        <ele>1091</ele>
        <time>2021-08-04T08:53:16.861Z</time>
      </trkpt>
      <trkpt lat="46.99043" lon="8.80395">
        <ele>1090</ele>
        <time>2021-08-04T08:53:17.861Z</time>
      </trkpt>
      <trkpt lat="46.99043" lon="8.80394">
        <ele>1090</ele>
        <time>2021-08-04T08:53:18.860Z</time>
      </trkpt>
      <trkpt lat="46.99043" lon="8.80393">
        <ele>1090</ele>
        <time>2021-08-04T08:53:19.861Z</time>
      </trkpt>
      <trkpt lat="46.99042" lon="8.80392">
        <ele>1089</ele>
        <time>2021-08-04T08:53:20.861Z</time>
      </trkpt>
      <trkpt lat="46.99042" lon="8.80391">
        <ele>1088</ele>
        <time>2021-08-04T08:53:21.861Z</time>
      </trkpt>
      <trkpt lat="46.99041" lon="8.80389">
        <ele>1088</ele>
        <time>2021-08-04T08:53:22.861Z</time>
      </trkpt>
      <trkpt lat="46.99041" lon="8.80388">
        <ele>1088</ele>
        <time>2021-08-04T08:53:23.860Z</time>
      </trkpt>
      <trkpt lat="46.9904" lon="8.80387">
        <ele>1087</ele>
        <time>2021-08-04T08:53:24.861Z</time>
      </trkpt>
      <trkpt lat="46.99039" lon="8.80385">
        <ele>1087</ele>
        <time>2021-08-04T08:53:25.860Z</time>
      </trkpt>
      <trkpt lat="46.99038" lon="8.80383">
        <ele>1086</ele>
        <time>2021-08-04T08:53:26.861Z</time>
      </trkpt>
      <trkpt lat="46.99038" lon="8.80382">
        <ele>1086</ele>
        <time>2021-08-04T08:53:27.861Z</time>
      </trkpt>
      <trkpt lat="46.99037" lon="8.8038">
        <ele>1085</ele>
        <time>2021-08-04T08:53:28.860Z</time>
      </trkpt>
      <trkpt lat="46.99036" lon="8.80379">
        <ele>1086</ele>
        <time>2021-08-04T08:53:29.861Z</time>
      </trkpt>
      <trkpt lat="46.99036" lon="8.80377">
        <ele>1086</ele>
        <time>2021-08-04T08:53:30.860Z</time>
      </trkpt>
      <trkpt lat="46.99035" lon="8.80375">
        <ele>1086</ele>
        <time>2021-08-04T08:53:31.861Z</time>
      </trkpt>
      <trkpt lat="46.99034" lon="8.80373">
        <ele>1087</ele>
        <time>2021-08-04T08:53:32.861Z</time>
      </trkpt>
      <trkpt lat="46.99033" lon="8.80371">
        <ele>1087</ele>
        <time>2021-08-04T08:53:33.860Z</time>
      </trkpt>
      <trkpt lat="46.99032" lon="8.8037">
        <ele>1087</ele>
        <time>2021-08-04T08:53:34.861Z</time>
      </trkpt>
      <trkpt lat="46.99032" lon="8.80369">
        <ele>1088</ele>
        <time>2021-08-04T08:53:35.860Z</time>
      </trkpt>
      <trkpt lat="46.99031" lon="8.80367">
        <ele>1088</ele>
        <time>2021-08-04T08:53:36.860Z</time>
      </trkpt>
      <trkpt lat="46.9903" lon="8.80366">
        <ele>1089</ele>
        <time>2021-08-04T08:53:37.861Z</time>
      </trkpt>
      <trkpt lat="46.9903" lon="8.80365">
        <ele>1089</ele>
        <time>2021-08-04T08:53:38.861Z</time>
      </trkpt>
      <trkpt lat="46.99029" lon="8.80363">
        <ele>1090</ele>
        <time>2021-08-04T08:53:39.861Z</time>
      </trkpt>
      <trkpt lat="46.99029" lon="8.80363">
        <ele>1090</ele>
        <time>2021-08-04T08:53:40.860Z</time>
      </trkpt>
      <trkpt lat="46.99028" lon="8.80361">
        <ele>1090</ele>
        <time>2021-08-04T08:53:41.861Z</time>
      </trkpt>
      <trkpt lat="46.99028" lon="8.8036">
        <ele>1090</ele>
        <time>2021-08-04T08:53:42.861Z</time>
      </trkpt>
      <trkpt lat="46.99027" lon="8.80359">
        <ele>1090</ele>
        <time>2021-08-04T08:53:43.861Z</time>
      </trkpt>
      <trkpt lat="46.99027" lon="8.80359">
        <ele>1090</ele>
        <time>2021-08-04T08:53:44.861Z</time>
      </trkpt>
      <trkpt lat="46.99026" lon="8.80357">
        <ele>1090</ele>
        <time>2021-08-04T08:53:45.861Z</time>
      </trkpt>
      <trkpt lat="46.99025" lon="8.80355">
        <ele>1090</ele>
        <time>2021-08-04T08:53:46.861Z</time>
      </trkpt>
      <trkpt lat="46.99024" lon="8.80354">
        <ele>1089</ele>
        <time>2021-08-04T08:53:47.861Z</time>
      </trkpt>
      <trkpt lat="46.99024" lon="8.80352">
        <ele>1089</ele>
        <time>2021-08-04T08:53:48.860Z</time>
      </trkpt>
      <trkpt lat="46.99023" lon="8.80351">
        <ele>1088</ele>
        <time>2021-08-04T08:53:49.861Z</time>
      </trkpt>
      <trkpt lat="46.99022" lon="8.80349">
        <ele>1087</ele>
        <time>2021-08-04T08:53:50.861Z</time>
      </trkpt>
      <trkpt lat="46.99021" lon="8.80348">
        <ele>1087</ele>
        <time>2021-08-04T08:53:51.861Z</time>
      </trkpt>
      <trkpt lat="46.9902" lon="8.80346">
        <ele>1086</ele>
        <time>2021-08-04T08:53:52.860Z</time>
      </trkpt>
      <trkpt lat="46.9902" lon="8.80344">
        <ele>1086</ele>
        <time>2021-08-04T08:53:53.860Z</time>
      </trkpt>
      <trkpt lat="46.99019" lon="8.80343">
        <ele>1086</ele>
        <time>2021-08-04T08:53:54.861Z</time>
      </trkpt>
      <trkpt lat="46.99018" lon="8.80341">
        <ele>1086</ele>
        <time>2021-08-04T08:53:55.861Z</time>
      </trkpt>
      <trkpt lat="46.99018" lon="8.80339">
        <ele>1086</ele>
        <time>2021-08-04T08:53:56.861Z</time>
      </trkpt>
      <trkpt lat="46.99017" lon="8.80338">
        <ele>1085</ele>
        <time>2021-08-04T08:53:57.861Z</time>
      </trkpt>
      <trkpt lat="46.99016" lon="8.80336">
        <ele>1085</ele>
        <time>2021-08-04T08:53:58.861Z</time>
      </trkpt>
      <trkpt lat="46.99016" lon="8.80335">
        <ele>1084</ele>
        <time>2021-08-04T08:53:59.860Z</time>
      </trkpt>
      <trkpt lat="46.99015" lon="8.80334">
        <ele>1084</ele>
        <time>2021-08-04T08:54:00.861Z</time>
      </trkpt>
      <trkpt lat="46.99014" lon="8.80333">
        <ele>1083</ele>
        <time>2021-08-04T08:54:01.860Z</time>
      </trkpt>
      <trkpt lat="46.99013" lon="8.80332">
        <ele>1083</ele>
        <time>2021-08-04T08:54:02.861Z</time>
      </trkpt>
      <trkpt lat="46.99013" lon="8.8033">
        <ele>1083</ele>
        <time>2021-08-04T08:54:03.861Z</time>
      </trkpt>
      <trkpt lat="46.99012" lon="8.8033">
        <ele>1082</ele>
        <time>2021-08-04T08:54:04.861Z</time>
      </trkpt>
      <trkpt lat="46.99011" lon="8.8033">
        <ele>1082</ele>
        <time>2021-08-04T08:54:05.861Z</time>
      </trkpt>
      <trkpt lat="46.99011" lon="8.8033">
        <ele>1081</ele>
        <time>2021-08-04T08:54:06.860Z</time>
      </trkpt>
      <trkpt lat="46.9901" lon="8.8033">
        <ele>1081</ele>
        <time>2021-08-04T08:54:07.861Z</time>
      </trkpt>
      <trkpt lat="46.9901" lon="8.80329">
        <ele>1081</ele>
        <time>2021-08-04T08:54:08.861Z</time>
      </trkpt>
      <trkpt lat="46.9901" lon="8.80328">
        <ele>1082</ele>
        <time>2021-08-04T08:54:09.861Z</time>
      </trkpt>
      <trkpt lat="46.9901" lon="8.80327">
        <ele>1082</ele>
        <time>2021-08-04T08:54:10.861Z</time>
      </trkpt>
      <trkpt lat="46.99009" lon="8.80326">
        <ele>1082</ele>
        <time>2021-08-04T08:54:11.860Z</time>
      </trkpt>
      <trkpt lat="46.99009" lon="8.80324">
        <ele>1082</ele>
        <time>2021-08-04T08:54:12.861Z</time>
      </trkpt>
      <trkpt lat="46.99008" lon="8.80323">
        <ele>1082</ele>
        <time>2021-08-04T08:54:13.860Z</time>
      </trkpt>
      <trkpt lat="46.99008" lon="8.80322">
        <ele>1081</ele>
        <time>2021-08-04T08:54:14.860Z</time>
      </trkpt>
      <trkpt lat="46.99007" lon="8.8032">
        <ele>1081</ele>
        <time>2021-08-04T08:54:15.860Z</time>
      </trkpt>
      <trkpt lat="46.99006" lon="8.80319">
        <ele>1081</ele>
        <time>2021-08-04T08:54:16.860Z</time>
      </trkpt>
      <trkpt lat="46.99006" lon="8.80317">
        <ele>1081</ele>
        <time>2021-08-04T08:54:17.861Z</time>
      </trkpt>
      <trkpt lat="46.99005" lon="8.80316">
        <ele>1082</ele>
        <time>2021-08-04T08:54:18.860Z</time>
      </trkpt>
      <trkpt lat="46.99004" lon="8.80315">
        <ele>1082</ele>
        <time>2021-08-04T08:54:19.861Z</time>
      </trkpt>
      <trkpt lat="46.99004" lon="8.80313">
        <ele>1082</ele>
        <time>2021-08-04T08:54:20.861Z</time>
      </trkpt>
      <trkpt lat="46.99003" lon="8.80312">
        <ele>1082</ele>
        <time>2021-08-04T08:54:21.861Z</time>
      </trkpt>
      <trkpt lat="46.99003" lon="8.80311">
        <ele>1081</ele>
        <time>2021-08-04T08:54:22.861Z</time>
      </trkpt>
      <trkpt lat="46.99002" lon="8.80309">
        <ele>1081</ele>
        <time>2021-08-04T08:54:23.861Z</time>
      </trkpt>
      <trkpt lat="46.99002" lon="8.80308">
        <ele>1081</ele>
        <time>2021-08-04T08:54:24.861Z</time>
      </trkpt>
      <trkpt lat="46.99001" lon="8.80307">
        <ele>1081</ele>
        <time>2021-08-04T08:54:25.861Z</time>
      </trkpt>
      <trkpt lat="46.99" lon="8.80306">
        <ele>1081</ele>
        <time>2021-08-04T08:54:26.861Z</time>
      </trkpt>
      <trkpt lat="46.99" lon="8.80304">
        <ele>1081</ele>
        <time>2021-08-04T08:54:27.861Z</time>
      </trkpt>
      <trkpt lat="46.98999" lon="8.80302">
        <ele>1081</ele>
        <time>2021-08-04T08:54:28.861Z</time>
      </trkpt>
      <trkpt lat="46.98998" lon="8.80301">
        <ele>1081</ele>
        <time>2021-08-04T08:54:29.860Z</time>
      </trkpt>
      <trkpt lat="46.98998" lon="8.80299">
        <ele>1081</ele>
        <time>2021-08-04T08:54:30.861Z</time>
      </trkpt>
      <trkpt lat="46.98997" lon="8.80298">
        <ele>1081</ele>
        <time>2021-08-04T08:54:31.860Z</time>
      </trkpt>
      <trkpt lat="46.98997" lon="8.80296">
        <ele>1080</ele>
        <time>2021-08-04T08:54:32.861Z</time>
      </trkpt>
      <trkpt lat="46.98996" lon="8.80295">
        <ele>1080</ele>
        <time>2021-08-04T08:54:33.860Z</time>
      </trkpt>
      <trkpt lat="46.98995" lon="8.80293">
        <ele>1080</ele>
        <time>2021-08-04T08:54:34.860Z</time>
      </trkpt>
      <trkpt lat="46.98995" lon="8.80291">
        <ele>1080</ele>
        <time>2021-08-04T08:54:35.861Z</time>
      </trkpt>
      <trkpt lat="46.98994" lon="8.80289">
        <ele>1079</ele>
        <time>2021-08-04T08:54:36.860Z</time>
      </trkpt>
      <trkpt lat="46.98994" lon="8.80288">
        <ele>1079</ele>
        <time>2021-08-04T08:54:37.861Z</time>
      </trkpt>
      <trkpt lat="46.98994" lon="8.80286">
        <ele>1078</ele>
        <time>2021-08-04T08:54:38.860Z</time>
      </trkpt>
      <trkpt lat="46.98994" lon="8.80284">
        <ele>1078</ele>
        <time>2021-08-04T08:54:39.860Z</time>
      </trkpt>
      <trkpt lat="46.98994" lon="8.80282">
        <ele>1078</ele>
        <time>2021-08-04T08:54:40.860Z</time>
      </trkpt>
      <trkpt lat="46.98994" lon="8.80281">
        <ele>1078</ele>
        <time>2021-08-04T08:54:41.861Z</time>
      </trkpt>
      <trkpt lat="46.98994" lon="8.80279">
        <ele>1078</ele>
        <time>2021-08-04T08:54:42.860Z</time>
      </trkpt>
      <trkpt lat="46.98994" lon="8.80278">
        <ele>1078</ele>
        <time>2021-08-04T08:54:43.861Z</time>
      </trkpt>
      <trkpt lat="46.98993" lon="8.80276">
        <ele>1078</ele>
        <time>2021-08-04T08:54:44.861Z</time>
      </trkpt>
      <trkpt lat="46.98993" lon="8.80274">
        <ele>1078</ele>
        <time>2021-08-04T08:54:45.861Z</time>
      </trkpt>
      <trkpt lat="46.98993" lon="8.80272">
        <ele>1078</ele>
        <time>2021-08-04T08:54:46.860Z</time>
      </trkpt>
      <trkpt lat="46.98993" lon="8.8027">
        <ele>1077</ele>
        <time>2021-08-04T08:54:47.860Z</time>
      </trkpt>
      <trkpt lat="46.98993" lon="8.80268">
        <ele>1077</ele>
        <time>2021-08-04T08:54:48.861Z</time>
      </trkpt>
      <trkpt lat="46.98992" lon="8.80267">
        <ele>1077</ele>
        <time>2021-08-04T08:54:49.861Z</time>
      </trkpt>
      <trkpt lat="46.98992" lon="8.80265">
        <ele>1076</ele>
        <time>2021-08-04T08:54:50.860Z</time>
      </trkpt>
      <trkpt lat="46.98992" lon="8.80263">
        <ele>1076</ele>
        <time>2021-08-04T08:54:51.861Z</time>
      </trkpt>
      <trkpt lat="46.98992" lon="8.80261">
        <ele>1076</ele>
        <time>2021-08-04T08:54:52.860Z</time>
      </trkpt>
      <trkpt lat="46.98991" lon="8.80258">
        <ele>1076</ele>
        <time>2021-08-04T08:54:53.860Z</time>
      </trkpt>
      <trkpt lat="46.98991" lon="8.80256">
        <ele>1076</ele>
        <time>2021-08-04T08:54:54.861Z</time>
      </trkpt>
      <trkpt lat="46.98991" lon="8.80254">
        <ele>1075</ele>
        <time>2021-08-04T08:54:55.861Z</time>
      </trkpt>
      <trkpt lat="46.98991" lon="8.80253">
        <ele>1075</ele>
        <time>2021-08-04T08:54:56.861Z</time>
      </trkpt>
      <trkpt lat="46.98991" lon="8.8025">
        <ele>1076</ele>
        <time>2021-08-04T08:54:57.861Z</time>
      </trkpt>
      <trkpt lat="46.98991" lon="8.80248">
        <ele>1076</ele>
        <time>2021-08-04T08:54:58.861Z</time>
      </trkpt>
      <trkpt lat="46.98991" lon="8.80246">
        <ele>1076</ele>
        <time>2021-08-04T08:54:59.861Z</time>
      </trkpt>
      <trkpt lat="46.98992" lon="8.80245">
        <ele>1076</ele>
        <time>2021-08-04T08:55:00.861Z</time>
      </trkpt>
      <trkpt lat="46.98992" lon="8.80243">
        <ele>1076</ele>
        <time>2021-08-04T08:55:01.861Z</time>
      </trkpt>
      <trkpt lat="46.98992" lon="8.80241">
        <ele>1075</ele>
        <time>2021-08-04T08:55:02.861Z</time>
      </trkpt>
      <trkpt lat="46.98992" lon="8.80239">
        <ele>1075</ele>
        <time>2021-08-04T08:55:03.860Z</time>
      </trkpt>
      <trkpt lat="46.98992" lon="8.80238">
        <ele>1074</ele>
        <time>2021-08-04T08:55:04.861Z</time>
      </trkpt>
      <trkpt lat="46.98992" lon="8.80236">
        <ele>1074</ele>
        <time>2021-08-04T08:55:05.860Z</time>
      </trkpt>
      <trkpt lat="46.98992" lon="8.80233">
        <ele>1074</ele>
        <time>2021-08-04T08:55:06.861Z</time>
      </trkpt>
      <trkpt lat="46.98993" lon="8.80231">
        <ele>1075</ele>
        <time>2021-08-04T08:55:07.861Z</time>
      </trkpt>
      <trkpt lat="46.98994" lon="8.8023">
        <ele>1075</ele>
        <time>2021-08-04T08:55:08.861Z</time>
      </trkpt>
      <trkpt lat="46.98994" lon="8.80228">
        <ele>1075</ele>
        <time>2021-08-04T08:55:09.861Z</time>
      </trkpt>
      <trkpt lat="46.98994" lon="8.80227">
        <ele>1074</ele>
        <time>2021-08-04T08:55:10.861Z</time>
      </trkpt>
      <trkpt lat="46.98994" lon="8.80226">
        <ele>1074</ele>
        <time>2021-08-04T08:55:11.861Z</time>
      </trkpt>
      <trkpt lat="46.98994" lon="8.80226">
        <ele>1074</ele>
        <time>2021-08-04T08:55:12.861Z</time>
      </trkpt>
      <trkpt lat="46.98994" lon="8.80225">
        <ele>1073</ele>
        <time>2021-08-04T08:55:13.861Z</time>
      </trkpt>
      <trkpt lat="46.98994" lon="8.80224">
        <ele>1073</ele>
        <time>2021-08-04T08:55:14.861Z</time>
      </trkpt>
      <trkpt lat="46.98994" lon="8.80223">
        <ele>1073</ele>
        <time>2021-08-04T08:55:15.860Z</time>
      </trkpt>
      <trkpt lat="46.98994" lon="8.80223">
        <ele>1073</ele>
        <time>2021-08-04T08:55:16.861Z</time>
      </trkpt>
      <trkpt lat="46.98993" lon="8.80221">
        <ele>1073</ele>
        <time>2021-08-04T08:55:17.860Z</time>
      </trkpt>
      <trkpt lat="46.98993" lon="8.80221">
        <ele>1073</ele>
        <time>2021-08-04T08:55:18.861Z</time>
      </trkpt>
      <trkpt lat="46.98992" lon="8.8022">
        <ele>1073</ele>
        <time>2021-08-04T08:55:19.861Z</time>
      </trkpt>
      <trkpt lat="46.98992" lon="8.80219">
        <ele>1073</ele>
        <time>2021-08-04T08:55:20.861Z</time>
      </trkpt>
      <trkpt lat="46.98992" lon="8.80219">
        <ele>1073</ele>
        <time>2021-08-04T08:55:21.861Z</time>
      </trkpt>
      <trkpt lat="46.98992" lon="8.80218">
        <ele>1072</ele>
        <time>2021-08-04T08:55:22.860Z</time>
      </trkpt>
      <trkpt lat="46.98991" lon="8.80218">
        <ele>1072</ele>
        <time>2021-08-04T08:55:23.861Z</time>
      </trkpt>
      <trkpt lat="46.9899" lon="8.80218">
        <ele>1071</ele>
        <time>2021-08-04T08:55:24.860Z</time>
      </trkpt>
      <trkpt lat="46.9899" lon="8.80217">
        <ele>1071</ele>
        <time>2021-08-04T08:55:25.861Z</time>
      </trkpt>
      <trkpt lat="46.9899" lon="8.80217">
        <ele>1071</ele>
        <time>2021-08-04T08:55:26.861Z</time>
      </trkpt>
      <trkpt lat="46.9899" lon="8.80216">
        <ele>1071</ele>
        <time>2021-08-04T08:55:27.861Z</time>
      </trkpt>
      <trkpt lat="46.98989" lon="8.80215">
        <ele>1070</ele>
        <time>2021-08-04T08:55:28.860Z</time>
      </trkpt>
      <trkpt lat="46.98989" lon="8.80214">
        <ele>1070</ele>
        <time>2021-08-04T08:55:29.861Z</time>
      </trkpt>
      <trkpt lat="46.9899" lon="8.80213">
        <ele>1070</ele>
        <time>2021-08-04T08:55:30.861Z</time>
      </trkpt>
      <trkpt lat="46.98991" lon="8.80213">
        <ele>1070</ele>
        <time>2021-08-04T08:55:31.860Z</time>
      </trkpt>
      <trkpt lat="46.98992" lon="8.80213">
        <ele>1070</ele>
        <time>2021-08-04T08:55:32.861Z</time>
      </trkpt>
      <trkpt lat="46.98992" lon="8.80214">
        <ele>1070</ele>
        <time>2021-08-04T08:55:33.861Z</time>
      </trkpt>
      <trkpt lat="46.98993" lon="8.80215">
        <ele>1062</ele>
        <time>2021-08-04T08:55:34.861Z</time>
      </trkpt>
      <trkpt lat="46.98993" lon="8.80215">
        <ele>1062</ele>
        <time>2021-08-04T08:55:35.861Z</time>
      </trkpt>
      <trkpt lat="46.98991" lon="8.80218">
        <ele>1062</ele>
        <time>2021-08-04T08:55:36.862Z</time>
      </trkpt>
      <trkpt lat="46.9899" lon="8.80218">
        <ele>1062</ele>
        <time>2021-08-04T08:55:37.862Z</time>
      </trkpt>
      <trkpt lat="46.9899" lon="8.80218">
        <ele>1062</ele>
        <time>2021-08-04T08:55:38.862Z</time>
      </trkpt>
      <trkpt lat="46.9899" lon="8.80218">
        <ele>1062</ele>
        <time>2021-08-04T08:55:39.863Z</time>
      </trkpt>
      <trkpt lat="46.9899" lon="8.80219">
        <ele>1062</ele>
        <time>2021-08-04T08:55:40.862Z</time>
      </trkpt>
      <trkpt lat="46.98989" lon="8.8022">
        <ele>1062</ele>
        <time>2021-08-04T08:55:41.863Z</time>
      </trkpt>
      <trkpt lat="46.9899" lon="8.80221">
        <ele>1063</ele>
        <time>2021-08-04T08:55:42.862Z</time>
      </trkpt>
      <trkpt lat="46.9899" lon="8.80223">
        <ele>1063</ele>
        <time>2021-08-04T08:55:43.863Z</time>
      </trkpt>
      <trkpt lat="46.9899" lon="8.80223">
        <ele>1063</ele>
        <time>2021-08-04T08:55:44.863Z</time>
      </trkpt>
      <trkpt lat="46.9899" lon="8.80223">
        <ele>1063</ele>
        <time>2021-08-04T08:55:45.863Z</time>
      </trkpt>
      <trkpt lat="46.98991" lon="8.80223">
        <ele>1064</ele>
        <time>2021-08-04T08:55:46.863Z</time>
      </trkpt>
      <trkpt lat="46.98991" lon="8.80222">
        <ele>1064</ele>
        <time>2021-08-04T08:55:47.863Z</time>
      </trkpt>
      <trkpt lat="46.98991" lon="8.80222">
        <ele>1064</ele>
        <time>2021-08-04T08:55:48.863Z</time>
      </trkpt>
      <trkpt lat="46.98992" lon="8.80221">
        <ele>1064</ele>
        <time>2021-08-04T08:55:49.863Z</time>
      </trkpt>
      <trkpt lat="46.98993" lon="8.80221">
        <ele>1065</ele>
        <time>2021-08-04T08:55:50.863Z</time>
      </trkpt>
      <trkpt lat="46.98995" lon="8.80219">
        <ele>1065</ele>
        <time>2021-08-04T08:55:51.863Z</time>
      </trkpt>
      <trkpt lat="46.98992" lon="8.8022">
        <ele>1065</ele>
        <time>2021-08-04T08:55:52.863Z</time>
      </trkpt>
      <trkpt lat="46.98992" lon="8.8022">
        <ele>1065</ele>
        <time>2021-08-04T08:55:53.863Z</time>
      </trkpt>
      <trkpt lat="46.98993" lon="8.8022">
        <ele>1065</ele>
        <time>2021-08-04T08:55:54.862Z</time>
      </trkpt>
      <trkpt lat="46.98993" lon="8.8022">
        <ele>1066</ele>
        <time>2021-08-04T08:55:55.863Z</time>
      </trkpt>
      <trkpt lat="46.98992" lon="8.80219">
        <ele>1066</ele>
        <time>2021-08-04T08:55:56.863Z</time>
      </trkpt>
      <trkpt lat="46.98992" lon="8.80218">
        <ele>1067</ele>
        <time>2021-08-04T08:55:57.862Z</time>
      </trkpt>
      <trkpt lat="46.98992" lon="8.80216">
        <ele>1067</ele>
        <time>2021-08-04T08:55:58.862Z</time>
      </trkpt>
      <trkpt lat="46.98992" lon="8.80215">
        <ele>1068</ele>
        <time>2021-08-04T08:55:59.863Z</time>
      </trkpt>
      <trkpt lat="46.98994" lon="8.80215">
        <ele>1068</ele>
        <time>2021-08-04T08:56:00.863Z</time>
      </trkpt>
      <trkpt lat="46.98995" lon="8.80213">
        <ele>1069</ele>
        <time>2021-08-04T08:56:01.863Z</time>
      </trkpt>
      <trkpt lat="46.98994" lon="8.8021">
        <ele>1070</ele>
        <time>2021-08-04T08:56:02.863Z</time>
      </trkpt>
      <trkpt lat="46.98994" lon="8.80209">
        <ele>1070</ele>
        <time>2021-08-04T08:56:03.863Z</time>
      </trkpt>
      <trkpt lat="46.98994" lon="8.80207">
        <ele>1070</ele>
        <time>2021-08-04T08:56:04.863Z</time>
      </trkpt>
      <trkpt lat="46.98994" lon="8.80205">
        <ele>1070</ele>
        <time>2021-08-04T08:56:05.862Z</time>
      </trkpt>
      <trkpt lat="46.98994" lon="8.80203">
        <ele>1070</ele>
        <time>2021-08-04T08:56:06.862Z</time>
      </trkpt>
      <trkpt lat="46.98994" lon="8.80202">
        <ele>1070</ele>
        <time>2021-08-04T08:56:07.862Z</time>
      </trkpt>
      <trkpt lat="46.98994" lon="8.802">
        <ele>1069</ele>
        <time>2021-08-04T08:56:08.863Z</time>
      </trkpt>
      <trkpt lat="46.98993" lon="8.80199">
        <ele>1069</ele>
        <time>2021-08-04T08:56:09.863Z</time>
      </trkpt>
      <trkpt lat="46.98993" lon="8.80197">
        <ele>1069</ele>
        <time>2021-08-04T08:56:10.863Z</time>
      </trkpt>
      <trkpt lat="46.98993" lon="8.80196">
        <ele>1068</ele>
        <time>2021-08-04T08:56:11.862Z</time>
      </trkpt>
      <trkpt lat="46.98993" lon="8.80194">
        <ele>1068</ele>
        <time>2021-08-04T08:56:12.862Z</time>
      </trkpt>
      <trkpt lat="46.98992" lon="8.80192">
        <ele>1068</ele>
        <time>2021-08-04T08:56:13.863Z</time>
      </trkpt>
      <trkpt lat="46.98992" lon="8.80191">
        <ele>1067</ele>
        <time>2021-08-04T08:56:14.863Z</time>
      </trkpt>
      <trkpt lat="46.98992" lon="8.8019">
        <ele>1067</ele>
        <time>2021-08-04T08:56:15.862Z</time>
      </trkpt>
      <trkpt lat="46.98992" lon="8.8019">
        <ele>1068</ele>
        <time>2021-08-04T08:56:16.862Z</time>
      </trkpt>
      <trkpt lat="46.98992" lon="8.8019">
        <ele>1068</ele>
        <time>2021-08-04T08:56:17.863Z</time>
      </trkpt>
      <trkpt lat="46.98992" lon="8.8019">
        <ele>1068</ele>
        <time>2021-08-04T08:56:18.863Z</time>
      </trkpt>
      <trkpt lat="46.98991" lon="8.80191">
        <ele>1068</ele>
        <time>2021-08-04T08:56:19.863Z</time>
      </trkpt>
      <trkpt lat="46.98991" lon="8.80192">
        <ele>1069</ele>
        <time>2021-08-04T08:56:20.863Z</time>
      </trkpt>
      <trkpt lat="46.98993" lon="8.80191">
        <ele>1066</ele>
        <time>2021-08-04T08:56:21.864Z</time>
      </trkpt>
      <trkpt lat="46.98993" lon="8.8019">
        <ele>1066</ele>
        <time>2021-08-04T08:56:22.863Z</time>
      </trkpt>
      <trkpt lat="46.98993" lon="8.80188">
        <ele>1063</ele>
        <time>2021-08-04T08:56:23.863Z</time>
      </trkpt>
      <trkpt lat="46.98993" lon="8.80188">
        <ele>1063</ele>
        <time>2021-08-04T08:56:24.864Z</time>
      </trkpt>
      <trkpt lat="46.98993" lon="8.80187">
        <ele>1064</ele>
        <time>2021-08-04T08:56:25.863Z</time>
      </trkpt>
      <trkpt lat="46.98993" lon="8.80186">
        <ele>1064</ele>
        <time>2021-08-04T08:56:26.864Z</time>
      </trkpt>
      <trkpt lat="46.98994" lon="8.80184">
        <ele>1065</ele>
        <time>2021-08-04T08:56:27.864Z</time>
      </trkpt>
      <trkpt lat="46.98994" lon="8.80183">
        <ele>1065</ele>
        <time>2021-08-04T08:56:28.864Z</time>
      </trkpt>
      <trkpt lat="46.98994" lon="8.80181">
        <ele>1065</ele>
        <time>2021-08-04T08:56:29.863Z</time>
      </trkpt>
      <trkpt lat="46.98995" lon="8.80179">
        <ele>1065</ele>
        <time>2021-08-04T08:56:30.864Z</time>
      </trkpt>
      <trkpt lat="46.98995" lon="8.80177">
        <ele>1065</ele>
        <time>2021-08-04T08:56:31.863Z</time>
      </trkpt>
      <trkpt lat="46.98996" lon="8.80175">
        <ele>1065</ele>
        <time>2021-08-04T08:56:32.864Z</time>
      </trkpt>
      <trkpt lat="46.98996" lon="8.80173">
        <ele>1065</ele>
        <time>2021-08-04T08:56:33.864Z</time>
      </trkpt>
      <trkpt lat="46.98996" lon="8.80172">
        <ele>1065</ele>
        <time>2021-08-04T08:56:34.864Z</time>
      </trkpt>
      <trkpt lat="46.98997" lon="8.80171">
        <ele>1066</ele>
        <time>2021-08-04T08:56:35.863Z</time>
      </trkpt>
      <trkpt lat="46.98997" lon="8.80169">
        <ele>1066</ele>
        <time>2021-08-04T08:56:36.863Z</time>
      </trkpt>
      <trkpt lat="46.98998" lon="8.80168">
        <ele>1066</ele>
        <time>2021-08-04T08:56:37.864Z</time>
      </trkpt>
      <trkpt lat="46.98998" lon="8.80167">
        <ele>1067</ele>
        <time>2021-08-04T08:56:38.864Z</time>
      </trkpt>
      <trkpt lat="46.98999" lon="8.80165">
        <ele>1067</ele>
        <time>2021-08-04T08:56:39.863Z</time>
      </trkpt>
      <trkpt lat="46.98999" lon="8.80163">
        <ele>1068</ele>
        <time>2021-08-04T08:56:40.864Z</time>
      </trkpt>
      <trkpt lat="46.98999" lon="8.80162">
        <ele>1068</ele>
        <time>2021-08-04T08:56:41.864Z</time>
      </trkpt>
      <trkpt lat="46.99" lon="8.8016">
        <ele>1068</ele>
        <time>2021-08-04T08:56:42.864Z</time>
      </trkpt>
      <trkpt lat="46.98999" lon="8.80158">
        <ele>1068</ele>
        <time>2021-08-04T08:56:43.863Z</time>
      </trkpt>
      <trkpt lat="46.98999" lon="8.80155">
        <ele>1068</ele>
        <time>2021-08-04T08:56:44.864Z</time>
      </trkpt>
      <trkpt lat="46.98999" lon="8.80153">
        <ele>1068</ele>
        <time>2021-08-04T08:56:45.864Z</time>
      </trkpt>
      <trkpt lat="46.98999" lon="8.80151">
        <ele>1068</ele>
        <time>2021-08-04T08:56:46.864Z</time>
      </trkpt>
      <trkpt lat="46.98999" lon="8.8015">
        <ele>1068</ele>
        <time>2021-08-04T08:56:47.863Z</time>
      </trkpt>
      <trkpt lat="46.99" lon="8.80148">
        <ele>1068</ele>
        <time>2021-08-04T08:56:48.864Z</time>
      </trkpt>
      <trkpt lat="46.99001" lon="8.80145">
        <ele>1068</ele>
        <time>2021-08-04T08:56:49.864Z</time>
      </trkpt>
      <trkpt lat="46.99001" lon="8.80144">
        <ele>1067</ele>
        <time>2021-08-04T08:56:50.864Z</time>
      </trkpt>
      <trkpt lat="46.99001" lon="8.80142">
        <ele>1068</ele>
        <time>2021-08-04T08:56:51.864Z</time>
      </trkpt>
      <trkpt lat="46.99001" lon="8.8014">
        <ele>1068</ele>
        <time>2021-08-04T08:56:52.863Z</time>
      </trkpt>
      <trkpt lat="46.99001" lon="8.80138">
        <ele>1068</ele>
        <time>2021-08-04T08:56:53.864Z</time>
      </trkpt>
      <trkpt lat="46.99001" lon="8.80137">
        <ele>1069</ele>
        <time>2021-08-04T08:56:54.864Z</time>
      </trkpt>
      <trkpt lat="46.99001" lon="8.80136">
        <ele>1069</ele>
        <time>2021-08-04T08:56:55.863Z</time>
      </trkpt>
      <trkpt lat="46.99001" lon="8.80134">
        <ele>1069</ele>
        <time>2021-08-04T08:56:56.864Z</time>
      </trkpt>
      <trkpt lat="46.99002" lon="8.80132">
        <ele>1069</ele>
        <time>2021-08-04T08:56:57.863Z</time>
      </trkpt>
      <trkpt lat="46.99002" lon="8.80131">
        <ele>1069</ele>
        <time>2021-08-04T08:56:58.864Z</time>
      </trkpt>
      <trkpt lat="46.99002" lon="8.80129">
        <ele>1069</ele>
        <time>2021-08-04T08:56:59.863Z</time>
      </trkpt>
      <trkpt lat="46.99002" lon="8.80128">
        <ele>1068</ele>
        <time>2021-08-04T08:57:00.864Z</time>
      </trkpt>
      <trkpt lat="46.99003" lon="8.80126">
        <ele>1067</ele>
        <time>2021-08-04T08:57:01.864Z</time>
      </trkpt>
      <trkpt lat="46.99003" lon="8.80124">
        <ele>1067</ele>
        <time>2021-08-04T08:57:02.864Z</time>
      </trkpt>
      <trkpt lat="46.99002" lon="8.80123">
        <ele>1066</ele>
        <time>2021-08-04T08:57:03.863Z</time>
      </trkpt>
      <trkpt lat="46.99002" lon="8.80121">
        <ele>1065</ele>
        <time>2021-08-04T08:57:04.864Z</time>
      </trkpt>
      <trkpt lat="46.99002" lon="8.80119">
        <ele>1064</ele>
        <time>2021-08-04T08:57:05.863Z</time>
      </trkpt>
      <trkpt lat="46.99002" lon="8.80117">
        <ele>1064</ele>
        <time>2021-08-04T08:57:06.863Z</time>
      </trkpt>
      <trkpt lat="46.99002" lon="8.80115">
        <ele>1064</ele>
        <time>2021-08-04T08:57:07.863Z</time>
      </trkpt>
      <trkpt lat="46.99003" lon="8.80113">
        <ele>1063</ele>
        <time>2021-08-04T08:57:08.863Z</time>
      </trkpt>
      <trkpt lat="46.99003" lon="8.80111">
        <ele>1063</ele>
        <time>2021-08-04T08:57:09.864Z</time>
      </trkpt>
      <trkpt lat="46.99003" lon="8.8011">
        <ele>1063</ele>
        <time>2021-08-04T08:57:10.864Z</time>
      </trkpt>
      <trkpt lat="46.99004" lon="8.80108">
        <ele>1063</ele>
        <time>2021-08-04T08:57:11.864Z</time>
      </trkpt>
      <trkpt lat="46.99003" lon="8.80106">
        <ele>1062</ele>
        <time>2021-08-04T08:57:12.863Z</time>
      </trkpt>
      <trkpt lat="46.99004" lon="8.80103">
        <ele>1062</ele>
        <time>2021-08-04T08:57:13.864Z</time>
      </trkpt>
      <trkpt lat="46.99004" lon="8.80101">
        <ele>1062</ele>
        <time>2021-08-04T08:57:14.864Z</time>
      </trkpt>
      <trkpt lat="46.99004" lon="8.801">
        <ele>1061</ele>
        <time>2021-08-04T08:57:15.864Z</time>
      </trkpt>
      <trkpt lat="46.99004" lon="8.80098">
        <ele>1061</ele>
        <time>2021-08-04T08:57:16.863Z</time>
      </trkpt>
      <trkpt lat="46.99005" lon="8.80096">
        <ele>1061</ele>
        <time>2021-08-04T08:57:17.863Z</time>
      </trkpt>
      <trkpt lat="46.99005" lon="8.80094">
        <ele>1060</ele>
        <time>2021-08-04T08:57:18.864Z</time>
      </trkpt>
      <trkpt lat="46.99004" lon="8.80092">
        <ele>1060</ele>
        <time>2021-08-04T08:57:19.864Z</time>
      </trkpt>
      <trkpt lat="46.99004" lon="8.8009">
        <ele>1060</ele>
        <time>2021-08-04T08:57:20.864Z</time>
      </trkpt>
      <trkpt lat="46.99004" lon="8.80089">
        <ele>1059</ele>
        <time>2021-08-04T08:57:21.864Z</time>
      </trkpt>
      <trkpt lat="46.99004" lon="8.80088">
        <ele>1059</ele>
        <time>2021-08-04T08:57:22.864Z</time>
      </trkpt>
      <trkpt lat="46.99004" lon="8.80086">
        <ele>1059</ele>
        <time>2021-08-04T08:57:23.864Z</time>
      </trkpt>
      <trkpt lat="46.99005" lon="8.80085">
        <ele>1059</ele>
        <time>2021-08-04T08:57:24.864Z</time>
      </trkpt>
      <trkpt lat="46.99005" lon="8.80083">
        <ele>1059</ele>
        <time>2021-08-04T08:57:25.863Z</time>
      </trkpt>
      <trkpt lat="46.99006" lon="8.80081">
        <ele>1059</ele>
        <time>2021-08-04T08:57:26.864Z</time>
      </trkpt>
      <trkpt lat="46.99006" lon="8.80079">
        <ele>1058</ele>
        <time>2021-08-04T08:57:27.863Z</time>
      </trkpt>
      <trkpt lat="46.99005" lon="8.80077">
        <ele>1058</ele>
        <time>2021-08-04T08:57:28.863Z</time>
      </trkpt>
      <trkpt lat="46.99005" lon="8.80075">
        <ele>1058</ele>
        <time>2021-08-04T08:57:29.863Z</time>
      </trkpt>
      <trkpt lat="46.99005" lon="8.80073">
        <ele>1058</ele>
        <time>2021-08-04T08:57:30.863Z</time>
      </trkpt>
      <trkpt lat="46.99005" lon="8.80071">
        <ele>1058</ele>
        <time>2021-08-04T08:57:31.863Z</time>
      </trkpt>
      <trkpt lat="46.99004" lon="8.80069">
        <ele>1058</ele>
        <time>2021-08-04T08:57:32.863Z</time>
      </trkpt>
      <trkpt lat="46.99003" lon="8.80067">
        <ele>1058</ele>
        <time>2021-08-04T08:57:33.863Z</time>
      </trkpt>
      <trkpt lat="46.99003" lon="8.80066">
        <ele>1057</ele>
        <time>2021-08-04T08:57:34.864Z</time>
      </trkpt>
      <trkpt lat="46.99002" lon="8.80063">
        <ele>1057</ele>
        <time>2021-08-04T08:57:35.863Z</time>
      </trkpt>
      <trkpt lat="46.99001" lon="8.80061">
        <ele>1057</ele>
        <time>2021-08-04T08:57:36.864Z</time>
      </trkpt>
      <trkpt lat="46.99001" lon="8.80059">
        <ele>1057</ele>
        <time>2021-08-04T08:57:37.864Z</time>
      </trkpt>
      <trkpt lat="46.99001" lon="8.80057">
        <ele>1056</ele>
        <time>2021-08-04T08:57:38.864Z</time>
      </trkpt>
      <trkpt lat="46.99" lon="8.80055">
        <ele>1056</ele>
        <time>2021-08-04T08:57:39.864Z</time>
      </trkpt>
      <trkpt lat="46.99" lon="8.80053">
        <ele>1056</ele>
        <time>2021-08-04T08:57:40.863Z</time>
      </trkpt>
      <trkpt lat="46.98999" lon="8.80051">
        <ele>1055</ele>
        <time>2021-08-04T08:57:41.864Z</time>
      </trkpt>
      <trkpt lat="46.98999" lon="8.80049">
        <ele>1055</ele>
        <time>2021-08-04T08:57:42.864Z</time>
      </trkpt>
      <trkpt lat="46.98998" lon="8.80047">
        <ele>1054</ele>
        <time>2021-08-04T08:57:43.864Z</time>
      </trkpt>
      <trkpt lat="46.98998" lon="8.80045">
        <ele>1054</ele>
        <time>2021-08-04T08:57:44.863Z</time>
      </trkpt>
      <trkpt lat="46.98998" lon="8.80043">
        <ele>1054</ele>
        <time>2021-08-04T08:57:45.864Z</time>
      </trkpt>
      <trkpt lat="46.98997" lon="8.80042">
        <ele>1054</ele>
        <time>2021-08-04T08:57:46.864Z</time>
      </trkpt>
      <trkpt lat="46.98997" lon="8.8004">
        <ele>1054</ele>
        <time>2021-08-04T08:57:47.864Z</time>
      </trkpt>
      <trkpt lat="46.98997" lon="8.80039">
        <ele>1054</ele>
        <time>2021-08-04T08:57:48.863Z</time>
      </trkpt>
      <trkpt lat="46.98997" lon="8.80037">
        <ele>1054</ele>
        <time>2021-08-04T08:57:49.864Z</time>
      </trkpt>
      <trkpt lat="46.98997" lon="8.80035">
        <ele>1054</ele>
        <time>2021-08-04T08:57:50.863Z</time>
      </trkpt>
      <trkpt lat="46.98998" lon="8.80034">
        <ele>1053</ele>
        <time>2021-08-04T08:57:51.863Z</time>
      </trkpt>
      <trkpt lat="46.98998" lon="8.80033">
        <ele>1053</ele>
        <time>2021-08-04T08:57:52.864Z</time>
      </trkpt>
      <trkpt lat="46.98998" lon="8.80031">
        <ele>1053</ele>
        <time>2021-08-04T08:57:53.864Z</time>
      </trkpt>
      <trkpt lat="46.98999" lon="8.8003">
        <ele>1052</ele>
        <time>2021-08-04T08:57:54.863Z</time>
      </trkpt>
      <trkpt lat="46.99" lon="8.80029">
        <ele>1052</ele>
        <time>2021-08-04T08:57:55.864Z</time>
      </trkpt>
      <trkpt lat="46.99001" lon="8.80028">
        <ele>1052</ele>
        <time>2021-08-04T08:57:56.864Z</time>
      </trkpt>
      <trkpt lat="46.99001" lon="8.80027">
        <ele>1052</ele>
        <time>2021-08-04T08:57:57.864Z</time>
      </trkpt>
      <trkpt lat="46.99002" lon="8.80025">
        <ele>1052</ele>
        <time>2021-08-04T08:57:58.863Z</time>
      </trkpt>
      <trkpt lat="46.99003" lon="8.80023">
        <ele>1052</ele>
        <time>2021-08-04T08:57:59.863Z</time>
      </trkpt>
      <trkpt lat="46.99004" lon="8.80022">
        <ele>1053</ele>
        <time>2021-08-04T08:58:00.863Z</time>
      </trkpt>
      <trkpt lat="46.99005" lon="8.80021">
        <ele>1053</ele>
        <time>2021-08-04T08:58:01.864Z</time>
      </trkpt>
      <trkpt lat="46.99007" lon="8.8002">
        <ele>1053</ele>
        <time>2021-08-04T08:58:02.864Z</time>
      </trkpt>
      <trkpt lat="46.99008" lon="8.8002">
        <ele>1053</ele>
        <time>2021-08-04T08:58:03.864Z</time>
      </trkpt>
      <trkpt lat="46.99009" lon="8.8002">
        <ele>1053</ele>
        <time>2021-08-04T08:58:04.863Z</time>
      </trkpt>
      <trkpt lat="46.99011" lon="8.80019">
        <ele>1054</ele>
        <time>2021-08-04T08:58:05.864Z</time>
      </trkpt>
      <trkpt lat="46.99012" lon="8.80018">
        <ele>1054</ele>
        <time>2021-08-04T08:58:06.864Z</time>
      </trkpt>
      <trkpt lat="46.99013" lon="8.80017">
        <ele>1054</ele>
        <time>2021-08-04T08:58:07.864Z</time>
      </trkpt>
      <trkpt lat="46.99014" lon="8.80015">
        <ele>1054</ele>
        <time>2021-08-04T08:58:08.864Z</time>
      </trkpt>
      <trkpt lat="46.99014" lon="8.80013">
        <ele>1055</ele>
        <time>2021-08-04T08:58:09.864Z</time>
      </trkpt>
      <trkpt lat="46.99014" lon="8.80011">
        <ele>1055</ele>
        <time>2021-08-04T08:58:10.863Z</time>
      </trkpt>
      <trkpt lat="46.99014" lon="8.80009">
        <ele>1055</ele>
        <time>2021-08-04T08:58:11.864Z</time>
      </trkpt>
      <trkpt lat="46.99015" lon="8.80007">
        <ele>1055</ele>
        <time>2021-08-04T08:58:12.864Z</time>
      </trkpt>
      <trkpt lat="46.99015" lon="8.80006">
        <ele>1054</ele>
        <time>2021-08-04T08:58:13.863Z</time>
      </trkpt>
      <trkpt lat="46.99015" lon="8.80004">
        <ele>1054</ele>
        <time>2021-08-04T08:58:14.864Z</time>
      </trkpt>
      <trkpt lat="46.99014" lon="8.80002">
        <ele>1054</ele>
        <time>2021-08-04T08:58:15.863Z</time>
      </trkpt>
      <trkpt lat="46.99014" lon="8.80001">
        <ele>1053</ele>
        <time>2021-08-04T08:58:16.863Z</time>
      </trkpt>
      <trkpt lat="46.99014" lon="8.79999">
        <ele>1053</ele>
        <time>2021-08-04T08:58:17.864Z</time>
      </trkpt>
      <trkpt lat="46.99014" lon="8.79998">
        <ele>1053</ele>
        <time>2021-08-04T08:58:18.864Z</time>
      </trkpt>
      <trkpt lat="46.99014" lon="8.79996">
        <ele>1054</ele>
        <time>2021-08-04T08:58:19.863Z</time>
      </trkpt>
      <trkpt lat="46.99014" lon="8.79994">
        <ele>1054</ele>
        <time>2021-08-04T08:58:20.863Z</time>
      </trkpt>
      <trkpt lat="46.99014" lon="8.79992">
        <ele>1054</ele>
        <time>2021-08-04T08:58:21.863Z</time>
      </trkpt>
      <trkpt lat="46.99013" lon="8.79989">
        <ele>1055</ele>
        <time>2021-08-04T08:58:22.863Z</time>
      </trkpt>
      <trkpt lat="46.99012" lon="8.79987">
        <ele>1055</ele>
        <time>2021-08-04T08:58:23.863Z</time>
      </trkpt>
      <trkpt lat="46.99011" lon="8.79984">
        <ele>1056</ele>
        <time>2021-08-04T08:58:24.864Z</time>
      </trkpt>
      <trkpt lat="46.9901" lon="8.79982">
        <ele>1056</ele>
        <time>2021-08-04T08:58:25.863Z</time>
      </trkpt>
      <trkpt lat="46.9901" lon="8.7998">
        <ele>1057</ele>
        <time>2021-08-04T08:58:26.864Z</time>
      </trkpt>
      <trkpt lat="46.99009" lon="8.79979">
        <ele>1057</ele>
        <time>2021-08-04T08:58:27.864Z</time>
      </trkpt>
      <trkpt lat="46.99009" lon="8.79977">
        <ele>1058</ele>
        <time>2021-08-04T08:58:28.863Z</time>
      </trkpt>
      <trkpt lat="46.99009" lon="8.79976">
        <ele>1058</ele>
        <time>2021-08-04T08:58:29.863Z</time>
      </trkpt>
      <trkpt lat="46.99009" lon="8.79975">
        <ele>1059</ele>
        <time>2021-08-04T08:58:30.863Z</time>
      </trkpt>
      <trkpt lat="46.99008" lon="8.79974">
        <ele>1059</ele>
        <time>2021-08-04T08:58:31.864Z</time>
      </trkpt>
      <trkpt lat="46.9901" lon="8.79974">
        <ele>1059</ele>
        <time>2021-08-04T08:58:32.863Z</time>
      </trkpt>
      <trkpt lat="46.9901" lon="8.79974">
        <ele>1060</ele>
        <time>2021-08-04T08:58:33.864Z</time>
      </trkpt>
      <trkpt lat="46.99011" lon="8.79976">
        <ele>1061</ele>
        <time>2021-08-04T08:58:34.863Z</time>
      </trkpt>
      <trkpt lat="46.9901" lon="8.79978">
        <ele>1061</ele>
        <time>2021-08-04T08:58:35.863Z</time>
      </trkpt>
      <trkpt lat="46.99009" lon="8.79979">
        <ele>1062</ele>
        <time>2021-08-04T08:58:36.864Z</time>
      </trkpt>
      <trkpt lat="46.9901" lon="8.79977">
        <ele>1062</ele>
        <time>2021-08-04T08:58:37.864Z</time>
      </trkpt>
      <trkpt lat="46.9901" lon="8.79974">
        <ele>1062</ele>
        <time>2021-08-04T08:58:38.863Z</time>
      </trkpt>
      <trkpt lat="46.9901" lon="8.79972">
        <ele>1062</ele>
        <time>2021-08-04T08:58:39.864Z</time>
      </trkpt>
      <trkpt lat="46.9901" lon="8.7997">
        <ele>1062</ele>
        <time>2021-08-04T08:58:40.864Z</time>
      </trkpt>
      <trkpt lat="46.99009" lon="8.79969">
        <ele>1062</ele>
        <time>2021-08-04T08:58:41.863Z</time>
      </trkpt>
      <trkpt lat="46.99008" lon="8.79967">
        <ele>1062</ele>
        <time>2021-08-04T08:58:42.863Z</time>
      </trkpt>
      <trkpt lat="46.99007" lon="8.79965">
        <ele>1062</ele>
        <time>2021-08-04T08:58:43.864Z</time>
      </trkpt>
      <trkpt lat="46.99006" lon="8.79964">
        <ele>1062</ele>
        <time>2021-08-04T08:58:44.864Z</time>
      </trkpt>
      <trkpt lat="46.99006" lon="8.79963">
        <ele>1062</ele>
        <time>2021-08-04T08:58:45.864Z</time>
      </trkpt>
      <trkpt lat="46.99005" lon="8.79962">
        <ele>1062</ele>
        <time>2021-08-04T08:58:46.863Z</time>
      </trkpt>
      <trkpt lat="46.99004" lon="8.7996">
        <ele>1061</ele>
        <time>2021-08-04T08:58:47.863Z</time>
      </trkpt>
      <trkpt lat="46.99004" lon="8.79957">
        <ele>1061</ele>
        <time>2021-08-04T08:58:48.864Z</time>
      </trkpt>
      <trkpt lat="46.99004" lon="8.79956">
        <ele>1061</ele>
        <time>2021-08-04T08:58:49.863Z</time>
      </trkpt>
      <trkpt lat="46.99004" lon="8.79954">
        <ele>1061</ele>
        <time>2021-08-04T08:58:50.863Z</time>
      </trkpt>
      <trkpt lat="46.99004" lon="8.79954">
        <ele>1060</ele>
        <time>2021-08-04T08:58:51.864Z</time>
      </trkpt>
      <trkpt lat="46.99004" lon="8.79953">
        <ele>1060</ele>
        <time>2021-08-04T08:58:52.864Z</time>
      </trkpt>
      <trkpt lat="46.99004" lon="8.79952">
        <ele>1060</ele>
        <time>2021-08-04T08:58:53.863Z</time>
      </trkpt>
      <trkpt lat="46.99003" lon="8.79948">
        <ele>1059</ele>
        <time>2021-08-04T08:58:54.866Z</time>
      </trkpt>
      <trkpt lat="46.99003" lon="8.79948">
        <ele>1059</ele>
        <time>2021-08-04T08:58:55.866Z</time>
      </trkpt>
      <trkpt lat="46.99004" lon="8.7995">
        <ele>1056</ele>
        <time>2021-08-04T08:58:56.867Z</time>
      </trkpt>
      <trkpt lat="46.99003" lon="8.79948">
        <ele>1056</ele>
        <time>2021-08-04T08:58:57.867Z</time>
      </trkpt>
      <trkpt lat="46.99003" lon="8.79946">
        <ele>1056</ele>
        <time>2021-08-04T08:58:58.866Z</time>
      </trkpt>
      <trkpt lat="46.99002" lon="8.79945">
        <ele>1056</ele>
        <time>2021-08-04T08:58:59.867Z</time>
      </trkpt>
      <trkpt lat="46.99002" lon="8.79943">
        <ele>1057</ele>
        <time>2021-08-04T08:59:00.867Z</time>
      </trkpt>
      <trkpt lat="46.99002" lon="8.79941">
        <ele>1057</ele>
        <time>2021-08-04T08:59:01.867Z</time>
      </trkpt>
      <trkpt lat="46.99002" lon="8.7994">
        <ele>1057</ele>
        <time>2021-08-04T08:59:02.867Z</time>
      </trkpt>
      <trkpt lat="46.99002" lon="8.79938">
        <ele>1058</ele>
        <time>2021-08-04T08:59:03.866Z</time>
      </trkpt>
      <trkpt lat="46.99001" lon="8.79937">
        <ele>1058</ele>
        <time>2021-08-04T08:59:04.867Z</time>
      </trkpt>
      <trkpt lat="46.99001" lon="8.79935">
        <ele>1058</ele>
        <time>2021-08-04T08:59:05.866Z</time>
      </trkpt>
      <trkpt lat="46.99" lon="8.79934">
        <ele>1058</ele>
        <time>2021-08-04T08:59:06.867Z</time>
      </trkpt>
      <trkpt lat="46.99" lon="8.79932">
        <ele>1058</ele>
        <time>2021-08-04T08:59:07.867Z</time>
      </trkpt>
      <trkpt lat="46.98999" lon="8.79932">
        <ele>1058</ele>
        <time>2021-08-04T08:59:08.867Z</time>
      </trkpt>
      <trkpt lat="46.98998" lon="8.79931">
        <ele>1058</ele>
        <time>2021-08-04T08:59:09.867Z</time>
      </trkpt>
      <trkpt lat="46.98998" lon="8.79929">
        <ele>1057</ele>
        <time>2021-08-04T08:59:10.867Z</time>
      </trkpt>
      <trkpt lat="46.98998" lon="8.79927">
        <ele>1057</ele>
        <time>2021-08-04T08:59:11.866Z</time>
      </trkpt>
      <trkpt lat="46.98998" lon="8.79925">
        <ele>1057</ele>
        <time>2021-08-04T08:59:12.866Z</time>
      </trkpt>
      <trkpt lat="46.98998" lon="8.79924">
        <ele>1056</ele>
        <time>2021-08-04T08:59:13.867Z</time>
      </trkpt>
      <trkpt lat="46.98998" lon="8.79922">
        <ele>1055</ele>
        <time>2021-08-04T08:59:14.867Z</time>
      </trkpt>
      <trkpt lat="46.98998" lon="8.7992">
        <ele>1054</ele>
        <time>2021-08-04T08:59:15.867Z</time>
      </trkpt>
      <trkpt lat="46.98997" lon="8.79918">
        <ele>1054</ele>
        <time>2021-08-04T08:59:16.867Z</time>
      </trkpt>
      <trkpt lat="46.98996" lon="8.79917">
        <ele>1054</ele>
        <time>2021-08-04T08:59:17.866Z</time>
      </trkpt>
      <trkpt lat="46.98996" lon="8.79915">
        <ele>1053</ele>
        <time>2021-08-04T08:59:18.867Z</time>
      </trkpt>
      <trkpt lat="46.98995" lon="8.79914">
        <ele>1053</ele>
        <time>2021-08-04T08:59:19.867Z</time>
      </trkpt>
      <trkpt lat="46.98994" lon="8.79913">
        <ele>1053</ele>
        <time>2021-08-04T08:59:20.866Z</time>
      </trkpt>
      <trkpt lat="46.98994" lon="8.79913">
        <ele>1053</ele>
        <time>2021-08-04T08:59:21.866Z</time>
      </trkpt>
      <trkpt lat="46.98993" lon="8.79913">
        <ele>1053</ele>
        <time>2021-08-04T08:59:22.867Z</time>
      </trkpt>
      <trkpt lat="46.98992" lon="8.79913">
        <ele>1052</ele>
        <time>2021-08-04T08:59:23.867Z</time>
      </trkpt>
      <trkpt lat="46.98991" lon="8.79913">
        <ele>1052</ele>
        <time>2021-08-04T08:59:24.867Z</time>
      </trkpt>
      <trkpt lat="46.98991" lon="8.79913">
        <ele>1052</ele>
        <time>2021-08-04T08:59:25.866Z</time>
      </trkpt>
      <trkpt lat="46.98981" lon="8.79911">
        <ele>1048</ele>
        <time>2021-08-04T08:59:26.868Z</time>
      </trkpt>
      <trkpt lat="46.98981" lon="8.79911">
        <ele>1048</ele>
        <time>2021-08-04T08:59:27.868Z</time>
      </trkpt>
      <trkpt lat="46.98976" lon="8.79908">
        <ele>1045</ele>
        <time>2021-08-04T08:59:28.868Z</time>
      </trkpt>
      <trkpt lat="46.98976" lon="8.79909">
        <ele>1045</ele>
        <time>2021-08-04T08:59:29.867Z</time>
      </trkpt>
      <trkpt lat="46.98976" lon="8.79911">
        <ele>1045</ele>
        <time>2021-08-04T08:59:30.867Z</time>
      </trkpt>
      <trkpt lat="46.98976" lon="8.79913">
        <ele>1044</ele>
        <time>2021-08-04T08:59:31.867Z</time>
      </trkpt>
      <trkpt lat="46.98976" lon="8.79914">
        <ele>1044</ele>
        <time>2021-08-04T08:59:32.868Z</time>
      </trkpt>
      <trkpt lat="46.98976" lon="8.79914">
        <ele>1044</ele>
        <time>2021-08-04T08:59:33.868Z</time>
      </trkpt>
      <trkpt lat="46.98976" lon="8.79915">
        <ele>1044</ele>
        <time>2021-08-04T08:59:34.867Z</time>
      </trkpt>
      <trkpt lat="46.98976" lon="8.79915">
        <ele>1044</ele>
        <time>2021-08-04T08:59:35.868Z</time>
      </trkpt>
      <trkpt lat="46.98976" lon="8.79915">
        <ele>1044</ele>
        <time>2021-08-04T08:59:36.868Z</time>
      </trkpt>
      <trkpt lat="46.98975" lon="8.79915">
        <ele>1044</ele>
        <time>2021-08-04T08:59:37.867Z</time>
      </trkpt>
      <trkpt lat="46.98975" lon="8.79916">
        <ele>1045</ele>
        <time>2021-08-04T08:59:38.868Z</time>
      </trkpt>
      <trkpt lat="46.98975" lon="8.79916">
        <ele>1045</ele>
        <time>2021-08-04T08:59:39.867Z</time>
      </trkpt>
      <trkpt lat="46.98973" lon="8.79915">
        <ele>1049</ele>
        <time>2021-08-04T08:59:40.868Z</time>
      </trkpt>
      <trkpt lat="46.98974" lon="8.79916">
        <ele>1050</ele>
        <time>2021-08-04T08:59:41.869Z</time>
      </trkpt>
      <trkpt lat="46.98975" lon="8.79917">
        <ele>1050</ele>
        <time>2021-08-04T08:59:42.868Z</time>
      </trkpt>
      <trkpt lat="46.98975" lon="8.79918">
        <ele>1051</ele>
        <time>2021-08-04T08:59:43.868Z</time>
      </trkpt>
      <trkpt lat="46.98975" lon="8.79919">
        <ele>1051</ele>
        <time>2021-08-04T08:59:44.869Z</time>
      </trkpt>
      <trkpt lat="46.98975" lon="8.7992">
        <ele>1051</ele>
        <time>2021-08-04T08:59:45.868Z</time>
      </trkpt>
      <trkpt lat="46.98975" lon="8.79922">
        <ele>1051</ele>
        <time>2021-08-04T08:59:46.869Z</time>
      </trkpt>
      <trkpt lat="46.98975" lon="8.79923">
        <ele>1050</ele>
        <time>2021-08-04T08:59:47.868Z</time>
      </trkpt>
      <trkpt lat="46.98975" lon="8.79924">
        <ele>1050</ele>
        <time>2021-08-04T08:59:48.869Z</time>
      </trkpt>
      <trkpt lat="46.98974" lon="8.79924">
        <ele>1050</ele>
        <time>2021-08-04T08:59:49.869Z</time>
      </trkpt>
      <trkpt lat="46.98974" lon="8.79925">
        <ele>1049</ele>
        <time>2021-08-04T08:59:50.869Z</time>
      </trkpt>
      <trkpt lat="46.98973" lon="8.79926">
        <ele>1049</ele>
        <time>2021-08-04T08:59:51.868Z</time>
      </trkpt>
      <trkpt lat="46.98973" lon="8.79927">
        <ele>1049</ele>
        <time>2021-08-04T08:59:52.869Z</time>
      </trkpt>
      <trkpt lat="46.98972" lon="8.79928">
        <ele>1049</ele>
        <time>2021-08-04T08:59:53.869Z</time>
      </trkpt>
      <trkpt lat="46.9897" lon="8.79931">
        <ele>1050</ele>
        <time>2021-08-04T08:59:54.869Z</time>
      </trkpt>
      <trkpt lat="46.9897" lon="8.79932">
        <ele>1050</ele>
        <time>2021-08-04T08:59:55.869Z</time>
      </trkpt>
      <trkpt lat="46.98969" lon="8.79933">
        <ele>1050</ele>
        <time>2021-08-04T08:59:56.869Z</time>
      </trkpt>
      <trkpt lat="46.98969" lon="8.79934">
        <ele>1050</ele>
        <time>2021-08-04T08:59:57.869Z</time>
      </trkpt>
      <trkpt lat="46.98968" lon="8.79934">
        <ele>1050</ele>
        <time>2021-08-04T08:59:58.870Z</time>
      </trkpt>
      <trkpt lat="46.98968" lon="8.79934">
        <ele>1050</ele>
        <time>2021-08-04T08:59:59.870Z</time>
      </trkpt>
      <trkpt lat="46.98968" lon="8.79935">
        <ele>1049</ele>
        <time>2021-08-04T09:00:00.870Z</time>
      </trkpt>
      <trkpt lat="46.98967" lon="8.79935">
        <ele>1049</ele>
        <time>2021-08-04T09:00:01.870Z</time>
      </trkpt>
      <trkpt lat="46.98967" lon="8.79935">
        <ele>1048</ele>
        <time>2021-08-04T09:00:02.870Z</time>
      </trkpt>
      <trkpt lat="46.98966" lon="8.79935">
        <ele>1048</ele>
        <time>2021-08-04T09:00:03.869Z</time>
      </trkpt>
      <trkpt lat="46.98965" lon="8.79935">
        <ele>1047</ele>
        <time>2021-08-04T09:00:04.870Z</time>
      </trkpt>
      <trkpt lat="46.98965" lon="8.79934">
        <ele>1047</ele>
        <time>2021-08-04T09:00:05.869Z</time>
      </trkpt>
      <trkpt lat="46.98964" lon="8.79934">
        <ele>1047</ele>
        <time>2021-08-04T09:00:06.870Z</time>
      </trkpt>
      <trkpt lat="46.98963" lon="8.79933">
        <ele>1046</ele>
        <time>2021-08-04T09:00:07.870Z</time>
      </trkpt>
      <trkpt lat="46.98962" lon="8.79932">
        <ele>1046</ele>
        <time>2021-08-04T09:00:08.870Z</time>
      </trkpt>
      <trkpt lat="46.98961" lon="8.79932">
        <ele>1045</ele>
        <time>2021-08-04T09:00:09.869Z</time>
      </trkpt>
      <trkpt lat="46.98959" lon="8.79932">
        <ele>1044</ele>
        <time>2021-08-04T09:00:10.870Z</time>
      </trkpt>
      <trkpt lat="46.98958" lon="8.79932">
        <ele>1044</ele>
        <time>2021-08-04T09:00:11.869Z</time>
      </trkpt>
      <trkpt lat="46.98957" lon="8.79932">
        <ele>1044</ele>
        <time>2021-08-04T09:00:12.870Z</time>
      </trkpt>
      <trkpt lat="46.98955" lon="8.79932">
        <ele>1043</ele>
        <time>2021-08-04T09:00:13.870Z</time>
      </trkpt>
      <trkpt lat="46.98955" lon="8.79931">
        <ele>1043</ele>
        <time>2021-08-04T09:00:14.869Z</time>
      </trkpt>
      <trkpt lat="46.98954" lon="8.79931">
        <ele>1043</ele>
        <time>2021-08-04T09:00:15.870Z</time>
      </trkpt>
      <trkpt lat="46.98953" lon="8.79932">
        <ele>1043</ele>
        <time>2021-08-04T09:00:16.870Z</time>
      </trkpt>
      <trkpt lat="46.98953" lon="8.79932">
        <ele>1043</ele>
        <time>2021-08-04T09:00:17.869Z</time>
      </trkpt>
      <trkpt lat="46.98953" lon="8.79933">
        <ele>1042</ele>
        <time>2021-08-04T09:00:18.870Z</time>
      </trkpt>
      <trkpt lat="46.98952" lon="8.79933">
        <ele>1042</ele>
        <time>2021-08-04T09:00:19.869Z</time>
      </trkpt>
      <trkpt lat="46.98952" lon="8.79932">
        <ele>1041</ele>
        <time>2021-08-04T09:00:20.870Z</time>
      </trkpt>
      <trkpt lat="46.98951" lon="8.79932">
        <ele>1040</ele>
        <time>2021-08-04T09:00:21.870Z</time>
      </trkpt>
      <trkpt lat="46.9895" lon="8.79931">
        <ele>1040</ele>
        <time>2021-08-04T09:00:22.870Z</time>
      </trkpt>
      <trkpt lat="46.98949" lon="8.79931">
        <ele>1040</ele>
        <time>2021-08-04T09:00:23.869Z</time>
      </trkpt>
      <trkpt lat="46.98948" lon="8.79931">
        <ele>1040</ele>
        <time>2021-08-04T09:00:24.870Z</time>
      </trkpt>
      <trkpt lat="46.98948" lon="8.79931">
        <ele>1040</ele>
        <time>2021-08-04T09:00:25.870Z</time>
      </trkpt>
      <trkpt lat="46.98947" lon="8.7993">
        <ele>1039</ele>
        <time>2021-08-04T09:00:26.870Z</time>
      </trkpt>
      <trkpt lat="46.98946" lon="8.7993">
        <ele>1039</ele>
        <time>2021-08-04T09:00:27.870Z</time>
      </trkpt>
      <trkpt lat="46.98946" lon="8.7993">
        <ele>1039</ele>
        <time>2021-08-04T09:00:28.870Z</time>
      </trkpt>
      <trkpt lat="46.98945" lon="8.79931">
        <ele>1037</ele>
        <time>2021-08-04T09:00:29.871Z</time>
      </trkpt>
      <trkpt lat="46.98944" lon="8.79931">
        <ele>1037</ele>
        <time>2021-08-04T09:00:30.871Z</time>
      </trkpt>
      <trkpt lat="46.98944" lon="8.79931">
        <ele>1037</ele>
        <time>2021-08-04T09:00:31.871Z</time>
      </trkpt>
      <trkpt lat="46.98943" lon="8.7993">
        <ele>1037</ele>
        <time>2021-08-04T09:00:32.871Z</time>
      </trkpt>
      <trkpt lat="46.98942" lon="8.7993">
        <ele>1037</ele>
        <time>2021-08-04T09:00:33.872Z</time>
      </trkpt>
      <trkpt lat="46.98942" lon="8.7993">
        <ele>1036</ele>
        <time>2021-08-04T09:00:34.871Z</time>
      </trkpt>
      <trkpt lat="46.98941" lon="8.79929">
        <ele>1037</ele>
        <time>2021-08-04T09:00:35.872Z</time>
      </trkpt>
      <trkpt lat="46.9894" lon="8.79928">
        <ele>1037</ele>
        <time>2021-08-04T09:00:36.871Z</time>
      </trkpt>
      <trkpt lat="46.9894" lon="8.79928">
        <ele>1037</ele>
        <time>2021-08-04T09:00:37.872Z</time>
      </trkpt>
      <trkpt lat="46.98939" lon="8.79927">
        <ele>1037</ele>
        <time>2021-08-04T09:00:38.872Z</time>
      </trkpt>
      <trkpt lat="46.98939" lon="8.79926">
        <ele>1037</ele>
        <time>2021-08-04T09:00:39.872Z</time>
      </trkpt>
      <trkpt lat="46.98939" lon="8.79925">
        <ele>1037</ele>
        <time>2021-08-04T09:00:40.871Z</time>
      </trkpt>
      <trkpt lat="46.98939" lon="8.79924">
        <ele>1037</ele>
        <time>2021-08-04T09:00:41.871Z</time>
      </trkpt>
      <trkpt lat="46.98939" lon="8.79923">
        <ele>1037</ele>
        <time>2021-08-04T09:00:42.872Z</time>
      </trkpt>
      <trkpt lat="46.98939" lon="8.79922">
        <ele>1037</ele>
        <time>2021-08-04T09:00:43.872Z</time>
      </trkpt>
      <trkpt lat="46.98938" lon="8.79921">
        <ele>1037</ele>
        <time>2021-08-04T09:00:44.871Z</time>
      </trkpt>
      <trkpt lat="46.98938" lon="8.7992">
        <ele>1037</ele>
        <time>2021-08-04T09:00:45.871Z</time>
      </trkpt>
      <trkpt lat="46.98938" lon="8.7992">
        <ele>1037</ele>
        <time>2021-08-04T09:00:46.872Z</time>
      </trkpt>
      <trkpt lat="46.98937" lon="8.79919">
        <ele>1037</ele>
        <time>2021-08-04T09:00:47.872Z</time>
      </trkpt>
      <trkpt lat="46.98937" lon="8.79918">
        <ele>1037</ele>
        <time>2021-08-04T09:00:48.872Z</time>
      </trkpt>
      <trkpt lat="46.98937" lon="8.79917">
        <ele>1037</ele>
        <time>2021-08-04T09:00:49.871Z</time>
      </trkpt>
      <trkpt lat="46.98936" lon="8.79916">
        <ele>1037</ele>
        <time>2021-08-04T09:00:50.872Z</time>
      </trkpt>
      <trkpt lat="46.98936" lon="8.79915">
        <ele>1037</ele>
        <time>2021-08-04T09:00:51.872Z</time>
      </trkpt>
      <trkpt lat="46.98935" lon="8.79914">
        <ele>1038</ele>
        <time>2021-08-04T09:00:52.872Z</time>
      </trkpt>
      <trkpt lat="46.98935" lon="8.79913">
        <ele>1038</ele>
        <time>2021-08-04T09:00:53.871Z</time>
      </trkpt>
      <trkpt lat="46.98935" lon="8.79912">
        <ele>1038</ele>
        <time>2021-08-04T09:00:54.872Z</time>
      </trkpt>
      <trkpt lat="46.98935" lon="8.79911">
        <ele>1037</ele>
        <time>2021-08-04T09:00:55.872Z</time>
      </trkpt>
      <trkpt lat="46.98935" lon="8.79909">
        <ele>1037</ele>
        <time>2021-08-04T09:00:56.871Z</time>
      </trkpt>
      <trkpt lat="46.98935" lon="8.79906">
        <ele>1037</ele>
        <time>2021-08-04T09:00:57.872Z</time>
      </trkpt>
      <trkpt lat="46.98934" lon="8.79904">
        <ele>1036</ele>
        <time>2021-08-04T09:00:58.872Z</time>
      </trkpt>
      <trkpt lat="46.98933" lon="8.79902">
        <ele>1036</ele>
        <time>2021-08-04T09:00:59.872Z</time>
      </trkpt>
      <trkpt lat="46.98932" lon="8.799">
        <ele>1035</ele>
        <time>2021-08-04T09:01:00.872Z</time>
      </trkpt>
      <trkpt lat="46.98931" lon="8.79897">
        <ele>1035</ele>
        <time>2021-08-04T09:01:01.871Z</time>
      </trkpt>
      <trkpt lat="46.98931" lon="8.79895">
        <ele>1034</ele>
        <time>2021-08-04T09:01:02.871Z</time>
      </trkpt>
      <trkpt lat="46.9893" lon="8.79892">
        <ele>1034</ele>
        <time>2021-08-04T09:01:03.872Z</time>
      </trkpt>
      <trkpt lat="46.98929" lon="8.79891">
        <ele>1034</ele>
        <time>2021-08-04T09:01:04.872Z</time>
      </trkpt>
      <trkpt lat="46.98929" lon="8.7989">
        <ele>1034</ele>
        <time>2021-08-04T09:01:05.871Z</time>
      </trkpt>
      <trkpt lat="46.98928" lon="8.79889">
        <ele>1034</ele>
        <time>2021-08-04T09:01:06.871Z</time>
      </trkpt>
      <trkpt lat="46.98928" lon="8.79887">
        <ele>1034</ele>
        <time>2021-08-04T09:01:07.872Z</time>
      </trkpt>
      <trkpt lat="46.98927" lon="8.79886">
        <ele>1033</ele>
        <time>2021-08-04T09:01:08.872Z</time>
      </trkpt>
      <trkpt lat="46.98926" lon="8.79884">
        <ele>1033</ele>
        <time>2021-08-04T09:01:09.871Z</time>
      </trkpt>
      <trkpt lat="46.98926" lon="8.79883">
        <ele>1032</ele>
        <time>2021-08-04T09:01:10.872Z</time>
      </trkpt>
      <trkpt lat="46.98924" lon="8.79883">
        <ele>1031</ele>
        <time>2021-08-04T09:01:11.872Z</time>
      </trkpt>
      <trkpt lat="46.98923" lon="8.79882">
        <ele>1030</ele>
        <time>2021-08-04T09:01:12.871Z</time>
      </trkpt>
      <trkpt lat="46.98923" lon="8.7988">
        <ele>1030</ele>
        <time>2021-08-04T09:01:13.871Z</time>
      </trkpt>
      <trkpt lat="46.98923" lon="8.79879">
        <ele>1029</ele>
        <time>2021-08-04T09:01:14.872Z</time>
      </trkpt>
      <trkpt lat="46.98922" lon="8.79878">
        <ele>1028</ele>
        <time>2021-08-04T09:01:15.872Z</time>
      </trkpt>
      <trkpt lat="46.98921" lon="8.79876">
        <ele>1028</ele>
        <time>2021-08-04T09:01:16.872Z</time>
      </trkpt>
      <trkpt lat="46.98921" lon="8.79874">
        <ele>1027</ele>
        <time>2021-08-04T09:01:17.871Z</time>
      </trkpt>
      <trkpt lat="46.98921" lon="8.79873">
        <ele>1027</ele>
        <time>2021-08-04T09:01:18.872Z</time>
      </trkpt>
      <trkpt lat="46.98921" lon="8.79871">
        <ele>1027</ele>
        <time>2021-08-04T09:01:19.871Z</time>
      </trkpt>
      <trkpt lat="46.98921" lon="8.7987">
        <ele>1026</ele>
        <time>2021-08-04T09:01:20.871Z</time>
      </trkpt>
      <trkpt lat="46.98922" lon="8.7987">
        <ele>1026</ele>
        <time>2021-08-04T09:01:21.871Z</time>
      </trkpt>
      <trkpt lat="46.98922" lon="8.7987">
        <ele>1026</ele>
        <time>2021-08-04T09:01:22.872Z</time>
      </trkpt>
      <trkpt lat="46.98922" lon="8.7987">
        <ele>1026</ele>
        <time>2021-08-04T09:01:23.871Z</time>
      </trkpt>
      <trkpt lat="46.98922" lon="8.79869">
        <ele>1026</ele>
        <time>2021-08-04T09:01:24.871Z</time>
      </trkpt>
      <trkpt lat="46.98922" lon="8.79868">
        <ele>1027</ele>
        <time>2021-08-04T09:01:25.872Z</time>
      </trkpt>
      <trkpt lat="46.98922" lon="8.79866">
        <ele>1028</ele>
        <time>2021-08-04T09:01:26.872Z</time>
      </trkpt>
      <trkpt lat="46.98921" lon="8.79865">
        <ele>1028</ele>
        <time>2021-08-04T09:01:27.872Z</time>
      </trkpt>
      <trkpt lat="46.98921" lon="8.79864">
        <ele>1029</ele>
        <time>2021-08-04T09:01:28.871Z</time>
      </trkpt>
      <trkpt lat="46.9892" lon="8.79863">
        <ele>1029</ele>
        <time>2021-08-04T09:01:29.872Z</time>
      </trkpt>
      <trkpt lat="46.9892" lon="8.79862">
        <ele>1029</ele>
        <time>2021-08-04T09:01:30.872Z</time>
      </trkpt>
      <trkpt lat="46.9892" lon="8.79862">
        <ele>1030</ele>
        <time>2021-08-04T09:01:31.871Z</time>
      </trkpt>
      <trkpt lat="46.9892" lon="8.79862">
        <ele>1030</ele>
        <time>2021-08-04T09:01:32.871Z</time>
      </trkpt>
      <trkpt lat="46.98921" lon="8.79862">
        <ele>1030</ele>
        <time>2021-08-04T09:01:33.871Z</time>
      </trkpt>
      <trkpt lat="46.9892" lon="8.79861">
        <ele>1030</ele>
        <time>2021-08-04T09:01:34.871Z</time>
      </trkpt>
      <trkpt lat="46.98919" lon="8.7986">
        <ele>1030</ele>
        <time>2021-08-04T09:01:35.872Z</time>
      </trkpt>
      <trkpt lat="46.98919" lon="8.79859">
        <ele>1030</ele>
        <time>2021-08-04T09:01:36.872Z</time>
      </trkpt>
      <trkpt lat="46.98918" lon="8.79858">
        <ele>1030</ele>
        <time>2021-08-04T09:01:37.871Z</time>
      </trkpt>
      <trkpt lat="46.98918" lon="8.79856">
        <ele>1029</ele>
        <time>2021-08-04T09:01:38.871Z</time>
      </trkpt>
      <trkpt lat="46.98918" lon="8.79855">
        <ele>1029</ele>
        <time>2021-08-04T09:01:39.871Z</time>
      </trkpt>
      <trkpt lat="46.98917" lon="8.79854">
        <ele>1029</ele>
        <time>2021-08-04T09:01:40.871Z</time>
      </trkpt>
      <trkpt lat="46.98917" lon="8.79853">
        <ele>1028</ele>
        <time>2021-08-04T09:01:41.871Z</time>
      </trkpt>
      <trkpt lat="46.98917" lon="8.79852">
        <ele>1028</ele>
        <time>2021-08-04T09:01:42.871Z</time>
      </trkpt>
      <trkpt lat="46.98916" lon="8.79851">
        <ele>1028</ele>
        <time>2021-08-04T09:01:43.871Z</time>
      </trkpt>
      <trkpt lat="46.98916" lon="8.7985">
        <ele>1028</ele>
        <time>2021-08-04T09:01:44.871Z</time>
      </trkpt>
      <trkpt lat="46.98915" lon="8.79849">
        <ele>1028</ele>
        <time>2021-08-04T09:01:45.871Z</time>
      </trkpt>
      <trkpt lat="46.98914" lon="8.79848">
        <ele>1028</ele>
        <time>2021-08-04T09:01:46.871Z</time>
      </trkpt>
      <trkpt lat="46.98914" lon="8.79847">
        <ele>1028</ele>
        <time>2021-08-04T09:01:47.871Z</time>
      </trkpt>
      <trkpt lat="46.98913" lon="8.79846">
        <ele>1028</ele>
        <time>2021-08-04T09:01:48.871Z</time>
      </trkpt>
      <trkpt lat="46.98913" lon="8.79844">
        <ele>1028</ele>
        <time>2021-08-04T09:01:49.871Z</time>
      </trkpt>
      <trkpt lat="46.98912" lon="8.79843">
        <ele>1028</ele>
        <time>2021-08-04T09:01:50.871Z</time>
      </trkpt>
      <trkpt lat="46.98911" lon="8.79841">
        <ele>1028</ele>
        <time>2021-08-04T09:01:51.871Z</time>
      </trkpt>
      <trkpt lat="46.9891" lon="8.7984">
        <ele>1028</ele>
        <time>2021-08-04T09:01:52.871Z</time>
      </trkpt>
      <trkpt lat="46.9891" lon="8.79837">
        <ele>1028</ele>
        <time>2021-08-04T09:01:53.871Z</time>
      </trkpt>
      <trkpt lat="46.98909" lon="8.79835">
        <ele>1027</ele>
        <time>2021-08-04T09:01:54.871Z</time>
      </trkpt>
      <trkpt lat="46.98909" lon="8.79834">
        <ele>1027</ele>
        <time>2021-08-04T09:01:55.872Z</time>
      </trkpt>
      <trkpt lat="46.98908" lon="8.79832">
        <ele>1027</ele>
        <time>2021-08-04T09:01:56.872Z</time>
      </trkpt>
      <trkpt lat="46.98908" lon="8.7983">
        <ele>1027</ele>
        <time>2021-08-04T09:01:57.871Z</time>
      </trkpt>
      <trkpt lat="46.98908" lon="8.79828">
        <ele>1027</ele>
        <time>2021-08-04T09:01:58.871Z</time>
      </trkpt>
      <trkpt lat="46.98907" lon="8.79826">
        <ele>1027</ele>
        <time>2021-08-04T09:01:59.871Z</time>
      </trkpt>
      <trkpt lat="46.98906" lon="8.79825">
        <ele>1027</ele>
        <time>2021-08-04T09:02:00.872Z</time>
      </trkpt>
      <trkpt lat="46.98906" lon="8.79825">
        <ele>1027</ele>
        <time>2021-08-04T09:02:01.872Z</time>
      </trkpt>
      <trkpt lat="46.98905" lon="8.79824">
        <ele>1027</ele>
        <time>2021-08-04T09:02:02.871Z</time>
      </trkpt>
      <trkpt lat="46.98905" lon="8.79823">
        <ele>1027</ele>
        <time>2021-08-04T09:02:03.872Z</time>
      </trkpt>
      <trkpt lat="46.98905" lon="8.79822">
        <ele>1027</ele>
        <time>2021-08-04T09:02:04.872Z</time>
      </trkpt>
      <trkpt lat="46.98904" lon="8.79822">
        <ele>1027</ele>
        <time>2021-08-04T09:02:05.872Z</time>
      </trkpt>
      <trkpt lat="46.98904" lon="8.79821">
        <ele>1027</ele>
        <time>2021-08-04T09:02:06.872Z</time>
      </trkpt>
      <trkpt lat="46.98903" lon="8.7982">
        <ele>1027</ele>
        <time>2021-08-04T09:02:07.871Z</time>
      </trkpt>
      <trkpt lat="46.98903" lon="8.79818">
        <ele>1027</ele>
        <time>2021-08-04T09:02:08.872Z</time>
      </trkpt>
      <trkpt lat="46.98903" lon="8.79817">
        <ele>1027</ele>
        <time>2021-08-04T09:02:09.872Z</time>
      </trkpt>
      <trkpt lat="46.98903" lon="8.79817">
        <ele>1027</ele>
        <time>2021-08-04T09:02:10.872Z</time>
      </trkpt>
      <trkpt lat="46.98903" lon="8.79816">
        <ele>1026</ele>
        <time>2021-08-04T09:02:11.871Z</time>
      </trkpt>
      <trkpt lat="46.98903" lon="8.79816">
        <ele>1026</ele>
        <time>2021-08-04T09:02:12.872Z</time>
      </trkpt>
      <trkpt lat="46.98903" lon="8.79815">
        <ele>1026</ele>
        <time>2021-08-04T09:02:13.872Z</time>
      </trkpt>
      <trkpt lat="46.98904" lon="8.79815">
        <ele>1026</ele>
        <time>2021-08-04T09:02:14.871Z</time>
      </trkpt>
      <trkpt lat="46.98904" lon="8.79814">
        <ele>1025</ele>
        <time>2021-08-04T09:02:15.871Z</time>
      </trkpt>
      <trkpt lat="46.98904" lon="8.79813">
        <ele>1025</ele>
        <time>2021-08-04T09:02:16.872Z</time>
      </trkpt>
      <trkpt lat="46.98903" lon="8.79813">
        <ele>1025</ele>
        <time>2021-08-04T09:02:17.872Z</time>
      </trkpt>
      <trkpt lat="46.98904" lon="8.79812">
        <ele>1025</ele>
        <time>2021-08-04T09:02:18.872Z</time>
      </trkpt>
      <trkpt lat="46.98904" lon="8.79811">
        <ele>1024</ele>
        <time>2021-08-04T09:02:19.872Z</time>
      </trkpt>
      <trkpt lat="46.98905" lon="8.7981">
        <ele>1023</ele>
        <time>2021-08-04T09:02:20.873Z</time>
      </trkpt>
      <trkpt lat="46.98905" lon="8.7981">
        <ele>1023</ele>
        <time>2021-08-04T09:02:21.872Z</time>
      </trkpt>
      <trkpt lat="46.98905" lon="8.7981">
        <ele>1023</ele>
        <time>2021-08-04T09:02:22.873Z</time>
      </trkpt>
      <trkpt lat="46.98904" lon="8.7981">
        <ele>1023</ele>
        <time>2021-08-04T09:02:23.873Z</time>
      </trkpt>
      <trkpt lat="46.98903" lon="8.79808">
        <ele>1023</ele>
        <time>2021-08-04T09:02:24.872Z</time>
      </trkpt>
      <trkpt lat="46.98903" lon="8.79805">
        <ele>1023</ele>
        <time>2021-08-04T09:02:25.872Z</time>
      </trkpt>
      <trkpt lat="46.98902" lon="8.79803">
        <ele>1023</ele>
        <time>2021-08-04T09:02:26.872Z</time>
      </trkpt>
      <trkpt lat="46.98902" lon="8.79801">
        <ele>1023</ele>
        <time>2021-08-04T09:02:27.873Z</time>
      </trkpt>
      <trkpt lat="46.98901" lon="8.798">
        <ele>1022</ele>
        <time>2021-08-04T09:02:28.872Z</time>
      </trkpt>
      <trkpt lat="46.98901" lon="8.79799">
        <ele>1022</ele>
        <time>2021-08-04T09:02:29.872Z</time>
      </trkpt>
      <trkpt lat="46.98899" lon="8.79799">
        <ele>1022</ele>
        <time>2021-08-04T09:02:30.873Z</time>
      </trkpt>
      <trkpt lat="46.98899" lon="8.79797">
        <ele>1021</ele>
        <time>2021-08-04T09:02:31.872Z</time>
      </trkpt>
      <trkpt lat="46.98899" lon="8.79796">
        <ele>1020</ele>
        <time>2021-08-04T09:02:32.873Z</time>
      </trkpt>
      <trkpt lat="46.98899" lon="8.79795">
        <ele>1020</ele>
        <time>2021-08-04T09:02:33.873Z</time>
      </trkpt>
      <trkpt lat="46.98899" lon="8.79794">
        <ele>1019</ele>
        <time>2021-08-04T09:02:34.872Z</time>
      </trkpt>
      <trkpt lat="46.98898" lon="8.79792">
        <ele>1019</ele>
        <time>2021-08-04T09:02:35.873Z</time>
      </trkpt>
      <trkpt lat="46.98898" lon="8.79791">
        <ele>1019</ele>
        <time>2021-08-04T09:02:36.872Z</time>
      </trkpt>
      <trkpt lat="46.98897" lon="8.79791">
        <ele>1018</ele>
        <time>2021-08-04T09:02:37.873Z</time>
      </trkpt>
      <trkpt lat="46.98897" lon="8.7979">
        <ele>1018</ele>
        <time>2021-08-04T09:02:38.872Z</time>
      </trkpt>
      <trkpt lat="46.98897" lon="8.79789">
        <ele>1018</ele>
        <time>2021-08-04T09:02:39.872Z</time>
      </trkpt>
      <trkpt lat="46.98896" lon="8.79789">
        <ele>1018</ele>
        <time>2021-08-04T09:02:40.872Z</time>
      </trkpt>
      <trkpt lat="46.98896" lon="8.79788">
        <ele>1017</ele>
        <time>2021-08-04T09:02:41.873Z</time>
      </trkpt>
      <trkpt lat="46.98895" lon="8.79787">
        <ele>1017</ele>
        <time>2021-08-04T09:02:42.873Z</time>
      </trkpt>
      <trkpt lat="46.98894" lon="8.79787">
        <ele>1016</ele>
        <time>2021-08-04T09:02:43.873Z</time>
      </trkpt>
      <trkpt lat="46.98894" lon="8.79786">
        <ele>1016</ele>
        <time>2021-08-04T09:02:44.872Z</time>
      </trkpt>
      <trkpt lat="46.98893" lon="8.79785">
        <ele>1016</ele>
        <time>2021-08-04T09:02:45.872Z</time>
      </trkpt>
      <trkpt lat="46.98893" lon="8.79784">
        <ele>1016</ele>
        <time>2021-08-04T09:02:46.872Z</time>
      </trkpt>
      <trkpt lat="46.98893" lon="8.79783">
        <ele>1016</ele>
        <time>2021-08-04T09:02:47.872Z</time>
      </trkpt>
      <trkpt lat="46.98893" lon="8.79783">
        <ele>1017</ele>
        <time>2021-08-04T09:02:48.872Z</time>
      </trkpt>
      <trkpt lat="46.98892" lon="8.79783">
        <ele>1017</ele>
        <time>2021-08-04T09:02:49.873Z</time>
      </trkpt>
      <trkpt lat="46.98892" lon="8.79783">
        <ele>1017</ele>
        <time>2021-08-04T09:02:50.872Z</time>
      </trkpt>
      <trkpt lat="46.98891" lon="8.79781">
        <ele>1015</ele>
        <time>2021-08-04T09:02:51.873Z</time>
      </trkpt>
      <trkpt lat="46.98891" lon="8.7978">
        <ele>1014</ele>
        <time>2021-08-04T09:02:52.874Z</time>
      </trkpt>
      <trkpt lat="46.98891" lon="8.79779">
        <ele>1014</ele>
        <time>2021-08-04T09:02:53.874Z</time>
      </trkpt>
      <trkpt lat="46.98891" lon="8.79778">
        <ele>1014</ele>
        <time>2021-08-04T09:02:54.874Z</time>
      </trkpt>
      <trkpt lat="46.98891" lon="8.79777">
        <ele>1013</ele>
        <time>2021-08-04T09:02:55.874Z</time>
      </trkpt>
      <trkpt lat="46.9889" lon="8.79776">
        <ele>1013</ele>
        <time>2021-08-04T09:02:56.874Z</time>
      </trkpt>
      <trkpt lat="46.9889" lon="8.79774">
        <ele>1013</ele>
        <time>2021-08-04T09:02:57.874Z</time>
      </trkpt>
      <trkpt lat="46.98889" lon="8.79771">
        <ele>1012</ele>
        <time>2021-08-04T09:02:58.874Z</time>
      </trkpt>
      <trkpt lat="46.98888" lon="8.7977">
        <ele>1012</ele>
        <time>2021-08-04T09:02:59.874Z</time>
      </trkpt>
      <trkpt lat="46.98887" lon="8.79767">
        <ele>1012</ele>
        <time>2021-08-04T09:03:00.874Z</time>
      </trkpt>
      <trkpt lat="46.98886" lon="8.79765">
        <ele>1011</ele>
        <time>2021-08-04T09:03:01.874Z</time>
      </trkpt>
      <trkpt lat="46.98885" lon="8.79763">
        <ele>1011</ele>
        <time>2021-08-04T09:03:02.874Z</time>
      </trkpt>
      <trkpt lat="46.98884" lon="8.79762">
        <ele>1011</ele>
        <time>2021-08-04T09:03:03.874Z</time>
      </trkpt>
      <trkpt lat="46.98883" lon="8.79761">
        <ele>1011</ele>
        <time>2021-08-04T09:03:04.874Z</time>
      </trkpt>
      <trkpt lat="46.98882" lon="8.79759">
        <ele>1011</ele>
        <time>2021-08-04T09:03:05.874Z</time>
      </trkpt>
      <trkpt lat="46.98881" lon="8.79758">
        <ele>1010</ele>
        <time>2021-08-04T09:03:06.873Z</time>
      </trkpt>
      <trkpt lat="46.9888" lon="8.79757">
        <ele>1010</ele>
        <time>2021-08-04T09:03:07.874Z</time>
      </trkpt>
      <trkpt lat="46.98879" lon="8.79756">
        <ele>1010</ele>
        <time>2021-08-04T09:03:08.873Z</time>
      </trkpt>
      <trkpt lat="46.98878" lon="8.79755">
        <ele>1010</ele>
        <time>2021-08-04T09:03:09.874Z</time>
      </trkpt>
      <trkpt lat="46.98878" lon="8.79754">
        <ele>1010</ele>
        <time>2021-08-04T09:03:10.874Z</time>
      </trkpt>
      <trkpt lat="46.98877" lon="8.79753">
        <ele>1010</ele>
        <time>2021-08-04T09:03:11.874Z</time>
      </trkpt>
      <trkpt lat="46.98875" lon="8.79752">
        <ele>1010</ele>
        <time>2021-08-04T09:03:12.873Z</time>
      </trkpt>
      <trkpt lat="46.98875" lon="8.79751">
        <ele>1010</ele>
        <time>2021-08-04T09:03:13.874Z</time>
      </trkpt>
      <trkpt lat="46.98875" lon="8.7975">
        <ele>1011</ele>
        <time>2021-08-04T09:03:14.874Z</time>
      </trkpt>
      <trkpt lat="46.98875" lon="8.7975">
        <ele>1011</ele>
        <time>2021-08-04T09:03:15.873Z</time>
      </trkpt>
      <trkpt lat="46.98875" lon="8.79749">
        <ele>1011</ele>
        <time>2021-08-04T09:03:16.874Z</time>
      </trkpt>
      <trkpt lat="46.98874" lon="8.79749">
        <ele>1011</ele>
        <time>2021-08-04T09:03:17.874Z</time>
      </trkpt>
      <trkpt lat="46.98874" lon="8.79749">
        <ele>1011</ele>
        <time>2021-08-04T09:03:18.873Z</time>
      </trkpt>
      <trkpt lat="46.98873" lon="8.79748">
        <ele>1011</ele>
        <time>2021-08-04T09:03:19.873Z</time>
      </trkpt>
      <trkpt lat="46.98873" lon="8.79747">
        <ele>1011</ele>
        <time>2021-08-04T09:03:20.874Z</time>
      </trkpt>
      <trkpt lat="46.98872" lon="8.79745">
        <ele>1011</ele>
        <time>2021-08-04T09:03:21.873Z</time>
      </trkpt>
      <trkpt lat="46.98872" lon="8.79743">
        <ele>1011</ele>
        <time>2021-08-04T09:03:22.874Z</time>
      </trkpt>
      <trkpt lat="46.98872" lon="8.79742">
        <ele>1010</ele>
        <time>2021-08-04T09:03:23.873Z</time>
      </trkpt>
      <trkpt lat="46.98872" lon="8.79741">
        <ele>1010</ele>
        <time>2021-08-04T09:03:24.874Z</time>
      </trkpt>
      <trkpt lat="46.98872" lon="8.7974">
        <ele>1010</ele>
        <time>2021-08-04T09:03:25.874Z</time>
      </trkpt>
      <trkpt lat="46.98871" lon="8.7974">
        <ele>1010</ele>
        <time>2021-08-04T09:03:26.873Z</time>
      </trkpt>
      <trkpt lat="46.98871" lon="8.79739">
        <ele>1010</ele>
        <time>2021-08-04T09:03:27.874Z</time>
      </trkpt>
      <trkpt lat="46.98871" lon="8.79738">
        <ele>1009</ele>
        <time>2021-08-04T09:03:28.874Z</time>
      </trkpt>
      <trkpt lat="46.9887" lon="8.79737">
        <ele>1009</ele>
        <time>2021-08-04T09:03:29.874Z</time>
      </trkpt>
      <trkpt lat="46.98869" lon="8.79737">
        <ele>1009</ele>
        <time>2021-08-04T09:03:30.873Z</time>
      </trkpt>
      <trkpt lat="46.98868" lon="8.79737">
        <ele>1009</ele>
        <time>2021-08-04T09:03:31.874Z</time>
      </trkpt>
      <trkpt lat="46.98867" lon="8.79736">
        <ele>1009</ele>
        <time>2021-08-04T09:03:32.874Z</time>
      </trkpt>
      <trkpt lat="46.98867" lon="8.79735">
        <ele>1009</ele>
        <time>2021-08-04T09:03:33.874Z</time>
      </trkpt>
      <trkpt lat="46.98866" lon="8.79734">
        <ele>1009</ele>
        <time>2021-08-04T09:03:34.874Z</time>
      </trkpt>
      <trkpt lat="46.98865" lon="8.79734">
        <ele>1009</ele>
        <time>2021-08-04T09:03:35.874Z</time>
      </trkpt>
      <trkpt lat="46.98864" lon="8.79734">
        <ele>1009</ele>
        <time>2021-08-04T09:03:36.874Z</time>
      </trkpt>
      <trkpt lat="46.98863" lon="8.79734">
        <ele>1009</ele>
        <time>2021-08-04T09:03:37.874Z</time>
      </trkpt>
      <trkpt lat="46.98862" lon="8.79733">
        <ele>1009</ele>
        <time>2021-08-04T09:03:38.874Z</time>
      </trkpt>
      <trkpt lat="46.98861" lon="8.79732">
        <ele>1008</ele>
        <time>2021-08-04T09:03:39.873Z</time>
      </trkpt>
      <trkpt lat="46.98861" lon="8.79732">
        <ele>1008</ele>
        <time>2021-08-04T09:03:40.874Z</time>
      </trkpt>
      <trkpt lat="46.98861" lon="8.79731">
        <ele>1008</ele>
        <time>2021-08-04T09:03:41.874Z</time>
      </trkpt>
      <trkpt lat="46.9886" lon="8.7973">
        <ele>1007</ele>
        <time>2021-08-04T09:03:42.874Z</time>
      </trkpt>
      <trkpt lat="46.9886" lon="8.79728">
        <ele>1007</ele>
        <time>2021-08-04T09:03:43.873Z</time>
      </trkpt>
      <trkpt lat="46.98859" lon="8.79726">
        <ele>1007</ele>
        <time>2021-08-04T09:03:44.874Z</time>
      </trkpt>
      <trkpt lat="46.98859" lon="8.79724">
        <ele>1007</ele>
        <time>2021-08-04T09:03:45.874Z</time>
      </trkpt>
      <trkpt lat="46.98859" lon="8.79722">
        <ele>1007</ele>
        <time>2021-08-04T09:03:46.873Z</time>
      </trkpt>
      <trkpt lat="46.98859" lon="8.79722">
        <ele>1007</ele>
        <time>2021-08-04T09:03:47.874Z</time>
      </trkpt>
      <trkpt lat="46.98859" lon="8.7972">
        <ele>1007</ele>
        <time>2021-08-04T09:03:48.873Z</time>
      </trkpt>
      <trkpt lat="46.98858" lon="8.79719">
        <ele>1006</ele>
        <time>2021-08-04T09:03:49.873Z</time>
      </trkpt>
      <trkpt lat="46.98858" lon="8.79717">
        <ele>1006</ele>
        <time>2021-08-04T09:03:50.874Z</time>
      </trkpt>
      <trkpt lat="46.98857" lon="8.79715">
        <ele>1005</ele>
        <time>2021-08-04T09:03:51.873Z</time>
      </trkpt>
      <trkpt lat="46.98857" lon="8.79713">
        <ele>1005</ele>
        <time>2021-08-04T09:03:52.874Z</time>
      </trkpt>
      <trkpt lat="46.98857" lon="8.79712">
        <ele>1005</ele>
        <time>2021-08-04T09:03:53.873Z</time>
      </trkpt>
      <trkpt lat="46.98857" lon="8.7971">
        <ele>1004</ele>
        <time>2021-08-04T09:03:54.873Z</time>
      </trkpt>
      <trkpt lat="46.98857" lon="8.79709">
        <ele>1004</ele>
        <time>2021-08-04T09:03:55.873Z</time>
      </trkpt>
      <trkpt lat="46.98857" lon="8.79709">
        <ele>1003</ele>
        <time>2021-08-04T09:03:56.874Z</time>
      </trkpt>
      <trkpt lat="46.98856" lon="8.79709">
        <ele>1003</ele>
        <time>2021-08-04T09:03:57.873Z</time>
      </trkpt>
      <trkpt lat="46.98857" lon="8.79709">
        <ele>1003</ele>
        <time>2021-08-04T09:03:58.874Z</time>
      </trkpt>
      <trkpt lat="46.98857" lon="8.7971">
        <ele>1002</ele>
        <time>2021-08-04T09:03:59.874Z</time>
      </trkpt>
      <trkpt lat="46.98857" lon="8.79708">
        <ele>1002</ele>
        <time>2021-08-04T09:04:00.873Z</time>
      </trkpt>
      <trkpt lat="46.98857" lon="8.79707">
        <ele>1002</ele>
        <time>2021-08-04T09:04:01.874Z</time>
      </trkpt>
      <trkpt lat="46.98856" lon="8.79704">
        <ele>1003</ele>
        <time>2021-08-04T09:04:02.874Z</time>
      </trkpt>
      <trkpt lat="46.98856" lon="8.79703">
        <ele>1002</ele>
        <time>2021-08-04T09:04:03.874Z</time>
      </trkpt>
      <trkpt lat="46.98855" lon="8.79702">
        <ele>1002</ele>
        <time>2021-08-04T09:04:04.874Z</time>
      </trkpt>
      <trkpt lat="46.98855" lon="8.79701">
        <ele>1002</ele>
        <time>2021-08-04T09:04:05.874Z</time>
      </trkpt>
      <trkpt lat="46.98855" lon="8.79701">
        <ele>1003</ele>
        <time>2021-08-04T09:04:06.874Z</time>
      </trkpt>
      <trkpt lat="46.98855" lon="8.797">
        <ele>1003</ele>
        <time>2021-08-04T09:04:07.873Z</time>
      </trkpt>
      <trkpt lat="46.98854" lon="8.797">
        <ele>1003</ele>
        <time>2021-08-04T09:04:08.874Z</time>
      </trkpt>
      <trkpt lat="46.98854" lon="8.797">
        <ele>1003</ele>
        <time>2021-08-04T09:04:09.874Z</time>
      </trkpt>
      <trkpt lat="46.98853" lon="8.79699">
        <ele>1003</ele>
        <time>2021-08-04T09:04:10.874Z</time>
      </trkpt>
      <trkpt lat="46.98853" lon="8.79698">
        <ele>1003</ele>
        <time>2021-08-04T09:04:11.874Z</time>
      </trkpt>
      <trkpt lat="46.98852" lon="8.79697">
        <ele>1003</ele>
        <time>2021-08-04T09:04:12.874Z</time>
      </trkpt>
      <trkpt lat="46.9885" lon="8.79697">
        <ele>1003</ele>
        <time>2021-08-04T09:04:13.874Z</time>
      </trkpt>
      <trkpt lat="46.9885" lon="8.79697">
        <ele>1003</ele>
        <time>2021-08-04T09:04:14.874Z</time>
      </trkpt>
      <trkpt lat="46.9885" lon="8.79697">
        <ele>1004</ele>
        <time>2021-08-04T09:04:15.873Z</time>
      </trkpt>
      <trkpt lat="46.9885" lon="8.79696">
        <ele>1004</ele>
        <time>2021-08-04T09:04:16.873Z</time>
      </trkpt>
      <trkpt lat="46.98851" lon="8.79696">
        <ele>1004</ele>
        <time>2021-08-04T09:04:17.874Z</time>
      </trkpt>
      <trkpt lat="46.98851" lon="8.79696">
        <ele>1004</ele>
        <time>2021-08-04T09:04:18.873Z</time>
      </trkpt>
      <trkpt lat="46.98851" lon="8.79695">
        <ele>1004</ele>
        <time>2021-08-04T09:04:19.873Z</time>
      </trkpt>
      <trkpt lat="46.98851" lon="8.79694">
        <ele>1004</ele>
        <time>2021-08-04T09:04:20.874Z</time>
      </trkpt>
      <trkpt lat="46.98851" lon="8.79694">
        <ele>1004</ele>
        <time>2021-08-04T09:04:21.873Z</time>
      </trkpt>
      <trkpt lat="46.9885" lon="8.79693">
        <ele>1005</ele>
        <time>2021-08-04T09:04:22.874Z</time>
      </trkpt>
      <trkpt lat="46.98849" lon="8.79691">
        <ele>1005</ele>
        <time>2021-08-04T09:04:23.873Z</time>
      </trkpt>
      <trkpt lat="46.98848" lon="8.7969">
        <ele>1005</ele>
        <time>2021-08-04T09:04:24.873Z</time>
      </trkpt>
      <trkpt lat="46.98848" lon="8.79689">
        <ele>1005</ele>
        <time>2021-08-04T09:04:25.873Z</time>
      </trkpt>
      <trkpt lat="46.98848" lon="8.79687">
        <ele>1005</ele>
        <time>2021-08-04T09:04:26.873Z</time>
      </trkpt>
      <trkpt lat="46.98848" lon="8.79686">
        <ele>1006</ele>
        <time>2021-08-04T09:04:27.873Z</time>
      </trkpt>
      <trkpt lat="46.98848" lon="8.79685">
        <ele>1006</ele>
        <time>2021-08-04T09:04:28.873Z</time>
      </trkpt>
      <trkpt lat="46.98848" lon="8.79684">
        <ele>1007</ele>
        <time>2021-08-04T09:04:29.873Z</time>
      </trkpt>
      <trkpt lat="46.98847" lon="8.79684">
        <ele>1007</ele>
        <time>2021-08-04T09:04:30.873Z</time>
      </trkpt>
      <trkpt lat="46.98848" lon="8.79684">
        <ele>1007</ele>
        <time>2021-08-04T09:04:31.873Z</time>
      </trkpt>
      <trkpt lat="46.98848" lon="8.79683">
        <ele>1007</ele>
        <time>2021-08-04T09:04:32.873Z</time>
      </trkpt>
      <trkpt lat="46.98848" lon="8.79682">
        <ele>1007</ele>
        <time>2021-08-04T09:04:33.874Z</time>
      </trkpt>
      <trkpt lat="46.98848" lon="8.79681">
        <ele>1007</ele>
        <time>2021-08-04T09:04:34.873Z</time>
      </trkpt>
      <trkpt lat="46.98849" lon="8.79679">
        <ele>1007</ele>
        <time>2021-08-04T09:04:35.874Z</time>
      </trkpt>
      <trkpt lat="46.98849" lon="8.79676">
        <ele>1006</ele>
        <time>2021-08-04T09:04:36.873Z</time>
      </trkpt>
      <trkpt lat="46.98849" lon="8.79674">
        <ele>1006</ele>
        <time>2021-08-04T09:04:37.874Z</time>
      </trkpt>
      <trkpt lat="46.98849" lon="8.79672">
        <ele>1006</ele>
        <time>2021-08-04T09:04:38.874Z</time>
      </trkpt>
      <trkpt lat="46.98848" lon="8.7967">
        <ele>1006</ele>
        <time>2021-08-04T09:04:39.874Z</time>
      </trkpt>
      <trkpt lat="46.98847" lon="8.79668">
        <ele>1006</ele>
        <time>2021-08-04T09:04:40.874Z</time>
      </trkpt>
      <trkpt lat="46.98846" lon="8.79667">
        <ele>1005</ele>
        <time>2021-08-04T09:04:41.873Z</time>
      </trkpt>
      <trkpt lat="46.98846" lon="8.79666">
        <ele>1005</ele>
        <time>2021-08-04T09:04:42.874Z</time>
      </trkpt>
      <trkpt lat="46.98845" lon="8.79666">
        <ele>1005</ele>
        <time>2021-08-04T09:04:43.874Z</time>
      </trkpt>
      <trkpt lat="46.98845" lon="8.79665">
        <ele>1005</ele>
        <time>2021-08-04T09:04:44.873Z</time>
      </trkpt>
      <trkpt lat="46.9884" lon="8.79659">
        <ele>998</ele>
        <time>2021-08-04T09:04:45.874Z</time>
      </trkpt>
      <trkpt lat="46.9884" lon="8.79657">
        <ele>997</ele>
        <time>2021-08-04T09:04:46.875Z</time>
      </trkpt>
      <trkpt lat="46.98841" lon="8.79654">
        <ele>997</ele>
        <time>2021-08-04T09:04:47.874Z</time>
      </trkpt>
      <trkpt lat="46.9884" lon="8.79653">
        <ele>996</ele>
        <time>2021-08-04T09:04:48.875Z</time>
      </trkpt>
      <trkpt lat="46.98837" lon="8.79652">
        <ele>993</ele>
        <time>2021-08-04T09:04:49.875Z</time>
      </trkpt>
      <trkpt lat="46.98837" lon="8.79652">
        <ele>993</ele>
        <time>2021-08-04T09:04:50.875Z</time>
      </trkpt>
      <trkpt lat="46.98837" lon="8.79652">
        <ele>992</ele>
        <time>2021-08-04T09:04:51.874Z</time>
      </trkpt>
      <trkpt lat="46.98837" lon="8.79651">
        <ele>992</ele>
        <time>2021-08-04T09:04:52.875Z</time>
      </trkpt>
      <trkpt lat="46.98837" lon="8.79651">
        <ele>992</ele>
        <time>2021-08-04T09:04:53.875Z</time>
      </trkpt>
      <trkpt lat="46.98837" lon="8.79651">
        <ele>992</ele>
        <time>2021-08-04T09:04:54.875Z</time>
      </trkpt>
      <trkpt lat="46.98837" lon="8.7965">
        <ele>991</ele>
        <time>2021-08-04T09:04:55.877Z</time>
      </trkpt>
      <trkpt lat="46.98838" lon="8.7965">
        <ele>991</ele>
        <time>2021-08-04T09:04:56.877Z</time>
      </trkpt>
      <trkpt lat="46.98838" lon="8.7965">
        <ele>991</ele>
        <time>2021-08-04T09:04:57.876Z</time>
      </trkpt>
      <trkpt lat="46.98837" lon="8.79648">
        <ele>991</ele>
        <time>2021-08-04T09:04:58.877Z</time>
      </trkpt>
      <trkpt lat="46.98836" lon="8.79647">
        <ele>991</ele>
        <time>2021-08-04T09:04:59.877Z</time>
      </trkpt>
      <trkpt lat="46.98836" lon="8.79647">
        <ele>990</ele>
        <time>2021-08-04T09:05:00.876Z</time>
      </trkpt>
      <trkpt lat="46.98835" lon="8.79646">
        <ele>990</ele>
        <time>2021-08-04T09:05:01.876Z</time>
      </trkpt>
      <trkpt lat="46.98835" lon="8.79646">
        <ele>989</ele>
        <time>2021-08-04T09:05:02.877Z</time>
      </trkpt>
      <trkpt lat="46.98836" lon="8.79645">
        <ele>989</ele>
        <time>2021-08-04T09:05:03.877Z</time>
      </trkpt>
      <trkpt lat="46.98836" lon="8.79645">
        <ele>989</ele>
        <time>2021-08-04T09:05:04.876Z</time>
      </trkpt>
      <trkpt lat="46.98836" lon="8.79644">
        <ele>988</ele>
        <time>2021-08-04T09:05:05.876Z</time>
      </trkpt>
      <trkpt lat="46.98835" lon="8.79644">
        <ele>988</ele>
        <time>2021-08-04T09:05:06.877Z</time>
      </trkpt>
      <trkpt lat="46.98835" lon="8.79645">
        <ele>988</ele>
        <time>2021-08-04T09:05:07.877Z</time>
      </trkpt>
      <trkpt lat="46.98835" lon="8.79645">
        <ele>987</ele>
        <time>2021-08-04T09:05:08.877Z</time>
      </trkpt>
      <trkpt lat="46.98835" lon="8.79643">
        <ele>987</ele>
        <time>2021-08-04T09:05:09.878Z</time>
      </trkpt>
      <trkpt lat="46.98835" lon="8.79643">
        <ele>986</ele>
        <time>2021-08-04T09:05:10.878Z</time>
      </trkpt>
      <trkpt lat="46.98835" lon="8.79642">
        <ele>986</ele>
        <time>2021-08-04T09:05:11.877Z</time>
      </trkpt>
      <trkpt lat="46.98835" lon="8.79641">
        <ele>986</ele>
        <time>2021-08-04T09:05:12.877Z</time>
      </trkpt>
      <trkpt lat="46.98834" lon="8.7964">
        <ele>986</ele>
        <time>2021-08-04T09:05:13.878Z</time>
      </trkpt>
      <trkpt lat="46.98834" lon="8.79638">
        <ele>986</ele>
        <time>2021-08-04T09:05:14.878Z</time>
      </trkpt>
      <trkpt lat="46.98834" lon="8.79637">
        <ele>986</ele>
        <time>2021-08-04T09:05:15.878Z</time>
      </trkpt>
      <trkpt lat="46.98833" lon="8.79637">
        <ele>986</ele>
        <time>2021-08-04T09:05:16.878Z</time>
      </trkpt>
      <trkpt lat="46.98833" lon="8.79636">
        <ele>986</ele>
        <time>2021-08-04T09:05:17.877Z</time>
      </trkpt>
      <trkpt lat="46.98833" lon="8.79636">
        <ele>986</ele>
        <time>2021-08-04T09:05:18.878Z</time>
      </trkpt>
      <trkpt lat="46.98832" lon="8.79635">
        <ele>986</ele>
        <time>2021-08-04T09:05:19.878Z</time>
      </trkpt>
      <trkpt lat="46.98832" lon="8.79634">
        <ele>986</ele>
        <time>2021-08-04T09:05:20.877Z</time>
      </trkpt>
      <trkpt lat="46.98831" lon="8.79633">
        <ele>986</ele>
        <time>2021-08-04T09:05:21.877Z</time>
      </trkpt>
      <trkpt lat="46.98829" lon="8.79631">
        <ele>986</ele>
        <time>2021-08-04T09:05:22.877Z</time>
      </trkpt>
      <trkpt lat="46.98828" lon="8.7963">
        <ele>986</ele>
        <time>2021-08-04T09:05:23.877Z</time>
      </trkpt>
      <trkpt lat="46.98828" lon="8.79629">
        <ele>986</ele>
        <time>2021-08-04T09:05:24.877Z</time>
      </trkpt>
      <trkpt lat="46.98828" lon="8.79628">
        <ele>986</ele>
        <time>2021-08-04T09:05:25.877Z</time>
      </trkpt>
      <trkpt lat="46.98828" lon="8.79627">
        <ele>986</ele>
        <time>2021-08-04T09:05:26.877Z</time>
      </trkpt>
      <trkpt lat="46.98827" lon="8.79628">
        <ele>986</ele>
        <time>2021-08-04T09:05:27.877Z</time>
      </trkpt>
      <trkpt lat="46.98827" lon="8.79627">
        <ele>987</ele>
        <time>2021-08-04T09:05:28.877Z</time>
      </trkpt>
      <trkpt lat="46.98827" lon="8.79627">
        <ele>987</ele>
        <time>2021-08-04T09:05:29.877Z</time>
      </trkpt>
      <trkpt lat="46.98826" lon="8.79626">
        <ele>988</ele>
        <time>2021-08-04T09:05:30.877Z</time>
      </trkpt>
      <trkpt lat="46.98826" lon="8.79625">
        <ele>989</ele>
        <time>2021-08-04T09:05:31.878Z</time>
      </trkpt>
      <trkpt lat="46.98826" lon="8.79624">
        <ele>989</ele>
        <time>2021-08-04T09:05:32.878Z</time>
      </trkpt>
      <trkpt lat="46.98825" lon="8.79624">
        <ele>989</ele>
        <time>2021-08-04T09:05:33.877Z</time>
      </trkpt>
      <trkpt lat="46.98824" lon="8.79623">
        <ele>990</ele>
        <time>2021-08-04T09:05:34.877Z</time>
      </trkpt>
      <trkpt lat="46.98823" lon="8.79622">
        <ele>990</ele>
        <time>2021-08-04T09:05:35.877Z</time>
      </trkpt>
      <trkpt lat="46.98822" lon="8.79621">
        <ele>990</ele>
        <time>2021-08-04T09:05:36.877Z</time>
      </trkpt>
      <trkpt lat="46.98821" lon="8.7962">
        <ele>990</ele>
        <time>2021-08-04T09:05:37.878Z</time>
      </trkpt>
      <trkpt lat="46.9882" lon="8.79619">
        <ele>990</ele>
        <time>2021-08-04T09:05:38.877Z</time>
      </trkpt>
      <trkpt lat="46.98819" lon="8.79619">
        <ele>991</ele>
        <time>2021-08-04T09:05:39.877Z</time>
      </trkpt>
      <trkpt lat="46.98819" lon="8.79617">
        <ele>991</ele>
        <time>2021-08-04T09:05:40.877Z</time>
      </trkpt>
      <trkpt lat="46.98818" lon="8.79615">
        <ele>991</ele>
        <time>2021-08-04T09:05:41.877Z</time>
      </trkpt>
      <trkpt lat="46.98818" lon="8.79614">
        <ele>991</ele>
        <time>2021-08-04T09:05:42.877Z</time>
      </trkpt>
      <trkpt lat="46.98818" lon="8.79613">
        <ele>991</ele>
        <time>2021-08-04T09:05:43.878Z</time>
      </trkpt>
      <trkpt lat="46.98818" lon="8.79611">
        <ele>991</ele>
        <time>2021-08-04T09:05:44.878Z</time>
      </trkpt>
      <trkpt lat="46.98818" lon="8.79609">
        <ele>990</ele>
        <time>2021-08-04T09:05:45.877Z</time>
      </trkpt>
      <trkpt lat="46.98818" lon="8.79607">
        <ele>990</ele>
        <time>2021-08-04T09:05:46.878Z</time>
      </trkpt>
      <trkpt lat="46.98817" lon="8.79606">
        <ele>990</ele>
        <time>2021-08-04T09:05:47.878Z</time>
      </trkpt>
      <trkpt lat="46.98817" lon="8.79605">
        <ele>990</ele>
        <time>2021-08-04T09:05:48.877Z</time>
      </trkpt>
      <trkpt lat="46.98817" lon="8.79604">
        <ele>990</ele>
        <time>2021-08-04T09:05:49.877Z</time>
      </trkpt>
      <trkpt lat="46.98816" lon="8.79603">
        <ele>990</ele>
        <time>2021-08-04T09:05:50.877Z</time>
      </trkpt>
      <trkpt lat="46.98816" lon="8.79601">
        <ele>990</ele>
        <time>2021-08-04T09:05:51.878Z</time>
      </trkpt>
      <trkpt lat="46.98815" lon="8.79599">
        <ele>990</ele>
        <time>2021-08-04T09:05:52.878Z</time>
      </trkpt>
      <trkpt lat="46.98815" lon="8.79597">
        <ele>989</ele>
        <time>2021-08-04T09:05:53.877Z</time>
      </trkpt>
      <trkpt lat="46.98815" lon="8.79595">
        <ele>989</ele>
        <time>2021-08-04T09:05:54.878Z</time>
      </trkpt>
      <trkpt lat="46.98815" lon="8.79594">
        <ele>989</ele>
        <time>2021-08-04T09:05:55.878Z</time>
      </trkpt>
      <trkpt lat="46.98815" lon="8.79592">
        <ele>989</ele>
        <time>2021-08-04T09:05:56.878Z</time>
      </trkpt>
      <trkpt lat="46.98815" lon="8.7959">
        <ele>989</ele>
        <time>2021-08-04T09:05:57.878Z</time>
      </trkpt>
      <trkpt lat="46.98814" lon="8.79587">
        <ele>989</ele>
        <time>2021-08-04T09:05:58.877Z</time>
      </trkpt>
      <trkpt lat="46.98813" lon="8.79583">
        <ele>989</ele>
        <time>2021-08-04T09:05:59.877Z</time>
      </trkpt>
      <trkpt lat="46.98813" lon="8.79581">
        <ele>989</ele>
        <time>2021-08-04T09:06:00.878Z</time>
      </trkpt>
      <trkpt lat="46.98814" lon="8.79579">
        <ele>989</ele>
        <time>2021-08-04T09:06:01.877Z</time>
      </trkpt>
      <trkpt lat="46.98814" lon="8.79578">
        <ele>989</ele>
        <time>2021-08-04T09:06:02.877Z</time>
      </trkpt>
      <trkpt lat="46.98815" lon="8.79576">
        <ele>989</ele>
        <time>2021-08-04T09:06:03.878Z</time>
      </trkpt>
      <trkpt lat="46.98816" lon="8.79575">
        <ele>989</ele>
        <time>2021-08-04T09:06:04.878Z</time>
      </trkpt>
      <trkpt lat="46.98816" lon="8.79573">
        <ele>989</ele>
        <time>2021-08-04T09:06:05.878Z</time>
      </trkpt>
      <trkpt lat="46.98816" lon="8.79572">
        <ele>990</ele>
        <time>2021-08-04T09:06:06.878Z</time>
      </trkpt>
      <trkpt lat="46.98816" lon="8.79571">
        <ele>990</ele>
        <time>2021-08-04T09:06:07.878Z</time>
      </trkpt>
      <trkpt lat="46.98816" lon="8.7957">
        <ele>990</ele>
        <time>2021-08-04T09:06:08.878Z</time>
      </trkpt>
      <trkpt lat="46.98816" lon="8.79569">
        <ele>991</ele>
        <time>2021-08-04T09:06:09.877Z</time>
      </trkpt>
      <trkpt lat="46.98816" lon="8.79568">
        <ele>991</ele>
        <time>2021-08-04T09:06:10.878Z</time>
      </trkpt>
      <trkpt lat="46.98816" lon="8.79566">
        <ele>991</ele>
        <time>2021-08-04T09:06:11.878Z</time>
      </trkpt>
      <trkpt lat="46.98816" lon="8.79565">
        <ele>991</ele>
        <time>2021-08-04T09:06:12.878Z</time>
      </trkpt>
      <trkpt lat="46.98816" lon="8.79563">
        <ele>991</ele>
        <time>2021-08-04T09:06:13.877Z</time>
      </trkpt>
      <trkpt lat="46.98816" lon="8.79562">
        <ele>991</ele>
        <time>2021-08-04T09:06:14.878Z</time>
      </trkpt>
      <trkpt lat="46.98816" lon="8.7956">
        <ele>991</ele>
        <time>2021-08-04T09:06:15.877Z</time>
      </trkpt>
      <trkpt lat="46.98816" lon="8.79559">
        <ele>991</ele>
        <time>2021-08-04T09:06:16.877Z</time>
      </trkpt>
      <trkpt lat="46.98817" lon="8.79557">
        <ele>991</ele>
        <time>2021-08-04T09:06:17.878Z</time>
      </trkpt>
      <trkpt lat="46.98816" lon="8.79555">
        <ele>990</ele>
        <time>2021-08-04T09:06:18.878Z</time>
      </trkpt>
      <trkpt lat="46.98815" lon="8.79553">
        <ele>990</ele>
        <time>2021-08-04T09:06:19.878Z</time>
      </trkpt>
      <trkpt lat="46.98815" lon="8.7955">
        <ele>990</ele>
        <time>2021-08-04T09:06:20.878Z</time>
      </trkpt>
      <trkpt lat="46.98814" lon="8.79548">
        <ele>990</ele>
        <time>2021-08-04T09:06:21.878Z</time>
      </trkpt>
      <trkpt lat="46.98813" lon="8.79546">
        <ele>990</ele>
        <time>2021-08-04T09:06:22.878Z</time>
      </trkpt>
      <trkpt lat="46.98813" lon="8.79545">
        <ele>990</ele>
        <time>2021-08-04T09:06:23.878Z</time>
      </trkpt>
      <trkpt lat="46.98813" lon="8.79543">
        <ele>990</ele>
        <time>2021-08-04T09:06:24.877Z</time>
      </trkpt>
      <trkpt lat="46.98813" lon="8.79541">
        <ele>990</ele>
        <time>2021-08-04T09:06:25.878Z</time>
      </trkpt>
      <trkpt lat="46.98814" lon="8.7954">
        <ele>990</ele>
        <time>2021-08-04T09:06:26.878Z</time>
      </trkpt>
      <trkpt lat="46.98814" lon="8.79538">
        <ele>989</ele>
        <time>2021-08-04T09:06:27.877Z</time>
      </trkpt>
      <trkpt lat="46.98814" lon="8.79536">
        <ele>988</ele>
        <time>2021-08-04T09:06:28.878Z</time>
      </trkpt>
      <trkpt lat="46.98814" lon="8.79534">
        <ele>987</ele>
        <time>2021-08-04T09:06:29.878Z</time>
      </trkpt>
      <trkpt lat="46.98815" lon="8.79532">
        <ele>986</ele>
        <time>2021-08-04T09:06:30.878Z</time>
      </trkpt>
      <trkpt lat="46.98815" lon="8.7953">
        <ele>985</ele>
        <time>2021-08-04T09:06:31.878Z</time>
      </trkpt>
      <trkpt lat="46.98815" lon="8.79529">
        <ele>984</ele>
        <time>2021-08-04T09:06:32.878Z</time>
      </trkpt>
      <trkpt lat="46.98815" lon="8.79526">
        <ele>982</ele>
        <time>2021-08-04T09:06:33.877Z</time>
      </trkpt>
      <trkpt lat="46.98814" lon="8.79524">
        <ele>981</ele>
        <time>2021-08-04T09:06:34.877Z</time>
      </trkpt>
      <trkpt lat="46.98813" lon="8.79522">
        <ele>980</ele>
        <time>2021-08-04T09:06:35.878Z</time>
      </trkpt>
      <trkpt lat="46.98812" lon="8.79519">
        <ele>980</ele>
        <time>2021-08-04T09:06:36.877Z</time>
      </trkpt>
      <trkpt lat="46.98812" lon="8.79517">
        <ele>979</ele>
        <time>2021-08-04T09:06:37.877Z</time>
      </trkpt>
      <trkpt lat="46.98812" lon="8.79514">
        <ele>978</ele>
        <time>2021-08-04T09:06:38.877Z</time>
      </trkpt>
      <trkpt lat="46.98812" lon="8.79511">
        <ele>978</ele>
        <time>2021-08-04T09:06:39.878Z</time>
      </trkpt>
      <trkpt lat="46.98812" lon="8.79509">
        <ele>977</ele>
        <time>2021-08-04T09:06:40.878Z</time>
      </trkpt>
      <trkpt lat="46.98811" lon="8.79506">
        <ele>977</ele>
        <time>2021-08-04T09:06:41.878Z</time>
      </trkpt>
      <trkpt lat="46.9881" lon="8.79504">
        <ele>977</ele>
        <time>2021-08-04T09:06:42.877Z</time>
      </trkpt>
      <trkpt lat="46.9881" lon="8.79502">
        <ele>977</ele>
        <time>2021-08-04T09:06:43.878Z</time>
      </trkpt>
      <trkpt lat="46.98811" lon="8.79501">
        <ele>977</ele>
        <time>2021-08-04T09:06:44.878Z</time>
      </trkpt>
      <trkpt lat="46.98811" lon="8.795">
        <ele>977</ele>
        <time>2021-08-04T09:06:45.878Z</time>
      </trkpt>
      <trkpt lat="46.98812" lon="8.79499">
        <ele>977</ele>
        <time>2021-08-04T09:06:46.877Z</time>
      </trkpt>
      <trkpt lat="46.98813" lon="8.79498">
        <ele>977</ele>
        <time>2021-08-04T09:06:47.878Z</time>
      </trkpt>
      <trkpt lat="46.98813" lon="8.79496">
        <ele>977</ele>
        <time>2021-08-04T09:06:48.877Z</time>
      </trkpt>
      <trkpt lat="46.98815" lon="8.79494">
        <ele>977</ele>
        <time>2021-08-04T09:06:49.878Z</time>
      </trkpt>
      <trkpt lat="46.98816" lon="8.79493">
        <ele>977</ele>
        <time>2021-08-04T09:06:50.877Z</time>
      </trkpt>
      <trkpt lat="46.98816" lon="8.79492">
        <ele>977</ele>
        <time>2021-08-04T09:06:51.877Z</time>
      </trkpt>
      <trkpt lat="46.98817" lon="8.7949">
        <ele>977</ele>
        <time>2021-08-04T09:06:52.878Z</time>
      </trkpt>
      <trkpt lat="46.98817" lon="8.79489">
        <ele>977</ele>
        <time>2021-08-04T09:06:53.878Z</time>
      </trkpt>
      <trkpt lat="46.98817" lon="8.79488">
        <ele>977</ele>
        <time>2021-08-04T09:06:54.878Z</time>
      </trkpt>
      <trkpt lat="46.98817" lon="8.79487">
        <ele>977</ele>
        <time>2021-08-04T09:06:55.877Z</time>
      </trkpt>
      <trkpt lat="46.98817" lon="8.79485">
        <ele>977</ele>
        <time>2021-08-04T09:06:56.878Z</time>
      </trkpt>
      <trkpt lat="46.98818" lon="8.79483">
        <ele>977</ele>
        <time>2021-08-04T09:06:57.878Z</time>
      </trkpt>
      <trkpt lat="46.98818" lon="8.79481">
        <ele>976</ele>
        <time>2021-08-04T09:06:58.878Z</time>
      </trkpt>
      <trkpt lat="46.98818" lon="8.79478">
        <ele>976</ele>
        <time>2021-08-04T09:06:59.877Z</time>
      </trkpt>
      <trkpt lat="46.98818" lon="8.79476">
        <ele>975</ele>
        <time>2021-08-04T09:07:00.877Z</time>
      </trkpt>
      <trkpt lat="46.98818" lon="8.79474">
        <ele>975</ele>
        <time>2021-08-04T09:07:01.877Z</time>
      </trkpt>
      <trkpt lat="46.98817" lon="8.79472">
        <ele>974</ele>
        <time>2021-08-04T09:07:02.878Z</time>
      </trkpt>
      <trkpt lat="46.98817" lon="8.7947">
        <ele>974</ele>
        <time>2021-08-04T09:07:03.877Z</time>
      </trkpt>
      <trkpt lat="46.98817" lon="8.79469">
        <ele>973</ele>
        <time>2021-08-04T09:07:04.878Z</time>
      </trkpt>
      <trkpt lat="46.98817" lon="8.79467">
        <ele>973</ele>
        <time>2021-08-04T09:07:05.878Z</time>
      </trkpt>
      <trkpt lat="46.98817" lon="8.79466">
        <ele>972</ele>
        <time>2021-08-04T09:07:06.877Z</time>
      </trkpt>
      <trkpt lat="46.98816" lon="8.79465">
        <ele>971</ele>
        <time>2021-08-04T09:07:07.878Z</time>
      </trkpt>
      <trkpt lat="46.98817" lon="8.79464">
        <ele>970</ele>
        <time>2021-08-04T09:07:08.878Z</time>
      </trkpt>
      <trkpt lat="46.98817" lon="8.79462">
        <ele>969</ele>
        <time>2021-08-04T09:07:09.877Z</time>
      </trkpt>
      <trkpt lat="46.98817" lon="8.7946">
        <ele>968</ele>
        <time>2021-08-04T09:07:10.877Z</time>
      </trkpt>
      <trkpt lat="46.98817" lon="8.79459">
        <ele>967</ele>
        <time>2021-08-04T09:07:11.877Z</time>
      </trkpt>
      <trkpt lat="46.98817" lon="8.79457">
        <ele>967</ele>
        <time>2021-08-04T09:07:12.878Z</time>
      </trkpt>
      <trkpt lat="46.98817" lon="8.79455">
        <ele>967</ele>
        <time>2021-08-04T09:07:13.878Z</time>
      </trkpt>
      <trkpt lat="46.98816" lon="8.79454">
        <ele>966</ele>
        <time>2021-08-04T09:07:14.877Z</time>
      </trkpt>
      <trkpt lat="46.98816" lon="8.79452">
        <ele>966</ele>
        <time>2021-08-04T09:07:15.878Z</time>
      </trkpt>
      <trkpt lat="46.98816" lon="8.79451">
        <ele>965</ele>
        <time>2021-08-04T09:07:16.878Z</time>
      </trkpt>
      <trkpt lat="46.98816" lon="8.79449">
        <ele>965</ele>
        <time>2021-08-04T09:07:17.878Z</time>
      </trkpt>
      <trkpt lat="46.98816" lon="8.79447">
        <ele>965</ele>
        <time>2021-08-04T09:07:18.878Z</time>
      </trkpt>
      <trkpt lat="46.98817" lon="8.79446">
        <ele>964</ele>
        <time>2021-08-04T09:07:19.877Z</time>
      </trkpt>
      <trkpt lat="46.98818" lon="8.79445">
        <ele>964</ele>
        <time>2021-08-04T09:07:20.878Z</time>
      </trkpt>
      <trkpt lat="46.98819" lon="8.79443">
        <ele>964</ele>
        <time>2021-08-04T09:07:21.878Z</time>
      </trkpt>
      <trkpt lat="46.9882" lon="8.79442">
        <ele>964</ele>
        <time>2021-08-04T09:07:22.878Z</time>
      </trkpt>
      <trkpt lat="46.98821" lon="8.79441">
        <ele>964</ele>
        <time>2021-08-04T09:07:23.878Z</time>
      </trkpt>
      <trkpt lat="46.98822" lon="8.7944">
        <ele>965</ele>
        <time>2021-08-04T09:07:24.878Z</time>
      </trkpt>
      <trkpt lat="46.98823" lon="8.7944">
        <ele>965</ele>
        <time>2021-08-04T09:07:25.878Z</time>
      </trkpt>
      <trkpt lat="46.98824" lon="8.79439">
        <ele>966</ele>
        <time>2021-08-04T09:07:26.877Z</time>
      </trkpt>
      <trkpt lat="46.98825" lon="8.79437">
        <ele>966</ele>
        <time>2021-08-04T09:07:27.877Z</time>
      </trkpt>
      <trkpt lat="46.98826" lon="8.79436">
        <ele>966</ele>
        <time>2021-08-04T09:07:28.878Z</time>
      </trkpt>
      <trkpt lat="46.98827" lon="8.79435">
        <ele>967</ele>
        <time>2021-08-04T09:07:29.878Z</time>
      </trkpt>
      <trkpt lat="46.98828" lon="8.79433">
        <ele>966</ele>
        <time>2021-08-04T09:07:30.877Z</time>
      </trkpt>
      <trkpt lat="46.98829" lon="8.79432">
        <ele>966</ele>
        <time>2021-08-04T09:07:31.878Z</time>
      </trkpt>
      <trkpt lat="46.9883" lon="8.7943">
        <ele>966</ele>
        <time>2021-08-04T09:07:32.877Z</time>
      </trkpt>
      <trkpt lat="46.98832" lon="8.79428">
        <ele>966</ele>
        <time>2021-08-04T09:07:33.878Z</time>
      </trkpt>
      <trkpt lat="46.98834" lon="8.79428">
        <ele>967</ele>
        <time>2021-08-04T09:07:34.878Z</time>
      </trkpt>
      <trkpt lat="46.98835" lon="8.79428">
        <ele>967</ele>
        <time>2021-08-04T09:07:35.877Z</time>
      </trkpt>
      <trkpt lat="46.98835" lon="8.79427">
        <ele>967</ele>
        <time>2021-08-04T09:07:36.878Z</time>
      </trkpt>
      <trkpt lat="46.98836" lon="8.79425">
        <ele>967</ele>
        <time>2021-08-04T09:07:37.878Z</time>
      </trkpt>
      <trkpt lat="46.98837" lon="8.79424">
        <ele>967</ele>
        <time>2021-08-04T09:07:38.878Z</time>
      </trkpt>
      <trkpt lat="46.98838" lon="8.79424">
        <ele>967</ele>
        <time>2021-08-04T09:07:39.877Z</time>
      </trkpt>
      <trkpt lat="46.98839" lon="8.79423">
        <ele>967</ele>
        <time>2021-08-04T09:07:40.878Z</time>
      </trkpt>
      <trkpt lat="46.9884" lon="8.79421">
        <ele>967</ele>
        <time>2021-08-04T09:07:41.878Z</time>
      </trkpt>
      <trkpt lat="46.98841" lon="8.7942">
        <ele>967</ele>
        <time>2021-08-04T09:07:42.877Z</time>
      </trkpt>
      <trkpt lat="46.98842" lon="8.7942">
        <ele>967</ele>
        <time>2021-08-04T09:07:43.878Z</time>
      </trkpt>
      <trkpt lat="46.98841" lon="8.79418">
        <ele>967</ele>
        <time>2021-08-04T09:07:44.877Z</time>
      </trkpt>
      <trkpt lat="46.98841" lon="8.79417">
        <ele>967</ele>
        <time>2021-08-04T09:07:45.878Z</time>
      </trkpt>
      <trkpt lat="46.9884" lon="8.79415">
        <ele>967</ele>
        <time>2021-08-04T09:07:46.878Z</time>
      </trkpt>
      <trkpt lat="46.9884" lon="8.79414">
        <ele>967</ele>
        <time>2021-08-04T09:07:47.877Z</time>
      </trkpt>
      <trkpt lat="46.98839" lon="8.79412">
        <ele>967</ele>
        <time>2021-08-04T09:07:48.877Z</time>
      </trkpt>
      <trkpt lat="46.98839" lon="8.79411">
        <ele>967</ele>
        <time>2021-08-04T09:07:49.877Z</time>
      </trkpt>
      <trkpt lat="46.98839" lon="8.7941">
        <ele>967</ele>
        <time>2021-08-04T09:07:50.877Z</time>
      </trkpt>
      <trkpt lat="46.98839" lon="8.79409">
        <ele>967</ele>
        <time>2021-08-04T09:07:51.878Z</time>
      </trkpt>
      <trkpt lat="46.98839" lon="8.79409">
        <ele>967</ele>
        <time>2021-08-04T09:07:52.878Z</time>
      </trkpt>
      <trkpt lat="46.98838" lon="8.79408">
        <ele>966</ele>
        <time>2021-08-04T09:07:53.877Z</time>
      </trkpt>
      <trkpt lat="46.98838" lon="8.79407">
        <ele>966</ele>
        <time>2021-08-04T09:07:54.877Z</time>
      </trkpt>
      <trkpt lat="46.98837" lon="8.79406">
        <ele>966</ele>
        <time>2021-08-04T09:07:55.878Z</time>
      </trkpt>
      <trkpt lat="46.98837" lon="8.79405">
        <ele>967</ele>
        <time>2021-08-04T09:07:56.878Z</time>
      </trkpt>
      <trkpt lat="46.98836" lon="8.79403">
        <ele>967</ele>
        <time>2021-08-04T09:07:57.878Z</time>
      </trkpt>
      <trkpt lat="46.98835" lon="8.79401">
        <ele>967</ele>
        <time>2021-08-04T09:07:58.878Z</time>
      </trkpt>
      <trkpt lat="46.98834" lon="8.79399">
        <ele>968</ele>
        <time>2021-08-04T09:07:59.877Z</time>
      </trkpt>
      <trkpt lat="46.98833" lon="8.79397">
        <ele>968</ele>
        <time>2021-08-04T09:08:00.877Z</time>
      </trkpt>
      <trkpt lat="46.98832" lon="8.79395">
        <ele>969</ele>
        <time>2021-08-04T09:08:01.878Z</time>
      </trkpt>
      <trkpt lat="46.98832" lon="8.79394">
        <ele>969</ele>
        <time>2021-08-04T09:08:02.877Z</time>
      </trkpt>
      <trkpt lat="46.98831" lon="8.79392">
        <ele>970</ele>
        <time>2021-08-04T09:08:03.877Z</time>
      </trkpt>
      <trkpt lat="46.9883" lon="8.7939">
        <ele>970</ele>
        <time>2021-08-04T09:08:04.877Z</time>
      </trkpt>
      <trkpt lat="46.98829" lon="8.79388">
        <ele>970</ele>
        <time>2021-08-04T09:08:05.877Z</time>
      </trkpt>
      <trkpt lat="46.98828" lon="8.79387">
        <ele>970</ele>
        <time>2021-08-04T09:08:06.877Z</time>
      </trkpt>
      <trkpt lat="46.98828" lon="8.79386">
        <ele>970</ele>
        <time>2021-08-04T09:08:07.878Z</time>
      </trkpt>
      <trkpt lat="46.98828" lon="8.79385">
        <ele>970</ele>
        <time>2021-08-04T09:08:08.877Z</time>
      </trkpt>
      <trkpt lat="46.98827" lon="8.79382">
        <ele>969</ele>
        <time>2021-08-04T09:08:09.877Z</time>
      </trkpt>
      <trkpt lat="46.98826" lon="8.7938">
        <ele>969</ele>
        <time>2021-08-04T09:08:10.877Z</time>
      </trkpt>
      <trkpt lat="46.98825" lon="8.79379">
        <ele>968</ele>
        <time>2021-08-04T09:08:11.877Z</time>
      </trkpt>
      <trkpt lat="46.98823" lon="8.79377">
        <ele>968</ele>
        <time>2021-08-04T09:08:12.877Z</time>
      </trkpt>
      <trkpt lat="46.98821" lon="8.79375">
        <ele>967</ele>
        <time>2021-08-04T09:08:13.877Z</time>
      </trkpt>
      <trkpt lat="46.9882" lon="8.79374">
        <ele>967</ele>
        <time>2021-08-04T09:08:14.878Z</time>
      </trkpt>
      <trkpt lat="46.98819" lon="8.79373">
        <ele>967</ele>
        <time>2021-08-04T09:08:15.878Z</time>
      </trkpt>
      <trkpt lat="46.98818" lon="8.79372">
        <ele>967</ele>
        <time>2021-08-04T09:08:16.878Z</time>
      </trkpt>
      <trkpt lat="46.98816" lon="8.79372">
        <ele>967</ele>
        <time>2021-08-04T09:08:17.877Z</time>
      </trkpt>
      <trkpt lat="46.98815" lon="8.79371">
        <ele>966</ele>
        <time>2021-08-04T09:08:18.878Z</time>
      </trkpt>
      <trkpt lat="46.98815" lon="8.7937">
        <ele>966</ele>
        <time>2021-08-04T09:08:19.878Z</time>
      </trkpt>
      <trkpt lat="46.98814" lon="8.79369">
        <ele>966</ele>
        <time>2021-08-04T09:08:20.877Z</time>
      </trkpt>
      <trkpt lat="46.98813" lon="8.79368">
        <ele>966</ele>
        <time>2021-08-04T09:08:21.878Z</time>
      </trkpt>
      <trkpt lat="46.98812" lon="8.79367">
        <ele>966</ele>
        <time>2021-08-04T09:08:22.878Z</time>
      </trkpt>
      <trkpt lat="46.98811" lon="8.79367">
        <ele>966</ele>
        <time>2021-08-04T09:08:23.877Z</time>
      </trkpt>
      <trkpt lat="46.9881" lon="8.79367">
        <ele>967</ele>
        <time>2021-08-04T09:08:24.878Z</time>
      </trkpt>
      <trkpt lat="46.9881" lon="8.79367">
        <ele>967</ele>
        <time>2021-08-04T09:08:25.877Z</time>
      </trkpt>
      <trkpt lat="46.98809" lon="8.79366">
        <ele>967</ele>
        <time>2021-08-04T09:08:26.877Z</time>
      </trkpt>
      <trkpt lat="46.98807" lon="8.79365">
        <ele>967</ele>
        <time>2021-08-04T09:08:27.878Z</time>
      </trkpt>
      <trkpt lat="46.98806" lon="8.79365">
        <ele>967</ele>
        <time>2021-08-04T09:08:28.878Z</time>
      </trkpt>
      <trkpt lat="46.98805" lon="8.79364">
        <ele>967</ele>
        <time>2021-08-04T09:08:29.878Z</time>
      </trkpt>
      <trkpt lat="46.98805" lon="8.79364">
        <ele>968</ele>
        <time>2021-08-04T09:08:30.878Z</time>
      </trkpt>
      <trkpt lat="46.98804" lon="8.79364">
        <ele>968</ele>
        <time>2021-08-04T09:08:31.878Z</time>
      </trkpt>
      <trkpt lat="46.98803" lon="8.79364">
        <ele>968</ele>
        <time>2021-08-04T09:08:32.878Z</time>
      </trkpt>
      <trkpt lat="46.98802" lon="8.79363">
        <ele>969</ele>
        <time>2021-08-04T09:08:33.878Z</time>
      </trkpt>
      <trkpt lat="46.98801" lon="8.79363">
        <ele>969</ele>
        <time>2021-08-04T09:08:34.878Z</time>
      </trkpt>
      <trkpt lat="46.98799" lon="8.79363">
        <ele>969</ele>
        <time>2021-08-04T09:08:35.878Z</time>
      </trkpt>
      <trkpt lat="46.98798" lon="8.79362">
        <ele>969</ele>
        <time>2021-08-04T09:08:36.878Z</time>
      </trkpt>
      <trkpt lat="46.98796" lon="8.79361">
        <ele>969</ele>
        <time>2021-08-04T09:08:37.877Z</time>
      </trkpt>
      <trkpt lat="46.98795" lon="8.7936">
        <ele>969</ele>
        <time>2021-08-04T09:08:38.877Z</time>
      </trkpt>
      <trkpt lat="46.98794" lon="8.79359">
        <ele>969</ele>
        <time>2021-08-04T09:08:39.878Z</time>
      </trkpt>
      <trkpt lat="46.98792" lon="8.79358">
        <ele>969</ele>
        <time>2021-08-04T09:08:40.878Z</time>
      </trkpt>
      <trkpt lat="46.98791" lon="8.79357">
        <ele>968</ele>
        <time>2021-08-04T09:08:41.877Z</time>
      </trkpt>
      <trkpt lat="46.98788" lon="8.79356">
        <ele>968</ele>
        <time>2021-08-04T09:08:42.878Z</time>
      </trkpt>
      <trkpt lat="46.98786" lon="8.79355">
        <ele>968</ele>
        <time>2021-08-04T09:08:43.877Z</time>
      </trkpt>
      <trkpt lat="46.98785" lon="8.79355">
        <ele>968</ele>
        <time>2021-08-04T09:08:44.878Z</time>
      </trkpt>
      <trkpt lat="46.98784" lon="8.79354">
        <ele>968</ele>
        <time>2021-08-04T09:08:45.877Z</time>
      </trkpt>
      <trkpt lat="46.98782" lon="8.79352">
        <ele>967</ele>
        <time>2021-08-04T09:08:46.878Z</time>
      </trkpt>
      <trkpt lat="46.98781" lon="8.79351">
        <ele>967</ele>
        <time>2021-08-04T09:08:47.878Z</time>
      </trkpt>
      <trkpt lat="46.98779" lon="8.7935">
        <ele>967</ele>
        <time>2021-08-04T09:08:48.877Z</time>
      </trkpt>
      <trkpt lat="46.98777" lon="8.79349">
        <ele>966</ele>
        <time>2021-08-04T09:08:49.878Z</time>
      </trkpt>
      <trkpt lat="46.98776" lon="8.79348">
        <ele>966</ele>
        <time>2021-08-04T09:08:50.877Z</time>
      </trkpt>
      <trkpt lat="46.98776" lon="8.79347">
        <ele>966</ele>
        <time>2021-08-04T09:08:51.878Z</time>
      </trkpt>
      <trkpt lat="46.98775" lon="8.79347">
        <ele>965</ele>
        <time>2021-08-04T09:08:52.878Z</time>
      </trkpt>
      <trkpt lat="46.98773" lon="8.79346">
        <ele>965</ele>
        <time>2021-08-04T09:08:53.878Z</time>
      </trkpt>
      <trkpt lat="46.98772" lon="8.79345">
        <ele>965</ele>
        <time>2021-08-04T09:08:54.877Z</time>
      </trkpt>
      <trkpt lat="46.98771" lon="8.79344">
        <ele>966</ele>
        <time>2021-08-04T09:08:55.877Z</time>
      </trkpt>
      <trkpt lat="46.98769" lon="8.79342">
        <ele>966</ele>
        <time>2021-08-04T09:08:56.878Z</time>
      </trkpt>
      <trkpt lat="46.98768" lon="8.7934">
        <ele>966</ele>
        <time>2021-08-04T09:08:57.877Z</time>
      </trkpt>
      <trkpt lat="46.98766" lon="8.79338">
        <ele>966</ele>
        <time>2021-08-04T09:08:58.878Z</time>
      </trkpt>
      <trkpt lat="46.98766" lon="8.79337">
        <ele>966</ele>
        <time>2021-08-04T09:08:59.878Z</time>
      </trkpt>
      <trkpt lat="46.98765" lon="8.79336">
        <ele>966</ele>
        <time>2021-08-04T09:09:00.878Z</time>
      </trkpt>
      <trkpt lat="46.98763" lon="8.79334">
        <ele>966</ele>
        <time>2021-08-04T09:09:01.878Z</time>
      </trkpt>
      <trkpt lat="46.98762" lon="8.79332">
        <ele>967</ele>
        <time>2021-08-04T09:09:02.878Z</time>
      </trkpt>
      <trkpt lat="46.9876" lon="8.79329">
        <ele>967</ele>
        <time>2021-08-04T09:09:03.878Z</time>
      </trkpt>
      <trkpt lat="46.98759" lon="8.79328">
        <ele>967</ele>
        <time>2021-08-04T09:09:04.878Z</time>
      </trkpt>
      <trkpt lat="46.98757" lon="8.79326">
        <ele>968</ele>
        <time>2021-08-04T09:09:05.877Z</time>
      </trkpt>
      <trkpt lat="46.98756" lon="8.79325">
        <ele>968</ele>
        <time>2021-08-04T09:09:06.878Z</time>
      </trkpt>
      <trkpt lat="46.98756" lon="8.79323">
        <ele>968</ele>
        <time>2021-08-04T09:09:07.877Z</time>
      </trkpt>
      <trkpt lat="46.98755" lon="8.7932">
        <ele>968</ele>
        <time>2021-08-04T09:09:08.878Z</time>
      </trkpt>
      <trkpt lat="46.98754" lon="8.79317">
        <ele>968</ele>
        <time>2021-08-04T09:09:09.878Z</time>
      </trkpt>
      <trkpt lat="46.98753" lon="8.79315">
        <ele>967</ele>
        <time>2021-08-04T09:09:10.878Z</time>
      </trkpt>
      <trkpt lat="46.98753" lon="8.79313">
        <ele>967</ele>
        <time>2021-08-04T09:09:11.878Z</time>
      </trkpt>
      <trkpt lat="46.98752" lon="8.79311">
        <ele>967</ele>
        <time>2021-08-04T09:09:12.877Z</time>
      </trkpt>
      <trkpt lat="46.98752" lon="8.7931">
        <ele>966</ele>
        <time>2021-08-04T09:09:13.878Z</time>
      </trkpt>
      <trkpt lat="46.9875" lon="8.79308">
        <ele>965</ele>
        <time>2021-08-04T09:09:14.878Z</time>
      </trkpt>
      <trkpt lat="46.9875" lon="8.79306">
        <ele>965</ele>
        <time>2021-08-04T09:09:15.878Z</time>
      </trkpt>
      <trkpt lat="46.98749" lon="8.79305">
        <ele>965</ele>
        <time>2021-08-04T09:09:16.878Z</time>
      </trkpt>
      <trkpt lat="46.98747" lon="8.79303">
        <ele>965</ele>
        <time>2021-08-04T09:09:17.878Z</time>
      </trkpt>
      <trkpt lat="46.98747" lon="8.79301">
        <ele>965</ele>
        <time>2021-08-04T09:09:18.878Z</time>
      </trkpt>
      <trkpt lat="46.98746" lon="8.793">
        <ele>964</ele>
        <time>2021-08-04T09:09:19.878Z</time>
      </trkpt>
      <trkpt lat="46.98745" lon="8.79298">
        <ele>964</ele>
        <time>2021-08-04T09:09:20.877Z</time>
      </trkpt>
      <trkpt lat="46.98744" lon="8.79297">
        <ele>963</ele>
        <time>2021-08-04T09:09:21.878Z</time>
      </trkpt>
      <trkpt lat="46.98744" lon="8.79297">
        <ele>963</ele>
        <time>2021-08-04T09:09:22.878Z</time>
      </trkpt>
      <trkpt lat="46.98743" lon="8.79295">
        <ele>962</ele>
        <time>2021-08-04T09:09:23.877Z</time>
      </trkpt>
      <trkpt lat="46.98742" lon="8.79294">
        <ele>962</ele>
        <time>2021-08-04T09:09:24.878Z</time>
      </trkpt>
      <trkpt lat="46.98741" lon="8.79293">
        <ele>961</ele>
        <time>2021-08-04T09:09:25.878Z</time>
      </trkpt>
      <trkpt lat="46.9874" lon="8.79291">
        <ele>961</ele>
        <time>2021-08-04T09:09:26.878Z</time>
      </trkpt>
      <trkpt lat="46.98739" lon="8.79288">
        <ele>961</ele>
        <time>2021-08-04T09:09:27.878Z</time>
      </trkpt>
      <trkpt lat="46.98738" lon="8.79286">
        <ele>961</ele>
        <time>2021-08-04T09:09:28.878Z</time>
      </trkpt>
      <trkpt lat="46.98737" lon="8.79284">
        <ele>961</ele>
        <time>2021-08-04T09:09:29.877Z</time>
      </trkpt>
      <trkpt lat="46.98736" lon="8.79283">
        <ele>961</ele>
        <time>2021-08-04T09:09:30.878Z</time>
      </trkpt>
      <trkpt lat="46.98735" lon="8.79282">
        <ele>961</ele>
        <time>2021-08-04T09:09:31.878Z</time>
      </trkpt>
      <trkpt lat="46.98734" lon="8.79281">
        <ele>962</ele>
        <time>2021-08-04T09:09:32.877Z</time>
      </trkpt>
      <trkpt lat="46.98733" lon="8.7928">
        <ele>962</ele>
        <time>2021-08-04T09:09:33.877Z</time>
      </trkpt>
      <trkpt lat="46.98733" lon="8.79279">
        <ele>962</ele>
        <time>2021-08-04T09:09:34.878Z</time>
      </trkpt>
      <trkpt lat="46.98732" lon="8.79277">
        <ele>963</ele>
        <time>2021-08-04T09:09:35.878Z</time>
      </trkpt>
      <trkpt lat="46.98732" lon="8.79276">
        <ele>962</ele>
        <time>2021-08-04T09:09:36.877Z</time>
      </trkpt>
      <trkpt lat="46.98731" lon="8.79275">
        <ele>962</ele>
        <time>2021-08-04T09:09:37.877Z</time>
      </trkpt>
      <trkpt lat="46.9873" lon="8.79274">
        <ele>962</ele>
        <time>2021-08-04T09:09:38.877Z</time>
      </trkpt>
      <trkpt lat="46.98729" lon="8.79274">
        <ele>962</ele>
        <time>2021-08-04T09:09:39.877Z</time>
      </trkpt>
      <trkpt lat="46.98728" lon="8.79272">
        <ele>962</ele>
        <time>2021-08-04T09:09:40.877Z</time>
      </trkpt>
      <trkpt lat="46.98727" lon="8.79272">
        <ele>962</ele>
        <time>2021-08-04T09:09:41.877Z</time>
      </trkpt>
      <trkpt lat="46.98726" lon="8.7927">
        <ele>961</ele>
        <time>2021-08-04T09:09:42.877Z</time>
      </trkpt>
      <trkpt lat="46.98725" lon="8.79269">
        <ele>961</ele>
        <time>2021-08-04T09:09:43.877Z</time>
      </trkpt>
      <trkpt lat="46.98724" lon="8.79268">
        <ele>961</ele>
        <time>2021-08-04T09:09:44.878Z</time>
      </trkpt>
      <trkpt lat="46.98723" lon="8.79267">
        <ele>961</ele>
        <time>2021-08-04T09:09:45.877Z</time>
      </trkpt>
      <trkpt lat="46.98723" lon="8.79265">
        <ele>961</ele>
        <time>2021-08-04T09:09:46.878Z</time>
      </trkpt>
      <trkpt lat="46.98722" lon="8.79264">
        <ele>961</ele>
        <time>2021-08-04T09:09:47.878Z</time>
      </trkpt>
      <trkpt lat="46.98722" lon="8.79263">
        <ele>961</ele>
        <time>2021-08-04T09:09:48.878Z</time>
      </trkpt>
      <trkpt lat="46.98721" lon="8.79262">
        <ele>961</ele>
        <time>2021-08-04T09:09:49.877Z</time>
      </trkpt>
      <trkpt lat="46.9872" lon="8.7926">
        <ele>961</ele>
        <time>2021-08-04T09:09:50.878Z</time>
      </trkpt>
      <trkpt lat="46.98719" lon="8.79259">
        <ele>960</ele>
        <time>2021-08-04T09:09:51.878Z</time>
      </trkpt>
      <trkpt lat="46.98718" lon="8.79258">
        <ele>960</ele>
        <time>2021-08-04T09:09:52.878Z</time>
      </trkpt>
      <trkpt lat="46.98717" lon="8.79257">
        <ele>960</ele>
        <time>2021-08-04T09:09:53.877Z</time>
      </trkpt>
      <trkpt lat="46.98717" lon="8.79256">
        <ele>960</ele>
        <time>2021-08-04T09:09:54.878Z</time>
      </trkpt>
      <trkpt lat="46.98716" lon="8.79255">
        <ele>960</ele>
        <time>2021-08-04T09:09:55.877Z</time>
      </trkpt>
      <trkpt lat="46.98715" lon="8.79254">
        <ele>959</ele>
        <time>2021-08-04T09:09:56.877Z</time>
      </trkpt>
      <trkpt lat="46.98714" lon="8.79252">
        <ele>959</ele>
        <time>2021-08-04T09:09:57.877Z</time>
      </trkpt>
      <trkpt lat="46.98713" lon="8.79251">
        <ele>959</ele>
        <time>2021-08-04T09:09:58.877Z</time>
      </trkpt>
      <trkpt lat="46.98712" lon="8.79249">
        <ele>958</ele>
        <time>2021-08-04T09:09:59.877Z</time>
      </trkpt>
      <trkpt lat="46.98711" lon="8.79248">
        <ele>958</ele>
        <time>2021-08-04T09:10:00.878Z</time>
      </trkpt>
      <trkpt lat="46.98709" lon="8.79247">
        <ele>958</ele>
        <time>2021-08-04T09:10:01.878Z</time>
      </trkpt>
      <trkpt lat="46.98709" lon="8.79246">
        <ele>958</ele>
        <time>2021-08-04T09:10:02.877Z</time>
      </trkpt>
      <trkpt lat="46.98709" lon="8.79244">
        <ele>958</ele>
        <time>2021-08-04T09:10:03.877Z</time>
      </trkpt>
      <trkpt lat="46.98708" lon="8.79243">
        <ele>957</ele>
        <time>2021-08-04T09:10:04.877Z</time>
      </trkpt>
      <trkpt lat="46.98708" lon="8.79241">
        <ele>957</ele>
        <time>2021-08-04T09:10:05.877Z</time>
      </trkpt>
      <trkpt lat="46.98708" lon="8.7924">
        <ele>957</ele>
        <time>2021-08-04T09:10:06.877Z</time>
      </trkpt>
      <trkpt lat="46.98708" lon="8.79238">
        <ele>957</ele>
        <time>2021-08-04T09:10:07.877Z</time>
      </trkpt>
      <trkpt lat="46.98708" lon="8.79237">
        <ele>957</ele>
        <time>2021-08-04T09:10:08.877Z</time>
      </trkpt>
      <trkpt lat="46.98708" lon="8.79236">
        <ele>956</ele>
        <time>2021-08-04T09:10:09.877Z</time>
      </trkpt>
      <trkpt lat="46.98708" lon="8.79236">
        <ele>955</ele>
        <time>2021-08-04T09:10:10.877Z</time>
      </trkpt>
      <trkpt lat="46.98707" lon="8.79235">
        <ele>955</ele>
        <time>2021-08-04T09:10:11.877Z</time>
      </trkpt>
      <trkpt lat="46.98707" lon="8.79235">
        <ele>954</ele>
        <time>2021-08-04T09:10:12.877Z</time>
      </trkpt>
      <trkpt lat="46.98707" lon="8.79233">
        <ele>954</ele>
        <time>2021-08-04T09:10:13.877Z</time>
      </trkpt>
      <trkpt lat="46.98706" lon="8.79232">
        <ele>954</ele>
        <time>2021-08-04T09:10:14.877Z</time>
      </trkpt>
      <trkpt lat="46.98705" lon="8.7923">
        <ele>953</ele>
        <time>2021-08-04T09:10:15.877Z</time>
      </trkpt>
      <trkpt lat="46.98705" lon="8.79229">
        <ele>953</ele>
        <time>2021-08-04T09:10:16.877Z</time>
      </trkpt>
      <trkpt lat="46.98705" lon="8.79227">
        <ele>953</ele>
        <time>2021-08-04T09:10:17.877Z</time>
      </trkpt>
      <trkpt lat="46.98705" lon="8.79225">
        <ele>953</ele>
        <time>2021-08-04T09:10:18.878Z</time>
      </trkpt>
      <trkpt lat="46.98705" lon="8.79224">
        <ele>952</ele>
        <time>2021-08-04T09:10:19.877Z</time>
      </trkpt>
      <trkpt lat="46.98705" lon="8.79223">
        <ele>952</ele>
        <time>2021-08-04T09:10:20.877Z</time>
      </trkpt>
      <trkpt lat="46.98704" lon="8.79222">
        <ele>951</ele>
        <time>2021-08-04T09:10:21.878Z</time>
      </trkpt>
      <trkpt lat="46.98704" lon="8.7922">
        <ele>950</ele>
        <time>2021-08-04T09:10:22.878Z</time>
      </trkpt>
      <trkpt lat="46.98703" lon="8.79218">
        <ele>950</ele>
        <time>2021-08-04T09:10:23.878Z</time>
      </trkpt>
      <trkpt lat="46.98703" lon="8.79216">
        <ele>949</ele>
        <time>2021-08-04T09:10:24.878Z</time>
      </trkpt>
      <trkpt lat="46.98703" lon="8.79215">
        <ele>948</ele>
        <time>2021-08-04T09:10:25.877Z</time>
      </trkpt>
      <trkpt lat="46.98703" lon="8.79214">
        <ele>947</ele>
        <time>2021-08-04T09:10:26.878Z</time>
      </trkpt>
      <trkpt lat="46.98703" lon="8.79212">
        <ele>947</ele>
        <time>2021-08-04T09:10:27.878Z</time>
      </trkpt>
      <trkpt lat="46.98702" lon="8.79209">
        <ele>947</ele>
        <time>2021-08-04T09:10:28.877Z</time>
      </trkpt>
      <trkpt lat="46.98702" lon="8.79207">
        <ele>946</ele>
        <time>2021-08-04T09:10:29.878Z</time>
      </trkpt>
      <trkpt lat="46.98702" lon="8.79205">
        <ele>946</ele>
        <time>2021-08-04T09:10:30.877Z</time>
      </trkpt>
      <trkpt lat="46.98702" lon="8.79204">
        <ele>946</ele>
        <time>2021-08-04T09:10:31.877Z</time>
      </trkpt>
      <trkpt lat="46.98702" lon="8.79201">
        <ele>946</ele>
        <time>2021-08-04T09:10:32.877Z</time>
      </trkpt>
      <trkpt lat="46.98702" lon="8.79199">
        <ele>946</ele>
        <time>2021-08-04T09:10:33.878Z</time>
      </trkpt>
      <trkpt lat="46.98702" lon="8.79197">
        <ele>947</ele>
        <time>2021-08-04T09:10:34.877Z</time>
      </trkpt>
      <trkpt lat="46.98702" lon="8.79195">
        <ele>947</ele>
        <time>2021-08-04T09:10:35.878Z</time>
      </trkpt>
      <trkpt lat="46.98703" lon="8.79193">
        <ele>947</ele>
        <time>2021-08-04T09:10:36.878Z</time>
      </trkpt>
      <trkpt lat="46.98703" lon="8.79191">
        <ele>947</ele>
        <time>2021-08-04T09:10:37.878Z</time>
      </trkpt>
      <trkpt lat="46.98703" lon="8.7919">
        <ele>947</ele>
        <time>2021-08-04T09:10:38.878Z</time>
      </trkpt>
      <trkpt lat="46.98702" lon="8.79189">
        <ele>947</ele>
        <time>2021-08-04T09:10:39.878Z</time>
      </trkpt>
      <trkpt lat="46.98702" lon="8.79188">
        <ele>947</ele>
        <time>2021-08-04T09:10:40.878Z</time>
      </trkpt>
      <trkpt lat="46.98702" lon="8.79186">
        <ele>948</ele>
        <time>2021-08-04T09:10:41.878Z</time>
      </trkpt>
      <trkpt lat="46.98702" lon="8.79184">
        <ele>948</ele>
        <time>2021-08-04T09:10:42.878Z</time>
      </trkpt>
      <trkpt lat="46.98701" lon="8.79182">
        <ele>949</ele>
        <time>2021-08-04T09:10:43.878Z</time>
      </trkpt>
      <trkpt lat="46.987" lon="8.7918">
        <ele>949</ele>
        <time>2021-08-04T09:10:44.878Z</time>
      </trkpt>
      <trkpt lat="46.98699" lon="8.79178">
        <ele>950</ele>
        <time>2021-08-04T09:10:45.877Z</time>
      </trkpt>
      <trkpt lat="46.98698" lon="8.79175">
        <ele>950</ele>
        <time>2021-08-04T09:10:46.878Z</time>
      </trkpt>
      <trkpt lat="46.98697" lon="8.79173">
        <ele>951</ele>
        <time>2021-08-04T09:10:47.878Z</time>
      </trkpt>
      <trkpt lat="46.98696" lon="8.79171">
        <ele>951</ele>
        <time>2021-08-04T09:10:48.878Z</time>
      </trkpt>
      <trkpt lat="46.98696" lon="8.79169">
        <ele>952</ele>
        <time>2021-08-04T09:10:49.878Z</time>
      </trkpt>
      <trkpt lat="46.98695" lon="8.79167">
        <ele>952</ele>
        <time>2021-08-04T09:10:50.878Z</time>
      </trkpt>
      <trkpt lat="46.98694" lon="8.79165">
        <ele>953</ele>
        <time>2021-08-04T09:10:51.878Z</time>
      </trkpt>
      <trkpt lat="46.98693" lon="8.79163">
        <ele>954</ele>
        <time>2021-08-04T09:10:52.878Z</time>
      </trkpt>
      <trkpt lat="46.98693" lon="8.79161">
        <ele>955</ele>
        <time>2021-08-04T09:10:53.877Z</time>
      </trkpt>
      <trkpt lat="46.98692" lon="8.79159">
        <ele>955</ele>
        <time>2021-08-04T09:10:54.878Z</time>
      </trkpt>
      <trkpt lat="46.98691" lon="8.79158">
        <ele>956</ele>
        <time>2021-08-04T09:10:55.877Z</time>
      </trkpt>
      <trkpt lat="46.98691" lon="8.79156">
        <ele>957</ele>
        <time>2021-08-04T09:10:56.878Z</time>
      </trkpt>
      <trkpt lat="46.9869" lon="8.79154">
        <ele>957</ele>
        <time>2021-08-04T09:10:57.878Z</time>
      </trkpt>
      <trkpt lat="46.9869" lon="8.79152">
        <ele>958</ele>
        <time>2021-08-04T09:10:58.877Z</time>
      </trkpt>
      <trkpt lat="46.98689" lon="8.7915">
        <ele>958</ele>
        <time>2021-08-04T09:10:59.878Z</time>
      </trkpt>
      <trkpt lat="46.98688" lon="8.79149">
        <ele>959</ele>
        <time>2021-08-04T09:11:00.877Z</time>
      </trkpt>
      <trkpt lat="46.98687" lon="8.79147">
        <ele>959</ele>
        <time>2021-08-04T09:11:01.878Z</time>
      </trkpt>
      <trkpt lat="46.98685" lon="8.79145">
        <ele>959</ele>
        <time>2021-08-04T09:11:02.878Z</time>
      </trkpt>
      <trkpt lat="46.98684" lon="8.79142">
        <ele>958</ele>
        <time>2021-08-04T09:11:03.877Z</time>
      </trkpt>
      <trkpt lat="46.98683" lon="8.7914">
        <ele>958</ele>
        <time>2021-08-04T09:11:04.878Z</time>
      </trkpt>
      <trkpt lat="46.98683" lon="8.79139">
        <ele>957</ele>
        <time>2021-08-04T09:11:05.878Z</time>
      </trkpt>
      <trkpt lat="46.98683" lon="8.7914">
        <ele>956</ele>
        <time>2021-08-04T09:11:06.877Z</time>
      </trkpt>
      <trkpt lat="46.98683" lon="8.79139">
        <ele>955</ele>
        <time>2021-08-04T09:11:07.878Z</time>
      </trkpt>
      <trkpt lat="46.98682" lon="8.79137">
        <ele>954</ele>
        <time>2021-08-04T09:11:08.877Z</time>
      </trkpt>
      <trkpt lat="46.98681" lon="8.79135">
        <ele>953</ele>
        <time>2021-08-04T09:11:09.877Z</time>
      </trkpt>
      <trkpt lat="46.9868" lon="8.79133">
        <ele>952</ele>
        <time>2021-08-04T09:11:10.878Z</time>
      </trkpt>
      <trkpt lat="46.9868" lon="8.79131">
        <ele>951</ele>
        <time>2021-08-04T09:11:11.878Z</time>
      </trkpt>
      <trkpt lat="46.9868" lon="8.79128">
        <ele>950</ele>
        <time>2021-08-04T09:11:12.878Z</time>
      </trkpt>
      <trkpt lat="46.98679" lon="8.79126">
        <ele>949</ele>
        <time>2021-08-04T09:11:13.878Z</time>
      </trkpt>
      <trkpt lat="46.98678" lon="8.79124">
        <ele>949</ele>
        <time>2021-08-04T09:11:14.878Z</time>
      </trkpt>
      <trkpt lat="46.98678" lon="8.79122">
        <ele>948</ele>
        <time>2021-08-04T09:11:15.878Z</time>
      </trkpt>
      <trkpt lat="46.98677" lon="8.79121">
        <ele>947</ele>
        <time>2021-08-04T09:11:16.877Z</time>
      </trkpt>
      <trkpt lat="46.98676" lon="8.79119">
        <ele>946</ele>
        <time>2021-08-04T09:11:17.877Z</time>
      </trkpt>
      <trkpt lat="46.98675" lon="8.79118">
        <ele>945</ele>
        <time>2021-08-04T09:11:18.877Z</time>
      </trkpt>
      <trkpt lat="46.98675" lon="8.79116">
        <ele>944</ele>
        <time>2021-08-04T09:11:19.878Z</time>
      </trkpt>
      <trkpt lat="46.98675" lon="8.79114">
        <ele>943</ele>
        <time>2021-08-04T09:11:20.878Z</time>
      </trkpt>
      <trkpt lat="46.98674" lon="8.79112">
        <ele>943</ele>
        <time>2021-08-04T09:11:21.878Z</time>
      </trkpt>
      <trkpt lat="46.98673" lon="8.79109">
        <ele>942</ele>
        <time>2021-08-04T09:11:22.877Z</time>
      </trkpt>
      <trkpt lat="46.98672" lon="8.79107">
        <ele>941</ele>
        <time>2021-08-04T09:11:23.877Z</time>
      </trkpt>
      <trkpt lat="46.98671" lon="8.79105">
        <ele>941</ele>
        <time>2021-08-04T09:11:24.878Z</time>
      </trkpt>
      <trkpt lat="46.9867" lon="8.79103">
        <ele>940</ele>
        <time>2021-08-04T09:11:25.878Z</time>
      </trkpt>
      <trkpt lat="46.9867" lon="8.79101">
        <ele>940</ele>
        <time>2021-08-04T09:11:26.877Z</time>
      </trkpt>
      <trkpt lat="46.98669" lon="8.79099">
        <ele>940</ele>
        <time>2021-08-04T09:11:27.878Z</time>
      </trkpt>
      <trkpt lat="46.98669" lon="8.79097">
        <ele>939</ele>
        <time>2021-08-04T09:11:28.878Z</time>
      </trkpt>
      <trkpt lat="46.98668" lon="8.79095">
        <ele>939</ele>
        <time>2021-08-04T09:11:29.878Z</time>
      </trkpt>
      <trkpt lat="46.98666" lon="8.79092">
        <ele>940</ele>
        <time>2021-08-04T09:11:30.877Z</time>
      </trkpt>
      <trkpt lat="46.98665" lon="8.79089">
        <ele>940</ele>
        <time>2021-08-04T09:11:31.878Z</time>
      </trkpt>
      <trkpt lat="46.98664" lon="8.79086">
        <ele>940</ele>
        <time>2021-08-04T09:11:32.878Z</time>
      </trkpt>
      <trkpt lat="46.98664" lon="8.79083">
        <ele>940</ele>
        <time>2021-08-04T09:11:33.878Z</time>
      </trkpt>
      <trkpt lat="46.98663" lon="8.7908">
        <ele>939</ele>
        <time>2021-08-04T09:11:34.878Z</time>
      </trkpt>
      <trkpt lat="46.98662" lon="8.79077">
        <ele>939</ele>
        <time>2021-08-04T09:11:35.877Z</time>
      </trkpt>
      <trkpt lat="46.98661" lon="8.79074">
        <ele>939</ele>
        <time>2021-08-04T09:11:36.878Z</time>
      </trkpt>
      <trkpt lat="46.9866" lon="8.79072">
        <ele>938</ele>
        <time>2021-08-04T09:11:37.878Z</time>
      </trkpt>
      <trkpt lat="46.9866" lon="8.79071">
        <ele>937</ele>
        <time>2021-08-04T09:11:38.878Z</time>
      </trkpt>
      <trkpt lat="46.98659" lon="8.79071">
        <ele>936</ele>
        <time>2021-08-04T09:11:39.877Z</time>
      </trkpt>
      <trkpt lat="46.98659" lon="8.79071">
        <ele>935</ele>
        <time>2021-08-04T09:11:40.878Z</time>
      </trkpt>
      <trkpt lat="46.98658" lon="8.7907">
        <ele>934</ele>
        <time>2021-08-04T09:11:41.878Z</time>
      </trkpt>
      <trkpt lat="46.98657" lon="8.79069">
        <ele>933</ele>
        <time>2021-08-04T09:11:42.878Z</time>
      </trkpt>
      <trkpt lat="46.98656" lon="8.79069">
        <ele>932</ele>
        <time>2021-08-04T09:11:43.877Z</time>
      </trkpt>
      <trkpt lat="46.98655" lon="8.79068">
        <ele>931</ele>
        <time>2021-08-04T09:11:44.877Z</time>
      </trkpt>
      <trkpt lat="46.98654" lon="8.79067">
        <ele>931</ele>
        <time>2021-08-04T09:11:45.877Z</time>
      </trkpt>
      <trkpt lat="46.98653" lon="8.79067">
        <ele>930</ele>
        <time>2021-08-04T09:11:46.878Z</time>
      </trkpt>
      <trkpt lat="46.98652" lon="8.79066">
        <ele>929</ele>
        <time>2021-08-04T09:11:47.878Z</time>
      </trkpt>
      <trkpt lat="46.98651" lon="8.79066">
        <ele>928</ele>
        <time>2021-08-04T09:11:48.877Z</time>
      </trkpt>
      <trkpt lat="46.9865" lon="8.79066">
        <ele>928</ele>
        <time>2021-08-04T09:11:49.877Z</time>
      </trkpt>
      <trkpt lat="46.98649" lon="8.79066">
        <ele>927</ele>
        <time>2021-08-04T09:11:50.877Z</time>
      </trkpt>
      <trkpt lat="46.98647" lon="8.79067">
        <ele>926</ele>
        <time>2021-08-04T09:11:51.878Z</time>
      </trkpt>
      <trkpt lat="46.98646" lon="8.79067">
        <ele>925</ele>
        <time>2021-08-04T09:11:52.877Z</time>
      </trkpt>
      <trkpt lat="46.98645" lon="8.79068">
        <ele>924</ele>
        <time>2021-08-04T09:11:53.877Z</time>
      </trkpt>
      <trkpt lat="46.98644" lon="8.79069">
        <ele>923</ele>
        <time>2021-08-04T09:11:54.877Z</time>
      </trkpt>
      <trkpt lat="46.98642" lon="8.7907">
        <ele>922</ele>
        <time>2021-08-04T09:11:55.877Z</time>
      </trkpt>
      <trkpt lat="46.98641" lon="8.79071">
        <ele>922</ele>
        <time>2021-08-04T09:11:56.877Z</time>
      </trkpt>
      <trkpt lat="46.9864" lon="8.79071">
        <ele>921</ele>
        <time>2021-08-04T09:11:57.878Z</time>
      </trkpt>
      <trkpt lat="46.98639" lon="8.79073">
        <ele>921</ele>
        <time>2021-08-04T09:11:58.877Z</time>
      </trkpt>
      <trkpt lat="46.98638" lon="8.79075">
        <ele>920</ele>
        <time>2021-08-04T09:11:59.877Z</time>
      </trkpt>
      <trkpt lat="46.98636" lon="8.79076">
        <ele>920</ele>
        <time>2021-08-04T09:12:00.877Z</time>
      </trkpt>
      <trkpt lat="46.98635" lon="8.79078">
        <ele>920</ele>
        <time>2021-08-04T09:12:01.878Z</time>
      </trkpt>
      <trkpt lat="46.98634" lon="8.79079">
        <ele>920</ele>
        <time>2021-08-04T09:12:02.878Z</time>
      </trkpt>
      <trkpt lat="46.98632" lon="8.79081">
        <ele>920</ele>
        <time>2021-08-04T09:12:03.877Z</time>
      </trkpt>
      <trkpt lat="46.98631" lon="8.79083">
        <ele>919</ele>
        <time>2021-08-04T09:12:04.877Z</time>
      </trkpt>
      <trkpt lat="46.9863" lon="8.79084">
        <ele>919</ele>
        <time>2021-08-04T09:12:05.877Z</time>
      </trkpt>
      <trkpt lat="46.98629" lon="8.79085">
        <ele>919</ele>
        <time>2021-08-04T09:12:06.878Z</time>
      </trkpt>
      <trkpt lat="46.98628" lon="8.79087">
        <ele>919</ele>
        <time>2021-08-04T09:12:07.878Z</time>
      </trkpt>
      <trkpt lat="46.98627" lon="8.79088">
        <ele>919</ele>
        <time>2021-08-04T09:12:08.877Z</time>
      </trkpt>
      <trkpt lat="46.98626" lon="8.79088">
        <ele>918</ele>
        <time>2021-08-04T09:12:09.877Z</time>
      </trkpt>
      <trkpt lat="46.98625" lon="8.79089">
        <ele>918</ele>
        <time>2021-08-04T09:12:10.877Z</time>
      </trkpt>
      <trkpt lat="46.98624" lon="8.79091">
        <ele>919</ele>
        <time>2021-08-04T09:12:11.878Z</time>
      </trkpt>
      <trkpt lat="46.98623" lon="8.79092">
        <ele>919</ele>
        <time>2021-08-04T09:12:12.877Z</time>
      </trkpt>
      <trkpt lat="46.98622" lon="8.79094">
        <ele>919</ele>
        <time>2021-08-04T09:12:13.877Z</time>
      </trkpt>
      <trkpt lat="46.98622" lon="8.79095">
        <ele>920</ele>
        <time>2021-08-04T09:12:14.877Z</time>
      </trkpt>
      <trkpt lat="46.98621" lon="8.79097">
        <ele>920</ele>
        <time>2021-08-04T09:12:15.877Z</time>
      </trkpt>
      <trkpt lat="46.98621" lon="8.79098">
        <ele>920</ele>
        <time>2021-08-04T09:12:16.877Z</time>
      </trkpt>
      <trkpt lat="46.9862" lon="8.79099">
        <ele>920</ele>
        <time>2021-08-04T09:12:17.877Z</time>
      </trkpt>
      <trkpt lat="46.98618" lon="8.79101">
        <ele>920</ele>
        <time>2021-08-04T09:12:18.878Z</time>
      </trkpt>
      <trkpt lat="46.98617" lon="8.79102">
        <ele>920</ele>
        <time>2021-08-04T09:12:19.878Z</time>
      </trkpt>
      <trkpt lat="46.98617" lon="8.79103">
        <ele>920</ele>
        <time>2021-08-04T09:12:20.877Z</time>
      </trkpt>
      <trkpt lat="46.98617" lon="8.79102">
        <ele>921</ele>
        <time>2021-08-04T09:12:21.877Z</time>
      </trkpt>
      <trkpt lat="46.98617" lon="8.79103">
        <ele>921</ele>
        <time>2021-08-04T09:12:22.877Z</time>
      </trkpt>
      <trkpt lat="46.98616" lon="8.79104">
        <ele>922</ele>
        <time>2021-08-04T09:12:23.878Z</time>
      </trkpt>
      <trkpt lat="46.98616" lon="8.79104">
        <ele>922</ele>
        <time>2021-08-04T09:12:24.877Z</time>
      </trkpt>
      <trkpt lat="46.98614" lon="8.79106">
        <ele>923</ele>
        <time>2021-08-04T09:12:25.877Z</time>
      </trkpt>
      <trkpt lat="46.98613" lon="8.79107">
        <ele>923</ele>
        <time>2021-08-04T09:12:26.877Z</time>
      </trkpt>
      <trkpt lat="46.98612" lon="8.79108">
        <ele>923</ele>
        <time>2021-08-04T09:12:27.878Z</time>
      </trkpt>
      <trkpt lat="46.98611" lon="8.79109">
        <ele>923</ele>
        <time>2021-08-04T09:12:28.877Z</time>
      </trkpt>
      <trkpt lat="46.98609" lon="8.79111">
        <ele>923</ele>
        <time>2021-08-04T09:12:29.878Z</time>
      </trkpt>
      <trkpt lat="46.98608" lon="8.79113">
        <ele>924</ele>
        <time>2021-08-04T09:12:30.878Z</time>
      </trkpt>
      <trkpt lat="46.98607" lon="8.79114">
        <ele>924</ele>
        <time>2021-08-04T09:12:31.878Z</time>
      </trkpt>
      <trkpt lat="46.98606" lon="8.79115">
        <ele>924</ele>
        <time>2021-08-04T09:12:32.878Z</time>
      </trkpt>
      <trkpt lat="46.98605" lon="8.79116">
        <ele>924</ele>
        <time>2021-08-04T09:12:33.878Z</time>
      </trkpt>
      <trkpt lat="46.98604" lon="8.79117">
        <ele>925</ele>
        <time>2021-08-04T09:12:34.878Z</time>
      </trkpt>
      <trkpt lat="46.98603" lon="8.79118">
        <ele>925</ele>
        <time>2021-08-04T09:12:35.877Z</time>
      </trkpt>
      <trkpt lat="46.98602" lon="8.79118">
        <ele>925</ele>
        <time>2021-08-04T09:12:36.877Z</time>
      </trkpt>
      <trkpt lat="46.986" lon="8.79119">
        <ele>925</ele>
        <time>2021-08-04T09:12:37.878Z</time>
      </trkpt>
      <trkpt lat="46.98599" lon="8.7912">
        <ele>925</ele>
        <time>2021-08-04T09:12:38.878Z</time>
      </trkpt>
      <trkpt lat="46.98598" lon="8.7912">
        <ele>925</ele>
        <time>2021-08-04T09:12:39.878Z</time>
      </trkpt>
      <trkpt lat="46.98597" lon="8.79121">
        <ele>925</ele>
        <time>2021-08-04T09:12:40.878Z</time>
      </trkpt>
      <trkpt lat="46.98596" lon="8.79122">
        <ele>925</ele>
        <time>2021-08-04T09:12:41.878Z</time>
      </trkpt>
      <trkpt lat="46.98594" lon="8.79122">
        <ele>925</ele>
        <time>2021-08-04T09:12:42.878Z</time>
      </trkpt>
      <trkpt lat="46.98593" lon="8.79123">
        <ele>925</ele>
        <time>2021-08-04T09:12:43.877Z</time>
      </trkpt>
      <trkpt lat="46.98592" lon="8.79124">
        <ele>925</ele>
        <time>2021-08-04T09:12:44.877Z</time>
      </trkpt>
      <trkpt lat="46.98591" lon="8.79125">
        <ele>925</ele>
        <time>2021-08-04T09:12:45.877Z</time>
      </trkpt>
      <trkpt lat="46.98589" lon="8.79125">
        <ele>925</ele>
        <time>2021-08-04T09:12:46.878Z</time>
      </trkpt>
      <trkpt lat="46.98588" lon="8.79126">
        <ele>926</ele>
        <time>2021-08-04T09:12:47.878Z</time>
      </trkpt>
      <trkpt lat="46.98587" lon="8.79126">
        <ele>926</ele>
        <time>2021-08-04T09:12:48.878Z</time>
      </trkpt>
      <trkpt lat="46.98585" lon="8.79125">
        <ele>926</ele>
        <time>2021-08-04T09:12:49.877Z</time>
      </trkpt>
      <trkpt lat="46.98584" lon="8.79124">
        <ele>926</ele>
        <time>2021-08-04T09:12:50.878Z</time>
      </trkpt>
      <trkpt lat="46.98583" lon="8.79123">
        <ele>927</ele>
        <time>2021-08-04T09:12:51.878Z</time>
      </trkpt>
      <trkpt lat="46.98582" lon="8.79122">
        <ele>927</ele>
        <time>2021-08-04T09:12:52.878Z</time>
      </trkpt>
      <trkpt lat="46.98582" lon="8.7912">
        <ele>927</ele>
        <time>2021-08-04T09:12:53.878Z</time>
      </trkpt>
      <trkpt lat="46.9858" lon="8.79117">
        <ele>927</ele>
        <time>2021-08-04T09:12:54.878Z</time>
      </trkpt>
      <trkpt lat="46.98578" lon="8.79114">
        <ele>928</ele>
        <time>2021-08-04T09:12:55.878Z</time>
      </trkpt>
      <trkpt lat="46.98577" lon="8.79112">
        <ele>928</ele>
        <time>2021-08-04T09:12:56.878Z</time>
      </trkpt>
      <trkpt lat="46.98577" lon="8.79109">
        <ele>928</ele>
        <time>2021-08-04T09:12:57.877Z</time>
      </trkpt>
      <trkpt lat="46.98577" lon="8.79107">
        <ele>928</ele>
        <time>2021-08-04T09:12:58.877Z</time>
      </trkpt>
      <trkpt lat="46.98578" lon="8.79106">
        <ele>929</ele>
        <time>2021-08-04T09:12:59.878Z</time>
      </trkpt>
      <trkpt lat="46.98578" lon="8.79104">
        <ele>929</ele>
        <time>2021-08-04T09:13:00.878Z</time>
      </trkpt>
      <trkpt lat="46.98578" lon="8.79102">
        <ele>929</ele>
        <time>2021-08-04T09:13:01.878Z</time>
      </trkpt>
      <trkpt lat="46.98578" lon="8.791">
        <ele>929</ele>
        <time>2021-08-04T09:13:02.878Z</time>
      </trkpt>
      <trkpt lat="46.98578" lon="8.79099">
        <ele>929</ele>
        <time>2021-08-04T09:13:03.877Z</time>
      </trkpt>
      <trkpt lat="46.98579" lon="8.79097">
        <ele>929</ele>
        <time>2021-08-04T09:13:04.878Z</time>
      </trkpt>
      <trkpt lat="46.98579" lon="8.79096">
        <ele>928</ele>
        <time>2021-08-04T09:13:05.878Z</time>
      </trkpt>
      <trkpt lat="46.98579" lon="8.79094">
        <ele>928</ele>
        <time>2021-08-04T09:13:06.878Z</time>
      </trkpt>
      <trkpt lat="46.98579" lon="8.79092">
        <ele>928</ele>
        <time>2021-08-04T09:13:07.877Z</time>
      </trkpt>
      <trkpt lat="46.98579" lon="8.7909">
        <ele>928</ele>
        <time>2021-08-04T09:13:08.878Z</time>
      </trkpt>
      <trkpt lat="46.98579" lon="8.79088">
        <ele>928</ele>
        <time>2021-08-04T09:13:09.877Z</time>
      </trkpt>
      <trkpt lat="46.98579" lon="8.79086">
        <ele>928</ele>
        <time>2021-08-04T09:13:10.877Z</time>
      </trkpt>
      <trkpt lat="46.98579" lon="8.79084">
        <ele>927</ele>
        <time>2021-08-04T09:13:11.878Z</time>
      </trkpt>
      <trkpt lat="46.9858" lon="8.79083">
        <ele>926</ele>
        <time>2021-08-04T09:13:12.878Z</time>
      </trkpt>
      <trkpt lat="46.98581" lon="8.79081">
        <ele>926</ele>
        <time>2021-08-04T09:13:13.877Z</time>
      </trkpt>
      <trkpt lat="46.98581" lon="8.7908">
        <ele>925</ele>
        <time>2021-08-04T09:13:14.878Z</time>
      </trkpt>
      <trkpt lat="46.98582" lon="8.79078">
        <ele>925</ele>
        <time>2021-08-04T09:13:15.877Z</time>
      </trkpt>
      <trkpt lat="46.98582" lon="8.79076">
        <ele>924</ele>
        <time>2021-08-04T09:13:16.877Z</time>
      </trkpt>
      <trkpt lat="46.98582" lon="8.79074">
        <ele>923</ele>
        <time>2021-08-04T09:13:17.877Z</time>
      </trkpt>
      <trkpt lat="46.98583" lon="8.79072">
        <ele>922</ele>
        <time>2021-08-04T09:13:18.878Z</time>
      </trkpt>
      <trkpt lat="46.98583" lon="8.79069">
        <ele>921</ele>
        <time>2021-08-04T09:13:19.878Z</time>
      </trkpt>
      <trkpt lat="46.98584" lon="8.79067">
        <ele>921</ele>
        <time>2021-08-04T09:13:20.877Z</time>
      </trkpt>
      <trkpt lat="46.98584" lon="8.79065">
        <ele>920</ele>
        <time>2021-08-04T09:13:21.878Z</time>
      </trkpt>
      <trkpt lat="46.98584" lon="8.79063">
        <ele>920</ele>
        <time>2021-08-04T09:13:22.877Z</time>
      </trkpt>
      <trkpt lat="46.98584" lon="8.7906">
        <ele>920</ele>
        <time>2021-08-04T09:13:23.878Z</time>
      </trkpt>
      <trkpt lat="46.98584" lon="8.79058">
        <ele>920</ele>
        <time>2021-08-04T09:13:24.878Z</time>
      </trkpt>
      <trkpt lat="46.98585" lon="8.79056">
        <ele>920</ele>
        <time>2021-08-04T09:13:25.878Z</time>
      </trkpt>
      <trkpt lat="46.98585" lon="8.79054">
        <ele>919</ele>
        <time>2021-08-04T09:13:26.877Z</time>
      </trkpt>
      <trkpt lat="46.98584" lon="8.79052">
        <ele>919</ele>
        <time>2021-08-04T09:13:27.878Z</time>
      </trkpt>
      <trkpt lat="46.98584" lon="8.7905">
        <ele>919</ele>
        <time>2021-08-04T09:13:28.878Z</time>
      </trkpt>
      <trkpt lat="46.98584" lon="8.79048">
        <ele>919</ele>
        <time>2021-08-04T09:13:29.878Z</time>
      </trkpt>
      <trkpt lat="46.98584" lon="8.79046">
        <ele>919</ele>
        <time>2021-08-04T09:13:30.877Z</time>
      </trkpt>
      <trkpt lat="46.98584" lon="8.79044">
        <ele>918</ele>
        <time>2021-08-04T09:13:31.877Z</time>
      </trkpt>
      <trkpt lat="46.98583" lon="8.79043">
        <ele>918</ele>
        <time>2021-08-04T09:13:32.877Z</time>
      </trkpt>
      <trkpt lat="46.98582" lon="8.79041">
        <ele>918</ele>
        <time>2021-08-04T09:13:33.878Z</time>
      </trkpt>
      <trkpt lat="46.98582" lon="8.7904">
        <ele>918</ele>
        <time>2021-08-04T09:13:34.878Z</time>
      </trkpt>
      <trkpt lat="46.98581" lon="8.79038">
        <ele>918</ele>
        <time>2021-08-04T09:13:35.877Z</time>
      </trkpt>
      <trkpt lat="46.98581" lon="8.79036">
        <ele>918</ele>
        <time>2021-08-04T09:13:36.877Z</time>
      </trkpt>
      <trkpt lat="46.9858" lon="8.79034">
        <ele>918</ele>
        <time>2021-08-04T09:13:37.877Z</time>
      </trkpt>
      <trkpt lat="46.98579" lon="8.79033">
        <ele>918</ele>
        <time>2021-08-04T09:13:38.877Z</time>
      </trkpt>
      <trkpt lat="46.98578" lon="8.79032">
        <ele>918</ele>
        <time>2021-08-04T09:13:39.877Z</time>
      </trkpt>
      <trkpt lat="46.98577" lon="8.7903">
        <ele>918</ele>
        <time>2021-08-04T09:13:40.878Z</time>
      </trkpt>
      <trkpt lat="46.98576" lon="8.79028">
        <ele>918</ele>
        <time>2021-08-04T09:13:41.877Z</time>
      </trkpt>
      <trkpt lat="46.98575" lon="8.79026">
        <ele>918</ele>
        <time>2021-08-04T09:13:42.878Z</time>
      </trkpt>
      <trkpt lat="46.98574" lon="8.79025">
        <ele>919</ele>
        <time>2021-08-04T09:13:43.878Z</time>
      </trkpt>
      <trkpt lat="46.98573" lon="8.79024">
        <ele>919</ele>
        <time>2021-08-04T09:13:44.878Z</time>
      </trkpt>
      <trkpt lat="46.98572" lon="8.79023">
        <ele>919</ele>
        <time>2021-08-04T09:13:45.877Z</time>
      </trkpt>
      <trkpt lat="46.98571" lon="8.79022">
        <ele>918</ele>
        <time>2021-08-04T09:13:46.877Z</time>
      </trkpt>
      <trkpt lat="46.9857" lon="8.79021">
        <ele>918</ele>
        <time>2021-08-04T09:13:47.878Z</time>
      </trkpt>
      <trkpt lat="46.98569" lon="8.7902">
        <ele>918</ele>
        <time>2021-08-04T09:13:48.878Z</time>
      </trkpt>
      <trkpt lat="46.98568" lon="8.79019">
        <ele>917</ele>
        <time>2021-08-04T09:13:49.878Z</time>
      </trkpt>
      <trkpt lat="46.98568" lon="8.79018">
        <ele>917</ele>
        <time>2021-08-04T09:13:50.877Z</time>
      </trkpt>
      <trkpt lat="46.98567" lon="8.79016">
        <ele>917</ele>
        <time>2021-08-04T09:13:51.877Z</time>
      </trkpt>
      <trkpt lat="46.98566" lon="8.79015">
        <ele>917</ele>
        <time>2021-08-04T09:13:52.878Z</time>
      </trkpt>
      <trkpt lat="46.98564" lon="8.79014">
        <ele>917</ele>
        <time>2021-08-04T09:13:53.877Z</time>
      </trkpt>
      <trkpt lat="46.98563" lon="8.79012">
        <ele>917</ele>
        <time>2021-08-04T09:13:54.877Z</time>
      </trkpt>
      <trkpt lat="46.98562" lon="8.79011">
        <ele>917</ele>
        <time>2021-08-04T09:13:55.877Z</time>
      </trkpt>
      <trkpt lat="46.98561" lon="8.79009">
        <ele>917</ele>
        <time>2021-08-04T09:13:56.877Z</time>
      </trkpt>
      <trkpt lat="46.9856" lon="8.79008">
        <ele>917</ele>
        <time>2021-08-04T09:13:57.878Z</time>
      </trkpt>
      <trkpt lat="46.98559" lon="8.79006">
        <ele>917</ele>
        <time>2021-08-04T09:13:58.877Z</time>
      </trkpt>
      <trkpt lat="46.98558" lon="8.79004">
        <ele>918</ele>
        <time>2021-08-04T09:13:59.878Z</time>
      </trkpt>
      <trkpt lat="46.98557" lon="8.79002">
        <ele>918</ele>
        <time>2021-08-04T09:14:00.877Z</time>
      </trkpt>
      <trkpt lat="46.98556" lon="8.79001">
        <ele>919</ele>
        <time>2021-08-04T09:14:01.877Z</time>
      </trkpt>
      <trkpt lat="46.98556" lon="8.79">
        <ele>919</ele>
        <time>2021-08-04T09:14:02.877Z</time>
      </trkpt>
      <trkpt lat="46.98555" lon="8.78998">
        <ele>919</ele>
        <time>2021-08-04T09:14:03.877Z</time>
      </trkpt>
      <trkpt lat="46.98553" lon="8.78996">
        <ele>920</ele>
        <time>2021-08-04T09:14:04.877Z</time>
      </trkpt>
      <trkpt lat="46.98552" lon="8.78993">
        <ele>920</ele>
        <time>2021-08-04T09:14:05.877Z</time>
      </trkpt>
      <trkpt lat="46.98551" lon="8.78991">
        <ele>920</ele>
        <time>2021-08-04T09:14:06.877Z</time>
      </trkpt>
      <trkpt lat="46.9855" lon="8.78989">
        <ele>920</ele>
        <time>2021-08-04T09:14:07.877Z</time>
      </trkpt>
      <trkpt lat="46.98548" lon="8.78988">
        <ele>920</ele>
        <time>2021-08-04T09:14:08.877Z</time>
      </trkpt>
      <trkpt lat="46.98547" lon="8.78986">
        <ele>921</ele>
        <time>2021-08-04T09:14:09.877Z</time>
      </trkpt>
      <trkpt lat="46.98546" lon="8.78985">
        <ele>921</ele>
        <time>2021-08-04T09:14:10.877Z</time>
      </trkpt>
      <trkpt lat="46.98545" lon="8.78982">
        <ele>922</ele>
        <time>2021-08-04T09:14:11.877Z</time>
      </trkpt>
      <trkpt lat="46.98544" lon="8.7898">
        <ele>922</ele>
        <time>2021-08-04T09:14:12.877Z</time>
      </trkpt>
      <trkpt lat="46.98543" lon="8.78979">
        <ele>922</ele>
        <time>2021-08-04T09:14:13.877Z</time>
      </trkpt>
      <trkpt lat="46.98542" lon="8.78979">
        <ele>921</ele>
        <time>2021-08-04T09:14:14.877Z</time>
      </trkpt>
      <trkpt lat="46.98541" lon="8.78977">
        <ele>920</ele>
        <time>2021-08-04T09:14:15.878Z</time>
      </trkpt>
      <trkpt lat="46.98539" lon="8.78975">
        <ele>919</ele>
        <time>2021-08-04T09:14:16.878Z</time>
      </trkpt>
      <trkpt lat="46.98538" lon="8.78973">
        <ele>919</ele>
        <time>2021-08-04T09:14:17.878Z</time>
      </trkpt>
      <trkpt lat="46.98537" lon="8.78972">
        <ele>918</ele>
        <time>2021-08-04T09:14:18.878Z</time>
      </trkpt>
      <trkpt lat="46.98537" lon="8.7897">
        <ele>918</ele>
        <time>2021-08-04T09:14:19.878Z</time>
      </trkpt>
      <trkpt lat="46.98536" lon="8.78968">
        <ele>917</ele>
        <time>2021-08-04T09:14:20.878Z</time>
      </trkpt>
      <trkpt lat="46.98535" lon="8.78967">
        <ele>917</ele>
        <time>2021-08-04T09:14:21.878Z</time>
      </trkpt>
      <trkpt lat="46.98534" lon="8.78966">
        <ele>917</ele>
        <time>2021-08-04T09:14:22.878Z</time>
      </trkpt>
      <trkpt lat="46.98533" lon="8.78965">
        <ele>916</ele>
        <time>2021-08-04T09:14:23.877Z</time>
      </trkpt>
      <trkpt lat="46.98532" lon="8.78964">
        <ele>916</ele>
        <time>2021-08-04T09:14:24.878Z</time>
      </trkpt>
      <trkpt lat="46.98531" lon="8.78963">
        <ele>915</ele>
        <time>2021-08-04T09:14:25.878Z</time>
      </trkpt>
      <trkpt lat="46.9853" lon="8.78962">
        <ele>915</ele>
        <time>2021-08-04T09:14:26.878Z</time>
      </trkpt>
      <trkpt lat="46.98529" lon="8.7896">
        <ele>915</ele>
        <time>2021-08-04T09:14:27.878Z</time>
      </trkpt>
      <trkpt lat="46.98528" lon="8.78959">
        <ele>914</ele>
        <time>2021-08-04T09:14:28.878Z</time>
      </trkpt>
      <trkpt lat="46.98527" lon="8.78957">
        <ele>914</ele>
        <time>2021-08-04T09:14:29.878Z</time>
      </trkpt>
      <trkpt lat="46.98526" lon="8.78956">
        <ele>914</ele>
        <time>2021-08-04T09:14:30.877Z</time>
      </trkpt>
      <trkpt lat="46.98525" lon="8.78955">
        <ele>915</ele>
        <time>2021-08-04T09:14:31.877Z</time>
      </trkpt>
      <trkpt lat="46.98523" lon="8.78954">
        <ele>915</ele>
        <time>2021-08-04T09:14:32.878Z</time>
      </trkpt>
      <trkpt lat="46.98523" lon="8.78952">
        <ele>915</ele>
        <time>2021-08-04T09:14:33.878Z</time>
      </trkpt>
      <trkpt lat="46.98522" lon="8.78951">
        <ele>915</ele>
        <time>2021-08-04T09:14:34.878Z</time>
      </trkpt>
      <trkpt lat="46.98521" lon="8.7895">
        <ele>915</ele>
        <time>2021-08-04T09:14:35.877Z</time>
      </trkpt>
      <trkpt lat="46.9852" lon="8.78949">
        <ele>915</ele>
        <time>2021-08-04T09:14:36.878Z</time>
      </trkpt>
      <trkpt lat="46.98519" lon="8.78948">
        <ele>914</ele>
        <time>2021-08-04T09:14:37.877Z</time>
      </trkpt>
      <trkpt lat="46.98519" lon="8.78947">
        <ele>913</ele>
        <time>2021-08-04T09:14:38.877Z</time>
      </trkpt>
      <trkpt lat="46.98518" lon="8.78946">
        <ele>912</ele>
        <time>2021-08-04T09:14:39.878Z</time>
      </trkpt>
      <trkpt lat="46.98517" lon="8.78945">
        <ele>911</ele>
        <time>2021-08-04T09:14:40.878Z</time>
      </trkpt>
      <trkpt lat="46.98515" lon="8.78944">
        <ele>910</ele>
        <time>2021-08-04T09:14:41.877Z</time>
      </trkpt>
      <trkpt lat="46.98515" lon="8.78942">
        <ele>909</ele>
        <time>2021-08-04T09:14:42.878Z</time>
      </trkpt>
      <trkpt lat="46.98514" lon="8.7894">
        <ele>909</ele>
        <time>2021-08-04T09:14:43.877Z</time>
      </trkpt>
      <trkpt lat="46.98513" lon="8.78939">
        <ele>908</ele>
        <time>2021-08-04T09:14:44.878Z</time>
      </trkpt>
      <trkpt lat="46.98512" lon="8.78937">
        <ele>908</ele>
        <time>2021-08-04T09:14:45.878Z</time>
      </trkpt>
      <trkpt lat="46.98511" lon="8.78935">
        <ele>908</ele>
        <time>2021-08-04T09:14:46.878Z</time>
      </trkpt>
      <trkpt lat="46.9851" lon="8.78933">
        <ele>908</ele>
        <time>2021-08-04T09:14:47.877Z</time>
      </trkpt>
      <trkpt lat="46.98509" lon="8.78932">
        <ele>908</ele>
        <time>2021-08-04T09:14:48.878Z</time>
      </trkpt>
      <trkpt lat="46.98509" lon="8.78931">
        <ele>908</ele>
        <time>2021-08-04T09:14:49.877Z</time>
      </trkpt>
      <trkpt lat="46.98508" lon="8.78929">
        <ele>908</ele>
        <time>2021-08-04T09:14:50.877Z</time>
      </trkpt>
      <trkpt lat="46.98507" lon="8.78928">
        <ele>908</ele>
        <time>2021-08-04T09:14:51.878Z</time>
      </trkpt>
      <trkpt lat="46.98506" lon="8.78927">
        <ele>908</ele>
        <time>2021-08-04T09:14:52.878Z</time>
      </trkpt>
      <trkpt lat="46.98506" lon="8.78926">
        <ele>907</ele>
        <time>2021-08-04T09:14:53.878Z</time>
      </trkpt>
      <trkpt lat="46.98505" lon="8.78926">
        <ele>907</ele>
        <time>2021-08-04T09:14:54.878Z</time>
      </trkpt>
      <trkpt lat="46.98504" lon="8.78925">
        <ele>907</ele>
        <time>2021-08-04T09:14:55.877Z</time>
      </trkpt>
      <trkpt lat="46.98503" lon="8.78923">
        <ele>907</ele>
        <time>2021-08-04T09:14:56.877Z</time>
      </trkpt>
      <trkpt lat="46.98502" lon="8.78922">
        <ele>907</ele>
        <time>2021-08-04T09:14:57.877Z</time>
      </trkpt>
      <trkpt lat="46.98502" lon="8.78921">
        <ele>907</ele>
        <time>2021-08-04T09:14:58.878Z</time>
      </trkpt>
      <trkpt lat="46.98501" lon="8.7892">
        <ele>907</ele>
        <time>2021-08-04T09:14:59.878Z</time>
      </trkpt>
      <trkpt lat="46.985" lon="8.78918">
        <ele>907</ele>
        <time>2021-08-04T09:15:00.878Z</time>
      </trkpt>
      <trkpt lat="46.98498" lon="8.78916">
        <ele>907</ele>
        <time>2021-08-04T09:15:01.877Z</time>
      </trkpt>
      <trkpt lat="46.98498" lon="8.78915">
        <ele>907</ele>
        <time>2021-08-04T09:15:02.877Z</time>
      </trkpt>
      <trkpt lat="46.98497" lon="8.78914">
        <ele>906</ele>
        <time>2021-08-04T09:15:03.877Z</time>
      </trkpt>
      <trkpt lat="46.98496" lon="8.78913">
        <ele>906</ele>
        <time>2021-08-04T09:15:04.878Z</time>
      </trkpt>
      <trkpt lat="46.98494" lon="8.78912">
        <ele>906</ele>
        <time>2021-08-04T09:15:05.877Z</time>
      </trkpt>
      <trkpt lat="46.98494" lon="8.78911">
        <ele>906</ele>
        <time>2021-08-04T09:15:06.878Z</time>
      </trkpt>
      <trkpt lat="46.98493" lon="8.7891">
        <ele>906</ele>
        <time>2021-08-04T09:15:07.878Z</time>
      </trkpt>
      <trkpt lat="46.98492" lon="8.78909">
        <ele>906</ele>
        <time>2021-08-04T09:15:08.878Z</time>
      </trkpt>
      <trkpt lat="46.98492" lon="8.78908">
        <ele>906</ele>
        <time>2021-08-04T09:15:09.878Z</time>
      </trkpt>
      <trkpt lat="46.9849" lon="8.78907">
        <ele>906</ele>
        <time>2021-08-04T09:15:10.878Z</time>
      </trkpt>
      <trkpt lat="46.98489" lon="8.78906">
        <ele>906</ele>
        <time>2021-08-04T09:15:11.877Z</time>
      </trkpt>
      <trkpt lat="46.98488" lon="8.78905">
        <ele>906</ele>
        <time>2021-08-04T09:15:12.877Z</time>
      </trkpt>
      <trkpt lat="46.98487" lon="8.78904">
        <ele>906</ele>
        <time>2021-08-04T09:15:13.878Z</time>
      </trkpt>
      <trkpt lat="46.98487" lon="8.78904">
        <ele>906</ele>
        <time>2021-08-04T09:15:14.878Z</time>
      </trkpt>
      <trkpt lat="46.98486" lon="8.78903">
        <ele>906</ele>
        <time>2021-08-04T09:15:15.877Z</time>
      </trkpt>
      <trkpt lat="46.98485" lon="8.78902">
        <ele>905</ele>
        <time>2021-08-04T09:15:16.877Z</time>
      </trkpt>
      <trkpt lat="46.98484" lon="8.78901">
        <ele>905</ele>
        <time>2021-08-04T09:15:17.877Z</time>
      </trkpt>
      <trkpt lat="46.98483" lon="8.789">
        <ele>905</ele>
        <time>2021-08-04T09:15:18.877Z</time>
      </trkpt>
      <trkpt lat="46.98481" lon="8.78899">
        <ele>905</ele>
        <time>2021-08-04T09:15:19.878Z</time>
      </trkpt>
      <trkpt lat="46.9848" lon="8.78898">
        <ele>905</ele>
        <time>2021-08-04T09:15:20.878Z</time>
      </trkpt>
      <trkpt lat="46.98479" lon="8.78897">
        <ele>905</ele>
        <time>2021-08-04T09:15:21.877Z</time>
      </trkpt>
      <trkpt lat="46.98478" lon="8.78896">
        <ele>905</ele>
        <time>2021-08-04T09:15:22.878Z</time>
      </trkpt>
      <trkpt lat="46.98477" lon="8.78896">
        <ele>905</ele>
        <time>2021-08-04T09:15:23.877Z</time>
      </trkpt>
      <trkpt lat="46.98476" lon="8.78895">
        <ele>905</ele>
        <time>2021-08-04T09:15:24.878Z</time>
      </trkpt>
      <trkpt lat="46.98476" lon="8.78895">
        <ele>904</ele>
        <time>2021-08-04T09:15:25.878Z</time>
      </trkpt>
      <trkpt lat="46.98475" lon="8.78894">
        <ele>904</ele>
        <time>2021-08-04T09:15:26.877Z</time>
      </trkpt>
      <trkpt lat="46.98475" lon="8.78893">
        <ele>903</ele>
        <time>2021-08-04T09:15:27.878Z</time>
      </trkpt>
      <trkpt lat="46.98474" lon="8.78893">
        <ele>903</ele>
        <time>2021-08-04T09:15:28.877Z</time>
      </trkpt>
      <trkpt lat="46.98473" lon="8.78892">
        <ele>902</ele>
        <time>2021-08-04T09:15:29.878Z</time>
      </trkpt>
      <trkpt lat="46.98472" lon="8.78892">
        <ele>901</ele>
        <time>2021-08-04T09:15:30.878Z</time>
      </trkpt>
      <trkpt lat="46.98471" lon="8.78891">
        <ele>901</ele>
        <time>2021-08-04T09:15:31.877Z</time>
      </trkpt>
      <trkpt lat="46.9847" lon="8.78891">
        <ele>901</ele>
        <time>2021-08-04T09:15:32.878Z</time>
      </trkpt>
      <trkpt lat="46.98468" lon="8.78891">
        <ele>900</ele>
        <time>2021-08-04T09:15:33.877Z</time>
      </trkpt>
      <trkpt lat="46.98467" lon="8.7889">
        <ele>900</ele>
        <time>2021-08-04T09:15:34.878Z</time>
      </trkpt>
      <trkpt lat="46.98465" lon="8.7889">
        <ele>900</ele>
        <time>2021-08-04T09:15:35.878Z</time>
      </trkpt>
      <trkpt lat="46.98464" lon="8.7889">
        <ele>900</ele>
        <time>2021-08-04T09:15:36.877Z</time>
      </trkpt>
      <trkpt lat="46.98463" lon="8.78889">
        <ele>900</ele>
        <time>2021-08-04T09:15:37.877Z</time>
      </trkpt>
      <trkpt lat="46.98462" lon="8.78888">
        <ele>901</ele>
        <time>2021-08-04T09:15:38.878Z</time>
      </trkpt>
      <trkpt lat="46.98461" lon="8.78887">
        <ele>901</ele>
        <time>2021-08-04T09:15:39.878Z</time>
      </trkpt>
      <trkpt lat="46.9846" lon="8.78886">
        <ele>901</ele>
        <time>2021-08-04T09:15:40.878Z</time>
      </trkpt>
      <trkpt lat="46.98459" lon="8.78885">
        <ele>901</ele>
        <time>2021-08-04T09:15:41.877Z</time>
      </trkpt>
      <trkpt lat="46.98458" lon="8.78885">
        <ele>902</ele>
        <time>2021-08-04T09:15:42.878Z</time>
      </trkpt>
      <trkpt lat="46.98458" lon="8.78884">
        <ele>902</ele>
        <time>2021-08-04T09:15:43.878Z</time>
      </trkpt>
      <trkpt lat="46.98457" lon="8.78884">
        <ele>902</ele>
        <time>2021-08-04T09:15:44.877Z</time>
      </trkpt>
      <trkpt lat="46.98456" lon="8.78883">
        <ele>902</ele>
        <time>2021-08-04T09:15:45.877Z</time>
      </trkpt>
      <trkpt lat="46.98455" lon="8.78883">
        <ele>902</ele>
        <time>2021-08-04T09:15:46.877Z</time>
      </trkpt>
      <trkpt lat="46.98454" lon="8.78883">
        <ele>903</ele>
        <time>2021-08-04T09:15:47.878Z</time>
      </trkpt>
      <trkpt lat="46.98454" lon="8.78883">
        <ele>903</ele>
        <time>2021-08-04T09:15:48.878Z</time>
      </trkpt>
      <trkpt lat="46.98453" lon="8.78882">
        <ele>903</ele>
        <time>2021-08-04T09:15:49.878Z</time>
      </trkpt>
      <trkpt lat="46.98458" lon="8.7888">
        <ele>903</ele>
        <time>2021-08-04T09:15:50.879Z</time>
      </trkpt>
      <trkpt lat="46.98458" lon="8.7888">
        <ele>901</ele>
        <time>2021-08-04T09:15:51.879Z</time>
      </trkpt>
      <trkpt lat="46.98462" lon="8.78881">
        <ele>892</ele>
        <time>2021-08-04T09:15:52.878Z</time>
      </trkpt>
      <trkpt lat="46.98462" lon="8.78881">
        <ele>892</ele>
        <time>2021-08-04T09:15:53.878Z</time>
      </trkpt>
      <trkpt lat="46.98462" lon="8.78881">
        <ele>891</ele>
        <time>2021-08-04T09:15:54.878Z</time>
      </trkpt>
      <trkpt lat="46.98462" lon="8.78881">
        <ele>890</ele>
        <time>2021-08-04T09:15:55.879Z</time>
      </trkpt>
      <trkpt lat="46.98462" lon="8.78881">
        <ele>888</ele>
        <time>2021-08-04T09:15:56.879Z</time>
      </trkpt>
      <trkpt lat="46.98462" lon="8.78881">
        <ele>888</ele>
        <time>2021-08-04T09:15:57.879Z</time>
      </trkpt>
      <trkpt lat="46.98461" lon="8.78877">
        <ele>890</ele>
        <time>2021-08-04T09:15:58.880Z</time>
      </trkpt>
      <trkpt lat="46.9846" lon="8.78877">
        <ele>890</ele>
        <time>2021-08-04T09:15:59.880Z</time>
      </trkpt>
      <trkpt lat="46.9846" lon="8.78877">
        <ele>891</ele>
        <time>2021-08-04T09:16:00.881Z</time>
      </trkpt>
      <trkpt lat="46.98459" lon="8.78876">
        <ele>891</ele>
        <time>2021-08-04T09:16:01.880Z</time>
      </trkpt>
      <trkpt lat="46.98459" lon="8.78876">
        <ele>892</ele>
        <time>2021-08-04T09:16:02.880Z</time>
      </trkpt>
      <trkpt lat="46.98459" lon="8.78875">
        <ele>893</ele>
        <time>2021-08-04T09:16:03.880Z</time>
      </trkpt>
      <trkpt lat="46.98464" lon="8.78875">
        <ele>886</ele>
        <time>2021-08-04T09:16:04.881Z</time>
      </trkpt>
      <trkpt lat="46.98464" lon="8.78875">
        <ele>886</ele>
        <time>2021-08-04T09:16:05.881Z</time>
      </trkpt>
      <trkpt lat="46.98464" lon="8.78875">
        <ele>886</ele>
        <time>2021-08-04T09:16:06.881Z</time>
      </trkpt>
      <trkpt lat="46.98464" lon="8.78874">
        <ele>886</ele>
        <time>2021-08-04T09:16:07.880Z</time>
      </trkpt>
      <trkpt lat="46.98464" lon="8.78874">
        <ele>886</ele>
        <time>2021-08-04T09:16:08.880Z</time>
      </trkpt>
      <trkpt lat="46.98464" lon="8.78874">
        <ele>886</ele>
        <time>2021-08-04T09:16:09.881Z</time>
      </trkpt>
      <trkpt lat="46.98463" lon="8.78874">
        <ele>889</ele>
        <time>2021-08-04T09:16:10.881Z</time>
      </trkpt>
      <trkpt lat="46.98462" lon="8.78873">
        <ele>889</ele>
        <time>2021-08-04T09:16:11.880Z</time>
      </trkpt>
      <trkpt lat="46.98462" lon="8.78873">
        <ele>890</ele>
        <time>2021-08-04T09:16:12.880Z</time>
      </trkpt>
      <trkpt lat="46.98462" lon="8.78873">
        <ele>890</ele>
        <time>2021-08-04T09:16:13.880Z</time>
      </trkpt>
      <trkpt lat="46.98463" lon="8.78875">
        <ele>896</ele>
        <time>2021-08-04T09:16:14.881Z</time>
      </trkpt>
      <trkpt lat="46.98463" lon="8.78875">
        <ele>896</ele>
        <time>2021-08-04T09:16:15.882Z</time>
      </trkpt>
      <trkpt lat="46.98463" lon="8.78874">
        <ele>895</ele>
        <time>2021-08-04T09:16:16.881Z</time>
      </trkpt>
      <trkpt lat="46.98463" lon="8.78873">
        <ele>895</ele>
        <time>2021-08-04T09:16:17.882Z</time>
      </trkpt>
      <trkpt lat="46.98463" lon="8.78873">
        <ele>895</ele>
        <time>2021-08-04T09:16:18.881Z</time>
      </trkpt>
      <trkpt lat="46.98463" lon="8.78873">
        <ele>895</ele>
        <time>2021-08-04T09:16:19.882Z</time>
      </trkpt>
      <trkpt lat="46.98463" lon="8.78873">
        <ele>895</ele>
        <time>2021-08-04T09:16:20.882Z</time>
      </trkpt>
      <trkpt lat="46.98462" lon="8.78873">
        <ele>896</ele>
        <time>2021-08-04T09:16:21.881Z</time>
      </trkpt>
      <trkpt lat="46.98462" lon="8.78873">
        <ele>896</ele>
        <time>2021-08-04T09:16:22.881Z</time>
      </trkpt>
      <trkpt lat="46.98461" lon="8.78874">
        <ele>896</ele>
        <time>2021-08-04T09:16:23.882Z</time>
      </trkpt>
      <trkpt lat="46.9846" lon="8.78874">
        <ele>897</ele>
        <time>2021-08-04T09:16:24.882Z</time>
      </trkpt>
      <trkpt lat="46.98459" lon="8.78873">
        <ele>898</ele>
        <time>2021-08-04T09:16:25.883Z</time>
      </trkpt>
      <trkpt lat="46.98458" lon="8.78873">
        <ele>898</ele>
        <time>2021-08-04T09:16:26.883Z</time>
      </trkpt>
      <trkpt lat="46.98458" lon="8.78871">
        <ele>899</ele>
        <time>2021-08-04T09:16:27.882Z</time>
      </trkpt>
      <trkpt lat="46.98457" lon="8.78871">
        <ele>899</ele>
        <time>2021-08-04T09:16:28.882Z</time>
      </trkpt>
      <trkpt lat="46.98456" lon="8.7887">
        <ele>899</ele>
        <time>2021-08-04T09:16:29.883Z</time>
      </trkpt>
      <trkpt lat="46.98455" lon="8.78869">
        <ele>900</ele>
        <time>2021-08-04T09:16:30.883Z</time>
      </trkpt>
      <trkpt lat="46.98453" lon="8.78869">
        <ele>900</ele>
        <time>2021-08-04T09:16:31.883Z</time>
      </trkpt>
      <trkpt lat="46.98452" lon="8.78869">
        <ele>900</ele>
        <time>2021-08-04T09:16:32.883Z</time>
      </trkpt>
      <trkpt lat="46.9845" lon="8.78869">
        <ele>900</ele>
        <time>2021-08-04T09:16:33.883Z</time>
      </trkpt>
      <trkpt lat="46.98449" lon="8.7887">
        <ele>901</ele>
        <time>2021-08-04T09:16:34.883Z</time>
      </trkpt>
      <trkpt lat="46.98447" lon="8.78869">
        <ele>901</ele>
        <time>2021-08-04T09:16:35.883Z</time>
      </trkpt>
      <trkpt lat="46.98445" lon="8.78869">
        <ele>902</ele>
        <time>2021-08-04T09:16:36.883Z</time>
      </trkpt>
      <trkpt lat="46.98444" lon="8.78868">
        <ele>902</ele>
        <time>2021-08-04T09:16:37.883Z</time>
      </trkpt>
      <trkpt lat="46.98444" lon="8.78868">
        <ele>903</ele>
        <time>2021-08-04T09:16:38.883Z</time>
      </trkpt>
      <trkpt lat="46.98443" lon="8.78867">
        <ele>904</ele>
        <time>2021-08-04T09:16:39.882Z</time>
      </trkpt>
      <trkpt lat="46.9844" lon="8.78866">
        <ele>904</ele>
        <time>2021-08-04T09:16:40.882Z</time>
      </trkpt>
      <trkpt lat="46.98439" lon="8.78865">
        <ele>905</ele>
        <time>2021-08-04T09:16:41.882Z</time>
      </trkpt>
      <trkpt lat="46.98439" lon="8.78864">
        <ele>905</ele>
        <time>2021-08-04T09:16:42.883Z</time>
      </trkpt>
      <trkpt lat="46.98438" lon="8.78864">
        <ele>906</ele>
        <time>2021-08-04T09:16:43.883Z</time>
      </trkpt>
      <trkpt lat="46.98437" lon="8.78863">
        <ele>906</ele>
        <time>2021-08-04T09:16:44.883Z</time>
      </trkpt>
      <trkpt lat="46.98436" lon="8.78863">
        <ele>906</ele>
        <time>2021-08-04T09:16:45.883Z</time>
      </trkpt>
      <trkpt lat="46.98436" lon="8.78862">
        <ele>906</ele>
        <time>2021-08-04T09:16:46.883Z</time>
      </trkpt>
      <trkpt lat="46.98434" lon="8.78862">
        <ele>906</ele>
        <time>2021-08-04T09:16:47.883Z</time>
      </trkpt>
      <trkpt lat="46.98434" lon="8.78862">
        <ele>907</ele>
        <time>2021-08-04T09:16:48.883Z</time>
      </trkpt>
      <trkpt lat="46.98433" lon="8.78862">
        <ele>907</ele>
        <time>2021-08-04T09:16:49.882Z</time>
      </trkpt>
      <trkpt lat="46.98433" lon="8.78862">
        <ele>907</ele>
        <time>2021-08-04T09:16:50.882Z</time>
      </trkpt>
      <trkpt lat="46.98432" lon="8.78862">
        <ele>907</ele>
        <time>2021-08-04T09:16:51.882Z</time>
      </trkpt>
      <trkpt lat="46.98431" lon="8.78862">
        <ele>908</ele>
        <time>2021-08-04T09:16:52.882Z</time>
      </trkpt>
      <trkpt lat="46.98431" lon="8.78862">
        <ele>908</ele>
        <time>2021-08-04T09:16:53.882Z</time>
      </trkpt>
      <trkpt lat="46.9843" lon="8.78863">
        <ele>908</ele>
        <time>2021-08-04T09:16:54.882Z</time>
      </trkpt>
      <trkpt lat="46.98428" lon="8.78863">
        <ele>908</ele>
        <time>2021-08-04T09:16:55.883Z</time>
      </trkpt>
      <trkpt lat="46.98427" lon="8.78862">
        <ele>908</ele>
        <time>2021-08-04T09:16:56.882Z</time>
      </trkpt>
      <trkpt lat="46.98426" lon="8.78862">
        <ele>907</ele>
        <time>2021-08-04T09:16:57.883Z</time>
      </trkpt>
      <trkpt lat="46.98425" lon="8.78862">
        <ele>907</ele>
        <time>2021-08-04T09:16:58.883Z</time>
      </trkpt>
      <trkpt lat="46.98423" lon="8.78863">
        <ele>906</ele>
        <time>2021-08-04T09:16:59.882Z</time>
      </trkpt>
      <trkpt lat="46.98422" lon="8.78862">
        <ele>906</ele>
        <time>2021-08-04T09:17:00.883Z</time>
      </trkpt>
      <trkpt lat="46.98421" lon="8.78863">
        <ele>905</ele>
        <time>2021-08-04T09:17:01.882Z</time>
      </trkpt>
      <trkpt lat="46.98419" lon="8.78862">
        <ele>905</ele>
        <time>2021-08-04T09:17:02.883Z</time>
      </trkpt>
      <trkpt lat="46.98418" lon="8.78863">
        <ele>905</ele>
        <time>2021-08-04T09:17:03.882Z</time>
      </trkpt>
      <trkpt lat="46.98417" lon="8.78863">
        <ele>904</ele>
        <time>2021-08-04T09:17:04.882Z</time>
      </trkpt>
      <trkpt lat="46.98417" lon="8.78863">
        <ele>904</ele>
        <time>2021-08-04T09:17:05.882Z</time>
      </trkpt>
      <trkpt lat="46.98416" lon="8.78864">
        <ele>905</ele>
        <time>2021-08-04T09:17:06.883Z</time>
      </trkpt>
      <trkpt lat="46.98415" lon="8.78864">
        <ele>905</ele>
        <time>2021-08-04T09:17:07.882Z</time>
      </trkpt>
      <trkpt lat="46.98415" lon="8.78863">
        <ele>905</ele>
        <time>2021-08-04T09:17:08.882Z</time>
      </trkpt>
      <trkpt lat="46.98414" lon="8.78862">
        <ele>905</ele>
        <time>2021-08-04T09:17:09.882Z</time>
      </trkpt>
      <trkpt lat="46.98413" lon="8.78862">
        <ele>905</ele>
        <time>2021-08-04T09:17:10.882Z</time>
      </trkpt>
      <trkpt lat="46.98412" lon="8.78862">
        <ele>905</ele>
        <time>2021-08-04T09:17:11.882Z</time>
      </trkpt>
      <trkpt lat="46.98411" lon="8.78863">
        <ele>905</ele>
        <time>2021-08-04T09:17:12.882Z</time>
      </trkpt>
      <trkpt lat="46.98411" lon="8.78863">
        <ele>906</ele>
        <time>2021-08-04T09:17:13.882Z</time>
      </trkpt>
      <trkpt lat="46.9841" lon="8.78864">
        <ele>906</ele>
        <time>2021-08-04T09:17:14.882Z</time>
      </trkpt>
      <trkpt lat="46.9841" lon="8.78864">
        <ele>906</ele>
        <time>2021-08-04T09:17:15.882Z</time>
      </trkpt>
      <trkpt lat="46.9841" lon="8.78865">
        <ele>905</ele>
        <time>2021-08-04T09:17:16.883Z</time>
      </trkpt>
      <trkpt lat="46.98409" lon="8.78864">
        <ele>905</ele>
        <time>2021-08-04T09:17:17.883Z</time>
      </trkpt>
      <trkpt lat="46.98409" lon="8.78864">
        <ele>905</ele>
        <time>2021-08-04T09:17:18.882Z</time>
      </trkpt>
      <trkpt lat="46.98409" lon="8.78864">
        <ele>905</ele>
        <time>2021-08-04T09:17:19.882Z</time>
      </trkpt>
      <trkpt lat="46.98408" lon="8.78865">
        <ele>905</ele>
        <time>2021-08-04T09:17:20.882Z</time>
      </trkpt>
      <trkpt lat="46.98408" lon="8.78865">
        <ele>904</ele>
        <time>2021-08-04T09:17:21.883Z</time>
      </trkpt>
      <trkpt lat="46.98407" lon="8.78866">
        <ele>904</ele>
        <time>2021-08-04T09:17:22.882Z</time>
      </trkpt>
      <trkpt lat="46.98407" lon="8.78866">
        <ele>904</ele>
        <time>2021-08-04T09:17:23.882Z</time>
      </trkpt>
      <trkpt lat="46.98406" lon="8.78866">
        <ele>903</ele>
        <time>2021-08-04T09:17:24.882Z</time>
      </trkpt>
      <trkpt lat="46.98406" lon="8.78867">
        <ele>903</ele>
        <time>2021-08-04T09:17:25.882Z</time>
      </trkpt>
      <trkpt lat="46.98406" lon="8.78868">
        <ele>902</ele>
        <time>2021-08-04T09:17:26.883Z</time>
      </trkpt>
      <trkpt lat="46.98405" lon="8.78868">
        <ele>902</ele>
        <time>2021-08-04T09:17:27.882Z</time>
      </trkpt>
      <trkpt lat="46.98404" lon="8.78869">
        <ele>902</ele>
        <time>2021-08-04T09:17:28.882Z</time>
      </trkpt>
      <trkpt lat="46.98404" lon="8.78869">
        <ele>902</ele>
        <time>2021-08-04T09:17:29.883Z</time>
      </trkpt>
      <trkpt lat="46.98403" lon="8.78869">
        <ele>902</ele>
        <time>2021-08-04T09:17:30.882Z</time>
      </trkpt>
      <trkpt lat="46.98402" lon="8.7887">
        <ele>902</ele>
        <time>2021-08-04T09:17:31.882Z</time>
      </trkpt>
      <trkpt lat="46.98402" lon="8.7887">
        <ele>901</ele>
        <time>2021-08-04T09:17:32.882Z</time>
      </trkpt>
      <trkpt lat="46.98402" lon="8.78871">
        <ele>901</ele>
        <time>2021-08-04T09:17:33.882Z</time>
      </trkpt>
      <trkpt lat="46.98401" lon="8.78871">
        <ele>901</ele>
        <time>2021-08-04T09:17:34.882Z</time>
      </trkpt>
      <trkpt lat="46.98401" lon="8.78872">
        <ele>900</ele>
        <time>2021-08-04T09:17:35.883Z</time>
      </trkpt>
      <trkpt lat="46.984" lon="8.78873">
        <ele>900</ele>
        <time>2021-08-04T09:17:36.883Z</time>
      </trkpt>
      <trkpt lat="46.984" lon="8.78873">
        <ele>900</ele>
        <time>2021-08-04T09:17:37.883Z</time>
      </trkpt>
      <trkpt lat="46.98399" lon="8.78874">
        <ele>899</ele>
        <time>2021-08-04T09:17:38.882Z</time>
      </trkpt>
      <trkpt lat="46.98399" lon="8.78875">
        <ele>899</ele>
        <time>2021-08-04T09:17:39.882Z</time>
      </trkpt>
      <trkpt lat="46.98397" lon="8.78876">
        <ele>898</ele>
        <time>2021-08-04T09:17:40.882Z</time>
      </trkpt>
      <trkpt lat="46.98397" lon="8.78876">
        <ele>897</ele>
        <time>2021-08-04T09:17:41.882Z</time>
      </trkpt>
      <trkpt lat="46.98397" lon="8.78876">
        <ele>897</ele>
        <time>2021-08-04T09:17:42.883Z</time>
      </trkpt>
      <trkpt lat="46.98397" lon="8.78877">
        <ele>896</ele>
        <time>2021-08-04T09:17:43.883Z</time>
      </trkpt>
      <trkpt lat="46.98397" lon="8.78877">
        <ele>895</ele>
        <time>2021-08-04T09:17:44.883Z</time>
      </trkpt>
      <trkpt lat="46.98396" lon="8.78877">
        <ele>894</ele>
        <time>2021-08-04T09:17:45.882Z</time>
      </trkpt>
      <trkpt lat="46.98396" lon="8.78878">
        <ele>894</ele>
        <time>2021-08-04T09:17:46.883Z</time>
      </trkpt>
      <trkpt lat="46.98396" lon="8.78878">
        <ele>893</ele>
        <time>2021-08-04T09:17:47.883Z</time>
      </trkpt>
      <trkpt lat="46.98396" lon="8.78879">
        <ele>892</ele>
        <time>2021-08-04T09:17:48.883Z</time>
      </trkpt>
      <trkpt lat="46.98396" lon="8.78879">
        <ele>892</ele>
        <time>2021-08-04T09:17:49.883Z</time>
      </trkpt>
      <trkpt lat="46.98395" lon="8.7888">
        <ele>891</ele>
        <time>2021-08-04T09:17:50.883Z</time>
      </trkpt>
      <trkpt lat="46.98395" lon="8.78881">
        <ele>891</ele>
        <time>2021-08-04T09:17:51.882Z</time>
      </trkpt>
      <trkpt lat="46.98396" lon="8.78881">
        <ele>891</ele>
        <time>2021-08-04T09:17:52.882Z</time>
      </trkpt>
      <trkpt lat="46.98396" lon="8.78881">
        <ele>890</ele>
        <time>2021-08-04T09:17:53.883Z</time>
      </trkpt>
      <trkpt lat="46.98397" lon="8.78882">
        <ele>889</ele>
        <time>2021-08-04T09:17:54.883Z</time>
      </trkpt>
      <trkpt lat="46.98397" lon="8.78882">
        <ele>889</ele>
        <time>2021-08-04T09:17:55.883Z</time>
      </trkpt>
      <trkpt lat="46.98397" lon="8.78882">
        <ele>888</ele>
        <time>2021-08-04T09:17:56.882Z</time>
      </trkpt>
      <trkpt lat="46.98397" lon="8.78883">
        <ele>887</ele>
        <time>2021-08-04T09:17:57.883Z</time>
      </trkpt>
      <trkpt lat="46.98396" lon="8.78884">
        <ele>887</ele>
        <time>2021-08-04T09:17:58.882Z</time>
      </trkpt>
      <trkpt lat="46.98396" lon="8.78884">
        <ele>886</ele>
        <time>2021-08-04T09:17:59.883Z</time>
      </trkpt>
      <trkpt lat="46.98396" lon="8.78884">
        <ele>885</ele>
        <time>2021-08-04T09:18:00.882Z</time>
      </trkpt>
      <trkpt lat="46.98396" lon="8.78884">
        <ele>885</ele>
        <time>2021-08-04T09:18:01.882Z</time>
      </trkpt>
      <trkpt lat="46.98395" lon="8.78884">
        <ele>885</ele>
        <time>2021-08-04T09:18:02.882Z</time>
      </trkpt>
      <trkpt lat="46.98392" lon="8.78883">
        <ele>886</ele>
        <time>2021-08-04T09:18:03.882Z</time>
      </trkpt>
      <trkpt lat="46.98391" lon="8.78885">
        <ele>886</ele>
        <time>2021-08-04T09:18:04.882Z</time>
      </trkpt>
      <trkpt lat="46.98392" lon="8.78886">
        <ele>886</ele>
        <time>2021-08-04T09:18:05.882Z</time>
      </trkpt>
      <trkpt lat="46.98391" lon="8.78886">
        <ele>886</ele>
        <time>2021-08-04T09:18:06.882Z</time>
      </trkpt>
      <trkpt lat="46.98386" lon="8.78881">
        <ele>886</ele>
        <time>2021-08-04T09:18:07.884Z</time>
      </trkpt>
      <trkpt lat="46.98386" lon="8.78881">
        <ele>886</ele>
        <time>2021-08-04T09:18:08.883Z</time>
      </trkpt>
      <trkpt lat="46.98385" lon="8.78881">
        <ele>886</ele>
        <time>2021-08-04T09:18:09.884Z</time>
      </trkpt>
      <trkpt lat="46.98385" lon="8.78881">
        <ele>883</ele>
        <time>2021-08-04T09:18:10.884Z</time>
      </trkpt>
      <trkpt lat="46.98385" lon="8.7888">
        <ele>882</ele>
        <time>2021-08-04T09:18:11.884Z</time>
      </trkpt>
      <trkpt lat="46.98382" lon="8.78883">
        <ele>881</ele>
        <time>2021-08-04T09:18:12.885Z</time>
      </trkpt>
      <trkpt lat="46.98381" lon="8.78884">
        <ele>880</ele>
        <time>2021-08-04T09:18:13.885Z</time>
      </trkpt>
      <trkpt lat="46.98381" lon="8.78885">
        <ele>879</ele>
        <time>2021-08-04T09:18:14.885Z</time>
      </trkpt>
      <trkpt lat="46.9838" lon="8.78886">
        <ele>878</ele>
        <time>2021-08-04T09:18:15.885Z</time>
      </trkpt>
      <trkpt lat="46.98379" lon="8.78886">
        <ele>878</ele>
        <time>2021-08-04T09:18:16.885Z</time>
      </trkpt>
      <trkpt lat="46.98379" lon="8.78887">
        <ele>878</ele>
        <time>2021-08-04T09:18:17.885Z</time>
      </trkpt>
      <trkpt lat="46.98379" lon="8.78887">
        <ele>877</ele>
        <time>2021-08-04T09:18:18.885Z</time>
      </trkpt>
      <trkpt lat="46.98379" lon="8.78887">
        <ele>877</ele>
        <time>2021-08-04T09:18:19.885Z</time>
      </trkpt>
      <trkpt lat="46.98377" lon="8.78886">
        <ele>876</ele>
        <time>2021-08-04T09:18:20.884Z</time>
      </trkpt>
      <trkpt lat="46.98376" lon="8.78886">
        <ele>876</ele>
        <time>2021-08-04T09:18:21.884Z</time>
      </trkpt>
      <trkpt lat="46.98377" lon="8.78886">
        <ele>876</ele>
        <time>2021-08-04T09:18:22.885Z</time>
      </trkpt>
      <trkpt lat="46.98377" lon="8.78886">
        <ele>875</ele>
        <time>2021-08-04T09:18:23.884Z</time>
      </trkpt>
      <trkpt lat="46.98377" lon="8.78885">
        <ele>875</ele>
        <time>2021-08-04T09:18:24.885Z</time>
      </trkpt>
      <trkpt lat="46.98377" lon="8.78884">
        <ele>875</ele>
        <time>2021-08-04T09:18:25.885Z</time>
      </trkpt>
      <trkpt lat="46.98377" lon="8.78884">
        <ele>874</ele>
        <time>2021-08-04T09:18:26.885Z</time>
      </trkpt>
      <trkpt lat="46.98377" lon="8.78883">
        <ele>874</ele>
        <time>2021-08-04T09:18:27.885Z</time>
      </trkpt>
      <trkpt lat="46.98377" lon="8.78882">
        <ele>873</ele>
        <time>2021-08-04T09:18:28.885Z</time>
      </trkpt>
      <trkpt lat="46.98377" lon="8.78882">
        <ele>873</ele>
        <time>2021-08-04T09:18:29.885Z</time>
      </trkpt>
      <trkpt lat="46.98376" lon="8.78882">
        <ele>872</ele>
        <time>2021-08-04T09:18:30.885Z</time>
      </trkpt>
      <trkpt lat="46.98376" lon="8.78882">
        <ele>872</ele>
        <time>2021-08-04T09:18:31.884Z</time>
      </trkpt>
      <trkpt lat="46.98376" lon="8.78883">
        <ele>872</ele>
        <time>2021-08-04T09:18:32.885Z</time>
      </trkpt>
      <trkpt lat="46.98375" lon="8.78883">
        <ele>872</ele>
        <time>2021-08-04T09:18:33.884Z</time>
      </trkpt>
      <trkpt lat="46.98375" lon="8.78884">
        <ele>872</ele>
        <time>2021-08-04T09:18:34.885Z</time>
      </trkpt>
      <trkpt lat="46.98375" lon="8.78885">
        <ele>872</ele>
        <time>2021-08-04T09:18:35.884Z</time>
      </trkpt>
      <trkpt lat="46.98374" lon="8.78886">
        <ele>873</ele>
        <time>2021-08-04T09:18:36.884Z</time>
      </trkpt>
      <trkpt lat="46.98373" lon="8.78887">
        <ele>873</ele>
        <time>2021-08-04T09:18:37.884Z</time>
      </trkpt>
      <trkpt lat="46.98372" lon="8.78888">
        <ele>874</ele>
        <time>2021-08-04T09:18:38.884Z</time>
      </trkpt>
      <trkpt lat="46.98371" lon="8.78888">
        <ele>874</ele>
        <time>2021-08-04T09:18:39.885Z</time>
      </trkpt>
      <trkpt lat="46.9837" lon="8.78889">
        <ele>875</ele>
        <time>2021-08-04T09:18:40.885Z</time>
      </trkpt>
      <trkpt lat="46.98369" lon="8.78888">
        <ele>876</ele>
        <time>2021-08-04T09:18:41.884Z</time>
      </trkpt>
      <trkpt lat="46.98368" lon="8.78888">
        <ele>876</ele>
        <time>2021-08-04T09:18:42.885Z</time>
      </trkpt>
      <trkpt lat="46.98366" lon="8.78888">
        <ele>877</ele>
        <time>2021-08-04T09:18:43.884Z</time>
      </trkpt>
      <trkpt lat="46.98365" lon="8.78887">
        <ele>878</ele>
        <time>2021-08-04T09:18:44.885Z</time>
      </trkpt>
      <trkpt lat="46.98364" lon="8.78888">
        <ele>878</ele>
        <time>2021-08-04T09:18:45.885Z</time>
      </trkpt>
      <trkpt lat="46.98363" lon="8.78889">
        <ele>878</ele>
        <time>2021-08-04T09:18:46.884Z</time>
      </trkpt>
      <trkpt lat="46.98362" lon="8.7889">
        <ele>878</ele>
        <time>2021-08-04T09:18:47.884Z</time>
      </trkpt>
      <trkpt lat="46.98362" lon="8.78891">
        <ele>878</ele>
        <time>2021-08-04T09:18:48.885Z</time>
      </trkpt>
      <trkpt lat="46.98361" lon="8.78891">
        <ele>878</ele>
        <time>2021-08-04T09:18:49.884Z</time>
      </trkpt>
      <trkpt lat="46.98361" lon="8.78892">
        <ele>877</ele>
        <time>2021-08-04T09:18:50.884Z</time>
      </trkpt>
      <trkpt lat="46.9836" lon="8.78893">
        <ele>877</ele>
        <time>2021-08-04T09:18:51.885Z</time>
      </trkpt>
      <trkpt lat="46.98359" lon="8.78893">
        <ele>877</ele>
        <time>2021-08-04T09:18:52.885Z</time>
      </trkpt>
      <trkpt lat="46.98359" lon="8.78893">
        <ele>877</ele>
        <time>2021-08-04T09:18:53.885Z</time>
      </trkpt>
      <trkpt lat="46.98358" lon="8.78893">
        <ele>877</ele>
        <time>2021-08-04T09:18:54.885Z</time>
      </trkpt>
      <trkpt lat="46.98357" lon="8.78892">
        <ele>877</ele>
        <time>2021-08-04T09:18:55.885Z</time>
      </trkpt>
      <trkpt lat="46.98356" lon="8.78892">
        <ele>877</ele>
        <time>2021-08-04T09:18:56.885Z</time>
      </trkpt>
      <trkpt lat="46.98355" lon="8.78892">
        <ele>877</ele>
        <time>2021-08-04T09:18:57.885Z</time>
      </trkpt>
      <trkpt lat="46.98355" lon="8.78893">
        <ele>877</ele>
        <time>2021-08-04T09:18:58.884Z</time>
      </trkpt>
      <trkpt lat="46.98355" lon="8.78893">
        <ele>877</ele>
        <time>2021-08-04T09:18:59.885Z</time>
      </trkpt>
      <trkpt lat="46.98354" lon="8.78894">
        <ele>876</ele>
        <time>2021-08-04T09:19:00.884Z</time>
      </trkpt>
      <trkpt lat="46.98353" lon="8.78894">
        <ele>876</ele>
        <time>2021-08-04T09:19:01.884Z</time>
      </trkpt>
      <trkpt lat="46.98352" lon="8.78893">
        <ele>876</ele>
        <time>2021-08-04T09:19:02.884Z</time>
      </trkpt>
      <trkpt lat="46.98351" lon="8.78892">
        <ele>877</ele>
        <time>2021-08-04T09:19:03.884Z</time>
      </trkpt>
      <trkpt lat="46.9835" lon="8.78891">
        <ele>877</ele>
        <time>2021-08-04T09:19:04.885Z</time>
      </trkpt>
      <trkpt lat="46.98349" lon="8.78891">
        <ele>877</ele>
        <time>2021-08-04T09:19:05.884Z</time>
      </trkpt>
      <trkpt lat="46.98348" lon="8.78891">
        <ele>877</ele>
        <time>2021-08-04T09:19:06.885Z</time>
      </trkpt>
      <trkpt lat="46.98347" lon="8.78891">
        <ele>877</ele>
        <time>2021-08-04T09:19:07.885Z</time>
      </trkpt>
      <trkpt lat="46.98346" lon="8.78891">
        <ele>877</ele>
        <time>2021-08-04T09:19:08.884Z</time>
      </trkpt>
      <trkpt lat="46.98346" lon="8.78891">
        <ele>877</ele>
        <time>2021-08-04T09:19:09.885Z</time>
      </trkpt>
      <trkpt lat="46.98345" lon="8.78891">
        <ele>877</ele>
        <time>2021-08-04T09:19:10.884Z</time>
      </trkpt>
      <trkpt lat="46.98344" lon="8.78892">
        <ele>877</ele>
        <time>2021-08-04T09:19:11.885Z</time>
      </trkpt>
      <trkpt lat="46.98344" lon="8.78892">
        <ele>877</ele>
        <time>2021-08-04T09:19:12.884Z</time>
      </trkpt>
      <trkpt lat="46.98343" lon="8.78892">
        <ele>877</ele>
        <time>2021-08-04T09:19:13.885Z</time>
      </trkpt>
      <trkpt lat="46.98342" lon="8.78893">
        <ele>876</ele>
        <time>2021-08-04T09:19:14.884Z</time>
      </trkpt>
      <trkpt lat="46.98341" lon="8.78893">
        <ele>876</ele>
        <time>2021-08-04T09:19:15.884Z</time>
      </trkpt>
      <trkpt lat="46.9834" lon="8.78893">
        <ele>876</ele>
        <time>2021-08-04T09:19:16.884Z</time>
      </trkpt>
      <trkpt lat="46.98339" lon="8.78894">
        <ele>876</ele>
        <time>2021-08-04T09:19:17.885Z</time>
      </trkpt>
      <trkpt lat="46.98339" lon="8.78894">
        <ele>875</ele>
        <time>2021-08-04T09:19:18.884Z</time>
      </trkpt>
      <trkpt lat="46.98339" lon="8.78895">
        <ele>875</ele>
        <time>2021-08-04T09:19:19.884Z</time>
      </trkpt>
      <trkpt lat="46.98338" lon="8.78895">
        <ele>875</ele>
        <time>2021-08-04T09:19:20.884Z</time>
      </trkpt>
      <trkpt lat="46.98338" lon="8.78895">
        <ele>874</ele>
        <time>2021-08-04T09:19:21.885Z</time>
      </trkpt>
      <trkpt lat="46.98337" lon="8.78896">
        <ele>874</ele>
        <time>2021-08-04T09:19:22.884Z</time>
      </trkpt>
      <trkpt lat="46.98336" lon="8.78896">
        <ele>873</ele>
        <time>2021-08-04T09:19:23.885Z</time>
      </trkpt>
      <trkpt lat="46.98336" lon="8.78896">
        <ele>873</ele>
        <time>2021-08-04T09:19:24.885Z</time>
      </trkpt>
      <trkpt lat="46.98335" lon="8.78896">
        <ele>872</ele>
        <time>2021-08-04T09:19:25.885Z</time>
      </trkpt>
      <trkpt lat="46.98334" lon="8.78896">
        <ele>871</ele>
        <time>2021-08-04T09:19:26.884Z</time>
      </trkpt>
      <trkpt lat="46.98333" lon="8.78897">
        <ele>870</ele>
        <time>2021-08-04T09:19:27.885Z</time>
      </trkpt>
      <trkpt lat="46.98332" lon="8.78898">
        <ele>870</ele>
        <time>2021-08-04T09:19:28.885Z</time>
      </trkpt>
      <trkpt lat="46.98332" lon="8.78898">
        <ele>869</ele>
        <time>2021-08-04T09:19:29.884Z</time>
      </trkpt>
      <trkpt lat="46.98331" lon="8.78898">
        <ele>868</ele>
        <time>2021-08-04T09:19:30.885Z</time>
      </trkpt>
      <trkpt lat="46.9833" lon="8.78899">
        <ele>867</ele>
        <time>2021-08-04T09:19:31.884Z</time>
      </trkpt>
      <trkpt lat="46.9833" lon="8.78899">
        <ele>866</ele>
        <time>2021-08-04T09:19:32.885Z</time>
      </trkpt>
      <trkpt lat="46.98329" lon="8.78899">
        <ele>866</ele>
        <time>2021-08-04T09:19:33.885Z</time>
      </trkpt>
      <trkpt lat="46.98328" lon="8.78899">
        <ele>865</ele>
        <time>2021-08-04T09:19:34.884Z</time>
      </trkpt>
      <trkpt lat="46.98327" lon="8.78899">
        <ele>865</ele>
        <time>2021-08-04T09:19:35.885Z</time>
      </trkpt>
      <trkpt lat="46.98326" lon="8.78899">
        <ele>865</ele>
        <time>2021-08-04T09:19:36.885Z</time>
      </trkpt>
      <trkpt lat="46.98324" lon="8.78899">
        <ele>865</ele>
        <time>2021-08-04T09:19:37.885Z</time>
      </trkpt>
      <trkpt lat="46.98323" lon="8.78898">
        <ele>865</ele>
        <time>2021-08-04T09:19:38.885Z</time>
      </trkpt>
      <trkpt lat="46.98322" lon="8.78899">
        <ele>865</ele>
        <time>2021-08-04T09:19:39.885Z</time>
      </trkpt>
      <trkpt lat="46.98321" lon="8.789">
        <ele>865</ele>
        <time>2021-08-04T09:19:40.884Z</time>
      </trkpt>
      <trkpt lat="46.98321" lon="8.789">
        <ele>865</ele>
        <time>2021-08-04T09:19:41.885Z</time>
      </trkpt>
      <trkpt lat="46.9832" lon="8.789">
        <ele>864</ele>
        <time>2021-08-04T09:19:42.885Z</time>
      </trkpt>
      <trkpt lat="46.98319" lon="8.78901">
        <ele>864</ele>
        <time>2021-08-04T09:19:43.884Z</time>
      </trkpt>
      <trkpt lat="46.98318" lon="8.78901">
        <ele>863</ele>
        <time>2021-08-04T09:19:48.045Z</time>
      </trkpt>
      <trkpt lat="46.98318" lon="8.789">
        <ele>863</ele>
        <time>2021-08-04T09:19:49.045Z</time>
      </trkpt>
      <trkpt lat="46.98317" lon="8.78899">
        <ele>862</ele>
        <time>2021-08-04T09:19:50.044Z</time>
      </trkpt>
      <trkpt lat="46.98316" lon="8.78899">
        <ele>862</ele>
        <time>2021-08-04T09:19:51.045Z</time>
      </trkpt>
      <trkpt lat="46.98315" lon="8.78898">
        <ele>861</ele>
        <time>2021-08-04T09:19:52.045Z</time>
      </trkpt>
      <trkpt lat="46.98314" lon="8.78898">
        <ele>861</ele>
        <time>2021-08-04T09:19:53.045Z</time>
      </trkpt>
      <trkpt lat="46.98314" lon="8.78898">
        <ele>861</ele>
        <time>2021-08-04T09:19:54.045Z</time>
      </trkpt>
      <trkpt lat="46.98314" lon="8.78898">
        <ele>861</ele>
        <time>2021-08-04T09:19:55.045Z</time>
      </trkpt>
      <trkpt lat="46.98314" lon="8.78898">
        <ele>861</ele>
        <time>2021-08-04T09:19:56.044Z</time>
      </trkpt>
      <trkpt lat="46.98313" lon="8.78898">
        <ele>860</ele>
        <time>2021-08-04T09:19:57.045Z</time>
      </trkpt>
      <trkpt lat="46.98312" lon="8.78899">
        <ele>859</ele>
        <time>2021-08-04T09:19:58.045Z</time>
      </trkpt>
      <trkpt lat="46.98312" lon="8.78899">
        <ele>858</ele>
        <time>2021-08-04T09:19:59.045Z</time>
      </trkpt>
      <trkpt lat="46.98312" lon="8.78899">
        <ele>857</ele>
        <time>2021-08-04T09:20:00.044Z</time>
      </trkpt>
      <trkpt lat="46.98311" lon="8.78899">
        <ele>856</ele>
        <time>2021-08-04T09:20:09.165Z</time>
      </trkpt>
      <trkpt lat="46.98311" lon="8.78899">
        <ele>855</ele>
        <time>2021-08-04T09:20:10.165Z</time>
      </trkpt>
      <trkpt lat="46.98311" lon="8.78899">
        <ele>854</ele>
        <time>2021-08-04T09:20:18.314Z</time>
      </trkpt>
      <trkpt lat="46.9831" lon="8.78899">
        <ele>853</ele>
        <time>2021-08-04T09:20:19.314Z</time>
      </trkpt>
      <trkpt lat="46.98309" lon="8.78899">
        <ele>853</ele>
        <time>2021-08-04T09:20:20.314Z</time>
      </trkpt>
      <trkpt lat="46.98307" lon="8.78899">
        <ele>852</ele>
        <time>2021-08-04T09:20:21.315Z</time>
      </trkpt>
      <trkpt lat="46.98306" lon="8.78899">
        <ele>851</ele>
        <time>2021-08-04T09:20:22.314Z</time>
      </trkpt>
      <trkpt lat="46.98305" lon="8.78899">
        <ele>851</ele>
        <time>2021-08-04T09:20:23.315Z</time>
      </trkpt>
      <trkpt lat="46.98304" lon="8.78899">
        <ele>851</ele>
        <time>2021-08-04T09:20:24.315Z</time>
      </trkpt>
      <trkpt lat="46.98304" lon="8.78898">
        <ele>851</ele>
        <time>2021-08-04T09:20:25.315Z</time>
      </trkpt>
      <trkpt lat="46.98302" lon="8.78898">
        <ele>851</ele>
        <time>2021-08-04T09:20:26.314Z</time>
      </trkpt>
      <trkpt lat="46.98301" lon="8.78898">
        <ele>851</ele>
        <time>2021-08-04T09:20:27.315Z</time>
      </trkpt>
      <trkpt lat="46.983" lon="8.78898">
        <ele>852</ele>
        <time>2021-08-04T09:20:28.315Z</time>
      </trkpt>
      <trkpt lat="46.98298" lon="8.78898">
        <ele>852</ele>
        <time>2021-08-04T09:20:29.315Z</time>
      </trkpt>
      <trkpt lat="46.98297" lon="8.78897">
        <ele>853</ele>
        <time>2021-08-04T09:20:33.373Z</time>
      </trkpt>
      <trkpt lat="46.98296" lon="8.78896">
        <ele>853</ele>
        <time>2021-08-04T09:20:34.374Z</time>
      </trkpt>
      <trkpt lat="46.98295" lon="8.78896">
        <ele>853</ele>
        <time>2021-08-04T09:20:49.308Z</time>
      </trkpt>
      <trkpt lat="46.98294" lon="8.78896">
        <ele>854</ele>
        <time>2021-08-04T09:20:50.308Z</time>
      </trkpt>
      <trkpt lat="46.98293" lon="8.78896">
        <ele>854</ele>
        <time>2021-08-04T09:20:51.308Z</time>
      </trkpt>
      <trkpt lat="46.98292" lon="8.78896">
        <ele>854</ele>
        <time>2021-08-04T09:20:52.307Z</time>
      </trkpt>
      <trkpt lat="46.98292" lon="8.78896">
        <ele>855</ele>
        <time>2021-08-04T09:20:53.308Z</time>
      </trkpt>
      <trkpt lat="46.98292" lon="8.78897">
        <ele>855</ele>
        <time>2021-08-04T09:20:54.308Z</time>
      </trkpt>
      <trkpt lat="46.98291" lon="8.78897">
        <ele>854</ele>
        <time>2021-08-04T09:20:55.307Z</time>
      </trkpt>
      <trkpt lat="46.9829" lon="8.78897">
        <ele>854</ele>
        <time>2021-08-04T09:20:56.308Z</time>
      </trkpt>
      <trkpt lat="46.98289" lon="8.78896">
        <ele>855</ele>
        <time>2021-08-04T09:20:57.308Z</time>
      </trkpt>
      <trkpt lat="46.98288" lon="8.78895">
        <ele>855</ele>
        <time>2021-08-04T09:20:58.308Z</time>
      </trkpt>
      <trkpt lat="46.98287" lon="8.78894">
        <ele>855</ele>
        <time>2021-08-04T09:20:59.308Z</time>
      </trkpt>
      <trkpt lat="46.98286" lon="8.78893">
        <ele>855</ele>
        <time>2021-08-04T09:21:00.308Z</time>
      </trkpt>
      <trkpt lat="46.98285" lon="8.78893">
        <ele>854</ele>
        <time>2021-08-04T09:21:01.308Z</time>
      </trkpt>
      <trkpt lat="46.98284" lon="8.78892">
        <ele>854</ele>
        <time>2021-08-04T09:21:02.308Z</time>
      </trkpt>
      <trkpt lat="46.98283" lon="8.78891">
        <ele>853</ele>
        <time>2021-08-04T09:21:03.308Z</time>
      </trkpt>
      <trkpt lat="46.98282" lon="8.78891">
        <ele>853</ele>
        <time>2021-08-04T09:21:04.307Z</time>
      </trkpt>
      <trkpt lat="46.98282" lon="8.7889">
        <ele>852</ele>
        <time>2021-08-04T09:21:05.308Z</time>
      </trkpt>
      <trkpt lat="46.98281" lon="8.7889">
        <ele>852</ele>
        <time>2021-08-04T09:21:06.307Z</time>
      </trkpt>
      <trkpt lat="46.9828" lon="8.78889">
        <ele>851</ele>
        <time>2021-08-04T09:21:07.308Z</time>
      </trkpt>
      <trkpt lat="46.98279" lon="8.78888">
        <ele>851</ele>
        <time>2021-08-04T09:21:08.308Z</time>
      </trkpt>
      <trkpt lat="46.98278" lon="8.78887">
        <ele>850</ele>
        <time>2021-08-04T09:21:09.308Z</time>
      </trkpt>
      <trkpt lat="46.98278" lon="8.78886">
        <ele>850</ele>
        <time>2021-08-04T09:21:10.308Z</time>
      </trkpt>
      <trkpt lat="46.98277" lon="8.78885">
        <ele>850</ele>
        <time>2021-08-04T09:21:11.308Z</time>
      </trkpt>
      <trkpt lat="46.98276" lon="8.78884">
        <ele>849</ele>
        <time>2021-08-04T09:21:12.307Z</time>
      </trkpt>
      <trkpt lat="46.98276" lon="8.78883">
        <ele>849</ele>
        <time>2021-08-04T09:21:13.308Z</time>
      </trkpt>
      <trkpt lat="46.98275" lon="8.78883">
        <ele>847</ele>
        <time>2021-08-04T09:21:14.308Z</time>
      </trkpt>
      <trkpt lat="46.98274" lon="8.78882">
        <ele>846</ele>
        <time>2021-08-04T09:21:15.308Z</time>
      </trkpt>
      <trkpt lat="46.98274" lon="8.78881">
        <ele>845</ele>
        <time>2021-08-04T09:21:16.308Z</time>
      </trkpt>
      <trkpt lat="46.98273" lon="8.7888">
        <ele>845</ele>
        <time>2021-08-04T09:21:17.307Z</time>
      </trkpt>
      <trkpt lat="46.98272" lon="8.78879">
        <ele>844</ele>
        <time>2021-08-04T09:21:18.307Z</time>
      </trkpt>
      <trkpt lat="46.98272" lon="8.78878">
        <ele>844</ele>
        <time>2021-08-04T09:21:19.308Z</time>
      </trkpt>
      <trkpt lat="46.98271" lon="8.78877">
        <ele>844</ele>
        <time>2021-08-04T09:21:20.307Z</time>
      </trkpt>
      <trkpt lat="46.98271" lon="8.78877">
        <ele>844</ele>
        <time>2021-08-04T09:21:21.308Z</time>
      </trkpt>
      <trkpt lat="46.9827" lon="8.78876">
        <ele>844</ele>
        <time>2021-08-04T09:21:22.307Z</time>
      </trkpt>
      <trkpt lat="46.98269" lon="8.78875">
        <ele>844</ele>
        <time>2021-08-04T09:21:23.308Z</time>
      </trkpt>
      <trkpt lat="46.98268" lon="8.78875">
        <ele>843</ele>
        <time>2021-08-04T09:21:24.308Z</time>
      </trkpt>
      <trkpt lat="46.98268" lon="8.78874">
        <ele>843</ele>
        <time>2021-08-04T09:21:25.308Z</time>
      </trkpt>
      <trkpt lat="46.98267" lon="8.78873">
        <ele>843</ele>
        <time>2021-08-04T09:21:26.307Z</time>
      </trkpt>
      <trkpt lat="46.98266" lon="8.78873">
        <ele>842</ele>
        <time>2021-08-04T09:21:27.307Z</time>
      </trkpt>
      <trkpt lat="46.98265" lon="8.78872">
        <ele>842</ele>
        <time>2021-08-04T09:21:28.307Z</time>
      </trkpt>
      <trkpt lat="46.98265" lon="8.78871">
        <ele>841</ele>
        <time>2021-08-04T09:21:29.307Z</time>
      </trkpt>
      <trkpt lat="46.98264" lon="8.7887">
        <ele>841</ele>
        <time>2021-08-04T09:21:30.308Z</time>
      </trkpt>
      <trkpt lat="46.98263" lon="8.7887">
        <ele>840</ele>
        <time>2021-08-04T09:21:31.307Z</time>
      </trkpt>
      <trkpt lat="46.98263" lon="8.78869">
        <ele>840</ele>
        <time>2021-08-04T09:21:32.307Z</time>
      </trkpt>
      <trkpt lat="46.98262" lon="8.78868">
        <ele>839</ele>
        <time>2021-08-04T09:21:33.307Z</time>
      </trkpt>
      <trkpt lat="46.98262" lon="8.78867">
        <ele>838</ele>
        <time>2021-08-04T09:21:34.308Z</time>
      </trkpt>
      <trkpt lat="46.98261" lon="8.78866">
        <ele>838</ele>
        <time>2021-08-04T09:21:35.307Z</time>
      </trkpt>
      <trkpt lat="46.9826" lon="8.78865">
        <ele>837</ele>
        <time>2021-08-04T09:21:36.307Z</time>
      </trkpt>
      <trkpt lat="46.9826" lon="8.78864">
        <ele>837</ele>
        <time>2021-08-04T09:21:37.307Z</time>
      </trkpt>
      <trkpt lat="46.98259" lon="8.78863">
        <ele>837</ele>
        <time>2021-08-04T09:21:38.307Z</time>
      </trkpt>
      <trkpt lat="46.98258" lon="8.78863">
        <ele>837</ele>
        <time>2021-08-04T09:21:39.307Z</time>
      </trkpt>
      <trkpt lat="46.98257" lon="8.78862">
        <ele>837</ele>
        <time>2021-08-04T09:21:40.307Z</time>
      </trkpt>
      <trkpt lat="46.98256" lon="8.78861">
        <ele>837</ele>
        <time>2021-08-04T09:21:41.307Z</time>
      </trkpt>
      <trkpt lat="46.98255" lon="8.7886">
        <ele>837</ele>
        <time>2021-08-04T09:21:46.402Z</time>
      </trkpt>
      <trkpt lat="46.98254" lon="8.78859">
        <ele>836</ele>
        <time>2021-08-04T09:21:47.402Z</time>
      </trkpt>
      <trkpt lat="46.98253" lon="8.78858">
        <ele>836</ele>
        <time>2021-08-04T09:21:48.402Z</time>
      </trkpt>
      <trkpt lat="46.98252" lon="8.78857">
        <ele>836</ele>
        <time>2021-08-04T09:21:49.402Z</time>
      </trkpt>
      <trkpt lat="46.98251" lon="8.78856">
        <ele>836</ele>
        <time>2021-08-04T09:21:50.402Z</time>
      </trkpt>
      <trkpt lat="46.9825" lon="8.78855">
        <ele>836</ele>
        <time>2021-08-04T09:21:51.402Z</time>
      </trkpt>
      <trkpt lat="46.98249" lon="8.78854">
        <ele>836</ele>
        <time>2021-08-04T09:21:52.402Z</time>
      </trkpt>
      <trkpt lat="46.98247" lon="8.78854">
        <ele>836</ele>
        <time>2021-08-04T09:21:53.402Z</time>
      </trkpt>
      <trkpt lat="46.98247" lon="8.78853">
        <ele>836</ele>
        <time>2021-08-04T09:21:54.402Z</time>
      </trkpt>
      <trkpt lat="46.98246" lon="8.78852">
        <ele>836</ele>
        <time>2021-08-04T09:21:55.402Z</time>
      </trkpt>
      <trkpt lat="46.98245" lon="8.78851">
        <ele>836</ele>
        <time>2021-08-04T09:21:56.402Z</time>
      </trkpt>
      <trkpt lat="46.98244" lon="8.78851">
        <ele>836</ele>
        <time>2021-08-04T09:22:00.540Z</time>
      </trkpt>
      <trkpt lat="46.98243" lon="8.7885">
        <ele>835</ele>
        <time>2021-08-04T09:22:01.540Z</time>
      </trkpt>
      <trkpt lat="46.98242" lon="8.78849">
        <ele>835</ele>
        <time>2021-08-04T09:22:02.541Z</time>
      </trkpt>
      <trkpt lat="46.98241" lon="8.78849">
        <ele>835</ele>
        <time>2021-08-04T09:22:03.541Z</time>
      </trkpt>
      <trkpt lat="46.9824" lon="8.78848">
        <ele>835</ele>
        <time>2021-08-04T09:22:04.541Z</time>
      </trkpt>
      <trkpt lat="46.98239" lon="8.78847">
        <ele>834</ele>
        <time>2021-08-04T09:22:05.540Z</time>
      </trkpt>
      <trkpt lat="46.98238" lon="8.78846">
        <ele>834</ele>
        <time>2021-08-04T09:22:06.540Z</time>
      </trkpt>
      <trkpt lat="46.98237" lon="8.78846">
        <ele>834</ele>
        <time>2021-08-04T09:22:07.540Z</time>
      </trkpt>
      <trkpt lat="46.98236" lon="8.78845">
        <ele>833</ele>
        <time>2021-08-04T09:22:08.540Z</time>
      </trkpt>
      <trkpt lat="46.98235" lon="8.78844">
        <ele>833</ele>
        <time>2021-08-04T09:22:09.541Z</time>
      </trkpt>
      <trkpt lat="46.98235" lon="8.78843">
        <ele>833</ele>
        <time>2021-08-04T09:22:10.540Z</time>
      </trkpt>
      <trkpt lat="46.98234" lon="8.78841">
        <ele>833</ele>
        <time>2021-08-04T09:22:11.540Z</time>
      </trkpt>
      <trkpt lat="46.98233" lon="8.7884">
        <ele>832</ele>
        <time>2021-08-04T09:22:12.541Z</time>
      </trkpt>
      <trkpt lat="46.98232" lon="8.78839">
        <ele>832</ele>
        <time>2021-08-04T09:22:13.541Z</time>
      </trkpt>
      <trkpt lat="46.98231" lon="8.78838">
        <ele>831</ele>
        <time>2021-08-04T09:22:14.541Z</time>
      </trkpt>
      <trkpt lat="46.98231" lon="8.78837">
        <ele>830</ele>
        <time>2021-08-04T09:22:15.541Z</time>
      </trkpt>
      <trkpt lat="46.9823" lon="8.78836">
        <ele>829</ele>
        <time>2021-08-04T09:22:16.540Z</time>
      </trkpt>
      <trkpt lat="46.98229" lon="8.78835">
        <ele>829</ele>
        <time>2021-08-04T09:22:17.541Z</time>
      </trkpt>
      <trkpt lat="46.98228" lon="8.78834">
        <ele>829</ele>
        <time>2021-08-04T09:22:18.540Z</time>
      </trkpt>
      <trkpt lat="46.98228" lon="8.78832">
        <ele>828</ele>
        <time>2021-08-04T09:22:19.541Z</time>
      </trkpt>
      <trkpt lat="46.98227" lon="8.78831">
        <ele>828</ele>
        <time>2021-08-04T09:22:20.541Z</time>
      </trkpt>
      <trkpt lat="46.98226" lon="8.7883">
        <ele>828</ele>
        <time>2021-08-04T09:22:21.541Z</time>
      </trkpt>
      <trkpt lat="46.98226" lon="8.78829">
        <ele>828</ele>
        <time>2021-08-04T09:22:22.540Z</time>
      </trkpt>
      <trkpt lat="46.98225" lon="8.78829">
        <ele>828</ele>
        <time>2021-08-04T09:22:23.541Z</time>
      </trkpt>
      <trkpt lat="46.98224" lon="8.78828">
        <ele>829</ele>
        <time>2021-08-04T09:22:24.541Z</time>
      </trkpt>
      <trkpt lat="46.98224" lon="8.78828">
        <ele>829</ele>
        <time>2021-08-04T09:22:25.541Z</time>
      </trkpt>
      <trkpt lat="46.98223" lon="8.78828">
        <ele>829</ele>
        <time>2021-08-04T09:22:26.540Z</time>
      </trkpt>
      <trkpt lat="46.98224" lon="8.78828">
        <ele>829</ele>
        <time>2021-08-04T09:22:27.541Z</time>
      </trkpt>
      <trkpt lat="46.98224" lon="8.78828">
        <ele>830</ele>
        <time>2021-08-04T09:22:28.541Z</time>
      </trkpt>
      <trkpt lat="46.98224" lon="8.78828">
        <ele>830</ele>
        <time>2021-08-04T09:22:29.541Z</time>
      </trkpt>
      <trkpt lat="46.98225" lon="8.78828">
        <ele>829</ele>
        <time>2021-08-04T09:22:30.541Z</time>
      </trkpt>
      <trkpt lat="46.98225" lon="8.78828">
        <ele>829</ele>
        <time>2021-08-04T09:22:31.540Z</time>
      </trkpt>
      <trkpt lat="46.98227" lon="8.78828">
        <ele>829</ele>
        <time>2021-08-04T09:22:32.541Z</time>
      </trkpt>
      <trkpt lat="46.98228" lon="8.78828">
        <ele>828</ele>
        <time>2021-08-04T09:22:33.540Z</time>
      </trkpt>
      <trkpt lat="46.98228" lon="8.78829">
        <ele>827</ele>
        <time>2021-08-04T09:22:34.541Z</time>
      </trkpt>
      <trkpt lat="46.98227" lon="8.7883">
        <ele>827</ele>
        <time>2021-08-04T09:22:35.541Z</time>
      </trkpt>
      <trkpt lat="46.98227" lon="8.7883">
        <ele>826</ele>
        <time>2021-08-04T09:22:36.540Z</time>
      </trkpt>
      <trkpt lat="46.98226" lon="8.7883">
        <ele>826</ele>
        <time>2021-08-04T09:22:37.541Z</time>
      </trkpt>
      <trkpt lat="46.98226" lon="8.78827">
        <ele>824</ele>
        <time>2021-08-04T09:22:38.541Z</time>
      </trkpt>
      <trkpt lat="46.98224" lon="8.78826">
        <ele>824</ele>
        <time>2021-08-04T09:22:39.541Z</time>
      </trkpt>
      <trkpt lat="46.98223" lon="8.78825">
        <ele>824</ele>
        <time>2021-08-04T09:22:40.542Z</time>
      </trkpt>
      <trkpt lat="46.98222" lon="8.78825">
        <ele>824</ele>
        <time>2021-08-04T09:22:41.541Z</time>
      </trkpt>
      <trkpt lat="46.98221" lon="8.78824">
        <ele>824</ele>
        <time>2021-08-04T09:22:42.542Z</time>
      </trkpt>
      <trkpt lat="46.9822" lon="8.78824">
        <ele>824</ele>
        <time>2021-08-04T09:22:43.542Z</time>
      </trkpt>
      <trkpt lat="46.98219" lon="8.78822">
        <ele>824</ele>
        <time>2021-08-04T09:22:44.542Z</time>
      </trkpt>
      <trkpt lat="46.98218" lon="8.7882">
        <ele>824</ele>
        <time>2021-08-04T09:22:45.541Z</time>
      </trkpt>
      <trkpt lat="46.98217" lon="8.78819">
        <ele>824</ele>
        <time>2021-08-04T09:22:46.542Z</time>
      </trkpt>
      <trkpt lat="46.98216" lon="8.78818">
        <ele>823</ele>
        <time>2021-08-04T09:22:47.541Z</time>
      </trkpt>
      <trkpt lat="46.98216" lon="8.78817">
        <ele>823</ele>
        <time>2021-08-04T09:22:48.541Z</time>
      </trkpt>
      <trkpt lat="46.98215" lon="8.78815">
        <ele>823</ele>
        <time>2021-08-04T09:22:49.541Z</time>
      </trkpt>
      <trkpt lat="46.98214" lon="8.78814">
        <ele>822</ele>
        <time>2021-08-04T09:22:50.542Z</time>
      </trkpt>
      <trkpt lat="46.98213" lon="8.78813">
        <ele>822</ele>
        <time>2021-08-04T09:22:51.541Z</time>
      </trkpt>
      <trkpt lat="46.98212" lon="8.78812">
        <ele>821</ele>
        <time>2021-08-04T09:22:52.541Z</time>
      </trkpt>
      <trkpt lat="46.98212" lon="8.78811">
        <ele>821</ele>
        <time>2021-08-04T09:22:53.541Z</time>
      </trkpt>
      <trkpt lat="46.98211" lon="8.78809">
        <ele>821</ele>
        <time>2021-08-04T09:22:54.541Z</time>
      </trkpt>
      <trkpt lat="46.9821" lon="8.78808">
        <ele>820</ele>
        <time>2021-08-04T09:22:55.541Z</time>
      </trkpt>
      <trkpt lat="46.98209" lon="8.78806">
        <ele>820</ele>
        <time>2021-08-04T09:22:56.541Z</time>
      </trkpt>
      <trkpt lat="46.98208" lon="8.78804">
        <ele>821</ele>
        <time>2021-08-04T09:22:57.541Z</time>
      </trkpt>
      <trkpt lat="46.98207" lon="8.78803">
        <ele>821</ele>
        <time>2021-08-04T09:22:58.541Z</time>
      </trkpt>
      <trkpt lat="46.98207" lon="8.78801">
        <ele>820</ele>
        <time>2021-08-04T09:22:59.542Z</time>
      </trkpt>
      <trkpt lat="46.98206" lon="8.788">
        <ele>820</ele>
        <time>2021-08-04T09:23:00.542Z</time>
      </trkpt>
      <trkpt lat="46.98205" lon="8.78799">
        <ele>820</ele>
        <time>2021-08-04T09:23:01.542Z</time>
      </trkpt>
      <trkpt lat="46.98204" lon="8.78799">
        <ele>820</ele>
        <time>2021-08-04T09:23:02.542Z</time>
      </trkpt>
      <trkpt lat="46.98203" lon="8.78798">
        <ele>820</ele>
        <time>2021-08-04T09:23:03.542Z</time>
      </trkpt>
      <trkpt lat="46.98203" lon="8.78798">
        <ele>820</ele>
        <time>2021-08-04T09:23:04.542Z</time>
      </trkpt>
      <trkpt lat="46.98202" lon="8.78798">
        <ele>820</ele>
        <time>2021-08-04T09:23:05.542Z</time>
      </trkpt>
      <trkpt lat="46.98202" lon="8.78797">
        <ele>820</ele>
        <time>2021-08-04T09:23:06.542Z</time>
      </trkpt>
      <trkpt lat="46.98201" lon="8.78793">
        <ele>822</ele>
        <time>2021-08-04T09:23:07.543Z</time>
      </trkpt>
      <trkpt lat="46.982" lon="8.78792">
        <ele>822</ele>
        <time>2021-08-04T09:23:08.543Z</time>
      </trkpt>
      <trkpt lat="46.98199" lon="8.78791">
        <ele>822</ele>
        <time>2021-08-04T09:23:09.542Z</time>
      </trkpt>
      <trkpt lat="46.98198" lon="8.7879">
        <ele>823</ele>
        <time>2021-08-04T09:23:10.542Z</time>
      </trkpt>
      <trkpt lat="46.98197" lon="8.7879">
        <ele>824</ele>
        <time>2021-08-04T09:23:11.542Z</time>
      </trkpt>
      <trkpt lat="46.98196" lon="8.78789">
        <ele>824</ele>
        <time>2021-08-04T09:23:12.542Z</time>
      </trkpt>
      <trkpt lat="46.98196" lon="8.78789">
        <ele>825</ele>
        <time>2021-08-04T09:23:13.542Z</time>
      </trkpt>
      <trkpt lat="46.98195" lon="8.78788">
        <ele>825</ele>
        <time>2021-08-04T09:23:14.543Z</time>
      </trkpt>
      <trkpt lat="46.98194" lon="8.78788">
        <ele>825</ele>
        <time>2021-08-04T09:23:15.542Z</time>
      </trkpt>
      <trkpt lat="46.98194" lon="8.78788">
        <ele>824</ele>
        <time>2021-08-04T09:23:16.543Z</time>
      </trkpt>
      <trkpt lat="46.98193" lon="8.78788">
        <ele>824</ele>
        <time>2021-08-04T09:23:17.542Z</time>
      </trkpt>
      <trkpt lat="46.98193" lon="8.78788">
        <ele>823</ele>
        <time>2021-08-04T09:23:18.542Z</time>
      </trkpt>
      <trkpt lat="46.98192" lon="8.78788">
        <ele>822</ele>
        <time>2021-08-04T09:23:19.542Z</time>
      </trkpt>
      <trkpt lat="46.98192" lon="8.78788">
        <ele>822</ele>
        <time>2021-08-04T09:23:20.543Z</time>
      </trkpt>
      <trkpt lat="46.98191" lon="8.78788">
        <ele>821</ele>
        <time>2021-08-04T09:23:21.543Z</time>
      </trkpt>
      <trkpt lat="46.9819" lon="8.78787">
        <ele>820</ele>
        <time>2021-08-04T09:23:22.543Z</time>
      </trkpt>
      <trkpt lat="46.98189" lon="8.78787">
        <ele>819</ele>
        <time>2021-08-04T09:23:23.543Z</time>
      </trkpt>
      <trkpt lat="46.98189" lon="8.78787">
        <ele>818</ele>
        <time>2021-08-04T09:23:24.543Z</time>
      </trkpt>
      <trkpt lat="46.98188" lon="8.78786">
        <ele>817</ele>
        <time>2021-08-04T09:23:25.542Z</time>
      </trkpt>
      <trkpt lat="46.98187" lon="8.78786">
        <ele>817</ele>
        <time>2021-08-04T09:23:26.543Z</time>
      </trkpt>
      <trkpt lat="46.98186" lon="8.78786">
        <ele>817</ele>
        <time>2021-08-04T09:23:27.542Z</time>
      </trkpt>
      <trkpt lat="46.98186" lon="8.78785">
        <ele>817</ele>
        <time>2021-08-04T09:23:28.542Z</time>
      </trkpt>
      <trkpt lat="46.98185" lon="8.78785">
        <ele>816</ele>
        <time>2021-08-04T09:23:29.542Z</time>
      </trkpt>
      <trkpt lat="46.98184" lon="8.78785">
        <ele>816</ele>
        <time>2021-08-04T09:23:30.542Z</time>
      </trkpt>
      <trkpt lat="46.98183" lon="8.78784">
        <ele>816</ele>
        <time>2021-08-04T09:23:31.542Z</time>
      </trkpt>
      <trkpt lat="46.98182" lon="8.78784">
        <ele>816</ele>
        <time>2021-08-04T09:23:32.543Z</time>
      </trkpt>
      <trkpt lat="46.98181" lon="8.78783">
        <ele>815</ele>
        <time>2021-08-04T09:23:33.543Z</time>
      </trkpt>
      <trkpt lat="46.9818" lon="8.78783">
        <ele>815</ele>
        <time>2021-08-04T09:23:34.542Z</time>
      </trkpt>
      <trkpt lat="46.9818" lon="8.78783">
        <ele>814</ele>
        <time>2021-08-04T09:23:35.543Z</time>
      </trkpt>
      <trkpt lat="46.98179" lon="8.78783">
        <ele>813</ele>
        <time>2021-08-04T09:23:36.543Z</time>
      </trkpt>
      <trkpt lat="46.98178" lon="8.78783">
        <ele>812</ele>
        <time>2021-08-04T09:23:37.543Z</time>
      </trkpt>
      <trkpt lat="46.98178" lon="8.78783">
        <ele>811</ele>
        <time>2021-08-04T09:23:39.643Z</time>
      </trkpt>
      <trkpt lat="46.98177" lon="8.78783">
        <ele>811</ele>
        <time>2021-08-04T09:23:40.643Z</time>
      </trkpt>
      <trkpt lat="46.98176" lon="8.78782">
        <ele>811</ele>
        <time>2021-08-04T09:23:41.643Z</time>
      </trkpt>
      <trkpt lat="46.98175" lon="8.78782">
        <ele>811</ele>
        <time>2021-08-04T09:23:42.644Z</time>
      </trkpt>
      <trkpt lat="46.98174" lon="8.78781">
        <ele>810</ele>
        <time>2021-08-04T09:23:43.643Z</time>
      </trkpt>
      <trkpt lat="46.98173" lon="8.7878">
        <ele>810</ele>
        <time>2021-08-04T09:23:44.643Z</time>
      </trkpt>
      <trkpt lat="46.98172" lon="8.78779">
        <ele>810</ele>
        <time>2021-08-04T09:23:45.643Z</time>
      </trkpt>
      <trkpt lat="46.9817" lon="8.78778">
        <ele>810</ele>
        <time>2021-08-04T09:23:49.779Z</time>
      </trkpt>
      <trkpt lat="46.98169" lon="8.78777">
        <ele>810</ele>
        <time>2021-08-04T09:24:03.659Z</time>
      </trkpt>
      <trkpt lat="46.98168" lon="8.78776">
        <ele>810</ele>
        <time>2021-08-04T09:24:04.659Z</time>
      </trkpt>
      <trkpt lat="46.98166" lon="8.78776">
        <ele>810</ele>
        <time>2021-08-04T09:24:05.659Z</time>
      </trkpt>
      <trkpt lat="46.98166" lon="8.78776">
        <ele>809</ele>
        <time>2021-08-04T09:24:06.660Z</time>
      </trkpt>
      <trkpt lat="46.98165" lon="8.78776">
        <ele>809</ele>
        <time>2021-08-04T09:24:07.660Z</time>
      </trkpt>
      <trkpt lat="46.98164" lon="8.78777">
        <ele>809</ele>
        <time>2021-08-04T09:24:08.659Z</time>
      </trkpt>
      <trkpt lat="46.98163" lon="8.78777">
        <ele>809</ele>
        <time>2021-08-04T09:24:09.660Z</time>
      </trkpt>
      <trkpt lat="46.98162" lon="8.78777">
        <ele>809</ele>
        <time>2021-08-04T09:24:26.786Z</time>
      </trkpt>
      <trkpt lat="46.98161" lon="8.78777">
        <ele>809</ele>
        <time>2021-08-04T09:24:27.786Z</time>
      </trkpt>
      <trkpt lat="46.98161" lon="8.78776">
        <ele>809</ele>
        <time>2021-08-04T09:24:28.786Z</time>
      </trkpt>
      <trkpt lat="46.9816" lon="8.78776">
        <ele>809</ele>
        <time>2021-08-04T09:24:29.787Z</time>
      </trkpt>
      <trkpt lat="46.98159" lon="8.78775">
        <ele>809</ele>
        <time>2021-08-04T09:24:30.786Z</time>
      </trkpt>
      <trkpt lat="46.98158" lon="8.78775">
        <ele>809</ele>
        <time>2021-08-04T09:24:31.786Z</time>
      </trkpt>
      <trkpt lat="46.98157" lon="8.78774">
        <ele>809</ele>
        <time>2021-08-04T09:24:32.786Z</time>
      </trkpt>
      <trkpt lat="46.98156" lon="8.78774">
        <ele>808</ele>
        <time>2021-08-04T09:24:33.787Z</time>
      </trkpt>
      <trkpt lat="46.98155" lon="8.78774">
        <ele>808</ele>
        <time>2021-08-04T09:24:34.787Z</time>
      </trkpt>
      <trkpt lat="46.98154" lon="8.78773">
        <ele>807</ele>
        <time>2021-08-04T09:24:35.786Z</time>
      </trkpt>
      <trkpt lat="46.98153" lon="8.78772">
        <ele>806</ele>
        <time>2021-08-04T09:24:36.786Z</time>
      </trkpt>
      <trkpt lat="46.98153" lon="8.7877">
        <ele>806</ele>
        <time>2021-08-04T09:24:37.786Z</time>
      </trkpt>
      <trkpt lat="46.98152" lon="8.78769">
        <ele>806</ele>
        <time>2021-08-04T09:24:38.786Z</time>
      </trkpt>
      <trkpt lat="46.98152" lon="8.78767">
        <ele>805</ele>
        <time>2021-08-04T09:24:39.787Z</time>
      </trkpt>
      <trkpt lat="46.98152" lon="8.78766">
        <ele>805</ele>
        <time>2021-08-04T09:24:40.786Z</time>
      </trkpt>
      <trkpt lat="46.98152" lon="8.78764">
        <ele>806</ele>
        <time>2021-08-04T09:24:41.786Z</time>
      </trkpt>
      <trkpt lat="46.98151" lon="8.78764">
        <ele>806</ele>
        <time>2021-08-04T09:24:42.786Z</time>
      </trkpt>
      <trkpt lat="46.98151" lon="8.78763">
        <ele>807</ele>
        <time>2021-08-04T09:24:43.787Z</time>
      </trkpt>
      <trkpt lat="46.98151" lon="8.78763">
        <ele>806</ele>
        <time>2021-08-04T09:24:44.787Z</time>
      </trkpt>
      <trkpt lat="46.98151" lon="8.78763">
        <ele>806</ele>
        <time>2021-08-04T09:24:45.787Z</time>
      </trkpt>
      <trkpt lat="46.9815" lon="8.78765">
        <ele>803</ele>
        <time>2021-08-04T09:24:46.788Z</time>
      </trkpt>
      <trkpt lat="46.9815" lon="8.78765">
        <ele>803</ele>
        <time>2021-08-04T09:24:47.788Z</time>
      </trkpt>
      <trkpt lat="46.98149" lon="8.78765">
        <ele>804</ele>
        <time>2021-08-04T09:24:48.788Z</time>
      </trkpt>
      <trkpt lat="46.98152" lon="8.78766">
        <ele>805</ele>
        <time>2021-08-04T09:24:49.789Z</time>
      </trkpt>
      <trkpt lat="46.98152" lon="8.78766">
        <ele>805</ele>
        <time>2021-08-04T09:24:50.788Z</time>
      </trkpt>
      <trkpt lat="46.9815" lon="8.78766">
        <ele>804</ele>
        <time>2021-08-04T09:24:51.788Z</time>
      </trkpt>
      <trkpt lat="46.9815" lon="8.78765">
        <ele>803</ele>
        <time>2021-08-04T09:24:52.788Z</time>
      </trkpt>
      <trkpt lat="46.98149" lon="8.78765">
        <ele>803</ele>
        <time>2021-08-04T09:24:53.789Z</time>
      </trkpt>
      <trkpt lat="46.98148" lon="8.78764">
        <ele>803</ele>
        <time>2021-08-04T09:24:54.788Z</time>
      </trkpt>
      <trkpt lat="46.98148" lon="8.78764">
        <ele>802</ele>
        <time>2021-08-04T09:24:55.788Z</time>
      </trkpt>
      <trkpt lat="46.98147" lon="8.78763">
        <ele>802</ele>
        <time>2021-08-04T09:24:56.788Z</time>
      </trkpt>
      <trkpt lat="46.98147" lon="8.78763">
        <ele>803</ele>
        <time>2021-08-04T09:24:57.789Z</time>
      </trkpt>
      <trkpt lat="46.98146" lon="8.78763">
        <ele>803</ele>
        <time>2021-08-04T09:24:58.788Z</time>
      </trkpt>
      <trkpt lat="46.98145" lon="8.78763">
        <ele>803</ele>
        <time>2021-08-04T09:24:59.788Z</time>
      </trkpt>
      <trkpt lat="46.98144" lon="8.78763">
        <ele>803</ele>
        <time>2021-08-04T09:25:00.789Z</time>
      </trkpt>
      <trkpt lat="46.98143" lon="8.78763">
        <ele>804</ele>
        <time>2021-08-04T09:25:01.789Z</time>
      </trkpt>
      <trkpt lat="46.98142" lon="8.78763">
        <ele>804</ele>
        <time>2021-08-04T09:25:02.789Z</time>
      </trkpt>
      <trkpt lat="46.98141" lon="8.78763">
        <ele>804</ele>
        <time>2021-08-04T09:25:03.789Z</time>
      </trkpt>
      <trkpt lat="46.98141" lon="8.78762">
        <ele>804</ele>
        <time>2021-08-04T09:25:04.788Z</time>
      </trkpt>
      <trkpt lat="46.98139" lon="8.78762">
        <ele>804</ele>
        <time>2021-08-04T09:25:05.789Z</time>
      </trkpt>
      <trkpt lat="46.98138" lon="8.78762">
        <ele>804</ele>
        <time>2021-08-04T09:25:06.788Z</time>
      </trkpt>
      <trkpt lat="46.98137" lon="8.78762">
        <ele>804</ele>
        <time>2021-08-04T09:25:07.788Z</time>
      </trkpt>
      <trkpt lat="46.98136" lon="8.78762">
        <ele>803</ele>
        <time>2021-08-04T09:25:08.788Z</time>
      </trkpt>
      <trkpt lat="46.98135" lon="8.78761">
        <ele>803</ele>
        <time>2021-08-04T09:25:09.788Z</time>
      </trkpt>
      <trkpt lat="46.98134" lon="8.78761">
        <ele>802</ele>
        <time>2021-08-04T09:25:10.788Z</time>
      </trkpt>
      <trkpt lat="46.98133" lon="8.7876">
        <ele>802</ele>
        <time>2021-08-04T09:25:11.788Z</time>
      </trkpt>
      <trkpt lat="46.98132" lon="8.7876">
        <ele>802</ele>
        <time>2021-08-04T09:25:12.788Z</time>
      </trkpt>
      <trkpt lat="46.9813" lon="8.7876">
        <ele>802</ele>
        <time>2021-08-04T09:25:13.789Z</time>
      </trkpt>
      <trkpt lat="46.98129" lon="8.78759">
        <ele>802</ele>
        <time>2021-08-04T09:25:14.788Z</time>
      </trkpt>
      <trkpt lat="46.98128" lon="8.78758">
        <ele>802</ele>
        <time>2021-08-04T09:25:15.789Z</time>
      </trkpt>
      <trkpt lat="46.98127" lon="8.78759">
        <ele>801</ele>
        <time>2021-08-04T09:25:16.789Z</time>
      </trkpt>
      <trkpt lat="46.98126" lon="8.78759">
        <ele>801</ele>
        <time>2021-08-04T09:25:17.789Z</time>
      </trkpt>
      <trkpt lat="46.98125" lon="8.78759">
        <ele>801</ele>
        <time>2021-08-04T09:25:18.788Z</time>
      </trkpt>
      <trkpt lat="46.98124" lon="8.78759">
        <ele>801</ele>
        <time>2021-08-04T09:25:19.788Z</time>
      </trkpt>
      <trkpt lat="46.98124" lon="8.78759">
        <ele>801</ele>
        <time>2021-08-04T09:25:20.789Z</time>
      </trkpt>
      <trkpt lat="46.98123" lon="8.78759">
        <ele>800</ele>
        <time>2021-08-04T09:25:21.788Z</time>
      </trkpt>
      <trkpt lat="46.98122" lon="8.78759">
        <ele>800</ele>
        <time>2021-08-04T09:25:22.789Z</time>
      </trkpt>
      <trkpt lat="46.98122" lon="8.78759">
        <ele>800</ele>
        <time>2021-08-04T09:25:23.788Z</time>
      </trkpt>
      <trkpt lat="46.98121" lon="8.78759">
        <ele>800</ele>
        <time>2021-08-04T09:25:24.789Z</time>
      </trkpt>
      <trkpt lat="46.98121" lon="8.7876">
        <ele>800</ele>
        <time>2021-08-04T09:25:25.788Z</time>
      </trkpt>
      <trkpt lat="46.9812" lon="8.78761">
        <ele>800</ele>
        <time>2021-08-04T09:25:26.788Z</time>
      </trkpt>
      <trkpt lat="46.98119" lon="8.78761">
        <ele>799</ele>
        <time>2021-08-04T09:25:27.789Z</time>
      </trkpt>
      <trkpt lat="46.98119" lon="8.7876">
        <ele>798</ele>
        <time>2021-08-04T09:25:28.789Z</time>
      </trkpt>
      <trkpt lat="46.98118" lon="8.7876">
        <ele>798</ele>
        <time>2021-08-04T09:25:29.789Z</time>
      </trkpt>
      <trkpt lat="46.98117" lon="8.7876">
        <ele>797</ele>
        <time>2021-08-04T09:25:30.788Z</time>
      </trkpt>
      <trkpt lat="46.98117" lon="8.78759">
        <ele>797</ele>
        <time>2021-08-04T09:25:31.789Z</time>
      </trkpt>
      <trkpt lat="46.98116" lon="8.78759">
        <ele>797</ele>
        <time>2021-08-04T09:25:32.789Z</time>
      </trkpt>
      <trkpt lat="46.98116" lon="8.78758">
        <ele>797</ele>
        <time>2021-08-04T09:25:33.789Z</time>
      </trkpt>
      <trkpt lat="46.98115" lon="8.78758">
        <ele>797</ele>
        <time>2021-08-04T09:25:34.789Z</time>
      </trkpt>
      <trkpt lat="46.98115" lon="8.78757">
        <ele>797</ele>
        <time>2021-08-04T09:25:35.789Z</time>
      </trkpt>
      <trkpt lat="46.98114" lon="8.78757">
        <ele>796</ele>
        <time>2021-08-04T09:25:36.789Z</time>
      </trkpt>
      <trkpt lat="46.98114" lon="8.78756">
        <ele>795</ele>
        <time>2021-08-04T09:25:37.788Z</time>
      </trkpt>
      <trkpt lat="46.98113" lon="8.78756">
        <ele>794</ele>
        <time>2021-08-04T09:25:38.788Z</time>
      </trkpt>
      <trkpt lat="46.98113" lon="8.78755">
        <ele>793</ele>
        <time>2021-08-04T09:25:39.789Z</time>
      </trkpt>
      <trkpt lat="46.98113" lon="8.78754">
        <ele>793</ele>
        <time>2021-08-04T09:25:40.789Z</time>
      </trkpt>
      <trkpt lat="46.98112" lon="8.78753">
        <ele>792</ele>
        <time>2021-08-04T09:25:41.789Z</time>
      </trkpt>
      <trkpt lat="46.98112" lon="8.78752">
        <ele>791</ele>
        <time>2021-08-04T09:25:42.789Z</time>
      </trkpt>
      <trkpt lat="46.98112" lon="8.78751">
        <ele>791</ele>
        <time>2021-08-04T09:25:43.788Z</time>
      </trkpt>
      <trkpt lat="46.98111" lon="8.7875">
        <ele>791</ele>
        <time>2021-08-04T09:25:44.789Z</time>
      </trkpt>
      <trkpt lat="46.98111" lon="8.78748">
        <ele>790</ele>
        <time>2021-08-04T09:25:45.789Z</time>
      </trkpt>
      <trkpt lat="46.98111" lon="8.78747">
        <ele>790</ele>
        <time>2021-08-04T09:25:46.788Z</time>
      </trkpt>
      <trkpt lat="46.98111" lon="8.78746">
        <ele>790</ele>
        <time>2021-08-04T09:25:47.789Z</time>
      </trkpt>
      <trkpt lat="46.9811" lon="8.78745">
        <ele>790</ele>
        <time>2021-08-04T09:25:48.789Z</time>
      </trkpt>
      <trkpt lat="46.9811" lon="8.78743">
        <ele>789</ele>
        <time>2021-08-04T09:25:49.788Z</time>
      </trkpt>
      <trkpt lat="46.9811" lon="8.7874">
        <ele>789</ele>
        <time>2021-08-04T09:25:50.789Z</time>
      </trkpt>
      <trkpt lat="46.98109" lon="8.78738">
        <ele>789</ele>
        <time>2021-08-04T09:25:51.789Z</time>
      </trkpt>
      <trkpt lat="46.98109" lon="8.78736">
        <ele>789</ele>
        <time>2021-08-04T09:25:52.789Z</time>
      </trkpt>
      <trkpt lat="46.98109" lon="8.78734">
        <ele>789</ele>
        <time>2021-08-04T09:25:53.788Z</time>
      </trkpt>
      <trkpt lat="46.98109" lon="8.78733">
        <ele>789</ele>
        <time>2021-08-04T09:25:54.788Z</time>
      </trkpt>
      <trkpt lat="46.98109" lon="8.78732">
        <ele>789</ele>
        <time>2021-08-04T09:25:55.789Z</time>
      </trkpt>
      <trkpt lat="46.9811" lon="8.78731">
        <ele>789</ele>
        <time>2021-08-04T09:25:56.789Z</time>
      </trkpt>
      <trkpt lat="46.9811" lon="8.78729">
        <ele>789</ele>
        <time>2021-08-04T09:25:57.789Z</time>
      </trkpt>
      <trkpt lat="46.98111" lon="8.78728">
        <ele>789</ele>
        <time>2021-08-04T09:25:58.789Z</time>
      </trkpt>
      <trkpt lat="46.9811" lon="8.78727">
        <ele>789</ele>
        <time>2021-08-04T09:25:59.789Z</time>
      </trkpt>
      <trkpt lat="46.9811" lon="8.78725">
        <ele>788</ele>
        <time>2021-08-04T09:26:00.788Z</time>
      </trkpt>
      <trkpt lat="46.98111" lon="8.78724">
        <ele>788</ele>
        <time>2021-08-04T09:26:01.788Z</time>
      </trkpt>
      <trkpt lat="46.98111" lon="8.78723">
        <ele>788</ele>
        <time>2021-08-04T09:26:02.788Z</time>
      </trkpt>
      <trkpt lat="46.98111" lon="8.78721">
        <ele>788</ele>
        <time>2021-08-04T09:26:03.788Z</time>
      </trkpt>
      <trkpt lat="46.98111" lon="8.78719">
        <ele>787</ele>
        <time>2021-08-04T09:26:07.878Z</time>
      </trkpt>
      <trkpt lat="46.98111" lon="8.78718">
        <ele>787</ele>
        <time>2021-08-04T09:26:08.878Z</time>
      </trkpt>
      <trkpt lat="46.98112" lon="8.78716">
        <ele>786</ele>
        <time>2021-08-04T09:26:09.878Z</time>
      </trkpt>
      <trkpt lat="46.98112" lon="8.78715">
        <ele>786</ele>
        <time>2021-08-04T09:26:12.897Z</time>
      </trkpt>
      <trkpt lat="46.98112" lon="8.78714">
        <ele>786</ele>
        <time>2021-08-04T09:26:13.898Z</time>
      </trkpt>
      <trkpt lat="46.98113" lon="8.78713">
        <ele>785</ele>
        <time>2021-08-04T09:26:14.897Z</time>
      </trkpt>
      <trkpt lat="46.98113" lon="8.78711">
        <ele>785</ele>
        <time>2021-08-04T09:26:15.898Z</time>
      </trkpt>
      <trkpt lat="46.98113" lon="8.7871">
        <ele>785</ele>
        <time>2021-08-04T09:26:16.898Z</time>
      </trkpt>
      <trkpt lat="46.98113" lon="8.78708">
        <ele>784</ele>
        <time>2021-08-04T09:26:17.898Z</time>
      </trkpt>
      <trkpt lat="46.98113" lon="8.78707">
        <ele>784</ele>
        <time>2021-08-04T09:26:18.898Z</time>
      </trkpt>
      <trkpt lat="46.98112" lon="8.78706">
        <ele>784</ele>
        <time>2021-08-04T09:26:19.897Z</time>
      </trkpt>
      <trkpt lat="46.98111" lon="8.78706">
        <ele>783</ele>
        <time>2021-08-04T09:26:20.898Z</time>
      </trkpt>
      <trkpt lat="46.9811" lon="8.78707">
        <ele>783</ele>
        <time>2021-08-04T09:26:21.898Z</time>
      </trkpt>
      <trkpt lat="46.98109" lon="8.78708">
        <ele>782</ele>
        <time>2021-08-04T09:26:22.898Z</time>
      </trkpt>
      <trkpt lat="46.98109" lon="8.78708">
        <ele>781</ele>
        <time>2021-08-04T09:26:23.898Z</time>
      </trkpt>
      <trkpt lat="46.98108" lon="8.78709">
        <ele>780</ele>
        <time>2021-08-04T09:26:24.898Z</time>
      </trkpt>
      <trkpt lat="46.98107" lon="8.7871">
        <ele>779</ele>
        <time>2021-08-04T09:26:25.897Z</time>
      </trkpt>
      <trkpt lat="46.98106" lon="8.7871">
        <ele>778</ele>
        <time>2021-08-04T09:26:26.897Z</time>
      </trkpt>
      <trkpt lat="46.98106" lon="8.7871">
        <ele>778</ele>
        <time>2021-08-04T09:26:27.897Z</time>
      </trkpt>
      <trkpt lat="46.98106" lon="8.7871">
        <ele>777</ele>
        <time>2021-08-04T09:26:28.898Z</time>
      </trkpt>
      <trkpt lat="46.98105" lon="8.78709">
        <ele>777</ele>
        <time>2021-08-04T09:26:29.897Z</time>
      </trkpt>
      <trkpt lat="46.98104" lon="8.78708">
        <ele>777</ele>
        <time>2021-08-04T09:26:30.897Z</time>
      </trkpt>
      <trkpt lat="46.98103" lon="8.78708">
        <ele>776</ele>
        <time>2021-08-04T09:26:31.898Z</time>
      </trkpt>
      <trkpt lat="46.98102" lon="8.78708">
        <ele>776</ele>
        <time>2021-08-04T09:26:32.898Z</time>
      </trkpt>
      <trkpt lat="46.98101" lon="8.78709">
        <ele>776</ele>
        <time>2021-08-04T09:26:33.897Z</time>
      </trkpt>
      <trkpt lat="46.98101" lon="8.78709">
        <ele>776</ele>
        <time>2021-08-04T09:26:34.897Z</time>
      </trkpt>
      <trkpt lat="46.981" lon="8.78709">
        <ele>776</ele>
        <time>2021-08-04T09:26:35.897Z</time>
      </trkpt>
      <trkpt lat="46.98099" lon="8.7871">
        <ele>775</ele>
        <time>2021-08-04T09:26:36.897Z</time>
      </trkpt>
      <trkpt lat="46.98098" lon="8.78711">
        <ele>775</ele>
        <time>2021-08-04T09:26:37.897Z</time>
      </trkpt>
      <trkpt lat="46.98098" lon="8.78711">
        <ele>775</ele>
        <time>2021-08-04T09:26:38.898Z</time>
      </trkpt>
      <trkpt lat="46.98097" lon="8.78712">
        <ele>775</ele>
        <time>2021-08-04T09:26:39.898Z</time>
      </trkpt>
      <trkpt lat="46.98096" lon="8.78713">
        <ele>774</ele>
        <time>2021-08-04T09:26:40.897Z</time>
      </trkpt>
      <trkpt lat="46.98095" lon="8.78713">
        <ele>774</ele>
        <time>2021-08-04T09:26:41.897Z</time>
      </trkpt>
      <trkpt lat="46.98095" lon="8.78714">
        <ele>774</ele>
        <time>2021-08-04T09:26:42.897Z</time>
      </trkpt>
      <trkpt lat="46.98094" lon="8.78714">
        <ele>774</ele>
        <time>2021-08-04T09:26:43.897Z</time>
      </trkpt>
      <trkpt lat="46.98094" lon="8.78715">
        <ele>774</ele>
        <time>2021-08-04T09:26:44.897Z</time>
      </trkpt>
      <trkpt lat="46.98093" lon="8.78715">
        <ele>774</ele>
        <time>2021-08-04T09:26:45.897Z</time>
      </trkpt>
      <trkpt lat="46.98093" lon="8.78715">
        <ele>774</ele>
        <time>2021-08-04T09:26:46.898Z</time>
      </trkpt>
      <trkpt lat="46.98092" lon="8.78715">
        <ele>774</ele>
        <time>2021-08-04T09:26:47.897Z</time>
      </trkpt>
      <trkpt lat="46.98091" lon="8.78715">
        <ele>774</ele>
        <time>2021-08-04T09:26:48.897Z</time>
      </trkpt>
      <trkpt lat="46.9809" lon="8.78715">
        <ele>773</ele>
        <time>2021-08-04T09:26:49.897Z</time>
      </trkpt>
      <trkpt lat="46.9809" lon="8.78715">
        <ele>773</ele>
        <time>2021-08-04T09:26:50.897Z</time>
      </trkpt>
      <trkpt lat="46.9809" lon="8.78714">
        <ele>773</ele>
        <time>2021-08-04T09:26:51.897Z</time>
      </trkpt>
      <trkpt lat="46.9809" lon="8.78713">
        <ele>773</ele>
        <time>2021-08-04T09:26:52.897Z</time>
      </trkpt>
      <trkpt lat="46.98089" lon="8.78713">
        <ele>773</ele>
        <time>2021-08-04T09:26:53.898Z</time>
      </trkpt>
      <trkpt lat="46.98089" lon="8.78712">
        <ele>773</ele>
        <time>2021-08-04T09:26:54.897Z</time>
      </trkpt>
      <trkpt lat="46.9809" lon="8.78712">
        <ele>772</ele>
        <time>2021-08-04T09:26:55.898Z</time>
      </trkpt>
      <trkpt lat="46.9809" lon="8.78711">
        <ele>772</ele>
        <time>2021-08-04T09:26:56.898Z</time>
      </trkpt>
      <trkpt lat="46.98091" lon="8.7871">
        <ele>772</ele>
        <time>2021-08-04T09:26:57.897Z</time>
      </trkpt>
      <trkpt lat="46.98091" lon="8.78709">
        <ele>771</ele>
        <time>2021-08-04T09:26:58.898Z</time>
      </trkpt>
      <trkpt lat="46.98091" lon="8.78708">
        <ele>771</ele>
        <time>2021-08-04T09:26:59.897Z</time>
      </trkpt>
      <trkpt lat="46.98091" lon="8.78708">
        <ele>771</ele>
        <time>2021-08-04T09:27:00.898Z</time>
      </trkpt>
      <trkpt lat="46.9809" lon="8.78708">
        <ele>771</ele>
        <time>2021-08-04T09:27:01.898Z</time>
      </trkpt>
      <trkpt lat="46.98089" lon="8.78707">
        <ele>771</ele>
        <time>2021-08-04T09:27:02.897Z</time>
      </trkpt>
      <trkpt lat="46.98088" lon="8.78707">
        <ele>771</ele>
        <time>2021-08-04T09:27:03.898Z</time>
      </trkpt>
      <trkpt lat="46.98088" lon="8.78706">
        <ele>771</ele>
        <time>2021-08-04T09:27:04.898Z</time>
      </trkpt>
      <trkpt lat="46.98088" lon="8.78705">
        <ele>770</ele>
        <time>2021-08-04T09:27:05.897Z</time>
      </trkpt>
      <trkpt lat="46.98088" lon="8.78704">
        <ele>770</ele>
        <time>2021-08-04T09:27:06.898Z</time>
      </trkpt>
      <trkpt lat="46.98089" lon="8.78701">
        <ele>769</ele>
        <time>2021-08-04T09:27:07.899Z</time>
      </trkpt>
      <trkpt lat="46.98089" lon="8.78699">
        <ele>768</ele>
        <time>2021-08-04T09:27:08.900Z</time>
      </trkpt>
      <trkpt lat="46.98089" lon="8.78695">
        <ele>769</ele>
        <time>2021-08-04T09:27:09.901Z</time>
      </trkpt>
      <trkpt lat="46.98089" lon="8.78694">
        <ele>770</ele>
        <time>2021-08-04T09:27:10.900Z</time>
      </trkpt>
      <trkpt lat="46.98089" lon="8.78693">
        <ele>770</ele>
        <time>2021-08-04T09:27:11.900Z</time>
      </trkpt>
      <trkpt lat="46.98089" lon="8.78692">
        <ele>771</ele>
        <time>2021-08-04T09:27:12.901Z</time>
      </trkpt>
      <trkpt lat="46.98088" lon="8.7869">
        <ele>771</ele>
        <time>2021-08-04T09:27:13.900Z</time>
      </trkpt>
      <trkpt lat="46.98088" lon="8.78689">
        <ele>772</ele>
        <time>2021-08-04T09:27:14.901Z</time>
      </trkpt>
      <trkpt lat="46.98089" lon="8.78688">
        <ele>772</ele>
        <time>2021-08-04T09:27:15.901Z</time>
      </trkpt>
      <trkpt lat="46.98089" lon="8.78687">
        <ele>772</ele>
        <time>2021-08-04T09:27:16.901Z</time>
      </trkpt>
      <trkpt lat="46.9809" lon="8.78687">
        <ele>772</ele>
        <time>2021-08-04T09:27:17.900Z</time>
      </trkpt>
      <trkpt lat="46.98091" lon="8.78687">
        <ele>772</ele>
        <time>2021-08-04T09:27:18.900Z</time>
      </trkpt>
      <trkpt lat="46.98092" lon="8.78687">
        <ele>772</ele>
        <time>2021-08-04T09:27:19.900Z</time>
      </trkpt>
      <trkpt lat="46.98092" lon="8.78686">
        <ele>772</ele>
        <time>2021-08-04T09:27:20.900Z</time>
      </trkpt>
      <trkpt lat="46.98093" lon="8.78686">
        <ele>771</ele>
        <time>2021-08-04T09:27:21.901Z</time>
      </trkpt>
      <trkpt lat="46.98092" lon="8.78685">
        <ele>770</ele>
        <time>2021-08-04T09:27:22.900Z</time>
      </trkpt>
      <trkpt lat="46.98092" lon="8.78684">
        <ele>770</ele>
        <time>2021-08-04T09:27:23.900Z</time>
      </trkpt>
      <trkpt lat="46.98092" lon="8.78682">
        <ele>770</ele>
        <time>2021-08-04T09:27:24.900Z</time>
      </trkpt>
      <trkpt lat="46.98092" lon="8.78681">
        <ele>769</ele>
        <time>2021-08-04T09:27:25.900Z</time>
      </trkpt>
      <trkpt lat="46.98092" lon="8.7868">
        <ele>769</ele>
        <time>2021-08-04T09:27:26.900Z</time>
      </trkpt>
      <trkpt lat="46.98093" lon="8.78679">
        <ele>769</ele>
        <time>2021-08-04T09:27:27.900Z</time>
      </trkpt>
      <trkpt lat="46.98093" lon="8.78678">
        <ele>769</ele>
        <time>2021-08-04T09:27:28.900Z</time>
      </trkpt>
      <trkpt lat="46.98094" lon="8.78677">
        <ele>769</ele>
        <time>2021-08-04T09:27:29.900Z</time>
      </trkpt>
      <trkpt lat="46.98094" lon="8.78676">
        <ele>769</ele>
        <time>2021-08-04T09:27:30.900Z</time>
      </trkpt>
      <trkpt lat="46.98094" lon="8.78674">
        <ele>768</ele>
        <time>2021-08-04T09:27:31.900Z</time>
      </trkpt>
      <trkpt lat="46.98095" lon="8.78672">
        <ele>768</ele>
        <time>2021-08-04T09:27:32.900Z</time>
      </trkpt>
      <trkpt lat="46.98095" lon="8.78671">
        <ele>768</ele>
        <time>2021-08-04T09:27:33.900Z</time>
      </trkpt>
      <trkpt lat="46.98094" lon="8.7867">
        <ele>767</ele>
        <time>2021-08-04T09:27:34.900Z</time>
      </trkpt>
      <trkpt lat="46.98094" lon="8.78669">
        <ele>767</ele>
        <time>2021-08-04T09:27:35.900Z</time>
      </trkpt>
      <trkpt lat="46.98094" lon="8.78669">
        <ele>766</ele>
        <time>2021-08-04T09:27:36.900Z</time>
      </trkpt>
      <trkpt lat="46.98094" lon="8.78668">
        <ele>766</ele>
        <time>2021-08-04T09:27:37.901Z</time>
      </trkpt>
      <trkpt lat="46.98094" lon="8.78667">
        <ele>766</ele>
        <time>2021-08-04T09:27:38.900Z</time>
      </trkpt>
      <trkpt lat="46.98094" lon="8.78667">
        <ele>766</ele>
        <time>2021-08-04T09:27:39.900Z</time>
      </trkpt>
      <trkpt lat="46.98094" lon="8.78666">
        <ele>766</ele>
        <time>2021-08-04T09:27:40.900Z</time>
      </trkpt>
      <trkpt lat="46.98094" lon="8.78666">
        <ele>766</ele>
        <time>2021-08-04T09:27:41.900Z</time>
      </trkpt>
      <trkpt lat="46.98094" lon="8.78665">
        <ele>765</ele>
        <time>2021-08-04T09:27:42.900Z</time>
      </trkpt>
      <trkpt lat="46.98094" lon="8.78664">
        <ele>765</ele>
        <time>2021-08-04T09:27:43.900Z</time>
      </trkpt>
      <trkpt lat="46.98093" lon="8.78663">
        <ele>764</ele>
        <time>2021-08-04T09:27:44.900Z</time>
      </trkpt>
      <trkpt lat="46.98093" lon="8.78661">
        <ele>764</ele>
        <time>2021-08-04T09:27:45.901Z</time>
      </trkpt>
      <trkpt lat="46.98093" lon="8.7866">
        <ele>763</ele>
        <time>2021-08-04T09:27:46.900Z</time>
      </trkpt>
      <trkpt lat="46.98093" lon="8.78659">
        <ele>763</ele>
        <time>2021-08-04T09:27:47.901Z</time>
      </trkpt>
      <trkpt lat="46.98092" lon="8.78658">
        <ele>763</ele>
        <time>2021-08-04T09:27:48.901Z</time>
      </trkpt>
      <trkpt lat="46.98092" lon="8.78658">
        <ele>763</ele>
        <time>2021-08-04T09:27:49.900Z</time>
      </trkpt>
      <trkpt lat="46.9809" lon="8.78658">
        <ele>761</ele>
        <time>2021-08-04T09:27:50.900Z</time>
      </trkpt>
      <trkpt lat="46.9809" lon="8.78657">
        <ele>761</ele>
        <time>2021-08-04T09:27:51.901Z</time>
      </trkpt>
      <trkpt lat="46.98089" lon="8.78656">
        <ele>761</ele>
        <time>2021-08-04T09:27:52.900Z</time>
      </trkpt>
      <trkpt lat="46.98089" lon="8.78655">
        <ele>761</ele>
        <time>2021-08-04T09:27:53.900Z</time>
      </trkpt>
      <trkpt lat="46.98088" lon="8.78654">
        <ele>760</ele>
        <time>2021-08-04T09:27:54.900Z</time>
      </trkpt>
      <trkpt lat="46.98088" lon="8.78654">
        <ele>760</ele>
        <time>2021-08-04T09:27:55.900Z</time>
      </trkpt>
      <trkpt lat="46.98087" lon="8.78653">
        <ele>760</ele>
        <time>2021-08-04T09:27:56.901Z</time>
      </trkpt>
      <trkpt lat="46.98086" lon="8.78653">
        <ele>760</ele>
        <time>2021-08-04T09:27:57.901Z</time>
      </trkpt>
      <trkpt lat="46.98086" lon="8.78653">
        <ele>760</ele>
        <time>2021-08-04T09:27:58.901Z</time>
      </trkpt>
      <trkpt lat="46.98085" lon="8.78653">
        <ele>760</ele>
        <time>2021-08-04T09:27:59.901Z</time>
      </trkpt>
      <trkpt lat="46.98084" lon="8.78653">
        <ele>760</ele>
        <time>2021-08-04T09:28:00.901Z</time>
      </trkpt>
      <trkpt lat="46.98083" lon="8.78652">
        <ele>761</ele>
        <time>2021-08-04T09:28:01.901Z</time>
      </trkpt>
      <trkpt lat="46.98082" lon="8.78652">
        <ele>761</ele>
        <time>2021-08-04T09:28:02.901Z</time>
      </trkpt>
      <trkpt lat="46.98081" lon="8.78651">
        <ele>761</ele>
        <time>2021-08-04T09:28:03.900Z</time>
      </trkpt>
      <trkpt lat="46.98081" lon="8.78651">
        <ele>761</ele>
        <time>2021-08-04T09:28:04.900Z</time>
      </trkpt>
      <trkpt lat="46.9808" lon="8.78651">
        <ele>761</ele>
        <time>2021-08-04T09:28:05.900Z</time>
      </trkpt>
      <trkpt lat="46.98079" lon="8.78651">
        <ele>761</ele>
        <time>2021-08-04T09:28:06.900Z</time>
      </trkpt>
      <trkpt lat="46.98078" lon="8.78651">
        <ele>762</ele>
        <time>2021-08-04T09:28:07.900Z</time>
      </trkpt>
      <trkpt lat="46.98078" lon="8.78652">
        <ele>762</ele>
        <time>2021-08-04T09:28:08.901Z</time>
      </trkpt>
      <trkpt lat="46.98077" lon="8.78652">
        <ele>762</ele>
        <time>2021-08-04T09:28:09.901Z</time>
      </trkpt>
      <trkpt lat="46.98077" lon="8.78652">
        <ele>762</ele>
        <time>2021-08-04T09:28:10.901Z</time>
      </trkpt>
      <trkpt lat="46.98076" lon="8.78652">
        <ele>761</ele>
        <time>2021-08-04T09:28:11.900Z</time>
      </trkpt>
      <trkpt lat="46.98075" lon="8.78653">
        <ele>761</ele>
        <time>2021-08-04T09:28:12.900Z</time>
      </trkpt>
      <trkpt lat="46.98074" lon="8.78653">
        <ele>761</ele>
        <time>2021-08-04T09:28:13.901Z</time>
      </trkpt>
      <trkpt lat="46.98073" lon="8.78653">
        <ele>760</ele>
        <time>2021-08-04T09:28:14.901Z</time>
      </trkpt>
      <trkpt lat="46.98073" lon="8.78653">
        <ele>760</ele>
        <time>2021-08-04T09:28:15.901Z</time>
      </trkpt>
      <trkpt lat="46.98072" lon="8.78653">
        <ele>759</ele>
        <time>2021-08-04T09:28:16.901Z</time>
      </trkpt>
      <trkpt lat="46.98071" lon="8.78653">
        <ele>759</ele>
        <time>2021-08-04T09:28:17.900Z</time>
      </trkpt>
      <trkpt lat="46.98071" lon="8.78652">
        <ele>759</ele>
        <time>2021-08-04T09:28:18.901Z</time>
      </trkpt>
      <trkpt lat="46.9807" lon="8.78652">
        <ele>758</ele>
        <time>2021-08-04T09:28:19.900Z</time>
      </trkpt>
      <trkpt lat="46.9807" lon="8.78653">
        <ele>758</ele>
        <time>2021-08-04T09:28:20.901Z</time>
      </trkpt>
      <trkpt lat="46.9807" lon="8.78652">
        <ele>758</ele>
        <time>2021-08-04T09:28:21.901Z</time>
      </trkpt>
      <trkpt lat="46.98071" lon="8.78652">
        <ele>758</ele>
        <time>2021-08-04T09:28:22.901Z</time>
      </trkpt>
      <trkpt lat="46.98071" lon="8.78651">
        <ele>758</ele>
        <time>2021-08-04T09:28:23.900Z</time>
      </trkpt>
      <trkpt lat="46.98072" lon="8.78651">
        <ele>758</ele>
        <time>2021-08-04T09:28:24.901Z</time>
      </trkpt>
      <trkpt lat="46.98074" lon="8.78648">
        <ele>756</ele>
        <time>2021-08-04T09:28:25.902Z</time>
      </trkpt>
      <trkpt lat="46.98075" lon="8.78647">
        <ele>756</ele>
        <time>2021-08-04T09:28:26.902Z</time>
      </trkpt>
      <trkpt lat="46.98076" lon="8.78646">
        <ele>755</ele>
        <time>2021-08-04T09:28:27.901Z</time>
      </trkpt>
      <trkpt lat="46.98077" lon="8.78645">
        <ele>754</ele>
        <time>2021-08-04T09:28:28.902Z</time>
      </trkpt>
      <trkpt lat="46.98077" lon="8.78644">
        <ele>754</ele>
        <time>2021-08-04T09:28:29.902Z</time>
      </trkpt>
      <trkpt lat="46.98077" lon="8.78643">
        <ele>753</ele>
        <time>2021-08-04T09:28:30.901Z</time>
      </trkpt>
      <trkpt lat="46.98077" lon="8.78644">
        <ele>753</ele>
        <time>2021-08-04T09:28:31.901Z</time>
      </trkpt>
      <trkpt lat="46.98076" lon="8.78646">
        <ele>753</ele>
        <time>2021-08-04T09:28:32.902Z</time>
      </trkpt>
      <trkpt lat="46.98075" lon="8.78647">
        <ele>753</ele>
        <time>2021-08-04T09:28:33.902Z</time>
      </trkpt>
      <trkpt lat="46.98075" lon="8.78648">
        <ele>753</ele>
        <time>2021-08-04T09:28:34.902Z</time>
      </trkpt>
      <trkpt lat="46.98075" lon="8.78647">
        <ele>753</ele>
        <time>2021-08-04T09:28:35.902Z</time>
      </trkpt>
      <trkpt lat="46.98075" lon="8.78648">
        <ele>753</ele>
        <time>2021-08-04T09:28:36.901Z</time>
      </trkpt>
      <trkpt lat="46.98075" lon="8.78648">
        <ele>753</ele>
        <time>2021-08-04T09:28:37.902Z</time>
      </trkpt>
      <trkpt lat="46.98075" lon="8.78648">
        <ele>754</ele>
        <time>2021-08-04T09:28:38.901Z</time>
      </trkpt>
      <trkpt lat="46.98074" lon="8.78647">
        <ele>755</ele>
        <time>2021-08-04T09:28:39.901Z</time>
      </trkpt>
      <trkpt lat="46.98074" lon="8.78647">
        <ele>755</ele>
        <time>2021-08-04T09:28:40.902Z</time>
      </trkpt>
      <trkpt lat="46.98074" lon="8.78648">
        <ele>755</ele>
        <time>2021-08-04T09:28:41.901Z</time>
      </trkpt>
      <trkpt lat="46.98073" lon="8.78649">
        <ele>756</ele>
        <time>2021-08-04T09:28:42.902Z</time>
      </trkpt>
      <trkpt lat="46.98073" lon="8.7865">
        <ele>756</ele>
        <time>2021-08-04T09:28:43.902Z</time>
      </trkpt>
      <trkpt lat="46.98072" lon="8.7865">
        <ele>755</ele>
        <time>2021-08-04T09:28:44.902Z</time>
      </trkpt>
      <trkpt lat="46.98071" lon="8.7865">
        <ele>755</ele>
        <time>2021-08-04T09:28:45.901Z</time>
      </trkpt>
      <trkpt lat="46.98071" lon="8.7865">
        <ele>755</ele>
        <time>2021-08-04T09:28:46.902Z</time>
      </trkpt>
      <trkpt lat="46.98069" lon="8.7865">
        <ele>755</ele>
        <time>2021-08-04T09:28:47.902Z</time>
      </trkpt>
      <trkpt lat="46.98068" lon="8.78649">
        <ele>755</ele>
        <time>2021-08-04T09:28:48.902Z</time>
      </trkpt>
      <trkpt lat="46.98068" lon="8.78649">
        <ele>755</ele>
        <time>2021-08-04T09:28:49.902Z</time>
      </trkpt>
      <trkpt lat="46.98067" lon="8.78649">
        <ele>755</ele>
        <time>2021-08-04T09:28:50.901Z</time>
      </trkpt>
      <trkpt lat="46.98066" lon="8.7865">
        <ele>755</ele>
        <time>2021-08-04T09:28:51.901Z</time>
      </trkpt>
      <trkpt lat="46.98066" lon="8.7865">
        <ele>755</ele>
        <time>2021-08-04T09:28:52.901Z</time>
      </trkpt>
      <trkpt lat="46.98065" lon="8.7865">
        <ele>755</ele>
        <time>2021-08-04T09:28:53.902Z</time>
      </trkpt>
      <trkpt lat="46.98062" lon="8.7865">
        <ele>754</ele>
        <time>2021-08-04T09:28:54.903Z</time>
      </trkpt>
      <trkpt lat="46.98062" lon="8.7865">
        <ele>754</ele>
        <time>2021-08-04T09:28:55.902Z</time>
      </trkpt>
      <trkpt lat="46.98061" lon="8.7865">
        <ele>754</ele>
        <time>2021-08-04T09:28:56.903Z</time>
      </trkpt>
      <trkpt lat="46.98061" lon="8.7865">
        <ele>754</ele>
        <time>2021-08-04T09:28:57.903Z</time>
      </trkpt>
      <trkpt lat="46.9806" lon="8.78649">
        <ele>754</ele>
        <time>2021-08-04T09:28:58.903Z</time>
      </trkpt>
      <trkpt lat="46.9806" lon="8.78649">
        <ele>754</ele>
        <time>2021-08-04T09:28:59.903Z</time>
      </trkpt>
      <trkpt lat="46.98059" lon="8.78649">
        <ele>754</ele>
        <time>2021-08-04T09:29:00.903Z</time>
      </trkpt>
      <trkpt lat="46.98059" lon="8.78649">
        <ele>753</ele>
        <time>2021-08-04T09:29:01.903Z</time>
      </trkpt>
      <trkpt lat="46.9806" lon="8.78649">
        <ele>753</ele>
        <time>2021-08-04T09:29:02.902Z</time>
      </trkpt>
      <trkpt lat="46.9806" lon="8.78649">
        <ele>752</ele>
        <time>2021-08-04T09:29:03.902Z</time>
      </trkpt>
      <trkpt lat="46.9806" lon="8.78648">
        <ele>751</ele>
        <time>2021-08-04T09:29:04.903Z</time>
      </trkpt>
      <trkpt lat="46.9806" lon="8.78648">
        <ele>751</ele>
        <time>2021-08-04T09:29:05.903Z</time>
      </trkpt>
      <trkpt lat="46.9806" lon="8.78648">
        <ele>751</ele>
        <time>2021-08-04T09:29:06.903Z</time>
      </trkpt>
      <trkpt lat="46.98059" lon="8.78647">
        <ele>750</ele>
        <time>2021-08-04T09:29:07.903Z</time>
      </trkpt>
      <trkpt lat="46.98059" lon="8.78647">
        <ele>750</ele>
        <time>2021-08-04T09:29:08.902Z</time>
      </trkpt>
      <trkpt lat="46.98058" lon="8.78646">
        <ele>750</ele>
        <time>2021-08-04T09:29:09.903Z</time>
      </trkpt>
      <trkpt lat="46.98057" lon="8.78645">
        <ele>750</ele>
        <time>2021-08-04T09:29:10.903Z</time>
      </trkpt>
      <trkpt lat="46.98055" lon="8.78644">
        <ele>749</ele>
        <time>2021-08-04T09:29:11.903Z</time>
      </trkpt>
      <trkpt lat="46.98054" lon="8.78644">
        <ele>749</ele>
        <time>2021-08-04T09:29:12.903Z</time>
      </trkpt>
      <trkpt lat="46.98053" lon="8.78644">
        <ele>749</ele>
        <time>2021-08-04T09:29:13.903Z</time>
      </trkpt>
      <trkpt lat="46.98052" lon="8.78643">
        <ele>749</ele>
        <time>2021-08-04T09:29:14.903Z</time>
      </trkpt>
      <trkpt lat="46.9805" lon="8.78643">
        <ele>749</ele>
        <time>2021-08-04T09:29:15.903Z</time>
      </trkpt>
      <trkpt lat="46.9805" lon="8.78643">
        <ele>748</ele>
        <time>2021-08-04T09:29:16.903Z</time>
      </trkpt>
      <trkpt lat="46.98049" lon="8.78644">
        <ele>747</ele>
        <time>2021-08-04T09:29:17.903Z</time>
      </trkpt>
      <trkpt lat="46.98049" lon="8.78644">
        <ele>746</ele>
        <time>2021-08-04T09:29:18.903Z</time>
      </trkpt>
      <trkpt lat="46.98048" lon="8.78644">
        <ele>746</ele>
        <time>2021-08-04T09:29:19.902Z</time>
      </trkpt>
      <trkpt lat="46.98048" lon="8.78644">
        <ele>745</ele>
        <time>2021-08-04T09:29:20.903Z</time>
      </trkpt>
      <trkpt lat="46.98047" lon="8.78644">
        <ele>745</ele>
        <time>2021-08-04T09:29:21.903Z</time>
      </trkpt>
      <trkpt lat="46.98046" lon="8.78644">
        <ele>745</ele>
        <time>2021-08-04T09:29:22.902Z</time>
      </trkpt>
      <trkpt lat="46.98046" lon="8.78644">
        <ele>745</ele>
        <time>2021-08-04T09:29:23.903Z</time>
      </trkpt>
      <trkpt lat="46.98045" lon="8.78643">
        <ele>745</ele>
        <time>2021-08-04T09:29:24.903Z</time>
      </trkpt>
      <trkpt lat="46.98044" lon="8.78643">
        <ele>745</ele>
        <time>2021-08-04T09:29:25.902Z</time>
      </trkpt>
      <trkpt lat="46.98044" lon="8.78643">
        <ele>745</ele>
        <time>2021-08-04T09:29:26.903Z</time>
      </trkpt>
      <trkpt lat="46.98043" lon="8.78643">
        <ele>746</ele>
        <time>2021-08-04T09:29:27.903Z</time>
      </trkpt>
      <trkpt lat="46.98042" lon="8.78643">
        <ele>746</ele>
        <time>2021-08-04T09:29:28.903Z</time>
      </trkpt>
      <trkpt lat="46.98041" lon="8.78643">
        <ele>746</ele>
        <time>2021-08-04T09:29:29.902Z</time>
      </trkpt>
      <trkpt lat="46.98041" lon="8.78644">
        <ele>747</ele>
        <time>2021-08-04T09:29:30.903Z</time>
      </trkpt>
      <trkpt lat="46.9804" lon="8.78644">
        <ele>747</ele>
        <time>2021-08-04T09:29:31.903Z</time>
      </trkpt>
      <trkpt lat="46.9804" lon="8.78644">
        <ele>747</ele>
        <time>2021-08-04T09:29:32.903Z</time>
      </trkpt>
      <trkpt lat="46.98039" lon="8.78644">
        <ele>746</ele>
        <time>2021-08-04T09:29:33.903Z</time>
      </trkpt>
      <trkpt lat="46.98038" lon="8.78644">
        <ele>747</ele>
        <time>2021-08-04T09:29:34.903Z</time>
      </trkpt>
      <trkpt lat="46.98037" lon="8.78643">
        <ele>747</ele>
        <time>2021-08-04T09:29:35.903Z</time>
      </trkpt>
      <trkpt lat="46.98036" lon="8.78643">
        <ele>747</ele>
        <time>2021-08-04T09:29:36.904Z</time>
      </trkpt>
      <trkpt lat="46.98035" lon="8.78643">
        <ele>747</ele>
        <time>2021-08-04T09:29:37.904Z</time>
      </trkpt>
      <trkpt lat="46.98034" lon="8.78643">
        <ele>747</ele>
        <time>2021-08-04T09:29:38.904Z</time>
      </trkpt>
      <trkpt lat="46.98033" lon="8.78643">
        <ele>747</ele>
        <time>2021-08-04T09:29:39.903Z</time>
      </trkpt>
      <trkpt lat="46.98033" lon="8.78643">
        <ele>746</ele>
        <time>2021-08-04T09:29:40.904Z</time>
      </trkpt>
      <trkpt lat="46.98032" lon="8.78644">
        <ele>746</ele>
        <time>2021-08-04T09:29:41.903Z</time>
      </trkpt>
      <trkpt lat="46.98031" lon="8.78644">
        <ele>745</ele>
        <time>2021-08-04T09:29:42.904Z</time>
      </trkpt>
      <trkpt lat="46.9803" lon="8.78645">
        <ele>745</ele>
        <time>2021-08-04T09:29:43.904Z</time>
      </trkpt>
      <trkpt lat="46.9803" lon="8.78645">
        <ele>745</ele>
        <time>2021-08-04T09:29:44.903Z</time>
      </trkpt>
      <trkpt lat="46.9803" lon="8.78646">
        <ele>744</ele>
        <time>2021-08-04T09:29:45.904Z</time>
      </trkpt>
      <trkpt lat="46.9803" lon="8.78645">
        <ele>744</ele>
        <time>2021-08-04T09:29:46.903Z</time>
      </trkpt>
      <trkpt lat="46.9803" lon="8.78645">
        <ele>744</ele>
        <time>2021-08-04T09:29:47.904Z</time>
      </trkpt>
      <trkpt lat="46.98029" lon="8.78646">
        <ele>744</ele>
        <time>2021-08-04T09:29:48.904Z</time>
      </trkpt>
      <trkpt lat="46.98029" lon="8.78646">
        <ele>743</ele>
        <time>2021-08-04T09:29:49.904Z</time>
      </trkpt>
      <trkpt lat="46.98028" lon="8.78647">
        <ele>743</ele>
        <time>2021-08-04T09:29:50.904Z</time>
      </trkpt>
      <trkpt lat="46.98028" lon="8.78648">
        <ele>742</ele>
        <time>2021-08-04T09:29:51.904Z</time>
      </trkpt>
      <trkpt lat="46.98027" lon="8.78649">
        <ele>742</ele>
        <time>2021-08-04T09:29:52.904Z</time>
      </trkpt>
      <trkpt lat="46.98026" lon="8.78649">
        <ele>741</ele>
        <time>2021-08-04T09:29:53.903Z</time>
      </trkpt>
      <trkpt lat="46.98026" lon="8.78649">
        <ele>741</ele>
        <time>2021-08-04T09:29:54.904Z</time>
      </trkpt>
      <trkpt lat="46.98025" lon="8.78649">
        <ele>741</ele>
        <time>2021-08-04T09:29:55.904Z</time>
      </trkpt>
      <trkpt lat="46.98025" lon="8.78649">
        <ele>741</ele>
        <time>2021-08-04T09:29:56.904Z</time>
      </trkpt>
      <trkpt lat="46.98024" lon="8.78648">
        <ele>741</ele>
        <time>2021-08-04T09:29:57.904Z</time>
      </trkpt>
      <trkpt lat="46.98023" lon="8.78648">
        <ele>741</ele>
        <time>2021-08-04T09:29:58.904Z</time>
      </trkpt>
      <trkpt lat="46.98022" lon="8.78647">
        <ele>741</ele>
        <time>2021-08-04T09:29:59.904Z</time>
      </trkpt>
      <trkpt lat="46.98021" lon="8.78647">
        <ele>741</ele>
        <time>2021-08-04T09:30:00.903Z</time>
      </trkpt>
      <trkpt lat="46.98021" lon="8.78647">
        <ele>741</ele>
        <time>2021-08-04T09:30:01.904Z</time>
      </trkpt>
      <trkpt lat="46.9802" lon="8.78647">
        <ele>740</ele>
        <time>2021-08-04T09:30:02.904Z</time>
      </trkpt>
      <trkpt lat="46.98019" lon="8.78646">
        <ele>740</ele>
        <time>2021-08-04T09:30:03.903Z</time>
      </trkpt>
      <trkpt lat="46.98018" lon="8.78646">
        <ele>739</ele>
        <time>2021-08-04T09:30:04.904Z</time>
      </trkpt>
      <trkpt lat="46.98017" lon="8.78646">
        <ele>739</ele>
        <time>2021-08-04T09:30:05.903Z</time>
      </trkpt>
      <trkpt lat="46.98017" lon="8.78646">
        <ele>739</ele>
        <time>2021-08-04T09:30:06.903Z</time>
      </trkpt>
      <trkpt lat="46.98016" lon="8.78646">
        <ele>739</ele>
        <time>2021-08-04T09:30:07.904Z</time>
      </trkpt>
      <trkpt lat="46.98016" lon="8.78646">
        <ele>739</ele>
        <time>2021-08-04T09:30:08.904Z</time>
      </trkpt>
      <trkpt lat="46.98016" lon="8.78646">
        <ele>739</ele>
        <time>2021-08-04T09:30:09.903Z</time>
      </trkpt>
      <trkpt lat="46.98015" lon="8.78645">
        <ele>740</ele>
        <time>2021-08-04T09:30:10.904Z</time>
      </trkpt>
      <trkpt lat="46.98015" lon="8.78644">
        <ele>740</ele>
        <time>2021-08-04T09:30:11.903Z</time>
      </trkpt>
      <trkpt lat="46.98014" lon="8.78643">
        <ele>740</ele>
        <time>2021-08-04T09:30:12.903Z</time>
      </trkpt>
      <trkpt lat="46.98014" lon="8.78643">
        <ele>740</ele>
        <time>2021-08-04T09:30:13.904Z</time>
      </trkpt>
      <trkpt lat="46.98013" lon="8.78642">
        <ele>741</ele>
        <time>2021-08-04T09:30:14.904Z</time>
      </trkpt>
      <trkpt lat="46.98013" lon="8.78642">
        <ele>740</ele>
        <time>2021-08-04T09:30:15.903Z</time>
      </trkpt>
      <trkpt lat="46.98011" lon="8.78642">
        <ele>740</ele>
        <time>2021-08-04T09:30:16.904Z</time>
      </trkpt>
      <trkpt lat="46.9801" lon="8.78641">
        <ele>740</ele>
        <time>2021-08-04T09:30:17.904Z</time>
      </trkpt>
      <trkpt lat="46.98009" lon="8.78641">
        <ele>740</ele>
        <time>2021-08-04T09:30:18.903Z</time>
      </trkpt>
      <trkpt lat="46.98008" lon="8.7864">
        <ele>740</ele>
        <time>2021-08-04T09:30:19.904Z</time>
      </trkpt>
      <trkpt lat="46.98007" lon="8.78639">
        <ele>740</ele>
        <time>2021-08-04T09:30:20.904Z</time>
      </trkpt>
      <trkpt lat="46.98006" lon="8.78638">
        <ele>740</ele>
        <time>2021-08-04T09:30:21.903Z</time>
      </trkpt>
      <trkpt lat="46.98005" lon="8.78637">
        <ele>740</ele>
        <time>2021-08-04T09:30:22.904Z</time>
      </trkpt>
      <trkpt lat="46.98005" lon="8.78638">
        <ele>740</ele>
        <time>2021-08-04T09:30:23.904Z</time>
      </trkpt>
      <trkpt lat="46.98004" lon="8.78638">
        <ele>740</ele>
        <time>2021-08-04T09:30:24.903Z</time>
      </trkpt>
      <trkpt lat="46.98003" lon="8.78638">
        <ele>740</ele>
        <time>2021-08-04T09:30:25.903Z</time>
      </trkpt>
      <trkpt lat="46.98003" lon="8.78638">
        <ele>740</ele>
        <time>2021-08-04T09:30:26.904Z</time>
      </trkpt>
      <trkpt lat="46.98002" lon="8.78639">
        <ele>740</ele>
        <time>2021-08-04T09:30:27.904Z</time>
      </trkpt>
      <trkpt lat="46.98001" lon="8.78639">
        <ele>740</ele>
        <time>2021-08-04T09:30:28.904Z</time>
      </trkpt>
      <trkpt lat="46.98" lon="8.78639">
        <ele>740</ele>
        <time>2021-08-04T09:30:29.903Z</time>
      </trkpt>
      <trkpt lat="46.98" lon="8.78639">
        <ele>739</ele>
        <time>2021-08-04T09:30:30.904Z</time>
      </trkpt>
      <trkpt lat="46.98" lon="8.7864">
        <ele>739</ele>
        <time>2021-08-04T09:30:31.904Z</time>
      </trkpt>
      <trkpt lat="46.98" lon="8.7864">
        <ele>739</ele>
        <time>2021-08-04T09:30:32.904Z</time>
      </trkpt>
      <trkpt lat="46.98001" lon="8.7864">
        <ele>739</ele>
        <time>2021-08-04T09:30:33.904Z</time>
      </trkpt>
      <trkpt lat="46.98" lon="8.7864">
        <ele>740</ele>
        <time>2021-08-04T09:30:34.904Z</time>
      </trkpt>
      <trkpt lat="46.97998" lon="8.78639">
        <ele>740</ele>
        <time>2021-08-04T09:30:35.904Z</time>
      </trkpt>
      <trkpt lat="46.97997" lon="8.78639">
        <ele>741</ele>
        <time>2021-08-04T09:30:36.904Z</time>
      </trkpt>
      <trkpt lat="46.97997" lon="8.78639">
        <ele>741</ele>
        <time>2021-08-04T09:30:37.905Z</time>
      </trkpt>
      <trkpt lat="46.97996" lon="8.78639">
        <ele>741</ele>
        <time>2021-08-04T09:30:38.904Z</time>
      </trkpt>
      <trkpt lat="46.97996" lon="8.78639">
        <ele>741</ele>
        <time>2021-08-04T09:30:39.905Z</time>
      </trkpt>
      <trkpt lat="46.97995" lon="8.7864">
        <ele>741</ele>
        <time>2021-08-04T09:30:40.905Z</time>
      </trkpt>
      <trkpt lat="46.97994" lon="8.7864">
        <ele>740</ele>
        <time>2021-08-04T09:30:41.905Z</time>
      </trkpt>
      <trkpt lat="46.97993" lon="8.7864">
        <ele>740</ele>
        <time>2021-08-04T09:30:42.905Z</time>
      </trkpt>
      <trkpt lat="46.97992" lon="8.7864">
        <ele>740</ele>
        <time>2021-08-04T09:30:43.905Z</time>
      </trkpt>
      <trkpt lat="46.97992" lon="8.78639">
        <ele>740</ele>
        <time>2021-08-04T09:30:44.904Z</time>
      </trkpt>
      <trkpt lat="46.97992" lon="8.78639">
        <ele>739</ele>
        <time>2021-08-04T09:30:45.904Z</time>
      </trkpt>
      <trkpt lat="46.97991" lon="8.78639">
        <ele>739</ele>
        <time>2021-08-04T09:30:46.905Z</time>
      </trkpt>
      <trkpt lat="46.97991" lon="8.78639">
        <ele>739</ele>
        <time>2021-08-04T09:30:47.905Z</time>
      </trkpt>
      <trkpt lat="46.97991" lon="8.78639">
        <ele>738</ele>
        <time>2021-08-04T09:30:48.905Z</time>
      </trkpt>
      <trkpt lat="46.9799" lon="8.78638">
        <ele>738</ele>
        <time>2021-08-04T09:30:49.905Z</time>
      </trkpt>
      <trkpt lat="46.9799" lon="8.78638">
        <ele>737</ele>
        <time>2021-08-04T09:30:50.905Z</time>
      </trkpt>
      <trkpt lat="46.97989" lon="8.78638">
        <ele>737</ele>
        <time>2021-08-04T09:30:51.904Z</time>
      </trkpt>
      <trkpt lat="46.97988" lon="8.78638">
        <ele>737</ele>
        <time>2021-08-04T09:30:52.905Z</time>
      </trkpt>
      <trkpt lat="46.97987" lon="8.78637">
        <ele>736</ele>
        <time>2021-08-04T09:30:53.905Z</time>
      </trkpt>
      <trkpt lat="46.97986" lon="8.78636">
        <ele>736</ele>
        <time>2021-08-04T09:30:54.905Z</time>
      </trkpt>
      <trkpt lat="46.97986" lon="8.78635">
        <ele>736</ele>
        <time>2021-08-04T09:30:55.905Z</time>
      </trkpt>
      <trkpt lat="46.97986" lon="8.78635">
        <ele>736</ele>
        <time>2021-08-04T09:30:56.905Z</time>
      </trkpt>
      <trkpt lat="46.97985" lon="8.78634">
        <ele>735</ele>
        <time>2021-08-04T09:30:57.905Z</time>
      </trkpt>
      <trkpt lat="46.97985" lon="8.78634">
        <ele>735</ele>
        <time>2021-08-04T09:30:58.905Z</time>
      </trkpt>
      <trkpt lat="46.97985" lon="8.78633">
        <ele>734</ele>
        <time>2021-08-04T09:30:59.905Z</time>
      </trkpt>
      <trkpt lat="46.97984" lon="8.78633">
        <ele>734</ele>
        <time>2021-08-04T09:31:00.905Z</time>
      </trkpt>
      <trkpt lat="46.97983" lon="8.78633">
        <ele>734</ele>
        <time>2021-08-04T09:31:01.904Z</time>
      </trkpt>
      <trkpt lat="46.97982" lon="8.78633">
        <ele>734</ele>
        <time>2021-08-04T09:31:02.905Z</time>
      </trkpt>
      <trkpt lat="46.97982" lon="8.78632">
        <ele>734</ele>
        <time>2021-08-04T09:31:03.905Z</time>
      </trkpt>
      <trkpt lat="46.97981" lon="8.78632">
        <ele>734</ele>
        <time>2021-08-04T09:31:04.905Z</time>
      </trkpt>
      <trkpt lat="46.9798" lon="8.78631">
        <ele>734</ele>
        <time>2021-08-04T09:31:05.905Z</time>
      </trkpt>
      <trkpt lat="46.9798" lon="8.7863">
        <ele>733</ele>
        <time>2021-08-04T09:31:06.904Z</time>
      </trkpt>
      <trkpt lat="46.97979" lon="8.7863">
        <ele>733</ele>
        <time>2021-08-04T09:31:07.905Z</time>
      </trkpt>
      <trkpt lat="46.97978" lon="8.78629">
        <ele>733</ele>
        <time>2021-08-04T09:31:08.905Z</time>
      </trkpt>
      <trkpt lat="46.97977" lon="8.78628">
        <ele>733</ele>
        <time>2021-08-04T09:31:09.905Z</time>
      </trkpt>
      <trkpt lat="46.97977" lon="8.78627">
        <ele>733</ele>
        <time>2021-08-04T09:31:10.905Z</time>
      </trkpt>
      <trkpt lat="46.97976" lon="8.78626">
        <ele>734</ele>
        <time>2021-08-04T09:31:11.905Z</time>
      </trkpt>
      <trkpt lat="46.97975" lon="8.78626">
        <ele>734</ele>
        <time>2021-08-04T09:31:12.905Z</time>
      </trkpt>
      <trkpt lat="46.97975" lon="8.78626">
        <ele>734</ele>
        <time>2021-08-04T09:31:13.905Z</time>
      </trkpt>
      <trkpt lat="46.97974" lon="8.78626">
        <ele>735</ele>
        <time>2021-08-04T09:31:14.905Z</time>
      </trkpt>
      <trkpt lat="46.97974" lon="8.78627">
        <ele>735</ele>
        <time>2021-08-04T09:31:15.905Z</time>
      </trkpt>
      <trkpt lat="46.97973" lon="8.78627">
        <ele>735</ele>
        <time>2021-08-04T09:31:16.905Z</time>
      </trkpt>
      <trkpt lat="46.97973" lon="8.78627">
        <ele>735</ele>
        <time>2021-08-04T09:31:17.905Z</time>
      </trkpt>
      <trkpt lat="46.97972" lon="8.78627">
        <ele>735</ele>
        <time>2021-08-04T09:31:18.904Z</time>
      </trkpt>
      <trkpt lat="46.97972" lon="8.78628">
        <ele>735</ele>
        <time>2021-08-04T09:31:19.905Z</time>
      </trkpt>
      <trkpt lat="46.97971" lon="8.78628">
        <ele>735</ele>
        <time>2021-08-04T09:31:20.905Z</time>
      </trkpt>
      <trkpt lat="46.97971" lon="8.78628">
        <ele>735</ele>
        <time>2021-08-04T09:31:21.905Z</time>
      </trkpt>
      <trkpt lat="46.9797" lon="8.78629">
        <ele>735</ele>
        <time>2021-08-04T09:31:22.904Z</time>
      </trkpt>
      <trkpt lat="46.9797" lon="8.78628">
        <ele>736</ele>
        <time>2021-08-04T09:31:23.904Z</time>
      </trkpt>
      <trkpt lat="46.97968" lon="8.78628">
        <ele>736</ele>
        <time>2021-08-04T09:31:24.905Z</time>
      </trkpt>
      <trkpt lat="46.97968" lon="8.78627">
        <ele>736</ele>
        <time>2021-08-04T09:31:25.905Z</time>
      </trkpt>
      <trkpt lat="46.97967" lon="8.78627">
        <ele>737</ele>
        <time>2021-08-04T09:31:26.905Z</time>
      </trkpt>
      <trkpt lat="46.97965" lon="8.78625">
        <ele>737</ele>
        <time>2021-08-04T09:31:27.905Z</time>
      </trkpt>
      <trkpt lat="46.97963" lon="8.78625">
        <ele>737</ele>
        <time>2021-08-04T09:31:28.904Z</time>
      </trkpt>
      <trkpt lat="46.97963" lon="8.78624">
        <ele>738</ele>
        <time>2021-08-04T09:31:29.904Z</time>
      </trkpt>
      <trkpt lat="46.97962" lon="8.78624">
        <ele>738</ele>
        <time>2021-08-04T09:31:30.905Z</time>
      </trkpt>
      <trkpt lat="46.97961" lon="8.78624">
        <ele>738</ele>
        <time>2021-08-04T09:31:31.904Z</time>
      </trkpt>
      <trkpt lat="46.9796" lon="8.78623">
        <ele>738</ele>
        <time>2021-08-04T09:31:32.904Z</time>
      </trkpt>
      <trkpt lat="46.97959" lon="8.78623">
        <ele>738</ele>
        <time>2021-08-04T09:31:33.904Z</time>
      </trkpt>
      <trkpt lat="46.97958" lon="8.78623">
        <ele>738</ele>
        <time>2021-08-04T09:31:34.904Z</time>
      </trkpt>
      <trkpt lat="46.97957" lon="8.78623">
        <ele>739</ele>
        <time>2021-08-04T09:31:35.905Z</time>
      </trkpt>
      <trkpt lat="46.97957" lon="8.78624">
        <ele>738</ele>
        <time>2021-08-04T09:31:36.904Z</time>
      </trkpt>
      <trkpt lat="46.97957" lon="8.78624">
        <ele>738</ele>
        <time>2021-08-04T09:31:37.904Z</time>
      </trkpt>
      <trkpt lat="46.97956" lon="8.78625">
        <ele>738</ele>
        <time>2021-08-04T09:31:38.904Z</time>
      </trkpt>
      <trkpt lat="46.97956" lon="8.78625">
        <ele>738</ele>
        <time>2021-08-04T09:31:39.904Z</time>
      </trkpt>
      <trkpt lat="46.97956" lon="8.78626">
        <ele>737</ele>
        <time>2021-08-04T09:31:40.905Z</time>
      </trkpt>
      <trkpt lat="46.97955" lon="8.78627">
        <ele>736</ele>
        <time>2021-08-04T09:31:41.905Z</time>
      </trkpt>
      <trkpt lat="46.97955" lon="8.78627">
        <ele>735</ele>
        <time>2021-08-04T09:31:42.905Z</time>
      </trkpt>
      <trkpt lat="46.97955" lon="8.78626">
        <ele>733</ele>
        <time>2021-08-04T09:31:43.905Z</time>
      </trkpt>
      <trkpt lat="46.97955" lon="8.78625">
        <ele>733</ele>
        <time>2021-08-04T09:31:44.906Z</time>
      </trkpt>
      <trkpt lat="46.97955" lon="8.78624">
        <ele>732</ele>
        <time>2021-08-04T09:31:45.905Z</time>
      </trkpt>
      <trkpt lat="46.97954" lon="8.78624">
        <ele>732</ele>
        <time>2021-08-04T09:31:46.906Z</time>
      </trkpt>
      <trkpt lat="46.97953" lon="8.78623">
        <ele>732</ele>
        <time>2021-08-04T09:31:47.906Z</time>
      </trkpt>
      <trkpt lat="46.97953" lon="8.78622">
        <ele>732</ele>
        <time>2021-08-04T09:31:48.906Z</time>
      </trkpt>
      <trkpt lat="46.97953" lon="8.78621">
        <ele>732</ele>
        <time>2021-08-04T09:31:49.905Z</time>
      </trkpt>
      <trkpt lat="46.97953" lon="8.78621">
        <ele>732</ele>
        <time>2021-08-04T09:31:50.906Z</time>
      </trkpt>
      <trkpt lat="46.97952" lon="8.7862">
        <ele>732</ele>
        <time>2021-08-04T09:31:51.906Z</time>
      </trkpt>
      <trkpt lat="46.97952" lon="8.7862">
        <ele>732</ele>
        <time>2021-08-04T09:31:52.906Z</time>
      </trkpt>
      <trkpt lat="46.97952" lon="8.78619">
        <ele>731</ele>
        <time>2021-08-04T09:31:53.906Z</time>
      </trkpt>
      <trkpt lat="46.97952" lon="8.78619">
        <ele>731</ele>
        <time>2021-08-04T09:31:54.906Z</time>
      </trkpt>
      <trkpt lat="46.97952" lon="8.78618">
        <ele>730</ele>
        <time>2021-08-04T09:31:55.906Z</time>
      </trkpt>
      <trkpt lat="46.97951" lon="8.78618">
        <ele>729</ele>
        <time>2021-08-04T09:31:56.906Z</time>
      </trkpt>
      <trkpt lat="46.97951" lon="8.78618">
        <ele>729</ele>
        <time>2021-08-04T09:31:57.906Z</time>
      </trkpt>
      <trkpt lat="46.9795" lon="8.78618">
        <ele>728</ele>
        <time>2021-08-04T09:31:58.906Z</time>
      </trkpt>
      <trkpt lat="46.97949" lon="8.78618">
        <ele>728</ele>
        <time>2021-08-04T09:31:59.905Z</time>
      </trkpt>
      <trkpt lat="46.97948" lon="8.78617">
        <ele>728</ele>
        <time>2021-08-04T09:32:00.906Z</time>
      </trkpt>
      <trkpt lat="46.97948" lon="8.78617">
        <ele>728</ele>
        <time>2021-08-04T09:32:01.906Z</time>
      </trkpt>
      <trkpt lat="46.97947" lon="8.78618">
        <ele>728</ele>
        <time>2021-08-04T09:32:02.906Z</time>
      </trkpt>
      <trkpt lat="46.97945" lon="8.78617">
        <ele>728</ele>
        <time>2021-08-04T09:32:03.906Z</time>
      </trkpt>
      <trkpt lat="46.97943" lon="8.78616">
        <ele>728</ele>
        <time>2021-08-04T09:32:04.906Z</time>
      </trkpt>
      <trkpt lat="46.97942" lon="8.78615">
        <ele>729</ele>
        <time>2021-08-04T09:32:05.906Z</time>
      </trkpt>
      <trkpt lat="46.97941" lon="8.78614">
        <ele>729</ele>
        <time>2021-08-04T09:32:06.906Z</time>
      </trkpt>
      <trkpt lat="46.97939" lon="8.78613">
        <ele>729</ele>
        <time>2021-08-04T09:32:07.906Z</time>
      </trkpt>
      <trkpt lat="46.97939" lon="8.78613">
        <ele>729</ele>
        <time>2021-08-04T09:32:08.905Z</time>
      </trkpt>
      <trkpt lat="46.97939" lon="8.78613">
        <ele>729</ele>
        <time>2021-08-04T09:32:09.905Z</time>
      </trkpt>
      <trkpt lat="46.97938" lon="8.78614">
        <ele>729</ele>
        <time>2021-08-04T09:32:10.905Z</time>
      </trkpt>
      <trkpt lat="46.97939" lon="8.78614">
        <ele>729</ele>
        <time>2021-08-04T09:32:11.906Z</time>
      </trkpt>
      <trkpt lat="46.97942" lon="8.78616">
        <ele>726</ele>
        <time>2021-08-04T09:32:12.905Z</time>
      </trkpt>
      <trkpt lat="46.97942" lon="8.78616">
        <ele>725</ele>
        <time>2021-08-04T09:32:13.906Z</time>
      </trkpt>
      <trkpt lat="46.97943" lon="8.78616">
        <ele>725</ele>
        <time>2021-08-04T09:32:14.905Z</time>
      </trkpt>
      <trkpt lat="46.97943" lon="8.78616">
        <ele>724</ele>
        <time>2021-08-04T09:32:15.906Z</time>
      </trkpt>
      <trkpt lat="46.97943" lon="8.78616">
        <ele>723</ele>
        <time>2021-08-04T09:32:16.905Z</time>
      </trkpt>
      <trkpt lat="46.97944" lon="8.78616">
        <ele>722</ele>
        <time>2021-08-04T09:32:17.905Z</time>
      </trkpt>
      <trkpt lat="46.97945" lon="8.78616">
        <ele>721</ele>
        <time>2021-08-04T09:32:18.906Z</time>
      </trkpt>
      <trkpt lat="46.97945" lon="8.78615">
        <ele>720</ele>
        <time>2021-08-04T09:32:19.906Z</time>
      </trkpt>
      <trkpt lat="46.97946" lon="8.78614">
        <ele>719</ele>
        <time>2021-08-04T09:32:20.906Z</time>
      </trkpt>
      <trkpt lat="46.97946" lon="8.78613">
        <ele>718</ele>
        <time>2021-08-04T09:32:21.906Z</time>
      </trkpt>
      <trkpt lat="46.97947" lon="8.78612">
        <ele>717</ele>
        <time>2021-08-04T09:32:22.906Z</time>
      </trkpt>
      <trkpt lat="46.97947" lon="8.78611">
        <ele>717</ele>
        <time>2021-08-04T09:32:23.906Z</time>
      </trkpt>
      <trkpt lat="46.97947" lon="8.78609">
        <ele>716</ele>
        <time>2021-08-04T09:32:24.906Z</time>
      </trkpt>
      <trkpt lat="46.97947" lon="8.78608">
        <ele>716</ele>
        <time>2021-08-04T09:32:25.905Z</time>
      </trkpt>
      <trkpt lat="46.97948" lon="8.78607">
        <ele>715</ele>
        <time>2021-08-04T09:32:26.905Z</time>
      </trkpt>
      <trkpt lat="46.97949" lon="8.78606">
        <ele>715</ele>
        <time>2021-08-04T09:32:27.906Z</time>
      </trkpt>
      <trkpt lat="46.97951" lon="8.78606">
        <ele>714</ele>
        <time>2021-08-04T09:32:28.906Z</time>
      </trkpt>
      <trkpt lat="46.97951" lon="8.78605">
        <ele>714</ele>
        <time>2021-08-04T09:32:29.906Z</time>
      </trkpt>
      <trkpt lat="46.97952" lon="8.78604">
        <ele>713</ele>
        <time>2021-08-04T09:32:30.905Z</time>
      </trkpt>
      <trkpt lat="46.97952" lon="8.78603">
        <ele>713</ele>
        <time>2021-08-04T09:32:31.906Z</time>
      </trkpt>
      <trkpt lat="46.97952" lon="8.78602">
        <ele>714</ele>
        <time>2021-08-04T09:32:32.906Z</time>
      </trkpt>
      <trkpt lat="46.97953" lon="8.78601">
        <ele>714</ele>
        <time>2021-08-04T09:32:33.906Z</time>
      </trkpt>
      <trkpt lat="46.97953" lon="8.786">
        <ele>714</ele>
        <time>2021-08-04T09:32:34.906Z</time>
      </trkpt>
      <trkpt lat="46.97953" lon="8.78599">
        <ele>714</ele>
        <time>2021-08-04T09:32:35.905Z</time>
      </trkpt>
      <trkpt lat="46.97953" lon="8.78598">
        <ele>714</ele>
        <time>2021-08-04T09:32:36.906Z</time>
      </trkpt>
      <trkpt lat="46.97953" lon="8.78596">
        <ele>714</ele>
        <time>2021-08-04T09:32:37.905Z</time>
      </trkpt>
      <trkpt lat="46.97952" lon="8.78596">
        <ele>713</ele>
        <time>2021-08-04T09:32:38.905Z</time>
      </trkpt>
      <trkpt lat="46.97952" lon="8.78595">
        <ele>713</ele>
        <time>2021-08-04T09:32:39.905Z</time>
      </trkpt>
      <trkpt lat="46.9795" lon="8.78593">
        <ele>712</ele>
        <time>2021-08-04T09:32:40.906Z</time>
      </trkpt>
      <trkpt lat="46.97949" lon="8.78593">
        <ele>712</ele>
        <time>2021-08-04T09:32:41.905Z</time>
      </trkpt>
      <trkpt lat="46.97948" lon="8.78593">
        <ele>711</ele>
        <time>2021-08-04T09:32:42.906Z</time>
      </trkpt>
      <trkpt lat="46.97948" lon="8.78593">
        <ele>711</ele>
        <time>2021-08-04T09:32:43.905Z</time>
      </trkpt>
      <trkpt lat="46.97946" lon="8.78593">
        <ele>712</ele>
        <time>2021-08-04T09:32:44.905Z</time>
      </trkpt>
      <trkpt lat="46.97945" lon="8.78594">
        <ele>712</ele>
        <time>2021-08-04T09:32:45.905Z</time>
      </trkpt>
      <trkpt lat="46.97945" lon="8.78593">
        <ele>712</ele>
        <time>2021-08-04T09:32:46.905Z</time>
      </trkpt>
      <trkpt lat="46.97944" lon="8.78592">
        <ele>712</ele>
        <time>2021-08-04T09:32:47.905Z</time>
      </trkpt>
      <trkpt lat="46.97943" lon="8.78591">
        <ele>712</ele>
        <time>2021-08-04T09:32:48.906Z</time>
      </trkpt>
      <trkpt lat="46.97942" lon="8.7859">
        <ele>711</ele>
        <time>2021-08-04T09:32:49.906Z</time>
      </trkpt>
      <trkpt lat="46.97941" lon="8.7859">
        <ele>711</ele>
        <time>2021-08-04T09:32:50.906Z</time>
      </trkpt>
      <trkpt lat="46.97941" lon="8.7859">
        <ele>710</ele>
        <time>2021-08-04T09:32:51.905Z</time>
      </trkpt>
      <trkpt lat="46.9794" lon="8.7859">
        <ele>710</ele>
        <time>2021-08-04T09:32:52.906Z</time>
      </trkpt>
      <trkpt lat="46.9794" lon="8.78589">
        <ele>709</ele>
        <time>2021-08-04T09:32:53.906Z</time>
      </trkpt>
      <trkpt lat="46.97939" lon="8.78589">
        <ele>709</ele>
        <time>2021-08-04T09:32:54.906Z</time>
      </trkpt>
      <trkpt lat="46.97938" lon="8.78589">
        <ele>708</ele>
        <time>2021-08-04T09:32:55.905Z</time>
      </trkpt>
      <trkpt lat="46.97938" lon="8.78589">
        <ele>707</ele>
        <time>2021-08-04T09:33:11.013Z</time>
      </trkpt>
      <trkpt lat="46.97937" lon="8.78589">
        <ele>707</ele>
        <time>2021-08-04T09:33:12.013Z</time>
      </trkpt>
      <trkpt lat="46.97936" lon="8.78588">
        <ele>706</ele>
        <time>2021-08-04T09:33:13.013Z</time>
      </trkpt>
      <trkpt lat="46.97935" lon="8.78588">
        <ele>705</ele>
        <time>2021-08-04T09:33:14.013Z</time>
      </trkpt>
      <trkpt lat="46.97934" lon="8.78588">
        <ele>705</ele>
        <time>2021-08-04T09:33:15.012Z</time>
      </trkpt>
      <trkpt lat="46.97933" lon="8.78588">
        <ele>705</ele>
        <time>2021-08-04T09:33:16.012Z</time>
      </trkpt>
      <trkpt lat="46.97932" lon="8.78588">
        <ele>704</ele>
        <time>2021-08-04T09:33:17.013Z</time>
      </trkpt>
      <trkpt lat="46.97931" lon="8.78589">
        <ele>704</ele>
        <time>2021-08-04T09:33:18.013Z</time>
      </trkpt>
      <trkpt lat="46.9793" lon="8.78588">
        <ele>704</ele>
        <time>2021-08-04T09:33:19.012Z</time>
      </trkpt>
      <trkpt lat="46.97929" lon="8.78588">
        <ele>704</ele>
        <time>2021-08-04T09:33:20.013Z</time>
      </trkpt>
      <trkpt lat="46.97928" lon="8.78588">
        <ele>704</ele>
        <time>2021-08-04T09:33:21.013Z</time>
      </trkpt>
      <trkpt lat="46.97926" lon="8.78588">
        <ele>704</ele>
        <time>2021-08-04T09:33:22.012Z</time>
      </trkpt>
      <trkpt lat="46.97925" lon="8.78588">
        <ele>705</ele>
        <time>2021-08-04T09:33:23.013Z</time>
      </trkpt>
      <trkpt lat="46.97924" lon="8.78588">
        <ele>705</ele>
        <time>2021-08-04T09:33:24.013Z</time>
      </trkpt>
      <trkpt lat="46.97924" lon="8.78588">
        <ele>705</ele>
        <time>2021-08-04T09:33:25.012Z</time>
      </trkpt>
      <trkpt lat="46.97923" lon="8.78588">
        <ele>705</ele>
        <time>2021-08-04T09:33:29.176Z</time>
      </trkpt>
      <trkpt lat="46.97923" lon="8.78588">
        <ele>705</ele>
        <time>2021-08-04T09:33:30.176Z</time>
      </trkpt>
      <trkpt lat="46.97922" lon="8.78588">
        <ele>705</ele>
        <time>2021-08-04T09:33:31.176Z</time>
      </trkpt>
      <trkpt lat="46.97921" lon="8.78588">
        <ele>705</ele>
        <time>2021-08-04T09:33:32.175Z</time>
      </trkpt>
      <trkpt lat="46.9792" lon="8.78588">
        <ele>704</ele>
        <time>2021-08-04T09:33:33.176Z</time>
      </trkpt>
      <trkpt lat="46.97919" lon="8.78588">
        <ele>704</ele>
        <time>2021-08-04T09:33:34.176Z</time>
      </trkpt>
      <trkpt lat="46.97919" lon="8.78588">
        <ele>704</ele>
        <time>2021-08-04T09:33:40.300Z</time>
      </trkpt>
      <trkpt lat="46.97918" lon="8.78587">
        <ele>703</ele>
        <time>2021-08-04T09:33:41.300Z</time>
      </trkpt>
      <trkpt lat="46.97917" lon="8.78587">
        <ele>703</ele>
        <time>2021-08-04T09:33:42.300Z</time>
      </trkpt>
      <trkpt lat="46.97916" lon="8.78586">
        <ele>703</ele>
        <time>2021-08-04T09:33:43.299Z</time>
      </trkpt>
      <trkpt lat="46.97915" lon="8.78585">
        <ele>703</ele>
        <time>2021-08-04T09:33:44.299Z</time>
      </trkpt>
      <trkpt lat="46.97914" lon="8.78584">
        <ele>703</ele>
        <time>2021-08-04T09:33:45.299Z</time>
      </trkpt>
      <trkpt lat="46.97912" lon="8.78583">
        <ele>703</ele>
        <time>2021-08-04T09:33:46.299Z</time>
      </trkpt>
      <trkpt lat="46.97911" lon="8.78581">
        <ele>703</ele>
        <time>2021-08-04T09:33:47.300Z</time>
      </trkpt>
      <trkpt lat="46.9791" lon="8.7858">
        <ele>703</ele>
        <time>2021-08-04T09:33:48.299Z</time>
      </trkpt>
      <trkpt lat="46.97909" lon="8.78579">
        <ele>703</ele>
        <time>2021-08-04T09:33:49.299Z</time>
      </trkpt>
      <trkpt lat="46.97908" lon="8.78578">
        <ele>703</ele>
        <time>2021-08-04T09:33:50.299Z</time>
      </trkpt>
      <trkpt lat="46.97907" lon="8.78577">
        <ele>702</ele>
        <time>2021-08-04T09:33:51.300Z</time>
      </trkpt>
      <trkpt lat="46.97906" lon="8.78575">
        <ele>702</ele>
        <time>2021-08-04T09:33:52.300Z</time>
      </trkpt>
      <trkpt lat="46.97906" lon="8.78573">
        <ele>702</ele>
        <time>2021-08-04T09:33:53.299Z</time>
      </trkpt>
      <trkpt lat="46.97906" lon="8.78572">
        <ele>702</ele>
        <time>2021-08-04T09:33:54.299Z</time>
      </trkpt>
      <trkpt lat="46.97905" lon="8.7857">
        <ele>701</ele>
        <time>2021-08-04T09:33:55.300Z</time>
      </trkpt>
      <trkpt lat="46.97904" lon="8.78569">
        <ele>701</ele>
        <time>2021-08-04T09:33:56.299Z</time>
      </trkpt>
      <trkpt lat="46.97902" lon="8.78568">
        <ele>701</ele>
        <time>2021-08-04T09:33:57.299Z</time>
      </trkpt>
      <trkpt lat="46.979" lon="8.78568">
        <ele>701</ele>
        <time>2021-08-04T09:33:58.300Z</time>
      </trkpt>
      <trkpt lat="46.97899" lon="8.78568">
        <ele>701</ele>
        <time>2021-08-04T09:33:59.299Z</time>
      </trkpt>
      <trkpt lat="46.97897" lon="8.78568">
        <ele>701</ele>
        <time>2021-08-04T09:34:00.300Z</time>
      </trkpt>
      <trkpt lat="46.97895" lon="8.78567">
        <ele>701</ele>
        <time>2021-08-04T09:34:01.300Z</time>
      </trkpt>
      <trkpt lat="46.97894" lon="8.78566">
        <ele>701</ele>
        <time>2021-08-04T09:34:02.299Z</time>
      </trkpt>
      <trkpt lat="46.97892" lon="8.78565">
        <ele>702</ele>
        <time>2021-08-04T09:34:03.299Z</time>
      </trkpt>
      <trkpt lat="46.97891" lon="8.78565">
        <ele>702</ele>
        <time>2021-08-04T09:34:04.299Z</time>
      </trkpt>
      <trkpt lat="46.97889" lon="8.78564">
        <ele>701</ele>
        <time>2021-08-04T09:34:05.300Z</time>
      </trkpt>
      <trkpt lat="46.97889" lon="8.78564">
        <ele>701</ele>
        <time>2021-08-04T09:34:06.299Z</time>
      </trkpt>
      <trkpt lat="46.97888" lon="8.78565">
        <ele>701</ele>
        <time>2021-08-04T09:34:07.299Z</time>
      </trkpt>
      <trkpt lat="46.97887" lon="8.78564">
        <ele>701</ele>
        <time>2021-08-04T09:34:08.299Z</time>
      </trkpt>
      <trkpt lat="46.97886" lon="8.78564">
        <ele>701</ele>
        <time>2021-08-04T09:34:09.299Z</time>
      </trkpt>
      <trkpt lat="46.97885" lon="8.78565">
        <ele>701</ele>
        <time>2021-08-04T09:34:10.299Z</time>
      </trkpt>
      <trkpt lat="46.97884" lon="8.78564">
        <ele>700</ele>
        <time>2021-08-04T09:34:11.299Z</time>
      </trkpt>
      <trkpt lat="46.97883" lon="8.78565">
        <ele>700</ele>
        <time>2021-08-04T09:34:12.299Z</time>
      </trkpt>
      <trkpt lat="46.97883" lon="8.78565">
        <ele>700</ele>
        <time>2021-08-04T09:34:13.299Z</time>
      </trkpt>
      <trkpt lat="46.97882" lon="8.78565">
        <ele>700</ele>
        <time>2021-08-04T09:34:14.299Z</time>
      </trkpt>
      <trkpt lat="46.97882" lon="8.78565">
        <ele>699</ele>
        <time>2021-08-04T09:34:15.300Z</time>
      </trkpt>
      <trkpt lat="46.97881" lon="8.78566">
        <ele>699</ele>
        <time>2021-08-04T09:34:16.299Z</time>
      </trkpt>
      <trkpt lat="46.9788" lon="8.78566">
        <ele>699</ele>
        <time>2021-08-04T09:34:17.299Z</time>
      </trkpt>
      <trkpt lat="46.97879" lon="8.78566">
        <ele>699</ele>
        <time>2021-08-04T09:34:25.468Z</time>
      </trkpt>
      <trkpt lat="46.97879" lon="8.78567">
        <ele>698</ele>
        <time>2021-08-04T09:34:26.468Z</time>
      </trkpt>
      <trkpt lat="46.97878" lon="8.78567">
        <ele>697</ele>
        <time>2021-08-04T09:34:27.468Z</time>
      </trkpt>
      <trkpt lat="46.97877" lon="8.78567">
        <ele>696</ele>
        <time>2021-08-04T09:34:28.468Z</time>
      </trkpt>
      <trkpt lat="46.97877" lon="8.78568">
        <ele>695</ele>
        <time>2021-08-04T09:34:29.468Z</time>
      </trkpt>
      <trkpt lat="46.97876" lon="8.78568">
        <ele>694</ele>
        <time>2021-08-04T09:34:30.468Z</time>
      </trkpt>
      <trkpt lat="46.97875" lon="8.78569">
        <ele>693</ele>
        <time>2021-08-04T09:34:31.468Z</time>
      </trkpt>
      <trkpt lat="46.97875" lon="8.7857">
        <ele>692</ele>
        <time>2021-08-04T09:34:32.468Z</time>
      </trkpt>
      <trkpt lat="46.97874" lon="8.7857">
        <ele>692</ele>
        <time>2021-08-04T09:34:33.468Z</time>
      </trkpt>
      <trkpt lat="46.97873" lon="8.78571">
        <ele>692</ele>
        <time>2021-08-04T09:34:34.468Z</time>
      </trkpt>
      <trkpt lat="46.97873" lon="8.78571">
        <ele>691</ele>
        <time>2021-08-04T09:34:35.468Z</time>
      </trkpt>
      <trkpt lat="46.97872" lon="8.78571">
        <ele>691</ele>
        <time>2021-08-04T09:34:36.468Z</time>
      </trkpt>
      <trkpt lat="46.97872" lon="8.7857">
        <ele>691</ele>
        <time>2021-08-04T09:34:37.468Z</time>
      </trkpt>
      <trkpt lat="46.97871" lon="8.7857">
        <ele>691</ele>
        <time>2021-08-04T09:34:38.468Z</time>
      </trkpt>
      <trkpt lat="46.9787" lon="8.7857">
        <ele>691</ele>
        <time>2021-08-04T09:34:39.468Z</time>
      </trkpt>
      <trkpt lat="46.9787" lon="8.78569">
        <ele>690</ele>
        <time>2021-08-04T09:34:40.468Z</time>
      </trkpt>
      <trkpt lat="46.97869" lon="8.78569">
        <ele>690</ele>
        <time>2021-08-04T09:34:41.469Z</time>
      </trkpt>
      <trkpt lat="46.97869" lon="8.78569">
        <ele>690</ele>
        <time>2021-08-04T09:34:42.468Z</time>
      </trkpt>
      <trkpt lat="46.97869" lon="8.78569">
        <ele>689</ele>
        <time>2021-08-04T09:34:43.468Z</time>
      </trkpt>
      <trkpt lat="46.97868" lon="8.78569">
        <ele>689</ele>
        <time>2021-08-04T09:34:44.468Z</time>
      </trkpt>
      <trkpt lat="46.97868" lon="8.78569">
        <ele>688</ele>
        <time>2021-08-04T09:34:45.468Z</time>
      </trkpt>
      <trkpt lat="46.97867" lon="8.7857">
        <ele>687</ele>
        <time>2021-08-04T09:34:46.469Z</time>
      </trkpt>
      <trkpt lat="46.97866" lon="8.78572">
        <ele>687</ele>
        <time>2021-08-04T09:34:47.469Z</time>
      </trkpt>
      <trkpt lat="46.97866" lon="8.78573">
        <ele>687</ele>
        <time>2021-08-04T09:34:48.468Z</time>
      </trkpt>
      <trkpt lat="46.97866" lon="8.78573">
        <ele>686</ele>
        <time>2021-08-04T09:34:49.469Z</time>
      </trkpt>
      <trkpt lat="46.97865" lon="8.78574">
        <ele>686</ele>
        <time>2021-08-04T09:34:50.469Z</time>
      </trkpt>
      <trkpt lat="46.97864" lon="8.78574">
        <ele>686</ele>
        <time>2021-08-04T09:34:51.469Z</time>
      </trkpt>
      <trkpt lat="46.97862" lon="8.78575">
        <ele>686</ele>
        <time>2021-08-04T09:34:52.469Z</time>
      </trkpt>
      <trkpt lat="46.97861" lon="8.78575">
        <ele>686</ele>
        <time>2021-08-04T09:34:53.468Z</time>
      </trkpt>
      <trkpt lat="46.9786" lon="8.78574">
        <ele>686</ele>
        <time>2021-08-04T09:34:54.468Z</time>
      </trkpt>
      <trkpt lat="46.9786" lon="8.78574">
        <ele>686</ele>
        <time>2021-08-04T09:34:55.469Z</time>
      </trkpt>
      <trkpt lat="46.97859" lon="8.78573">
        <ele>687</ele>
        <time>2021-08-04T09:34:56.469Z</time>
      </trkpt>
      <trkpt lat="46.97859" lon="8.78572">
        <ele>687</ele>
        <time>2021-08-04T09:34:57.468Z</time>
      </trkpt>
      <trkpt lat="46.97858" lon="8.78573">
        <ele>687</ele>
        <time>2021-08-04T09:34:58.468Z</time>
      </trkpt>
      <trkpt lat="46.97858" lon="8.78573">
        <ele>687</ele>
        <time>2021-08-04T09:34:59.468Z</time>
      </trkpt>
      <trkpt lat="46.97857" lon="8.78573">
        <ele>688</ele>
        <time>2021-08-04T09:35:00.469Z</time>
      </trkpt>
      <trkpt lat="46.97856" lon="8.78573">
        <ele>688</ele>
        <time>2021-08-04T09:35:01.469Z</time>
      </trkpt>
      <trkpt lat="46.97856" lon="8.78573">
        <ele>688</ele>
        <time>2021-08-04T09:35:02.468Z</time>
      </trkpt>
      <trkpt lat="46.97855" lon="8.78573">
        <ele>689</ele>
        <time>2021-08-04T09:35:03.468Z</time>
      </trkpt>
      <trkpt lat="46.97854" lon="8.78573">
        <ele>689</ele>
        <time>2021-08-04T09:35:04.469Z</time>
      </trkpt>
      <trkpt lat="46.97853" lon="8.78573">
        <ele>689</ele>
        <time>2021-08-04T09:35:05.468Z</time>
      </trkpt>
      <trkpt lat="46.97852" lon="8.78572">
        <ele>689</ele>
        <time>2021-08-04T09:35:06.469Z</time>
      </trkpt>
      <trkpt lat="46.9785" lon="8.78572">
        <ele>689</ele>
        <time>2021-08-04T09:35:07.469Z</time>
      </trkpt>
      <trkpt lat="46.97849" lon="8.78571">
        <ele>689</ele>
        <time>2021-08-04T09:35:08.469Z</time>
      </trkpt>
      <trkpt lat="46.97849" lon="8.78571">
        <ele>689</ele>
        <time>2021-08-04T09:35:09.468Z</time>
      </trkpt>
      <trkpt lat="46.97848" lon="8.78572">
        <ele>690</ele>
        <time>2021-08-04T09:35:10.469Z</time>
      </trkpt>
      <trkpt lat="46.97847" lon="8.78572">
        <ele>690</ele>
        <time>2021-08-04T09:35:11.469Z</time>
      </trkpt>
      <trkpt lat="46.97847" lon="8.78572">
        <ele>690</ele>
        <time>2021-08-04T09:35:12.469Z</time>
      </trkpt>
      <trkpt lat="46.97846" lon="8.78571">
        <ele>691</ele>
        <time>2021-08-04T09:35:13.468Z</time>
      </trkpt>
      <trkpt lat="46.97846" lon="8.78571">
        <ele>691</ele>
        <time>2021-08-04T09:35:14.469Z</time>
      </trkpt>
      <trkpt lat="46.97845" lon="8.78571">
        <ele>691</ele>
        <time>2021-08-04T09:35:15.469Z</time>
      </trkpt>
      <trkpt lat="46.97845" lon="8.78571">
        <ele>691</ele>
        <time>2021-08-04T09:35:16.469Z</time>
      </trkpt>
      <trkpt lat="46.97845" lon="8.78571">
        <ele>691</ele>
        <time>2021-08-04T09:35:17.469Z</time>
      </trkpt>
      <trkpt lat="46.97845" lon="8.7857">
        <ele>691</ele>
        <time>2021-08-04T09:35:18.468Z</time>
      </trkpt>
      <trkpt lat="46.97845" lon="8.7857">
        <ele>691</ele>
        <time>2021-08-04T09:35:19.469Z</time>
      </trkpt>
      <trkpt lat="46.97844" lon="8.78569">
        <ele>690</ele>
        <time>2021-08-04T09:35:20.469Z</time>
      </trkpt>
      <trkpt lat="46.97843" lon="8.78569">
        <ele>690</ele>
        <time>2021-08-04T09:35:21.468Z</time>
      </trkpt>
      <trkpt lat="46.97842" lon="8.78569">
        <ele>689</ele>
        <time>2021-08-04T09:35:22.468Z</time>
      </trkpt>
      <trkpt lat="46.97842" lon="8.78569">
        <ele>689</ele>
        <time>2021-08-04T09:35:23.469Z</time>
      </trkpt>
      <trkpt lat="46.97842" lon="8.78568">
        <ele>688</ele>
        <time>2021-08-04T09:35:24.468Z</time>
      </trkpt>
      <trkpt lat="46.97841" lon="8.78568">
        <ele>688</ele>
        <time>2021-08-04T09:35:25.469Z</time>
      </trkpt>
      <trkpt lat="46.97842" lon="8.78568">
        <ele>688</ele>
        <time>2021-08-04T09:35:26.469Z</time>
      </trkpt>
      <trkpt lat="46.97841" lon="8.78568">
        <ele>687</ele>
        <time>2021-08-04T09:35:27.469Z</time>
      </trkpt>
      <trkpt lat="46.97841" lon="8.78569">
        <ele>687</ele>
        <time>2021-08-04T09:35:28.468Z</time>
      </trkpt>
      <trkpt lat="46.9784" lon="8.78569">
        <ele>687</ele>
        <time>2021-08-04T09:35:29.469Z</time>
      </trkpt>
      <trkpt lat="46.9784" lon="8.78569">
        <ele>687</ele>
        <time>2021-08-04T09:35:30.469Z</time>
      </trkpt>
      <trkpt lat="46.97839" lon="8.7857">
        <ele>687</ele>
        <time>2021-08-04T09:35:31.469Z</time>
      </trkpt>
      <trkpt lat="46.97838" lon="8.7857">
        <ele>686</ele>
        <time>2021-08-04T09:35:32.468Z</time>
      </trkpt>
      <trkpt lat="46.97838" lon="8.78571">
        <ele>686</ele>
        <time>2021-08-04T09:35:33.468Z</time>
      </trkpt>
      <trkpt lat="46.97837" lon="8.78572">
        <ele>686</ele>
        <time>2021-08-04T09:35:34.469Z</time>
      </trkpt>
      <trkpt lat="46.97837" lon="8.78574">
        <ele>686</ele>
        <time>2021-08-04T09:35:35.469Z</time>
      </trkpt>
      <trkpt lat="46.97837" lon="8.78574">
        <ele>686</ele>
        <time>2021-08-04T09:35:36.468Z</time>
      </trkpt>
      <trkpt lat="46.97836" lon="8.78575">
        <ele>686</ele>
        <time>2021-08-04T09:35:37.469Z</time>
      </trkpt>
      <trkpt lat="46.97835" lon="8.78576">
        <ele>686</ele>
        <time>2021-08-04T09:35:38.468Z</time>
      </trkpt>
      <trkpt lat="46.97833" lon="8.78577">
        <ele>686</ele>
        <time>2021-08-04T09:35:39.469Z</time>
      </trkpt>
      <trkpt lat="46.97832" lon="8.78579">
        <ele>686</ele>
        <time>2021-08-04T09:35:40.469Z</time>
      </trkpt>
      <trkpt lat="46.97831" lon="8.78581">
        <ele>686</ele>
        <time>2021-08-04T09:35:41.469Z</time>
      </trkpt>
      <trkpt lat="46.9783" lon="8.78582">
        <ele>686</ele>
        <time>2021-08-04T09:35:42.469Z</time>
      </trkpt>
      <trkpt lat="46.97829" lon="8.78583">
        <ele>686</ele>
        <time>2021-08-04T09:35:43.468Z</time>
      </trkpt>
      <trkpt lat="46.97829" lon="8.78583">
        <ele>686</ele>
        <time>2021-08-04T09:35:44.468Z</time>
      </trkpt>
      <trkpt lat="46.97829" lon="8.78584">
        <ele>686</ele>
        <time>2021-08-04T09:35:45.469Z</time>
      </trkpt>
      <trkpt lat="46.97829" lon="8.78585">
        <ele>686</ele>
        <time>2021-08-04T09:35:46.468Z</time>
      </trkpt>
      <trkpt lat="46.97828" lon="8.78585">
        <ele>686</ele>
        <time>2021-08-04T09:35:47.469Z</time>
      </trkpt>
      <trkpt lat="46.97828" lon="8.78586">
        <ele>685</ele>
        <time>2021-08-04T09:35:48.468Z</time>
      </trkpt>
      <trkpt lat="46.97827" lon="8.78587">
        <ele>684</ele>
        <time>2021-08-04T09:35:49.469Z</time>
      </trkpt>
      <trkpt lat="46.97826" lon="8.78587">
        <ele>683</ele>
        <time>2021-08-04T09:35:50.468Z</time>
      </trkpt>
      <trkpt lat="46.97825" lon="8.78588">
        <ele>682</ele>
        <time>2021-08-04T09:35:51.468Z</time>
      </trkpt>
      <trkpt lat="46.97824" lon="8.78589">
        <ele>682</ele>
        <time>2021-08-04T09:35:52.469Z</time>
      </trkpt>
      <trkpt lat="46.97823" lon="8.78589">
        <ele>681</ele>
        <time>2021-08-04T09:35:53.469Z</time>
      </trkpt>
      <trkpt lat="46.97822" lon="8.7859">
        <ele>680</ele>
        <time>2021-08-04T09:35:54.468Z</time>
      </trkpt>
      <trkpt lat="46.97821" lon="8.7859">
        <ele>679</ele>
        <time>2021-08-04T09:35:55.468Z</time>
      </trkpt>
      <trkpt lat="46.9782" lon="8.7859">
        <ele>678</ele>
        <time>2021-08-04T09:35:56.468Z</time>
      </trkpt>
      <trkpt lat="46.97819" lon="8.7859">
        <ele>677</ele>
        <time>2021-08-04T09:35:57.468Z</time>
      </trkpt>
      <trkpt lat="46.97818" lon="8.7859">
        <ele>676</ele>
        <time>2021-08-04T09:35:58.468Z</time>
      </trkpt>
      <trkpt lat="46.97817" lon="8.7859">
        <ele>676</ele>
        <time>2021-08-04T09:35:59.469Z</time>
      </trkpt>
      <trkpt lat="46.97816" lon="8.78589">
        <ele>675</ele>
        <time>2021-08-04T09:36:00.469Z</time>
      </trkpt>
      <trkpt lat="46.97815" lon="8.78589">
        <ele>674</ele>
        <time>2021-08-04T09:36:01.468Z</time>
      </trkpt>
      <trkpt lat="46.97814" lon="8.78588">
        <ele>674</ele>
        <time>2021-08-04T09:36:02.468Z</time>
      </trkpt>
      <trkpt lat="46.97813" lon="8.78588">
        <ele>674</ele>
        <time>2021-08-04T09:36:03.468Z</time>
      </trkpt>
      <trkpt lat="46.97812" lon="8.78587">
        <ele>673</ele>
        <time>2021-08-04T09:36:04.469Z</time>
      </trkpt>
      <trkpt lat="46.97812" lon="8.78587">
        <ele>673</ele>
        <time>2021-08-04T09:36:05.468Z</time>
      </trkpt>
      <trkpt lat="46.97811" lon="8.78587">
        <ele>673</ele>
        <time>2021-08-04T09:36:06.468Z</time>
      </trkpt>
      <trkpt lat="46.9781" lon="8.78586">
        <ele>673</ele>
        <time>2021-08-04T09:36:07.468Z</time>
      </trkpt>
      <trkpt lat="46.97809" lon="8.78585">
        <ele>674</ele>
        <time>2021-08-04T09:36:08.468Z</time>
      </trkpt>
      <trkpt lat="46.97808" lon="8.78585">
        <ele>674</ele>
        <time>2021-08-04T09:36:09.469Z</time>
      </trkpt>
      <trkpt lat="46.97807" lon="8.78584">
        <ele>674</ele>
        <time>2021-08-04T09:36:10.469Z</time>
      </trkpt>
      <trkpt lat="46.97806" lon="8.78583">
        <ele>674</ele>
        <time>2021-08-04T09:36:11.468Z</time>
      </trkpt>
      <trkpt lat="46.97805" lon="8.78582">
        <ele>675</ele>
        <time>2021-08-04T09:36:12.468Z</time>
      </trkpt>
      <trkpt lat="46.97804" lon="8.7858">
        <ele>675</ele>
        <time>2021-08-04T09:36:13.468Z</time>
      </trkpt>
      <trkpt lat="46.97803" lon="8.78579">
        <ele>675</ele>
        <time>2021-08-04T09:36:14.469Z</time>
      </trkpt>
      <trkpt lat="46.97802" lon="8.78579">
        <ele>675</ele>
        <time>2021-08-04T09:36:15.468Z</time>
      </trkpt>
      <trkpt lat="46.97801" lon="8.78578">
        <ele>675</ele>
        <time>2021-08-04T09:36:16.468Z</time>
      </trkpt>
      <trkpt lat="46.978" lon="8.78578">
        <ele>676</ele>
        <time>2021-08-04T09:36:17.468Z</time>
      </trkpt>
      <trkpt lat="46.97799" lon="8.78579">
        <ele>676</ele>
        <time>2021-08-04T09:36:18.468Z</time>
      </trkpt>
      <trkpt lat="46.97799" lon="8.78579">
        <ele>677</ele>
        <time>2021-08-04T09:36:19.469Z</time>
      </trkpt>
      <trkpt lat="46.97799" lon="8.78579">
        <ele>677</ele>
        <time>2021-08-04T09:36:20.468Z</time>
      </trkpt>
      <trkpt lat="46.97797" lon="8.78583">
        <ele>678</ele>
        <time>2021-08-04T09:36:21.468Z</time>
      </trkpt>
      <trkpt lat="46.97797" lon="8.78584">
        <ele>678</ele>
        <time>2021-08-04T09:36:22.469Z</time>
      </trkpt>
      <trkpt lat="46.97796" lon="8.78584">
        <ele>679</ele>
        <time>2021-08-04T09:36:23.468Z</time>
      </trkpt>
      <trkpt lat="46.97795" lon="8.78585">
        <ele>679</ele>
        <time>2021-08-04T09:36:24.468Z</time>
      </trkpt>
      <trkpt lat="46.97794" lon="8.78586">
        <ele>679</ele>
        <time>2021-08-04T09:36:25.468Z</time>
      </trkpt>
      <trkpt lat="46.97794" lon="8.78587">
        <ele>679</ele>
        <time>2021-08-04T09:36:26.468Z</time>
      </trkpt>
      <trkpt lat="46.97793" lon="8.78586">
        <ele>678</ele>
        <time>2021-08-04T09:36:27.469Z</time>
      </trkpt>
      <trkpt lat="46.97791" lon="8.78585">
        <ele>678</ele>
        <time>2021-08-04T09:36:31.469Z</time>
      </trkpt>
      <trkpt lat="46.9779" lon="8.78585">
        <ele>677</ele>
        <time>2021-08-04T09:36:32.469Z</time>
      </trkpt>
      <trkpt lat="46.9779" lon="8.78585">
        <ele>677</ele>
        <time>2021-08-04T09:36:33.469Z</time>
      </trkpt>
      <trkpt lat="46.97789" lon="8.78586">
        <ele>677</ele>
        <time>2021-08-04T09:36:34.469Z</time>
      </trkpt>
      <trkpt lat="46.97789" lon="8.78587">
        <ele>676</ele>
        <time>2021-08-04T09:36:35.468Z</time>
      </trkpt>
      <trkpt lat="46.97789" lon="8.78587">
        <ele>676</ele>
        <time>2021-08-04T09:36:36.469Z</time>
      </trkpt>
      <trkpt lat="46.97789" lon="8.78587">
        <ele>676</ele>
        <time>2021-08-04T09:36:37.468Z</time>
      </trkpt>
      <trkpt lat="46.97789" lon="8.78588">
        <ele>675</ele>
        <time>2021-08-04T09:36:38.469Z</time>
      </trkpt>
      <trkpt lat="46.97788" lon="8.78589">
        <ele>675</ele>
        <time>2021-08-04T09:36:39.469Z</time>
      </trkpt>
      <trkpt lat="46.97788" lon="8.78589">
        <ele>674</ele>
        <time>2021-08-04T09:36:40.469Z</time>
      </trkpt>
      <trkpt lat="46.97787" lon="8.78589">
        <ele>674</ele>
        <time>2021-08-04T09:36:41.468Z</time>
      </trkpt>
      <trkpt lat="46.97783" lon="8.78589">
        <ele>674</ele>
        <time>2021-08-04T09:36:42.470Z</time>
      </trkpt>
      <trkpt lat="46.97782" lon="8.7859">
        <ele>674</ele>
        <time>2021-08-04T09:36:43.469Z</time>
      </trkpt>
      <trkpt lat="46.97782" lon="8.78591">
        <ele>674</ele>
        <time>2021-08-04T09:36:44.470Z</time>
      </trkpt>
      <trkpt lat="46.97781" lon="8.78591">
        <ele>675</ele>
        <time>2021-08-04T09:36:45.470Z</time>
      </trkpt>
      <trkpt lat="46.9778" lon="8.78592">
        <ele>675</ele>
        <time>2021-08-04T09:36:46.470Z</time>
      </trkpt>
      <trkpt lat="46.97781" lon="8.7859">
        <ele>675</ele>
        <time>2021-08-04T09:36:47.469Z</time>
      </trkpt>
      <trkpt lat="46.97782" lon="8.78589">
        <ele>676</ele>
        <time>2021-08-04T09:36:48.470Z</time>
      </trkpt>
      <trkpt lat="46.97782" lon="8.78589">
        <ele>676</ele>
        <time>2021-08-04T09:36:49.469Z</time>
      </trkpt>
      <trkpt lat="46.97781" lon="8.78589">
        <ele>677</ele>
        <time>2021-08-04T09:36:50.469Z</time>
      </trkpt>
      <trkpt lat="46.97781" lon="8.7859">
        <ele>677</ele>
        <time>2021-08-04T09:36:51.470Z</time>
      </trkpt>
      <trkpt lat="46.97781" lon="8.7859">
        <ele>677</ele>
        <time>2021-08-04T09:36:52.469Z</time>
      </trkpt>
      <trkpt lat="46.97779" lon="8.78593">
        <ele>681</ele>
        <time>2021-08-04T09:36:53.471Z</time>
      </trkpt>
      <trkpt lat="46.97778" lon="8.78593">
        <ele>692</ele>
        <time>2021-08-04T09:36:54.472Z</time>
      </trkpt>
      <trkpt lat="46.97778" lon="8.78593">
        <ele>693</ele>
        <time>2021-08-04T09:36:55.471Z</time>
      </trkpt>
      <trkpt lat="46.97779" lon="8.78584">
        <ele>702</ele>
        <time>2021-08-04T09:36:56.472Z</time>
      </trkpt>
      <trkpt lat="46.97779" lon="8.78583">
        <ele>702</ele>
        <time>2021-08-04T09:36:57.471Z</time>
      </trkpt>
      <trkpt lat="46.9778" lon="8.78582">
        <ele>703</ele>
        <time>2021-08-04T09:36:58.471Z</time>
      </trkpt>
      <trkpt lat="46.9778" lon="8.78582">
        <ele>703</ele>
        <time>2021-08-04T09:36:59.472Z</time>
      </trkpt>
      <trkpt lat="46.9778" lon="8.78582">
        <ele>703</ele>
        <time>2021-08-04T09:37:00.472Z</time>
      </trkpt>
      <trkpt lat="46.9778" lon="8.78582">
        <ele>703</ele>
        <time>2021-08-04T09:37:01.472Z</time>
      </trkpt>
      <trkpt lat="46.97781" lon="8.78583">
        <ele>703</ele>
        <time>2021-08-04T09:37:02.472Z</time>
      </trkpt>
      <trkpt lat="46.97782" lon="8.78584">
        <ele>700</ele>
        <time>2021-08-04T09:37:03.472Z</time>
      </trkpt>
      <trkpt lat="46.97782" lon="8.78584">
        <ele>699</ele>
        <time>2021-08-04T09:37:04.473Z</time>
      </trkpt>
      <trkpt lat="46.97783" lon="8.78585">
        <ele>699</ele>
        <time>2021-08-04T09:37:05.472Z</time>
      </trkpt>
      <trkpt lat="46.97783" lon="8.78586">
        <ele>698</ele>
        <time>2021-08-04T09:37:06.473Z</time>
      </trkpt>
      <trkpt lat="46.97784" lon="8.78587">
        <ele>697</ele>
        <time>2021-08-04T09:37:07.473Z</time>
      </trkpt>
      <trkpt lat="46.97785" lon="8.78587">
        <ele>697</ele>
        <time>2021-08-04T09:37:08.472Z</time>
      </trkpt>
      <trkpt lat="46.97785" lon="8.78588">
        <ele>696</ele>
        <time>2021-08-04T09:37:09.473Z</time>
      </trkpt>
      <trkpt lat="46.97786" lon="8.78588">
        <ele>696</ele>
        <time>2021-08-04T09:37:10.472Z</time>
      </trkpt>
      <trkpt lat="46.97786" lon="8.78588">
        <ele>696</ele>
        <time>2021-08-04T09:37:11.473Z</time>
      </trkpt>
      <trkpt lat="46.97786" lon="8.78589">
        <ele>696</ele>
        <time>2021-08-04T09:37:12.472Z</time>
      </trkpt>
      <trkpt lat="46.97785" lon="8.7859">
        <ele>696</ele>
        <time>2021-08-04T09:37:13.472Z</time>
      </trkpt>
      <trkpt lat="46.97784" lon="8.78589">
        <ele>695</ele>
        <time>2021-08-04T09:37:14.472Z</time>
      </trkpt>
      <trkpt lat="46.97784" lon="8.78588">
        <ele>695</ele>
        <time>2021-08-04T09:37:15.473Z</time>
      </trkpt>
      <trkpt lat="46.97783" lon="8.78588">
        <ele>695</ele>
        <time>2021-08-04T09:37:16.473Z</time>
      </trkpt>
      <trkpt lat="46.97782" lon="8.78588">
        <ele>695</ele>
        <time>2021-08-04T09:37:17.473Z</time>
      </trkpt>
      <trkpt lat="46.97782" lon="8.78588">
        <ele>694</ele>
        <time>2021-08-04T09:37:18.473Z</time>
      </trkpt>
      <trkpt lat="46.97782" lon="8.78589">
        <ele>693</ele>
        <time>2021-08-04T09:37:19.473Z</time>
      </trkpt>
      <trkpt lat="46.97781" lon="8.78589">
        <ele>693</ele>
        <time>2021-08-04T09:37:20.474Z</time>
      </trkpt>
      <trkpt lat="46.97779" lon="8.7859">
        <ele>692</ele>
        <time>2021-08-04T09:37:21.473Z</time>
      </trkpt>
      <trkpt lat="46.97779" lon="8.7859">
        <ele>692</ele>
        <time>2021-08-04T09:37:22.473Z</time>
      </trkpt>
      <trkpt lat="46.9778" lon="8.78591">
        <ele>691</ele>
        <time>2021-08-04T09:37:23.474Z</time>
      </trkpt>
      <trkpt lat="46.97779" lon="8.78592">
        <ele>690</ele>
        <time>2021-08-04T09:37:24.474Z</time>
      </trkpt>
      <trkpt lat="46.9778" lon="8.78591">
        <ele>689</ele>
        <time>2021-08-04T09:37:25.475Z</time>
      </trkpt>
      <trkpt lat="46.97781" lon="8.78589">
        <ele>689</ele>
        <time>2021-08-04T09:37:26.474Z</time>
      </trkpt>
      <trkpt lat="46.97781" lon="8.78586">
        <ele>689</ele>
        <time>2021-08-04T09:37:27.474Z</time>
      </trkpt>
      <trkpt lat="46.97782" lon="8.78583">
        <ele>688</ele>
        <time>2021-08-04T09:37:28.474Z</time>
      </trkpt>
      <trkpt lat="46.97781" lon="8.78583">
        <ele>688</ele>
        <time>2021-08-04T09:37:29.474Z</time>
      </trkpt>
      <trkpt lat="46.97781" lon="8.78584">
        <ele>687</ele>
        <time>2021-08-04T09:37:30.474Z</time>
      </trkpt>
      <trkpt lat="46.97782" lon="8.78584">
        <ele>687</ele>
        <time>2021-08-04T09:37:31.474Z</time>
      </trkpt>
      <trkpt lat="46.97783" lon="8.78584">
        <ele>687</ele>
        <time>2021-08-04T09:37:32.474Z</time>
      </trkpt>
      <trkpt lat="46.97783" lon="8.78583">
        <ele>687</ele>
        <time>2021-08-04T09:37:33.474Z</time>
      </trkpt>
      <trkpt lat="46.97783" lon="8.78583">
        <ele>686</ele>
        <time>2021-08-04T09:37:34.475Z</time>
      </trkpt>
      <trkpt lat="46.97783" lon="8.78583">
        <ele>686</ele>
        <time>2021-08-04T09:37:35.475Z</time>
      </trkpt>
      <trkpt lat="46.97783" lon="8.78584">
        <ele>686</ele>
        <time>2021-08-04T09:37:36.475Z</time>
      </trkpt>
      <trkpt lat="46.97783" lon="8.78585">
        <ele>686</ele>
        <time>2021-08-04T09:37:37.475Z</time>
      </trkpt>
      <trkpt lat="46.97783" lon="8.78587">
        <ele>686</ele>
        <time>2021-08-04T09:37:38.475Z</time>
      </trkpt>
      <trkpt lat="46.97782" lon="8.78588">
        <ele>686</ele>
        <time>2021-08-04T09:37:39.474Z</time>
      </trkpt>
      <trkpt lat="46.97782" lon="8.78589">
        <ele>686</ele>
        <time>2021-08-04T09:37:40.475Z</time>
      </trkpt>
      <trkpt lat="46.97782" lon="8.7859">
        <ele>686</ele>
        <time>2021-08-04T09:37:41.475Z</time>
      </trkpt>
      <trkpt lat="46.97782" lon="8.78591">
        <ele>686</ele>
        <time>2021-08-04T09:37:42.475Z</time>
      </trkpt>
      <trkpt lat="46.97782" lon="8.78591">
        <ele>685</ele>
        <time>2021-08-04T09:37:43.475Z</time>
      </trkpt>
      <trkpt lat="46.97782" lon="8.7859">
        <ele>685</ele>
        <time>2021-08-04T09:37:44.475Z</time>
      </trkpt>
      <trkpt lat="46.97782" lon="8.78589">
        <ele>686</ele>
        <time>2021-08-04T09:37:45.475Z</time>
      </trkpt>
      <trkpt lat="46.97782" lon="8.78589">
        <ele>686</ele>
        <time>2021-08-04T09:37:46.474Z</time>
      </trkpt>
      <trkpt lat="46.97782" lon="8.78588">
        <ele>687</ele>
        <time>2021-08-04T09:37:47.474Z</time>
      </trkpt>
      <trkpt lat="46.97782" lon="8.78588">
        <ele>687</ele>
        <time>2021-08-04T09:37:48.475Z</time>
      </trkpt>
      <trkpt lat="46.97782" lon="8.78588">
        <ele>688</ele>
        <time>2021-08-04T09:37:49.474Z</time>
      </trkpt>
      <trkpt lat="46.97782" lon="8.78588">
        <ele>688</ele>
        <time>2021-08-04T09:37:50.474Z</time>
      </trkpt>
      <trkpt lat="46.97783" lon="8.78587">
        <ele>688</ele>
        <time>2021-08-04T09:37:51.475Z</time>
      </trkpt>
      <trkpt lat="46.97783" lon="8.78586">
        <ele>687</ele>
        <time>2021-08-04T09:37:52.474Z</time>
      </trkpt>
      <trkpt lat="46.97784" lon="8.78585">
        <ele>687</ele>
        <time>2021-08-04T09:37:53.475Z</time>
      </trkpt>
      <trkpt lat="46.97785" lon="8.78583">
        <ele>687</ele>
        <time>2021-08-04T09:37:54.475Z</time>
      </trkpt>
      <trkpt lat="46.97785" lon="8.78583">
        <ele>687</ele>
        <time>2021-08-04T09:37:55.475Z</time>
      </trkpt>
      <trkpt lat="46.97785" lon="8.78583">
        <ele>686</ele>
        <time>2021-08-04T09:37:56.474Z</time>
      </trkpt>
      <trkpt lat="46.97785" lon="8.78584">
        <ele>686</ele>
        <time>2021-08-04T09:37:57.474Z</time>
      </trkpt>
      <trkpt lat="46.97784" lon="8.78587">
        <ele>684</ele>
        <time>2021-08-04T09:37:58.475Z</time>
      </trkpt>
      <trkpt lat="46.97783" lon="8.78588">
        <ele>683</ele>
        <time>2021-08-04T09:37:59.475Z</time>
      </trkpt>
      <trkpt lat="46.97782" lon="8.78588">
        <ele>683</ele>
        <time>2021-08-04T09:38:00.474Z</time>
      </trkpt>
      <trkpt lat="46.97782" lon="8.78588">
        <ele>683</ele>
        <time>2021-08-04T09:38:01.475Z</time>
      </trkpt>
      <trkpt lat="46.97782" lon="8.78589">
        <ele>684</ele>
        <time>2021-08-04T09:38:07.542Z</time>
      </trkpt>
      <trkpt lat="46.97781" lon="8.78589">
        <ele>684</ele>
        <time>2021-08-04T09:38:08.542Z</time>
      </trkpt>
      <trkpt lat="46.97781" lon="8.78588">
        <ele>685</ele>
        <time>2021-08-04T09:38:09.544Z</time>
      </trkpt>
      <trkpt lat="46.97782" lon="8.78587">
        <ele>685</ele>
        <time>2021-08-04T09:38:10.544Z</time>
      </trkpt>
      <trkpt lat="46.97782" lon="8.78585">
        <ele>685</ele>
        <time>2021-08-04T09:38:11.544Z</time>
      </trkpt>
      <trkpt lat="46.97784" lon="8.78583">
        <ele>686</ele>
        <time>2021-08-04T09:38:12.543Z</time>
      </trkpt>
      <trkpt lat="46.97783" lon="8.78583">
        <ele>686</ele>
        <time>2021-08-04T09:38:13.543Z</time>
      </trkpt>
      <trkpt lat="46.97783" lon="8.78583">
        <ele>685</ele>
        <time>2021-08-04T09:38:14.543Z</time>
      </trkpt>
      <trkpt lat="46.97784" lon="8.78582">
        <ele>683</ele>
        <time>2021-08-04T09:38:15.544Z</time>
      </trkpt>
      <trkpt lat="46.97784" lon="8.78581">
        <ele>682</ele>
        <time>2021-08-04T09:38:16.543Z</time>
      </trkpt>
      <trkpt lat="46.97783" lon="8.78579">
        <ele>680</ele>
        <time>2021-08-04T09:38:17.543Z</time>
      </trkpt>
      <trkpt lat="46.97783" lon="8.78576">
        <ele>678</ele>
        <time>2021-08-04T09:38:18.543Z</time>
      </trkpt>
      <trkpt lat="46.97783" lon="8.78574">
        <ele>676</ele>
        <time>2021-08-04T09:38:19.544Z</time>
      </trkpt>
      <trkpt lat="46.97782" lon="8.78572">
        <ele>675</ele>
        <time>2021-08-04T09:38:20.543Z</time>
      </trkpt>
      <trkpt lat="46.97782" lon="8.78571">
        <ele>673</ele>
        <time>2021-08-04T09:38:21.543Z</time>
      </trkpt>
      <trkpt lat="46.97782" lon="8.78569">
        <ele>672</ele>
        <time>2021-08-04T09:38:22.543Z</time>
      </trkpt>
      <trkpt lat="46.97782" lon="8.78568">
        <ele>671</ele>
        <time>2021-08-04T09:38:23.543Z</time>
      </trkpt>
      <trkpt lat="46.97782" lon="8.78567">
        <ele>670</ele>
        <time>2021-08-04T09:38:24.543Z</time>
      </trkpt>
      <trkpt lat="46.97781" lon="8.78565">
        <ele>670</ele>
        <time>2021-08-04T09:38:25.543Z</time>
      </trkpt>
      <trkpt lat="46.97781" lon="8.78565">
        <ele>670</ele>
        <time>2021-08-04T09:38:26.544Z</time>
      </trkpt>
      <trkpt lat="46.97781" lon="8.78566">
        <ele>670</ele>
        <time>2021-08-04T09:38:27.543Z</time>
      </trkpt>
      <trkpt lat="46.97782" lon="8.78566">
        <ele>670</ele>
        <time>2021-08-04T09:38:28.544Z</time>
      </trkpt>
      <trkpt lat="46.97784" lon="8.78562">
        <ele>675</ele>
        <time>2021-08-04T09:38:29.545Z</time>
      </trkpt>
      <trkpt lat="46.97784" lon="8.78562">
        <ele>676</ele>
        <time>2021-08-04T09:38:30.545Z</time>
      </trkpt>
      <trkpt lat="46.97784" lon="8.78561">
        <ele>677</ele>
        <time>2021-08-04T09:38:31.544Z</time>
      </trkpt>
      <trkpt lat="46.97783" lon="8.7856">
        <ele>678</ele>
        <time>2021-08-04T09:38:32.544Z</time>
      </trkpt>
      <trkpt lat="46.97784" lon="8.7856">
        <ele>686</ele>
        <time>2021-08-04T09:38:33.544Z</time>
      </trkpt>
      <trkpt lat="46.97787" lon="8.78558">
        <ele>660</ele>
        <time>2021-08-04T09:38:34.544Z</time>
      </trkpt>
      <trkpt lat="46.97786" lon="8.78557">
        <ele>659</ele>
        <time>2021-08-04T09:38:35.544Z</time>
      </trkpt>
      <trkpt lat="46.97786" lon="8.78557">
        <ele>659</ele>
        <time>2021-08-04T09:38:36.545Z</time>
      </trkpt>
      <trkpt lat="46.97784" lon="8.78554">
        <ele>658</ele>
        <time>2021-08-04T09:38:37.545Z</time>
      </trkpt>
      <trkpt lat="46.97784" lon="8.78553">
        <ele>659</ele>
        <time>2021-08-04T09:38:38.545Z</time>
      </trkpt>
      <trkpt lat="46.97783" lon="8.78551">
        <ele>659</ele>
        <time>2021-08-04T09:38:39.545Z</time>
      </trkpt>
      <trkpt lat="46.97782" lon="8.7855">
        <ele>659</ele>
        <time>2021-08-04T09:38:40.545Z</time>
      </trkpt>
      <trkpt lat="46.97782" lon="8.78549">
        <ele>659</ele>
        <time>2021-08-04T09:38:41.545Z</time>
      </trkpt>
      <trkpt lat="46.97781" lon="8.78547">
        <ele>660</ele>
        <time>2021-08-04T09:38:42.545Z</time>
      </trkpt>
      <trkpt lat="46.9778" lon="8.78547">
        <ele>660</ele>
        <time>2021-08-04T09:38:43.545Z</time>
      </trkpt>
      <trkpt lat="46.9778" lon="8.78545">
        <ele>660</ele>
        <time>2021-08-04T09:38:44.545Z</time>
      </trkpt>
      <trkpt lat="46.97779" lon="8.78544">
        <ele>660</ele>
        <time>2021-08-04T09:38:45.545Z</time>
      </trkpt>
      <trkpt lat="46.97779" lon="8.78543">
        <ele>661</ele>
        <time>2021-08-04T09:38:46.545Z</time>
      </trkpt>
      <trkpt lat="46.97779" lon="8.78541">
        <ele>661</ele>
        <time>2021-08-04T09:38:47.545Z</time>
      </trkpt>
      <trkpt lat="46.97778" lon="8.7854">
        <ele>661</ele>
        <time>2021-08-04T09:38:48.545Z</time>
      </trkpt>
      <trkpt lat="46.97777" lon="8.78539">
        <ele>661</ele>
        <time>2021-08-04T09:38:49.545Z</time>
      </trkpt>
      <trkpt lat="46.97776" lon="8.78538">
        <ele>662</ele>
        <time>2021-08-04T09:38:50.545Z</time>
      </trkpt>
      <trkpt lat="46.97776" lon="8.78538">
        <ele>663</ele>
        <time>2021-08-04T09:38:51.545Z</time>
      </trkpt>
      <trkpt lat="46.97775" lon="8.78537">
        <ele>664</ele>
        <time>2021-08-04T09:38:52.545Z</time>
      </trkpt>
      <trkpt lat="46.97775" lon="8.78536">
        <ele>664</ele>
        <time>2021-08-04T09:38:53.545Z</time>
      </trkpt>
      <trkpt lat="46.97774" lon="8.78534">
        <ele>664</ele>
        <time>2021-08-04T09:38:54.545Z</time>
      </trkpt>
      <trkpt lat="46.97774" lon="8.78533">
        <ele>664</ele>
        <time>2021-08-04T09:38:55.545Z</time>
      </trkpt>
      <trkpt lat="46.97773" lon="8.78531">
        <ele>664</ele>
        <time>2021-08-04T09:38:56.545Z</time>
      </trkpt>
      <trkpt lat="46.97773" lon="8.7853">
        <ele>664</ele>
        <time>2021-08-04T09:38:57.545Z</time>
      </trkpt>
      <trkpt lat="46.97772" lon="8.78528">
        <ele>664</ele>
        <time>2021-08-04T09:38:58.545Z</time>
      </trkpt>
      <trkpt lat="46.97772" lon="8.78527">
        <ele>664</ele>
        <time>2021-08-04T09:38:59.545Z</time>
      </trkpt>
      <trkpt lat="46.97771" lon="8.78526">
        <ele>663</ele>
        <time>2021-08-04T09:39:00.545Z</time>
      </trkpt>
      <trkpt lat="46.97771" lon="8.78525">
        <ele>664</ele>
        <time>2021-08-04T09:39:01.545Z</time>
      </trkpt>
      <trkpt lat="46.9777" lon="8.78524">
        <ele>664</ele>
        <time>2021-08-04T09:39:02.545Z</time>
      </trkpt>
      <trkpt lat="46.97769" lon="8.78523">
        <ele>664</ele>
        <time>2021-08-04T09:39:03.545Z</time>
      </trkpt>
      <trkpt lat="46.97768" lon="8.78522">
        <ele>665</ele>
        <time>2021-08-04T09:39:04.545Z</time>
      </trkpt>
      <trkpt lat="46.97768" lon="8.78521">
        <ele>665</ele>
        <time>2021-08-04T09:39:05.545Z</time>
      </trkpt>
      <trkpt lat="46.97767" lon="8.78519">
        <ele>666</ele>
        <time>2021-08-04T09:39:06.545Z</time>
      </trkpt>
      <trkpt lat="46.97766" lon="8.78518">
        <ele>666</ele>
        <time>2021-08-04T09:39:07.545Z</time>
      </trkpt>
      <trkpt lat="46.97766" lon="8.78516">
        <ele>666</ele>
        <time>2021-08-04T09:39:08.545Z</time>
      </trkpt>
      <trkpt lat="46.97765" lon="8.78515">
        <ele>667</ele>
        <time>2021-08-04T09:39:09.545Z</time>
      </trkpt>
      <trkpt lat="46.97765" lon="8.78513">
        <ele>667</ele>
        <time>2021-08-04T09:39:10.545Z</time>
      </trkpt>
      <trkpt lat="46.97765" lon="8.78511">
        <ele>667</ele>
        <time>2021-08-04T09:39:11.545Z</time>
      </trkpt>
      <trkpt lat="46.97765" lon="8.7851">
        <ele>667</ele>
        <time>2021-08-04T09:39:12.545Z</time>
      </trkpt>
      <trkpt lat="46.97765" lon="8.78509">
        <ele>668</ele>
        <time>2021-08-04T09:39:13.545Z</time>
      </trkpt>
      <trkpt lat="46.97764" lon="8.78507">
        <ele>668</ele>
        <time>2021-08-04T09:39:14.545Z</time>
      </trkpt>
      <trkpt lat="46.97764" lon="8.78505">
        <ele>668</ele>
        <time>2021-08-04T09:39:15.545Z</time>
      </trkpt>
      <trkpt lat="46.97763" lon="8.78503">
        <ele>668</ele>
        <time>2021-08-04T09:39:16.545Z</time>
      </trkpt>
      <trkpt lat="46.97763" lon="8.78502">
        <ele>668</ele>
        <time>2021-08-04T09:39:17.545Z</time>
      </trkpt>
      <trkpt lat="46.97762" lon="8.785">
        <ele>667</ele>
        <time>2021-08-04T09:39:18.545Z</time>
      </trkpt>
      <trkpt lat="46.97761" lon="8.78498">
        <ele>667</ele>
        <time>2021-08-04T09:39:19.545Z</time>
      </trkpt>
      <trkpt lat="46.97761" lon="8.78496">
        <ele>667</ele>
        <time>2021-08-04T09:39:20.545Z</time>
      </trkpt>
      <trkpt lat="46.9776" lon="8.78495">
        <ele>667</ele>
        <time>2021-08-04T09:39:21.545Z</time>
      </trkpt>
      <trkpt lat="46.97759" lon="8.78494">
        <ele>667</ele>
        <time>2021-08-04T09:39:22.545Z</time>
      </trkpt>
      <trkpt lat="46.97758" lon="8.78493">
        <ele>666</ele>
        <time>2021-08-04T09:39:23.545Z</time>
      </trkpt>
      <trkpt lat="46.97758" lon="8.78491">
        <ele>666</ele>
        <time>2021-08-04T09:39:24.545Z</time>
      </trkpt>
      <trkpt lat="46.97757" lon="8.78489">
        <ele>666</ele>
        <time>2021-08-04T09:39:25.545Z</time>
      </trkpt>
      <trkpt lat="46.97755" lon="8.78488">
        <ele>666</ele>
        <time>2021-08-04T09:39:26.545Z</time>
      </trkpt>
      <trkpt lat="46.97754" lon="8.78487">
        <ele>666</ele>
        <time>2021-08-04T09:39:27.545Z</time>
      </trkpt>
      <trkpt lat="46.97753" lon="8.78486">
        <ele>666</ele>
        <time>2021-08-04T09:39:28.545Z</time>
      </trkpt>
      <trkpt lat="46.97752" lon="8.78484">
        <ele>667</ele>
        <time>2021-08-04T09:39:29.545Z</time>
      </trkpt>
      <trkpt lat="46.97751" lon="8.78482">
        <ele>667</ele>
        <time>2021-08-04T09:39:30.545Z</time>
      </trkpt>
      <trkpt lat="46.9775" lon="8.78481">
        <ele>668</ele>
        <time>2021-08-04T09:39:31.545Z</time>
      </trkpt>
      <trkpt lat="46.97749" lon="8.78479">
        <ele>668</ele>
        <time>2021-08-04T09:39:32.545Z</time>
      </trkpt>
      <trkpt lat="46.97748" lon="8.78477">
        <ele>669</ele>
        <time>2021-08-04T09:39:33.545Z</time>
      </trkpt>
      <trkpt lat="46.97747" lon="8.78475">
        <ele>669</ele>
        <time>2021-08-04T09:39:34.545Z</time>
      </trkpt>
      <trkpt lat="46.97746" lon="8.78474">
        <ele>669</ele>
        <time>2021-08-04T09:39:35.545Z</time>
      </trkpt>
      <trkpt lat="46.97746" lon="8.78473">
        <ele>669</ele>
        <time>2021-08-04T09:39:36.545Z</time>
      </trkpt>
      <trkpt lat="46.97745" lon="8.78472">
        <ele>669</ele>
        <time>2021-08-04T09:39:37.545Z</time>
      </trkpt>
      <trkpt lat="46.97745" lon="8.78471">
        <ele>670</ele>
        <time>2021-08-04T09:39:38.545Z</time>
      </trkpt>
      <trkpt lat="46.97744" lon="8.7847">
        <ele>670</ele>
        <time>2021-08-04T09:39:39.545Z</time>
      </trkpt>
      <trkpt lat="46.97744" lon="8.78469">
        <ele>670</ele>
        <time>2021-08-04T09:39:40.545Z</time>
      </trkpt>
      <trkpt lat="46.97744" lon="8.78467">
        <ele>670</ele>
        <time>2021-08-04T09:39:41.545Z</time>
      </trkpt>
      <trkpt lat="46.97744" lon="8.78465">
        <ele>669</ele>
        <time>2021-08-04T09:39:42.545Z</time>
      </trkpt>
      <trkpt lat="46.97744" lon="8.78464">
        <ele>669</ele>
        <time>2021-08-04T09:39:43.545Z</time>
      </trkpt>
      <trkpt lat="46.97743" lon="8.78463">
        <ele>669</ele>
        <time>2021-08-04T09:39:44.545Z</time>
      </trkpt>
      <trkpt lat="46.97743" lon="8.78462">
        <ele>669</ele>
        <time>2021-08-04T09:39:45.545Z</time>
      </trkpt>
      <trkpt lat="46.97742" lon="8.78461">
        <ele>669</ele>
        <time>2021-08-04T09:39:46.545Z</time>
      </trkpt>
      <trkpt lat="46.97741" lon="8.78459">
        <ele>669</ele>
        <time>2021-08-04T09:39:47.545Z</time>
      </trkpt>
      <trkpt lat="46.9774" lon="8.78458">
        <ele>669</ele>
        <time>2021-08-04T09:39:48.545Z</time>
      </trkpt>
      <trkpt lat="46.97739" lon="8.78457">
        <ele>669</ele>
        <time>2021-08-04T09:39:49.545Z</time>
      </trkpt>
      <trkpt lat="46.97739" lon="8.78456">
        <ele>669</ele>
        <time>2021-08-04T09:39:50.545Z</time>
      </trkpt>
      <trkpt lat="46.97739" lon="8.78455">
        <ele>669</ele>
        <time>2021-08-04T09:39:51.545Z</time>
      </trkpt>
      <trkpt lat="46.97739" lon="8.78453">
        <ele>669</ele>
        <time>2021-08-04T09:39:52.545Z</time>
      </trkpt>
      <trkpt lat="46.97739" lon="8.78451">
        <ele>669</ele>
        <time>2021-08-04T09:39:53.545Z</time>
      </trkpt>
      <trkpt lat="46.97739" lon="8.7845">
        <ele>669</ele>
        <time>2021-08-04T09:39:54.545Z</time>
      </trkpt>
      <trkpt lat="46.97739" lon="8.78448">
        <ele>669</ele>
        <time>2021-08-04T09:39:55.545Z</time>
      </trkpt>
      <trkpt lat="46.97738" lon="8.78445">
        <ele>670</ele>
        <time>2021-08-04T09:40:06.681Z</time>
      </trkpt>
      <trkpt lat="46.97738" lon="8.78444">
        <ele>670</ele>
        <time>2021-08-04T09:40:07.681Z</time>
      </trkpt>
      <trkpt lat="46.97737" lon="8.78442">
        <ele>669</ele>
        <time>2021-08-04T09:40:08.681Z</time>
      </trkpt>
      <trkpt lat="46.97736" lon="8.78442">
        <ele>669</ele>
        <time>2021-08-04T09:40:09.681Z</time>
      </trkpt>
      <trkpt lat="46.97735" lon="8.7844">
        <ele>669</ele>
        <time>2021-08-04T09:40:10.681Z</time>
      </trkpt>
      <trkpt lat="46.97734" lon="8.78439">
        <ele>669</ele>
        <time>2021-08-04T09:40:11.681Z</time>
      </trkpt>
      <trkpt lat="46.97733" lon="8.78438">
        <ele>669</ele>
        <time>2021-08-04T09:40:12.681Z</time>
      </trkpt>
      <trkpt lat="46.97732" lon="8.78437">
        <ele>668</ele>
        <time>2021-08-04T09:40:13.681Z</time>
      </trkpt>
      <trkpt lat="46.97731" lon="8.78436">
        <ele>668</ele>
        <time>2021-08-04T09:40:14.681Z</time>
      </trkpt>
      <trkpt lat="46.9773" lon="8.78435">
        <ele>667</ele>
        <time>2021-08-04T09:40:15.681Z</time>
      </trkpt>
      <trkpt lat="46.9773" lon="8.78434">
        <ele>667</ele>
        <time>2021-08-04T09:40:16.681Z</time>
      </trkpt>
      <trkpt lat="46.9773" lon="8.78432">
        <ele>666</ele>
        <time>2021-08-04T09:40:17.681Z</time>
      </trkpt>
      <trkpt lat="46.9773" lon="8.7843">
        <ele>666</ele>
        <time>2021-08-04T09:40:18.681Z</time>
      </trkpt>
      <trkpt lat="46.9773" lon="8.78429">
        <ele>665</ele>
        <time>2021-08-04T09:40:19.681Z</time>
      </trkpt>
      <trkpt lat="46.9773" lon="8.78427">
        <ele>665</ele>
        <time>2021-08-04T09:40:20.681Z</time>
      </trkpt>
      <trkpt lat="46.9773" lon="8.78426">
        <ele>665</ele>
        <time>2021-08-04T09:40:21.681Z</time>
      </trkpt>
      <trkpt lat="46.97729" lon="8.78424">
        <ele>665</ele>
        <time>2021-08-04T09:40:22.681Z</time>
      </trkpt>
      <trkpt lat="46.97728" lon="8.78424">
        <ele>664</ele>
        <time>2021-08-04T09:40:23.681Z</time>
      </trkpt>
      <trkpt lat="46.97727" lon="8.78423">
        <ele>664</ele>
        <time>2021-08-04T09:40:24.681Z</time>
      </trkpt>
      <trkpt lat="46.97727" lon="8.78421">
        <ele>664</ele>
        <time>2021-08-04T09:40:25.681Z</time>
      </trkpt>
      <trkpt lat="46.97726" lon="8.7842">
        <ele>664</ele>
        <time>2021-08-04T09:40:26.681Z</time>
      </trkpt>
      <trkpt lat="46.97727" lon="8.78418">
        <ele>664</ele>
        <time>2021-08-04T09:40:27.681Z</time>
      </trkpt>
      <trkpt lat="46.97727" lon="8.78416">
        <ele>664</ele>
        <time>2021-08-04T09:40:28.681Z</time>
      </trkpt>
      <trkpt lat="46.97728" lon="8.78413">
        <ele>664</ele>
        <time>2021-08-04T09:40:29.681Z</time>
      </trkpt>
      <trkpt lat="46.97728" lon="8.78411">
        <ele>664</ele>
        <time>2021-08-04T09:40:30.681Z</time>
      </trkpt>
      <trkpt lat="46.97728" lon="8.7841">
        <ele>664</ele>
        <time>2021-08-04T09:40:31.681Z</time>
      </trkpt>
      <trkpt lat="46.97727" lon="8.78409">
        <ele>664</ele>
        <time>2021-08-04T09:40:32.681Z</time>
      </trkpt>
      <trkpt lat="46.97726" lon="8.78408">
        <ele>664</ele>
        <time>2021-08-04T09:40:33.681Z</time>
      </trkpt>
      <trkpt lat="46.97726" lon="8.78407">
        <ele>664</ele>
        <time>2021-08-04T09:40:34.681Z</time>
      </trkpt>
      <trkpt lat="46.97726" lon="8.78407">
        <ele>664</ele>
        <time>2021-08-04T09:40:35.681Z</time>
      </trkpt>
      <trkpt lat="46.97725" lon="8.78406">
        <ele>664</ele>
        <time>2021-08-04T09:40:36.681Z</time>
      </trkpt>
      <trkpt lat="46.97725" lon="8.78405">
        <ele>665</ele>
        <time>2021-08-04T09:40:37.681Z</time>
      </trkpt>
      <trkpt lat="46.97724" lon="8.78404">
        <ele>665</ele>
        <time>2021-08-04T09:40:38.681Z</time>
      </trkpt>
      <trkpt lat="46.97722" lon="8.78403">
        <ele>665</ele>
        <time>2021-08-04T09:40:39.681Z</time>
      </trkpt>
      <trkpt lat="46.97722" lon="8.78402">
        <ele>665</ele>
        <time>2021-08-04T09:40:40.681Z</time>
      </trkpt>
      <trkpt lat="46.9772" lon="8.784">
        <ele>664</ele>
        <time>2021-08-04T09:40:41.681Z</time>
      </trkpt>
      <trkpt lat="46.9772" lon="8.78398">
        <ele>664</ele>
        <time>2021-08-04T09:40:42.681Z</time>
      </trkpt>
      <trkpt lat="46.97719" lon="8.78396">
        <ele>664</ele>
        <time>2021-08-04T09:40:43.681Z</time>
      </trkpt>
      <trkpt lat="46.97719" lon="8.78394">
        <ele>663</ele>
        <time>2021-08-04T09:40:44.681Z</time>
      </trkpt>
      <trkpt lat="46.97718" lon="8.78393">
        <ele>663</ele>
        <time>2021-08-04T09:40:45.681Z</time>
      </trkpt>
      <trkpt lat="46.97718" lon="8.7839">
        <ele>663</ele>
        <time>2021-08-04T09:40:46.681Z</time>
      </trkpt>
      <trkpt lat="46.97717" lon="8.78389">
        <ele>662</ele>
        <time>2021-08-04T09:40:47.681Z</time>
      </trkpt>
      <trkpt lat="46.97716" lon="8.78388">
        <ele>662</ele>
        <time>2021-08-04T09:40:48.681Z</time>
      </trkpt>
      <trkpt lat="46.97715" lon="8.78387">
        <ele>662</ele>
        <time>2021-08-04T09:40:49.681Z</time>
      </trkpt>
      <trkpt lat="46.97714" lon="8.78387">
        <ele>662</ele>
        <time>2021-08-04T09:40:50.681Z</time>
      </trkpt>
      <trkpt lat="46.97713" lon="8.78387">
        <ele>663</ele>
        <time>2021-08-04T09:40:51.681Z</time>
      </trkpt>
      <trkpt lat="46.97711" lon="8.78391">
        <ele>662</ele>
        <time>2021-08-04T09:40:52.682Z</time>
      </trkpt>
      <trkpt lat="46.97711" lon="8.78392">
        <ele>661</ele>
        <time>2021-08-04T09:40:53.681Z</time>
      </trkpt>
      <trkpt lat="46.97711" lon="8.78392">
        <ele>660</ele>
        <time>2021-08-04T09:40:54.681Z</time>
      </trkpt>
      <trkpt lat="46.97709" lon="8.78387">
        <ele>653</ele>
        <time>2021-08-04T09:40:55.681Z</time>
      </trkpt>
      <trkpt lat="46.97709" lon="8.78387">
        <ele>654</ele>
        <time>2021-08-04T09:40:56.681Z</time>
      </trkpt>
      <trkpt lat="46.97709" lon="8.78387">
        <ele>655</ele>
        <time>2021-08-04T09:40:57.681Z</time>
      </trkpt>
      <trkpt lat="46.97709" lon="8.78387">
        <ele>660</ele>
        <time>2021-08-04T09:40:58.682Z</time>
      </trkpt>
      <trkpt lat="46.9771" lon="8.78387">
        <ele>660</ele>
        <time>2021-08-04T09:40:59.681Z</time>
      </trkpt>
      <trkpt lat="46.97712" lon="8.78386">
        <ele>661</ele>
        <time>2021-08-04T09:41:00.681Z</time>
      </trkpt>
      <trkpt lat="46.97713" lon="8.78384">
        <ele>661</ele>
        <time>2021-08-04T09:41:01.682Z</time>
      </trkpt>
      <trkpt lat="46.97714" lon="8.78382">
        <ele>661</ele>
        <time>2021-08-04T09:41:02.682Z</time>
      </trkpt>
      <trkpt lat="46.97714" lon="8.78379">
        <ele>661</ele>
        <time>2021-08-04T09:41:03.681Z</time>
      </trkpt>
      <trkpt lat="46.97714" lon="8.78378">
        <ele>661</ele>
        <time>2021-08-04T09:41:04.682Z</time>
      </trkpt>
      <trkpt lat="46.97714" lon="8.78376">
        <ele>661</ele>
        <time>2021-08-04T09:41:05.682Z</time>
      </trkpt>
      <trkpt lat="46.97714" lon="8.78374">
        <ele>660</ele>
        <time>2021-08-04T09:41:06.682Z</time>
      </trkpt>
      <trkpt lat="46.97714" lon="8.78373">
        <ele>660</ele>
        <time>2021-08-04T09:41:07.681Z</time>
      </trkpt>
      <trkpt lat="46.97714" lon="8.78372">
        <ele>660</ele>
        <time>2021-08-04T09:41:08.682Z</time>
      </trkpt>
      <trkpt lat="46.97714" lon="8.78371">
        <ele>659</ele>
        <time>2021-08-04T09:41:09.682Z</time>
      </trkpt>
      <trkpt lat="46.97714" lon="8.7837">
        <ele>659</ele>
        <time>2021-08-04T09:41:10.682Z</time>
      </trkpt>
      <trkpt lat="46.97714" lon="8.78369">
        <ele>659</ele>
        <time>2021-08-04T09:41:11.682Z</time>
      </trkpt>
      <trkpt lat="46.97713" lon="8.78368">
        <ele>659</ele>
        <time>2021-08-04T09:41:12.682Z</time>
      </trkpt>
      <trkpt lat="46.97713" lon="8.78366">
        <ele>659</ele>
        <time>2021-08-04T09:41:13.681Z</time>
      </trkpt>
      <trkpt lat="46.97713" lon="8.78365">
        <ele>659</ele>
        <time>2021-08-04T09:41:14.682Z</time>
      </trkpt>
      <trkpt lat="46.97713" lon="8.78364">
        <ele>659</ele>
        <time>2021-08-04T09:41:15.682Z</time>
      </trkpt>
      <trkpt lat="46.97713" lon="8.78363">
        <ele>660</ele>
        <time>2021-08-04T09:41:16.682Z</time>
      </trkpt>
      <trkpt lat="46.97712" lon="8.78361">
        <ele>660</ele>
        <time>2021-08-04T09:41:17.681Z</time>
      </trkpt>
      <trkpt lat="46.97712" lon="8.7836">
        <ele>660</ele>
        <time>2021-08-04T09:41:18.682Z</time>
      </trkpt>
      <trkpt lat="46.97712" lon="8.78359">
        <ele>660</ele>
        <time>2021-08-04T09:41:19.682Z</time>
      </trkpt>
      <trkpt lat="46.97712" lon="8.78357">
        <ele>660</ele>
        <time>2021-08-04T09:41:20.682Z</time>
      </trkpt>
      <trkpt lat="46.97712" lon="8.78356">
        <ele>660</ele>
        <time>2021-08-04T09:41:21.681Z</time>
      </trkpt>
      <trkpt lat="46.97712" lon="8.78356">
        <ele>660</ele>
        <time>2021-08-04T09:41:22.682Z</time>
      </trkpt>
      <trkpt lat="46.97712" lon="8.78355">
        <ele>660</ele>
        <time>2021-08-04T09:41:23.682Z</time>
      </trkpt>
      <trkpt lat="46.97711" lon="8.78353">
        <ele>660</ele>
        <time>2021-08-04T09:41:24.681Z</time>
      </trkpt>
      <trkpt lat="46.97711" lon="8.78351">
        <ele>660</ele>
        <time>2021-08-04T09:41:25.681Z</time>
      </trkpt>
      <trkpt lat="46.97711" lon="8.78349">
        <ele>660</ele>
        <time>2021-08-04T09:41:26.682Z</time>
      </trkpt>
      <trkpt lat="46.97711" lon="8.78347">
        <ele>660</ele>
        <time>2021-08-04T09:41:27.682Z</time>
      </trkpt>
      <trkpt lat="46.97711" lon="8.78345">
        <ele>660</ele>
        <time>2021-08-04T09:41:28.681Z</time>
      </trkpt>
      <trkpt lat="46.97711" lon="8.78343">
        <ele>660</ele>
        <time>2021-08-04T09:41:29.682Z</time>
      </trkpt>
      <trkpt lat="46.97712" lon="8.78342">
        <ele>660</ele>
        <time>2021-08-04T09:41:30.681Z</time>
      </trkpt>
      <trkpt lat="46.97712" lon="8.7834">
        <ele>660</ele>
        <time>2021-08-04T09:41:31.681Z</time>
      </trkpt>
      <trkpt lat="46.97711" lon="8.78339">
        <ele>660</ele>
        <time>2021-08-04T09:41:32.682Z</time>
      </trkpt>
      <trkpt lat="46.97711" lon="8.78337">
        <ele>659</ele>
        <time>2021-08-04T09:41:33.681Z</time>
      </trkpt>
      <trkpt lat="46.97711" lon="8.78335">
        <ele>659</ele>
        <time>2021-08-04T09:41:34.682Z</time>
      </trkpt>
      <trkpt lat="46.97711" lon="8.78333">
        <ele>659</ele>
        <time>2021-08-04T09:41:35.681Z</time>
      </trkpt>
      <trkpt lat="46.97711" lon="8.78331">
        <ele>659</ele>
        <time>2021-08-04T09:41:36.681Z</time>
      </trkpt>
      <trkpt lat="46.97711" lon="8.78329">
        <ele>660</ele>
        <time>2021-08-04T09:41:37.681Z</time>
      </trkpt>
      <trkpt lat="46.97711" lon="8.78328">
        <ele>660</ele>
        <time>2021-08-04T09:41:38.681Z</time>
      </trkpt>
      <trkpt lat="46.97711" lon="8.78327">
        <ele>660</ele>
        <time>2021-08-04T09:41:39.681Z</time>
      </trkpt>
      <trkpt lat="46.97711" lon="8.78325">
        <ele>660</ele>
        <time>2021-08-04T09:41:40.681Z</time>
      </trkpt>
      <trkpt lat="46.97711" lon="8.78323">
        <ele>660</ele>
        <time>2021-08-04T09:41:41.681Z</time>
      </trkpt>
      <trkpt lat="46.97711" lon="8.78322">
        <ele>660</ele>
        <time>2021-08-04T09:41:42.682Z</time>
      </trkpt>
      <trkpt lat="46.97711" lon="8.7832">
        <ele>660</ele>
        <time>2021-08-04T09:41:43.682Z</time>
      </trkpt>
      <trkpt lat="46.97711" lon="8.78319">
        <ele>661</ele>
        <time>2021-08-04T09:41:44.681Z</time>
      </trkpt>
      <trkpt lat="46.97711" lon="8.78317">
        <ele>661</ele>
        <time>2021-08-04T09:41:45.681Z</time>
      </trkpt>
      <trkpt lat="46.97711" lon="8.78315">
        <ele>661</ele>
        <time>2021-08-04T09:41:46.681Z</time>
      </trkpt>
      <trkpt lat="46.97711" lon="8.78314">
        <ele>661</ele>
        <time>2021-08-04T09:41:47.681Z</time>
      </trkpt>
      <trkpt lat="46.97711" lon="8.78312">
        <ele>661</ele>
        <time>2021-08-04T09:41:48.681Z</time>
      </trkpt>
      <trkpt lat="46.97711" lon="8.78311">
        <ele>661</ele>
        <time>2021-08-04T09:41:49.681Z</time>
      </trkpt>
      <trkpt lat="46.9771" lon="8.7831">
        <ele>661</ele>
        <time>2021-08-04T09:41:50.682Z</time>
      </trkpt>
      <trkpt lat="46.9771" lon="8.78309">
        <ele>661</ele>
        <time>2021-08-04T09:41:51.682Z</time>
      </trkpt>
      <trkpt lat="46.9771" lon="8.78307">
        <ele>660</ele>
        <time>2021-08-04T09:41:52.682Z</time>
      </trkpt>
      <trkpt lat="46.9771" lon="8.78305">
        <ele>660</ele>
        <time>2021-08-04T09:41:53.681Z</time>
      </trkpt>
      <trkpt lat="46.97709" lon="8.78303">
        <ele>660</ele>
        <time>2021-08-04T09:41:54.682Z</time>
      </trkpt>
      <trkpt lat="46.97709" lon="8.78302">
        <ele>660</ele>
        <time>2021-08-04T09:41:55.681Z</time>
      </trkpt>
      <trkpt lat="46.97709" lon="8.783">
        <ele>659</ele>
        <time>2021-08-04T09:41:56.682Z</time>
      </trkpt>
      <trkpt lat="46.97709" lon="8.78298">
        <ele>659</ele>
        <time>2021-08-04T09:41:57.682Z</time>
      </trkpt>
      <trkpt lat="46.97709" lon="8.78296">
        <ele>659</ele>
        <time>2021-08-04T09:41:58.681Z</time>
      </trkpt>
      <trkpt lat="46.97709" lon="8.78294">
        <ele>659</ele>
        <time>2021-08-04T09:41:59.682Z</time>
      </trkpt>
      <trkpt lat="46.97709" lon="8.78293">
        <ele>659</ele>
        <time>2021-08-04T09:42:00.682Z</time>
      </trkpt>
      <trkpt lat="46.97709" lon="8.78291">
        <ele>659</ele>
        <time>2021-08-04T09:42:01.682Z</time>
      </trkpt>
      <trkpt lat="46.97708" lon="8.78289">
        <ele>660</ele>
        <time>2021-08-04T09:42:02.681Z</time>
      </trkpt>
      <trkpt lat="46.97708" lon="8.78287">
        <ele>660</ele>
        <time>2021-08-04T09:42:03.682Z</time>
      </trkpt>
      <trkpt lat="46.97708" lon="8.78286">
        <ele>660</ele>
        <time>2021-08-04T09:42:04.682Z</time>
      </trkpt>
      <trkpt lat="46.97708" lon="8.78284">
        <ele>661</ele>
        <time>2021-08-04T09:42:05.682Z</time>
      </trkpt>
      <trkpt lat="46.97708" lon="8.78282">
        <ele>661</ele>
        <time>2021-08-04T09:42:06.682Z</time>
      </trkpt>
      <trkpt lat="46.97708" lon="8.78279">
        <ele>662</ele>
        <time>2021-08-04T09:42:07.682Z</time>
      </trkpt>
      <trkpt lat="46.97708" lon="8.78278">
        <ele>662</ele>
        <time>2021-08-04T09:42:08.682Z</time>
      </trkpt>
      <trkpt lat="46.97708" lon="8.78276">
        <ele>663</ele>
        <time>2021-08-04T09:42:09.681Z</time>
      </trkpt>
      <trkpt lat="46.97708" lon="8.78274">
        <ele>663</ele>
        <time>2021-08-04T09:42:10.682Z</time>
      </trkpt>
      <trkpt lat="46.97708" lon="8.78272">
        <ele>663</ele>
        <time>2021-08-04T09:42:11.681Z</time>
      </trkpt>
      <trkpt lat="46.97708" lon="8.7827">
        <ele>663</ele>
        <time>2021-08-04T09:42:12.682Z</time>
      </trkpt>
      <trkpt lat="46.97709" lon="8.78268">
        <ele>663</ele>
        <time>2021-08-04T09:42:13.681Z</time>
      </trkpt>
      <trkpt lat="46.97708" lon="8.78267">
        <ele>662</ele>
        <time>2021-08-04T09:42:14.682Z</time>
      </trkpt>
      <trkpt lat="46.97709" lon="8.78266">
        <ele>662</ele>
        <time>2021-08-04T09:42:15.681Z</time>
      </trkpt>
      <trkpt lat="46.9771" lon="8.78264">
        <ele>662</ele>
        <time>2021-08-04T09:42:16.682Z</time>
      </trkpt>
      <trkpt lat="46.9771" lon="8.78263">
        <ele>661</ele>
        <time>2021-08-04T09:42:17.682Z</time>
      </trkpt>
      <trkpt lat="46.9771" lon="8.78262">
        <ele>661</ele>
        <time>2021-08-04T09:42:18.681Z</time>
      </trkpt>
      <trkpt lat="46.97711" lon="8.7826">
        <ele>661</ele>
        <time>2021-08-04T09:42:19.682Z</time>
      </trkpt>
      <trkpt lat="46.97712" lon="8.78258">
        <ele>661</ele>
        <time>2021-08-04T09:42:20.681Z</time>
      </trkpt>
      <trkpt lat="46.97712" lon="8.78258">
        <ele>661</ele>
        <time>2021-08-04T09:42:21.682Z</time>
      </trkpt>
      <trkpt lat="46.97711" lon="8.78257">
        <ele>661</ele>
        <time>2021-08-04T09:42:22.681Z</time>
      </trkpt>
      <trkpt lat="46.97711" lon="8.78256">
        <ele>661</ele>
        <time>2021-08-04T09:42:23.682Z</time>
      </trkpt>
      <trkpt lat="46.9771" lon="8.78255">
        <ele>661</ele>
        <time>2021-08-04T09:42:24.682Z</time>
      </trkpt>
      <trkpt lat="46.9771" lon="8.78254">
        <ele>661</ele>
        <time>2021-08-04T09:42:25.681Z</time>
      </trkpt>
      <trkpt lat="46.97709" lon="8.78253">
        <ele>661</ele>
        <time>2021-08-04T09:42:26.682Z</time>
      </trkpt>
      <trkpt lat="46.97709" lon="8.78252">
        <ele>661</ele>
        <time>2021-08-04T09:42:27.681Z</time>
      </trkpt>
      <trkpt lat="46.97708" lon="8.7825">
        <ele>661</ele>
        <time>2021-08-04T09:42:28.681Z</time>
      </trkpt>
      <trkpt lat="46.97708" lon="8.78248">
        <ele>660</ele>
        <time>2021-08-04T09:42:29.682Z</time>
      </trkpt>
      <trkpt lat="46.97707" lon="8.78246">
        <ele>660</ele>
        <time>2021-08-04T09:42:30.682Z</time>
      </trkpt>
      <trkpt lat="46.97707" lon="8.78244">
        <ele>660</ele>
        <time>2021-08-04T09:42:31.682Z</time>
      </trkpt>
      <trkpt lat="46.97706" lon="8.78242">
        <ele>659</ele>
        <time>2021-08-04T09:42:32.681Z</time>
      </trkpt>
      <trkpt lat="46.97706" lon="8.78239">
        <ele>659</ele>
        <time>2021-08-04T09:42:33.682Z</time>
      </trkpt>
      <trkpt lat="46.97706" lon="8.78236">
        <ele>659</ele>
        <time>2021-08-04T09:42:34.682Z</time>
      </trkpt>
      <trkpt lat="46.97705" lon="8.78234">
        <ele>659</ele>
        <time>2021-08-04T09:42:35.682Z</time>
      </trkpt>
      <trkpt lat="46.97704" lon="8.78232">
        <ele>658</ele>
        <time>2021-08-04T09:42:36.681Z</time>
      </trkpt>
      <trkpt lat="46.97704" lon="8.7823">
        <ele>658</ele>
        <time>2021-08-04T09:42:37.682Z</time>
      </trkpt>
      <trkpt lat="46.97703" lon="8.78228">
        <ele>657</ele>
        <time>2021-08-04T09:42:38.682Z</time>
      </trkpt>
      <trkpt lat="46.97703" lon="8.78226">
        <ele>656</ele>
        <time>2021-08-04T09:42:39.681Z</time>
      </trkpt>
      <trkpt lat="46.97703" lon="8.78224">
        <ele>656</ele>
        <time>2021-08-04T09:42:40.681Z</time>
      </trkpt>
      <trkpt lat="46.97703" lon="8.78223">
        <ele>655</ele>
        <time>2021-08-04T09:42:41.682Z</time>
      </trkpt>
      <trkpt lat="46.97703" lon="8.78221">
        <ele>654</ele>
        <time>2021-08-04T09:42:42.682Z</time>
      </trkpt>
      <trkpt lat="46.97703" lon="8.7822">
        <ele>654</ele>
        <time>2021-08-04T09:42:43.682Z</time>
      </trkpt>
      <trkpt lat="46.97703" lon="8.78218">
        <ele>653</ele>
        <time>2021-08-04T09:42:44.682Z</time>
      </trkpt>
      <trkpt lat="46.97703" lon="8.78217">
        <ele>653</ele>
        <time>2021-08-04T09:42:45.682Z</time>
      </trkpt>
      <trkpt lat="46.97703" lon="8.78216">
        <ele>653</ele>
        <time>2021-08-04T09:42:46.682Z</time>
      </trkpt>
      <trkpt lat="46.97702" lon="8.78214">
        <ele>653</ele>
        <time>2021-08-04T09:42:47.681Z</time>
      </trkpt>
      <trkpt lat="46.97702" lon="8.78213">
        <ele>652</ele>
        <time>2021-08-04T09:42:48.681Z</time>
      </trkpt>
      <trkpt lat="46.97701" lon="8.78213">
        <ele>653</ele>
        <time>2021-08-04T09:42:49.681Z</time>
      </trkpt>
      <trkpt lat="46.97701" lon="8.78211">
        <ele>653</ele>
        <time>2021-08-04T09:42:50.682Z</time>
      </trkpt>
      <trkpt lat="46.97701" lon="8.78209">
        <ele>653</ele>
        <time>2021-08-04T09:42:51.682Z</time>
      </trkpt>
      <trkpt lat="46.97701" lon="8.78208">
        <ele>653</ele>
        <time>2021-08-04T09:42:52.682Z</time>
      </trkpt>
      <trkpt lat="46.977" lon="8.78206">
        <ele>654</ele>
        <time>2021-08-04T09:42:53.682Z</time>
      </trkpt>
      <trkpt lat="46.977" lon="8.78204">
        <ele>654</ele>
        <time>2021-08-04T09:42:54.682Z</time>
      </trkpt>
      <trkpt lat="46.977" lon="8.78203">
        <ele>655</ele>
        <time>2021-08-04T09:42:55.681Z</time>
      </trkpt>
      <trkpt lat="46.97699" lon="8.78201">
        <ele>656</ele>
        <time>2021-08-04T09:42:56.681Z</time>
      </trkpt>
      <trkpt lat="46.97697" lon="8.78199">
        <ele>656</ele>
        <time>2021-08-04T09:42:57.681Z</time>
      </trkpt>
      <trkpt lat="46.97696" lon="8.78198">
        <ele>657</ele>
        <time>2021-08-04T09:42:58.682Z</time>
      </trkpt>
      <trkpt lat="46.97695" lon="8.78196">
        <ele>657</ele>
        <time>2021-08-04T09:42:59.682Z</time>
      </trkpt>
      <trkpt lat="46.97694" lon="8.78194">
        <ele>658</ele>
        <time>2021-08-04T09:43:00.682Z</time>
      </trkpt>
      <trkpt lat="46.97693" lon="8.78191">
        <ele>659</ele>
        <time>2021-08-04T09:43:01.681Z</time>
      </trkpt>
      <trkpt lat="46.97692" lon="8.78189">
        <ele>659</ele>
        <time>2021-08-04T09:43:02.682Z</time>
      </trkpt>
      <trkpt lat="46.97692" lon="8.78187">
        <ele>660</ele>
        <time>2021-08-04T09:43:03.682Z</time>
      </trkpt>
      <trkpt lat="46.97691" lon="8.78185">
        <ele>660</ele>
        <time>2021-08-04T09:43:04.681Z</time>
      </trkpt>
      <trkpt lat="46.9769" lon="8.78183">
        <ele>660</ele>
        <time>2021-08-04T09:43:05.682Z</time>
      </trkpt>
      <trkpt lat="46.9769" lon="8.78181">
        <ele>661</ele>
        <time>2021-08-04T09:43:06.681Z</time>
      </trkpt>
      <trkpt lat="46.97689" lon="8.7818">
        <ele>660</ele>
        <time>2021-08-04T09:43:07.682Z</time>
      </trkpt>
      <trkpt lat="46.97689" lon="8.78178">
        <ele>660</ele>
        <time>2021-08-04T09:43:08.682Z</time>
      </trkpt>
      <trkpt lat="46.97688" lon="8.78176">
        <ele>659</ele>
        <time>2021-08-04T09:43:09.682Z</time>
      </trkpt>
      <trkpt lat="46.97688" lon="8.78175">
        <ele>659</ele>
        <time>2021-08-04T09:43:10.682Z</time>
      </trkpt>
      <trkpt lat="46.97688" lon="8.78174">
        <ele>659</ele>
        <time>2021-08-04T09:43:11.681Z</time>
      </trkpt>
      <trkpt lat="46.97688" lon="8.78171">
        <ele>658</ele>
        <time>2021-08-04T09:43:12.681Z</time>
      </trkpt>
      <trkpt lat="46.97687" lon="8.78169">
        <ele>658</ele>
        <time>2021-08-04T09:43:13.681Z</time>
      </trkpt>
      <trkpt lat="46.97687" lon="8.78167">
        <ele>657</ele>
        <time>2021-08-04T09:43:14.682Z</time>
      </trkpt>
      <trkpt lat="46.97686" lon="8.78165">
        <ele>656</ele>
        <time>2021-08-04T09:43:15.681Z</time>
      </trkpt>
      <trkpt lat="46.97686" lon="8.78164">
        <ele>656</ele>
        <time>2021-08-04T09:43:16.682Z</time>
      </trkpt>
      <trkpt lat="46.97685" lon="8.78163">
        <ele>656</ele>
        <time>2021-08-04T09:43:17.682Z</time>
      </trkpt>
      <trkpt lat="46.97685" lon="8.78162">
        <ele>656</ele>
        <time>2021-08-04T09:43:18.682Z</time>
      </trkpt>
      <trkpt lat="46.97684" lon="8.78161">
        <ele>656</ele>
        <time>2021-08-04T09:43:19.681Z</time>
      </trkpt>
      <trkpt lat="46.97684" lon="8.78159">
        <ele>656</ele>
        <time>2021-08-04T09:43:20.681Z</time>
      </trkpt>
      <trkpt lat="46.97682" lon="8.78156">
        <ele>657</ele>
        <time>2021-08-04T09:43:21.682Z</time>
      </trkpt>
      <trkpt lat="46.97681" lon="8.78155">
        <ele>658</ele>
        <time>2021-08-04T09:43:22.682Z</time>
      </trkpt>
      <trkpt lat="46.9768" lon="8.78153">
        <ele>658</ele>
        <time>2021-08-04T09:43:23.681Z</time>
      </trkpt>
      <trkpt lat="46.97679" lon="8.78151">
        <ele>659</ele>
        <time>2021-08-04T09:43:24.682Z</time>
      </trkpt>
      <trkpt lat="46.97678" lon="8.7815">
        <ele>660</ele>
        <time>2021-08-04T09:43:25.681Z</time>
      </trkpt>
      <trkpt lat="46.97678" lon="8.78149">
        <ele>661</ele>
        <time>2021-08-04T09:43:26.682Z</time>
      </trkpt>
      <trkpt lat="46.97677" lon="8.78147">
        <ele>662</ele>
        <time>2021-08-04T09:43:27.682Z</time>
      </trkpt>
      <trkpt lat="46.97677" lon="8.78146">
        <ele>662</ele>
        <time>2021-08-04T09:43:28.681Z</time>
      </trkpt>
      <trkpt lat="46.97677" lon="8.78145">
        <ele>663</ele>
        <time>2021-08-04T09:43:29.681Z</time>
      </trkpt>
      <trkpt lat="46.97677" lon="8.78144">
        <ele>664</ele>
        <time>2021-08-04T09:43:30.682Z</time>
      </trkpt>
      <trkpt lat="46.97676" lon="8.78143">
        <ele>664</ele>
        <time>2021-08-04T09:43:31.682Z</time>
      </trkpt>
      <trkpt lat="46.97676" lon="8.78142">
        <ele>665</ele>
        <time>2021-08-04T09:43:32.682Z</time>
      </trkpt>
      <trkpt lat="46.97675" lon="8.7814">
        <ele>666</ele>
        <time>2021-08-04T09:43:33.682Z</time>
      </trkpt>
      <trkpt lat="46.97674" lon="8.78139">
        <ele>667</ele>
        <time>2021-08-04T09:43:34.681Z</time>
      </trkpt>
      <trkpt lat="46.97674" lon="8.78137">
        <ele>667</ele>
        <time>2021-08-04T09:43:35.682Z</time>
      </trkpt>
      <trkpt lat="46.97673" lon="8.78135">
        <ele>668</ele>
        <time>2021-08-04T09:43:36.682Z</time>
      </trkpt>
      <trkpt lat="46.97672" lon="8.78134">
        <ele>669</ele>
        <time>2021-08-04T09:43:40.830Z</time>
      </trkpt>
      <trkpt lat="46.97672" lon="8.78132">
        <ele>669</ele>
        <time>2021-08-04T09:43:41.831Z</time>
      </trkpt>
      <trkpt lat="46.97671" lon="8.78131">
        <ele>670</ele>
        <time>2021-08-04T09:43:42.830Z</time>
      </trkpt>
      <trkpt lat="46.9767" lon="8.78129">
        <ele>671</ele>
        <time>2021-08-04T09:43:43.831Z</time>
      </trkpt>
      <trkpt lat="46.97669" lon="8.78128">
        <ele>671</ele>
        <time>2021-08-04T09:43:44.831Z</time>
      </trkpt>
      <trkpt lat="46.97668" lon="8.78125">
        <ele>672</ele>
        <time>2021-08-04T09:43:45.830Z</time>
      </trkpt>
      <trkpt lat="46.97669" lon="8.78124">
        <ele>672</ele>
        <time>2021-08-04T09:43:46.831Z</time>
      </trkpt>
      <trkpt lat="46.97669" lon="8.78123">
        <ele>673</ele>
        <time>2021-08-04T09:43:47.830Z</time>
      </trkpt>
      <trkpt lat="46.97669" lon="8.78122">
        <ele>673</ele>
        <time>2021-08-04T09:43:48.830Z</time>
      </trkpt>
      <trkpt lat="46.97668" lon="8.78122">
        <ele>673</ele>
        <time>2021-08-04T09:43:49.831Z</time>
      </trkpt>
      <trkpt lat="46.97668" lon="8.78121">
        <ele>673</ele>
        <time>2021-08-04T09:43:50.831Z</time>
      </trkpt>
      <trkpt lat="46.97667" lon="8.7812">
        <ele>674</ele>
        <time>2021-08-04T09:43:51.831Z</time>
      </trkpt>
      <trkpt lat="46.97667" lon="8.78118">
        <ele>674</ele>
        <time>2021-08-04T09:43:52.831Z</time>
      </trkpt>
      <trkpt lat="46.97666" lon="8.78118">
        <ele>674</ele>
        <time>2021-08-04T09:43:53.831Z</time>
      </trkpt>
      <trkpt lat="46.97665" lon="8.78115">
        <ele>674</ele>
        <time>2021-08-04T09:43:54.831Z</time>
      </trkpt>
      <trkpt lat="46.97664" lon="8.78113">
        <ele>675</ele>
        <time>2021-08-04T09:43:55.830Z</time>
      </trkpt>
      <trkpt lat="46.97663" lon="8.7811">
        <ele>675</ele>
        <time>2021-08-04T09:43:56.831Z</time>
      </trkpt>
      <trkpt lat="46.97662" lon="8.78109">
        <ele>675</ele>
        <time>2021-08-04T09:43:57.831Z</time>
      </trkpt>
      <trkpt lat="46.97662" lon="8.78108">
        <ele>675</ele>
        <time>2021-08-04T09:43:58.830Z</time>
      </trkpt>
      <trkpt lat="46.97662" lon="8.78106">
        <ele>675</ele>
        <time>2021-08-04T09:43:59.832Z</time>
      </trkpt>
      <trkpt lat="46.97662" lon="8.78106">
        <ele>676</ele>
        <time>2021-08-04T09:44:00.832Z</time>
      </trkpt>
      <trkpt lat="46.97661" lon="8.78104">
        <ele>676</ele>
        <time>2021-08-04T09:44:01.831Z</time>
      </trkpt>
      <trkpt lat="46.9766" lon="8.78103">
        <ele>676</ele>
        <time>2021-08-04T09:44:02.832Z</time>
      </trkpt>
      <trkpt lat="46.9766" lon="8.78101">
        <ele>676</ele>
        <time>2021-08-04T09:44:03.832Z</time>
      </trkpt>
      <trkpt lat="46.9766" lon="8.781">
        <ele>676</ele>
        <time>2021-08-04T09:44:04.832Z</time>
      </trkpt>
      <trkpt lat="46.97659" lon="8.78098">
        <ele>677</ele>
        <time>2021-08-04T09:44:05.832Z</time>
      </trkpt>
      <trkpt lat="46.97659" lon="8.78097">
        <ele>677</ele>
        <time>2021-08-04T09:44:06.831Z</time>
      </trkpt>
      <trkpt lat="46.9766" lon="8.78096">
        <ele>677</ele>
        <time>2021-08-04T09:44:12.913Z</time>
      </trkpt>
      <trkpt lat="46.97659" lon="8.78096">
        <ele>677</ele>
        <time>2021-08-04T09:44:13.913Z</time>
      </trkpt>
      <trkpt lat="46.97659" lon="8.78094">
        <ele>677</ele>
        <time>2021-08-04T09:44:14.913Z</time>
      </trkpt>
      <trkpt lat="46.97658" lon="8.78093">
        <ele>677</ele>
        <time>2021-08-04T09:44:15.912Z</time>
      </trkpt>
      <trkpt lat="46.97658" lon="8.78091">
        <ele>677</ele>
        <time>2021-08-04T09:44:16.913Z</time>
      </trkpt>
      <trkpt lat="46.97657" lon="8.7809">
        <ele>677</ele>
        <time>2021-08-04T09:44:17.913Z</time>
      </trkpt>
      <trkpt lat="46.97657" lon="8.78089">
        <ele>676</ele>
        <time>2021-08-04T09:44:18.913Z</time>
      </trkpt>
      <trkpt lat="46.97656" lon="8.78087">
        <ele>676</ele>
        <time>2021-08-04T09:44:19.913Z</time>
      </trkpt>
      <trkpt lat="46.97655" lon="8.78086">
        <ele>676</ele>
        <time>2021-08-04T09:44:20.913Z</time>
      </trkpt>
      <trkpt lat="46.97655" lon="8.78084">
        <ele>675</ele>
        <time>2021-08-04T09:44:21.913Z</time>
      </trkpt>
      <trkpt lat="46.97654" lon="8.78082">
        <ele>675</ele>
        <time>2021-08-04T09:44:22.913Z</time>
      </trkpt>
      <trkpt lat="46.97654" lon="8.78081">
        <ele>675</ele>
        <time>2021-08-04T09:44:23.912Z</time>
      </trkpt>
      <trkpt lat="46.97653" lon="8.78081">
        <ele>675</ele>
        <time>2021-08-04T09:44:24.913Z</time>
      </trkpt>
      <trkpt lat="46.97653" lon="8.7808">
        <ele>674</ele>
        <time>2021-08-04T09:44:25.913Z</time>
      </trkpt>
      <trkpt lat="46.97653" lon="8.7808">
        <ele>674</ele>
        <time>2021-08-04T09:44:26.913Z</time>
      </trkpt>
      <trkpt lat="46.97653" lon="8.78079">
        <ele>674</ele>
        <time>2021-08-04T09:44:27.912Z</time>
      </trkpt>
      <trkpt lat="46.97653" lon="8.78078">
        <ele>674</ele>
        <time>2021-08-04T09:44:28.913Z</time>
      </trkpt>
      <trkpt lat="46.97653" lon="8.78078">
        <ele>673</ele>
        <time>2021-08-04T09:44:29.913Z</time>
      </trkpt>
      <trkpt lat="46.97653" lon="8.78077">
        <ele>673</ele>
        <time>2021-08-04T09:44:30.912Z</time>
      </trkpt>
      <trkpt lat="46.97653" lon="8.78077">
        <ele>672</ele>
        <time>2021-08-04T09:44:31.912Z</time>
      </trkpt>
      <trkpt lat="46.97652" lon="8.78076">
        <ele>672</ele>
        <time>2021-08-04T09:44:32.913Z</time>
      </trkpt>
      <trkpt lat="46.97651" lon="8.78076">
        <ele>672</ele>
        <time>2021-08-04T09:44:33.913Z</time>
      </trkpt>
      <trkpt lat="46.9765" lon="8.78075">
        <ele>671</ele>
        <time>2021-08-04T09:44:44.939Z</time>
      </trkpt>
      <trkpt lat="46.9765" lon="8.78073">
        <ele>671</ele>
        <time>2021-08-04T09:44:45.940Z</time>
      </trkpt>
      <trkpt lat="46.97651" lon="8.78071">
        <ele>670</ele>
        <time>2021-08-04T09:44:46.939Z</time>
      </trkpt>
      <trkpt lat="46.97651" lon="8.78069">
        <ele>670</ele>
        <time>2021-08-04T09:44:47.940Z</time>
      </trkpt>
      <trkpt lat="46.97651" lon="8.78067">
        <ele>670</ele>
        <time>2021-08-04T09:44:56.077Z</time>
      </trkpt>
      <trkpt lat="46.97651" lon="8.78065">
        <ele>670</ele>
        <time>2021-08-04T09:44:57.077Z</time>
      </trkpt>
      <trkpt lat="46.97652" lon="8.78062">
        <ele>669</ele>
        <time>2021-08-04T09:44:58.077Z</time>
      </trkpt>
      <trkpt lat="46.97652" lon="8.7806">
        <ele>669</ele>
        <time>2021-08-04T09:44:59.077Z</time>
      </trkpt>
      <trkpt lat="46.97651" lon="8.78059">
        <ele>669</ele>
        <time>2021-08-04T09:45:00.076Z</time>
      </trkpt>
      <trkpt lat="46.97649" lon="8.78058">
        <ele>668</ele>
        <time>2021-08-04T09:45:01.077Z</time>
      </trkpt>
      <trkpt lat="46.97648" lon="8.78058">
        <ele>667</ele>
        <time>2021-08-04T09:45:02.077Z</time>
      </trkpt>
      <trkpt lat="46.97647" lon="8.78057">
        <ele>666</ele>
        <time>2021-08-04T09:45:03.077Z</time>
      </trkpt>
      <trkpt lat="46.97647" lon="8.78057">
        <ele>665</ele>
        <time>2021-08-04T09:45:04.077Z</time>
      </trkpt>
      <trkpt lat="46.97647" lon="8.78056">
        <ele>664</ele>
        <time>2021-08-04T09:45:05.076Z</time>
      </trkpt>
      <trkpt lat="46.97646" lon="8.78054">
        <ele>663</ele>
        <time>2021-08-04T09:45:06.077Z</time>
      </trkpt>
      <trkpt lat="46.97646" lon="8.78053">
        <ele>662</ele>
        <time>2021-08-04T09:45:07.076Z</time>
      </trkpt>
      <trkpt lat="46.97645" lon="8.78052">
        <ele>662</ele>
        <time>2021-08-04T09:45:08.077Z</time>
      </trkpt>
      <trkpt lat="46.97644" lon="8.78051">
        <ele>661</ele>
        <time>2021-08-04T09:45:09.077Z</time>
      </trkpt>
      <trkpt lat="46.97644" lon="8.7805">
        <ele>661</ele>
        <time>2021-08-04T09:45:10.077Z</time>
      </trkpt>
      <trkpt lat="46.97643" lon="8.78048">
        <ele>660</ele>
        <time>2021-08-04T09:45:11.077Z</time>
      </trkpt>
      <trkpt lat="46.97642" lon="8.78047">
        <ele>660</ele>
        <time>2021-08-04T09:45:12.076Z</time>
      </trkpt>
      <trkpt lat="46.97642" lon="8.78046">
        <ele>660</ele>
        <time>2021-08-04T09:45:13.077Z</time>
      </trkpt>
      <trkpt lat="46.97641" lon="8.78045">
        <ele>659</ele>
        <time>2021-08-04T09:45:14.077Z</time>
      </trkpt>
      <trkpt lat="46.97641" lon="8.78044">
        <ele>659</ele>
        <time>2021-08-04T09:45:15.077Z</time>
      </trkpt>
      <trkpt lat="46.97641" lon="8.78041">
        <ele>659</ele>
        <time>2021-08-04T09:45:16.077Z</time>
      </trkpt>
      <trkpt lat="46.97641" lon="8.78038">
        <ele>659</ele>
        <time>2021-08-04T09:45:17.076Z</time>
      </trkpt>
      <trkpt lat="46.97641" lon="8.78036">
        <ele>659</ele>
        <time>2021-08-04T09:45:18.076Z</time>
      </trkpt>
      <trkpt lat="46.9764" lon="8.78034">
        <ele>658</ele>
        <time>2021-08-04T09:45:19.077Z</time>
      </trkpt>
      <trkpt lat="46.9764" lon="8.78032">
        <ele>658</ele>
        <time>2021-08-04T09:45:20.076Z</time>
      </trkpt>
      <trkpt lat="46.97639" lon="8.78031">
        <ele>658</ele>
        <time>2021-08-04T09:45:21.077Z</time>
      </trkpt>
      <trkpt lat="46.97637" lon="8.7803">
        <ele>658</ele>
        <time>2021-08-04T09:45:22.077Z</time>
      </trkpt>
      <trkpt lat="46.97637" lon="8.78029">
        <ele>658</ele>
        <time>2021-08-04T09:45:23.076Z</time>
      </trkpt>
      <trkpt lat="46.97636" lon="8.78028">
        <ele>659</ele>
        <time>2021-08-04T09:45:24.077Z</time>
      </trkpt>
      <trkpt lat="46.97636" lon="8.78027">
        <ele>659</ele>
        <time>2021-08-04T09:45:25.077Z</time>
      </trkpt>
      <trkpt lat="46.97635" lon="8.78026">
        <ele>659</ele>
        <time>2021-08-04T09:45:26.077Z</time>
      </trkpt>
      <trkpt lat="46.97635" lon="8.78025">
        <ele>660</ele>
        <time>2021-08-04T09:45:27.077Z</time>
      </trkpt>
      <trkpt lat="46.97635" lon="8.78024">
        <ele>660</ele>
        <time>2021-08-04T09:45:28.077Z</time>
      </trkpt>
      <trkpt lat="46.97634" lon="8.78022">
        <ele>661</ele>
        <time>2021-08-04T09:45:29.077Z</time>
      </trkpt>
      <trkpt lat="46.97633" lon="8.78021">
        <ele>661</ele>
        <time>2021-08-04T09:45:30.076Z</time>
      </trkpt>
      <trkpt lat="46.97632" lon="8.78019">
        <ele>661</ele>
        <time>2021-08-04T09:45:31.076Z</time>
      </trkpt>
      <trkpt lat="46.97632" lon="8.78018">
        <ele>661</ele>
        <time>2021-08-04T09:45:32.077Z</time>
      </trkpt>
      <trkpt lat="46.97631" lon="8.78016">
        <ele>662</ele>
        <time>2021-08-04T09:45:33.077Z</time>
      </trkpt>
      <trkpt lat="46.9763" lon="8.78015">
        <ele>662</ele>
        <time>2021-08-04T09:45:34.076Z</time>
      </trkpt>
      <trkpt lat="46.9763" lon="8.78014">
        <ele>662</ele>
        <time>2021-08-04T09:45:35.077Z</time>
      </trkpt>
      <trkpt lat="46.9763" lon="8.78012">
        <ele>663</ele>
        <time>2021-08-04T09:45:36.077Z</time>
      </trkpt>
      <trkpt lat="46.97629" lon="8.78011">
        <ele>663</ele>
        <time>2021-08-04T09:45:37.076Z</time>
      </trkpt>
      <trkpt lat="46.97629" lon="8.78009">
        <ele>662</ele>
        <time>2021-08-04T09:45:38.077Z</time>
      </trkpt>
      <trkpt lat="46.97628" lon="8.78008">
        <ele>662</ele>
        <time>2021-08-04T09:45:39.077Z</time>
      </trkpt>
      <trkpt lat="46.97628" lon="8.78007">
        <ele>662</ele>
        <time>2021-08-04T09:45:40.076Z</time>
      </trkpt>
      <trkpt lat="46.97628" lon="8.78006">
        <ele>662</ele>
        <time>2021-08-04T09:45:41.076Z</time>
      </trkpt>
      <trkpt lat="46.97627" lon="8.78004">
        <ele>662</ele>
        <time>2021-08-04T09:45:42.076Z</time>
      </trkpt>
      <trkpt lat="46.97627" lon="8.78003">
        <ele>662</ele>
        <time>2021-08-04T09:45:43.076Z</time>
      </trkpt>
      <trkpt lat="46.97627" lon="8.78002">
        <ele>662</ele>
        <time>2021-08-04T09:45:44.076Z</time>
      </trkpt>
      <trkpt lat="46.97626" lon="8.78001">
        <ele>662</ele>
        <time>2021-08-04T09:45:45.077Z</time>
      </trkpt>
      <trkpt lat="46.97626" lon="8.77999">
        <ele>661</ele>
        <time>2021-08-04T09:45:46.076Z</time>
      </trkpt>
      <trkpt lat="46.97625" lon="8.77997">
        <ele>661</ele>
        <time>2021-08-04T09:45:47.077Z</time>
      </trkpt>
      <trkpt lat="46.97624" lon="8.77995">
        <ele>661</ele>
        <time>2021-08-04T09:45:48.077Z</time>
      </trkpt>
      <trkpt lat="46.97623" lon="8.77993">
        <ele>661</ele>
        <time>2021-08-04T09:45:49.077Z</time>
      </trkpt>
      <trkpt lat="46.97622" lon="8.77991">
        <ele>661</ele>
        <time>2021-08-04T09:45:50.076Z</time>
      </trkpt>
      <trkpt lat="46.97621" lon="8.77988">
        <ele>661</ele>
        <time>2021-08-04T09:45:51.076Z</time>
      </trkpt>
      <trkpt lat="46.97621" lon="8.77987">
        <ele>661</ele>
        <time>2021-08-04T09:45:52.077Z</time>
      </trkpt>
      <trkpt lat="46.9762" lon="8.77985">
        <ele>661</ele>
        <time>2021-08-04T09:45:53.077Z</time>
      </trkpt>
      <trkpt lat="46.97619" lon="8.77983">
        <ele>661</ele>
        <time>2021-08-04T09:45:54.077Z</time>
      </trkpt>
      <trkpt lat="46.97619" lon="8.77981">
        <ele>661</ele>
        <time>2021-08-04T09:45:55.077Z</time>
      </trkpt>
      <trkpt lat="46.97618" lon="8.7798">
        <ele>660</ele>
        <time>2021-08-04T09:45:56.076Z</time>
      </trkpt>
      <trkpt lat="46.97618" lon="8.77978">
        <ele>660</ele>
        <time>2021-08-04T09:45:57.076Z</time>
      </trkpt>
      <trkpt lat="46.97618" lon="8.77977">
        <ele>660</ele>
        <time>2021-08-04T09:45:58.077Z</time>
      </trkpt>
      <trkpt lat="46.97617" lon="8.77975">
        <ele>660</ele>
        <time>2021-08-04T09:45:59.076Z</time>
      </trkpt>
      <trkpt lat="46.97617" lon="8.77973">
        <ele>659</ele>
        <time>2021-08-04T09:46:00.076Z</time>
      </trkpt>
      <trkpt lat="46.97617" lon="8.77972">
        <ele>659</ele>
        <time>2021-08-04T09:46:01.076Z</time>
      </trkpt>
      <trkpt lat="46.97617" lon="8.77971">
        <ele>659</ele>
        <time>2021-08-04T09:46:02.077Z</time>
      </trkpt>
      <trkpt lat="46.97616" lon="8.7797">
        <ele>659</ele>
        <time>2021-08-04T09:46:03.077Z</time>
      </trkpt>
      <trkpt lat="46.97615" lon="8.77968">
        <ele>659</ele>
        <time>2021-08-04T09:46:04.076Z</time>
      </trkpt>
      <trkpt lat="46.97614" lon="8.77967">
        <ele>660</ele>
        <time>2021-08-04T09:46:05.077Z</time>
      </trkpt>
      <trkpt lat="46.97613" lon="8.77965">
        <ele>660</ele>
        <time>2021-08-04T09:46:06.077Z</time>
      </trkpt>
      <trkpt lat="46.97611" lon="8.77963">
        <ele>660</ele>
        <time>2021-08-04T09:46:07.077Z</time>
      </trkpt>
      <trkpt lat="46.9761" lon="8.77961">
        <ele>660</ele>
        <time>2021-08-04T09:46:08.077Z</time>
      </trkpt>
      <trkpt lat="46.97609" lon="8.77959">
        <ele>660</ele>
        <time>2021-08-04T09:46:09.077Z</time>
      </trkpt>
      <trkpt lat="46.97609" lon="8.77956">
        <ele>660</ele>
        <time>2021-08-04T09:46:10.077Z</time>
      </trkpt>
      <trkpt lat="46.97608" lon="8.77955">
        <ele>659</ele>
        <time>2021-08-04T09:46:11.077Z</time>
      </trkpt>
      <trkpt lat="46.97607" lon="8.77954">
        <ele>660</ele>
        <time>2021-08-04T09:46:12.076Z</time>
      </trkpt>
      <trkpt lat="46.97607" lon="8.77953">
        <ele>660</ele>
        <time>2021-08-04T09:46:13.077Z</time>
      </trkpt>
      <trkpt lat="46.97606" lon="8.77952">
        <ele>660</ele>
        <time>2021-08-04T09:46:14.077Z</time>
      </trkpt>
      <trkpt lat="46.97606" lon="8.7795">
        <ele>660</ele>
        <time>2021-08-04T09:46:15.077Z</time>
      </trkpt>
      <trkpt lat="46.97606" lon="8.77949">
        <ele>661</ele>
        <time>2021-08-04T09:46:16.076Z</time>
      </trkpt>
      <trkpt lat="46.97605" lon="8.77947">
        <ele>661</ele>
        <time>2021-08-04T09:46:17.076Z</time>
      </trkpt>
      <trkpt lat="46.97605" lon="8.77946">
        <ele>661</ele>
        <time>2021-08-04T09:46:18.077Z</time>
      </trkpt>
      <trkpt lat="46.97604" lon="8.77944">
        <ele>660</ele>
        <time>2021-08-04T09:46:19.077Z</time>
      </trkpt>
      <trkpt lat="46.97603" lon="8.77943">
        <ele>660</ele>
        <time>2021-08-04T09:46:20.076Z</time>
      </trkpt>
      <trkpt lat="46.97603" lon="8.77942">
        <ele>660</ele>
        <time>2021-08-04T09:46:21.077Z</time>
      </trkpt>
      <trkpt lat="46.97602" lon="8.7794">
        <ele>659</ele>
        <time>2021-08-04T09:46:22.077Z</time>
      </trkpt>
      <trkpt lat="46.97601" lon="8.77939">
        <ele>659</ele>
        <time>2021-08-04T09:46:23.077Z</time>
      </trkpt>
      <trkpt lat="46.97601" lon="8.77937">
        <ele>658</ele>
        <time>2021-08-04T09:46:24.077Z</time>
      </trkpt>
      <trkpt lat="46.976" lon="8.77935">
        <ele>658</ele>
        <time>2021-08-04T09:46:25.077Z</time>
      </trkpt>
      <trkpt lat="46.976" lon="8.77934">
        <ele>658</ele>
        <time>2021-08-04T09:46:26.077Z</time>
      </trkpt>
      <trkpt lat="46.97599" lon="8.77932">
        <ele>658</ele>
        <time>2021-08-04T09:46:27.076Z</time>
      </trkpt>
      <trkpt lat="46.97599" lon="8.77931">
        <ele>658</ele>
        <time>2021-08-04T09:46:28.077Z</time>
      </trkpt>
      <trkpt lat="46.97599" lon="8.7793">
        <ele>658</ele>
        <time>2021-08-04T09:46:29.076Z</time>
      </trkpt>
      <trkpt lat="46.97599" lon="8.77928">
        <ele>658</ele>
        <time>2021-08-04T09:46:30.077Z</time>
      </trkpt>
      <trkpt lat="46.97598" lon="8.77927">
        <ele>658</ele>
        <time>2021-08-04T09:46:31.076Z</time>
      </trkpt>
      <trkpt lat="46.97597" lon="8.77925">
        <ele>658</ele>
        <time>2021-08-04T09:46:32.077Z</time>
      </trkpt>
      <trkpt lat="46.97597" lon="8.77924">
        <ele>657</ele>
        <time>2021-08-04T09:46:33.077Z</time>
      </trkpt>
      <trkpt lat="46.97596" lon="8.77922">
        <ele>657</ele>
        <time>2021-08-04T09:46:34.077Z</time>
      </trkpt>
      <trkpt lat="46.97595" lon="8.7792">
        <ele>658</ele>
        <time>2021-08-04T09:46:35.077Z</time>
      </trkpt>
      <trkpt lat="46.97594" lon="8.77919">
        <ele>658</ele>
        <time>2021-08-04T09:46:36.076Z</time>
      </trkpt>
      <trkpt lat="46.97593" lon="8.77917">
        <ele>658</ele>
        <time>2021-08-04T09:46:37.077Z</time>
      </trkpt>
      <trkpt lat="46.97593" lon="8.77916">
        <ele>658</ele>
        <time>2021-08-04T09:46:38.077Z</time>
      </trkpt>
      <trkpt lat="46.97592" lon="8.77915">
        <ele>658</ele>
        <time>2021-08-04T09:46:39.077Z</time>
      </trkpt>
      <trkpt lat="46.97591" lon="8.77913">
        <ele>658</ele>
        <time>2021-08-04T09:46:40.077Z</time>
      </trkpt>
      <trkpt lat="46.9759" lon="8.77912">
        <ele>657</ele>
        <time>2021-08-04T09:46:41.076Z</time>
      </trkpt>
      <trkpt lat="46.9759" lon="8.77911">
        <ele>657</ele>
        <time>2021-08-04T09:46:42.077Z</time>
      </trkpt>
      <trkpt lat="46.97589" lon="8.77909">
        <ele>657</ele>
        <time>2021-08-04T09:46:43.077Z</time>
      </trkpt>
      <trkpt lat="46.97588" lon="8.77908">
        <ele>658</ele>
        <time>2021-08-04T09:46:44.077Z</time>
      </trkpt>
      <trkpt lat="46.97587" lon="8.77906">
        <ele>658</ele>
        <time>2021-08-04T09:46:45.077Z</time>
      </trkpt>
      <trkpt lat="46.97587" lon="8.77905">
        <ele>658</ele>
        <time>2021-08-04T09:46:46.077Z</time>
      </trkpt>
      <trkpt lat="46.97586" lon="8.77903">
        <ele>659</ele>
        <time>2021-08-04T09:46:47.076Z</time>
      </trkpt>
      <trkpt lat="46.97586" lon="8.77902">
        <ele>659</ele>
        <time>2021-08-04T09:46:48.077Z</time>
      </trkpt>
      <trkpt lat="46.97586" lon="8.77901">
        <ele>659</ele>
        <time>2021-08-04T09:46:49.077Z</time>
      </trkpt>
      <trkpt lat="46.97585" lon="8.77899">
        <ele>659</ele>
        <time>2021-08-04T09:46:50.077Z</time>
      </trkpt>
      <trkpt lat="46.97585" lon="8.77898">
        <ele>659</ele>
        <time>2021-08-04T09:46:51.076Z</time>
      </trkpt>
      <trkpt lat="46.97584" lon="8.77896">
        <ele>659</ele>
        <time>2021-08-04T09:46:52.077Z</time>
      </trkpt>
      <trkpt lat="46.97584" lon="8.77895">
        <ele>659</ele>
        <time>2021-08-04T09:46:53.077Z</time>
      </trkpt>
      <trkpt lat="46.97583" lon="8.77893">
        <ele>658</ele>
        <time>2021-08-04T09:46:54.077Z</time>
      </trkpt>
      <trkpt lat="46.97583" lon="8.77892">
        <ele>658</ele>
        <time>2021-08-04T09:46:55.077Z</time>
      </trkpt>
      <trkpt lat="46.97582" lon="8.7789">
        <ele>658</ele>
        <time>2021-08-04T09:46:56.076Z</time>
      </trkpt>
      <trkpt lat="46.97581" lon="8.77889">
        <ele>658</ele>
        <time>2021-08-04T09:46:57.077Z</time>
      </trkpt>
      <trkpt lat="46.9758" lon="8.77888">
        <ele>658</ele>
        <time>2021-08-04T09:46:58.076Z</time>
      </trkpt>
      <trkpt lat="46.9758" lon="8.77887">
        <ele>657</ele>
        <time>2021-08-04T09:46:59.076Z</time>
      </trkpt>
      <trkpt lat="46.9758" lon="8.77885">
        <ele>657</ele>
        <time>2021-08-04T09:47:00.077Z</time>
      </trkpt>
      <trkpt lat="46.97579" lon="8.77884">
        <ele>656</ele>
        <time>2021-08-04T09:47:01.077Z</time>
      </trkpt>
      <trkpt lat="46.97579" lon="8.77883">
        <ele>656</ele>
        <time>2021-08-04T09:47:02.077Z</time>
      </trkpt>
      <trkpt lat="46.97578" lon="8.77882">
        <ele>656</ele>
        <time>2021-08-04T09:47:03.077Z</time>
      </trkpt>
      <trkpt lat="46.97577" lon="8.77881">
        <ele>655</ele>
        <time>2021-08-04T09:47:04.077Z</time>
      </trkpt>
      <trkpt lat="46.97576" lon="8.77879">
        <ele>655</ele>
        <time>2021-08-04T09:47:05.077Z</time>
      </trkpt>
      <trkpt lat="46.97576" lon="8.77878">
        <ele>655</ele>
        <time>2021-08-04T09:47:06.077Z</time>
      </trkpt>
      <trkpt lat="46.97575" lon="8.77877">
        <ele>656</ele>
        <time>2021-08-04T09:47:07.077Z</time>
      </trkpt>
      <trkpt lat="46.97575" lon="8.77876">
        <ele>656</ele>
        <time>2021-08-04T09:47:08.077Z</time>
      </trkpt>
      <trkpt lat="46.97574" lon="8.77874">
        <ele>656</ele>
        <time>2021-08-04T09:47:09.077Z</time>
      </trkpt>
      <trkpt lat="46.97574" lon="8.77873">
        <ele>656</ele>
        <time>2021-08-04T09:47:10.077Z</time>
      </trkpt>
      <trkpt lat="46.97574" lon="8.77872">
        <ele>656</ele>
        <time>2021-08-04T09:47:11.077Z</time>
      </trkpt>
      <trkpt lat="46.97573" lon="8.77871">
        <ele>656</ele>
        <time>2021-08-04T09:47:12.076Z</time>
      </trkpt>
      <trkpt lat="46.97572" lon="8.7787">
        <ele>656</ele>
        <time>2021-08-04T09:47:13.077Z</time>
      </trkpt>
      <trkpt lat="46.97571" lon="8.77869">
        <ele>656</ele>
        <time>2021-08-04T09:47:14.076Z</time>
      </trkpt>
      <trkpt lat="46.97571" lon="8.77867">
        <ele>656</ele>
        <time>2021-08-04T09:47:15.076Z</time>
      </trkpt>
      <trkpt lat="46.97571" lon="8.77866">
        <ele>656</ele>
        <time>2021-08-04T09:47:16.077Z</time>
      </trkpt>
      <trkpt lat="46.9757" lon="8.77865">
        <ele>656</ele>
        <time>2021-08-04T09:47:17.076Z</time>
      </trkpt>
      <trkpt lat="46.97569" lon="8.77863">
        <ele>655</ele>
        <time>2021-08-04T09:47:18.077Z</time>
      </trkpt>
      <trkpt lat="46.97569" lon="8.77862">
        <ele>655</ele>
        <time>2021-08-04T09:47:19.076Z</time>
      </trkpt>
      <trkpt lat="46.97569" lon="8.77861">
        <ele>655</ele>
        <time>2021-08-04T09:47:20.077Z</time>
      </trkpt>
      <trkpt lat="46.97568" lon="8.77859">
        <ele>654</ele>
        <time>2021-08-04T09:47:21.076Z</time>
      </trkpt>
      <trkpt lat="46.97567" lon="8.77858">
        <ele>654</ele>
        <time>2021-08-04T09:47:22.076Z</time>
      </trkpt>
      <trkpt lat="46.97566" lon="8.77857">
        <ele>655</ele>
        <time>2021-08-04T09:47:23.077Z</time>
      </trkpt>
      <trkpt lat="46.97566" lon="8.77855">
        <ele>655</ele>
        <time>2021-08-04T09:47:24.076Z</time>
      </trkpt>
      <trkpt lat="46.97565" lon="8.77854">
        <ele>655</ele>
        <time>2021-08-04T09:47:25.077Z</time>
      </trkpt>
      <trkpt lat="46.97564" lon="8.77852">
        <ele>655</ele>
        <time>2021-08-04T09:47:26.077Z</time>
      </trkpt>
      <trkpt lat="46.97563" lon="8.77851">
        <ele>655</ele>
        <time>2021-08-04T09:47:27.076Z</time>
      </trkpt>
      <trkpt lat="46.97563" lon="8.7785">
        <ele>655</ele>
        <time>2021-08-04T09:47:28.077Z</time>
      </trkpt>
      <trkpt lat="46.97562" lon="8.77848">
        <ele>655</ele>
        <time>2021-08-04T09:47:29.077Z</time>
      </trkpt>
      <trkpt lat="46.97561" lon="8.77846">
        <ele>655</ele>
        <time>2021-08-04T09:47:30.076Z</time>
      </trkpt>
      <trkpt lat="46.97561" lon="8.77845">
        <ele>655</ele>
        <time>2021-08-04T09:47:31.077Z</time>
      </trkpt>
      <trkpt lat="46.97561" lon="8.77844">
        <ele>655</ele>
        <time>2021-08-04T09:47:32.077Z</time>
      </trkpt>
      <trkpt lat="46.9756" lon="8.77843">
        <ele>655</ele>
        <time>2021-08-04T09:47:33.076Z</time>
      </trkpt>
      <trkpt lat="46.97559" lon="8.77841">
        <ele>655</ele>
        <time>2021-08-04T09:47:34.077Z</time>
      </trkpt>
      <trkpt lat="46.97559" lon="8.7784">
        <ele>655</ele>
        <time>2021-08-04T09:47:35.077Z</time>
      </trkpt>
      <trkpt lat="46.97558" lon="8.77838">
        <ele>655</ele>
        <time>2021-08-04T09:47:36.076Z</time>
      </trkpt>
      <trkpt lat="46.97557" lon="8.77837">
        <ele>655</ele>
        <time>2021-08-04T09:47:37.077Z</time>
      </trkpt>
      <trkpt lat="46.97557" lon="8.77835">
        <ele>655</ele>
        <time>2021-08-04T09:47:38.077Z</time>
      </trkpt>
      <trkpt lat="46.97556" lon="8.77834">
        <ele>655</ele>
        <time>2021-08-04T09:47:39.077Z</time>
      </trkpt>
      <trkpt lat="46.97556" lon="8.77833">
        <ele>655</ele>
        <time>2021-08-04T09:47:40.077Z</time>
      </trkpt>
      <trkpt lat="46.97555" lon="8.77832">
        <ele>655</ele>
        <time>2021-08-04T09:47:41.076Z</time>
      </trkpt>
      <trkpt lat="46.97554" lon="8.77831">
        <ele>655</ele>
        <time>2021-08-04T09:47:42.076Z</time>
      </trkpt>
      <trkpt lat="46.97553" lon="8.77829">
        <ele>655</ele>
        <time>2021-08-04T09:47:43.077Z</time>
      </trkpt>
      <trkpt lat="46.97552" lon="8.77828">
        <ele>655</ele>
        <time>2021-08-04T09:47:44.077Z</time>
      </trkpt>
      <trkpt lat="46.97551" lon="8.77826">
        <ele>655</ele>
        <time>2021-08-04T09:47:45.076Z</time>
      </trkpt>
      <trkpt lat="46.97551" lon="8.77824">
        <ele>655</ele>
        <time>2021-08-04T09:47:46.077Z</time>
      </trkpt>
      <trkpt lat="46.9755" lon="8.77822">
        <ele>654</ele>
        <time>2021-08-04T09:47:47.077Z</time>
      </trkpt>
      <trkpt lat="46.97549" lon="8.77821">
        <ele>654</ele>
        <time>2021-08-04T09:47:48.076Z</time>
      </trkpt>
      <trkpt lat="46.97549" lon="8.77819">
        <ele>654</ele>
        <time>2021-08-04T09:47:49.077Z</time>
      </trkpt>
      <trkpt lat="46.97548" lon="8.77816">
        <ele>654</ele>
        <time>2021-08-04T09:47:50.077Z</time>
      </trkpt>
      <trkpt lat="46.97547" lon="8.77815">
        <ele>654</ele>
        <time>2021-08-04T09:47:51.076Z</time>
      </trkpt>
      <trkpt lat="46.97546" lon="8.77814">
        <ele>654</ele>
        <time>2021-08-04T09:47:52.077Z</time>
      </trkpt>
      <trkpt lat="46.97545" lon="8.77813">
        <ele>654</ele>
        <time>2021-08-04T09:47:53.076Z</time>
      </trkpt>
      <trkpt lat="46.97544" lon="8.77811">
        <ele>655</ele>
        <time>2021-08-04T09:47:54.076Z</time>
      </trkpt>
      <trkpt lat="46.97544" lon="8.77809">
        <ele>655</ele>
        <time>2021-08-04T09:47:55.076Z</time>
      </trkpt>
      <trkpt lat="46.97543" lon="8.77808">
        <ele>656</ele>
        <time>2021-08-04T09:47:56.077Z</time>
      </trkpt>
      <trkpt lat="46.97543" lon="8.77806">
        <ele>656</ele>
        <time>2021-08-04T09:47:57.077Z</time>
      </trkpt>
      <trkpt lat="46.97543" lon="8.77804">
        <ele>655</ele>
        <time>2021-08-04T09:47:58.077Z</time>
      </trkpt>
      <trkpt lat="46.97542" lon="8.77803">
        <ele>655</ele>
        <time>2021-08-04T09:47:59.076Z</time>
      </trkpt>
      <trkpt lat="46.97541" lon="8.77801">
        <ele>654</ele>
        <time>2021-08-04T09:48:00.076Z</time>
      </trkpt>
      <trkpt lat="46.9754" lon="8.778">
        <ele>654</ele>
        <time>2021-08-04T09:48:01.077Z</time>
      </trkpt>
      <trkpt lat="46.97539" lon="8.77799">
        <ele>653</ele>
        <time>2021-08-04T09:48:02.077Z</time>
      </trkpt>
      <trkpt lat="46.97539" lon="8.77797">
        <ele>653</ele>
        <time>2021-08-04T09:48:03.077Z</time>
      </trkpt>
      <trkpt lat="46.97538" lon="8.77796">
        <ele>653</ele>
        <time>2021-08-04T09:48:04.077Z</time>
      </trkpt>
      <trkpt lat="46.97537" lon="8.77795">
        <ele>653</ele>
        <time>2021-08-04T09:48:05.077Z</time>
      </trkpt>
      <trkpt lat="46.97536" lon="8.77794">
        <ele>653</ele>
        <time>2021-08-04T09:48:06.077Z</time>
      </trkpt>
      <trkpt lat="46.97536" lon="8.77792">
        <ele>653</ele>
        <time>2021-08-04T09:48:07.076Z</time>
      </trkpt>
      <trkpt lat="46.97535" lon="8.7779">
        <ele>653</ele>
        <time>2021-08-04T09:48:08.077Z</time>
      </trkpt>
      <trkpt lat="46.97534" lon="8.77789">
        <ele>653</ele>
        <time>2021-08-04T09:48:09.077Z</time>
      </trkpt>
      <trkpt lat="46.97533" lon="8.77787">
        <ele>653</ele>
        <time>2021-08-04T09:48:10.077Z</time>
      </trkpt>
      <trkpt lat="46.97532" lon="8.77786">
        <ele>653</ele>
        <time>2021-08-04T09:48:11.077Z</time>
      </trkpt>
      <trkpt lat="46.97531" lon="8.77784">
        <ele>653</ele>
        <time>2021-08-04T09:48:12.076Z</time>
      </trkpt>
      <trkpt lat="46.9753" lon="8.77783">
        <ele>653</ele>
        <time>2021-08-04T09:48:13.077Z</time>
      </trkpt>
      <trkpt lat="46.97529" lon="8.77781">
        <ele>653</ele>
        <time>2021-08-04T09:48:14.077Z</time>
      </trkpt>
      <trkpt lat="46.97528" lon="8.77779">
        <ele>653</ele>
        <time>2021-08-04T09:48:15.076Z</time>
      </trkpt>
      <trkpt lat="46.97528" lon="8.77778">
        <ele>653</ele>
        <time>2021-08-04T09:48:16.076Z</time>
      </trkpt>
      <trkpt lat="46.97527" lon="8.77776">
        <ele>653</ele>
        <time>2021-08-04T09:48:17.077Z</time>
      </trkpt>
      <trkpt lat="46.97526" lon="8.77775">
        <ele>653</ele>
        <time>2021-08-04T09:48:18.077Z</time>
      </trkpt>
      <trkpt lat="46.97526" lon="8.77774">
        <ele>653</ele>
        <time>2021-08-04T09:48:19.077Z</time>
      </trkpt>
      <trkpt lat="46.97525" lon="8.77773">
        <ele>653</ele>
        <time>2021-08-04T09:48:20.077Z</time>
      </trkpt>
      <trkpt lat="46.97524" lon="8.77772">
        <ele>653</ele>
        <time>2021-08-04T09:48:21.077Z</time>
      </trkpt>
      <trkpt lat="46.97523" lon="8.77771">
        <ele>654</ele>
        <time>2021-08-04T09:48:22.076Z</time>
      </trkpt>
      <trkpt lat="46.97522" lon="8.7777">
        <ele>654</ele>
        <time>2021-08-04T09:48:23.076Z</time>
      </trkpt>
      <trkpt lat="46.97521" lon="8.77768">
        <ele>654</ele>
        <time>2021-08-04T09:48:24.077Z</time>
      </trkpt>
      <trkpt lat="46.9752" lon="8.77767">
        <ele>654</ele>
        <time>2021-08-04T09:48:25.077Z</time>
      </trkpt>
      <trkpt lat="46.97519" lon="8.77766">
        <ele>654</ele>
        <time>2021-08-04T09:48:26.076Z</time>
      </trkpt>
      <trkpt lat="46.97518" lon="8.77765">
        <ele>654</ele>
        <time>2021-08-04T09:48:27.077Z</time>
      </trkpt>
      <trkpt lat="46.97517" lon="8.77764">
        <ele>655</ele>
        <time>2021-08-04T09:48:28.077Z</time>
      </trkpt>
      <trkpt lat="46.97517" lon="8.77763">
        <ele>655</ele>
        <time>2021-08-04T09:48:29.077Z</time>
      </trkpt>
      <trkpt lat="46.97516" lon="8.77762">
        <ele>656</ele>
        <time>2021-08-04T09:48:30.077Z</time>
      </trkpt>
      <trkpt lat="46.97515" lon="8.77761">
        <ele>656</ele>
        <time>2021-08-04T09:48:31.077Z</time>
      </trkpt>
      <trkpt lat="46.97514" lon="8.77759">
        <ele>657</ele>
        <time>2021-08-04T09:48:32.077Z</time>
      </trkpt>
      <trkpt lat="46.97513" lon="8.77758">
        <ele>657</ele>
        <time>2021-08-04T09:48:33.076Z</time>
      </trkpt>
      <trkpt lat="46.97513" lon="8.77757">
        <ele>658</ele>
        <time>2021-08-04T09:48:34.077Z</time>
      </trkpt>
      <trkpt lat="46.97512" lon="8.77756">
        <ele>658</ele>
        <time>2021-08-04T09:48:35.077Z</time>
      </trkpt>
      <trkpt lat="46.97511" lon="8.77755">
        <ele>658</ele>
        <time>2021-08-04T09:48:36.077Z</time>
      </trkpt>
      <trkpt lat="46.9751" lon="8.77754">
        <ele>658</ele>
        <time>2021-08-04T09:48:37.077Z</time>
      </trkpt>
      <trkpt lat="46.97509" lon="8.77754">
        <ele>658</ele>
        <time>2021-08-04T09:48:38.077Z</time>
      </trkpt>
      <trkpt lat="46.97508" lon="8.77753">
        <ele>658</ele>
        <time>2021-08-04T09:48:39.076Z</time>
      </trkpt>
      <trkpt lat="46.97508" lon="8.77752">
        <ele>658</ele>
        <time>2021-08-04T09:48:40.077Z</time>
      </trkpt>
      <trkpt lat="46.97507" lon="8.7775">
        <ele>658</ele>
        <time>2021-08-04T09:48:41.077Z</time>
      </trkpt>
      <trkpt lat="46.97507" lon="8.77749">
        <ele>658</ele>
        <time>2021-08-04T09:48:42.077Z</time>
      </trkpt>
      <trkpt lat="46.97506" lon="8.77748">
        <ele>657</ele>
        <time>2021-08-04T09:48:43.077Z</time>
      </trkpt>
      <trkpt lat="46.97505" lon="8.77747">
        <ele>657</ele>
        <time>2021-08-04T09:48:44.077Z</time>
      </trkpt>
      <trkpt lat="46.97505" lon="8.77746">
        <ele>657</ele>
        <time>2021-08-04T09:48:45.077Z</time>
      </trkpt>
      <trkpt lat="46.97504" lon="8.77744">
        <ele>656</ele>
        <time>2021-08-04T09:48:46.077Z</time>
      </trkpt>
      <trkpt lat="46.97504" lon="8.77743">
        <ele>656</ele>
        <time>2021-08-04T09:48:47.076Z</time>
      </trkpt>
      <trkpt lat="46.97503" lon="8.77742">
        <ele>656</ele>
        <time>2021-08-04T09:48:48.076Z</time>
      </trkpt>
      <trkpt lat="46.97503" lon="8.7774">
        <ele>656</ele>
        <time>2021-08-04T09:48:49.077Z</time>
      </trkpt>
      <trkpt lat="46.97503" lon="8.77739">
        <ele>656</ele>
        <time>2021-08-04T09:48:50.076Z</time>
      </trkpt>
      <trkpt lat="46.97502" lon="8.77737">
        <ele>655</ele>
        <time>2021-08-04T09:48:51.077Z</time>
      </trkpt>
      <trkpt lat="46.97502" lon="8.77736">
        <ele>654</ele>
        <time>2021-08-04T09:48:52.076Z</time>
      </trkpt>
      <trkpt lat="46.97501" lon="8.77735">
        <ele>653</ele>
        <time>2021-08-04T09:48:53.077Z</time>
      </trkpt>
      <trkpt lat="46.975" lon="8.77733">
        <ele>653</ele>
        <time>2021-08-04T09:48:54.076Z</time>
      </trkpt>
      <trkpt lat="46.97499" lon="8.77731">
        <ele>652</ele>
        <time>2021-08-04T09:48:55.077Z</time>
      </trkpt>
      <trkpt lat="46.97499" lon="8.7773">
        <ele>651</ele>
        <time>2021-08-04T09:48:56.077Z</time>
      </trkpt>
      <trkpt lat="46.97498" lon="8.77728">
        <ele>651</ele>
        <time>2021-08-04T09:48:57.076Z</time>
      </trkpt>
      <trkpt lat="46.97497" lon="8.77727">
        <ele>651</ele>
        <time>2021-08-04T09:48:58.077Z</time>
      </trkpt>
      <trkpt lat="46.97496" lon="8.77725">
        <ele>652</ele>
        <time>2021-08-04T09:48:59.077Z</time>
      </trkpt>
      <trkpt lat="46.97495" lon="8.77724">
        <ele>652</ele>
        <time>2021-08-04T09:49:00.077Z</time>
      </trkpt>
      <trkpt lat="46.97495" lon="8.77723">
        <ele>652</ele>
        <time>2021-08-04T09:49:01.077Z</time>
      </trkpt>
      <trkpt lat="46.97494" lon="8.77722">
        <ele>651</ele>
        <time>2021-08-04T09:49:02.077Z</time>
      </trkpt>
      <trkpt lat="46.97493" lon="8.7772">
        <ele>651</ele>
        <time>2021-08-04T09:49:03.077Z</time>
      </trkpt>
      <trkpt lat="46.97492" lon="8.77719">
        <ele>651</ele>
        <time>2021-08-04T09:49:04.077Z</time>
      </trkpt>
      <trkpt lat="46.97491" lon="8.77717">
        <ele>651</ele>
        <time>2021-08-04T09:49:05.077Z</time>
      </trkpt>
      <trkpt lat="46.9749" lon="8.77716">
        <ele>651</ele>
        <time>2021-08-04T09:49:06.077Z</time>
      </trkpt>
      <trkpt lat="46.97489" lon="8.77715">
        <ele>651</ele>
        <time>2021-08-04T09:49:07.077Z</time>
      </trkpt>
      <trkpt lat="46.97488" lon="8.77714">
        <ele>651</ele>
        <time>2021-08-04T09:49:08.076Z</time>
      </trkpt>
      <trkpt lat="46.97487" lon="8.77713">
        <ele>652</ele>
        <time>2021-08-04T09:49:09.077Z</time>
      </trkpt>
      <trkpt lat="46.97487" lon="8.77712">
        <ele>652</ele>
        <time>2021-08-04T09:49:10.077Z</time>
      </trkpt>
      <trkpt lat="46.97486" lon="8.77711">
        <ele>652</ele>
        <time>2021-08-04T09:49:11.076Z</time>
      </trkpt>
      <trkpt lat="46.97485" lon="8.77711">
        <ele>652</ele>
        <time>2021-08-04T09:49:12.076Z</time>
      </trkpt>
      <trkpt lat="46.97484" lon="8.7771">
        <ele>652</ele>
        <time>2021-08-04T09:49:13.076Z</time>
      </trkpt>
      <trkpt lat="46.97483" lon="8.77709">
        <ele>653</ele>
        <time>2021-08-04T09:49:14.076Z</time>
      </trkpt>
      <trkpt lat="46.97482" lon="8.77707">
        <ele>653</ele>
        <time>2021-08-04T09:49:15.076Z</time>
      </trkpt>
      <trkpt lat="46.97482" lon="8.77706">
        <ele>653</ele>
        <time>2021-08-04T09:49:16.077Z</time>
      </trkpt>
      <trkpt lat="46.97481" lon="8.77705">
        <ele>653</ele>
        <time>2021-08-04T09:49:17.077Z</time>
      </trkpt>
      <trkpt lat="46.97479" lon="8.77705">
        <ele>653</ele>
        <time>2021-08-04T09:49:18.076Z</time>
      </trkpt>
      <trkpt lat="46.97478" lon="8.77704">
        <ele>653</ele>
        <time>2021-08-04T09:49:19.076Z</time>
      </trkpt>
      <trkpt lat="46.97477" lon="8.77704">
        <ele>653</ele>
        <time>2021-08-04T09:49:20.076Z</time>
      </trkpt>
      <trkpt lat="46.97476" lon="8.77704">
        <ele>652</ele>
        <time>2021-08-04T09:49:21.076Z</time>
      </trkpt>
      <trkpt lat="46.97475" lon="8.77704">
        <ele>651</ele>
        <time>2021-08-04T09:49:22.077Z</time>
      </trkpt>
      <trkpt lat="46.97474" lon="8.77704">
        <ele>651</ele>
        <time>2021-08-04T09:49:23.077Z</time>
      </trkpt>
      <trkpt lat="46.97473" lon="8.77704">
        <ele>650</ele>
        <time>2021-08-04T09:49:24.077Z</time>
      </trkpt>
      <trkpt lat="46.97472" lon="8.77704">
        <ele>649</ele>
        <time>2021-08-04T09:49:25.076Z</time>
      </trkpt>
      <trkpt lat="46.9747" lon="8.77703">
        <ele>648</ele>
        <time>2021-08-04T09:49:26.077Z</time>
      </trkpt>
      <trkpt lat="46.97469" lon="8.77702">
        <ele>648</ele>
        <time>2021-08-04T09:49:27.077Z</time>
      </trkpt>
      <trkpt lat="46.97468" lon="8.77702">
        <ele>647</ele>
        <time>2021-08-04T09:49:28.077Z</time>
      </trkpt>
      <trkpt lat="46.97467" lon="8.77702">
        <ele>647</ele>
        <time>2021-08-04T09:49:29.077Z</time>
      </trkpt>
      <trkpt lat="46.97466" lon="8.77702">
        <ele>647</ele>
        <time>2021-08-04T09:49:30.076Z</time>
      </trkpt>
      <trkpt lat="46.97465" lon="8.77701">
        <ele>647</ele>
        <time>2021-08-04T09:49:31.077Z</time>
      </trkpt>
      <trkpt lat="46.97464" lon="8.77701">
        <ele>647</ele>
        <time>2021-08-04T09:49:32.077Z</time>
      </trkpt>
      <trkpt lat="46.97464" lon="8.77701">
        <ele>647</ele>
        <time>2021-08-04T09:49:33.077Z</time>
      </trkpt>
      <trkpt lat="46.97463" lon="8.777">
        <ele>647</ele>
        <time>2021-08-04T09:49:34.077Z</time>
      </trkpt>
      <trkpt lat="46.97461" lon="8.777">
        <ele>647</ele>
        <time>2021-08-04T09:49:35.077Z</time>
      </trkpt>
      <trkpt lat="46.9746" lon="8.777">
        <ele>647</ele>
        <time>2021-08-04T09:49:36.077Z</time>
      </trkpt>
      <trkpt lat="46.97459" lon="8.77701">
        <ele>647</ele>
        <time>2021-08-04T09:49:37.077Z</time>
      </trkpt>
      <trkpt lat="46.97457" lon="8.77702">
        <ele>646</ele>
        <time>2021-08-04T09:49:38.077Z</time>
      </trkpt>
      <trkpt lat="46.97456" lon="8.77702">
        <ele>646</ele>
        <time>2021-08-04T09:49:39.077Z</time>
      </trkpt>
      <trkpt lat="46.97454" lon="8.77701">
        <ele>646</ele>
        <time>2021-08-04T09:49:40.077Z</time>
      </trkpt>
      <trkpt lat="46.97453" lon="8.777">
        <ele>646</ele>
        <time>2021-08-04T09:49:41.077Z</time>
      </trkpt>
      <trkpt lat="46.97452" lon="8.77698">
        <ele>645</ele>
        <time>2021-08-04T09:49:42.077Z</time>
      </trkpt>
      <trkpt lat="46.9745" lon="8.77698">
        <ele>645</ele>
        <time>2021-08-04T09:49:43.077Z</time>
      </trkpt>
      <trkpt lat="46.97449" lon="8.77697">
        <ele>645</ele>
        <time>2021-08-04T09:49:44.076Z</time>
      </trkpt>
      <trkpt lat="46.97448" lon="8.77696">
        <ele>644</ele>
        <time>2021-08-04T09:49:45.076Z</time>
      </trkpt>
      <trkpt lat="46.97447" lon="8.77694">
        <ele>644</ele>
        <time>2021-08-04T09:49:46.076Z</time>
      </trkpt>
      <trkpt lat="46.97446" lon="8.77693">
        <ele>643</ele>
        <time>2021-08-04T09:49:47.076Z</time>
      </trkpt>
      <trkpt lat="46.97444" lon="8.77692">
        <ele>643</ele>
        <time>2021-08-04T09:49:48.076Z</time>
      </trkpt>
      <trkpt lat="46.97443" lon="8.77691">
        <ele>642</ele>
        <time>2021-08-04T09:49:49.077Z</time>
      </trkpt>
      <trkpt lat="46.97442" lon="8.7769">
        <ele>642</ele>
        <time>2021-08-04T09:49:50.077Z</time>
      </trkpt>
      <trkpt lat="46.97441" lon="8.77689">
        <ele>641</ele>
        <time>2021-08-04T09:49:51.077Z</time>
      </trkpt>
      <trkpt lat="46.97441" lon="8.77687">
        <ele>641</ele>
        <time>2021-08-04T09:49:52.077Z</time>
      </trkpt>
      <trkpt lat="46.9744" lon="8.77686">
        <ele>640</ele>
        <time>2021-08-04T09:49:53.077Z</time>
      </trkpt>
      <trkpt lat="46.97439" lon="8.77686">
        <ele>639</ele>
        <time>2021-08-04T09:49:54.076Z</time>
      </trkpt>
      <trkpt lat="46.97438" lon="8.77685">
        <ele>638</ele>
        <time>2021-08-04T09:49:55.076Z</time>
      </trkpt>
      <trkpt lat="46.97437" lon="8.77683">
        <ele>638</ele>
        <time>2021-08-04T09:49:56.077Z</time>
      </trkpt>
      <trkpt lat="46.97435" lon="8.77682">
        <ele>637</ele>
        <time>2021-08-04T09:49:57.076Z</time>
      </trkpt>
      <trkpt lat="46.97434" lon="8.7768">
        <ele>637</ele>
        <time>2021-08-04T09:49:58.076Z</time>
      </trkpt>
      <trkpt lat="46.97432" lon="8.77679">
        <ele>637</ele>
        <time>2021-08-04T09:49:59.076Z</time>
      </trkpt>
      <trkpt lat="46.97431" lon="8.77678">
        <ele>636</ele>
        <time>2021-08-04T09:50:00.077Z</time>
      </trkpt>
      <trkpt lat="46.9743" lon="8.77677">
        <ele>636</ele>
        <time>2021-08-04T09:50:01.077Z</time>
      </trkpt>
      <trkpt lat="46.97429" lon="8.77676">
        <ele>635</ele>
        <time>2021-08-04T09:50:02.076Z</time>
      </trkpt>
      <trkpt lat="46.97428" lon="8.77675">
        <ele>635</ele>
        <time>2021-08-04T09:50:03.077Z</time>
      </trkpt>
      <trkpt lat="46.97427" lon="8.77674">
        <ele>634</ele>
        <time>2021-08-04T09:50:04.077Z</time>
      </trkpt>
      <trkpt lat="46.97426" lon="8.77673">
        <ele>634</ele>
        <time>2021-08-04T09:50:05.077Z</time>
      </trkpt>
      <trkpt lat="46.97424" lon="8.77672">
        <ele>634</ele>
        <time>2021-08-04T09:50:06.076Z</time>
      </trkpt>
      <trkpt lat="46.97423" lon="8.7767">
        <ele>635</ele>
        <time>2021-08-04T09:50:07.077Z</time>
      </trkpt>
      <trkpt lat="46.97422" lon="8.77668">
        <ele>635</ele>
        <time>2021-08-04T09:50:08.077Z</time>
      </trkpt>
      <trkpt lat="46.97421" lon="8.77666">
        <ele>635</ele>
        <time>2021-08-04T09:50:09.077Z</time>
      </trkpt>
      <trkpt lat="46.97421" lon="8.77665">
        <ele>636</ele>
        <time>2021-08-04T09:50:10.077Z</time>
      </trkpt>
      <trkpt lat="46.9742" lon="8.77663">
        <ele>636</ele>
        <time>2021-08-04T09:50:11.076Z</time>
      </trkpt>
      <trkpt lat="46.9742" lon="8.77662">
        <ele>635</ele>
        <time>2021-08-04T09:50:12.077Z</time>
      </trkpt>
      <trkpt lat="46.97419" lon="8.7766">
        <ele>635</ele>
        <time>2021-08-04T09:50:13.076Z</time>
      </trkpt>
      <trkpt lat="46.97419" lon="8.77659">
        <ele>635</ele>
        <time>2021-08-04T09:50:14.077Z</time>
      </trkpt>
      <trkpt lat="46.97418" lon="8.77657">
        <ele>634</ele>
        <time>2021-08-04T09:50:15.076Z</time>
      </trkpt>
      <trkpt lat="46.97417" lon="8.77656">
        <ele>634</ele>
        <time>2021-08-04T09:50:16.077Z</time>
      </trkpt>
      <trkpt lat="46.97417" lon="8.77654">
        <ele>633</ele>
        <time>2021-08-04T09:50:17.077Z</time>
      </trkpt>
      <trkpt lat="46.97417" lon="8.77653">
        <ele>632</ele>
        <time>2021-08-04T09:50:18.077Z</time>
      </trkpt>
      <trkpt lat="46.97416" lon="8.77651">
        <ele>632</ele>
        <time>2021-08-04T09:50:19.076Z</time>
      </trkpt>
      <trkpt lat="46.97416" lon="8.77649">
        <ele>633</ele>
        <time>2021-08-04T09:50:20.077Z</time>
      </trkpt>
      <trkpt lat="46.97415" lon="8.77647">
        <ele>633</ele>
        <time>2021-08-04T09:50:21.077Z</time>
      </trkpt>
      <trkpt lat="46.97414" lon="8.77645">
        <ele>633</ele>
        <time>2021-08-04T09:50:22.077Z</time>
      </trkpt>
      <trkpt lat="46.97414" lon="8.77643">
        <ele>633</ele>
        <time>2021-08-04T09:50:23.077Z</time>
      </trkpt>
      <trkpt lat="46.97414" lon="8.77641">
        <ele>633</ele>
        <time>2021-08-04T09:50:24.076Z</time>
      </trkpt>
      <trkpt lat="46.97413" lon="8.77639">
        <ele>633</ele>
        <time>2021-08-04T09:50:25.077Z</time>
      </trkpt>
      <trkpt lat="46.97413" lon="8.77637">
        <ele>633</ele>
        <time>2021-08-04T09:50:26.076Z</time>
      </trkpt>
      <trkpt lat="46.97413" lon="8.77635">
        <ele>633</ele>
        <time>2021-08-04T09:50:27.077Z</time>
      </trkpt>
      <trkpt lat="46.97412" lon="8.77633">
        <ele>633</ele>
        <time>2021-08-04T09:50:28.077Z</time>
      </trkpt>
      <trkpt lat="46.97412" lon="8.77632">
        <ele>633</ele>
        <time>2021-08-04T09:50:59.175Z</time>
      </trkpt>
      <trkpt lat="46.97412" lon="8.7763">
        <ele>633</ele>
        <time>2021-08-04T09:51:00.175Z</time>
      </trkpt>
      <trkpt lat="46.97411" lon="8.77628">
        <ele>632</ele>
        <time>2021-08-04T09:51:01.174Z</time>
      </trkpt>
      <trkpt lat="46.97411" lon="8.77626">
        <ele>632</ele>
        <time>2021-08-04T09:51:02.175Z</time>
      </trkpt>
      <trkpt lat="46.97411" lon="8.77624">
        <ele>632</ele>
        <time>2021-08-04T09:51:03.174Z</time>
      </trkpt>
      <trkpt lat="46.97411" lon="8.77623">
        <ele>631</ele>
        <time>2021-08-04T09:51:04.174Z</time>
      </trkpt>
      <trkpt lat="46.97411" lon="8.7762">
        <ele>631</ele>
        <time>2021-08-04T09:51:05.175Z</time>
      </trkpt>
      <trkpt lat="46.97411" lon="8.77619">
        <ele>631</ele>
        <time>2021-08-04T09:51:06.174Z</time>
      </trkpt>
      <trkpt lat="46.97411" lon="8.77617">
        <ele>630</ele>
        <time>2021-08-04T09:51:07.175Z</time>
      </trkpt>
      <trkpt lat="46.97411" lon="8.77616">
        <ele>630</ele>
        <time>2021-08-04T09:51:08.174Z</time>
      </trkpt>
      <trkpt lat="46.97411" lon="8.77615">
        <ele>630</ele>
        <time>2021-08-04T09:51:09.174Z</time>
      </trkpt>
      <trkpt lat="46.97411" lon="8.77614">
        <ele>630</ele>
        <time>2021-08-04T09:51:10.175Z</time>
      </trkpt>
      <trkpt lat="46.97411" lon="8.77613">
        <ele>630</ele>
        <time>2021-08-04T09:51:11.174Z</time>
      </trkpt>
      <trkpt lat="46.97412" lon="8.77611">
        <ele>629</ele>
        <time>2021-08-04T09:51:12.174Z</time>
      </trkpt>
      <trkpt lat="46.97412" lon="8.77611">
        <ele>629</ele>
        <time>2021-08-04T09:51:13.174Z</time>
      </trkpt>
      <trkpt lat="46.97412" lon="8.77609">
        <ele>629</ele>
        <time>2021-08-04T09:51:14.174Z</time>
      </trkpt>
      <trkpt lat="46.97412" lon="8.77607">
        <ele>628</ele>
        <time>2021-08-04T09:51:15.174Z</time>
      </trkpt>
      <trkpt lat="46.97413" lon="8.77606">
        <ele>628</ele>
        <time>2021-08-04T09:51:16.174Z</time>
      </trkpt>
      <trkpt lat="46.97413" lon="8.77604">
        <ele>628</ele>
        <time>2021-08-04T09:51:17.174Z</time>
      </trkpt>
      <trkpt lat="46.97414" lon="8.77602">
        <ele>628</ele>
        <time>2021-08-04T09:51:28.286Z</time>
      </trkpt>
      <trkpt lat="46.97415" lon="8.776">
        <ele>628</ele>
        <time>2021-08-04T09:51:29.286Z</time>
      </trkpt>
      <trkpt lat="46.97415" lon="8.77599">
        <ele>628</ele>
        <time>2021-08-04T09:51:30.285Z</time>
      </trkpt>
      <trkpt lat="46.97416" lon="8.77598">
        <ele>627</ele>
        <time>2021-08-04T09:51:49.056Z</time>
      </trkpt>
      <trkpt lat="46.97417" lon="8.77596">
        <ele>627</ele>
        <time>2021-08-04T09:51:50.056Z</time>
      </trkpt>
      <trkpt lat="46.97417" lon="8.77594">
        <ele>627</ele>
        <time>2021-08-04T09:51:51.056Z</time>
      </trkpt>
      <trkpt lat="46.97417" lon="8.77592">
        <ele>626</ele>
        <time>2021-08-04T09:51:52.056Z</time>
      </trkpt>
      <trkpt lat="46.97418" lon="8.7759">
        <ele>626</ele>
        <time>2021-08-04T09:51:53.056Z</time>
      </trkpt>
      <trkpt lat="46.97418" lon="8.77589">
        <ele>625</ele>
        <time>2021-08-04T09:51:54.056Z</time>
      </trkpt>
      <trkpt lat="46.97418" lon="8.77587">
        <ele>625</ele>
        <time>2021-08-04T09:51:57.009Z</time>
      </trkpt>
      <trkpt lat="46.97418" lon="8.77585">
        <ele>624</ele>
        <time>2021-08-04T09:51:58.010Z</time>
      </trkpt>
      <trkpt lat="46.97418" lon="8.77584">
        <ele>624</ele>
        <time>2021-08-04T09:51:59.009Z</time>
      </trkpt>
      <trkpt lat="46.97418" lon="8.77582">
        <ele>624</ele>
        <time>2021-08-04T09:52:00.009Z</time>
      </trkpt>
      <trkpt lat="46.97418" lon="8.77581">
        <ele>624</ele>
        <time>2021-08-04T09:52:01.009Z</time>
      </trkpt>
      <trkpt lat="46.97418" lon="8.77579">
        <ele>624</ele>
        <time>2021-08-04T09:52:02.009Z</time>
      </trkpt>
      <trkpt lat="46.97418" lon="8.77577">
        <ele>624</ele>
        <time>2021-08-04T09:52:03.010Z</time>
      </trkpt>
      <trkpt lat="46.97418" lon="8.77576">
        <ele>624</ele>
        <time>2021-08-04T09:52:04.009Z</time>
      </trkpt>
      <trkpt lat="46.97418" lon="8.77574">
        <ele>624</ele>
        <time>2021-08-04T09:52:05.009Z</time>
      </trkpt>
      <trkpt lat="46.97418" lon="8.77572">
        <ele>624</ele>
        <time>2021-08-04T09:52:11.060Z</time>
      </trkpt>
      <trkpt lat="46.97418" lon="8.7757">
        <ele>623</ele>
        <time>2021-08-04T09:52:12.060Z</time>
      </trkpt>
      <trkpt lat="46.97419" lon="8.77568">
        <ele>623</ele>
        <time>2021-08-04T09:52:13.060Z</time>
      </trkpt>
      <trkpt lat="46.97419" lon="8.77567">
        <ele>623</ele>
        <time>2021-08-04T09:52:14.060Z</time>
      </trkpt>
      <trkpt lat="46.97419" lon="8.77565">
        <ele>623</ele>
        <time>2021-08-04T09:52:15.061Z</time>
      </trkpt>
      <trkpt lat="46.97418" lon="8.77563">
        <ele>623</ele>
        <time>2021-08-04T09:52:16.061Z</time>
      </trkpt>
      <trkpt lat="46.97418" lon="8.77562">
        <ele>624</ele>
        <time>2021-08-04T09:52:17.061Z</time>
      </trkpt>
      <trkpt lat="46.97418" lon="8.7756">
        <ele>625</ele>
        <time>2021-08-04T09:52:18.061Z</time>
      </trkpt>
      <trkpt lat="46.97418" lon="8.77558">
        <ele>625</ele>
        <time>2021-08-04T09:52:19.061Z</time>
      </trkpt>
      <trkpt lat="46.97417" lon="8.77557">
        <ele>625</ele>
        <time>2021-08-04T09:52:20.060Z</time>
      </trkpt>
      <trkpt lat="46.97417" lon="8.77555">
        <ele>626</ele>
        <time>2021-08-04T09:52:21.061Z</time>
      </trkpt>
      <trkpt lat="46.97417" lon="8.77554">
        <ele>626</ele>
        <time>2021-08-04T09:52:22.060Z</time>
      </trkpt>
      <trkpt lat="46.97416" lon="8.77552">
        <ele>626</ele>
        <time>2021-08-04T09:52:28.167Z</time>
      </trkpt>
      <trkpt lat="46.97416" lon="8.77551">
        <ele>627</ele>
        <time>2021-08-04T09:52:29.167Z</time>
      </trkpt>
      <trkpt lat="46.97415" lon="8.7755">
        <ele>627</ele>
        <time>2021-08-04T09:52:36.059Z</time>
      </trkpt>
      <trkpt lat="46.97415" lon="8.77548">
        <ele>627</ele>
        <time>2021-08-04T09:52:37.059Z</time>
      </trkpt>
      <trkpt lat="46.97414" lon="8.77546">
        <ele>626</ele>
        <time>2021-08-04T09:52:38.060Z</time>
      </trkpt>
      <trkpt lat="46.97414" lon="8.77545">
        <ele>626</ele>
        <time>2021-08-04T09:52:39.059Z</time>
      </trkpt>
      <trkpt lat="46.97413" lon="8.77543">
        <ele>626</ele>
        <time>2021-08-04T09:52:57.143Z</time>
      </trkpt>
      <trkpt lat="46.97413" lon="8.77541">
        <ele>626</ele>
        <time>2021-08-04T09:53:05.043Z</time>
      </trkpt>
      <trkpt lat="46.97412" lon="8.7754">
        <ele>626</ele>
        <time>2021-08-04T09:53:06.042Z</time>
      </trkpt>
      <trkpt lat="46.97412" lon="8.77538">
        <ele>626</ele>
        <time>2021-08-04T09:53:07.042Z</time>
      </trkpt>
      <trkpt lat="46.97411" lon="8.77536">
        <ele>626</ele>
        <time>2021-08-04T09:53:08.043Z</time>
      </trkpt>
      <trkpt lat="46.9741" lon="8.77535">
        <ele>627</ele>
        <time>2021-08-04T09:53:09.042Z</time>
      </trkpt>
      <trkpt lat="46.9741" lon="8.77533">
        <ele>627</ele>
        <time>2021-08-04T09:53:10.043Z</time>
      </trkpt>
      <trkpt lat="46.97409" lon="8.77531">
        <ele>627</ele>
        <time>2021-08-04T09:53:11.043Z</time>
      </trkpt>
      <trkpt lat="46.97408" lon="8.77529">
        <ele>628</ele>
        <time>2021-08-04T09:53:12.043Z</time>
      </trkpt>
      <trkpt lat="46.97408" lon="8.77528">
        <ele>628</ele>
        <time>2021-08-04T09:53:13.042Z</time>
      </trkpt>
      <trkpt lat="46.97407" lon="8.77526">
        <ele>628</ele>
        <time>2021-08-04T09:53:14.043Z</time>
      </trkpt>
      <trkpt lat="46.97407" lon="8.77525">
        <ele>628</ele>
        <time>2021-08-04T09:53:17.124Z</time>
      </trkpt>
      <trkpt lat="46.97406" lon="8.77523">
        <ele>628</ele>
        <time>2021-08-04T09:53:21.055Z</time>
      </trkpt>
      <trkpt lat="46.97405" lon="8.77521">
        <ele>628</ele>
        <time>2021-08-04T09:53:22.055Z</time>
      </trkpt>
      <trkpt lat="46.97405" lon="8.77519">
        <ele>628</ele>
        <time>2021-08-04T09:53:23.055Z</time>
      </trkpt>
      <trkpt lat="46.97404" lon="8.77518">
        <ele>627</ele>
        <time>2021-08-04T09:53:24.055Z</time>
      </trkpt>
      <trkpt lat="46.97403" lon="8.77516">
        <ele>627</ele>
        <time>2021-08-04T09:53:25.055Z</time>
      </trkpt>
      <trkpt lat="46.97403" lon="8.77514">
        <ele>627</ele>
        <time>2021-08-04T09:53:26.054Z</time>
      </trkpt>
      <trkpt lat="46.97402" lon="8.77512">
        <ele>627</ele>
        <time>2021-08-04T09:53:27.054Z</time>
      </trkpt>
      <trkpt lat="46.97402" lon="8.7751">
        <ele>628</ele>
        <time>2021-08-04T09:53:28.054Z</time>
      </trkpt>
      <trkpt lat="46.97401" lon="8.77509">
        <ele>628</ele>
        <time>2021-08-04T09:53:29.054Z</time>
      </trkpt>
      <trkpt lat="46.974" lon="8.77507">
        <ele>628</ele>
        <time>2021-08-04T09:53:30.055Z</time>
      </trkpt>
      <trkpt lat="46.974" lon="8.77506">
        <ele>628</ele>
        <time>2021-08-04T09:53:31.055Z</time>
      </trkpt>
      <trkpt lat="46.974" lon="8.77504">
        <ele>628</ele>
        <time>2021-08-04T09:53:32.055Z</time>
      </trkpt>
      <trkpt lat="46.97399" lon="8.77503">
        <ele>628</ele>
        <time>2021-08-04T09:53:33.055Z</time>
      </trkpt>
      <trkpt lat="46.97398" lon="8.77501">
        <ele>628</ele>
        <time>2021-08-04T09:53:34.055Z</time>
      </trkpt>
      <trkpt lat="46.97398" lon="8.77499">
        <ele>628</ele>
        <time>2021-08-04T09:53:35.054Z</time>
      </trkpt>
      <trkpt lat="46.97397" lon="8.77498">
        <ele>628</ele>
        <time>2021-08-04T09:53:36.055Z</time>
      </trkpt>
      <trkpt lat="46.97397" lon="8.77495">
        <ele>629</ele>
        <time>2021-08-04T09:53:37.055Z</time>
      </trkpt>
      <trkpt lat="46.97396" lon="8.77493">
        <ele>629</ele>
        <time>2021-08-04T09:53:38.055Z</time>
      </trkpt>
      <trkpt lat="46.97395" lon="8.77491">
        <ele>630</ele>
        <time>2021-08-04T09:53:39.054Z</time>
      </trkpt>
      <trkpt lat="46.97395" lon="8.7749">
        <ele>630</ele>
        <time>2021-08-04T09:53:40.054Z</time>
      </trkpt>
      <trkpt lat="46.97395" lon="8.77488">
        <ele>631</ele>
        <time>2021-08-04T09:53:41.055Z</time>
      </trkpt>
      <trkpt lat="46.97394" lon="8.77487">
        <ele>631</ele>
        <time>2021-08-04T09:53:42.054Z</time>
      </trkpt>
      <trkpt lat="46.97394" lon="8.77486">
        <ele>631</ele>
        <time>2021-08-04T09:53:43.054Z</time>
      </trkpt>
      <trkpt lat="46.97394" lon="8.77485">
        <ele>631</ele>
        <time>2021-08-04T09:53:44.054Z</time>
      </trkpt>
      <trkpt lat="46.97393" lon="8.77484">
        <ele>631</ele>
        <time>2021-08-04T09:53:45.054Z</time>
      </trkpt>
      <trkpt lat="46.97392" lon="8.77482">
        <ele>631</ele>
        <time>2021-08-04T09:53:46.054Z</time>
      </trkpt>
      <trkpt lat="46.97391" lon="8.7748">
        <ele>631</ele>
        <time>2021-08-04T09:53:47.055Z</time>
      </trkpt>
      <trkpt lat="46.9739" lon="8.77478">
        <ele>630</ele>
        <time>2021-08-04T09:53:48.055Z</time>
      </trkpt>
      <trkpt lat="46.97389" lon="8.77477">
        <ele>629</ele>
        <time>2021-08-04T09:53:49.054Z</time>
      </trkpt>
      <trkpt lat="46.97388" lon="8.77476">
        <ele>629</ele>
        <time>2021-08-04T09:53:50.054Z</time>
      </trkpt>
      <trkpt lat="46.97386" lon="8.77475">
        <ele>628</ele>
        <time>2021-08-04T09:53:51.055Z</time>
      </trkpt>
      <trkpt lat="46.97385" lon="8.77474">
        <ele>628</ele>
        <time>2021-08-04T09:53:52.055Z</time>
      </trkpt>
      <trkpt lat="46.97384" lon="8.77472">
        <ele>628</ele>
        <time>2021-08-04T09:53:53.055Z</time>
      </trkpt>
      <trkpt lat="46.97383" lon="8.77471">
        <ele>628</ele>
        <time>2021-08-04T09:53:54.055Z</time>
      </trkpt>
      <trkpt lat="46.97382" lon="8.77469">
        <ele>629</ele>
        <time>2021-08-04T09:53:55.055Z</time>
      </trkpt>
      <trkpt lat="46.97381" lon="8.77468">
        <ele>629</ele>
        <time>2021-08-04T09:53:56.054Z</time>
      </trkpt>
      <trkpt lat="46.97381" lon="8.77467">
        <ele>629</ele>
        <time>2021-08-04T09:53:57.055Z</time>
      </trkpt>
      <trkpt lat="46.9738" lon="8.77466">
        <ele>629</ele>
        <time>2021-08-04T09:53:58.055Z</time>
      </trkpt>
      <trkpt lat="46.97379" lon="8.77465">
        <ele>628</ele>
        <time>2021-08-04T09:53:59.055Z</time>
      </trkpt>
      <trkpt lat="46.97379" lon="8.77464">
        <ele>628</ele>
        <time>2021-08-04T09:54:00.054Z</time>
      </trkpt>
      <trkpt lat="46.97378" lon="8.77462">
        <ele>628</ele>
        <time>2021-08-04T09:54:01.055Z</time>
      </trkpt>
      <trkpt lat="46.97378" lon="8.77461">
        <ele>628</ele>
        <time>2021-08-04T09:54:02.054Z</time>
      </trkpt>
      <trkpt lat="46.97377" lon="8.77459">
        <ele>628</ele>
        <time>2021-08-04T09:54:03.054Z</time>
      </trkpt>
      <trkpt lat="46.97377" lon="8.77458">
        <ele>628</ele>
        <time>2021-08-04T09:54:04.054Z</time>
      </trkpt>
      <trkpt lat="46.97376" lon="8.77457">
        <ele>628</ele>
        <time>2021-08-04T09:54:05.054Z</time>
      </trkpt>
      <trkpt lat="46.97376" lon="8.77455">
        <ele>628</ele>
        <time>2021-08-04T09:54:06.054Z</time>
      </trkpt>
      <trkpt lat="46.97375" lon="8.77453">
        <ele>628</ele>
        <time>2021-08-04T09:54:07.055Z</time>
      </trkpt>
      <trkpt lat="46.97375" lon="8.77451">
        <ele>628</ele>
        <time>2021-08-04T09:54:08.054Z</time>
      </trkpt>
      <trkpt lat="46.97374" lon="8.7745">
        <ele>628</ele>
        <time>2021-08-04T09:54:09.054Z</time>
      </trkpt>
      <trkpt lat="46.97374" lon="8.77448">
        <ele>627</ele>
        <time>2021-08-04T09:54:10.055Z</time>
      </trkpt>
      <trkpt lat="46.97373" lon="8.77447">
        <ele>627</ele>
        <time>2021-08-04T09:54:11.055Z</time>
      </trkpt>
      <trkpt lat="46.97373" lon="8.77445">
        <ele>627</ele>
        <time>2021-08-04T09:54:12.054Z</time>
      </trkpt>
      <trkpt lat="46.97372" lon="8.77443">
        <ele>627</ele>
        <time>2021-08-04T09:54:13.054Z</time>
      </trkpt>
      <trkpt lat="46.97372" lon="8.77441">
        <ele>627</ele>
        <time>2021-08-04T09:54:14.055Z</time>
      </trkpt>
      <trkpt lat="46.97371" lon="8.77439">
        <ele>627</ele>
        <time>2021-08-04T09:54:15.054Z</time>
      </trkpt>
      <trkpt lat="46.97371" lon="8.77437">
        <ele>627</ele>
        <time>2021-08-04T09:54:16.055Z</time>
      </trkpt>
      <trkpt lat="46.9737" lon="8.77436">
        <ele>627</ele>
        <time>2021-08-04T09:54:17.054Z</time>
      </trkpt>
      <trkpt lat="46.9737" lon="8.77435">
        <ele>627</ele>
        <time>2021-08-04T09:54:18.055Z</time>
      </trkpt>
      <trkpt lat="46.97369" lon="8.77433">
        <ele>627</ele>
        <time>2021-08-04T09:54:19.054Z</time>
      </trkpt>
      <trkpt lat="46.97368" lon="8.77432">
        <ele>627</ele>
        <time>2021-08-04T09:54:20.055Z</time>
      </trkpt>
      <trkpt lat="46.97368" lon="8.7743">
        <ele>627</ele>
        <time>2021-08-04T09:54:21.054Z</time>
      </trkpt>
      <trkpt lat="46.97368" lon="8.77428">
        <ele>627</ele>
        <time>2021-08-04T09:54:22.055Z</time>
      </trkpt>
      <trkpt lat="46.97368" lon="8.77426">
        <ele>628</ele>
        <time>2021-08-04T09:54:23.055Z</time>
      </trkpt>
      <trkpt lat="46.97367" lon="8.77424">
        <ele>628</ele>
        <time>2021-08-04T09:54:24.055Z</time>
      </trkpt>
      <trkpt lat="46.97367" lon="8.77423">
        <ele>628</ele>
        <time>2021-08-04T09:54:25.054Z</time>
      </trkpt>
      <trkpt lat="46.97366" lon="8.77421">
        <ele>628</ele>
        <time>2021-08-04T09:54:26.054Z</time>
      </trkpt>
      <trkpt lat="46.97365" lon="8.7742">
        <ele>628</ele>
        <time>2021-08-04T09:54:27.055Z</time>
      </trkpt>
      <trkpt lat="46.97365" lon="8.77418">
        <ele>629</ele>
        <time>2021-08-04T09:54:28.055Z</time>
      </trkpt>
      <trkpt lat="46.97365" lon="8.77416">
        <ele>629</ele>
        <time>2021-08-04T09:54:29.054Z</time>
      </trkpt>
      <trkpt lat="46.97364" lon="8.77415">
        <ele>629</ele>
        <time>2021-08-04T09:54:30.054Z</time>
      </trkpt>
      <trkpt lat="46.97363" lon="8.77413">
        <ele>629</ele>
        <time>2021-08-04T09:54:31.054Z</time>
      </trkpt>
      <trkpt lat="46.97362" lon="8.77412">
        <ele>629</ele>
        <time>2021-08-04T09:54:32.055Z</time>
      </trkpt>
      <trkpt lat="46.97362" lon="8.7741">
        <ele>629</ele>
        <time>2021-08-04T09:54:33.055Z</time>
      </trkpt>
      <trkpt lat="46.97362" lon="8.77408">
        <ele>629</ele>
        <time>2021-08-04T09:54:34.054Z</time>
      </trkpt>
      <trkpt lat="46.97361" lon="8.77406">
        <ele>629</ele>
        <time>2021-08-04T09:54:35.055Z</time>
      </trkpt>
      <trkpt lat="46.97361" lon="8.77404">
        <ele>629</ele>
        <time>2021-08-04T09:54:36.054Z</time>
      </trkpt>
      <trkpt lat="46.97361" lon="8.77402">
        <ele>630</ele>
        <time>2021-08-04T09:54:37.055Z</time>
      </trkpt>
      <trkpt lat="46.97361" lon="8.77399">
        <ele>630</ele>
        <time>2021-08-04T09:54:38.055Z</time>
      </trkpt>
      <trkpt lat="46.9736" lon="8.77397">
        <ele>630</ele>
        <time>2021-08-04T09:54:39.054Z</time>
      </trkpt>
      <trkpt lat="46.9736" lon="8.77395">
        <ele>631</ele>
        <time>2021-08-04T09:54:40.055Z</time>
      </trkpt>
      <trkpt lat="46.97359" lon="8.77394">
        <ele>631</ele>
        <time>2021-08-04T09:54:41.055Z</time>
      </trkpt>
      <trkpt lat="46.97359" lon="8.77391">
        <ele>631</ele>
        <time>2021-08-04T09:54:42.054Z</time>
      </trkpt>
      <trkpt lat="46.97359" lon="8.7739">
        <ele>631</ele>
        <time>2021-08-04T09:54:43.055Z</time>
      </trkpt>
      <trkpt lat="46.97358" lon="8.77388">
        <ele>630</ele>
        <time>2021-08-04T09:54:44.054Z</time>
      </trkpt>
      <trkpt lat="46.97358" lon="8.77386">
        <ele>630</ele>
        <time>2021-08-04T09:54:45.055Z</time>
      </trkpt>
      <trkpt lat="46.97357" lon="8.77384">
        <ele>629</ele>
        <time>2021-08-04T09:54:46.054Z</time>
      </trkpt>
      <trkpt lat="46.97357" lon="8.77382">
        <ele>629</ele>
        <time>2021-08-04T09:54:47.055Z</time>
      </trkpt>
      <trkpt lat="46.97357" lon="8.7738">
        <ele>629</ele>
        <time>2021-08-04T09:54:48.055Z</time>
      </trkpt>
      <trkpt lat="46.97357" lon="8.77378">
        <ele>629</ele>
        <time>2021-08-04T09:54:49.055Z</time>
      </trkpt>
      <trkpt lat="46.97356" lon="8.77377">
        <ele>629</ele>
        <time>2021-08-04T09:54:50.054Z</time>
      </trkpt>
      <trkpt lat="46.97355" lon="8.77374">
        <ele>629</ele>
        <time>2021-08-04T09:54:51.055Z</time>
      </trkpt>
      <trkpt lat="46.97355" lon="8.77373">
        <ele>629</ele>
        <time>2021-08-04T09:54:52.055Z</time>
      </trkpt>
      <trkpt lat="46.97354" lon="8.77371">
        <ele>629</ele>
        <time>2021-08-04T09:54:53.055Z</time>
      </trkpt>
      <trkpt lat="46.97353" lon="8.7737">
        <ele>629</ele>
        <time>2021-08-04T09:54:54.054Z</time>
      </trkpt>
      <trkpt lat="46.97353" lon="8.77368">
        <ele>629</ele>
        <time>2021-08-04T09:54:55.055Z</time>
      </trkpt>
      <trkpt lat="46.97353" lon="8.77366">
        <ele>628</ele>
        <time>2021-08-04T09:54:56.055Z</time>
      </trkpt>
      <trkpt lat="46.97353" lon="8.77364">
        <ele>628</ele>
        <time>2021-08-04T09:54:57.054Z</time>
      </trkpt>
      <trkpt lat="46.97353" lon="8.77362">
        <ele>628</ele>
        <time>2021-08-04T09:54:58.055Z</time>
      </trkpt>
      <trkpt lat="46.97353" lon="8.7736">
        <ele>628</ele>
        <time>2021-08-04T09:54:59.054Z</time>
      </trkpt>
      <trkpt lat="46.97353" lon="8.77359">
        <ele>628</ele>
        <time>2021-08-04T09:55:00.055Z</time>
      </trkpt>
      <trkpt lat="46.97353" lon="8.77357">
        <ele>629</ele>
        <time>2021-08-04T09:55:01.055Z</time>
      </trkpt>
      <trkpt lat="46.97353" lon="8.77355">
        <ele>629</ele>
        <time>2021-08-04T09:55:02.055Z</time>
      </trkpt>
      <trkpt lat="46.97352" lon="8.77353">
        <ele>629</ele>
        <time>2021-08-04T09:55:03.054Z</time>
      </trkpt>
      <trkpt lat="46.97352" lon="8.7735">
        <ele>629</ele>
        <time>2021-08-04T09:55:04.054Z</time>
      </trkpt>
      <trkpt lat="46.97351" lon="8.77348">
        <ele>629</ele>
        <time>2021-08-04T09:55:05.054Z</time>
      </trkpt>
      <trkpt lat="46.9735" lon="8.77347">
        <ele>629</ele>
        <time>2021-08-04T09:55:06.054Z</time>
      </trkpt>
      <trkpt lat="46.97349" lon="8.77345">
        <ele>629</ele>
        <time>2021-08-04T09:55:07.054Z</time>
      </trkpt>
      <trkpt lat="46.97349" lon="8.77344">
        <ele>629</ele>
        <time>2021-08-04T09:55:08.054Z</time>
      </trkpt>
      <trkpt lat="46.97347" lon="8.77344">
        <ele>628</ele>
        <time>2021-08-04T09:55:09.055Z</time>
      </trkpt>
      <trkpt lat="46.97346" lon="8.77343">
        <ele>627</ele>
        <time>2021-08-04T09:55:10.055Z</time>
      </trkpt>
      <trkpt lat="46.97345" lon="8.77342">
        <ele>627</ele>
        <time>2021-08-04T09:55:11.055Z</time>
      </trkpt>
      <trkpt lat="46.97343" lon="8.77341">
        <ele>627</ele>
        <time>2021-08-04T09:55:12.055Z</time>
      </trkpt>
      <trkpt lat="46.97342" lon="8.7734">
        <ele>626</ele>
        <time>2021-08-04T09:55:13.055Z</time>
      </trkpt>
      <trkpt lat="46.97341" lon="8.77339">
        <ele>626</ele>
        <time>2021-08-04T09:55:14.054Z</time>
      </trkpt>
      <trkpt lat="46.9734" lon="8.77339">
        <ele>626</ele>
        <time>2021-08-04T09:55:15.055Z</time>
      </trkpt>
      <trkpt lat="46.97338" lon="8.77339">
        <ele>626</ele>
        <time>2021-08-04T09:55:16.055Z</time>
      </trkpt>
      <trkpt lat="46.97337" lon="8.77339">
        <ele>627</ele>
        <time>2021-08-04T09:55:17.055Z</time>
      </trkpt>
      <trkpt lat="46.97336" lon="8.77338">
        <ele>627</ele>
        <time>2021-08-04T09:55:18.055Z</time>
      </trkpt>
      <trkpt lat="46.97334" lon="8.77338">
        <ele>628</ele>
        <time>2021-08-04T09:55:19.055Z</time>
      </trkpt>
      <trkpt lat="46.97333" lon="8.77338">
        <ele>629</ele>
        <time>2021-08-04T09:55:20.055Z</time>
      </trkpt>
      <trkpt lat="46.97331" lon="8.77338">
        <ele>628</ele>
        <time>2021-08-04T09:55:21.055Z</time>
      </trkpt>
      <trkpt lat="46.9733" lon="8.77338">
        <ele>628</ele>
        <time>2021-08-04T09:55:22.055Z</time>
      </trkpt>
      <trkpt lat="46.97329" lon="8.77338">
        <ele>628</ele>
        <time>2021-08-04T09:55:23.055Z</time>
      </trkpt>
      <trkpt lat="46.97327" lon="8.77338">
        <ele>627</ele>
        <time>2021-08-04T09:55:24.054Z</time>
      </trkpt>
      <trkpt lat="46.97326" lon="8.77337">
        <ele>627</ele>
        <time>2021-08-04T09:55:25.055Z</time>
      </trkpt>
      <trkpt lat="46.97325" lon="8.77337">
        <ele>627</ele>
        <time>2021-08-04T09:55:26.054Z</time>
      </trkpt>
      <trkpt lat="46.97323" lon="8.77336">
        <ele>627</ele>
        <time>2021-08-04T09:55:27.055Z</time>
      </trkpt>
      <trkpt lat="46.97322" lon="8.77336">
        <ele>626</ele>
        <time>2021-08-04T09:55:28.055Z</time>
      </trkpt>
      <trkpt lat="46.97321" lon="8.77336">
        <ele>626</ele>
        <time>2021-08-04T09:55:29.055Z</time>
      </trkpt>
      <trkpt lat="46.9732" lon="8.77336">
        <ele>626</ele>
        <time>2021-08-04T09:55:30.054Z</time>
      </trkpt>
      <trkpt lat="46.97319" lon="8.77337">
        <ele>626</ele>
        <time>2021-08-04T09:55:31.054Z</time>
      </trkpt>
      <trkpt lat="46.97318" lon="8.77338">
        <ele>626</ele>
        <time>2021-08-04T09:55:32.054Z</time>
      </trkpt>
      <trkpt lat="46.97316" lon="8.77338">
        <ele>626</ele>
        <time>2021-08-04T09:55:33.055Z</time>
      </trkpt>
      <trkpt lat="46.97315" lon="8.77338">
        <ele>627</ele>
        <time>2021-08-04T09:55:34.055Z</time>
      </trkpt>
      <trkpt lat="46.97313" lon="8.77338">
        <ele>627</ele>
        <time>2021-08-04T09:55:35.055Z</time>
      </trkpt>
      <trkpt lat="46.97312" lon="8.77338">
        <ele>628</ele>
        <time>2021-08-04T09:55:36.055Z</time>
      </trkpt>
      <trkpt lat="46.97311" lon="8.77338">
        <ele>629</ele>
        <time>2021-08-04T09:55:37.054Z</time>
      </trkpt>
      <trkpt lat="46.9731" lon="8.77338">
        <ele>629</ele>
        <time>2021-08-04T09:55:38.055Z</time>
      </trkpt>
      <trkpt lat="46.97309" lon="8.77337">
        <ele>629</ele>
        <time>2021-08-04T09:55:39.055Z</time>
      </trkpt>
      <trkpt lat="46.97308" lon="8.77337">
        <ele>630</ele>
        <time>2021-08-04T09:55:40.054Z</time>
      </trkpt>
      <trkpt lat="46.97307" lon="8.77337">
        <ele>630</ele>
        <time>2021-08-04T09:55:41.055Z</time>
      </trkpt>
      <trkpt lat="46.97305" lon="8.77337">
        <ele>630</ele>
        <time>2021-08-04T09:55:42.055Z</time>
      </trkpt>
      <trkpt lat="46.97304" lon="8.77338">
        <ele>629</ele>
        <time>2021-08-04T09:55:43.055Z</time>
      </trkpt>
      <trkpt lat="46.97304" lon="8.77338">
        <ele>629</ele>
        <time>2021-08-04T09:55:44.055Z</time>
      </trkpt>
      <trkpt lat="46.97303" lon="8.77338">
        <ele>629</ele>
        <time>2021-08-04T09:55:45.055Z</time>
      </trkpt>
      <trkpt lat="46.97302" lon="8.77338">
        <ele>629</ele>
        <time>2021-08-04T09:55:46.054Z</time>
      </trkpt>
      <trkpt lat="46.97301" lon="8.77338">
        <ele>628</ele>
        <time>2021-08-04T09:55:47.055Z</time>
      </trkpt>
      <trkpt lat="46.973" lon="8.77337">
        <ele>628</ele>
        <time>2021-08-04T09:55:48.055Z</time>
      </trkpt>
      <trkpt lat="46.97299" lon="8.77336">
        <ele>628</ele>
        <time>2021-08-04T09:55:49.055Z</time>
      </trkpt>
      <trkpt lat="46.97298" lon="8.77335">
        <ele>628</ele>
        <time>2021-08-04T09:55:50.055Z</time>
      </trkpt>
      <trkpt lat="46.97298" lon="8.77333">
        <ele>628</ele>
        <time>2021-08-04T09:55:51.055Z</time>
      </trkpt>
      <trkpt lat="46.97298" lon="8.77332">
        <ele>628</ele>
        <time>2021-08-04T09:55:52.055Z</time>
      </trkpt>
      <trkpt lat="46.97298" lon="8.7733">
        <ele>628</ele>
        <time>2021-08-04T09:55:53.054Z</time>
      </trkpt>
      <trkpt lat="46.97297" lon="8.77329">
        <ele>627</ele>
        <time>2021-08-04T09:55:54.055Z</time>
      </trkpt>
      <trkpt lat="46.97297" lon="8.77327">
        <ele>627</ele>
        <time>2021-08-04T09:55:55.055Z</time>
      </trkpt>
      <trkpt lat="46.97297" lon="8.77325">
        <ele>627</ele>
        <time>2021-08-04T09:55:56.055Z</time>
      </trkpt>
      <trkpt lat="46.97297" lon="8.77323">
        <ele>627</ele>
        <time>2021-08-04T09:55:57.055Z</time>
      </trkpt>
      <trkpt lat="46.97297" lon="8.77321">
        <ele>626</ele>
        <time>2021-08-04T09:55:58.055Z</time>
      </trkpt>
      <trkpt lat="46.97297" lon="8.77319">
        <ele>626</ele>
        <time>2021-08-04T09:55:59.055Z</time>
      </trkpt>
      <trkpt lat="46.97296" lon="8.77317">
        <ele>627</ele>
        <time>2021-08-04T09:56:00.055Z</time>
      </trkpt>
      <trkpt lat="46.97295" lon="8.77316">
        <ele>627</ele>
        <time>2021-08-04T09:56:01.054Z</time>
      </trkpt>
      <trkpt lat="46.97293" lon="8.77315">
        <ele>627</ele>
        <time>2021-08-04T09:56:02.054Z</time>
      </trkpt>
      <trkpt lat="46.97293" lon="8.77314">
        <ele>626</ele>
        <time>2021-08-04T09:56:03.055Z</time>
      </trkpt>
      <trkpt lat="46.97292" lon="8.77313">
        <ele>626</ele>
        <time>2021-08-04T09:56:04.055Z</time>
      </trkpt>
      <trkpt lat="46.97291" lon="8.77312">
        <ele>626</ele>
        <time>2021-08-04T09:56:05.054Z</time>
      </trkpt>
      <trkpt lat="46.9729" lon="8.77311">
        <ele>626</ele>
        <time>2021-08-04T09:56:06.055Z</time>
      </trkpt>
      <trkpt lat="46.97289" lon="8.77309">
        <ele>626</ele>
        <time>2021-08-04T09:56:07.055Z</time>
      </trkpt>
      <trkpt lat="46.97289" lon="8.77308">
        <ele>626</ele>
        <time>2021-08-04T09:56:08.055Z</time>
      </trkpt>
      <trkpt lat="46.97289" lon="8.77306">
        <ele>626</ele>
        <time>2021-08-04T09:56:09.054Z</time>
      </trkpt>
      <trkpt lat="46.97288" lon="8.77305">
        <ele>625</ele>
        <time>2021-08-04T09:56:10.055Z</time>
      </trkpt>
      <trkpt lat="46.97288" lon="8.77303">
        <ele>626</ele>
        <time>2021-08-04T09:56:11.055Z</time>
      </trkpt>
      <trkpt lat="46.97287" lon="8.77301">
        <ele>626</ele>
        <time>2021-08-04T09:56:12.055Z</time>
      </trkpt>
      <trkpt lat="46.97287" lon="8.773">
        <ele>626</ele>
        <time>2021-08-04T09:56:13.054Z</time>
      </trkpt>
      <trkpt lat="46.97286" lon="8.77299">
        <ele>626</ele>
        <time>2021-08-04T09:56:14.055Z</time>
      </trkpt>
      <trkpt lat="46.97286" lon="8.77298">
        <ele>626</ele>
        <time>2021-08-04T09:56:15.055Z</time>
      </trkpt>
      <trkpt lat="46.97286" lon="8.77297">
        <ele>626</ele>
        <time>2021-08-04T09:56:16.055Z</time>
      </trkpt>
      <trkpt lat="46.97287" lon="8.77295">
        <ele>627</ele>
        <time>2021-08-04T09:56:17.054Z</time>
      </trkpt>
      <trkpt lat="46.97287" lon="8.77294">
        <ele>627</ele>
        <time>2021-08-04T09:56:18.055Z</time>
      </trkpt>
      <trkpt lat="46.97288" lon="8.77293">
        <ele>627</ele>
        <time>2021-08-04T09:56:19.055Z</time>
      </trkpt>
      <trkpt lat="46.97288" lon="8.77292">
        <ele>627</ele>
        <time>2021-08-04T09:56:20.054Z</time>
      </trkpt>
      <trkpt lat="46.97289" lon="8.77291">
        <ele>628</ele>
        <time>2021-08-04T09:56:21.055Z</time>
      </trkpt>
      <trkpt lat="46.97289" lon="8.7729">
        <ele>628</ele>
        <time>2021-08-04T09:56:22.055Z</time>
      </trkpt>
      <trkpt lat="46.97289" lon="8.7729">
        <ele>628</ele>
        <time>2021-08-04T09:56:23.055Z</time>
      </trkpt>
      <trkpt lat="46.97288" lon="8.7729">
        <ele>628</ele>
        <time>2021-08-04T09:56:24.055Z</time>
      </trkpt>
      <trkpt lat="46.97288" lon="8.7729">
        <ele>628</ele>
        <time>2021-08-04T09:56:25.054Z</time>
      </trkpt>
      <trkpt lat="46.97288" lon="8.7729">
        <ele>628</ele>
        <time>2021-08-04T09:56:28.025Z</time>
      </trkpt>
      <trkpt lat="46.97289" lon="8.77292">
        <ele>632</ele>
        <time>2021-08-04T09:56:29.025Z</time>
      </trkpt>
      <trkpt lat="46.97289" lon="8.77294">
        <ele>632</ele>
        <time>2021-08-04T09:56:30.024Z</time>
      </trkpt>
      <trkpt lat="46.97289" lon="8.77294">
        <ele>633</ele>
        <time>2021-08-04T09:56:31.024Z</time>
      </trkpt>
      <trkpt lat="46.97289" lon="8.77294">
        <ele>633</ele>
        <time>2021-08-04T09:56:44.143Z</time>
      </trkpt>
      <trkpt lat="46.9729" lon="8.77294">
        <ele>635</ele>
        <time>2021-08-04T09:56:45.144Z</time>
      </trkpt>
      <trkpt lat="46.9729" lon="8.77295">
        <ele>635</ele>
        <time>2021-08-04T09:56:46.143Z</time>
      </trkpt>
      <trkpt lat="46.9729" lon="8.77295">
        <ele>635</ele>
        <time>2021-08-04T09:56:47.143Z</time>
      </trkpt>
      <trkpt lat="46.9729" lon="8.77296">
        <ele>635</ele>
        <time>2021-08-04T09:56:48.143Z</time>
      </trkpt>
      <trkpt lat="46.97289" lon="8.77297">
        <ele>634</ele>
        <time>2021-08-04T09:56:49.144Z</time>
      </trkpt>
      <trkpt lat="46.97288" lon="8.77298">
        <ele>634</ele>
        <time>2021-08-04T09:56:50.144Z</time>
      </trkpt>
      <trkpt lat="46.97288" lon="8.77299">
        <ele>634</ele>
        <time>2021-08-04T09:56:51.144Z</time>
      </trkpt>
      <trkpt lat="46.97287" lon="8.77299">
        <ele>634</ele>
        <time>2021-08-04T09:56:52.143Z</time>
      </trkpt>
      <trkpt lat="46.97288" lon="8.773">
        <ele>634</ele>
        <time>2021-08-04T09:57:09.164Z</time>
      </trkpt>
      <trkpt lat="46.97283" lon="8.77302">
        <ele>636</ele>
        <time>2021-08-04T09:57:10.163Z</time>
      </trkpt>
      <trkpt lat="46.97283" lon="8.77302">
        <ele>635</ele>
        <time>2021-08-04T09:57:36.280Z</time>
      </trkpt>
      <trkpt lat="46.97283" lon="8.77302">
        <ele>635</ele>
        <time>2021-08-04T09:57:37.279Z</time>
      </trkpt>
      <trkpt lat="46.97283" lon="8.77302">
        <ele>635</ele>
        <time>2021-08-04T09:57:38.280Z</time>
      </trkpt>
      <trkpt lat="46.97281" lon="8.77302">
        <ele>632</ele>
        <time>2021-08-04T09:57:57.435Z</time>
      </trkpt>
      <trkpt lat="46.97281" lon="8.77302">
        <ele>632</ele>
        <time>2021-08-04T09:57:58.435Z</time>
      </trkpt>
      <trkpt lat="46.9728" lon="8.77306">
        <ele>638</ele>
        <time>2021-08-04T09:57:59.435Z</time>
      </trkpt>
      <trkpt lat="46.97279" lon="8.77308">
        <ele>639</ele>
        <time>2021-08-04T09:58:09.509Z</time>
      </trkpt>
      <trkpt lat="46.97279" lon="8.77309">
        <ele>646</ele>
        <time>2021-08-04T09:58:10.510Z</time>
      </trkpt>
      <trkpt lat="46.97278" lon="8.77311">
        <ele>647</ele>
        <time>2021-08-04T09:58:11.511Z</time>
      </trkpt>
      <trkpt lat="46.97278" lon="8.7731">
        <ele>648</ele>
        <time>2021-08-04T09:58:12.511Z</time>
      </trkpt>
      <trkpt lat="46.97278" lon="8.77309">
        <ele>648</ele>
        <time>2021-08-04T09:58:13.511Z</time>
      </trkpt>
      <trkpt lat="46.97278" lon="8.77308">
        <ele>648</ele>
        <time>2021-08-04T09:58:14.510Z</time>
      </trkpt>
      <trkpt lat="46.97278" lon="8.77308">
        <ele>648</ele>
        <time>2021-08-04T09:58:15.511Z</time>
      </trkpt>
      <trkpt lat="46.97278" lon="8.77309">
        <ele>648</ele>
        <time>2021-08-04T09:58:16.510Z</time>
      </trkpt>
      <trkpt lat="46.97277" lon="8.77309">
        <ele>648</ele>
        <time>2021-08-04T09:58:17.510Z</time>
      </trkpt>
      <trkpt lat="46.97276" lon="8.7731">
        <ele>648</ele>
        <time>2021-08-04T09:58:18.511Z</time>
      </trkpt>
      <trkpt lat="46.97276" lon="8.77308">
        <ele>648</ele>
        <time>2021-08-04T09:58:19.511Z</time>
      </trkpt>
      <trkpt lat="46.97275" lon="8.77308">
        <ele>648</ele>
        <time>2021-08-04T09:58:20.511Z</time>
      </trkpt>
      <trkpt lat="46.97275" lon="8.77309">
        <ele>648</ele>
        <time>2021-08-04T09:58:21.511Z</time>
      </trkpt>
      <trkpt lat="46.97272" lon="8.77305">
        <ele>648</ele>
        <time>2021-08-04T09:58:23.511Z</time>
      </trkpt>
      <trkpt lat="46.97271" lon="8.77304">
        <ele>648</ele>
        <time>2021-08-04T09:58:24.511Z</time>
      </trkpt>
      <trkpt lat="46.9727" lon="8.77303">
        <ele>648</ele>
        <time>2021-08-04T09:58:25.512Z</time>
      </trkpt>
      <trkpt lat="46.9727" lon="8.77298">
        <ele>647</ele>
        <time>2021-08-04T09:58:26.512Z</time>
      </trkpt>
      <trkpt lat="46.97271" lon="8.77295">
        <ele>647</ele>
        <time>2021-08-04T09:58:27.512Z</time>
      </trkpt>
      <trkpt lat="46.97271" lon="8.77294">
        <ele>647</ele>
        <time>2021-08-04T09:58:28.511Z</time>
      </trkpt>
      <trkpt lat="46.97271" lon="8.77294">
        <ele>646</ele>
        <time>2021-08-04T09:58:29.512Z</time>
      </trkpt>
      <trkpt lat="46.97272" lon="8.77293">
        <ele>646</ele>
        <time>2021-08-04T09:58:30.511Z</time>
      </trkpt>
      <trkpt lat="46.97273" lon="8.77291">
        <ele>646</ele>
        <time>2021-08-04T09:58:31.512Z</time>
      </trkpt>
      <trkpt lat="46.97273" lon="8.7729">
        <ele>646</ele>
        <time>2021-08-04T09:58:32.511Z</time>
      </trkpt>
      <trkpt lat="46.97273" lon="8.77289">
        <ele>646</ele>
        <time>2021-08-04T09:58:33.512Z</time>
      </trkpt>
      <trkpt lat="46.97274" lon="8.77289">
        <ele>646</ele>
        <time>2021-08-04T09:58:34.512Z</time>
      </trkpt>
      <trkpt lat="46.97275" lon="8.77289">
        <ele>645</ele>
        <time>2021-08-04T09:58:35.512Z</time>
      </trkpt>
      <trkpt lat="46.97275" lon="8.77288">
        <ele>645</ele>
        <time>2021-08-04T09:58:36.512Z</time>
      </trkpt>
      <trkpt lat="46.97275" lon="8.77288">
        <ele>645</ele>
        <time>2021-08-04T09:58:37.511Z</time>
      </trkpt>
      <trkpt lat="46.97275" lon="8.77287">
        <ele>644</ele>
        <time>2021-08-04T09:58:38.512Z</time>
      </trkpt>
      <trkpt lat="46.97275" lon="8.77288">
        <ele>644</ele>
        <time>2021-08-04T09:58:39.512Z</time>
      </trkpt>
      <trkpt lat="46.97275" lon="8.77288">
        <ele>643</ele>
        <time>2021-08-04T09:58:40.511Z</time>
      </trkpt>
      <trkpt lat="46.97275" lon="8.77288">
        <ele>642</ele>
        <time>2021-08-04T09:58:41.512Z</time>
      </trkpt>
      <trkpt lat="46.97275" lon="8.77287">
        <ele>642</ele>
        <time>2021-08-04T09:58:42.511Z</time>
      </trkpt>
      <trkpt lat="46.97276" lon="8.77287">
        <ele>641</ele>
        <time>2021-08-04T09:58:43.512Z</time>
      </trkpt>
      <trkpt lat="46.97281" lon="8.77288">
        <ele>637</ele>
        <time>2021-08-04T09:58:44.512Z</time>
      </trkpt>
      <trkpt lat="46.97282" lon="8.77288">
        <ele>637</ele>
        <time>2021-08-04T09:58:45.512Z</time>
      </trkpt>
      <trkpt lat="46.97283" lon="8.77291">
        <ele>634</ele>
        <time>2021-08-04T09:58:46.512Z</time>
      </trkpt>
      <trkpt lat="46.97282" lon="8.77293">
        <ele>634</ele>
        <time>2021-08-04T09:58:47.512Z</time>
      </trkpt>
      <trkpt lat="46.97282" lon="8.77294">
        <ele>633</ele>
        <time>2021-08-04T09:58:48.512Z</time>
      </trkpt>
      <trkpt lat="46.97282" lon="8.77293">
        <ele>633</ele>
        <time>2021-08-04T09:58:49.512Z</time>
      </trkpt>
      <trkpt lat="46.97282" lon="8.77292">
        <ele>632</ele>
        <time>2021-08-04T09:58:50.513Z</time>
      </trkpt>
      <trkpt lat="46.97282" lon="8.77292">
        <ele>632</ele>
        <time>2021-08-04T09:58:51.512Z</time>
      </trkpt>
      <trkpt lat="46.97281" lon="8.77292">
        <ele>630</ele>
        <time>2021-08-04T09:58:52.512Z</time>
      </trkpt>
      <trkpt lat="46.97281" lon="8.77291">
        <ele>630</ele>
        <time>2021-08-04T09:58:53.513Z</time>
      </trkpt>
      <trkpt lat="46.97281" lon="8.77291">
        <ele>630</ele>
        <time>2021-08-04T09:58:54.512Z</time>
      </trkpt>
      <trkpt lat="46.97281" lon="8.7729">
        <ele>629</ele>
        <time>2021-08-04T09:58:55.512Z</time>
      </trkpt>
      <trkpt lat="46.97281" lon="8.77289">
        <ele>629</ele>
        <time>2021-08-04T09:58:56.512Z</time>
      </trkpt>
      <trkpt lat="46.97281" lon="8.77288">
        <ele>629</ele>
        <time>2021-08-04T09:58:57.512Z</time>
      </trkpt>
      <trkpt lat="46.97281" lon="8.77286">
        <ele>629</ele>
        <time>2021-08-04T09:59:06.673Z</time>
      </trkpt>
      <trkpt lat="46.97281" lon="8.77285">
        <ele>629</ele>
        <time>2021-08-04T09:59:16.560Z</time>
      </trkpt>
      <trkpt lat="46.97281" lon="8.77284">
        <ele>630</ele>
        <time>2021-08-04T09:59:17.559Z</time>
      </trkpt>
      <trkpt lat="46.9728" lon="8.77283">
        <ele>630</ele>
        <time>2021-08-04T09:59:24.397Z</time>
      </trkpt>
      <trkpt lat="46.97278" lon="8.77283">
        <ele>630</ele>
        <time>2021-08-04T09:59:41.307Z</time>
      </trkpt>
      <trkpt lat="46.97277" lon="8.77283">
        <ele>631</ele>
        <time>2021-08-04T09:59:42.307Z</time>
      </trkpt>
      <trkpt lat="46.97276" lon="8.77284">
        <ele>631</ele>
        <time>2021-08-04T09:59:43.308Z</time>
      </trkpt>
      <trkpt lat="46.97274" lon="8.77285">
        <ele>631</ele>
        <time>2021-08-04T09:59:44.307Z</time>
      </trkpt>
      <trkpt lat="46.97272" lon="8.77286">
        <ele>632</ele>
        <time>2021-08-04T09:59:45.307Z</time>
      </trkpt>
      <trkpt lat="46.97271" lon="8.77286">
        <ele>632</ele>
        <time>2021-08-04T09:59:46.307Z</time>
      </trkpt>
      <trkpt lat="46.97269" lon="8.77286">
        <ele>632</ele>
        <time>2021-08-04T09:59:47.307Z</time>
      </trkpt>
      <trkpt lat="46.97268" lon="8.77284">
        <ele>632</ele>
        <time>2021-08-04T09:59:48.307Z</time>
      </trkpt>
      <trkpt lat="46.97267" lon="8.77282">
        <ele>632</ele>
        <time>2021-08-04T09:59:49.308Z</time>
      </trkpt>
      <trkpt lat="46.97266" lon="8.77279">
        <ele>632</ele>
        <time>2021-08-04T09:59:50.307Z</time>
      </trkpt>
      <trkpt lat="46.97266" lon="8.77276">
        <ele>632</ele>
        <time>2021-08-04T09:59:51.308Z</time>
      </trkpt>
      <trkpt lat="46.97266" lon="8.77273">
        <ele>632</ele>
        <time>2021-08-04T09:59:52.307Z</time>
      </trkpt>
      <trkpt lat="46.97266" lon="8.77271">
        <ele>632</ele>
        <time>2021-08-04T09:59:53.307Z</time>
      </trkpt>
      <trkpt lat="46.97266" lon="8.77269">
        <ele>632</ele>
        <time>2021-08-04T09:59:54.307Z</time>
      </trkpt>
      <trkpt lat="46.97266" lon="8.77268">
        <ele>632</ele>
        <time>2021-08-04T09:59:55.308Z</time>
      </trkpt>
      <trkpt lat="46.97264" lon="8.77266">
        <ele>632</ele>
        <time>2021-08-04T09:59:56.308Z</time>
      </trkpt>
      <trkpt lat="46.97266" lon="8.77264">
        <ele>632</ele>
        <time>2021-08-04T09:59:57.308Z</time>
      </trkpt>
      <trkpt lat="46.97265" lon="8.77262">
        <ele>632</ele>
        <time>2021-08-04T09:59:58.307Z</time>
      </trkpt>
      <trkpt lat="46.97265" lon="8.77259">
        <ele>632</ele>
        <time>2021-08-04T09:59:59.307Z</time>
      </trkpt>
      <trkpt lat="46.97265" lon="8.77258">
        <ele>632</ele>
        <time>2021-08-04T10:00:00.308Z</time>
      </trkpt>
      <trkpt lat="46.97265" lon="8.77258">
        <ele>632</ele>
        <time>2021-08-04T10:00:01.307Z</time>
      </trkpt>
      <trkpt lat="46.97265" lon="8.77259">
        <ele>632</ele>
        <time>2021-08-04T10:00:02.308Z</time>
      </trkpt>
      <trkpt lat="46.97266" lon="8.77259">
        <ele>632</ele>
        <time>2021-08-04T10:00:03.307Z</time>
      </trkpt>
      <trkpt lat="46.97266" lon="8.7726">
        <ele>632</ele>
        <time>2021-08-04T10:00:04.308Z</time>
      </trkpt>
      <trkpt lat="46.97266" lon="8.7726">
        <ele>632</ele>
        <time>2021-08-04T10:00:05.307Z</time>
      </trkpt>
      <trkpt lat="46.97267" lon="8.7726">
        <ele>632</ele>
        <time>2021-08-04T10:00:06.308Z</time>
      </trkpt>
      <trkpt lat="46.97267" lon="8.77261">
        <ele>632</ele>
        <time>2021-08-04T10:00:07.308Z</time>
      </trkpt>
      <trkpt lat="46.97267" lon="8.77262">
        <ele>632</ele>
        <time>2021-08-04T10:00:08.308Z</time>
      </trkpt>
      <trkpt lat="46.97265" lon="8.77261">
        <ele>632</ele>
        <time>2021-08-04T10:00:09.308Z</time>
      </trkpt>
      <trkpt lat="46.97262" lon="8.77258">
        <ele>632</ele>
        <time>2021-08-04T10:00:10.308Z</time>
      </trkpt>
      <trkpt lat="46.97261" lon="8.77255">
        <ele>632</ele>
        <time>2021-08-04T10:00:11.308Z</time>
      </trkpt>
      <trkpt lat="46.9726" lon="8.77252">
        <ele>632</ele>
        <time>2021-08-04T10:00:12.308Z</time>
      </trkpt>
      <trkpt lat="46.97261" lon="8.77249">
        <ele>632</ele>
        <time>2021-08-04T10:00:13.307Z</time>
      </trkpt>
      <trkpt lat="46.97261" lon="8.77247">
        <ele>632</ele>
        <time>2021-08-04T10:00:14.308Z</time>
      </trkpt>
      <trkpt lat="46.97261" lon="8.77244">
        <ele>632</ele>
        <time>2021-08-04T10:00:15.307Z</time>
      </trkpt>
      <trkpt lat="46.9726" lon="8.77242">
        <ele>633</ele>
        <time>2021-08-04T10:00:16.307Z</time>
      </trkpt>
      <trkpt lat="46.97261" lon="8.7724">
        <ele>633</ele>
        <time>2021-08-04T10:00:17.308Z</time>
      </trkpt>
      <trkpt lat="46.97261" lon="8.77237">
        <ele>633</ele>
        <time>2021-08-04T10:00:18.308Z</time>
      </trkpt>
      <trkpt lat="46.97261" lon="8.77235">
        <ele>633</ele>
        <time>2021-08-04T10:00:19.307Z</time>
      </trkpt>
      <trkpt lat="46.97261" lon="8.77233">
        <ele>633</ele>
        <time>2021-08-04T10:00:20.308Z</time>
      </trkpt>
      <trkpt lat="46.97262" lon="8.77232">
        <ele>633</ele>
        <time>2021-08-04T10:00:21.308Z</time>
      </trkpt>
      <trkpt lat="46.97264" lon="8.77231">
        <ele>634</ele>
        <time>2021-08-04T10:00:22.308Z</time>
      </trkpt>
      <trkpt lat="46.97265" lon="8.7723">
        <ele>634</ele>
        <time>2021-08-04T10:00:23.307Z</time>
      </trkpt>
      <trkpt lat="46.97266" lon="8.7723">
        <ele>634</ele>
        <time>2021-08-04T10:00:24.307Z</time>
      </trkpt>
      <trkpt lat="46.97267" lon="8.77229">
        <ele>634</ele>
        <time>2021-08-04T10:00:25.308Z</time>
      </trkpt>
      <trkpt lat="46.97268" lon="8.77228">
        <ele>634</ele>
        <time>2021-08-04T10:00:26.308Z</time>
      </trkpt>
      <trkpt lat="46.97267" lon="8.77227">
        <ele>635</ele>
        <time>2021-08-04T10:00:27.308Z</time>
      </trkpt>
      <trkpt lat="46.97267" lon="8.77226">
        <ele>635</ele>
        <time>2021-08-04T10:00:28.307Z</time>
      </trkpt>
      <trkpt lat="46.97266" lon="8.77224">
        <ele>635</ele>
        <time>2021-08-04T10:00:29.308Z</time>
      </trkpt>
      <trkpt lat="46.97265" lon="8.77222">
        <ele>635</ele>
        <time>2021-08-04T10:00:30.308Z</time>
      </trkpt>
      <trkpt lat="46.97264" lon="8.7722">
        <ele>635</ele>
        <time>2021-08-04T10:00:31.308Z</time>
      </trkpt>
      <trkpt lat="46.97263" lon="8.77217">
        <ele>636</ele>
        <time>2021-08-04T10:00:32.308Z</time>
      </trkpt>
      <trkpt lat="46.97261" lon="8.77215">
        <ele>636</ele>
        <time>2021-08-04T10:00:33.307Z</time>
      </trkpt>
      <trkpt lat="46.9726" lon="8.77213">
        <ele>636</ele>
        <time>2021-08-04T10:00:34.308Z</time>
      </trkpt>
      <trkpt lat="46.97258" lon="8.77212">
        <ele>636</ele>
        <time>2021-08-04T10:00:35.308Z</time>
      </trkpt>
      <trkpt lat="46.97256" lon="8.77211">
        <ele>636</ele>
        <time>2021-08-04T10:00:36.308Z</time>
      </trkpt>
      <trkpt lat="46.97255" lon="8.77211">
        <ele>636</ele>
        <time>2021-08-04T10:00:37.308Z</time>
      </trkpt>
      <trkpt lat="46.97253" lon="8.7721">
        <ele>636</ele>
        <time>2021-08-04T10:00:38.308Z</time>
      </trkpt>
      <trkpt lat="46.97253" lon="8.77208">
        <ele>636</ele>
        <time>2021-08-04T10:00:39.308Z</time>
      </trkpt>
      <trkpt lat="46.97253" lon="8.77206">
        <ele>637</ele>
        <time>2021-08-04T10:00:40.307Z</time>
      </trkpt>
      <trkpt lat="46.97253" lon="8.77203">
        <ele>637</ele>
        <time>2021-08-04T10:00:41.308Z</time>
      </trkpt>
      <trkpt lat="46.97252" lon="8.77202">
        <ele>637</ele>
        <time>2021-08-04T10:00:42.308Z</time>
      </trkpt>
      <trkpt lat="46.97249" lon="8.772">
        <ele>637</ele>
        <time>2021-08-04T10:00:43.308Z</time>
      </trkpt>
      <trkpt lat="46.97246" lon="8.77199">
        <ele>638</ele>
        <time>2021-08-04T10:00:44.307Z</time>
      </trkpt>
      <trkpt lat="46.97245" lon="8.77197">
        <ele>638</ele>
        <time>2021-08-04T10:00:45.307Z</time>
      </trkpt>
      <trkpt lat="46.97245" lon="8.77194">
        <ele>638</ele>
        <time>2021-08-04T10:00:46.308Z</time>
      </trkpt>
      <trkpt lat="46.97245" lon="8.77191">
        <ele>638</ele>
        <time>2021-08-04T10:00:47.307Z</time>
      </trkpt>
      <trkpt lat="46.97245" lon="8.77188">
        <ele>638</ele>
        <time>2021-08-04T10:00:48.308Z</time>
      </trkpt>
      <trkpt lat="46.97247" lon="8.77185">
        <ele>637</ele>
        <time>2021-08-04T10:00:49.308Z</time>
      </trkpt>
      <trkpt lat="46.97247" lon="8.77183">
        <ele>637</ele>
        <time>2021-08-04T10:00:50.308Z</time>
      </trkpt>
      <trkpt lat="46.97246" lon="8.77182">
        <ele>637</ele>
        <time>2021-08-04T10:00:51.307Z</time>
      </trkpt>
      <trkpt lat="46.97245" lon="8.77181">
        <ele>637</ele>
        <time>2021-08-04T10:00:52.308Z</time>
      </trkpt>
      <trkpt lat="46.97243" lon="8.77179">
        <ele>637</ele>
        <time>2021-08-04T10:00:53.308Z</time>
      </trkpt>
      <trkpt lat="46.97243" lon="8.77178">
        <ele>637</ele>
        <time>2021-08-04T10:00:54.307Z</time>
      </trkpt>
      <trkpt lat="46.97243" lon="8.77176">
        <ele>637</ele>
        <time>2021-08-04T10:00:55.308Z</time>
      </trkpt>
      <trkpt lat="46.97242" lon="8.77173">
        <ele>637</ele>
        <time>2021-08-04T10:00:56.308Z</time>
      </trkpt>
      <trkpt lat="46.97242" lon="8.77172">
        <ele>637</ele>
        <time>2021-08-04T10:00:57.308Z</time>
      </trkpt>
      <trkpt lat="46.97241" lon="8.7717">
        <ele>637</ele>
        <time>2021-08-04T10:00:58.307Z</time>
      </trkpt>
      <trkpt lat="46.9724" lon="8.77168">
        <ele>637</ele>
        <time>2021-08-04T10:00:59.307Z</time>
      </trkpt>
      <trkpt lat="46.97239" lon="8.77166">
        <ele>637</ele>
        <time>2021-08-04T10:01:00.308Z</time>
      </trkpt>
      <trkpt lat="46.9724" lon="8.77165">
        <ele>636</ele>
        <time>2021-08-04T10:01:01.307Z</time>
      </trkpt>
      <trkpt lat="46.9724" lon="8.77163">
        <ele>636</ele>
        <time>2021-08-04T10:01:02.307Z</time>
      </trkpt>
      <trkpt lat="46.97239" lon="8.77161">
        <ele>636</ele>
        <time>2021-08-04T10:01:03.307Z</time>
      </trkpt>
      <trkpt lat="46.9724" lon="8.77159">
        <ele>636</ele>
        <time>2021-08-04T10:01:04.307Z</time>
      </trkpt>
      <trkpt lat="46.97241" lon="8.77158">
        <ele>636</ele>
        <time>2021-08-04T10:01:05.308Z</time>
      </trkpt>
      <trkpt lat="46.97241" lon="8.77157">
        <ele>635</ele>
        <time>2021-08-04T10:01:06.307Z</time>
      </trkpt>
      <trkpt lat="46.9724" lon="8.77156">
        <ele>635</ele>
        <time>2021-08-04T10:01:07.308Z</time>
      </trkpt>
      <trkpt lat="46.97239" lon="8.77155">
        <ele>635</ele>
        <time>2021-08-04T10:01:08.308Z</time>
      </trkpt>
      <trkpt lat="46.97239" lon="8.77153">
        <ele>635</ele>
        <time>2021-08-04T10:01:09.308Z</time>
      </trkpt>
      <trkpt lat="46.97238" lon="8.77151">
        <ele>634</ele>
        <time>2021-08-04T10:01:10.308Z</time>
      </trkpt>
      <trkpt lat="46.97238" lon="8.77149">
        <ele>634</ele>
        <time>2021-08-04T10:01:11.307Z</time>
      </trkpt>
      <trkpt lat="46.97237" lon="8.77147">
        <ele>634</ele>
        <time>2021-08-04T10:01:12.308Z</time>
      </trkpt>
      <trkpt lat="46.97234" lon="8.77146">
        <ele>633</ele>
        <time>2021-08-04T10:01:13.307Z</time>
      </trkpt>
      <trkpt lat="46.97233" lon="8.77145">
        <ele>633</ele>
        <time>2021-08-04T10:01:14.308Z</time>
      </trkpt>
      <trkpt lat="46.97233" lon="8.77145">
        <ele>632</ele>
        <time>2021-08-04T10:01:15.308Z</time>
      </trkpt>
      <trkpt lat="46.97231" lon="8.77145">
        <ele>632</ele>
        <time>2021-08-04T10:01:16.308Z</time>
      </trkpt>
      <trkpt lat="46.97232" lon="8.77143">
        <ele>631</ele>
        <time>2021-08-04T10:01:17.308Z</time>
      </trkpt>
      <trkpt lat="46.97232" lon="8.7714">
        <ele>631</ele>
        <time>2021-08-04T10:01:18.308Z</time>
      </trkpt>
      <trkpt lat="46.97231" lon="8.77139">
        <ele>631</ele>
        <time>2021-08-04T10:01:19.307Z</time>
      </trkpt>
      <trkpt lat="46.9723" lon="8.77138">
        <ele>630</ele>
        <time>2021-08-04T10:01:20.308Z</time>
      </trkpt>
      <trkpt lat="46.97228" lon="8.77137">
        <ele>630</ele>
        <time>2021-08-04T10:01:21.307Z</time>
      </trkpt>
      <trkpt lat="46.97227" lon="8.77136">
        <ele>630</ele>
        <time>2021-08-04T10:01:22.308Z</time>
      </trkpt>
      <trkpt lat="46.97225" lon="8.77136">
        <ele>629</ele>
        <time>2021-08-04T10:01:23.307Z</time>
      </trkpt>
      <trkpt lat="46.97223" lon="8.77136">
        <ele>629</ele>
        <time>2021-08-04T10:01:24.307Z</time>
      </trkpt>
      <trkpt lat="46.97221" lon="8.77136">
        <ele>629</ele>
        <time>2021-08-04T10:01:25.308Z</time>
      </trkpt>
      <trkpt lat="46.97218" lon="8.77137">
        <ele>629</ele>
        <time>2021-08-04T10:01:26.308Z</time>
      </trkpt>
      <trkpt lat="46.97216" lon="8.77137">
        <ele>629</ele>
        <time>2021-08-04T10:01:27.308Z</time>
      </trkpt>
      <trkpt lat="46.97214" lon="8.77137">
        <ele>628</ele>
        <time>2021-08-04T10:01:28.308Z</time>
      </trkpt>
      <trkpt lat="46.97214" lon="8.77137">
        <ele>628</ele>
        <time>2021-08-04T10:01:29.308Z</time>
      </trkpt>
      <trkpt lat="46.97215" lon="8.77136">
        <ele>628</ele>
        <time>2021-08-04T10:01:30.308Z</time>
      </trkpt>
      <trkpt lat="46.97215" lon="8.77135">
        <ele>627</ele>
        <time>2021-08-04T10:01:31.308Z</time>
      </trkpt>
      <trkpt lat="46.97216" lon="8.77134">
        <ele>627</ele>
        <time>2021-08-04T10:01:32.308Z</time>
      </trkpt>
      <trkpt lat="46.97217" lon="8.77133">
        <ele>626</ele>
        <time>2021-08-04T10:01:33.307Z</time>
      </trkpt>
      <trkpt lat="46.97217" lon="8.77132">
        <ele>626</ele>
        <time>2021-08-04T10:01:34.308Z</time>
      </trkpt>
      <trkpt lat="46.97217" lon="8.77131">
        <ele>625</ele>
        <time>2021-08-04T10:01:35.308Z</time>
      </trkpt>
      <trkpt lat="46.97217" lon="8.7713">
        <ele>624</ele>
        <time>2021-08-04T10:01:36.307Z</time>
      </trkpt>
      <trkpt lat="46.97218" lon="8.7713">
        <ele>624</ele>
        <time>2021-08-04T10:01:37.307Z</time>
      </trkpt>
      <trkpt lat="46.97218" lon="8.7713">
        <ele>623</ele>
        <time>2021-08-04T10:01:38.308Z</time>
      </trkpt>
      <trkpt lat="46.97218" lon="8.77129">
        <ele>623</ele>
        <time>2021-08-04T10:01:39.307Z</time>
      </trkpt>
      <trkpt lat="46.97222" lon="8.77131">
        <ele>626</ele>
        <time>2021-08-04T10:01:44.433Z</time>
      </trkpt>
      <trkpt lat="46.97222" lon="8.77131">
        <ele>626</ele>
        <time>2021-08-04T10:01:45.432Z</time>
      </trkpt>
      <trkpt lat="46.97222" lon="8.7713">
        <ele>626</ele>
        <time>2021-08-04T10:01:46.432Z</time>
      </trkpt>
      <trkpt lat="46.97222" lon="8.77129">
        <ele>626</ele>
        <time>2021-08-04T10:01:47.433Z</time>
      </trkpt>
      <trkpt lat="46.97221" lon="8.77127">
        <ele>626</ele>
        <time>2021-08-04T10:01:48.432Z</time>
      </trkpt>
      <trkpt lat="46.97222" lon="8.77127">
        <ele>626</ele>
        <time>2021-08-04T10:01:49.433Z</time>
      </trkpt>
      <trkpt lat="46.97222" lon="8.77127">
        <ele>627</ele>
        <time>2021-08-04T10:01:50.433Z</time>
      </trkpt>
      <trkpt lat="46.97221" lon="8.77126">
        <ele>627</ele>
        <time>2021-08-04T10:01:51.432Z</time>
      </trkpt>
      <trkpt lat="46.9722" lon="8.77125">
        <ele>627</ele>
        <time>2021-08-04T10:01:52.432Z</time>
      </trkpt>
      <trkpt lat="46.9722" lon="8.77124">
        <ele>626</ele>
        <time>2021-08-04T10:01:53.432Z</time>
      </trkpt>
      <trkpt lat="46.97219" lon="8.77123">
        <ele>627</ele>
        <time>2021-08-04T10:01:54.432Z</time>
      </trkpt>
      <trkpt lat="46.97218" lon="8.77123">
        <ele>627</ele>
        <time>2021-08-04T10:01:55.432Z</time>
      </trkpt>
      <trkpt lat="46.97218" lon="8.77123">
        <ele>627</ele>
        <time>2021-08-04T10:01:56.432Z</time>
      </trkpt>
      <trkpt lat="46.97217" lon="8.77123">
        <ele>627</ele>
        <time>2021-08-04T10:01:57.432Z</time>
      </trkpt>
      <trkpt lat="46.97216" lon="8.77123">
        <ele>627</ele>
        <time>2021-08-04T10:01:58.432Z</time>
      </trkpt>
      <trkpt lat="46.97216" lon="8.77122">
        <ele>627</ele>
        <time>2021-08-04T10:01:59.432Z</time>
      </trkpt>
      <trkpt lat="46.97216" lon="8.77122">
        <ele>627</ele>
        <time>2021-08-04T10:02:00.432Z</time>
      </trkpt>
      <trkpt lat="46.97216" lon="8.77122">
        <ele>628</ele>
        <time>2021-08-04T10:02:01.432Z</time>
      </trkpt>
      <trkpt lat="46.97216" lon="8.77122">
        <ele>628</ele>
        <time>2021-08-04T10:02:02.433Z</time>
      </trkpt>
      <trkpt lat="46.97217" lon="8.77121">
        <ele>631</ele>
        <time>2021-08-04T10:02:03.433Z</time>
      </trkpt>
      <trkpt lat="46.97217" lon="8.77121">
        <ele>631</ele>
        <time>2021-08-04T10:02:04.433Z</time>
      </trkpt>
      <trkpt lat="46.97217" lon="8.77121">
        <ele>632</ele>
        <time>2021-08-04T10:02:05.432Z</time>
      </trkpt>
      <trkpt lat="46.97218" lon="8.77121">
        <ele>632</ele>
        <time>2021-08-04T10:02:29.559Z</time>
      </trkpt>
      <trkpt lat="46.97218" lon="8.7712">
        <ele>633</ele>
        <time>2021-08-04T10:02:30.559Z</time>
      </trkpt>
      <trkpt lat="46.97219" lon="8.7712">
        <ele>633</ele>
        <time>2021-08-04T10:02:31.559Z</time>
      </trkpt>
      <trkpt lat="46.9722" lon="8.77119">
        <ele>633</ele>
        <time>2021-08-04T10:02:32.558Z</time>
      </trkpt>
      <trkpt lat="46.97221" lon="8.77119">
        <ele>633</ele>
        <time>2021-08-04T10:02:33.559Z</time>
      </trkpt>
      <trkpt lat="46.97222" lon="8.77118">
        <ele>633</ele>
        <time>2021-08-04T10:02:34.559Z</time>
      </trkpt>
      <trkpt lat="46.97222" lon="8.77118">
        <ele>633</ele>
        <time>2021-08-04T10:02:35.559Z</time>
      </trkpt>
      <trkpt lat="46.97222" lon="8.77117">
        <ele>633</ele>
        <time>2021-08-04T10:02:36.559Z</time>
      </trkpt>
      <trkpt lat="46.97222" lon="8.77118">
        <ele>633</ele>
        <time>2021-08-04T10:02:37.558Z</time>
      </trkpt>
      <trkpt lat="46.97224" lon="8.77117">
        <ele>632</ele>
        <time>2021-08-04T10:02:38.559Z</time>
      </trkpt>
      <trkpt lat="46.97224" lon="8.77117">
        <ele>632</ele>
        <time>2021-08-04T10:02:39.559Z</time>
      </trkpt>
      <trkpt lat="46.97224" lon="8.77116">
        <ele>632</ele>
        <time>2021-08-04T10:02:40.559Z</time>
      </trkpt>
      <trkpt lat="46.97224" lon="8.77116">
        <ele>632</ele>
        <time>2021-08-04T10:02:41.558Z</time>
      </trkpt>
      <trkpt lat="46.97223" lon="8.77116">
        <ele>632</ele>
        <time>2021-08-04T10:02:42.559Z</time>
      </trkpt>
      <trkpt lat="46.97223" lon="8.77115">
        <ele>632</ele>
        <time>2021-08-04T10:02:43.558Z</time>
      </trkpt>
      <trkpt lat="46.9722" lon="8.7711">
        <ele>637</ele>
        <time>2021-08-04T10:02:44.559Z</time>
      </trkpt>
      <trkpt lat="46.97219" lon="8.77109">
        <ele>637</ele>
        <time>2021-08-04T10:02:45.560Z</time>
      </trkpt>
      <trkpt lat="46.9722" lon="8.77109">
        <ele>637</ele>
        <time>2021-08-04T10:02:46.559Z</time>
      </trkpt>
      <trkpt lat="46.97222" lon="8.77105">
        <ele>638</ele>
        <time>2021-08-04T10:02:47.561Z</time>
      </trkpt>
      <trkpt lat="46.97222" lon="8.77105">
        <ele>638</ele>
        <time>2021-08-04T10:02:48.561Z</time>
      </trkpt>
      <trkpt lat="46.97223" lon="8.77105">
        <ele>639</ele>
        <time>2021-08-04T10:02:49.560Z</time>
      </trkpt>
      <trkpt lat="46.97223" lon="8.77105">
        <ele>639</ele>
        <time>2021-08-04T10:02:50.560Z</time>
      </trkpt>
      <trkpt lat="46.97223" lon="8.77106">
        <ele>639</ele>
        <time>2021-08-04T10:02:51.561Z</time>
      </trkpt>
      <trkpt lat="46.97222" lon="8.77105">
        <ele>637</ele>
        <time>2021-08-04T10:02:52.561Z</time>
      </trkpt>
      <trkpt lat="46.97223" lon="8.77105">
        <ele>637</ele>
        <time>2021-08-04T10:02:53.562Z</time>
      </trkpt>
      <trkpt lat="46.97223" lon="8.77104">
        <ele>636</ele>
        <time>2021-08-04T10:02:54.562Z</time>
      </trkpt>
      <trkpt lat="46.97224" lon="8.77104">
        <ele>636</ele>
        <time>2021-08-04T10:02:55.562Z</time>
      </trkpt>
      <trkpt lat="46.97224" lon="8.77102">
        <ele>635</ele>
        <time>2021-08-04T10:02:56.561Z</time>
      </trkpt>
      <trkpt lat="46.97224" lon="8.77101">
        <ele>635</ele>
        <time>2021-08-04T10:02:57.562Z</time>
      </trkpt>
      <trkpt lat="46.97224" lon="8.771">
        <ele>634</ele>
        <time>2021-08-04T10:02:58.562Z</time>
      </trkpt>
      <trkpt lat="46.97225" lon="8.77099">
        <ele>634</ele>
        <time>2021-08-04T10:02:59.561Z</time>
      </trkpt>
      <trkpt lat="46.97226" lon="8.77098">
        <ele>634</ele>
        <time>2021-08-04T10:03:00.562Z</time>
      </trkpt>
      <trkpt lat="46.97227" lon="8.77097">
        <ele>634</ele>
        <time>2021-08-04T10:03:01.562Z</time>
      </trkpt>
      <trkpt lat="46.97227" lon="8.77097">
        <ele>634</ele>
        <time>2021-08-04T10:03:02.562Z</time>
      </trkpt>
      <trkpt lat="46.97228" lon="8.77096">
        <ele>634</ele>
        <time>2021-08-04T10:03:03.562Z</time>
      </trkpt>
      <trkpt lat="46.97229" lon="8.77095">
        <ele>634</ele>
        <time>2021-08-04T10:03:04.562Z</time>
      </trkpt>
      <trkpt lat="46.97229" lon="8.77094">
        <ele>634</ele>
        <time>2021-08-04T10:03:05.562Z</time>
      </trkpt>
      <trkpt lat="46.9723" lon="8.77093">
        <ele>634</ele>
        <time>2021-08-04T10:03:06.562Z</time>
      </trkpt>
      <trkpt lat="46.97231" lon="8.77091">
        <ele>634</ele>
        <time>2021-08-04T10:03:09.674Z</time>
      </trkpt>
      <trkpt lat="46.97231" lon="8.7709">
        <ele>633</ele>
        <time>2021-08-04T10:03:10.674Z</time>
      </trkpt>
      <trkpt lat="46.97231" lon="8.77088">
        <ele>633</ele>
        <time>2021-08-04T10:03:11.673Z</time>
      </trkpt>
      <trkpt lat="46.97231" lon="8.77086">
        <ele>633</ele>
        <time>2021-08-04T10:03:12.674Z</time>
      </trkpt>
      <trkpt lat="46.97231" lon="8.77084">
        <ele>633</ele>
        <time>2021-08-04T10:03:13.674Z</time>
      </trkpt>
      <trkpt lat="46.97231" lon="8.77083">
        <ele>632</ele>
        <time>2021-08-04T10:03:14.674Z</time>
      </trkpt>
      <trkpt lat="46.97231" lon="8.77082">
        <ele>632</ele>
        <time>2021-08-04T10:03:15.673Z</time>
      </trkpt>
      <trkpt lat="46.97231" lon="8.77081">
        <ele>632</ele>
        <time>2021-08-04T10:03:16.673Z</time>
      </trkpt>
      <trkpt lat="46.9723" lon="8.7708">
        <ele>631</ele>
        <time>2021-08-04T10:03:17.674Z</time>
      </trkpt>
      <trkpt lat="46.9723" lon="8.77081">
        <ele>631</ele>
        <time>2021-08-04T10:03:18.674Z</time>
      </trkpt>
      <trkpt lat="46.9723" lon="8.77082">
        <ele>631</ele>
        <time>2021-08-04T10:03:19.673Z</time>
      </trkpt>
      <trkpt lat="46.9723" lon="8.77082">
        <ele>631</ele>
        <time>2021-08-04T10:03:20.674Z</time>
      </trkpt>
      <trkpt lat="46.97229" lon="8.77083">
        <ele>630</ele>
        <time>2021-08-04T10:03:21.674Z</time>
      </trkpt>
      <trkpt lat="46.97229" lon="8.77083">
        <ele>630</ele>
        <time>2021-08-04T10:03:22.673Z</time>
      </trkpt>
      <trkpt lat="46.97229" lon="8.77082">
        <ele>631</ele>
        <time>2021-08-04T10:03:23.674Z</time>
      </trkpt>
      <trkpt lat="46.97229" lon="8.7708">
        <ele>631</ele>
        <time>2021-08-04T10:03:24.673Z</time>
      </trkpt>
      <trkpt lat="46.97228" lon="8.77078">
        <ele>631</ele>
        <time>2021-08-04T10:03:25.674Z</time>
      </trkpt>
      <trkpt lat="46.97227" lon="8.77077">
        <ele>631</ele>
        <time>2021-08-04T10:03:26.674Z</time>
      </trkpt>
      <trkpt lat="46.97227" lon="8.77075">
        <ele>631</ele>
        <time>2021-08-04T10:03:27.674Z</time>
      </trkpt>
      <trkpt lat="46.97227" lon="8.77073">
        <ele>632</ele>
        <time>2021-08-04T10:03:28.674Z</time>
      </trkpt>
      <trkpt lat="46.97228" lon="8.77071">
        <ele>632</ele>
        <time>2021-08-04T10:03:29.673Z</time>
      </trkpt>
      <trkpt lat="46.97227" lon="8.7707">
        <ele>632</ele>
        <time>2021-08-04T10:03:30.674Z</time>
      </trkpt>
      <trkpt lat="46.97227" lon="8.77068">
        <ele>632</ele>
        <time>2021-08-04T10:03:31.673Z</time>
      </trkpt>
      <trkpt lat="46.97227" lon="8.77067">
        <ele>632</ele>
        <time>2021-08-04T10:03:32.674Z</time>
      </trkpt>
      <trkpt lat="46.97227" lon="8.77065">
        <ele>631</ele>
        <time>2021-08-04T10:03:33.674Z</time>
      </trkpt>
      <trkpt lat="46.97228" lon="8.77063">
        <ele>631</ele>
        <time>2021-08-04T10:03:34.674Z</time>
      </trkpt>
      <trkpt lat="46.97227" lon="8.77062">
        <ele>631</ele>
        <time>2021-08-04T10:03:35.673Z</time>
      </trkpt>
      <trkpt lat="46.97228" lon="8.7706">
        <ele>631</ele>
        <time>2021-08-04T10:03:36.674Z</time>
      </trkpt>
      <trkpt lat="46.97227" lon="8.77059">
        <ele>631</ele>
        <time>2021-08-04T10:03:37.674Z</time>
      </trkpt>
      <trkpt lat="46.97227" lon="8.77057">
        <ele>631</ele>
        <time>2021-08-04T10:03:38.674Z</time>
      </trkpt>
      <trkpt lat="46.97226" lon="8.77055">
        <ele>631</ele>
        <time>2021-08-04T10:03:39.674Z</time>
      </trkpt>
      <trkpt lat="46.97226" lon="8.77054">
        <ele>630</ele>
        <time>2021-08-04T10:03:40.674Z</time>
      </trkpt>
      <trkpt lat="46.97226" lon="8.77052">
        <ele>630</ele>
        <time>2021-08-04T10:03:41.674Z</time>
      </trkpt>
      <trkpt lat="46.97226" lon="8.7705">
        <ele>630</ele>
        <time>2021-08-04T10:03:42.674Z</time>
      </trkpt>
      <trkpt lat="46.97226" lon="8.77048">
        <ele>630</ele>
        <time>2021-08-04T10:03:43.673Z</time>
      </trkpt>
      <trkpt lat="46.97226" lon="8.77046">
        <ele>630</ele>
        <time>2021-08-04T10:03:44.674Z</time>
      </trkpt>
      <trkpt lat="46.97226" lon="8.77044">
        <ele>631</ele>
        <time>2021-08-04T10:03:45.674Z</time>
      </trkpt>
      <trkpt lat="46.97227" lon="8.77041">
        <ele>631</ele>
        <time>2021-08-04T10:03:46.674Z</time>
      </trkpt>
      <trkpt lat="46.97228" lon="8.77039">
        <ele>631</ele>
        <time>2021-08-04T10:03:47.674Z</time>
      </trkpt>
      <trkpt lat="46.97229" lon="8.77038">
        <ele>631</ele>
        <time>2021-08-04T10:03:48.673Z</time>
      </trkpt>
      <trkpt lat="46.97229" lon="8.77036">
        <ele>631</ele>
        <time>2021-08-04T10:03:49.673Z</time>
      </trkpt>
      <trkpt lat="46.97229" lon="8.77035">
        <ele>630</ele>
        <time>2021-08-04T10:03:50.673Z</time>
      </trkpt>
      <trkpt lat="46.97229" lon="8.77033">
        <ele>630</ele>
        <time>2021-08-04T10:03:51.673Z</time>
      </trkpt>
      <trkpt lat="46.97229" lon="8.77032">
        <ele>630</ele>
        <time>2021-08-04T10:03:52.674Z</time>
      </trkpt>
      <trkpt lat="46.97229" lon="8.77031">
        <ele>629</ele>
        <time>2021-08-04T10:03:53.673Z</time>
      </trkpt>
      <trkpt lat="46.97229" lon="8.77029">
        <ele>628</ele>
        <time>2021-08-04T10:03:54.673Z</time>
      </trkpt>
      <trkpt lat="46.97229" lon="8.77027">
        <ele>628</ele>
        <time>2021-08-04T10:03:55.673Z</time>
      </trkpt>
      <trkpt lat="46.97229" lon="8.77026">
        <ele>627</ele>
        <time>2021-08-04T10:03:56.673Z</time>
      </trkpt>
      <trkpt lat="46.9723" lon="8.77024">
        <ele>627</ele>
        <time>2021-08-04T10:03:57.673Z</time>
      </trkpt>
      <trkpt lat="46.9723" lon="8.77022">
        <ele>627</ele>
        <time>2021-08-04T10:03:58.673Z</time>
      </trkpt>
      <trkpt lat="46.9723" lon="8.7702">
        <ele>627</ele>
        <time>2021-08-04T10:03:59.674Z</time>
      </trkpt>
      <trkpt lat="46.9723" lon="8.77018">
        <ele>627</ele>
        <time>2021-08-04T10:04:00.674Z</time>
      </trkpt>
      <trkpt lat="46.9723" lon="8.77017">
        <ele>626</ele>
        <time>2021-08-04T10:04:01.674Z</time>
      </trkpt>
      <trkpt lat="46.9723" lon="8.77015">
        <ele>626</ele>
        <time>2021-08-04T10:04:02.674Z</time>
      </trkpt>
      <trkpt lat="46.97231" lon="8.77013">
        <ele>626</ele>
        <time>2021-08-04T10:04:03.673Z</time>
      </trkpt>
      <trkpt lat="46.9723" lon="8.77012">
        <ele>626</ele>
        <time>2021-08-04T10:04:04.673Z</time>
      </trkpt>
      <trkpt lat="46.9723" lon="8.7701">
        <ele>625</ele>
        <time>2021-08-04T10:04:05.673Z</time>
      </trkpt>
      <trkpt lat="46.97231" lon="8.77008">
        <ele>625</ele>
        <time>2021-08-04T10:04:06.673Z</time>
      </trkpt>
      <trkpt lat="46.97231" lon="8.77005">
        <ele>625</ele>
        <time>2021-08-04T10:04:07.673Z</time>
      </trkpt>
      <trkpt lat="46.97231" lon="8.77004">
        <ele>625</ele>
        <time>2021-08-04T10:04:08.673Z</time>
      </trkpt>
      <trkpt lat="46.97231" lon="8.77003">
        <ele>625</ele>
        <time>2021-08-04T10:04:09.673Z</time>
      </trkpt>
      <trkpt lat="46.97231" lon="8.77001">
        <ele>625</ele>
        <time>2021-08-04T10:04:10.673Z</time>
      </trkpt>
      <trkpt lat="46.97231" lon="8.76999">
        <ele>625</ele>
        <time>2021-08-04T10:04:11.673Z</time>
      </trkpt>
      <trkpt lat="46.97231" lon="8.76997">
        <ele>625</ele>
        <time>2021-08-04T10:04:12.673Z</time>
      </trkpt>
      <trkpt lat="46.9723" lon="8.76995">
        <ele>625</ele>
        <time>2021-08-04T10:04:13.673Z</time>
      </trkpt>
      <trkpt lat="46.9723" lon="8.76993">
        <ele>625</ele>
        <time>2021-08-04T10:04:14.673Z</time>
      </trkpt>
      <trkpt lat="46.97229" lon="8.76992">
        <ele>625</ele>
        <time>2021-08-04T10:04:15.673Z</time>
      </trkpt>
      <trkpt lat="46.97228" lon="8.7699">
        <ele>625</ele>
        <time>2021-08-04T10:04:16.674Z</time>
      </trkpt>
      <trkpt lat="46.97228" lon="8.76988">
        <ele>625</ele>
        <time>2021-08-04T10:04:17.674Z</time>
      </trkpt>
      <trkpt lat="46.97229" lon="8.76987">
        <ele>624</ele>
        <time>2021-08-04T10:04:18.673Z</time>
      </trkpt>
      <trkpt lat="46.97229" lon="8.76985">
        <ele>624</ele>
        <time>2021-08-04T10:04:19.674Z</time>
      </trkpt>
      <trkpt lat="46.9723" lon="8.76982">
        <ele>624</ele>
        <time>2021-08-04T10:04:20.674Z</time>
      </trkpt>
      <trkpt lat="46.9723" lon="8.7698">
        <ele>624</ele>
        <time>2021-08-04T10:04:21.674Z</time>
      </trkpt>
      <trkpt lat="46.97231" lon="8.76979">
        <ele>624</ele>
        <time>2021-08-04T10:04:22.674Z</time>
      </trkpt>
      <trkpt lat="46.97231" lon="8.76977">
        <ele>624</ele>
        <time>2021-08-04T10:04:23.674Z</time>
      </trkpt>
      <trkpt lat="46.97231" lon="8.76975">
        <ele>624</ele>
        <time>2021-08-04T10:04:24.674Z</time>
      </trkpt>
      <trkpt lat="46.97232" lon="8.76973">
        <ele>624</ele>
        <time>2021-08-04T10:04:25.674Z</time>
      </trkpt>
      <trkpt lat="46.97232" lon="8.76972">
        <ele>625</ele>
        <time>2021-08-04T10:04:26.674Z</time>
      </trkpt>
      <trkpt lat="46.97231" lon="8.7697">
        <ele>625</ele>
        <time>2021-08-04T10:04:27.674Z</time>
      </trkpt>
      <trkpt lat="46.97231" lon="8.76969">
        <ele>625</ele>
        <time>2021-08-04T10:04:28.673Z</time>
      </trkpt>
      <trkpt lat="46.9723" lon="8.76967">
        <ele>626</ele>
        <time>2021-08-04T10:04:29.674Z</time>
      </trkpt>
      <trkpt lat="46.9723" lon="8.76966">
        <ele>626</ele>
        <time>2021-08-04T10:04:30.673Z</time>
      </trkpt>
      <trkpt lat="46.9723" lon="8.76964">
        <ele>626</ele>
        <time>2021-08-04T10:04:31.674Z</time>
      </trkpt>
      <trkpt lat="46.9723" lon="8.76962">
        <ele>626</ele>
        <time>2021-08-04T10:04:32.674Z</time>
      </trkpt>
      <trkpt lat="46.9723" lon="8.76961">
        <ele>626</ele>
        <time>2021-08-04T10:04:33.673Z</time>
      </trkpt>
      <trkpt lat="46.9723" lon="8.76959">
        <ele>627</ele>
        <time>2021-08-04T10:04:34.673Z</time>
      </trkpt>
      <trkpt lat="46.97231" lon="8.76957">
        <ele>627</ele>
        <time>2021-08-04T10:04:35.674Z</time>
      </trkpt>
      <trkpt lat="46.97231" lon="8.76955">
        <ele>627</ele>
        <time>2021-08-04T10:04:36.674Z</time>
      </trkpt>
      <trkpt lat="46.97231" lon="8.76953">
        <ele>627</ele>
        <time>2021-08-04T10:04:37.674Z</time>
      </trkpt>
      <trkpt lat="46.97231" lon="8.76952">
        <ele>627</ele>
        <time>2021-08-04T10:04:38.674Z</time>
      </trkpt>
      <trkpt lat="46.97231" lon="8.7695">
        <ele>628</ele>
        <time>2021-08-04T10:04:39.674Z</time>
      </trkpt>
      <trkpt lat="46.97231" lon="8.76949">
        <ele>628</ele>
        <time>2021-08-04T10:04:40.674Z</time>
      </trkpt>
      <trkpt lat="46.97231" lon="8.76947">
        <ele>627</ele>
        <time>2021-08-04T10:04:41.673Z</time>
      </trkpt>
      <trkpt lat="46.97232" lon="8.76945">
        <ele>627</ele>
        <time>2021-08-04T10:04:42.674Z</time>
      </trkpt>
      <trkpt lat="46.97232" lon="8.76942">
        <ele>627</ele>
        <time>2021-08-04T10:04:43.674Z</time>
      </trkpt>
      <trkpt lat="46.97232" lon="8.7694">
        <ele>627</ele>
        <time>2021-08-04T10:04:44.673Z</time>
      </trkpt>
      <trkpt lat="46.97233" lon="8.76937">
        <ele>627</ele>
        <time>2021-08-04T10:04:45.674Z</time>
      </trkpt>
      <trkpt lat="46.97234" lon="8.76935">
        <ele>627</ele>
        <time>2021-08-04T10:04:46.673Z</time>
      </trkpt>
      <trkpt lat="46.97234" lon="8.76933">
        <ele>626</ele>
        <time>2021-08-04T10:04:47.674Z</time>
      </trkpt>
      <trkpt lat="46.97233" lon="8.76932">
        <ele>626</ele>
        <time>2021-08-04T10:04:48.673Z</time>
      </trkpt>
      <trkpt lat="46.97234" lon="8.7693">
        <ele>626</ele>
        <time>2021-08-04T10:04:49.674Z</time>
      </trkpt>
      <trkpt lat="46.97234" lon="8.76928">
        <ele>626</ele>
        <time>2021-08-04T10:04:50.673Z</time>
      </trkpt>
      <trkpt lat="46.97234" lon="8.76926">
        <ele>626</ele>
        <time>2021-08-04T10:04:51.673Z</time>
      </trkpt>
      <trkpt lat="46.97235" lon="8.76924">
        <ele>626</ele>
        <time>2021-08-04T10:04:52.674Z</time>
      </trkpt>
      <trkpt lat="46.97235" lon="8.76922">
        <ele>626</ele>
        <time>2021-08-04T10:04:53.673Z</time>
      </trkpt>
      <trkpt lat="46.97235" lon="8.7692">
        <ele>626</ele>
        <time>2021-08-04T10:04:54.674Z</time>
      </trkpt>
      <trkpt lat="46.97235" lon="8.76918">
        <ele>626</ele>
        <time>2021-08-04T10:04:55.673Z</time>
      </trkpt>
      <trkpt lat="46.97236" lon="8.76916">
        <ele>626</ele>
        <time>2021-08-04T10:04:56.673Z</time>
      </trkpt>
      <trkpt lat="46.97238" lon="8.76914">
        <ele>626</ele>
        <time>2021-08-04T10:04:57.674Z</time>
      </trkpt>
      <trkpt lat="46.97238" lon="8.76911">
        <ele>626</ele>
        <time>2021-08-04T10:04:58.673Z</time>
      </trkpt>
      <trkpt lat="46.97238" lon="8.76909">
        <ele>625</ele>
        <time>2021-08-04T10:04:59.674Z</time>
      </trkpt>
      <trkpt lat="46.97237" lon="8.76907">
        <ele>625</ele>
        <time>2021-08-04T10:05:00.674Z</time>
      </trkpt>
      <trkpt lat="46.97237" lon="8.76906">
        <ele>624</ele>
        <time>2021-08-04T10:05:01.674Z</time>
      </trkpt>
      <trkpt lat="46.97237" lon="8.76904">
        <ele>624</ele>
        <time>2021-08-04T10:05:02.673Z</time>
      </trkpt>
      <trkpt lat="46.97237" lon="8.76901">
        <ele>624</ele>
        <time>2021-08-04T10:05:03.674Z</time>
      </trkpt>
      <trkpt lat="46.97238" lon="8.76899">
        <ele>624</ele>
        <time>2021-08-04T10:05:04.674Z</time>
      </trkpt>
      <trkpt lat="46.97238" lon="8.76897">
        <ele>623</ele>
        <time>2021-08-04T10:05:05.674Z</time>
      </trkpt>
      <trkpt lat="46.97238" lon="8.76895">
        <ele>623</ele>
        <time>2021-08-04T10:05:06.674Z</time>
      </trkpt>
      <trkpt lat="46.97238" lon="8.76893">
        <ele>623</ele>
        <time>2021-08-04T10:05:07.674Z</time>
      </trkpt>
      <trkpt lat="46.97238" lon="8.76891">
        <ele>623</ele>
        <time>2021-08-04T10:05:08.673Z</time>
      </trkpt>
      <trkpt lat="46.97238" lon="8.76889">
        <ele>622</ele>
        <time>2021-08-04T10:05:09.673Z</time>
      </trkpt>
      <trkpt lat="46.97238" lon="8.76887">
        <ele>622</ele>
        <time>2021-08-04T10:05:10.674Z</time>
      </trkpt>
      <trkpt lat="46.97238" lon="8.76885">
        <ele>622</ele>
        <time>2021-08-04T10:05:11.674Z</time>
      </trkpt>
      <trkpt lat="46.97238" lon="8.76883">
        <ele>622</ele>
        <time>2021-08-04T10:05:12.674Z</time>
      </trkpt>
      <trkpt lat="46.97239" lon="8.76882">
        <ele>621</ele>
        <time>2021-08-04T10:05:13.673Z</time>
      </trkpt>
      <trkpt lat="46.97239" lon="8.7688">
        <ele>621</ele>
        <time>2021-08-04T10:05:14.674Z</time>
      </trkpt>
      <trkpt lat="46.97239" lon="8.76878">
        <ele>621</ele>
        <time>2021-08-04T10:05:15.674Z</time>
      </trkpt>
      <trkpt lat="46.97239" lon="8.76876">
        <ele>621</ele>
        <time>2021-08-04T10:05:16.673Z</time>
      </trkpt>
      <trkpt lat="46.9724" lon="8.76874">
        <ele>621</ele>
        <time>2021-08-04T10:05:17.673Z</time>
      </trkpt>
      <trkpt lat="46.9724" lon="8.76873">
        <ele>621</ele>
        <time>2021-08-04T10:05:18.674Z</time>
      </trkpt>
      <trkpt lat="46.9724" lon="8.76871">
        <ele>621</ele>
        <time>2021-08-04T10:05:19.674Z</time>
      </trkpt>
      <trkpt lat="46.97239" lon="8.76869">
        <ele>621</ele>
        <time>2021-08-04T10:05:20.674Z</time>
      </trkpt>
      <trkpt lat="46.97239" lon="8.76867">
        <ele>621</ele>
        <time>2021-08-04T10:05:21.673Z</time>
      </trkpt>
      <trkpt lat="46.97239" lon="8.76865">
        <ele>620</ele>
        <time>2021-08-04T10:05:22.674Z</time>
      </trkpt>
      <trkpt lat="46.97239" lon="8.76863">
        <ele>620</ele>
        <time>2021-08-04T10:05:23.674Z</time>
      </trkpt>
      <trkpt lat="46.97238" lon="8.76861">
        <ele>620</ele>
        <time>2021-08-04T10:05:24.673Z</time>
      </trkpt>
      <trkpt lat="46.97238" lon="8.76859">
        <ele>621</ele>
        <time>2021-08-04T10:05:25.673Z</time>
      </trkpt>
      <trkpt lat="46.97238" lon="8.76857">
        <ele>621</ele>
        <time>2021-08-04T10:05:26.674Z</time>
      </trkpt>
      <trkpt lat="46.97237" lon="8.76855">
        <ele>621</ele>
        <time>2021-08-04T10:05:27.673Z</time>
      </trkpt>
      <trkpt lat="46.97236" lon="8.76853">
        <ele>621</ele>
        <time>2021-08-04T10:05:28.673Z</time>
      </trkpt>
      <trkpt lat="46.97236" lon="8.76852">
        <ele>622</ele>
        <time>2021-08-04T10:05:29.673Z</time>
      </trkpt>
      <trkpt lat="46.97236" lon="8.76851">
        <ele>622</ele>
        <time>2021-08-04T10:05:30.673Z</time>
      </trkpt>
      <trkpt lat="46.97236" lon="8.7685">
        <ele>622</ele>
        <time>2021-08-04T10:05:31.674Z</time>
      </trkpt>
      <trkpt lat="46.97236" lon="8.76848">
        <ele>622</ele>
        <time>2021-08-04T10:05:32.673Z</time>
      </trkpt>
      <trkpt lat="46.97236" lon="8.76846">
        <ele>622</ele>
        <time>2021-08-04T10:05:33.673Z</time>
      </trkpt>
      <trkpt lat="46.97236" lon="8.76844">
        <ele>622</ele>
        <time>2021-08-04T10:05:34.673Z</time>
      </trkpt>
      <trkpt lat="46.97237" lon="8.76842">
        <ele>622</ele>
        <time>2021-08-04T10:05:35.673Z</time>
      </trkpt>
      <trkpt lat="46.97237" lon="8.76841">
        <ele>622</ele>
        <time>2021-08-04T10:05:36.674Z</time>
      </trkpt>
      <trkpt lat="46.97237" lon="8.76839">
        <ele>622</ele>
        <time>2021-08-04T10:05:37.674Z</time>
      </trkpt>
      <trkpt lat="46.97237" lon="8.76837">
        <ele>621</ele>
        <time>2021-08-04T10:05:38.673Z</time>
      </trkpt>
      <trkpt lat="46.97237" lon="8.76834">
        <ele>621</ele>
        <time>2021-08-04T10:05:39.674Z</time>
      </trkpt>
      <trkpt lat="46.97237" lon="8.76832">
        <ele>621</ele>
        <time>2021-08-04T10:05:40.674Z</time>
      </trkpt>
      <trkpt lat="46.97237" lon="8.7683">
        <ele>620</ele>
        <time>2021-08-04T10:05:41.673Z</time>
      </trkpt>
      <trkpt lat="46.97237" lon="8.76829">
        <ele>620</ele>
        <time>2021-08-04T10:05:42.674Z</time>
      </trkpt>
      <trkpt lat="46.97238" lon="8.76827">
        <ele>620</ele>
        <time>2021-08-04T10:05:43.673Z</time>
      </trkpt>
      <trkpt lat="46.97238" lon="8.76825">
        <ele>620</ele>
        <time>2021-08-04T10:05:44.674Z</time>
      </trkpt>
      <trkpt lat="46.97239" lon="8.76823">
        <ele>620</ele>
        <time>2021-08-04T10:05:45.674Z</time>
      </trkpt>
      <trkpt lat="46.97239" lon="8.76821">
        <ele>620</ele>
        <time>2021-08-04T10:05:46.674Z</time>
      </trkpt>
      <trkpt lat="46.97239" lon="8.7682">
        <ele>620</ele>
        <time>2021-08-04T10:05:47.674Z</time>
      </trkpt>
      <trkpt lat="46.97239" lon="8.76818">
        <ele>620</ele>
        <time>2021-08-04T10:05:48.674Z</time>
      </trkpt>
      <trkpt lat="46.9724" lon="8.76816">
        <ele>620</ele>
        <time>2021-08-04T10:05:49.674Z</time>
      </trkpt>
      <trkpt lat="46.97241" lon="8.76814">
        <ele>620</ele>
        <time>2021-08-04T10:05:50.673Z</time>
      </trkpt>
      <trkpt lat="46.97241" lon="8.76811">
        <ele>620</ele>
        <time>2021-08-04T10:05:51.673Z</time>
      </trkpt>
      <trkpt lat="46.97242" lon="8.76809">
        <ele>620</ele>
        <time>2021-08-04T10:05:52.674Z</time>
      </trkpt>
      <trkpt lat="46.97242" lon="8.76807">
        <ele>621</ele>
        <time>2021-08-04T10:05:53.674Z</time>
      </trkpt>
      <trkpt lat="46.97243" lon="8.76806">
        <ele>621</ele>
        <time>2021-08-04T10:05:54.674Z</time>
      </trkpt>
      <trkpt lat="46.97243" lon="8.76804">
        <ele>621</ele>
        <time>2021-08-04T10:05:55.674Z</time>
      </trkpt>
      <trkpt lat="46.97243" lon="8.76802">
        <ele>621</ele>
        <time>2021-08-04T10:05:56.674Z</time>
      </trkpt>
      <trkpt lat="46.97243" lon="8.768">
        <ele>622</ele>
        <time>2021-08-04T10:05:57.673Z</time>
      </trkpt>
      <trkpt lat="46.97243" lon="8.76798">
        <ele>622</ele>
        <time>2021-08-04T10:05:58.674Z</time>
      </trkpt>
      <trkpt lat="46.97242" lon="8.76797">
        <ele>622</ele>
        <time>2021-08-04T10:05:59.674Z</time>
      </trkpt>
      <trkpt lat="46.97242" lon="8.76795">
        <ele>622</ele>
        <time>2021-08-04T10:06:00.674Z</time>
      </trkpt>
      <trkpt lat="46.97242" lon="8.76793">
        <ele>623</ele>
        <time>2021-08-04T10:06:01.674Z</time>
      </trkpt>
      <trkpt lat="46.97241" lon="8.76791">
        <ele>623</ele>
        <time>2021-08-04T10:06:02.674Z</time>
      </trkpt>
      <trkpt lat="46.97241" lon="8.76789">
        <ele>623</ele>
        <time>2021-08-04T10:06:03.673Z</time>
      </trkpt>
      <trkpt lat="46.97241" lon="8.76786">
        <ele>623</ele>
        <time>2021-08-04T10:06:04.674Z</time>
      </trkpt>
      <trkpt lat="46.97241" lon="8.76784">
        <ele>623</ele>
        <time>2021-08-04T10:06:05.673Z</time>
      </trkpt>
      <trkpt lat="46.97241" lon="8.76782">
        <ele>623</ele>
        <time>2021-08-04T10:06:06.674Z</time>
      </trkpt>
      <trkpt lat="46.97242" lon="8.76779">
        <ele>623</ele>
        <time>2021-08-04T10:06:07.674Z</time>
      </trkpt>
      <trkpt lat="46.97242" lon="8.76777">
        <ele>624</ele>
        <time>2021-08-04T10:06:08.674Z</time>
      </trkpt>
      <trkpt lat="46.97243" lon="8.76775">
        <ele>624</ele>
        <time>2021-08-04T10:06:09.674Z</time>
      </trkpt>
      <trkpt lat="46.97243" lon="8.76773">
        <ele>624</ele>
        <time>2021-08-04T10:06:10.673Z</time>
      </trkpt>
      <trkpt lat="46.97244" lon="8.76771">
        <ele>624</ele>
        <time>2021-08-04T10:06:11.673Z</time>
      </trkpt>
      <trkpt lat="46.97244" lon="8.7677">
        <ele>624</ele>
        <time>2021-08-04T10:06:12.674Z</time>
      </trkpt>
      <trkpt lat="46.97244" lon="8.76768">
        <ele>624</ele>
        <time>2021-08-04T10:06:13.674Z</time>
      </trkpt>
      <trkpt lat="46.97244" lon="8.76766">
        <ele>624</ele>
        <time>2021-08-04T10:06:14.674Z</time>
      </trkpt>
      <trkpt lat="46.97244" lon="8.76765">
        <ele>624</ele>
        <time>2021-08-04T10:06:15.674Z</time>
      </trkpt>
      <trkpt lat="46.97244" lon="8.76763">
        <ele>625</ele>
        <time>2021-08-04T10:06:16.673Z</time>
      </trkpt>
      <trkpt lat="46.97244" lon="8.76762">
        <ele>625</ele>
        <time>2021-08-04T10:06:17.673Z</time>
      </trkpt>
      <trkpt lat="46.97244" lon="8.7676">
        <ele>625</ele>
        <time>2021-08-04T10:06:18.673Z</time>
      </trkpt>
      <trkpt lat="46.97245" lon="8.76759">
        <ele>625</ele>
        <time>2021-08-04T10:06:19.674Z</time>
      </trkpt>
      <trkpt lat="46.97244" lon="8.76757">
        <ele>624</ele>
        <time>2021-08-04T10:06:20.674Z</time>
      </trkpt>
      <trkpt lat="46.97244" lon="8.76754">
        <ele>624</ele>
        <time>2021-08-04T10:06:21.674Z</time>
      </trkpt>
      <trkpt lat="46.97244" lon="8.76752">
        <ele>624</ele>
        <time>2021-08-04T10:06:22.674Z</time>
      </trkpt>
      <trkpt lat="46.97244" lon="8.76749">
        <ele>624</ele>
        <time>2021-08-04T10:06:23.673Z</time>
      </trkpt>
      <trkpt lat="46.97244" lon="8.76746">
        <ele>625</ele>
        <time>2021-08-04T10:06:24.673Z</time>
      </trkpt>
      <trkpt lat="46.97244" lon="8.76744">
        <ele>625</ele>
        <time>2021-08-04T10:06:25.674Z</time>
      </trkpt>
      <trkpt lat="46.97244" lon="8.76742">
        <ele>625</ele>
        <time>2021-08-04T10:06:26.674Z</time>
      </trkpt>
      <trkpt lat="46.97245" lon="8.76741">
        <ele>624</ele>
        <time>2021-08-04T10:06:27.674Z</time>
      </trkpt>
      <trkpt lat="46.97245" lon="8.76739">
        <ele>624</ele>
        <time>2021-08-04T10:06:28.674Z</time>
      </trkpt>
      <trkpt lat="46.97245" lon="8.76737">
        <ele>624</ele>
        <time>2021-08-04T10:06:29.674Z</time>
      </trkpt>
      <trkpt lat="46.97245" lon="8.76735">
        <ele>624</ele>
        <time>2021-08-04T10:06:30.674Z</time>
      </trkpt>
      <trkpt lat="46.97245" lon="8.76734">
        <ele>624</ele>
        <time>2021-08-04T10:06:31.674Z</time>
      </trkpt>
      <trkpt lat="46.97246" lon="8.76732">
        <ele>625</ele>
        <time>2021-08-04T10:06:32.674Z</time>
      </trkpt>
      <trkpt lat="46.97246" lon="8.7673">
        <ele>625</ele>
        <time>2021-08-04T10:06:33.674Z</time>
      </trkpt>
      <trkpt lat="46.97247" lon="8.76728">
        <ele>625</ele>
        <time>2021-08-04T10:06:34.674Z</time>
      </trkpt>
      <trkpt lat="46.97247" lon="8.76727">
        <ele>625</ele>
        <time>2021-08-04T10:06:35.674Z</time>
      </trkpt>
      <trkpt lat="46.97247" lon="8.76725">
        <ele>625</ele>
        <time>2021-08-04T10:06:36.674Z</time>
      </trkpt>
      <trkpt lat="46.97247" lon="8.76723">
        <ele>625</ele>
        <time>2021-08-04T10:06:37.673Z</time>
      </trkpt>
      <trkpt lat="46.97247" lon="8.76721">
        <ele>625</ele>
        <time>2021-08-04T10:06:38.674Z</time>
      </trkpt>
      <trkpt lat="46.97247" lon="8.7672">
        <ele>625</ele>
        <time>2021-08-04T10:06:39.673Z</time>
      </trkpt>
      <trkpt lat="46.97248" lon="8.76718">
        <ele>625</ele>
        <time>2021-08-04T10:06:40.674Z</time>
      </trkpt>
      <trkpt lat="46.97248" lon="8.76716">
        <ele>625</ele>
        <time>2021-08-04T10:06:41.674Z</time>
      </trkpt>
      <trkpt lat="46.97248" lon="8.76714">
        <ele>624</ele>
        <time>2021-08-04T10:06:51.809Z</time>
      </trkpt>
      <trkpt lat="46.97248" lon="8.76712">
        <ele>625</ele>
        <time>2021-08-04T10:06:52.809Z</time>
      </trkpt>
      <trkpt lat="46.97248" lon="8.7671">
        <ele>624</ele>
        <time>2021-08-04T10:06:53.809Z</time>
      </trkpt>
      <trkpt lat="46.97247" lon="8.76709">
        <ele>624</ele>
        <time>2021-08-04T10:06:55.902Z</time>
      </trkpt>
      <trkpt lat="46.97247" lon="8.76708">
        <ele>624</ele>
        <time>2021-08-04T10:06:56.903Z</time>
      </trkpt>
      <trkpt lat="46.97247" lon="8.76706">
        <ele>624</ele>
        <time>2021-08-04T10:06:57.903Z</time>
      </trkpt>
      <trkpt lat="46.97246" lon="8.76705">
        <ele>624</ele>
        <time>2021-08-04T10:06:58.903Z</time>
      </trkpt>
      <trkpt lat="46.97245" lon="8.76704">
        <ele>623</ele>
        <time>2021-08-04T10:06:59.903Z</time>
      </trkpt>
      <trkpt lat="46.97245" lon="8.76702">
        <ele>624</ele>
        <time>2021-08-04T10:07:00.902Z</time>
      </trkpt>
      <trkpt lat="46.97245" lon="8.767">
        <ele>624</ele>
        <time>2021-08-04T10:07:01.903Z</time>
      </trkpt>
      <trkpt lat="46.97246" lon="8.767">
        <ele>624</ele>
        <time>2021-08-04T10:07:02.903Z</time>
      </trkpt>
      <trkpt lat="46.97246" lon="8.76698">
        <ele>624</ele>
        <time>2021-08-04T10:07:03.903Z</time>
      </trkpt>
      <trkpt lat="46.97248" lon="8.76697">
        <ele>624</ele>
        <time>2021-08-04T10:07:04.903Z</time>
      </trkpt>
      <trkpt lat="46.97249" lon="8.76696">
        <ele>624</ele>
        <time>2021-08-04T10:07:05.903Z</time>
      </trkpt>
      <trkpt lat="46.9725" lon="8.76694">
        <ele>623</ele>
        <time>2021-08-04T10:07:06.903Z</time>
      </trkpt>
      <trkpt lat="46.9725" lon="8.76693">
        <ele>623</ele>
        <time>2021-08-04T10:07:07.902Z</time>
      </trkpt>
      <trkpt lat="46.97251" lon="8.76692">
        <ele>623</ele>
        <time>2021-08-04T10:07:08.903Z</time>
      </trkpt>
      <trkpt lat="46.97251" lon="8.7669">
        <ele>623</ele>
        <time>2021-08-04T10:07:09.903Z</time>
      </trkpt>
      <trkpt lat="46.97251" lon="8.7669">
        <ele>622</ele>
        <time>2021-08-04T10:07:10.902Z</time>
      </trkpt>
      <trkpt lat="46.97251" lon="8.76689">
        <ele>622</ele>
        <time>2021-08-04T10:07:11.903Z</time>
      </trkpt>
      <trkpt lat="46.97251" lon="8.76687">
        <ele>621</ele>
        <time>2021-08-04T10:07:12.903Z</time>
      </trkpt>
      <trkpt lat="46.97251" lon="8.76686">
        <ele>621</ele>
        <time>2021-08-04T10:07:13.903Z</time>
      </trkpt>
      <trkpt lat="46.97251" lon="8.76685">
        <ele>621</ele>
        <time>2021-08-04T10:07:14.903Z</time>
      </trkpt>
      <trkpt lat="46.97251" lon="8.76683">
        <ele>620</ele>
        <time>2021-08-04T10:07:15.903Z</time>
      </trkpt>
      <trkpt lat="46.97251" lon="8.76682">
        <ele>620</ele>
        <time>2021-08-04T10:07:16.902Z</time>
      </trkpt>
      <trkpt lat="46.9725" lon="8.7668">
        <ele>620</ele>
        <time>2021-08-04T10:07:17.903Z</time>
      </trkpt>
      <trkpt lat="46.9725" lon="8.76677">
        <ele>620</ele>
        <time>2021-08-04T10:07:18.902Z</time>
      </trkpt>
      <trkpt lat="46.97248" lon="8.76675">
        <ele>620</ele>
        <time>2021-08-04T10:07:19.903Z</time>
      </trkpt>
      <trkpt lat="46.97247" lon="8.76674">
        <ele>620</ele>
        <time>2021-08-04T10:07:20.903Z</time>
      </trkpt>
      <trkpt lat="46.97245" lon="8.76673">
        <ele>621</ele>
        <time>2021-08-04T10:07:21.903Z</time>
      </trkpt>
      <trkpt lat="46.97244" lon="8.76673">
        <ele>621</ele>
        <time>2021-08-04T10:07:22.903Z</time>
      </trkpt>
      <trkpt lat="46.97242" lon="8.76672">
        <ele>621</ele>
        <time>2021-08-04T10:07:23.903Z</time>
      </trkpt>
      <trkpt lat="46.97241" lon="8.76671">
        <ele>621</ele>
        <time>2021-08-04T10:07:24.902Z</time>
      </trkpt>
      <trkpt lat="46.97239" lon="8.7667">
        <ele>621</ele>
        <time>2021-08-04T10:07:25.902Z</time>
      </trkpt>
      <trkpt lat="46.97238" lon="8.76669">
        <ele>621</ele>
        <time>2021-08-04T10:07:26.903Z</time>
      </trkpt>
      <trkpt lat="46.97236" lon="8.76667">
        <ele>621</ele>
        <time>2021-08-04T10:07:27.903Z</time>
      </trkpt>
      <trkpt lat="46.97234" lon="8.76666">
        <ele>621</ele>
        <time>2021-08-04T10:07:28.903Z</time>
      </trkpt>
      <trkpt lat="46.97233" lon="8.76665">
        <ele>621</ele>
        <time>2021-08-04T10:07:29.902Z</time>
      </trkpt>
      <trkpt lat="46.97232" lon="8.76664">
        <ele>622</ele>
        <time>2021-08-04T10:07:30.903Z</time>
      </trkpt>
      <trkpt lat="46.97232" lon="8.76663">
        <ele>622</ele>
        <time>2021-08-04T10:07:31.903Z</time>
      </trkpt>
      <trkpt lat="46.97232" lon="8.76663">
        <ele>623</ele>
        <time>2021-08-04T10:07:32.903Z</time>
      </trkpt>
      <trkpt lat="46.97232" lon="8.76662">
        <ele>623</ele>
        <time>2021-08-04T10:07:33.903Z</time>
      </trkpt>
      <trkpt lat="46.97232" lon="8.76661">
        <ele>624</ele>
        <time>2021-08-04T10:07:34.903Z</time>
      </trkpt>
      <trkpt lat="46.97233" lon="8.76659">
        <ele>625</ele>
        <time>2021-08-04T10:07:35.903Z</time>
      </trkpt>
      <trkpt lat="46.97234" lon="8.76658">
        <ele>626</ele>
        <time>2021-08-04T10:07:36.903Z</time>
      </trkpt>
      <trkpt lat="46.97234" lon="8.76657">
        <ele>627</ele>
        <time>2021-08-04T10:07:37.902Z</time>
      </trkpt>
      <trkpt lat="46.97235" lon="8.76657">
        <ele>627</ele>
        <time>2021-08-04T10:07:38.903Z</time>
      </trkpt>
      <trkpt lat="46.97236" lon="8.76657">
        <ele>628</ele>
        <time>2021-08-04T10:07:39.903Z</time>
      </trkpt>
      <trkpt lat="46.97237" lon="8.76657">
        <ele>629</ele>
        <time>2021-08-04T10:07:40.903Z</time>
      </trkpt>
      <trkpt lat="46.97239" lon="8.76658">
        <ele>629</ele>
        <time>2021-08-04T10:07:41.902Z</time>
      </trkpt>
      <trkpt lat="46.9724" lon="8.76658">
        <ele>630</ele>
        <time>2021-08-04T10:07:42.902Z</time>
      </trkpt>
      <trkpt lat="46.97242" lon="8.76658">
        <ele>631</ele>
        <time>2021-08-04T10:07:43.903Z</time>
      </trkpt>
      <trkpt lat="46.97243" lon="8.76659">
        <ele>632</ele>
        <time>2021-08-04T10:07:44.902Z</time>
      </trkpt>
      <trkpt lat="46.97244" lon="8.76658">
        <ele>633</ele>
        <time>2021-08-04T10:07:45.903Z</time>
      </trkpt>
      <trkpt lat="46.97246" lon="8.76658">
        <ele>634</ele>
        <time>2021-08-04T10:07:46.903Z</time>
      </trkpt>
      <trkpt lat="46.97247" lon="8.76658">
        <ele>635</ele>
        <time>2021-08-04T10:07:47.902Z</time>
      </trkpt>
      <trkpt lat="46.97249" lon="8.76658">
        <ele>636</ele>
        <time>2021-08-04T10:07:48.903Z</time>
      </trkpt>
      <trkpt lat="46.97251" lon="8.76657">
        <ele>637</ele>
        <time>2021-08-04T10:07:49.903Z</time>
      </trkpt>
      <trkpt lat="46.97252" lon="8.76656">
        <ele>637</ele>
        <time>2021-08-04T10:07:50.903Z</time>
      </trkpt>
      <trkpt lat="46.97252" lon="8.76655">
        <ele>638</ele>
        <time>2021-08-04T10:07:51.902Z</time>
      </trkpt>
      <trkpt lat="46.97253" lon="8.76652">
        <ele>639</ele>
        <time>2021-08-04T10:07:52.902Z</time>
      </trkpt>
      <trkpt lat="46.97254" lon="8.7665">
        <ele>639</ele>
        <time>2021-08-04T10:07:53.903Z</time>
      </trkpt>
      <trkpt lat="46.97255" lon="8.76649">
        <ele>640</ele>
        <time>2021-08-04T10:07:54.903Z</time>
      </trkpt>
      <trkpt lat="46.97256" lon="8.76648">
        <ele>640</ele>
        <time>2021-08-04T10:07:55.902Z</time>
      </trkpt>
      <trkpt lat="46.97257" lon="8.76648">
        <ele>641</ele>
        <time>2021-08-04T10:07:56.903Z</time>
      </trkpt>
      <trkpt lat="46.97257" lon="8.76647">
        <ele>641</ele>
        <time>2021-08-04T10:07:57.903Z</time>
      </trkpt>
      <trkpt lat="46.97258" lon="8.76647">
        <ele>641</ele>
        <time>2021-08-04T10:07:58.903Z</time>
      </trkpt>
      <trkpt lat="46.97259" lon="8.76647">
        <ele>641</ele>
        <time>2021-08-04T10:07:59.903Z</time>
      </trkpt>
      <trkpt lat="46.9726" lon="8.76648">
        <ele>641</ele>
        <time>2021-08-04T10:08:00.902Z</time>
      </trkpt>
      <trkpt lat="46.9726" lon="8.76648">
        <ele>641</ele>
        <time>2021-08-04T10:08:01.903Z</time>
      </trkpt>
      <trkpt lat="46.9726" lon="8.76648">
        <ele>642</ele>
        <time>2021-08-04T10:08:02.903Z</time>
      </trkpt>
      <trkpt lat="46.97259" lon="8.76649">
        <ele>642</ele>
        <time>2021-08-04T10:08:03.779Z</time>
      </trkpt>
      <trkpt lat="46.97259" lon="8.76649">
        <ele>642</ele>
        <time>2021-08-04T10:08:04.779Z</time>
      </trkpt>
      <trkpt lat="46.9726" lon="8.7665">
        <ele>642</ele>
        <time>2021-08-04T10:08:05.904Z</time>
      </trkpt>
      <trkpt lat="46.97261" lon="8.76649">
        <ele>642</ele>
        <time>2021-08-04T10:08:06.779Z</time>
      </trkpt>
      <trkpt lat="46.97261" lon="8.76649">
        <ele>642</ele>
        <time>2021-08-04T10:08:07.779Z</time>
      </trkpt>
      <trkpt lat="46.97262" lon="8.76649">
        <ele>642</ele>
        <time>2021-08-04T10:08:08.903Z</time>
      </trkpt>
      <trkpt lat="46.97262" lon="8.76649">
        <ele>642</ele>
        <time>2021-08-04T10:08:09.779Z</time>
      </trkpt>
      <trkpt lat="46.97261" lon="8.76648">
        <ele>642</ele>
        <time>2021-08-04T10:08:10.904Z</time>
      </trkpt>
      <trkpt lat="46.97261" lon="8.76647">
        <ele>642</ele>
        <time>2021-08-04T10:08:11.779Z</time>
      </trkpt>
      <trkpt lat="46.97261" lon="8.76645">
        <ele>642</ele>
        <time>2021-08-04T10:08:12.779Z</time>
      </trkpt>
      <trkpt lat="46.97261" lon="8.76645">
        <ele>642</ele>
        <time>2021-08-04T10:08:13.779Z</time>
      </trkpt>
      <trkpt lat="46.97261" lon="8.76646">
        <ele>642</ele>
        <time>2021-08-04T10:08:14.779Z</time>
      </trkpt>
      <trkpt lat="46.97262" lon="8.76646">
        <ele>642</ele>
        <time>2021-08-04T10:08:15.904Z</time>
      </trkpt>
      <trkpt lat="46.97261" lon="8.76646">
        <ele>642</ele>
        <time>2021-08-04T10:08:16.903Z</time>
      </trkpt>
      <trkpt lat="46.97263" lon="8.76646">
        <ele>642</ele>
        <time>2021-08-04T10:08:17.779Z</time>
      </trkpt>
      <trkpt lat="46.97264" lon="8.76646">
        <ele>642</ele>
        <time>2021-08-04T10:08:18.779Z</time>
      </trkpt>
      <trkpt lat="46.97266" lon="8.76646">
        <ele>643</ele>
        <time>2021-08-04T10:08:19.779Z</time>
      </trkpt>
      <trkpt lat="46.97267" lon="8.76645">
        <ele>643</ele>
        <time>2021-08-04T10:08:20.779Z</time>
      </trkpt>
      <trkpt lat="46.97268" lon="8.76644">
        <ele>644</ele>
        <time>2021-08-04T10:08:21.904Z</time>
      </trkpt>
      <trkpt lat="46.97269" lon="8.76643">
        <ele>645</ele>
        <time>2021-08-04T10:08:22.904Z</time>
      </trkpt>
      <trkpt lat="46.97271" lon="8.76642">
        <ele>649</ele>
        <time>2021-08-04T10:08:23.903Z</time>
      </trkpt>
      <trkpt lat="46.97269" lon="8.7664">
        <ele>650</ele>
        <time>2021-08-04T10:08:24.779Z</time>
      </trkpt>
      <trkpt lat="46.97268" lon="8.76639">
        <ele>651</ele>
        <time>2021-08-04T10:08:25.779Z</time>
      </trkpt>
      <trkpt lat="46.97266" lon="8.76638">
        <ele>652</ele>
        <time>2021-08-04T10:08:26.779Z</time>
      </trkpt>
      <trkpt lat="46.97267" lon="8.76638">
        <ele>655</ele>
        <time>2021-08-04T10:08:27.781Z</time>
      </trkpt>
      <trkpt lat="46.97268" lon="8.76638">
        <ele>655</ele>
        <time>2021-08-04T10:08:28.780Z</time>
      </trkpt>
      <trkpt lat="46.97267" lon="8.76638">
        <ele>656</ele>
        <time>2021-08-04T10:08:29.780Z</time>
      </trkpt>
      <trkpt lat="46.97266" lon="8.76636">
        <ele>657</ele>
        <time>2021-08-04T10:08:30.782Z</time>
      </trkpt>
      <trkpt lat="46.97266" lon="8.76636">
        <ele>658</ele>
        <time>2021-08-04T10:08:31.782Z</time>
      </trkpt>
      <trkpt lat="46.97266" lon="8.76636">
        <ele>658</ele>
        <time>2021-08-04T10:08:32.782Z</time>
      </trkpt>
      <trkpt lat="46.97267" lon="8.76636">
        <ele>658</ele>
        <time>2021-08-04T10:08:33.782Z</time>
      </trkpt>
      <trkpt lat="46.97269" lon="8.76636">
        <ele>658</ele>
        <time>2021-08-04T10:08:34.782Z</time>
      </trkpt>
      <trkpt lat="46.97272" lon="8.76638">
        <ele>657</ele>
        <time>2021-08-04T10:08:35.782Z</time>
      </trkpt>
      <trkpt lat="46.97273" lon="8.7664">
        <ele>656</ele>
        <time>2021-08-04T10:08:36.782Z</time>
      </trkpt>
      <trkpt lat="46.97274" lon="8.7664">
        <ele>655</ele>
        <time>2021-08-04T10:08:37.782Z</time>
      </trkpt>
      <trkpt lat="46.97275" lon="8.7664">
        <ele>653</ele>
        <time>2021-08-04T10:08:38.782Z</time>
      </trkpt>
      <trkpt lat="46.97276" lon="8.7664">
        <ele>651</ele>
        <time>2021-08-04T10:08:39.782Z</time>
      </trkpt>
      <trkpt lat="46.97277" lon="8.76639">
        <ele>649</ele>
        <time>2021-08-04T10:08:40.782Z</time>
      </trkpt>
      <trkpt lat="46.97278" lon="8.76639">
        <ele>647</ele>
        <time>2021-08-04T10:08:41.782Z</time>
      </trkpt>
      <trkpt lat="46.97279" lon="8.76639">
        <ele>645</ele>
        <time>2021-08-04T10:08:42.782Z</time>
      </trkpt>
      <trkpt lat="46.9728" lon="8.76638">
        <ele>644</ele>
        <time>2021-08-04T10:08:43.782Z</time>
      </trkpt>
      <trkpt lat="46.9728" lon="8.76638">
        <ele>642</ele>
        <time>2021-08-04T10:08:44.782Z</time>
      </trkpt>
      <trkpt lat="46.97281" lon="8.76638">
        <ele>640</ele>
        <time>2021-08-04T10:08:45.782Z</time>
      </trkpt>
      <trkpt lat="46.97282" lon="8.76638">
        <ele>639</ele>
        <time>2021-08-04T10:08:46.782Z</time>
      </trkpt>
      <trkpt lat="46.97283" lon="8.76638">
        <ele>638</ele>
        <time>2021-08-04T10:08:47.782Z</time>
      </trkpt>
      <trkpt lat="46.97284" lon="8.76637">
        <ele>636</ele>
        <time>2021-08-04T10:08:48.782Z</time>
      </trkpt>
      <trkpt lat="46.97286" lon="8.76638">
        <ele>635</ele>
        <time>2021-08-04T10:08:49.782Z</time>
      </trkpt>
      <trkpt lat="46.97287" lon="8.76639">
        <ele>634</ele>
        <time>2021-08-04T10:08:50.782Z</time>
      </trkpt>
      <trkpt lat="46.97288" lon="8.7664">
        <ele>634</ele>
        <time>2021-08-04T10:08:51.782Z</time>
      </trkpt>
      <trkpt lat="46.97289" lon="8.7664">
        <ele>633</ele>
        <time>2021-08-04T10:08:52.782Z</time>
      </trkpt>
      <trkpt lat="46.9729" lon="8.7664">
        <ele>633</ele>
        <time>2021-08-04T10:08:53.782Z</time>
      </trkpt>
      <trkpt lat="46.97291" lon="8.7664">
        <ele>632</ele>
        <time>2021-08-04T10:08:54.782Z</time>
      </trkpt>
      <trkpt lat="46.97292" lon="8.76639">
        <ele>631</ele>
        <time>2021-08-04T10:08:55.782Z</time>
      </trkpt>
      <trkpt lat="46.97293" lon="8.76639">
        <ele>630</ele>
        <time>2021-08-04T10:08:56.782Z</time>
      </trkpt>
      <trkpt lat="46.97293" lon="8.76639">
        <ele>630</ele>
        <time>2021-08-04T10:08:57.782Z</time>
      </trkpt>
      <trkpt lat="46.97294" lon="8.76638">
        <ele>629</ele>
        <time>2021-08-04T10:08:58.782Z</time>
      </trkpt>
      <trkpt lat="46.97295" lon="8.76638">
        <ele>628</ele>
        <time>2021-08-04T10:08:59.782Z</time>
      </trkpt>
      <trkpt lat="46.97296" lon="8.76638">
        <ele>627</ele>
        <time>2021-08-04T10:09:00.782Z</time>
      </trkpt>
      <trkpt lat="46.97296" lon="8.76638">
        <ele>626</ele>
        <time>2021-08-04T10:09:01.782Z</time>
      </trkpt>
      <trkpt lat="46.97296" lon="8.76637">
        <ele>626</ele>
        <time>2021-08-04T10:09:02.782Z</time>
      </trkpt>
      <trkpt lat="46.97297" lon="8.76636">
        <ele>625</ele>
        <time>2021-08-04T10:09:03.782Z</time>
      </trkpt>
      <trkpt lat="46.97297" lon="8.76636">
        <ele>625</ele>
        <time>2021-08-04T10:09:04.782Z</time>
      </trkpt>
      <trkpt lat="46.97298" lon="8.76635">
        <ele>624</ele>
        <time>2021-08-04T10:09:05.782Z</time>
      </trkpt>
      <trkpt lat="46.97298" lon="8.76634">
        <ele>624</ele>
        <time>2021-08-04T10:09:06.782Z</time>
      </trkpt>
      <trkpt lat="46.97298" lon="8.76633">
        <ele>623</ele>
        <time>2021-08-04T10:09:07.782Z</time>
      </trkpt>
      <trkpt lat="46.97298" lon="8.76632">
        <ele>623</ele>
        <time>2021-08-04T10:09:08.782Z</time>
      </trkpt>
      <trkpt lat="46.97299" lon="8.7663">
        <ele>623</ele>
        <time>2021-08-04T10:09:09.782Z</time>
      </trkpt>
      <trkpt lat="46.97299" lon="8.76629">
        <ele>623</ele>
        <time>2021-08-04T10:09:10.782Z</time>
      </trkpt>
      <trkpt lat="46.97299" lon="8.76627">
        <ele>623</ele>
        <time>2021-08-04T10:09:11.782Z</time>
      </trkpt>
      <trkpt lat="46.973" lon="8.76625">
        <ele>623</ele>
        <time>2021-08-04T10:09:12.782Z</time>
      </trkpt>
      <trkpt lat="46.973" lon="8.76624">
        <ele>623</ele>
        <time>2021-08-04T10:09:13.782Z</time>
      </trkpt>
      <trkpt lat="46.973" lon="8.76623">
        <ele>623</ele>
        <time>2021-08-04T10:09:14.782Z</time>
      </trkpt>
      <trkpt lat="46.973" lon="8.76622">
        <ele>623</ele>
        <time>2021-08-04T10:09:15.782Z</time>
      </trkpt>
      <trkpt lat="46.97301" lon="8.76621">
        <ele>623</ele>
        <time>2021-08-04T10:09:16.782Z</time>
      </trkpt>
      <trkpt lat="46.97302" lon="8.76619">
        <ele>622</ele>
        <time>2021-08-04T10:09:17.782Z</time>
      </trkpt>
      <trkpt lat="46.97303" lon="8.76618">
        <ele>622</ele>
        <time>2021-08-04T10:09:18.782Z</time>
      </trkpt>
      <trkpt lat="46.97304" lon="8.76616">
        <ele>622</ele>
        <time>2021-08-04T10:09:19.782Z</time>
      </trkpt>
      <trkpt lat="46.97305" lon="8.76615">
        <ele>621</ele>
        <time>2021-08-04T10:09:20.782Z</time>
      </trkpt>
      <trkpt lat="46.97305" lon="8.76614">
        <ele>621</ele>
        <time>2021-08-04T10:09:21.782Z</time>
      </trkpt>
      <trkpt lat="46.97305" lon="8.76613">
        <ele>621</ele>
        <time>2021-08-04T10:09:22.782Z</time>
      </trkpt>
      <trkpt lat="46.97306" lon="8.76611">
        <ele>621</ele>
        <time>2021-08-04T10:09:23.782Z</time>
      </trkpt>
      <trkpt lat="46.97306" lon="8.7661">
        <ele>620</ele>
        <time>2021-08-04T10:09:24.782Z</time>
      </trkpt>
      <trkpt lat="46.97307" lon="8.76608">
        <ele>620</ele>
        <time>2021-08-04T10:09:25.782Z</time>
      </trkpt>
      <trkpt lat="46.97308" lon="8.76607">
        <ele>620</ele>
        <time>2021-08-04T10:09:26.782Z</time>
      </trkpt>
      <trkpt lat="46.97309" lon="8.76605">
        <ele>620</ele>
        <time>2021-08-04T10:09:27.782Z</time>
      </trkpt>
      <trkpt lat="46.97309" lon="8.76603">
        <ele>620</ele>
        <time>2021-08-04T10:09:28.782Z</time>
      </trkpt>
      <trkpt lat="46.9731" lon="8.76601">
        <ele>620</ele>
        <time>2021-08-04T10:09:29.782Z</time>
      </trkpt>
      <trkpt lat="46.9731" lon="8.766">
        <ele>620</ele>
        <time>2021-08-04T10:09:30.782Z</time>
      </trkpt>
      <trkpt lat="46.97311" lon="8.76598">
        <ele>620</ele>
        <time>2021-08-04T10:09:31.782Z</time>
      </trkpt>
      <trkpt lat="46.97311" lon="8.76597">
        <ele>619</ele>
        <time>2021-08-04T10:09:32.782Z</time>
      </trkpt>
      <trkpt lat="46.97311" lon="8.76595">
        <ele>619</ele>
        <time>2021-08-04T10:09:33.782Z</time>
      </trkpt>
      <trkpt lat="46.97312" lon="8.76593">
        <ele>619</ele>
        <time>2021-08-04T10:09:34.782Z</time>
      </trkpt>
      <trkpt lat="46.97312" lon="8.76592">
        <ele>619</ele>
        <time>2021-08-04T10:09:35.782Z</time>
      </trkpt>
      <trkpt lat="46.97313" lon="8.7659">
        <ele>619</ele>
        <time>2021-08-04T10:09:36.782Z</time>
      </trkpt>
      <trkpt lat="46.97313" lon="8.76589">
        <ele>619</ele>
        <time>2021-08-04T10:09:37.782Z</time>
      </trkpt>
      <trkpt lat="46.97314" lon="8.76587">
        <ele>619</ele>
        <time>2021-08-04T10:09:38.782Z</time>
      </trkpt>
      <trkpt lat="46.97314" lon="8.76585">
        <ele>618</ele>
        <time>2021-08-04T10:09:39.782Z</time>
      </trkpt>
      <trkpt lat="46.97315" lon="8.76583">
        <ele>619</ele>
        <time>2021-08-04T10:09:40.782Z</time>
      </trkpt>
      <trkpt lat="46.97316" lon="8.76581">
        <ele>619</ele>
        <time>2021-08-04T10:09:41.782Z</time>
      </trkpt>
      <trkpt lat="46.97316" lon="8.7658">
        <ele>619</ele>
        <time>2021-08-04T10:09:42.782Z</time>
      </trkpt>
      <trkpt lat="46.97317" lon="8.76578">
        <ele>619</ele>
        <time>2021-08-04T10:09:43.782Z</time>
      </trkpt>
      <trkpt lat="46.97317" lon="8.76577">
        <ele>620</ele>
        <time>2021-08-04T10:09:44.782Z</time>
      </trkpt>
      <trkpt lat="46.97318" lon="8.76575">
        <ele>620</ele>
        <time>2021-08-04T10:09:45.782Z</time>
      </trkpt>
      <trkpt lat="46.97318" lon="8.76573">
        <ele>620</ele>
        <time>2021-08-04T10:09:46.782Z</time>
      </trkpt>
      <trkpt lat="46.97319" lon="8.76571">
        <ele>621</ele>
        <time>2021-08-04T10:09:47.782Z</time>
      </trkpt>
      <trkpt lat="46.97319" lon="8.7657">
        <ele>621</ele>
        <time>2021-08-04T10:09:48.782Z</time>
      </trkpt>
      <trkpt lat="46.9732" lon="8.76568">
        <ele>621</ele>
        <time>2021-08-04T10:09:49.782Z</time>
      </trkpt>
      <trkpt lat="46.9732" lon="8.76566">
        <ele>621</ele>
        <time>2021-08-04T10:09:50.782Z</time>
      </trkpt>
      <trkpt lat="46.97321" lon="8.76565">
        <ele>621</ele>
        <time>2021-08-04T10:09:51.782Z</time>
      </trkpt>
      <trkpt lat="46.97322" lon="8.76563">
        <ele>621</ele>
        <time>2021-08-04T10:09:52.782Z</time>
      </trkpt>
      <trkpt lat="46.97322" lon="8.76561">
        <ele>621</ele>
        <time>2021-08-04T10:09:53.782Z</time>
      </trkpt>
      <trkpt lat="46.97322" lon="8.76559">
        <ele>620</ele>
        <time>2021-08-04T10:09:54.782Z</time>
      </trkpt>
      <trkpt lat="46.97323" lon="8.76557">
        <ele>620</ele>
        <time>2021-08-04T10:09:55.782Z</time>
      </trkpt>
      <trkpt lat="46.97323" lon="8.76555">
        <ele>620</ele>
        <time>2021-08-04T10:09:56.782Z</time>
      </trkpt>
      <trkpt lat="46.97323" lon="8.76553">
        <ele>620</ele>
        <time>2021-08-04T10:09:57.782Z</time>
      </trkpt>
      <trkpt lat="46.97324" lon="8.76551">
        <ele>619</ele>
        <time>2021-08-04T10:09:58.782Z</time>
      </trkpt>
      <trkpt lat="46.97325" lon="8.76549">
        <ele>620</ele>
        <time>2021-08-04T10:09:59.782Z</time>
      </trkpt>
      <trkpt lat="46.97325" lon="8.76547">
        <ele>620</ele>
        <time>2021-08-04T10:10:00.782Z</time>
      </trkpt>
      <trkpt lat="46.97326" lon="8.76545">
        <ele>620</ele>
        <time>2021-08-04T10:10:01.782Z</time>
      </trkpt>
      <trkpt lat="46.97327" lon="8.76543">
        <ele>620</ele>
        <time>2021-08-04T10:10:02.782Z</time>
      </trkpt>
      <trkpt lat="46.97328" lon="8.76541">
        <ele>621</ele>
        <time>2021-08-04T10:10:03.782Z</time>
      </trkpt>
      <trkpt lat="46.97329" lon="8.7654">
        <ele>621</ele>
        <time>2021-08-04T10:10:04.782Z</time>
      </trkpt>
      <trkpt lat="46.97329" lon="8.76538">
        <ele>621</ele>
        <time>2021-08-04T10:10:05.782Z</time>
      </trkpt>
      <trkpt lat="46.9733" lon="8.76537">
        <ele>622</ele>
        <time>2021-08-04T10:10:06.782Z</time>
      </trkpt>
      <trkpt lat="46.9733" lon="8.76536">
        <ele>622</ele>
        <time>2021-08-04T10:10:07.782Z</time>
      </trkpt>
      <trkpt lat="46.97331" lon="8.76534">
        <ele>622</ele>
        <time>2021-08-04T10:10:08.782Z</time>
      </trkpt>
      <trkpt lat="46.97331" lon="8.76532">
        <ele>622</ele>
        <time>2021-08-04T10:10:09.782Z</time>
      </trkpt>
      <trkpt lat="46.97332" lon="8.76531">
        <ele>622</ele>
        <time>2021-08-04T10:10:10.782Z</time>
      </trkpt>
      <trkpt lat="46.97332" lon="8.76529">
        <ele>622</ele>
        <time>2021-08-04T10:10:11.782Z</time>
      </trkpt>
      <trkpt lat="46.97332" lon="8.76528">
        <ele>622</ele>
        <time>2021-08-04T10:10:12.782Z</time>
      </trkpt>
      <trkpt lat="46.97332" lon="8.76527">
        <ele>622</ele>
        <time>2021-08-04T10:10:13.782Z</time>
      </trkpt>
      <trkpt lat="46.97333" lon="8.76525">
        <ele>622</ele>
        <time>2021-08-04T10:10:14.782Z</time>
      </trkpt>
      <trkpt lat="46.97333" lon="8.76523">
        <ele>622</ele>
        <time>2021-08-04T10:10:15.782Z</time>
      </trkpt>
      <trkpt lat="46.97333" lon="8.76521">
        <ele>622</ele>
        <time>2021-08-04T10:10:16.782Z</time>
      </trkpt>
      <trkpt lat="46.97334" lon="8.76519">
        <ele>622</ele>
        <time>2021-08-04T10:10:17.782Z</time>
      </trkpt>
      <trkpt lat="46.97334" lon="8.76518">
        <ele>622</ele>
        <time>2021-08-04T10:10:18.782Z</time>
      </trkpt>
      <trkpt lat="46.97334" lon="8.76516">
        <ele>622</ele>
        <time>2021-08-04T10:10:19.782Z</time>
      </trkpt>
      <trkpt lat="46.97334" lon="8.76515">
        <ele>621</ele>
        <time>2021-08-04T10:10:20.782Z</time>
      </trkpt>
      <trkpt lat="46.97335" lon="8.76513">
        <ele>621</ele>
        <time>2021-08-04T10:10:21.782Z</time>
      </trkpt>
      <trkpt lat="46.97336" lon="8.76511">
        <ele>620</ele>
        <time>2021-08-04T10:10:22.782Z</time>
      </trkpt>
      <trkpt lat="46.97336" lon="8.7651">
        <ele>620</ele>
        <time>2021-08-04T10:10:23.782Z</time>
      </trkpt>
      <trkpt lat="46.97337" lon="8.76507">
        <ele>619</ele>
        <time>2021-08-04T10:10:24.782Z</time>
      </trkpt>
      <trkpt lat="46.97337" lon="8.76506">
        <ele>618</ele>
        <time>2021-08-04T10:10:25.782Z</time>
      </trkpt>
      <trkpt lat="46.97337" lon="8.76505">
        <ele>618</ele>
        <time>2021-08-04T10:10:26.782Z</time>
      </trkpt>
      <trkpt lat="46.97337" lon="8.76503">
        <ele>617</ele>
        <time>2021-08-04T10:10:27.782Z</time>
      </trkpt>
      <trkpt lat="46.97337" lon="8.76501">
        <ele>617</ele>
        <time>2021-08-04T10:10:28.782Z</time>
      </trkpt>
      <trkpt lat="46.97338" lon="8.765">
        <ele>616</ele>
        <time>2021-08-04T10:10:29.782Z</time>
      </trkpt>
      <trkpt lat="46.97339" lon="8.76498">
        <ele>616</ele>
        <time>2021-08-04T10:10:30.782Z</time>
      </trkpt>
      <trkpt lat="46.97339" lon="8.76496">
        <ele>615</ele>
        <time>2021-08-04T10:10:31.782Z</time>
      </trkpt>
      <trkpt lat="46.9734" lon="8.76495">
        <ele>615</ele>
        <time>2021-08-04T10:10:32.782Z</time>
      </trkpt>
      <trkpt lat="46.9734" lon="8.76493">
        <ele>614</ele>
        <time>2021-08-04T10:10:33.782Z</time>
      </trkpt>
      <trkpt lat="46.97341" lon="8.76491">
        <ele>614</ele>
        <time>2021-08-04T10:10:34.782Z</time>
      </trkpt>
      <trkpt lat="46.97341" lon="8.7649">
        <ele>614</ele>
        <time>2021-08-04T10:10:35.782Z</time>
      </trkpt>
      <trkpt lat="46.97342" lon="8.76488">
        <ele>614</ele>
        <time>2021-08-04T10:10:36.782Z</time>
      </trkpt>
      <trkpt lat="46.97342" lon="8.76486">
        <ele>613</ele>
        <time>2021-08-04T10:10:37.782Z</time>
      </trkpt>
      <trkpt lat="46.97343" lon="8.76485">
        <ele>613</ele>
        <time>2021-08-04T10:10:38.782Z</time>
      </trkpt>
      <trkpt lat="46.97343" lon="8.76483">
        <ele>614</ele>
        <time>2021-08-04T10:10:39.782Z</time>
      </trkpt>
      <trkpt lat="46.97343" lon="8.76482">
        <ele>614</ele>
        <time>2021-08-04T10:10:40.782Z</time>
      </trkpt>
      <trkpt lat="46.97344" lon="8.76481">
        <ele>614</ele>
        <time>2021-08-04T10:10:41.782Z</time>
      </trkpt>
      <trkpt lat="46.97344" lon="8.76479">
        <ele>615</ele>
        <time>2021-08-04T10:10:42.782Z</time>
      </trkpt>
      <trkpt lat="46.97344" lon="8.76477">
        <ele>615</ele>
        <time>2021-08-04T10:10:43.782Z</time>
      </trkpt>
      <trkpt lat="46.97344" lon="8.76476">
        <ele>615</ele>
        <time>2021-08-04T10:10:44.782Z</time>
      </trkpt>
      <trkpt lat="46.97345" lon="8.76474">
        <ele>615</ele>
        <time>2021-08-04T10:10:45.782Z</time>
      </trkpt>
      <trkpt lat="46.97345" lon="8.76472">
        <ele>616</ele>
        <time>2021-08-04T10:10:46.782Z</time>
      </trkpt>
      <trkpt lat="46.97346" lon="8.76471">
        <ele>616</ele>
        <time>2021-08-04T10:10:47.782Z</time>
      </trkpt>
      <trkpt lat="46.97346" lon="8.7647">
        <ele>616</ele>
        <time>2021-08-04T10:10:48.782Z</time>
      </trkpt>
      <trkpt lat="46.97346" lon="8.76469">
        <ele>616</ele>
        <time>2021-08-04T10:10:49.782Z</time>
      </trkpt>
      <trkpt lat="46.97345" lon="8.76469">
        <ele>616</ele>
        <time>2021-08-04T10:10:50.782Z</time>
      </trkpt>
      <trkpt lat="46.97345" lon="8.76468">
        <ele>616</ele>
        <time>2021-08-04T10:10:51.782Z</time>
      </trkpt>
      <trkpt lat="46.97342" lon="8.76465">
        <ele>617</ele>
        <time>2021-08-04T10:10:52.784Z</time>
      </trkpt>
      <trkpt lat="46.97342" lon="8.76465">
        <ele>617</ele>
        <time>2021-08-04T10:10:53.784Z</time>
      </trkpt>
      <trkpt lat="46.97341" lon="8.76465">
        <ele>617</ele>
        <time>2021-08-04T10:10:54.783Z</time>
      </trkpt>
      <trkpt lat="46.97341" lon="8.76464">
        <ele>617</ele>
        <time>2021-08-04T10:10:55.783Z</time>
      </trkpt>
      <trkpt lat="46.97341" lon="8.76463">
        <ele>617</ele>
        <time>2021-08-04T10:10:56.784Z</time>
      </trkpt>
      <trkpt lat="46.97342" lon="8.76463">
        <ele>618</ele>
        <time>2021-08-04T10:10:57.784Z</time>
      </trkpt>
      <trkpt lat="46.97342" lon="8.76462">
        <ele>618</ele>
        <time>2021-08-04T10:10:58.784Z</time>
      </trkpt>
      <trkpt lat="46.97343" lon="8.76462">
        <ele>619</ele>
        <time>2021-08-04T10:10:59.784Z</time>
      </trkpt>
      <trkpt lat="46.97344" lon="8.76461">
        <ele>620</ele>
        <time>2021-08-04T10:11:00.783Z</time>
      </trkpt>
      <trkpt lat="46.97345" lon="8.7646">
        <ele>621</ele>
        <time>2021-08-04T10:11:01.784Z</time>
      </trkpt>
      <trkpt lat="46.97345" lon="8.76459">
        <ele>621</ele>
        <time>2021-08-04T10:11:02.783Z</time>
      </trkpt>
      <trkpt lat="46.97345" lon="8.76458">
        <ele>621</ele>
        <time>2021-08-04T10:11:03.784Z</time>
      </trkpt>
      <trkpt lat="46.97345" lon="8.76457">
        <ele>621</ele>
        <time>2021-08-04T10:11:04.783Z</time>
      </trkpt>
      <trkpt lat="46.97346" lon="8.76456">
        <ele>622</ele>
        <time>2021-08-04T10:11:05.784Z</time>
      </trkpt>
      <trkpt lat="46.97347" lon="8.76454">
        <ele>622</ele>
        <time>2021-08-04T10:11:06.783Z</time>
      </trkpt>
      <trkpt lat="46.97347" lon="8.76453">
        <ele>622</ele>
        <time>2021-08-04T10:11:07.784Z</time>
      </trkpt>
      <trkpt lat="46.97348" lon="8.76452">
        <ele>622</ele>
        <time>2021-08-04T10:11:08.784Z</time>
      </trkpt>
      <trkpt lat="46.97348" lon="8.7645">
        <ele>622</ele>
        <time>2021-08-04T10:11:09.784Z</time>
      </trkpt>
      <trkpt lat="46.97349" lon="8.76449">
        <ele>621</ele>
        <time>2021-08-04T10:11:10.783Z</time>
      </trkpt>
      <trkpt lat="46.9735" lon="8.76448">
        <ele>621</ele>
        <time>2021-08-04T10:11:11.784Z</time>
      </trkpt>
      <trkpt lat="46.97351" lon="8.76446">
        <ele>621</ele>
        <time>2021-08-04T10:11:12.783Z</time>
      </trkpt>
      <trkpt lat="46.97351" lon="8.76445">
        <ele>621</ele>
        <time>2021-08-04T10:11:13.784Z</time>
      </trkpt>
      <trkpt lat="46.97352" lon="8.76443">
        <ele>621</ele>
        <time>2021-08-04T10:11:14.784Z</time>
      </trkpt>
      <trkpt lat="46.97353" lon="8.76442">
        <ele>621</ele>
        <time>2021-08-04T10:11:15.784Z</time>
      </trkpt>
      <trkpt lat="46.97354" lon="8.7644">
        <ele>621</ele>
        <time>2021-08-04T10:11:16.784Z</time>
      </trkpt>
      <trkpt lat="46.97355" lon="8.76439">
        <ele>621</ele>
        <time>2021-08-04T10:11:17.783Z</time>
      </trkpt>
      <trkpt lat="46.97355" lon="8.76437">
        <ele>621</ele>
        <time>2021-08-04T10:11:18.784Z</time>
      </trkpt>
      <trkpt lat="46.97356" lon="8.76435">
        <ele>622</ele>
        <time>2021-08-04T10:11:19.784Z</time>
      </trkpt>
      <trkpt lat="46.97356" lon="8.76434">
        <ele>623</ele>
        <time>2021-08-04T10:11:20.784Z</time>
      </trkpt>
      <trkpt lat="46.97356" lon="8.76432">
        <ele>623</ele>
        <time>2021-08-04T10:11:21.784Z</time>
      </trkpt>
      <trkpt lat="46.97356" lon="8.76431">
        <ele>623</ele>
        <time>2021-08-04T10:11:22.784Z</time>
      </trkpt>
      <trkpt lat="46.97357" lon="8.76429">
        <ele>623</ele>
        <time>2021-08-04T10:11:23.783Z</time>
      </trkpt>
      <trkpt lat="46.97358" lon="8.76428">
        <ele>623</ele>
        <time>2021-08-04T10:11:24.784Z</time>
      </trkpt>
      <trkpt lat="46.97358" lon="8.76426">
        <ele>623</ele>
        <time>2021-08-04T10:11:25.784Z</time>
      </trkpt>
      <trkpt lat="46.97359" lon="8.76424">
        <ele>623</ele>
        <time>2021-08-04T10:11:26.784Z</time>
      </trkpt>
      <trkpt lat="46.9736" lon="8.76422">
        <ele>624</ele>
        <time>2021-08-04T10:11:27.784Z</time>
      </trkpt>
      <trkpt lat="46.9736" lon="8.76421">
        <ele>624</ele>
        <time>2021-08-04T10:11:28.784Z</time>
      </trkpt>
      <trkpt lat="46.97361" lon="8.76419">
        <ele>624</ele>
        <time>2021-08-04T10:11:29.783Z</time>
      </trkpt>
      <trkpt lat="46.97361" lon="8.76418">
        <ele>623</ele>
        <time>2021-08-04T10:11:30.784Z</time>
      </trkpt>
      <trkpt lat="46.97361" lon="8.76416">
        <ele>623</ele>
        <time>2021-08-04T10:11:31.783Z</time>
      </trkpt>
      <trkpt lat="46.97362" lon="8.76415">
        <ele>623</ele>
        <time>2021-08-04T10:11:32.784Z</time>
      </trkpt>
      <trkpt lat="46.97362" lon="8.76413">
        <ele>623</ele>
        <time>2021-08-04T10:11:33.783Z</time>
      </trkpt>
      <trkpt lat="46.97363" lon="8.76412">
        <ele>622</ele>
        <time>2021-08-04T10:11:34.784Z</time>
      </trkpt>
      <trkpt lat="46.97364" lon="8.76411">
        <ele>622</ele>
        <time>2021-08-04T10:11:35.783Z</time>
      </trkpt>
      <trkpt lat="46.97364" lon="8.76409">
        <ele>621</ele>
        <time>2021-08-04T10:11:36.784Z</time>
      </trkpt>
      <trkpt lat="46.97364" lon="8.76407">
        <ele>621</ele>
        <time>2021-08-04T10:11:37.783Z</time>
      </trkpt>
      <trkpt lat="46.97364" lon="8.76406">
        <ele>621</ele>
        <time>2021-08-04T10:11:38.783Z</time>
      </trkpt>
      <trkpt lat="46.97365" lon="8.76404">
        <ele>621</ele>
        <time>2021-08-04T10:11:39.784Z</time>
      </trkpt>
      <trkpt lat="46.97365" lon="8.76403">
        <ele>620</ele>
        <time>2021-08-04T10:11:40.784Z</time>
      </trkpt>
      <trkpt lat="46.97366" lon="8.76401">
        <ele>620</ele>
        <time>2021-08-04T10:11:41.784Z</time>
      </trkpt>
      <trkpt lat="46.97367" lon="8.764">
        <ele>620</ele>
        <time>2021-08-04T10:11:42.784Z</time>
      </trkpt>
      <trkpt lat="46.97368" lon="8.76398">
        <ele>620</ele>
        <time>2021-08-04T10:11:43.783Z</time>
      </trkpt>
      <trkpt lat="46.97368" lon="8.76396">
        <ele>619</ele>
        <time>2021-08-04T10:11:44.784Z</time>
      </trkpt>
      <trkpt lat="46.97369" lon="8.76395">
        <ele>619</ele>
        <time>2021-08-04T10:11:45.783Z</time>
      </trkpt>
      <trkpt lat="46.97369" lon="8.76394">
        <ele>619</ele>
        <time>2021-08-04T10:11:46.784Z</time>
      </trkpt>
      <trkpt lat="46.9737" lon="8.76392">
        <ele>619</ele>
        <time>2021-08-04T10:11:47.783Z</time>
      </trkpt>
      <trkpt lat="46.97371" lon="8.7639">
        <ele>618</ele>
        <time>2021-08-04T10:11:48.784Z</time>
      </trkpt>
      <trkpt lat="46.97372" lon="8.76389">
        <ele>618</ele>
        <time>2021-08-04T10:11:49.783Z</time>
      </trkpt>
      <trkpt lat="46.97372" lon="8.76387">
        <ele>618</ele>
        <time>2021-08-04T10:11:50.784Z</time>
      </trkpt>
      <trkpt lat="46.97372" lon="8.76385">
        <ele>618</ele>
        <time>2021-08-04T10:11:51.784Z</time>
      </trkpt>
      <trkpt lat="46.97372" lon="8.76383">
        <ele>617</ele>
        <time>2021-08-04T10:11:52.784Z</time>
      </trkpt>
      <trkpt lat="46.97372" lon="8.76381">
        <ele>617</ele>
        <time>2021-08-04T10:11:53.783Z</time>
      </trkpt>
      <trkpt lat="46.97372" lon="8.76379">
        <ele>617</ele>
        <time>2021-08-04T10:11:54.784Z</time>
      </trkpt>
      <trkpt lat="46.97373" lon="8.76377">
        <ele>616</ele>
        <time>2021-08-04T10:11:55.783Z</time>
      </trkpt>
      <trkpt lat="46.97373" lon="8.76376">
        <ele>616</ele>
        <time>2021-08-04T10:11:56.783Z</time>
      </trkpt>
      <trkpt lat="46.97373" lon="8.76374">
        <ele>616</ele>
        <time>2021-08-04T10:11:57.783Z</time>
      </trkpt>
      <trkpt lat="46.97374" lon="8.76373">
        <ele>616</ele>
        <time>2021-08-04T10:11:58.784Z</time>
      </trkpt>
      <trkpt lat="46.97375" lon="8.76371">
        <ele>616</ele>
        <time>2021-08-04T10:11:59.784Z</time>
      </trkpt>
      <trkpt lat="46.97375" lon="8.76369">
        <ele>616</ele>
        <time>2021-08-04T10:12:00.784Z</time>
      </trkpt>
      <trkpt lat="46.97376" lon="8.76367">
        <ele>616</ele>
        <time>2021-08-04T10:12:01.784Z</time>
      </trkpt>
      <trkpt lat="46.97376" lon="8.76366">
        <ele>616</ele>
        <time>2021-08-04T10:12:02.784Z</time>
      </trkpt>
      <trkpt lat="46.97377" lon="8.76364">
        <ele>616</ele>
        <time>2021-08-04T10:12:03.784Z</time>
      </trkpt>
      <trkpt lat="46.97378" lon="8.76363">
        <ele>617</ele>
        <time>2021-08-04T10:12:04.784Z</time>
      </trkpt>
      <trkpt lat="46.97379" lon="8.76361">
        <ele>617</ele>
        <time>2021-08-04T10:12:05.783Z</time>
      </trkpt>
      <trkpt lat="46.9738" lon="8.76359">
        <ele>617</ele>
        <time>2021-08-04T10:12:06.783Z</time>
      </trkpt>
      <trkpt lat="46.97381" lon="8.76357">
        <ele>617</ele>
        <time>2021-08-04T10:12:07.784Z</time>
      </trkpt>
      <trkpt lat="46.97381" lon="8.76355">
        <ele>618</ele>
        <time>2021-08-04T10:12:08.783Z</time>
      </trkpt>
      <trkpt lat="46.97382" lon="8.76354">
        <ele>618</ele>
        <time>2021-08-04T10:12:09.783Z</time>
      </trkpt>
      <trkpt lat="46.97382" lon="8.76352">
        <ele>618</ele>
        <time>2021-08-04T10:12:10.783Z</time>
      </trkpt>
      <trkpt lat="46.97383" lon="8.7635">
        <ele>619</ele>
        <time>2021-08-04T10:12:11.783Z</time>
      </trkpt>
      <trkpt lat="46.97383" lon="8.76349">
        <ele>619</ele>
        <time>2021-08-04T10:12:12.784Z</time>
      </trkpt>
      <trkpt lat="46.97383" lon="8.76347">
        <ele>619</ele>
        <time>2021-08-04T10:12:13.784Z</time>
      </trkpt>
      <trkpt lat="46.97384" lon="8.76345">
        <ele>619</ele>
        <time>2021-08-04T10:12:14.784Z</time>
      </trkpt>
      <trkpt lat="46.97384" lon="8.76344">
        <ele>619</ele>
        <time>2021-08-04T10:12:15.784Z</time>
      </trkpt>
      <trkpt lat="46.97384" lon="8.76342">
        <ele>619</ele>
        <time>2021-08-04T10:12:16.783Z</time>
      </trkpt>
      <trkpt lat="46.97385" lon="8.76341">
        <ele>619</ele>
        <time>2021-08-04T10:12:17.784Z</time>
      </trkpt>
      <trkpt lat="46.97385" lon="8.76339">
        <ele>618</ele>
        <time>2021-08-04T10:12:18.783Z</time>
      </trkpt>
      <trkpt lat="46.97387" lon="8.76338">
        <ele>618</ele>
        <time>2021-08-04T10:12:19.784Z</time>
      </trkpt>
      <trkpt lat="46.97388" lon="8.76336">
        <ele>618</ele>
        <time>2021-08-04T10:12:20.784Z</time>
      </trkpt>
      <trkpt lat="46.97389" lon="8.76334">
        <ele>619</ele>
        <time>2021-08-04T10:12:21.783Z</time>
      </trkpt>
      <trkpt lat="46.97389" lon="8.76333">
        <ele>619</ele>
        <time>2021-08-04T10:12:22.783Z</time>
      </trkpt>
      <trkpt lat="46.97389" lon="8.76331">
        <ele>619</ele>
        <time>2021-08-04T10:12:23.784Z</time>
      </trkpt>
      <trkpt lat="46.97389" lon="8.76329">
        <ele>619</ele>
        <time>2021-08-04T10:12:24.784Z</time>
      </trkpt>
      <trkpt lat="46.97389" lon="8.76327">
        <ele>619</ele>
        <time>2021-08-04T10:12:25.783Z</time>
      </trkpt>
      <trkpt lat="46.97389" lon="8.76325">
        <ele>620</ele>
        <time>2021-08-04T10:12:26.784Z</time>
      </trkpt>
      <trkpt lat="46.97389" lon="8.76323">
        <ele>620</ele>
        <time>2021-08-04T10:12:27.784Z</time>
      </trkpt>
      <trkpt lat="46.9739" lon="8.76322">
        <ele>620</ele>
        <time>2021-08-04T10:12:28.783Z</time>
      </trkpt>
      <trkpt lat="46.97391" lon="8.7632">
        <ele>620</ele>
        <time>2021-08-04T10:12:29.784Z</time>
      </trkpt>
      <trkpt lat="46.97393" lon="8.76318">
        <ele>621</ele>
        <time>2021-08-04T10:12:30.784Z</time>
      </trkpt>
      <trkpt lat="46.97394" lon="8.76316">
        <ele>621</ele>
        <time>2021-08-04T10:12:31.783Z</time>
      </trkpt>
      <trkpt lat="46.97395" lon="8.76314">
        <ele>621</ele>
        <time>2021-08-04T10:12:32.783Z</time>
      </trkpt>
      <trkpt lat="46.97395" lon="8.76313">
        <ele>621</ele>
        <time>2021-08-04T10:12:33.783Z</time>
      </trkpt>
      <trkpt lat="46.97395" lon="8.76311">
        <ele>621</ele>
        <time>2021-08-04T10:12:34.783Z</time>
      </trkpt>
      <trkpt lat="46.97395" lon="8.76309">
        <ele>621</ele>
        <time>2021-08-04T10:12:35.784Z</time>
      </trkpt>
      <trkpt lat="46.97395" lon="8.76308">
        <ele>621</ele>
        <time>2021-08-04T10:12:36.784Z</time>
      </trkpt>
      <trkpt lat="46.97396" lon="8.76306">
        <ele>620</ele>
        <time>2021-08-04T10:12:37.783Z</time>
      </trkpt>
      <trkpt lat="46.97396" lon="8.76304">
        <ele>620</ele>
        <time>2021-08-04T10:12:38.783Z</time>
      </trkpt>
      <trkpt lat="46.97396" lon="8.76302">
        <ele>620</ele>
        <time>2021-08-04T10:12:39.784Z</time>
      </trkpt>
      <trkpt lat="46.97397" lon="8.76301">
        <ele>619</ele>
        <time>2021-08-04T10:12:40.783Z</time>
      </trkpt>
      <trkpt lat="46.97397" lon="8.76299">
        <ele>619</ele>
        <time>2021-08-04T10:12:41.784Z</time>
      </trkpt>
      <trkpt lat="46.97397" lon="8.76297">
        <ele>619</ele>
        <time>2021-08-04T10:12:42.784Z</time>
      </trkpt>
      <trkpt lat="46.97398" lon="8.76294">
        <ele>619</ele>
        <time>2021-08-04T10:12:43.784Z</time>
      </trkpt>
      <trkpt lat="46.97398" lon="8.76292">
        <ele>620</ele>
        <time>2021-08-04T10:12:44.783Z</time>
      </trkpt>
      <trkpt lat="46.97399" lon="8.7629">
        <ele>620</ele>
        <time>2021-08-04T10:12:45.784Z</time>
      </trkpt>
      <trkpt lat="46.97399" lon="8.76288">
        <ele>620</ele>
        <time>2021-08-04T10:12:46.784Z</time>
      </trkpt>
      <trkpt lat="46.97399" lon="8.76286">
        <ele>620</ele>
        <time>2021-08-04T10:12:47.784Z</time>
      </trkpt>
      <trkpt lat="46.97399" lon="8.76285">
        <ele>621</ele>
        <time>2021-08-04T10:12:48.784Z</time>
      </trkpt>
      <trkpt lat="46.97399" lon="8.76283">
        <ele>621</ele>
        <time>2021-08-04T10:12:49.783Z</time>
      </trkpt>
      <trkpt lat="46.97399" lon="8.76282">
        <ele>621</ele>
        <time>2021-08-04T10:12:50.783Z</time>
      </trkpt>
      <trkpt lat="46.97399" lon="8.76281">
        <ele>621</ele>
        <time>2021-08-04T10:12:51.784Z</time>
      </trkpt>
      <trkpt lat="46.974" lon="8.76279">
        <ele>622</ele>
        <time>2021-08-04T10:12:52.784Z</time>
      </trkpt>
      <trkpt lat="46.974" lon="8.76277">
        <ele>622</ele>
        <time>2021-08-04T10:12:53.783Z</time>
      </trkpt>
      <trkpt lat="46.974" lon="8.76276">
        <ele>622</ele>
        <time>2021-08-04T10:12:54.784Z</time>
      </trkpt>
      <trkpt lat="46.97401" lon="8.76275">
        <ele>622</ele>
        <time>2021-08-04T10:12:55.784Z</time>
      </trkpt>
      <trkpt lat="46.97402" lon="8.76273">
        <ele>622</ele>
        <time>2021-08-04T10:12:56.783Z</time>
      </trkpt>
      <trkpt lat="46.97403" lon="8.76271">
        <ele>622</ele>
        <time>2021-08-04T10:12:57.784Z</time>
      </trkpt>
      <trkpt lat="46.97404" lon="8.76269">
        <ele>622</ele>
        <time>2021-08-04T10:12:58.784Z</time>
      </trkpt>
      <trkpt lat="46.97405" lon="8.76267">
        <ele>622</ele>
        <time>2021-08-04T10:12:59.784Z</time>
      </trkpt>
      <trkpt lat="46.97405" lon="8.76265">
        <ele>622</ele>
        <time>2021-08-04T10:13:00.784Z</time>
      </trkpt>
      <trkpt lat="46.97406" lon="8.76264">
        <ele>622</ele>
        <time>2021-08-04T10:13:01.784Z</time>
      </trkpt>
      <trkpt lat="46.97406" lon="8.76262">
        <ele>622</ele>
        <time>2021-08-04T10:13:02.783Z</time>
      </trkpt>
      <trkpt lat="46.97407" lon="8.7626">
        <ele>622</ele>
        <time>2021-08-04T10:13:03.784Z</time>
      </trkpt>
      <trkpt lat="46.97407" lon="8.76258">
        <ele>621</ele>
        <time>2021-08-04T10:13:04.783Z</time>
      </trkpt>
      <trkpt lat="46.97408" lon="8.76257">
        <ele>621</ele>
        <time>2021-08-04T10:13:05.784Z</time>
      </trkpt>
      <trkpt lat="46.97408" lon="8.76255">
        <ele>621</ele>
        <time>2021-08-04T10:13:06.783Z</time>
      </trkpt>
      <trkpt lat="46.97409" lon="8.76254">
        <ele>621</ele>
        <time>2021-08-04T10:13:07.784Z</time>
      </trkpt>
      <trkpt lat="46.97408" lon="8.76252">
        <ele>621</ele>
        <time>2021-08-04T10:13:08.784Z</time>
      </trkpt>
      <trkpt lat="46.97408" lon="8.76251">
        <ele>621</ele>
        <time>2021-08-04T10:13:09.784Z</time>
      </trkpt>
      <trkpt lat="46.97408" lon="8.7625">
        <ele>620</ele>
        <time>2021-08-04T10:13:10.784Z</time>
      </trkpt>
      <trkpt lat="46.97409" lon="8.76249">
        <ele>620</ele>
        <time>2021-08-04T10:13:11.784Z</time>
      </trkpt>
      <trkpt lat="46.97409" lon="8.76247">
        <ele>620</ele>
        <time>2021-08-04T10:13:12.783Z</time>
      </trkpt>
      <trkpt lat="46.9741" lon="8.76246">
        <ele>620</ele>
        <time>2021-08-04T10:13:13.783Z</time>
      </trkpt>
      <trkpt lat="46.9741" lon="8.76244">
        <ele>620</ele>
        <time>2021-08-04T10:13:14.783Z</time>
      </trkpt>
      <trkpt lat="46.9741" lon="8.76243">
        <ele>619</ele>
        <time>2021-08-04T10:13:15.784Z</time>
      </trkpt>
      <trkpt lat="46.9741" lon="8.76241">
        <ele>619</ele>
        <time>2021-08-04T10:13:16.784Z</time>
      </trkpt>
      <trkpt lat="46.9741" lon="8.76239">
        <ele>619</ele>
        <time>2021-08-04T10:13:17.784Z</time>
      </trkpt>
      <trkpt lat="46.97411" lon="8.76237">
        <ele>619</ele>
        <time>2021-08-04T10:13:18.783Z</time>
      </trkpt>
      <trkpt lat="46.97411" lon="8.76235">
        <ele>619</ele>
        <time>2021-08-04T10:13:19.783Z</time>
      </trkpt>
      <trkpt lat="46.97412" lon="8.76233">
        <ele>618</ele>
        <time>2021-08-04T10:13:20.784Z</time>
      </trkpt>
      <trkpt lat="46.97412" lon="8.76232">
        <ele>618</ele>
        <time>2021-08-04T10:13:21.784Z</time>
      </trkpt>
      <trkpt lat="46.97412" lon="8.7623">
        <ele>618</ele>
        <time>2021-08-04T10:13:22.784Z</time>
      </trkpt>
      <trkpt lat="46.97412" lon="8.76228">
        <ele>618</ele>
        <time>2021-08-04T10:13:23.784Z</time>
      </trkpt>
      <trkpt lat="46.97413" lon="8.76226">
        <ele>618</ele>
        <time>2021-08-04T10:13:24.784Z</time>
      </trkpt>
      <trkpt lat="46.97413" lon="8.76225">
        <ele>618</ele>
        <time>2021-08-04T10:13:25.784Z</time>
      </trkpt>
      <trkpt lat="46.97414" lon="8.76223">
        <ele>618</ele>
        <time>2021-08-04T10:13:26.784Z</time>
      </trkpt>
      <trkpt lat="46.97414" lon="8.76221">
        <ele>617</ele>
        <time>2021-08-04T10:13:27.783Z</time>
      </trkpt>
      <trkpt lat="46.97414" lon="8.7622">
        <ele>617</ele>
        <time>2021-08-04T10:13:28.783Z</time>
      </trkpt>
      <trkpt lat="46.97415" lon="8.76218">
        <ele>617</ele>
        <time>2021-08-04T10:13:29.784Z</time>
      </trkpt>
      <trkpt lat="46.97415" lon="8.76217">
        <ele>617</ele>
        <time>2021-08-04T10:13:30.784Z</time>
      </trkpt>
      <trkpt lat="46.97416" lon="8.76215">
        <ele>617</ele>
        <time>2021-08-04T10:13:31.784Z</time>
      </trkpt>
      <trkpt lat="46.97416" lon="8.76213">
        <ele>617</ele>
        <time>2021-08-04T10:13:32.784Z</time>
      </trkpt>
      <trkpt lat="46.97416" lon="8.76211">
        <ele>617</ele>
        <time>2021-08-04T10:13:33.784Z</time>
      </trkpt>
      <trkpt lat="46.97417" lon="8.7621">
        <ele>617</ele>
        <time>2021-08-04T10:13:34.783Z</time>
      </trkpt>
      <trkpt lat="46.97417" lon="8.76209">
        <ele>618</ele>
        <time>2021-08-04T10:13:35.784Z</time>
      </trkpt>
      <trkpt lat="46.97417" lon="8.76207">
        <ele>618</ele>
        <time>2021-08-04T10:13:36.783Z</time>
      </trkpt>
      <trkpt lat="46.97417" lon="8.76206">
        <ele>619</ele>
        <time>2021-08-04T10:13:37.784Z</time>
      </trkpt>
      <trkpt lat="46.97417" lon="8.76205">
        <ele>619</ele>
        <time>2021-08-04T10:13:38.783Z</time>
      </trkpt>
      <trkpt lat="46.97418" lon="8.76204">
        <ele>619</ele>
        <time>2021-08-04T10:13:39.784Z</time>
      </trkpt>
      <trkpt lat="46.97418" lon="8.76203">
        <ele>620</ele>
        <time>2021-08-04T10:13:40.784Z</time>
      </trkpt>
      <trkpt lat="46.9742" lon="8.76201">
        <ele>620</ele>
        <time>2021-08-04T10:13:41.783Z</time>
      </trkpt>
      <trkpt lat="46.97422" lon="8.76199">
        <ele>619</ele>
        <time>2021-08-04T10:13:42.784Z</time>
      </trkpt>
      <trkpt lat="46.97423" lon="8.76198">
        <ele>619</ele>
        <time>2021-08-04T10:13:43.784Z</time>
      </trkpt>
      <trkpt lat="46.97423" lon="8.76196">
        <ele>619</ele>
        <time>2021-08-04T10:13:44.784Z</time>
      </trkpt>
      <trkpt lat="46.97424" lon="8.76194">
        <ele>618</ele>
        <time>2021-08-04T10:13:45.784Z</time>
      </trkpt>
      <trkpt lat="46.97424" lon="8.76192">
        <ele>618</ele>
        <time>2021-08-04T10:13:46.784Z</time>
      </trkpt>
      <trkpt lat="46.97424" lon="8.76191">
        <ele>618</ele>
        <time>2021-08-04T10:13:47.784Z</time>
      </trkpt>
      <trkpt lat="46.97425" lon="8.76189">
        <ele>618</ele>
        <time>2021-08-04T10:13:48.783Z</time>
      </trkpt>
      <trkpt lat="46.97426" lon="8.76188">
        <ele>618</ele>
        <time>2021-08-04T10:13:49.784Z</time>
      </trkpt>
      <trkpt lat="46.97426" lon="8.76187">
        <ele>618</ele>
        <time>2021-08-04T10:13:50.784Z</time>
      </trkpt>
      <trkpt lat="46.97427" lon="8.76185">
        <ele>618</ele>
        <time>2021-08-04T10:13:51.784Z</time>
      </trkpt>
      <trkpt lat="46.97427" lon="8.76184">
        <ele>618</ele>
        <time>2021-08-04T10:13:52.784Z</time>
      </trkpt>
      <trkpt lat="46.97427" lon="8.76183">
        <ele>618</ele>
        <time>2021-08-04T10:13:53.784Z</time>
      </trkpt>
      <trkpt lat="46.97427" lon="8.76182">
        <ele>618</ele>
        <time>2021-08-04T10:13:54.784Z</time>
      </trkpt>
      <trkpt lat="46.97427" lon="8.76181">
        <ele>618</ele>
        <time>2021-08-04T10:13:55.784Z</time>
      </trkpt>
      <trkpt lat="46.97426" lon="8.7618">
        <ele>618</ele>
        <time>2021-08-04T10:13:56.783Z</time>
      </trkpt>
      <trkpt lat="46.97427" lon="8.76179">
        <ele>618</ele>
        <time>2021-08-04T10:13:57.783Z</time>
      </trkpt>
      <trkpt lat="46.97427" lon="8.76178">
        <ele>617</ele>
        <time>2021-08-04T10:13:58.784Z</time>
      </trkpt>
      <trkpt lat="46.97428" lon="8.76177">
        <ele>617</ele>
        <time>2021-08-04T10:13:59.784Z</time>
      </trkpt>
      <trkpt lat="46.97428" lon="8.76175">
        <ele>617</ele>
        <time>2021-08-04T10:14:00.784Z</time>
      </trkpt>
      <trkpt lat="46.97427" lon="8.76172">
        <ele>617</ele>
        <time>2021-08-04T10:14:01.784Z</time>
      </trkpt>
      <trkpt lat="46.97427" lon="8.7617">
        <ele>618</ele>
        <time>2021-08-04T10:14:02.784Z</time>
      </trkpt>
      <trkpt lat="46.97427" lon="8.76169">
        <ele>618</ele>
        <time>2021-08-04T10:14:03.784Z</time>
      </trkpt>
      <trkpt lat="46.97428" lon="8.76168">
        <ele>618</ele>
        <time>2021-08-04T10:14:04.784Z</time>
      </trkpt>
      <trkpt lat="46.97429" lon="8.76166">
        <ele>618</ele>
        <time>2021-08-04T10:14:05.784Z</time>
      </trkpt>
      <trkpt lat="46.9743" lon="8.76164">
        <ele>619</ele>
        <time>2021-08-04T10:14:06.784Z</time>
      </trkpt>
      <trkpt lat="46.9743" lon="8.76163">
        <ele>619</ele>
        <time>2021-08-04T10:14:07.784Z</time>
      </trkpt>
      <trkpt lat="46.97431" lon="8.76161">
        <ele>619</ele>
        <time>2021-08-04T10:14:08.784Z</time>
      </trkpt>
      <trkpt lat="46.97431" lon="8.7616">
        <ele>619</ele>
        <time>2021-08-04T10:14:09.783Z</time>
      </trkpt>
      <trkpt lat="46.97431" lon="8.76158">
        <ele>619</ele>
        <time>2021-08-04T10:14:10.784Z</time>
      </trkpt>
      <trkpt lat="46.97432" lon="8.76157">
        <ele>619</ele>
        <time>2021-08-04T10:14:11.783Z</time>
      </trkpt>
      <trkpt lat="46.97432" lon="8.76155">
        <ele>619</ele>
        <time>2021-08-04T10:14:12.783Z</time>
      </trkpt>
      <trkpt lat="46.97432" lon="8.76154">
        <ele>619</ele>
        <time>2021-08-04T10:14:13.784Z</time>
      </trkpt>
      <trkpt lat="46.97431" lon="8.76152">
        <ele>619</ele>
        <time>2021-08-04T10:14:14.784Z</time>
      </trkpt>
      <trkpt lat="46.97431" lon="8.7615">
        <ele>619</ele>
        <time>2021-08-04T10:14:15.784Z</time>
      </trkpt>
      <trkpt lat="46.97431" lon="8.76149">
        <ele>619</ele>
        <time>2021-08-04T10:14:16.784Z</time>
      </trkpt>
      <trkpt lat="46.97432" lon="8.76147">
        <ele>619</ele>
        <time>2021-08-04T10:14:17.783Z</time>
      </trkpt>
      <trkpt lat="46.97433" lon="8.76145">
        <ele>620</ele>
        <time>2021-08-04T10:14:18.783Z</time>
      </trkpt>
      <trkpt lat="46.97433" lon="8.76143">
        <ele>620</ele>
        <time>2021-08-04T10:14:19.784Z</time>
      </trkpt>
      <trkpt lat="46.97434" lon="8.76141">
        <ele>620</ele>
        <time>2021-08-04T10:14:20.784Z</time>
      </trkpt>
      <trkpt lat="46.97434" lon="8.7614">
        <ele>621</ele>
        <time>2021-08-04T10:14:21.784Z</time>
      </trkpt>
      <trkpt lat="46.97435" lon="8.76138">
        <ele>621</ele>
        <time>2021-08-04T10:14:22.784Z</time>
      </trkpt>
      <trkpt lat="46.97436" lon="8.76136">
        <ele>621</ele>
        <time>2021-08-04T10:14:23.783Z</time>
      </trkpt>
      <trkpt lat="46.97437" lon="8.76134">
        <ele>621</ele>
        <time>2021-08-04T10:14:24.784Z</time>
      </trkpt>
      <trkpt lat="46.97438" lon="8.76133">
        <ele>621</ele>
        <time>2021-08-04T10:14:25.783Z</time>
      </trkpt>
      <trkpt lat="46.97439" lon="8.76131">
        <ele>621</ele>
        <time>2021-08-04T10:14:26.784Z</time>
      </trkpt>
      <trkpt lat="46.97439" lon="8.76129">
        <ele>621</ele>
        <time>2021-08-04T10:14:27.784Z</time>
      </trkpt>
      <trkpt lat="46.97439" lon="8.76127">
        <ele>621</ele>
        <time>2021-08-04T10:14:28.784Z</time>
      </trkpt>
      <trkpt lat="46.97439" lon="8.76125">
        <ele>620</ele>
        <time>2021-08-04T10:14:29.784Z</time>
      </trkpt>
      <trkpt lat="46.97439" lon="8.76123">
        <ele>621</ele>
        <time>2021-08-04T10:14:30.784Z</time>
      </trkpt>
      <trkpt lat="46.97439" lon="8.76122">
        <ele>621</ele>
        <time>2021-08-04T10:14:31.783Z</time>
      </trkpt>
      <trkpt lat="46.9744" lon="8.76119">
        <ele>621</ele>
        <time>2021-08-04T10:14:32.783Z</time>
      </trkpt>
      <trkpt lat="46.97439" lon="8.76117">
        <ele>621</ele>
        <time>2021-08-04T10:14:33.783Z</time>
      </trkpt>
      <trkpt lat="46.97439" lon="8.76114">
        <ele>621</ele>
        <time>2021-08-04T10:14:34.784Z</time>
      </trkpt>
      <trkpt lat="46.9744" lon="8.76111">
        <ele>621</ele>
        <time>2021-08-04T10:14:35.784Z</time>
      </trkpt>
      <trkpt lat="46.9744" lon="8.76109">
        <ele>621</ele>
        <time>2021-08-04T10:14:36.784Z</time>
      </trkpt>
      <trkpt lat="46.9744" lon="8.76106">
        <ele>621</ele>
        <time>2021-08-04T10:14:37.784Z</time>
      </trkpt>
      <trkpt lat="46.97441" lon="8.76104">
        <ele>621</ele>
        <time>2021-08-04T10:14:38.784Z</time>
      </trkpt>
      <trkpt lat="46.97441" lon="8.76102">
        <ele>622</ele>
        <time>2021-08-04T10:14:39.783Z</time>
      </trkpt>
      <trkpt lat="46.97442" lon="8.76101">
        <ele>622</ele>
        <time>2021-08-04T10:14:40.783Z</time>
      </trkpt>
      <trkpt lat="46.97442" lon="8.76099">
        <ele>622</ele>
        <time>2021-08-04T10:14:41.783Z</time>
      </trkpt>
      <trkpt lat="46.97442" lon="8.76098">
        <ele>622</ele>
        <time>2021-08-04T10:14:42.784Z</time>
      </trkpt>
      <trkpt lat="46.97443" lon="8.76097">
        <ele>622</ele>
        <time>2021-08-04T10:14:43.784Z</time>
      </trkpt>
      <trkpt lat="46.97444" lon="8.76096">
        <ele>622</ele>
        <time>2021-08-04T10:14:44.784Z</time>
      </trkpt>
      <trkpt lat="46.97445" lon="8.76095">
        <ele>622</ele>
        <time>2021-08-04T10:14:45.783Z</time>
      </trkpt>
      <trkpt lat="46.97445" lon="8.76094">
        <ele>623</ele>
        <time>2021-08-04T10:14:46.784Z</time>
      </trkpt>
      <trkpt lat="46.97446" lon="8.76093">
        <ele>623</ele>
        <time>2021-08-04T10:14:47.784Z</time>
      </trkpt>
      <trkpt lat="46.97447" lon="8.76091">
        <ele>623</ele>
        <time>2021-08-04T10:14:48.784Z</time>
      </trkpt>
      <trkpt lat="46.97447" lon="8.7609">
        <ele>623</ele>
        <time>2021-08-04T10:14:49.783Z</time>
      </trkpt>
      <trkpt lat="46.97448" lon="8.76088">
        <ele>622</ele>
        <time>2021-08-04T10:14:50.783Z</time>
      </trkpt>
      <trkpt lat="46.97448" lon="8.76087">
        <ele>622</ele>
        <time>2021-08-04T10:14:51.784Z</time>
      </trkpt>
      <trkpt lat="46.97449" lon="8.76086">
        <ele>621</ele>
        <time>2021-08-04T10:14:52.784Z</time>
      </trkpt>
      <trkpt lat="46.97449" lon="8.76084">
        <ele>621</ele>
        <time>2021-08-04T10:14:53.784Z</time>
      </trkpt>
      <trkpt lat="46.9745" lon="8.76082">
        <ele>621</ele>
        <time>2021-08-04T10:14:54.784Z</time>
      </trkpt>
      <trkpt lat="46.9745" lon="8.7608">
        <ele>620</ele>
        <time>2021-08-04T10:14:55.784Z</time>
      </trkpt>
      <trkpt lat="46.9745" lon="8.76078">
        <ele>620</ele>
        <time>2021-08-04T10:14:56.784Z</time>
      </trkpt>
      <trkpt lat="46.9745" lon="8.76076">
        <ele>619</ele>
        <time>2021-08-04T10:14:57.783Z</time>
      </trkpt>
      <trkpt lat="46.97451" lon="8.76075">
        <ele>619</ele>
        <time>2021-08-04T10:14:58.783Z</time>
      </trkpt>
      <trkpt lat="46.97452" lon="8.76073">
        <ele>619</ele>
        <time>2021-08-04T10:14:59.783Z</time>
      </trkpt>
      <trkpt lat="46.97452" lon="8.76071">
        <ele>619</ele>
        <time>2021-08-04T10:15:00.783Z</time>
      </trkpt>
      <trkpt lat="46.97453" lon="8.76069">
        <ele>619</ele>
        <time>2021-08-04T10:15:01.784Z</time>
      </trkpt>
      <trkpt lat="46.97453" lon="8.76068">
        <ele>619</ele>
        <time>2021-08-04T10:15:02.784Z</time>
      </trkpt>
      <trkpt lat="46.97454" lon="8.76066">
        <ele>619</ele>
        <time>2021-08-04T10:15:03.784Z</time>
      </trkpt>
      <trkpt lat="46.97455" lon="8.76066">
        <ele>619</ele>
        <time>2021-08-04T10:15:04.784Z</time>
      </trkpt>
      <trkpt lat="46.97455" lon="8.76064">
        <ele>618</ele>
        <time>2021-08-04T10:15:05.784Z</time>
      </trkpt>
      <trkpt lat="46.97456" lon="8.76062">
        <ele>618</ele>
        <time>2021-08-04T10:15:06.783Z</time>
      </trkpt>
      <trkpt lat="46.97457" lon="8.7606">
        <ele>618</ele>
        <time>2021-08-04T10:15:07.784Z</time>
      </trkpt>
      <trkpt lat="46.97458" lon="8.76059">
        <ele>618</ele>
        <time>2021-08-04T10:15:08.783Z</time>
      </trkpt>
      <trkpt lat="46.97458" lon="8.76057">
        <ele>618</ele>
        <time>2021-08-04T10:15:09.783Z</time>
      </trkpt>
      <trkpt lat="46.9746" lon="8.76056">
        <ele>617</ele>
        <time>2021-08-04T10:15:10.784Z</time>
      </trkpt>
      <trkpt lat="46.9746" lon="8.76054">
        <ele>617</ele>
        <time>2021-08-04T10:15:11.783Z</time>
      </trkpt>
      <trkpt lat="46.97461" lon="8.76052">
        <ele>617</ele>
        <time>2021-08-04T10:15:12.783Z</time>
      </trkpt>
      <trkpt lat="46.9746" lon="8.76049">
        <ele>617</ele>
        <time>2021-08-04T10:15:13.783Z</time>
      </trkpt>
      <trkpt lat="46.97461" lon="8.76047">
        <ele>617</ele>
        <time>2021-08-04T10:15:14.784Z</time>
      </trkpt>
      <trkpt lat="46.97462" lon="8.76045">
        <ele>617</ele>
        <time>2021-08-04T10:15:15.784Z</time>
      </trkpt>
      <trkpt lat="46.97463" lon="8.76044">
        <ele>617</ele>
        <time>2021-08-04T10:15:16.784Z</time>
      </trkpt>
      <trkpt lat="46.97463" lon="8.76043">
        <ele>617</ele>
        <time>2021-08-04T10:15:17.784Z</time>
      </trkpt>
      <trkpt lat="46.97465" lon="8.76041">
        <ele>617</ele>
        <time>2021-08-04T10:15:18.783Z</time>
      </trkpt>
      <trkpt lat="46.97466" lon="8.7604">
        <ele>617</ele>
        <time>2021-08-04T10:15:19.784Z</time>
      </trkpt>
      <trkpt lat="46.97466" lon="8.76038">
        <ele>617</ele>
        <time>2021-08-04T10:15:20.783Z</time>
      </trkpt>
      <trkpt lat="46.97466" lon="8.76036">
        <ele>617</ele>
        <time>2021-08-04T10:15:21.783Z</time>
      </trkpt>
      <trkpt lat="46.97467" lon="8.76034">
        <ele>617</ele>
        <time>2021-08-04T10:15:22.784Z</time>
      </trkpt>
      <trkpt lat="46.97467" lon="8.76032">
        <ele>617</ele>
        <time>2021-08-04T10:15:23.784Z</time>
      </trkpt>
      <trkpt lat="46.97468" lon="8.7603">
        <ele>617</ele>
        <time>2021-08-04T10:15:24.784Z</time>
      </trkpt>
      <trkpt lat="46.97468" lon="8.76029">
        <ele>617</ele>
        <time>2021-08-04T10:15:25.783Z</time>
      </trkpt>
      <trkpt lat="46.97468" lon="8.76028">
        <ele>617</ele>
        <time>2021-08-04T10:15:26.783Z</time>
      </trkpt>
      <trkpt lat="46.97469" lon="8.76026">
        <ele>618</ele>
        <time>2021-08-04T10:15:27.783Z</time>
      </trkpt>
      <trkpt lat="46.97469" lon="8.76024">
        <ele>618</ele>
        <time>2021-08-04T10:15:28.784Z</time>
      </trkpt>
      <trkpt lat="46.9747" lon="8.76023">
        <ele>618</ele>
        <time>2021-08-04T10:15:29.784Z</time>
      </trkpt>
      <trkpt lat="46.9747" lon="8.76021">
        <ele>618</ele>
        <time>2021-08-04T10:15:30.784Z</time>
      </trkpt>
      <trkpt lat="46.97471" lon="8.7602">
        <ele>618</ele>
        <time>2021-08-04T10:15:31.784Z</time>
      </trkpt>
      <trkpt lat="46.97472" lon="8.76018">
        <ele>618</ele>
        <time>2021-08-04T10:15:32.783Z</time>
      </trkpt>
      <trkpt lat="46.97473" lon="8.76017">
        <ele>618</ele>
        <time>2021-08-04T10:15:33.784Z</time>
      </trkpt>
      <trkpt lat="46.97474" lon="8.76015">
        <ele>618</ele>
        <time>2021-08-04T10:15:34.783Z</time>
      </trkpt>
      <trkpt lat="46.97474" lon="8.76013">
        <ele>618</ele>
        <time>2021-08-04T10:15:35.783Z</time>
      </trkpt>
      <trkpt lat="46.97475" lon="8.76011">
        <ele>618</ele>
        <time>2021-08-04T10:15:36.783Z</time>
      </trkpt>
      <trkpt lat="46.97476" lon="8.7601">
        <ele>618</ele>
        <time>2021-08-04T10:15:37.784Z</time>
      </trkpt>
      <trkpt lat="46.97476" lon="8.76008">
        <ele>618</ele>
        <time>2021-08-04T10:15:38.784Z</time>
      </trkpt>
      <trkpt lat="46.97477" lon="8.76007">
        <ele>618</ele>
        <time>2021-08-04T10:15:39.784Z</time>
      </trkpt>
      <trkpt lat="46.97477" lon="8.76005">
        <ele>617</ele>
        <time>2021-08-04T10:15:40.784Z</time>
      </trkpt>
      <trkpt lat="46.97478" lon="8.76004">
        <ele>617</ele>
        <time>2021-08-04T10:15:41.783Z</time>
      </trkpt>
      <trkpt lat="46.97479" lon="8.76003">
        <ele>616</ele>
        <time>2021-08-04T10:15:42.784Z</time>
      </trkpt>
      <trkpt lat="46.97479" lon="8.76001">
        <ele>616</ele>
        <time>2021-08-04T10:15:43.783Z</time>
      </trkpt>
      <trkpt lat="46.97479" lon="8.75999">
        <ele>616</ele>
        <time>2021-08-04T10:15:44.783Z</time>
      </trkpt>
      <trkpt lat="46.97479" lon="8.75997">
        <ele>616</ele>
        <time>2021-08-04T10:15:45.784Z</time>
      </trkpt>
      <trkpt lat="46.9748" lon="8.75995">
        <ele>616</ele>
        <time>2021-08-04T10:15:46.784Z</time>
      </trkpt>
      <trkpt lat="46.97481" lon="8.75993">
        <ele>616</ele>
        <time>2021-08-04T10:15:47.784Z</time>
      </trkpt>
      <trkpt lat="46.97481" lon="8.75991">
        <ele>616</ele>
        <time>2021-08-04T10:15:48.784Z</time>
      </trkpt>
      <trkpt lat="46.97482" lon="8.75989">
        <ele>616</ele>
        <time>2021-08-04T10:15:49.784Z</time>
      </trkpt>
      <trkpt lat="46.97482" lon="8.75987">
        <ele>616</ele>
        <time>2021-08-04T10:15:50.784Z</time>
      </trkpt>
      <trkpt lat="46.97483" lon="8.75986">
        <ele>616</ele>
        <time>2021-08-04T10:15:51.784Z</time>
      </trkpt>
      <trkpt lat="46.97483" lon="8.75984">
        <ele>615</ele>
        <time>2021-08-04T10:15:52.783Z</time>
      </trkpt>
      <trkpt lat="46.97483" lon="8.75982">
        <ele>615</ele>
        <time>2021-08-04T10:15:53.784Z</time>
      </trkpt>
      <trkpt lat="46.97482" lon="8.7598">
        <ele>615</ele>
        <time>2021-08-04T10:15:54.784Z</time>
      </trkpt>
      <trkpt lat="46.97482" lon="8.75979">
        <ele>615</ele>
        <time>2021-08-04T10:15:55.783Z</time>
      </trkpt>
      <trkpt lat="46.97482" lon="8.75977">
        <ele>615</ele>
        <time>2021-08-04T10:15:56.784Z</time>
      </trkpt>
      <trkpt lat="46.97482" lon="8.75975">
        <ele>615</ele>
        <time>2021-08-04T10:15:57.784Z</time>
      </trkpt>
      <trkpt lat="46.97483" lon="8.75973">
        <ele>615</ele>
        <time>2021-08-04T10:15:58.784Z</time>
      </trkpt>
      <trkpt lat="46.97483" lon="8.7597">
        <ele>615</ele>
        <time>2021-08-04T10:15:59.784Z</time>
      </trkpt>
      <trkpt lat="46.97483" lon="8.75968">
        <ele>615</ele>
        <time>2021-08-04T10:16:00.784Z</time>
      </trkpt>
      <trkpt lat="46.97484" lon="8.75966">
        <ele>615</ele>
        <time>2021-08-04T10:16:01.783Z</time>
      </trkpt>
      <trkpt lat="46.97485" lon="8.75964">
        <ele>615</ele>
        <time>2021-08-04T10:16:02.784Z</time>
      </trkpt>
      <trkpt lat="46.97486" lon="8.75963">
        <ele>615</ele>
        <time>2021-08-04T10:16:03.784Z</time>
      </trkpt>
      <trkpt lat="46.97486" lon="8.75961">
        <ele>615</ele>
        <time>2021-08-04T10:16:04.784Z</time>
      </trkpt>
      <trkpt lat="46.97486" lon="8.7596">
        <ele>615</ele>
        <time>2021-08-04T10:16:07.899Z</time>
      </trkpt>
      <trkpt lat="46.97486" lon="8.75958">
        <ele>615</ele>
        <time>2021-08-04T10:16:08.899Z</time>
      </trkpt>
      <trkpt lat="46.97486" lon="8.75956">
        <ele>615</ele>
        <time>2021-08-04T10:16:11.797Z</time>
      </trkpt>
      <trkpt lat="46.97487" lon="8.75954">
        <ele>615</ele>
        <time>2021-08-04T10:16:12.797Z</time>
      </trkpt>
      <trkpt lat="46.97488" lon="8.75951">
        <ele>615</ele>
        <time>2021-08-04T10:16:13.798Z</time>
      </trkpt>
      <trkpt lat="46.97489" lon="8.75949">
        <ele>615</ele>
        <time>2021-08-04T10:16:14.797Z</time>
      </trkpt>
      <trkpt lat="46.9749" lon="8.75947">
        <ele>615</ele>
        <time>2021-08-04T10:16:15.798Z</time>
      </trkpt>
      <trkpt lat="46.97491" lon="8.75945">
        <ele>615</ele>
        <time>2021-08-04T10:16:16.797Z</time>
      </trkpt>
      <trkpt lat="46.97493" lon="8.75943">
        <ele>615</ele>
        <time>2021-08-04T10:16:17.798Z</time>
      </trkpt>
      <trkpt lat="46.97493" lon="8.75941">
        <ele>615</ele>
        <time>2021-08-04T10:16:18.798Z</time>
      </trkpt>
      <trkpt lat="46.97493" lon="8.75939">
        <ele>615</ele>
        <time>2021-08-04T10:16:19.797Z</time>
      </trkpt>
      <trkpt lat="46.97494" lon="8.75936">
        <ele>615</ele>
        <time>2021-08-04T10:16:20.798Z</time>
      </trkpt>
      <trkpt lat="46.97495" lon="8.75934">
        <ele>615</ele>
        <time>2021-08-04T10:16:21.797Z</time>
      </trkpt>
      <trkpt lat="46.97497" lon="8.75932">
        <ele>615</ele>
        <time>2021-08-04T10:16:22.797Z</time>
      </trkpt>
      <trkpt lat="46.97498" lon="8.75929">
        <ele>615</ele>
        <time>2021-08-04T10:16:23.797Z</time>
      </trkpt>
      <trkpt lat="46.975" lon="8.75927">
        <ele>615</ele>
        <time>2021-08-04T10:16:24.798Z</time>
      </trkpt>
      <trkpt lat="46.975" lon="8.75925">
        <ele>615</ele>
        <time>2021-08-04T10:16:25.797Z</time>
      </trkpt>
      <trkpt lat="46.975" lon="8.75923">
        <ele>614</ele>
        <time>2021-08-04T10:16:26.798Z</time>
      </trkpt>
      <trkpt lat="46.975" lon="8.75921">
        <ele>614</ele>
        <time>2021-08-04T10:16:27.797Z</time>
      </trkpt>
      <trkpt lat="46.975" lon="8.7592">
        <ele>614</ele>
        <time>2021-08-04T10:16:28.798Z</time>
      </trkpt>
      <trkpt lat="46.975" lon="8.75919">
        <ele>615</ele>
        <time>2021-08-04T10:16:29.798Z</time>
      </trkpt>
      <trkpt lat="46.97501" lon="8.75918">
        <ele>614</ele>
        <time>2021-08-04T10:16:30.797Z</time>
      </trkpt>
      <trkpt lat="46.97501" lon="8.75916">
        <ele>614</ele>
        <time>2021-08-04T10:16:31.797Z</time>
      </trkpt>
      <trkpt lat="46.97502" lon="8.75915">
        <ele>614</ele>
        <time>2021-08-04T10:16:32.797Z</time>
      </trkpt>
      <trkpt lat="46.97502" lon="8.75913">
        <ele>614</ele>
        <time>2021-08-04T10:16:33.797Z</time>
      </trkpt>
      <trkpt lat="46.97502" lon="8.75912">
        <ele>614</ele>
        <time>2021-08-04T10:16:34.797Z</time>
      </trkpt>
      <trkpt lat="46.97503" lon="8.7591">
        <ele>614</ele>
        <time>2021-08-04T10:16:35.798Z</time>
      </trkpt>
      <trkpt lat="46.97503" lon="8.75908">
        <ele>614</ele>
        <time>2021-08-04T10:16:36.797Z</time>
      </trkpt>
      <trkpt lat="46.97503" lon="8.75907">
        <ele>613</ele>
        <time>2021-08-04T10:16:37.797Z</time>
      </trkpt>
      <trkpt lat="46.97504" lon="8.75905">
        <ele>613</ele>
        <time>2021-08-04T10:16:38.798Z</time>
      </trkpt>
      <trkpt lat="46.97504" lon="8.75903">
        <ele>613</ele>
        <time>2021-08-04T10:16:39.798Z</time>
      </trkpt>
      <trkpt lat="46.97504" lon="8.75902">
        <ele>613</ele>
        <time>2021-08-04T10:16:40.797Z</time>
      </trkpt>
      <trkpt lat="46.97503" lon="8.759">
        <ele>613</ele>
        <time>2021-08-04T10:16:46.816Z</time>
      </trkpt>
      <trkpt lat="46.97503" lon="8.75897">
        <ele>613</ele>
        <time>2021-08-04T10:16:47.817Z</time>
      </trkpt>
      <trkpt lat="46.97503" lon="8.75895">
        <ele>613</ele>
        <time>2021-08-04T10:16:48.817Z</time>
      </trkpt>
      <trkpt lat="46.97503" lon="8.75893">
        <ele>613</ele>
        <time>2021-08-04T10:16:49.817Z</time>
      </trkpt>
      <trkpt lat="46.97504" lon="8.75891">
        <ele>613</ele>
        <time>2021-08-04T10:16:50.817Z</time>
      </trkpt>
      <trkpt lat="46.97504" lon="8.7589">
        <ele>612</ele>
        <time>2021-08-04T10:16:51.816Z</time>
      </trkpt>
      <trkpt lat="46.97505" lon="8.75888">
        <ele>612</ele>
        <time>2021-08-04T10:16:52.816Z</time>
      </trkpt>
      <trkpt lat="46.97506" lon="8.75886">
        <ele>612</ele>
        <time>2021-08-04T10:16:53.817Z</time>
      </trkpt>
      <trkpt lat="46.97506" lon="8.75885">
        <ele>612</ele>
        <time>2021-08-04T10:16:54.816Z</time>
      </trkpt>
      <trkpt lat="46.97506" lon="8.75883">
        <ele>612</ele>
        <time>2021-08-04T10:16:55.816Z</time>
      </trkpt>
      <trkpt lat="46.97506" lon="8.75881">
        <ele>612</ele>
        <time>2021-08-04T10:16:56.816Z</time>
      </trkpt>
      <trkpt lat="46.97506" lon="8.7588">
        <ele>612</ele>
        <time>2021-08-04T10:16:57.816Z</time>
      </trkpt>
      <trkpt lat="46.97506" lon="8.75878">
        <ele>612</ele>
        <time>2021-08-04T10:16:58.817Z</time>
      </trkpt>
      <trkpt lat="46.97506" lon="8.75877">
        <ele>612</ele>
        <time>2021-08-04T10:16:59.817Z</time>
      </trkpt>
      <trkpt lat="46.97506" lon="8.75876">
        <ele>612</ele>
        <time>2021-08-04T10:17:00.817Z</time>
      </trkpt>
      <trkpt lat="46.97507" lon="8.75875">
        <ele>612</ele>
        <time>2021-08-04T10:17:01.816Z</time>
      </trkpt>
      <trkpt lat="46.97508" lon="8.75873">
        <ele>613</ele>
        <time>2021-08-04T10:17:02.817Z</time>
      </trkpt>
      <trkpt lat="46.97508" lon="8.75871">
        <ele>613</ele>
        <time>2021-08-04T10:17:03.817Z</time>
      </trkpt>
      <trkpt lat="46.97509" lon="8.7587">
        <ele>613</ele>
        <time>2021-08-04T10:17:04.816Z</time>
      </trkpt>
      <trkpt lat="46.97509" lon="8.75868">
        <ele>613</ele>
        <time>2021-08-04T10:17:05.816Z</time>
      </trkpt>
      <trkpt lat="46.9751" lon="8.75867">
        <ele>613</ele>
        <time>2021-08-04T10:17:06.816Z</time>
      </trkpt>
      <trkpt lat="46.9751" lon="8.75865">
        <ele>613</ele>
        <time>2021-08-04T10:17:07.816Z</time>
      </trkpt>
      <trkpt lat="46.9751" lon="8.75864">
        <ele>613</ele>
        <time>2021-08-04T10:17:08.816Z</time>
      </trkpt>
      <trkpt lat="46.97511" lon="8.75862">
        <ele>614</ele>
        <time>2021-08-04T10:17:09.817Z</time>
      </trkpt>
      <trkpt lat="46.97511" lon="8.75861">
        <ele>614</ele>
        <time>2021-08-04T10:17:10.817Z</time>
      </trkpt>
      <trkpt lat="46.97511" lon="8.75857">
        <ele>614</ele>
        <time>2021-08-04T10:17:11.816Z</time>
      </trkpt>
      <trkpt lat="46.97512" lon="8.75854">
        <ele>614</ele>
        <time>2021-08-04T10:17:12.817Z</time>
      </trkpt>
      <trkpt lat="46.97512" lon="8.75853">
        <ele>614</ele>
        <time>2021-08-04T10:17:13.816Z</time>
      </trkpt>
      <trkpt lat="46.97513" lon="8.75851">
        <ele>614</ele>
        <time>2021-08-04T10:17:14.817Z</time>
      </trkpt>
      <trkpt lat="46.97514" lon="8.75849">
        <ele>614</ele>
        <time>2021-08-04T10:17:15.817Z</time>
      </trkpt>
      <trkpt lat="46.97515" lon="8.75848">
        <ele>614</ele>
        <time>2021-08-04T10:17:16.817Z</time>
      </trkpt>
      <trkpt lat="46.97516" lon="8.75846">
        <ele>614</ele>
        <time>2021-08-04T10:17:17.817Z</time>
      </trkpt>
      <trkpt lat="46.97516" lon="8.75845">
        <ele>614</ele>
        <time>2021-08-04T10:17:18.816Z</time>
      </trkpt>
      <trkpt lat="46.97516" lon="8.75843">
        <ele>614</ele>
        <time>2021-08-04T10:17:19.816Z</time>
      </trkpt>
      <trkpt lat="46.97517" lon="8.75842">
        <ele>613</ele>
        <time>2021-08-04T10:17:20.817Z</time>
      </trkpt>
      <trkpt lat="46.97517" lon="8.7584">
        <ele>613</ele>
        <time>2021-08-04T10:17:21.816Z</time>
      </trkpt>
      <trkpt lat="46.97517" lon="8.75839">
        <ele>613</ele>
        <time>2021-08-04T10:17:22.816Z</time>
      </trkpt>
      <trkpt lat="46.97517" lon="8.75837">
        <ele>613</ele>
        <time>2021-08-04T10:17:23.816Z</time>
      </trkpt>
      <trkpt lat="46.97517" lon="8.75835">
        <ele>613</ele>
        <time>2021-08-04T10:17:24.816Z</time>
      </trkpt>
      <trkpt lat="46.97517" lon="8.75833">
        <ele>613</ele>
        <time>2021-08-04T10:17:25.816Z</time>
      </trkpt>
      <trkpt lat="46.97517" lon="8.75832">
        <ele>614</ele>
        <time>2021-08-04T10:17:26.816Z</time>
      </trkpt>
      <trkpt lat="46.97518" lon="8.7583">
        <ele>614</ele>
        <time>2021-08-04T10:17:27.817Z</time>
      </trkpt>
      <trkpt lat="46.97519" lon="8.75829">
        <ele>615</ele>
        <time>2021-08-04T10:17:28.817Z</time>
      </trkpt>
      <trkpt lat="46.9752" lon="8.75827">
        <ele>615</ele>
        <time>2021-08-04T10:17:29.816Z</time>
      </trkpt>
      <trkpt lat="46.97521" lon="8.75826">
        <ele>615</ele>
        <time>2021-08-04T10:17:30.816Z</time>
      </trkpt>
      <trkpt lat="46.97522" lon="8.75824">
        <ele>615</ele>
        <time>2021-08-04T10:17:31.816Z</time>
      </trkpt>
      <trkpt lat="46.97523" lon="8.75823">
        <ele>616</ele>
        <time>2021-08-04T10:17:32.816Z</time>
      </trkpt>
      <trkpt lat="46.97523" lon="8.75821">
        <ele>615</ele>
        <time>2021-08-04T10:17:33.817Z</time>
      </trkpt>
      <trkpt lat="46.97524" lon="8.75819">
        <ele>615</ele>
        <time>2021-08-04T10:17:34.816Z</time>
      </trkpt>
      <trkpt lat="46.97524" lon="8.75817">
        <ele>615</ele>
        <time>2021-08-04T10:17:35.816Z</time>
      </trkpt>
      <trkpt lat="46.97525" lon="8.75816">
        <ele>614</ele>
        <time>2021-08-04T10:17:36.816Z</time>
      </trkpt>
      <trkpt lat="46.97526" lon="8.75813">
        <ele>614</ele>
        <time>2021-08-04T10:17:37.817Z</time>
      </trkpt>
      <trkpt lat="46.97527" lon="8.75811">
        <ele>614</ele>
        <time>2021-08-04T10:17:38.817Z</time>
      </trkpt>
      <trkpt lat="46.97528" lon="8.7581">
        <ele>614</ele>
        <time>2021-08-04T10:17:39.816Z</time>
      </trkpt>
      <trkpt lat="46.97528" lon="8.75808">
        <ele>615</ele>
        <time>2021-08-04T10:17:40.816Z</time>
      </trkpt>
      <trkpt lat="46.97528" lon="8.75807">
        <ele>615</ele>
        <time>2021-08-04T10:17:41.816Z</time>
      </trkpt>
      <trkpt lat="46.97528" lon="8.75805">
        <ele>615</ele>
        <time>2021-08-04T10:17:42.816Z</time>
      </trkpt>
      <trkpt lat="46.97529" lon="8.75804">
        <ele>616</ele>
        <time>2021-08-04T10:17:43.816Z</time>
      </trkpt>
      <trkpt lat="46.9753" lon="8.75803">
        <ele>616</ele>
        <time>2021-08-04T10:17:44.817Z</time>
      </trkpt>
      <trkpt lat="46.97532" lon="8.75802">
        <ele>616</ele>
        <time>2021-08-04T10:17:45.816Z</time>
      </trkpt>
      <trkpt lat="46.97533" lon="8.758">
        <ele>617</ele>
        <time>2021-08-04T10:17:46.816Z</time>
      </trkpt>
      <trkpt lat="46.97534" lon="8.75798">
        <ele>617</ele>
        <time>2021-08-04T10:17:47.817Z</time>
      </trkpt>
      <trkpt lat="46.97534" lon="8.75796">
        <ele>616</ele>
        <time>2021-08-04T10:17:48.817Z</time>
      </trkpt>
      <trkpt lat="46.97534" lon="8.75794">
        <ele>616</ele>
        <time>2021-08-04T10:17:49.816Z</time>
      </trkpt>
      <trkpt lat="46.97534" lon="8.75792">
        <ele>616</ele>
        <time>2021-08-04T10:17:50.816Z</time>
      </trkpt>
      <trkpt lat="46.97534" lon="8.7579">
        <ele>616</ele>
        <time>2021-08-04T10:17:51.816Z</time>
      </trkpt>
      <trkpt lat="46.97534" lon="8.75788">
        <ele>616</ele>
        <time>2021-08-04T10:17:52.817Z</time>
      </trkpt>
      <trkpt lat="46.97534" lon="8.75786">
        <ele>616</ele>
        <time>2021-08-04T10:17:53.816Z</time>
      </trkpt>
      <trkpt lat="46.97534" lon="8.75784">
        <ele>616</ele>
        <time>2021-08-04T10:17:54.816Z</time>
      </trkpt>
      <trkpt lat="46.97535" lon="8.75782">
        <ele>616</ele>
        <time>2021-08-04T10:17:55.816Z</time>
      </trkpt>
      <trkpt lat="46.97535" lon="8.7578">
        <ele>615</ele>
        <time>2021-08-04T10:17:56.816Z</time>
      </trkpt>
      <trkpt lat="46.97535" lon="8.75778">
        <ele>615</ele>
        <time>2021-08-04T10:17:57.817Z</time>
      </trkpt>
      <trkpt lat="46.97535" lon="8.75777">
        <ele>616</ele>
        <time>2021-08-04T10:17:58.817Z</time>
      </trkpt>
      <trkpt lat="46.97535" lon="8.75775">
        <ele>616</ele>
        <time>2021-08-04T10:17:59.816Z</time>
      </trkpt>
      <trkpt lat="46.97536" lon="8.75774">
        <ele>616</ele>
        <time>2021-08-04T10:18:00.816Z</time>
      </trkpt>
      <trkpt lat="46.97536" lon="8.75772">
        <ele>615</ele>
        <time>2021-08-04T10:18:01.816Z</time>
      </trkpt>
      <trkpt lat="46.97536" lon="8.75771">
        <ele>615</ele>
        <time>2021-08-04T10:18:02.817Z</time>
      </trkpt>
      <trkpt lat="46.97536" lon="8.75769">
        <ele>614</ele>
        <time>2021-08-04T10:18:03.816Z</time>
      </trkpt>
      <trkpt lat="46.97536" lon="8.75767">
        <ele>614</ele>
        <time>2021-08-04T10:18:04.816Z</time>
      </trkpt>
      <trkpt lat="46.97536" lon="8.75764">
        <ele>614</ele>
        <time>2021-08-04T10:18:05.816Z</time>
      </trkpt>
      <trkpt lat="46.97536" lon="8.75762">
        <ele>614</ele>
        <time>2021-08-04T10:18:06.816Z</time>
      </trkpt>
      <trkpt lat="46.97536" lon="8.75761">
        <ele>614</ele>
        <time>2021-08-04T10:18:07.816Z</time>
      </trkpt>
      <trkpt lat="46.97536" lon="8.75758">
        <ele>614</ele>
        <time>2021-08-04T10:18:08.816Z</time>
      </trkpt>
      <trkpt lat="46.97537" lon="8.75757">
        <ele>614</ele>
        <time>2021-08-04T10:18:09.816Z</time>
      </trkpt>
      <trkpt lat="46.97536" lon="8.75756">
        <ele>615</ele>
        <time>2021-08-04T10:18:10.816Z</time>
      </trkpt>
      <trkpt lat="46.97537" lon="8.75754">
        <ele>615</ele>
        <time>2021-08-04T10:18:11.816Z</time>
      </trkpt>
      <trkpt lat="46.97538" lon="8.75753">
        <ele>615</ele>
        <time>2021-08-04T10:18:12.817Z</time>
      </trkpt>
      <trkpt lat="46.97539" lon="8.75751">
        <ele>616</ele>
        <time>2021-08-04T10:18:13.816Z</time>
      </trkpt>
      <trkpt lat="46.97539" lon="8.7575">
        <ele>617</ele>
        <time>2021-08-04T10:18:14.816Z</time>
      </trkpt>
      <trkpt lat="46.9754" lon="8.75748">
        <ele>617</ele>
        <time>2021-08-04T10:18:15.816Z</time>
      </trkpt>
      <trkpt lat="46.97541" lon="8.75746">
        <ele>617</ele>
        <time>2021-08-04T10:18:16.816Z</time>
      </trkpt>
      <trkpt lat="46.97542" lon="8.75744">
        <ele>617</ele>
        <time>2021-08-04T10:18:17.816Z</time>
      </trkpt>
      <trkpt lat="46.97544" lon="8.75742">
        <ele>617</ele>
        <time>2021-08-04T10:18:18.816Z</time>
      </trkpt>
      <trkpt lat="46.97544" lon="8.75739">
        <ele>617</ele>
        <time>2021-08-04T10:18:19.816Z</time>
      </trkpt>
      <trkpt lat="46.97543" lon="8.75737">
        <ele>617</ele>
        <time>2021-08-04T10:18:20.816Z</time>
      </trkpt>
      <trkpt lat="46.97543" lon="8.75734">
        <ele>617</ele>
        <time>2021-08-04T10:18:21.816Z</time>
      </trkpt>
      <trkpt lat="46.97542" lon="8.75732">
        <ele>617</ele>
        <time>2021-08-04T10:18:22.816Z</time>
      </trkpt>
      <trkpt lat="46.97542" lon="8.7573">
        <ele>617</ele>
        <time>2021-08-04T10:18:23.817Z</time>
      </trkpt>
      <trkpt lat="46.97542" lon="8.75728">
        <ele>617</ele>
        <time>2021-08-04T10:18:24.817Z</time>
      </trkpt>
      <trkpt lat="46.97542" lon="8.75726">
        <ele>618</ele>
        <time>2021-08-04T10:18:25.817Z</time>
      </trkpt>
      <trkpt lat="46.97543" lon="8.75725">
        <ele>618</ele>
        <time>2021-08-04T10:18:26.817Z</time>
      </trkpt>
      <trkpt lat="46.97543" lon="8.75723">
        <ele>618</ele>
        <time>2021-08-04T10:18:27.817Z</time>
      </trkpt>
      <trkpt lat="46.97544" lon="8.75722">
        <ele>618</ele>
        <time>2021-08-04T10:18:28.817Z</time>
      </trkpt>
      <trkpt lat="46.97545" lon="8.75721">
        <ele>618</ele>
        <time>2021-08-04T10:18:29.817Z</time>
      </trkpt>
      <trkpt lat="46.97546" lon="8.7572">
        <ele>617</ele>
        <time>2021-08-04T10:18:30.816Z</time>
      </trkpt>
      <trkpt lat="46.97546" lon="8.75718">
        <ele>617</ele>
        <time>2021-08-04T10:18:31.816Z</time>
      </trkpt>
      <trkpt lat="46.97547" lon="8.75716">
        <ele>617</ele>
        <time>2021-08-04T10:18:32.816Z</time>
      </trkpt>
      <trkpt lat="46.97547" lon="8.75715">
        <ele>617</ele>
        <time>2021-08-04T10:18:33.817Z</time>
      </trkpt>
      <trkpt lat="46.97547" lon="8.75714">
        <ele>617</ele>
        <time>2021-08-04T10:18:34.817Z</time>
      </trkpt>
      <trkpt lat="46.97547" lon="8.75713">
        <ele>617</ele>
        <time>2021-08-04T10:18:35.816Z</time>
      </trkpt>
      <trkpt lat="46.97548" lon="8.75712">
        <ele>618</ele>
        <time>2021-08-04T10:18:36.817Z</time>
      </trkpt>
      <trkpt lat="46.97548" lon="8.75711">
        <ele>618</ele>
        <time>2021-08-04T10:18:37.816Z</time>
      </trkpt>
      <trkpt lat="46.97549" lon="8.75709">
        <ele>618</ele>
        <time>2021-08-04T10:18:38.816Z</time>
      </trkpt>
      <trkpt lat="46.9755" lon="8.75708">
        <ele>618</ele>
        <time>2021-08-04T10:18:39.817Z</time>
      </trkpt>
      <trkpt lat="46.97551" lon="8.75707">
        <ele>619</ele>
        <time>2021-08-04T10:18:40.817Z</time>
      </trkpt>
      <trkpt lat="46.97551" lon="8.75705">
        <ele>619</ele>
        <time>2021-08-04T10:18:41.817Z</time>
      </trkpt>
      <trkpt lat="46.97552" lon="8.75704">
        <ele>619</ele>
        <time>2021-08-04T10:18:42.817Z</time>
      </trkpt>
      <trkpt lat="46.97552" lon="8.75703">
        <ele>620</ele>
        <time>2021-08-04T10:18:43.817Z</time>
      </trkpt>
      <trkpt lat="46.97553" lon="8.757">
        <ele>620</ele>
        <time>2021-08-04T10:18:44.816Z</time>
      </trkpt>
      <trkpt lat="46.97554" lon="8.75698">
        <ele>620</ele>
        <time>2021-08-04T10:18:45.817Z</time>
      </trkpt>
      <trkpt lat="46.97553" lon="8.75696">
        <ele>620</ele>
        <time>2021-08-04T10:18:46.817Z</time>
      </trkpt>
      <trkpt lat="46.97553" lon="8.75693">
        <ele>620</ele>
        <time>2021-08-04T10:18:47.817Z</time>
      </trkpt>
      <trkpt lat="46.97553" lon="8.75691">
        <ele>620</ele>
        <time>2021-08-04T10:18:48.816Z</time>
      </trkpt>
      <trkpt lat="46.97554" lon="8.75688">
        <ele>620</ele>
        <time>2021-08-04T10:18:49.817Z</time>
      </trkpt>
      <trkpt lat="46.97554" lon="8.75685">
        <ele>620</ele>
        <time>2021-08-04T10:18:50.817Z</time>
      </trkpt>
      <trkpt lat="46.97554" lon="8.75682">
        <ele>620</ele>
        <time>2021-08-04T10:18:51.816Z</time>
      </trkpt>
      <trkpt lat="46.97554" lon="8.7568">
        <ele>620</ele>
        <time>2021-08-04T10:18:52.816Z</time>
      </trkpt>
      <trkpt lat="46.97554" lon="8.75678">
        <ele>620</ele>
        <time>2021-08-04T10:18:53.817Z</time>
      </trkpt>
      <trkpt lat="46.97554" lon="8.75676">
        <ele>620</ele>
        <time>2021-08-04T10:18:54.816Z</time>
      </trkpt>
      <trkpt lat="46.97554" lon="8.75673">
        <ele>620</ele>
        <time>2021-08-04T10:18:55.816Z</time>
      </trkpt>
      <trkpt lat="46.97555" lon="8.75672">
        <ele>620</ele>
        <time>2021-08-04T10:18:56.816Z</time>
      </trkpt>
      <trkpt lat="46.97556" lon="8.75671">
        <ele>619</ele>
        <time>2021-08-04T10:18:57.817Z</time>
      </trkpt>
      <trkpt lat="46.97556" lon="8.7567">
        <ele>619</ele>
        <time>2021-08-04T10:18:58.816Z</time>
      </trkpt>
      <trkpt lat="46.97556" lon="8.7567">
        <ele>619</ele>
        <time>2021-08-04T10:18:59.816Z</time>
      </trkpt>
      <trkpt lat="46.97557" lon="8.7567">
        <ele>619</ele>
        <time>2021-08-04T10:19:00.816Z</time>
      </trkpt>
      <trkpt lat="46.97557" lon="8.75669">
        <ele>620</ele>
        <time>2021-08-04T10:19:01.817Z</time>
      </trkpt>
      <trkpt lat="46.97558" lon="8.75669">
        <ele>620</ele>
        <time>2021-08-04T10:19:02.816Z</time>
      </trkpt>
      <trkpt lat="46.97557" lon="8.75669">
        <ele>621</ele>
        <time>2021-08-04T10:19:03.816Z</time>
      </trkpt>
      <trkpt lat="46.97557" lon="8.75669">
        <ele>621</ele>
        <time>2021-08-04T10:19:04.816Z</time>
      </trkpt>
      <trkpt lat="46.97556" lon="8.75669">
        <ele>622</ele>
        <time>2021-08-04T10:19:05.816Z</time>
      </trkpt>
      <trkpt lat="46.97555" lon="8.75669">
        <ele>623</ele>
        <time>2021-08-04T10:19:06.816Z</time>
      </trkpt>
      <trkpt lat="46.97554" lon="8.7567">
        <ele>627</ele>
        <time>2021-08-04T10:19:07.816Z</time>
      </trkpt>
      <trkpt lat="46.97553" lon="8.75671">
        <ele>628</ele>
        <time>2021-08-04T10:19:08.816Z</time>
      </trkpt>
      <trkpt lat="46.97553" lon="8.7567">
        <ele>629</ele>
        <time>2021-08-04T10:19:09.816Z</time>
      </trkpt>
      <trkpt lat="46.97552" lon="8.7567">
        <ele>630</ele>
        <time>2021-08-04T10:19:10.816Z</time>
      </trkpt>
      <trkpt lat="46.97552" lon="8.7567">
        <ele>630</ele>
        <time>2021-08-04T10:19:11.817Z</time>
      </trkpt>
      <trkpt lat="46.97551" lon="8.75669">
        <ele>631</ele>
        <time>2021-08-04T10:19:12.816Z</time>
      </trkpt>
      <trkpt lat="46.97551" lon="8.75669">
        <ele>632</ele>
        <time>2021-08-04T10:19:13.816Z</time>
      </trkpt>
      <trkpt lat="46.97552" lon="8.75669">
        <ele>633</ele>
        <time>2021-08-04T10:19:14.816Z</time>
      </trkpt>
      <trkpt lat="46.97552" lon="8.7567">
        <ele>634</ele>
        <time>2021-08-04T10:19:15.816Z</time>
      </trkpt>
      <trkpt lat="46.97552" lon="8.7567">
        <ele>634</ele>
        <time>2021-08-04T10:19:16.817Z</time>
      </trkpt>
      <trkpt lat="46.97553" lon="8.7567">
        <ele>635</ele>
        <time>2021-08-04T10:19:17.816Z</time>
      </trkpt>
      <trkpt lat="46.97553" lon="8.7567">
        <ele>635</ele>
        <time>2021-08-04T10:19:18.817Z</time>
      </trkpt>
      <trkpt lat="46.97554" lon="8.7567">
        <ele>636</ele>
        <time>2021-08-04T10:19:19.817Z</time>
      </trkpt>
      <trkpt lat="46.97554" lon="8.7567">
        <ele>636</ele>
        <time>2021-08-04T10:19:20.817Z</time>
      </trkpt>
      <trkpt lat="46.97555" lon="8.7567">
        <ele>636</ele>
        <time>2021-08-04T10:19:21.816Z</time>
      </trkpt>
      <trkpt lat="46.97556" lon="8.75669">
        <ele>636</ele>
        <time>2021-08-04T10:19:22.817Z</time>
      </trkpt>
      <trkpt lat="46.97556" lon="8.7567">
        <ele>636</ele>
        <time>2021-08-04T10:19:23.816Z</time>
      </trkpt>
      <trkpt lat="46.97557" lon="8.75669">
        <ele>636</ele>
        <time>2021-08-04T10:19:24.816Z</time>
      </trkpt>
      <trkpt lat="46.97564" lon="8.75704">
        <ele>636</ele>
        <time>2021-08-04T10:24:57.286Z</time>
      </trkpt>
      <trkpt lat="46.97554" lon="8.75703">
        <ele>636</ele>
        <time>2021-08-04T10:24:58.285Z</time>
      </trkpt>
      <trkpt lat="46.97555" lon="8.75686">
        <ele>635</ele>
        <time>2021-08-04T10:24:59.286Z</time>
      </trkpt>
      <trkpt lat="46.97556" lon="8.75679">
        <ele>635</ele>
        <time>2021-08-04T10:25:02.413Z</time>
      </trkpt>
      <trkpt lat="46.97556" lon="8.75672">
        <ele>635</ele>
        <time>2021-08-04T10:25:03.414Z</time>
      </trkpt>
      <trkpt lat="46.97556" lon="8.75677">
        <ele>634</ele>
        <time>2021-08-04T10:25:04.413Z</time>
      </trkpt>
      <trkpt lat="46.97553" lon="8.7568">
        <ele>634</ele>
        <time>2021-08-04T10:25:05.414Z</time>
      </trkpt>
      <trkpt lat="46.97552" lon="8.75681">
        <ele>634</ele>
        <time>2021-08-04T10:25:06.414Z</time>
      </trkpt>
      <trkpt lat="46.97551" lon="8.75683">
        <ele>635</ele>
        <time>2021-08-04T10:25:07.413Z</time>
      </trkpt>
      <trkpt lat="46.9755" lon="8.75684">
        <ele>635</ele>
        <time>2021-08-04T10:25:08.414Z</time>
      </trkpt>
      <trkpt lat="46.9755" lon="8.75686">
        <ele>635</ele>
        <time>2021-08-04T10:25:09.414Z</time>
      </trkpt>
      <trkpt lat="46.9755" lon="8.75688">
        <ele>636</ele>
        <time>2021-08-04T10:25:10.414Z</time>
      </trkpt>
      <trkpt lat="46.9755" lon="8.7569">
        <ele>637</ele>
        <time>2021-08-04T10:25:11.413Z</time>
      </trkpt>
      <trkpt lat="46.9755" lon="8.75689">
        <ele>638</ele>
        <time>2021-08-04T10:25:12.414Z</time>
      </trkpt>
      <trkpt lat="46.9755" lon="8.75688">
        <ele>639</ele>
        <time>2021-08-04T10:25:13.414Z</time>
      </trkpt>
      <trkpt lat="46.97551" lon="8.75687">
        <ele>639</ele>
        <time>2021-08-04T10:25:14.413Z</time>
      </trkpt>
      <trkpt lat="46.97447" lon="8.75734">
        <ele>621</ele>
        <time>2021-08-04T10:26:06.415Z</time>
      </trkpt>
      <trkpt lat="46.97447" lon="8.75733">
        <ele>621</ele>
        <time>2021-08-04T10:26:07.414Z</time>
      </trkpt>
      <trkpt lat="46.97447" lon="8.75733">
        <ele>621</ele>
        <time>2021-08-04T10:26:08.415Z</time>
      </trkpt>
      <trkpt lat="46.97447" lon="8.75734">
        <ele>620</ele>
        <time>2021-08-04T10:26:09.414Z</time>
      </trkpt>
      <trkpt lat="46.97447" lon="8.75734">
        <ele>620</ele>
        <time>2021-08-04T10:26:10.414Z</time>
      </trkpt>
      <trkpt lat="46.97447" lon="8.75735">
        <ele>620</ele>
        <time>2021-08-04T10:26:11.415Z</time>
      </trkpt>
      <trkpt lat="46.97447" lon="8.75735">
        <ele>619</ele>
        <time>2021-08-04T10:26:12.415Z</time>
      </trkpt>
      <trkpt lat="46.97447" lon="8.75735">
        <ele>619</ele>
        <time>2021-08-04T10:26:13.415Z</time>
      </trkpt>
      <trkpt lat="46.97446" lon="8.75735">
        <ele>619</ele>
        <time>2021-08-04T10:26:14.415Z</time>
      </trkpt>
    </trkseg>
  </trk>
</gpx>